<?xml version='1.0' encoding='UTF-8'?><gpx version="1.1" creator="JPX - https://github.com/jenetics/jpx" xmlns="http://www.topografix.com/GPX/1/1"><trk><trkseg><trkpt lat="44.14578140134103" lon="12.134939787126328"><ele>219.0</ele><time>2026-04-20T08:41:58.999Z</time></trkpt><trkpt lat="44.14580792245554" lon="12.13506507559163"><ele>218.99999999999997</ele><time>2026-04-20T08:42:00.999Z</time></trkpt><trkpt lat="44.14589542557546" lon="12.135207735187437"><ele>218.99999999999997</ele><time>2026-04-20T08:42:02.999Z</time></trkpt><trkpt lat="44.145948959314225" lon="12.135315971649343"><ele>219.0</ele><time>2026-04-20T08:42:04.999Z</time></trkpt><trkpt lat="44.14596885260553" lon="12.135405264859346"><ele>219.0</ele><time>2026-04-20T08:42:07.998Z</time></trkpt><trkpt lat="44.146009614479965" lon="12.135535518150329"><ele>219.0</ele><time>2026-04-20T08:42:09.998Z</time></trkpt><trkpt lat="44.146041586002" lon="12.1357045349465"><ele>218.99999999999997</ele><time>2026-04-20T08:42:11.998Z</time></trkpt><trkpt lat="44.14605164793469" lon="12.13582211301551"><ele>218.99999999999997</ele><time>2026-04-20T08:42:12.998Z</time></trkpt><trkpt lat="44.146071736265405" lon="12.13593592528497"><ele>219.0</ele><time>2026-04-20T08:42:13.998Z</time></trkpt><trkpt lat="44.14608518500451" lon="12.136055673088155"><ele>219.0</ele><time>2026-04-20T08:42:14.998Z</time></trkpt><trkpt lat="44.14610138583341" lon="12.136176533037535"><ele>218.33333333333334</ele><time>2026-04-20T08:42:15.998Z</time></trkpt><trkpt lat="44.146112870194614" lon="12.13629487237425"><ele>217.66666666666669</ele><time>2026-04-20T08:42:16.998Z</time></trkpt><trkpt lat="44.14612484112571" lon="12.13641774212987"><ele>217.0</ele><time>2026-04-20T08:42:17.998Z</time></trkpt><trkpt lat="44.14613227141213" lon="12.136520904073414"><ele>216.33333333333334</ele><time>2026-04-20T08:42:18.998Z</time></trkpt><trkpt lat="44.14614090996594" lon="12.13662182565901"><ele>215.66666666666669</ele><time>2026-04-20T08:42:19.998Z</time></trkpt><trkpt lat="44.146148028575496" lon="12.136713703145135"><ele>215.0</ele><time>2026-04-20T08:42:20.998Z</time></trkpt><trkpt lat="44.146156621707625" lon="12.13685514785008"><ele>213.0</ele><time>2026-04-20T08:42:22.998Z</time></trkpt><trkpt lat="44.14614793576113" lon="12.136949888822395"><ele>211.0</ele><time>2026-04-20T08:42:25.999Z</time></trkpt><trkpt lat="44.14620983221393" lon="12.136843087275631"><ele>209.0</ele><time>2026-04-20T08:42:28.999Z</time></trkpt><trkpt lat="44.14667419849167" lon="12.136498656497785"><ele>207.75</ele><time>2026-04-20T08:42:30.999Z</time></trkpt><trkpt lat="44.14665982642999" lon="12.136380030722021"><ele>206.5</ele><time>2026-04-20T08:42:31.999Z</time></trkpt><trkpt lat="44.14664350690545" lon="12.136245330192045"><ele>205.25</ele><time>2026-04-20T08:42:32.999Z</time></trkpt><trkpt lat="44.14662449435585" lon="12.136088401593"><ele>204.0</ele><time>2026-04-20T08:42:33.999Z</time></trkpt><trkpt lat="44.146091471429024" lon="12.136054698419931"><ele>205.83333333333334</ele><time>2026-04-20T08:42:34.999Z</time></trkpt><trkpt lat="44.14607542765658" lon="12.135928584874817"><ele>207.66666666666669</ele><time>2026-04-20T08:42:35.999Z</time></trkpt><trkpt lat="44.14606590735986" lon="12.135797582771598"><ele>209.5</ele><time>2026-04-20T08:42:37.999Z</time></trkpt><trkpt lat="44.14605100061607" lon="12.135705825671057"><ele>211.33333333333334</ele><time>2026-04-20T08:42:39.999Z</time></trkpt><trkpt lat="44.14603058993402" lon="12.13561808992938"><ele>213.16666666666669</ele><time>2026-04-20T08:42:40.999Z</time></trkpt><trkpt lat="44.1460174681757" lon="12.135522525042546"><ele>215.0</ele><time>2026-04-20T08:42:41.999Z</time></trkpt><trkpt lat="44.145823697162136" lon="12.134986948171399"><ele>215.0</ele><time>2026-04-20T08:42:46.999Z</time></trkpt><trkpt lat="44.1458207319687" lon="12.135794973874546"><ele>215.0</ele><time>2026-04-20T08:42:47.999Z</time></trkpt><trkpt lat="44.145772877269444" lon="12.13593784408093"><ele>215.0</ele><time>2026-04-20T08:42:48.999Z</time></trkpt><trkpt lat="44.145728768295946" lon="12.136087244977022"><ele>215.0</ele><time>2026-04-20T08:42:49.999Z</time></trkpt><trkpt lat="44.14567938536903" lon="12.13624054233031"><ele>215.0</ele><time>2026-04-20T08:42:50.999Z</time></trkpt><trkpt lat="44.1456601821307" lon="12.136405101935534"><ele>221.0</ele><time>2026-04-20T08:42:51.999Z</time></trkpt><trkpt lat="44.145595780950075" lon="12.136553009487171"><ele>227.0</ele><time>2026-04-20T08:42:52.999Z</time></trkpt><trkpt lat="44.14554288825559" lon="12.136724551193222"><ele>233.0</ele><time>2026-04-20T08:42:53.999Z</time></trkpt><trkpt lat="44.14548126056574" lon="12.136856210256058"><ele>239.0</ele><time>2026-04-20T08:42:54.999Z</time></trkpt><trkpt lat="44.14543820678438" lon="12.136977006020622"><ele>239.0</ele><time>2026-04-20T08:42:55.999Z</time></trkpt><trkpt lat="44.1454012687855" lon="12.13712217730903"><ele>238.99999999999997</ele><time>2026-04-20T08:42:56.999Z</time></trkpt><trkpt lat="44.14533037005452" lon="12.13723260086347"><ele>238.99999999999997</ele><time>2026-04-20T08:42:57.999Z</time></trkpt><trkpt lat="44.14529284174543" lon="12.13735083757421"><ele>239.0</ele><time>2026-04-20T08:42:58.999Z</time></trkpt><trkpt lat="44.1452547186797" lon="12.137470947364422"><ele>239.0</ele><time>2026-04-20T08:42:59.999Z</time></trkpt><trkpt lat="44.145216869205875" lon="12.137591230256627"><ele>237.0</ele><time>2026-04-20T08:43:00.999Z</time></trkpt><trkpt lat="44.145179867323165" lon="12.137702252723685"><ele>234.99999999999997</ele><time>2026-04-20T08:43:01.999Z</time></trkpt><trkpt lat="44.14515061924777" lon="12.137841635362745"><ele>232.99999999999997</ele><time>2026-04-20T08:43:02.999Z</time></trkpt><trkpt lat="44.14510154429843" lon="12.137976993859294"><ele>231.0</ele><time>2026-04-20T08:43:03.999Z</time></trkpt><trkpt lat="44.145045464119065" lon="12.138112558021495"><ele>229.0</ele><time>2026-04-20T08:43:04.999Z</time></trkpt><trkpt lat="44.144998013552296" lon="12.13828597272136"><ele>226.75</ele><time>2026-04-20T08:43:05.999Z</time></trkpt><trkpt lat="44.144951477700694" lon="12.138435091085704"><ele>224.5</ele><time>2026-04-20T08:43:06.999Z</time></trkpt><trkpt lat="44.14489200666876" lon="12.138582687417898"><ele>222.25</ele><time>2026-04-20T08:43:07.999Z</time></trkpt><trkpt lat="44.144806205348765" lon="12.138693366179563"><ele>220.0</ele><time>2026-04-20T08:43:08.999Z</time></trkpt><trkpt lat="44.1446977493999" lon="12.1389494462847"><ele>221.0</ele><time>2026-04-20T08:43:10.999Z</time></trkpt><trkpt lat="44.14460573119415" lon="12.139132499706367"><ele>222.0</ele><time>2026-04-20T08:43:11.999Z</time></trkpt><trkpt lat="44.1445614280502" lon="12.13919707252651"><ele>223.0</ele><time>2026-04-20T08:43:12.999Z</time></trkpt><trkpt lat="44.14449077965413" lon="12.139322596739307"><ele>224.0</ele><time>2026-04-20T08:43:13.999Z</time></trkpt><trkpt lat="44.144424465123265" lon="12.139440479703644"><ele>225.0</ele><time>2026-04-20T08:43:14.999Z</time></trkpt><trkpt lat="44.14422135595699" lon="12.139801293243892"><ele>222.75</ele><time>2026-04-20T08:43:15.999Z</time></trkpt><trkpt lat="44.144152018764515" lon="12.139971138796266"><ele>220.5</ele><time>2026-04-20T08:43:16.999Z</time></trkpt><trkpt lat="44.14406752120358" lon="12.140127976395519"><ele>218.25</ele><time>2026-04-20T08:43:17.999Z</time></trkpt><trkpt lat="44.14397176494778" lon="12.140289208261823"><ele>216.0</ele><time>2026-04-20T08:43:18.999Z</time></trkpt><trkpt lat="44.14389154684655" lon="12.140472375748924"><ele>219.33333333333331</ele><time>2026-04-20T08:43:19.999Z</time></trkpt><trkpt lat="44.14378817927022" lon="12.140638593638633"><ele>222.66666666666666</ele><time>2026-04-20T08:43:20.999Z</time></trkpt><trkpt lat="44.1436878655639" lon="12.140814459846982"><ele>226.0</ele><time>2026-04-20T08:43:21.999Z</time></trkpt><trkpt lat="44.14357680944665" lon="12.140983366316267"><ele>226.0</ele><time>2026-04-20T08:43:22.999Z</time></trkpt><trkpt lat="44.14348366616901" lon="12.141166792214436"><ele>226.0</ele><time>2026-04-20T08:43:23.999Z</time></trkpt><trkpt lat="44.14338893681098" lon="12.141356011883996"><ele>226.0</ele><time>2026-04-20T08:43:24.999Z</time></trkpt><trkpt lat="44.14330549844385" lon="12.141563022291464"><ele>228.33333333333331</ele><time>2026-04-20T08:43:25.999Z</time></trkpt><trkpt lat="44.14320907462461" lon="12.141762370460171"><ele>230.66666666666669</ele><time>2026-04-20T08:43:26.999Z</time></trkpt><trkpt lat="44.14310981227618" lon="12.141960204104018"><ele>233.0</ele><time>2026-04-20T08:43:27.999Z</time></trkpt><trkpt lat="44.14300512595174" lon="12.142161063327261"><ele>233.0</ele><time>2026-04-20T08:43:28.999Z</time></trkpt><trkpt lat="44.14290578900712" lon="12.142363474563506"><ele>233.0</ele><time>2026-04-20T08:43:29.999Z</time></trkpt><trkpt lat="44.14280851762705" lon="12.142562631725971"><ele>233.0</ele><time>2026-04-20T08:43:30.999Z</time></trkpt><trkpt lat="44.14271275225583" lon="12.142756540052776"><ele>229.66666666666669</ele><time>2026-04-20T08:43:31.999Z</time></trkpt><trkpt lat="44.14261876240409" lon="12.142954808655217"><ele>226.33333333333331</ele><time>2026-04-20T08:43:32.999Z</time></trkpt><trkpt lat="44.142524956792705" lon="12.143152389029083"><ele>223.0</ele><time>2026-04-20T08:43:33.999Z</time></trkpt><trkpt lat="44.142432238643664" lon="12.143354301009035"><ele>225.33333333333331</ele><time>2026-04-20T08:43:34.999Z</time></trkpt><trkpt lat="44.14233709376274" lon="12.143543957613499"><ele>227.66666666666669</ele><time>2026-04-20T08:43:35.999Z</time></trkpt><trkpt lat="44.14223245448372" lon="12.143700170919434"><ele>230.0</ele><time>2026-04-20T08:43:36.999Z</time></trkpt><trkpt lat="44.14213533477006" lon="12.143834354990895"><ele>230.0</ele><time>2026-04-20T08:43:37.999Z</time></trkpt><trkpt lat="44.142018356044176" lon="12.143935005651493"><ele>230.0</ele><time>2026-04-20T08:43:38.999Z</time></trkpt><trkpt lat="44.14188123399499" lon="12.1440190914587"><ele>230.0</ele><time>2026-04-20T08:43:39.999Z</time></trkpt><trkpt lat="44.141736554159486" lon="12.144110679449673"><ele>230.0</ele><time>2026-04-20T08:43:40.999Z</time></trkpt><trkpt lat="44.141573502511925" lon="12.14417766557175"><ele>225.0</ele><time>2026-04-20T08:43:41.999Z</time></trkpt><trkpt lat="44.14140710215982" lon="12.14425194397109"><ele>220.0</ele><time>2026-04-20T08:43:42.999Z</time></trkpt><trkpt lat="44.14124495089919" lon="12.14433246573049"><ele>215.0</ele><time>2026-04-20T08:43:43.999Z</time></trkpt><trkpt lat="44.14107673751153" lon="12.144421068295784"><ele>215.0</ele><time>2026-04-20T08:43:44.999Z</time></trkpt><trkpt lat="44.14090839828995" lon="12.144511061543223"><ele>215.0</ele><time>2026-04-20T08:43:45.999Z</time></trkpt><trkpt lat="44.14073022853524" lon="12.144598109269873"><ele>215.0</ele><time>2026-04-20T08:43:46.999Z</time></trkpt><trkpt lat="44.14056034466922" lon="12.144685700056955"><ele>215.0</ele><time>2026-04-20T08:43:47.999Z</time></trkpt><trkpt lat="44.14039925244972" lon="12.144763568455918"><ele>215.0</ele><time>2026-04-20T08:43:48.999Z</time></trkpt><trkpt lat="44.1402480560449" lon="12.144825482181915"><ele>215.0</ele><time>2026-04-20T08:43:49.999Z</time></trkpt><trkpt lat="44.14009429001889" lon="12.144897324859196"><ele>212.0</ele><time>2026-04-20T08:43:50.999Z</time></trkpt><trkpt lat="44.1399397350278" lon="12.144967519040563"><ele>209.0</ele><time>2026-04-20T08:43:51.999Z</time></trkpt><trkpt lat="44.13978832672122" lon="12.145029441383084"><ele>206.0</ele><time>2026-04-20T08:43:52.999Z</time></trkpt><trkpt lat="44.13963070922327" lon="12.145077411078889"><ele>206.0</ele><time>2026-04-20T08:43:53.999Z</time></trkpt><trkpt lat="44.139469444136395" lon="12.1451108152652"><ele>206.0</ele><time>2026-04-20T08:43:54.999Z</time></trkpt><trkpt lat="44.13930007646229" lon="12.14513015470062"><ele>206.0</ele><time>2026-04-20T08:43:55.999Z</time></trkpt><trkpt lat="44.139126384261196" lon="12.145134647720582"><ele>206.66666666666669</ele><time>2026-04-20T08:43:56.999Z</time></trkpt><trkpt lat="44.13895441358065" lon="12.14512730558976"><ele>207.33333333333331</ele><time>2026-04-20T08:43:57.999Z</time></trkpt><trkpt lat="44.138775186756895" lon="12.145126613852371"><ele>208.0</ele><time>2026-04-20T08:43:58.999Z</time></trkpt><trkpt lat="44.13859991385998" lon="12.145131093892143"><ele>208.0</ele><time>2026-04-20T08:43:59.999Z</time></trkpt><trkpt lat="44.13842139929886" lon="12.145133981121623"><ele>208.0</ele><time>2026-04-20T08:44:00.999Z</time></trkpt><trkpt lat="44.13825303538762" lon="12.145142051273382"><ele>208.0</ele><time>2026-04-20T08:44:01.999Z</time></trkpt><trkpt lat="44.13810001894648" lon="12.145165684157043"><ele>208.25</ele><time>2026-04-20T08:44:02.999Z</time></trkpt><trkpt lat="44.13795250884119" lon="12.145205538919324"><ele>208.5</ele><time>2026-04-20T08:44:03.999Z</time></trkpt><trkpt lat="44.13781578376632" lon="12.14524433448223"><ele>208.75</ele><time>2026-04-20T08:44:04.999Z</time></trkpt><trkpt lat="44.13766685126686" lon="12.145312832802482"><ele>209.0</ele><time>2026-04-20T08:44:05.999Z</time></trkpt><trkpt lat="44.13748965197674" lon="12.145383591683169"><ele>205.66666666666669</ele><time>2026-04-20T08:44:06.999Z</time></trkpt><trkpt lat="44.13732142554605" lon="12.145449805845487"><ele>202.33333333333331</ele><time>2026-04-20T08:44:07.999Z</time></trkpt><trkpt lat="44.13715748167787" lon="12.145536787614297"><ele>199.0</ele><time>2026-04-20T08:44:08.999Z</time></trkpt><trkpt lat="44.13698594215517" lon="12.145619084537328"><ele>198.0</ele><time>2026-04-20T08:44:09.999Z</time></trkpt><trkpt lat="44.13682406767815" lon="12.145718331133086"><ele>197.0</ele><time>2026-04-20T08:44:10.999Z</time></trkpt><trkpt lat="44.136666534327084" lon="12.14583853268423"><ele>196.0</ele><time>2026-04-20T08:44:11.998Z</time></trkpt><trkpt lat="44.136517777716485" lon="12.145967028410547"><ele>195.66666666666666</ele><time>2026-04-20T08:44:12.998Z</time></trkpt><trkpt lat="44.13637658649318" lon="12.14610490708286"><ele>195.33333333333331</ele><time>2026-04-20T08:44:13.998Z</time></trkpt><trkpt lat="44.13624795949797" lon="12.146247906232176"><ele>195.0</ele><time>2026-04-20T08:44:14.998Z</time></trkpt><trkpt lat="44.136133861383904" lon="12.146424359825401"><ele>196.0</ele><time>2026-04-20T08:44:15.998Z</time></trkpt><trkpt lat="44.13603643737854" lon="12.146613613807174"><ele>197.0</ele><time>2026-04-20T08:44:16.998Z</time></trkpt><trkpt lat="44.13591727133371" lon="12.146773864261249"><ele>198.0</ele><time>2026-04-20T08:44:17.998Z</time></trkpt><trkpt lat="44.135797762918095" lon="12.146933211248712"><ele>196.33333333333331</ele><time>2026-04-20T08:44:18.998Z</time></trkpt><trkpt lat="44.13566980367965" lon="12.14708538656489"><ele>194.66666666666666</ele><time>2026-04-20T08:44:19.998Z</time></trkpt><trkpt lat="44.135535684760306" lon="12.14723196964817"><ele>193.0</ele><time>2026-04-20T08:44:20.998Z</time></trkpt><trkpt lat="44.135387831765264" lon="12.147356398243542"><ele>193.66666666666666</ele><time>2026-04-20T08:44:21.998Z</time></trkpt><trkpt lat="44.135234247058946" lon="12.147464662995938"><ele>194.33333333333331</ele><time>2026-04-20T08:44:22.998Z</time></trkpt><trkpt lat="44.135076378668195" lon="12.147572745780542"><ele>195.0</ele><time>2026-04-20T08:44:23.998Z</time></trkpt><trkpt lat="44.134916292347846" lon="12.147672979357655"><ele>193.5</ele><time>2026-04-20T08:44:24.998Z</time></trkpt><trkpt lat="44.13460084055692" lon="12.147862125796138"><ele>192.0</ele><time>2026-04-20T08:44:26.998Z</time></trkpt><trkpt lat="44.13447046046465" lon="12.14796759732352"><ele>192.0</ele><time>2026-04-20T08:44:27.998Z</time></trkpt><trkpt lat="44.134341808053684" lon="12.148050321988594"><ele>192.0</ele><time>2026-04-20T08:44:28.998Z</time></trkpt><trkpt lat="44.13422938395068" lon="12.148159951650133"><ele>192.0</ele><time>2026-04-20T08:44:29.998Z</time></trkpt><trkpt lat="44.13411900353596" lon="12.14830350236071"><ele>192.0</ele><time>2026-04-20T08:44:30.998Z</time></trkpt><trkpt lat="44.13400830437324" lon="12.148471464728942"><ele>190.33333333333334</ele><time>2026-04-20T08:44:31.998Z</time></trkpt><trkpt lat="44.13389438127702" lon="12.1486420900989"><ele>188.66666666666669</ele><time>2026-04-20T08:44:32.998Z</time></trkpt><trkpt lat="44.133780120377246" lon="12.148808969458917"><ele>187.0</ele><time>2026-04-20T08:44:33.998Z</time></trkpt><trkpt lat="44.13365953789467" lon="12.148976386031045"><ele>188.33333333333334</ele><time>2026-04-20T08:44:34.998Z</time></trkpt><trkpt lat="44.13354187544066" lon="12.149147320328707"><ele>189.66666666666666</ele><time>2026-04-20T08:44:35.998Z</time></trkpt><trkpt lat="44.133409803531364" lon="12.149302045714862"><ele>191.0</ele><time>2026-04-20T08:44:36.998Z</time></trkpt><trkpt lat="44.13330860256138" lon="12.14948030712305"><ele>191.66666666666666</ele><time>2026-04-20T08:44:37.998Z</time></trkpt><trkpt lat="44.13319953108463" lon="12.149646076058497"><ele>192.33333333333331</ele><time>2026-04-20T08:44:38.998Z</time></trkpt><trkpt lat="44.1331103104416" lon="12.149818753433346"><ele>193.0</ele><time>2026-04-20T08:44:39.999Z</time></trkpt><trkpt lat="44.13303887519574" lon="12.149995162448747"><ele>194.2</ele><time>2026-04-20T08:44:40.999Z</time></trkpt><trkpt lat="44.13298221621763" lon="12.150163774205629"><ele>195.4</ele><time>2026-04-20T08:44:41.999Z</time></trkpt><trkpt lat="44.13292918689956" lon="12.150315097473147"><ele>196.6</ele><time>2026-04-20T08:44:42.999Z</time></trkpt><trkpt lat="44.13287620410696" lon="12.150428151525746"><ele>197.79999999999998</ele><time>2026-04-20T08:44:43.999Z</time></trkpt><trkpt lat="44.1328119244513" lon="12.150502979116826"><ele>199.0</ele><time>2026-04-20T08:44:44.999Z</time></trkpt><trkpt lat="44.132656600048826" lon="12.150483544045882"><ele>199.0</ele><time>2026-04-20T08:44:46.999Z</time></trkpt><trkpt lat="44.13257618030302" lon="12.15048258627237"><ele>199.0</ele><time>2026-04-20T08:44:47.999Z</time></trkpt><trkpt lat="44.13248561299056" lon="12.150438078228547"><ele>199.0</ele><time>2026-04-20T08:44:48.999Z</time></trkpt><trkpt lat="44.132397821673656" lon="12.150399598255104"><ele>199.0</ele><time>2026-04-20T08:44:49.999Z</time></trkpt><trkpt lat="44.13231017410651" lon="12.150357986916703"><ele>199.0</ele><time>2026-04-20T08:44:50.999Z</time></trkpt><trkpt lat="44.13222891915645" lon="12.150301255828138"><ele>200.79999999999998</ele><time>2026-04-20T08:44:51.999Z</time></trkpt><trkpt lat="44.132167521525794" lon="12.150207653427273"><ele>202.6</ele><time>2026-04-20T08:44:52.999Z</time></trkpt><trkpt lat="44.13209751878047" lon="12.15012677424865"><ele>204.4</ele><time>2026-04-20T08:44:53.999Z</time></trkpt><trkpt lat="44.1320236753112" lon="12.150057756285817"><ele>206.2</ele><time>2026-04-20T08:44:54.999Z</time></trkpt><trkpt lat="44.1319555200527" lon="12.149976489394758"><ele>208.0</ele><time>2026-04-20T08:44:55.999Z</time></trkpt><trkpt lat="44.13188802903278" lon="12.14989350277217"><ele>207.8</ele><time>2026-04-20T08:44:56.999Z</time></trkpt><trkpt lat="44.13181321018957" lon="12.149808044242295"><ele>207.60000000000002</ele><time>2026-04-20T08:44:57.999Z</time></trkpt><trkpt lat="44.131731790299334" lon="12.149720351785604"><ele>207.39999999999998</ele><time>2026-04-20T08:44:58.999Z</time></trkpt><trkpt lat="44.13164424388999" lon="12.149627670368853"><ele>207.2</ele><time>2026-04-20T08:44:59.999Z</time></trkpt><trkpt lat="44.131554522921896" lon="12.149527593293634"><ele>207.0</ele><time>2026-04-20T08:45:00.999Z</time></trkpt><trkpt lat="44.13145273694876" lon="12.149438023089717"><ele>207.0</ele><time>2026-04-20T08:45:01.999Z</time></trkpt><trkpt lat="44.13135647538969" lon="12.149362914144652"><ele>207.0</ele><time>2026-04-20T08:45:02.999Z</time></trkpt><trkpt lat="44.13126854485815" lon="12.149298040023139"><ele>207.0</ele><time>2026-04-20T08:45:03.999Z</time></trkpt><trkpt lat="44.13118737169769" lon="12.149226277437071"><ele>207.0</ele><time>2026-04-20T08:45:04.999Z</time></trkpt><trkpt lat="44.13110880050464" lon="12.149165437422962"><ele>207.0</ele><time>2026-04-20T08:45:05.999Z</time></trkpt><trkpt lat="44.13103087524214" lon="12.149104705602184"><ele>207.0</ele><time>2026-04-20T08:45:06.999Z</time></trkpt><trkpt lat="44.130954874681514" lon="12.149044125109356"><ele>207.0</ele><time>2026-04-20T08:45:07.999Z</time></trkpt><trkpt lat="44.1308846544976" lon="12.14898538153229"><ele>207.0</ele><time>2026-04-20T08:45:08.999Z</time></trkpt><trkpt lat="44.13081967467748" lon="12.148935560674389"><ele>207.0</ele><time>2026-04-20T08:45:09.999Z</time></trkpt><trkpt lat="44.130760893078936" lon="12.148890506872922"><ele>207.0</ele><time>2026-04-20T08:45:10.999Z</time></trkpt><trkpt lat="44.13068909426417" lon="12.148834467385205"><ele>207.0</ele><time>2026-04-20T08:45:12.999Z</time></trkpt><trkpt lat="44.13062345269546" lon="12.148767984990227"><ele>207.16666666666666</ele><time>2026-04-20T08:45:52.999Z</time></trkpt><trkpt lat="44.13055033552156" lon="12.14871313844067"><ele>207.33333333333331</ele><time>2026-04-20T08:45:53.999Z</time></trkpt><trkpt lat="44.13045831425929" lon="12.148669815344041"><ele>207.5</ele><time>2026-04-20T08:45:54.999Z</time></trkpt><trkpt lat="44.13038153422337" lon="12.148587735123487"><ele>207.66666666666666</ele><time>2026-04-20T08:45:55.999Z</time></trkpt><trkpt lat="44.13030691687611" lon="12.14853278045445"><ele>207.83333333333331</ele><time>2026-04-20T08:45:56.999Z</time></trkpt><trkpt lat="44.13023021709953" lon="12.148501939295807"><ele>208.0</ele><time>2026-04-20T08:45:57.999Z</time></trkpt><trkpt lat="44.13015318913866" lon="12.148443254165565"><ele>208.0</ele><time>2026-04-20T08:45:58.999Z</time></trkpt><trkpt lat="44.13007512394021" lon="12.148384918251175"><ele>208.0</ele><time>2026-04-20T08:45:59.999Z</time></trkpt><trkpt lat="44.129995540144805" lon="12.148324167114879"><ele>208.0</ele><time>2026-04-20T08:46:00.999Z</time></trkpt><trkpt lat="44.12991206714316" lon="12.14826717633229"><ele>208.0</ele><time>2026-04-20T08:46:01.999Z</time></trkpt><trkpt lat="44.12982833277434" lon="12.148208818260143"><ele>208.0</ele><time>2026-04-20T08:46:02.999Z</time></trkpt><trkpt lat="44.129747469556534" lon="12.148144739671409"><ele>207.8</ele><time>2026-04-20T08:46:03.999Z</time></trkpt><trkpt lat="44.129664120803525" lon="12.148082480127362"><ele>207.60000000000002</ele><time>2026-04-20T08:46:04.999Z</time></trkpt><trkpt lat="44.129584829669916" lon="12.148025457990874"><ele>207.39999999999998</ele><time>2026-04-20T08:46:05.999Z</time></trkpt><trkpt lat="44.129505944798254" lon="12.147969243353053"><ele>207.2</ele><time>2026-04-20T08:46:06.999Z</time></trkpt><trkpt lat="44.12943815956608" lon="12.147887872952342"><ele>207.0</ele><time>2026-04-20T08:46:07.999Z</time></trkpt><trkpt lat="44.129360488388606" lon="12.147822465649387"><ele>207.0</ele><time>2026-04-20T08:46:08.999Z</time></trkpt><trkpt lat="44.129292603122686" lon="12.147763883712612"><ele>207.0</ele><time>2026-04-20T08:46:09.999Z</time></trkpt><trkpt lat="44.129229423110296" lon="12.147708407758547"><ele>207.0</ele><time>2026-04-20T08:46:10.999Z</time></trkpt><trkpt lat="44.129174139986866" lon="12.147659865758964"><ele>207.0</ele><time>2026-04-20T08:46:11.999Z</time></trkpt><trkpt lat="44.129069721708" lon="12.147565887118189"><ele>207.0</ele><time>2026-04-20T08:46:13.999Z</time></trkpt><trkpt lat="44.12897924399233" lon="12.147483664374292"><ele>206.66666666666666</ele><time>2026-04-20T08:46:15.999Z</time></trkpt><trkpt lat="44.12889739984995" lon="12.14740846276643"><ele>206.33333333333331</ele><time>2026-04-20T08:46:17.998Z</time></trkpt><trkpt lat="44.12883216011762" lon="12.147347092229507"><ele>206.0</ele><time>2026-04-20T08:46:19.998Z</time></trkpt><trkpt lat="44.12873887472424" lon="12.147259339345254"><ele>205.66666666666666</ele><time>2026-04-20T08:46:21.998Z</time></trkpt><trkpt lat="44.12868419874621" lon="12.147208152986456"><ele>205.33333333333331</ele><time>2026-04-20T08:46:22.998Z</time></trkpt><trkpt lat="44.12862892292723" lon="12.147157854339733"><ele>205.0</ele><time>2026-04-20T08:46:23.998Z</time></trkpt><trkpt lat="44.1285729614816" lon="12.147108548420432"><ele>206.33333333333331</ele><time>2026-04-20T08:46:24.998Z</time></trkpt><trkpt lat="44.128516443465614" lon="12.14706084442184"><ele>207.66666666666666</ele><time>2026-04-20T08:46:25.998Z</time></trkpt><trkpt lat="44.12845369393888" lon="12.147037081657395"><ele>209.0</ele><time>2026-04-20T08:46:26.998Z</time></trkpt><trkpt lat="44.12836154975254" lon="12.146952238463465"><ele>210.33333333333331</ele><time>2026-04-20T08:46:28.998Z</time></trkpt><trkpt lat="44.12828112920811" lon="12.14691368613036"><ele>211.66666666666666</ele><time>2026-04-20T08:46:30.998Z</time></trkpt><trkpt lat="44.12816686638178" lon="12.14690079564185"><ele>213.0</ele><time>2026-04-20T08:46:32.999Z</time></trkpt><trkpt lat="44.12810363869476" lon="12.146883322075782"><ele>215.33333333333334</ele><time>2026-04-20T08:46:33.999Z</time></trkpt><trkpt lat="44.12803556160506" lon="12.146869627265252"><ele>217.66666666666669</ele><time>2026-04-20T08:46:34.999Z</time></trkpt><trkpt lat="44.127970681726595" lon="12.146839867050863"><ele>220.0</ele><time>2026-04-20T08:46:35.999Z</time></trkpt><trkpt lat="44.1278467859479" lon="12.146823027808628"><ele>222.33333333333334</ele><time>2026-04-20T08:46:37.999Z</time></trkpt><trkpt lat="44.12778240481396" lon="12.146815494223056"><ele>224.66666666666669</ele><time>2026-04-20T08:46:38.999Z</time></trkpt><trkpt lat="44.12771271250466" lon="12.146809810103422"><ele>227.0</ele><time>2026-04-20T08:46:39.999Z</time></trkpt><trkpt lat="44.12764539656358" lon="12.146804319800278"><ele>227.00000000000003</ele><time>2026-04-20T08:46:40.999Z</time></trkpt><trkpt lat="44.12757343316516" lon="12.146798539503365"><ele>227.0</ele><time>2026-04-20T08:46:41.999Z</time></trkpt><trkpt lat="44.12750662785331" lon="12.146793444726764"><ele>227.0</ele><time>2026-04-20T08:46:42.999Z</time></trkpt><trkpt lat="44.127440770796824" lon="12.146788146783882"><ele>227.0</ele><time>2026-04-20T08:46:43.999Z</time></trkpt><trkpt lat="44.12732032886809" lon="12.146771658280223"><ele>227.00000000000003</ele><time>2026-04-20T08:46:45.999Z</time></trkpt><trkpt lat="44.12720131020394" lon="12.14674716544762"><ele>227.0</ele><time>2026-04-20T08:46:47.999Z</time></trkpt><trkpt lat="44.127084373805516" lon="12.14668978846875"><ele>226.85714285714286</ele><time>2026-04-20T08:46:49.999Z</time></trkpt><trkpt lat="44.12702248512995" lon="12.146655446461729"><ele>226.71428571428572</ele><time>2026-04-20T08:46:50.999Z</time></trkpt><trkpt lat="44.12695763011519" lon="12.146619203746468"><ele>226.57142857142858</ele><time>2026-04-20T08:46:51.999Z</time></trkpt><trkpt lat="44.12689028084308" lon="12.146585861139057"><ele>226.42857142857144</ele><time>2026-04-20T08:46:52.999Z</time></trkpt><trkpt lat="44.126822303075436" lon="12.146555416553298"><ele>226.28571428571428</ele><time>2026-04-20T08:46:53.999Z</time></trkpt><trkpt lat="44.12674697995392" lon="12.146526190366835"><ele>226.14285714285717</ele><time>2026-04-20T08:46:54.999Z</time></trkpt><trkpt lat="44.126683170868866" lon="12.146506863026797"><ele>226.0</ele><time>2026-04-20T08:46:55.999Z</time></trkpt><trkpt lat="44.126616320494385" lon="12.146495066253198"><ele>227.20000000000002</ele><time>2026-04-20T08:46:56.999Z</time></trkpt><trkpt lat="44.12653648775075" lon="12.146484578399427"><ele>228.40000000000003</ele><time>2026-04-20T08:46:57.999Z</time></trkpt><trkpt lat="44.12645108422261" lon="12.14650567201272"><ele>229.6</ele><time>2026-04-20T08:46:58.999Z</time></trkpt><trkpt lat="44.126355121477545" lon="12.146532671441987"><ele>230.8</ele><time>2026-04-20T08:46:59.999Z</time></trkpt><trkpt lat="44.12625529997253" lon="12.1465721349655"><ele>232.0</ele><time>2026-04-20T08:47:00.999Z</time></trkpt><trkpt lat="44.12615502080365" lon="12.146631312458757"><ele>232.0</ele><time>2026-04-20T08:47:01.999Z</time></trkpt><trkpt lat="44.12606609810332" lon="12.146713943046061"><ele>232.0</ele><time>2026-04-20T08:47:02.999Z</time></trkpt><trkpt lat="44.12600248945245" lon="12.146847898958448"><ele>232.0</ele><time>2026-04-20T08:47:03.999Z</time></trkpt><trkpt lat="44.12591878689156" lon="12.146960230074665"><ele>232.0</ele><time>2026-04-20T08:47:04.999Z</time></trkpt><trkpt lat="44.12585091254714" lon="12.147080805508432"><ele>232.0</ele><time>2026-04-20T08:47:05.999Z</time></trkpt><trkpt lat="44.12578203526092" lon="12.14720316262335"><ele>233.33333333333331</ele><time>2026-04-20T08:47:06.999Z</time></trkpt><trkpt lat="44.12572277398388" lon="12.147308437396646"><ele>234.66666666666666</ele><time>2026-04-20T08:47:07.999Z</time></trkpt><trkpt lat="44.12566413026158" lon="12.14741261509294"><ele>236.0</ele><time>2026-04-20T08:47:08.999Z</time></trkpt><trkpt lat="44.12561556336807" lon="12.147497283981844"><ele>237.33333333333331</ele><time>2026-04-20T08:47:09.999Z</time></trkpt><trkpt lat="44.12557286596315" lon="12.147568549467259"><ele>238.66666666666666</ele><time>2026-04-20T08:47:10.999Z</time></trkpt><trkpt lat="44.12554234614235" lon="12.147651361462755"><ele>240.0</ele><time>2026-04-20T08:47:11.999Z</time></trkpt><trkpt lat="44.125491963578455" lon="12.147728939204587"><ele>241.6</ele><time>2026-04-20T08:47:12.999Z</time></trkpt><trkpt lat="44.12543114348339" lon="12.147801477818257"><ele>243.2</ele><time>2026-04-20T08:47:13.999Z</time></trkpt><trkpt lat="44.125363845913206" lon="12.147873220756905"><ele>244.8</ele><time>2026-04-20T08:47:14.999Z</time></trkpt><trkpt lat="44.125287707662075" lon="12.147945661265123"><ele>246.4</ele><time>2026-04-20T08:47:15.999Z</time></trkpt><trkpt lat="44.12520448681693" lon="12.148015352501965"><ele>248.0</ele><time>2026-04-20T08:47:16.999Z</time></trkpt><trkpt lat="44.125111017196296" lon="12.148074990443165"><ele>248.0</ele><time>2026-04-20T08:47:17.999Z</time></trkpt><trkpt lat="44.125013604526984" lon="12.148099032014148"><ele>248.0</ele><time>2026-04-20T08:47:18.999Z</time></trkpt><trkpt lat="44.124909331959046" lon="12.148120266353363"><ele>248.0</ele><time>2026-04-20T08:47:19.999Z</time></trkpt><trkpt lat="44.124807201454935" lon="12.148153228556104"><ele>248.0</ele><time>2026-04-20T08:47:20.999Z</time></trkpt><trkpt lat="44.124719935307056" lon="12.148157108112349"><ele>248.0</ele><time>2026-04-20T08:47:21.999Z</time></trkpt><trkpt lat="44.12464508807366" lon="12.148162944645858"><ele>250.0</ele><time>2026-04-20T08:47:22.999Z</time></trkpt><trkpt lat="44.12457671257113" lon="12.148140337656963"><ele>252.00000000000003</ele><time>2026-04-20T08:47:23.999Z</time></trkpt><trkpt lat="44.12450370937652" lon="12.148159099867074"><ele>254.0</ele><time>2026-04-20T08:47:24.999Z</time></trkpt><trkpt lat="44.1244287478892" lon="12.148157163012806"><ele>256.0</ele><time>2026-04-20T08:47:25.999Z</time></trkpt><trkpt lat="44.124356949669405" lon="12.1481517616614"><ele>258.0</ele><time>2026-04-20T08:47:26.999Z</time></trkpt><trkpt lat="44.12428294639917" lon="12.148150545026912"><ele>260.0</ele><time>2026-04-20T08:47:27.999Z</time></trkpt><trkpt lat="44.124207081313635" lon="12.148151029548359"><ele>262.0</ele><time>2026-04-20T08:47:28.999Z</time></trkpt><trkpt lat="44.12412706226375" lon="12.14814857511736"><ele>261.42857142857144</ele><time>2026-04-20T08:47:29.999Z</time></trkpt><trkpt lat="44.12404954672935" lon="12.148135596025302"><ele>260.8571428571429</ele><time>2026-04-20T08:47:30.999Z</time></trkpt><trkpt lat="44.123972254307766" lon="12.148129808960418"><ele>260.2857142857143</ele><time>2026-04-20T08:47:31.999Z</time></trkpt><trkpt lat="44.123902605967835" lon="12.148119030711268"><ele>259.7142857142857</ele><time>2026-04-20T08:47:32.999Z</time></trkpt><trkpt lat="44.12382971346502" lon="12.148106533419941"><ele>259.1428571428571</ele><time>2026-04-20T08:47:33.999Z</time></trkpt><trkpt lat="44.123760061408994" lon="12.148095521430331"><ele>258.57142857142856</ele><time>2026-04-20T08:47:34.999Z</time></trkpt><trkpt lat="44.12369009544931" lon="12.14808792290719"><ele>258.0</ele><time>2026-04-20T08:47:35.999Z</time></trkpt><trkpt lat="44.123615948902675" lon="12.148067570223267"><ele>258.0</ele><time>2026-04-20T08:47:36.999Z</time></trkpt><trkpt lat="44.12354202847619" lon="12.148051809723421"><ele>258.0</ele><time>2026-04-20T08:47:37.999Z</time></trkpt><trkpt lat="44.12347967642598" lon="12.148036007575802"><ele>258.0</ele><time>2026-04-20T08:47:38.999Z</time></trkpt><trkpt lat="44.1234193374466" lon="12.147992736932983"><ele>258.0</ele><time>2026-04-20T08:47:41.999Z</time></trkpt><trkpt lat="44.12336691477014" lon="12.147938875289197"><ele>258.0</ele><time>2026-04-20T08:47:49.999Z</time></trkpt><trkpt lat="44.12328669842819" lon="12.147775678577574"><ele>258.0</ele><time>2026-04-20T08:47:51.999Z</time></trkpt><trkpt lat="44.12325978573352" lon="12.147667082432324"><ele>258.0</ele><time>2026-04-20T08:47:52.999Z</time></trkpt><trkpt lat="44.123236064828696" lon="12.147543550041087"><ele>258.0</ele><time>2026-04-20T08:47:53.999Z</time></trkpt><trkpt lat="44.123215043090916" lon="12.147414083165192"><ele>258.0</ele><time>2026-04-20T08:47:54.999Z</time></trkpt><trkpt lat="44.12319357187434" lon="12.147274468046001"><ele>258.0</ele><time>2026-04-20T08:47:55.999Z</time></trkpt><trkpt lat="44.12316940077978" lon="12.147130831454938"><ele>258.0</ele><time>2026-04-20T08:47:56.999Z</time></trkpt><trkpt lat="44.12314815307227" lon="12.146998975696619"><ele>257.4</ele><time>2026-04-20T08:47:57.999Z</time></trkpt><trkpt lat="44.123124244507046" lon="12.146862966217736"><ele>256.8</ele><time>2026-04-20T08:47:58.999Z</time></trkpt><trkpt lat="44.1230969881341" lon="12.146724460115117"><ele>256.2</ele><time>2026-04-20T08:47:59.999Z</time></trkpt><trkpt lat="44.12306344182822" lon="12.146583927491903"><ele>255.6</ele><time>2026-04-20T08:48:00.999Z</time></trkpt><trkpt lat="44.12302019429844" lon="12.146434089768581"><ele>255.0</ele><time>2026-04-20T08:48:01.999Z</time></trkpt><trkpt lat="44.122962665935184" lon="12.146283217372961"><ele>255.0</ele><time>2026-04-20T08:48:02.999Z</time></trkpt><trkpt lat="44.122895353972915" lon="12.146143607935977"><ele>255.0</ele><time>2026-04-20T08:48:03.999Z</time></trkpt><trkpt lat="44.122817074781295" lon="12.14600664043394"><ele>255.0</ele><time>2026-04-20T08:48:04.999Z</time></trkpt><trkpt lat="44.12273114037326" lon="12.145872673407391"><ele>255.0</ele><time>2026-04-20T08:48:05.999Z</time></trkpt><trkpt lat="44.122640360602084" lon="12.145747611356704"><ele>254.25</ele><time>2026-04-20T08:48:06.999Z</time></trkpt><trkpt lat="44.122551191214384" lon="12.145634463533352"><ele>253.5</ele><time>2026-04-20T08:48:07.999Z</time></trkpt><trkpt lat="44.12246699220839" lon="12.145525540733678"><ele>252.75</ele><time>2026-04-20T08:48:08.999Z</time></trkpt><trkpt lat="44.122384220054265" lon="12.1454244132275"><ele>252.0</ele><time>2026-04-20T08:48:09.999Z</time></trkpt><trkpt lat="44.12229826082844" lon="12.145327589850044"><ele>251.0</ele><time>2026-04-20T08:48:11Z</time></trkpt><trkpt lat="44.12220214012264" lon="12.145232865262749"><ele>250.0</ele><time>2026-04-20T08:48:12Z</time></trkpt><trkpt lat="44.12209278773149" lon="12.145150156214811"><ele>249.0</ele><time>2026-04-20T08:48:13Z</time></trkpt><trkpt lat="44.12198073336343" lon="12.145088930970767"><ele>248.0</ele><time>2026-04-20T08:48:14Z</time></trkpt><trkpt lat="44.12185708395123" lon="12.145043109419497"><ele>248.0</ele><time>2026-04-20T08:48:15Z</time></trkpt><trkpt lat="44.1217323406842" lon="12.145015452564126"><ele>248.0</ele><time>2026-04-20T08:48:16Z</time></trkpt><trkpt lat="44.12161050909127" lon="12.145019133207777"><ele>248.0</ele><time>2026-04-20T08:48:17Z</time></trkpt><trkpt lat="44.1214925783062" lon="12.145049156492794"><ele>248.0</ele><time>2026-04-20T08:48:18Z</time></trkpt><trkpt lat="44.12137832677322" lon="12.145100861322971"><ele>245.75</ele><time>2026-04-20T08:48:19Z</time></trkpt><trkpt lat="44.12128297438835" lon="12.145233574646879"><ele>243.5</ele><time>2026-04-20T08:48:20Z</time></trkpt><trkpt lat="44.121184363384394" lon="12.14536632783371"><ele>241.25</ele><time>2026-04-20T08:48:21Z</time></trkpt><trkpt lat="44.1210737919046" lon="12.145507622972143"><ele>239.0</ele><time>2026-04-20T08:48:22Z</time></trkpt><trkpt lat="44.12094819478276" lon="12.145643549275446"><ele>240.5</ele><time>2026-04-20T08:48:23Z</time></trkpt><trkpt lat="44.12065691262491" lon="12.145866203739981"><ele>242.0</ele><time>2026-04-20T08:48:24.999Z</time></trkpt><trkpt lat="44.12049446770086" lon="12.14594170867536"><ele>242.0</ele><time>2026-04-20T08:48:25.999Z</time></trkpt><trkpt lat="44.12032388549973" lon="12.145984948546422"><ele>242.0</ele><time>2026-04-20T08:48:26.999Z</time></trkpt><trkpt lat="44.1201484217553" lon="12.146002966060594"><ele>242.0</ele><time>2026-04-20T08:48:27.999Z</time></trkpt><trkpt lat="44.11997732154644" lon="12.145996459024156"><ele>245.0</ele><time>2026-04-20T08:48:28.999Z</time></trkpt><trkpt lat="44.119801580739605" lon="12.145960382925098"><ele>248.0</ele><time>2026-04-20T08:48:29.999Z</time></trkpt><trkpt lat="44.11963030347477" lon="12.14589283075944"><ele>251.0</ele><time>2026-04-20T08:48:30.999Z</time></trkpt><trkpt lat="44.11946231132899" lon="12.145801335437802"><ele>251.0</ele><time>2026-04-20T08:48:31.999Z</time></trkpt><trkpt lat="44.11929568161134" lon="12.145713994564627"><ele>251.0</ele><time>2026-04-20T08:48:32.999Z</time></trkpt><trkpt lat="44.11913165748524" lon="12.14563193634119"><ele>251.0</ele><time>2026-04-20T08:48:33.999Z</time></trkpt><trkpt lat="44.11898307956478" lon="12.145560752616667"><ele>251.33333333333334</ele><time>2026-04-20T08:48:34.999Z</time></trkpt><trkpt lat="44.118837473034624" lon="12.145512901073676"><ele>251.66666666666669</ele><time>2026-04-20T08:48:35.999Z</time></trkpt><trkpt lat="44.11868568102077" lon="12.145505871256564"><ele>252.0</ele><time>2026-04-20T08:48:36.999Z</time></trkpt><trkpt lat="44.11853478210005" lon="12.145530709848597"><ele>252.0</ele><time>2026-04-20T08:48:37.999Z</time></trkpt><trkpt lat="44.11838099873599" lon="12.14555883195551"><ele>252.0</ele><time>2026-04-20T08:48:38.999Z</time></trkpt><trkpt lat="44.11822847048651" lon="12.145587386174006"><ele>252.0</ele><time>2026-04-20T08:48:39.999Z</time></trkpt><trkpt lat="44.118076659946745" lon="12.145619707368825"><ele>253.75</ele><time>2026-04-20T08:48:40.999Z</time></trkpt><trkpt lat="44.11792442962853" lon="12.14566036798915"><ele>255.5</ele><time>2026-04-20T08:48:41.999Z</time></trkpt><trkpt lat="44.11779066924773" lon="12.145707077256766"><ele>257.25</ele><time>2026-04-20T08:48:42.999Z</time></trkpt><trkpt lat="44.11765686449452" lon="12.145730530462362"><ele>259.0</ele><time>2026-04-20T08:48:44Z</time></trkpt><trkpt lat="44.11751554313931" lon="12.145703421615607"><ele>262.66666666666663</ele><time>2026-04-20T08:48:45Z</time></trkpt><trkpt lat="44.11736587614957" lon="12.145712733413427"><ele>266.3333333333333</ele><time>2026-04-20T08:48:46Z</time></trkpt><trkpt lat="44.117212257630406" lon="12.145693353263693"><ele>270.0</ele><time>2026-04-20T08:48:47Z</time></trkpt><trkpt lat="44.11705445207832" lon="12.145675865791882"><ele>273.0</ele><time>2026-04-20T08:48:48Z</time></trkpt><trkpt lat="44.11688914046045" lon="12.145678554249658"><ele>276.0</ele><time>2026-04-20T08:48:49Z</time></trkpt><trkpt lat="44.11671979237437" lon="12.14570061562263"><ele>279.0</ele><time>2026-04-20T08:48:50Z</time></trkpt><trkpt lat="44.11654396044551" lon="12.145741221080376"><ele>282.3333333333333</ele><time>2026-04-20T08:48:51Z</time></trkpt><trkpt lat="44.11637306100909" lon="12.145798744398348"><ele>285.66666666666663</ele><time>2026-04-20T08:48:52Z</time></trkpt><trkpt lat="44.11621857924996" lon="12.145896070529068"><ele>289.0</ele><time>2026-04-20T08:48:53Z</time></trkpt><trkpt lat="44.11608396326494" lon="12.146017846063026"><ele>289.0</ele><time>2026-04-20T08:48:54Z</time></trkpt><trkpt lat="44.11598684924667" lon="12.146144398043862"><ele>289.0</ele><time>2026-04-20T08:48:55Z</time></trkpt><trkpt lat="44.11591585396021" lon="12.146257529477786"><ele>289.0</ele><time>2026-04-20T08:48:56Z</time></trkpt><trkpt lat="44.11584236566106" lon="12.146309107752874"><ele>289.0</ele><time>2026-04-20T08:48:57Z</time></trkpt><trkpt lat="44.11574756839307" lon="12.146331328260148"><ele>289.0</ele><time>2026-04-20T08:48:59Z</time></trkpt><trkpt lat="44.115664659166924" lon="12.146197488782068"><ele>287.5</ele><time>2026-04-20T08:49:01Z</time></trkpt><trkpt lat="44.115601713621345" lon="12.146121555530554"><ele>286.0</ele><time>2026-04-20T08:49:02Z</time></trkpt><trkpt lat="44.11553034396192" lon="12.14582806049596"><ele>284.5</ele><time>2026-04-20T08:49:04Z</time></trkpt><trkpt lat="44.11547898877324" lon="12.145677912124182"><ele>283.0</ele><time>2026-04-20T08:49:05Z</time></trkpt><trkpt lat="44.11544819686698" lon="12.145505150296914"><ele>283.0</ele><time>2026-04-20T08:49:06Z</time></trkpt><trkpt lat="44.11541805113961" lon="12.14531782375071"><ele>283.0</ele><time>2026-04-20T08:49:07Z</time></trkpt><trkpt lat="44.11539344157675" lon="12.1451280517139"><ele>283.0</ele><time>2026-04-20T08:49:08Z</time></trkpt><trkpt lat="44.115375115479274" lon="12.14495519550073"><ele>283.0</ele><time>2026-04-20T08:49:09Z</time></trkpt><trkpt lat="44.11535953637425" lon="12.144803989321145"><ele>287.0</ele><time>2026-04-20T08:49:10Z</time></trkpt><trkpt lat="44.11532216858141" lon="12.14467339873316"><ele>291.0</ele><time>2026-04-20T08:49:11Z</time></trkpt><trkpt lat="44.11525650934743" lon="12.144552818237317"><ele>295.0</ele><time>2026-04-20T08:49:12Z</time></trkpt><trkpt lat="44.115163726885015" lon="12.144435066556138"><ele>299.0</ele><time>2026-04-20T08:49:13Z</time></trkpt><trkpt lat="44.11505200424102" lon="12.144332031126224"><ele>299.0</ele><time>2026-04-20T08:49:14Z</time></trkpt><trkpt lat="44.114924881370975" lon="12.144240497754895"><ele>299.0</ele><time>2026-04-20T08:49:15Z</time></trkpt><trkpt lat="44.11479164260383" lon="12.144165496823378"><ele>299.0</ele><time>2026-04-20T08:49:16Z</time></trkpt><trkpt lat="44.11467215211576" lon="12.144069991662398"><ele>299.0</ele><time>2026-04-20T08:49:17Z</time></trkpt><trkpt lat="44.11456796369864" lon="12.143989742171595"><ele>298.4</ele><time>2026-04-20T08:49:18Z</time></trkpt><trkpt lat="44.11448048497166" lon="12.143928679546306"><ele>297.79999999999995</ele><time>2026-04-20T08:49:19Z</time></trkpt><trkpt lat="44.11444109893272" lon="12.143829997670249"><ele>297.20000000000005</ele><time>2026-04-20T08:49:20Z</time></trkpt><trkpt lat="44.11446786186253" lon="12.143712131826229"><ele>296.6</ele><time>2026-04-20T08:49:21Z</time></trkpt><trkpt lat="44.11447675527889" lon="12.143573268017795"><ele>296.0</ele><time>2026-04-20T08:49:22Z</time></trkpt><trkpt lat="44.11451258619496" lon="12.143407863034101"><ele>296.0</ele><time>2026-04-20T08:49:23Z</time></trkpt><trkpt lat="44.114546368594176" lon="12.143216232216629"><ele>296.0</ele><time>2026-04-20T08:49:24Z</time></trkpt><trkpt lat="44.11457272622643" lon="12.143009945633295"><ele>296.0</ele><time>2026-04-20T08:49:25Z</time></trkpt><trkpt lat="44.114597015577026" lon="12.14282158611122"><ele>296.0</ele><time>2026-04-20T08:49:26Z</time></trkpt><trkpt lat="44.11461712461407" lon="12.142659240338233"><ele>296.40000000000003</ele><time>2026-04-20T08:49:27Z</time></trkpt><trkpt lat="44.11463619330939" lon="12.142520302284572"><ele>296.8</ele><time>2026-04-20T08:49:28Z</time></trkpt><trkpt lat="44.11464402867145" lon="12.142423111710004"><ele>297.20000000000005</ele><time>2026-04-20T08:49:29Z</time></trkpt><trkpt lat="44.114661046911394" lon="12.142337797082247"><ele>297.6</ele><time>2026-04-20T08:49:31Z</time></trkpt><trkpt lat="44.114515046309315" lon="12.142304923871903"><ele>298.0</ele><time>2026-04-20T08:49:32Z</time></trkpt><trkpt lat="44.11443979073318" lon="12.142232953448888"><ele>298.0</ele><time>2026-04-20T08:49:33Z</time></trkpt><trkpt lat="44.11433819131099" lon="12.142137088800364"><ele>298.0</ele><time>2026-04-20T08:49:34Z</time></trkpt><trkpt lat="44.114221359021904" lon="12.142039907496772"><ele>298.0</ele><time>2026-04-20T08:49:35Z</time></trkpt><trkpt lat="44.11410023377056" lon="12.141926034260093"><ele>298.0</ele><time>2026-04-20T08:49:36Z</time></trkpt><trkpt lat="44.113978788891785" lon="12.141804864880966"><ele>296.0</ele><time>2026-04-20T08:49:37Z</time></trkpt><trkpt lat="44.113865264513215" lon="12.141686959945973"><ele>294.0</ele><time>2026-04-20T08:49:38Z</time></trkpt><trkpt lat="44.11375756270946" lon="12.141575109469184"><ele>292.0</ele><time>2026-04-20T08:49:39Z</time></trkpt><trkpt lat="44.11364899699083" lon="12.141471840404078"><ele>290.0</ele><time>2026-04-20T08:49:40Z</time></trkpt><trkpt lat="44.113535922294375" lon="12.141388406684074"><ele>290.0</ele><time>2026-04-20T08:49:41Z</time></trkpt><trkpt lat="44.11340828088222" lon="12.141336340928474"><ele>290.0</ele><time>2026-04-20T08:49:42Z</time></trkpt><trkpt lat="44.11326760555729" lon="12.14132502848735"><ele>290.0</ele><time>2026-04-20T08:49:43Z</time></trkpt><trkpt lat="44.11311723261515" lon="12.141336344935867"><ele>290.0</ele><time>2026-04-20T08:49:44Z</time></trkpt><trkpt lat="44.1129627136574" lon="12.141320125717941"><ele>289.75</ele><time>2026-04-20T08:49:45Z</time></trkpt><trkpt lat="44.11280537785321" lon="12.141325912242769"><ele>289.5</ele><time>2026-04-20T08:49:46Z</time></trkpt><trkpt lat="44.1126610881211" lon="12.141358820459919"><ele>289.25</ele><time>2026-04-20T08:49:47Z</time></trkpt><trkpt lat="44.11252421212579" lon="12.141375677676736"><ele>289.0</ele><time>2026-04-20T08:49:48Z</time></trkpt><trkpt lat="44.11239941396614" lon="12.14142930362795"><ele>289.0</ele><time>2026-04-20T08:49:49Z</time></trkpt><trkpt lat="44.11228845407277" lon="12.141546146944943"><ele>289.0</ele><time>2026-04-20T08:49:50Z</time></trkpt><trkpt lat="44.112181439257256" lon="12.141691125050599"><ele>289.0</ele><time>2026-04-20T08:49:51Z</time></trkpt><trkpt lat="44.11206318521856" lon="12.141792302738125"><ele>289.0</ele><time>2026-04-20T08:49:52Z</time></trkpt><trkpt lat="44.1119517871839" lon="12.141877538824385"><ele>287.75</ele><time>2026-04-20T08:49:53Z</time></trkpt><trkpt lat="44.11183393476867" lon="12.141930816108443"><ele>286.5</ele><time>2026-04-20T08:49:54Z</time></trkpt><trkpt lat="44.11170800331624" lon="12.141943457686233"><ele>285.25</ele><time>2026-04-20T08:49:55Z</time></trkpt><trkpt lat="44.11157283513145" lon="12.141924382650725"><ele>284.0</ele><time>2026-04-20T08:49:56Z</time></trkpt><trkpt lat="44.111432425681855" lon="12.141891079790268"><ele>281.6666666666667</ele><time>2026-04-20T08:49:57Z</time></trkpt><trkpt lat="44.11128410459168" lon="12.141862727111862"><ele>279.3333333333333</ele><time>2026-04-20T08:49:58Z</time></trkpt><trkpt lat="44.11113638188497" lon="12.141807196820785"><ele>277.0</ele><time>2026-04-20T08:49:59Z</time></trkpt><trkpt lat="44.11098441142539" lon="12.141761917517432"><ele>277.0</ele><time>2026-04-20T08:50:00Z</time></trkpt><trkpt lat="44.11082781624761" lon="12.141721526371597"><ele>277.0</ele><time>2026-04-20T08:50:01Z</time></trkpt><trkpt lat="44.110666973436494" lon="12.141690148934975"><ele>277.0</ele><time>2026-04-20T08:50:02Z</time></trkpt><trkpt lat="44.1105073493568" lon="12.141661621837086"><ele>276.66666666666663</ele><time>2026-04-20T08:50:03Z</time></trkpt><trkpt lat="44.11034600131641" lon="12.14163039700265"><ele>276.3333333333333</ele><time>2026-04-20T08:50:04Z</time></trkpt><trkpt lat="44.110185328870536" lon="12.141602835882859"><ele>276.0</ele><time>2026-04-20T08:50:05Z</time></trkpt><trkpt lat="44.11002972538335" lon="12.141579590110629"><ele>276.5</ele><time>2026-04-20T08:50:06Z</time></trkpt><trkpt lat="44.10988123462884" lon="12.141551138326257"><ele>277.0</ele><time>2026-04-20T08:50:07Z</time></trkpt><trkpt lat="44.10973216071233" lon="12.141517307744515"><ele>277.5</ele><time>2026-04-20T08:50:08Z</time></trkpt><trkpt lat="44.10959602327954" lon="12.141476871503135"><ele>278.0</ele><time>2026-04-20T08:50:09Z</time></trkpt><trkpt lat="44.10946149413223" lon="12.141432395182392"><ele>275.5</ele><time>2026-04-20T08:50:10Z</time></trkpt><trkpt lat="44.10933110298196" lon="12.1413960053513"><ele>273.0</ele><time>2026-04-20T08:50:11Z</time></trkpt><trkpt lat="44.109202815176275" lon="12.141378188519887"><ele>270.5</ele><time>2026-04-20T08:50:12Z</time></trkpt><trkpt lat="44.10906554328396" lon="12.141377306304653"><ele>268.0</ele><time>2026-04-20T08:50:13Z</time></trkpt><trkpt lat="44.10892060628351" lon="12.141399801986"><ele>266.3333333333333</ele><time>2026-04-20T08:50:14Z</time></trkpt><trkpt lat="44.10876516190519" lon="12.141430253841897"><ele>264.6666666666667</ele><time>2026-04-20T08:50:15Z</time></trkpt><trkpt lat="44.108602850727834" lon="12.141456175290612"><ele>263.0</ele><time>2026-04-20T08:50:16Z</time></trkpt><trkpt lat="44.10844359163356" lon="12.14148199791396"><ele>263.0</ele><time>2026-04-20T08:50:17Z</time></trkpt><trkpt lat="44.1082821745552" lon="12.141509860997207"><ele>263.0</ele><time>2026-04-20T08:50:18Z</time></trkpt><trkpt lat="44.108126240669215" lon="12.141545624958987"><ele>263.0</ele><time>2026-04-20T08:50:19Z</time></trkpt><trkpt lat="44.10796972432565" lon="12.14158599761389"><ele>266.0</ele><time>2026-04-20T08:50:20Z</time></trkpt><trkpt lat="44.107814141325505" lon="12.141626970320376"><ele>269.0</ele><time>2026-04-20T08:50:21Z</time></trkpt><trkpt lat="44.107660515956866" lon="12.14166682636317"><ele>272.0</ele><time>2026-04-20T08:50:22Z</time></trkpt><trkpt lat="44.10751469724084" lon="12.141719445389874"><ele>270.33333333333337</ele><time>2026-04-20T08:50:23Z</time></trkpt><trkpt lat="44.107361964611826" lon="12.141774110601261"><ele>268.6666666666667</ele><time>2026-04-20T08:50:24Z</time></trkpt><trkpt lat="44.10721159963457" lon="12.141788850567616"><ele>267.0</ele><time>2026-04-20T08:50:25Z</time></trkpt><trkpt lat="44.1070607911518" lon="12.141798192127617"><ele>267.0</ele><time>2026-04-20T08:50:26Z</time></trkpt><trkpt lat="44.10691383082599" lon="12.141775017214746"><ele>267.0</ele><time>2026-04-20T08:50:27Z</time></trkpt><trkpt lat="44.10676484169391" lon="12.141725787390229"><ele>267.0</ele><time>2026-04-20T08:50:28Z</time></trkpt><trkpt lat="44.106614857342116" lon="12.141650781329362"><ele>267.6666666666667</ele><time>2026-04-20T08:50:29Z</time></trkpt><trkpt lat="44.10645738820499" lon="12.141598607266157"><ele>268.33333333333337</ele><time>2026-04-20T08:50:30Z</time></trkpt><trkpt lat="44.10630349770268" lon="12.141534576861394"><ele>269.0</ele><time>2026-04-20T08:50:31Z</time></trkpt><trkpt lat="44.106142885753954" lon="12.141520141497827"><ele>269.0</ele><time>2026-04-20T08:50:32Z</time></trkpt><trkpt lat="44.10597399390485" lon="12.141542683690295"><ele>269.0</ele><time>2026-04-20T08:50:33Z</time></trkpt><trkpt lat="44.10580657831816" lon="12.141588206281508"><ele>269.0</ele><time>2026-04-20T08:50:34Z</time></trkpt><trkpt lat="44.10563822305312" lon="12.141637523269766"><ele>268.6666666666667</ele><time>2026-04-20T08:50:35Z</time></trkpt><trkpt lat="44.10547383998033" lon="12.141703925551381"><ele>268.3333333333333</ele><time>2026-04-20T08:50:36Z</time></trkpt><trkpt lat="44.105312075486026" lon="12.141792040491067"><ele>268.0</ele><time>2026-04-20T08:50:37Z</time></trkpt><trkpt lat="44.10515706157762" lon="12.141897506729181"><ele>268.0</ele><time>2026-04-20T08:50:38Z</time></trkpt><trkpt lat="44.10500593494063" lon="12.14201032495139"><ele>268.0</ele><time>2026-04-20T08:50:39Z</time></trkpt><trkpt lat="44.1048561533014" lon="12.142121338592181"><ele>268.0</ele><time>2026-04-20T08:50:40Z</time></trkpt><trkpt lat="44.1047086387032" lon="12.142199841426617"><ele>270.3333333333333</ele><time>2026-04-20T08:50:41Z</time></trkpt><trkpt lat="44.1045526923794" lon="12.142233154590057"><ele>272.6666666666667</ele><time>2026-04-20T08:50:42Z</time></trkpt><trkpt lat="44.10439620419884" lon="12.142229072262277"><ele>275.0</ele><time>2026-04-20T08:50:43Z</time></trkpt><trkpt lat="44.10422810248395" lon="12.142188494049586"><ele>273.0</ele><time>2026-04-20T08:50:44Z</time></trkpt><trkpt lat="44.104063791491484" lon="12.142185400163505"><ele>271.0</ele><time>2026-04-20T08:50:45Z</time></trkpt><trkpt lat="44.10389561933693" lon="12.142188865020332"><ele>269.0</ele><time>2026-04-20T08:50:46Z</time></trkpt><trkpt lat="44.10369935567544" lon="12.142205281233595"><ele>269.0</ele><time>2026-04-20T08:50:47Z</time></trkpt><trkpt lat="44.103509113504806" lon="12.142204959666111"><ele>269.0</ele><time>2026-04-20T08:50:48Z</time></trkpt><trkpt lat="44.10328861829503" lon="12.142257095571505"><ele>269.0</ele><time>2026-04-20T08:50:49Z</time></trkpt><trkpt lat="44.10314793380207" lon="12.142294027556334"><ele>269.0</ele><time>2026-04-20T08:50:50Z</time></trkpt><trkpt lat="44.10297484676535" lon="12.142351644444593"><ele>269.0</ele><time>2026-04-20T08:50:51Z</time></trkpt><trkpt lat="44.10280121027757" lon="12.142389728473939"><ele>269.0</ele><time>2026-04-20T08:50:52Z</time></trkpt><trkpt lat="44.10264018008576" lon="12.142454354883034"><ele>269.0</ele><time>2026-04-20T08:50:53Z</time></trkpt><trkpt lat="44.10245527568074" lon="12.142478665817677"><ele>269.0</ele><time>2026-04-20T08:50:54Z</time></trkpt><trkpt lat="44.10230371667583" lon="12.142535741639824"><ele>269.0</ele><time>2026-04-20T08:50:55Z</time></trkpt><trkpt lat="44.10213996726455" lon="12.142555504238212"><ele>271.25</ele><time>2026-04-20T08:50:56Z</time></trkpt><trkpt lat="44.102003730529205" lon="12.14256331429621"><ele>273.5</ele><time>2026-04-20T08:50:57Z</time></trkpt><trkpt lat="44.10184974509278" lon="12.14254955813114"><ele>275.75</ele><time>2026-04-20T08:50:58Z</time></trkpt><trkpt lat="44.101762042283646" lon="12.142494061057654"><ele>278.0</ele><time>2026-04-20T08:50:59Z</time></trkpt><trkpt lat="44.101643042900214" lon="12.142426739057516"><ele>279.5</ele><time>2026-04-20T08:51:00Z</time></trkpt><trkpt lat="44.10152583155273" lon="12.142336315987285"><ele>281.0</ele><time>2026-04-20T08:51:01Z</time></trkpt><trkpt lat="44.10140037226971" lon="12.142229001545699"><ele>282.5</ele><time>2026-04-20T08:51:02Z</time></trkpt><trkpt lat="44.10126519530716" lon="12.142133991380604"><ele>284.0</ele><time>2026-04-20T08:51:03Z</time></trkpt><trkpt lat="44.10112993574431" lon="12.142046970715759"><ele>284.0</ele><time>2026-04-20T08:51:04Z</time></trkpt><trkpt lat="44.100992983246414" lon="12.141975377749903"><ele>284.0</ele><time>2026-04-20T08:51:05Z</time></trkpt><trkpt lat="44.10085229770577" lon="12.141928253906281"><ele>284.0</ele><time>2026-04-20T08:51:06Z</time></trkpt><trkpt lat="44.100703088247776" lon="12.141873499313062"><ele>284.0</ele><time>2026-04-20T08:51:07Z</time></trkpt><trkpt lat="44.10056271319682" lon="12.14179342787446"><ele>285.25</ele><time>2026-04-20T08:51:08Z</time></trkpt><trkpt lat="44.10044483888564" lon="12.141685456619554"><ele>286.5</ele><time>2026-04-20T08:51:09Z</time></trkpt><trkpt lat="44.100409508630435" lon="12.141520792720291"><ele>287.75</ele><time>2026-04-20T08:51:10Z</time></trkpt><trkpt lat="44.10036068903658" lon="12.141392921924263"><ele>289.0</ele><time>2026-04-20T08:51:11Z</time></trkpt><trkpt lat="44.10030754481359" lon="12.14125761345643"><ele>289.0</ele><time>2026-04-20T08:51:12Z</time></trkpt><trkpt lat="44.10021661319079" lon="12.141183172515063"><ele>289.0</ele><time>2026-04-20T08:51:13Z</time></trkpt><trkpt lat="44.100109046329514" lon="12.141160366042602"><ele>289.0</ele><time>2026-04-20T08:51:14Z</time></trkpt><trkpt lat="44.10004376108885" lon="12.141202895335066"><ele>289.0</ele><time>2026-04-20T08:51:15Z</time></trkpt><trkpt lat="44.099972317455666" lon="12.141272692165035"><ele>289.0</ele><time>2026-04-20T08:51:16Z</time></trkpt><trkpt lat="44.09987949368734" lon="12.141305033594227"><ele>290.5</ele><time>2026-04-20T08:51:17Z</time></trkpt><trkpt lat="44.09977728295253" lon="12.141319218969103"><ele>292.0</ele><time>2026-04-20T08:51:18Z</time></trkpt><trkpt lat="44.099664226078815" lon="12.141332930461859"><ele>293.5</ele><time>2026-04-20T08:51:19Z</time></trkpt><trkpt lat="44.09955023580087" lon="12.141338196053775"><ele>295.0</ele><time>2026-04-20T08:51:20Z</time></trkpt><trkpt lat="44.09943098256833" lon="12.141354186836582"><ele>295.0</ele><time>2026-04-20T08:51:21Z</time></trkpt><trkpt lat="44.09930630446769" lon="12.141301231093827"><ele>295.0</ele><time>2026-04-20T08:51:22Z</time></trkpt><trkpt lat="44.099175409747716" lon="12.141250385481351"><ele>295.0</ele><time>2026-04-20T08:51:23Z</time></trkpt><trkpt lat="44.099055356729046" lon="12.141168106919535"><ele>295.0</ele><time>2026-04-20T08:51:24Z</time></trkpt><trkpt lat="44.09893230023754" lon="12.141084760195286"><ele>296.75</ele><time>2026-04-20T08:51:25Z</time></trkpt><trkpt lat="44.0988110323377" lon="12.141027227323383"><ele>298.5</ele><time>2026-04-20T08:51:26Z</time></trkpt><trkpt lat="44.09869425205722" lon="12.140980036682846"><ele>300.25</ele><time>2026-04-20T08:51:27Z</time></trkpt><trkpt lat="44.098565508366065" lon="12.140979567416226"><ele>302.0</ele><time>2026-04-20T08:51:28Z</time></trkpt><trkpt lat="44.09844212382214" lon="12.141020588108875"><ele>302.0</ele><time>2026-04-20T08:51:29Z</time></trkpt><trkpt lat="44.09832163883634" lon="12.141083142450498"><ele>302.0</ele><time>2026-04-20T08:51:30Z</time></trkpt><trkpt lat="44.09819713966067" lon="12.141163730435448"><ele>302.0</ele><time>2026-04-20T08:51:31Z</time></trkpt><trkpt lat="44.09807180367779" lon="12.14126363559309"><ele>302.0</ele><time>2026-04-20T08:51:32Z</time></trkpt><trkpt lat="44.09794032191844" lon="12.141362111171006"><ele>304.75</ele><time>2026-04-20T08:51:33Z</time></trkpt><trkpt lat="44.09780783455804" lon="12.141456076406502"><ele>307.5</ele><time>2026-04-20T08:51:34Z</time></trkpt><trkpt lat="44.09767417345283" lon="12.141474807529445"><ele>310.25</ele><time>2026-04-20T08:51:35Z</time></trkpt><trkpt lat="44.09757023360263" lon="12.141468835065325"><ele>313.0</ele><time>2026-04-20T08:51:36Z</time></trkpt><trkpt lat="44.09748051332562" lon="12.141407138582759"><ele>313.25</ele><time>2026-04-20T08:51:37Z</time></trkpt><trkpt lat="44.0973822342432" lon="12.141332258798466"><ele>313.5</ele><time>2026-04-20T08:51:38Z</time></trkpt><trkpt lat="44.09729260992771" lon="12.141247994245932"><ele>313.75</ele><time>2026-04-20T08:51:39Z</time></trkpt><trkpt lat="44.09719750567236" lon="12.141238730678182"><ele>314.0</ele><time>2026-04-20T08:51:40Z</time></trkpt><trkpt lat="44.09705148017006" lon="12.14139922308759"><ele>314.0</ele><time>2026-04-20T08:51:42Z</time></trkpt><trkpt lat="44.097018166279696" lon="12.141499936774341"><ele>314.0</ele><time>2026-04-20T08:51:43Z</time></trkpt><trkpt lat="44.096972886777536" lon="12.141576219608229"><ele>314.0</ele><time>2026-04-20T08:51:44Z</time></trkpt><trkpt lat="44.097001632735925" lon="12.141704805614701"><ele>314.0</ele><time>2026-04-20T08:51:45Z</time></trkpt><trkpt lat="44.09702185207133" lon="12.14181312354188"><ele>314.0</ele><time>2026-04-20T08:51:46Z</time></trkpt><trkpt lat="44.09703216926858" lon="12.1419156227623"><ele>314.0</ele><time>2026-04-20T08:51:47Z</time></trkpt><trkpt lat="44.097013432855796" lon="12.142022976133152"><ele>313.6666666666667</ele><time>2026-04-20T08:51:48Z</time></trkpt><trkpt lat="44.096980231443254" lon="12.142130142032883"><ele>313.33333333333337</ele><time>2026-04-20T08:51:49Z</time></trkpt><trkpt lat="44.09695500845084" lon="12.142240097974613"><ele>313.0</ele><time>2026-04-20T08:51:50Z</time></trkpt><trkpt lat="44.09694328534069" lon="12.142351153360002"><ele>312.6666666666667</ele><time>2026-04-20T08:51:51Z</time></trkpt><trkpt lat="44.0969364358889" lon="12.142465435405889"><ele>312.3333333333333</ele><time>2026-04-20T08:51:52Z</time></trkpt><trkpt lat="44.0969324239147" lon="12.142569413678745"><ele>312.0</ele><time>2026-04-20T08:51:53Z</time></trkpt><trkpt lat="44.09693739240528" lon="12.142702662528041"><ele>312.0</ele><time>2026-04-20T08:51:55Z</time></trkpt><trkpt lat="44.097012149771295" lon="12.142757852939585"><ele>312.0</ele><time>2026-04-20T08:51:59Z</time></trkpt><trkpt lat="44.09694806764503" lon="12.142522683836859"><ele>312.0</ele><time>2026-04-20T08:52:01Z</time></trkpt><trkpt lat="44.0969312881163" lon="12.142415485630227"><ele>312.0</ele><time>2026-04-20T08:52:02Z</time></trkpt><trkpt lat="44.0969445399882" lon="12.14231143923464"><ele>312.0</ele><time>2026-04-20T08:52:03Z</time></trkpt><trkpt lat="44.096965598849096" lon="12.142204297944113"><ele>312.0</ele><time>2026-04-20T08:52:04Z</time></trkpt><trkpt lat="44.096985661069425" lon="12.142102222933726"><ele>312.0</ele><time>2026-04-20T08:52:05.001Z</time></trkpt><trkpt lat="44.09700422503852" lon="12.14200997695526"><ele>312.0</ele><time>2026-04-20T08:52:06.001Z</time></trkpt><trkpt lat="44.09702084107402" lon="12.141922099359002"><ele>312.0</ele><time>2026-04-20T08:52:07.001Z</time></trkpt><trkpt lat="44.09703559440145" lon="12.141832627559795"><ele>312.0</ele><time>2026-04-20T08:52:08.001Z</time></trkpt><trkpt lat="44.09702906506536" lon="12.141709736239731"><ele>312.0</ele><time>2026-04-20T08:52:10.001Z</time></trkpt><trkpt lat="44.09681643487373" lon="12.141395886311104"><ele>312.0</ele><time>2026-04-20T08:52:14.001Z</time></trkpt><trkpt lat="44.09690033936864" lon="12.141840088569527"><ele>312.0</ele><time>2026-04-20T08:52:15.001Z</time></trkpt><trkpt lat="44.09686963588295" lon="12.141973087290111"><ele>312.0</ele><time>2026-04-20T08:52:16.001Z</time></trkpt><trkpt lat="44.09683645030668" lon="12.142091207008715"><ele>312.0</ele><time>2026-04-20T08:52:17.001Z</time></trkpt><trkpt lat="44.09680888841398" lon="12.142225121802326"><ele>312.0</ele><time>2026-04-20T08:52:18.001Z</time></trkpt><trkpt lat="44.096799609361234" lon="12.142363695831614"><ele>312.0</ele><time>2026-04-20T08:52:19.001Z</time></trkpt><trkpt lat="44.09678571616674" lon="12.142514802047971"><ele>312.0</ele><time>2026-04-20T08:52:20.001Z</time></trkpt><trkpt lat="44.09675646588032" lon="12.14264526927181"><ele>312.0</ele><time>2026-04-20T08:52:21.001Z</time></trkpt><trkpt lat="44.09669533486586" lon="12.142786441289926"><ele>313.0</ele><time>2026-04-20T08:52:22.001Z</time></trkpt><trkpt lat="44.09661595568063" lon="12.142917230286987"><ele>314.0</ele><time>2026-04-20T08:52:23.001Z</time></trkpt><trkpt lat="44.09651922919094" lon="12.143034783003175"><ele>315.0</ele><time>2026-04-20T08:52:24.001Z</time></trkpt><trkpt lat="44.09643714087055" lon="12.143153762517077"><ele>316.0</ele><time>2026-04-20T08:52:25.001Z</time></trkpt><trkpt lat="44.09638068748169" lon="12.143266473675228"><ele>313.40000000000003</ele><time>2026-04-20T08:52:26.001Z</time></trkpt><trkpt lat="44.096356968139816" lon="12.14337764768757"><ele>310.8</ele><time>2026-04-20T08:52:27.001Z</time></trkpt><trkpt lat="44.096365891177314" lon="12.14349452796831"><ele>308.20000000000005</ele><time>2026-04-20T08:52:28.001Z</time></trkpt><trkpt lat="44.096384850741565" lon="12.14359966209588"><ele>305.6</ele><time>2026-04-20T08:52:29.001Z</time></trkpt><trkpt lat="44.09639710076916" lon="12.143735770170897"><ele>303.0</ele><time>2026-04-20T08:52:30.001Z</time></trkpt><trkpt lat="44.09642205263715" lon="12.14389682656823"><ele>303.0</ele><time>2026-04-20T08:52:31.001Z</time></trkpt><trkpt lat="44.09642525129955" lon="12.14402629373166"><ele>303.0</ele><time>2026-04-20T08:52:32.001Z</time></trkpt><trkpt lat="44.096405755754255" lon="12.144159854249432"><ele>303.0</ele><time>2026-04-20T08:52:33.001Z</time></trkpt><trkpt lat="44.09637401632024" lon="12.144305702609598"><ele>303.0</ele><time>2026-04-20T08:52:34.001Z</time></trkpt><trkpt lat="44.096345901375614" lon="12.144471219314996"><ele>303.0</ele><time>2026-04-20T08:52:35.001Z</time></trkpt><trkpt lat="44.09628154487239" lon="12.144600930306206"><ele>306.25</ele><time>2026-04-20T08:52:36.001Z</time></trkpt><trkpt lat="44.09619986475705" lon="12.144700241461193"><ele>309.5</ele><time>2026-04-20T08:52:37.001Z</time></trkpt><trkpt lat="44.09609528528385" lon="12.144769716468046"><ele>312.75</ele><time>2026-04-20T08:52:38.001Z</time></trkpt><trkpt lat="44.095979015779925" lon="12.144812077963326"><ele>316.0</ele><time>2026-04-20T08:52:39.001Z</time></trkpt><trkpt lat="44.0958546802965" lon="12.144802650697633"><ele>313.75</ele><time>2026-04-20T08:52:40.001Z</time></trkpt><trkpt lat="44.09572565699424" lon="12.144817669732127"><ele>311.5</ele><time>2026-04-20T08:52:41.001Z</time></trkpt><trkpt lat="44.09559113393306" lon="12.14479967208237"><ele>309.25</ele><time>2026-04-20T08:52:42.001Z</time></trkpt><trkpt lat="44.09545163829372" lon="12.144782914410204"><ele>307.0</ele><time>2026-04-20T08:52:43.001Z</time></trkpt><trkpt lat="44.09530573452961" lon="12.144783099143757"><ele>307.0</ele><time>2026-04-20T08:52:44.001Z</time></trkpt><trkpt lat="44.09515638598006" lon="12.144798474595266"><ele>307.0</ele><time>2026-04-20T08:52:45.001Z</time></trkpt><trkpt lat="44.095008985098076" lon="12.144846860023517"><ele>307.0</ele><time>2026-04-20T08:52:46.001Z</time></trkpt><trkpt lat="44.094868377220735" lon="12.144922754505497"><ele>310.3333333333333</ele><time>2026-04-20T08:52:47.001Z</time></trkpt><trkpt lat="44.09472901635109" lon="12.145014907631795"><ele>313.6666666666667</ele><time>2026-04-20T08:52:48.001Z</time></trkpt><trkpt lat="44.094589906478035" lon="12.14511166511692"><ele>317.0</ele><time>2026-04-20T08:52:49.001Z</time></trkpt><trkpt lat="44.09444432610111" lon="12.145162722994254"><ele>317.0</ele><time>2026-04-20T08:52:50.001Z</time></trkpt><trkpt lat="44.094310435523695" lon="12.145247909757062"><ele>317.0</ele><time>2026-04-20T08:52:51.001Z</time></trkpt><trkpt lat="44.09418195397726" lon="12.145327976506007"><ele>317.0</ele><time>2026-04-20T08:52:52.001Z</time></trkpt><trkpt lat="44.09405927324009" lon="12.145449462004763"><ele>317.0</ele><time>2026-04-20T08:52:53.001Z</time></trkpt><trkpt lat="44.09394283434371" lon="12.145596158938938"><ele>321.6666666666667</ele><time>2026-04-20T08:52:54.001Z</time></trkpt><trkpt lat="44.09382262164876" lon="12.145743973137746"><ele>326.3333333333333</ele><time>2026-04-20T08:52:55.001Z</time></trkpt><trkpt lat="44.093702303981885" lon="12.145898021530982"><ele>331.0</ele><time>2026-04-20T08:52:56.001Z</time></trkpt><trkpt lat="44.093586076718154" lon="12.146056032097398"><ele>331.0</ele><time>2026-04-20T08:52:57.001Z</time></trkpt><trkpt lat="44.09346366391718" lon="12.14621780384032"><ele>331.0</ele><time>2026-04-20T08:52:58.001Z</time></trkpt><trkpt lat="44.09334666499053" lon="12.146378827882684"><ele>331.0</ele><time>2026-04-20T08:52:59.001Z</time></trkpt><trkpt lat="44.093229455054164" lon="12.146526573604817"><ele>334.0</ele><time>2026-04-20T08:53:00.001Z</time></trkpt><trkpt lat="44.093119367915975" lon="12.146675657051345"><ele>337.0</ele><time>2026-04-20T08:53:01.001Z</time></trkpt><trkpt lat="44.0930334145552" lon="12.146840551932135"><ele>340.0</ele><time>2026-04-20T08:53:02.001Z</time></trkpt><trkpt lat="44.092973833883434" lon="12.14702445597677"><ele>343.0</ele><time>2026-04-20T08:53:03.001Z</time></trkpt><trkpt lat="44.09294098499807" lon="12.147226281676897"><ele>342.66666666666663</ele><time>2026-04-20T08:53:04.001Z</time></trkpt><trkpt lat="44.09292379360311" lon="12.147432209548443"><ele>342.3333333333333</ele><time>2026-04-20T08:53:05.001Z</time></trkpt><trkpt lat="44.092923976951866" lon="12.147642262944979"><ele>342.0</ele><time>2026-04-20T08:53:06.001Z</time></trkpt><trkpt lat="44.09293540009989" lon="12.147856599626383"><ele>342.0</ele><time>2026-04-20T08:53:07.001Z</time></trkpt><trkpt lat="44.092924523338304" lon="12.148076668559332"><ele>342.0</ele><time>2026-04-20T08:53:08.001Z</time></trkpt><trkpt lat="44.09292923686796" lon="12.148297484064258"><ele>342.0</ele><time>2026-04-20T08:53:09.001Z</time></trkpt><trkpt lat="44.09293257147376" lon="12.148514296210076"><ele>341.0</ele><time>2026-04-20T08:53:10.001Z</time></trkpt><trkpt lat="44.09295005228597" lon="12.148726914892006"><ele>340.0</ele><time>2026-04-20T08:53:11.001Z</time></trkpt><trkpt lat="44.09294440835495" lon="12.148911698926002"><ele>339.0</ele><time>2026-04-20T08:53:12.001Z</time></trkpt><trkpt lat="44.09294653792659" lon="12.14908809902914"><ele>338.0</ele><time>2026-04-20T08:53:13.001Z</time></trkpt><trkpt lat="44.09294922558186" lon="12.149268509937153"><ele>336.5</ele><time>2026-04-20T08:53:14.001Z</time></trkpt><trkpt lat="44.092957927298386" lon="12.149464438846831"><ele>335.0</ele><time>2026-04-20T08:53:15.001Z</time></trkpt><trkpt lat="44.092957980588224" lon="12.14967317235322"><ele>333.5</ele><time>2026-04-20T08:53:16.001Z</time></trkpt><trkpt lat="44.09297160054654" lon="12.14988000776356"><ele>332.0</ele><time>2026-04-20T08:53:17.001Z</time></trkpt><trkpt lat="44.09299611401649" lon="12.15009910736092"><ele>331.6666666666667</ele><time>2026-04-20T08:53:18.001Z</time></trkpt><trkpt lat="44.09299733444274" lon="12.150326152013337"><ele>331.3333333333333</ele><time>2026-04-20T08:53:19.001Z</time></trkpt><trkpt lat="44.092983473005084" lon="12.150557303973459"><ele>331.0</ele><time>2026-04-20T08:53:20.001Z</time></trkpt><trkpt lat="44.092931698541896" lon="12.150773590180139"><ele>331.0</ele><time>2026-04-20T08:53:21.001Z</time></trkpt><trkpt lat="44.092870547565575" lon="12.150991920794837"><ele>331.0</ele><time>2026-04-20T08:53:22.001Z</time></trkpt><trkpt lat="44.092799119538206" lon="12.15119071906466"><ele>331.0</ele><time>2026-04-20T08:53:23.001Z</time></trkpt><trkpt lat="44.09274726226785" lon="12.15139260426495"><ele>332.0</ele><time>2026-04-20T08:53:24.001Z</time></trkpt><trkpt lat="44.092693708797334" lon="12.151570873209536"><ele>333.0</ele><time>2026-04-20T08:53:25.001Z</time></trkpt><trkpt lat="44.09264837559854" lon="12.151745065049468"><ele>334.0</ele><time>2026-04-20T08:53:26.001Z</time></trkpt><trkpt lat="44.092620351895675" lon="12.151916438577663"><ele>335.0</ele><time>2026-04-20T08:53:27.001Z</time></trkpt><trkpt lat="44.09261755803014" lon="12.152092285481933"><ele>335.0</ele><time>2026-04-20T08:53:28.001Z</time></trkpt><trkpt lat="44.09263331742453" lon="12.152263591813538"><ele>335.0</ele><time>2026-04-20T08:53:29.001Z</time></trkpt><trkpt lat="44.092671537783204" lon="12.152410156041025"><ele>335.0</ele><time>2026-04-20T08:53:30.001Z</time></trkpt><trkpt lat="44.0927386812283" lon="12.152537987912448"><ele>335.0</ele><time>2026-04-20T08:53:31.001Z</time></trkpt><trkpt lat="44.092832769280555" lon="12.15264346120534"><ele>333.75</ele><time>2026-04-20T08:53:32.001Z</time></trkpt><trkpt lat="44.09294425157496" lon="12.152729061006552"><ele>332.5</ele><time>2026-04-20T08:53:33.001Z</time></trkpt><trkpt lat="44.09307168725823" lon="12.152804534619468"><ele>331.25</ele><time>2026-04-20T08:53:34.001Z</time></trkpt><trkpt lat="44.09320247238629" lon="12.152885332829198"><ele>330.0</ele><time>2026-04-20T08:53:35.001Z</time></trkpt><trkpt lat="44.09331034476326" lon="12.15301565227821"><ele>330.5</ele><time>2026-04-20T08:53:36.001Z</time></trkpt><trkpt lat="44.09340534809208" lon="12.153131035028338"><ele>331.0</ele><time>2026-04-20T08:53:37.001Z</time></trkpt><trkpt lat="44.09347165051465" lon="12.153259089487923"><ele>331.5</ele><time>2026-04-20T08:53:38.001Z</time></trkpt><trkpt lat="44.09349690095149" lon="12.153415499330356"><ele>332.0</ele><time>2026-04-20T08:53:39.001Z</time></trkpt><trkpt lat="44.09351767509169" lon="12.153597755265434"><ele>332.0</ele><time>2026-04-20T08:53:40.001Z</time></trkpt><trkpt lat="44.0935560057002" lon="12.153760359681046"><ele>332.0</ele><time>2026-04-20T08:53:41.001Z</time></trkpt><trkpt lat="44.09361536625523" lon="12.15389383614954"><ele>332.0</ele><time>2026-04-20T08:53:42.001Z</time></trkpt><trkpt lat="44.09370980056795" lon="12.153978664593636"><ele>332.0</ele><time>2026-04-20T08:53:43.001Z</time></trkpt><trkpt lat="44.09382860789214" lon="12.15404019966939"><ele>332.0</ele><time>2026-04-20T08:53:44.001Z</time></trkpt><trkpt lat="44.09396602900798" lon="12.15408742326237"><ele>332.0</ele><time>2026-04-20T08:53:45.001Z</time></trkpt><trkpt lat="44.09410806129308" lon="12.154131830198155"><ele>332.0</ele><time>2026-04-20T08:53:46.001Z</time></trkpt><trkpt lat="44.094248718030364" lon="12.154186115031848"><ele>332.0</ele><time>2026-04-20T08:53:47.001Z</time></trkpt><trkpt lat="44.094394956042464" lon="12.154246164579625"><ele>332.0</ele><time>2026-04-20T08:53:48.001Z</time></trkpt><trkpt lat="44.09454488175158" lon="12.154313299900515"><ele>332.0</ele><time>2026-04-20T08:53:49.001Z</time></trkpt><trkpt lat="44.09469402553176" lon="12.154388026706412"><ele>332.0</ele><time>2026-04-20T08:53:50.001Z</time></trkpt><trkpt lat="44.09483704550714" lon="12.15447749354002"><ele>333.75</ele><time>2026-04-20T08:53:51.001Z</time></trkpt><trkpt lat="44.09497113450573" lon="12.154569156888822"><ele>335.5</ele><time>2026-04-20T08:53:52.001Z</time></trkpt><trkpt lat="44.09510101436972" lon="12.154678348959393"><ele>337.25</ele><time>2026-04-20T08:53:53.001Z</time></trkpt><trkpt lat="44.09523036204426" lon="12.154777269457599"><ele>339.0</ele><time>2026-04-20T08:53:54.001Z</time></trkpt><trkpt lat="44.09537294095938" lon="12.1548447176132"><ele>335.5</ele><time>2026-04-20T08:53:55.001Z</time></trkpt><trkpt lat="44.09551977086905" lon="12.154884046467696"><ele>332.0</ele><time>2026-04-20T08:53:56.001Z</time></trkpt><trkpt lat="44.095663917991274" lon="12.154922362610481"><ele>328.5</ele><time>2026-04-20T08:53:57.001Z</time></trkpt><trkpt lat="44.09580025462546" lon="12.154977848512107"><ele>325.0</ele><time>2026-04-20T08:53:58.001Z</time></trkpt><trkpt lat="44.09592997563881" lon="12.155050788750852"><ele>325.0</ele><time>2026-04-20T08:53:59.001Z</time></trkpt><trkpt lat="44.09605718990721" lon="12.155138112102819"><ele>325.0</ele><time>2026-04-20T08:54:00.001Z</time></trkpt><trkpt lat="44.096182299116045" lon="12.155240088275187"><ele>325.0</ele><time>2026-04-20T08:54:01.001Z</time></trkpt><trkpt lat="44.09630476453803" lon="12.155353565782605"><ele>325.0</ele><time>2026-04-20T08:54:02.001Z</time></trkpt><trkpt lat="44.0964045989175" lon="12.15550392434375"><ele>325.0</ele><time>2026-04-20T08:54:03.001Z</time></trkpt><trkpt lat="44.09649602700716" lon="12.155647433504187"><ele>325.0</ele><time>2026-04-20T08:54:04.001Z</time></trkpt><trkpt lat="44.09656340224646" lon="12.155803536435123"><ele>325.0</ele><time>2026-04-20T08:54:05.001Z</time></trkpt><trkpt lat="44.09659676142972" lon="12.155971417495293"><ele>325.0</ele><time>2026-04-20T08:54:06.001Z</time></trkpt><trkpt lat="44.09658117254425" lon="12.156141610147865"><ele>320.75</ele><time>2026-04-20T08:54:07.001Z</time></trkpt><trkpt lat="44.09653596708419" lon="12.156310336803687"><ele>316.5</ele><time>2026-04-20T08:54:08.001Z</time></trkpt><trkpt lat="44.096458297706015" lon="12.156460129184454"><ele>312.25</ele><time>2026-04-20T08:54:09.001Z</time></trkpt><trkpt lat="44.09640885910841" lon="12.156616673238505"><ele>308.0</ele><time>2026-04-20T08:54:10.001Z</time></trkpt><trkpt lat="44.09637048777882" lon="12.156741273827915"><ele>306.75</ele><time>2026-04-20T08:54:11.001Z</time></trkpt><trkpt lat="44.09638837460158" lon="12.156872851345453"><ele>305.5</ele><time>2026-04-20T08:54:12.001Z</time></trkpt><trkpt lat="44.09645330765106" lon="12.156990644894186"><ele>304.25</ele><time>2026-04-20T08:54:13.001Z</time></trkpt><trkpt lat="44.0965559376517" lon="12.157068984303846"><ele>303.0</ele><time>2026-04-20T08:54:14.001Z</time></trkpt><trkpt lat="44.09668031486044" lon="12.157126405877785"><ele>304.0</ele><time>2026-04-20T08:54:15.001Z</time></trkpt><trkpt lat="44.09681874768605" lon="12.157194615336431"><ele>305.0</ele><time>2026-04-20T08:54:16.001Z</time></trkpt><trkpt lat="44.09695846597458" lon="12.157284595976721"><ele>306.0</ele><time>2026-04-20T08:54:17.001Z</time></trkpt><trkpt lat="44.097099022429475" lon="12.157378440587808"><ele>306.0</ele><time>2026-04-20T08:54:18.001Z</time></trkpt><trkpt lat="44.09723171594923" lon="12.157477794238872"><ele>306.0</ele><time>2026-04-20T08:54:19.001Z</time></trkpt><trkpt lat="44.09734161393553" lon="12.15760008835442"><ele>306.0</ele><time>2026-04-20T08:54:20.001Z</time></trkpt><trkpt lat="44.097451879591326" lon="12.15771928180071"><ele>306.0</ele><time>2026-04-20T08:54:21.001Z</time></trkpt><trkpt lat="44.09752713589257" lon="12.157858556829884"><ele>308.5</ele><time>2026-04-20T08:54:22.001Z</time></trkpt><trkpt lat="44.09757028588415" lon="12.158018258336988"><ele>311.0</ele><time>2026-04-20T08:54:23.001Z</time></trkpt><trkpt lat="44.09759827966383" lon="12.158184732282024"><ele>313.5</ele><time>2026-04-20T08:54:24.001Z</time></trkpt><trkpt lat="44.09755319838142" lon="12.158358926237069"><ele>316.0</ele><time>2026-04-20T08:54:25.001Z</time></trkpt><trkpt lat="44.097493662751326" lon="12.158545023514773"><ele>316.0</ele><time>2026-04-20T08:54:26.001Z</time></trkpt><trkpt lat="44.09743430905134" lon="12.158757569966728"><ele>316.0</ele><time>2026-04-20T08:54:27.001Z</time></trkpt><trkpt lat="44.0974073586762" lon="12.158974065392215"><ele>316.0</ele><time>2026-04-20T08:54:28.001Z</time></trkpt><trkpt lat="44.09738311767544" lon="12.159179449800837"><ele>307.75</ele><time>2026-04-20T08:54:29.001Z</time></trkpt><trkpt lat="44.09735672075808" lon="12.159380741305233"><ele>299.5</ele><time>2026-04-20T08:54:30.001Z</time></trkpt><trkpt lat="44.09733608908633" lon="12.159569263239229"><ele>291.25</ele><time>2026-04-20T08:54:31.001Z</time></trkpt><trkpt lat="44.09728133602884" lon="12.159719123483086"><ele>283.0</ele><time>2026-04-20T08:54:32.001Z</time></trkpt><trkpt lat="44.09719642610846" lon="12.159836570433216"><ele>283.0</ele><time>2026-04-20T08:54:33.001Z</time></trkpt><trkpt lat="44.09708761726185" lon="12.15986510169606"><ele>283.0</ele><time>2026-04-20T08:54:34.001Z</time></trkpt><trkpt lat="44.096975293780126" lon="12.159877565618682"><ele>283.0</ele><time>2026-04-20T08:54:35.001Z</time></trkpt><trkpt lat="44.09686851672646" lon="12.159892772182216"><ele>283.0</ele><time>2026-04-20T08:54:36.001Z</time></trkpt><trkpt lat="44.096758774767636" lon="12.159890463077387"><ele>283.0</ele><time>2026-04-20T08:54:37.001Z</time></trkpt><trkpt lat="44.09667340359587" lon="12.159951274132549"><ele>284.0</ele><time>2026-04-20T08:54:38.001Z</time></trkpt><trkpt lat="44.09662648736221" lon="12.160052795585049"><ele>285.0</ele><time>2026-04-20T08:54:39.001Z</time></trkpt><trkpt lat="44.096627500354714" lon="12.160167978419613"><ele>286.0</ele><time>2026-04-20T08:54:40.001Z</time></trkpt><trkpt lat="44.09666263454103" lon="12.16029316028759"><ele>287.0</ele><time>2026-04-20T08:54:41.001Z</time></trkpt><trkpt lat="44.096727428231524" lon="12.160430213764055"><ele>288.0</ele><time>2026-04-20T08:54:42.001Z</time></trkpt><trkpt lat="44.09679614431358" lon="12.160580856271833"><ele>288.0</ele><time>2026-04-20T08:54:43.001Z</time></trkpt><trkpt lat="44.09686733834451" lon="12.1607309649462"><ele>288.0</ele><time>2026-04-20T08:54:44.001Z</time></trkpt><trkpt lat="44.09691662243855" lon="12.16087796074537"><ele>288.0</ele><time>2026-04-20T08:54:45.001Z</time></trkpt><trkpt lat="44.096935318523926" lon="12.16104095814561"><ele>288.0</ele><time>2026-04-20T08:54:46.001Z</time></trkpt><trkpt lat="44.09691838145784" lon="12.161200091018356"><ele>288.0</ele><time>2026-04-20T08:54:47.001Z</time></trkpt><trkpt lat="44.096890530408665" lon="12.161352866453804"><ele>288.0</ele><time>2026-04-20T08:54:48.001Z</time></trkpt><trkpt lat="44.096797451862294" lon="12.161442466010774"><ele>288.0</ele><time>2026-04-20T08:54:49.001Z</time></trkpt><trkpt lat="44.09670800539692" lon="12.161533418613615"><ele>288.0</ele><time>2026-04-20T08:54:50.001Z</time></trkpt><trkpt lat="44.09659976728479" lon="12.161605842118895"><ele>284.0</ele><time>2026-04-20T08:54:51.001Z</time></trkpt><trkpt lat="44.09649875611043" lon="12.16168295789186"><ele>280.0</ele><time>2026-04-20T08:54:52.001Z</time></trkpt><trkpt lat="44.096423975409984" lon="12.161767580593306"><ele>276.0</ele><time>2026-04-20T08:54:53.001Z</time></trkpt><trkpt lat="44.09636624162253" lon="12.161851977753393"><ele>272.0</ele><time>2026-04-20T08:54:54.001Z</time></trkpt><trkpt lat="44.09637386526429" lon="12.161980639549494"><ele>268.0</ele><time>2026-04-20T08:54:55.001Z</time></trkpt><trkpt lat="44.09642266909415" lon="12.162085397470333"><ele>268.0</ele><time>2026-04-20T08:54:56.001Z</time></trkpt><trkpt lat="44.0965118786968" lon="12.162162633988157"><ele>268.0</ele><time>2026-04-20T08:54:57.001Z</time></trkpt><trkpt lat="44.09661871351465" lon="12.162231936524522"><ele>268.0</ele><time>2026-04-20T08:54:58.001Z</time></trkpt><trkpt lat="44.09672604333399" lon="12.162349501488869"><ele>268.0</ele><time>2026-04-20T08:54:59.001Z</time></trkpt><trkpt lat="44.09684321818753" lon="12.162457710369617"><ele>270.25</ele><time>2026-04-20T08:55:00.001Z</time></trkpt><trkpt lat="44.0969693328127" lon="12.162548795316201"><ele>272.5</ele><time>2026-04-20T08:55:01.001Z</time></trkpt><trkpt lat="44.09707175024746" lon="12.162672060765827"><ele>274.75</ele><time>2026-04-20T08:55:02.001Z</time></trkpt><trkpt lat="44.09716637317345" lon="12.162757925347973"><ele>277.0</ele><time>2026-04-20T08:55:03.001Z</time></trkpt><trkpt lat="44.09726093863224" lon="12.162833548773772"><ele>277.0</ele><time>2026-04-20T08:55:04.001Z</time></trkpt><trkpt lat="44.09733178714609" lon="12.162942630309423"><ele>277.0</ele><time>2026-04-20T08:55:05.001Z</time></trkpt><trkpt lat="44.097344904910614" lon="12.163072393909085"><ele>277.0</ele><time>2026-04-20T08:55:06.001Z</time></trkpt><trkpt lat="44.097344490270984" lon="12.163187892183364"><ele>277.0</ele><time>2026-04-20T08:55:07.001Z</time></trkpt><trkpt lat="44.097305910689585" lon="12.163296718598161"><ele>277.0</ele><time>2026-04-20T08:55:08.001Z</time></trkpt><trkpt lat="44.09727538384311" lon="12.163422077746374"><ele>274.8333333333333</ele><time>2026-04-20T08:55:09.001Z</time></trkpt><trkpt lat="44.09723435727705" lon="12.163529027203916"><ele>272.66666666666663</ele><time>2026-04-20T08:55:10.001Z</time></trkpt><trkpt lat="44.09719961464028" lon="12.163631274194671"><ele>270.5</ele><time>2026-04-20T08:55:11.001Z</time></trkpt><trkpt lat="44.097155052152615" lon="12.163704662906806"><ele>268.3333333333333</ele><time>2026-04-20T08:55:12.001Z</time></trkpt><trkpt lat="44.097110154619884" lon="12.16377316056851"><ele>266.1666666666667</ele><time>2026-04-20T08:55:14.001Z</time></trkpt><trkpt lat="44.09705301736676" lon="12.163649322313688"><ele>264.0</ele><time>2026-04-20T08:55:16.001Z</time></trkpt><trkpt lat="44.09701763575912" lon="12.163546224057985"><ele>264.0</ele><time>2026-04-20T08:55:17.001Z</time></trkpt><trkpt lat="44.09698471892281" lon="12.163429541858802"><ele>264.0</ele><time>2026-04-20T08:55:18.001Z</time></trkpt><trkpt lat="44.09694818876509" lon="12.163281577850293"><ele>264.0</ele><time>2026-04-20T08:55:19.001Z</time></trkpt><trkpt lat="44.096857484329554" lon="12.163156120219828"><ele>264.0</ele><time>2026-04-20T08:55:20.001Z</time></trkpt><trkpt lat="44.09676221810732" lon="12.163022598230981"><ele>262.25</ele><time>2026-04-20T08:55:21.001Z</time></trkpt><trkpt lat="44.096654484023595" lon="12.162888271108445"><ele>260.5</ele><time>2026-04-20T08:55:22.001Z</time></trkpt><trkpt lat="44.09653979980073" lon="12.162759294343072"><ele>258.75</ele><time>2026-04-20T08:55:23.001Z</time></trkpt><trkpt lat="44.09641276028547" lon="12.16264372270142"><ele>257.0</ele><time>2026-04-20T08:55:24.001Z</time></trkpt><trkpt lat="44.096276508991295" lon="12.162548043656658"><ele>257.0</ele><time>2026-04-20T08:55:25.001Z</time></trkpt><trkpt lat="44.09614497657545" lon="12.162469427746782"><ele>257.0</ele><time>2026-04-20T08:55:26.001Z</time></trkpt><trkpt lat="44.09602549708542" lon="12.16238715800818"><ele>257.0</ele><time>2026-04-20T08:55:27.001Z</time></trkpt><trkpt lat="44.0959209409877" lon="12.162275108606202"><ele>257.0</ele><time>2026-04-20T08:55:28.001Z</time></trkpt><trkpt lat="44.09582750310665" lon="12.162138982756108"><ele>256.0</ele><time>2026-04-20T08:55:29.001Z</time></trkpt><trkpt lat="44.095737810296576" lon="12.16200774292282"><ele>255.0</ele><time>2026-04-20T08:55:30.001Z</time></trkpt><trkpt lat="44.09564430892579" lon="12.161907547879172"><ele>254.0</ele><time>2026-04-20T08:55:31.001Z</time></trkpt><trkpt lat="44.09555380103318" lon="12.16183012264041"><ele>253.0</ele><time>2026-04-20T08:55:32.001Z</time></trkpt><trkpt lat="44.095487906266136" lon="12.161732050903499"><ele>253.0</ele><time>2026-04-20T08:55:33.001Z</time></trkpt><trkpt lat="44.0954632601676" lon="12.161610459065042"><ele>253.0</ele><time>2026-04-20T08:55:34.001Z</time></trkpt><trkpt lat="44.09548629078176" lon="12.161496459795432"><ele>253.0</ele><time>2026-04-20T08:55:35.001Z</time></trkpt><trkpt lat="44.0955514080432" lon="12.16140820637353"><ele>253.0</ele><time>2026-04-20T08:55:36.001Z</time></trkpt><trkpt lat="44.09564869989456" lon="12.161402560143785"><ele>253.0</ele><time>2026-04-20T08:55:37.001Z</time></trkpt><trkpt lat="44.09575498637425" lon="12.161384911058013"><ele>255.0</ele><time>2026-04-20T08:55:38.001Z</time></trkpt><trkpt lat="44.095864034492514" lon="12.161324921514208"><ele>257.0</ele><time>2026-04-20T08:55:39.001Z</time></trkpt><trkpt lat="44.095955257295486" lon="12.161238657699174"><ele>259.0</ele><time>2026-04-20T08:55:40.001Z</time></trkpt><trkpt lat="44.09601038094536" lon="12.16111674878446"><ele>261.0</ele><time>2026-04-20T08:55:41.001Z</time></trkpt><trkpt lat="44.09603695406652" lon="12.160968627355077"><ele>263.0</ele><time>2026-04-20T08:55:42.001Z</time></trkpt><trkpt lat="44.09602996413351" lon="12.16081265985577"><ele>262.75</ele><time>2026-04-20T08:55:43.001Z</time></trkpt><trkpt lat="44.095992225420986" lon="12.16065101385493"><ele>262.5</ele><time>2026-04-20T08:55:44.001Z</time></trkpt><trkpt lat="44.095937323235376" lon="12.160480716430714"><ele>262.25</ele><time>2026-04-20T08:55:45.001Z</time></trkpt><trkpt lat="44.09588948367241" lon="12.160295095358313"><ele>262.0</ele><time>2026-04-20T08:55:46.001Z</time></trkpt><trkpt lat="44.095871548591134" lon="12.160126054267652"><ele>262.0</ele><time>2026-04-20T08:55:47.001Z</time></trkpt><trkpt lat="44.095878668230434" lon="12.159963248967491"><ele>262.0</ele><time>2026-04-20T08:55:48.001Z</time></trkpt><trkpt lat="44.09591066135435" lon="12.159799101340942"><ele>262.0</ele><time>2026-04-20T08:55:49.001Z</time></trkpt><trkpt lat="44.09597109635184" lon="12.159637221734995"><ele>262.0</ele><time>2026-04-20T08:55:50.001Z</time></trkpt><trkpt lat="44.096046634746784" lon="12.159476839256202"><ele>263.0</ele><time>2026-04-20T08:55:51.001Z</time></trkpt><trkpt lat="44.096148760151834" lon="12.159332591391811"><ele>264.0</ele><time>2026-04-20T08:55:52.001Z</time></trkpt><trkpt lat="44.09624966468083" lon="12.159175372778945"><ele>265.0</ele><time>2026-04-20T08:55:53.001Z</time></trkpt><trkpt lat="44.09634057086345" lon="12.159006031293446"><ele>266.0</ele><time>2026-04-20T08:55:54.001Z</time></trkpt><trkpt lat="44.09642968154555" lon="12.15888259639101"><ele>266.0</ele><time>2026-04-20T08:55:55.001Z</time></trkpt><trkpt lat="44.09649945048791" lon="12.158771521042983"><ele>266.0</ele><time>2026-04-20T08:55:56.001Z</time></trkpt><trkpt lat="44.0965401237955" lon="12.158662102092348"><ele>266.0</ele><time>2026-04-20T08:55:57.001Z</time></trkpt><trkpt lat="44.096530975336414" lon="12.15854400333874"><ele>266.0</ele><time>2026-04-20T08:55:58.001Z</time></trkpt><trkpt lat="44.09646929016251" lon="12.158430771734766"><ele>266.0</ele><time>2026-04-20T08:55:59.001Z</time></trkpt><trkpt lat="44.09636272494376" lon="12.15835068594145"><ele>266.0</ele><time>2026-04-20T08:56:00.001Z</time></trkpt><trkpt lat="44.096234097066926" lon="12.158294253368421"><ele>266.0</ele><time>2026-04-20T08:56:01.001Z</time></trkpt><trkpt lat="44.09609326028977" lon="12.158233399225471"><ele>266.0</ele><time>2026-04-20T08:56:02.001Z</time></trkpt><trkpt lat="44.095961555596425" lon="12.15813243383047"><ele>266.0</ele><time>2026-04-20T08:56:03.001Z</time></trkpt><trkpt lat="44.09581991665502" lon="12.158079706074775"><ele>268.0</ele><time>2026-04-20T08:56:04.001Z</time></trkpt><trkpt lat="44.09567654382633" lon="12.15803904353249"><ele>270.0</ele><time>2026-04-20T08:56:05.001Z</time></trkpt><trkpt lat="44.095520755130714" lon="12.158037120129045"><ele>272.0</ele><time>2026-04-20T08:56:06.001Z</time></trkpt><trkpt lat="44.095374149968094" lon="12.158060071884263"><ele>272.0</ele><time>2026-04-20T08:56:07.001Z</time></trkpt><trkpt lat="44.095243628357316" lon="12.158101162544936"><ele>272.0</ele><time>2026-04-20T08:56:08.001Z</time></trkpt><trkpt lat="44.09512440589439" lon="12.158088085944634"><ele>272.0</ele><time>2026-04-20T08:56:09.001Z</time></trkpt><trkpt lat="44.09502115443356" lon="12.158051054882284"><ele>272.0</ele><time>2026-04-20T08:56:10.001Z</time></trkpt><trkpt lat="44.09493510880476" lon="12.157996468106592"><ele>269.8</ele><time>2026-04-20T08:56:11.001Z</time></trkpt><trkpt lat="44.09487289927755" lon="12.15793489855266"><ele>267.6</ele><time>2026-04-20T08:56:12.001Z</time></trkpt><trkpt lat="44.094856234599355" lon="12.157827660401638"><ele>265.40000000000003</ele><time>2026-04-20T08:56:13.001Z</time></trkpt><trkpt lat="44.094876079880216" lon="12.157687494482223"><ele>263.2</ele><time>2026-04-20T08:56:14.001Z</time></trkpt><trkpt lat="44.09489573479739" lon="12.157555830614703"><ele>261.0</ele><time>2026-04-20T08:56:15.001Z</time></trkpt><trkpt lat="44.09490688300218" lon="12.157414062485065"><ele>263.8333333333333</ele><time>2026-04-20T08:56:16.001Z</time></trkpt><trkpt lat="44.09490007887537" lon="12.157295408540374"><ele>266.6666666666667</ele><time>2026-04-20T08:56:17.001Z</time></trkpt><trkpt lat="44.09485639408825" lon="12.157204017028402"><ele>269.5</ele><time>2026-04-20T08:56:18.001Z</time></trkpt><trkpt lat="44.094798009514626" lon="12.157129827602374"><ele>272.33333333333337</ele><time>2026-04-20T08:56:19.001Z</time></trkpt><trkpt lat="44.09470523930573" lon="12.157145047728102"><ele>275.1666666666667</ele><time>2026-04-20T08:56:20.001Z</time></trkpt><trkpt lat="44.0946162526889" lon="12.157236733471525"><ele>278.0</ele><time>2026-04-20T08:56:21.001Z</time></trkpt><trkpt lat="44.09452334898868" lon="12.157322439327066"><ele>275.8</ele><time>2026-04-20T08:56:22.001Z</time></trkpt><trkpt lat="44.094428378033996" lon="12.157412870107839"><ele>273.6</ele><time>2026-04-20T08:56:23.001Z</time></trkpt><trkpt lat="44.09433205302557" lon="12.15746270946511"><ele>271.4</ele><time>2026-04-20T08:56:24.001Z</time></trkpt><trkpt lat="44.094245258777704" lon="12.157514805143943"><ele>269.2</ele><time>2026-04-20T08:56:25.001Z</time></trkpt><trkpt lat="44.094151481340546" lon="12.157475677210503"><ele>267.0</ele><time>2026-04-20T08:56:26.001Z</time></trkpt><trkpt lat="44.09405816248405" lon="12.15741451546769"><ele>267.5</ele><time>2026-04-20T08:56:27.001Z</time></trkpt><trkpt lat="44.09395990098733" lon="12.157345746948632"><ele>268.0</ele><time>2026-04-20T08:56:28.001Z</time></trkpt><trkpt lat="44.09385719476103" lon="12.157293699071834"><ele>268.5</ele><time>2026-04-20T08:56:29.001Z</time></trkpt><trkpt lat="44.09374613070114" lon="12.157271989054703"><ele>269.0</ele><time>2026-04-20T08:56:30.001Z</time></trkpt><trkpt lat="44.09364840151073" lon="12.15736791578155"><ele>268.59999999999997</ele><time>2026-04-20T08:56:31.001Z</time></trkpt><trkpt lat="44.09357625053807" lon="12.157486208385802"><ele>268.2</ele><time>2026-04-20T08:56:32.001Z</time></trkpt><trkpt lat="44.09353331005086" lon="12.157630804158895"><ele>267.79999999999995</ele><time>2026-04-20T08:56:33.001Z</time></trkpt><trkpt lat="44.09348553713815" lon="12.157722982418115"><ele>267.4</ele><time>2026-04-20T08:56:34.001Z</time></trkpt><trkpt lat="44.09349322840418" lon="12.157891380746259"><ele>267.0</ele><time>2026-04-20T08:56:35.001Z</time></trkpt><trkpt lat="44.09349999276126" lon="12.15802532051801"><ele>267.0</ele><time>2026-04-20T08:56:36.001Z</time></trkpt><trkpt lat="44.09347682424544" lon="12.158158464771034"><ele>267.0</ele><time>2026-04-20T08:56:37.001Z</time></trkpt><trkpt lat="44.09341197105758" lon="12.158446643819524"><ele>267.0</ele><time>2026-04-20T08:56:38.001Z</time></trkpt><trkpt lat="44.09336302668145" lon="12.158617291047582"><ele>267.0</ele><time>2026-04-20T08:56:39.001Z</time></trkpt><trkpt lat="44.09332143512628" lon="12.15874496752142"><ele>262.0</ele><time>2026-04-20T08:56:40.001Z</time></trkpt><trkpt lat="44.09325163281247" lon="12.158947267315687"><ele>257.0</ele><time>2026-04-20T08:56:41.001Z</time></trkpt><trkpt lat="44.09317584787977" lon="12.159144831924701"><ele>252.0</ele><time>2026-04-20T08:56:42.001Z</time></trkpt><trkpt lat="44.09308751853471" lon="12.159317622451812"><ele>252.0</ele><time>2026-04-20T08:56:43.001Z</time></trkpt><trkpt lat="44.092993219759826" lon="12.159487251568104"><ele>252.0</ele><time>2026-04-20T08:56:44.001Z</time></trkpt><trkpt lat="44.09289492087812" lon="12.159649798012726"><ele>252.0</ele><time>2026-04-20T08:56:45.001Z</time></trkpt><trkpt lat="44.09278523985601" lon="12.159801413107576"><ele>252.0</ele><time>2026-04-20T08:56:46.001Z</time></trkpt><trkpt lat="44.092665480470636" lon="12.159955615042367"><ele>252.0</ele><time>2026-04-20T08:56:47.001Z</time></trkpt><trkpt lat="44.09254377658116" lon="12.160109113589568"><ele>252.0</ele><time>2026-04-20T08:56:48.001Z</time></trkpt><trkpt lat="44.09242259361132" lon="12.160274069424325"><ele>249.0</ele><time>2026-04-20T08:56:49.001Z</time></trkpt><trkpt lat="44.09230475074516" lon="12.16043960116305"><ele>246.0</ele><time>2026-04-20T08:56:50.001Z</time></trkpt><trkpt lat="44.0921836139688" lon="12.160607291442258"><ele>243.0</ele><time>2026-04-20T08:56:51.001Z</time></trkpt><trkpt lat="44.0920641359706" lon="12.16077180248211"><ele>243.0</ele><time>2026-04-20T08:56:52.001Z</time></trkpt><trkpt lat="44.09194591245918" lon="12.160934585586597"><ele>243.0</ele><time>2026-04-20T08:56:53.001Z</time></trkpt><trkpt lat="44.09182665385216" lon="12.161099418623923"><ele>243.0</ele><time>2026-04-20T08:56:54.001Z</time></trkpt><trkpt lat="44.0917046871507" lon="12.161265913897914"><ele>242.66666666666669</ele><time>2026-04-20T08:56:55.001Z</time></trkpt><trkpt lat="44.09158097238577" lon="12.161432729774193"><ele>242.33333333333334</ele><time>2026-04-20T08:56:56.001Z</time></trkpt><trkpt lat="44.091463608014045" lon="12.16160537182606"><ele>242.0</ele><time>2026-04-20T08:56:57.001Z</time></trkpt><trkpt lat="44.09134307943115" lon="12.161770302610208"><ele>242.0</ele><time>2026-04-20T08:56:58.001Z</time></trkpt><trkpt lat="44.09122819452103" lon="12.161941420664007"><ele>242.0</ele><time>2026-04-20T08:56:59.001Z</time></trkpt><trkpt lat="44.09111683351908" lon="12.162117311789634"><ele>242.0</ele><time>2026-04-20T08:57:00.001Z</time></trkpt><trkpt lat="44.091021786033075" lon="12.162300687762595"><ele>242.0</ele><time>2026-04-20T08:57:01.001Z</time></trkpt><trkpt lat="44.0909264671411" lon="12.162482044760482"><ele>242.0</ele><time>2026-04-20T08:57:02.001Z</time></trkpt><trkpt lat="44.0908411787893" lon="12.162654208434773"><ele>242.0</ele><time>2026-04-20T08:57:03.001Z</time></trkpt><trkpt lat="44.09077341109369" lon="12.162792575041221"><ele>242.0</ele><time>2026-04-20T08:57:04.001Z</time></trkpt><trkpt lat="44.09069537296601" lon="12.162906904489851"><ele>242.5</ele><time>2026-04-20T08:57:05.001Z</time></trkpt><trkpt lat="44.0906039216705" lon="12.16300433626768"><ele>243.0</ele><time>2026-04-20T08:57:06.001Z</time></trkpt><trkpt lat="44.090483572788806" lon="12.163086008845776"><ele>243.5</ele><time>2026-04-20T08:57:07.001Z</time></trkpt><trkpt lat="44.09035109419212" lon="12.163163358285335"><ele>244.0</ele><time>2026-04-20T08:57:08.001Z</time></trkpt><trkpt lat="44.09022294935065" lon="12.163265163763562"><ele>244.0</ele><time>2026-04-20T08:57:09.001Z</time></trkpt><trkpt lat="44.09009975535432" lon="12.16340105566692"><ele>244.0</ele><time>2026-04-20T08:57:10.001Z</time></trkpt><trkpt lat="44.08996907706542" lon="12.163541030221985"><ele>244.0</ele><time>2026-04-20T08:57:11.001Z</time></trkpt><trkpt lat="44.08982988267326" lon="12.16366413767228"><ele>241.0</ele><time>2026-04-20T08:57:12.001Z</time></trkpt><trkpt lat="44.089681951972416" lon="12.163762356551144"><ele>238.0</ele><time>2026-04-20T08:57:13.001Z</time></trkpt><trkpt lat="44.089515532659036" lon="12.163812102102476"><ele>235.0</ele><time>2026-04-20T08:57:14.001Z</time></trkpt><trkpt lat="44.089358288233015" lon="12.163864401522964"><ele>235.0</ele><time>2026-04-20T08:57:15.001Z</time></trkpt><trkpt lat="44.08921331351288" lon="12.163931585721182"><ele>235.0</ele><time>2026-04-20T08:57:16.001Z</time></trkpt><trkpt lat="44.08908699387999" lon="12.16398684259029"><ele>235.0</ele><time>2026-04-20T08:57:17.001Z</time></trkpt><trkpt lat="44.088985362438905" lon="12.164090510424298"><ele>235.0</ele><time>2026-04-20T08:57:18.001Z</time></trkpt><trkpt lat="44.08891266734897" lon="12.164249350102736"><ele>227.33333333333331</ele><time>2026-04-20T08:57:19.001Z</time></trkpt><trkpt lat="44.0888648391263" lon="12.164450528115005"><ele>219.66666666666669</ele><time>2026-04-20T08:57:20.001Z</time></trkpt><trkpt lat="44.08880450170191" lon="12.16466036901012"><ele>212.0</ele><time>2026-04-20T08:57:21.001Z</time></trkpt><trkpt lat="44.08874036762629" lon="12.164888662187538"><ele>212.0</ele><time>2026-04-20T08:57:22.001Z</time></trkpt><trkpt lat="44.08866716419378" lon="12.165099382205813"><ele>212.0</ele><time>2026-04-20T08:57:23.001Z</time></trkpt><trkpt lat="44.08858307235128" lon="12.16530835592054"><ele>212.0</ele><time>2026-04-20T08:57:24.001Z</time></trkpt><trkpt lat="44.088495548309204" lon="12.165499111492574"><ele>212.0</ele><time>2026-04-20T08:57:25.001Z</time></trkpt><trkpt lat="44.08840988175884" lon="12.165680735552083"><ele>212.0</ele><time>2026-04-20T08:57:26.001Z</time></trkpt><trkpt lat="44.08832281544417" lon="12.165826188282074"><ele>212.0</ele><time>2026-04-20T08:57:27.001Z</time></trkpt><trkpt lat="44.08820300122692" lon="12.165916819993756"><ele>212.0</ele><time>2026-04-20T08:57:28.001Z</time></trkpt><trkpt lat="44.08810887598547" lon="12.165996228368176"><ele>209.2</ele><time>2026-04-20T08:57:29.001Z</time></trkpt><trkpt lat="44.088047623485586" lon="12.166099459441213"><ele>206.39999999999998</ele><time>2026-04-20T08:57:30.001Z</time></trkpt><trkpt lat="44.08803924589555" lon="12.166231156301125"><ele>203.60000000000002</ele><time>2026-04-20T08:57:31.001Z</time></trkpt><trkpt lat="44.08808214342234" lon="12.166356740738458"><ele>200.8</ele><time>2026-04-20T08:57:32.001Z</time></trkpt><trkpt lat="44.08815399600327" lon="12.16647571985711"><ele>198.0</ele><time>2026-04-20T08:57:33.001Z</time></trkpt><trkpt lat="44.08822308196714" lon="12.1666235127003"><ele>200.5</ele><time>2026-04-20T08:57:34.001Z</time></trkpt><trkpt lat="44.08826344450804" lon="12.16680413415982"><ele>203.0</ele><time>2026-04-20T08:57:35.001Z</time></trkpt><trkpt lat="44.08828253731317" lon="12.167007173468944"><ele>205.5</ele><time>2026-04-20T08:57:36.001Z</time></trkpt><trkpt lat="44.08826832881062" lon="12.167222556713076"><ele>208.0</ele><time>2026-04-20T08:57:37.001Z</time></trkpt><trkpt lat="44.08821794207769" lon="12.16744793552415"><ele>200.0</ele><time>2026-04-20T08:57:38.001Z</time></trkpt><trkpt lat="44.08814467926451" lon="12.167674833417026"><ele>192.0</ele><time>2026-04-20T08:57:39.001Z</time></trkpt><trkpt lat="44.08806663485628" lon="12.167878675127284"><ele>184.0</ele><time>2026-04-20T08:57:40.001Z</time></trkpt><trkpt lat="44.08797865732011" lon="12.168065180183033"><ele>187.0</ele><time>2026-04-20T08:57:41.001Z</time></trkpt><trkpt lat="44.08786941794328" lon="12.1682312352413"><ele>190.0</ele><time>2026-04-20T08:57:42.001Z</time></trkpt><trkpt lat="44.08774276177944" lon="12.168394955241167"><ele>193.0</ele><time>2026-04-20T08:57:43.001Z</time></trkpt><trkpt lat="44.08762039619156" lon="12.168556844880513"><ele>193.0</ele><time>2026-04-20T08:57:44.001Z</time></trkpt><trkpt lat="44.087519589740644" lon="12.168728105901026"><ele>193.0</ele><time>2026-04-20T08:57:45.001Z</time></trkpt><trkpt lat="44.08744210656251" lon="12.16890448554089"><ele>193.0</ele><time>2026-04-20T08:57:46.001Z</time></trkpt><trkpt lat="44.08738227427955" lon="12.169102166243151"><ele>184.0</ele><time>2026-04-20T08:57:47.001Z</time></trkpt><trkpt lat="44.08734400329208" lon="12.16931451884241"><ele>175.0</ele><time>2026-04-20T08:57:48.001Z</time></trkpt><trkpt lat="44.087322119993686" lon="12.169537839463066"><ele>166.0</ele><time>2026-04-20T08:57:49.001Z</time></trkpt><trkpt lat="44.08731099653831" lon="12.169774874760757"><ele>164.33333333333334</ele><time>2026-04-20T08:57:50.001Z</time></trkpt><trkpt lat="44.087308061442215" lon="12.170018981530827"><ele>162.66666666666666</ele><time>2026-04-20T08:57:51.001Z</time></trkpt><trkpt lat="44.08733884390575" lon="12.170253060429017"><ele>161.0</ele><time>2026-04-20T08:57:52.001Z</time></trkpt><trkpt lat="44.0873955059779" lon="12.170463486493723"><ele>161.5</ele><time>2026-04-20T08:57:53.001Z</time></trkpt><trkpt lat="44.08743201232517" lon="12.170636315658223"><ele>162.0</ele><time>2026-04-20T08:57:54.001Z</time></trkpt><trkpt lat="44.08741773862124" lon="12.170815991696864"><ele>162.5</ele><time>2026-04-20T08:57:55.001Z</time></trkpt><trkpt lat="44.08735514370982" lon="12.170977078443551"><ele>163.0</ele><time>2026-04-20T08:57:56.001Z</time></trkpt><trkpt lat="44.08728833817378" lon="12.171123847535034"><ele>163.0</ele><time>2026-04-20T08:57:57.001Z</time></trkpt><trkpt lat="44.08721979721668" lon="12.171258862907761"><ele>163.0</ele><time>2026-04-20T08:57:58.001Z</time></trkpt><trkpt lat="44.087133075999766" lon="12.17137425122231"><ele>163.0</ele><time>2026-04-20T08:57:59.001Z</time></trkpt><trkpt lat="44.087016521158105" lon="12.171457958420513"><ele>163.0</ele><time>2026-04-20T08:58:00.001Z</time></trkpt><trkpt lat="44.086879312125085" lon="12.171503034150108"><ele>166.25</ele><time>2026-04-20T08:58:01.001Z</time></trkpt><trkpt lat="44.086733116027084" lon="12.171537376552122"><ele>169.5</ele><time>2026-04-20T08:58:02.001Z</time></trkpt><trkpt lat="44.086597418246214" lon="12.17160152233101"><ele>172.75</ele><time>2026-04-20T08:58:03.001Z</time></trkpt><trkpt lat="44.08648028015795" lon="12.171702610349447"><ele>176.0</ele><time>2026-04-20T08:58:04.001Z</time></trkpt><trkpt lat="44.08637338148495" lon="12.171828019725233"><ele>169.25</ele><time>2026-04-20T08:58:05.001Z</time></trkpt><trkpt lat="44.08626531374347" lon="12.171946341963837"><ele>162.5</ele><time>2026-04-20T08:58:06.001Z</time></trkpt><trkpt lat="44.08613864674165" lon="12.172018641674853"><ele>155.75</ele><time>2026-04-20T08:58:07.001Z</time></trkpt><trkpt lat="44.08600485874856" lon="12.172038526382845"><ele>149.0</ele><time>2026-04-20T08:58:08.001Z</time></trkpt><trkpt lat="44.085897742433076" lon="12.172053885054865"><ele>149.0</ele><time>2026-04-20T08:58:09.001Z</time></trkpt><trkpt lat="44.0858208602225" lon="12.17212720612097"><ele>149.0</ele><time>2026-04-20T08:58:10.001Z</time></trkpt><trkpt lat="44.085769669187464" lon="12.172277072854328"><ele>149.0</ele><time>2026-04-20T08:58:11.001Z</time></trkpt><trkpt lat="44.08573705666533" lon="12.17244443560619"><ele>149.0</ele><time>2026-04-20T08:58:12.001Z</time></trkpt><trkpt lat="44.085712831117526" lon="12.172577935824544"><ele>149.0</ele><time>2026-04-20T08:58:13.001Z</time></trkpt><trkpt lat="44.08571939582312" lon="12.172690795155331"><ele>150.66666666666666</ele><time>2026-04-20T08:58:14.001Z</time></trkpt><trkpt lat="44.085765692798255" lon="12.172796158473483"><ele>152.33333333333331</ele><time>2026-04-20T08:58:15.001Z</time></trkpt><trkpt lat="44.08582726200799" lon="12.172878559679424"><ele>154.0</ele><time>2026-04-20T08:58:16.001Z</time></trkpt><trkpt lat="44.085885294931366" lon="12.172976991638627"><ele>155.66666666666666</ele><time>2026-04-20T08:58:17.001Z</time></trkpt><trkpt lat="44.08592547806382" lon="12.173084169871242"><ele>157.33333333333334</ele><time>2026-04-20T08:58:18.001Z</time></trkpt><trkpt lat="44.08595085871891" lon="12.173202280794229"><ele>159.0</ele><time>2026-04-20T08:58:19.001Z</time></trkpt><trkpt lat="44.08591016816844" lon="12.173426117527244"><ele>159.0</ele><time>2026-04-20T08:58:21.001Z</time></trkpt><trkpt lat="44.08583441079122" lon="12.173494940646748"><ele>159.0</ele><time>2026-04-20T08:58:22.001Z</time></trkpt><trkpt lat="44.08574107258875" lon="12.173525017693423"><ele>159.0</ele><time>2026-04-20T08:58:23.001Z</time></trkpt><trkpt lat="44.085631859832084" lon="12.173561077039377"><ele>159.0</ele><time>2026-04-20T08:58:24.001Z</time></trkpt><trkpt lat="44.085525651192924" lon="12.173613906892534"><ele>159.0</ele><time>2026-04-20T08:58:25.001Z</time></trkpt><trkpt lat="44.08541410943057" lon="12.173692376890607"><ele>153.75</ele><time>2026-04-20T08:58:26.001Z</time></trkpt><trkpt lat="44.08529947415404" lon="12.17379677569203"><ele>148.5</ele><time>2026-04-20T08:58:27.001Z</time></trkpt><trkpt lat="44.085186725931266" lon="12.173916775794615"><ele>143.25</ele><time>2026-04-20T08:58:28.001Z</time></trkpt><trkpt lat="44.08507256208121" lon="12.17403783150072"><ele>138.0</ele><time>2026-04-20T08:58:29.001Z</time></trkpt><trkpt lat="44.084962327841836" lon="12.174177710321924"><ele>126.0</ele><time>2026-04-20T08:58:30.001Z</time></trkpt><trkpt lat="44.08486499726072" lon="12.174356121341223"><ele>114.0</ele><time>2026-04-20T08:58:31.001Z</time></trkpt><trkpt lat="44.08478325927212" lon="12.174567870724934"><ele>102.0</ele><time>2026-04-20T08:58:32.001Z</time></trkpt><trkpt lat="44.08471983670267" lon="12.17480334935201"><ele>105.0</ele><time>2026-04-20T08:58:33.001Z</time></trkpt><trkpt lat="44.0846694866871" lon="12.175046957608071"><ele>108.0</ele><time>2026-04-20T08:58:34.001Z</time></trkpt><trkpt lat="44.08462460684051" lon="12.17528267770934"><ele>111.0</ele><time>2026-04-20T08:58:35.001Z</time></trkpt><trkpt lat="44.084564745925405" lon="12.17550777230799"><ele>114.66666666666666</ele><time>2026-04-20T08:58:36.001Z</time></trkpt><trkpt lat="44.084470481436384" lon="12.175695036963871"><ele>118.33333333333333</ele><time>2026-04-20T08:58:37.001Z</time></trkpt><trkpt lat="44.084366070239774" lon="12.175861725672265"><ele>122.0</ele><time>2026-04-20T08:58:38.001Z</time></trkpt><trkpt lat="44.08426702181332" lon="12.176030061511284"><ele>122.0</ele><time>2026-04-20T08:58:39.001Z</time></trkpt><trkpt lat="44.084152481273165" lon="12.176190172598734"><ele>122.0</ele><time>2026-04-20T08:58:40.001Z</time></trkpt><trkpt lat="44.08405654103926" lon="12.176374609184089"><ele>122.0</ele><time>2026-04-20T08:58:41.001Z</time></trkpt><trkpt lat="44.08397955662884" lon="12.176589079735106"><ele>117.33333333333333</ele><time>2026-04-20T08:58:42.001Z</time></trkpt><trkpt lat="44.0839136513301" lon="12.176804464583753"><ele>112.66666666666666</ele><time>2026-04-20T08:58:43.001Z</time></trkpt><trkpt lat="44.08383488016749" lon="12.177043821330022"><ele>108.0</ele><time>2026-04-20T08:58:44.001Z</time></trkpt><trkpt lat="44.08374579843186" lon="12.177249856918232"><ele>109.0</ele><time>2026-04-20T08:58:45.001Z</time></trkpt><trkpt lat="44.08363062621173" lon="12.177428702826223"><ele>110.0</ele><time>2026-04-20T08:58:46.001Z</time></trkpt><trkpt lat="44.083479198531904" lon="12.177556624048448"><ele>111.0</ele><time>2026-04-20T08:58:47.001Z</time></trkpt><trkpt lat="44.083343814411094" lon="12.177710259255283"><ele>105.66666666666667</ele><time>2026-04-20T08:58:48.001Z</time></trkpt><trkpt lat="44.083214929991506" lon="12.17785448708166"><ele>100.33333333333334</ele><time>2026-04-20T08:58:49.001Z</time></trkpt><trkpt lat="44.083103025333074" lon="12.178049863127347"><ele>95.0</ele><time>2026-04-20T08:58:50.001Z</time></trkpt><trkpt lat="44.08301928736565" lon="12.178285565827377"><ele>95.0</ele><time>2026-04-20T08:58:51.001Z</time></trkpt><trkpt lat="44.082948760006104" lon="12.178549341716156"><ele>95.0</ele><time>2026-04-20T08:58:52.001Z</time></trkpt><trkpt lat="44.08288380705006" lon="12.178824142032003"><ele>95.0</ele><time>2026-04-20T08:58:53Z</time></trkpt><trkpt lat="44.082798924320045" lon="12.179088165211695"><ele>95.0</ele><time>2026-04-20T08:58:54Z</time></trkpt><trkpt lat="44.08272565621608" lon="12.179368913112727"><ele>95.0</ele><time>2026-04-20T08:58:55Z</time></trkpt><trkpt lat="44.08265019671149" lon="12.179652462651415"><ele>95.0</ele><time>2026-04-20T08:58:56Z</time></trkpt><trkpt lat="44.08257199030065" lon="12.179941060508634"><ele>93.0</ele><time>2026-04-20T08:58:57Z</time></trkpt><trkpt lat="44.08248480881588" lon="12.180222367135132"><ele>91.0</ele><time>2026-04-20T08:58:58Z</time></trkpt><trkpt lat="44.082391080414375" lon="12.180505710247761"><ele>89.0</ele><time>2026-04-20T08:58:59Z</time></trkpt><trkpt lat="44.082304919319505" lon="12.180774884090042"><ele>89.0</ele><time>2026-04-20T08:59:00Z</time></trkpt><trkpt lat="44.08221455324151" lon="12.181042593010636"><ele>89.0</ele><time>2026-04-20T08:59:01Z</time></trkpt><trkpt lat="44.08211889789829" lon="12.18130545495883"><ele>89.0</ele><time>2026-04-20T08:59:02Z</time></trkpt><trkpt lat="44.082017820224664" lon="12.181553480915028"><ele>91.66666666666667</ele><time>2026-04-20T08:59:03Z</time></trkpt><trkpt lat="44.08191103613172" lon="12.181795638655153"><ele>94.33333333333334</ele><time>2026-04-20T08:59:04Z</time></trkpt><trkpt lat="44.08182560003517" lon="12.182036044127239"><ele>97.0</ele><time>2026-04-20T08:59:05Z</time></trkpt><trkpt lat="44.08174596568344" lon="12.18228028662427"><ele>99.66666666666667</ele><time>2026-04-20T08:59:06Z</time></trkpt><trkpt lat="44.08169794575015" lon="12.182541817001898"><ele>102.33333333333334</ele><time>2026-04-20T08:59:07Z</time></trkpt><trkpt lat="44.0816705620785" lon="12.182816885247101"><ele>105.0</ele><time>2026-04-20T08:59:08Z</time></trkpt><trkpt lat="44.0816599758098" lon="12.183091092557909"><ele>106.66666666666666</ele><time>2026-04-20T08:59:09Z</time></trkpt><trkpt lat="44.08166846403633" lon="12.183357685913036"><ele>108.33333333333333</ele><time>2026-04-20T08:59:10Z</time></trkpt><trkpt lat="44.08169795316453" lon="12.183625309983897"><ele>110.0</ele><time>2026-04-20T08:59:11Z</time></trkpt><trkpt lat="44.08175640405461" lon="12.18387090695559"><ele>108.33333333333333</ele><time>2026-04-20T08:59:12Z</time></trkpt><trkpt lat="44.08183647702236" lon="12.184112998811244"><ele>106.66666666666666</ele><time>2026-04-20T08:59:13Z</time></trkpt><trkpt lat="44.08191698182706" lon="12.184350078846"><ele>105.0</ele><time>2026-04-20T08:59:14Z</time></trkpt><trkpt lat="44.08201417796349" lon="12.184570772723783"><ele>105.0</ele><time>2026-04-20T08:59:15Z</time></trkpt><trkpt lat="44.082105639857865" lon="12.184775497358093"><ele>105.0</ele><time>2026-04-20T08:59:16Z</time></trkpt><trkpt lat="44.082180315733495" lon="12.184986846839772"><ele>105.0</ele><time>2026-04-20T08:59:17Z</time></trkpt><trkpt lat="44.082245687642654" lon="12.185202137401998"><ele>105.0</ele><time>2026-04-20T08:59:18Z</time></trkpt><trkpt lat="44.082322150505576" lon="12.185414079512793"><ele>105.0</ele><time>2026-04-20T08:59:18.999Z</time></trkpt><trkpt lat="44.08237918282734" lon="12.185642068812465"><ele>105.0</ele><time>2026-04-20T08:59:19.999Z</time></trkpt><trkpt lat="44.082453364307355" lon="12.185844090459726"><ele>105.0</ele><time>2026-04-20T08:59:20.999Z</time></trkpt><trkpt lat="44.0825509050583" lon="12.18602224170209"><ele>105.0</ele><time>2026-04-20T08:59:21.999Z</time></trkpt><trkpt lat="44.08267192166999" lon="12.18616398613823"><ele>105.0</ele><time>2026-04-20T08:59:22.999Z</time></trkpt><trkpt lat="44.082814353713324" lon="12.186265957843448"><ele>105.0</ele><time>2026-04-20T08:59:23.999Z</time></trkpt><trkpt lat="44.08296665614053" lon="12.186344465404071"><ele>105.0</ele><time>2026-04-20T08:59:24.999Z</time></trkpt><trkpt lat="44.08311393206363" lon="12.186441012043717"><ele>105.0</ele><time>2026-04-20T08:59:25.999Z</time></trkpt><trkpt lat="44.08324871942667" lon="12.186561349414832"><ele>102.66666666666666</ele><time>2026-04-20T08:59:26.999Z</time></trkpt><trkpt lat="44.083386331571205" lon="12.186646922256434"><ele>100.33333333333333</ele><time>2026-04-20T08:59:27.999Z</time></trkpt><trkpt lat="44.08353317180728" lon="12.186680446194874"><ele>98.0</ele><time>2026-04-20T08:59:28.999Z</time></trkpt><trkpt lat="44.083693471285315" lon="12.186687627934687"><ele>98.0</ele><time>2026-04-20T08:59:29.999Z</time></trkpt><trkpt lat="44.08385497442458" lon="12.186683920812866"><ele>98.0</ele><time>2026-04-20T08:59:30.999Z</time></trkpt><trkpt lat="44.08402356588577" lon="12.186707448654742"><ele>98.0</ele><time>2026-04-20T08:59:31.999Z</time></trkpt><trkpt lat="44.08418896817521" lon="12.18676738382062"><ele>98.33333333333333</ele><time>2026-04-20T08:59:32.999Z</time></trkpt><trkpt lat="44.08434194298219" lon="12.186893959110673"><ele>98.66666666666666</ele><time>2026-04-20T08:59:33.999Z</time></trkpt><trkpt lat="44.08450789955894" lon="12.186989953843462"><ele>99.0</ele><time>2026-04-20T08:59:34.999Z</time></trkpt><trkpt lat="44.084674406336624" lon="12.187102820131475"><ele>99.0</ele><time>2026-04-20T08:59:35.999Z</time></trkpt><trkpt lat="44.08485502970963" lon="12.187182784512894"><ele>99.0</ele><time>2026-04-20T08:59:36.999Z</time></trkpt><trkpt lat="44.085035875039175" lon="12.187256767485193"><ele>99.0</ele><time>2026-04-20T08:59:37.999Z</time></trkpt><trkpt lat="44.08522218556031" lon="12.187331779061276"><ele>96.0</ele><time>2026-04-20T08:59:38.999Z</time></trkpt><trkpt lat="44.08540155316226" lon="12.187407830586952"><ele>93.0</ele><time>2026-04-20T08:59:39.999Z</time></trkpt><trkpt lat="44.0855640188428" lon="12.18747734928172"><ele>90.0</ele><time>2026-04-20T08:59:40.999Z</time></trkpt><trkpt lat="44.0857075187551" lon="12.187541030216861"><ele>90.25</ele><time>2026-04-20T08:59:41.999Z</time></trkpt><trkpt lat="44.08582734890206" lon="12.187602991458778"><ele>90.5</ele><time>2026-04-20T08:59:42.999Z</time></trkpt><trkpt lat="44.08591841931901" lon="12.187684359749381"><ele>90.75</ele><time>2026-04-20T08:59:43.999Z</time></trkpt><trkpt lat="44.086001390581735" lon="12.187942150041215"><ele>91.0</ele><time>2026-04-20T08:59:45.999Z</time></trkpt><trkpt lat="44.08596746691258" lon="12.188094817104194"><ele>89.75</ele><time>2026-04-20T08:59:46.999Z</time></trkpt><trkpt lat="44.08591984415136" lon="12.188246676857533"><ele>88.5</ele><time>2026-04-20T08:59:47.999Z</time></trkpt><trkpt lat="44.085880123624165" lon="12.188431323848599"><ele>87.25</ele><time>2026-04-20T08:59:48.999Z</time></trkpt><trkpt lat="44.085819950666966" lon="12.188610285162317"><ele>86.0</ele><time>2026-04-20T08:59:49.999Z</time></trkpt><trkpt lat="44.08577395199282" lon="12.188778969822794"><ele>85.5</ele><time>2026-04-20T08:59:50.999Z</time></trkpt><trkpt lat="44.0857296378219" lon="12.18893977333626"><ele>85.0</ele><time>2026-04-20T08:59:51.999Z</time></trkpt><trkpt lat="44.08569452487413" lon="12.189098831573013"><ele>84.5</ele><time>2026-04-20T08:59:52.999Z</time></trkpt><trkpt lat="44.08566808221317" lon="12.18925132132362"><ele>84.0</ele><time>2026-04-20T08:59:53.999Z</time></trkpt><trkpt lat="44.085642050786014" lon="12.18938640453099"><ele>83.0</ele><time>2026-04-20T08:59:54.999Z</time></trkpt><trkpt lat="44.08560611788926" lon="12.189514294694995"><ele>82.0</ele><time>2026-04-20T08:59:55.999Z</time></trkpt><trkpt lat="44.08556518548165" lon="12.189610331624657"><ele>81.0</ele><time>2026-04-20T08:59:56.999Z</time></trkpt><trkpt lat="44.08552118384554" lon="12.189674780295862"><ele>80.0</ele><time>2026-04-20T08:59:57.999Z</time></trkpt><trkpt lat="44.085428864834554" lon="12.189732587482364"><ele>79.0</ele><time>2026-04-20T08:59:59.999Z</time></trkpt><trkpt lat="44.085367163614116" lon="12.189714595132868"><ele>78.0</ele><time>2026-04-20T09:00:00.999Z</time></trkpt><trkpt lat="44.085279368756055" lon="12.189668601801356"><ele>78.0</ele><time>2026-04-20T09:00:01.999Z</time></trkpt><trkpt lat="44.08518081726407" lon="12.189605032225375"><ele>78.0</ele><time>2026-04-20T09:00:02.999Z</time></trkpt><trkpt lat="44.08506057103786" lon="12.189543621608118"><ele>78.0</ele><time>2026-04-20T09:00:03.999Z</time></trkpt><trkpt lat="44.08493005185437" lon="12.189484856192914"><ele>78.0</ele><time>2026-04-20T09:00:04.999Z</time></trkpt><trkpt lat="44.084784291305624" lon="12.189422356027558"><ele>77.66666666666667</ele><time>2026-04-20T09:00:05.999Z</time></trkpt><trkpt lat="44.08462447723499" lon="12.189367528922128"><ele>77.33333333333334</ele><time>2026-04-20T09:00:06.999Z</time></trkpt><trkpt lat="44.08445767075446" lon="12.189331446742038"><ele>77.0</ele><time>2026-04-20T09:00:07.999Z</time></trkpt><trkpt lat="44.08427971447792" lon="12.18929370835916"><ele>77.0</ele><time>2026-04-20T09:00:08.999Z</time></trkpt><trkpt lat="44.08409737515737" lon="12.1892496369899"><ele>77.0</ele><time>2026-04-20T09:00:09.999Z</time></trkpt><trkpt lat="44.083919926704354" lon="12.189199985864535"><ele>77.0</ele><time>2026-04-20T09:00:10.999Z</time></trkpt><trkpt lat="44.083741177163205" lon="12.189136061761662"><ele>77.0</ele><time>2026-04-20T09:00:11.999Z</time></trkpt><trkpt lat="44.08356818381499" lon="12.189072040163147"><ele>77.0</ele><time>2026-04-20T09:00:12.999Z</time></trkpt><trkpt lat="44.08339259225577" lon="12.188997235471692"><ele>77.0</ele><time>2026-04-20T09:00:13.999Z</time></trkpt><trkpt lat="44.08322568638512" lon="12.188932993752948"><ele>73.66666666666667</ele><time>2026-04-20T09:00:14.999Z</time></trkpt><trkpt lat="44.08305669405734" lon="12.188874577268114"><ele>70.33333333333333</ele><time>2026-04-20T09:00:15.999Z</time></trkpt><trkpt lat="44.08287906219205" lon="12.188850818776304"><ele>67.0</ele><time>2026-04-20T09:00:16.999Z</time></trkpt><trkpt lat="44.08269473950902" lon="12.188870311194641"><ele>67.0</ele><time>2026-04-20T09:00:17.999Z</time></trkpt><trkpt lat="44.08249992239167" lon="12.188913865759288"><ele>67.0</ele><time>2026-04-20T09:00:18.999Z</time></trkpt><trkpt lat="44.082302060158995" lon="12.188911335696062"><ele>67.0</ele><time>2026-04-20T09:00:19.999Z</time></trkpt><trkpt lat="44.08210453819045" lon="12.188922565565589"><ele>68.0</ele><time>2026-04-20T09:00:20.999Z</time></trkpt><trkpt lat="44.081908016307615" lon="12.188879247597727"><ele>69.0</ele><time>2026-04-20T09:00:21.999Z</time></trkpt><trkpt lat="44.0817289929695" lon="12.188763842075959"><ele>70.0</ele><time>2026-04-20T09:00:22.999Z</time></trkpt><trkpt lat="44.081535346289705" lon="12.18868212868796"><ele>73.0</ele><time>2026-04-20T09:00:23.999Z</time></trkpt><trkpt lat="44.08133849221567" lon="12.188683449083252"><ele>76.0</ele><time>2026-04-20T09:00:24.999Z</time></trkpt><trkpt lat="44.081127795541434" lon="12.1887223442762"><ele>79.0</ele><time>2026-04-20T09:00:25.999Z</time></trkpt><trkpt lat="44.08091944331128" lon="12.188803043368086"><ele>79.66666666666666</ele><time>2026-04-20T09:00:26.999Z</time></trkpt><trkpt lat="44.08071748998832" lon="12.188890201493177"><ele>80.33333333333333</ele><time>2026-04-20T09:00:27.999Z</time></trkpt><trkpt lat="44.080510799116624" lon="12.188955310175473"><ele>81.0</ele><time>2026-04-20T09:00:28.999Z</time></trkpt><trkpt lat="44.08030095525076" lon="12.189003535945295"><ele>79.0</ele><time>2026-04-20T09:00:29.999Z</time></trkpt><trkpt lat="44.08008831771378" lon="12.189037525469095"><ele>77.0</ele><time>2026-04-20T09:00:30.999Z</time></trkpt><trkpt lat="44.07987685326526" lon="12.189066043441976"><ele>75.0</ele><time>2026-04-20T09:00:31.999Z</time></trkpt><trkpt lat="44.07966712253916" lon="12.189067298947752"><ele>75.66666666666667</ele><time>2026-04-20T09:00:32.999Z</time></trkpt><trkpt lat="44.0794677918216" lon="12.188994760667832"><ele>76.33333333333334</ele><time>2026-04-20T09:00:33.999Z</time></trkpt><trkpt lat="44.0792769151471" lon="12.188904522435633"><ele>77.0</ele><time>2026-04-20T09:00:34.999Z</time></trkpt><trkpt lat="44.0790924709758" lon="12.18878845379774"><ele>77.0</ele><time>2026-04-20T09:00:35.999Z</time></trkpt><trkpt lat="44.078895880282076" lon="12.188689927722912"><ele>77.0</ele><time>2026-04-20T09:00:36.999Z</time></trkpt><trkpt lat="44.0787076117265" lon="12.188562521913585"><ele>77.0</ele><time>2026-04-20T09:00:37.999Z</time></trkpt><trkpt lat="44.078511030743435" lon="12.188444084018574"><ele>77.0</ele><time>2026-04-20T09:00:38.999Z</time></trkpt><trkpt lat="44.078312841963076" lon="12.18832998088692"><ele>77.0</ele><time>2026-04-20T09:00:39.999Z</time></trkpt><trkpt lat="44.07811661845426" lon="12.188209827862234"><ele>77.0</ele><time>2026-04-20T09:00:40.999Z</time></trkpt><trkpt lat="44.07792171708319" lon="12.188087862472978"><ele>76.66666666666667</ele><time>2026-04-20T09:00:41.999Z</time></trkpt><trkpt lat="44.07772908290169" lon="12.187967183068634"><ele>76.33333333333333</ele><time>2026-04-20T09:00:42.999Z</time></trkpt><trkpt lat="44.07753647278302" lon="12.18784661870091"><ele>76.0</ele><time>2026-04-20T09:00:43.999Z</time></trkpt><trkpt lat="44.07734497393402" lon="12.187721435694778"><ele>76.0</ele><time>2026-04-20T09:00:44.999Z</time></trkpt><trkpt lat="44.07715443156417" lon="12.187592838211902"><ele>76.0</ele><time>2026-04-20T09:00:45.999Z</time></trkpt><trkpt lat="44.07696644566279" lon="12.187465275945375"><ele>76.0</ele><time>2026-04-20T09:00:46.999Z</time></trkpt><trkpt lat="44.07677852659075" lon="12.187333855084699"><ele>77.0</ele><time>2026-04-20T09:00:47.999Z</time></trkpt><trkpt lat="44.07659412087504" lon="12.187212147877863"><ele>78.0</ele><time>2026-04-20T09:00:48.999Z</time></trkpt><trkpt lat="44.07640983467929" lon="12.18708502821098"><ele>79.0</ele><time>2026-04-20T09:00:49.999Z</time></trkpt><trkpt lat="44.07623105294932" lon="12.18697669203896"><ele>79.0</ele><time>2026-04-20T09:00:50.999Z</time></trkpt><trkpt lat="44.076056406206135" lon="12.186858999111735"><ele>79.0</ele><time>2026-04-20T09:00:51.999Z</time></trkpt><trkpt lat="44.075887206888105" lon="12.186743963773312"><ele>79.0</ele><time>2026-04-20T09:00:52.999Z</time></trkpt><trkpt lat="44.075722296956094" lon="12.186634975713735"><ele>80.0</ele><time>2026-04-20T09:00:53.999Z</time></trkpt><trkpt lat="44.07555217018797" lon="12.186525642796639"><ele>81.0</ele><time>2026-04-20T09:00:54.999Z</time></trkpt><trkpt lat="44.07538744518269" lon="12.186406038960278"><ele>82.0</ele><time>2026-04-20T09:00:55.999Z</time></trkpt><trkpt lat="44.075219696452905" lon="12.186299046297405"><ele>81.66666666666666</ele><time>2026-04-20T09:00:56.999Z</time></trkpt><trkpt lat="44.07505598133761" lon="12.18618355411711"><ele>81.33333333333333</ele><time>2026-04-20T09:00:57.999Z</time></trkpt><trkpt lat="44.074888403720294" lon="12.186056485846933"><ele>81.0</ele><time>2026-04-20T09:00:58.999Z</time></trkpt><trkpt lat="44.074714626668076" lon="12.18594546356418"><ele>81.0</ele><time>2026-04-20T09:00:59.999Z</time></trkpt><trkpt lat="44.07454723874305" lon="12.185802753023514"><ele>81.0</ele><time>2026-04-20T09:01:00.999Z</time></trkpt><trkpt lat="44.074375073988925" lon="12.18566341180993"><ele>81.0</ele><time>2026-04-20T09:01:01.999Z</time></trkpt><trkpt lat="44.07419686480513" lon="12.185519921362975"><ele>82.33333333333333</ele><time>2026-04-20T09:01:02.999Z</time></trkpt><trkpt lat="44.07401419282824" lon="12.185382168492518"><ele>83.66666666666666</ele><time>2026-04-20T09:01:03.999Z</time></trkpt><trkpt lat="44.07382121959767" lon="12.185270009834793"><ele>85.0</ele><time>2026-04-20T09:01:04.999Z</time></trkpt><trkpt lat="44.07362128299896" lon="12.185172020136227"><ele>85.0</ele><time>2026-04-20T09:01:05.999Z</time></trkpt><trkpt lat="44.073422315163825" lon="12.185091813649173"><ele>85.0</ele><time>2026-04-20T09:01:06.999Z</time></trkpt><trkpt lat="44.073222146475935" lon="12.185001925121734"><ele>85.0</ele><time>2026-04-20T09:01:07.999Z</time></trkpt><trkpt lat="44.07302563836375" lon="12.18490582349006"><ele>86.33333333333333</ele><time>2026-04-20T09:01:08.999Z</time></trkpt><trkpt lat="44.0728320274787" lon="12.184811906358501"><ele>87.66666666666667</ele><time>2026-04-20T09:01:09.999Z</time></trkpt><trkpt lat="44.072632191497625" lon="12.184713301732799"><ele>89.0</ele><time>2026-04-20T09:01:10.999Z</time></trkpt><trkpt lat="44.072434838449006" lon="12.184618333393656"><ele>89.0</ele><time>2026-04-20T09:01:11.999Z</time></trkpt><trkpt lat="44.07223739047419" lon="12.184526806258358"><ele>89.0</ele><time>2026-04-20T09:01:12.999Z</time></trkpt><trkpt lat="44.072040440310744" lon="12.184444373036749"><ele>89.0</ele><time>2026-04-20T09:01:13.999Z</time></trkpt><trkpt lat="44.07183835315991" lon="12.184379170880057"><ele>89.0</ele><time>2026-04-20T09:01:14.999Z</time></trkpt><trkpt lat="44.07163836778943" lon="12.18433228207548"><ele>89.0</ele><time>2026-04-20T09:01:15.999Z</time></trkpt><trkpt lat="44.07143512113501" lon="12.184293916566148"><ele>89.0</ele><time>2026-04-20T09:01:16.999Z</time></trkpt><trkpt lat="44.07123578831536" lon="12.184254646378356"><ele>88.33333333333334</ele><time>2026-04-20T09:01:17.999Z</time></trkpt><trkpt lat="44.071049838900535" lon="12.184213340957523"><ele>87.66666666666667</ele><time>2026-04-20T09:01:18.999Z</time></trkpt><trkpt lat="44.0708761901429" lon="12.18417460116252"><ele>87.0</ele><time>2026-04-20T09:01:19.999Z</time></trkpt><trkpt lat="44.0707041191141" lon="12.184137804897757"><ele>88.33333333333333</ele><time>2026-04-20T09:01:20.999Z</time></trkpt><trkpt lat="44.07053339801168" lon="12.184104304422425"><ele>89.66666666666666</ele><time>2026-04-20T09:01:21.999Z</time></trkpt><trkpt lat="44.07036357666287" lon="12.184067162231957"><ele>91.0</ele><time>2026-04-20T09:01:22.999Z</time></trkpt><trkpt lat="44.07019536591553" lon="12.184025950421855"><ele>90.33333333333333</ele><time>2026-04-20T09:01:23.999Z</time></trkpt><trkpt lat="44.070031972135595" lon="12.183988262338415"><ele>89.66666666666667</ele><time>2026-04-20T09:01:24.999Z</time></trkpt><trkpt lat="44.06986757837297" lon="12.183948888292418"><ele>89.0</ele><time>2026-04-20T09:01:25.999Z</time></trkpt><trkpt lat="44.06970522828721" lon="12.183910705465767"><ele>89.0</ele><time>2026-04-20T09:01:26.999Z</time></trkpt><trkpt lat="44.069546404899434" lon="12.183875109204442"><ele>89.0</ele><time>2026-04-20T09:01:27.999Z</time></trkpt><trkpt lat="44.06939722074621" lon="12.183861782166732"><ele>89.0</ele><time>2026-04-20T09:01:28.999Z</time></trkpt><trkpt lat="44.069247990749574" lon="12.183874352705352"><ele>89.0</ele><time>2026-04-20T09:01:29.999Z</time></trkpt><trkpt lat="44.06910566468832" lon="12.183926211654592"><ele>89.0</ele><time>2026-04-20T09:01:30.999Z</time></trkpt><trkpt lat="44.068958588298216" lon="12.184001445290944"><ele>89.0</ele><time>2026-04-20T09:01:31.999Z</time></trkpt><trkpt lat="44.068813898975726" lon="12.184079594373513"><ele>89.0</ele><time>2026-04-20T09:01:32.999Z</time></trkpt><trkpt lat="44.06867921654765" lon="12.184155001812549"><ele>89.0</ele><time>2026-04-20T09:01:34Z</time></trkpt><trkpt lat="44.06854731160345" lon="12.184218210607114"><ele>89.0</ele><time>2026-04-20T09:01:35Z</time></trkpt><trkpt lat="44.06841783880708" lon="12.184266760856353"><ele>89.0</ele><time>2026-04-20T09:01:36Z</time></trkpt><trkpt lat="44.06816748020785" lon="12.184285545887542"><ele>89.0</ele><time>2026-04-20T09:01:38Z</time></trkpt><trkpt lat="44.06804519293171" lon="12.184245643383539"><ele>89.0</ele><time>2026-04-20T09:01:39Z</time></trkpt><trkpt lat="44.06792448121849" lon="12.184183164993636"><ele>89.0</ele><time>2026-04-20T09:01:40Z</time></trkpt><trkpt lat="44.06780640267447" lon="12.184103606216237"><ele>89.0</ele><time>2026-04-20T09:01:41Z</time></trkpt><trkpt lat="44.06768896053244" lon="12.18401545174141"><ele>88.75</ele><time>2026-04-20T09:01:42Z</time></trkpt><trkpt lat="44.06756983814765" lon="12.183919769516129"><ele>88.5</ele><time>2026-04-20T09:01:43Z</time></trkpt><trkpt lat="44.06744485585052" lon="12.183830480302776"><ele>88.25</ele><time>2026-04-20T09:01:44Z</time></trkpt><trkpt lat="44.06732334298134" lon="12.183743104135713"><ele>88.0</ele><time>2026-04-20T09:01:45Z</time></trkpt><trkpt lat="44.06721286407927" lon="12.183653749193319"><ele>88.0</ele><time>2026-04-20T09:01:46Z</time></trkpt><trkpt lat="44.06710658090881" lon="12.183565323739922"><ele>88.0</ele><time>2026-04-20T09:01:47Z</time></trkpt><trkpt lat="44.066996555532725" lon="12.183480344944797"><ele>88.0</ele><time>2026-04-20T09:01:48Z</time></trkpt><trkpt lat="44.0668829382059" lon="12.183393989789298"><ele>88.0</ele><time>2026-04-20T09:01:49Z</time></trkpt><trkpt lat="44.066767278055856" lon="12.183291930334498"><ele>88.0</ele><time>2026-04-20T09:01:50Z</time></trkpt><trkpt lat="44.06664723005339" lon="12.18318109801225"><ele>88.0</ele><time>2026-04-20T09:01:51Z</time></trkpt><trkpt lat="44.06652811015654" lon="12.183058406959818"><ele>88.0</ele><time>2026-04-20T09:01:52Z</time></trkpt><trkpt lat="44.06641309390342" lon="12.182924708358291"><ele>88.0</ele><time>2026-04-20T09:01:53Z</time></trkpt><trkpt lat="44.06630838219923" lon="12.182785180184085"><ele>87.0</ele><time>2026-04-20T09:01:54Z</time></trkpt><trkpt lat="44.06622066570243" lon="12.182649784745504"><ele>86.0</ele><time>2026-04-20T09:01:55Z</time></trkpt><trkpt lat="44.066133631082145" lon="12.182499446701563"><ele>85.0</ele><time>2026-04-20T09:01:56Z</time></trkpt><trkpt lat="44.06605524807582" lon="12.182359472215293"><ele>84.0</ele><time>2026-04-20T09:01:57Z</time></trkpt><trkpt lat="44.065976817308915" lon="12.182220763629449"><ele>84.0</ele><time>2026-04-20T09:01:58Z</time></trkpt><trkpt lat="44.065894537458895" lon="12.182093756049017"><ele>84.0</ele><time>2026-04-20T09:01:59Z</time></trkpt><trkpt lat="44.065803390446305" lon="12.181992122123319"><ele>84.0</ele><time>2026-04-20T09:02:00Z</time></trkpt><trkpt lat="44.065705805122" lon="12.181931198070586"><ele>84.0</ele><time>2026-04-20T09:02:01Z</time></trkpt><trkpt lat="44.06560500212093" lon="12.181898977599158"><ele>84.2</ele><time>2026-04-20T09:02:02Z</time></trkpt><trkpt lat="44.0655067920542" lon="12.181922976220179"><ele>84.4</ele><time>2026-04-20T09:02:03Z</time></trkpt><trkpt lat="44.065417168785515" lon="12.181987076637917"><ele>84.6</ele><time>2026-04-20T09:02:04Z</time></trkpt><trkpt lat="44.06533615468252" lon="12.18206652738498"><ele>84.8</ele><time>2026-04-20T09:02:05Z</time></trkpt><trkpt lat="44.06526851380533" lon="12.182137287042261"><ele>85.0</ele><time>2026-04-20T09:02:06Z</time></trkpt><trkpt lat="44.065202613347324" lon="12.18220112646367"><ele>85.0</ele><time>2026-04-20T09:02:07Z</time></trkpt><trkpt lat="44.06513623799693" lon="12.182275314678757"><ele>85.0</ele><time>2026-04-20T09:02:08Z</time></trkpt><trkpt lat="44.06506361768725" lon="12.182367516769096"><ele>85.0</ele><time>2026-04-20T09:02:09Z</time></trkpt><trkpt lat="44.064994966417046" lon="12.182479761598053"><ele>85.0</ele><time>2026-04-20T09:02:10Z</time></trkpt><trkpt lat="44.06492754586217" lon="12.182603224613903"><ele>85.0</ele><time>2026-04-20T09:02:11Z</time></trkpt><trkpt lat="44.06486099466811" lon="12.18272561083923"><ele>86.0</ele><time>2026-04-20T09:02:12Z</time></trkpt><trkpt lat="44.06478875578907" lon="12.182827802982555"><ele>87.0</ele><time>2026-04-20T09:02:13Z</time></trkpt><trkpt lat="44.0646975273907" lon="12.182910659381879"><ele>88.0</ele><time>2026-04-20T09:02:14Z</time></trkpt><trkpt lat="44.064589319663035" lon="12.182957110962164"><ele>89.0</ele><time>2026-04-20T09:02:15Z</time></trkpt><trkpt lat="44.0644777009428" lon="12.18296406762408"><ele>90.0</ele><time>2026-04-20T09:02:16Z</time></trkpt><trkpt lat="44.064356516441165" lon="12.182948581014639"><ele>90.0</ele><time>2026-04-20T09:02:17Z</time></trkpt><trkpt lat="44.06422979760986" lon="12.182914328827525"><ele>90.0</ele><time>2026-04-20T09:02:18Z</time></trkpt><trkpt lat="44.06409885050006" lon="12.18286547140697"><ele>90.0</ele><time>2026-04-20T09:02:19Z</time></trkpt><trkpt lat="44.06397273969066" lon="12.182811149933459"><ele>90.0</ele><time>2026-04-20T09:02:20Z</time></trkpt><trkpt lat="44.06384765190436" lon="12.18273533486993"><ele>90.0</ele><time>2026-04-20T09:02:21Z</time></trkpt><trkpt lat="44.06372453087147" lon="12.182698739825451"><ele>90.0</ele><time>2026-04-20T09:02:22Z</time></trkpt><trkpt lat="44.06361788958679" lon="12.182636853448335"><ele>90.0</ele><time>2026-04-20T09:02:23Z</time></trkpt><trkpt lat="44.063513000247234" lon="12.18258104001563"><ele>90.0</ele><time>2026-04-20T09:02:24Z</time></trkpt><trkpt lat="44.06340135673294" lon="12.182525542391916"><ele>90.0</ele><time>2026-04-20T09:02:25Z</time></trkpt><trkpt lat="44.06328543583412" lon="12.182467401471662"><ele>90.0</ele><time>2026-04-20T09:02:26Z</time></trkpt><trkpt lat="44.06316574616913" lon="12.182403512888373"><ele>90.0</ele><time>2026-04-20T09:02:27Z</time></trkpt><trkpt lat="44.06304146334366" lon="12.182335330435544"><ele>90.0</ele><time>2026-04-20T09:02:28Z</time></trkpt><trkpt lat="44.062913789945824" lon="12.182266963232497"><ele>89.75</ele><time>2026-04-20T09:02:29Z</time></trkpt><trkpt lat="44.06278909714016" lon="12.182200713526921"><ele>89.5</ele><time>2026-04-20T09:02:30Z</time></trkpt><trkpt lat="44.06266256788916" lon="12.18213331129423"><ele>89.25</ele><time>2026-04-20T09:02:31Z</time></trkpt><trkpt lat="44.06253613565576" lon="12.182063143333503"><ele>89.0</ele><time>2026-04-20T09:02:32Z</time></trkpt><trkpt lat="44.062408649342125" lon="12.181995060533676"><ele>89.0</ele><time>2026-04-20T09:02:33Z</time></trkpt><trkpt lat="44.062281129368856" lon="12.181928384788554"><ele>89.0</ele><time>2026-04-20T09:02:34Z</time></trkpt><trkpt lat="44.06215307347223" lon="12.181860645904704"><ele>89.0</ele><time>2026-04-20T09:02:35Z</time></trkpt><trkpt lat="44.0620231417615" lon="12.18179402567036"><ele>89.0</ele><time>2026-04-20T09:02:36Z</time></trkpt><trkpt lat="44.061891155157284" lon="12.181727578785752"><ele>89.0</ele><time>2026-04-20T09:02:37Z</time></trkpt><trkpt lat="44.06175914348032" lon="12.181658258132284"><ele>89.0</ele><time>2026-04-20T09:02:38Z</time></trkpt><trkpt lat="44.061626763248384" lon="12.18158706507421"><ele>89.0</ele><time>2026-04-20T09:02:39Z</time></trkpt><trkpt lat="44.0614900695672" lon="12.181517587416987"><ele>89.0</ele><time>2026-04-20T09:02:40Z</time></trkpt><trkpt lat="44.06134980898985" lon="12.181447570456033"><ele>90.0</ele><time>2026-04-20T09:02:41Z</time></trkpt><trkpt lat="44.06120526716428" lon="12.181378377122895"><ele>91.0</ele><time>2026-04-20T09:02:42Z</time></trkpt><trkpt lat="44.06105548554503" lon="12.181314655615859"><ele>92.0</ele><time>2026-04-20T09:02:43Z</time></trkpt><trkpt lat="44.06090666433195" lon="12.18125515447504"><ele>92.33333333333334</ele><time>2026-04-20T09:02:44Z</time></trkpt><trkpt lat="44.060755441403835" lon="12.181200511776755"><ele>92.66666666666667</ele><time>2026-04-20T09:02:45Z</time></trkpt><trkpt lat="44.06060415125748" lon="12.181147566323776"><ele>93.0</ele><time>2026-04-20T09:02:46Z</time></trkpt><trkpt lat="44.06045241062375" lon="12.181092915938251"><ele>93.0</ele><time>2026-04-20T09:02:47Z</time></trkpt><trkpt lat="44.060303016545966" lon="12.181041821833182"><ele>93.0</ele><time>2026-04-20T09:02:48Z</time></trkpt><trkpt lat="44.06015602086359" lon="12.180995509655267"><ele>93.0</ele><time>2026-04-20T09:02:49Z</time></trkpt><trkpt lat="44.06000986079091" lon="12.180953628566902"><ele>92.33333333333333</ele><time>2026-04-20T09:02:50Z</time></trkpt><trkpt lat="44.059862105125006" lon="12.180912087424378"><ele>91.66666666666666</ele><time>2026-04-20T09:02:51Z</time></trkpt><trkpt lat="44.0597122587903" lon="12.180872566851402"><ele>91.0</ele><time>2026-04-20T09:02:52Z</time></trkpt><trkpt lat="44.05956118688304" lon="12.180833724805309"><ele>91.0</ele><time>2026-04-20T09:02:53Z</time></trkpt><trkpt lat="44.059407886121704" lon="12.180795150607231"><ele>91.0</ele><time>2026-04-20T09:02:54Z</time></trkpt><trkpt lat="44.05925404434177" lon="12.180759220696986"><ele>91.0</ele><time>2026-04-20T09:02:55Z</time></trkpt><trkpt lat="44.05909632290131" lon="12.180723678566894"><ele>91.33333333333333</ele><time>2026-04-20T09:02:56Z</time></trkpt><trkpt lat="44.0589367686977" lon="12.180689453494278"><ele>91.66666666666667</ele><time>2026-04-20T09:02:57Z</time></trkpt><trkpt lat="44.058776474209004" lon="12.180656548271399"><ele>92.0</ele><time>2026-04-20T09:02:58Z</time></trkpt><trkpt lat="44.058615966819445" lon="12.180622768128234"><ele>93.0</ele><time>2026-04-20T09:02:59Z</time></trkpt><trkpt lat="44.058457532739716" lon="12.180593378615693"><ele>94.0</ele><time>2026-04-20T09:03:00Z</time></trkpt><trkpt lat="44.05830026334731" lon="12.180566257883479"><ele>95.0</ele><time>2026-04-20T09:03:01Z</time></trkpt><trkpt lat="44.05814545564442" lon="12.18054091256706"><ele>95.0</ele><time>2026-04-20T09:03:02Z</time></trkpt><trkpt lat="44.05798780414599" lon="12.180510330515606"><ele>95.0</ele><time>2026-04-20T09:03:03Z</time></trkpt><trkpt lat="44.05783107280852" lon="12.180481192439025"><ele>95.0</ele><time>2026-04-20T09:03:04Z</time></trkpt><trkpt lat="44.057672169112564" lon="12.180455423602162"><ele>95.0</ele><time>2026-04-20T09:03:05Z</time></trkpt><trkpt lat="44.057510631722366" lon="12.180431254849"><ele>95.0</ele><time>2026-04-20T09:03:06Z</time></trkpt><trkpt lat="44.05734847639498" lon="12.180404431585"><ele>95.0</ele><time>2026-04-20T09:03:07Z</time></trkpt><trkpt lat="44.05718702523938" lon="12.18037833562364"><ele>93.0</ele><time>2026-04-20T09:03:08Z</time></trkpt><trkpt lat="44.057028187871055" lon="12.180352909441485"><ele>91.0</ele><time>2026-04-20T09:03:09Z</time></trkpt><trkpt lat="44.05687475144505" lon="12.180326598705292"><ele>89.0</ele><time>2026-04-20T09:03:10Z</time></trkpt><trkpt lat="44.056741028413036" lon="12.180303590765826"><ele>87.0</ele><time>2026-04-20T09:03:11Z</time></trkpt><trkpt lat="44.05662440951674" lon="12.180282621491077"><ele>85.25</ele><time>2026-04-20T09:03:12Z</time></trkpt><trkpt lat="44.056512856303705" lon="12.180253311052136"><ele>83.5</ele><time>2026-04-20T09:03:13Z</time></trkpt><trkpt lat="44.05640776738962" lon="12.18021252519814"><ele>81.75</ele><time>2026-04-20T09:03:14Z</time></trkpt><trkpt lat="44.056301899998445" lon="12.180165429800658"><ele>80.0</ele><time>2026-04-20T09:03:15Z</time></trkpt><trkpt lat="44.056191551059854" lon="12.180113343066692"><ele>80.0</ele><time>2026-04-20T09:03:16Z</time></trkpt><trkpt lat="44.056079184294504" lon="12.180057060730844"><ele>80.0</ele><time>2026-04-20T09:03:17Z</time></trkpt><trkpt lat="44.05596703016325" lon="12.179998818186666"><ele>80.0</ele><time>2026-04-20T09:03:18Z</time></trkpt><trkpt lat="44.05585377354818" lon="12.179943990509742"><ele>80.0</ele><time>2026-04-20T09:03:19Z</time></trkpt><trkpt lat="44.0557388703236" lon="12.1798844390646"><ele>80.2</ele><time>2026-04-20T09:03:20Z</time></trkpt><trkpt lat="44.0556351953263" lon="12.17982886181312"><ele>80.4</ele><time>2026-04-20T09:03:21Z</time></trkpt><trkpt lat="44.05554621935003" lon="12.17978034174292"><ele>80.6</ele><time>2026-04-20T09:03:22Z</time></trkpt><trkpt lat="44.055467630257034" lon="12.179735256781804"><ele>80.8</ele><time>2026-04-20T09:03:23Z</time></trkpt><trkpt lat="44.05539156887256" lon="12.179685852673455"><ele>81.0</ele><time>2026-04-20T09:03:24Z</time></trkpt><trkpt lat="44.05530778424652" lon="12.179630934741173"><ele>81.0</ele><time>2026-04-20T09:03:25Z</time></trkpt><trkpt lat="44.05521291478401" lon="12.179561025948692"><ele>81.0</ele><time>2026-04-20T09:03:26Z</time></trkpt><trkpt lat="44.05511372848932" lon="12.179487440782031"><ele>81.0</ele><time>2026-04-20T09:03:27Z</time></trkpt><trkpt lat="44.05500865154526" lon="12.17940647981029"><ele>81.0</ele><time>2026-04-20T09:03:28Z</time></trkpt><trkpt lat="44.05489792329545" lon="12.179316146353115"><ele>80.25</ele><time>2026-04-20T09:03:29Z</time></trkpt><trkpt lat="44.054792482320636" lon="12.179226341164668"><ele>79.5</ele><time>2026-04-20T09:03:30Z</time></trkpt><trkpt lat="44.05468650449363" lon="12.179140195629554"><ele>78.75</ele><time>2026-04-20T09:03:31Z</time></trkpt><trkpt lat="44.05458754886084" lon="12.179055431174461"><ele>78.0</ele><time>2026-04-20T09:03:32Z</time></trkpt><trkpt lat="44.05448448737903" lon="12.17897157114933"><ele>78.0</ele><time>2026-04-20T09:03:33Z</time></trkpt><trkpt lat="44.05438344789922" lon="12.178883144860505"><ele>78.0</ele><time>2026-04-20T09:03:34Z</time></trkpt><trkpt lat="44.0542799509801" lon="12.178790234259493"><ele>78.0</ele><time>2026-04-20T09:03:35Z</time></trkpt><trkpt lat="44.054176833180634" lon="12.17869836412838"><ele>78.0</ele><time>2026-04-20T09:03:36Z</time></trkpt><trkpt lat="44.0540714235787" lon="12.178606124437401"><ele>77.2</ele><time>2026-04-20T09:03:37Z</time></trkpt><trkpt lat="44.05397010975675" lon="12.178522722464155"><ele>76.4</ele><time>2026-04-20T09:03:38Z</time></trkpt><trkpt lat="44.0538788976238" lon="12.178443045761862"><ele>75.60000000000001</ele><time>2026-04-20T09:03:39Z</time></trkpt><trkpt lat="44.05379265284044" lon="12.178369234608017"><ele>74.8</ele><time>2026-04-20T09:03:40Z</time></trkpt><trkpt lat="44.05371392308026" lon="12.178307660210848"><ele>74.0</ele><time>2026-04-20T09:03:41Z</time></trkpt><trkpt lat="44.053638942661934" lon="12.178245967158766"><ele>74.0</ele><time>2026-04-20T09:03:42Z</time></trkpt><trkpt lat="44.05357016556083" lon="12.178194146352729"><ele>74.0</ele><time>2026-04-20T09:03:43Z</time></trkpt><trkpt lat="44.05350542755868" lon="12.178143451262386"><ele>74.0</ele><time>2026-04-20T09:03:44Z</time></trkpt><trkpt lat="44.05343829036372" lon="12.178081175650108"><ele>74.0</ele><time>2026-04-20T09:03:45Z</time></trkpt><trkpt lat="44.05336373006086" lon="12.178015254068075"><ele>74.0</ele><time>2026-04-20T09:03:46Z</time></trkpt><trkpt lat="44.053280663194556" lon="12.177942855448425"><ele>74.0</ele><time>2026-04-20T09:03:47Z</time></trkpt><trkpt lat="44.053196413419464" lon="12.177875277901169"><ele>73.4</ele><time>2026-04-20T09:03:48Z</time></trkpt><trkpt lat="44.053111614542196" lon="12.177802372562706"><ele>72.80000000000001</ele><time>2026-04-20T09:03:49Z</time></trkpt><trkpt lat="44.05303109251216" lon="12.17773140564837"><ele>72.19999999999999</ele><time>2026-04-20T09:03:50Z</time></trkpt><trkpt lat="44.05294535505603" lon="12.177647603938539"><ele>71.6</ele><time>2026-04-20T09:03:51Z</time></trkpt><trkpt lat="44.05285784449764" lon="12.177560775779899"><ele>71.0</ele><time>2026-04-20T09:03:52Z</time></trkpt><trkpt lat="44.05277038375384" lon="12.177466167658908"><ele>71.0</ele><time>2026-04-20T09:03:53Z</time></trkpt><trkpt lat="44.05268718773461" lon="12.177362166059286"><ele>71.0</ele><time>2026-04-20T09:03:54Z</time></trkpt><trkpt lat="44.052613140108996" lon="12.177238886700545"><ele>71.0</ele><time>2026-04-20T09:03:55Z</time></trkpt><trkpt lat="44.05254840367055" lon="12.177102565981778"><ele>71.0</ele><time>2026-04-20T09:03:56Z</time></trkpt><trkpt lat="44.052489139590804" lon="12.176974819920535"><ele>71.0</ele><time>2026-04-20T09:03:57Z</time></trkpt><trkpt lat="44.05242690874461" lon="12.17686073703964"><ele>71.0</ele><time>2026-04-20T09:03:58Z</time></trkpt><trkpt lat="44.052361978149406" lon="12.176745535819444"><ele>71.0</ele><time>2026-04-20T09:03:59Z</time></trkpt><trkpt lat="44.05230231417244" lon="12.176638806344984"><ele>71.0</ele><time>2026-04-20T09:04:00Z</time></trkpt><trkpt lat="44.05223805749059" lon="12.176527268330702"><ele>71.0</ele><time>2026-04-20T09:04:01Z</time></trkpt><trkpt lat="44.05217590062078" lon="12.176421718124285"><ele>71.16666666666667</ele><time>2026-04-20T09:04:02Z</time></trkpt><trkpt lat="44.0521141579972" lon="12.176316764586202"><ele>71.33333333333334</ele><time>2026-04-20T09:04:03Z</time></trkpt><trkpt lat="44.052052426986336" lon="12.176220007461396"><ele>71.5</ele><time>2026-04-20T09:04:04Z</time></trkpt><trkpt lat="44.05199843563217" lon="12.176138324839643"><ele>71.66666666666667</ele><time>2026-04-20T09:04:05Z</time></trkpt><trkpt lat="44.051948236744444" lon="12.176073390535159"><ele>71.83333333333333</ele><time>2026-04-20T09:04:06Z</time></trkpt><trkpt lat="44.051901245645354" lon="12.17600042948393"><ele>72.0</ele><time>2026-04-20T09:04:07Z</time></trkpt><trkpt lat="44.05185301921589" lon="12.175918901241914"><ele>72.0</ele><time>2026-04-20T09:04:08Z</time></trkpt><trkpt lat="44.05177941149159" lon="12.175765255104332"><ele>72.0</ele><time>2026-04-20T09:04:10Z</time></trkpt><trkpt lat="44.051656253695725" lon="12.175796041524476"><ele>72.0</ele><time>2026-04-20T09:04:12Z</time></trkpt><trkpt lat="44.051582610504354" lon="12.175857261422163"><ele>72.0</ele><time>2026-04-20T09:04:13Z</time></trkpt><trkpt lat="44.051484290796985" lon="12.17590640411232"><ele>72.0</ele><time>2026-04-20T09:04:14Z</time></trkpt><trkpt lat="44.05137221080797" lon="12.175964901875439"><ele>71.75</ele><time>2026-04-20T09:04:15Z</time></trkpt><trkpt lat="44.051268134875976" lon="12.176055991362702"><ele>71.5</ele><time>2026-04-20T09:04:16Z</time></trkpt><trkpt lat="44.05117175691289" lon="12.176181647549605"><ele>71.25</ele><time>2026-04-20T09:04:17Z</time></trkpt><trkpt lat="44.05108015806567" lon="12.176331471354102"><ele>71.0</ele><time>2026-04-20T09:04:18Z</time></trkpt><trkpt lat="44.0509959991628" lon="12.176500963334387"><ele>70.75</ele><time>2026-04-20T09:04:19Z</time></trkpt><trkpt lat="44.05093006862323" lon="12.176688542011455"><ele>70.5</ele><time>2026-04-20T09:04:20Z</time></trkpt><trkpt lat="44.05087344069274" lon="12.17688448959171"><ele>70.25</ele><time>2026-04-20T09:04:21Z</time></trkpt><trkpt lat="44.050819270227514" lon="12.177060955784752"><ele>70.0</ele><time>2026-04-20T09:04:22Z</time></trkpt><trkpt lat="44.050763305683084" lon="12.177213102974507"><ele>70.0</ele><time>2026-04-20T09:04:23Z</time></trkpt><trkpt lat="44.05068826482358" lon="12.17732456918832"><ele>70.0</ele><time>2026-04-20T09:04:24Z</time></trkpt><trkpt lat="44.050588857074786" lon="12.177416801943092"><ele>70.0</ele><time>2026-04-20T09:04:25Z</time></trkpt><trkpt lat="44.05047473748026" lon="12.177493291534871"><ele>70.0</ele><time>2026-04-20T09:04:26Z</time></trkpt><trkpt lat="44.05035693701361" lon="12.177561000120978"><ele>71.33333333333333</ele><time>2026-04-20T09:04:27Z</time></trkpt><trkpt lat="44.05023894610688" lon="12.177632227460737"><ele>72.66666666666667</ele><time>2026-04-20T09:04:28Z</time></trkpt><trkpt lat="44.04997776033863" lon="12.177768649713737"><ele>74.0</ele><time>2026-04-20T09:04:30Z</time></trkpt><trkpt lat="44.04983845028268" lon="12.177834209907795"><ele>74.25</ele><time>2026-04-20T09:04:31Z</time></trkpt><trkpt lat="44.049698967925565" lon="12.177901685324843"><ele>74.5</ele><time>2026-04-20T09:04:32Z</time></trkpt><trkpt lat="44.0495643570343" lon="12.177968986747567"><ele>74.75</ele><time>2026-04-20T09:04:33Z</time></trkpt><trkpt lat="44.04944096363788" lon="12.178017960054884"><ele>75.0</ele><time>2026-04-20T09:04:34Z</time></trkpt><trkpt lat="44.049329104451765" lon="12.178070918800918"><ele>75.0</ele><time>2026-04-20T09:04:35Z</time></trkpt><trkpt lat="44.04922742991069" lon="12.178121904487996"><ele>75.0</ele><time>2026-04-20T09:04:36Z</time></trkpt><trkpt lat="44.04913250754987" lon="12.178148798043555"><ele>75.0</ele><time>2026-04-20T09:04:37Z</time></trkpt><trkpt lat="44.04904984777024" lon="12.178188832074696"><ele>75.0</ele><time>2026-04-20T09:04:38Z</time></trkpt><trkpt lat="44.04896069276802" lon="12.17824982207421"><ele>75.0</ele><time>2026-04-20T09:04:39Z</time></trkpt><trkpt lat="44.04885466200913" lon="12.178286210060797"><ele>76.25</ele><time>2026-04-20T09:04:40Z</time></trkpt><trkpt lat="44.04874462613959" lon="12.178335998056502"><ele>77.5</ele><time>2026-04-20T09:04:41Z</time></trkpt><trkpt lat="44.04861656975482" lon="12.178402721850652"><ele>78.75</ele><time>2026-04-20T09:04:42Z</time></trkpt><trkpt lat="44.04847475636074" lon="12.178480554720355"><ele>80.0</ele><time>2026-04-20T09:04:43Z</time></trkpt><trkpt lat="44.048344535616415" lon="12.178556309670702"><ele>80.8</ele><time>2026-04-20T09:04:44Z</time></trkpt><trkpt lat="44.04823176275256" lon="12.178618730674232"><ele>81.6</ele><time>2026-04-20T09:04:45Z</time></trkpt><trkpt lat="44.0481356933392" lon="12.178671257391525"><ele>82.4</ele><time>2026-04-20T09:04:46Z</time></trkpt><trkpt lat="44.04804131427324" lon="12.178730729752468"><ele>83.2</ele><time>2026-04-20T09:04:47Z</time></trkpt><trkpt lat="44.04794492858167" lon="12.178795237456832"><ele>84.0</ele><time>2026-04-20T09:04:48Z</time></trkpt><trkpt lat="44.04783604534475" lon="12.178855873767786"><ele>84.0</ele><time>2026-04-20T09:04:49Z</time></trkpt><trkpt lat="44.04771812435777" lon="12.178909137709315"><ele>84.0</ele><time>2026-04-20T09:04:50Z</time></trkpt><trkpt lat="44.047597773021295" lon="12.178949403374066"><ele>84.0</ele><time>2026-04-20T09:04:51Z</time></trkpt><trkpt lat="44.04748136680177" lon="12.178963610266692"><ele>84.0</ele><time>2026-04-20T09:04:52Z</time></trkpt><trkpt lat="44.04737422215137" lon="12.178906463687976"><ele>88.25</ele><time>2026-04-20T09:04:53Z</time></trkpt><trkpt lat="44.047276090700905" lon="12.17884653166283"><ele>92.5</ele><time>2026-04-20T09:04:54Z</time></trkpt><trkpt lat="44.047197934457074" lon="12.178732011914716"><ele>96.75</ele><time>2026-04-20T09:04:55Z</time></trkpt><trkpt lat="44.047123667851245" lon="12.17858825229184"><ele>101.0</ele><time>2026-04-20T09:04:56Z</time></trkpt><trkpt lat="44.0470654830158" lon="12.178450787574098"><ele>101.0</ele><time>2026-04-20T09:04:57Z</time></trkpt><trkpt lat="44.047004849021704" lon="12.17837256972917"><ele>101.0</ele><time>2026-04-20T09:04:58Z</time></trkpt><trkpt lat="44.046961902591434" lon="12.178306431030057"><ele>101.0</ele><time>2026-04-20T09:04:59Z</time></trkpt><trkpt lat="44.046862923193615" lon="12.178351615714197"><ele>101.0</ele><time>2026-04-20T09:05:00Z</time></trkpt><trkpt lat="44.04682709366643" lon="12.17849760128146"><ele>101.0</ele><time>2026-04-20T09:05:01Z</time></trkpt><trkpt lat="44.04682318107494" lon="12.178653420517591"><ele>101.0</ele><time>2026-04-20T09:05:02Z</time></trkpt><trkpt lat="44.046834281294586" lon="12.178836344170914"><ele>101.0</ele><time>2026-04-20T09:05:03Z</time></trkpt><trkpt lat="44.046837298898616" lon="12.179015225349042"><ele>101.0</ele><time>2026-04-20T09:05:04Z</time></trkpt><trkpt lat="44.04684674876674" lon="12.17917733648633"><ele>101.0</ele><time>2026-04-20T09:05:05Z</time></trkpt><trkpt lat="44.046835375893544" lon="12.179330113462237"><ele>100.6</ele><time>2026-04-20T09:05:06Z</time></trkpt><trkpt lat="44.04677004334554" lon="12.179462566285853"><ele>100.19999999999999</ele><time>2026-04-20T09:05:07Z</time></trkpt><trkpt lat="44.04669203429696" lon="12.179580479450069"><ele>99.80000000000001</ele><time>2026-04-20T09:05:08Z</time></trkpt><trkpt lat="44.04662147588845" lon="12.179693034483076"><ele>99.4</ele><time>2026-04-20T09:05:09Z</time></trkpt><trkpt lat="44.04654376172572" lon="12.17970946789107"><ele>99.0</ele><time>2026-04-20T09:05:10Z</time></trkpt><trkpt lat="44.04650817605294" lon="12.179626480538634"><ele>100.75</ele><time>2026-04-20T09:05:13Z</time></trkpt><trkpt lat="44.04653524580249" lon="12.179424987179075"><ele>102.5</ele><time>2026-04-20T09:05:15Z</time></trkpt><trkpt lat="44.04655334645878" lon="12.179291489246193"><ele>104.25</ele><time>2026-04-20T09:05:16Z</time></trkpt><trkpt lat="44.04655241725955" lon="12.17913149338124"><ele>106.0</ele><time>2026-04-20T09:05:17Z</time></trkpt><trkpt lat="44.046570880633276" lon="12.178973315350452"><ele>108.4</ele><time>2026-04-20T09:05:18Z</time></trkpt><trkpt lat="44.046534210553375" lon="12.178825568195215"><ele>110.8</ele><time>2026-04-20T09:05:19Z</time></trkpt><trkpt lat="44.04649915475009" lon="12.178671737215996"><ele>113.20000000000002</ele><time>2026-04-20T09:05:20Z</time></trkpt><trkpt lat="44.046458226959544" lon="12.178528073643824"><ele>115.60000000000001</ele><time>2026-04-20T09:05:21Z</time></trkpt><trkpt lat="44.046434690508285" lon="12.178394986616787"><ele>118.0</ele><time>2026-04-20T09:05:22Z</time></trkpt><trkpt lat="44.046419135410325" lon="12.178275714420845"><ele>118.00000000000001</ele><time>2026-04-20T09:05:23Z</time></trkpt><trkpt lat="44.0463963546137" lon="12.178188515846156"><ele>118.0</ele><time>2026-04-20T09:05:24Z</time></trkpt><trkpt lat="44.046369217356514" lon="12.178099532267046"><ele>118.0</ele><time>2026-04-20T09:05:25Z</time></trkpt><trkpt lat="44.04630663455718" lon="12.178048955894784"><ele>118.0</ele><time>2026-04-20T09:05:26Z</time></trkpt><trkpt lat="44.04622709576087" lon="12.17809423570289"><ele>118.00000000000001</ele><time>2026-04-20T09:05:27Z</time></trkpt><trkpt lat="44.04618514537806" lon="12.17820262308245"><ele>118.0</ele><time>2026-04-20T09:05:28Z</time></trkpt><trkpt lat="44.04612692147802" lon="12.178283267032292"><ele>118.0</ele><time>2026-04-20T09:05:29Z</time></trkpt><trkpt lat="44.04602737869359" lon="12.178340337466585"><ele>118.00000000000001</ele><time>2026-04-20T09:05:31Z</time></trkpt><trkpt lat="44.045996735293485" lon="12.178164522709654"><ele>118.00000000000001</ele><time>2026-04-20T09:05:33Z</time></trkpt><trkpt lat="44.04598114563978" lon="12.178036301573105"><ele>118.0</ele><time>2026-04-20T09:05:34Z</time></trkpt><trkpt lat="44.045976022877674" lon="12.17787669071653"><ele>118.0</ele><time>2026-04-20T09:05:35Z</time></trkpt><trkpt lat="44.04597263708882" lon="12.177701865949569"><ele>120.0</ele><time>2026-04-20T09:05:36Z</time></trkpt><trkpt lat="44.045981459321524" lon="12.177529753629347"><ele>122.0</ele><time>2026-04-20T09:05:37Z</time></trkpt><trkpt lat="44.04598818486771" lon="12.177349139066521"><ele>124.0</ele><time>2026-04-20T09:05:38Z</time></trkpt><trkpt lat="44.045976114117856" lon="12.177166014163532"><ele>126.0</ele><time>2026-04-20T09:05:39Z</time></trkpt><trkpt lat="44.045938090327496" lon="12.176995433906113"><ele>126.4</ele><time>2026-04-20T09:05:40Z</time></trkpt><trkpt lat="44.045897164623995" lon="12.176853898462625"><ele>126.8</ele><time>2026-04-20T09:05:41Z</time></trkpt><trkpt lat="44.045863785108715" lon="12.176759145789621"><ele>127.20000000000002</ele><time>2026-04-20T09:05:42Z</time></trkpt><trkpt lat="44.04579226214087" lon="12.17668105798375"><ele>127.60000000000001</ele><time>2026-04-20T09:05:44Z</time></trkpt><trkpt lat="44.04570922171327" lon="12.17678640620465"><ele>128.0</ele><time>2026-04-20T09:05:46Z</time></trkpt><trkpt lat="44.04573533025568" lon="12.176901837069536"><ele>128.0</ele><time>2026-04-20T09:05:47Z</time></trkpt><trkpt lat="44.04578402110441" lon="12.177037132942445"><ele>128.0</ele><time>2026-04-20T09:05:48Z</time></trkpt><trkpt lat="44.04579707987925" lon="12.177185433322093"><ele>128.0</ele><time>2026-04-20T09:05:49Z</time></trkpt><trkpt lat="44.045739660122635" lon="12.177304784596076"><ele>128.0</ele><time>2026-04-20T09:05:50Z</time></trkpt><trkpt lat="44.04569215393874" lon="12.177423108747998"><ele>128.0</ele><time>2026-04-20T09:05:51Z</time></trkpt><trkpt lat="44.045596150618564" lon="12.177491651972291"><ele>132.0</ele><time>2026-04-20T09:05:52Z</time></trkpt><trkpt lat="44.04549114298911" lon="12.177512881944367"><ele>136.0</ele><time>2026-04-20T09:05:53Z</time></trkpt><trkpt lat="44.045382377140136" lon="12.177530493745346"><ele>140.0</ele><time>2026-04-20T09:05:54Z</time></trkpt><trkpt lat="44.04526684942804" lon="12.177536097470218"><ele>144.0</ele><time>2026-04-20T09:05:55Z</time></trkpt><trkpt lat="44.04514551335096" lon="12.177532855279816"><ele>144.0</ele><time>2026-04-20T09:05:56Z</time></trkpt><trkpt lat="44.04502395697161" lon="12.177521187786816"><ele>144.0</ele><time>2026-04-20T09:05:57Z</time></trkpt><trkpt lat="44.04490305504255" lon="12.177514190006999"><ele>144.0</ele><time>2026-04-20T09:05:58Z</time></trkpt><trkpt lat="44.04480069897841" lon="12.17750762092247"><ele>144.0</ele><time>2026-04-20T09:05:59Z</time></trkpt><trkpt lat="44.04472504859482" lon="12.177475955269788"><ele>144.0</ele><time>2026-04-20T09:06:00Z</time></trkpt><trkpt lat="44.04462711820699" lon="12.177431023224493"><ele>147.4</ele><time>2026-04-20T09:06:02Z</time></trkpt><trkpt lat="44.04465199008072" lon="12.177286159911116"><ele>150.8</ele><time>2026-04-20T09:06:04Z</time></trkpt><trkpt lat="44.044727243922026" lon="12.177246890437072"><ele>154.20000000000002</ele><time>2026-04-20T09:06:05Z</time></trkpt><trkpt lat="44.044820456104404" lon="12.177288215517176"><ele>157.60000000000002</ele><time>2026-04-20T09:06:06Z</time></trkpt><trkpt lat="44.04490856150035" lon="12.177305111523019"><ele>161.0</ele><time>2026-04-20T09:06:07Z</time></trkpt><trkpt lat="44.04500933948605" lon="12.17731912045906"><ele>161.0</ele><time>2026-04-20T09:06:08Z</time></trkpt><trkpt lat="44.04511875949906" lon="12.177297369073772"><ele>161.0</ele><time>2026-04-20T09:06:09Z</time></trkpt><trkpt lat="44.04521555033135" lon="12.1772411724164"><ele>161.0</ele><time>2026-04-20T09:06:10Z</time></trkpt><trkpt lat="44.04529920530557" lon="12.177136707130972"><ele>161.0</ele><time>2026-04-20T09:06:11Z</time></trkpt><trkpt lat="44.045330717151565" lon="12.177000155225814"><ele>161.0</ele><time>2026-04-20T09:06:12Z</time></trkpt><trkpt lat="44.04535665658348" lon="12.176881835104126"><ele>161.0</ele><time>2026-04-20T09:06:13Z</time></trkpt><trkpt lat="44.04535387141729" lon="12.176752016503015"><ele>161.0</ele><time>2026-04-20T09:06:14Z</time></trkpt><trkpt lat="44.0453199821486" lon="12.176630152936555"><ele>161.0</ele><time>2026-04-20T09:06:15Z</time></trkpt><trkpt lat="44.04526870505296" lon="12.176513917324723"><ele>161.0</ele><time>2026-04-20T09:06:16Z</time></trkpt><trkpt lat="44.045212497344686" lon="12.176408288570405"><ele>161.0</ele><time>2026-04-20T09:06:17Z</time></trkpt><trkpt lat="44.045149663052776" lon="12.17630008021264"><ele>162.25</ele><time>2026-04-20T09:06:18Z</time></trkpt><trkpt lat="44.04506875366922" lon="12.176198689364957"><ele>163.5</ele><time>2026-04-20T09:06:19Z</time></trkpt><trkpt lat="44.04497316063368" lon="12.176113343388964"><ele>164.75</ele><time>2026-04-20T09:06:20Z</time></trkpt><trkpt lat="44.044863931099876" lon="12.176050794991191"><ele>166.0</ele><time>2026-04-20T09:06:21Z</time></trkpt><trkpt lat="44.044746122083495" lon="12.176007614483925"><ele>166.0</ele><time>2026-04-20T09:06:22Z</time></trkpt><trkpt lat="44.04462165815641" lon="12.175977421670517"><ele>166.0</ele><time>2026-04-20T09:06:23Z</time></trkpt><trkpt lat="44.04449657095029" lon="12.175947580008785"><ele>166.0</ele><time>2026-04-20T09:06:24Z</time></trkpt><trkpt lat="44.044371873691745" lon="12.175896532764048"><ele>166.0</ele><time>2026-04-20T09:06:25Z</time></trkpt><trkpt lat="44.044255757749916" lon="12.175827315832233"><ele>166.0</ele><time>2026-04-20T09:06:26Z</time></trkpt><trkpt lat="44.044147034309844" lon="12.1757393527878"><ele>166.0</ele><time>2026-04-20T09:06:27Z</time></trkpt><trkpt lat="44.04391020517879" lon="12.175574441279371"><ele>166.0</ele><time>2026-04-20T09:06:29Z</time></trkpt><trkpt lat="44.04379871458952" lon="12.175452069476279"><ele>166.75</ele><time>2026-04-20T09:06:30Z</time></trkpt><trkpt lat="44.04369992455296" lon="12.17528977742889"><ele>167.5</ele><time>2026-04-20T09:06:31Z</time></trkpt><trkpt lat="44.043604677055235" lon="12.175133261902698"><ele>168.25</ele><time>2026-04-20T09:06:32Z</time></trkpt><trkpt lat="44.04350630243957" lon="12.17498096677317"><ele>169.0</ele><time>2026-04-20T09:06:33Z</time></trkpt><trkpt lat="44.043429943919456" lon="12.174831827730085"><ele>169.0</ele><time>2026-04-20T09:06:34Z</time></trkpt><trkpt lat="44.04337573287453" lon="12.174712304715987"><ele>169.0</ele><time>2026-04-20T09:06:35Z</time></trkpt><trkpt lat="44.043317781667746" lon="12.17461145996609"><ele>169.0</ele><time>2026-04-20T09:06:36Z</time></trkpt><trkpt lat="44.04324154360669" lon="12.174561925799317"><ele>169.0</ele><time>2026-04-20T09:06:37Z</time></trkpt><trkpt lat="44.04313788374155" lon="12.174529267643036"><ele>169.0</ele><time>2026-04-20T09:06:38Z</time></trkpt><trkpt lat="44.043009796591356" lon="12.174524391032406"><ele>172.75</ele><time>2026-04-20T09:06:39Z</time></trkpt><trkpt lat="44.04287532886882" lon="12.174487774919681"><ele>176.5</ele><time>2026-04-20T09:06:40Z</time></trkpt><trkpt lat="44.04273490867227" lon="12.174475865521295"><ele>180.25</ele><time>2026-04-20T09:06:41Z</time></trkpt><trkpt lat="44.04260430507075" lon="12.174464788581377"><ele>184.0</ele><time>2026-04-20T09:06:42Z</time></trkpt><trkpt lat="44.042474225015454" lon="12.174457240558267"><ele>188.25</ele><time>2026-04-20T09:06:43Z</time></trkpt><trkpt lat="44.04235420039955" lon="12.174473832419544"><ele>192.5</ele><time>2026-04-20T09:06:44Z</time></trkpt><trkpt lat="44.042231687291455" lon="12.17448005345717"><ele>196.75</ele><time>2026-04-20T09:06:45Z</time></trkpt><trkpt lat="44.042099437739225" lon="12.174491958475368"><ele>201.0</ele><time>2026-04-20T09:06:46Z</time></trkpt><trkpt lat="44.04197356514881" lon="12.174558914280652"><ele>201.0</ele><time>2026-04-20T09:06:47Z</time></trkpt><trkpt lat="44.04185075697082" lon="12.174648568315265"><ele>201.0</ele><time>2026-04-20T09:06:48Z</time></trkpt><trkpt lat="44.04173857240004" lon="12.174766191425721"><ele>201.0</ele><time>2026-04-20T09:06:49Z</time></trkpt><trkpt lat="44.041615781156025" lon="12.174845718750612"><ele>201.0</ele><time>2026-04-20T09:06:50Z</time></trkpt><trkpt lat="44.0414990458717" lon="12.174924711055002"><ele>200.8</ele><time>2026-04-20T09:06:51Z</time></trkpt><trkpt lat="44.04138894767748" lon="12.174987132047939"><ele>200.60000000000002</ele><time>2026-04-20T09:06:52Z</time></trkpt><trkpt lat="44.04129190434008" lon="12.175018971491504"><ele>200.4</ele><time>2026-04-20T09:06:53Z</time></trkpt><trkpt lat="44.04120091265365" lon="12.175014666658981"><ele>200.2</ele><time>2026-04-20T09:06:54Z</time></trkpt><trkpt lat="44.04109567291138" lon="12.175000335120924"><ele>200.0</ele><time>2026-04-20T09:06:55Z</time></trkpt><trkpt lat="44.04097620291982" lon="12.17497830845137"><ele>200.0</ele><time>2026-04-20T09:06:56Z</time></trkpt><trkpt lat="44.040841133580436" lon="12.174951174946232"><ele>200.0</ele><time>2026-04-20T09:06:57Z</time></trkpt><trkpt lat="44.0406972539161" lon="12.174922142294934"><ele>200.0</ele><time>2026-04-20T09:06:58Z</time></trkpt><trkpt lat="44.04055448027807" lon="12.174898025051087"><ele>200.0</ele><time>2026-04-20T09:06:59Z</time></trkpt><trkpt lat="44.040409400350946" lon="12.174879953843387"><ele>202.0</ele><time>2026-04-20T09:07:00Z</time></trkpt><trkpt lat="44.04027414535696" lon="12.174857443348706"><ele>204.0</ele><time>2026-04-20T09:07:01Z</time></trkpt><trkpt lat="44.040159986709924" lon="12.174821041865624"><ele>206.0</ele><time>2026-04-20T09:07:02Z</time></trkpt><trkpt lat="44.0400604289849" lon="12.174731214835699"><ele>208.0</ele><time>2026-04-20T09:07:03Z</time></trkpt><trkpt lat="44.03993887707965" lon="12.174618993372084"><ele>209.75</ele><time>2026-04-20T09:07:04Z</time></trkpt><trkpt lat="44.03980954944243" lon="12.174513318253888"><ele>211.5</ele><time>2026-04-20T09:07:05Z</time></trkpt><trkpt lat="44.03969446053133" lon="12.174396582832056"><ele>213.25</ele><time>2026-04-20T09:07:06Z</time></trkpt><trkpt lat="44.03958143538169" lon="12.174286697871077"><ele>215.0</ele><time>2026-04-20T09:07:07Z</time></trkpt><trkpt lat="44.03947419395688" lon="12.174174211887195"><ele>215.0</ele><time>2026-04-20T09:07:08Z</time></trkpt><trkpt lat="44.03939973313456" lon="12.174039323075888"><ele>215.0</ele><time>2026-04-20T09:07:09Z</time></trkpt><trkpt lat="44.03932784382494" lon="12.173938259035067"><ele>215.0</ele><time>2026-04-20T09:07:10Z</time></trkpt><trkpt lat="44.03925177880755" lon="12.173846191756757"><ele>215.0</ele><time>2026-04-20T09:07:11Z</time></trkpt><trkpt lat="44.03916916528017" lon="12.173735164000613"><ele>215.0</ele><time>2026-04-20T09:07:12Z</time></trkpt><trkpt lat="44.03908017289452" lon="12.17362330989762"><ele>214.5</ele><time>2026-04-20T09:07:13Z</time></trkpt><trkpt lat="44.03898910178298" lon="12.173502789287307"><ele>214.0</ele><time>2026-04-20T09:07:14Z</time></trkpt><trkpt lat="44.03888440924126" lon="12.173411990838723"><ele>213.5</ele><time>2026-04-20T09:07:15Z</time></trkpt><trkpt lat="44.03876335958539" lon="12.173343753786769"><ele>213.0</ele><time>2026-04-20T09:07:16Z</time></trkpt><trkpt lat="44.038635268203485" lon="12.173299946633852"><ele>213.0</ele><time>2026-04-20T09:07:17Z</time></trkpt><trkpt lat="44.03849033085433" lon="12.173318097634395"><ele>213.0</ele><time>2026-04-20T09:07:18Z</time></trkpt><trkpt lat="44.03835038842779" lon="12.173336293812826"><ele>213.0</ele><time>2026-04-20T09:07:19Z</time></trkpt><trkpt lat="44.03821020587304" lon="12.173335262002679"><ele>213.0</ele><time>2026-04-20T09:07:20Z</time></trkpt><trkpt lat="44.03806862397206" lon="12.173336959518645"><ele>215.0</ele><time>2026-04-20T09:07:21Z</time></trkpt><trkpt lat="44.037921884998035" lon="12.173329715556825"><ele>217.0</ele><time>2026-04-20T09:07:22Z</time></trkpt><trkpt lat="44.03778921189355" lon="12.173319013983887"><ele>219.0</ele><time>2026-04-20T09:07:23Z</time></trkpt><trkpt lat="44.037664825613504" lon="12.173316020611853"><ele>221.0</ele><time>2026-04-20T09:07:24Z</time></trkpt><trkpt lat="44.03755604961428" lon="12.17325002163941"><ele>224.0</ele><time>2026-04-20T09:07:25Z</time></trkpt><trkpt lat="44.037447637779934" lon="12.173163531245223"><ele>227.0</ele><time>2026-04-20T09:07:26Z</time></trkpt><trkpt lat="44.03732623207314" lon="12.173075864859566"><ele>230.0</ele><time>2026-04-20T09:07:27Z</time></trkpt><trkpt lat="44.0372188282187" lon="12.172963496497085"><ele>233.0</ele><time>2026-04-20T09:07:28Z</time></trkpt><trkpt lat="44.03711003679977" lon="12.172885254111577"><ele>233.0</ele><time>2026-04-20T09:07:29Z</time></trkpt><trkpt lat="44.03698826901669" lon="12.17286499091712"><ele>233.0</ele><time>2026-04-20T09:07:30Z</time></trkpt><trkpt lat="44.036872592774" lon="12.172856709210484"><ele>233.0</ele><time>2026-04-20T09:07:31Z</time></trkpt><trkpt lat="44.03676395056392" lon="12.172813760057995"><ele>233.0</ele><time>2026-04-20T09:07:32Z</time></trkpt><trkpt lat="44.03670862361657" lon="12.172696669462795"><ele>233.00000000000003</ele><time>2026-04-20T09:07:33Z</time></trkpt><trkpt lat="44.036656958872314" lon="12.172583535696656"><ele>233.0</ele><time>2026-04-20T09:07:34Z</time></trkpt><trkpt lat="44.03659608992287" lon="12.172449212850923"><ele>233.0</ele><time>2026-04-20T09:07:35Z</time></trkpt><trkpt lat="44.03655010543148" lon="12.17234767045153"><ele>233.0</ele><time>2026-04-20T09:07:36Z</time></trkpt><trkpt lat="44.03651329480432" lon="12.172274275214887"><ele>233.00000000000003</ele><time>2026-04-20T09:07:37Z</time></trkpt><trkpt lat="44.03645692804438" lon="12.172209627209787"><ele>233.0</ele><time>2026-04-20T09:07:38Z</time></trkpt><trkpt lat="44.03638639439599" lon="12.172192896041821"><ele>233.2</ele><time>2026-04-20T09:07:39Z</time></trkpt><trkpt lat="44.036300271923" lon="12.172239018845593"><ele>233.4</ele><time>2026-04-20T09:07:40Z</time></trkpt><trkpt lat="44.03624823756941" lon="12.172393449697243"><ele>233.59999999999997</ele><time>2026-04-20T09:07:41Z</time></trkpt><trkpt lat="44.03620625889015" lon="12.172503285410967"><ele>233.79999999999998</ele><time>2026-04-20T09:07:42Z</time></trkpt><trkpt lat="44.03610046762426" lon="12.172582375150837"><ele>234.0</ele><time>2026-04-20T09:07:44Z</time></trkpt><trkpt lat="44.03604453831653" lon="12.172538471411627"><ele>234.0</ele><time>2026-04-20T09:07:45Z</time></trkpt><trkpt lat="44.03600472978812" lon="12.172435230376136"><ele>233.99999999999997</ele><time>2026-04-20T09:07:46Z</time></trkpt><trkpt lat="44.03595484513276" lon="12.17232359816644"><ele>233.99999999999997</ele><time>2026-04-20T09:07:47Z</time></trkpt><trkpt lat="44.03589148053074" lon="12.172216909976113"><ele>234.0</ele><time>2026-04-20T09:07:48Z</time></trkpt><trkpt lat="44.03582698868511" lon="12.172085609693571"><ele>234.0</ele><time>2026-04-20T09:07:49Z</time></trkpt><trkpt lat="44.03575212009245" lon="12.171973223765672"><ele>235.25</ele><time>2026-04-20T09:07:50Z</time></trkpt><trkpt lat="44.03565640142531" lon="12.171876777363531"><ele>236.5</ele><time>2026-04-20T09:07:51Z</time></trkpt><trkpt lat="44.0355582012207" lon="12.171798179169672"><ele>237.75</ele><time>2026-04-20T09:07:52Z</time></trkpt><trkpt lat="44.03544896152727" lon="12.171708974044932"><ele>239.0</ele><time>2026-04-20T09:07:53Z</time></trkpt><trkpt lat="44.035331795927284" lon="12.17161466881801"><ele>239.0</ele><time>2026-04-20T09:07:54Z</time></trkpt><trkpt lat="44.035216174041786" lon="12.171538912424905"><ele>239.0</ele><time>2026-04-20T09:07:55Z</time></trkpt><trkpt lat="44.03510531275347" lon="12.171469333742"><ele>239.0</ele><time>2026-04-20T09:07:56Z</time></trkpt><trkpt lat="44.03498694824238" lon="12.171407613582296"><ele>239.0</ele><time>2026-04-20T09:07:57Z</time></trkpt><trkpt lat="44.03486735621063" lon="12.171345417831963"><ele>242.0</ele><time>2026-04-20T09:07:58Z</time></trkpt><trkpt lat="44.034743882751364" lon="12.171304422898992"><ele>245.0</ele><time>2026-04-20T09:07:59Z</time></trkpt><trkpt lat="44.034626025956484" lon="12.171247459404901"><ele>248.0</ele><time>2026-04-20T09:08:00Z</time></trkpt><trkpt lat="44.03451371940819" lon="12.17117751418741"><ele>251.0</ele><time>2026-04-20T09:08:01Z</time></trkpt><trkpt lat="44.034412289278364" lon="12.171089080058504"><ele>251.0</ele><time>2026-04-20T09:08:02Z</time></trkpt><trkpt lat="44.03432375551396" lon="12.170962646375258"><ele>251.0</ele><time>2026-04-20T09:08:03Z</time></trkpt><trkpt lat="44.03423372646417" lon="12.170843561209324"><ele>251.0</ele><time>2026-04-20T09:08:04Z</time></trkpt><trkpt lat="44.0341465532401" lon="12.17074099891711"><ele>251.0</ele><time>2026-04-20T09:08:05Z</time></trkpt><trkpt lat="44.0340499987879" lon="12.170637463208676"><ele>246.8</ele><time>2026-04-20T09:08:06Z</time></trkpt><trkpt lat="44.03395594461478" lon="12.170576361187452"><ele>242.60000000000002</ele><time>2026-04-20T09:08:07Z</time></trkpt><trkpt lat="44.03386250578509" lon="12.170539922891496"><ele>238.4</ele><time>2026-04-20T09:08:08Z</time></trkpt><trkpt lat="44.03374944812716" lon="12.170561918157954"><ele>234.2</ele><time>2026-04-20T09:08:09Z</time></trkpt><trkpt lat="44.03364862301591" lon="12.170608151712194"><ele>230.0</ele><time>2026-04-20T09:08:10Z</time></trkpt><trkpt lat="44.033546853655096" lon="12.170678118559525"><ele>232.0</ele><time>2026-04-20T09:08:11Z</time></trkpt><trkpt lat="44.03344564389096" lon="12.170747264837962"><ele>234.0</ele><time>2026-04-20T09:08:12Z</time></trkpt><trkpt lat="44.033346959919285" lon="12.17082870959768"><ele>236.0</ele><time>2026-04-20T09:08:13Z</time></trkpt><trkpt lat="44.03326341813401" lon="12.170928809884197"><ele>238.0</ele><time>2026-04-20T09:08:14Z</time></trkpt><trkpt lat="44.03316039459175" lon="12.17101637832641"><ele>238.0</ele><time>2026-04-20T09:08:15Z</time></trkpt><trkpt lat="44.03310256855791" lon="12.171130939045923"><ele>238.0</ele><time>2026-04-20T09:08:16Z</time></trkpt><trkpt lat="44.03301520038815" lon="12.171243116608682"><ele>238.0</ele><time>2026-04-20T09:08:17Z</time></trkpt><trkpt lat="44.03293509718195" lon="12.171353497502968"><ele>238.0</ele><time>2026-04-20T09:08:18Z</time></trkpt><trkpt lat="44.03286013053592" lon="12.171436760508639"><ele>238.0</ele><time>2026-04-20T09:08:19Z</time></trkpt><trkpt lat="44.03276764023094" lon="12.171537352456689"><ele>243.5</ele><time>2026-04-20T09:08:20Z</time></trkpt><trkpt lat="44.03265810887194" lon="12.171643318064387"><ele>249.0</ele><time>2026-04-20T09:08:21Z</time></trkpt><trkpt lat="44.032560408119046" lon="12.171739979673834"><ele>254.5</ele><time>2026-04-20T09:08:22Z</time></trkpt><trkpt lat="44.03245908631292" lon="12.17182664127089"><ele>260.0</ele><time>2026-04-20T09:08:23Z</time></trkpt><trkpt lat="44.03234792832488" lon="12.171892548077373"><ele>260.5</ele><time>2026-04-20T09:08:24Z</time></trkpt><trkpt lat="44.03223333200636" lon="12.171914748129545"><ele>261.0</ele><time>2026-04-20T09:08:25Z</time></trkpt><trkpt lat="44.0321293799483" lon="12.171956955092753"><ele>261.5</ele><time>2026-04-20T09:08:26Z</time></trkpt><trkpt lat="44.03200303721632" lon="12.171966815813311"><ele>262.0</ele><time>2026-04-20T09:08:27Z</time></trkpt><trkpt lat="44.031879725290736" lon="12.171964519432946"><ele>262.0</ele><time>2026-04-20T09:08:28Z</time></trkpt><trkpt lat="44.03175794740259" lon="12.171960944519855"><ele>262.0</ele><time>2026-04-20T09:08:29Z</time></trkpt><trkpt lat="44.031606872537786" lon="12.171907017937157"><ele>262.0</ele><time>2026-04-20T09:08:30Z</time></trkpt><trkpt lat="44.03147629148068" lon="12.171866484450474"><ele>262.0</ele><time>2026-04-20T09:08:31Z</time></trkpt><trkpt lat="44.03135534721901" lon="12.171848828448692"><ele>263.25</ele><time>2026-04-20T09:08:32Z</time></trkpt><trkpt lat="44.03118916616859" lon="12.171862395346986"><ele>264.5</ele><time>2026-04-20T09:08:33Z</time></trkpt><trkpt lat="44.03110491573181" lon="12.171857277256727"><ele>265.75</ele><time>2026-04-20T09:08:34Z</time></trkpt><trkpt lat="44.031001612245724" lon="12.17187515281154"><ele>267.0</ele><time>2026-04-20T09:08:35Z</time></trkpt><trkpt lat="44.03088326377263" lon="12.171862723594586"><ele>266.4</ele><time>2026-04-20T09:08:36Z</time></trkpt><trkpt lat="44.03074340601182" lon="12.171862723594613"><ele>265.79999999999995</ele><time>2026-04-20T09:08:37Z</time></trkpt><trkpt lat="44.03062968428943" lon="12.171857239766284"><ele>265.2</ele><time>2026-04-20T09:08:38Z</time></trkpt><trkpt lat="44.030532889499774" lon="12.171848899696542"><ele>264.59999999999997</ele><time>2026-04-20T09:08:39Z</time></trkpt><trkpt lat="44.030441843628175" lon="12.171835579858193"><ele>264.0</ele><time>2026-04-20T09:08:40Z</time></trkpt><trkpt lat="44.03035225091083" lon="12.17180804135174"><ele>264.0</ele><time>2026-04-20T09:08:41Z</time></trkpt><trkpt lat="44.03027012298856" lon="12.17179420393134"><ele>264.0</ele><time>2026-04-20T09:08:42Z</time></trkpt><trkpt lat="44.03017032333119" lon="12.171625168616295"><ele>264.0</ele><time>2026-04-20T09:08:44Z</time></trkpt><trkpt lat="44.03012520348172" lon="12.171553350961732"><ele>264.0</ele><time>2026-04-20T09:08:45Z</time></trkpt><trkpt lat="44.03007917393248" lon="12.171474361649787"><ele>264.0</ele><time>2026-04-20T09:08:46Z</time></trkpt><trkpt lat="44.030031366421305" lon="12.1713921022663"><ele>262.5</ele><time>2026-04-20T09:08:47Z</time></trkpt><trkpt lat="44.03002909272038" lon="12.171286680247746"><ele>261.0</ele><time>2026-04-20T09:08:48Z</time></trkpt><trkpt lat="44.029998116529875" lon="12.171206833394109"><ele>259.5</ele><time>2026-04-20T09:08:49Z</time></trkpt><trkpt lat="44.02992756825747" lon="12.1710822175645"><ele>258.0</ele><time>2026-04-20T09:08:51Z</time></trkpt><trkpt lat="44.02983792557155" lon="12.171060408255663"><ele>256.5</ele><time>2026-04-20T09:08:52Z</time></trkpt><trkpt lat="44.02975654075407" lon="12.17099904875583"><ele>255.0</ele><time>2026-04-20T09:08:53Z</time></trkpt><trkpt lat="44.029639114931385" lon="12.170966773315637"><ele>255.0</ele><time>2026-04-20T09:08:54Z</time></trkpt><trkpt lat="44.02954299824984" lon="12.17091593490897"><ele>255.0</ele><time>2026-04-20T09:08:55Z</time></trkpt><trkpt lat="44.02948068277836" lon="12.170821417207579"><ele>255.0</ele><time>2026-04-20T09:08:56Z</time></trkpt><trkpt lat="44.02941396195138" lon="12.170744249258448"><ele>255.0</ele><time>2026-04-20T09:08:57Z</time></trkpt><trkpt lat="44.029342600000774" lon="12.170664354307272"><ele>255.0</ele><time>2026-04-20T09:08:58Z</time></trkpt><trkpt lat="44.02926469613865" lon="12.170600187212997"><ele>253.8</ele><time>2026-04-20T09:08:59Z</time></trkpt><trkpt lat="44.02917510023041" lon="12.1705575739269"><ele>252.6</ele><time>2026-04-20T09:09:00Z</time></trkpt><trkpt lat="44.029096650400746" lon="12.170517598373346"><ele>251.39999999999998</ele><time>2026-04-20T09:09:01Z</time></trkpt><trkpt lat="44.029009627374165" lon="12.170474076104586"><ele>250.2</ele><time>2026-04-20T09:09:02Z</time></trkpt><trkpt lat="44.02893963992616" lon="12.170394146254337"><ele>249.0</ele><time>2026-04-20T09:09:03Z</time></trkpt><trkpt lat="44.02888284356357" lon="12.170264071370442"><ele>248.79999999999998</ele><time>2026-04-20T09:09:04Z</time></trkpt><trkpt lat="44.028825586959336" lon="12.17012827237313"><ele>248.59999999999997</ele><time>2026-04-20T09:09:05Z</time></trkpt><trkpt lat="44.02876822759761" lon="12.169982910093438"><ele>248.4</ele><time>2026-04-20T09:09:06Z</time></trkpt><trkpt lat="44.02872099995363" lon="12.169848712966502"><ele>248.2</ele><time>2026-04-20T09:09:07Z</time></trkpt><trkpt lat="44.02866940749384" lon="12.169717517662976"><ele>248.0</ele><time>2026-04-20T09:09:08Z</time></trkpt><trkpt lat="44.02861514540396" lon="12.169597833591101"><ele>248.0</ele><time>2026-04-20T09:09:09Z</time></trkpt><trkpt lat="44.02854701191242" lon="12.169475688601237"><ele>248.0</ele><time>2026-04-20T09:09:10.001Z</time></trkpt><trkpt lat="44.02846037455834" lon="12.169383385785158"><ele>248.0</ele><time>2026-04-20T09:09:11.001Z</time></trkpt><trkpt lat="44.02835561909492" lon="12.169311089677695"><ele>248.0</ele><time>2026-04-20T09:09:12.001Z</time></trkpt><trkpt lat="44.02825622670391" lon="12.169242410924168"><ele>248.0</ele><time>2026-04-20T09:09:13.001Z</time></trkpt><trkpt lat="44.02817439276585" lon="12.169140931986087"><ele>250.0</ele><time>2026-04-20T09:09:14.001Z</time></trkpt><trkpt lat="44.02815390774604" lon="12.16901893197448"><ele>252.0</ele><time>2026-04-20T09:09:15.001Z</time></trkpt><trkpt lat="44.02811154377881" lon="12.168879816394421"><ele>254.0</ele><time>2026-04-20T09:09:16.001Z</time></trkpt><trkpt lat="44.02806860807922" lon="12.168763485688368"><ele>256.0</ele><time>2026-04-20T09:09:17.001Z</time></trkpt><trkpt lat="44.02801106603344" lon="12.168663015926267"><ele>258.0</ele><time>2026-04-20T09:09:18.001Z</time></trkpt><trkpt lat="44.02794897317254" lon="12.168594571078886"><ele>258.0</ele><time>2026-04-20T09:09:19.001Z</time></trkpt><trkpt lat="44.02789014334664" lon="12.168521850429597"><ele>258.0</ele><time>2026-04-20T09:09:20.001Z</time></trkpt><trkpt lat="44.02780505498825" lon="12.16844167706287"><ele>258.0</ele><time>2026-04-20T09:09:21.001Z</time></trkpt><trkpt lat="44.02772747616832" lon="12.168354044733453"><ele>258.0</ele><time>2026-04-20T09:09:22.001Z</time></trkpt><trkpt lat="44.02766247955425" lon="12.168238659927773"><ele>258.0</ele><time>2026-04-20T09:09:23Z</time></trkpt><trkpt lat="44.027604917849104" lon="12.168109489061374"><ele>258.5</ele><time>2026-04-20T09:09:24Z</time></trkpt><trkpt lat="44.027549227284396" lon="12.167970483683707"><ele>259.0</ele><time>2026-04-20T09:09:25Z</time></trkpt><trkpt lat="44.027499453327835" lon="12.167814252051555"><ele>259.5</ele><time>2026-04-20T09:09:26Z</time></trkpt><trkpt lat="44.02745332321739" lon="12.167651183443866"><ele>260.0</ele><time>2026-04-20T09:09:27Z</time></trkpt><trkpt lat="44.02738219373618" lon="12.167517432821496"><ele>261.0</ele><time>2026-04-20T09:09:28Z</time></trkpt><trkpt lat="44.0273200445041" lon="12.167380409873935"><ele>262.0</ele><time>2026-04-20T09:09:29Z</time></trkpt><trkpt lat="44.027253191323005" lon="12.167248858340278"><ele>263.0</ele><time>2026-04-20T09:09:30Z</time></trkpt><trkpt lat="44.02716691277831" lon="12.167126813096774"><ele>264.0</ele><time>2026-04-20T09:09:31Z</time></trkpt><trkpt lat="44.02708789820944" lon="12.167003527662997"><ele>264.0</ele><time>2026-04-20T09:09:32Z</time></trkpt><trkpt lat="44.027034211641464" lon="12.166858928589994"><ele>264.0</ele><time>2026-04-20T09:09:33Z</time></trkpt><trkpt lat="44.02698433112367" lon="12.166687294455865"><ele>264.0</ele><time>2026-04-20T09:09:34Z</time></trkpt><trkpt lat="44.02691140787218" lon="12.166554034979233"><ele>264.0</ele><time>2026-04-20T09:09:35Z</time></trkpt><trkpt lat="44.02687054036322" lon="12.166396353313557"><ele>264.8</ele><time>2026-04-20T09:09:36Z</time></trkpt><trkpt lat="44.0268247080474" lon="12.166238372007017"><ele>265.59999999999997</ele><time>2026-04-20T09:09:37Z</time></trkpt><trkpt lat="44.02678720919851" lon="12.166084586140602"><ele>266.4</ele><time>2026-04-20T09:09:38Z</time></trkpt><trkpt lat="44.02677464937043" lon="12.165949684619068"><ele>267.2</ele><time>2026-04-20T09:09:39Z</time></trkpt><trkpt lat="44.02677565967154" lon="12.165837310459986"><ele>268.0</ele><time>2026-04-20T09:09:40Z</time></trkpt><trkpt lat="44.02680414937735" lon="12.165686989351505"><ele>268.0</ele><time>2026-04-20T09:09:42Z</time></trkpt><trkpt lat="44.02686609036551" lon="12.165647232979177"><ele>268.0</ele><time>2026-04-20T09:09:43Z</time></trkpt><trkpt lat="44.02693653230168" lon="12.165650043365474"><ele>268.0</ele><time>2026-04-20T09:09:44Z</time></trkpt><trkpt lat="44.027020215849035" lon="12.165671690809727"><ele>268.0</ele><time>2026-04-20T09:09:45Z</time></trkpt><trkpt lat="44.02712102760772" lon="12.165701757869071"><ele>268.0</ele><time>2026-04-20T09:09:46Z</time></trkpt><trkpt lat="44.027208032264966" lon="12.165700746603193"><ele>268.0</ele><time>2026-04-20T09:09:47Z</time></trkpt><trkpt lat="44.02727936253303" lon="12.165662290053827"><ele>268.6</ele><time>2026-04-20T09:09:48Z</time></trkpt><trkpt lat="44.02733186991716" lon="12.165588261282997"><ele>269.20000000000005</ele><time>2026-04-20T09:09:49Z</time></trkpt><trkpt lat="44.027356190323665" lon="12.165476615980877"><ele>269.8</ele><time>2026-04-20T09:09:50Z</time></trkpt><trkpt lat="44.02737608658932" lon="12.165338362796648"><ele>270.40000000000003</ele><time>2026-04-20T09:09:51Z</time></trkpt><trkpt lat="44.02741712462792" lon="12.165191069267834"><ele>271.0</ele><time>2026-04-20T09:09:52Z</time></trkpt><trkpt lat="44.02742431810876" lon="12.165028545488202"><ele>271.0</ele><time>2026-04-20T09:09:53Z</time></trkpt><trkpt lat="44.02743140805871" lon="12.164867529468644"><ele>271.0</ele><time>2026-04-20T09:09:54Z</time></trkpt><trkpt lat="44.02744307165001" lon="12.16471469455345"><ele>271.0</ele><time>2026-04-20T09:09:55Z</time></trkpt><trkpt lat="44.027437379940515" lon="12.16456822484595"><ele>271.0</ele><time>2026-04-20T09:09:56Z</time></trkpt><trkpt lat="44.02743152960603" lon="12.164421521287627"><ele>271.0</ele><time>2026-04-20T09:09:57Z</time></trkpt><trkpt lat="44.027426753375494" lon="12.1642801285879"><ele>270.66666666666663</ele><time>2026-04-20T09:09:58Z</time></trkpt><trkpt lat="44.0274110169558" lon="12.164140455040581"><ele>270.3333333333333</ele><time>2026-04-20T09:09:59Z</time></trkpt><trkpt lat="44.02741901793976" lon="12.16400542566325"><ele>270.0</ele><time>2026-04-20T09:10:00Z</time></trkpt><trkpt lat="44.027409364905324" lon="12.163887494374613"><ele>269.6666666666667</ele><time>2026-04-20T09:10:01Z</time></trkpt><trkpt lat="44.02741436819849" lon="12.163782062919642"><ele>269.33333333333337</ele><time>2026-04-20T09:10:02Z</time></trkpt><trkpt lat="44.02735705640041" lon="12.163688211519693"><ele>269.0</ele><time>2026-04-20T09:10:03Z</time></trkpt><trkpt lat="44.027316868619586" lon="12.163567058977977"><ele>267.75</ele><time>2026-04-20T09:10:04Z</time></trkpt><trkpt lat="44.027223987095496" lon="12.163456704913871"><ele>266.5</ele><time>2026-04-20T09:10:05Z</time></trkpt><trkpt lat="44.02712768358876" lon="12.163344447778535"><ele>265.25</ele><time>2026-04-20T09:10:06Z</time></trkpt><trkpt lat="44.0270223092513" lon="12.163222966731993"><ele>264.0</ele><time>2026-04-20T09:10:07Z</time></trkpt><trkpt lat="44.026920229580824" lon="12.163098183666651"><ele>262.75</ele><time>2026-04-20T09:10:08Z</time></trkpt><trkpt lat="44.026825520035594" lon="12.162976672645707"><ele>261.5</ele><time>2026-04-20T09:10:09Z</time></trkpt><trkpt lat="44.02672045199245" lon="12.16287109031479"><ele>260.25</ele><time>2026-04-20T09:10:10Z</time></trkpt><trkpt lat="44.026633157798656" lon="12.1627593811361"><ele>259.0</ele><time>2026-04-20T09:10:11Z</time></trkpt><trkpt lat="44.026550348218926" lon="12.162636322304333"><ele>259.0</ele><time>2026-04-20T09:10:12Z</time></trkpt><trkpt lat="44.02640134813442" lon="12.162433647494078"><ele>259.0</ele><time>2026-04-20T09:10:14Z</time></trkpt><trkpt lat="44.02631440269142" lon="12.162359004524223"><ele>259.0</ele><time>2026-04-20T09:10:15Z</time></trkpt><trkpt lat="44.02622151037501" lon="12.162298512591962"><ele>259.0</ele><time>2026-04-20T09:10:16Z</time></trkpt><trkpt lat="44.02610936958348" lon="12.162250493591833"><ele>257.5</ele><time>2026-04-20T09:10:17Z</time></trkpt><trkpt lat="44.025967139372526" lon="12.162207926429284"><ele>256.0</ele><time>2026-04-20T09:10:18Z</time></trkpt><trkpt lat="44.02584997605765" lon="12.162163686417262"><ele>254.5</ele><time>2026-04-20T09:10:19Z</time></trkpt><trkpt lat="44.02573866559968" lon="12.162133526228281"><ele>253.0</ele><time>2026-04-20T09:10:20Z</time></trkpt><trkpt lat="44.02561524876229" lon="12.16211011222408"><ele>253.0</ele><time>2026-04-20T09:10:21Z</time></trkpt><trkpt lat="44.02550605019692" lon="12.162082875464483"><ele>253.0</ele><time>2026-04-20T09:10:22Z</time></trkpt><trkpt lat="44.02542288328829" lon="12.16205657914801"><ele>253.0</ele><time>2026-04-20T09:10:23Z</time></trkpt><trkpt lat="44.02536682966612" lon="12.162011113622665"><ele>253.0</ele><time>2026-04-20T09:10:24Z</time></trkpt><trkpt lat="44.02529641518674" lon="12.161937643018028"><ele>253.0</ele><time>2026-04-20T09:10:25Z</time></trkpt><trkpt lat="44.02523500264147" lon="12.16179530515254"><ele>253.0</ele><time>2026-04-20T09:10:26Z</time></trkpt><trkpt lat="44.025125990527286" lon="12.1616555166267"><ele>253.0</ele><time>2026-04-20T09:10:27Z</time></trkpt><trkpt lat="44.02500844965599" lon="12.161494583437783"><ele>253.0</ele><time>2026-04-20T09:10:28Z</time></trkpt><trkpt lat="44.02489203482866" lon="12.161350679462949"><ele>250.33333333333331</ele><time>2026-04-20T09:10:29Z</time></trkpt><trkpt lat="44.024758430538775" lon="12.161214685352935"><ele>247.66666666666669</ele><time>2026-04-20T09:10:30Z</time></trkpt><trkpt lat="44.02461528846706" lon="12.161082976963607"><ele>245.0</ele><time>2026-04-20T09:10:31Z</time></trkpt><trkpt lat="44.024467946450194" lon="12.160952105063252"><ele>245.0</ele><time>2026-04-20T09:10:32Z</time></trkpt><trkpt lat="44.02432622887227" lon="12.16081259389091"><ele>245.0</ele><time>2026-04-20T09:10:33Z</time></trkpt><trkpt lat="44.02419725168366" lon="12.160666629633644"><ele>245.0</ele><time>2026-04-20T09:10:34Z</time></trkpt><trkpt lat="44.024055045908284" lon="12.160509685903042"><ele>244.5</ele><time>2026-04-20T09:10:35Z</time></trkpt><trkpt lat="44.02391675237098" lon="12.160368393816407"><ele>244.0</ele><time>2026-04-20T09:10:36Z</time></trkpt><trkpt lat="44.02379314677739" lon="12.160247893658756"><ele>243.5</ele><time>2026-04-20T09:10:37Z</time></trkpt><trkpt lat="44.023691926976454" lon="12.16016318025059"><ele>243.0</ele><time>2026-04-20T09:10:38Z</time></trkpt><trkpt lat="44.02356329264591" lon="12.160062500587387"><ele>243.0</ele><time>2026-04-20T09:10:39Z</time></trkpt><trkpt lat="44.02343367474063" lon="12.159967355775397"><ele>243.0</ele><time>2026-04-20T09:10:40Z</time></trkpt><trkpt lat="44.02329775422801" lon="12.159851450873091"><ele>243.0</ele><time>2026-04-20T09:10:41Z</time></trkpt><trkpt lat="44.023142664379066" lon="12.159763792735822"><ele>243.0</ele><time>2026-04-20T09:10:42Z</time></trkpt><trkpt lat="44.023010527065615" lon="12.159655960709598"><ele>243.0</ele><time>2026-04-20T09:10:43Z</time></trkpt><trkpt lat="44.02287708031817" lon="12.15956543011082"><ele>243.0</ele><time>2026-04-20T09:10:44Z</time></trkpt><trkpt lat="44.02274293950195" lon="12.15947325353762"><ele>243.0</ele><time>2026-04-20T09:10:45Z</time></trkpt><trkpt lat="44.02262994398746" lon="12.159357599399344"><ele>243.0</ele><time>2026-04-20T09:10:46Z</time></trkpt><trkpt lat="44.022472393632285" lon="12.159242222792997"><ele>243.0</ele><time>2026-04-20T09:10:47Z</time></trkpt><trkpt lat="44.02234008731255" lon="12.159106207975404"><ele>244.0</ele><time>2026-04-20T09:10:48Z</time></trkpt><trkpt lat="44.02223351181466" lon="12.158948622045479"><ele>245.0</ele><time>2026-04-20T09:10:49Z</time></trkpt><trkpt lat="44.02209808410353" lon="12.15878642573151"><ele>246.0</ele><time>2026-04-20T09:10:50Z</time></trkpt><trkpt lat="44.02195189149423" lon="12.158638770864304"><ele>246.0</ele><time>2026-04-20T09:10:51Z</time></trkpt><trkpt lat="44.02182731018885" lon="12.158487566297813"><ele>246.0</ele><time>2026-04-20T09:10:52Z</time></trkpt><trkpt lat="44.02169163573534" lon="12.158334289096233"><ele>246.0</ele><time>2026-04-20T09:10:53Z</time></trkpt><trkpt lat="44.02157441555748" lon="12.158158803759262"><ele>248.33333333333331</ele><time>2026-04-20T09:10:54Z</time></trkpt><trkpt lat="44.02144286204007" lon="12.15799696048669"><ele>250.66666666666666</ele><time>2026-04-20T09:10:55Z</time></trkpt><trkpt lat="44.021308910758485" lon="12.157840060240266"><ele>253.0</ele><time>2026-04-20T09:10:56Z</time></trkpt><trkpt lat="44.02116773930715" lon="12.157703984672665"><ele>253.0</ele><time>2026-04-20T09:10:57Z</time></trkpt><trkpt lat="44.02104547853157" lon="12.157567094492498"><ele>253.0</ele><time>2026-04-20T09:10:58Z</time></trkpt><trkpt lat="44.02095768710516" lon="12.157414092739995"><ele>253.0</ele><time>2026-04-20T09:10:59Z</time></trkpt><trkpt lat="44.02087649483915" lon="12.157262489663287"><ele>253.0</ele><time>2026-04-20T09:11:00Z</time></trkpt><trkpt lat="44.02079095800961" lon="12.157080961990559"><ele>253.0</ele><time>2026-04-20T09:11:01Z</time></trkpt><trkpt lat="44.020697903781105" lon="12.156908893537176"><ele>253.0</ele><time>2026-04-20T09:11:02Z</time></trkpt><trkpt lat="44.02062711542307" lon="12.156727791089502"><ele>253.0</ele><time>2026-04-20T09:11:03Z</time></trkpt><trkpt lat="44.02058071976216" lon="12.156534367648154"><ele>253.0</ele><time>2026-04-20T09:11:04Z</time></trkpt><trkpt lat="44.02053466490458" lon="12.156361207533248"><ele>253.0</ele><time>2026-04-20T09:11:05Z</time></trkpt><trkpt lat="44.020503482674805" lon="12.156200128515222"><ele>253.0</ele><time>2026-04-20T09:11:06Z</time></trkpt><trkpt lat="44.02048307620868" lon="12.156055720088705"><ele>253.0</ele><time>2026-04-20T09:11:07Z</time></trkpt><trkpt lat="44.02047777206041" lon="12.155919052661233"><ele>252.99999999999997</ele><time>2026-04-20T09:11:08Z</time></trkpt><trkpt lat="44.0204792360096" lon="12.155799733730694"><ele>253.0</ele><time>2026-04-20T09:11:09Z</time></trkpt><trkpt lat="44.02048379612333" lon="12.155687582485175"><ele>253.0</ele><time>2026-04-20T09:11:10Z</time></trkpt><trkpt lat="44.02049593089761" lon="12.155580259865998"><ele>253.0</ele><time>2026-04-20T09:11:11Z</time></trkpt><trkpt lat="44.02051336728239" lon="12.155468948159845"><ele>252.99999999999997</ele><time>2026-04-20T09:11:12Z</time></trkpt><trkpt lat="44.02053223432866" lon="12.155348503435775"><ele>253.0</ele><time>2026-04-20T09:11:13Z</time></trkpt><trkpt lat="44.02055441736016" lon="12.155216193400024"><ele>251.0</ele><time>2026-04-20T09:11:14Z</time></trkpt><trkpt lat="44.020584255532725" lon="12.15506978172262"><ele>249.0</ele><time>2026-04-20T09:11:15Z</time></trkpt><trkpt lat="44.02062256187266" lon="12.154911289502015"><ele>247.0</ele><time>2026-04-20T09:11:16Z</time></trkpt><trkpt lat="44.02067200309424" lon="12.154744284901582"><ele>245.0</ele><time>2026-04-20T09:11:17Z</time></trkpt><trkpt lat="44.02072910562377" lon="12.154580871453607"><ele>246.0</ele><time>2026-04-20T09:11:18Z</time></trkpt><trkpt lat="44.02077526142684" lon="12.154401565538567"><ele>247.0</ele><time>2026-04-20T09:11:19Z</time></trkpt><trkpt lat="44.02083255608691" lon="12.154228335991"><ele>248.0</ele><time>2026-04-20T09:11:20Z</time></trkpt><trkpt lat="44.020884469894554" lon="12.154048112010342"><ele>249.0</ele><time>2026-04-20T09:11:21Z</time></trkpt><trkpt lat="44.020941885158905" lon="12.153880373041735"><ele>249.0</ele><time>2026-04-20T09:11:22Z</time></trkpt><trkpt lat="44.02100748122858" lon="12.153734093230435"><ele>249.0</ele><time>2026-04-20T09:11:23.001Z</time></trkpt><trkpt lat="44.02105788213556" lon="12.153575996754306"><ele>249.0</ele><time>2026-04-20T09:11:24.001Z</time></trkpt><trkpt lat="44.02109542512644" lon="12.153440300872303"><ele>249.0</ele><time>2026-04-20T09:11:25.001Z</time></trkpt><trkpt lat="44.021120724340264" lon="12.153309393500647"><ele>248.39999999999998</ele><time>2026-04-20T09:11:26.001Z</time></trkpt><trkpt lat="44.02112890615079" lon="12.153194050371912"><ele>247.79999999999998</ele><time>2026-04-20T09:11:27.001Z</time></trkpt><trkpt lat="44.02112184896569" lon="12.153103240049841"><ele>247.20000000000002</ele><time>2026-04-20T09:11:28.001Z</time></trkpt><trkpt lat="44.021044242034556" lon="12.15293644750642"><ele>246.60000000000002</ele><time>2026-04-20T09:11:30.001Z</time></trkpt><trkpt lat="44.02091828317535" lon="12.15289250639587"><ele>246.0</ele><time>2026-04-20T09:11:31.001Z</time></trkpt><trkpt lat="44.02078952159271" lon="12.152859230640143"><ele>244.4</ele><time>2026-04-20T09:11:32.001Z</time></trkpt><trkpt lat="44.02066831108518" lon="12.152845886163922"><ele>242.8</ele><time>2026-04-20T09:11:33.001Z</time></trkpt><trkpt lat="44.02056359163139" lon="12.1528167109678"><ele>241.20000000000002</ele><time>2026-04-20T09:11:34.001Z</time></trkpt><trkpt lat="44.02045937899195" lon="12.152764632906436"><ele>239.60000000000002</ele><time>2026-04-20T09:11:35.001Z</time></trkpt><trkpt lat="44.02036232102925" lon="12.152709836224082"><ele>238.0</ele><time>2026-04-20T09:11:36.001Z</time></trkpt><trkpt lat="44.02028530943428" lon="12.152661897009855"><ele>238.0</ele><time>2026-04-20T09:11:37.001Z</time></trkpt><trkpt lat="44.020200492866685" lon="12.152577212136947"><ele>238.0</ele><time>2026-04-20T09:11:38.001Z</time></trkpt><trkpt lat="44.020153634742286" lon="12.152453760589992"><ele>238.0</ele><time>2026-04-20T09:11:39.001Z</time></trkpt><trkpt lat="44.02008493625613" lon="12.152279454924884"><ele>238.0</ele><time>2026-04-20T09:11:40.001Z</time></trkpt><trkpt lat="44.01999553434413" lon="12.152102717516728"><ele>237.25</ele><time>2026-04-20T09:11:41.001Z</time></trkpt><trkpt lat="44.01991418091721" lon="12.151921191103755"><ele>236.5</ele><time>2026-04-20T09:11:42.001Z</time></trkpt><trkpt lat="44.01983569524572" lon="12.151764244476388"><ele>235.75</ele><time>2026-04-20T09:11:43.001Z</time></trkpt><trkpt lat="44.019756778503734" lon="12.151632733194734"><ele>235.0</ele><time>2026-04-20T09:11:44.001Z</time></trkpt><trkpt lat="44.019678389727645" lon="12.151519452721802"><ele>235.0</ele><time>2026-04-20T09:11:45Z</time></trkpt><trkpt lat="44.01959172766288" lon="12.151386225958154"><ele>235.0</ele><time>2026-04-20T09:11:46Z</time></trkpt><trkpt lat="44.019536286738415" lon="12.15124145713254"><ele>235.0</ele><time>2026-04-20T09:11:47Z</time></trkpt><trkpt lat="44.019464419132944" lon="12.151075717004652"><ele>235.0</ele><time>2026-04-20T09:11:48Z</time></trkpt><trkpt lat="44.019359151890555" lon="12.15092581809607"><ele>235.0</ele><time>2026-04-20T09:11:49Z</time></trkpt><trkpt lat="44.019234187152335" lon="12.150809099043764"><ele>235.0</ele><time>2026-04-20T09:11:50Z</time></trkpt><trkpt lat="44.01915417932562" lon="12.150669487464798"><ele>235.0</ele><time>2026-04-20T09:11:51Z</time></trkpt><trkpt lat="44.019099296946756" lon="12.150556021175127"><ele>235.0</ele><time>2026-04-20T09:11:52Z</time></trkpt><trkpt lat="44.019051887724444" lon="12.150416293960744"><ele>234.0</ele><time>2026-04-20T09:11:53Z</time></trkpt><trkpt lat="44.0190032984952" lon="12.150248322168565"><ele>233.0</ele><time>2026-04-20T09:11:54Z</time></trkpt><trkpt lat="44.01896021411395" lon="12.150049430144064"><ele>232.0</ele><time>2026-04-20T09:11:55Z</time></trkpt><trkpt lat="44.0189398470811" lon="12.149890989932677"><ele>231.0</ele><time>2026-04-20T09:11:56Z</time></trkpt><trkpt lat="44.01893262777851" lon="12.149684649075486"><ele>231.0</ele><time>2026-04-20T09:11:57Z</time></trkpt><trkpt lat="44.01894477888194" lon="12.149483352713487"><ele>231.0</ele><time>2026-04-20T09:11:58Z</time></trkpt><trkpt lat="44.018960611226376" lon="12.149304806480286"><ele>231.0</ele><time>2026-04-20T09:11:59Z</time></trkpt><trkpt lat="44.01892712105184" lon="12.149123961271611"><ele>231.0</ele><time>2026-04-20T09:12:00Z</time></trkpt><trkpt lat="44.01888772451869" lon="12.148946850064009"><ele>235.0</ele><time>2026-04-20T09:12:01Z</time></trkpt><trkpt lat="44.018832074033476" lon="12.1487746204531"><ele>239.0</ele><time>2026-04-20T09:12:02Z</time></trkpt><trkpt lat="44.0187814721872" lon="12.148603302599419"><ele>243.0</ele><time>2026-04-20T09:12:03Z</time></trkpt><trkpt lat="44.018735547866136" lon="12.148459829007091"><ele>247.0</ele><time>2026-04-20T09:12:04Z</time></trkpt><trkpt lat="44.01868048906711" lon="12.14835917373365"><ele>247.0</ele><time>2026-04-20T09:12:05Z</time></trkpt><trkpt lat="44.01858044165041" lon="12.148266476095907"><ele>247.0</ele><time>2026-04-20T09:12:06Z</time></trkpt><trkpt lat="44.01846464553061" lon="12.148164925884036"><ele>247.0</ele><time>2026-04-20T09:12:07Z</time></trkpt><trkpt lat="44.01832721478824" lon="12.148036638269735"><ele>247.0</ele><time>2026-04-20T09:12:08Z</time></trkpt><trkpt lat="44.01819521192472" lon="12.14793007168631"><ele>247.6</ele><time>2026-04-20T09:12:09Z</time></trkpt><trkpt lat="44.018116803795294" lon="12.147803956292467"><ele>248.2</ele><time>2026-04-20T09:12:10Z</time></trkpt><trkpt lat="44.01804129640318" lon="12.147691911154443"><ele>248.8</ele><time>2026-04-20T09:12:11Z</time></trkpt><trkpt lat="44.017998685292184" lon="12.147601426920547"><ele>249.4</ele><time>2026-04-20T09:12:12Z</time></trkpt><trkpt lat="44.01796524465551" lon="12.1474931779363"><ele>250.0</ele><time>2026-04-20T09:12:13Z</time></trkpt><trkpt lat="44.01795801657482" lon="12.147370988402802"><ele>252.25</ele><time>2026-04-20T09:12:14Z</time></trkpt><trkpt lat="44.01797590528309" lon="12.147205878041298"><ele>254.5</ele><time>2026-04-20T09:12:15Z</time></trkpt><trkpt lat="44.01797691019516" lon="12.147038122979671"><ele>256.75</ele><time>2026-04-20T09:12:16Z</time></trkpt><trkpt lat="44.01796048807722" lon="12.146880988075294"><ele>259.0</ele><time>2026-04-20T09:12:17Z</time></trkpt><trkpt lat="44.0179061472327" lon="12.146726724402212"><ele>259.0</ele><time>2026-04-20T09:12:18Z</time></trkpt><trkpt lat="44.017821071177124" lon="12.146600922660488"><ele>259.0</ele><time>2026-04-20T09:12:19Z</time></trkpt><trkpt lat="44.01773663347581" lon="12.146462874904456"><ele>259.0</ele><time>2026-04-20T09:12:20Z</time></trkpt><trkpt lat="44.01761409002573" lon="12.146324028454972"><ele>259.0</ele><time>2026-04-20T09:12:21Z</time></trkpt><trkpt lat="44.01750529571429" lon="12.146204508461894"><ele>258.75</ele><time>2026-04-20T09:12:22Z</time></trkpt><trkpt lat="44.01741048430107" lon="12.146086478366222"><ele>258.5</ele><time>2026-04-20T09:12:23Z</time></trkpt><trkpt lat="44.017306310031266" lon="12.146021218915212"><ele>258.25</ele><time>2026-04-20T09:12:24Z</time></trkpt><trkpt lat="44.01720689450398" lon="12.145994811019861"><ele>258.0</ele><time>2026-04-20T09:12:25Z</time></trkpt><trkpt lat="44.017082967749616" lon="12.146003415403445"><ele>258.0</ele><time>2026-04-20T09:12:26Z</time></trkpt><trkpt lat="44.01695607770531" lon="12.14601272477683"><ele>258.0</ele><time>2026-04-20T09:12:27Z</time></trkpt><trkpt lat="44.01679428236981" lon="12.146008330368886"><ele>258.0</ele><time>2026-04-20T09:12:28Z</time></trkpt><trkpt lat="44.01658278951306" lon="12.1460308167825"><ele>258.6666666666667</ele><time>2026-04-20T09:12:29Z</time></trkpt><trkpt lat="44.01637216689757" lon="12.146073922568926"><ele>259.33333333333337</ele><time>2026-04-20T09:12:30Z</time></trkpt><trkpt lat="44.016178018330976" lon="12.14607850382574"><ele>260.0</ele><time>2026-04-20T09:12:31Z</time></trkpt><trkpt lat="44.01599999425711" lon="12.146090727388378"><ele>260.0</ele><time>2026-04-20T09:12:32Z</time></trkpt><trkpt lat="44.01586216200961" lon="12.146105138160006"><ele>260.0</ele><time>2026-04-20T09:12:33Z</time></trkpt><trkpt lat="44.015707968715304" lon="12.146161022214828"><ele>260.0</ele><time>2026-04-20T09:12:34Z</time></trkpt><trkpt lat="44.01555520421909" lon="12.146195030256935"><ele>260.33333333333337</ele><time>2026-04-20T09:12:35.001Z</time></trkpt><trkpt lat="44.015398959173424" lon="12.146255345459561"><ele>260.6666666666667</ele><time>2026-04-20T09:12:36.001Z</time></trkpt><trkpt lat="44.015244898402656" lon="12.146282039557738"><ele>261.0</ele><time>2026-04-20T09:12:37.001Z</time></trkpt><trkpt lat="44.01509492531026" lon="12.146287428879445"><ele>261.6666666666667</ele><time>2026-04-20T09:12:38.001Z</time></trkpt><trkpt lat="44.014938945492744" lon="12.146258835115129"><ele>262.33333333333337</ele><time>2026-04-20T09:12:39.001Z</time></trkpt><trkpt lat="44.014766284830756" lon="12.146211022904561"><ele>263.0</ele><time>2026-04-20T09:12:40.001Z</time></trkpt><trkpt lat="44.01459213268703" lon="12.146160505147904"><ele>263.0</ele><time>2026-04-20T09:12:41.001Z</time></trkpt><trkpt lat="44.01444856018914" lon="12.14606948384374"><ele>263.0</ele><time>2026-04-20T09:12:42.001Z</time></trkpt><trkpt lat="44.014304109396974" lon="12.146023170641024"><ele>263.0</ele><time>2026-04-20T09:12:43.001Z</time></trkpt><trkpt lat="44.014169211839636" lon="12.145960129175384"><ele>263.0</ele><time>2026-04-20T09:12:44.001Z</time></trkpt><trkpt lat="44.014043503920554" lon="12.145907921770844"><ele>262.5</ele><time>2026-04-20T09:12:45.001Z</time></trkpt><trkpt lat="44.01392485898192" lon="12.145861648897542"><ele>262.0</ele><time>2026-04-20T09:12:46.001Z</time></trkpt><trkpt lat="44.01380991981346" lon="12.145807877368767"><ele>261.5</ele><time>2026-04-20T09:12:47.001Z</time></trkpt><trkpt lat="44.01371763933473" lon="12.145706995452086"><ele>261.0</ele><time>2026-04-20T09:12:48.001Z</time></trkpt><trkpt lat="44.013641387375806" lon="12.145596337208282"><ele>261.0</ele><time>2026-04-20T09:12:49.001Z</time></trkpt><trkpt lat="44.013570599753415" lon="12.14545122237684"><ele>261.0</ele><time>2026-04-20T09:12:50.001Z</time></trkpt><trkpt lat="44.013516652236014" lon="12.145264155703833"><ele>261.0</ele><time>2026-04-20T09:12:51.001Z</time></trkpt><trkpt lat="44.01343526660703" lon="12.145081183981059"><ele>261.0</ele><time>2026-04-20T09:12:52.001Z</time></trkpt><trkpt lat="44.01333845258589" lon="12.14490500886765"><ele>263.0</ele><time>2026-04-20T09:12:53.001Z</time></trkpt><trkpt lat="44.01322618758151" lon="12.144724829258715"><ele>265.0</ele><time>2026-04-20T09:12:54.001Z</time></trkpt><trkpt lat="44.013116362295044" lon="12.144542632230687"><ele>267.0</ele><time>2026-04-20T09:12:55.001Z</time></trkpt><trkpt lat="44.01300576718665" lon="12.14435915745163"><ele>267.0</ele><time>2026-04-20T09:12:56.001Z</time></trkpt><trkpt lat="44.012904431395455" lon="12.144183502658676"><ele>267.0</ele><time>2026-04-20T09:12:57.001Z</time></trkpt><trkpt lat="44.012800435806994" lon="12.143998662637111"><ele>267.0</ele><time>2026-04-20T09:12:58.001Z</time></trkpt><trkpt lat="44.01268547131067" lon="12.143820345613566"><ele>268.3333333333333</ele><time>2026-04-20T09:12:59.001Z</time></trkpt><trkpt lat="44.01257411166694" lon="12.143621287327553"><ele>269.66666666666663</ele><time>2026-04-20T09:13:00.001Z</time></trkpt><trkpt lat="44.01246029458127" lon="12.143427131889883"><ele>271.0</ele><time>2026-04-20T09:13:01.001Z</time></trkpt><trkpt lat="44.01236331456297" lon="12.143229647707592"><ele>274.0</ele><time>2026-04-20T09:13:02.001Z</time></trkpt><trkpt lat="44.01227347444442" lon="12.143061937197196"><ele>277.0</ele><time>2026-04-20T09:13:03.001Z</time></trkpt><trkpt lat="44.012202145827246" lon="12.142906380725197"><ele>280.0</ele><time>2026-04-20T09:13:04.001Z</time></trkpt><trkpt lat="44.01214328358804" lon="12.14274881070158"><ele>283.0</ele><time>2026-04-20T09:13:05.001Z</time></trkpt><trkpt lat="44.01209008745997" lon="12.142589769078167"><ele>283.0</ele><time>2026-04-20T09:13:06.001Z</time></trkpt><trkpt lat="44.01204336240922" lon="12.142425661610147"><ele>283.0</ele><time>2026-04-20T09:13:07.001Z</time></trkpt><trkpt lat="44.011985027447366" lon="12.142253228846915"><ele>283.0</ele><time>2026-04-20T09:13:08.001Z</time></trkpt><trkpt lat="44.01194234373689" lon="12.142068809346902"><ele>283.0</ele><time>2026-04-20T09:13:09.001Z</time></trkpt><trkpt lat="44.01190555381283" lon="12.14188541716722"><ele>283.5</ele><time>2026-04-20T09:13:10.001Z</time></trkpt><trkpt lat="44.01186390671863" lon="12.141693089686209"><ele>284.0</ele><time>2026-04-20T09:13:11.001Z</time></trkpt><trkpt lat="44.01182325246518" lon="12.141505016058941"><ele>284.5</ele><time>2026-04-20T09:13:12.001Z</time></trkpt><trkpt lat="44.01177809092809" lon="12.141323221966816"><ele>285.0</ele><time>2026-04-20T09:13:13.001Z</time></trkpt><trkpt lat="44.011677774044465" lon="12.140925150652983"><ele>286.0</ele><time>2026-04-20T09:13:15.001Z</time></trkpt><trkpt lat="44.011628239361656" lon="12.140722656387641"><ele>287.0</ele><time>2026-04-20T09:13:16.001Z</time></trkpt><trkpt lat="44.01159915655841" lon="12.140512737100835"><ele>288.0</ele><time>2026-04-20T09:13:17.001Z</time></trkpt><trkpt lat="44.011559456436906" lon="12.140313376487226"><ele>289.25</ele><time>2026-04-20T09:13:18.001Z</time></trkpt><trkpt lat="44.011536979338636" lon="12.140121508251028"><ele>290.5</ele><time>2026-04-20T09:13:19.001Z</time></trkpt><trkpt lat="44.01152683709148" lon="12.139922205441385"><ele>291.75</ele><time>2026-04-20T09:13:20.001Z</time></trkpt><trkpt lat="44.01152302123167" lon="12.139705046406844"><ele>293.0</ele><time>2026-04-20T09:13:21.001Z</time></trkpt><trkpt lat="44.01152465154837" lon="12.13948197633464"><ele>293.6666666666667</ele><time>2026-04-20T09:13:22.001Z</time></trkpt><trkpt lat="44.01153057741995" lon="12.139243842982793"><ele>294.3333333333333</ele><time>2026-04-20T09:13:23.001Z</time></trkpt><trkpt lat="44.01153562277085" lon="12.13899968983076"><ele>295.0</ele><time>2026-04-20T09:13:24.001Z</time></trkpt><trkpt lat="44.011541362050465" lon="12.138760369248123"><ele>295.3333333333333</ele><time>2026-04-20T09:13:25.001Z</time></trkpt><trkpt lat="44.01155135536527" lon="12.138536836147598"><ele>295.6666666666667</ele><time>2026-04-20T09:13:26.001Z</time></trkpt><trkpt lat="44.01157236359281" lon="12.13832939623003"><ele>296.0</ele><time>2026-04-20T09:13:27.001Z</time></trkpt><trkpt lat="44.01161134240201" lon="12.138125363222454"><ele>296.5</ele><time>2026-04-20T09:13:28.001Z</time></trkpt><trkpt lat="44.01165625581113" lon="12.137934211812578"><ele>297.0</ele><time>2026-04-20T09:13:29.001Z</time></trkpt><trkpt lat="44.011689756224655" lon="12.13775782597018"><ele>297.5</ele><time>2026-04-20T09:13:30.001Z</time></trkpt><trkpt lat="44.01177431941997" lon="12.13761734516208"><ele>298.0</ele><time>2026-04-20T09:13:31.001Z</time></trkpt><trkpt lat="44.011838461300094" lon="12.137472273079158"><ele>296.5</ele><time>2026-04-20T09:13:32.001Z</time></trkpt><trkpt lat="44.011903052402154" lon="12.137359941917893"><ele>295.0</ele><time>2026-04-20T09:13:33.001Z</time></trkpt><trkpt lat="44.011971044712745" lon="12.137286373826058"><ele>293.5</ele><time>2026-04-20T09:13:34.001Z</time></trkpt><trkpt lat="44.012034188705975" lon="12.137200619666825"><ele>292.0</ele><time>2026-04-20T09:13:35.001Z</time></trkpt><trkpt lat="44.012205154853" lon="12.1370623921052"><ele>292.0</ele><time>2026-04-20T09:13:37.001Z</time></trkpt><trkpt lat="44.01230533583801" lon="12.136964364429234"><ele>292.0</ele><time>2026-04-20T09:13:38.001Z</time></trkpt><trkpt lat="44.01241276988582" lon="12.1368520878145"><ele>292.0</ele><time>2026-04-20T09:13:39.001Z</time></trkpt><trkpt lat="44.01252224865538" lon="12.136740633416245"><ele>292.0</ele><time>2026-04-20T09:13:40.001Z</time></trkpt><trkpt lat="44.01264648256035" lon="12.136625482398975"><ele>288.25</ele><time>2026-04-20T09:13:41.001Z</time></trkpt><trkpt lat="44.012778202978794" lon="12.136513627897"><ele>284.5</ele><time>2026-04-20T09:13:42.001Z</time></trkpt><trkpt lat="44.01290451170426" lon="12.136410063065496"><ele>280.75</ele><time>2026-04-20T09:13:43.001Z</time></trkpt><trkpt lat="44.01302302139705" lon="12.136312776779748"><ele>277.0</ele><time>2026-04-20T09:13:44.001Z</time></trkpt><trkpt lat="44.013138303578835" lon="12.13621509584223"><ele>277.0</ele><time>2026-04-20T09:13:45.001Z</time></trkpt><trkpt lat="44.013251624109465" lon="12.136119949701607"><ele>277.0</ele><time>2026-04-20T09:13:46.001Z</time></trkpt><trkpt lat="44.01335993423549" lon="12.136043789414712"><ele>277.0</ele><time>2026-04-20T09:13:47.001Z</time></trkpt><trkpt lat="44.01347019882236" lon="12.135992763558379"><ele>277.0</ele><time>2026-04-20T09:13:48.001Z</time></trkpt><trkpt lat="44.013581329039" lon="12.135977548971162"><ele>275.6</ele><time>2026-04-20T09:13:49.001Z</time></trkpt><trkpt lat="44.013683438028" lon="12.135968638025505"><ele>274.2</ele><time>2026-04-20T09:13:50.001Z</time></trkpt><trkpt lat="44.01375701082882" lon="12.136023099601168"><ele>272.8</ele><time>2026-04-20T09:13:51.001Z</time></trkpt><trkpt lat="44.013802870722614" lon="12.136115456453004"><ele>271.4</ele><time>2026-04-20T09:13:52.001Z</time></trkpt><trkpt lat="44.01380933935521" lon="12.13623720413343"><ele>270.0</ele><time>2026-04-20T09:13:53.001Z</time></trkpt><trkpt lat="44.01376029435954" lon="12.136361173356763"><ele>270.0</ele><time>2026-04-20T09:13:54.001Z</time></trkpt><trkpt lat="44.01374496112021" lon="12.136520144034193"><ele>270.0</ele><time>2026-04-20T09:13:55.001Z</time></trkpt><trkpt lat="44.013715050944626" lon="12.136666917917843"><ele>270.0</ele><time>2026-04-20T09:13:56.001Z</time></trkpt><trkpt lat="44.013676143705965" lon="12.136791387758004"><ele>270.0</ele><time>2026-04-20T09:13:57.001Z</time></trkpt><trkpt lat="44.01366446745499" lon="12.136912562294711"><ele>270.0</ele><time>2026-04-20T09:13:58.001Z</time></trkpt><trkpt lat="44.01368601469879" lon="12.137015652742011"><ele>269.6</ele><time>2026-04-20T09:13:59.001Z</time></trkpt><trkpt lat="44.01376738356092" lon="12.13706538742154"><ele>269.2</ele><time>2026-04-20T09:14:00.001Z</time></trkpt><trkpt lat="44.01386326936964" lon="12.137034569199532"><ele>268.8</ele><time>2026-04-20T09:14:01.001Z</time></trkpt><trkpt lat="44.01393221131387" lon="12.136920938366048"><ele>268.4</ele><time>2026-04-20T09:14:02.001Z</time></trkpt><trkpt lat="44.01400974250881" lon="12.136788187970732"><ele>268.0</ele><time>2026-04-20T09:14:03.001Z</time></trkpt><trkpt lat="44.014098602744305" lon="12.13664317569792"><ele>266.0</ele><time>2026-04-20T09:14:04.001Z</time></trkpt><trkpt lat="44.014195387400896" lon="12.136504018482976"><ele>264.0</ele><time>2026-04-20T09:14:05.001Z</time></trkpt><trkpt lat="44.01428966933385" lon="12.136369948214492"><ele>262.0</ele><time>2026-04-20T09:14:06.001Z</time></trkpt><trkpt lat="44.014383412494745" lon="12.13625381636175"><ele>260.0</ele><time>2026-04-20T09:14:07.001Z</time></trkpt><trkpt lat="44.014479346198534" lon="12.136151340802163"><ele>260.0</ele><time>2026-04-20T09:14:08.001Z</time></trkpt><trkpt lat="44.01456525730938" lon="12.136040741445788"><ele>260.0</ele><time>2026-04-20T09:14:09.001Z</time></trkpt><trkpt lat="44.01463492300609" lon="12.13590588281446"><ele>260.0</ele><time>2026-04-20T09:14:10.001Z</time></trkpt><trkpt lat="44.01467235306814" lon="12.135766755096133"><ele>260.0</ele><time>2026-04-20T09:14:11.001Z</time></trkpt><trkpt lat="44.01468344308199" lon="12.135630004871595"><ele>260.0</ele><time>2026-04-20T09:14:12.001Z</time></trkpt><trkpt lat="44.014686170415445" lon="12.135507729415288"><ele>259.1666666666667</ele><time>2026-04-20T09:14:13.001Z</time></trkpt><trkpt lat="44.01472208926419" lon="12.135430083912006"><ele>258.33333333333337</ele><time>2026-04-20T09:14:14.001Z</time></trkpt><trkpt lat="44.01478526861746" lon="12.13540032162534"><ele>257.5</ele><time>2026-04-20T09:14:15.001Z</time></trkpt><trkpt lat="44.014851389862834" lon="12.135449838489425"><ele>256.6666666666667</ele><time>2026-04-20T09:14:16.001Z</time></trkpt><trkpt lat="44.01486975715354" lon="12.135576578591477"><ele>255.83333333333334</ele><time>2026-04-20T09:14:17.001Z</time></trkpt><trkpt lat="44.01493012531871" lon="12.135669413571408"><ele>255.0</ele><time>2026-04-20T09:14:18.001Z</time></trkpt><trkpt lat="44.01500051409941" lon="12.135728699663368"><ele>253.0</ele><time>2026-04-20T09:14:19.001Z</time></trkpt><trkpt lat="44.01510455884301" lon="12.13572311911143"><ele>251.0</ele><time>2026-04-20T09:14:20.001Z</time></trkpt><trkpt lat="44.015229267813716" lon="12.13566089871243"><ele>249.0</ele><time>2026-04-20T09:14:21.001Z</time></trkpt><trkpt lat="44.01536880392296" lon="12.135622659583293"><ele>247.0</ele><time>2026-04-20T09:14:22.001Z</time></trkpt><trkpt lat="44.0154951756226" lon="12.135570786229128"><ele>246.75</ele><time>2026-04-20T09:14:23.001Z</time></trkpt><trkpt lat="44.01562046116627" lon="12.135553860359218"><ele>246.5</ele><time>2026-04-20T09:14:24.001Z</time></trkpt><trkpt lat="44.01574402109659" lon="12.135511934913124"><ele>246.25</ele><time>2026-04-20T09:14:25.001Z</time></trkpt><trkpt lat="44.015872254570425" lon="12.135428590679762"><ele>246.0</ele><time>2026-04-20T09:14:26.001Z</time></trkpt><trkpt lat="44.016002747369164" lon="12.135324324776837"><ele>242.66666666666669</ele><time>2026-04-20T09:14:27.001Z</time></trkpt><trkpt lat="44.0161361569274" lon="12.1352193132749"><ele>239.33333333333334</ele><time>2026-04-20T09:14:28.001Z</time></trkpt><trkpt lat="44.016272718151676" lon="12.135124969827539"><ele>236.0</ele><time>2026-04-20T09:14:29.001Z</time></trkpt><trkpt lat="44.016405563663504" lon="12.135038632466758"><ele>236.0</ele><time>2026-04-20T09:14:30.001Z</time></trkpt><trkpt lat="44.01653493775523" lon="12.134954512202562"><ele>236.0</ele><time>2026-04-20T09:14:31.001Z</time></trkpt><trkpt lat="44.0166691572474" lon="12.134905528629595"><ele>236.0</ele><time>2026-04-20T09:14:32.001Z</time></trkpt><trkpt lat="44.016770623490416" lon="12.13480868231575"><ele>236.0</ele><time>2026-04-20T09:14:33.001Z</time></trkpt><trkpt lat="44.01686810692352" lon="12.13472846324466"><ele>232.60000000000002</ele><time>2026-04-20T09:14:34.001Z</time></trkpt><trkpt lat="44.01696834527412" lon="12.134661026119971"><ele>229.20000000000002</ele><time>2026-04-20T09:14:35.001Z</time></trkpt><trkpt lat="44.01707981929093" lon="12.134642864737195"><ele>225.79999999999998</ele><time>2026-04-20T09:14:36.001Z</time></trkpt><trkpt lat="44.01718774158362" lon="12.13469652484239"><ele>222.39999999999998</ele><time>2026-04-20T09:14:37.001Z</time></trkpt><trkpt lat="44.01729251784507" lon="12.134718190522"><ele>219.0</ele><time>2026-04-20T09:14:38.001Z</time></trkpt><trkpt lat="44.017397684407456" lon="12.134746121000761"><ele>218.0</ele><time>2026-04-20T09:14:39.001Z</time></trkpt><trkpt lat="44.01750570495525" lon="12.134718251447605"><ele>217.0</ele><time>2026-04-20T09:14:40.001Z</time></trkpt><trkpt lat="44.017609836564" lon="12.134638304299886"><ele>216.0</ele><time>2026-04-20T09:14:41.001Z</time></trkpt><trkpt lat="44.01770755410426" lon="12.134531475111087"><ele>215.0</ele><time>2026-04-20T09:14:42.001Z</time></trkpt><trkpt lat="44.01780627082164" lon="12.134424627054383"><ele>215.0</ele><time>2026-04-20T09:14:43.001Z</time></trkpt><trkpt lat="44.01791199654834" lon="12.134354885074254"><ele>215.0</ele><time>2026-04-20T09:14:44.001Z</time></trkpt><trkpt lat="44.01803293589657" lon="12.134391198433132"><ele>215.0</ele><time>2026-04-20T09:14:45.001Z</time></trkpt><trkpt lat="44.01815800561638" lon="12.134444722079172"><ele>215.0</ele><time>2026-04-20T09:14:46.001Z</time></trkpt><trkpt lat="44.01829913000478" lon="12.134513509829352"><ele>214.0</ele><time>2026-04-20T09:14:47.001Z</time></trkpt><trkpt lat="44.01844501710999" lon="12.13455856414857"><ele>213.0</ele><time>2026-04-20T09:14:48.001Z</time></trkpt><trkpt lat="44.0185809377454" lon="12.134619166447914"><ele>212.0</ele><time>2026-04-20T09:14:49.001Z</time></trkpt><trkpt lat="44.018706884622446" lon="12.134674787862501"><ele>211.0</ele><time>2026-04-20T09:14:50.001Z</time></trkpt><trkpt lat="44.01883364051089" lon="12.1347124833649"><ele>211.0</ele><time>2026-04-20T09:14:51.001Z</time></trkpt><trkpt lat="44.01895865165492" lon="12.13472676790685"><ele>211.0</ele><time>2026-04-20T09:14:52.001Z</time></trkpt><trkpt lat="44.01907435291346" lon="12.134713543812596"><ele>211.0</ele><time>2026-04-20T09:14:53.001Z</time></trkpt><trkpt lat="44.019189500631036" lon="12.13467686647149"><ele>211.0</ele><time>2026-04-20T09:14:54.001Z</time></trkpt><trkpt lat="44.01930310067638" lon="12.134624501313938"><ele>208.75</ele><time>2026-04-20T09:14:55.001Z</time></trkpt><trkpt lat="44.01941696612777" lon="12.134566201270571"><ele>206.5</ele><time>2026-04-20T09:14:56.001Z</time></trkpt><trkpt lat="44.01953205404389" lon="12.134502082827456"><ele>204.25</ele><time>2026-04-20T09:14:57.001Z</time></trkpt><trkpt lat="44.01964098980174" lon="12.134449742754516"><ele>202.0</ele><time>2026-04-20T09:14:58.001Z</time></trkpt><trkpt lat="44.01975436547757" lon="12.134399119983291"><ele>202.0</ele><time>2026-04-20T09:14:59.001Z</time></trkpt><trkpt lat="44.019864518160915" lon="12.134366675470128"><ele>202.0</ele><time>2026-04-20T09:15:00.001Z</time></trkpt><trkpt lat="44.01998039408113" lon="12.134349281071794"><ele>202.0</ele><time>2026-04-20T09:15:01.001Z</time></trkpt><trkpt lat="44.02009940561303" lon="12.134336056151582"><ele>202.0</ele><time>2026-04-20T09:15:02.001Z</time></trkpt><trkpt lat="44.020219671689645" lon="12.134327649526254"><ele>199.5</ele><time>2026-04-20T09:15:03.001Z</time></trkpt><trkpt lat="44.02034247681179" lon="12.134312125384362"><ele>197.0</ele><time>2026-04-20T09:15:04.001Z</time></trkpt><trkpt lat="44.02046382924252" lon="12.13430153859427"><ele>194.5</ele><time>2026-04-20T09:15:05.001Z</time></trkpt><trkpt lat="44.02058645266498" lon="12.134285870398653"><ele>192.0</ele><time>2026-04-20T09:15:06.001Z</time></trkpt><trkpt lat="44.020692214048026" lon="12.134263146166468"><ele>192.0</ele><time>2026-04-20T09:15:07.001Z</time></trkpt><trkpt lat="44.02078024885389" lon="12.1342106692333"><ele>192.0</ele><time>2026-04-20T09:15:08.001Z</time></trkpt><trkpt lat="44.02085672496653" lon="12.134128917426015"><ele>192.0</ele><time>2026-04-20T09:15:09.001Z</time></trkpt><trkpt lat="44.02091931499567" lon="12.134022114984505"><ele>192.0</ele><time>2026-04-20T09:15:10.001Z</time></trkpt><trkpt lat="44.02097688388372" lon="12.133910893978948"><ele>192.0</ele><time>2026-04-20T09:15:11.001Z</time></trkpt><trkpt lat="44.021044939696765" lon="12.133819152305243"><ele>189.39999999999998</ele><time>2026-04-20T09:15:12.001Z</time></trkpt><trkpt lat="44.021127139013245" lon="12.133754504739484"><ele>186.79999999999998</ele><time>2026-04-20T09:15:13.001Z</time></trkpt><trkpt lat="44.02122136987554" lon="12.133766392531522"><ele>184.2</ele><time>2026-04-20T09:15:14.001Z</time></trkpt><trkpt lat="44.02132169454265" lon="12.133769686448378"><ele>181.6</ele><time>2026-04-20T09:15:15.001Z</time></trkpt><trkpt lat="44.02144449199064" lon="12.133760047567419"><ele>179.0</ele><time>2026-04-20T09:15:16.001Z</time></trkpt><trkpt lat="44.02158043304758" lon="12.133763334378578"><ele>176.5</ele><time>2026-04-20T09:15:17.001Z</time></trkpt><trkpt lat="44.021722995766375" lon="12.133768942085478"><ele>174.0</ele><time>2026-04-20T09:15:18.001Z</time></trkpt><trkpt lat="44.021864499433825" lon="12.13376997798748"><ele>171.5</ele><time>2026-04-20T09:15:19.001Z</time></trkpt><trkpt lat="44.022009539471675" lon="12.133784176568568"><ele>169.0</ele><time>2026-04-20T09:15:20.001Z</time></trkpt><trkpt lat="44.022151373048466" lon="12.13377460928692"><ele>169.0</ele><time>2026-04-20T09:15:21.001Z</time></trkpt><trkpt lat="44.02229871297276" lon="12.133796413548477"><ele>169.0</ele><time>2026-04-20T09:15:22.001Z</time></trkpt><trkpt lat="44.02245258050199" lon="12.133797358799063"><ele>169.0</ele><time>2026-04-20T09:15:23.001Z</time></trkpt><trkpt lat="44.02260590059862" lon="12.133777476009667"><ele>166.5</ele><time>2026-04-20T09:15:24.001Z</time></trkpt><trkpt lat="44.022753404190965" lon="12.133779331595958"><ele>164.0</ele><time>2026-04-20T09:15:25.001Z</time></trkpt><trkpt lat="44.02289350660999" lon="12.133786804214315"><ele>161.5</ele><time>2026-04-20T09:15:26.001Z</time></trkpt><trkpt lat="44.02302632943699" lon="12.13378083213647"><ele>159.0</ele><time>2026-04-20T09:15:27.001Z</time></trkpt><trkpt lat="44.02315620754634" lon="12.133783644758715"><ele>159.0</ele><time>2026-04-20T09:15:28.001Z</time></trkpt><trkpt lat="44.02328192542092" lon="12.133784176912998"><ele>159.0</ele><time>2026-04-20T09:15:29.001Z</time></trkpt><trkpt lat="44.02340395196168" lon="12.133787141541198"><ele>159.0</ele><time>2026-04-20T09:15:30.001Z</time></trkpt><trkpt lat="44.023524994296885" lon="12.133786515350964"><ele>159.0</ele><time>2026-04-20T09:15:31.001Z</time></trkpt><trkpt lat="44.02363592139903" lon="12.133782930416453"><ele>157.8</ele><time>2026-04-20T09:15:32.001Z</time></trkpt><trkpt lat="44.02374512769516" lon="12.133776003566693"><ele>156.60000000000002</ele><time>2026-04-20T09:15:33.001Z</time></trkpt><trkpt lat="44.02384151046162" lon="12.133773037855685"><ele>155.4</ele><time>2026-04-20T09:15:34.001Z</time></trkpt><trkpt lat="44.023917156728224" lon="12.133795562556283"><ele>154.20000000000002</ele><time>2026-04-20T09:15:35.001Z</time></trkpt><trkpt lat="44.024024472211735" lon="12.13386025657338"><ele>153.0</ele><time>2026-04-20T09:15:37.001Z</time></trkpt><trkpt lat="44.02418476390387" lon="12.133893888328945"><ele>151.83333333333334</ele><time>2026-04-20T09:15:39.001Z</time></trkpt><trkpt lat="44.02428408870632" lon="12.133894275057497"><ele>150.66666666666666</ele><time>2026-04-20T09:15:40.001Z</time></trkpt><trkpt lat="44.02436937201765" lon="12.133895874104313"><ele>149.5</ele><time>2026-04-20T09:15:41.001Z</time></trkpt><trkpt lat="44.02444076195224" lon="12.133921888835246"><ele>148.33333333333331</ele><time>2026-04-20T09:15:42.001Z</time></trkpt><trkpt lat="44.02449073612226" lon="12.133975184055494"><ele>147.16666666666666</ele><time>2026-04-20T09:15:43.001Z</time></trkpt><trkpt lat="44.02445187469097" lon="12.134123916086054"><ele>146.0</ele><time>2026-04-20T09:15:45.001Z</time></trkpt><trkpt lat="44.024383696529185" lon="12.134144323567488"><ele>146.0</ele><time>2026-04-20T09:15:46.001Z</time></trkpt><trkpt lat="44.02430111411062" lon="12.134160213396662"><ele>146.0</ele><time>2026-04-20T09:15:47.001Z</time></trkpt><trkpt lat="44.02421295806633" lon="12.13420109981177"><ele>146.0</ele><time>2026-04-20T09:15:48.001Z</time></trkpt><trkpt lat="44.02412997746045" lon="12.134260640792618"><ele>146.0</ele><time>2026-04-20T09:15:49.001Z</time></trkpt><trkpt lat="44.024052690236175" lon="12.134296644562859"><ele>146.0</ele><time>2026-04-20T09:15:50.001Z</time></trkpt><trkpt lat="44.02398989273099" lon="12.134346425670204"><ele>146.0</ele><time>2026-04-20T09:15:51.001Z</time></trkpt><trkpt lat="44.02396065773712" lon="12.134512627351718"><ele>146.0</ele><time>2026-04-20T09:15:53.001Z</time></trkpt><trkpt lat="44.024053593978174" lon="12.134568144630641"><ele>146.0</ele><time>2026-04-20T09:15:54.001Z</time></trkpt><trkpt lat="44.02415148723502" lon="12.134512990195546"><ele>146.0</ele><time>2026-04-20T09:15:55.001Z</time></trkpt><trkpt lat="44.02425146635077" lon="12.134470990437729"><ele>146.0</ele><time>2026-04-20T09:15:56.001Z</time></trkpt><trkpt lat="44.024359307920136" lon="12.134493357446061"><ele>146.0</ele><time>2026-04-20T09:15:57.001Z</time></trkpt><trkpt lat="44.02447670272483" lon="12.13453939568718"><ele>146.0</ele><time>2026-04-20T09:15:58.001Z</time></trkpt><trkpt lat="44.02458556880391" lon="12.134614772337827"><ele>146.0</ele><time>2026-04-20T09:15:59.001Z</time></trkpt><trkpt lat="44.02469907538651" lon="12.134717686225386"><ele>146.0</ele><time>2026-04-20T09:16:00.001Z</time></trkpt><trkpt lat="44.02479132318087" lon="12.134837668555107"><ele>146.0</ele><time>2026-04-20T09:16:01.001Z</time></trkpt><trkpt lat="44.02488875070409" lon="12.134936117047294"><ele>144.8</ele><time>2026-04-20T09:16:02.001Z</time></trkpt><trkpt lat="44.024972447475044" lon="12.135047006157723"><ele>143.6</ele><time>2026-04-20T09:16:03.001Z</time></trkpt><trkpt lat="44.0250562140558" lon="12.13514522719007"><ele>142.4</ele><time>2026-04-20T09:16:04.001Z</time></trkpt><trkpt lat="44.02514370947367" lon="12.135216548907316"><ele>141.2</ele><time>2026-04-20T09:16:05.001Z</time></trkpt><trkpt lat="44.02523435817994" lon="12.135245032006052"><ele>140.0</ele><time>2026-04-20T09:16:06.001Z</time></trkpt><trkpt lat="44.025330191494504" lon="12.135215270600039"><ele>138.25</ele><time>2026-04-20T09:16:07.001Z</time></trkpt><trkpt lat="44.02543343367912" lon="12.135152648641485"><ele>136.5</ele><time>2026-04-20T09:16:08.001Z</time></trkpt><trkpt lat="44.0255507988209" lon="12.13508820434954"><ele>134.75</ele><time>2026-04-20T09:16:09.001Z</time></trkpt><trkpt lat="44.02566939819395" lon="12.135046527102531"><ele>133.0</ele><time>2026-04-20T09:16:10.001Z</time></trkpt><trkpt lat="44.02577989999355" lon="12.135026666470521"><ele>130.6</ele><time>2026-04-20T09:16:11.001Z</time></trkpt><trkpt lat="44.025876586676056" lon="12.134987495460598"><ele>128.20000000000002</ele><time>2026-04-20T09:16:12.001Z</time></trkpt><trkpt lat="44.02595233447384" lon="12.134897972286211"><ele>125.8</ele><time>2026-04-20T09:16:13.001Z</time></trkpt><trkpt lat="44.026007757009474" lon="12.134761172151986"><ele>123.4</ele><time>2026-04-20T09:16:14.001Z</time></trkpt><trkpt lat="44.026035778093686" lon="12.134606862304661"><ele>121.0</ele><time>2026-04-20T09:16:15.001Z</time></trkpt><trkpt lat="44.02604265179281" lon="12.134477085348134"><ele>121.0</ele><time>2026-04-20T09:16:16.001Z</time></trkpt><trkpt lat="44.026026826320624" lon="12.134211190543253"><ele>121.0</ele><time>2026-04-20T09:16:18.001Z</time></trkpt><trkpt lat="44.02598625680282" lon="12.134048051868463"><ele>121.0</ele><time>2026-04-20T09:16:19.001Z</time></trkpt><trkpt lat="44.02592631830341" lon="12.133853133484596"><ele>119.6</ele><time>2026-04-20T09:16:20.001Z</time></trkpt><trkpt lat="44.025889373530276" lon="12.133654151168288"><ele>118.19999999999999</ele><time>2026-04-20T09:16:21.001Z</time></trkpt><trkpt lat="44.025855798652614" lon="12.13349296844866"><ele>116.80000000000001</ele><time>2026-04-20T09:16:22.001Z</time></trkpt><trkpt lat="44.025841611114174" lon="12.133371251608187"><ele>115.4</ele><time>2026-04-20T09:16:23.001Z</time></trkpt><trkpt lat="44.02582853168134" lon="12.133284164616109"><ele>114.0</ele><time>2026-04-20T09:16:24.001Z</time></trkpt><trkpt lat="44.0258721583991" lon="12.133209721801649"><ele>113.25</ele><time>2026-04-20T09:16:25.001Z</time></trkpt><trkpt lat="44.025880676114966" lon="12.133122815875996"><ele>112.5</ele><time>2026-04-20T09:16:26.001Z</time></trkpt><trkpt lat="44.02590414141452" lon="12.133031593435161"><ele>111.75</ele><time>2026-04-20T09:16:27.001Z</time></trkpt><trkpt lat="44.02594116225524" lon="12.132919057404433"><ele>111.0</ele><time>2026-04-20T09:16:29.001Z</time></trkpt><trkpt lat="44.02635056280992" lon="12.133098394701031"><ele>111.0</ele><time>2026-04-20T09:16:31.001Z</time></trkpt><trkpt lat="44.02642798122516" lon="12.133078911514016"><ele>111.0</ele><time>2026-04-20T09:16:32.001Z</time></trkpt><trkpt lat="44.026510684276694" lon="12.133029977761646"><ele>111.0</ele><time>2026-04-20T09:16:33.001Z</time></trkpt><trkpt lat="44.02659122533608" lon="12.132994007793847"><ele>111.0</ele><time>2026-04-20T09:16:34.001Z</time></trkpt><trkpt lat="44.026656326060035" lon="12.132993451798846"><ele>111.0</ele><time>2026-04-20T09:16:35.001Z</time></trkpt><trkpt lat="44.026778286643086" lon="12.133037264468792"><ele>111.0</ele><time>2026-04-20T09:16:37.001Z</time></trkpt><trkpt lat="44.02685946433298" lon="12.13313710085806"><ele>110.8</ele><time>2026-04-20T09:16:39.001Z</time></trkpt><trkpt lat="44.026916667423414" lon="12.133277947915794"><ele>110.6</ele><time>2026-04-20T09:16:41.001Z</time></trkpt><trkpt lat="44.02699748910628" lon="12.133394498331908"><ele>110.4</ele><time>2026-04-20T09:16:43.001Z</time></trkpt><trkpt lat="44.02704261213757" lon="12.13346482696643"><ele>110.2</ele><time>2026-04-20T09:16:44.001Z</time></trkpt><trkpt lat="44.027098581766275" lon="12.133555377435485"><ele>110.0</ele><time>2026-04-20T09:16:46.001Z</time></trkpt><trkpt lat="44.02716335869519" lon="12.1335749043118"><ele>109.99999999999999</ele><time>2026-04-20T09:16:50.001Z</time></trkpt><trkpt lat="44.02722977874547" lon="12.133596398832122"><ele>110.0</ele><time>2026-04-20T09:16:58.001Z</time></trkpt><trkpt lat="44.02731468787566" lon="12.133560367996706"><ele>110.0</ele><time>2026-04-20T09:17:00.001Z</time></trkpt><trkpt lat="44.02740951343664" lon="12.133503951968923"><ele>110.0</ele><time>2026-04-20T09:17:02.001Z</time></trkpt><trkpt lat="44.0274684604624" lon="12.133463428140733"><ele>109.99999999999999</ele><time>2026-04-20T09:17:03.001Z</time></trkpt><trkpt lat="44.02752957560068" lon="12.133415016211112"><ele>110.0</ele><time>2026-04-20T09:17:04.001Z</time></trkpt><trkpt lat="44.02758688572113" lon="12.133353755793465"><ele>109.99999999999999</ele><time>2026-04-20T09:17:05.001Z</time></trkpt><trkpt lat="44.02764118794422" lon="12.133285422468052"><ele>110.0</ele><time>2026-04-20T09:17:06.001Z</time></trkpt><trkpt lat="44.02768014019278" lon="12.133194830055793"><ele>110.0</ele><time>2026-04-20T09:17:07.001Z</time></trkpt><trkpt lat="44.02771503434796" lon="12.133091300151413"><ele>110.0</ele><time>2026-04-20T09:17:08.001Z</time></trkpt><trkpt lat="44.02775183214472" lon="12.132985794560556"><ele>109.99999999999999</ele><time>2026-04-20T09:17:09.001Z</time></trkpt><trkpt lat="44.02779740514464" lon="12.132879328704442"><ele>110.0</ele><time>2026-04-20T09:17:10.001Z</time></trkpt><trkpt lat="44.02786864847348" lon="12.1327985616648"><ele>110.0</ele><time>2026-04-20T09:17:11.001Z</time></trkpt><trkpt lat="44.027911430191615" lon="12.132697771626018"><ele>110.0</ele><time>2026-04-20T09:17:12.001Z</time></trkpt><trkpt lat="44.02796248535114" lon="12.132569262796794"><ele>110.0</ele><time>2026-04-20T09:17:13.001Z</time></trkpt><trkpt lat="44.02801225675156" lon="12.13243463847931"><ele>110.0</ele><time>2026-04-20T09:17:14.001Z</time></trkpt><trkpt lat="44.02807390981848" lon="12.132330451354138"><ele>110.0</ele><time>2026-04-20T09:17:15.001Z</time></trkpt><trkpt lat="44.028113340077624" lon="12.132198527285146"><ele>110.5</ele><time>2026-04-20T09:17:16.001Z</time></trkpt><trkpt lat="44.028079708528175" lon="12.13227840068707"><ele>111.0</ele><time>2026-04-20T09:17:17.001Z</time></trkpt><trkpt lat="44.02815744123115" lon="12.132095768223001"><ele>111.5</ele><time>2026-04-20T09:17:19.001Z</time></trkpt><trkpt lat="44.02834800052755" lon="12.131989946110409"><ele>112.0</ele><time>2026-04-20T09:17:21.001Z</time></trkpt><trkpt lat="44.028395899615106" lon="12.131905513877937"><ele>112.39999999999999</ele><time>2026-04-20T09:17:22.001Z</time></trkpt><trkpt lat="44.02844226408009" lon="12.131817379720417"><ele>112.79999999999998</ele><time>2026-04-20T09:17:23.001Z</time></trkpt><trkpt lat="44.02846653753283" lon="12.131735223560494"><ele>113.2</ele><time>2026-04-20T09:17:25.001Z</time></trkpt><trkpt lat="44.02837944169075" lon="12.131577382427846"><ele>113.6</ele><time>2026-04-20T09:17:28.001Z</time></trkpt><trkpt lat="44.02829220575477" lon="12.131497117181008"><ele>114.0</ele><time>2026-04-20T09:17:29.001Z</time></trkpt><trkpt lat="44.02817971138707" lon="12.131411084602528"><ele>115.0</ele><time>2026-04-20T09:17:30.001Z</time></trkpt><trkpt lat="44.02806667701075" lon="12.131332382717346"><ele>116.0</ele><time>2026-04-20T09:17:31.001Z</time></trkpt><trkpt lat="44.02795030733029" lon="12.131265771519544"><ele>117.0</ele><time>2026-04-20T09:17:32.001Z</time></trkpt><trkpt lat="44.02782517638573" lon="12.13119914166909"><ele>118.0</ele><time>2026-04-20T09:17:33.001Z</time></trkpt><trkpt lat="44.02769712016102" lon="12.131125620537407"><ele>118.0</ele><time>2026-04-20T09:17:34.001Z</time></trkpt><trkpt lat="44.02758166256488" lon="12.131071322497519"><ele>118.0</ele><time>2026-04-20T09:17:35.001Z</time></trkpt><trkpt lat="44.0274420643704" lon="12.13099211026017"><ele>118.0</ele><time>2026-04-20T09:17:36.001Z</time></trkpt><trkpt lat="44.027282027588356" lon="12.130902960091376"><ele>118.0</ele><time>2026-04-20T09:17:37.001Z</time></trkpt><trkpt lat="44.027148462274404" lon="12.1308067569657"><ele>118.0</ele><time>2026-04-20T09:17:38.001Z</time></trkpt><trkpt lat="44.027009561671456" lon="12.130727716798066"><ele>118.0</ele><time>2026-04-20T09:17:39.001Z</time></trkpt><trkpt lat="44.026886778495054" lon="12.130621340232832"><ele>118.0</ele><time>2026-04-20T09:17:40.001Z</time></trkpt><trkpt lat="44.02676286636728" lon="12.130560092895191"><ele>118.0</ele><time>2026-04-20T09:17:41.001Z</time></trkpt><trkpt lat="44.02660709367244" lon="12.130510981818604"><ele>118.0</ele><time>2026-04-20T09:17:42.001Z</time></trkpt><trkpt lat="44.026434661367915" lon="12.130433285829179"><ele>118.0</ele><time>2026-04-20T09:17:43.001Z</time></trkpt><trkpt lat="44.02625212125081" lon="12.13036438371573"><ele>118.0</ele><time>2026-04-20T09:17:44.001Z</time></trkpt><trkpt lat="44.02607054204406" lon="12.130319306599949"><ele>118.0</ele><time>2026-04-20T09:17:45.001Z</time></trkpt><trkpt lat="44.02591785549902" lon="12.130228756820143"><ele>118.0</ele><time>2026-04-20T09:17:46.001Z</time></trkpt><trkpt lat="44.02574268095182" lon="12.130158804866664"><ele>118.0</ele><time>2026-04-20T09:17:47Z</time></trkpt><trkpt lat="44.02561953707643" lon="12.130074231687253"><ele>117.0</ele><time>2026-04-20T09:17:48Z</time></trkpt><trkpt lat="44.025501490252246" lon="12.129993711336208"><ele>116.0</ele><time>2026-04-20T09:17:49Z</time></trkpt><trkpt lat="44.02539982074896" lon="12.129880058067002"><ele>115.0</ele><time>2026-04-20T09:17:50Z</time></trkpt><trkpt lat="44.02529298450014" lon="12.1297662852573"><ele>114.0</ele><time>2026-04-20T09:17:51Z</time></trkpt><trkpt lat="44.02520744355937" lon="12.129600439494885"><ele>114.0</ele><time>2026-04-20T09:17:52Z</time></trkpt><trkpt lat="44.025112155558254" lon="12.129415007670996"><ele>114.0</ele><time>2026-04-20T09:17:53Z</time></trkpt><trkpt lat="44.025000718707375" lon="12.129200803919217"><ele>114.0</ele><time>2026-04-20T09:17:54Z</time></trkpt><trkpt lat="44.024885779050706" lon="12.12896661663203"><ele>114.33333333333334</ele><time>2026-04-20T09:17:55Z</time></trkpt><trkpt lat="44.02481002798396" lon="12.128814939308254"><ele>114.66666666666667</ele><time>2026-04-20T09:17:56Z</time></trkpt><trkpt lat="44.02468501157893" lon="12.128636172013097"><ele>115.0</ele><time>2026-04-20T09:17:57Z</time></trkpt><trkpt lat="44.02456028666099" lon="12.128452202224825"><ele>115.0</ele><time>2026-04-20T09:17:58Z</time></trkpt><trkpt lat="44.02442303648589" lon="12.12827947584436"><ele>115.0</ele><time>2026-04-20T09:17:59Z</time></trkpt><trkpt lat="44.024268591851026" lon="12.128123548295001"><ele>115.0</ele><time>2026-04-20T09:18:00Z</time></trkpt><trkpt lat="44.024116421888195" lon="12.127973575815139"><ele>115.33333333333334</ele><time>2026-04-20T09:18:01Z</time></trkpt><trkpt lat="44.02396686909267" lon="12.12782148078716"><ele>115.66666666666666</ele><time>2026-04-20T09:18:02Z</time></trkpt><trkpt lat="44.02381259771958" lon="12.127669715738465"><ele>116.0</ele><time>2026-04-20T09:18:03Z</time></trkpt><trkpt lat="44.02365363492072" lon="12.127519756110448"><ele>116.0</ele><time>2026-04-20T09:18:04Z</time></trkpt><trkpt lat="44.02349844546205" lon="12.12735699418929"><ele>116.0</ele><time>2026-04-20T09:18:05Z</time></trkpt><trkpt lat="44.02334457560224" lon="12.127204622297883"><ele>116.0</ele><time>2026-04-20T09:18:06Z</time></trkpt><trkpt lat="44.02318746954203" lon="12.12704633151794"><ele>116.33333333333333</ele><time>2026-04-20T09:18:07Z</time></trkpt><trkpt lat="44.02303946844029" lon="12.126884146599886"><ele>116.66666666666666</ele><time>2026-04-20T09:18:08Z</time></trkpt><trkpt lat="44.0228815405032" lon="12.126728855543845"><ele>117.0</ele><time>2026-04-20T09:18:09.001Z</time></trkpt><trkpt lat="44.02272656552803" lon="12.126567431215586"><ele>117.66666666666666</ele><time>2026-04-20T09:18:10Z</time></trkpt><trkpt lat="44.022566608553234" lon="12.126413675128584"><ele>118.33333333333333</ele><time>2026-04-20T09:18:11Z</time></trkpt><trkpt lat="44.02241427935157" lon="12.126247315097133"><ele>119.0</ele><time>2026-04-20T09:18:12Z</time></trkpt><trkpt lat="44.022255303667016" lon="12.126070594368585"><ele>119.0</ele><time>2026-04-20T09:18:13Z</time></trkpt><trkpt lat="44.022065974614236" lon="12.125876512046093"><ele>119.0</ele><time>2026-04-20T09:18:14Z</time></trkpt><trkpt lat="44.02191665376398" lon="12.125723197238552"><ele>119.0</ele><time>2026-04-20T09:18:15Z</time></trkpt><trkpt lat="44.02174654234797" lon="12.125548537239395"><ele>119.33333333333333</ele><time>2026-04-20T09:18:16Z</time></trkpt><trkpt lat="44.02158579429577" lon="12.125383489298077"><ele>119.66666666666666</ele><time>2026-04-20T09:18:17Z</time></trkpt><trkpt lat="44.02141847010567" lon="12.125211667714012"><ele>120.0</ele><time>2026-04-20T09:18:18Z</time></trkpt><trkpt lat="44.021252414144826" lon="12.12504042251545"><ele>120.0</ele><time>2026-04-20T09:18:19Z</time></trkpt><trkpt lat="44.02109497139052" lon="12.124878081629243"><ele>120.0</ele><time>2026-04-20T09:18:20Z</time></trkpt><trkpt lat="44.02091611325552" lon="12.12469366427924"><ele>120.0</ele><time>2026-04-20T09:18:21Z</time></trkpt><trkpt lat="44.02074535401825" lon="12.124519262748802"><ele>120.0</ele><time>2026-04-20T09:18:22Z</time></trkpt><trkpt lat="44.02057517853172" lon="12.124370700287844"><ele>120.0</ele><time>2026-04-20T09:18:23Z</time></trkpt><trkpt lat="44.020417769911006" lon="12.124194307561309"><ele>120.0</ele><time>2026-04-20T09:18:24Z</time></trkpt><trkpt lat="44.02025583391157" lon="12.124007677515642"><ele>120.33333333333334</ele><time>2026-04-20T09:18:25Z</time></trkpt><trkpt lat="44.02009097107008" lon="12.123841375783746"><ele>120.66666666666667</ele><time>2026-04-20T09:18:26Z</time></trkpt><trkpt lat="44.01992783317737" lon="12.123674008966569"><ele>121.0</ele><time>2026-04-20T09:18:27Z</time></trkpt><trkpt lat="44.019764792532506" lon="12.123506618604473"><ele>121.0</ele><time>2026-04-20T09:18:28Z</time></trkpt><trkpt lat="44.019585190098155" lon="12.123322224648675"><ele>121.0</ele><time>2026-04-20T09:18:29Z</time></trkpt><trkpt lat="44.019406397473155" lon="12.123138740009974"><ele>121.0</ele><time>2026-04-20T09:18:30Z</time></trkpt><trkpt lat="44.01933962233516" lon="12.123070941067754"><ele>122.0</ele><time>2026-04-20T09:18:31Z</time></trkpt><trkpt lat="44.01920428476634" lon="12.122933528584111"><ele>123.0</ele><time>2026-04-20T09:18:32Z</time></trkpt><trkpt lat="44.01907658414532" lon="12.122803870041786"><ele>124.0</ele><time>2026-04-20T09:18:33Z</time></trkpt><trkpt lat="44.01894051806106" lon="12.122679018760218"><ele>124.0</ele><time>2026-04-20T09:18:34Z</time></trkpt><trkpt lat="44.01880459839784" lon="12.122546127269546"><ele>124.0</ele><time>2026-04-20T09:18:35Z</time></trkpt><trkpt lat="44.01867045421919" lon="12.122395038408017"><ele>124.0</ele><time>2026-04-20T09:18:36Z</time></trkpt><trkpt lat="44.01853005307231" lon="12.122278547573568"><ele>125.33333333333334</ele><time>2026-04-20T09:18:37Z</time></trkpt><trkpt lat="44.018412204206136" lon="12.122174061350323"><ele>126.66666666666666</ele><time>2026-04-20T09:18:38Z</time></trkpt><trkpt lat="44.01825958897058" lon="12.122106819510659"><ele>128.0</ele><time>2026-04-20T09:18:39Z</time></trkpt><trkpt lat="44.01808172292255" lon="12.122029111115056"><ele>128.0</ele><time>2026-04-20T09:18:40Z</time></trkpt><trkpt lat="44.01795218334659" lon="12.12200638071618"><ele>128.0</ele><time>2026-04-20T09:18:41Z</time></trkpt><trkpt lat="44.017767202565494" lon="12.12191652165312"><ele>128.0</ele><time>2026-04-20T09:18:42Z</time></trkpt><trkpt lat="44.01759681238407" lon="12.121853045226405"><ele>127.33333333333333</ele><time>2026-04-20T09:18:43Z</time></trkpt><trkpt lat="44.0174231763699" lon="12.121812866343856"><ele>126.66666666666666</ele><time>2026-04-20T09:18:44Z</time></trkpt><trkpt lat="44.0172308892532" lon="12.121758985569654"><ele>126.0</ele><time>2026-04-20T09:18:45Z</time></trkpt><trkpt lat="44.01706754968527" lon="12.121689857650637"><ele>126.0</ele><time>2026-04-20T09:18:46Z</time></trkpt><trkpt lat="44.01690597584521" lon="12.121609264082258"><ele>126.0</ele><time>2026-04-20T09:18:47Z</time></trkpt><trkpt lat="44.01670383136699" lon="12.1215472941994"><ele>126.0</ele><time>2026-04-20T09:18:48Z</time></trkpt><trkpt lat="44.01652210906166" lon="12.121476114212879"><ele>127.33333333333334</ele><time>2026-04-20T09:18:49Z</time></trkpt><trkpt lat="44.016306289308176" lon="12.121368603570744"><ele>128.66666666666669</ele><time>2026-04-20T09:18:50Z</time></trkpt><trkpt lat="44.01615322323499" lon="12.121326018011771"><ele>130.0</ele><time>2026-04-20T09:18:51Z</time></trkpt><trkpt lat="44.015977179097646" lon="12.12125612274422"><ele>128.0</ele><time>2026-04-20T09:18:52Z</time></trkpt><trkpt lat="44.015812913327274" lon="12.121147373087954"><ele>126.0</ele><time>2026-04-20T09:18:53Z</time></trkpt><trkpt lat="44.015642477215025" lon="12.121026401914529"><ele>124.0</ele><time>2026-04-20T09:18:54Z</time></trkpt><trkpt lat="44.0154750396717" lon="12.120886508237229"><ele>124.0</ele><time>2026-04-20T09:18:55Z</time></trkpt><trkpt lat="44.01530889684932" lon="12.12074933114955"><ele>124.0</ele><time>2026-04-20T09:18:56Z</time></trkpt><trkpt lat="44.01513492689234" lon="12.120619496795078"><ele>124.0</ele><time>2026-04-20T09:18:57Z</time></trkpt><trkpt lat="44.01496128781176" lon="12.120484316837365"><ele>124.33333333333334</ele><time>2026-04-20T09:18:58Z</time></trkpt><trkpt lat="44.0147948520134" lon="12.120359618944436"><ele>124.66666666666666</ele><time>2026-04-20T09:18:59Z</time></trkpt><trkpt lat="44.014628169578174" lon="12.120229174516252"><ele>125.0</ele><time>2026-04-20T09:19:00Z</time></trkpt><trkpt lat="44.014458539798646" lon="12.120103943583057"><ele>125.0</ele><time>2026-04-20T09:19:01Z</time></trkpt><trkpt lat="44.01428880873253" lon="12.119982991231206"><ele>125.0</ele><time>2026-04-20T09:19:02Z</time></trkpt><trkpt lat="44.01412398223826" lon="12.119852621207592"><ele>125.0</ele><time>2026-04-20T09:19:03Z</time></trkpt><trkpt lat="44.01396318705594" lon="12.119725525533363"><ele>125.33333333333333</ele><time>2026-04-20T09:19:04Z</time></trkpt><trkpt lat="44.013795007412824" lon="12.119596117488497"><ele>125.66666666666666</ele><time>2026-04-20T09:19:05Z</time></trkpt><trkpt lat="44.01363055422981" lon="12.119471427724324"><ele>126.0</ele><time>2026-04-20T09:19:06Z</time></trkpt><trkpt lat="44.01346583586438" lon="12.119344641820687"><ele>126.33333333333334</ele><time>2026-04-20T09:19:07Z</time></trkpt><trkpt lat="44.01330079068119" lon="12.119221142810893"><ele>126.66666666666667</ele><time>2026-04-20T09:19:08Z</time></trkpt><trkpt lat="44.01313774646566" lon="12.119093894885731"><ele>127.0</ele><time>2026-04-20T09:19:09Z</time></trkpt><trkpt lat="44.01297723196965" lon="12.118966006879857"><ele>127.0</ele><time>2026-04-20T09:19:10Z</time></trkpt><trkpt lat="44.012813559149144" lon="12.118844563548427"><ele>127.0</ele><time>2026-04-20T09:19:11Z</time></trkpt><trkpt lat="44.012648570729944" lon="12.118721177295948"><ele>127.0</ele><time>2026-04-20T09:19:12Z</time></trkpt><trkpt lat="44.01248641118261" lon="12.118597934210827"><ele>127.66666666666667</ele><time>2026-04-20T09:19:13Z</time></trkpt><trkpt lat="44.0123218272325" lon="12.118472593190834"><ele>128.33333333333334</ele><time>2026-04-20T09:19:14Z</time></trkpt><trkpt lat="44.012159012226995" lon="12.118346650070478"><ele>129.0</ele><time>2026-04-20T09:19:15Z</time></trkpt><trkpt lat="44.011994886913556" lon="12.118224397509984"><ele>129.33333333333334</ele><time>2026-04-20T09:19:16Z</time></trkpt><trkpt lat="44.011832412378325" lon="12.118105781721352"><ele>129.66666666666669</ele><time>2026-04-20T09:19:17Z</time></trkpt><trkpt lat="44.011670204521636" lon="12.11798411400003"><ele>130.0</ele><time>2026-04-20T09:19:18Z</time></trkpt><trkpt lat="44.011504357076994" lon="12.117869129752865"><ele>130.66666666666669</ele><time>2026-04-20T09:19:19Z</time></trkpt><trkpt lat="44.01134765849726" lon="12.117744132217569"><ele>131.33333333333334</ele><time>2026-04-20T09:19:20Z</time></trkpt><trkpt lat="44.011188269964144" lon="12.117620329938392"><ele>132.0</ele><time>2026-04-20T09:19:21Z</time></trkpt><trkpt lat="44.01103459088116" lon="12.117500848811286"><ele>132.66666666666666</ele><time>2026-04-20T09:19:22Z</time></trkpt><trkpt lat="44.010878503253096" lon="12.117376546624008"><ele>133.33333333333331</ele><time>2026-04-20T09:19:23Z</time></trkpt><trkpt lat="44.010729430808716" lon="12.117259343077741"><ele>134.0</ele><time>2026-04-20T09:19:24Z</time></trkpt><trkpt lat="44.01057803189883" lon="12.11714810957013"><ele>134.0</ele><time>2026-04-20T09:19:25Z</time></trkpt><trkpt lat="44.010425351733694" lon="12.117042361825682"><ele>134.0</ele><time>2026-04-20T09:19:26Z</time></trkpt><trkpt lat="44.0102833631344" lon="12.11695839929774"><ele>134.0</ele><time>2026-04-20T09:19:27Z</time></trkpt><trkpt lat="44.01014037666026" lon="12.116895405295152"><ele>134.0</ele><time>2026-04-20T09:19:28Z</time></trkpt><trkpt lat="44.010003563620714" lon="12.116839541992427"><ele>134.0</ele><time>2026-04-20T09:19:29Z</time></trkpt><trkpt lat="44.00987344127587" lon="12.116774650872374"><ele>134.0</ele><time>2026-04-20T09:19:30Z</time></trkpt><trkpt lat="44.00974344018404" lon="12.11675627106876"><ele>134.0</ele><time>2026-04-20T09:19:31Z</time></trkpt><trkpt lat="44.009615121939774" lon="12.11672469770966"><ele>134.25</ele><time>2026-04-20T09:19:32Z</time></trkpt><trkpt lat="44.0094864151204" lon="12.116698900138672"><ele>134.5</ele><time>2026-04-20T09:19:33Z</time></trkpt><trkpt lat="44.00935383314569" lon="12.1166823156392"><ele>134.75</ele><time>2026-04-20T09:19:34Z</time></trkpt><trkpt lat="44.00922057312972" lon="12.11668094238694"><ele>135.0</ele><time>2026-04-20T09:19:35Z</time></trkpt><trkpt lat="44.00908729097241" lon="12.116693284795002"><ele>135.25</ele><time>2026-04-20T09:19:36Z</time></trkpt><trkpt lat="44.0089511283828" lon="12.11671731282687"><ele>135.5</ele><time>2026-04-20T09:19:37Z</time></trkpt><trkpt lat="44.00881761721316" lon="12.116755906715609"><ele>135.75</ele><time>2026-04-20T09:19:38Z</time></trkpt><trkpt lat="44.00868201233708" lon="12.116797606705369"><ele>136.0</ele><time>2026-04-20T09:19:39Z</time></trkpt><trkpt lat="44.00854830101867" lon="12.116843507078261"><ele>136.0</ele><time>2026-04-20T09:19:40Z</time></trkpt><trkpt lat="44.008414167687356" lon="12.116890355080947"><ele>136.0</ele><time>2026-04-20T09:19:41Z</time></trkpt><trkpt lat="44.008277126698694" lon="12.11693245902827"><ele>136.0</ele><time>2026-04-20T09:19:42Z</time></trkpt><trkpt lat="44.00814157991486" lon="12.116978995603867"><ele>136.0</ele><time>2026-04-20T09:19:43Z</time></trkpt><trkpt lat="44.008003059335124" lon="12.117020611405183"><ele>136.25</ele><time>2026-04-20T09:19:44.001Z</time></trkpt><trkpt lat="44.007864289568694" lon="12.117065985157405"><ele>136.5</ele><time>2026-04-20T09:19:45.001Z</time></trkpt><trkpt lat="44.007722382415814" lon="12.11711781922422"><ele>136.75</ele><time>2026-04-20T09:19:46.001Z</time></trkpt><trkpt lat="44.00758118145731" lon="12.117160882826512"><ele>137.0</ele><time>2026-04-20T09:19:47.001Z</time></trkpt><trkpt lat="44.00743556178537" lon="12.117201038592816"><ele>137.75</ele><time>2026-04-20T09:19:48.001Z</time></trkpt><trkpt lat="44.00728859331571" lon="12.117232539800128"><ele>138.5</ele><time>2026-04-20T09:19:49.001Z</time></trkpt><trkpt lat="44.00714170446736" lon="12.11725416565679"><ele>139.25</ele><time>2026-04-20T09:19:50.001Z</time></trkpt><trkpt lat="44.006994035461105" lon="12.117267530481689"><ele>140.0</ele><time>2026-04-20T09:19:51.001Z</time></trkpt><trkpt lat="44.006843857927265" lon="12.117271016732465"><ele>140.0</ele><time>2026-04-20T09:19:52.001Z</time></trkpt><trkpt lat="44.00669633459393" lon="12.117266258908543"><ele>140.0</ele><time>2026-04-20T09:19:53Z</time></trkpt><trkpt lat="44.00654695704592" lon="12.11724944928341"><ele>140.0</ele><time>2026-04-20T09:19:54Z</time></trkpt><trkpt lat="44.00639891598506" lon="12.11722630867768"><ele>140.0</ele><time>2026-04-20T09:19:55Z</time></trkpt><trkpt lat="44.00625182564279" lon="12.1171942602726"><ele>140.5</ele><time>2026-04-20T09:19:56Z</time></trkpt><trkpt lat="44.00610564516755" lon="12.117158628808234"><ele>141.0</ele><time>2026-04-20T09:19:57Z</time></trkpt><trkpt lat="44.00596296784151" lon="12.11712655612326"><ele>141.5</ele><time>2026-04-20T09:19:58Z</time></trkpt><trkpt lat="44.00582114870144" lon="12.117093088491057"><ele>142.0</ele><time>2026-04-20T09:19:59Z</time></trkpt><trkpt lat="44.00567979180825" lon="12.117067151006003"><ele>142.0</ele><time>2026-04-20T09:20:00Z</time></trkpt><trkpt lat="44.005539943745134" lon="12.117035864779822"><ele>142.0</ele><time>2026-04-20T09:20:01Z</time></trkpt><trkpt lat="44.00540098983935" lon="12.116989504573096"><ele>142.0</ele><time>2026-04-20T09:20:02Z</time></trkpt><trkpt lat="44.005266084844635" lon="12.116932010041221"><ele>142.0</ele><time>2026-04-20T09:20:03Z</time></trkpt><trkpt lat="44.00513410671228" lon="12.116852838775014"><ele>142.0</ele><time>2026-04-20T09:20:04Z</time></trkpt><trkpt lat="44.00500652814348" lon="12.116754879409656"><ele>142.0</ele><time>2026-04-20T09:20:05Z</time></trkpt><trkpt lat="44.00488332168661" lon="12.116642417061936"><ele>142.0</ele><time>2026-04-20T09:20:06Z</time></trkpt><trkpt lat="44.004764244898944" lon="12.1165165998583"><ele>142.0</ele><time>2026-04-20T09:20:07Z</time></trkpt><trkpt lat="44.00464071397733" lon="12.116393434350417"><ele>142.66666666666669</ele><time>2026-04-20T09:20:08Z</time></trkpt><trkpt lat="44.00451488209505" lon="12.116272121189677"><ele>143.33333333333334</ele><time>2026-04-20T09:20:09Z</time></trkpt><trkpt lat="44.00438615566184" lon="12.116150590172463"><ele>144.0</ele><time>2026-04-20T09:20:10Z</time></trkpt><trkpt lat="44.004260292621375" lon="12.116020600621594"><ele>143.33333333333334</ele><time>2026-04-20T09:20:11Z</time></trkpt><trkpt lat="44.00413389666814" lon="12.11589876797971"><ele>142.66666666666669</ele><time>2026-04-20T09:20:12Z</time></trkpt><trkpt lat="44.004014284853646" lon="12.115767455907049"><ele>142.0</ele><time>2026-04-20T09:20:13Z</time></trkpt><trkpt lat="44.003905368741755" lon="12.115619829700671"><ele>142.0</ele><time>2026-04-20T09:20:14Z</time></trkpt><trkpt lat="44.00383440095508" lon="12.115434555800826"><ele>142.0</ele><time>2026-04-20T09:20:15Z</time></trkpt><trkpt lat="44.00376497811813" lon="12.115250878472278"><ele>142.0</ele><time>2026-04-20T09:20:16Z</time></trkpt><trkpt lat="44.00371099813645" lon="12.115054687726612"><ele>143.0</ele><time>2026-04-20T09:20:17Z</time></trkpt><trkpt lat="44.00366172233596" lon="12.114851507108858"><ele>144.0</ele><time>2026-04-20T09:20:18Z</time></trkpt><trkpt lat="44.00359289611982" lon="12.114657429215647"><ele>145.0</ele><time>2026-04-20T09:20:19Z</time></trkpt><trkpt lat="44.00353852666271" lon="12.114454805426332"><ele>145.0</ele><time>2026-04-20T09:20:20Z</time></trkpt><trkpt lat="44.00345943704643" lon="12.114269094456688"><ele>145.0</ele><time>2026-04-20T09:20:21Z</time></trkpt><trkpt lat="44.003357568876694" lon="12.114103880406208"><ele>145.0</ele><time>2026-04-20T09:20:22Z</time></trkpt><trkpt lat="44.00324829973702" lon="12.113944936263396"><ele>144.66666666666669</ele><time>2026-04-20T09:20:23Z</time></trkpt><trkpt lat="44.003130934722975" lon="12.113796424837652"><ele>144.33333333333334</ele><time>2026-04-20T09:20:24Z</time></trkpt><trkpt lat="44.00301055467719" lon="12.11365604419572"><ele>144.0</ele><time>2026-04-20T09:20:25Z</time></trkpt><trkpt lat="44.00288912245784" lon="12.113514654586618"><ele>144.0</ele><time>2026-04-20T09:20:26Z</time></trkpt><trkpt lat="44.002781874446526" lon="12.113359976851354"><ele>144.0</ele><time>2026-04-20T09:20:27Z</time></trkpt><trkpt lat="44.00266152036927" lon="12.113226936257648"><ele>144.0</ele><time>2026-04-20T09:20:28Z</time></trkpt><trkpt lat="44.002520836272744" lon="12.113130474788665"><ele>144.66666666666666</ele><time>2026-04-20T09:20:29Z</time></trkpt><trkpt lat="44.00239235809248" lon="12.113019245400002"><ele>145.33333333333331</ele><time>2026-04-20T09:20:30Z</time></trkpt><trkpt lat="44.00225728172953" lon="12.112922213356725"><ele>146.0</ele><time>2026-04-20T09:20:31Z</time></trkpt><trkpt lat="44.00212459672862" lon="12.11283456885237"><ele>146.0</ele><time>2026-04-20T09:20:32Z</time></trkpt><trkpt lat="44.001995775163195" lon="12.112758822738114"><ele>146.0</ele><time>2026-04-20T09:20:33Z</time></trkpt><trkpt lat="44.00186519639775" lon="12.112686171456236"><ele>146.0</ele><time>2026-04-20T09:20:34Z</time></trkpt><trkpt lat="44.00173040064319" lon="12.11262403698143"><ele>146.0</ele><time>2026-04-20T09:20:35Z</time></trkpt><trkpt lat="44.00158332143014" lon="12.112572846026767"><ele>146.0</ele><time>2026-04-20T09:20:36Z</time></trkpt><trkpt lat="44.0014191719747" lon="12.112537372110108"><ele>146.0</ele><time>2026-04-20T09:20:37Z</time></trkpt><trkpt lat="44.00126363273958" lon="12.112528465718276"><ele>146.0</ele><time>2026-04-20T09:20:38Z</time></trkpt><trkpt lat="44.00112444086922" lon="12.112568022177328"><ele>146.0</ele><time>2026-04-20T09:20:39Z</time></trkpt><trkpt lat="44.000977610255816" lon="12.112658525661704"><ele>146.0</ele><time>2026-04-20T09:20:40Z</time></trkpt><trkpt lat="44.00082378213386" lon="12.112774557943261"><ele>146.0</ele><time>2026-04-20T09:20:41Z</time></trkpt><trkpt lat="44.000675255796565" lon="12.11288651053988"><ele>146.75</ele><time>2026-04-20T09:20:42Z</time></trkpt><trkpt lat="44.000543302984944" lon="12.11298381127972"><ele>147.5</ele><time>2026-04-20T09:20:43Z</time></trkpt><trkpt lat="44.00042571974031" lon="12.113066732306331"><ele>148.25</ele><time>2026-04-20T09:20:44Z</time></trkpt><trkpt lat="44.00031672219965" lon="12.11308879452738"><ele>149.0</ele><time>2026-04-20T09:20:45Z</time></trkpt><trkpt lat="44.00021465271111" lon="12.113095253832356"><ele>149.0</ele><time>2026-04-20T09:20:46Z</time></trkpt><trkpt lat="44.00010931468183" lon="12.113068813674738"><ele>149.0</ele><time>2026-04-20T09:20:46.999Z</time></trkpt><trkpt lat="43.99999741053712" lon="12.113027932231216"><ele>149.0</ele><time>2026-04-20T09:20:47.999Z</time></trkpt><trkpt lat="43.99990371494248" lon="12.112893900707181"><ele>149.0</ele><time>2026-04-20T09:20:48.999Z</time></trkpt><trkpt lat="43.99979098957342" lon="12.112767396723406"><ele>149.0</ele><time>2026-04-20T09:20:49.999Z</time></trkpt><trkpt lat="43.99966544968206" lon="12.112623737947278"><ele>149.0</ele><time>2026-04-20T09:20:50.999Z</time></trkpt><trkpt lat="43.99954238365737" lon="12.11248130037102"><ele>149.0</ele><time>2026-04-20T09:20:51.999Z</time></trkpt><trkpt lat="43.99941302518398" lon="12.112331732434624"><ele>148.66666666666666</ele><time>2026-04-20T09:20:53Z</time></trkpt><trkpt lat="43.99927618043383" lon="12.112175187011795"><ele>148.33333333333334</ele><time>2026-04-20T09:20:53.999Z</time></trkpt><trkpt lat="43.999133616133925" lon="12.112012098371899"><ele>148.0</ele><time>2026-04-20T09:20:54.999Z</time></trkpt><trkpt lat="43.99898080987243" lon="12.111838724485173"><ele>149.0</ele><time>2026-04-20T09:20:55.999Z</time></trkpt><trkpt lat="43.99881668484939" lon="12.111681415000243"><ele>150.0</ele><time>2026-04-20T09:20:56.999Z</time></trkpt><trkpt lat="43.998670047313375" lon="12.111512944568338"><ele>151.0</ele><time>2026-04-20T09:20:57.999Z</time></trkpt><trkpt lat="43.998529998290756" lon="12.111348491677663"><ele>151.0</ele><time>2026-04-20T09:20:58.999Z</time></trkpt><trkpt lat="43.99839534318684" lon="12.111175765629852"><ele>151.0</ele><time>2026-04-20T09:20:59.999Z</time></trkpt><trkpt lat="43.9982511553027" lon="12.111013868080706"><ele>151.0</ele><time>2026-04-20T09:21:00.999Z</time></trkpt><trkpt lat="43.998108780036134" lon="12.110882342208502"><ele>151.5</ele><time>2026-04-20T09:21:01.999Z</time></trkpt><trkpt lat="43.99798527716623" lon="12.110743800318037"><ele>152.0</ele><time>2026-04-20T09:21:02.999Z</time></trkpt><trkpt lat="43.997882241507796" lon="12.11059900281068"><ele>152.5</ele><time>2026-04-20T09:21:03.999Z</time></trkpt><trkpt lat="43.99776600343919" lon="12.110497850380918"><ele>153.0</ele><time>2026-04-20T09:21:04.999Z</time></trkpt><trkpt lat="43.99766470740935" lon="12.110377380229052"><ele>153.0</ele><time>2026-04-20T09:21:05.999Z</time></trkpt><trkpt lat="43.997567060174674" lon="12.110263470747626"><ele>153.0</ele><time>2026-04-20T09:21:06.999Z</time></trkpt><trkpt lat="43.997475548370836" lon="12.11016055657198"><ele>153.0</ele><time>2026-04-20T09:21:07.999Z</time></trkpt><trkpt lat="43.997397462473266" lon="12.110073355725676"><ele>153.0</ele><time>2026-04-20T09:21:08.999Z</time></trkpt><trkpt lat="43.99733058350177" lon="12.109991767855888"><ele>153.0</ele><time>2026-04-20T09:21:09.999Z</time></trkpt><trkpt lat="43.99727469107923" lon="12.109917378836288"><ele>153.33333333333334</ele><time>2026-04-20T09:21:10.999Z</time></trkpt><trkpt lat="43.997207165083935" lon="12.109788230161179"><ele>153.66666666666666</ele><time>2026-04-20T09:21:13Z</time></trkpt><trkpt lat="43.99715252410811" lon="12.109723802326384"><ele>154.0</ele><time>2026-04-20T09:21:15Z</time></trkpt><trkpt lat="43.997092911959065" lon="12.109667672355155"><ele>154.33333333333331</ele><time>2026-04-20T09:23:45Z</time></trkpt><trkpt lat="43.99702768540706" lon="12.109613003940918"><ele>154.66666666666666</ele><time>2026-04-20T09:23:46Z</time></trkpt><trkpt lat="43.99695527522807" lon="12.109555529283496"><ele>155.0</ele><time>2026-04-20T09:23:47Z</time></trkpt><trkpt lat="43.996878276630035" lon="12.109481141353381"><ele>155.0</ele><time>2026-04-20T09:23:48Z</time></trkpt><trkpt lat="43.99679312711488" lon="12.109386654964881"><ele>155.0</ele><time>2026-04-20T09:23:49Z</time></trkpt><trkpt lat="43.99671608526386" lon="12.109269490921596"><ele>155.0</ele><time>2026-04-20T09:23:50Z</time></trkpt><trkpt lat="43.99662352929728" lon="12.10916381053772"><ele>155.0</ele><time>2026-04-20T09:23:51Z</time></trkpt><trkpt lat="43.99652460490417" lon="12.10905114339973"><ele>155.75</ele><time>2026-04-20T09:23:52Z</time></trkpt><trkpt lat="43.99642140117854" lon="12.108936397468618"><ele>156.5</ele><time>2026-04-20T09:23:53Z</time></trkpt><trkpt lat="43.99631217667461" lon="12.108814958048397"><ele>157.25</ele><time>2026-04-20T09:23:54Z</time></trkpt><trkpt lat="43.99619665100678" lon="12.108693292851559"><ele>158.0</ele><time>2026-04-20T09:23:55Z</time></trkpt><trkpt lat="43.99606726314824" lon="12.108574313693119"><ele>158.0</ele><time>2026-04-20T09:23:56Z</time></trkpt><trkpt lat="43.99593262420938" lon="12.108469544537655"><ele>158.0</ele><time>2026-04-20T09:23:57Z</time></trkpt><trkpt lat="43.99579553659752" lon="12.108375141049427"><ele>158.0</ele><time>2026-04-20T09:23:58Z</time></trkpt><trkpt lat="43.995652415604134" lon="12.108302292327675"><ele>159.25</ele><time>2026-04-20T09:23:59Z</time></trkpt><trkpt lat="43.99551934479381" lon="12.108202356494097"><ele>160.5</ele><time>2026-04-20T09:24:00Z</time></trkpt><trkpt lat="43.9954013222999" lon="12.108077243912703"><ele>161.75</ele><time>2026-04-20T09:24:01Z</time></trkpt><trkpt lat="43.99527533211433" lon="12.10796540030948"><ele>163.0</ele><time>2026-04-20T09:24:02Z</time></trkpt><trkpt lat="43.99515133317201" lon="12.107852157501462"><ele>163.0</ele><time>2026-04-20T09:24:03Z</time></trkpt><trkpt lat="43.99502427100174" lon="12.107750780292045"><ele>163.0</ele><time>2026-04-20T09:24:04Z</time></trkpt><trkpt lat="43.99490778877394" lon="12.107656208178799"><ele>163.0</ele><time>2026-04-20T09:24:05Z</time></trkpt><trkpt lat="43.99480999982905" lon="12.107557036710006"><ele>163.0</ele><time>2026-04-20T09:24:06Z</time></trkpt><trkpt lat="43.99468283406893" lon="12.107537259038317"><ele>164.0</ele><time>2026-04-20T09:24:07Z</time></trkpt><trkpt lat="43.99455422930104" lon="12.107548936200521"><ele>165.0</ele><time>2026-04-20T09:24:08Z</time></trkpt><trkpt lat="43.99442753791809" lon="12.107640798074177"><ele>166.0</ele><time>2026-04-20T09:24:09Z</time></trkpt><trkpt lat="43.99429793647549" lon="12.107703398920393"><ele>167.0</ele><time>2026-04-20T09:24:10Z</time></trkpt><trkpt lat="43.99416905379983" lon="12.107762884177404"><ele>170.2</ele><time>2026-04-20T09:24:11Z</time></trkpt><trkpt lat="43.99404636635422" lon="12.107826198629631"><ele>173.39999999999998</ele><time>2026-04-20T09:24:12Z</time></trkpt><trkpt lat="43.99393772412707" lon="12.107854876873079"><ele>176.60000000000002</ele><time>2026-04-20T09:24:13Z</time></trkpt><trkpt lat="43.99385360995733" lon="12.107882293817813"><ele>179.8</ele><time>2026-04-20T09:24:14Z</time></trkpt><trkpt lat="43.99378970928888" lon="12.107904788210856"><ele>183.0</ele><time>2026-04-20T09:24:15Z</time></trkpt><trkpt lat="43.99373869955711" lon="12.107822154982633"><ele>183.0</ele><time>2026-04-20T09:24:16Z</time></trkpt><trkpt lat="43.99380816757808" lon="12.107656568962915"><ele>183.0</ele><time>2026-04-20T09:24:18Z</time></trkpt><trkpt lat="43.99388094700806" lon="12.107549046402962"><ele>183.0</ele><time>2026-04-20T09:24:19Z</time></trkpt><trkpt lat="43.99395693858138" lon="12.10740086041161"><ele>183.0</ele><time>2026-04-20T09:24:20Z</time></trkpt><trkpt lat="43.99403720622311" lon="12.107274381170603"><ele>185.25</ele><time>2026-04-20T09:24:21Z</time></trkpt><trkpt lat="43.994133250477745" lon="12.107134293895372"><ele>187.5</ele><time>2026-04-20T09:24:22Z</time></trkpt><trkpt lat="43.99423505094442" lon="12.106982075640293"><ele>189.75</ele><time>2026-04-20T09:24:23Z</time></trkpt><trkpt lat="43.99433480510712" lon="12.106835033420648"><ele>192.0</ele><time>2026-04-20T09:24:24Z</time></trkpt><trkpt lat="43.99443324466462" lon="12.106705843186296"><ele>187.0</ele><time>2026-04-20T09:24:25Z</time></trkpt><trkpt lat="43.99452592692067" lon="12.106602828213772"><ele>182.0</ele><time>2026-04-20T09:24:26Z</time></trkpt><trkpt lat="43.99460774675208" lon="12.106521020723925"><ele>177.0</ele><time>2026-04-20T09:24:27Z</time></trkpt><trkpt lat="43.99467172787701" lon="12.106438600117528"><ele>172.0</ele><time>2026-04-20T09:24:28Z</time></trkpt><trkpt lat="43.9947187781574" lon="12.106358436971355"><ele>167.0</ele><time>2026-04-20T09:24:29Z</time></trkpt><trkpt lat="43.99473091588855" lon="12.106246541127145"><ele>166.33333333333331</ele><time>2026-04-20T09:24:30Z</time></trkpt><trkpt lat="43.99466669323167" lon="12.106136794911965"><ele>165.66666666666666</ele><time>2026-04-20T09:24:31Z</time></trkpt><trkpt lat="43.99459826039867" lon="12.10604257002529"><ele>165.0</ele><time>2026-04-20T09:24:32Z</time></trkpt><trkpt lat="43.99453490174746" lon="12.105992190421206"><ele>164.33333333333334</ele><time>2026-04-20T09:24:33Z</time></trkpt><trkpt lat="43.99446011025052" lon="12.105967814565586"><ele>163.66666666666669</ele><time>2026-04-20T09:24:34Z</time></trkpt><trkpt lat="43.99439199845652" lon="12.106054577801459"><ele>163.0</ele><time>2026-04-20T09:24:35Z</time></trkpt><trkpt lat="43.99433850919736" lon="12.106146964045603"><ele>163.0</ele><time>2026-04-20T09:24:36Z</time></trkpt><trkpt lat="43.99428413046944" lon="12.106245979066502"><ele>163.0</ele><time>2026-04-20T09:24:37Z</time></trkpt><trkpt lat="43.99422586416712" lon="12.106351015232308"><ele>163.0</ele><time>2026-04-20T09:24:38Z</time></trkpt><trkpt lat="43.99416173989221" lon="12.106458621333275"><ele>163.0</ele><time>2026-04-20T09:24:39Z</time></trkpt><trkpt lat="43.99409548550331" lon="12.106556326918282"><ele>163.0</ele><time>2026-04-20T09:24:40Z</time></trkpt><trkpt lat="43.99402552496362" lon="12.106651977272248"><ele>167.83333333333334</ele><time>2026-04-20T09:24:41Z</time></trkpt><trkpt lat="43.9939597241221" lon="12.106751775547727"><ele>172.66666666666669</ele><time>2026-04-20T09:24:42Z</time></trkpt><trkpt lat="43.99390432837784" lon="12.106865566954355"><ele>177.5</ele><time>2026-04-20T09:24:43Z</time></trkpt><trkpt lat="43.993874823538334" lon="12.106975473487253"><ele>182.33333333333334</ele><time>2026-04-20T09:24:44Z</time></trkpt><trkpt lat="43.99384324824027" lon="12.107060572817492"><ele>187.16666666666666</ele><time>2026-04-20T09:24:45Z</time></trkpt><trkpt lat="43.99377866256477" lon="12.107105159634234"><ele>192.0</ele><time>2026-04-20T09:24:46Z</time></trkpt><trkpt lat="43.99369629844051" lon="12.107106769337536"><ele>192.0</ele><time>2026-04-20T09:24:47Z</time></trkpt><trkpt lat="43.99360074063981" lon="12.107077042962986"><ele>192.0</ele><time>2026-04-20T09:24:48Z</time></trkpt><trkpt lat="43.993486384582894" lon="12.107040213845531"><ele>192.0</ele><time>2026-04-20T09:24:49Z</time></trkpt><trkpt lat="43.99337798431692" lon="12.106999005934764"><ele>192.0</ele><time>2026-04-20T09:24:50Z</time></trkpt><trkpt lat="43.993288590892284" lon="12.106920076447954"><ele>192.0</ele><time>2026-04-20T09:24:51Z</time></trkpt><trkpt lat="43.993212030298636" lon="12.106785474129072"><ele>192.25</ele><time>2026-04-20T09:24:52Z</time></trkpt><trkpt lat="43.99314568595832" lon="12.106622541582858"><ele>192.5</ele><time>2026-04-20T09:24:53Z</time></trkpt><trkpt lat="43.99309344328593" lon="12.10643991326229"><ele>192.75</ele><time>2026-04-20T09:24:54Z</time></trkpt><trkpt lat="43.99308635923312" lon="12.10623240526921"><ele>193.0</ele><time>2026-04-20T09:24:55Z</time></trkpt><trkpt lat="43.99305355783615" lon="12.10603804649235"><ele>193.0</ele><time>2026-04-20T09:24:56Z</time></trkpt><trkpt lat="43.993009795094835" lon="12.10583898699014"><ele>193.0</ele><time>2026-04-20T09:24:57Z</time></trkpt><trkpt lat="43.99292735166527" lon="12.105648676589553"><ele>193.0</ele><time>2026-04-20T09:24:58Z</time></trkpt><trkpt lat="43.992847296368495" lon="12.105436549063517"><ele>190.33333333333331</ele><time>2026-04-20T09:24:59Z</time></trkpt><trkpt lat="43.99274553876964" lon="12.105233707592175"><ele>187.66666666666666</ele><time>2026-04-20T09:25:00Z</time></trkpt><trkpt lat="43.992681903840044" lon="12.10501127860879"><ele>185.0</ele><time>2026-04-20T09:25:01Z</time></trkpt><trkpt lat="43.99263372522063" lon="12.104780029200125"><ele>182.33333333333331</ele><time>2026-04-20T09:25:02Z</time></trkpt><trkpt lat="43.99258652249126" lon="12.104556936138563"><ele>179.66666666666666</ele><time>2026-04-20T09:25:03Z</time></trkpt><trkpt lat="43.992527359651874" lon="12.104342045227057"><ele>177.0</ele><time>2026-04-20T09:25:04Z</time></trkpt><trkpt lat="43.99244650344315" lon="12.1041365633726"><ele>188.33333333333331</ele><time>2026-04-20T09:25:05Z</time></trkpt><trkpt lat="43.9923376433504" lon="12.103950353625686"><ele>199.66666666666666</ele><time>2026-04-20T09:25:06Z</time></trkpt><trkpt lat="43.992216426525346" lon="12.103776250805991"><ele>211.0</ele><time>2026-04-20T09:25:07Z</time></trkpt><trkpt lat="43.99208935471904" lon="12.103607153784862"><ele>211.0</ele><time>2026-04-20T09:25:08Z</time></trkpt><trkpt lat="43.99196294618405" lon="12.103433800605968"><ele>211.0</ele><time>2026-04-20T09:25:09Z</time></trkpt><trkpt lat="43.99183647677117" lon="12.103272302722253"><ele>211.0</ele><time>2026-04-20T09:25:10Z</time></trkpt><trkpt lat="43.99169161593365" lon="12.103132195462784"><ele>211.66666666666666</ele><time>2026-04-20T09:25:11Z</time></trkpt><trkpt lat="43.991534088505006" lon="12.10302561850276"><ele>212.33333333333331</ele><time>2026-04-20T09:25:12Z</time></trkpt><trkpt lat="43.99137073679031" lon="12.102945846555494"><ele>213.0</ele><time>2026-04-20T09:25:13Z</time></trkpt><trkpt lat="43.991224833303356" lon="12.10286016300545"><ele>213.0</ele><time>2026-04-20T09:25:14Z</time></trkpt><trkpt lat="43.991108422915694" lon="12.102719911033148"><ele>213.0</ele><time>2026-04-20T09:25:15Z</time></trkpt><trkpt lat="43.990998789268076" lon="12.102549167903133"><ele>213.0</ele><time>2026-04-20T09:25:16Z</time></trkpt><trkpt lat="43.990881186354315" lon="12.102392266514885"><ele>212.5</ele><time>2026-04-20T09:25:17Z</time></trkpt><trkpt lat="43.99076314826073" lon="12.10226580214299"><ele>212.0</ele><time>2026-04-20T09:25:18Z</time></trkpt><trkpt lat="43.99064364898668" lon="12.102172780416529"><ele>211.5</ele><time>2026-04-20T09:25:19Z</time></trkpt><trkpt lat="43.99052453416544" lon="12.102125219638245"><ele>211.0</ele><time>2026-04-20T09:25:20Z</time></trkpt><trkpt lat="43.99040962241836" lon="12.102117440034066"><ele>211.0</ele><time>2026-04-20T09:25:21Z</time></trkpt><trkpt lat="43.99030769202702" lon="12.102112602606985"><ele>211.0</ele><time>2026-04-20T09:25:22Z</time></trkpt><trkpt lat="43.99022539418159" lon="12.102062795091062"><ele>211.0</ele><time>2026-04-20T09:25:23Z</time></trkpt><trkpt lat="43.99016645953124" lon="12.101965394239437"><ele>211.0</ele><time>2026-04-20T09:25:24Z</time></trkpt><trkpt lat="43.99012787243219" lon="12.101828442237123"><ele>211.0</ele><time>2026-04-20T09:25:25Z</time></trkpt><trkpt lat="43.99011108965824" lon="12.101660272778755"><ele>205.25</ele><time>2026-04-20T09:25:26Z</time></trkpt><trkpt lat="43.99011539376965" lon="12.101464796416849"><ele>199.5</ele><time>2026-04-20T09:25:27Z</time></trkpt><trkpt lat="43.99010093935296" lon="12.10126160695278"><ele>193.75</ele><time>2026-04-20T09:25:28Z</time></trkpt><trkpt lat="43.99005472637611" lon="12.101059275769382"><ele>188.0</ele><time>2026-04-20T09:25:29Z</time></trkpt><trkpt lat="43.990012635751306" lon="12.100846562498598"><ele>192.25</ele><time>2026-04-20T09:25:30Z</time></trkpt><trkpt lat="43.98998232146601" lon="12.100637429699196"><ele>196.5</ele><time>2026-04-20T09:25:31Z</time></trkpt><trkpt lat="43.989963489180525" lon="12.10045286843344"><ele>200.75</ele><time>2026-04-20T09:25:32Z</time></trkpt><trkpt lat="43.98992971556005" lon="12.100293741791356"><ele>205.0</ele><time>2026-04-20T09:25:33Z</time></trkpt><trkpt lat="43.98986038139806" lon="12.100177572021595"><ele>205.0</ele><time>2026-04-20T09:25:34Z</time></trkpt><trkpt lat="43.98975919663171" lon="12.100105331855753"><ele>205.0</ele><time>2026-04-20T09:25:35Z</time></trkpt><trkpt lat="43.989630432712495" lon="12.100082956335294"><ele>205.0</ele><time>2026-04-20T09:25:36Z</time></trkpt><trkpt lat="43.98949200284357" lon="12.100088583976245"><ele>205.0</ele><time>2026-04-20T09:25:37Z</time></trkpt><trkpt lat="43.98935534022134" lon="12.1000015102638"><ele>205.0</ele><time>2026-04-20T09:25:38Z</time></trkpt><trkpt lat="43.98920484698896" lon="12.099985671900287"><ele>205.0</ele><time>2026-04-20T09:25:39Z</time></trkpt><trkpt lat="43.98904602888504" lon="12.100006067955816"><ele>205.0</ele><time>2026-04-20T09:25:40Z</time></trkpt><trkpt lat="43.98889016473056" lon="12.100071099403284"><ele>206.25</ele><time>2026-04-20T09:25:41Z</time></trkpt><trkpt lat="43.9887381287768" lon="12.100133777207134"><ele>207.5</ele><time>2026-04-20T09:25:42Z</time></trkpt><trkpt lat="43.98860153325328" lon="12.100223122330522"><ele>208.75</ele><time>2026-04-20T09:25:43Z</time></trkpt><trkpt lat="43.988466618645525" lon="12.100244154069191"><ele>210.0</ele><time>2026-04-20T09:25:44Z</time></trkpt><trkpt lat="43.98833908116746" lon="12.100224603980248"><ele>210.0</ele><time>2026-04-20T09:25:45Z</time></trkpt><trkpt lat="43.98822165907213" lon="12.10015576628928"><ele>210.0</ele><time>2026-04-20T09:25:46Z</time></trkpt><trkpt lat="43.988132728164736" lon="12.100013890248546"><ele>210.0</ele><time>2026-04-20T09:25:47Z</time></trkpt><trkpt lat="43.98801639347646" lon="12.099919241203617"><ele>210.0</ele><time>2026-04-20T09:25:48Z</time></trkpt><trkpt lat="43.98789142985668" lon="12.099821614876051"><ele>210.33333333333331</ele><time>2026-04-20T09:25:49Z</time></trkpt><trkpt lat="43.98773780688357" lon="12.099827059033787"><ele>210.66666666666666</ele><time>2026-04-20T09:25:50Z</time></trkpt><trkpt lat="43.98758187765934" lon="12.09986572934252"><ele>211.0</ele><time>2026-04-20T09:25:51Z</time></trkpt><trkpt lat="43.98743038642827" lon="12.099934721660505"><ele>211.0</ele><time>2026-04-20T09:25:52Z</time></trkpt><trkpt lat="43.98728956270115" lon="12.100024474771095"><ele>211.0</ele><time>2026-04-20T09:25:53Z</time></trkpt><trkpt lat="43.987130442612" lon="12.100031490431038"><ele>211.0</ele><time>2026-04-20T09:25:54Z</time></trkpt><trkpt lat="43.986970187772705" lon="12.099964108562604"><ele>211.0</ele><time>2026-04-20T09:25:55Z</time></trkpt><trkpt lat="43.98681139174944" lon="12.099927125282397"><ele>211.0</ele><time>2026-04-20T09:25:56Z</time></trkpt><trkpt lat="43.986659834220625" lon="12.099820620969792"><ele>211.0</ele><time>2026-04-20T09:25:57Z</time></trkpt><trkpt lat="43.98651405470304" lon="12.09966653843498"><ele>203.0</ele><time>2026-04-20T09:25:58Z</time></trkpt><trkpt lat="43.98637390184414" lon="12.099486147943196"><ele>195.0</ele><time>2026-04-20T09:25:59Z</time></trkpt><trkpt lat="43.98622713119735" lon="12.099308059379725"><ele>187.0</ele><time>2026-04-20T09:26:00Z</time></trkpt><trkpt lat="43.986079184600584" lon="12.099129763424209"><ele>187.33333333333334</ele><time>2026-04-20T09:26:01Z</time></trkpt><trkpt lat="43.98592830117571" lon="12.098951357472366"><ele>187.66666666666666</ele><time>2026-04-20T09:26:02Z</time></trkpt><trkpt lat="43.985777837727866" lon="12.098766769693807"><ele>188.0</ele><time>2026-04-20T09:26:03Z</time></trkpt><trkpt lat="43.98562846641087" lon="12.098577662960842"><ele>188.33333333333331</ele><time>2026-04-20T09:26:04Z</time></trkpt><trkpt lat="43.98547461012001" lon="12.098384088773013"><ele>188.66666666666666</ele><time>2026-04-20T09:26:05Z</time></trkpt><trkpt lat="43.98532054182067" lon="12.098192793052151"><ele>189.0</ele><time>2026-04-20T09:26:06Z</time></trkpt><trkpt lat="43.98516715328472" lon="12.098004530672517"><ele>190.0</ele><time>2026-04-20T09:26:07Z</time></trkpt><trkpt lat="43.985016659575436" lon="12.097820815040055"><ele>191.0</ele><time>2026-04-20T09:26:08Z</time></trkpt><trkpt lat="43.98487451397087" lon="12.09765256740071"><ele>192.0</ele><time>2026-04-20T09:26:09Z</time></trkpt><trkpt lat="43.98474528316129" lon="12.097491916542308"><ele>193.75</ele><time>2026-04-20T09:26:10Z</time></trkpt><trkpt lat="43.984637683207595" lon="12.09734161039154"><ele>195.5</ele><time>2026-04-20T09:26:11Z</time></trkpt><trkpt lat="43.98455683174336" lon="12.097182870798608"><ele>197.25</ele><time>2026-04-20T09:26:12Z</time></trkpt><trkpt lat="43.98452012870743" lon="12.097000758371047"><ele>199.0</ele><time>2026-04-20T09:26:13Z</time></trkpt><trkpt lat="43.9844994266958" lon="12.096810654220151"><ele>199.0</ele><time>2026-04-20T09:26:14Z</time></trkpt><trkpt lat="43.98448890210343" lon="12.09661651366594"><ele>199.0</ele><time>2026-04-20T09:26:15Z</time></trkpt><trkpt lat="43.98447481134741" lon="12.096409299387219"><ele>199.0</ele><time>2026-04-20T09:26:16Z</time></trkpt><trkpt lat="43.984456762312576" lon="12.096197586647243"><ele>199.0</ele><time>2026-04-20T09:26:17Z</time></trkpt><trkpt lat="43.98442164397856" lon="12.095982574225303"><ele>201.33333333333331</ele><time>2026-04-20T09:26:18Z</time></trkpt><trkpt lat="43.98439959388668" lon="12.095763261198552"><ele>203.66666666666669</ele><time>2026-04-20T09:26:19Z</time></trkpt><trkpt lat="43.98437162435406" lon="12.09553470191789"><ele>206.0</ele><time>2026-04-20T09:26:20Z</time></trkpt><trkpt lat="43.98434155178829" lon="12.095312753736644"><ele>205.0</ele><time>2026-04-20T09:26:21Z</time></trkpt><trkpt lat="43.984308073072135" lon="12.095100690788598"><ele>204.0</ele><time>2026-04-20T09:26:22Z</time></trkpt><trkpt lat="43.9842748369089" lon="12.094908251194122"><ele>203.0</ele><time>2026-04-20T09:26:23Z</time></trkpt><trkpt lat="43.98423311977844" lon="12.094731458942997"><ele>202.0</ele><time>2026-04-20T09:26:24Z</time></trkpt><trkpt lat="43.98416730370511" lon="12.0945661154475"><ele>202.0</ele><time>2026-04-20T09:26:25Z</time></trkpt><trkpt lat="43.98406696489516" lon="12.09442798914088"><ele>202.0</ele><time>2026-04-20T09:26:26Z</time></trkpt><trkpt lat="43.98393429715505" lon="12.09431156431322"><ele>202.0</ele><time>2026-04-20T09:26:27Z</time></trkpt><trkpt lat="43.98378265027318" lon="12.094212731315544"><ele>202.0</ele><time>2026-04-20T09:26:28Z</time></trkpt><trkpt lat="43.983624524040735" lon="12.094120954139816"><ele>202.0</ele><time>2026-04-20T09:26:29Z</time></trkpt><trkpt lat="43.98346410838433" lon="12.09401746051699"><ele>202.0</ele><time>2026-04-20T09:26:30Z</time></trkpt><trkpt lat="43.98331375410537" lon="12.09394149783014"><ele>206.66666666666666</ele><time>2026-04-20T09:26:31Z</time></trkpt><trkpt lat="43.98315236374324" lon="12.093916117509984"><ele>211.33333333333331</ele><time>2026-04-20T09:26:32Z</time></trkpt><trkpt lat="43.982979252439414" lon="12.093921798144676"><ele>216.0</ele><time>2026-04-20T09:26:33Z</time></trkpt><trkpt lat="43.98280534256031" lon="12.093959675173373"><ele>216.0</ele><time>2026-04-20T09:26:34Z</time></trkpt><trkpt lat="43.98262798250746" lon="12.094039005580894"><ele>216.0</ele><time>2026-04-20T09:26:35Z</time></trkpt><trkpt lat="43.982458247723116" lon="12.094146414539932"><ele>216.0</ele><time>2026-04-20T09:26:36Z</time></trkpt><trkpt lat="43.982294483213394" lon="12.094265084333177"><ele>212.0</ele><time>2026-04-20T09:26:37Z</time></trkpt><trkpt lat="43.98214119188235" lon="12.09438701624439"><ele>208.0</ele><time>2026-04-20T09:26:38Z</time></trkpt><trkpt lat="43.98200789068355" lon="12.094531163499095"><ele>204.0</ele><time>2026-04-20T09:26:39Z</time></trkpt><trkpt lat="43.98188591678715" lon="12.09468099631047"><ele>204.0</ele><time>2026-04-20T09:26:40Z</time></trkpt><trkpt lat="43.981774039849235" lon="12.094799496590575"><ele>204.0</ele><time>2026-04-20T09:26:41Z</time></trkpt><trkpt lat="43.98164436311546" lon="12.094835279434148"><ele>204.0</ele><time>2026-04-20T09:26:42Z</time></trkpt><trkpt lat="43.98151659951449" lon="12.094805433747268"><ele>204.0</ele><time>2026-04-20T09:26:43Z</time></trkpt><trkpt lat="43.981390022250295" lon="12.094711323495186"><ele>205.66666666666669</ele><time>2026-04-20T09:26:44Z</time></trkpt><trkpt lat="43.98123360913018" lon="12.094595634248757"><ele>207.33333333333334</ele><time>2026-04-20T09:26:45Z</time></trkpt><trkpt lat="43.981061479013434" lon="12.094488088982475"><ele>209.0</ele><time>2026-04-20T09:26:46Z</time></trkpt><trkpt lat="43.980893688269" lon="12.094366527496947"><ele>210.0</ele><time>2026-04-20T09:26:47Z</time></trkpt><trkpt lat="43.98072831620522" lon="12.09425659417168"><ele>211.0</ele><time>2026-04-20T09:26:48Z</time></trkpt><trkpt lat="43.98057467395054" lon="12.094146760088599"><ele>212.0</ele><time>2026-04-20T09:26:49Z</time></trkpt><trkpt lat="43.98045616347531" lon="12.09399917411835"><ele>217.33333333333334</ele><time>2026-04-20T09:26:50Z</time></trkpt><trkpt lat="43.9803541254875" lon="12.093830269435484"><ele>222.66666666666669</ele><time>2026-04-20T09:26:51Z</time></trkpt><trkpt lat="43.98024927442365" lon="12.09363607959324"><ele>228.0</ele><time>2026-04-20T09:26:52Z</time></trkpt><trkpt lat="43.980154700414126" lon="12.093420922141927"><ele>225.66666666666669</ele><time>2026-04-20T09:26:53Z</time></trkpt><trkpt lat="43.980025631998785" lon="12.093232279067735"><ele>223.33333333333334</ele><time>2026-04-20T09:26:54Z</time></trkpt><trkpt lat="43.979890536363584" lon="12.09303935436037"><ele>221.0</ele><time>2026-04-20T09:26:55Z</time></trkpt><trkpt lat="43.979746518611464" lon="12.092859175011114"><ele>221.0</ele><time>2026-04-20T09:26:56Z</time></trkpt><trkpt lat="43.979595484378954" lon="12.092679943467893"><ele>221.0</ele><time>2026-04-20T09:26:57Z</time></trkpt><trkpt lat="43.97945294639668" lon="12.092487516172236"><ele>221.0</ele><time>2026-04-20T09:26:58Z</time></trkpt><trkpt lat="43.97929865460711" lon="12.092309071885058"><ele>225.0</ele><time>2026-04-20T09:26:59Z</time></trkpt><trkpt lat="43.979122620097804" lon="12.092179358350313"><ele>229.0</ele><time>2026-04-20T09:27:00Z</time></trkpt><trkpt lat="43.97895008307088" lon="12.092052991428961"><ele>233.0</ele><time>2026-04-20T09:27:01Z</time></trkpt><trkpt lat="43.97876253928355" lon="12.091964214174208"><ele>233.0</ele><time>2026-04-20T09:27:02Z</time></trkpt><trkpt lat="43.97857480389318" lon="12.091861962019921"><ele>233.0</ele><time>2026-04-20T09:27:03Z</time></trkpt><trkpt lat="43.97838395452269" lon="12.091766476905065"><ele>233.0</ele><time>2026-04-20T09:27:04Z</time></trkpt><trkpt lat="43.978191281185666" lon="12.091672790627728"><ele>227.66666666666669</ele><time>2026-04-20T09:27:05Z</time></trkpt><trkpt lat="43.977978067690046" lon="12.09166279280747"><ele>222.33333333333331</ele><time>2026-04-20T09:27:06Z</time></trkpt><trkpt lat="43.97777035155808" lon="12.091648442619551"><ele>217.0</ele><time>2026-04-20T09:27:07Z</time></trkpt><trkpt lat="43.97756006029529" lon="12.091637788669551"><ele>216.66666666666666</ele><time>2026-04-20T09:27:08Z</time></trkpt><trkpt lat="43.97736146563935" lon="12.091627561282333"><ele>216.33333333333331</ele><time>2026-04-20T09:27:09Z</time></trkpt><trkpt lat="43.97717743521623" lon="12.091606734610293"><ele>216.0</ele><time>2026-04-20T09:27:10Z</time></trkpt><trkpt lat="43.977002668281834" lon="12.09155769862864"><ele>220.33333333333331</ele><time>2026-04-20T09:27:11Z</time></trkpt><trkpt lat="43.97684627475952" lon="12.091465937971867"><ele>224.66666666666666</ele><time>2026-04-20T09:27:12Z</time></trkpt><trkpt lat="43.976690922452256" lon="12.091333556396037"><ele>229.0</ele><time>2026-04-20T09:27:13Z</time></trkpt><trkpt lat="43.97654795086156" lon="12.091151478440946"><ele>229.0</ele><time>2026-04-20T09:27:14Z</time></trkpt><trkpt lat="43.976387429362426" lon="12.090974401522235"><ele>229.0</ele><time>2026-04-20T09:27:15Z</time></trkpt><trkpt lat="43.97622619255747" lon="12.09078211238851"><ele>229.0</ele><time>2026-04-20T09:27:16Z</time></trkpt><trkpt lat="43.97606608677878" lon="12.09058490180102"><ele>226.0</ele><time>2026-04-20T09:27:17Z</time></trkpt><trkpt lat="43.97590947852026" lon="12.090378357664518"><ele>223.0</ele><time>2026-04-20T09:27:18Z</time></trkpt><trkpt lat="43.97574877203848" lon="12.090167710588062"><ele>220.0</ele><time>2026-04-20T09:27:19Z</time></trkpt><trkpt lat="43.97541706135944" lon="12.089750994349794"><ele>225.66666666666666</ele><time>2026-04-20T09:27:21Z</time></trkpt><trkpt lat="43.97523787069345" lon="12.089559030438116"><ele>231.33333333333331</ele><time>2026-04-20T09:27:22Z</time></trkpt><trkpt lat="43.975046767127516" lon="12.089399222186618"><ele>237.0</ele><time>2026-04-20T09:27:23Z</time></trkpt><trkpt lat="43.97485290754648" lon="12.08924464256968"><ele>237.0</ele><time>2026-04-20T09:27:24Z</time></trkpt><trkpt lat="43.97466244090069" lon="12.089092768428825"><ele>237.0</ele><time>2026-04-20T09:27:25Z</time></trkpt><trkpt lat="43.97447204211914" lon="12.088943445497184"><ele>237.0</ele><time>2026-04-20T09:27:26Z</time></trkpt><trkpt lat="43.9742900307907" lon="12.088803025558978"><ele>242.0</ele><time>2026-04-20T09:27:27Z</time></trkpt><trkpt lat="43.9741207024389" lon="12.088673749628773"><ele>247.0</ele><time>2026-04-20T09:27:28Z</time></trkpt><trkpt lat="43.97394825204289" lon="12.088576503293416"><ele>252.0</ele><time>2026-04-20T09:27:29Z</time></trkpt><trkpt lat="43.97380054484444" lon="12.088450020803268"><ele>252.0</ele><time>2026-04-20T09:27:30Z</time></trkpt><trkpt lat="43.97366129084267" lon="12.088356588652308"><ele>252.0</ele><time>2026-04-20T09:27:31Z</time></trkpt><trkpt lat="43.9735402461014" lon="12.088274255116001"><ele>252.0</ele><time>2026-04-20T09:27:32Z</time></trkpt><trkpt lat="43.9734404149531" lon="12.088205239205548"><ele>252.0</ele><time>2026-04-20T09:27:33Z</time></trkpt><trkpt lat="43.97335706394466" lon="12.088147027363197"><ele>254.8</ele><time>2026-04-20T09:27:34Z</time></trkpt><trkpt lat="43.97329012724337" lon="12.088099815736427"><ele>257.6</ele><time>2026-04-20T09:27:35Z</time></trkpt><trkpt lat="43.97322024563854" lon="12.088050527535463"><ele>260.40000000000003</ele><time>2026-04-20T09:27:37Z</time></trkpt><trkpt lat="43.97312200025974" lon="12.088283213672668"><ele>263.2</ele><time>2026-04-20T09:27:40Z</time></trkpt><trkpt lat="43.97309516051122" lon="12.088378740867562"><ele>266.0</ele><time>2026-04-20T09:27:41Z</time></trkpt><trkpt lat="43.97305745626628" lon="12.088477502192596"><ele>259.83333333333337</ele><time>2026-04-20T09:27:42Z</time></trkpt><trkpt lat="43.97301675001723" lon="12.088563310450072"><ele>253.66666666666669</ele><time>2026-04-20T09:27:43Z</time></trkpt><trkpt lat="43.97291052871737" lon="12.08861361895161"><ele>247.5</ele><time>2026-04-20T09:27:45Z</time></trkpt><trkpt lat="43.97284983721962" lon="12.088644777194693"><ele>241.33333333333331</ele><time>2026-04-20T09:27:46Z</time></trkpt><trkpt lat="43.97278779291704" lon="12.08870881790838"><ele>235.16666666666666</ele><time>2026-04-20T09:27:47Z</time></trkpt><trkpt lat="43.97272877381428" lon="12.088790059738955"><ele>229.0</ele><time>2026-04-20T09:27:48Z</time></trkpt><trkpt lat="43.97266910921543" lon="12.088888839033618"><ele>229.0</ele><time>2026-04-20T09:27:49Z</time></trkpt><trkpt lat="43.972605148757026" lon="12.088993025446937"><ele>228.99999999999997</ele><time>2026-04-20T09:27:50Z</time></trkpt><trkpt lat="43.97252940892486" lon="12.089106690333853"><ele>228.99999999999997</ele><time>2026-04-20T09:27:51Z</time></trkpt><trkpt lat="43.97244760859595" lon="12.089227006670347"><ele>229.0</ele><time>2026-04-20T09:27:52Z</time></trkpt><trkpt lat="43.97239126148044" lon="12.089349310562548"><ele>229.0</ele><time>2026-04-20T09:27:53Z</time></trkpt><trkpt lat="43.9723498369679" lon="12.089464213502577"><ele>228.49999999999997</ele><time>2026-04-20T09:27:54Z</time></trkpt><trkpt lat="43.97230832235813" lon="12.08954935141135"><ele>228.0</ele><time>2026-04-20T09:27:55Z</time></trkpt><trkpt lat="43.97231622708114" lon="12.08970795554591"><ele>227.5</ele><time>2026-04-20T09:27:57Z</time></trkpt><trkpt lat="43.97235721198298" lon="12.089779406469638"><ele>227.0</ele><time>2026-04-20T09:27:58Z</time></trkpt><trkpt lat="43.972405372114764" lon="12.08991910271815"><ele>226.49999999999997</ele><time>2026-04-20T09:28:00Z</time></trkpt><trkpt lat="43.972412158428824" lon="12.090006400769184"><ele>226.0</ele><time>2026-04-20T09:28:01Z</time></trkpt><trkpt lat="43.972411663868584" lon="12.09009687636949"><ele>228.16666666666666</ele><time>2026-04-20T09:28:02Z</time></trkpt><trkpt lat="43.97240649560636" lon="12.090191151505104"><ele>230.33333333333331</ele><time>2026-04-20T09:28:03Z</time></trkpt><trkpt lat="43.97238978361951" lon="12.09028405102948"><ele>232.5</ele><time>2026-04-20T09:28:04Z</time></trkpt><trkpt lat="43.972328629177994" lon="12.090348013990022"><ele>234.66666666666669</ele><time>2026-04-20T09:28:05Z</time></trkpt><trkpt lat="43.97225224065494" lon="12.090431112779198"><ele>236.83333333333334</ele><time>2026-04-20T09:28:06Z</time></trkpt><trkpt lat="43.972193273809886" lon="12.090501086140607"><ele>239.0</ele><time>2026-04-20T09:28:07Z</time></trkpt><trkpt lat="43.972092703092734" lon="12.090573716240414"><ele>239.0</ele><time>2026-04-20T09:28:08Z</time></trkpt><trkpt lat="43.97200509186663" lon="12.09067226899309"><ele>239.0</ele><time>2026-04-20T09:28:09Z</time></trkpt><trkpt lat="43.971898926936205" lon="12.090744611254921"><ele>239.0</ele><time>2026-04-20T09:28:10Z</time></trkpt><trkpt lat="43.97179566461322" lon="12.09083763678373"><ele>239.0</ele><time>2026-04-20T09:28:11Z</time></trkpt><trkpt lat="43.97170310618858" lon="12.090925029821767"><ele>241.33333333333334</ele><time>2026-04-20T09:28:12Z</time></trkpt><trkpt lat="43.97161925528845" lon="12.09100420127732"><ele>243.66666666666669</ele><time>2026-04-20T09:28:13Z</time></trkpt><trkpt lat="43.971544877817585" lon="12.09106607235597"><ele>246.0</ele><time>2026-04-20T09:28:14Z</time></trkpt><trkpt lat="43.971477362375595" lon="12.091116056366428"><ele>248.33333333333331</ele><time>2026-04-20T09:28:15Z</time></trkpt><trkpt lat="43.971426899127856" lon="12.09120769610978"><ele>250.66666666666666</ele><time>2026-04-20T09:28:16.999Z</time></trkpt><trkpt lat="43.97149981032961" lon="12.091280003659259"><ele>253.0</ele><time>2026-04-20T09:28:18.999Z</time></trkpt><trkpt lat="43.97157567948929" lon="12.09127559177701"><ele>253.0</ele><time>2026-04-20T09:28:19.999Z</time></trkpt><trkpt lat="43.97165962663378" lon="12.091221018079649"><ele>253.0</ele><time>2026-04-20T09:28:20.999Z</time></trkpt><trkpt lat="43.97174325159607" lon="12.091151857678838"><ele>253.0</ele><time>2026-04-20T09:28:21.999Z</time></trkpt><trkpt lat="43.97184007405225" lon="12.09110005461221"><ele>253.0</ele><time>2026-04-20T09:28:22.999Z</time></trkpt><trkpt lat="43.97193667659976" lon="12.091074676789072"><ele>253.0</ele><time>2026-04-20T09:28:23.999Z</time></trkpt><trkpt lat="43.972028561555454" lon="12.091076010680233"><ele>254.60000000000002</ele><time>2026-04-20T09:28:24.999Z</time></trkpt><trkpt lat="43.97211806473189" lon="12.091108222301589"><ele>256.20000000000005</ele><time>2026-04-20T09:28:26Z</time></trkpt><trkpt lat="43.97221177401377" lon="12.091170500041992"><ele>257.8</ele><time>2026-04-20T09:28:27Z</time></trkpt><trkpt lat="43.97231298319971" lon="12.091233243826675"><ele>259.40000000000003</ele><time>2026-04-20T09:28:28Z</time></trkpt><trkpt lat="43.972418899885575" lon="12.091260479285957"><ele>261.0</ele><time>2026-04-20T09:28:29Z</time></trkpt><trkpt lat="43.97253473164234" lon="12.091244634714213"><ele>261.0</ele><time>2026-04-20T09:28:30Z</time></trkpt><trkpt lat="43.97265753274232" lon="12.091235695701732"><ele>261.0</ele><time>2026-04-20T09:28:31Z</time></trkpt><trkpt lat="43.97277143107483" lon="12.091253384285324"><ele>261.0</ele><time>2026-04-20T09:28:32Z</time></trkpt><trkpt lat="43.97286095427012" lon="12.091281483714528"><ele>261.0</ele><time>2026-04-20T09:28:33Z</time></trkpt><trkpt lat="43.97293615989871" lon="12.091376322943537"><ele>261.0</ele><time>2026-04-20T09:28:35Z</time></trkpt><trkpt lat="43.972856739391" lon="12.091467455161238"><ele>261.0</ele><time>2026-04-20T09:28:37Z</time></trkpt><trkpt lat="43.9727341327883" lon="12.091452836988978"><ele>261.0</ele><time>2026-04-20T09:28:39Z</time></trkpt><trkpt lat="43.972647287938464" lon="12.091443288190453"><ele>261.0</ele><time>2026-04-20T09:28:40Z</time></trkpt><trkpt lat="43.97255766090095" lon="12.09147239170958"><ele>261.0</ele><time>2026-04-20T09:28:41Z</time></trkpt><trkpt lat="43.9724600170954" lon="12.091519658139006"><ele>261.0</ele><time>2026-04-20T09:28:42Z</time></trkpt><trkpt lat="43.97235046226231" lon="12.09154726276818"><ele>261.6</ele><time>2026-04-20T09:28:43Z</time></trkpt><trkpt lat="43.9722372521849" lon="12.09158017507134"><ele>262.20000000000005</ele><time>2026-04-20T09:28:44Z</time></trkpt><trkpt lat="43.972134770024944" lon="12.09160339471859"><ele>262.79999999999995</ele><time>2026-04-20T09:28:45Z</time></trkpt><trkpt lat="43.97204301694538" lon="12.091600027946727"><ele>263.4</ele><time>2026-04-20T09:28:46Z</time></trkpt><trkpt lat="43.97196589815333" lon="12.091610059697398"><ele>264.0</ele><time>2026-04-20T09:28:47Z</time></trkpt><trkpt lat="43.971888915792974" lon="12.091676409258712"><ele>270.2</ele><time>2026-04-20T09:28:49Z</time></trkpt><trkpt lat="43.97190222033443" lon="12.091807690240003"><ele>276.4</ele><time>2026-04-20T09:28:50Z</time></trkpt><trkpt lat="43.97199421069527" lon="12.091878739673865"><ele>282.6</ele><time>2026-04-20T09:28:51Z</time></trkpt><trkpt lat="43.97209088786862" lon="12.091909651968976"><ele>288.8</ele><time>2026-04-20T09:28:52Z</time></trkpt><trkpt lat="43.97219139153023" lon="12.091887559977238"><ele>295.0</ele><time>2026-04-20T09:28:53Z</time></trkpt><trkpt lat="43.97227719303198" lon="12.091835528678722"><ele>295.0</ele><time>2026-04-20T09:28:54Z</time></trkpt><trkpt lat="43.97237459407341" lon="12.091881164024205"><ele>295.0</ele><time>2026-04-20T09:28:56Z</time></trkpt><trkpt lat="43.97233435065043" lon="12.092040110746233"><ele>295.0</ele><time>2026-04-20T09:28:58Z</time></trkpt><trkpt lat="43.97223490275765" lon="12.091999022259825"><ele>295.0</ele><time>2026-04-20T09:28:59Z</time></trkpt><trkpt lat="43.972144246854334" lon="12.092001546921516"><ele>295.0</ele><time>2026-04-20T09:29:00Z</time></trkpt><trkpt lat="43.97204125705817" lon="12.092022170183792"><ele>295.0</ele><time>2026-04-20T09:29:01Z</time></trkpt><trkpt lat="43.97193436525133" lon="12.092051874785259"><ele>295.0</ele><time>2026-04-20T09:29:02Z</time></trkpt><trkpt lat="43.97182027751346" lon="12.092083355439398"><ele>295.0</ele><time>2026-04-20T09:29:03Z</time></trkpt><trkpt lat="43.97171454207497" lon="12.092105139689748"><ele>295.0</ele><time>2026-04-20T09:29:04Z</time></trkpt><trkpt lat="43.9715977798102" lon="12.092119719071036"><ele>295.0</ele><time>2026-04-20T09:29:05Z</time></trkpt><trkpt lat="43.97149009688308" lon="12.09213523597304"><ele>294.0</ele><time>2026-04-20T09:29:06Z</time></trkpt><trkpt lat="43.97141048057493" lon="12.092179819070054"><ele>293.0</ele><time>2026-04-20T09:29:07Z</time></trkpt><trkpt lat="43.97134330618756" lon="12.092198743403856"><ele>292.0</ele><time>2026-04-20T09:29:08Z</time></trkpt><trkpt lat="43.97130398629628" lon="12.092313978182423"><ele>291.0</ele><time>2026-04-20T09:29:09Z</time></trkpt><trkpt lat="43.97125335787276" lon="12.092423619048919"><ele>290.0</ele><time>2026-04-20T09:29:10Z</time></trkpt><trkpt lat="43.97117335422345" lon="12.092487856360039"><ele>289.0</ele><time>2026-04-20T09:29:11Z</time></trkpt><trkpt lat="43.971092802983776" lon="12.09254055177818"><ele>294.0</ele><time>2026-04-20T09:29:12Z</time></trkpt><trkpt lat="43.97100548520738" lon="12.092591143970527"><ele>299.0</ele><time>2026-04-20T09:29:13Z</time></trkpt><trkpt lat="43.970894866705486" lon="12.092600509531831"><ele>304.0</ele><time>2026-04-20T09:29:14Z</time></trkpt><trkpt lat="43.970816946547934" lon="12.092635869282576"><ele>309.0</ele><time>2026-04-20T09:29:15Z</time></trkpt><trkpt lat="43.97076611181663" lon="12.092696134485681"><ele>314.0</ele><time>2026-04-20T09:29:16Z</time></trkpt><trkpt lat="43.97074527629324" lon="12.092807048197352"><ele>319.0</ele><time>2026-04-20T09:29:17Z</time></trkpt><trkpt lat="43.97075413282735" lon="12.09295193393131"><ele>319.0</ele><time>2026-04-20T09:29:18Z</time></trkpt><trkpt lat="43.97078357683821" lon="12.093117758975154"><ele>319.0</ele><time>2026-04-20T09:29:19Z</time></trkpt><trkpt lat="43.970821411171556" lon="12.093280298840446"><ele>319.0</ele><time>2026-04-20T09:29:20Z</time></trkpt><trkpt lat="43.97084828852858" lon="12.093467778160738"><ele>319.0</ele><time>2026-04-20T09:29:21Z</time></trkpt><trkpt lat="43.970822106336065" lon="12.093669833492212"><ele>320.79999999999995</ele><time>2026-04-20T09:29:22Z</time></trkpt><trkpt lat="43.97081671502358" lon="12.093858012237432"><ele>322.59999999999997</ele><time>2026-04-20T09:29:23Z</time></trkpt><trkpt lat="43.970808017860406" lon="12.094031610154122"><ele>324.4</ele><time>2026-04-20T09:29:24Z</time></trkpt><trkpt lat="43.97083163165029" lon="12.094180680569432"><ele>326.2</ele><time>2026-04-20T09:29:25Z</time></trkpt><trkpt lat="43.97083918100269" lon="12.094278615347246"><ele>328.0</ele><time>2026-04-20T09:29:26Z</time></trkpt><trkpt lat="43.970882693154266" lon="12.094358958286278"><ele>332.66666666666663</ele><time>2026-04-20T09:29:27Z</time></trkpt><trkpt lat="43.97096111336855" lon="12.094369621064878"><ele>337.3333333333333</ele><time>2026-04-20T09:29:28Z</time></trkpt><trkpt lat="43.97103159939356" lon="12.094301620238975"><ele>342.0</ele><time>2026-04-20T09:29:29Z</time></trkpt><trkpt lat="43.971042060242794" lon="12.094169824654234"><ele>346.6666666666667</ele><time>2026-04-20T09:29:30Z</time></trkpt><trkpt lat="43.971048007050065" lon="12.094054635323436"><ele>351.33333333333337</ele><time>2026-04-20T09:29:31Z</time></trkpt><trkpt lat="43.971080462340616" lon="12.093944578568934"><ele>356.0</ele><time>2026-04-20T09:29:32Z</time></trkpt><trkpt lat="43.97111031463302" lon="12.0938279806451"><ele>356.0</ele><time>2026-04-20T09:29:33Z</time></trkpt><trkpt lat="43.97115310720461" lon="12.093696727038221"><ele>356.0</ele><time>2026-04-20T09:29:34Z</time></trkpt><trkpt lat="43.97120936564359" lon="12.09355993381878"><ele>356.0</ele><time>2026-04-20T09:29:35Z</time></trkpt><trkpt lat="43.9712700936398" lon="12.093428753297104"><ele>356.0</ele><time>2026-04-20T09:29:36Z</time></trkpt><trkpt lat="43.9713446453521" lon="12.093299720977043"><ele>356.0</ele><time>2026-04-20T09:29:37Z</time></trkpt><trkpt lat="43.97142115758337" lon="12.093193242607732"><ele>351.8</ele><time>2026-04-20T09:29:38Z</time></trkpt><trkpt lat="43.97149871625286" lon="12.0931068970165"><ele>347.6</ele><time>2026-04-20T09:29:39Z</time></trkpt><trkpt lat="43.97157293713438" lon="12.09302407030373"><ele>343.4</ele><time>2026-04-20T09:29:40Z</time></trkpt><trkpt lat="43.97167045291197" lon="12.092988999169018"><ele>339.2</ele><time>2026-04-20T09:29:41Z</time></trkpt><trkpt lat="43.97178110308444" lon="12.09297977272198"><ele>335.0</ele><time>2026-04-20T09:29:42Z</time></trkpt><trkpt lat="43.971902591370174" lon="12.092988821302724"><ele>334.75</ele><time>2026-04-20T09:29:43Z</time></trkpt><trkpt lat="43.97202783846653" lon="12.09300377434705"><ele>334.5</ele><time>2026-04-20T09:29:44Z</time></trkpt><trkpt lat="43.972150789231456" lon="12.093017001639623"><ele>334.25</ele><time>2026-04-20T09:29:45Z</time></trkpt><trkpt lat="43.97226643074549" lon="12.093052408063842"><ele>334.0</ele><time>2026-04-20T09:29:46Z</time></trkpt><trkpt lat="43.97236701775203" lon="12.093074459254007"><ele>334.0</ele><time>2026-04-20T09:29:47Z</time></trkpt><trkpt lat="43.972452408980146" lon="12.093103202559744"><ele>334.0</ele><time>2026-04-20T09:29:48Z</time></trkpt><trkpt lat="43.972536308617734" lon="12.093157411153669"><ele>334.0</ele><time>2026-04-20T09:29:49Z</time></trkpt><trkpt lat="43.972618425367564" lon="12.093266938365499"><ele>334.0</ele><time>2026-04-20T09:29:50Z</time></trkpt><trkpt lat="43.97268006806226" lon="12.093343908488803"><ele>334.0</ele><time>2026-04-20T09:29:51Z</time></trkpt><trkpt lat="43.97270260044446" lon="12.093472544262594"><ele>338.0</ele><time>2026-04-20T09:29:53Z</time></trkpt><trkpt lat="43.97259520486889" lon="12.093465646217089"><ele>342.0</ele><time>2026-04-20T09:29:55Z</time></trkpt><trkpt lat="43.972546777258906" lon="12.093398915060483"><ele>346.0</ele><time>2026-04-20T09:29:56Z</time></trkpt><trkpt lat="43.972463781910946" lon="12.09333768418324"><ele>350.0</ele><time>2026-04-20T09:29:57Z</time></trkpt><trkpt lat="43.972383523242286" lon="12.093268752392897"><ele>354.0</ele><time>2026-04-20T09:29:58Z</time></trkpt><trkpt lat="43.97229207817763" lon="12.093265131284543"><ele>358.25</ele><time>2026-04-20T09:29:59Z</time></trkpt><trkpt lat="43.97220957673804" lon="12.09333516597084"><ele>362.5</ele><time>2026-04-20T09:30:00Z</time></trkpt><trkpt lat="43.97214808488854" lon="12.09345972996647"><ele>366.75</ele><time>2026-04-20T09:30:01Z</time></trkpt><trkpt lat="43.97208775065074" lon="12.093617582524994"><ele>371.0</ele><time>2026-04-20T09:30:02Z</time></trkpt><trkpt lat="43.9720393466825" lon="12.093771351788012"><ele>371.0</ele><time>2026-04-20T09:30:03Z</time></trkpt><trkpt lat="43.97200647791447" lon="12.093911789073276"><ele>371.0</ele><time>2026-04-20T09:30:04Z</time></trkpt><trkpt lat="43.97200885385403" lon="12.094054836639184"><ele>371.0</ele><time>2026-04-20T09:30:05Z</time></trkpt><trkpt lat="43.97205014034134" lon="12.094197858751404"><ele>371.0</ele><time>2026-04-20T09:30:06Z</time></trkpt><trkpt lat="43.97210698400633" lon="12.094347259978802"><ele>371.0</ele><time>2026-04-20T09:30:07Z</time></trkpt><trkpt lat="43.97216060579115" lon="12.094511273977755"><ele>375.75</ele><time>2026-04-20T09:30:08Z</time></trkpt><trkpt lat="43.97221485671654" lon="12.094682585196812"><ele>380.5</ele><time>2026-04-20T09:30:09Z</time></trkpt><trkpt lat="43.97229425457059" lon="12.094848215669282"><ele>385.25</ele><time>2026-04-20T09:30:10Z</time></trkpt><trkpt lat="43.972373250635634" lon="12.095007205106882"><ele>390.0</ele><time>2026-04-20T09:30:11Z</time></trkpt><trkpt lat="43.97244237847465" lon="12.095176271450157"><ele>394.75</ele><time>2026-04-20T09:30:12Z</time></trkpt><trkpt lat="43.97253048383504" lon="12.095328267581769"><ele>399.5</ele><time>2026-04-20T09:30:13Z</time></trkpt><trkpt lat="43.9726345647627" lon="12.095471040281994"><ele>404.25</ele><time>2026-04-20T09:30:14Z</time></trkpt><trkpt lat="43.97275683995204" lon="12.095573685407132"><ele>409.0</ele><time>2026-04-20T09:30:15Z</time></trkpt><trkpt lat="43.97301398384339" lon="12.095758151766855"><ele>409.5</ele><time>2026-04-20T09:30:17Z</time></trkpt><trkpt lat="43.97314476570709" lon="12.09584902012095"><ele>410.0</ele><time>2026-04-20T09:30:18Z</time></trkpt><trkpt lat="43.9732585302844" lon="12.09595540047592"><ele>410.5</ele><time>2026-04-20T09:30:19Z</time></trkpt><trkpt lat="43.97334516929052" lon="12.096074640290512"><ele>411.0</ele><time>2026-04-20T09:30:20Z</time></trkpt><trkpt lat="43.973393023026986" lon="12.096203022235754"><ele>411.0</ele><time>2026-04-20T09:30:21Z</time></trkpt><trkpt lat="43.97336265116058" lon="12.096330969250689"><ele>411.0</ele><time>2026-04-20T09:30:22Z</time></trkpt><trkpt lat="43.973337296262414" lon="12.09643546420678"><ele>411.0</ele><time>2026-04-20T09:30:23Z</time></trkpt><trkpt lat="43.97332666742858" lon="12.096556215017488"><ele>411.0</ele><time>2026-04-20T09:30:24Z</time></trkpt><trkpt lat="43.97328633253229" lon="12.096693721822398"><ele>411.0</ele><time>2026-04-20T09:30:25Z</time></trkpt><trkpt lat="43.97324679354187" lon="12.096844276163777"><ele>411.5</ele><time>2026-04-20T09:30:26Z</time></trkpt><trkpt lat="43.97315823936832" lon="12.096982875072449"><ele>412.0</ele><time>2026-04-20T09:30:27Z</time></trkpt><trkpt lat="43.973051904758464" lon="12.09710690794643"><ele>412.5</ele><time>2026-04-20T09:30:28Z</time></trkpt><trkpt lat="43.97292892870919" lon="12.097199854914798"><ele>413.0</ele><time>2026-04-20T09:30:29Z</time></trkpt><trkpt lat="43.97280583824822" lon="12.097301540711767"><ele>413.0</ele><time>2026-04-20T09:30:30Z</time></trkpt><trkpt lat="43.97268904140517" lon="12.097392854539038"><ele>413.0</ele><time>2026-04-20T09:30:31Z</time></trkpt><trkpt lat="43.97259882484598" lon="12.097487614497256"><ele>413.0</ele><time>2026-04-20T09:30:32Z</time></trkpt><trkpt lat="43.97252738345337" lon="12.097534599932144"><ele>413.0</ele><time>2026-04-20T09:30:33Z</time></trkpt><trkpt lat="43.97250459829394" lon="12.097653513274837"><ele>413.0</ele><time>2026-04-20T09:30:35Z</time></trkpt><trkpt lat="43.97261625868985" lon="12.097691540479893"><ele>415.16666666666663</ele><time>2026-04-20T09:30:36.999Z</time></trkpt><trkpt lat="43.97269945845172" lon="12.097682655710788"><ele>417.3333333333333</ele><time>2026-04-20T09:30:37.999Z</time></trkpt><trkpt lat="43.97277656739297" lon="12.097701577990703"><ele>419.5</ele><time>2026-04-20T09:30:38.999Z</time></trkpt><trkpt lat="43.972821962096866" lon="12.0977649448401"><ele>421.66666666666663</ele><time>2026-04-20T09:30:39.999Z</time></trkpt><trkpt lat="43.972825365289864" lon="12.097861047452833"><ele>423.8333333333333</ele><time>2026-04-20T09:30:40.999Z</time></trkpt><trkpt lat="43.972769635087445" lon="12.097944559442885"><ele>426.0</ele><time>2026-04-20T09:30:41.999Z</time></trkpt><trkpt lat="43.97272033941861" lon="12.098042865204405"><ele>426.0</ele><time>2026-04-20T09:30:42.999Z</time></trkpt><trkpt lat="43.972663957557046" lon="12.098126073973171"><ele>426.0</ele><time>2026-04-20T09:30:44Z</time></trkpt><trkpt lat="43.97261867178062" lon="12.098209129763557"><ele>426.0</ele><time>2026-04-20T09:30:45Z</time></trkpt><trkpt lat="43.97258815728533" lon="12.098312819597655"><ele>426.0</ele><time>2026-04-20T09:30:46Z</time></trkpt><trkpt lat="43.97256246547464" lon="12.09841121291153"><ele>426.0</ele><time>2026-04-20T09:30:47Z</time></trkpt><trkpt lat="43.97253904454038" lon="12.098527722543992"><ele>426.0</ele><time>2026-04-20T09:30:48Z</time></trkpt><trkpt lat="43.97251028218129" lon="12.09864787254894"><ele>427.5</ele><time>2026-04-20T09:30:49Z</time></trkpt><trkpt lat="43.972497223960644" lon="12.09877366504843"><ele>429.0</ele><time>2026-04-20T09:30:50Z</time></trkpt><trkpt lat="43.97249207954346" lon="12.098883013192575"><ele>430.5</ele><time>2026-04-20T09:30:51Z</time></trkpt><trkpt lat="43.972558020632576" lon="12.098964950306415"><ele>432.0</ele><time>2026-04-20T09:30:52Z</time></trkpt><trkpt lat="43.972625161586826" lon="12.099026644798236"><ele>433.5</ele><time>2026-04-20T09:30:53Z</time></trkpt><trkpt lat="43.97270107736318" lon="12.099070669616685"><ele>435.0</ele><time>2026-04-20T09:30:54Z</time></trkpt><trkpt lat="43.97277275107244" lon="12.099129360661378"><ele>439.0</ele><time>2026-04-20T09:30:55Z</time></trkpt><trkpt lat="43.9728418855182" lon="12.099202823050971"><ele>443.0</ele><time>2026-04-20T09:30:56Z</time></trkpt><trkpt lat="43.97290478267081" lon="12.099307488818571"><ele>447.0</ele><time>2026-04-20T09:30:57Z</time></trkpt><trkpt lat="43.97296519741177" lon="12.099437230135765"><ele>451.0</ele><time>2026-04-20T09:30:58Z</time></trkpt><trkpt lat="43.973022784216276" lon="12.09956973536313"><ele>455.0</ele><time>2026-04-20T09:30:59Z</time></trkpt><trkpt lat="43.973078514917894" lon="12.099705278221203"><ele>455.0</ele><time>2026-04-20T09:31:00Z</time></trkpt><trkpt lat="43.97313909092907" lon="12.099836838844354"><ele>455.0</ele><time>2026-04-20T09:31:01Z</time></trkpt><trkpt lat="43.973193228842476" lon="12.099965332914214"><ele>455.0</ele><time>2026-04-20T09:31:02Z</time></trkpt><trkpt lat="43.973275847989925" lon="12.100067078545111"><ele>455.0</ele><time>2026-04-20T09:31:03Z</time></trkpt><trkpt lat="43.973367823283056" lon="12.100144648101447"><ele>455.0</ele><time>2026-04-20T09:31:04Z</time></trkpt><trkpt lat="43.97347755164517" lon="12.100189541876867"><ele>462.0</ele><time>2026-04-20T09:31:05Z</time></trkpt><trkpt lat="43.973573002933506" lon="12.10025952471405"><ele>469.0</ele><time>2026-04-20T09:31:06Z</time></trkpt><trkpt lat="43.973657864736445" lon="12.100356984883284"><ele>476.0</ele><time>2026-04-20T09:31:07Z</time></trkpt><trkpt lat="43.97371678400132" lon="12.100492499221922"><ele>483.0</ele><time>2026-04-20T09:31:08Z</time></trkpt><trkpt lat="43.97374801833693" lon="12.100653348179963"><ele>480.5</ele><time>2026-04-20T09:31:09Z</time></trkpt><trkpt lat="43.97377542948553" lon="12.100826011620738"><ele>478.0</ele><time>2026-04-20T09:31:10Z</time></trkpt><trkpt lat="43.973810205479516" lon="12.101004350385551"><ele>475.5</ele><time>2026-04-20T09:31:11Z</time></trkpt><trkpt lat="43.973846564216274" lon="12.101182161887525"><ele>473.0</ele><time>2026-04-20T09:31:12Z</time></trkpt><trkpt lat="43.97388066020202" lon="12.10136383566679"><ele>473.0</ele><time>2026-04-20T09:31:13Z</time></trkpt><trkpt lat="43.97391138652439" lon="12.101549618147622"><ele>473.0</ele><time>2026-04-20T09:31:14Z</time></trkpt><trkpt lat="43.97393893756104" lon="12.10173640556586"><ele>473.0</ele><time>2026-04-20T09:31:15Z</time></trkpt><trkpt lat="43.97395781685783" lon="12.10193526938318"><ele>473.0</ele><time>2026-04-20T09:31:16Z</time></trkpt><trkpt lat="43.97397542063445" lon="12.102137361496327"><ele>471.25</ele><time>2026-04-20T09:31:17Z</time></trkpt><trkpt lat="43.97399248776661" lon="12.102334482794905"><ele>469.5</ele><time>2026-04-20T09:31:18Z</time></trkpt><trkpt lat="43.974013373324375" lon="12.102521231381706"><ele>467.75</ele><time>2026-04-20T09:31:19Z</time></trkpt><trkpt lat="43.974027605708635" lon="12.102700740541335"><ele>466.0</ele><time>2026-04-20T09:31:20Z</time></trkpt><trkpt lat="43.974036911718635" lon="12.102864856241823"><ele>464.25</ele><time>2026-04-20T09:31:21Z</time></trkpt><trkpt lat="43.97409476463539" lon="12.103135864530122"><ele>462.5</ele><time>2026-04-20T09:31:23Z</time></trkpt><trkpt lat="43.97416260015819" lon="12.10325783620517"><ele>460.75</ele><time>2026-04-20T09:31:24Z</time></trkpt><trkpt lat="43.97425406123523" lon="12.10336110393709"><ele>459.0</ele><time>2026-04-20T09:31:25Z</time></trkpt><trkpt lat="43.97435549216598" lon="12.103463738517885"><ele>463.5</ele><time>2026-04-20T09:31:26Z</time></trkpt><trkpt lat="43.97443450243464" lon="12.103608777516436"><ele>468.0</ele><time>2026-04-20T09:31:27Z</time></trkpt><trkpt lat="43.97453561045603" lon="12.10372678099919"><ele>472.5</ele><time>2026-04-20T09:31:28Z</time></trkpt><trkpt lat="43.97462515206965" lon="12.103845396540647"><ele>477.0</ele><time>2026-04-20T09:31:29Z</time></trkpt><trkpt lat="43.97468530254246" lon="12.10396014379567"><ele>474.8</ele><time>2026-04-20T09:31:30Z</time></trkpt><trkpt lat="43.974708778981594" lon="12.10408588385273"><ele>472.6</ele><time>2026-04-20T09:31:31Z</time></trkpt><trkpt lat="43.97469070021315" lon="12.104229755420427"><ele>470.40000000000003</ele><time>2026-04-20T09:31:32Z</time></trkpt><trkpt lat="43.97469043772184" lon="12.104376887442987"><ele>468.20000000000005</ele><time>2026-04-20T09:31:33Z</time></trkpt><trkpt lat="43.97472241151347" lon="12.10453960279899"><ele>466.0</ele><time>2026-04-20T09:31:34Z</time></trkpt><trkpt lat="43.9747505561596" lon="12.104703232750754"><ele>466.00000000000006</ele><time>2026-04-20T09:31:35Z</time></trkpt><trkpt lat="43.9747813706399" lon="12.10483519042074"><ele>466.0</ele><time>2026-04-20T09:31:36Z</time></trkpt><trkpt lat="43.97479511324304" lon="12.104956627961315"><ele>466.0</ele><time>2026-04-20T09:31:37Z</time></trkpt><trkpt lat="43.974788835827496" lon="12.105067036204177"><ele>466.0</ele><time>2026-04-20T09:31:38Z</time></trkpt><trkpt lat="43.97476342085351" lon="12.105177492866758"><ele>466.00000000000006</ele><time>2026-04-20T09:31:39Z</time></trkpt><trkpt lat="43.97470168459202" lon="12.105283066173815"><ele>466.0</ele><time>2026-04-20T09:31:40Z</time></trkpt><trkpt lat="43.97464454249334" lon="12.105382689367095"><ele>466.0</ele><time>2026-04-20T09:31:41Z</time></trkpt><trkpt lat="43.97456130938443" lon="12.105475956437711"><ele>466.0</ele><time>2026-04-20T09:31:42Z</time></trkpt><trkpt lat="43.97445468351741" lon="12.105536031588484"><ele>466.0</ele><time>2026-04-20T09:31:43Z</time></trkpt><trkpt lat="43.97433228989488" lon="12.105624050181182"><ele>466.0</ele><time>2026-04-20T09:31:44Z</time></trkpt><trkpt lat="43.97419540825267" lon="12.105685690866531"><ele>460.0</ele><time>2026-04-20T09:31:45Z</time></trkpt><trkpt lat="43.97406763932457" lon="12.105726567834642"><ele>454.0</ele><time>2026-04-20T09:31:46Z</time></trkpt><trkpt lat="43.97395063167161" lon="12.105728886679415"><ele>448.0</ele><time>2026-04-20T09:31:47Z</time></trkpt><trkpt lat="43.97386120286173" lon="12.105605078020544"><ele>442.0</ele><time>2026-04-20T09:31:48Z</time></trkpt><trkpt lat="43.97376454647424" lon="12.10556996964887"><ele>442.0</ele><time>2026-04-20T09:31:49Z</time></trkpt><trkpt lat="43.973665938979735" lon="12.105562816990998"><ele>442.0</ele><time>2026-04-20T09:31:50Z</time></trkpt><trkpt lat="43.97356895419807" lon="12.105621575403694"><ele>442.0</ele><time>2026-04-20T09:31:51Z</time></trkpt><trkpt lat="43.973363496517536" lon="12.1057702074189"><ele>442.0</ele><time>2026-04-20T09:31:53Z</time></trkpt><trkpt lat="43.97326259402043" lon="12.10585478108982"><ele>448.25</ele><time>2026-04-20T09:31:54Z</time></trkpt><trkpt lat="43.97315135352303" lon="12.105890388065625"><ele>454.5</ele><time>2026-04-20T09:31:55Z</time></trkpt><trkpt lat="43.97304149457058" lon="12.105943446125229"><ele>460.75</ele><time>2026-04-20T09:31:56Z</time></trkpt><trkpt lat="43.97291027503093" lon="12.105965818502849"><ele>467.0</ele><time>2026-04-20T09:31:57Z</time></trkpt><trkpt lat="43.97279050061991" lon="12.106022105062838"><ele>466.99999999999994</ele><time>2026-04-20T09:31:58Z</time></trkpt><trkpt lat="43.972697585201146" lon="12.106083709615875"><ele>467.0</ele><time>2026-04-20T09:31:59Z</time></trkpt><trkpt lat="43.972628977848245" lon="12.10613545709027"><ele>467.0</ele><time>2026-04-20T09:32:00Z</time></trkpt><trkpt lat="43.97257903534341" lon="12.106197000829228"><ele>467.0</ele><time>2026-04-20T09:32:01Z</time></trkpt><trkpt lat="43.97252910166912" lon="12.10628795544969"><ele>466.99999999999994</ele><time>2026-04-20T09:32:02Z</time></trkpt><trkpt lat="43.97246430873881" lon="12.10637538587809"><ele>467.0</ele><time>2026-04-20T09:32:03Z</time></trkpt><trkpt lat="43.97242297811946" lon="12.106489597903096"><ele>466.99999999999994</ele><time>2026-04-20T09:32:04Z</time></trkpt><trkpt lat="43.97237934784648" lon="12.106581241318036"><ele>467.0</ele><time>2026-04-20T09:32:05Z</time></trkpt><trkpt lat="43.97236462673525" lon="12.1066731427243"><ele>467.0</ele><time>2026-04-20T09:32:06Z</time></trkpt><trkpt lat="43.97243706165269" lon="12.106762508968732"><ele>467.0</ele><time>2026-04-20T09:32:08Z</time></trkpt><trkpt lat="43.972501782578334" lon="12.106751585535198"><ele>466.99999999999994</ele><time>2026-04-20T09:32:10Z</time></trkpt><trkpt lat="43.97254447512814" lon="12.10668203763238"><ele>467.0</ele><time>2026-04-20T09:32:11Z</time></trkpt><trkpt lat="43.97257541597832" lon="12.106557891230379"><ele>467.0</ele><time>2026-04-20T09:32:12Z</time></trkpt><trkpt lat="43.97260891026755" lon="12.10644772991156"><ele>467.00000000000006</ele><time>2026-04-20T09:32:13Z</time></trkpt><trkpt lat="43.97267968684803" lon="12.106388138736342"><ele>467.00000000000006</ele><time>2026-04-20T09:32:14Z</time></trkpt><trkpt lat="43.972765400707964" lon="12.10636572663644"><ele>467.0</ele><time>2026-04-20T09:32:15Z</time></trkpt><trkpt lat="43.972863028181074" lon="12.106412639075925"><ele>467.0</ele><time>2026-04-20T09:32:16Z</time></trkpt><trkpt lat="43.972976760156335" lon="12.106448892356502"><ele>467.0</ele><time>2026-04-20T09:32:17Z</time></trkpt><trkpt lat="43.973088537698075" lon="12.106462421536145"><ele>467.00000000000006</ele><time>2026-04-20T09:32:18Z</time></trkpt><trkpt lat="43.973167500646184" lon="12.106453926346834"><ele>467.00000000000006</ele><time>2026-04-20T09:32:19Z</time></trkpt><trkpt lat="43.9732624307134" lon="12.106451393320754"><ele>467.0</ele><time>2026-04-20T09:32:21Z</time></trkpt><trkpt lat="43.97327033714387" lon="12.106569939555214"><ele>467.0</ele><time>2026-04-20T09:32:23Z</time></trkpt><trkpt lat="43.97319711226712" lon="12.10661822451277"><ele>473.40000000000003</ele><time>2026-04-20T09:32:25Z</time></trkpt><trkpt lat="43.97305544577035" lon="12.106633679466684"><ele>479.80000000000007</ele><time>2026-04-20T09:32:27Z</time></trkpt><trkpt lat="43.97298291940885" lon="12.106666609755841"><ele>486.2</ele><time>2026-04-20T09:32:28Z</time></trkpt><trkpt lat="43.97293069035367" lon="12.106769621119764"><ele>492.6</ele><time>2026-04-20T09:32:29Z</time></trkpt><trkpt lat="43.9729304332632" lon="12.106900699480146"><ele>499.0</ele><time>2026-04-20T09:32:30Z</time></trkpt><trkpt lat="43.9729271918908" lon="12.107053693259111"><ele>499.0</ele><time>2026-04-20T09:32:31Z</time></trkpt><trkpt lat="43.97294540303393" lon="12.10721043734075"><ele>499.0</ele><time>2026-04-20T09:32:32Z</time></trkpt><trkpt lat="43.97297986406609" lon="12.107379575595035"><ele>499.0</ele><time>2026-04-20T09:32:33Z</time></trkpt><trkpt lat="43.9730187043515" lon="12.10755536873297"><ele>499.0</ele><time>2026-04-20T09:32:34Z</time></trkpt><trkpt lat="43.97305698715832" lon="12.10773788724331"><ele>502.0</ele><time>2026-04-20T09:32:35Z</time></trkpt><trkpt lat="43.97308379544963" lon="12.107920078158752"><ele>505.0</ele><time>2026-04-20T09:32:36Z</time></trkpt><trkpt lat="43.9731053528626" lon="12.108103398309144"><ele>508.0</ele><time>2026-04-20T09:32:37Z</time></trkpt><trkpt lat="43.97311645080697" lon="12.10828710389419"><ele>511.0</ele><time>2026-04-20T09:32:38Z</time></trkpt><trkpt lat="43.97311622267688" lon="12.108449021738519"><ele>511.00000000000006</ele><time>2026-04-20T09:32:39Z</time></trkpt><trkpt lat="43.973113177595906" lon="12.108592856347956"><ele>511.0</ele><time>2026-04-20T09:32:40Z</time></trkpt><trkpt lat="43.973110921013394" lon="12.108705496227897"><ele>511.0</ele><time>2026-04-20T09:32:41Z</time></trkpt><trkpt lat="43.973116464480476" lon="12.108794092524361"><ele>511.0</ele><time>2026-04-20T09:32:42Z</time></trkpt><trkpt lat="43.97313958088074" lon="12.108888643288124"><ele>511.00000000000006</ele><time>2026-04-20T09:32:43Z</time></trkpt><trkpt lat="43.973225959978684" lon="12.108987234841257"><ele>511.0</ele><time>2026-04-20T09:32:44Z</time></trkpt><trkpt lat="43.973304490252126" lon="12.109113318414106"><ele>510.4</ele><time>2026-04-20T09:32:45Z</time></trkpt><trkpt lat="43.973350840840006" lon="12.10926538275588"><ele>509.8</ele><time>2026-04-20T09:32:46Z</time></trkpt><trkpt lat="43.9733732042809" lon="12.109415729099362"><ele>509.19999999999993</ele><time>2026-04-20T09:32:47Z</time></trkpt><trkpt lat="43.973384140852964" lon="12.109538202252647"><ele>508.59999999999997</ele><time>2026-04-20T09:32:48Z</time></trkpt><trkpt lat="43.97340980104126" lon="12.109622221437416"><ele>508.0</ele><time>2026-04-20T09:32:49Z</time></trkpt><trkpt lat="43.97348962424429" lon="12.109683586301763"><ele>509.75</ele><time>2026-04-20T09:32:51Z</time></trkpt><trkpt lat="43.97360338067868" lon="12.10959318410281"><ele>511.5</ele><time>2026-04-20T09:32:53Z</time></trkpt><trkpt lat="43.97367601479775" lon="12.109500599482427"><ele>513.25</ele><time>2026-04-20T09:32:54Z</time></trkpt><trkpt lat="43.97375767465309" lon="12.109398630485408"><ele>515.0</ele><time>2026-04-20T09:32:55Z</time></trkpt><trkpt lat="43.97386911458573" lon="12.109325590841287"><ele>515.0</ele><time>2026-04-20T09:32:56Z</time></trkpt><trkpt lat="43.97397904200074" lon="12.109251309576868"><ele>515.0</ele><time>2026-04-20T09:32:57Z</time></trkpt><trkpt lat="43.97409801286891" lon="12.109210903267751"><ele>515.0</ele><time>2026-04-20T09:32:58Z</time></trkpt><trkpt lat="43.974225757161555" lon="12.109193472884513"><ele>515.0</ele><time>2026-04-20T09:32:59Z</time></trkpt><trkpt lat="43.97436074212294" lon="12.109189110140434"><ele>517.2</ele><time>2026-04-20T09:33:00Z</time></trkpt><trkpt lat="43.97447901499358" lon="12.109167033816256"><ele>519.4</ele><time>2026-04-20T09:33:01Z</time></trkpt><trkpt lat="43.97458951645182" lon="12.109166380495571"><ele>521.6</ele><time>2026-04-20T09:33:02Z</time></trkpt><trkpt lat="43.97468630483188" lon="12.109166130264127"><ele>523.8</ele><time>2026-04-20T09:33:03Z</time></trkpt><trkpt lat="43.97477395337376" lon="12.109186885791923"><ele>526.0</ele><time>2026-04-20T09:33:04Z</time></trkpt><trkpt lat="43.9748418375754" lon="12.109231959511032"><ele>526.0</ele><time>2026-04-20T09:33:05Z</time></trkpt><trkpt lat="43.97489503942473" lon="12.109318893130439"><ele>526.0</ele><time>2026-04-20T09:33:06Z</time></trkpt><trkpt lat="43.974903212884556" lon="12.109444663996817"><ele>526.0</ele><time>2026-04-20T09:33:07Z</time></trkpt><trkpt lat="43.974951817216905" lon="12.109594215736564"><ele>526.0</ele><time>2026-04-20T09:33:08Z</time></trkpt><trkpt lat="43.97499701770638" lon="12.109729249042271"><ele>526.0</ele><time>2026-04-20T09:33:09Z</time></trkpt><trkpt lat="43.975063242306526" lon="12.109815414030562"><ele>528.6666666666667</ele><time>2026-04-20T09:33:10Z</time></trkpt><trkpt lat="43.9751274431619" lon="12.109896744570152"><ele>531.3333333333334</ele><time>2026-04-20T09:33:11Z</time></trkpt><trkpt lat="43.975188693845276" lon="12.109953115005606"><ele>534.0</ele><time>2026-04-20T09:33:12Z</time></trkpt><trkpt lat="43.9752625699498" lon="12.109965386872991"><ele>536.6666666666666</ele><time>2026-04-20T09:33:13Z</time></trkpt><trkpt lat="43.97534230020245" lon="12.109924898775027"><ele>539.3333333333333</ele><time>2026-04-20T09:33:14Z</time></trkpt><trkpt lat="43.975434528218166" lon="12.109850889031902"><ele>542.0</ele><time>2026-04-20T09:33:15Z</time></trkpt><trkpt lat="43.97554236694661" lon="12.109796621074397"><ele>542.0</ele><time>2026-04-20T09:33:16Z</time></trkpt><trkpt lat="43.97564521993745" lon="12.109766637397934"><ele>542.0</ele><time>2026-04-20T09:33:17Z</time></trkpt><trkpt lat="43.97575351080923" lon="12.10976665332112"><ele>542.0</ele><time>2026-04-20T09:33:18Z</time></trkpt><trkpt lat="43.97584207702346" lon="12.1097821720438"><ele>542.0</ele><time>2026-04-20T09:33:19Z</time></trkpt><trkpt lat="43.975911229604705" lon="12.109812069339753"><ele>542.0</ele><time>2026-04-20T09:33:20Z</time></trkpt><trkpt lat="43.975970326366905" lon="12.109879424320974"><ele>534.8000000000001</ele><time>2026-04-20T09:33:21Z</time></trkpt><trkpt lat="43.97604569722208" lon="12.109961628507076"><ele>527.6</ele><time>2026-04-20T09:33:22Z</time></trkpt><trkpt lat="43.97611620113424" lon="12.110083579897672"><ele>520.4000000000001</ele><time>2026-04-20T09:33:23Z</time></trkpt><trkpt lat="43.97618810656317" lon="12.110171163624932"><ele>513.2</ele><time>2026-04-20T09:33:24Z</time></trkpt><trkpt lat="43.97626287900855" lon="12.110207307783378"><ele>506.0</ele><time>2026-04-20T09:33:25Z</time></trkpt><trkpt lat="43.976333565477375" lon="12.110199607618638"><ele>506.0</ele><time>2026-04-20T09:33:26Z</time></trkpt><trkpt lat="43.9764022760248" lon="12.1101446471168"><ele>506.0</ele><time>2026-04-20T09:33:27Z</time></trkpt><trkpt lat="43.97650795158441" lon="12.110093925020333"><ele>506.0</ele><time>2026-04-20T09:33:28Z</time></trkpt><trkpt lat="43.97660917306792" lon="12.110034761154003"><ele>506.0</ele><time>2026-04-20T09:33:29Z</time></trkpt><trkpt lat="43.976703835946275" lon="12.11001022028806"><ele>506.0</ele><time>2026-04-20T09:33:30Z</time></trkpt><trkpt lat="43.97681562621526" lon="12.109984996117463"><ele>508.6</ele><time>2026-04-20T09:33:31Z</time></trkpt><trkpt lat="43.97691714653765" lon="12.109952987182998"><ele>511.20000000000005</ele><time>2026-04-20T09:33:32Z</time></trkpt><trkpt lat="43.977008133433586" lon="12.109980706062847"><ele>513.8</ele><time>2026-04-20T09:33:33Z</time></trkpt><trkpt lat="43.97709684821809" lon="12.110052661266328"><ele>516.4</ele><time>2026-04-20T09:33:34Z</time></trkpt><trkpt lat="43.97719959947904" lon="12.110174722089521"><ele>519.0</ele><time>2026-04-20T09:33:35Z</time></trkpt><trkpt lat="43.9773142691128" lon="12.110313746889636"><ele>519.0</ele><time>2026-04-20T09:33:36Z</time></trkpt><trkpt lat="43.97742944525758" lon="12.110426691049579"><ele>519.0</ele><time>2026-04-20T09:33:37Z</time></trkpt><trkpt lat="43.97755093968764" lon="12.110512224966797"><ele>519.0</ele><time>2026-04-20T09:33:38Z</time></trkpt><trkpt lat="43.977652730108986" lon="12.110598596720868"><ele>519.0</ele><time>2026-04-20T09:33:39Z</time></trkpt><trkpt lat="43.97774225018652" lon="12.110677200058264"><ele>522.0</ele><time>2026-04-20T09:33:40Z</time></trkpt><trkpt lat="43.97782310021931" lon="12.110733336793448"><ele>525.0</ele><time>2026-04-20T09:33:41Z</time></trkpt><trkpt lat="43.97789334345126" lon="12.11080038028081"><ele>528.0</ele><time>2026-04-20T09:33:42Z</time></trkpt><trkpt lat="43.97791655979958" lon="12.110928009816188"><ele>531.0</ele><time>2026-04-20T09:33:43Z</time></trkpt><trkpt lat="43.97795577065151" lon="12.111087152001481"><ele>534.0</ele><time>2026-04-20T09:33:44Z</time></trkpt><trkpt lat="43.97796694916954" lon="12.11126428025231"><ele>534.0</ele><time>2026-04-20T09:33:45Z</time></trkpt><trkpt lat="43.97796864197435" lon="12.111433443409945"><ele>534.0</ele><time>2026-04-20T09:33:46Z</time></trkpt><trkpt lat="43.97795522281269" lon="12.111598187041611"><ele>534.0</ele><time>2026-04-20T09:33:47Z</time></trkpt><trkpt lat="43.97792245152529" lon="12.11176079840336"><ele>534.0</ele><time>2026-04-20T09:33:48Z</time></trkpt><trkpt lat="43.977873318023754" lon="12.111912114224287"><ele>532.2</ele><time>2026-04-20T09:33:49Z</time></trkpt><trkpt lat="43.977821153182155" lon="12.112064789383059"><ele>530.4</ele><time>2026-04-20T09:33:50Z</time></trkpt><trkpt lat="43.977776352118546" lon="12.11218596843404"><ele>528.6</ele><time>2026-04-20T09:33:51Z</time></trkpt><trkpt lat="43.97774818160625" lon="12.11228432195743"><ele>526.8</ele><time>2026-04-20T09:33:52Z</time></trkpt><trkpt lat="43.97778844002514" lon="12.112431815243944"><ele>525.0</ele><time>2026-04-20T09:33:54Z</time></trkpt><trkpt lat="43.9778548920412" lon="12.112480802685145"><ele>523.0</ele><time>2026-04-20T09:33:55Z</time></trkpt><trkpt lat="43.97793967694178" lon="12.112502847073683"><ele>521.0</ele><time>2026-04-20T09:33:56Z</time></trkpt><trkpt lat="43.97804543110272" lon="12.112506752830843"><ele>519.0</ele><time>2026-04-20T09:33:57Z</time></trkpt><trkpt lat="43.97813410920873" lon="12.112551299300454"><ele>517.0</ele><time>2026-04-20T09:33:58Z</time></trkpt><trkpt lat="43.97820503332221" lon="12.112602461360726"><ele>515.0</ele><time>2026-04-20T09:33:59Z</time></trkpt><trkpt lat="43.97825378605824" lon="12.112717232009631"><ele>515.0</ele><time>2026-04-20T09:34:00Z</time></trkpt><trkpt lat="43.9783244386518" lon="12.11283743937692"><ele>515.0</ele><time>2026-04-20T09:34:01Z</time></trkpt><trkpt lat="43.978385288971914" lon="12.112980845353958"><ele>515.0</ele><time>2026-04-20T09:34:02Z</time></trkpt><trkpt lat="43.97845302196419" lon="12.113122236853572"><ele>515.0</ele><time>2026-04-20T09:34:03Z</time></trkpt><trkpt lat="43.97853124657054" lon="12.113275639513821"><ele>517.25</ele><time>2026-04-20T09:34:04Z</time></trkpt><trkpt lat="43.97861711294706" lon="12.113419942515357"><ele>519.5</ele><time>2026-04-20T09:34:05Z</time></trkpt><trkpt lat="43.978702407923635" lon="12.113541610212167"><ele>521.75</ele><time>2026-04-20T09:34:06Z</time></trkpt><trkpt lat="43.978785104135895" lon="12.113621680026405"><ele>524.0</ele><time>2026-04-20T09:34:07Z</time></trkpt><trkpt lat="43.978888364075026" lon="12.113673694020205"><ele>524.0</ele><time>2026-04-20T09:34:08Z</time></trkpt><trkpt lat="43.97901357536877" lon="12.113712864554952"><ele>524.0</ele><time>2026-04-20T09:34:09Z</time></trkpt><trkpt lat="43.979157609707" lon="12.113795289675737"><ele>524.0</ele><time>2026-04-20T09:34:10Z</time></trkpt><trkpt lat="43.979286407333674" lon="12.11392647874337"><ele>524.0</ele><time>2026-04-20T09:34:11Z</time></trkpt><trkpt lat="43.9794247539951" lon="12.114065740248511"><ele>524.75</ele><time>2026-04-20T09:34:12Z</time></trkpt><trkpt lat="43.979522104046886" lon="12.114219153801137"><ele>525.5</ele><time>2026-04-20T09:34:13Z</time></trkpt><trkpt lat="43.97960949534983" lon="12.11434869879506"><ele>526.25</ele><time>2026-04-20T09:34:14Z</time></trkpt><trkpt lat="43.97968640050558" lon="12.11445020810871"><ele>527.0</ele><time>2026-04-20T09:34:15Z</time></trkpt><trkpt lat="43.97975659001081" lon="12.114549005288065"><ele>527.0</ele><time>2026-04-20T09:34:16Z</time></trkpt><trkpt lat="43.97984017250663" lon="12.114607188068556"><ele>527.0</ele><time>2026-04-20T09:34:17Z</time></trkpt><trkpt lat="43.979943074323344" lon="12.11462445970008"><ele>527.0</ele><time>2026-04-20T09:34:18Z</time></trkpt><trkpt lat="43.98006196436143" lon="12.11463424614978"><ele>527.0</ele><time>2026-04-20T09:34:19Z</time></trkpt><trkpt lat="43.98020653910227" lon="12.114634007962652"><ele>528.5</ele><time>2026-04-20T09:34:20Z</time></trkpt><trkpt lat="43.98034463854334" lon="12.114653770207054"><ele>530.0</ele><time>2026-04-20T09:34:21Z</time></trkpt><trkpt lat="43.98048209337855" lon="12.11467207399067"><ele>531.5</ele><time>2026-04-20T09:34:22Z</time></trkpt><trkpt lat="43.9806109388511" lon="12.114696671632533"><ele>533.0</ele><time>2026-04-20T09:34:23Z</time></trkpt><trkpt lat="43.98073191148717" lon="12.114747795902721"><ele>533.0</ele><time>2026-04-20T09:34:24Z</time></trkpt><trkpt lat="43.98083324629865" lon="12.114824017121192"><ele>533.0</ele><time>2026-04-20T09:34:25Z</time></trkpt><trkpt lat="43.98093759870473" lon="12.114927207808817"><ele>533.0</ele><time>2026-04-20T09:34:26Z</time></trkpt><trkpt lat="43.981041831674084" lon="12.115042158764563"><ele>533.0</ele><time>2026-04-20T09:34:27Z</time></trkpt><trkpt lat="43.98114899674166" lon="12.115144510228234"><ele>530.6</ele><time>2026-04-20T09:34:28Z</time></trkpt><trkpt lat="43.98125594532695" lon="12.115215647762918"><ele>528.1999999999999</ele><time>2026-04-20T09:34:29Z</time></trkpt><trkpt lat="43.981356389221105" lon="12.115297300382807"><ele>525.8</ele><time>2026-04-20T09:34:30Z</time></trkpt><trkpt lat="43.981436129484244" lon="12.115395349241414"><ele>523.4</ele><time>2026-04-20T09:34:31Z</time></trkpt><trkpt lat="43.981515780872485" lon="12.115490088771583"><ele>521.0</ele><time>2026-04-20T09:34:32Z</time></trkpt><trkpt lat="43.981574874146624" lon="12.115582591140397"><ele>521.0</ele><time>2026-04-20T09:34:33Z</time></trkpt><trkpt lat="43.98161934009142" lon="12.115681936837486"><ele>521.0</ele><time>2026-04-20T09:34:34Z</time></trkpt><trkpt lat="43.981657377769636" lon="12.115811466038464"><ele>521.0</ele><time>2026-04-20T09:34:35Z</time></trkpt><trkpt lat="43.98167011264916" lon="12.1159613070493"><ele>521.0</ele><time>2026-04-20T09:34:36Z</time></trkpt><trkpt lat="43.98165273555658" lon="12.116123998747922"><ele>521.0</ele><time>2026-04-20T09:34:37Z</time></trkpt><trkpt lat="43.981592893319636" lon="12.116272671149869"><ele>522.0</ele><time>2026-04-20T09:34:38Z</time></trkpt><trkpt lat="43.98156796858606" lon="12.1164257629676"><ele>523.0</ele><time>2026-04-20T09:34:39Z</time></trkpt><trkpt lat="43.98155038847575" lon="12.116554471687506"><ele>524.0</ele><time>2026-04-20T09:34:40Z</time></trkpt><trkpt lat="43.981560843919105" lon="12.116677490400862"><ele>525.0</ele><time>2026-04-20T09:34:41Z</time></trkpt><trkpt lat="43.98160559070503" lon="12.116798331809838"><ele>526.0</ele><time>2026-04-20T09:34:42Z</time></trkpt><trkpt lat="43.98168492618714" lon="12.116919588361652"><ele>520.6666666666667</ele><time>2026-04-20T09:34:43Z</time></trkpt><trkpt lat="43.981809244613935" lon="12.117047497542437"><ele>515.3333333333334</ele><time>2026-04-20T09:34:44Z</time></trkpt><trkpt lat="43.981946849771504" lon="12.117185360158443"><ele>510.0</ele><time>2026-04-20T09:34:45Z</time></trkpt><trkpt lat="43.982065111509236" lon="12.117332598417835"><ele>514.0</ele><time>2026-04-20T09:34:46Z</time></trkpt><trkpt lat="43.982169348256285" lon="12.117463786837432"><ele>518.0</ele><time>2026-04-20T09:34:47Z</time></trkpt><trkpt lat="43.98226557869291" lon="12.117593130991239"><ele>522.0</ele><time>2026-04-20T09:34:48Z</time></trkpt><trkpt lat="43.98236083971437" lon="12.117666258036403"><ele>526.0</ele><time>2026-04-20T09:34:49Z</time></trkpt><trkpt lat="43.98245736683897" lon="12.117728036290007"><ele>524.8</ele><time>2026-04-20T09:34:50Z</time></trkpt><trkpt lat="43.98256633690539" lon="12.117755764638659"><ele>523.6</ele><time>2026-04-20T09:34:51Z</time></trkpt><trkpt lat="43.98267680163052" lon="12.117739925310428"><ele>522.4</ele><time>2026-04-20T09:34:52Z</time></trkpt><trkpt lat="43.98277394750393" lon="12.117723261513122"><ele>521.2</ele><time>2026-04-20T09:34:53Z</time></trkpt><trkpt lat="43.982849152808704" lon="12.117714400873624"><ele>520.0</ele><time>2026-04-20T09:34:54Z</time></trkpt><trkpt lat="43.98293973397324" lon="12.1177702989218"><ele>520.0</ele><time>2026-04-20T09:34:56Z</time></trkpt><trkpt lat="43.982953663863896" lon="12.117896790983727"><ele>520.0</ele><time>2026-04-20T09:34:57Z</time></trkpt><trkpt lat="43.98295643972884" lon="12.118067387109068"><ele>520.0</ele><time>2026-04-20T09:34:58Z</time></trkpt><trkpt lat="43.982955874342245" lon="12.118258041376802"><ele>520.0</ele><time>2026-04-20T09:34:59Z</time></trkpt><trkpt lat="43.98297696532395" lon="12.118471060694885"><ele>519.25</ele><time>2026-04-20T09:35:00Z</time></trkpt><trkpt lat="43.98300733123528" lon="12.118694389845228"><ele>518.5</ele><time>2026-04-20T09:35:01Z</time></trkpt><trkpt lat="43.983044953837705" lon="12.11889650218926"><ele>517.75</ele><time>2026-04-20T09:35:02Z</time></trkpt><trkpt lat="43.98308210683589" lon="12.119063789398458"><ele>517.0</ele><time>2026-04-20T09:35:03Z</time></trkpt><trkpt lat="43.9831133729398" lon="12.119222005098631"><ele>518.5</ele><time>2026-04-20T09:35:04Z</time></trkpt><trkpt lat="43.983121179372354" lon="12.119360613731331"><ele>520.0</ele><time>2026-04-20T09:35:05Z</time></trkpt><trkpt lat="43.98309578464114" lon="12.119475636988383"><ele>521.5</ele><time>2026-04-20T09:35:06Z</time></trkpt><trkpt lat="43.98300767300941" lon="12.11956780071708"><ele>523.0</ele><time>2026-04-20T09:35:07Z</time></trkpt><trkpt lat="43.98291316821207" lon="12.119737315118785"><ele>523.0</ele><time>2026-04-20T09:35:08Z</time></trkpt><trkpt lat="43.982775958921025" lon="12.11989662852667"><ele>523.0</ele><time>2026-04-20T09:35:09Z</time></trkpt><trkpt lat="43.982661132324026" lon="12.120061023335827"><ele>523.0</ele><time>2026-04-20T09:35:10Z</time></trkpt><trkpt lat="43.982554788471106" lon="12.12022753486092"><ele>520.3333333333334</ele><time>2026-04-20T09:35:11Z</time></trkpt><trkpt lat="43.98237166373638" lon="12.120556091617946"><ele>517.6666666666666</ele><time>2026-04-20T09:35:13Z</time></trkpt><trkpt lat="43.98228536056238" lon="12.120716729993436"><ele>515.0</ele><time>2026-04-20T09:35:14Z</time></trkpt><trkpt lat="43.98221895198808" lon="12.120884151773065"><ele>515.0</ele><time>2026-04-20T09:35:15Z</time></trkpt><trkpt lat="43.98216308451266" lon="12.12106259789848"><ele>515.0</ele><time>2026-04-20T09:35:16Z</time></trkpt><trkpt lat="43.98210136641623" lon="12.121249651639145"><ele>515.0</ele><time>2026-04-20T09:35:17Z</time></trkpt><trkpt lat="43.98202022390081" lon="12.121428451502727"><ele>515.0</ele><time>2026-04-20T09:35:18Z</time></trkpt><trkpt lat="43.98192510187399" lon="12.121595505139853"><ele>517.3333333333333</ele><time>2026-04-20T09:35:19Z</time></trkpt><trkpt lat="43.98184445895562" lon="12.121769049444058"><ele>519.6666666666666</ele><time>2026-04-20T09:35:20Z</time></trkpt><trkpt lat="43.98177370910492" lon="12.121952236570964"><ele>522.0</ele><time>2026-04-20T09:35:21Z</time></trkpt><trkpt lat="43.981665557873015" lon="12.122113211604008"><ele>522.0</ele><time>2026-04-20T09:35:22Z</time></trkpt><trkpt lat="43.98155935089498" lon="12.122283560750182"><ele>522.0</ele><time>2026-04-20T09:35:23Z</time></trkpt><trkpt lat="43.981458673106715" lon="12.122455302221333"><ele>522.0</ele><time>2026-04-20T09:35:24Z</time></trkpt><trkpt lat="43.98137372178385" lon="12.122642177371391"><ele>516.0</ele><time>2026-04-20T09:35:25Z</time></trkpt><trkpt lat="43.98131354021935" lon="12.122851375482925"><ele>510.0</ele><time>2026-04-20T09:35:26Z</time></trkpt><trkpt lat="43.981246686655375" lon="12.123057145506202"><ele>504.0</ele><time>2026-04-20T09:35:27Z</time></trkpt><trkpt lat="43.98118237420406" lon="12.123251505417123"><ele>501.75</ele><time>2026-04-20T09:35:28Z</time></trkpt><trkpt lat="43.98114431663522" lon="12.12345787757442"><ele>499.5</ele><time>2026-04-20T09:35:29Z</time></trkpt><trkpt lat="43.98108948393389" lon="12.123640637425876"><ele>497.25</ele><time>2026-04-20T09:35:30Z</time></trkpt><trkpt lat="43.98103312167353" lon="12.123808848087847"><ele>495.0</ele><time>2026-04-20T09:35:31Z</time></trkpt><trkpt lat="43.98098514681462" lon="12.123951312366065"><ele>494.3333333333333</ele><time>2026-04-20T09:35:32Z</time></trkpt><trkpt lat="43.98094068485694" lon="12.124065987386468"><ele>493.66666666666663</ele><time>2026-04-20T09:35:33Z</time></trkpt><trkpt lat="43.98090135590858" lon="12.12415679048347"><ele>493.0</ele><time>2026-04-20T09:35:34Z</time></trkpt><trkpt lat="43.98087968011345" lon="12.124241655595696"><ele>492.3333333333333</ele><time>2026-04-20T09:35:35Z</time></trkpt><trkpt lat="43.98084001964908" lon="12.124336860936836"><ele>491.66666666666663</ele><time>2026-04-20T09:35:37Z</time></trkpt><trkpt lat="43.980780272610865" lon="12.124495053542152"><ele>491.0</ele><time>2026-04-20T09:35:39Z</time></trkpt><trkpt lat="43.98071190603539" lon="12.124601615909972"><ele>491.0</ele><time>2026-04-20T09:35:40Z</time></trkpt><trkpt lat="43.98066228817176" lon="12.124731436647842"><ele>491.0</ele><time>2026-04-20T09:35:41Z</time></trkpt><trkpt lat="43.980629557085045" lon="12.124889122750576"><ele>491.0</ele><time>2026-04-20T09:35:42Z</time></trkpt><trkpt lat="43.98059482588873" lon="12.125048924941755"><ele>491.0</ele><time>2026-04-20T09:35:43Z</time></trkpt><trkpt lat="43.98052729915237" lon="12.12521566826525"><ele>489.66666666666663</ele><time>2026-04-20T09:35:44Z</time></trkpt><trkpt lat="43.98043863924389" lon="12.125392853357573"><ele>488.33333333333337</ele><time>2026-04-20T09:35:45Z</time></trkpt><trkpt lat="43.98034678650958" lon="12.125578128510853"><ele>487.0</ele><time>2026-04-20T09:35:46Z</time></trkpt><trkpt lat="43.98024794386588" lon="12.125741631508708"><ele>485.33333333333337</ele><time>2026-04-20T09:35:47Z</time></trkpt><trkpt lat="43.98015267647633" lon="12.125923382610175"><ele>483.66666666666663</ele><time>2026-04-20T09:35:48Z</time></trkpt><trkpt lat="43.98006887641401" lon="12.126113329914006"><ele>482.0</ele><time>2026-04-20T09:35:49Z</time></trkpt><trkpt lat="43.97996303205196" lon="12.126285012098853"><ele>486.66666666666663</ele><time>2026-04-20T09:35:50Z</time></trkpt><trkpt lat="43.97985132933297" lon="12.126451356286472"><ele>491.33333333333337</ele><time>2026-04-20T09:35:51Z</time></trkpt><trkpt lat="43.97973565049391" lon="12.126616685813412"><ele>496.0</ele><time>2026-04-20T09:35:52Z</time></trkpt><trkpt lat="43.979622682033074" lon="12.126771842892547"><ele>496.0</ele><time>2026-04-20T09:35:53Z</time></trkpt><trkpt lat="43.97951307697481" lon="12.126919455505442"><ele>496.0</ele><time>2026-04-20T09:35:54Z</time></trkpt><trkpt lat="43.97940306667302" lon="12.127056257299024"><ele>496.0</ele><time>2026-04-20T09:35:55Z</time></trkpt><trkpt lat="43.979291526068465" lon="12.12718322296745"><ele>496.0</ele><time>2026-04-20T09:35:56Z</time></trkpt><trkpt lat="43.97916237732172" lon="12.127248656026524"><ele>497.75</ele><time>2026-04-20T09:35:57Z</time></trkpt><trkpt lat="43.979031735551786" lon="12.12727951790362"><ele>499.5</ele><time>2026-04-20T09:35:58Z</time></trkpt><trkpt lat="43.9788873063893" lon="12.127287141289829"><ele>501.25</ele><time>2026-04-20T09:35:59Z</time></trkpt><trkpt lat="43.978735091334904" lon="12.127289477670667"><ele>503.0</ele><time>2026-04-20T09:36:00Z</time></trkpt><trkpt lat="43.978581069839606" lon="12.1273069829213"><ele>503.0</ele><time>2026-04-20T09:36:01Z</time></trkpt><trkpt lat="43.9784253932425" lon="12.127312668178659"><ele>503.0</ele><time>2026-04-20T09:36:02Z</time></trkpt><trkpt lat="43.97827262841605" lon="12.127314010974176"><ele>503.0</ele><time>2026-04-20T09:36:03Z</time></trkpt><trkpt lat="43.978134193776825" lon="12.12735094615963"><ele>503.0</ele><time>2026-04-20T09:36:04Z</time></trkpt><trkpt lat="43.97800242224953" lon="12.127327024549857"><ele>500.25</ele><time>2026-04-20T09:36:05Z</time></trkpt><trkpt lat="43.97788648831902" lon="12.127223627979554"><ele>497.5</ele><time>2026-04-20T09:36:06Z</time></trkpt><trkpt lat="43.97776446742129" lon="12.127101130408374"><ele>494.75</ele><time>2026-04-20T09:36:07Z</time></trkpt><trkpt lat="43.977649872591506" lon="12.12696306219137"><ele>492.0</ele><time>2026-04-20T09:36:08Z</time></trkpt><trkpt lat="43.97753453941679" lon="12.126857537453056"><ele>495.5</ele><time>2026-04-20T09:36:09Z</time></trkpt><trkpt lat="43.97743142896762" lon="12.126780563710428"><ele>499.0</ele><time>2026-04-20T09:36:10Z</time></trkpt><trkpt lat="43.977310382737905" lon="12.126763749445432"><ele>502.5</ele><time>2026-04-20T09:36:11Z</time></trkpt><trkpt lat="43.97718412548978" lon="12.126806554510841"><ele>506.0</ele><time>2026-04-20T09:36:12Z</time></trkpt><trkpt lat="43.977060466911" lon="12.12689443421219"><ele>506.0</ele><time>2026-04-20T09:36:13Z</time></trkpt><trkpt lat="43.97693713046022" lon="12.12700744826159"><ele>506.0</ele><time>2026-04-20T09:36:14Z</time></trkpt><trkpt lat="43.97680335660416" lon="12.127123712035617"><ele>506.0</ele><time>2026-04-20T09:36:15Z</time></trkpt><trkpt lat="43.97665354330239" lon="12.127238289156741"><ele>507.0</ele><time>2026-04-20T09:36:16Z</time></trkpt><trkpt lat="43.97649758430329" lon="12.12735025192532"><ele>508.0</ele><time>2026-04-20T09:36:17Z</time></trkpt><trkpt lat="43.97637099001739" lon="12.12744924631866"><ele>509.0</ele><time>2026-04-20T09:36:18Z</time></trkpt><trkpt lat="43.97627279320522" lon="12.127561330752917"><ele>510.0</ele><time>2026-04-20T09:36:19Z</time></trkpt><trkpt lat="43.97620799362081" lon="12.127708087767475"><ele>513.25</ele><time>2026-04-20T09:36:20Z</time></trkpt><trkpt lat="43.97618847069537" lon="12.127881324013712"><ele>516.5</ele><time>2026-04-20T09:36:21Z</time></trkpt><trkpt lat="43.97620981856598" lon="12.128058919570076"><ele>519.75</ele><time>2026-04-20T09:36:22Z</time></trkpt><trkpt lat="43.97624235507107" lon="12.128230105734955"><ele>523.0</ele><time>2026-04-20T09:36:23Z</time></trkpt><trkpt lat="43.97623917498197" lon="12.128402208578734"><ele>522.0</ele><time>2026-04-20T09:36:24Z</time></trkpt><trkpt lat="43.97617313320659" lon="12.128571502931973"><ele>521.0</ele><time>2026-04-20T09:36:25Z</time></trkpt><trkpt lat="43.9760477737068" lon="12.12868535161234"><ele>520.0</ele><time>2026-04-20T09:36:26Z</time></trkpt><trkpt lat="43.97593838693928" lon="12.12882533827979"><ele>519.0</ele><time>2026-04-20T09:36:27Z</time></trkpt><trkpt lat="43.97584084011462" lon="12.128933045221906"><ele>519.0</ele><time>2026-04-20T09:36:28Z</time></trkpt><trkpt lat="43.97578380680419" lon="12.129055491722092"><ele>519.0</ele><time>2026-04-20T09:36:29Z</time></trkpt><trkpt lat="43.97577950199005" lon="12.129325531666218"><ele>519.0</ele><time>2026-04-20T09:36:31Z</time></trkpt><trkpt lat="43.97583154342683" lon="12.129466430624559"><ele>519.0</ele><time>2026-04-20T09:36:32Z</time></trkpt><trkpt lat="43.975919401419915" lon="12.129624459911955"><ele>526.0</ele><time>2026-04-20T09:36:33Z</time></trkpt><trkpt lat="43.976024586707624" lon="12.129798549043622"><ele>533.0</ele><time>2026-04-20T09:36:34Z</time></trkpt><trkpt lat="43.97612813451341" lon="12.129984922641457"><ele>540.0</ele><time>2026-04-20T09:36:35Z</time></trkpt><trkpt lat="43.976231762938575" lon="12.13018048792123"><ele>540.0</ele><time>2026-04-20T09:36:36Z</time></trkpt><trkpt lat="43.97632817994081" lon="12.130368934603057"><ele>540.0</ele><time>2026-04-20T09:36:37Z</time></trkpt><trkpt lat="43.976403228322376" lon="12.13055144677053"><ele>540.0</ele><time>2026-04-20T09:36:38Z</time></trkpt><trkpt lat="43.97641856772103" lon="12.13073654329092"><ele>539.5</ele><time>2026-04-20T09:36:39Z</time></trkpt><trkpt lat="43.97640302106134" lon="12.130918527720175"><ele>539.0</ele><time>2026-04-20T09:36:40Z</time></trkpt><trkpt lat="43.97634814919531" lon="12.131088059063813"><ele>538.5</ele><time>2026-04-20T09:36:41Z</time></trkpt><trkpt lat="43.976259032103144" lon="12.131236228913933"><ele>538.0</ele><time>2026-04-20T09:36:42Z</time></trkpt><trkpt lat="43.97613549926088" lon="12.131331079725511"><ele>538.0</ele><time>2026-04-20T09:36:43Z</time></trkpt><trkpt lat="43.975987810003474" lon="12.131390616880559"><ele>538.0</ele><time>2026-04-20T09:36:44Z</time></trkpt><trkpt lat="43.97584616332792" lon="12.131488958799963"><ele>538.0</ele><time>2026-04-20T09:36:45Z</time></trkpt><trkpt lat="43.97571310843495" lon="12.131581112822369"><ele>538.1999999999999</ele><time>2026-04-20T09:36:46Z</time></trkpt><trkpt lat="43.9756145276633" lon="12.131704374642355"><ele>538.4</ele><time>2026-04-20T09:36:47Z</time></trkpt><trkpt lat="43.975557736368316" lon="12.131834969800712"><ele>538.5999999999999</ele><time>2026-04-20T09:36:48Z</time></trkpt><trkpt lat="43.975530217481435" lon="12.131961995729975"><ele>538.8</ele><time>2026-04-20T09:36:49Z</time></trkpt><trkpt lat="43.97558726074393" lon="12.132083152394951"><ele>539.0</ele><time>2026-04-20T09:36:50Z</time></trkpt><trkpt lat="43.97566278711743" lon="12.132166712943718"><ele>539.0</ele><time>2026-04-20T09:36:51Z</time></trkpt><trkpt lat="43.975781531366806" lon="12.132250473386208"><ele>539.0</ele><time>2026-04-20T09:36:52Z</time></trkpt><trkpt lat="43.97591618636661" lon="12.132373600248487"><ele>539.0</ele><time>2026-04-20T09:36:53Z</time></trkpt><trkpt lat="43.97607070620686" lon="12.132472465375804"><ele>539.25</ele><time>2026-04-20T09:36:54Z</time></trkpt><trkpt lat="43.97620155526147" lon="12.132578706128356"><ele>539.5</ele><time>2026-04-20T09:36:55Z</time></trkpt><trkpt lat="43.97633238319645" lon="12.132682557351151"><ele>539.75</ele><time>2026-04-20T09:36:56Z</time></trkpt><trkpt lat="43.97645795476356" lon="12.132780930608346"><ele>540.0</ele><time>2026-04-20T09:36:57Z</time></trkpt><trkpt lat="43.97657168130436" lon="12.132884695780495"><ele>540.0</ele><time>2026-04-20T09:36:58Z</time></trkpt><trkpt lat="43.976662335608246" lon="12.133006561620515"><ele>540.0</ele><time>2026-04-20T09:36:59Z</time></trkpt><trkpt lat="43.976718226497404" lon="12.13316497709905"><ele>540.0</ele><time>2026-04-20T09:37:00Z</time></trkpt><trkpt lat="43.976708283284935" lon="12.133353914011636"><ele>540.0</ele><time>2026-04-20T09:37:01Z</time></trkpt><trkpt lat="43.9767004920644" lon="12.133562543976865"><ele>538.25</ele><time>2026-04-20T09:37:02Z</time></trkpt><trkpt lat="43.976679196786705" lon="12.13376309029757"><ele>536.5</ele><time>2026-04-20T09:37:03Z</time></trkpt><trkpt lat="43.97661210965038" lon="12.133918997360983"><ele>534.75</ele><time>2026-04-20T09:37:04Z</time></trkpt><trkpt lat="43.97649697839844" lon="12.1340061304725"><ele>533.0</ele><time>2026-04-20T09:37:05Z</time></trkpt><trkpt lat="43.97636760824229" lon="12.13404548332635"><ele>535.25</ele><time>2026-04-20T09:37:06Z</time></trkpt><trkpt lat="43.97622457206566" lon="12.134108145456196"><ele>537.5</ele><time>2026-04-20T09:37:07Z</time></trkpt><trkpt lat="43.97610077852655" lon="12.13414678721783"><ele>539.75</ele><time>2026-04-20T09:37:08Z</time></trkpt><trkpt lat="43.97599874526063" lon="12.134340323071987"><ele>542.0</ele><time>2026-04-20T09:37:10Z</time></trkpt><trkpt lat="43.97602213963962" lon="12.134469277787318"><ele>542.0</ele><time>2026-04-20T09:37:11Z</time></trkpt><trkpt lat="43.97609468741273" lon="12.134612903921205"><ele>542.0</ele><time>2026-04-20T09:37:12Z</time></trkpt><trkpt lat="43.976194701223136" lon="12.134779231150498"><ele>542.0</ele><time>2026-04-20T09:37:13Z</time></trkpt><trkpt lat="43.976302783686606" lon="12.134974842414081"><ele>544.3333333333333</ele><time>2026-04-20T09:37:14Z</time></trkpt><trkpt lat="43.97641842061423" lon="12.135198993110446"><ele>546.6666666666666</ele><time>2026-04-20T09:37:15Z</time></trkpt><trkpt lat="43.97654430732418" lon="12.13545471053641"><ele>549.0</ele><time>2026-04-20T09:37:16Z</time></trkpt><trkpt lat="43.976671942471754" lon="12.135727518819548"><ele>544.0</ele><time>2026-04-20T09:37:17Z</time></trkpt><trkpt lat="43.97678951507728" lon="12.135977771762601"><ele>539.0</ele><time>2026-04-20T09:37:18Z</time></trkpt><trkpt lat="43.97690162745145" lon="12.136211659750275"><ele>534.0</ele><time>2026-04-20T09:37:19Z</time></trkpt><trkpt lat="43.97700315984782" lon="12.136417824013233"><ele>538.3333333333334</ele><time>2026-04-20T09:37:20Z</time></trkpt><trkpt lat="43.977095029482165" lon="12.136603370018845"><ele>542.6666666666667</ele><time>2026-04-20T09:37:21Z</time></trkpt><trkpt lat="43.9771708980497" lon="12.136781740846375"><ele>547.0</ele><time>2026-04-20T09:37:22Z</time></trkpt><trkpt lat="43.97722311416819" lon="12.136968093157545"><ele>547.0</ele><time>2026-04-20T09:37:23Z</time></trkpt><trkpt lat="43.977250331702514" lon="12.137165249528746"><ele>547.0</ele><time>2026-04-20T09:37:24Z</time></trkpt><trkpt lat="43.97726037838134" lon="12.137343816224067"><ele>547.0</ele><time>2026-04-20T09:37:25Z</time></trkpt><trkpt lat="43.977278602647516" lon="12.137492785893116"><ele>547.0</ele><time>2026-04-20T09:37:26Z</time></trkpt><trkpt lat="43.97732938075228" lon="12.13759605219846"><ele>547.6</ele><time>2026-04-20T09:37:27Z</time></trkpt><trkpt lat="43.977412105237406" lon="12.137636166174632"><ele>548.2</ele><time>2026-04-20T09:37:28Z</time></trkpt><trkpt lat="43.97751793230704" lon="12.137615230799408"><ele>548.8</ele><time>2026-04-20T09:37:29Z</time></trkpt><trkpt lat="43.97764118335186" lon="12.137579095091438"><ele>549.4</ele><time>2026-04-20T09:37:30Z</time></trkpt><trkpt lat="43.97776283468733" lon="12.137587155022512"><ele>550.0</ele><time>2026-04-20T09:37:31Z</time></trkpt><trkpt lat="43.977887010331536" lon="12.137618106225556"><ele>550.0</ele><time>2026-04-20T09:37:32Z</time></trkpt><trkpt lat="43.978011655509576" lon="12.1376848369778"><ele>550.0</ele><time>2026-04-20T09:37:33Z</time></trkpt><trkpt lat="43.97812005033302" lon="12.13783362305363"><ele>550.0</ele><time>2026-04-20T09:37:34Z</time></trkpt><trkpt lat="43.978217452284895" lon="12.137987313072644"><ele>550.0</ele><time>2026-04-20T09:37:35Z</time></trkpt><trkpt lat="43.978307033320384" lon="12.138109964174609"><ele>550.5</ele><time>2026-04-20T09:37:36Z</time></trkpt><trkpt lat="43.97839913187703" lon="12.138205213294517"><ele>551.0</ele><time>2026-04-20T09:37:37Z</time></trkpt><trkpt lat="43.97852281930111" lon="12.138254957076576"><ele>551.5</ele><time>2026-04-20T09:37:38Z</time></trkpt><trkpt lat="43.978667045638126" lon="12.138291223020898"><ele>552.0</ele><time>2026-04-20T09:37:39Z</time></trkpt><trkpt lat="43.978953044133014" lon="12.138432687222632"><ele>552.0</ele><time>2026-04-20T09:37:41Z</time></trkpt><trkpt lat="43.97907783631437" lon="12.138527686163107"><ele>552.0</ele><time>2026-04-20T09:37:42Z</time></trkpt><trkpt lat="43.97916807566157" lon="12.13864589271136"><ele>552.0</ele><time>2026-04-20T09:37:43Z</time></trkpt><trkpt lat="43.979276559643495" lon="12.138696750504469"><ele>552.0</ele><time>2026-04-20T09:37:44Z</time></trkpt><trkpt lat="43.97930293903654" lon="12.138974484833682"><ele>546.3333333333334</ele><time>2026-04-20T09:37:45Z</time></trkpt><trkpt lat="43.979356513183646" lon="12.139176790320358"><ele>540.6666666666667</ele><time>2026-04-20T09:37:46Z</time></trkpt><trkpt lat="43.979425826269214" lon="12.139366296573886"><ele>535.0</ele><time>2026-04-20T09:37:47Z</time></trkpt><trkpt lat="43.979516692730606" lon="12.13951790728384"><ele>535.0</ele><time>2026-04-20T09:37:48Z</time></trkpt><trkpt lat="43.97960806184302" lon="12.139630291780254"><ele>535.0</ele><time>2026-04-20T09:37:49Z</time></trkpt><trkpt lat="43.979665679357815" lon="12.139750528003072"><ele>535.0</ele><time>2026-04-20T09:37:50Z</time></trkpt><trkpt lat="43.97967042310267" lon="12.139893433652873"><ele>535.0</ele><time>2026-04-20T09:37:51Z</time></trkpt><trkpt lat="43.97961874255049" lon="12.14002453777663"><ele>535.0</ele><time>2026-04-20T09:37:52Z</time></trkpt><trkpt lat="43.97956324569585" lon="12.140201743761658"><ele>536.5</ele><time>2026-04-20T09:37:53Z</time></trkpt><trkpt lat="43.97948612760115" lon="12.140362906668495"><ele>538.0</ele><time>2026-04-20T09:37:54Z</time></trkpt><trkpt lat="43.97939861432535" lon="12.140523925388758"><ele>539.5</ele><time>2026-04-20T09:37:55Z</time></trkpt><trkpt lat="43.97928098620408" lon="12.140659821554538"><ele>541.0</ele><time>2026-04-20T09:37:56Z</time></trkpt><trkpt lat="43.97916286679192" lon="12.1407970974292"><ele>543.25</ele><time>2026-04-20T09:37:57Z</time></trkpt><trkpt lat="43.97904948955013" lon="12.14093217253855"><ele>545.5</ele><time>2026-04-20T09:37:58Z</time></trkpt><trkpt lat="43.97896436189112" lon="12.141087912357968"><ele>547.75</ele><time>2026-04-20T09:37:59Z</time></trkpt><trkpt lat="43.97888628925284" lon="12.141248964262491"><ele>550.0</ele><time>2026-04-20T09:38:00Z</time></trkpt><trkpt lat="43.978840436591426" lon="12.141430389298614"><ele>546.5</ele><time>2026-04-20T09:38:01Z</time></trkpt><trkpt lat="43.97879527593983" lon="12.141595708998654"><ele>543.0</ele><time>2026-04-20T09:38:02Z</time></trkpt><trkpt lat="43.978725138890944" lon="12.141723254173646"><ele>539.5</ele><time>2026-04-20T09:38:03Z</time></trkpt><trkpt lat="43.978632956670786" lon="12.14180255328131"><ele>536.0</ele><time>2026-04-20T09:38:04Z</time></trkpt><trkpt lat="43.978520857624886" lon="12.141757640514255"><ele>541.0</ele><time>2026-04-20T09:38:05Z</time></trkpt><trkpt lat="43.97828140220872" lon="12.14172689735494"><ele>546.0</ele><time>2026-04-20T09:38:07Z</time></trkpt><trkpt lat="43.978162669620424" lon="12.141701771564607"><ele>551.0</ele><time>2026-04-20T09:38:08Z</time></trkpt><trkpt lat="43.97805506467962" lon="12.141695046967593"><ele>551.0</ele><time>2026-04-20T09:38:09Z</time></trkpt><trkpt lat="43.977968685805784" lon="12.141704173652757"><ele>551.0</ele><time>2026-04-20T09:38:10Z</time></trkpt><trkpt lat="43.97789844497653" lon="12.141760415983104"><ele>551.0</ele><time>2026-04-20T09:38:11Z</time></trkpt><trkpt lat="43.97783504524898" lon="12.14186627532201"><ele>551.0</ele><time>2026-04-20T09:38:12Z</time></trkpt><trkpt lat="43.97778751200322" lon="12.142002086144593"><ele>551.0</ele><time>2026-04-20T09:38:13Z</time></trkpt><trkpt lat="43.97772193362781" lon="12.142304398334197"><ele>547.0</ele><time>2026-04-20T09:38:15Z</time></trkpt><trkpt lat="43.9776815058236" lon="12.142462218306251"><ele>543.0</ele><time>2026-04-20T09:38:16Z</time></trkpt><trkpt lat="43.97763146147505" lon="12.142624711624878"><ele>539.0</ele><time>2026-04-20T09:38:17Z</time></trkpt><trkpt lat="43.9775768205653" lon="12.14278883845805"><ele>535.0</ele><time>2026-04-20T09:38:18Z</time></trkpt><trkpt lat="43.97753863930952" lon="12.142956881879417"><ele>535.0</ele><time>2026-04-20T09:38:19Z</time></trkpt><trkpt lat="43.97752591441459" lon="12.143120560364764"><ele>535.0</ele><time>2026-04-20T09:38:20Z</time></trkpt><trkpt lat="43.977515950745854" lon="12.14328559474112"><ele>535.0</ele><time>2026-04-20T09:38:21Z</time></trkpt><trkpt lat="43.977457362172316" lon="12.14346732964095"><ele>535.0</ele><time>2026-04-20T09:38:22Z</time></trkpt><trkpt lat="43.977384533170834" lon="12.143679792412797"><ele>537.3333333333334</ele><time>2026-04-20T09:38:23Z</time></trkpt><trkpt lat="43.97732011265501" lon="12.143923909684032"><ele>539.6666666666666</ele><time>2026-04-20T09:38:24Z</time></trkpt><trkpt lat="43.97724792637223" lon="12.14416500312707"><ele>542.0</ele><time>2026-04-20T09:38:25Z</time></trkpt><trkpt lat="43.97720276017666" lon="12.144427531934381"><ele>542.0</ele><time>2026-04-20T09:38:26Z</time></trkpt><trkpt lat="43.97719431938894" lon="12.14467903404234"><ele>542.0</ele><time>2026-04-20T09:38:27Z</time></trkpt><trkpt lat="43.97717391817289" lon="12.144915898579843"><ele>542.0</ele><time>2026-04-20T09:38:28Z</time></trkpt><trkpt lat="43.97711386912673" lon="12.145124242494878"><ele>538.3333333333333</ele><time>2026-04-20T09:38:29Z</time></trkpt><trkpt lat="43.97705530738197" lon="12.145321112817674"><ele>534.6666666666666</ele><time>2026-04-20T09:38:30Z</time></trkpt><trkpt lat="43.977015740494146" lon="12.145528327413686"><ele>531.0</ele><time>2026-04-20T09:38:31Z</time></trkpt><trkpt lat="43.976972047345114" lon="12.145727311039138"><ele>527.25</ele><time>2026-04-20T09:38:32Z</time></trkpt><trkpt lat="43.97694382787184" lon="12.14593018007611"><ele>523.5</ele><time>2026-04-20T09:38:33Z</time></trkpt><trkpt lat="43.97691483825626" lon="12.146115213321938"><ele>519.75</ele><time>2026-04-20T09:38:34Z</time></trkpt><trkpt lat="43.976890962086635" lon="12.146282821937412"><ele>516.0</ele><time>2026-04-20T09:38:35Z</time></trkpt><trkpt lat="43.9768713441045" lon="12.146408500992901"><ele>516.0</ele><time>2026-04-20T09:38:36Z</time></trkpt><trkpt lat="43.976855865154064" lon="12.146519368223942"><ele>516.0</ele><time>2026-04-20T09:38:37Z</time></trkpt><trkpt lat="43.97681345942408" lon="12.146646587168895"><ele>516.0</ele><time>2026-04-20T09:38:39Z</time></trkpt><trkpt lat="43.976734852533035" lon="12.146520850382668"><ele>516.0</ele><time>2026-04-20T09:38:42Z</time></trkpt><trkpt lat="43.97668059704421" lon="12.14642854971562"><ele>516.0</ele><time>2026-04-20T09:38:43Z</time></trkpt><trkpt lat="43.976618961442014" lon="12.146330160891203"><ele>523.5</ele><time>2026-04-20T09:38:44Z</time></trkpt><trkpt lat="43.97654641717021" lon="12.146215021788766"><ele>531.0</ele><time>2026-04-20T09:38:45Z</time></trkpt><trkpt lat="43.97646686923774" lon="12.146092518355827"><ele>538.5</ele><time>2026-04-20T09:38:46Z</time></trkpt><trkpt lat="43.97638402808246" lon="12.145962901178285"><ele>546.0</ele><time>2026-04-20T09:38:47Z</time></trkpt><trkpt lat="43.976307308318304" lon="12.145835675845337"><ele>550.0</ele><time>2026-04-20T09:38:48Z</time></trkpt><trkpt lat="43.97622964437737" lon="12.145711328402854"><ele>554.0</ele><time>2026-04-20T09:38:49Z</time></trkpt><trkpt lat="43.97614361362173" lon="12.145599006622886"><ele>558.0</ele><time>2026-04-20T09:38:50Z</time></trkpt><trkpt lat="43.97603556614531" lon="12.145506003185035"><ele>562.0</ele><time>2026-04-20T09:38:51Z</time></trkpt><trkpt lat="43.97589950910382" lon="12.145449934470207"><ele>565.0</ele><time>2026-04-20T09:38:52Z</time></trkpt><trkpt lat="43.97576572589566" lon="12.145407566176328"><ele>568.0</ele><time>2026-04-20T09:38:53Z</time></trkpt><trkpt lat="43.97563006670965" lon="12.145355887503003"><ele>571.0</ele><time>2026-04-20T09:38:54Z</time></trkpt><trkpt lat="43.97549353318921" lon="12.145308228989485"><ele>574.0</ele><time>2026-04-20T09:38:55Z</time></trkpt><trkpt lat="43.97535538747302" lon="12.145258348253815"><ele>574.0</ele><time>2026-04-20T09:38:56Z</time></trkpt><trkpt lat="43.9752139854163" lon="12.145201343430074"><ele>574.0</ele><time>2026-04-20T09:38:57Z</time></trkpt><trkpt lat="43.97507349291371" lon="12.145132837768845"><ele>574.0</ele><time>2026-04-20T09:38:58Z</time></trkpt><trkpt lat="43.974960001731496" lon="12.14505342685605"><ele>574.0</ele><time>2026-04-20T09:38:59Z</time></trkpt><trkpt lat="43.97485104035563" lon="12.144956294513756"><ele>573.25</ele><time>2026-04-20T09:39:00Z</time></trkpt><trkpt lat="43.97473967068309" lon="12.144844356891454"><ele>572.5</ele><time>2026-04-20T09:39:01Z</time></trkpt><trkpt lat="43.97463271248543" lon="12.144736623500641"><ele>571.75</ele><time>2026-04-20T09:39:02Z</time></trkpt><trkpt lat="43.97452797622539" lon="12.144642661901107"><ele>571.0</ele><time>2026-04-20T09:39:03Z</time></trkpt><trkpt lat="43.974399600681046" lon="12.144559721345502"><ele>571.0</ele><time>2026-04-20T09:39:04Z</time></trkpt><trkpt lat="43.97427112968484" lon="12.144492118877173"><ele>571.0</ele><time>2026-04-20T09:39:05Z</time></trkpt><trkpt lat="43.97413523430449" lon="12.14444159671584"><ele>571.0</ele><time>2026-04-20T09:39:06Z</time></trkpt><trkpt lat="43.97399525578119" lon="12.144413266341276"><ele>571.0</ele><time>2026-04-20T09:39:07Z</time></trkpt><trkpt lat="43.97384853881508" lon="12.144412316563049"><ele>572.0</ele><time>2026-04-20T09:39:08Z</time></trkpt><trkpt lat="43.97371821082542" lon="12.14441220551556"><ele>573.0</ele><time>2026-04-20T09:39:09Z</time></trkpt><trkpt lat="43.97360156781569" lon="12.144399600782487"><ele>574.0</ele><time>2026-04-20T09:39:10Z</time></trkpt><trkpt lat="43.973492566632245" lon="12.14436424389186"><ele>575.0</ele><time>2026-04-20T09:39:11Z</time></trkpt><trkpt lat="43.973385025173684" lon="12.144300222820743"><ele>572.6666666666666</ele><time>2026-04-20T09:39:12Z</time></trkpt><trkpt lat="43.97326339101984" lon="12.144206799812075"><ele>570.3333333333334</ele><time>2026-04-20T09:39:13Z</time></trkpt><trkpt lat="43.97312904962063" lon="12.144098719802745"><ele>568.0</ele><time>2026-04-20T09:39:14Z</time></trkpt><trkpt lat="43.97298620190016" lon="12.143989927045546"><ele>565.0</ele><time>2026-04-20T09:39:15Z</time></trkpt><trkpt lat="43.97283528634326" lon="12.143914467262064"><ele>562.0</ele><time>2026-04-20T09:39:16Z</time></trkpt><trkpt lat="43.972663805461075" lon="12.143913565673772"><ele>559.0</ele><time>2026-04-20T09:39:17Z</time></trkpt><trkpt lat="43.97250780385133" lon="12.143933034321476"><ele>559.0</ele><time>2026-04-20T09:39:18Z</time></trkpt><trkpt lat="43.9723452173474" lon="12.143893028857706"><ele>559.0</ele><time>2026-04-20T09:39:19Z</time></trkpt><trkpt lat="43.97218918112057" lon="12.143813816514232"><ele>559.0</ele><time>2026-04-20T09:39:20Z</time></trkpt><trkpt lat="43.9720451872729" lon="12.143720394567762"><ele>559.0</ele><time>2026-04-20T09:39:21Z</time></trkpt><trkpt lat="43.97175481615274" lon="12.143555684751934"><ele>559.0</ele><time>2026-04-20T09:39:23Z</time></trkpt><trkpt lat="43.97159754817431" lon="12.143563742593088"><ele>556.0</ele><time>2026-04-20T09:39:24Z</time></trkpt><trkpt lat="43.971446720778154" lon="12.143584139023956"><ele>553.0</ele><time>2026-04-20T09:39:25Z</time></trkpt><trkpt lat="43.9713103909461" lon="12.143583216532141"><ele>550.0</ele><time>2026-04-20T09:39:26Z</time></trkpt><trkpt lat="43.971188654557594" lon="12.143571190025721"><ele>547.0</ele><time>2026-04-20T09:39:27Z</time></trkpt><trkpt lat="43.97107891891895" lon="12.143529792089655"><ele>547.0</ele><time>2026-04-20T09:39:28Z</time></trkpt><trkpt lat="43.97097782028032" lon="12.14345537824179"><ele>547.0</ele><time>2026-04-20T09:39:29Z</time></trkpt><trkpt lat="43.97087127238877" lon="12.143353495352049"><ele>547.0</ele><time>2026-04-20T09:39:30Z</time></trkpt><trkpt lat="43.97076328541023" lon="12.143231548457864"><ele>547.0</ele><time>2026-04-20T09:39:31Z</time></trkpt><trkpt lat="43.97067932747795" lon="12.143108406213376"><ele>546.25</ele><time>2026-04-20T09:39:32Z</time></trkpt><trkpt lat="43.970625569892526" lon="12.142973653670603"><ele>545.5</ele><time>2026-04-20T09:39:33Z</time></trkpt><trkpt lat="43.97056755515045" lon="12.142801293326652"><ele>544.75</ele><time>2026-04-20T09:39:34Z</time></trkpt><trkpt lat="43.97048364632399" lon="12.142606663515847"><ele>544.0</ele><time>2026-04-20T09:39:35Z</time></trkpt><trkpt lat="43.97038776770458" lon="12.142424900359302"><ele>542.5</ele><time>2026-04-20T09:39:36Z</time></trkpt><trkpt lat="43.97030747982383" lon="12.142253939662659"><ele>541.0</ele><time>2026-04-20T09:39:37Z</time></trkpt><trkpt lat="43.970244410551956" lon="12.142094608212245"><ele>539.5</ele><time>2026-04-20T09:39:38Z</time></trkpt><trkpt lat="43.97019039448359" lon="12.141930721826586"><ele>538.0</ele><time>2026-04-20T09:39:39Z</time></trkpt><trkpt lat="43.97014198242873" lon="12.14174877567058"><ele>538.0</ele><time>2026-04-20T09:39:40Z</time></trkpt><trkpt lat="43.970098978468556" lon="12.14157110970463"><ele>538.0</ele><time>2026-04-20T09:39:41Z</time></trkpt><trkpt lat="43.970059679410674" lon="12.141424235038947"><ele>538.0</ele><time>2026-04-20T09:39:42Z</time></trkpt><trkpt lat="43.970003402597484" lon="12.141313066667887"><ele>538.0</ele><time>2026-04-20T09:39:43Z</time></trkpt><trkpt lat="43.96995721893797" lon="12.14120662570971"><ele>538.0</ele><time>2026-04-20T09:39:44Z</time></trkpt><trkpt lat="43.9698993412595" lon="12.141119196806486"><ele>543.75</ele><time>2026-04-20T09:39:45Z</time></trkpt><trkpt lat="43.96981318805917" lon="12.141049900944303"><ele>549.5</ele><time>2026-04-20T09:39:46Z</time></trkpt><trkpt lat="43.96972492651871" lon="12.140985434111764"><ele>555.25</ele><time>2026-04-20T09:39:47Z</time></trkpt><trkpt lat="43.96960391023214" lon="12.141011124932076"><ele>561.0</ele><time>2026-04-20T09:39:48Z</time></trkpt><trkpt lat="43.969478264387064" lon="12.141051973825675"><ele>561.0</ele><time>2026-04-20T09:39:49Z</time></trkpt><trkpt lat="43.969352276008124" lon="12.141052547594223"><ele>561.0</ele><time>2026-04-20T09:39:50Z</time></trkpt><trkpt lat="43.96924104907672" lon="12.14104217503784"><ele>561.0</ele><time>2026-04-20T09:39:51Z</time></trkpt><trkpt lat="43.9691414866064" lon="12.140988397926332"><ele>561.0</ele><time>2026-04-20T09:39:52Z</time></trkpt><trkpt lat="43.969105248105826" lon="12.14081848985331"><ele>558.75</ele><time>2026-04-20T09:39:53Z</time></trkpt><trkpt lat="43.96901627935562" lon="12.140657129826263"><ele>556.5</ele><time>2026-04-20T09:39:54Z</time></trkpt><trkpt lat="43.96893357067413" lon="12.140477622201338"><ele>554.25</ele><time>2026-04-20T09:39:55Z</time></trkpt><trkpt lat="43.96886009342184" lon="12.140316295570408"><ele>552.0</ele><time>2026-04-20T09:39:56Z</time></trkpt><trkpt lat="43.96878871443202" lon="12.140196629262551"><ele>552.0</ele><time>2026-04-20T09:39:57Z</time></trkpt><trkpt lat="43.96869198488965" lon="12.140137279775763"><ele>552.0</ele><time>2026-04-20T09:39:58Z</time></trkpt><trkpt lat="43.96859193837295" lon="12.140138875950417"><ele>552.0</ele><time>2026-04-20T09:39:59Z</time></trkpt><trkpt lat="43.96847422814693" lon="12.140182596995354"><ele>552.0</ele><time>2026-04-20T09:40:00Z</time></trkpt><trkpt lat="43.96832921194702" lon="12.140181661515236"><ele>551.75</ele><time>2026-04-20T09:40:01Z</time></trkpt><trkpt lat="43.96819596122382" lon="12.140144592081436"><ele>551.5</ele><time>2026-04-20T09:40:02Z</time></trkpt><trkpt lat="43.96808695104464" lon="12.14004775496579"><ele>551.25</ele><time>2026-04-20T09:40:03Z</time></trkpt><trkpt lat="43.96799486074629" lon="12.139877145762245"><ele>551.0</ele><time>2026-04-20T09:40:04Z</time></trkpt><trkpt lat="43.96787790878608" lon="12.139750061961525"><ele>551.0</ele><time>2026-04-20T09:40:05Z</time></trkpt><trkpt lat="43.96774170291248" lon="12.139649203460106"><ele>551.0</ele><time>2026-04-20T09:40:06Z</time></trkpt><trkpt lat="43.96763797981114" lon="12.139484629176133"><ele>551.0</ele><time>2026-04-20T09:40:07Z</time></trkpt><trkpt lat="43.96758245837917" lon="12.139281890525973"><ele>556.25</ele><time>2026-04-20T09:40:08Z</time></trkpt><trkpt lat="43.96749267261233" lon="12.139123781929483"><ele>561.5</ele><time>2026-04-20T09:40:09Z</time></trkpt><trkpt lat="43.967409308217796" lon="12.138969986998447"><ele>566.75</ele><time>2026-04-20T09:40:10Z</time></trkpt><trkpt lat="43.967296275839" lon="12.13884165009084"><ele>572.0</ele><time>2026-04-20T09:40:11Z</time></trkpt><trkpt lat="43.967192376636255" lon="12.138726880211856"><ele>572.0</ele><time>2026-04-20T09:40:12Z</time></trkpt><trkpt lat="43.967126348490204" lon="12.138634015213196"><ele>572.0</ele><time>2026-04-20T09:40:13Z</time></trkpt><trkpt lat="43.9670788047901" lon="12.138552526650708"><ele>572.0</ele><time>2026-04-20T09:40:14Z</time></trkpt><trkpt lat="43.96703509008252" lon="12.138464868895728"><ele>572.0</ele><time>2026-04-20T09:40:15Z</time></trkpt><trkpt lat="43.966944445555235" lon="12.138255649093118"><ele>572.0</ele><time>2026-04-20T09:40:17Z</time></trkpt><trkpt lat="43.96690204984292" lon="12.138127139543416"><ele>575.25</ele><time>2026-04-20T09:40:18Z</time></trkpt><trkpt lat="43.966846389745044" lon="12.137990838913495"><ele>578.5</ele><time>2026-04-20T09:40:19Z</time></trkpt><trkpt lat="43.96681436459681" lon="12.137824149271577"><ele>581.75</ele><time>2026-04-20T09:40:20Z</time></trkpt><trkpt lat="43.96679175712978" lon="12.137637577720128"><ele>585.0</ele><time>2026-04-20T09:40:21Z</time></trkpt><trkpt lat="43.96677599261633" lon="12.137439494040386"><ele>586.75</ele><time>2026-04-20T09:40:22Z</time></trkpt><trkpt lat="43.96675682914823" lon="12.137233487043366"><ele>588.5</ele><time>2026-04-20T09:40:23Z</time></trkpt><trkpt lat="43.96671543303867" lon="12.137037165601672"><ele>590.25</ele><time>2026-04-20T09:40:24Z</time></trkpt><trkpt lat="43.96667415838699" lon="12.136838155797795"><ele>592.0</ele><time>2026-04-20T09:40:25Z</time></trkpt><trkpt lat="43.96658211272842" lon="12.136644447585171"><ele>585.25</ele><time>2026-04-20T09:40:26Z</time></trkpt><trkpt lat="43.96652835974683" lon="12.136455497505022"><ele>578.5</ele><time>2026-04-20T09:40:27Z</time></trkpt><trkpt lat="43.96649670442009" lon="12.13627576562085"><ele>571.75</ele><time>2026-04-20T09:40:28Z</time></trkpt><trkpt lat="43.96648506914613" lon="12.136103789634623"><ele>565.0</ele><time>2026-04-20T09:40:29Z</time></trkpt><trkpt lat="43.96647544365556" lon="12.135908625483832"><ele>563.0</ele><time>2026-04-20T09:40:30Z</time></trkpt><trkpt lat="43.966469403509656" lon="12.135713937043164"><ele>561.0</ele><time>2026-04-20T09:40:31Z</time></trkpt><trkpt lat="43.966444993271836" lon="12.135529825865545"><ele>559.0</ele><time>2026-04-20T09:40:32Z</time></trkpt><trkpt lat="43.96639054621542" lon="12.135367036327777"><ele>557.0</ele><time>2026-04-20T09:40:33Z</time></trkpt><trkpt lat="43.96629600675761" lon="12.135246167466141"><ele>557.0</ele><time>2026-04-20T09:40:34Z</time></trkpt><trkpt lat="43.96619174505913" lon="12.135136225333495"><ele>557.0</ele><time>2026-04-20T09:40:35Z</time></trkpt><trkpt lat="43.96606639038123" lon="12.135040944450692"><ele>557.0</ele><time>2026-04-20T09:40:36Z</time></trkpt><trkpt lat="43.965930911049995" lon="12.134958287418975"><ele>557.0</ele><time>2026-04-20T09:40:37Z</time></trkpt><trkpt lat="43.96580453784394" lon="12.134858087557033"><ele>558.0</ele><time>2026-04-20T09:40:38Z</time></trkpt><trkpt lat="43.965697038025006" lon="12.134745407480901"><ele>559.0</ele><time>2026-04-20T09:40:39Z</time></trkpt><trkpt lat="43.96558996918069" lon="12.134604584574042"><ele>560.0</ele><time>2026-04-20T09:40:40Z</time></trkpt><trkpt lat="43.96548194246883" lon="12.134447142116752"><ele>561.0</ele><time>2026-04-20T09:40:41Z</time></trkpt><trkpt lat="43.96538139267024" lon="12.134273207539557"><ele>561.0</ele><time>2026-04-20T09:40:42Z</time></trkpt><trkpt lat="43.96527905243239" lon="12.134112400040538"><ele>561.0</ele><time>2026-04-20T09:40:43Z</time></trkpt><trkpt lat="43.96514850558281" lon="12.1340132791007"><ele>561.0</ele><time>2026-04-20T09:40:44Z</time></trkpt><trkpt lat="43.96502572532092" lon="12.133938976538138"><ele>561.0</ele><time>2026-04-20T09:40:45Z</time></trkpt><trkpt lat="43.96492545554466" lon="12.133847335602914"><ele>559.25</ele><time>2026-04-20T09:40:46Z</time></trkpt><trkpt lat="43.96481270512886" lon="12.133752301678102"><ele>557.5</ele><time>2026-04-20T09:40:47Z</time></trkpt><trkpt lat="43.96469083254154" lon="12.133652161315672"><ele>555.75</ele><time>2026-04-20T09:40:48Z</time></trkpt><trkpt lat="43.96456208868414" lon="12.133546375003785"><ele>554.0</ele><time>2026-04-20T09:40:49Z</time></trkpt><trkpt lat="43.9644286286907" lon="12.133468174614755"><ele>554.0</ele><time>2026-04-20T09:40:50Z</time></trkpt><trkpt lat="43.964330911656" lon="12.133336634098962"><ele>554.0</ele><time>2026-04-20T09:40:51Z</time></trkpt><trkpt lat="43.96422841111157" lon="12.133208309796222"><ele>554.0</ele><time>2026-04-20T09:40:52Z</time></trkpt><trkpt lat="43.964104646464286" lon="12.133128900372334"><ele>554.0</ele><time>2026-04-20T09:40:53Z</time></trkpt><trkpt lat="43.963977910873474" lon="12.13306946822418"><ele>544.75</ele><time>2026-04-20T09:40:54Z</time></trkpt><trkpt lat="43.96384860464237" lon="12.13304681447425"><ele>535.5</ele><time>2026-04-20T09:40:55Z</time></trkpt><trkpt lat="43.963735047749736" lon="12.13302862901001"><ele>526.25</ele><time>2026-04-20T09:40:56Z</time></trkpt><trkpt lat="43.963624297169886" lon="12.133045866235848"><ele>517.0</ele><time>2026-04-20T09:40:57Z</time></trkpt><trkpt lat="43.96350901308494" lon="12.13309504660956"><ele>517.0</ele><time>2026-04-20T09:40:58Z</time></trkpt><trkpt lat="43.96338302912238" lon="12.133147042861962"><ele>517.0</ele><time>2026-04-20T09:40:59Z</time></trkpt><trkpt lat="43.96325882160003" lon="12.13318420805294"><ele>517.0</ele><time>2026-04-20T09:41:00Z</time></trkpt><trkpt lat="43.96313165070791" lon="12.133212569242959"><ele>517.0</ele><time>2026-04-20T09:41:01Z</time></trkpt><trkpt lat="43.963000521030594" lon="12.133217535251367"><ele>515.5</ele><time>2026-04-20T09:41:02Z</time></trkpt><trkpt lat="43.96286612313991" lon="12.13321021589571"><ele>514.0</ele><time>2026-04-20T09:41:03Z</time></trkpt><trkpt lat="43.96273445789761" lon="12.13321604687634"><ele>512.5</ele><time>2026-04-20T09:41:04Z</time></trkpt><trkpt lat="43.96260137219523" lon="12.133229666308928"><ele>511.0</ele><time>2026-04-20T09:41:05Z</time></trkpt><trkpt lat="43.96246766040463" lon="12.133237158163418"><ele>513.0</ele><time>2026-04-20T09:41:06Z</time></trkpt><trkpt lat="43.962331804388235" lon="12.133234239822633"><ele>515.0</ele><time>2026-04-20T09:41:07Z</time></trkpt><trkpt lat="43.962219656542544" lon="12.13318047059095"><ele>517.0</ele><time>2026-04-20T09:41:08Z</time></trkpt><trkpt lat="43.96211754829371" lon="12.133138061149992"><ele>519.0</ele><time>2026-04-20T09:41:09Z</time></trkpt><trkpt lat="43.96201739745875" lon="12.13307709193906"><ele>519.0</ele><time>2026-04-20T09:41:10Z</time></trkpt><trkpt lat="43.96191050206072" lon="12.133000063002617"><ele>519.0</ele><time>2026-04-20T09:41:11Z</time></trkpt><trkpt lat="43.961791950087104" lon="12.132950647727393"><ele>519.0</ele><time>2026-04-20T09:41:12Z</time></trkpt><trkpt lat="43.96167722447392" lon="12.132906199107522"><ele>519.0</ele><time>2026-04-20T09:41:13Z</time></trkpt><trkpt lat="43.96156970175647" lon="12.132896246010404"><ele>521.3333333333334</ele><time>2026-04-20T09:41:14Z</time></trkpt><trkpt lat="43.96149050637913" lon="12.132840404504785"><ele>523.6666666666666</ele><time>2026-04-20T09:41:15Z</time></trkpt><trkpt lat="43.96142490950744" lon="12.132790153485638"><ele>526.0</ele><time>2026-04-20T09:41:16Z</time></trkpt><trkpt lat="43.961358838232194" lon="12.132745813901206"><ele>528.3333333333333</ele><time>2026-04-20T09:41:17Z</time></trkpt><trkpt lat="43.96128522475539" lon="12.132694069904682"><ele>530.6666666666666</ele><time>2026-04-20T09:41:18Z</time></trkpt><trkpt lat="43.96119689938179" lon="12.132663491411881"><ele>533.0</ele><time>2026-04-20T09:41:19Z</time></trkpt><trkpt lat="43.961103729756886" lon="12.132650374012378"><ele>533.0</ele><time>2026-04-20T09:41:20Z</time></trkpt><trkpt lat="43.96101643390156" lon="12.132638503584353"><ele>533.0</ele><time>2026-04-20T09:41:21Z</time></trkpt><trkpt lat="43.96093793660147" lon="12.132635260079596"><ele>533.0</ele><time>2026-04-20T09:41:22Z</time></trkpt><trkpt lat="43.96087149166458" lon="12.132664926097023"><ele>533.0</ele><time>2026-04-20T09:41:23Z</time></trkpt><trkpt lat="43.96081932772083" lon="12.132728193932406"><ele>533.0</ele><time>2026-04-20T09:41:24Z</time></trkpt><trkpt lat="43.96077661723956" lon="12.132795181389639"><ele>533.0</ele><time>2026-04-20T09:41:25Z</time></trkpt><trkpt lat="43.96072334487737" lon="12.132883466319589"><ele>532.5</ele><time>2026-04-20T09:41:26Z</time></trkpt><trkpt lat="43.96064896381378" lon="12.132970632898369"><ele>532.0</ele><time>2026-04-20T09:41:27Z</time></trkpt><trkpt lat="43.96058856427849" lon="12.133096610636008"><ele>531.5</ele><time>2026-04-20T09:41:28Z</time></trkpt><trkpt lat="43.96050356094092" lon="12.133212461821179"><ele>531.0</ele><time>2026-04-20T09:41:29Z</time></trkpt><trkpt lat="43.96041304075351" lon="12.133335197112366"><ele>531.0</ele><time>2026-04-20T09:41:30Z</time></trkpt><trkpt lat="43.96031285957071" lon="12.13345204897293"><ele>531.0</ele><time>2026-04-20T09:41:31Z</time></trkpt><trkpt lat="43.96020902286663" lon="12.133548683066385"><ele>531.0</ele><time>2026-04-20T09:41:32Z</time></trkpt><trkpt lat="43.96009931715211" lon="12.133633387554882"><ele>531.0</ele><time>2026-04-20T09:41:33Z</time></trkpt><trkpt lat="43.95998630601447" lon="12.13370357697405"><ele>530.25</ele><time>2026-04-20T09:41:34Z</time></trkpt><trkpt lat="43.9598751198296" lon="12.133759867132689"><ele>529.5</ele><time>2026-04-20T09:41:35Z</time></trkpt><trkpt lat="43.95976330637251" lon="12.13381460537187"><ele>528.75</ele><time>2026-04-20T09:41:36Z</time></trkpt><trkpt lat="43.95965648026819" lon="12.1338740145045"><ele>528.0</ele><time>2026-04-20T09:41:37Z</time></trkpt><trkpt lat="43.959551658582" lon="12.133935475833148"><ele>528.0</ele><time>2026-04-20T09:41:38Z</time></trkpt><trkpt lat="43.959445823590784" lon="12.133971480781955"><ele>528.0</ele><time>2026-04-20T09:41:39Z</time></trkpt><trkpt lat="43.959346253038085" lon="12.134023243531427"><ele>528.0</ele><time>2026-04-20T09:41:40Z</time></trkpt><trkpt lat="43.95925310309052" lon="12.134071668502626"><ele>528.0</ele><time>2026-04-20T09:41:41Z</time></trkpt><trkpt lat="43.959161058084" lon="12.134119518928898"><ele>528.0</ele><time>2026-04-20T09:41:42Z</time></trkpt><trkpt lat="43.95906169075241" lon="12.134169184362523"><ele>527.1999999999999</ele><time>2026-04-20T09:41:43Z</time></trkpt><trkpt lat="43.958967406528835" lon="12.134231117763253"><ele>526.4</ele><time>2026-04-20T09:41:44Z</time></trkpt><trkpt lat="43.95886396330934" lon="12.13422846240932"><ele>525.5999999999999</ele><time>2026-04-20T09:41:45Z</time></trkpt><trkpt lat="43.95875917954571" lon="12.134220341336539"><ele>524.8</ele><time>2026-04-20T09:41:46Z</time></trkpt><trkpt lat="43.95867662563871" lon="12.134226502963552"><ele>524.0</ele><time>2026-04-20T09:41:47Z</time></trkpt><trkpt lat="43.95860145986559" lon="12.13428303568069"><ele>524.0</ele><time>2026-04-20T09:41:48Z</time></trkpt><trkpt lat="43.95850581147011" lon="12.134366235836568"><ele>524.0</ele><time>2026-04-20T09:41:49Z</time></trkpt><trkpt lat="43.95842243206403" lon="12.134462582215903"><ele>524.0</ele><time>2026-04-20T09:41:50Z</time></trkpt><trkpt lat="43.95833225526209" lon="12.134574831702665"><ele>524.0</ele><time>2026-04-20T09:41:51Z</time></trkpt><trkpt lat="43.95821824534405" lon="12.13470304121892"><ele>524.0</ele><time>2026-04-20T09:41:52Z</time></trkpt><trkpt lat="43.95812561019556" lon="12.13489365735719"><ele>524.0</ele><time>2026-04-20T09:41:53Z</time></trkpt><trkpt lat="43.958039626971996" lon="12.135090463694587"><ele>524.0</ele><time>2026-04-20T09:41:54Z</time></trkpt><trkpt lat="43.95797710998352" lon="12.135245718961459"><ele>524.0</ele><time>2026-04-20T09:41:55Z</time></trkpt><trkpt lat="43.95788979539405" lon="12.135321261686512"><ele>524.0</ele><time>2026-04-20T09:41:56Z</time></trkpt><trkpt lat="43.95779634391256" lon="12.13535387748276"><ele>524.0</ele><time>2026-04-20T09:41:57Z</time></trkpt><trkpt lat="43.95769427991235" lon="12.135317141171402"><ele>524.0</ele><time>2026-04-20T09:41:58Z</time></trkpt><trkpt lat="43.95756739989079" lon="12.13528473177092"><ele>524.0</ele><time>2026-04-20T09:41:59Z</time></trkpt><trkpt lat="43.95742183536972" lon="12.135258689830033"><ele>530.75</ele><time>2026-04-20T09:42:00Z</time></trkpt><trkpt lat="43.95729196222805" lon="12.135215590641458"><ele>537.5</ele><time>2026-04-20T09:42:01Z</time></trkpt><trkpt lat="43.95716180672774" lon="12.135213040722531"><ele>544.25</ele><time>2026-04-20T09:42:02Z</time></trkpt><trkpt lat="43.95701974574598" lon="12.135277949826293"><ele>551.0</ele><time>2026-04-20T09:42:03Z</time></trkpt><trkpt lat="43.95685154326007" lon="12.13537668237067"><ele>555.3333333333333</ele><time>2026-04-20T09:42:04Z</time></trkpt><trkpt lat="43.956670169410614" lon="12.13544549836384"><ele>559.6666666666666</ele><time>2026-04-20T09:42:05Z</time></trkpt><trkpt lat="43.9565006420867" lon="12.135533031641849"><ele>564.0</ele><time>2026-04-20T09:42:06Z</time></trkpt><trkpt lat="43.95634045205439" lon="12.135618963167982"><ele>564.0</ele><time>2026-04-20T09:42:07Z</time></trkpt><trkpt lat="43.956203746666404" lon="12.135700635574567"><ele>564.0</ele><time>2026-04-20T09:42:08Z</time></trkpt><trkpt lat="43.95608051453311" lon="12.135796572473145"><ele>564.0</ele><time>2026-04-20T09:42:09.001Z</time></trkpt><trkpt lat="43.95595161275024" lon="12.135818688514203"><ele>564.0</ele><time>2026-04-20T09:42:10.001Z</time></trkpt><trkpt lat="43.95584420401033" lon="12.135838325632928"><ele>562.25</ele><time>2026-04-20T09:42:11.001Z</time></trkpt><trkpt lat="43.95574301833739" lon="12.135842872612688"><ele>560.5</ele><time>2026-04-20T09:42:12.001Z</time></trkpt><trkpt lat="43.955664992109355" lon="12.1357275141624"><ele>558.75</ele><time>2026-04-20T09:42:13.001Z</time></trkpt><trkpt lat="43.95559345246482" lon="12.135576952522298"><ele>557.0</ele><time>2026-04-20T09:42:14.001Z</time></trkpt><trkpt lat="43.95551340870085" lon="12.13540112775364"><ele>563.3333333333333</ele><time>2026-04-20T09:42:15.001Z</time></trkpt><trkpt lat="43.95542372715553" lon="12.135194068754034"><ele>569.6666666666666</ele><time>2026-04-20T09:42:16.001Z</time></trkpt><trkpt lat="43.95531699314944" lon="12.135012559869564"><ele>576.0</ele><time>2026-04-20T09:42:17.001Z</time></trkpt><trkpt lat="43.9551610187449" lon="12.134890714480104"><ele>573.0</ele><time>2026-04-20T09:42:18.001Z</time></trkpt><trkpt lat="43.954976944872534" lon="12.1348087952654"><ele>570.0</ele><time>2026-04-20T09:42:19.001Z</time></trkpt><trkpt lat="43.95477691232265" lon="12.134756258334756"><ele>567.0</ele><time>2026-04-20T09:42:20.001Z</time></trkpt><trkpt lat="43.9545808704106" lon="12.134732881424462"><ele>567.0</ele><time>2026-04-20T09:42:21.001Z</time></trkpt><trkpt lat="43.954415525674804" lon="12.134730280529094"><ele>567.0</ele><time>2026-04-20T09:42:22.001Z</time></trkpt><trkpt lat="43.95427114315489" lon="12.134742110058658"><ele>567.0</ele><time>2026-04-20T09:42:23.001Z</time></trkpt><trkpt lat="43.95413111753744" lon="12.134806392174449"><ele>565.0</ele><time>2026-04-20T09:42:24Z</time></trkpt><trkpt lat="43.95398443121644" lon="12.134913904328952"><ele>563.0</ele><time>2026-04-20T09:42:25Z</time></trkpt><trkpt lat="43.953831327476486" lon="12.135038747562032"><ele>561.0</ele><time>2026-04-20T09:42:26Z</time></trkpt><trkpt lat="43.953672661893556" lon="12.135170225872573"><ele>561.0</ele><time>2026-04-20T09:42:27Z</time></trkpt><trkpt lat="43.95351795035838" lon="12.135294309734357"><ele>561.0</ele><time>2026-04-20T09:42:28Z</time></trkpt><trkpt lat="43.953367238261976" lon="12.135387892365115"><ele>561.0</ele><time>2026-04-20T09:42:29Z</time></trkpt><trkpt lat="43.9532091930197" lon="12.13544302392083"><ele>565.0</ele><time>2026-04-20T09:42:30Z</time></trkpt><trkpt lat="43.95304884065636" lon="12.135429441368661"><ele>569.0</ele><time>2026-04-20T09:42:31Z</time></trkpt><trkpt lat="43.952901233117565" lon="12.135395032745008"><ele>573.0</ele><time>2026-04-20T09:42:32Z</time></trkpt><trkpt lat="43.95276162186404" lon="12.135309333358974"><ele>573.0</ele><time>2026-04-20T09:42:33Z</time></trkpt><trkpt lat="43.95260107231202" lon="12.135231214470235"><ele>573.0</ele><time>2026-04-20T09:42:34Z</time></trkpt><trkpt lat="43.95244319121185" lon="12.135130017587064"><ele>573.0</ele><time>2026-04-20T09:42:35Z</time></trkpt><trkpt lat="43.95226724209392" lon="12.135071910401315"><ele>572.3333333333334</ele><time>2026-04-20T09:42:36Z</time></trkpt><trkpt lat="43.952073130326674" lon="12.13506884678162"><ele>571.6666666666667</ele><time>2026-04-20T09:42:37Z</time></trkpt><trkpt lat="43.951871034011724" lon="12.135082433572046"><ele>571.0</ele><time>2026-04-20T09:42:38Z</time></trkpt><trkpt lat="43.95166597197929" lon="12.13505714608008"><ele>569.0</ele><time>2026-04-20T09:42:39Z</time></trkpt><trkpt lat="43.95145208564964" lon="12.135047004571293"><ele>567.0</ele><time>2026-04-20T09:42:40Z</time></trkpt><trkpt lat="43.951236950255826" lon="12.135057812008252"><ele>565.0</ele><time>2026-04-20T09:42:41Z</time></trkpt><trkpt lat="43.951033857700416" lon="12.135038900642876"><ele>566.3333333333334</ele><time>2026-04-20T09:42:42Z</time></trkpt><trkpt lat="43.9508492359652" lon="12.134985480211393"><ele>567.6666666666666</ele><time>2026-04-20T09:42:43Z</time></trkpt><trkpt lat="43.95067748697241" lon="12.134932108875606"><ele>569.0</ele><time>2026-04-20T09:42:44Z</time></trkpt><trkpt lat="43.95051954263552" lon="12.13485440084123"><ele>565.0</ele><time>2026-04-20T09:42:45Z</time></trkpt><trkpt lat="43.95037385996737" lon="12.134758797978627"><ele>561.0</ele><time>2026-04-20T09:42:46Z</time></trkpt><trkpt lat="43.95017624374732" lon="12.134495592070063"><ele>557.0</ele><time>2026-04-20T09:42:48Z</time></trkpt><trkpt lat="43.95013693085199" lon="12.134335874736992"><ele>557.0</ele><time>2026-04-20T09:42:49Z</time></trkpt><trkpt lat="43.950101791518044" lon="12.134145824417635"><ele>557.0</ele><time>2026-04-20T09:42:50Z</time></trkpt><trkpt lat="43.95005836787961" lon="12.133926067926263"><ele>557.0</ele><time>2026-04-20T09:42:51Z</time></trkpt><trkpt lat="43.950051362972445" lon="12.13369082865832"><ele>562.3333333333333</ele><time>2026-04-20T09:42:52Z</time></trkpt><trkpt lat="43.95003133043512" lon="12.133456734198393"><ele>567.6666666666666</ele><time>2026-04-20T09:42:53Z</time></trkpt><trkpt lat="43.9500102550253" lon="12.133239378570288"><ele>573.0</ele><time>2026-04-20T09:42:54Z</time></trkpt><trkpt lat="43.95000393449218" lon="12.133049124685536"><ele>574.5</ele><time>2026-04-20T09:42:55Z</time></trkpt><trkpt lat="43.95000518389388" lon="12.132879768638452"><ele>576.0</ele><time>2026-04-20T09:42:56Z</time></trkpt><trkpt lat="43.95006951649288" lon="12.132738791874806"><ele>577.5</ele><time>2026-04-20T09:42:57Z</time></trkpt><trkpt lat="43.950178787990566" lon="12.132665726119548"><ele>579.0</ele><time>2026-04-20T09:42:58Z</time></trkpt><trkpt lat="43.95030204104753" lon="12.132624971718363"><ele>575.5</ele><time>2026-04-20T09:42:59Z</time></trkpt><trkpt lat="43.95045082096954" lon="12.13256557960862"><ele>572.0</ele><time>2026-04-20T09:43:00Z</time></trkpt><trkpt lat="43.95059129832772" lon="12.132479394982356"><ele>568.5</ele><time>2026-04-20T09:43:01Z</time></trkpt><trkpt lat="43.95071166533736" lon="12.132414886766439"><ele>565.0</ele><time>2026-04-20T09:43:02Z</time></trkpt><trkpt lat="43.950824301539384" lon="12.132349953665793"><ele>562.4</ele><time>2026-04-20T09:43:03Z</time></trkpt><trkpt lat="43.9509011096544" lon="12.132223894513626"><ele>559.8</ele><time>2026-04-20T09:43:04Z</time></trkpt><trkpt lat="43.95091948515241" lon="12.132065372674028"><ele>557.2</ele><time>2026-04-20T09:43:05Z</time></trkpt><trkpt lat="43.95092537185838" lon="12.13191627070228"><ele>554.6</ele><time>2026-04-20T09:43:06Z</time></trkpt><trkpt lat="43.95091479989068" lon="12.131774881946926"><ele>552.0</ele><time>2026-04-20T09:43:07Z</time></trkpt><trkpt lat="43.95089445602916" lon="12.131666069814415"><ele>553.25</ele><time>2026-04-20T09:43:08Z</time></trkpt><trkpt lat="43.95086965800675" lon="12.131551817136312"><ele>554.5</ele><time>2026-04-20T09:43:10Z</time></trkpt><trkpt lat="43.95068889138776" lon="12.13163194114407"><ele>555.75</ele><time>2026-04-20T09:43:13Z</time></trkpt><trkpt lat="43.95060718633302" lon="12.131729689720867"><ele>557.0</ele><time>2026-04-20T09:43:14Z</time></trkpt><trkpt lat="43.95050004354342" lon="12.13181258651122"><ele>559.0</ele><time>2026-04-20T09:43:15Z</time></trkpt><trkpt lat="43.95037734127706" lon="12.131849201539142"><ele>561.0</ele><time>2026-04-20T09:43:16Z</time></trkpt><trkpt lat="43.950230378009614" lon="12.131834961844728"><ele>563.0</ele><time>2026-04-20T09:43:17Z</time></trkpt><trkpt lat="43.95007318942147" lon="12.131784188588568"><ele>565.0</ele><time>2026-04-20T09:43:18Z</time></trkpt><trkpt lat="43.94991560990949" lon="12.13181150464055"><ele>565.75</ele><time>2026-04-20T09:43:19Z</time></trkpt><trkpt lat="43.949786534349535" lon="12.131892294843256"><ele>566.5</ele><time>2026-04-20T09:43:20Z</time></trkpt><trkpt lat="43.94966130225741" lon="12.131911898397933"><ele>567.25</ele><time>2026-04-20T09:43:21Z</time></trkpt><trkpt lat="43.94953477528684" lon="12.131857212806429"><ele>568.0</ele><time>2026-04-20T09:43:22Z</time></trkpt><trkpt lat="43.94944751517869" lon="12.131708241056216"><ele>568.0</ele><time>2026-04-20T09:43:23Z</time></trkpt><trkpt lat="43.94933598857988" lon="12.131577261879404"><ele>568.0</ele><time>2026-04-20T09:43:24Z</time></trkpt><trkpt lat="43.94921705376246" lon="12.131474146890247"><ele>568.0</ele><time>2026-04-20T09:43:25Z</time></trkpt><trkpt lat="43.949070988045825" lon="12.13143514480798"><ele>568.0</ele><time>2026-04-20T09:43:26Z</time></trkpt><trkpt lat="43.94892464906863" lon="12.131455314276248"><ele>566.0</ele><time>2026-04-20T09:43:27Z</time></trkpt><trkpt lat="43.94881188575933" lon="12.131518803288817"><ele>564.0</ele><time>2026-04-20T09:43:28Z</time></trkpt><trkpt lat="43.94873441626793" lon="12.131629655436006"><ele>562.0</ele><time>2026-04-20T09:43:29Z</time></trkpt><trkpt lat="43.94867522084365" lon="12.131797935187462"><ele>560.0</ele><time>2026-04-20T09:43:30Z</time></trkpt><trkpt lat="43.94859903733926" lon="12.131985934949162"><ele>566.0</ele><time>2026-04-20T09:43:31Z</time></trkpt><trkpt lat="43.948501697311585" lon="12.132158797208614"><ele>572.0</ele><time>2026-04-20T09:43:32Z</time></trkpt><trkpt lat="43.948383519280796" lon="12.132278943094171"><ele>578.0</ele><time>2026-04-20T09:43:33Z</time></trkpt><trkpt lat="43.94822578675553" lon="12.132320613285549"><ele>583.5</ele><time>2026-04-20T09:43:34Z</time></trkpt><trkpt lat="43.94808681803579" lon="12.132404295716164"><ele>589.0</ele><time>2026-04-20T09:43:35Z</time></trkpt><trkpt lat="43.94796958991166" lon="12.132486885605267"><ele>594.5</ele><time>2026-04-20T09:43:36Z</time></trkpt><trkpt lat="43.94789544964442" lon="12.132638059794797"><ele>600.0</ele><time>2026-04-20T09:43:37Z</time></trkpt><trkpt lat="43.947845905633926" lon="12.132818023281075"><ele>600.0</ele><time>2026-04-20T09:43:38Z</time></trkpt><trkpt lat="43.94779658142112" lon="12.133003019155261"><ele>600.0</ele><time>2026-04-20T09:43:39Z</time></trkpt><trkpt lat="43.947734193297016" lon="12.133169500594455"><ele>600.0</ele><time>2026-04-20T09:43:40Z</time></trkpt><trkpt lat="43.94764703643624" lon="12.133307950762534"><ele>600.0</ele><time>2026-04-20T09:43:41Z</time></trkpt><trkpt lat="43.947535296578685" lon="12.133353726783518"><ele>601.0</ele><time>2026-04-20T09:43:42Z</time></trkpt><trkpt lat="43.94741822706333" lon="12.133413791088781"><ele>602.0</ele><time>2026-04-20T09:43:43Z</time></trkpt><trkpt lat="43.947279961225114" lon="12.133421370272055"><ele>603.0</ele><time>2026-04-20T09:43:44Z</time></trkpt><trkpt lat="43.94715384455841" lon="12.133419367007816"><ele>604.0</ele><time>2026-04-20T09:43:45Z</time></trkpt><trkpt lat="43.947049796747784" lon="12.133415305446034"><ele>604.0</ele><time>2026-04-20T09:43:46Z</time></trkpt><trkpt lat="43.946956492747" lon="12.133411432066524"><ele>604.0</ele><time>2026-04-20T09:43:47Z</time></trkpt><trkpt lat="43.94686541692977" lon="12.13340401100793"><ele>604.0</ele><time>2026-04-20T09:43:48Z</time></trkpt><trkpt lat="43.94678236930821" lon="12.133441002284306"><ele>604.0</ele><time>2026-04-20T09:43:49Z</time></trkpt><trkpt lat="43.94667262326546" lon="12.133392617467871"><ele>604.0</ele><time>2026-04-20T09:43:50Z</time></trkpt><trkpt lat="43.946591542074565" lon="12.133520506520053"><ele>604.2</ele><time>2026-04-20T09:43:51Z</time></trkpt><trkpt lat="43.946503690848274" lon="12.133603461414262"><ele>604.4</ele><time>2026-04-20T09:43:52Z</time></trkpt><trkpt lat="43.94640328696656" lon="12.13365061179545"><ele>604.6</ele><time>2026-04-20T09:43:53Z</time></trkpt><trkpt lat="43.94629779458156" lon="12.133671529892293"><ele>604.8</ele><time>2026-04-20T09:43:54Z</time></trkpt><trkpt lat="43.94621199761612" lon="12.13366901325417"><ele>605.0</ele><time>2026-04-20T09:43:55Z</time></trkpt><trkpt lat="43.9461340746161" lon="12.133633766618017"><ele>605.0</ele><time>2026-04-20T09:43:56Z</time></trkpt><trkpt lat="43.94605828064935" lon="12.133596351105442"><ele>605.0</ele><time>2026-04-20T09:43:57Z</time></trkpt><trkpt lat="43.94597277379639" lon="12.133564268223228"><ele>605.0</ele><time>2026-04-20T09:43:58Z</time></trkpt><trkpt lat="43.94589459465727" lon="12.133472916514068"><ele>605.0</ele><time>2026-04-20T09:43:59Z</time></trkpt><trkpt lat="43.94583645605828" lon="12.133340426657744"><ele>605.0</ele><time>2026-04-20T09:44:00Z</time></trkpt><trkpt lat="43.94575918206872" lon="12.133215052028897"><ele>605.5</ele><time>2026-04-20T09:44:01Z</time></trkpt><trkpt lat="43.94569522593356" lon="12.133066152514912"><ele>606.0</ele><time>2026-04-20T09:44:02Z</time></trkpt><trkpt lat="43.945644713203684" lon="12.132901652414207"><ele>606.5</ele><time>2026-04-20T09:44:03Z</time></trkpt><trkpt lat="43.94558861570427" lon="12.132741703956373"><ele>607.0</ele><time>2026-04-20T09:44:04Z</time></trkpt><trkpt lat="43.945525743263254" lon="12.1325918889077"><ele>607.0</ele><time>2026-04-20T09:44:05Z</time></trkpt><trkpt lat="43.94549000326956" lon="12.132432576373175"><ele>607.0</ele><time>2026-04-20T09:44:06Z</time></trkpt><trkpt lat="43.94549389988035" lon="12.13227054272576"><ele>607.0</ele><time>2026-04-20T09:44:07Z</time></trkpt><trkpt lat="43.94548315123479" lon="12.132102829079633"><ele>607.0</ele><time>2026-04-20T09:44:08Z</time></trkpt><trkpt lat="43.94550784834495" lon="12.131960807223447"><ele>606.8000000000001</ele><time>2026-04-20T09:44:09Z</time></trkpt><trkpt lat="43.94547617869913" lon="12.131859131207118"><ele>606.6</ele><time>2026-04-20T09:44:10Z</time></trkpt><trkpt lat="43.94544178490875" lon="12.131762185598511"><ele>606.4000000000001</ele><time>2026-04-20T09:44:11Z</time></trkpt><trkpt lat="43.94538580064495" lon="12.131657068179146"><ele>606.2</ele><time>2026-04-20T09:44:12Z</time></trkpt><trkpt lat="43.94534933375631" lon="12.131511589880676"><ele>606.0</ele><time>2026-04-20T09:44:13Z</time></trkpt><trkpt lat="43.945302213610184" lon="12.131356301002343"><ele>607.25</ele><time>2026-04-20T09:44:14Z</time></trkpt><trkpt lat="43.94526418856831" lon="12.131181571919804"><ele>608.5</ele><time>2026-04-20T09:44:15Z</time></trkpt><trkpt lat="43.94522697484355" lon="12.13099999576955"><ele>609.75</ele><time>2026-04-20T09:44:16Z</time></trkpt><trkpt lat="43.945180519359745" lon="12.13082114188191"><ele>611.0</ele><time>2026-04-20T09:44:17Z</time></trkpt><trkpt lat="43.945119308099414" lon="12.130658466481675"><ele>611.75</ele><time>2026-04-20T09:44:18Z</time></trkpt><trkpt lat="43.94506502453089" lon="12.130500371871895"><ele>612.5</ele><time>2026-04-20T09:44:19Z</time></trkpt><trkpt lat="43.94501856927066" lon="12.13034042777958"><ele>613.25</ele><time>2026-04-20T09:44:20Z</time></trkpt><trkpt lat="43.94499817919233" lon="12.1301636669547"><ele>614.0</ele><time>2026-04-20T09:44:21Z</time></trkpt><trkpt lat="43.94497736404" lon="12.129985553196796"><ele>622.6666666666666</ele><time>2026-04-20T09:44:22Z</time></trkpt><trkpt lat="43.94494556693514" lon="12.12982444518213"><ele>631.3333333333334</ele><time>2026-04-20T09:44:23Z</time></trkpt><trkpt lat="43.94483717518292" lon="12.129533225015464"><ele>640.0</ele><time>2026-04-20T09:44:25Z</time></trkpt><trkpt lat="43.944765051313524" lon="12.129413541934387"><ele>640.0</ele><time>2026-04-20T09:44:26Z</time></trkpt><trkpt lat="43.944679971158045" lon="12.12932362805099"><ele>640.0</ele><time>2026-04-20T09:44:27Z</time></trkpt><trkpt lat="43.94455924952289" lon="12.129319388904738"><ele>640.0</ele><time>2026-04-20T09:44:28Z</time></trkpt><trkpt lat="43.94448205274624" lon="12.12926861982921"><ele>640.0</ele><time>2026-04-20T09:44:29Z</time></trkpt><trkpt lat="43.94443296838814" lon="12.129173846860796"><ele>640.0</ele><time>2026-04-20T09:44:30Z</time></trkpt><trkpt lat="43.9444093525639" lon="12.129080546273618"><ele>637.75</ele><time>2026-04-20T09:44:31Z</time></trkpt><trkpt lat="43.94440339240185" lon="12.128955116712548"><ele>635.5</ele><time>2026-04-20T09:44:32Z</time></trkpt><trkpt lat="43.94438810386276" lon="12.128803710105906"><ele>633.25</ele><time>2026-04-20T09:44:33Z</time></trkpt><trkpt lat="43.94438923300062" lon="12.12863226289055"><ele>631.0</ele><time>2026-04-20T09:44:34Z</time></trkpt><trkpt lat="43.94438782229885" lon="12.128453112134718"><ele>631.0</ele><time>2026-04-20T09:44:35Z</time></trkpt><trkpt lat="43.94440328821651" lon="12.128284157237568"><ele>631.0</ele><time>2026-04-20T09:44:36Z</time></trkpt><trkpt lat="43.944395439783776" lon="12.12812678159517"><ele>631.0</ele><time>2026-04-20T09:44:37Z</time></trkpt><trkpt lat="43.94439531949191" lon="12.127977630082892"><ele>631.0</ele><time>2026-04-20T09:44:38Z</time></trkpt><trkpt lat="43.944406913050194" lon="12.127838677123666"><ele>631.0</ele><time>2026-04-20T09:44:39Z</time></trkpt><trkpt lat="43.94439182247055" lon="12.127699584452644"><ele>626.25</ele><time>2026-04-20T09:44:40Z</time></trkpt><trkpt lat="43.944349069250904" lon="12.12755242071526"><ele>621.5</ele><time>2026-04-20T09:44:41Z</time></trkpt><trkpt lat="43.94428221811157" lon="12.12739817291171"><ele>616.75</ele><time>2026-04-20T09:44:42Z</time></trkpt><trkpt lat="43.94421343438699" lon="12.127251407493944"><ele>612.0</ele><time>2026-04-20T09:44:43Z</time></trkpt><trkpt lat="43.94415515539036" lon="12.12711192266374"><ele>611.6</ele><time>2026-04-20T09:44:44Z</time></trkpt><trkpt lat="43.94406183073991" lon="12.127031956174969"><ele>611.2</ele><time>2026-04-20T09:44:45Z</time></trkpt><trkpt lat="43.94397379502979" lon="12.126976796401976"><ele>610.8</ele><time>2026-04-20T09:44:46Z</time></trkpt><trkpt lat="43.94387530886576" lon="12.12695664048089"><ele>610.4</ele><time>2026-04-20T09:44:47Z</time></trkpt><trkpt lat="43.943762199112285" lon="12.12695345352082"><ele>610.0</ele><time>2026-04-20T09:44:48Z</time></trkpt><trkpt lat="43.94365525454002" lon="12.126973990494102"><ele>610.0</ele><time>2026-04-20T09:44:49Z</time></trkpt><trkpt lat="43.94354202153632" lon="12.127020248823639"><ele>610.0</ele><time>2026-04-20T09:44:50Z</time></trkpt><trkpt lat="43.943439574394844" lon="12.127077309264514"><ele>610.0</ele><time>2026-04-20T09:44:51Z</time></trkpt><trkpt lat="43.94335646367917" lon="12.127130672216483"><ele>610.0</ele><time>2026-04-20T09:44:52Z</time></trkpt><trkpt lat="43.943269737378046" lon="12.127216376361094"><ele>610.0</ele><time>2026-04-20T09:44:53Z</time></trkpt><trkpt lat="43.943169661509586" lon="12.127289432505064"><ele>607.5</ele><time>2026-04-20T09:44:54Z</time></trkpt><trkpt lat="43.94306184894819" lon="12.127328638507542"><ele>605.0</ele><time>2026-04-20T09:44:55Z</time></trkpt><trkpt lat="43.94293576545292" lon="12.127334900094473"><ele>602.5</ele><time>2026-04-20T09:44:56Z</time></trkpt><trkpt lat="43.942814709230504" lon="12.127349606755963"><ele>600.0</ele><time>2026-04-20T09:44:57Z</time></trkpt><trkpt lat="43.94268435484082" lon="12.127334829895823"><ele>600.0</ele><time>2026-04-20T09:44:58Z</time></trkpt><trkpt lat="43.94257018233375" lon="12.127297382831646"><ele>600.0</ele><time>2026-04-20T09:44:59Z</time></trkpt><trkpt lat="43.94247434886639" lon="12.127203550256066"><ele>600.0</ele><time>2026-04-20T09:45:00Z</time></trkpt><trkpt lat="43.942369670710484" lon="12.1270871334149"><ele>600.0</ele><time>2026-04-20T09:45:01Z</time></trkpt><trkpt lat="43.94224841439885" lon="12.126960230018508"><ele>596.6666666666666</ele><time>2026-04-20T09:45:02Z</time></trkpt><trkpt lat="43.94215894640343" lon="12.126779683474531"><ele>593.3333333333333</ele><time>2026-04-20T09:45:03Z</time></trkpt><trkpt lat="43.942063620711785" lon="12.126608017686188"><ele>590.0</ele><time>2026-04-20T09:45:04Z</time></trkpt><trkpt lat="43.94196457731751" lon="12.12642817976169"><ele>588.25</ele><time>2026-04-20T09:45:05Z</time></trkpt><trkpt lat="43.94186579629483" lon="12.126273351798904"><ele>586.5</ele><time>2026-04-20T09:45:06Z</time></trkpt><trkpt lat="43.941798875864365" lon="12.126105310654149"><ele>584.75</ele><time>2026-04-20T09:45:07Z</time></trkpt><trkpt lat="43.94174090495773" lon="12.125953581690009"><ele>583.0</ele><time>2026-04-20T09:45:08Z</time></trkpt><trkpt lat="43.94170838027706" lon="12.125822169677788"><ele>583.0</ele><time>2026-04-20T09:45:09Z</time></trkpt><trkpt lat="43.9416497960669" lon="12.125725179775026"><ele>583.0</ele><time>2026-04-20T09:45:10Z</time></trkpt><trkpt lat="43.94159606364614" lon="12.125654269008097"><ele>583.0</ele><time>2026-04-20T09:45:11Z</time></trkpt><trkpt lat="43.941547025678396" lon="12.125597682437652"><ele>583.0</ele><time>2026-04-20T09:45:12Z</time></trkpt><trkpt lat="43.94145695290606" lon="12.125644180799988"><ele>583.0</ele><time>2026-04-20T09:45:13Z</time></trkpt><trkpt lat="43.941370708820344" lon="12.125724283472383"><ele>583.0</ele><time>2026-04-20T09:45:14Z</time></trkpt><trkpt lat="43.94128888505367" lon="12.125842808378296"><ele>583.0</ele><time>2026-04-20T09:45:15Z</time></trkpt><trkpt lat="43.94119490345438" lon="12.125963794845374"><ele>583.0</ele><time>2026-04-20T09:45:16Z</time></trkpt><trkpt lat="43.94108159849167" lon="12.126064992011512"><ele>583.0</ele><time>2026-04-20T09:45:17Z</time></trkpt><trkpt lat="43.94099278617877" lon="12.12615817890468"><ele>583.0</ele><time>2026-04-20T09:45:18Z</time></trkpt><trkpt lat="43.94091447130712" lon="12.126279657878278"><ele>583.5</ele><time>2026-04-20T09:45:19Z</time></trkpt><trkpt lat="43.94084173912255" lon="12.126421022204658"><ele>584.0</ele><time>2026-04-20T09:45:20Z</time></trkpt><trkpt lat="43.94077747352552" lon="12.126554138288306"><ele>584.5</ele><time>2026-04-20T09:45:21Z</time></trkpt><trkpt lat="43.94073650333671" lon="12.12668881863565"><ele>585.0</ele><time>2026-04-20T09:45:22Z</time></trkpt><trkpt lat="43.9407214131768" lon="12.12683796987258"><ele>585.0</ele><time>2026-04-20T09:45:23Z</time></trkpt><trkpt lat="43.94070743488865" lon="12.12699279984886"><ele>585.0</ele><time>2026-04-20T09:45:24Z</time></trkpt><trkpt lat="43.94065404470701" lon="12.127124072742493"><ele>585.0</ele><time>2026-04-20T09:45:25Z</time></trkpt><trkpt lat="43.94057829379484" lon="12.127206236077916"><ele>585.0</ele><time>2026-04-20T09:45:26Z</time></trkpt><trkpt lat="43.940491274021866" lon="12.127250848320438"><ele>585.0</ele><time>2026-04-20T09:45:27Z</time></trkpt><trkpt lat="43.94039963131906" lon="12.127232058941184"><ele>585.0</ele><time>2026-04-20T09:45:28Z</time></trkpt><trkpt lat="43.940283113187995" lon="12.127218128891547"><ele>585.0</ele><time>2026-04-20T09:45:29Z</time></trkpt><trkpt lat="43.940163267002305" lon="12.127183874183855"><ele>585.0</ele><time>2026-04-20T09:45:30Z</time></trkpt><trkpt lat="43.9400555250608" lon="12.12712089103719"><ele>585.0</ele><time>2026-04-20T09:45:31Z</time></trkpt><trkpt lat="43.939976991187784" lon="12.127015604763951"><ele>581.5</ele><time>2026-04-20T09:45:32Z</time></trkpt><trkpt lat="43.939901281448996" lon="12.126895535544934"><ele>578.0</ele><time>2026-04-20T09:45:33Z</time></trkpt><trkpt lat="43.939816899883475" lon="12.126735197195327"><ele>574.5</ele><time>2026-04-20T09:45:34Z</time></trkpt><trkpt lat="43.939756929334585" lon="12.126543828816127"><ele>571.0</ele><time>2026-04-20T09:45:35Z</time></trkpt><trkpt lat="43.939705445717976" lon="12.126351352436854"><ele>568.2</ele><time>2026-04-20T09:45:36Z</time></trkpt><trkpt lat="43.93963258612716" lon="12.12618861633159"><ele>565.4000000000001</ele><time>2026-04-20T09:45:37Z</time></trkpt><trkpt lat="43.939567007507755" lon="12.126061021962624"><ele>562.6</ele><time>2026-04-20T09:45:38Z</time></trkpt><trkpt lat="43.9394957587162" lon="12.12596171733888"><ele>559.8000000000001</ele><time>2026-04-20T09:45:39Z</time></trkpt><trkpt lat="43.939442378816764" lon="12.12589189735212"><ele>557.0</ele><time>2026-04-20T09:45:40Z</time></trkpt><trkpt lat="43.9393400810725" lon="12.125881416354115"><ele>557.0</ele><time>2026-04-20T09:45:41Z</time></trkpt><trkpt lat="43.939222446604376" lon="12.125861437757585"><ele>557.0</ele><time>2026-04-20T09:45:42Z</time></trkpt><trkpt lat="43.93910223908512" lon="12.125813786569235"><ele>557.0</ele><time>2026-04-20T09:45:43Z</time></trkpt><trkpt lat="43.938996895995786" lon="12.125792539026968"><ele>557.0</ele><time>2026-04-20T09:45:44Z</time></trkpt><trkpt lat="43.938899675376526" lon="12.125843995783907"><ele>560.6</ele><time>2026-04-20T09:45:45Z</time></trkpt><trkpt lat="43.93880752743919" lon="12.125852803102982"><ele>564.2</ele><time>2026-04-20T09:45:46Z</time></trkpt><trkpt lat="43.93871744533327" lon="12.125854133811435"><ele>567.8</ele><time>2026-04-20T09:45:47Z</time></trkpt><trkpt lat="43.93862823584805" lon="12.125809495536616"><ele>571.4</ele><time>2026-04-20T09:45:48Z</time></trkpt><trkpt lat="43.93852092938956" lon="12.12571490683248"><ele>575.0</ele><time>2026-04-20T09:45:49Z</time></trkpt><trkpt lat="43.938399674765435" lon="12.125597887950345"><ele>577.0</ele><time>2026-04-20T09:45:50Z</time></trkpt><trkpt lat="43.93828008465934" lon="12.125478848218666"><ele>579.0</ele><time>2026-04-20T09:45:51Z</time></trkpt><trkpt lat="43.938157578299865" lon="12.125403029122644"><ele>581.0</ele><time>2026-04-20T09:45:52Z</time></trkpt><trkpt lat="43.9380410698866" lon="12.125343426109099"><ele>583.0</ele><time>2026-04-20T09:45:53Z</time></trkpt><trkpt lat="43.93793790474395" lon="12.12526474825355"><ele>583.0</ele><time>2026-04-20T09:45:54Z</time></trkpt><trkpt lat="43.937847264949234" lon="12.125187174670353"><ele>583.0</ele><time>2026-04-20T09:45:55Z</time></trkpt><trkpt lat="43.9377719825144" lon="12.125092398866247"><ele>583.0</ele><time>2026-04-20T09:45:56Z</time></trkpt><trkpt lat="43.937738915973476" lon="12.124984329706775"><ele>583.0</ele><time>2026-04-20T09:45:57Z</time></trkpt><trkpt lat="43.93771719215531" lon="12.124870409852615"><ele>583.0</ele><time>2026-04-20T09:45:58Z</time></trkpt><trkpt lat="43.93771152165538" lon="12.12473530037613"><ele>582.0</ele><time>2026-04-20T09:45:59Z</time></trkpt><trkpt lat="43.937698368273175" lon="12.1245604987753"><ele>581.0</ele><time>2026-04-20T09:46:00Z</time></trkpt><trkpt lat="43.93769190814948" lon="12.124366799009533"><ele>580.0</ele><time>2026-04-20T09:46:01Z</time></trkpt><trkpt lat="43.93767217129395" lon="12.12415299043305"><ele>579.0</ele><time>2026-04-20T09:46:02Z</time></trkpt><trkpt lat="43.937628314852" lon="12.123952758536733"><ele>572.0</ele><time>2026-04-20T09:46:03Z</time></trkpt><trkpt lat="43.93757632937789" lon="12.123766308952419"><ele>565.0</ele><time>2026-04-20T09:46:04Z</time></trkpt><trkpt lat="43.9375139396254" lon="12.12360344850703"><ele>558.0</ele><time>2026-04-20T09:46:05Z</time></trkpt><trkpt lat="43.93744423285156" lon="12.123467632789865"><ele>551.0</ele><time>2026-04-20T09:46:06Z</time></trkpt><trkpt lat="43.93734800022408" lon="12.123363443750724"><ele>551.0</ele><time>2026-04-20T09:46:07Z</time></trkpt><trkpt lat="43.93725336623303" lon="12.12330622544062"><ele>551.0</ele><time>2026-04-20T09:46:08Z</time></trkpt><trkpt lat="43.937170406678185" lon="12.123059053807415"><ele>551.0</ele><time>2026-04-20T09:46:10Z</time></trkpt><trkpt lat="43.937149970918306" lon="12.12289559275787"><ele>551.0</ele><time>2026-04-20T09:46:11Z</time></trkpt><trkpt lat="43.93710456124032" lon="12.122722612196702"><ele>550.5</ele><time>2026-04-20T09:46:12Z</time></trkpt><trkpt lat="43.93706364461138" lon="12.122544489833432"><ele>550.0</ele><time>2026-04-20T09:46:13Z</time></trkpt><trkpt lat="43.93700461608671" lon="12.122371723410646"><ele>549.5</ele><time>2026-04-20T09:46:14Z</time></trkpt><trkpt lat="43.9369393707978" lon="12.122211544246666"><ele>549.0</ele><time>2026-04-20T09:46:15Z</time></trkpt><trkpt lat="43.9368409410419" lon="12.12206415661739"><ele>549.6666666666666</ele><time>2026-04-20T09:46:16Z</time></trkpt><trkpt lat="43.93674430446862" lon="12.12189784394515"><ele>550.3333333333333</ele><time>2026-04-20T09:46:17Z</time></trkpt><trkpt lat="43.93664624722006" lon="12.121736350893707"><ele>551.0</ele><time>2026-04-20T09:46:18Z</time></trkpt><trkpt lat="43.93655176742866" lon="12.121574824180977"><ele>556.25</ele><time>2026-04-20T09:46:19Z</time></trkpt><trkpt lat="43.93646651696208" lon="12.121409752413873"><ele>561.5</ele><time>2026-04-20T09:46:20Z</time></trkpt><trkpt lat="43.93637394375643" lon="12.121262708703004"><ele>566.75</ele><time>2026-04-20T09:46:21Z</time></trkpt><trkpt lat="43.93625572446771" lon="12.121169874070615"><ele>572.0</ele><time>2026-04-20T09:46:22Z</time></trkpt><trkpt lat="43.936136280431136" lon="12.121111912397492"><ele>572.0</ele><time>2026-04-20T09:46:23Z</time></trkpt><trkpt lat="43.9360063342446" lon="12.121044455097351"><ele>572.0</ele><time>2026-04-20T09:46:24Z</time></trkpt><trkpt lat="43.93587747986476" lon="12.12100648359338"><ele>572.0</ele><time>2026-04-20T09:46:25Z</time></trkpt><trkpt lat="43.93576489327167" lon="12.120948156471165"><ele>572.0</ele><time>2026-04-20T09:46:26Z</time></trkpt><trkpt lat="43.93564544526642" lon="12.120884950135496"><ele>571.0</ele><time>2026-04-20T09:46:27Z</time></trkpt><trkpt lat="43.93553721185636" lon="12.120837358012492"><ele>570.0</ele><time>2026-04-20T09:46:28Z</time></trkpt><trkpt lat="43.93542925591661" lon="12.12082662159514"><ele>569.0</ele><time>2026-04-20T09:46:29Z</time></trkpt><trkpt lat="43.93532483569439" lon="12.120872757850668"><ele>568.0</ele><time>2026-04-20T09:46:30Z</time></trkpt><trkpt lat="43.93523640628947" lon="12.120883532117308"><ele>567.0</ele><time>2026-04-20T09:46:31Z</time></trkpt><trkpt lat="43.935164405106256" lon="12.120862402064606"><ele>567.0</ele><time>2026-04-20T09:46:32Z</time></trkpt><trkpt lat="43.93511191436163" lon="12.120737260803025"><ele>567.0</ele><time>2026-04-20T09:46:34Z</time></trkpt><trkpt lat="43.93509608513319" lon="12.12060620887482"><ele>567.0</ele><time>2026-04-20T09:46:35Z</time></trkpt><trkpt lat="43.93514297726534" lon="12.120474359496182"><ele>567.0</ele><time>2026-04-20T09:46:36Z</time></trkpt><trkpt lat="43.9352277773795" lon="12.120265568594373"><ele>565.0</ele><time>2026-04-20T09:46:38Z</time></trkpt><trkpt lat="43.935321229521556" lon="12.120226422012028"><ele>563.0</ele><time>2026-04-20T09:46:39Z</time></trkpt><trkpt lat="43.93542145367727" lon="12.120148821574523"><ele>561.0</ele><time>2026-04-20T09:46:40Z</time></trkpt><trkpt lat="43.93553111365456" lon="12.120088652980222"><ele>559.0</ele><time>2026-04-20T09:46:41Z</time></trkpt><trkpt lat="43.9356188455672" lon="12.12004356826186"><ele>557.0</ele><time>2026-04-20T09:46:42Z</time></trkpt><trkpt lat="43.93569250648986" lon="12.120021231352522"><ele>557.0</ele><time>2026-04-20T09:46:43Z</time></trkpt><trkpt lat="43.935760164608965" lon="12.120079181717667"><ele>557.0</ele><time>2026-04-20T09:46:44Z</time></trkpt><trkpt lat="43.93590776507126" lon="12.120056686755188"><ele>557.0</ele><time>2026-04-20T09:46:46Z</time></trkpt><trkpt lat="43.935993131489745" lon="12.119952399448948"><ele>557.0</ele><time>2026-04-20T09:46:47Z</time></trkpt><trkpt lat="43.93612442347499" lon="12.119888862958536"><ele>556.5</ele><time>2026-04-20T09:46:48Z</time></trkpt><trkpt lat="43.93625350959521" lon="12.119793778301894"><ele>556.0</ele><time>2026-04-20T09:46:49Z</time></trkpt><trkpt lat="43.936377978913114" lon="12.119692757016365"><ele>555.5</ele><time>2026-04-20T09:46:50Z</time></trkpt><trkpt lat="43.936498209722075" lon="12.119565477254003"><ele>555.0</ele><time>2026-04-20T09:46:51Z</time></trkpt><trkpt lat="43.93659286365457" lon="12.119448899036836"><ele>555.0</ele><time>2026-04-20T09:46:52Z</time></trkpt><trkpt lat="43.93667612873088" lon="12.119311258735147"><ele>555.0</ele><time>2026-04-20T09:46:53Z</time></trkpt><trkpt lat="43.93673934781195" lon="12.119133522803134"><ele>555.0</ele><time>2026-04-20T09:46:54Z</time></trkpt><trkpt lat="43.936825422090344" lon="12.11895367010133"><ele>555.0</ele><time>2026-04-20T09:46:55Z</time></trkpt><trkpt lat="43.93688312542764" lon="12.118785034251616"><ele>555.0</ele><time>2026-04-20T09:46:56Z</time></trkpt><trkpt lat="43.93690453655852" lon="12.118640777492164"><ele>555.0</ele><time>2026-04-20T09:46:57Z</time></trkpt><trkpt lat="43.93693645365652" lon="12.118526527784814"><ele>555.0</ele><time>2026-04-20T09:46:58Z</time></trkpt><trkpt lat="43.936974590034616" lon="12.118441742105071"><ele>555.0</ele><time>2026-04-20T09:46:59Z</time></trkpt><trkpt lat="43.9370258616484" lon="12.118383827529415"><ele>555.0</ele><time>2026-04-20T09:47:00Z</time></trkpt><trkpt lat="43.93710624939692" lon="12.118380852118527"><ele>555.0</ele><time>2026-04-20T09:47:01Z</time></trkpt><trkpt lat="43.937199956337594" lon="12.11842492463607"><ele>555.0</ele><time>2026-04-20T09:47:02Z</time></trkpt><trkpt lat="43.93730495555022" lon="12.118421643385634"><ele>555.0</ele><time>2026-04-20T09:47:03Z</time></trkpt><trkpt lat="43.93740500562722" lon="12.11839082725854"><ele>555.0</ele><time>2026-04-20T09:47:04Z</time></trkpt><trkpt lat="43.93749473253558" lon="12.118289472696755"><ele>555.0</ele><time>2026-04-20T09:47:05Z</time></trkpt><trkpt lat="43.93757319167203" lon="12.118181250546707"><ele>555.0</ele><time>2026-04-20T09:47:06Z</time></trkpt><trkpt lat="43.93763033909452" lon="12.118049842649706"><ele>554.0</ele><time>2026-04-20T09:47:07Z</time></trkpt><trkpt lat="43.93767076943732" lon="12.117916890697577"><ele>553.0</ele><time>2026-04-20T09:47:08Z</time></trkpt><trkpt lat="43.93768767180207" lon="12.117800320569465"><ele>552.0</ele><time>2026-04-20T09:47:09Z</time></trkpt><trkpt lat="43.93769493223462" lon="12.1176731753213"><ele>551.0</ele><time>2026-04-20T09:47:10Z</time></trkpt><trkpt lat="43.93771429850238" lon="12.1175543510206"><ele>550.0</ele><time>2026-04-20T09:47:11Z</time></trkpt><trkpt lat="43.9377388016318" lon="12.117438760418878"><ele>547.2</ele><time>2026-04-20T09:47:12Z</time></trkpt><trkpt lat="43.93778751051723" lon="12.117351572703322"><ele>544.4</ele><time>2026-04-20T09:47:13Z</time></trkpt><trkpt lat="43.937870545977326" lon="12.117323039231582"><ele>541.6</ele><time>2026-04-20T09:47:14Z</time></trkpt><trkpt lat="43.937958794327805" lon="12.117333327842712"><ele>538.8</ele><time>2026-04-20T09:47:15Z</time></trkpt><trkpt lat="43.938064282633455" lon="12.117307800364578"><ele>536.0</ele><time>2026-04-20T09:47:16Z</time></trkpt><trkpt lat="43.93816120236786" lon="12.117255571704641"><ele>536.0</ele><time>2026-04-20T09:47:17Z</time></trkpt><trkpt lat="43.93824757747002" lon="12.117184655681507"><ele>536.0</ele><time>2026-04-20T09:47:18Z</time></trkpt><trkpt lat="43.93831524306713" lon="12.117097791673496"><ele>536.0</ele><time>2026-04-20T09:47:19Z</time></trkpt><trkpt lat="43.9383647397623" lon="12.116986269089255"><ele>536.0</ele><time>2026-04-20T09:47:20Z</time></trkpt><trkpt lat="43.938403930640504" lon="12.116851124728713"><ele>536.0</ele><time>2026-04-20T09:47:21Z</time></trkpt><trkpt lat="43.93844839228359" lon="12.116709517398991"><ele>534.25</ele><time>2026-04-20T09:47:22Z</time></trkpt><trkpt lat="43.9384691859843" lon="12.11654499881107"><ele>532.5</ele><time>2026-04-20T09:47:23Z</time></trkpt><trkpt lat="43.93849753541877" lon="12.116373030561494"><ele>530.75</ele><time>2026-04-20T09:47:24Z</time></trkpt><trkpt lat="43.93850435663922" lon="12.116181093348976"><ele>529.0</ele><time>2026-04-20T09:47:25Z</time></trkpt><trkpt lat="43.938514306417495" lon="12.115980769706852"><ele>529.0</ele><time>2026-04-20T09:47:26Z</time></trkpt><trkpt lat="43.93853070106693" lon="12.115787938393147"><ele>529.0</ele><time>2026-04-20T09:47:27Z</time></trkpt><trkpt lat="43.93855682529084" lon="12.115604809100493"><ele>529.0</ele><time>2026-04-20T09:47:28Z</time></trkpt><trkpt lat="43.93857968926733" lon="12.115415375423318"><ele>529.0</ele><time>2026-04-20T09:47:29Z</time></trkpt><trkpt lat="43.9386188304265" lon="12.115228323347042"><ele>530.75</ele><time>2026-04-20T09:47:30Z</time></trkpt><trkpt lat="43.938672406421965" lon="12.115049665540381"><ele>532.5</ele><time>2026-04-20T09:47:31Z</time></trkpt><trkpt lat="43.9386979334534" lon="12.114877527429663"><ele>534.25</ele><time>2026-04-20T09:47:32Z</time></trkpt><trkpt lat="43.93871845548668" lon="12.114703380579396"><ele>536.0</ele><time>2026-04-20T09:47:33Z</time></trkpt><trkpt lat="43.938729225740765" lon="12.114532355737131"><ele>538.5</ele><time>2026-04-20T09:47:34Z</time></trkpt><trkpt lat="43.938720985941714" lon="12.11435084853386"><ele>541.0</ele><time>2026-04-20T09:47:35Z</time></trkpt><trkpt lat="43.938726935326265" lon="12.114171634319199"><ele>543.5</ele><time>2026-04-20T09:47:36Z</time></trkpt><trkpt lat="43.93874002601146" lon="12.113997669062783"><ele>546.0</ele><time>2026-04-20T09:47:37Z</time></trkpt><trkpt lat="43.93875565950456" lon="12.113847748665206"><ele>546.0</ele><time>2026-04-20T09:47:38Z</time></trkpt><trkpt lat="43.93880368902784" lon="12.113721507319786"><ele>546.0</ele><time>2026-04-20T09:47:39Z</time></trkpt><trkpt lat="43.93886008774758" lon="12.113614863725957"><ele>546.0</ele><time>2026-04-20T09:47:40Z</time></trkpt><trkpt lat="43.93894036784804" lon="12.113517110202684"><ele>546.0</ele><time>2026-04-20T09:47:41Z</time></trkpt><trkpt lat="43.93904079434892" lon="12.113443998915269"><ele>546.0</ele><time>2026-04-20T09:47:42Z</time></trkpt><trkpt lat="43.9391688569392" lon="12.113363363825314"><ele>547.25</ele><time>2026-04-20T09:47:43Z</time></trkpt><trkpt lat="43.939303896103084" lon="12.113266672509354"><ele>548.5</ele><time>2026-04-20T09:47:44Z</time></trkpt><trkpt lat="43.93940277761535" lon="12.113165060388427"><ele>549.75</ele><time>2026-04-20T09:47:45Z</time></trkpt><trkpt lat="43.9394652827733" lon="12.113010223020966"><ele>551.0</ele><time>2026-04-20T09:47:46Z</time></trkpt><trkpt lat="43.93953086674079" lon="12.11285268209652"><ele>545.6666666666666</ele><time>2026-04-20T09:47:47Z</time></trkpt><trkpt lat="43.939585412731276" lon="12.11266673911329"><ele>540.3333333333334</ele><time>2026-04-20T09:47:48Z</time></trkpt><trkpt lat="43.93963409937643" lon="12.1124567784388"><ele>535.0</ele><time>2026-04-20T09:47:49Z</time></trkpt><trkpt lat="43.93968991687772" lon="12.112231772891498"><ele>535.0</ele><time>2026-04-20T09:47:50Z</time></trkpt><trkpt lat="43.93975924078003" lon="12.112022402379262"><ele>535.0</ele><time>2026-04-20T09:47:51Z</time></trkpt><trkpt lat="43.939819501786246" lon="12.111808384521058"><ele>535.0</ele><time>2026-04-20T09:47:52Z</time></trkpt><trkpt lat="43.939882618545674" lon="12.111591945306674"><ele>535.3333333333334</ele><time>2026-04-20T09:47:53Z</time></trkpt><trkpt lat="43.93994190086187" lon="12.111382392998134"><ele>535.6666666666666</ele><time>2026-04-20T09:47:54Z</time></trkpt><trkpt lat="43.93999313532055" lon="12.111180427646145"><ele>536.0</ele><time>2026-04-20T09:47:55Z</time></trkpt><trkpt lat="43.94003810974068" lon="12.110992860642108"><ele>535.2</ele><time>2026-04-20T09:47:56Z</time></trkpt><trkpt lat="43.94005483569067" lon="12.110808513426301"><ele>534.4000000000001</ele><time>2026-04-20T09:47:57Z</time></trkpt><trkpt lat="43.9400507052751" lon="12.110640474144573"><ele>533.6</ele><time>2026-04-20T09:47:58Z</time></trkpt><trkpt lat="43.94004494419648" lon="12.110497564676903"><ele>532.8000000000001</ele><time>2026-04-20T09:47:59Z</time></trkpt><trkpt lat="43.94006365427491" lon="12.110382886401888"><ele>532.0</ele><time>2026-04-20T09:48:00Z</time></trkpt><trkpt lat="43.9401233352077" lon="12.110291772345887"><ele>534.6</ele><time>2026-04-20T09:48:01Z</time></trkpt><trkpt lat="43.94019988283344" lon="12.11019870785258"><ele>537.2</ele><time>2026-04-20T09:48:02Z</time></trkpt><trkpt lat="43.94028357530674" lon="12.110096405516757"><ele>539.8</ele><time>2026-04-20T09:48:03Z</time></trkpt><trkpt lat="43.94035817944879" lon="12.109977246116959"><ele>542.4</ele><time>2026-04-20T09:48:04Z</time></trkpt><trkpt lat="43.94041255209303" lon="12.10984722563017"><ele>545.0</ele><time>2026-04-20T09:48:05Z</time></trkpt><trkpt lat="43.94044927902372" lon="12.109690927829543"><ele>546.6</ele><time>2026-04-20T09:48:06Z</time></trkpt><trkpt lat="43.94046207496811" lon="12.109528532683544"><ele>548.2</ele><time>2026-04-20T09:48:07Z</time></trkpt><trkpt lat="43.9404418718224" lon="12.109399222058373"><ele>549.8</ele><time>2026-04-20T09:48:08Z</time></trkpt><trkpt lat="43.94040275337659" lon="12.109263603483141"><ele>551.4</ele><time>2026-04-20T09:48:09Z</time></trkpt><trkpt lat="43.94036244545467" lon="12.1091144856397"><ele>553.0</ele><time>2026-04-20T09:48:10Z</time></trkpt><trkpt lat="43.94037542065381" lon="12.108966763806052"><ele>553.0</ele><time>2026-04-20T09:48:11Z</time></trkpt><trkpt lat="43.94037140363142" lon="12.108811573975148"><ele>553.0</ele><time>2026-04-20T09:48:12Z</time></trkpt><trkpt lat="43.9404306802093" lon="12.108663843908012"><ele>553.0</ele><time>2026-04-20T09:48:13Z</time></trkpt><trkpt lat="43.94046313141537" lon="12.1085077868039"><ele>553.0</ele><time>2026-04-20T09:48:14Z</time></trkpt><trkpt lat="43.94049520346715" lon="12.108392240945667"><ele>553.0</ele><time>2026-04-20T09:48:15Z</time></trkpt><trkpt lat="43.94049367995269" lon="12.108283241998786"><ele>555.0</ele><time>2026-04-20T09:48:16Z</time></trkpt><trkpt lat="43.94045266574549" lon="12.10817826951765"><ele>557.0</ele><time>2026-04-20T09:48:17Z</time></trkpt><trkpt lat="43.940393039403894" lon="12.108051920949316"><ele>559.0</ele><time>2026-04-20T09:48:18Z</time></trkpt><trkpt lat="43.94031984096594" lon="12.107928414085269"><ele>561.0</ele><time>2026-04-20T09:48:19Z</time></trkpt><trkpt lat="43.94025133093505" lon="12.107795562150821"><ele>563.0</ele><time>2026-04-20T09:48:20Z</time></trkpt><trkpt lat="43.940236714745446" lon="12.107673289360902"><ele>563.0</ele><time>2026-04-20T09:48:21Z</time></trkpt><trkpt lat="43.94021529193358" lon="12.107568750258004"><ele>563.0</ele><time>2026-04-20T09:48:22Z</time></trkpt><trkpt lat="43.94021725993165" lon="12.107434629148115"><ele>563.0</ele><time>2026-04-20T09:48:23Z</time></trkpt><trkpt lat="43.940214024667064" lon="12.107274427449127"><ele>563.0</ele><time>2026-04-20T09:48:24Z</time></trkpt><trkpt lat="43.940162641593595" lon="12.107123291045125"><ele>563.0</ele><time>2026-04-20T09:48:25Z</time></trkpt><trkpt lat="43.94015131295683" lon="12.10696499261927"><ele>562.8</ele><time>2026-04-20T09:48:26Z</time></trkpt><trkpt lat="43.94017294854349" lon="12.106777116219343"><ele>562.5999999999999</ele><time>2026-04-20T09:48:27Z</time></trkpt><trkpt lat="43.94016182240584" lon="12.106621192701848"><ele>562.4000000000001</ele><time>2026-04-20T09:48:28Z</time></trkpt><trkpt lat="43.94010089813673" lon="12.106522916954724"><ele>562.2</ele><time>2026-04-20T09:48:29Z</time></trkpt><trkpt lat="43.9400521380432" lon="12.106445842866963"><ele>562.0</ele><time>2026-04-20T09:48:30Z</time></trkpt><trkpt lat="43.94002414675972" lon="12.106345532613986"><ele>562.8000000000001</ele><time>2026-04-20T09:48:31Z</time></trkpt><trkpt lat="43.940065360458235" lon="12.106255908838687"><ele>563.6</ele><time>2026-04-20T09:48:32Z</time></trkpt><trkpt lat="43.940095898255876" lon="12.10614542481995"><ele>564.4000000000001</ele><time>2026-04-20T09:48:33Z</time></trkpt><trkpt lat="43.94013257765824" lon="12.106003370669574"><ele>565.2</ele><time>2026-04-20T09:48:34Z</time></trkpt><trkpt lat="43.94019274513382" lon="12.105853731163362"><ele>566.0</ele><time>2026-04-20T09:48:35Z</time></trkpt><trkpt lat="43.94027384077638" lon="12.105722634438397"><ele>566.0</ele><time>2026-04-20T09:48:36Z</time></trkpt><trkpt lat="43.940343641808454" lon="12.105598166512735"><ele>566.0</ele><time>2026-04-20T09:48:37Z</time></trkpt><trkpt lat="43.94038581514504" lon="12.105468898137552"><ele>566.0</ele><time>2026-04-20T09:48:38Z</time></trkpt><trkpt lat="43.94040655792388" lon="12.105325111707465"><ele>566.0</ele><time>2026-04-20T09:48:39Z</time></trkpt><trkpt lat="43.940413807093215" lon="12.10518271429615"><ele>566.0</ele><time>2026-04-20T09:48:40Z</time></trkpt><trkpt lat="43.94042595827825" lon="12.105034459010437"><ele>567.75</ele><time>2026-04-20T09:48:41Z</time></trkpt><trkpt lat="43.94041339900944" lon="12.104862566109947"><ele>569.5</ele><time>2026-04-20T09:48:42Z</time></trkpt><trkpt lat="43.94039456028726" lon="12.10468803015952"><ele>571.25</ele><time>2026-04-20T09:48:43Z</time></trkpt><trkpt lat="43.94037218973293" lon="12.104500106108183"><ele>573.0</ele><time>2026-04-20T09:48:44Z</time></trkpt><trkpt lat="43.94035363336113" lon="12.10431952106479"><ele>573.0</ele><time>2026-04-20T09:48:45Z</time></trkpt><trkpt lat="43.94030781473197" lon="12.104151622709631"><ele>573.0</ele><time>2026-04-20T09:48:46Z</time></trkpt><trkpt lat="43.94024283056477" lon="12.10400211056146"><ele>573.0</ele><time>2026-04-20T09:48:47Z</time></trkpt><trkpt lat="43.940202309811426" lon="12.103828478469037"><ele>573.0</ele><time>2026-04-20T09:48:48Z</time></trkpt><trkpt lat="43.94016928486947" lon="12.103706899919427"><ele>575.1999999999999</ele><time>2026-04-20T09:48:49Z</time></trkpt><trkpt lat="43.94013131030058" lon="12.103610351982727"><ele>577.4</ele><time>2026-04-20T09:48:50Z</time></trkpt><trkpt lat="43.94004619031347" lon="12.10355750135062"><ele>579.5999999999999</ele><time>2026-04-20T09:48:51Z</time></trkpt><trkpt lat="43.93994286845674" lon="12.10349644509195"><ele>581.8</ele><time>2026-04-20T09:48:52Z</time></trkpt><trkpt lat="43.93985773333487" lon="12.103421951631802"><ele>584.0</ele><time>2026-04-20T09:48:53Z</time></trkpt><trkpt lat="43.93981001100284" lon="12.103282370664523"><ele>586.0</ele><time>2026-04-20T09:48:55Z</time></trkpt><trkpt lat="43.93986032924543" lon="12.103188182183235"><ele>588.0</ele><time>2026-04-20T09:48:56Z</time></trkpt><trkpt lat="43.939891262893894" lon="12.10310116221857"><ele>590.0</ele><time>2026-04-20T09:48:57Z</time></trkpt><trkpt lat="43.939923621783855" lon="12.102984954727177"><ele>592.0</ele><time>2026-04-20T09:48:58Z</time></trkpt><trkpt lat="43.9399487155053" lon="12.102878147260512"><ele>594.0</ele><time>2026-04-20T09:48:59Z</time></trkpt><trkpt lat="43.93996042834874" lon="12.102737125083227"><ele>596.0</ele><time>2026-04-20T09:49:00Z</time></trkpt><trkpt lat="43.939975280299805" lon="12.102602350984878"><ele>596.0</ele><time>2026-04-20T09:49:01Z</time></trkpt><trkpt lat="43.93998020080027" lon="12.102478252713704"><ele>596.0</ele><time>2026-04-20T09:49:02Z</time></trkpt><trkpt lat="43.94000402831732" lon="12.102388374865377"><ele>596.0</ele><time>2026-04-20T09:49:03Z</time></trkpt><trkpt lat="43.940026322342156" lon="12.102278688475774"><ele>596.0</ele><time>2026-04-20T09:49:04Z</time></trkpt><trkpt lat="43.94004183165946" lon="12.102157826834388"><ele>596.0</ele><time>2026-04-20T09:49:05Z</time></trkpt><trkpt lat="43.94004479687006" lon="12.102048168550288"><ele>596.0</ele><time>2026-04-20T09:49:06Z</time></trkpt><trkpt lat="43.94000490362608" lon="12.101903750047033"><ele>596.2</ele><time>2026-04-20T09:49:07Z</time></trkpt><trkpt lat="43.93998080215382" lon="12.10175526855934"><ele>596.4000000000001</ele><time>2026-04-20T09:49:08Z</time></trkpt><trkpt lat="43.93998074842584" lon="12.10162013870268"><ele>596.6</ele><time>2026-04-20T09:49:09Z</time></trkpt><trkpt lat="43.939998352842935" lon="12.10152523506823"><ele>596.8000000000001</ele><time>2026-04-20T09:49:10Z</time></trkpt><trkpt lat="43.940085910329024" lon="12.10138581953711"><ele>597.0</ele><time>2026-04-20T09:49:12Z</time></trkpt><trkpt lat="43.940121730842534" lon="12.101277440175744"><ele>598.0</ele><time>2026-04-20T09:49:13Z</time></trkpt><trkpt lat="43.94014560065626" lon="12.101167051247165"><ele>599.0</ele><time>2026-04-20T09:49:14Z</time></trkpt><trkpt lat="43.940126141929625" lon="12.101043195721497"><ele>600.0</ele><time>2026-04-20T09:49:15Z</time></trkpt><trkpt lat="43.94010179224141" lon="12.100944142324279"><ele>601.0</ele><time>2026-04-20T09:49:16Z</time></trkpt><trkpt lat="43.94005528419975" lon="12.10085209633584"><ele>602.0</ele><time>2026-04-20T09:49:17Z</time></trkpt><trkpt lat="43.93999768921565" lon="12.100763094422728"><ele>603.0</ele><time>2026-04-20T09:49:18Z</time></trkpt><trkpt lat="43.93994777660641" lon="12.10067331846158"><ele>604.6</ele><time>2026-04-20T09:49:19Z</time></trkpt><trkpt lat="43.93993630993526" lon="12.100565951538673"><ele>606.1999999999999</ele><time>2026-04-20T09:49:20Z</time></trkpt><trkpt lat="43.93993295071327" lon="12.100438367920136"><ele>607.8</ele><time>2026-04-20T09:49:21Z</time></trkpt><trkpt lat="43.939911622079784" lon="12.10030286939565"><ele>609.4</ele><time>2026-04-20T09:49:22Z</time></trkpt><trkpt lat="43.939872842979206" lon="12.100154994322086"><ele>611.0</ele><time>2026-04-20T09:49:23Z</time></trkpt><trkpt lat="43.9398323768008" lon="12.100005667097914"><ele>614.4</ele><time>2026-04-20T09:49:24Z</time></trkpt><trkpt lat="43.93978231392571" lon="12.09987483356707"><ele>617.8</ele><time>2026-04-20T09:49:25Z</time></trkpt><trkpt lat="43.93972792323252" lon="12.099775914566266"><ele>621.1999999999999</ele><time>2026-04-20T09:49:26Z</time></trkpt><trkpt lat="43.93966298822509" lon="12.099671471593481"><ele>624.6</ele><time>2026-04-20T09:49:27Z</time></trkpt><trkpt lat="43.93962775113971" lon="12.099572531361058"><ele>628.0</ele><time>2026-04-20T09:49:28Z</time></trkpt><trkpt lat="43.9395823042582" lon="12.099482552540602"><ele>628.0</ele><time>2026-04-20T09:49:29Z</time></trkpt><trkpt lat="43.93954693530736" lon="12.099358901736263"><ele>628.0</ele><time>2026-04-20T09:49:30Z</time></trkpt><trkpt lat="43.939509505763304" lon="12.099208345148343"><ele>628.0</ele><time>2026-04-20T09:49:31Z</time></trkpt><trkpt lat="43.93946008046353" lon="12.099080024539468"><ele>628.0</ele><time>2026-04-20T09:49:32Z</time></trkpt><trkpt lat="43.939423186937596" lon="12.098966868144943"><ele>628.0</ele><time>2026-04-20T09:49:33Z</time></trkpt><trkpt lat="43.939352003838124" lon="12.09873911882356"><ele>629.6</ele><time>2026-04-20T09:49:35Z</time></trkpt><trkpt lat="43.93926989695722" lon="12.098651874116202"><ele>631.1999999999999</ele><time>2026-04-20T09:49:36Z</time></trkpt><trkpt lat="43.93917510914504" lon="12.098588929578105"><ele>632.8</ele><time>2026-04-20T09:49:37Z</time></trkpt><trkpt lat="43.93907255086862" lon="12.098503715124115"><ele>634.4</ele><time>2026-04-20T09:49:38Z</time></trkpt><trkpt lat="43.938973702569186" lon="12.098423301855112"><ele>636.0</ele><time>2026-04-20T09:49:39Z</time></trkpt><trkpt lat="43.93887470471009" lon="12.09834382269159"><ele>631.2</ele><time>2026-04-20T09:49:40Z</time></trkpt><trkpt lat="43.93878120346812" lon="12.098281795345859"><ele>626.4000000000001</ele><time>2026-04-20T09:49:41Z</time></trkpt><trkpt lat="43.9386977422681" lon="12.098196644290336"><ele>621.6</ele><time>2026-04-20T09:49:42Z</time></trkpt><trkpt lat="43.93861066935348" lon="12.09816108661646"><ele>616.8000000000001</ele><time>2026-04-20T09:49:43Z</time></trkpt><trkpt lat="43.93852904938816" lon="12.098191486152823"><ele>612.0</ele><time>2026-04-20T09:49:44Z</time></trkpt><trkpt lat="43.938448431621715" lon="12.098237470656246"><ele>612.5</ele><time>2026-04-20T09:49:45Z</time></trkpt><trkpt lat="43.93835794566423" lon="12.098280856067767"><ele>613.0</ele><time>2026-04-20T09:49:46Z</time></trkpt><trkpt lat="43.93828648608734" lon="12.098299157541629"><ele>613.5</ele><time>2026-04-20T09:49:47Z</time></trkpt><trkpt lat="43.93820908005143" lon="12.098196397111327"><ele>614.0</ele><time>2026-04-20T09:49:49Z</time></trkpt><trkpt lat="43.938191186165014" lon="12.098087559783968"><ele>614.5</ele><time>2026-04-20T09:49:50Z</time></trkpt><trkpt lat="43.93812653940251" lon="12.098020427588425"><ele>615.0</ele><time>2026-04-20T09:49:51Z</time></trkpt><trkpt lat="43.93805725147279" lon="12.097950134149137"><ele>613.6</ele><time>2026-04-20T09:49:52Z</time></trkpt><trkpt lat="43.93796780569073" lon="12.097896140756271"><ele>612.2</ele><time>2026-04-20T09:49:53Z</time></trkpt><trkpt lat="43.93785768844004" lon="12.097854791726887"><ele>610.8</ele><time>2026-04-20T09:49:54Z</time></trkpt><trkpt lat="43.93776257697632" lon="12.097805231005006"><ele>609.4</ele><time>2026-04-20T09:49:55Z</time></trkpt><trkpt lat="43.937682094800635" lon="12.097715533638885"><ele>608.0</ele><time>2026-04-20T09:49:56Z</time></trkpt><trkpt lat="43.93759958572059" lon="12.097650547604474"><ele>612.4</ele><time>2026-04-20T09:49:57Z</time></trkpt><trkpt lat="43.93753780338196" lon="12.097551487167042"><ele>616.8</ele><time>2026-04-20T09:49:58Z</time></trkpt><trkpt lat="43.937456855790565" lon="12.097441693137595"><ele>621.2</ele><time>2026-04-20T09:49:59Z</time></trkpt><trkpt lat="43.9373659756798" lon="12.097354875059779"><ele>625.6</ele><time>2026-04-20T09:50:00Z</time></trkpt><trkpt lat="43.937255495792556" lon="12.097313868334869"><ele>630.0</ele><time>2026-04-20T09:50:01Z</time></trkpt><trkpt lat="43.937152020732086" lon="12.097286254376618"><ele>630.6</ele><time>2026-04-20T09:50:02Z</time></trkpt><trkpt lat="43.937045112174566" lon="12.097273505203962"><ele>631.2</ele><time>2026-04-20T09:50:03Z</time></trkpt><trkpt lat="43.93694219092775" lon="12.097253528175564"><ele>631.8</ele><time>2026-04-20T09:50:04Z</time></trkpt><trkpt lat="43.93684461275846" lon="12.097222725825663"><ele>632.4</ele><time>2026-04-20T09:50:05Z</time></trkpt><trkpt lat="43.93675179377043" lon="12.09720055980188"><ele>633.0</ele><time>2026-04-20T09:50:06Z</time></trkpt><trkpt lat="43.93665409567774" lon="12.097167115692535"><ele>638.2</ele><time>2026-04-20T09:50:07Z</time></trkpt><trkpt lat="43.93655385793032" lon="12.097157966010048"><ele>643.4</ele><time>2026-04-20T09:50:08Z</time></trkpt><trkpt lat="43.93646480962016" lon="12.097163639349219"><ele>648.6</ele><time>2026-04-20T09:50:09Z</time></trkpt><trkpt lat="43.93638273058326" lon="12.097205948682877"><ele>653.8000000000001</ele><time>2026-04-20T09:50:10Z</time></trkpt><trkpt lat="43.9363092690538" lon="12.097253139905288"><ele>659.0</ele><time>2026-04-20T09:50:11Z</time></trkpt><trkpt lat="43.93619050729246" lon="12.09731540345842"><ele>659.0</ele><time>2026-04-20T09:50:13Z</time></trkpt><trkpt lat="43.93613181430012" lon="12.097266451960206"><ele>659.0</ele><time>2026-04-20T09:50:14Z</time></trkpt><trkpt lat="43.93608098313049" lon="12.097212072613614"><ele>659.0</ele><time>2026-04-20T09:50:15Z</time></trkpt><trkpt lat="43.935997097089235" lon="12.097049154526237"><ele>659.0</ele><time>2026-04-20T09:50:17Z</time></trkpt><trkpt lat="43.93595770338877" lon="12.096947032545835"><ele>659.0</ele><time>2026-04-20T09:50:18Z</time></trkpt><trkpt lat="43.93592545874301" lon="12.096843973022192"><ele>659.0</ele><time>2026-04-20T09:50:19Z</time></trkpt><trkpt lat="43.9358837023646" lon="12.096713382247751"><ele>655.2</ele><time>2026-04-20T09:50:20Z</time></trkpt><trkpt lat="43.935842424752884" lon="12.096576800320863"><ele>651.4000000000001</ele><time>2026-04-20T09:50:21Z</time></trkpt><trkpt lat="43.935779465098" lon="12.09644548580316"><ele>647.6</ele><time>2026-04-20T09:50:22Z</time></trkpt><trkpt lat="43.93574166474746" lon="12.096340711430662"><ele>643.8</ele><time>2026-04-20T09:50:23Z</time></trkpt><trkpt lat="43.93566024797633" lon="12.096269414648935"><ele>640.0</ele><time>2026-04-20T09:50:24Z</time></trkpt><trkpt lat="43.93554428698997" lon="12.096194858493732"><ele>640.0</ele><time>2026-04-20T09:50:25Z</time></trkpt><trkpt lat="43.935430522202296" lon="12.09608634350628"><ele>640.0</ele><time>2026-04-20T09:50:26Z</time></trkpt><trkpt lat="43.93532419779792" lon="12.095961384455325"><ele>640.0</ele><time>2026-04-20T09:50:27Z</time></trkpt><trkpt lat="43.93520397060228" lon="12.095858195245931"><ele>640.0</ele><time>2026-04-20T09:50:28Z</time></trkpt><trkpt lat="43.93508187551032" lon="12.095828318876608"><ele>637.4</ele><time>2026-04-20T09:50:29Z</time></trkpt><trkpt lat="43.93495862154545" lon="12.095802834894995"><ele>634.8</ele><time>2026-04-20T09:50:30Z</time></trkpt><trkpt lat="43.934854191214946" lon="12.095761977063969"><ele>632.2</ele><time>2026-04-20T09:50:31Z</time></trkpt><trkpt lat="43.93474184337257" lon="12.09572636090906"><ele>629.6</ele><time>2026-04-20T09:50:32Z</time></trkpt><trkpt lat="43.93464396332142" lon="12.095711220113918"><ele>627.0</ele><time>2026-04-20T09:50:33Z</time></trkpt><trkpt lat="43.934556430203905" lon="12.095672019141638"><ele>625.0</ele><time>2026-04-20T09:50:34Z</time></trkpt><trkpt lat="43.93449075019639" lon="12.095600990121852"><ele>623.0</ele><time>2026-04-20T09:50:35Z</time></trkpt><trkpt lat="43.934449177207796" lon="12.095457872135002"><ele>621.0</ele><time>2026-04-20T09:50:36Z</time></trkpt><trkpt lat="43.93436251993989" lon="12.09539419481792"><ele>619.0</ele><time>2026-04-20T09:50:37Z</time></trkpt><trkpt lat="43.93429155511347" lon="12.095305456519984"><ele>617.0</ele><time>2026-04-20T09:50:38Z</time></trkpt><trkpt lat="43.93421414981512" lon="12.095197163655145"><ele>619.25</ele><time>2026-04-20T09:50:39Z</time></trkpt><trkpt lat="43.93411808884382" lon="12.095091139812256"><ele>621.5</ele><time>2026-04-20T09:50:40Z</time></trkpt><trkpt lat="43.93400718278808" lon="12.095012851362279"><ele>623.75</ele><time>2026-04-20T09:50:41Z</time></trkpt><trkpt lat="43.93389687228352" lon="12.09494437120264"><ele>626.0</ele><time>2026-04-20T09:50:42Z</time></trkpt><trkpt lat="43.93377925558291" lon="12.09487416762326"><ele>626.0</ele><time>2026-04-20T09:50:43Z</time></trkpt><trkpt lat="43.9336665887832" lon="12.09480858867759"><ele>626.0</ele><time>2026-04-20T09:50:44Z</time></trkpt><trkpt lat="43.9335628959132" lon="12.094754207787588"><ele>626.0</ele><time>2026-04-20T09:50:45Z</time></trkpt><trkpt lat="43.93344534323962" lon="12.094733878443991"><ele>626.0</ele><time>2026-04-20T09:50:46Z</time></trkpt><trkpt lat="43.933308514292456" lon="12.09468275336018"><ele>630.0</ele><time>2026-04-20T09:50:47Z</time></trkpt><trkpt lat="43.93319406083873" lon="12.09459960327663"><ele>634.0</ele><time>2026-04-20T09:50:48Z</time></trkpt><trkpt lat="43.933076819947935" lon="12.094488618240298"><ele>638.0</ele><time>2026-04-20T09:50:49Z</time></trkpt><trkpt lat="43.93300166634242" lon="12.094347332920446"><ele>642.0</ele><time>2026-04-20T09:50:50Z</time></trkpt><trkpt lat="43.93291279947029" lon="12.094283774467181"><ele>642.0</ele><time>2026-04-20T09:50:51Z</time></trkpt><trkpt lat="43.93284587530004" lon="12.094251405628896"><ele>642.0</ele><time>2026-04-20T09:50:52Z</time></trkpt><trkpt lat="43.93277506018737" lon="12.094273899520346"><ele>642.0</ele><time>2026-04-20T09:50:53Z</time></trkpt><trkpt lat="43.93266676371773" lon="12.094297022378617"><ele>642.0</ele><time>2026-04-20T09:50:54Z</time></trkpt><trkpt lat="43.93256350109648" lon="12.09428960300191"><ele>642.0</ele><time>2026-04-20T09:50:55Z</time></trkpt><trkpt lat="43.93245246170982" lon="12.094236743575513"><ele>644.25</ele><time>2026-04-20T09:50:56Z</time></trkpt><trkpt lat="43.932353689536924" lon="12.094190422224136"><ele>646.5</ele><time>2026-04-20T09:50:57Z</time></trkpt><trkpt lat="43.932246723860246" lon="12.094150921935764"><ele>648.75</ele><time>2026-04-20T09:50:58Z</time></trkpt><trkpt lat="43.932125002910986" lon="12.094109867340984"><ele>651.0</ele><time>2026-04-20T09:50:59Z</time></trkpt><trkpt lat="43.93203353585981" lon="12.093986703262118"><ele>651.0</ele><time>2026-04-20T09:51:00Z</time></trkpt><trkpt lat="43.93192586189186" lon="12.09391420627599"><ele>651.0</ele><time>2026-04-20T09:51:01Z</time></trkpt><trkpt lat="43.93182642807323" lon="12.093893952847408"><ele>651.0</ele><time>2026-04-20T09:51:02Z</time></trkpt><trkpt lat="43.931699689476446" lon="12.09388536798905"><ele>651.0</ele><time>2026-04-20T09:51:03Z</time></trkpt><trkpt lat="43.93159195604463" lon="12.093847852673308"><ele>659.4</ele><time>2026-04-20T09:51:04Z</time></trkpt><trkpt lat="43.93149137021658" lon="12.093825472401479"><ele>667.8</ele><time>2026-04-20T09:51:05Z</time></trkpt><trkpt lat="43.931401141080705" lon="12.093820645855928"><ele>676.1999999999999</ele><time>2026-04-20T09:51:06Z</time></trkpt><trkpt lat="43.93132795322777" lon="12.093793576799829"><ele>684.5999999999999</ele><time>2026-04-20T09:51:07Z</time></trkpt><trkpt lat="43.93121248843458" lon="12.093907292634478"><ele>693.0</ele><time>2026-04-20T09:51:09Z</time></trkpt><trkpt lat="43.93110241015697" lon="12.09396141757298"><ele>693.0</ele><time>2026-04-20T09:51:10Z</time></trkpt><trkpt lat="43.931008761378266" lon="12.094008549363886"><ele>693.0</ele><time>2026-04-20T09:51:11Z</time></trkpt><trkpt lat="43.93091548823706" lon="12.09404404149557"><ele>693.0</ele><time>2026-04-20T09:51:12Z</time></trkpt><trkpt lat="43.93082664516341" lon="12.094058165089097"><ele>693.0</ele><time>2026-04-20T09:51:13Z</time></trkpt><trkpt lat="43.93074677348283" lon="12.094045536759555"><ele>693.0</ele><time>2026-04-20T09:51:14Z</time></trkpt><trkpt lat="43.9306556237784" lon="12.094000979656338"><ele>695.5999999999999</ele><time>2026-04-20T09:51:15Z</time></trkpt><trkpt lat="43.93053952014193" lon="12.093958310501337"><ele>698.1999999999999</ele><time>2026-04-20T09:51:16Z</time></trkpt><trkpt lat="43.93043506933955" lon="12.093951640907717"><ele>700.8</ele><time>2026-04-20T09:51:17Z</time></trkpt><trkpt lat="43.930363040035736" lon="12.09395876392037"><ele>703.4</ele><time>2026-04-20T09:51:18Z</time></trkpt><trkpt lat="43.93029737037773" lon="12.093890554039875"><ele>706.0</ele><time>2026-04-20T09:51:20Z</time></trkpt><trkpt lat="43.93037341155556" lon="12.093746828295265"><ele>706.0</ele><time>2026-04-20T09:51:22Z</time></trkpt><trkpt lat="43.930438499311485" lon="12.093714200999603"><ele>706.0</ele><time>2026-04-20T09:51:23Z</time></trkpt><trkpt lat="43.93052069989251" lon="12.093729977419386"><ele>706.0</ele><time>2026-04-20T09:51:24Z</time></trkpt><trkpt lat="43.930629604192454" lon="12.093717709552962"><ele>706.0</ele><time>2026-04-20T09:51:25Z</time></trkpt><trkpt lat="43.93073973885424" lon="12.09368417716436"><ele>706.0</ele><time>2026-04-20T09:51:26Z</time></trkpt><trkpt lat="43.93083274065077" lon="12.093590813005841"><ele>704.1999999999999</ele><time>2026-04-20T09:51:27Z</time></trkpt><trkpt lat="43.93089216102983" lon="12.093435952677181"><ele>702.4</ele><time>2026-04-20T09:51:28Z</time></trkpt><trkpt lat="43.93098624309849" lon="12.093330381772066"><ele>700.6</ele><time>2026-04-20T09:51:29Z</time></trkpt><trkpt lat="43.931065087400505" lon="12.093243725499372"><ele>698.8</ele><time>2026-04-20T09:51:30Z</time></trkpt><trkpt lat="43.9311249336141" lon="12.093140365982407"><ele>697.0</ele><time>2026-04-20T09:51:31Z</time></trkpt><trkpt lat="43.931142476227194" lon="12.093002971764582"><ele>697.0</ele><time>2026-04-20T09:51:32Z</time></trkpt><trkpt lat="43.931133607832464" lon="12.092900540317338"><ele>697.0</ele><time>2026-04-20T09:51:33Z</time></trkpt><trkpt lat="43.93109791137293" lon="12.09280978945928"><ele>697.0</ele><time>2026-04-20T09:51:34Z</time></trkpt><trkpt lat="43.93105458710943" lon="12.092710953501397"><ele>697.0</ele><time>2026-04-20T09:51:35Z</time></trkpt><trkpt lat="43.930956704948144" lon="12.092640708019756"><ele>697.0</ele><time>2026-04-20T09:51:36Z</time></trkpt><trkpt lat="43.930876020593146" lon="12.092578681613631"><ele>697.0</ele><time>2026-04-20T09:51:37Z</time></trkpt><trkpt lat="43.93081003978811" lon="12.092503266562264"><ele>701.6</ele><time>2026-04-20T09:51:38Z</time></trkpt><trkpt lat="43.9307778841307" lon="12.09237162063328"><ele>706.2</ele><time>2026-04-20T09:51:39Z</time></trkpt><trkpt lat="43.93070843310064" lon="12.092279976606532"><ele>710.8</ele><time>2026-04-20T09:51:40Z</time></trkpt><trkpt lat="43.930625611743935" lon="12.092192575103152"><ele>715.4</ele><time>2026-04-20T09:51:41Z</time></trkpt><trkpt lat="43.93051880990996" lon="12.09213507066955"><ele>720.0</ele><time>2026-04-20T09:51:42Z</time></trkpt><trkpt lat="43.93040186442834" lon="12.092091996763093"><ele>720.0</ele><time>2026-04-20T09:51:43Z</time></trkpt><trkpt lat="43.93030528107387" lon="12.092038069042706"><ele>720.0</ele><time>2026-04-20T09:51:44Z</time></trkpt><trkpt lat="43.93020237787682" lon="12.091955400955008"><ele>720.0</ele><time>2026-04-20T09:51:45Z</time></trkpt><trkpt lat="43.930098966582456" lon="12.091881137641408"><ele>720.0</ele><time>2026-04-20T09:51:46Z</time></trkpt><trkpt lat="43.92999829769754" lon="12.091773835775873"><ele>718.0</ele><time>2026-04-20T09:51:47Z</time></trkpt><trkpt lat="43.92993217066502" lon="12.091613777739362"><ele>716.0</ele><time>2026-04-20T09:51:48Z</time></trkpt><trkpt lat="43.92985744718417" lon="12.091488442459783"><ele>714.0</ele><time>2026-04-20T09:51:49Z</time></trkpt><trkpt lat="43.9297915811949" lon="12.091402502622547"><ele>712.0</ele><time>2026-04-20T09:51:50Z</time></trkpt><trkpt lat="43.92971862982775" lon="12.0913378063326"><ele>710.0</ele><time>2026-04-20T09:51:51Z</time></trkpt><trkpt lat="43.9296224016774" lon="12.091307547564355"><ele>711.4</ele><time>2026-04-20T09:51:52Z</time></trkpt><trkpt lat="43.92952512843982" lon="12.091290501856268"><ele>712.8</ele><time>2026-04-20T09:51:53Z</time></trkpt><trkpt lat="43.929416793534145" lon="12.091338550729363"><ele>714.2</ele><time>2026-04-20T09:51:54Z</time></trkpt><trkpt lat="43.929322783778964" lon="12.09137006770734"><ele>715.6</ele><time>2026-04-20T09:51:55Z</time></trkpt><trkpt lat="43.92926100336098" lon="12.091423804770534"><ele>717.0</ele><time>2026-04-20T09:51:56Z</time></trkpt><trkpt lat="43.929155480952154" lon="12.091383615881494"><ele>717.0</ele><time>2026-04-20T09:51:58Z</time></trkpt><trkpt lat="43.92910040908453" lon="12.09121045460424"><ele>717.0</ele><time>2026-04-20T09:52:00Z</time></trkpt><trkpt lat="43.9290875602296" lon="12.091073699468847"><ele>717.0</ele><time>2026-04-20T09:52:01Z</time></trkpt><trkpt lat="43.9290569325612" lon="12.090939760442593"><ele>717.0</ele><time>2026-04-20T09:52:02Z</time></trkpt><trkpt lat="43.929032194483916" lon="12.09078770269722"><ele>717.0</ele><time>2026-04-20T09:52:03Z</time></trkpt><trkpt lat="43.92901722249644" lon="12.09062466674483"><ele>719.0</ele><time>2026-04-20T09:52:04Z</time></trkpt><trkpt lat="43.929008953172286" lon="12.090443641028866"><ele>721.0</ele><time>2026-04-20T09:52:05Z</time></trkpt><trkpt lat="43.92899612271901" lon="12.09028408170246"><ele>723.0</ele><time>2026-04-20T09:52:06Z</time></trkpt><trkpt lat="43.9289752203554" lon="12.090157305885944"><ele>725.0</ele><time>2026-04-20T09:52:07Z</time></trkpt><trkpt lat="43.92891939014664" lon="12.09004649511531"><ele>727.0</ele><time>2026-04-20T09:52:08Z</time></trkpt><trkpt lat="43.92883374341193" lon="12.089962393707038"><ele>723.2</ele><time>2026-04-20T09:52:09Z</time></trkpt><trkpt lat="43.928731788455664" lon="12.089881550360857"><ele>719.4000000000001</ele><time>2026-04-20T09:52:10Z</time></trkpt><trkpt lat="43.92862877739299" lon="12.089823453029785"><ele>715.5999999999999</ele><time>2026-04-20T09:52:11Z</time></trkpt><trkpt lat="43.928548756142185" lon="12.08977702924452"><ele>711.8</ele><time>2026-04-20T09:52:12Z</time></trkpt><trkpt lat="43.928482226921155" lon="12.089719217963651"><ele>708.0</ele><time>2026-04-20T09:52:13Z</time></trkpt><trkpt lat="43.928442330595544" lon="12.089622640457344"><ele>708.0</ele><time>2026-04-20T09:52:14Z</time></trkpt><trkpt lat="43.92841326338294" lon="12.089495592657249"><ele>708.0</ele><time>2026-04-20T09:52:15Z</time></trkpt><trkpt lat="43.928380540192826" lon="12.089330517150334"><ele>708.0</ele><time>2026-04-20T09:52:16Z</time></trkpt><trkpt lat="43.928338315310214" lon="12.089177450186419"><ele>708.0</ele><time>2026-04-20T09:52:17Z</time></trkpt><trkpt lat="43.92828498273962" lon="12.089011202647148"><ele>708.25</ele><time>2026-04-20T09:52:18Z</time></trkpt><trkpt lat="43.928230990351764" lon="12.088859221872337"><ele>708.5</ele><time>2026-04-20T09:52:19Z</time></trkpt><trkpt lat="43.92817292628353" lon="12.088720067479107"><ele>708.75</ele><time>2026-04-20T09:52:20Z</time></trkpt><trkpt lat="43.92809826102864" lon="12.088602269755693"><ele>709.0</ele><time>2026-04-20T09:52:21Z</time></trkpt><trkpt lat="43.927993580361935" lon="12.088509639674871"><ele>709.0</ele><time>2026-04-20T09:52:22Z</time></trkpt><trkpt lat="43.9278892098836" lon="12.088395767260591"><ele>709.0</ele><time>2026-04-20T09:52:23Z</time></trkpt><trkpt lat="43.927780214606926" lon="12.088252639106116"><ele>709.0</ele><time>2026-04-20T09:52:24Z</time></trkpt><trkpt lat="43.92768829440112" lon="12.088104628425"><ele>709.0</ele><time>2026-04-20T09:52:25Z</time></trkpt><trkpt lat="43.9276023116836" lon="12.087950074632728"><ele>710.8000000000001</ele><time>2026-04-20T09:52:26Z</time></trkpt><trkpt lat="43.927533851291" lon="12.087818977013129"><ele>712.6</ele><time>2026-04-20T09:52:27Z</time></trkpt><trkpt lat="43.927486511997294" lon="12.087711667777302"><ele>714.4</ele><time>2026-04-20T09:52:28Z</time></trkpt><trkpt lat="43.9274478385389" lon="12.087617851537425"><ele>716.2</ele><time>2026-04-20T09:52:29Z</time></trkpt><trkpt lat="43.92742811504655" lon="12.087460525682339"><ele>718.0</ele><time>2026-04-20T09:52:30Z</time></trkpt><trkpt lat="43.92737722096056" lon="12.087274019810513"><ele>718.0</ele><time>2026-04-20T09:52:31Z</time></trkpt><trkpt lat="43.92735526642739" lon="12.087064611502445"><ele>718.0</ele><time>2026-04-20T09:52:32Z</time></trkpt><trkpt lat="43.927313305970706" lon="12.086858860801671"><ele>718.0</ele><time>2026-04-20T09:52:33Z</time></trkpt><trkpt lat="43.92726259136516" lon="12.086692301544659"><ele>718.0</ele><time>2026-04-20T09:52:34Z</time></trkpt><trkpt lat="43.92721758076448" lon="12.08656043769718"><ele>714.8</ele><time>2026-04-20T09:52:35Z</time></trkpt><trkpt lat="43.92717830062212" lon="12.086451607046829"><ele>711.5999999999999</ele><time>2026-04-20T09:52:36Z</time></trkpt><trkpt lat="43.927121720822306" lon="12.08635074948964"><ele>708.4000000000001</ele><time>2026-04-20T09:52:37Z</time></trkpt><trkpt lat="43.927048080397014" lon="12.086291207537942"><ele>705.2</ele><time>2026-04-20T09:52:38Z</time></trkpt><trkpt lat="43.926961203560175" lon="12.086282902535457"><ele>702.0</ele><time>2026-04-20T09:52:39Z</time></trkpt><trkpt lat="43.92686077659533" lon="12.086296410132741"><ele>702.0</ele><time>2026-04-20T09:52:40Z</time></trkpt><trkpt lat="43.92675320058402" lon="12.086281375368646"><ele>702.0</ele><time>2026-04-20T09:52:41Z</time></trkpt><trkpt lat="43.92668589181643" lon="12.08623036724608"><ele>702.0</ele><time>2026-04-20T09:52:42Z</time></trkpt><trkpt lat="43.926643117972155" lon="12.086148864104082"><ele>702.0</ele><time>2026-04-20T09:52:43Z</time></trkpt><trkpt lat="43.92660487212597" lon="12.086028584589636"><ele>702.0</ele><time>2026-04-20T09:52:44Z</time></trkpt><trkpt lat="43.92656875599421" lon="12.08586904794878"><ele>704.75</ele><time>2026-04-20T09:52:45Z</time></trkpt><trkpt lat="43.92652125939398" lon="12.085704016158346"><ele>707.5</ele><time>2026-04-20T09:52:46Z</time></trkpt><trkpt lat="43.92644091274975" lon="12.085541624178228"><ele>710.25</ele><time>2026-04-20T09:52:47Z</time></trkpt><trkpt lat="43.92634425645952" lon="12.08538235824193"><ele>713.0</ele><time>2026-04-20T09:52:48Z</time></trkpt><trkpt lat="43.92627101270523" lon="12.085265716561219"><ele>713.0</ele><time>2026-04-20T09:52:49Z</time></trkpt><trkpt lat="43.9262116505035" lon="12.08514561732818"><ele>713.0</ele><time>2026-04-20T09:52:50Z</time></trkpt><trkpt lat="43.92616613128488" lon="12.08503521749932"><ele>713.0</ele><time>2026-04-20T09:52:51Z</time></trkpt><trkpt lat="43.92611002592604" lon="12.084925200218715"><ele>713.0</ele><time>2026-04-20T09:52:52Z</time></trkpt><trkpt lat="43.92605680937236" lon="12.084811422711399"><ele>713.0</ele><time>2026-04-20T09:52:53Z</time></trkpt><trkpt lat="43.92601663547117" lon="12.084699724162572"><ele>712.2</ele><time>2026-04-20T09:52:54Z</time></trkpt><trkpt lat="43.92599764615998" lon="12.084599938633962"><ele>711.4</ele><time>2026-04-20T09:52:55Z</time></trkpt><trkpt lat="43.92600100918823" lon="12.084488154402534"><ele>710.6</ele><time>2026-04-20T09:52:56Z</time></trkpt><trkpt lat="43.92600637710184" lon="12.084363053802592"><ele>709.8000000000001</ele><time>2026-04-20T09:52:57Z</time></trkpt><trkpt lat="43.92602306466109" lon="12.084215242309657"><ele>709.0</ele><time>2026-04-20T09:52:58Z</time></trkpt><trkpt lat="43.9260261043111" lon="12.084056687313005"><ele>709.0</ele><time>2026-04-20T09:52:59Z</time></trkpt><trkpt lat="43.926016041034025" lon="12.083885228251097"><ele>709.0</ele><time>2026-04-20T09:53:00Z</time></trkpt><trkpt lat="43.9260009372291" lon="12.083736045639759"><ele>709.0</ele><time>2026-04-20T09:53:01Z</time></trkpt><trkpt lat="43.92597850789004" lon="12.083596459626195"><ele>709.0</ele><time>2026-04-20T09:53:02Z</time></trkpt><trkpt lat="43.925974980835846" lon="12.083464922086776"><ele>709.0</ele><time>2026-04-20T09:53:03Z</time></trkpt><trkpt lat="43.92599633482042" lon="12.083354869028252"><ele>706.2</ele><time>2026-04-20T09:53:04Z</time></trkpt><trkpt lat="43.926016408859134" lon="12.083242977051711"><ele>703.4000000000001</ele><time>2026-04-20T09:53:05Z</time></trkpt><trkpt lat="43.92603830904369" lon="12.083151353563746"><ele>700.6</ele><time>2026-04-20T09:53:06Z</time></trkpt><trkpt lat="43.92602525996452" lon="12.083029244511982"><ele>697.8</ele><time>2026-04-20T09:53:07Z</time></trkpt><trkpt lat="43.925956856912656" lon="12.08288576224348"><ele>695.0</ele><time>2026-04-20T09:53:09Z</time></trkpt><trkpt lat="43.92585915079897" lon="12.082884674379391"><ele>705.25</ele><time>2026-04-20T09:53:10Z</time></trkpt><trkpt lat="43.92574599034349" lon="12.082837956399976"><ele>715.5</ele><time>2026-04-20T09:53:11Z</time></trkpt><trkpt lat="43.92562075451073" lon="12.082785098378071"><ele>725.75</ele><time>2026-04-20T09:53:12Z</time></trkpt><trkpt lat="43.92551765538649" lon="12.082696190120862"><ele>736.0</ele><time>2026-04-20T09:53:13Z</time></trkpt><trkpt lat="43.92540171861165" lon="12.08263100276036"><ele>736.0</ele><time>2026-04-20T09:53:14Z</time></trkpt><trkpt lat="43.925291036219136" lon="12.08258232849914"><ele>736.0</ele><time>2026-04-20T09:53:15Z</time></trkpt><trkpt lat="43.92517901293308" lon="12.082567926418502"><ele>736.0</ele><time>2026-04-20T09:53:16Z</time></trkpt><trkpt lat="43.92508650521483" lon="12.082553688731808"><ele>736.0</ele><time>2026-04-20T09:53:17Z</time></trkpt><trkpt lat="43.92501000285219" lon="12.082544268942414"><ele>736.0</ele><time>2026-04-20T09:53:18Z</time></trkpt><trkpt lat="43.92488945888252" lon="12.082465443262198"><ele>740.0</ele><time>2026-04-20T09:53:20Z</time></trkpt><trkpt lat="43.92482325740474" lon="12.082360728326599"><ele>744.0</ele><time>2026-04-20T09:53:21Z</time></trkpt><trkpt lat="43.92473893719513" lon="12.08227859452075"><ele>748.0</ele><time>2026-04-20T09:53:22Z</time></trkpt><trkpt lat="43.92466125467834" lon="12.082181700571295"><ele>752.0</ele><time>2026-04-20T09:53:23Z</time></trkpt><trkpt lat="43.92460576747276" lon="12.082096295979644"><ele>756.0</ele><time>2026-04-20T09:53:24Z</time></trkpt><trkpt lat="43.92457982478347" lon="12.082010097859209"><ele>756.0</ele><time>2026-04-20T09:53:25Z</time></trkpt><trkpt lat="43.92459449122008" lon="12.0819133705999"><ele>756.0</ele><time>2026-04-20T09:53:26Z</time></trkpt><trkpt lat="43.92459246179207" lon="12.081813113127176"><ele>756.0</ele><time>2026-04-20T09:53:27Z</time></trkpt><trkpt lat="43.92457180953822" lon="12.081722439752612"><ele>756.0</ele><time>2026-04-20T09:53:28Z</time></trkpt><trkpt lat="43.924492214447625" lon="12.08166944587739"><ele>756.0</ele><time>2026-04-20T09:53:29Z</time></trkpt><trkpt lat="43.92439567425092" lon="12.081658429631252"><ele>756.0</ele><time>2026-04-20T09:53:30Z</time></trkpt><trkpt lat="43.924292913709984" lon="12.08161513784918"><ele>755.0</ele><time>2026-04-20T09:53:31Z</time></trkpt><trkpt lat="43.92420870832199" lon="12.081549788189774"><ele>754.0</ele><time>2026-04-20T09:53:32Z</time></trkpt><trkpt lat="43.92415065171962" lon="12.08147177605008"><ele>753.0</ele><time>2026-04-20T09:53:33Z</time></trkpt><trkpt lat="43.924117913268034" lon="12.081378433709968"><ele>752.0</ele><time>2026-04-20T09:53:34Z</time></trkpt><trkpt lat="43.92412731372131" lon="12.081284307364344"><ele>751.0</ele><time>2026-04-20T09:53:35Z</time></trkpt><trkpt lat="43.92415083284257" lon="12.081161027821874"><ele>750.0</ele><time>2026-04-20T09:53:36Z</time></trkpt><trkpt lat="43.92414465496375" lon="12.081026143306023"><ele>750.0</ele><time>2026-04-20T09:53:37Z</time></trkpt><trkpt lat="43.92412106233647" lon="12.080910588574977"><ele>750.0</ele><time>2026-04-20T09:53:38Z</time></trkpt><trkpt lat="43.92406195419243" lon="12.080824858131868"><ele>750.0</ele><time>2026-04-20T09:53:39Z</time></trkpt><trkpt lat="43.92399034721627" lon="12.080795934548558"><ele>750.0</ele><time>2026-04-20T09:53:40Z</time></trkpt><trkpt lat="43.923889980809605" lon="12.0807410171342"><ele>750.0</ele><time>2026-04-20T09:53:41Z</time></trkpt><trkpt lat="43.92379091580325" lon="12.080709259175855"><ele>753.2</ele><time>2026-04-20T09:53:42Z</time></trkpt><trkpt lat="43.92371166388057" lon="12.080678601073648"><ele>756.4</ele><time>2026-04-20T09:53:43Z</time></trkpt><trkpt lat="43.923624184970144" lon="12.080603792577673"><ele>759.5999999999999</ele><time>2026-04-20T09:53:45Z</time></trkpt><trkpt lat="43.92362955245952" lon="12.080419740218252"><ele>762.8</ele><time>2026-04-20T09:53:47Z</time></trkpt><trkpt lat="43.923668327891505" lon="12.080277326266131"><ele>766.0</ele><time>2026-04-20T09:53:48Z</time></trkpt><trkpt lat="43.92367231909944" lon="12.08018026175895"><ele>766.0</ele><time>2026-04-20T09:53:49Z</time></trkpt><trkpt lat="43.92363307958626" lon="12.080075277717135"><ele>766.0</ele><time>2026-04-20T09:53:50Z</time></trkpt><trkpt lat="43.92352482357268" lon="12.080033024590985"><ele>766.0</ele><time>2026-04-20T09:53:51Z</time></trkpt><trkpt lat="43.92345035416679" lon="12.079953830661385"><ele>766.0</ele><time>2026-04-20T09:53:52Z</time></trkpt><trkpt lat="43.923447609202924" lon="12.079838471215067"><ele>766.0</ele><time>2026-04-20T09:53:53Z</time></trkpt><trkpt lat="43.92347050933504" lon="12.079741243757532"><ele>766.0</ele><time>2026-04-20T09:53:54Z</time></trkpt><trkpt lat="43.92351457492455" lon="12.079652315082484"><ele>766.6666666666667</ele><time>2026-04-20T09:53:55Z</time></trkpt><trkpt lat="43.92356529434857" lon="12.079520941363922"><ele>767.3333333333334</ele><time>2026-04-20T09:53:56Z</time></trkpt><trkpt lat="43.923562594206345" lon="12.079393695035066"><ele>768.0</ele><time>2026-04-20T09:53:57Z</time></trkpt><trkpt lat="43.92355551795965" lon="12.079274698167104"><ele>768.6666666666667</ele><time>2026-04-20T09:53:58Z</time></trkpt><trkpt lat="43.923523596774544" lon="12.079169985216026"><ele>769.3333333333334</ele><time>2026-04-20T09:53:59Z</time></trkpt><trkpt lat="43.92347002362608" lon="12.079090510637316"><ele>770.0</ele><time>2026-04-20T09:54:00Z</time></trkpt><trkpt lat="43.92339526608209" lon="12.07902437284197"><ele>770.4</ele><time>2026-04-20T09:54:01Z</time></trkpt><trkpt lat="43.92329983185368" lon="12.078977759459478"><ele>770.8</ele><time>2026-04-20T09:54:02Z</time></trkpt><trkpt lat="43.92321156453255" lon="12.078891531250527"><ele>771.2</ele><time>2026-04-20T09:54:03Z</time></trkpt><trkpt lat="43.92310215707312" lon="12.07883221377636"><ele>771.6</ele><time>2026-04-20T09:54:04Z</time></trkpt><trkpt lat="43.92299352711719" lon="12.078797580396564"><ele>772.0</ele><time>2026-04-20T09:54:05Z</time></trkpt><trkpt lat="43.922883603883356" lon="12.07879286134322"><ele>771.9999999999999</ele><time>2026-04-20T09:54:06Z</time></trkpt><trkpt lat="43.92277521528253" lon="12.078788533454917"><ele>772.0</ele><time>2026-04-20T09:54:07Z</time></trkpt><trkpt lat="43.92268852758378" lon="12.078778420270867"><ele>772.0</ele><time>2026-04-20T09:54:08Z</time></trkpt><trkpt lat="43.92262354885801" lon="12.078765194189925"><ele>772.0</ele><time>2026-04-20T09:54:09Z</time></trkpt><trkpt lat="43.92255811321125" lon="12.078737063196728"><ele>771.9999999999999</ele><time>2026-04-20T09:54:10Z</time></trkpt><trkpt lat="43.92248794241704" lon="12.07871938912657"><ele>772.0</ele><time>2026-04-20T09:54:11Z</time></trkpt><trkpt lat="43.92241319446062" lon="12.078704078043367"><ele>770.8</ele><time>2026-04-20T09:54:12Z</time></trkpt><trkpt lat="43.92233330714498" lon="12.078684875271781"><ele>769.6</ele><time>2026-04-20T09:54:13Z</time></trkpt><trkpt lat="43.92224556195415" lon="12.078662985586236"><ele>768.4</ele><time>2026-04-20T09:54:14Z</time></trkpt><trkpt lat="43.92213997758961" lon="12.07864039707037"><ele>767.1999999999999</ele><time>2026-04-20T09:54:15Z</time></trkpt><trkpt lat="43.922033490564836" lon="12.078624109401371"><ele>766.0</ele><time>2026-04-20T09:54:16Z</time></trkpt><trkpt lat="43.921943279115126" lon="12.078621867033917"><ele>766.0</ele><time>2026-04-20T09:54:17Z</time></trkpt><trkpt lat="43.92183165333234" lon="12.078674706815708"><ele>766.0</ele><time>2026-04-20T09:54:18Z</time></trkpt><trkpt lat="43.92173738502758" lon="12.07868952535485"><ele>766.0</ele><time>2026-04-20T09:54:19Z</time></trkpt><trkpt lat="43.92164142312304" lon="12.07870688571594"><ele>766.0</ele><time>2026-04-20T09:54:20Z</time></trkpt><trkpt lat="43.92154170918215" lon="12.078721151575373"><ele>766.0</ele><time>2026-04-20T09:54:21Z</time></trkpt><trkpt lat="43.921435694335095" lon="12.0787338355955"><ele>763.0</ele><time>2026-04-20T09:54:22Z</time></trkpt><trkpt lat="43.921329325170355" lon="12.078746005002587"><ele>760.0</ele><time>2026-04-20T09:54:23Z</time></trkpt><trkpt lat="43.921233228535705" lon="12.078756275180707"><ele>757.0</ele><time>2026-04-20T09:54:24Z</time></trkpt><trkpt lat="43.92115228345653" lon="12.078764926051184"><ele>754.0</ele><time>2026-04-20T09:54:25Z</time></trkpt><trkpt lat="43.92107112361735" lon="12.078780542537451"><ele>751.0</ele><time>2026-04-20T09:54:26Z</time></trkpt><trkpt lat="43.92099873762463" lon="12.07881346138163"><ele>748.0</ele><time>2026-04-20T09:54:27Z</time></trkpt><trkpt lat="43.920936867198506" lon="12.078886924298482"><ele>743.2</ele><time>2026-04-20T09:54:28Z</time></trkpt><trkpt lat="43.9208726424713" lon="12.078959163024512"><ele>738.4</ele><time>2026-04-20T09:54:29Z</time></trkpt><trkpt lat="43.92082122958848" lon="12.079057429132966"><ele>733.6</ele><time>2026-04-20T09:54:30Z</time></trkpt><trkpt lat="43.920775761002695" lon="12.079170988922844"><ele>728.8000000000001</ele><time>2026-04-20T09:54:31Z</time></trkpt><trkpt lat="43.920710476291106" lon="12.079278992722402"><ele>724.0</ele><time>2026-04-20T09:54:33Z</time></trkpt><trkpt lat="43.920620514826076" lon="12.079213326309809"><ele>724.0</ele><time>2026-04-20T09:54:35Z</time></trkpt><trkpt lat="43.920597338550486" lon="12.079127944743659"><ele>724.0</ele><time>2026-04-20T09:54:36Z</time></trkpt><trkpt lat="43.92064714666648" lon="12.079034733249099"><ele>724.0</ele><time>2026-04-20T09:54:37Z</time></trkpt><trkpt lat="43.92067624591469" lon="12.078924891225439"><ele>724.0</ele><time>2026-04-20T09:54:38Z</time></trkpt><trkpt lat="43.92070134477353" lon="12.078794708857425"><ele>724.0</ele><time>2026-04-20T09:54:39Z</time></trkpt><trkpt lat="43.92071632321074" lon="12.078648992488846"><ele>724.0</ele><time>2026-04-20T09:54:40Z</time></trkpt><trkpt lat="43.92073019740392" lon="12.078508676872515"><ele>724.0</ele><time>2026-04-20T09:54:41Z</time></trkpt><trkpt lat="43.92074303859413" lon="12.078381435891936"><ele>724.0</ele><time>2026-04-20T09:54:42Z</time></trkpt><trkpt lat="43.92075750062236" lon="12.078238134502898"><ele>724.0</ele><time>2026-04-20T09:54:43Z</time></trkpt><trkpt lat="43.920772659118455" lon="12.078114911084096"><ele>724.0</ele><time>2026-04-20T09:54:44Z</time></trkpt><trkpt lat="43.920774505768826" lon="12.077998225087637"><ele>724.0</ele><time>2026-04-20T09:54:45Z</time></trkpt><trkpt lat="43.92080540658366" lon="12.077855946946539"><ele>723.8000000000001</ele><time>2026-04-20T09:54:46Z</time></trkpt><trkpt lat="43.92079900164312" lon="12.077695170182308"><ele>723.6</ele><time>2026-04-20T09:54:47Z</time></trkpt><trkpt lat="43.92077185844332" lon="12.077551642323124"><ele>723.4</ele><time>2026-04-20T09:54:48Z</time></trkpt><trkpt lat="43.920745862764214" lon="12.077402279201488"><ele>723.2</ele><time>2026-04-20T09:54:49Z</time></trkpt><trkpt lat="43.920724361885696" lon="12.077252267292163"><ele>723.0</ele><time>2026-04-20T09:54:50Z</time></trkpt><trkpt lat="43.92070345557965" lon="12.077102374709012"><ele>722.8333333333334</ele><time>2026-04-20T09:54:51Z</time></trkpt><trkpt lat="43.920684807007625" lon="12.07696390907279"><ele>722.6666666666666</ele><time>2026-04-20T09:54:52Z</time></trkpt><trkpt lat="43.920664020561034" lon="12.076844831029625"><ele>722.5</ele><time>2026-04-20T09:54:53Z</time></trkpt><trkpt lat="43.920644375767445" lon="12.076758140946326"><ele>722.3333333333333</ele><time>2026-04-20T09:54:54Z</time></trkpt><trkpt lat="43.92061798851716" lon="12.076677123892514"><ele>722.1666666666666</ele><time>2026-04-20T09:54:55Z</time></trkpt><trkpt lat="43.92050421031749" lon="12.076600687911084"><ele>722.0</ele><time>2026-04-20T09:54:57Z</time></trkpt><trkpt lat="43.92043399721676" lon="12.076630922725336"><ele>722.0</ele><time>2026-04-20T09:54:58Z</time></trkpt><trkpt lat="43.920368703216845" lon="12.076735888928395"><ele>722.0</ele><time>2026-04-20T09:54:59Z</time></trkpt><trkpt lat="43.92033602521568" lon="12.076873256153014"><ele>722.0</ele><time>2026-04-20T09:55:00Z</time></trkpt><trkpt lat="43.92035073157248" lon="12.07701524799382"><ele>722.0</ele><time>2026-04-20T09:55:01Z</time></trkpt><trkpt lat="43.92036386851814" lon="12.077156811813467"><ele>722.0</ele><time>2026-04-20T09:55:02Z</time></trkpt><trkpt lat="43.92038791061862" lon="12.077299320268818"><ele>722.2</ele><time>2026-04-20T09:55:03Z</time></trkpt><trkpt lat="43.92041798015905" lon="12.07745051822365"><ele>722.4000000000001</ele><time>2026-04-20T09:55:04Z</time></trkpt><trkpt lat="43.92044236443462" lon="12.077586663234586"><ele>722.5999999999999</ele><time>2026-04-20T09:55:05Z</time></trkpt><trkpt lat="43.920453689962095" lon="12.07773075926905"><ele>722.8</ele><time>2026-04-20T09:55:06Z</time></trkpt><trkpt lat="43.92043988714933" lon="12.077842736246806"><ele>723.0</ele><time>2026-04-20T09:55:07Z</time></trkpt><trkpt lat="43.920392779272326" lon="12.077903474675363"><ele>723.0</ele><time>2026-04-20T09:55:08Z</time></trkpt><trkpt lat="43.9202957384413" lon="12.077944223850302"><ele>723.0</ele><time>2026-04-20T09:55:09Z</time></trkpt><trkpt lat="43.92021481150822" lon="12.07804636462768"><ele>723.0</ele><time>2026-04-20T09:55:10Z</time></trkpt><trkpt lat="43.92011426371194" lon="12.078133117099034"><ele>723.0</ele><time>2026-04-20T09:55:11Z</time></trkpt><trkpt lat="43.92002878949802" lon="12.078211775856406"><ele>723.0</ele><time>2026-04-20T09:55:12Z</time></trkpt><trkpt lat="43.91993850249803" lon="12.078294668140233"><ele>718.5999999999999</ele><time>2026-04-20T09:55:13Z</time></trkpt><trkpt lat="43.9198513395216" lon="12.078376143443972"><ele>714.1999999999999</ele><time>2026-04-20T09:55:14Z</time></trkpt><trkpt lat="43.91976202230557" lon="12.07844933559888"><ele>709.8</ele><time>2026-04-20T09:55:15Z</time></trkpt><trkpt lat="43.91970122982855" lon="12.078549362237203"><ele>705.4</ele><time>2026-04-20T09:55:16Z</time></trkpt><trkpt lat="43.91962763136773" lon="12.078657197799071"><ele>701.0</ele><time>2026-04-20T09:55:17Z</time></trkpt><trkpt lat="43.91956724397496" lon="12.078771885811904"><ele>701.0</ele><time>2026-04-20T09:55:18Z</time></trkpt><trkpt lat="43.91952193163555" lon="12.078902080151405"><ele>701.0</ele><time>2026-04-20T09:55:19Z</time></trkpt><trkpt lat="43.919462013350966" lon="12.07898454195671"><ele>701.0</ele><time>2026-04-20T09:55:20Z</time></trkpt><trkpt lat="43.91941018813568" lon="12.07906147252778"><ele>701.0</ele><time>2026-04-20T09:55:21Z</time></trkpt><trkpt lat="43.91932646046527" lon="12.079079666113076"><ele>701.0</ele><time>2026-04-20T09:55:22Z</time></trkpt><trkpt lat="43.91922326559539" lon="12.079126811079341"><ele>698.8</ele><time>2026-04-20T09:55:23Z</time></trkpt><trkpt lat="43.91913410846978" lon="12.079197062099785"><ele>696.5999999999999</ele><time>2026-04-20T09:55:24Z</time></trkpt><trkpt lat="43.919059860952316" lon="12.079287814216578"><ele>694.4</ele><time>2026-04-20T09:55:25Z</time></trkpt><trkpt lat="43.91900579612571" lon="12.079406221202804"><ele>692.2</ele><time>2026-04-20T09:55:26Z</time></trkpt><trkpt lat="43.91895212763085" lon="12.07957477307058"><ele>690.0</ele><time>2026-04-20T09:55:27Z</time></trkpt><trkpt lat="43.91890389625938" lon="12.079756069831761"><ele>690.0</ele><time>2026-04-20T09:55:28Z</time></trkpt><trkpt lat="43.91885777907236" lon="12.079913537521197"><ele>690.0</ele><time>2026-04-20T09:55:29Z</time></trkpt><trkpt lat="43.918795865358746" lon="12.080033334193532"><ele>690.0</ele><time>2026-04-20T09:55:30Z</time></trkpt><trkpt lat="43.91872590076236" lon="12.08016570003423"><ele>690.0</ele><time>2026-04-20T09:55:31Z</time></trkpt><trkpt lat="43.91864833401511" lon="12.080266453147436"><ele>690.1666666666666</ele><time>2026-04-20T09:55:32Z</time></trkpt><trkpt lat="43.91857034950528" lon="12.080367840822028"><ele>690.3333333333334</ele><time>2026-04-20T09:55:33Z</time></trkpt><trkpt lat="43.91850622781948" lon="12.08047196606819"><ele>690.5</ele><time>2026-04-20T09:55:34Z</time></trkpt><trkpt lat="43.918435431142385" lon="12.08052614945121"><ele>690.6666666666667</ele><time>2026-04-20T09:55:35Z</time></trkpt><trkpt lat="43.91834852232797" lon="12.080574221205751"><ele>690.8333333333334</ele><time>2026-04-20T09:55:37Z</time></trkpt><trkpt lat="43.918331313567165" lon="12.080489177251168"><ele>691.0</ele><time>2026-04-20T09:55:39Z</time></trkpt><trkpt lat="43.91838393253252" lon="12.080422438983952"><ele>691.0</ele><time>2026-04-20T09:55:41Z</time></trkpt><trkpt lat="43.91844427026802" lon="12.080364489853238"><ele>691.0</ele><time>2026-04-20T09:55:42Z</time></trkpt><trkpt lat="43.91851291432533" lon="12.08027227717095"><ele>691.0</ele><time>2026-04-20T09:55:43Z</time></trkpt><trkpt lat="43.91857261605972" lon="12.080151791580153"><ele>691.0</ele><time>2026-04-20T09:55:44Z</time></trkpt><trkpt lat="43.918589825935186" lon="12.08002529650123"><ele>691.0</ele><time>2026-04-20T09:55:45Z</time></trkpt><trkpt lat="43.91857064407758" lon="12.07987207159751"><ele>690.75</ele><time>2026-04-20T09:55:46Z</time></trkpt><trkpt lat="43.91856097400651" lon="12.079691545971553"><ele>690.5</ele><time>2026-04-20T09:55:47Z</time></trkpt><trkpt lat="43.91857993008253" lon="12.0795259913061"><ele>690.25</ele><time>2026-04-20T09:55:48Z</time></trkpt><trkpt lat="43.91857585266685" lon="12.079361280890673"><ele>690.0</ele><time>2026-04-20T09:55:49Z</time></trkpt><trkpt lat="43.91858946367771" lon="12.079208708510265"><ele>687.6</ele><time>2026-04-20T09:55:50Z</time></trkpt><trkpt lat="43.91862789511607" lon="12.079087574961191"><ele>685.2</ele><time>2026-04-20T09:55:51Z</time></trkpt><trkpt lat="43.918663539952476" lon="12.078964634892769"><ele>682.8</ele><time>2026-04-20T09:55:52Z</time></trkpt><trkpt lat="43.91873516739636" lon="12.078841220355025"><ele>680.4</ele><time>2026-04-20T09:55:53Z</time></trkpt><trkpt lat="43.91879119857098" lon="12.07872529135684"><ele>678.0</ele><time>2026-04-20T09:55:54Z</time></trkpt><trkpt lat="43.91883291656876" lon="12.078620118507603"><ele>678.0</ele><time>2026-04-20T09:55:55Z</time></trkpt><trkpt lat="43.918844209449595" lon="12.078528549319506"><ele>678.0</ele><time>2026-04-20T09:55:56Z</time></trkpt><trkpt lat="43.91880258827113" lon="12.078435866921927"><ele>678.0</ele><time>2026-04-20T09:55:57Z</time></trkpt><trkpt lat="43.91877828623874" lon="12.078349034941452"><ele>678.0</ele><time>2026-04-20T09:55:58Z</time></trkpt><trkpt lat="43.91868101462211" lon="12.078312381987654"><ele>678.0</ele><time>2026-04-20T09:55:59Z</time></trkpt><trkpt lat="43.91858420297268" lon="12.07828027201255"><ele>678.0</ele><time>2026-04-20T09:56:00Z</time></trkpt><trkpt lat="43.918476224918805" lon="12.078276288429509"><ele>675.0</ele><time>2026-04-20T09:56:01Z</time></trkpt><trkpt lat="43.91836973724689" lon="12.078280868775902"><ele>672.0</ele><time>2026-04-20T09:56:02Z</time></trkpt><trkpt lat="43.91828827873206" lon="12.078252467798244"><ele>669.0</ele><time>2026-04-20T09:56:03Z</time></trkpt><trkpt lat="43.91822437565745" lon="12.078226543440678"><ele>666.0</ele><time>2026-04-20T09:56:04Z</time></trkpt><trkpt lat="43.91816775257001" lon="12.0781736031971"><ele>663.0</ele><time>2026-04-20T09:56:05Z</time></trkpt><trkpt lat="43.91812879389918" lon="12.07809335268859"><ele>660.0</ele><time>2026-04-20T09:56:06Z</time></trkpt><trkpt lat="43.918097913572204" lon="12.077987420024748"><ele>660.0</ele><time>2026-04-20T09:56:07Z</time></trkpt><trkpt lat="43.918077744186334" lon="12.077852080190837"><ele>660.0</ele><time>2026-04-20T09:56:08Z</time></trkpt><trkpt lat="43.91805634764249" lon="12.077692879869879"><ele>660.0</ele><time>2026-04-20T09:56:09Z</time></trkpt><trkpt lat="43.91803385251974" lon="12.07754758915681"><ele>660.0</ele><time>2026-04-20T09:56:10Z</time></trkpt><trkpt lat="43.91798678434903" lon="12.077416358363351"><ele>660.0</ele><time>2026-04-20T09:56:11Z</time></trkpt><trkpt lat="43.91794633533131" lon="12.077298478323513"><ele>659.6</ele><time>2026-04-20T09:56:12Z</time></trkpt><trkpt lat="43.91792886940212" lon="12.077163802628219"><ele>659.2</ele><time>2026-04-20T09:56:13Z</time></trkpt><trkpt lat="43.91789990487151" lon="12.077034904080776"><ele>658.8</ele><time>2026-04-20T09:56:14Z</time></trkpt><trkpt lat="43.91787337092898" lon="12.0768958682392"><ele>658.4</ele><time>2026-04-20T09:56:15Z</time></trkpt><trkpt lat="43.91786056830956" lon="12.076771616586344"><ele>658.0</ele><time>2026-04-20T09:56:16Z</time></trkpt><trkpt lat="43.91785057936235" lon="12.076610755578717"><ele>657.2</ele><time>2026-04-20T09:56:17Z</time></trkpt><trkpt lat="43.917850148369745" lon="12.076478617600642"><ele>656.4</ele><time>2026-04-20T09:56:18Z</time></trkpt><trkpt lat="43.91785195926792" lon="12.076357718530135"><ele>655.6</ele><time>2026-04-20T09:56:19Z</time></trkpt><trkpt lat="43.917855610157225" lon="12.076253333130063"><ele>654.8000000000001</ele><time>2026-04-20T09:56:21Z</time></trkpt><trkpt lat="43.917862331373016" lon="12.076078885877322"><ele>654.0</ele><time>2026-04-20T09:56:23Z</time></trkpt><trkpt lat="43.917872588422334" lon="12.075934321036925"><ele>652.25</ele><time>2026-04-20T09:56:24Z</time></trkpt><trkpt lat="43.917896136423145" lon="12.075763064029069"><ele>650.5</ele><time>2026-04-20T09:56:25Z</time></trkpt><trkpt lat="43.91792390666792" lon="12.075587824512832"><ele>648.75</ele><time>2026-04-20T09:56:26Z</time></trkpt><trkpt lat="43.91794723555519" lon="12.075423897004717"><ele>647.0</ele><time>2026-04-20T09:56:27Z</time></trkpt><trkpt lat="43.91796765195588" lon="12.075263580733726"><ele>647.0</ele><time>2026-04-20T09:56:28Z</time></trkpt><trkpt lat="43.91798546632043" lon="12.075113212184794"><ele>647.0</ele><time>2026-04-20T09:56:29Z</time></trkpt><trkpt lat="43.91799972040614" lon="12.07497209172605"><ele>647.0</ele><time>2026-04-20T09:56:30Z</time></trkpt><trkpt lat="43.91800160444253" lon="12.074834079552408"><ele>647.0</ele><time>2026-04-20T09:56:31Z</time></trkpt><trkpt lat="43.91802043583494" lon="12.074703186100104"><ele>647.0</ele><time>2026-04-20T09:56:32Z</time></trkpt><trkpt lat="43.91805138192503" lon="12.074591871336132"><ele>644.8000000000001</ele><time>2026-04-20T09:56:33Z</time></trkpt><trkpt lat="43.91803616337871" lon="12.074450575804542"><ele>642.6</ele><time>2026-04-20T09:56:35Z</time></trkpt><trkpt lat="43.9179190540568" lon="12.074405078927064"><ele>640.4000000000001</ele><time>2026-04-20T09:56:37Z</time></trkpt><trkpt lat="43.91784300317799" lon="12.074458393266182"><ele>638.2</ele><time>2026-04-20T09:56:38Z</time></trkpt><trkpt lat="43.91780609268215" lon="12.074593479546191"><ele>636.0</ele><time>2026-04-20T09:56:39Z</time></trkpt><trkpt lat="43.9177918483641" lon="12.074737525180247"><ele>636.0</ele><time>2026-04-20T09:56:40Z</time></trkpt><trkpt lat="43.917742936677634" lon="12.074887014215665"><ele>636.0</ele><time>2026-04-20T09:56:41Z</time></trkpt><trkpt lat="43.91770777005923" lon="12.07503224957328"><ele>636.0</ele><time>2026-04-20T09:56:42Z</time></trkpt><trkpt lat="43.917650027570474" lon="12.075124572367919"><ele>636.0</ele><time>2026-04-20T09:56:43Z</time></trkpt><trkpt lat="43.91759585582201" lon="12.07521896246039"><ele>636.0</ele><time>2026-04-20T09:56:44Z</time></trkpt><trkpt lat="43.917529413003884" lon="12.07530680378469"><ele>633.8333333333334</ele><time>2026-04-20T09:56:45Z</time></trkpt><trkpt lat="43.917451495215616" lon="12.075377985603476"><ele>631.6666666666666</ele><time>2026-04-20T09:56:46Z</time></trkpt><trkpt lat="43.91737656893641" lon="12.075434917703635"><ele>629.5</ele><time>2026-04-20T09:56:47Z</time></trkpt><trkpt lat="43.917308101261256" lon="12.07549065281365"><ele>627.3333333333333</ele><time>2026-04-20T09:56:48Z</time></trkpt><trkpt lat="43.91723053550177" lon="12.075553794061058"><ele>625.1666666666666</ele><time>2026-04-20T09:56:49Z</time></trkpt><trkpt lat="43.91716442628883" lon="12.075607609288419"><ele>623.0</ele><time>2026-04-20T09:56:50Z</time></trkpt><trkpt lat="43.91708579210918" lon="12.075694079626452"><ele>623.0</ele><time>2026-04-20T09:56:51Z</time></trkpt><trkpt lat="43.9169962756394" lon="12.075758171135053"><ele>623.0</ele><time>2026-04-20T09:56:52Z</time></trkpt><trkpt lat="43.91691205102182" lon="12.075808402270729"><ele>623.0</ele><time>2026-04-20T09:56:53Z</time></trkpt><trkpt lat="43.916825694267814" lon="12.075858990348937"><ele>623.0</ele><time>2026-04-20T09:56:54Z</time></trkpt><trkpt lat="43.916734739437956" lon="12.07589824969729"><ele>623.0</ele><time>2026-04-20T09:56:55Z</time></trkpt><trkpt lat="43.916654651388626" lon="12.075932110994101"><ele>621.3333333333333</ele><time>2026-04-20T09:56:56Z</time></trkpt><trkpt lat="43.91656384673148" lon="12.075962129654183"><ele>619.6666666666666</ele><time>2026-04-20T09:56:57Z</time></trkpt><trkpt lat="43.91647781585326" lon="12.075985848455536"><ele>618.0</ele><time>2026-04-20T09:56:58Z</time></trkpt><trkpt lat="43.91639421398187" lon="12.076032232932867"><ele>616.3333333333334</ele><time>2026-04-20T09:56:59Z</time></trkpt><trkpt lat="43.916309843491305" lon="12.076062630284632"><ele>614.6666666666667</ele><time>2026-04-20T09:57:00Z</time></trkpt><trkpt lat="43.91623864780816" lon="12.076108465607337"><ele>613.0</ele><time>2026-04-20T09:57:01Z</time></trkpt><trkpt lat="43.916156138553305" lon="12.076178902734302"><ele>613.0</ele><time>2026-04-20T09:57:02Z</time></trkpt><trkpt lat="43.91609968999929" lon="12.076269930130033"><ele>613.0</ele><time>2026-04-20T09:57:03Z</time></trkpt><trkpt lat="43.916070716632284" lon="12.076392213988994"><ele>613.0</ele><time>2026-04-20T09:57:04Z</time></trkpt><trkpt lat="43.916062576929924" lon="12.076531000375361"><ele>613.0</ele><time>2026-04-20T09:57:05Z</time></trkpt><trkpt lat="43.91608174263847" lon="12.07665551351255"><ele>613.0</ele><time>2026-04-20T09:57:06Z</time></trkpt><trkpt lat="43.91612038276966" lon="12.07676547585367"><ele>613.0</ele><time>2026-04-20T09:57:07Z</time></trkpt><trkpt lat="43.91616757131336" lon="12.076893652115546"><ele>613.0</ele><time>2026-04-20T09:57:08Z</time></trkpt><trkpt lat="43.91620918201503" lon="12.077030121768388"><ele>613.0</ele><time>2026-04-20T09:57:09Z</time></trkpt><trkpt lat="43.91624039544425" lon="12.077182101839584"><ele>613.0</ele><time>2026-04-20T09:57:10Z</time></trkpt><trkpt lat="43.91626135186422" lon="12.077345148039942"><ele>613.0</ele><time>2026-04-20T09:57:11Z</time></trkpt><trkpt lat="43.91628271035927" lon="12.077491214959013"><ele>612.8</ele><time>2026-04-20T09:57:12Z</time></trkpt><trkpt lat="43.916304231296294" lon="12.077622868670884"><ele>612.5999999999999</ele><time>2026-04-20T09:57:13Z</time></trkpt><trkpt lat="43.91631392489499" lon="12.077765348614598"><ele>612.4000000000001</ele><time>2026-04-20T09:57:14Z</time></trkpt><trkpt lat="43.91631602722554" lon="12.077918932928648"><ele>612.2</ele><time>2026-04-20T09:57:15Z</time></trkpt><trkpt lat="43.91631664948095" lon="12.078076391916893"><ele>612.0</ele><time>2026-04-20T09:57:16Z</time></trkpt><trkpt lat="43.91632400978991" lon="12.07822963641831"><ele>611.8000000000001</ele><time>2026-04-20T09:57:17Z</time></trkpt><trkpt lat="43.91630138333451" lon="12.078387599494915"><ele>611.6</ele><time>2026-04-20T09:57:18Z</time></trkpt><trkpt lat="43.91629306103627" lon="12.078541626983355"><ele>611.4000000000001</ele><time>2026-04-20T09:57:19Z</time></trkpt><trkpt lat="43.9162853717113" lon="12.078683301445855"><ele>611.2</ele><time>2026-04-20T09:57:20Z</time></trkpt><trkpt lat="43.91627569224942" lon="12.078834637720776"><ele>611.0</ele><time>2026-04-20T09:57:21Z</time></trkpt><trkpt lat="43.91628396670555" lon="12.078965645512886"><ele>611.0</ele><time>2026-04-20T09:57:22Z</time></trkpt><trkpt lat="43.91627984882249" lon="12.079069798810606"><ele>611.0</ele><time>2026-04-20T09:57:23Z</time></trkpt><trkpt lat="43.91628874599699" lon="12.079166443047425"><ele>611.0</ele><time>2026-04-20T09:57:24Z</time></trkpt><trkpt lat="43.91636096999819" lon="12.079233653383456"><ele>611.0</ele><time>2026-04-20T09:57:25Z</time></trkpt><trkpt lat="43.916410093850146" lon="12.079323461755687"><ele>611.0</ele><time>2026-04-20T09:57:26Z</time></trkpt><trkpt lat="43.916457060898246" lon="12.079424141735885"><ele>611.0</ele><time>2026-04-20T09:57:27Z</time></trkpt><trkpt lat="43.916446159020786" lon="12.079589013052601"><ele>610.0</ele><time>2026-04-20T09:57:29Z</time></trkpt><trkpt lat="43.91640278217221" lon="12.079684532313053"><ele>609.0</ele><time>2026-04-20T09:57:30Z</time></trkpt><trkpt lat="43.91632788507897" lon="12.079785769688389"><ele>608.0</ele><time>2026-04-20T09:57:31Z</time></trkpt><trkpt lat="43.91625314961331" lon="12.07990410325513"><ele>607.0</ele><time>2026-04-20T09:57:32Z</time></trkpt><trkpt lat="43.916169994120345" lon="12.080035092908538"><ele>606.0</ele><time>2026-04-20T09:57:33Z</time></trkpt><trkpt lat="43.916083360248585" lon="12.080171305827733"><ele>605.25</ele><time>2026-04-20T09:57:34Z</time></trkpt><trkpt lat="43.91600473058301" lon="12.080322833609324"><ele>604.5</ele><time>2026-04-20T09:57:35Z</time></trkpt><trkpt lat="43.915920679685534" lon="12.080441026564277"><ele>603.75</ele><time>2026-04-20T09:57:36Z</time></trkpt><trkpt lat="43.91585209143306" lon="12.080566199102357"><ele>603.0</ele><time>2026-04-20T09:57:37Z</time></trkpt><trkpt lat="43.91576769412564" lon="12.080665809347973"><ele>598.4</ele><time>2026-04-20T09:57:38Z</time></trkpt><trkpt lat="43.91571207413029" lon="12.0807924839105"><ele>593.8</ele><time>2026-04-20T09:57:39Z</time></trkpt><trkpt lat="43.915644591095585" lon="12.080900311141548"><ele>589.2</ele><time>2026-04-20T09:57:40Z</time></trkpt><trkpt lat="43.9155942000234" lon="12.081007294597486"><ele>584.6</ele><time>2026-04-20T09:57:41Z</time></trkpt><trkpt lat="43.915549779892906" lon="12.081126539363717"><ele>580.0</ele><time>2026-04-20T09:57:42Z</time></trkpt><trkpt lat="43.91551721468043" lon="12.08125973361608"><ele>580.0</ele><time>2026-04-20T09:57:43Z</time></trkpt><trkpt lat="43.915499724473655" lon="12.081390983982423"><ele>580.0</ele><time>2026-04-20T09:57:44Z</time></trkpt><trkpt lat="43.915480375948555" lon="12.081531217234247"><ele>580.0</ele><time>2026-04-20T09:57:45Z</time></trkpt><trkpt lat="43.915449305427586" lon="12.081671989215316"><ele>580.0</ele><time>2026-04-20T09:57:46Z</time></trkpt><trkpt lat="43.91539571737499" lon="12.081803700913975"><ele>580.0</ele><time>2026-04-20T09:57:47Z</time></trkpt><trkpt lat="43.915336801387205" lon="12.081922341602796"><ele>581.5</ele><time>2026-04-20T09:57:48Z</time></trkpt><trkpt lat="43.91526612943303" lon="12.082056028579574"><ele>583.0</ele><time>2026-04-20T09:57:49Z</time></trkpt><trkpt lat="43.91518874149857" lon="12.082177999781162"><ele>584.5</ele><time>2026-04-20T09:57:50Z</time></trkpt><trkpt lat="43.915115183615704" lon="12.082304825511645"><ele>586.0</ele><time>2026-04-20T09:57:51Z</time></trkpt><trkpt lat="43.915043981593904" lon="12.082426738419564"><ele>582.0</ele><time>2026-04-20T09:57:52Z</time></trkpt><trkpt lat="43.914964855220994" lon="12.082521541115565"><ele>578.0</ele><time>2026-04-20T09:57:53Z</time></trkpt><trkpt lat="43.91488436451895" lon="12.082572667509947"><ele>574.0</ele><time>2026-04-20T09:57:54Z</time></trkpt><trkpt lat="43.91479762850387" lon="12.0825906345196"><ele>570.0</ele><time>2026-04-20T09:57:55Z</time></trkpt><trkpt lat="43.914722367003804" lon="12.082616140357667"><ele>566.0</ele><time>2026-04-20T09:57:56Z</time></trkpt><trkpt lat="43.91466399963553" lon="12.082671224067983"><ele>562.0</ele><time>2026-04-20T09:57:57Z</time></trkpt><trkpt lat="43.91464303200172" lon="12.082832723125088"><ele>562.0</ele><time>2026-04-20T09:57:59Z</time></trkpt><trkpt lat="43.9146702717641" lon="12.082931815000686"><ele>562.0</ele><time>2026-04-20T09:58:00Z</time></trkpt><trkpt lat="43.914751762879554" lon="12.082996575361072"><ele>562.0</ele><time>2026-04-20T09:58:01Z</time></trkpt><trkpt lat="43.9148607644881" lon="12.082980273077704"><ele>562.0</ele><time>2026-04-20T09:58:02Z</time></trkpt><trkpt lat="43.91494952165216" lon="12.082963100318798"><ele>562.0</ele><time>2026-04-20T09:58:03Z</time></trkpt><trkpt lat="43.91503641612288" lon="12.082948333792217"><ele>562.8000000000001</ele><time>2026-04-20T09:58:04Z</time></trkpt><trkpt lat="43.91514143365157" lon="12.082928899523058"><ele>563.6</ele><time>2026-04-20T09:58:05Z</time></trkpt><trkpt lat="43.91524817851997" lon="12.08290674658592"><ele>564.4000000000001</ele><time>2026-04-20T09:58:06Z</time></trkpt><trkpt lat="43.91533049147264" lon="12.082887173623654"><ele>565.2</ele><time>2026-04-20T09:58:07Z</time></trkpt><trkpt lat="43.91540249524254" lon="12.08284340701355"><ele>566.0</ele><time>2026-04-20T09:58:08Z</time></trkpt><trkpt lat="43.9154757954919" lon="12.08282450272509"><ele>566.0</ele><time>2026-04-20T09:58:09Z</time></trkpt><trkpt lat="43.915543018102504" lon="12.082805687579139"><ele>566.0</ele><time>2026-04-20T09:58:10Z</time></trkpt><trkpt lat="43.91560982508985" lon="12.082782802794242"><ele>566.0</ele><time>2026-04-20T09:58:11Z</time></trkpt><trkpt lat="43.915734089879074" lon="12.082740818904535"><ele>566.0</ele><time>2026-04-20T09:58:13Z</time></trkpt><trkpt lat="43.91581980080437" lon="12.082707474211913"><ele>566.0</ele><time>2026-04-20T09:58:14Z</time></trkpt><trkpt lat="43.9159026124278" lon="12.082688628510203"><ele>566.0</ele><time>2026-04-20T09:58:15Z</time></trkpt><trkpt lat="43.91598476211057" lon="12.082699940636399"><ele>567.2</ele><time>2026-04-20T09:58:16Z</time></trkpt><trkpt lat="43.916056519802325" lon="12.082751830632914"><ele>568.4000000000001</ele><time>2026-04-20T09:58:17Z</time></trkpt><trkpt lat="43.91610698319781" lon="12.082816925494207"><ele>569.6</ele><time>2026-04-20T09:58:18Z</time></trkpt><trkpt lat="43.91613673401256" lon="12.082941345801883"><ele>570.8000000000001</ele><time>2026-04-20T09:58:19Z</time></trkpt><trkpt lat="43.91618246006245" lon="12.083062166325124"><ele>572.0</ele><time>2026-04-20T09:58:20Z</time></trkpt><trkpt lat="43.91623033990865" lon="12.083203579945371"><ele>566.75</ele><time>2026-04-20T09:58:21Z</time></trkpt><trkpt lat="43.91628766512775" lon="12.083354143024716"><ele>561.5</ele><time>2026-04-20T09:58:22Z</time></trkpt><trkpt lat="43.916352845722756" lon="12.083483306246883"><ele>556.25</ele><time>2026-04-20T09:58:23Z</time></trkpt><trkpt lat="43.91641999809126" lon="12.083599213037395"><ele>551.0</ele><time>2026-04-20T09:58:24Z</time></trkpt><trkpt lat="43.9164911329162" lon="12.083714590278781"><ele>551.0</ele><time>2026-04-20T09:58:25Z</time></trkpt><trkpt lat="43.91656181892097" lon="12.08380776829037"><ele>551.0</ele><time>2026-04-20T09:58:26Z</time></trkpt><trkpt lat="43.91660568005708" lon="12.08390333591156"><ele>551.0</ele><time>2026-04-20T09:58:27Z</time></trkpt><trkpt lat="43.91663306729427" lon="12.08402742240484"><ele>551.0</ele><time>2026-04-20T09:58:28Z</time></trkpt><trkpt lat="43.91665715747134" lon="12.084171670733625"><ele>551.0</ele><time>2026-04-20T09:58:29Z</time></trkpt><trkpt lat="43.91669024134623" lon="12.084335073006349"><ele>549.4</ele><time>2026-04-20T09:58:30Z</time></trkpt><trkpt lat="43.91668619965881" lon="12.084498116148103"><ele>547.8</ele><time>2026-04-20T09:58:31Z</time></trkpt><trkpt lat="43.916720784021955" lon="12.084640359690775"><ele>546.1999999999999</ele><time>2026-04-20T09:58:32Z</time></trkpt><trkpt lat="43.916746211736175" lon="12.084760920723106"><ele>544.6</ele><time>2026-04-20T09:58:33Z</time></trkpt><trkpt lat="43.91678008259687" lon="12.084882301657945"><ele>543.0</ele><time>2026-04-20T09:58:34Z</time></trkpt><trkpt lat="43.916846660957894" lon="12.084985008226141"><ele>543.0</ele><time>2026-04-20T09:58:35Z</time></trkpt><trkpt lat="43.91691457316953" lon="12.085016738220368"><ele>543.0</ele><time>2026-04-20T09:58:36Z</time></trkpt><trkpt lat="43.91695077857877" lon="12.085097625169896"><ele>543.0</ele><time>2026-04-20T09:58:37Z</time></trkpt><trkpt lat="43.91691887430602" lon="12.085210580188738"><ele>543.0</ele><time>2026-04-20T09:58:39Z</time></trkpt><trkpt lat="43.916796060693585" lon="12.085206159122718"><ele>543.0</ele><time>2026-04-20T09:58:41Z</time></trkpt><trkpt lat="43.91675317801177" lon="12.085126065093565"><ele>543.0</ele><time>2026-04-20T09:58:42Z</time></trkpt><trkpt lat="43.91669958604628" lon="12.085027798891087"><ele>542.3333333333334</ele><time>2026-04-20T09:58:43Z</time></trkpt><trkpt lat="43.91664110234533" lon="12.084926576505499"><ele>541.6666666666666</ele><time>2026-04-20T09:58:44Z</time></trkpt><trkpt lat="43.916579009913576" lon="12.084848616833582"><ele>541.0</ele><time>2026-04-20T09:58:45Z</time></trkpt><trkpt lat="43.91653579693253" lon="12.084768812683143"><ele>540.3333333333333</ele><time>2026-04-20T09:58:46Z</time></trkpt><trkpt lat="43.916485195842185" lon="12.084707207468707"><ele>539.6666666666666</ele><time>2026-04-20T09:58:47Z</time></trkpt><trkpt lat="43.91643925659565" lon="12.084618853135787"><ele>539.0</ele><time>2026-04-20T09:58:48Z</time></trkpt><trkpt lat="43.91637702828169" lon="12.084544752491036"><ele>539.0</ele><time>2026-04-20T09:58:49Z</time></trkpt><trkpt lat="43.916316202641454" lon="12.084487134549368"><ele>539.0</ele><time>2026-04-20T09:58:50Z</time></trkpt><trkpt lat="43.91626069454062" lon="12.084425955072014"><ele>539.0</ele><time>2026-04-20T09:58:51Z</time></trkpt><trkpt lat="43.9162002744436" lon="12.084366382588499"><ele>539.0</ele><time>2026-04-20T09:58:52Z</time></trkpt><trkpt lat="43.91615548596079" lon="12.084299529385927"><ele>539.0</ele><time>2026-04-20T09:58:53Z</time></trkpt><trkpt lat="43.91608370631178" lon="12.08424396028957"><ele>539.0</ele><time>2026-04-20T09:58:54Z</time></trkpt><trkpt lat="43.91602393074272" lon="12.0841709022705"><ele>539.0</ele><time>2026-04-20T09:58:55Z</time></trkpt><trkpt lat="43.91596579950654" lon="12.08407743151248"><ele>539.4</ele><time>2026-04-20T09:58:56Z</time></trkpt><trkpt lat="43.915912872307125" lon="12.08401801489704"><ele>539.8</ele><time>2026-04-20T09:58:57Z</time></trkpt><trkpt lat="43.91579025189277" lon="12.084022366679497"><ele>540.2</ele><time>2026-04-20T09:58:59Z</time></trkpt><trkpt lat="43.91574845167094" lon="12.084124949321975"><ele>540.6</ele><time>2026-04-20T09:59:00Z</time></trkpt><trkpt lat="43.9157552623921" lon="12.084249299704286"><ele>541.0</ele><time>2026-04-20T09:59:01Z</time></trkpt><trkpt lat="43.91579798434382" lon="12.084381418903916"><ele>540.6666666666667</ele><time>2026-04-20T09:59:02Z</time></trkpt><trkpt lat="43.91581999469773" lon="12.084499115646189"><ele>540.3333333333334</ele><time>2026-04-20T09:59:03Z</time></trkpt><trkpt lat="43.91584022250794" lon="12.084628432501853"><ele>540.0</ele><time>2026-04-20T09:59:04Z</time></trkpt><trkpt lat="43.915857098994614" lon="12.084776276954017"><ele>539.6666666666666</ele><time>2026-04-20T09:59:05Z</time></trkpt><trkpt lat="43.915919576372296" lon="12.084814978103678"><ele>539.3333333333333</ele><time>2026-04-20T09:59:06Z</time></trkpt><trkpt lat="43.91597501358247" lon="12.084898026620667"><ele>539.0</ele><time>2026-04-20T09:59:07Z</time></trkpt><trkpt lat="43.91603367305425" lon="12.084978857118836"><ele>536.8333333333333</ele><time>2026-04-20T09:59:08Z</time></trkpt><trkpt lat="43.916106483065036" lon="12.08504887836667"><ele>534.6666666666666</ele><time>2026-04-20T09:59:09Z</time></trkpt><trkpt lat="43.91618138905314" lon="12.085110771059231"><ele>532.5</ele><time>2026-04-20T09:59:10Z</time></trkpt><trkpt lat="43.91626017673333" lon="12.085165598958048"><ele>530.3333333333334</ele><time>2026-04-20T09:59:11Z</time></trkpt><trkpt lat="43.91633651515132" lon="12.08521081325993"><ele>528.1666666666667</ele><time>2026-04-20T09:59:12Z</time></trkpt><trkpt lat="43.916396396428766" lon="12.08528151043369"><ele>526.0</ele><time>2026-04-20T09:59:13Z</time></trkpt><trkpt lat="43.916434045894164" lon="12.085353776974241"><ele>526.0</ele><time>2026-04-20T09:59:14Z</time></trkpt><trkpt lat="43.916404586303415" lon="12.085477927867407"><ele>526.0</ele><time>2026-04-20T09:59:16Z</time></trkpt><trkpt lat="43.916293984818765" lon="12.085498982319704"><ele>526.0</ele><time>2026-04-20T09:59:18Z</time></trkpt><trkpt lat="43.91623089213282" lon="12.08542387212247"><ele>526.0</ele><time>2026-04-20T09:59:19Z</time></trkpt><trkpt lat="43.91614986277222" lon="12.08535131418679"><ele>526.0</ele><time>2026-04-20T09:59:20Z</time></trkpt><trkpt lat="43.91606167897299" lon="12.08530714652796"><ele>526.0</ele><time>2026-04-20T09:59:21Z</time></trkpt><trkpt lat="43.91597127297975" lon="12.085259873998558"><ele>526.0</ele><time>2026-04-20T09:59:22Z</time></trkpt><trkpt lat="43.915877807010524" lon="12.085237203089061"><ele>526.0</ele><time>2026-04-20T09:59:23Z</time></trkpt><trkpt lat="43.91579323101215" lon="12.085218509205678"><ele>526.0</ele><time>2026-04-20T09:59:24Z</time></trkpt><trkpt lat="43.91569660747618" lon="12.085216773764312"><ele>526.0</ele><time>2026-04-20T09:59:25Z</time></trkpt><trkpt lat="43.91559478369755" lon="12.085200375310574"><ele>524.6</ele><time>2026-04-20T09:59:26Z</time></trkpt><trkpt lat="43.91550420719723" lon="12.085189118813117"><ele>523.2</ele><time>2026-04-20T09:59:27Z</time></trkpt><trkpt lat="43.915428285541616" lon="12.085173965450892"><ele>521.8</ele><time>2026-04-20T09:59:28Z</time></trkpt><trkpt lat="43.915352965337036" lon="12.08507617338488"><ele>520.4</ele><time>2026-04-20T09:59:30Z</time></trkpt><trkpt lat="43.91530645922054" lon="12.084940488758926"><ele>519.0</ele><time>2026-04-20T09:59:32Z</time></trkpt><trkpt lat="43.915273302789956" lon="12.084816414021144"><ele>519.0</ele><time>2026-04-20T09:59:34Z</time></trkpt><trkpt lat="43.91525479450173" lon="12.084722396226006"><ele>519.0</ele><time>2026-04-20T09:59:35Z</time></trkpt><trkpt lat="43.915226087384134" lon="12.084607266936604"><ele>519.0</ele><time>2026-04-20T09:59:36Z</time></trkpt><trkpt lat="43.91518047356746" lon="12.084490329648396"><ele>519.0</ele><time>2026-04-20T09:59:37Z</time></trkpt><trkpt lat="43.91512941099635" lon="12.08439417197352"><ele>519.0</ele><time>2026-04-20T09:59:38Z</time></trkpt><trkpt lat="43.91506671016849" lon="12.084317279041318"><ele>519.0</ele><time>2026-04-20T09:59:39Z</time></trkpt><trkpt lat="43.91499637900169" lon="12.08426917144884"><ele>515.6</ele><time>2026-04-20T09:59:40Z</time></trkpt><trkpt lat="43.914895577213485" lon="12.084267687819578"><ele>512.2</ele><time>2026-04-20T09:59:41Z</time></trkpt><trkpt lat="43.91480460223489" lon="12.084264801769173"><ele>508.80000000000007</ele><time>2026-04-20T09:59:42Z</time></trkpt><trkpt lat="43.9147114486554" lon="12.084268062073019"><ele>505.40000000000003</ele><time>2026-04-20T09:59:43Z</time></trkpt><trkpt lat="43.91459549270529" lon="12.084275000347391"><ele>502.0</ele><time>2026-04-20T09:59:44Z</time></trkpt><trkpt lat="43.91446759530774" lon="12.084282892819957"><ele>502.0</ele><time>2026-04-20T09:59:45Z</time></trkpt><trkpt lat="43.91435504188714" lon="12.084287997454117"><ele>502.00000000000006</ele><time>2026-04-20T09:59:46Z</time></trkpt><trkpt lat="43.914246774388296" lon="12.08429229293202"><ele>502.00000000000006</ele><time>2026-04-20T09:59:47Z</time></trkpt><trkpt lat="43.914136108371935" lon="12.084296683573005"><ele>502.0</ele><time>2026-04-20T09:59:48Z</time></trkpt><trkpt lat="43.91403872704255" lon="12.08430054714387"><ele>502.0</ele><time>2026-04-20T09:59:49Z</time></trkpt><trkpt lat="43.913936485483994" lon="12.084303524357962"><ele>499.6</ele><time>2026-04-20T09:59:50Z</time></trkpt><trkpt lat="43.91384162090844" lon="12.084329171236895"><ele>497.20000000000005</ele><time>2026-04-20T09:59:51Z</time></trkpt><trkpt lat="43.91373597354466" lon="12.08435406242229"><ele>494.8</ele><time>2026-04-20T09:59:52Z</time></trkpt><trkpt lat="43.91364553987142" lon="12.084392048533022"><ele>492.4</ele><time>2026-04-20T09:59:53Z</time></trkpt><trkpt lat="43.91355728721191" lon="12.084453559972628"><ele>490.0</ele><time>2026-04-20T09:59:54Z</time></trkpt><trkpt lat="43.91347623420706" lon="12.084496092065313"><ele>488.33333333333337</ele><time>2026-04-20T09:59:55Z</time></trkpt><trkpt lat="43.91339379444874" lon="12.08451686943179"><ele>486.6666666666667</ele><time>2026-04-20T09:59:56Z</time></trkpt><trkpt lat="43.91332712958531" lon="12.08448818826702"><ele>485.0</ele><time>2026-04-20T09:59:57Z</time></trkpt><trkpt lat="43.91327330363606" lon="12.084419172751348"><ele>483.33333333333337</ele><time>2026-04-20T09:59:58Z</time></trkpt><trkpt lat="43.91323819221331" lon="12.084315365811543"><ele>481.6666666666667</ele><time>2026-04-20T09:59:59Z</time></trkpt><trkpt lat="43.91326012159104" lon="12.084204923548086"><ele>480.0</ele><time>2026-04-20T10:00:00Z</time></trkpt><trkpt lat="43.91329335050829" lon="12.08407956792084"><ele>480.0</ele><time>2026-04-20T10:00:01Z</time></trkpt><trkpt lat="43.9133146479214" lon="12.083940594018882"><ele>480.0</ele><time>2026-04-20T10:00:02Z</time></trkpt><trkpt lat="43.913334397875055" lon="12.083811799390542"><ele>480.0</ele><time>2026-04-20T10:00:03Z</time></trkpt><trkpt lat="43.913336948847686" lon="12.083664540090657"><ele>480.0</ele><time>2026-04-20T10:00:04Z</time></trkpt><trkpt lat="43.91326613107045" lon="12.083524329566611"><ele>480.0</ele><time>2026-04-20T10:00:05Z</time></trkpt><trkpt lat="43.913199804227595" lon="12.083390728665394"><ele>479.6</ele><time>2026-04-20T10:00:06Z</time></trkpt><trkpt lat="43.91313871189817" lon="12.083248115702155"><ele>479.2</ele><time>2026-04-20T10:00:07Z</time></trkpt><trkpt lat="43.91308820736763" lon="12.083106616734131"><ele>478.79999999999995</ele><time>2026-04-20T10:00:08Z</time></trkpt><trkpt lat="43.91305666199314" lon="12.082985695490795"><ele>478.4</ele><time>2026-04-20T10:00:09Z</time></trkpt><trkpt lat="43.91303964736012" lon="12.082870224343447"><ele>478.0</ele><time>2026-04-20T10:00:10Z</time></trkpt><trkpt lat="43.913040091479246" lon="12.082766957489772"><ele>478.0</ele><time>2026-04-20T10:00:11Z</time></trkpt><trkpt lat="43.91305953360938" lon="12.082638514724309"><ele>477.99999999999994</ele><time>2026-04-20T10:00:12Z</time></trkpt><trkpt lat="43.91306659617212" lon="12.082501745901173"><ele>477.99999999999994</ele><time>2026-04-20T10:00:13Z</time></trkpt><trkpt lat="43.913025779361355" lon="12.082331435806168"><ele>478.0</ele><time>2026-04-20T10:00:14Z</time></trkpt><trkpt lat="43.913004810515424" lon="12.082172313184381"><ele>478.0</ele><time>2026-04-20T10:00:15Z</time></trkpt><trkpt lat="43.912969221939996" lon="12.082032970278103"><ele>477.79999999999995</ele><time>2026-04-20T10:00:16Z</time></trkpt><trkpt lat="43.91294698200018" lon="12.081902728495294"><ele>477.59999999999997</ele><time>2026-04-20T10:00:17Z</time></trkpt><trkpt lat="43.91293677791887" lon="12.081766691922311"><ele>477.40000000000003</ele><time>2026-04-20T10:00:18Z</time></trkpt><trkpt lat="43.91294813505526" lon="12.081634033099533"><ele>477.20000000000005</ele><time>2026-04-20T10:00:19Z</time></trkpt><trkpt lat="43.91299230081491" lon="12.081498203100711"><ele>477.0</ele><time>2026-04-20T10:00:20Z</time></trkpt><trkpt lat="43.91304878695823" lon="12.081381970572322"><ele>476.6</ele><time>2026-04-20T10:00:21Z</time></trkpt><trkpt lat="43.91309848976646" lon="12.081257886049144"><ele>476.20000000000005</ele><time>2026-04-20T10:00:22Z</time></trkpt><trkpt lat="43.91311813276296" lon="12.08116663235776"><ele>475.8</ele><time>2026-04-20T10:00:23Z</time></trkpt><trkpt lat="43.91303258468379" lon="12.08100651693685"><ele>475.4</ele><time>2026-04-20T10:00:25Z</time></trkpt><trkpt lat="43.91294567364116" lon="12.0809799164229"><ele>475.0</ele><time>2026-04-20T10:00:26Z</time></trkpt><trkpt lat="43.91287025759005" lon="12.081006202393757"><ele>475.0</ele><time>2026-04-20T10:00:27Z</time></trkpt><trkpt lat="43.91281734038052" lon="12.081117029144018"><ele>475.0</ele><time>2026-04-20T10:00:28Z</time></trkpt><trkpt lat="43.91276315636777" lon="12.081205232108196"><ele>475.0</ele><time>2026-04-20T10:00:29Z</time></trkpt><trkpt lat="43.912699024758425" lon="12.081309142766155"><ele>475.0</ele><time>2026-04-20T10:00:30Z</time></trkpt><trkpt lat="43.9126331345166" lon="12.081434522163239"><ele>475.0</ele><time>2026-04-20T10:00:31Z</time></trkpt><trkpt lat="43.9125645889513" lon="12.081577570696643"><ele>472.0</ele><time>2026-04-20T10:00:32Z</time></trkpt><trkpt lat="43.912514355705284" lon="12.08173340616738"><ele>469.0</ele><time>2026-04-20T10:00:33Z</time></trkpt><trkpt lat="43.91248064670541" lon="12.081913581876687"><ele>466.0</ele><time>2026-04-20T10:00:34Z</time></trkpt><trkpt lat="43.91245203913329" lon="12.082104905039285"><ele>463.0</ele><time>2026-04-20T10:00:35Z</time></trkpt><trkpt lat="43.9124260475022" lon="12.082297831341366"><ele>460.25</ele><time>2026-04-20T10:00:36Z</time></trkpt><trkpt lat="43.912364966812966" lon="12.082481668221508"><ele>457.5</ele><time>2026-04-20T10:00:37Z</time></trkpt><trkpt lat="43.91231465875116" lon="12.082679836660127"><ele>454.75</ele><time>2026-04-20T10:00:38Z</time></trkpt><trkpt lat="43.91227153691551" lon="12.082876674952507"><ele>452.0</ele><time>2026-04-20T10:00:39Z</time></trkpt><trkpt lat="43.91224014084142" lon="12.083062803490993"><ele>452.0</ele><time>2026-04-20T10:00:40Z</time></trkpt><trkpt lat="43.912237805914025" lon="12.08324484167853"><ele>452.0</ele><time>2026-04-20T10:00:41Z</time></trkpt><trkpt lat="43.91222574706367" lon="12.083426742259409"><ele>452.0</ele><time>2026-04-20T10:00:42Z</time></trkpt><trkpt lat="43.912211925089466" lon="12.083581040752085"><ele>452.0</ele><time>2026-04-20T10:00:43Z</time></trkpt><trkpt lat="43.91218325776838" lon="12.083706117277066"><ele>450.99999999999994</ele><time>2026-04-20T10:00:44Z</time></trkpt><trkpt lat="43.91211990768573" lon="12.083794016834323"><ele>450.0</ele><time>2026-04-20T10:00:45Z</time></trkpt><trkpt lat="43.912061973517794" lon="12.08387206508903"><ele>449.0</ele><time>2026-04-20T10:00:46Z</time></trkpt><trkpt lat="43.91204403201019" lon="12.083962040718042"><ele>448.0</ele><time>2026-04-20T10:00:47Z</time></trkpt><trkpt lat="43.91202446186074" lon="12.084055041488789"><ele>446.99999999999994</ele><time>2026-04-20T10:00:48Z</time></trkpt><trkpt lat="43.91208076375574" lon="12.084164996182832"><ele>446.0</ele><time>2026-04-20T10:00:49Z</time></trkpt><trkpt lat="43.91218485016081" lon="12.084235675525036"><ele>445.4</ele><time>2026-04-20T10:00:50Z</time></trkpt><trkpt lat="43.91227313325143" lon="12.084333778735925"><ele>444.8</ele><time>2026-04-20T10:00:51Z</time></trkpt><trkpt lat="43.91232701083331" lon="12.08443417030085"><ele>444.19999999999993</ele><time>2026-04-20T10:00:52Z</time></trkpt><trkpt lat="43.91235389266152" lon="12.084556527691735"><ele>443.59999999999997</ele><time>2026-04-20T10:00:53Z</time></trkpt><trkpt lat="43.91229941976247" lon="12.084661074881373"><ele>443.0</ele><time>2026-04-20T10:00:54Z</time></trkpt><trkpt lat="43.91225241828204" lon="12.084743681138901"><ele>443.0</ele><time>2026-04-20T10:00:55Z</time></trkpt><trkpt lat="43.91216555509509" lon="12.084835991142537"><ele>442.99999999999994</ele><time>2026-04-20T10:00:56Z</time></trkpt><trkpt lat="43.91205627006759" lon="12.08491017508603"><ele>442.99999999999994</ele><time>2026-04-20T10:00:57Z</time></trkpt><trkpt lat="43.911979094008096" lon="12.084985235966391"><ele>443.0</ele><time>2026-04-20T10:00:58Z</time></trkpt><trkpt lat="43.91194424582299" lon="12.085074012795243"><ele>443.0</ele><time>2026-04-20T10:00:59Z</time></trkpt><trkpt lat="43.91194424829513" lon="12.085168325004748"><ele>441.4</ele><time>2026-04-20T10:01:00Z</time></trkpt><trkpt lat="43.91202166688443" lon="12.085262254290104"><ele>439.79999999999995</ele><time>2026-04-20T10:01:01Z</time></trkpt><trkpt lat="43.91210281900059" lon="12.08533962076519"><ele>438.2</ele><time>2026-04-20T10:01:02Z</time></trkpt><trkpt lat="43.91218073784828" lon="12.085413440763823"><ele>436.6</ele><time>2026-04-20T10:01:03Z</time></trkpt><trkpt lat="43.9122125007804" lon="12.085547936803538"><ele>435.0</ele><time>2026-04-20T10:01:04Z</time></trkpt><trkpt lat="43.912221279305456" lon="12.085677948175405"><ele>434.2</ele><time>2026-04-20T10:01:05Z</time></trkpt><trkpt lat="43.91221427448125" lon="12.085813034671505"><ele>433.4</ele><time>2026-04-20T10:01:06Z</time></trkpt><trkpt lat="43.91220396035707" lon="12.085931835281004"><ele>432.6</ele><time>2026-04-20T10:01:07Z</time></trkpt><trkpt lat="43.91214454588739" lon="12.08604700143407"><ele>431.8</ele><time>2026-04-20T10:01:08Z</time></trkpt><trkpt lat="43.9120986753924" lon="12.086177015526394"><ele>431.0</ele><time>2026-04-20T10:01:09Z</time></trkpt><trkpt lat="43.912073486206424" lon="12.086338299377884"><ele>431.0</ele><time>2026-04-20T10:01:10Z</time></trkpt><trkpt lat="43.912051292635624" lon="12.086518983556608"><ele>431.0</ele><time>2026-04-20T10:01:11Z</time></trkpt><trkpt lat="43.91201499378037" lon="12.086727975318317"><ele>431.0</ele><time>2026-04-20T10:01:12Z</time></trkpt><trkpt lat="43.911960259972275" lon="12.086929006004999"><ele>431.0</ele><time>2026-04-20T10:01:13Z</time></trkpt><trkpt lat="43.91192321455167" lon="12.087125151720777"><ele>431.6</ele><time>2026-04-20T10:01:14Z</time></trkpt><trkpt lat="43.911900943226485" lon="12.087293029606945"><ele>432.20000000000005</ele><time>2026-04-20T10:01:15Z</time></trkpt><trkpt lat="43.911896849416955" lon="12.08742092664388"><ele>432.79999999999995</ele><time>2026-04-20T10:01:16Z</time></trkpt><trkpt lat="43.91192159142998" lon="12.087534660796932"><ele>433.4</ele><time>2026-04-20T10:01:17Z</time></trkpt><trkpt lat="43.91199841088883" lon="12.087627981546751"><ele>434.0</ele><time>2026-04-20T10:01:18Z</time></trkpt><trkpt lat="43.912098595232344" lon="12.087710639877837"><ele>437.0</ele><time>2026-04-20T10:01:19Z</time></trkpt><trkpt lat="43.91220462914048" lon="12.087742102323428"><ele>440.0</ele><time>2026-04-20T10:01:20Z</time></trkpt><trkpt lat="43.91233619181455" lon="12.08773880144221"><ele>443.0</ele><time>2026-04-20T10:01:21Z</time></trkpt><trkpt lat="43.91247019630409" lon="12.087718962546521"><ele>446.0</ele><time>2026-04-20T10:01:22Z</time></trkpt><trkpt lat="43.91261975493162" lon="12.087699998683583"><ele>441.99999999999994</ele><time>2026-04-20T10:01:23Z</time></trkpt><trkpt lat="43.91275131457701" lon="12.087695536646049"><ele>438.0</ele><time>2026-04-20T10:01:24Z</time></trkpt><trkpt lat="43.91284893230876" lon="12.087742105388482"><ele>434.0</ele><time>2026-04-20T10:01:25Z</time></trkpt><trkpt lat="43.912914636509946" lon="12.08775859380247"><ele>430.0</ele><time>2026-04-20T10:01:26Z</time></trkpt><trkpt lat="43.912956922144765" lon="12.0878310228302"><ele>425.99999999999994</ele><time>2026-04-20T10:01:27Z</time></trkpt><trkpt lat="43.912979160184776" lon="12.087927009316934"><ele>422.0</ele><time>2026-04-20T10:01:28Z</time></trkpt><trkpt lat="43.91295485111333" lon="12.088049017015598"><ele>422.0</ele><time>2026-04-20T10:01:29Z</time></trkpt><trkpt lat="43.91291822729984" lon="12.088182268754094"><ele>422.0</ele><time>2026-04-20T10:01:30Z</time></trkpt><trkpt lat="43.91290753493753" lon="12.088341872797109"><ele>422.0</ele><time>2026-04-20T10:01:31Z</time></trkpt><trkpt lat="43.912922991325686" lon="12.088514562424798"><ele>422.0</ele><time>2026-04-20T10:01:32Z</time></trkpt><trkpt lat="43.91301180328147" lon="12.088655744794888"><ele>426.5</ele><time>2026-04-20T10:01:33Z</time></trkpt><trkpt lat="43.91306089098887" lon="12.088806833798918"><ele>431.0</ele><time>2026-04-20T10:01:34Z</time></trkpt><trkpt lat="43.9130951547857" lon="12.08897310380828"><ele>435.5</ele><time>2026-04-20T10:01:35Z</time></trkpt><trkpt lat="43.913090596763915" lon="12.089156210247912"><ele>440.0</ele><time>2026-04-20T10:01:36Z</time></trkpt><trkpt lat="43.91307519907736" lon="12.089361178172105"><ele>440.0</ele><time>2026-04-20T10:01:37Z</time></trkpt><trkpt lat="43.91305441302735" lon="12.08958442992536"><ele>440.0</ele><time>2026-04-20T10:01:38Z</time></trkpt><trkpt lat="43.913028486609925" lon="12.089786074179608"><ele>440.0</ele><time>2026-04-20T10:01:39Z</time></trkpt><trkpt lat="43.91303238690229" lon="12.089952317572216"><ele>440.0</ele><time>2026-04-20T10:01:40Z</time></trkpt><trkpt lat="43.913019111840164" lon="12.090117334851016"><ele>440.0</ele><time>2026-04-20T10:01:41Z</time></trkpt><trkpt lat="43.913056949496855" lon="12.090295828564173"><ele>440.0</ele><time>2026-04-20T10:01:42Z</time></trkpt><trkpt lat="43.913066008095484" lon="12.09044627500069"><ele>440.0</ele><time>2026-04-20T10:01:43Z</time></trkpt><trkpt lat="43.91304845707586" lon="12.090605156033888"><ele>440.0</ele><time>2026-04-20T10:01:44Z</time></trkpt><trkpt lat="43.913024307479674" lon="12.090780537767769"><ele>438.0</ele><time>2026-04-20T10:01:45Z</time></trkpt><trkpt lat="43.912988727846965" lon="12.090943406458106"><ele>436.0</ele><time>2026-04-20T10:01:46Z</time></trkpt><trkpt lat="43.91294533188184" lon="12.091095393132733"><ele>434.0</ele><time>2026-04-20T10:01:47Z</time></trkpt><trkpt lat="43.912882496930465" lon="12.091239480835771"><ele>432.0</ele><time>2026-04-20T10:01:48Z</time></trkpt><trkpt lat="43.912804736931925" lon="12.091384020180287"><ele>432.0</ele><time>2026-04-20T10:01:49Z</time></trkpt><trkpt lat="43.912734430037865" lon="12.091501765445702"><ele>432.00000000000006</ele><time>2026-04-20T10:01:50Z</time></trkpt><trkpt lat="43.91269157733501" lon="12.091605766421571"><ele>432.00000000000006</ele><time>2026-04-20T10:01:51Z</time></trkpt><trkpt lat="43.91264866051817" lon="12.091694349988122"><ele>432.0</ele><time>2026-04-20T10:01:52Z</time></trkpt><trkpt lat="43.91264765107164" lon="12.09180273770028"><ele>432.0</ele><time>2026-04-20T10:01:53Z</time></trkpt><trkpt lat="43.91273141971175" lon="12.091927742491523"><ele>429.8</ele><time>2026-04-20T10:01:54Z</time></trkpt><trkpt lat="43.91280631307926" lon="12.09204029297928"><ele>427.6</ele><time>2026-04-20T10:01:55Z</time></trkpt><trkpt lat="43.912868516875" lon="12.092137004969217"><ele>425.40000000000003</ele><time>2026-04-20T10:01:56Z</time></trkpt><trkpt lat="43.91292122362294" lon="12.092220900653691"><ele>423.20000000000005</ele><time>2026-04-20T10:01:57Z</time></trkpt><trkpt lat="43.91297290380971" lon="12.092326349079876"><ele>421.0</ele><time>2026-04-20T10:01:58Z</time></trkpt><trkpt lat="43.91301329689746" lon="12.092466826602202"><ele>420.50000000000006</ele><time>2026-04-20T10:01:59Z</time></trkpt><trkpt lat="43.91303339837655" lon="12.092612978029969"><ele>420.0</ele><time>2026-04-20T10:02:00Z</time></trkpt><trkpt lat="43.91301679003796" lon="12.092726290426887"><ele>419.5</ele><time>2026-04-20T10:02:01Z</time></trkpt><trkpt lat="43.91298388654841" lon="12.092823310797298"><ele>419.0</ele><time>2026-04-20T10:02:02Z</time></trkpt><trkpt lat="43.91294337811077" lon="12.092903515105887"><ele>418.50000000000006</ele><time>2026-04-20T10:02:03Z</time></trkpt><trkpt lat="43.91289798881016" lon="12.093000531858268"><ele>418.0</ele><time>2026-04-20T10:02:04Z</time></trkpt><trkpt lat="43.912874845548494" lon="12.09309931754938"><ele>418.00000000000006</ele><time>2026-04-20T10:02:05Z</time></trkpt><trkpt lat="43.91285342192755" lon="12.093189050063344"><ele>418.0</ele><time>2026-04-20T10:02:06Z</time></trkpt><trkpt lat="43.91287166435331" lon="12.093282068818054"><ele>418.0</ele><time>2026-04-20T10:02:07Z</time></trkpt><trkpt lat="43.912917758400916" lon="12.093388533168246"><ele>418.0</ele><time>2026-04-20T10:02:08Z</time></trkpt><trkpt lat="43.91295519049113" lon="12.093529378561414"><ele>418.00000000000006</ele><time>2026-04-20T10:02:09Z</time></trkpt><trkpt lat="43.912988629347765" lon="12.093661241619817"><ele>418.0</ele><time>2026-04-20T10:02:10Z</time></trkpt><trkpt lat="43.91301602689278" lon="12.093775661642324"><ele>417.5</ele><time>2026-04-20T10:02:11Z</time></trkpt><trkpt lat="43.91303546672473" lon="12.093894917109747"><ele>417.0</ele><time>2026-04-20T10:02:12Z</time></trkpt><trkpt lat="43.91303943049474" lon="12.094030923693886"><ele>416.5</ele><time>2026-04-20T10:02:13Z</time></trkpt><trkpt lat="43.91307660536626" lon="12.094228647429684"><ele>416.0</ele><time>2026-04-20T10:02:14Z</time></trkpt><trkpt lat="43.913086890501525" lon="12.094426323465418"><ele>416.0</ele><time>2026-04-20T10:02:15Z</time></trkpt><trkpt lat="43.91311620945016" lon="12.094600947644722"><ele>416.0</ele><time>2026-04-20T10:02:16Z</time></trkpt><trkpt lat="43.91313706089156" lon="12.094769116560576"><ele>416.0</ele><time>2026-04-20T10:02:17Z</time></trkpt><trkpt lat="43.91312305102217" lon="12.09492958201484"><ele>416.0</ele><time>2026-04-20T10:02:18Z</time></trkpt><trkpt lat="43.91311338821501" lon="12.095082551954333"><ele>415.3333333333333</ele><time>2026-04-20T10:02:19Z</time></trkpt><trkpt lat="43.9130930520894" lon="12.09519947853238"><ele>414.66666666666663</ele><time>2026-04-20T10:02:20Z</time></trkpt><trkpt lat="43.91305234511623" lon="12.095325591789198"><ele>414.0</ele><time>2026-04-20T10:02:21Z</time></trkpt><trkpt lat="43.913002485297234" lon="12.095418976792335"><ele>413.33333333333337</ele><time>2026-04-20T10:02:22Z</time></trkpt><trkpt lat="43.91294604171634" lon="12.095496196463973"><ele>412.6666666666667</ele><time>2026-04-20T10:02:23Z</time></trkpt><trkpt lat="43.91287489680124" lon="12.095562846323128"><ele>412.0</ele><time>2026-04-20T10:02:24Z</time></trkpt><trkpt lat="43.91277987613536" lon="12.095602813650807"><ele>412.00000000000006</ele><time>2026-04-20T10:02:25Z</time></trkpt><trkpt lat="43.912674038655176" lon="12.095623463865312"><ele>412.0</ele><time>2026-04-20T10:02:26Z</time></trkpt><trkpt lat="43.91259666320214" lon="12.095644510801561"><ele>412.0</ele><time>2026-04-20T10:02:27Z</time></trkpt><trkpt lat="43.912538039891324" lon="12.095684731401326"><ele>412.0</ele><time>2026-04-20T10:02:28Z</time></trkpt><trkpt lat="43.91250629901201" lon="12.095774204750109"><ele>412.00000000000006</ele><time>2026-04-20T10:02:29Z</time></trkpt><trkpt lat="43.91246331413751" lon="12.095868655555588"><ele>412.0</ele><time>2026-04-20T10:02:30Z</time></trkpt><trkpt lat="43.91249385214613" lon="12.096030064294947"><ele>407.6</ele><time>2026-04-20T10:02:31Z</time></trkpt><trkpt lat="43.91257149026349" lon="12.096189687746364"><ele>403.20000000000005</ele><time>2026-04-20T10:02:32Z</time></trkpt><trkpt lat="43.912614713522444" lon="12.096303314527018"><ele>398.8</ele><time>2026-04-20T10:02:33Z</time></trkpt><trkpt lat="43.912719662979576" lon="12.096349021416339"><ele>394.4</ele><time>2026-04-20T10:02:34Z</time></trkpt><trkpt lat="43.912701576009646" lon="12.096435129816067"><ele>390.0</ele><time>2026-04-20T10:02:35Z</time></trkpt><trkpt lat="43.91264761803984" lon="12.096543309205094"><ele>384.75</ele><time>2026-04-20T10:02:36Z</time></trkpt><trkpt lat="43.912578214819" lon="12.096675996514053"><ele>379.5</ele><time>2026-04-20T10:02:37Z</time></trkpt><trkpt lat="43.912498618855466" lon="12.09681985188727"><ele>374.25</ele><time>2026-04-20T10:02:38Z</time></trkpt><trkpt lat="43.91241927749837" lon="12.096974199392783"><ele>369.0</ele><time>2026-04-20T10:02:39Z</time></trkpt><trkpt lat="43.91233608507764" lon="12.097139092208572"><ele>372.25</ele><time>2026-04-20T10:02:40Z</time></trkpt><trkpt lat="43.91226087618049" lon="12.097277936942996"><ele>375.5</ele><time>2026-04-20T10:02:41Z</time></trkpt><trkpt lat="43.912194927890134" lon="12.097407816398682"><ele>378.75</ele><time>2026-04-20T10:02:42Z</time></trkpt><trkpt lat="43.91213604661541" lon="12.097547640643366"><ele>382.0</ele><time>2026-04-20T10:02:43Z</time></trkpt><trkpt lat="43.912089882118416" lon="12.097685263885381"><ele>382.0</ele><time>2026-04-20T10:02:44Z</time></trkpt><trkpt lat="43.91204662829743" lon="12.09782114020769"><ele>382.0</ele><time>2026-04-20T10:02:45Z</time></trkpt><trkpt lat="43.91201071198984" lon="12.097956530076296"><ele>382.0</ele><time>2026-04-20T10:02:46Z</time></trkpt><trkpt lat="43.91195603727498" lon="12.09809054444324"><ele>382.0</ele><time>2026-04-20T10:02:47Z</time></trkpt><trkpt lat="43.9119064057745" lon="12.098203002542666"><ele>382.0</ele><time>2026-04-20T10:02:48Z</time></trkpt><trkpt lat="43.91185254699144" lon="12.098280810400206"><ele>377.75</ele><time>2026-04-20T10:02:49Z</time></trkpt><trkpt lat="43.91178094024751" lon="12.098339187271813"><ele>373.5</ele><time>2026-04-20T10:02:50Z</time></trkpt><trkpt lat="43.911676655889366" lon="12.098413347397283"><ele>369.25</ele><time>2026-04-20T10:02:51Z</time></trkpt><trkpt lat="43.91154934052197" lon="12.098513265312972"><ele>365.0</ele><time>2026-04-20T10:02:52Z</time></trkpt><trkpt lat="43.911437165412806" lon="12.098628726540014"><ele>365.5</ele><time>2026-04-20T10:02:53Z</time></trkpt><trkpt lat="43.91134223487095" lon="12.09873789662396"><ele>366.0</ele><time>2026-04-20T10:02:54Z</time></trkpt><trkpt lat="43.91125239248647" lon="12.098852657166688"><ele>366.5</ele><time>2026-04-20T10:02:55Z</time></trkpt><trkpt lat="43.91116027639856" lon="12.098981456824776"><ele>367.0</ele><time>2026-04-20T10:02:56Z</time></trkpt><trkpt lat="43.91108851426992" lon="12.099115334356695"><ele>367.0</ele><time>2026-04-20T10:02:57Z</time></trkpt><trkpt lat="43.91102381579808" lon="12.09926656490778"><ele>367.0</ele><time>2026-04-20T10:02:58Z</time></trkpt><trkpt lat="43.91096380214383" lon="12.099432691462193"><ele>367.0</ele><time>2026-04-20T10:02:59Z</time></trkpt><trkpt lat="43.91090555503403" lon="12.099596238335273"><ele>367.0</ele><time>2026-04-20T10:03:00Z</time></trkpt><trkpt lat="43.91085508904976" lon="12.099756706743296"><ele>370.0</ele><time>2026-04-20T10:03:01Z</time></trkpt><trkpt lat="43.910803033324726" lon="12.099902610792787"><ele>373.0</ele><time>2026-04-20T10:03:02Z</time></trkpt><trkpt lat="43.91076144167559" lon="12.100018120005213"><ele>376.0</ele><time>2026-04-20T10:03:03Z</time></trkpt><trkpt lat="43.9107275488574" lon="12.10011378820363"><ele>379.0</ele><time>2026-04-20T10:03:04Z</time></trkpt><trkpt lat="43.91062142177181" lon="12.100176998630326"><ele>382.0</ele><time>2026-04-20T10:03:06Z</time></trkpt><trkpt lat="43.91053891946534" lon="12.100164018350437"><ele>382.0</ele><time>2026-04-20T10:03:07Z</time></trkpt><trkpt lat="43.91043042411112" lon="12.100126799872877"><ele>382.0</ele><time>2026-04-20T10:03:08Z</time></trkpt><trkpt lat="43.910316600693974" lon="12.100115861619178"><ele>382.0</ele><time>2026-04-20T10:03:09Z</time></trkpt><trkpt lat="43.91021369935294" lon="12.100163811130654"><ele>382.0</ele><time>2026-04-20T10:03:10Z</time></trkpt><trkpt lat="43.91011669138423" lon="12.100275609881034"><ele>386.20000000000005</ele><time>2026-04-20T10:03:11Z</time></trkpt><trkpt lat="43.91000956993785" lon="12.10038005046831"><ele>390.4</ele><time>2026-04-20T10:03:12Z</time></trkpt><trkpt lat="43.90991691195531" lon="12.100444718259679"><ele>394.6</ele><time>2026-04-20T10:03:13Z</time></trkpt><trkpt lat="43.90986047445235" lon="12.100522966829308"><ele>398.79999999999995</ele><time>2026-04-20T10:03:14Z</time></trkpt><trkpt lat="43.909840421226285" lon="12.100608629460543"><ele>403.0</ele><time>2026-04-20T10:03:15Z</time></trkpt><trkpt lat="43.90986149744531" lon="12.100714619981114"><ele>399.2</ele><time>2026-04-20T10:03:16Z</time></trkpt><trkpt lat="43.90990969408793" lon="12.100852113191486"><ele>395.4</ele><time>2026-04-20T10:03:17Z</time></trkpt><trkpt lat="43.909976129411255" lon="12.101010047265705"><ele>391.59999999999997</ele><time>2026-04-20T10:03:18Z</time></trkpt><trkpt lat="43.91003788387612" lon="12.10115481553579"><ele>387.79999999999995</ele><time>2026-04-20T10:03:19Z</time></trkpt><trkpt lat="43.91005216760816" lon="12.101267566390245"><ele>384.0</ele><time>2026-04-20T10:03:20Z</time></trkpt><trkpt lat="43.91007667194893" lon="12.101349044045099"><ele>384.0</ele><time>2026-04-20T10:03:21Z</time></trkpt><trkpt lat="43.910012111616666" lon="12.101501733832418"><ele>384.0</ele><time>2026-04-20T10:03:23Z</time></trkpt><trkpt lat="43.90992787044291" lon="12.101543975240947"><ele>384.0</ele><time>2026-04-20T10:03:24Z</time></trkpt><trkpt lat="43.90982319914727" lon="12.101581161583358"><ele>384.0</ele><time>2026-04-20T10:03:25Z</time></trkpt><trkpt lat="43.909695531256" lon="12.101632968369247"><ele>379.0</ele><time>2026-04-20T10:03:26Z</time></trkpt><trkpt lat="43.90956508189546" lon="12.101701082350587"><ele>374.0</ele><time>2026-04-20T10:03:27Z</time></trkpt><trkpt lat="43.90947861530427" lon="12.101778198186357"><ele>369.0</ele><time>2026-04-20T10:03:28Z</time></trkpt><trkpt lat="43.90939024249809" lon="12.101885176071224"><ele>364.0</ele><time>2026-04-20T10:03:29Z</time></trkpt><trkpt lat="43.909320769151954" lon="12.101975492891624"><ele>364.0</ele><time>2026-04-20T10:03:30Z</time></trkpt><trkpt lat="43.90924781463841" lon="12.102062384463457"><ele>364.0</ele><time>2026-04-20T10:03:31Z</time></trkpt><trkpt lat="43.90918950606767" lon="12.102119088553216"><ele>364.0</ele><time>2026-04-20T10:03:32Z</time></trkpt><trkpt lat="43.909066669508746" lon="12.102101238540227"><ele>364.0</ele><time>2026-04-20T10:03:34Z</time></trkpt><trkpt lat="43.908988338056666" lon="12.102033747352529"><ele>364.0</ele><time>2026-04-20T10:03:35Z</time></trkpt><trkpt lat="43.908902370187604" lon="12.101956324463488"><ele>369.79999999999995</ele><time>2026-04-20T10:03:36Z</time></trkpt><trkpt lat="43.9088166964646" lon="12.101903156918826"><ele>375.59999999999997</ele><time>2026-04-20T10:03:37Z</time></trkpt><trkpt lat="43.908738725120294" lon="12.101899572864273"><ele>381.4</ele><time>2026-04-20T10:03:38Z</time></trkpt><trkpt lat="43.90866547706094" lon="12.10194662186323"><ele>387.2</ele><time>2026-04-20T10:03:39Z</time></trkpt><trkpt lat="43.90858955507791" lon="12.102046977569978"><ele>393.0</ele><time>2026-04-20T10:03:40Z</time></trkpt><trkpt lat="43.9085381718746" lon="12.10218463371489"><ele>393.0</ele><time>2026-04-20T10:03:41Z</time></trkpt><trkpt lat="43.90848933563031" lon="12.10234822540934"><ele>393.0</ele><time>2026-04-20T10:03:42Z</time></trkpt><trkpt lat="43.908471157140546" lon="12.102535837514953"><ele>393.0</ele><time>2026-04-20T10:03:43Z</time></trkpt><trkpt lat="43.90844822539885" lon="12.102674626706888"><ele>393.0</ele><time>2026-04-20T10:03:44Z</time></trkpt><trkpt lat="43.9084265742234" lon="12.102773514939356"><ele>393.0</ele><time>2026-04-20T10:03:45Z</time></trkpt><trkpt lat="43.908366812691355" lon="12.102805105414301"><ele>393.59999999999997</ele><time>2026-04-20T10:03:46Z</time></trkpt><trkpt lat="43.90826629172803" lon="12.102804969446904"><ele>394.2</ele><time>2026-04-20T10:03:48Z</time></trkpt><trkpt lat="43.90821779300319" lon="12.102745969723143"><ele>394.8</ele><time>2026-04-20T10:03:49Z</time></trkpt><trkpt lat="43.90814827377148" lon="12.102634688355899"><ele>395.4</ele><time>2026-04-20T10:03:50Z</time></trkpt><trkpt lat="43.908082470649" lon="12.102475356630663"><ele>396.0</ele><time>2026-04-20T10:03:51Z</time></trkpt><trkpt lat="43.907995853672105" lon="12.102333679469371"><ele>396.0</ele><time>2026-04-20T10:03:52Z</time></trkpt><trkpt lat="43.90788354737786" lon="12.1022288754266"><ele>396.0</ele><time>2026-04-20T10:03:53Z</time></trkpt><trkpt lat="43.90778066355532" lon="12.102173486847056"><ele>396.0</ele><time>2026-04-20T10:03:54Z</time></trkpt><trkpt lat="43.90770129928677" lon="12.10217653924587"><ele>396.0</ele><time>2026-04-20T10:03:55Z</time></trkpt><trkpt lat="43.907628289629315" lon="12.102171547901008"><ele>396.0</ele><time>2026-04-20T10:03:56Z</time></trkpt><trkpt lat="43.90755590104456" lon="12.102238486853729"><ele>393.5</ele><time>2026-04-20T10:03:57Z</time></trkpt><trkpt lat="43.907496994320965" lon="12.102372158846203"><ele>391.0</ele><time>2026-04-20T10:03:58Z</time></trkpt><trkpt lat="43.90744628161327" lon="12.102535869322297"><ele>388.5</ele><time>2026-04-20T10:03:58.999Z</time></trkpt><trkpt lat="43.9074225720115" lon="12.102693188019618"><ele>386.0</ele><time>2026-04-20T10:03:59.999Z</time></trkpt><trkpt lat="43.90742136167332" lon="12.102871866826534"><ele>381.5</ele><time>2026-04-20T10:04:00.999Z</time></trkpt><trkpt lat="43.907444539751246" lon="12.103058549025388"><ele>377.0</ele><time>2026-04-20T10:04:01.999Z</time></trkpt><trkpt lat="43.90748172874215" lon="12.103264408684506"><ele>372.5</ele><time>2026-04-20T10:04:02.999Z</time></trkpt><trkpt lat="43.907496655718674" lon="12.103440601882497"><ele>368.0</ele><time>2026-04-20T10:04:03.999Z</time></trkpt><trkpt lat="43.90750110525485" lon="12.103601119326338"><ele>366.1666666666667</ele><time>2026-04-20T10:04:04.999Z</time></trkpt><trkpt lat="43.907504324902376" lon="12.10373336980374"><ele>364.33333333333337</ele><time>2026-04-20T10:04:05.999Z</time></trkpt><trkpt lat="43.90747122031828" lon="12.10382528980312"><ele>362.5</ele><time>2026-04-20T10:04:06.999Z</time></trkpt><trkpt lat="43.90738982055194" lon="12.103926085297344"><ele>360.6666666666667</ele><time>2026-04-20T10:04:08.999Z</time></trkpt><trkpt lat="43.907323882854584" lon="12.103963908614489"><ele>358.8333333333333</ele><time>2026-04-20T10:04:09.999Z</time></trkpt><trkpt lat="43.90724729848916" lon="12.103998926789025"><ele>357.0</ele><time>2026-04-20T10:04:10.998Z</time></trkpt><trkpt lat="43.907120640569005" lon="12.104035565785063"><ele>357.0</ele><time>2026-04-20T10:04:11.998Z</time></trkpt><trkpt lat="43.90699719804398" lon="12.104069462365992"><ele>357.0</ele><time>2026-04-20T10:04:12.998Z</time></trkpt><trkpt lat="43.90688158594325" lon="12.104140106435988"><ele>357.0</ele><time>2026-04-20T10:04:13.999Z</time></trkpt><trkpt lat="43.90678234119905" lon="12.104268376951556"><ele>357.0</ele><time>2026-04-20T10:04:14.999Z</time></trkpt><trkpt lat="43.90668712811331" lon="12.104410187469645"><ele>356.20000000000005</ele><time>2026-04-20T10:04:15.999Z</time></trkpt><trkpt lat="43.90658984853508" lon="12.104475488934842"><ele>355.4</ele><time>2026-04-20T10:04:16.999Z</time></trkpt><trkpt lat="43.90651683959053" lon="12.104509785592347"><ele>354.6</ele><time>2026-04-20T10:04:17.999Z</time></trkpt><trkpt lat="43.90636953768097" lon="12.104499745566436"><ele>353.79999999999995</ele><time>2026-04-20T10:04:19.999Z</time></trkpt><trkpt lat="43.90626607897434" lon="12.104500255714866"><ele>353.0</ele><time>2026-04-20T10:04:20.999Z</time></trkpt><trkpt lat="43.906170299637125" lon="12.104479776846908"><ele>353.0</ele><time>2026-04-20T10:04:21.999Z</time></trkpt><trkpt lat="43.90606295624724" lon="12.104509933379868"><ele>353.0</ele><time>2026-04-20T10:04:22.999Z</time></trkpt><trkpt lat="43.90597914222837" lon="12.104554868890158"><ele>353.0</ele><time>2026-04-20T10:04:23.999Z</time></trkpt><trkpt lat="43.905893309045354" lon="12.10463533799468"><ele>353.0</ele><time>2026-04-20T10:04:24.999Z</time></trkpt><trkpt lat="43.905788998014074" lon="12.104644034583607"><ele>353.0</ele><time>2026-04-20T10:04:25.999Z</time></trkpt><trkpt lat="43.9056951862165" lon="12.10465266799741"><ele>354.2</ele><time>2026-04-20T10:04:26.999Z</time></trkpt><trkpt lat="43.90559699887645" lon="12.104632634739046"><ele>355.4</ele><time>2026-04-20T10:04:27.999Z</time></trkpt><trkpt lat="43.90550936661011" lon="12.104648930256591"><ele>356.59999999999997</ele><time>2026-04-20T10:04:28.999Z</time></trkpt><trkpt lat="43.905431152603946" lon="12.104692612756676"><ele>357.79999999999995</ele><time>2026-04-20T10:04:29.999Z</time></trkpt><trkpt lat="43.90534754794501" lon="12.104726891862907"><ele>359.0</ele><time>2026-04-20T10:04:30.999Z</time></trkpt><trkpt lat="43.90525581918495" lon="12.104754464030698"><ele>359.0</ele><time>2026-04-20T10:04:31.999Z</time></trkpt><trkpt lat="43.90515694253111" lon="12.104827736686001"><ele>359.0</ele><time>2026-04-20T10:04:32.999Z</time></trkpt><trkpt lat="43.90506585728912" lon="12.104927689153646"><ele>359.0</ele><time>2026-04-20T10:04:33.999Z</time></trkpt><trkpt lat="43.90498712661194" lon="12.105026055016678"><ele>359.0</ele><time>2026-04-20T10:04:34.999Z</time></trkpt><trkpt lat="43.90491548498131" lon="12.105120748623701"><ele>359.0</ele><time>2026-04-20T10:04:35.999Z</time></trkpt><trkpt lat="43.90485013401998" lon="12.105223398272463"><ele>353.2</ele><time>2026-04-20T10:04:36.999Z</time></trkpt><trkpt lat="43.90478720745159" lon="12.105334607414031"><ele>347.4</ele><time>2026-04-20T10:04:37.999Z</time></trkpt><trkpt lat="43.90472629854076" lon="12.105404109135417"><ele>341.6</ele><time>2026-04-20T10:04:38.999Z</time></trkpt><trkpt lat="43.90463199476486" lon="12.105415265711597"><ele>335.8</ele><time>2026-04-20T10:04:39.999Z</time></trkpt><trkpt lat="43.90453707643171" lon="12.105414840472449"><ele>330.0</ele><time>2026-04-20T10:04:40.999Z</time></trkpt><trkpt lat="43.90441167149574" lon="12.105420780407067"><ele>330.0</ele><time>2026-04-20T10:04:41.999Z</time></trkpt><trkpt lat="43.904286848740504" lon="12.105430273150741"><ele>330.0</ele><time>2026-04-20T10:04:42.999Z</time></trkpt><trkpt lat="43.90417148639741" lon="12.105455568178416"><ele>330.0</ele><time>2026-04-20T10:04:43.999Z</time></trkpt><trkpt lat="43.9040833310442" lon="12.10547763450749"><ele>330.0</ele><time>2026-04-20T10:04:44.999Z</time></trkpt><trkpt lat="43.9039915086349" lon="12.105524158774859"><ele>330.0</ele><time>2026-04-20T10:04:45.999Z</time></trkpt><trkpt lat="43.90388249335197" lon="12.105572437859069"><ele>334.0</ele><time>2026-04-20T10:04:46.999Z</time></trkpt><trkpt lat="43.90377291262613" lon="12.105686172640052"><ele>338.0</ele><time>2026-04-20T10:04:47.999Z</time></trkpt><trkpt lat="43.90368892527795" lon="12.105829769388814"><ele>342.0</ele><time>2026-04-20T10:04:48.999Z</time></trkpt><trkpt lat="43.90362515285924" lon="12.10596333499065"><ele>346.0</ele><time>2026-04-20T10:04:49.999Z</time></trkpt><trkpt lat="43.903550143111694" lon="12.106064198472392"><ele>341.0</ele><time>2026-04-20T10:04:50.999Z</time></trkpt><trkpt lat="43.90345382816278" lon="12.10611907505098"><ele>336.0</ele><time>2026-04-20T10:04:51.999Z</time></trkpt><trkpt lat="43.90338020399479" lon="12.106149665726493"><ele>331.0</ele><time>2026-04-20T10:04:52.999Z</time></trkpt><trkpt lat="43.90326684203866" lon="12.106176875929627"><ele>326.0</ele><time>2026-04-20T10:04:53.999Z</time></trkpt><trkpt lat="43.90312328700721" lon="12.106214460670754"><ele>321.0</ele><time>2026-04-20T10:04:54.999Z</time></trkpt><trkpt lat="43.90302247253437" lon="12.106266034502356"><ele>321.0</ele><time>2026-04-20T10:04:55.999Z</time></trkpt><trkpt lat="43.902944425542046" lon="12.106310558362479"><ele>321.0</ele><time>2026-04-20T10:04:56.999Z</time></trkpt><trkpt lat="43.90286845120787" lon="12.106382954857224"><ele>321.0</ele><time>2026-04-20T10:04:57.999Z</time></trkpt><trkpt lat="43.90277303298289" lon="12.10642601322519"><ele>321.0</ele><time>2026-04-20T10:04:58.999Z</time></trkpt><trkpt lat="43.90262681480149" lon="12.106552840743047"><ele>321.0</ele><time>2026-04-20T10:04:59.999Z</time></trkpt><trkpt lat="43.902521180185985" lon="12.106695826965364"><ele>318.0</ele><time>2026-04-20T10:05:00.999Z</time></trkpt><trkpt lat="43.902466067121104" lon="12.106827010652873"><ele>315.0</ele><time>2026-04-20T10:05:01.999Z</time></trkpt><trkpt lat="43.90241565358176" lon="12.106964578467476"><ele>312.0</ele><time>2026-04-20T10:05:02.999Z</time></trkpt><trkpt lat="43.902356233062925" lon="12.107097348933676"><ele>309.0</ele><time>2026-04-20T10:05:03.999Z</time></trkpt><trkpt lat="43.90229097295686" lon="12.107194567651796"><ele>306.0</ele><time>2026-04-20T10:05:04.999Z</time></trkpt><trkpt lat="43.90219217975159" lon="12.107305030545959"><ele>306.0</ele><time>2026-04-20T10:05:05.999Z</time></trkpt><trkpt lat="43.90210441462966" lon="12.107391508791759"><ele>306.0</ele><time>2026-04-20T10:05:06.999Z</time></trkpt><trkpt lat="43.90202778487813" lon="12.107465705828078"><ele>306.0</ele><time>2026-04-20T10:05:07.999Z</time></trkpt><trkpt lat="43.90192588387368" lon="12.107568776590739"><ele>306.0</ele><time>2026-04-20T10:05:08.999Z</time></trkpt><trkpt lat="43.90179513261821" lon="12.107707656487682"><ele>298.6666666666667</ele><time>2026-04-20T10:05:09.999Z</time></trkpt><trkpt lat="43.90166336933916" lon="12.107854192588297"><ele>291.33333333333337</ele><time>2026-04-20T10:05:10.999Z</time></trkpt><trkpt lat="43.901535224521766" lon="12.10800089756487"><ele>284.0</ele><time>2026-04-20T10:05:11.999Z</time></trkpt><trkpt lat="43.90142839393291" lon="12.108151558533757"><ele>278.75</ele><time>2026-04-20T10:05:12.999Z</time></trkpt><trkpt lat="43.90131088537022" lon="12.108271926060697"><ele>273.5</ele><time>2026-04-20T10:05:13.999Z</time></trkpt><trkpt lat="43.901209762743484" lon="12.108416204350991"><ele>268.25</ele><time>2026-04-20T10:05:14.999Z</time></trkpt><trkpt lat="43.90113374059828" lon="12.10857981684574"><ele>263.0</ele><time>2026-04-20T10:05:15.999Z</time></trkpt><trkpt lat="43.901047822968046" lon="12.108723934773597"><ele>263.0</ele><time>2026-04-20T10:05:16.999Z</time></trkpt><trkpt lat="43.90100008560786" lon="12.108855872883902"><ele>263.0</ele><time>2026-04-20T10:05:17.999Z</time></trkpt><trkpt lat="43.90094688384769" lon="12.108948222664848"><ele>263.0</ele><time>2026-04-20T10:05:18.999Z</time></trkpt><trkpt lat="43.900915020318465" lon="12.109035432980784"><ele>263.0</ele><time>2026-04-20T10:05:19.999Z</time></trkpt><trkpt lat="43.90092030876503" lon="12.109146186886088"><ele>263.0</ele><time>2026-04-20T10:05:20.999Z</time></trkpt><trkpt lat="43.90097744496788" lon="12.109258127097995"><ele>263.0</ele><time>2026-04-20T10:05:21.999Z</time></trkpt><trkpt lat="43.90103769422482" lon="12.109387782112593"><ele>261.6666666666667</ele><time>2026-04-20T10:05:22.999Z</time></trkpt><trkpt lat="43.90109140859879" lon="12.109503046729419"><ele>260.33333333333337</ele><time>2026-04-20T10:05:23.999Z</time></trkpt><trkpt lat="43.901111586833004" lon="12.109623043339205"><ele>259.0</ele><time>2026-04-20T10:05:24.999Z</time></trkpt><trkpt lat="43.90110125878781" lon="12.109748545751904"><ele>257.6666666666667</ele><time>2026-04-20T10:05:25.999Z</time></trkpt><trkpt lat="43.9010899857599" lon="12.109850367123174"><ele>256.3333333333333</ele><time>2026-04-20T10:05:26.999Z</time></trkpt><trkpt lat="43.90102871915441" lon="12.109914549600296"><ele>255.0</ele><time>2026-04-20T10:05:28.999Z</time></trkpt><trkpt lat="43.90110630734093" lon="12.110136764488228"><ele>254.8</ele><time>2026-04-20T10:05:31.999Z</time></trkpt><trkpt lat="43.90116197038092" lon="12.110237632826175"><ele>254.6</ele><time>2026-04-20T10:05:32.999Z</time></trkpt><trkpt lat="43.90122280589536" lon="12.11035059932456"><ele>254.39999999999998</ele><time>2026-04-20T10:05:33.999Z</time></trkpt><trkpt lat="43.90128241389926" lon="12.11047212831836"><ele>254.2</ele><time>2026-04-20T10:05:34.999Z</time></trkpt><trkpt lat="43.90134191513134" lon="12.110586654146445"><ele>254.0</ele><time>2026-04-20T10:05:35.999Z</time></trkpt><trkpt lat="43.90140136533354" lon="12.11069229749877"><ele>255.0</ele><time>2026-04-20T10:05:36.999Z</time></trkpt><trkpt lat="43.901457836964674" lon="12.110800207500398"><ele>255.99999999999997</ele><time>2026-04-20T10:05:37.999Z</time></trkpt><trkpt lat="43.90149919793141" lon="12.110925895761305"><ele>257.0</ele><time>2026-04-20T10:05:38.999Z</time></trkpt><trkpt lat="43.90151157576807" lon="12.111060642699783"><ele>258.0</ele><time>2026-04-20T10:05:39.999Z</time></trkpt><trkpt lat="43.90148407732997" lon="12.111209026657992"><ele>259.0</ele><time>2026-04-20T10:05:40.999Z</time></trkpt><trkpt lat="43.90142981402488" lon="12.111348854727687"><ele>259.0</ele><time>2026-04-20T10:05:41.999Z</time></trkpt><trkpt lat="43.90136706738505" lon="12.11149307863201"><ele>259.0</ele><time>2026-04-20T10:05:42.999Z</time></trkpt><trkpt lat="43.90132076228074" lon="12.11164856690485"><ele>259.0</ele><time>2026-04-20T10:05:43.999Z</time></trkpt><trkpt lat="43.901294286963285" lon="12.111812071454057"><ele>259.0</ele><time>2026-04-20T10:05:44.999Z</time></trkpt><trkpt lat="43.901289231280856" lon="12.111979765042408"><ele>260.25</ele><time>2026-04-20T10:05:45.999Z</time></trkpt><trkpt lat="43.901313684144846" lon="12.112143502615524"><ele>261.5</ele><time>2026-04-20T10:05:46.999Z</time></trkpt><trkpt lat="43.90137255791154" lon="12.112289129469161"><ele>262.75</ele><time>2026-04-20T10:05:47.999Z</time></trkpt><trkpt lat="43.901446544545415" lon="12.112422071000742"><ele>264.0</ele><time>2026-04-20T10:05:48.999Z</time></trkpt><trkpt lat="43.90151572758443" lon="12.112551740941818"><ele>264.0</ele><time>2026-04-20T10:05:49.999Z</time></trkpt><trkpt lat="43.901581702203096" lon="12.112683814047463"><ele>264.0</ele><time>2026-04-20T10:05:50.999Z</time></trkpt><trkpt lat="43.901648063054935" lon="12.112817700242456"><ele>264.0</ele><time>2026-04-20T10:05:51.999Z</time></trkpt><trkpt lat="43.901713088028835" lon="12.11295043119237"><ele>264.0</ele><time>2026-04-20T10:05:52.999Z</time></trkpt><trkpt lat="43.901778198155554" lon="12.11308578003829"><ele>265.5</ele><time>2026-04-20T10:05:53.999Z</time></trkpt><trkpt lat="43.90184418980608" lon="12.113222419873784"><ele>267.0</ele><time>2026-04-20T10:05:54.999Z</time></trkpt><trkpt lat="43.90191222495775" lon="12.113357042134195"><ele>268.5</ele><time>2026-04-20T10:05:55.999Z</time></trkpt><trkpt lat="43.90198054033201" lon="12.113490450153515"><ele>270.0</ele><time>2026-04-20T10:05:56.999Z</time></trkpt><trkpt lat="43.90204460232556" lon="12.113616889420202"><ele>270.0</ele><time>2026-04-20T10:05:57.999Z</time></trkpt><trkpt lat="43.902104827122045" lon="12.113736103788522"><ele>270.0</ele><time>2026-04-20T10:05:58.999Z</time></trkpt><trkpt lat="43.90215842985998" lon="12.113845079972613"><ele>270.0</ele><time>2026-04-20T10:05:59.999Z</time></trkpt><trkpt lat="43.902207234637785" lon="12.113935916202985"><ele>270.0</ele><time>2026-04-20T10:06:00.999Z</time></trkpt><trkpt lat="43.90224887869807" lon="12.114004008809369"><ele>270.0</ele><time>2026-04-20T10:06:01.999Z</time></trkpt><trkpt lat="43.90231190247381" lon="12.114081864104948"><ele>270.0</ele><time>2026-04-20T10:06:03.999Z</time></trkpt><trkpt lat="43.9024024897347" lon="12.11414930838441"><ele>268.5</ele><time>2026-04-20T10:06:32.999Z</time></trkpt><trkpt lat="43.90247344754967" lon="12.114177437798254"><ele>267.0</ele><time>2026-04-20T10:06:33.999Z</time></trkpt><trkpt lat="43.90255610179457" lon="12.114187427206932"><ele>265.5</ele><time>2026-04-20T10:06:34.999Z</time></trkpt><trkpt lat="43.90263430252692" lon="12.114172551304426"><ele>264.0</ele><time>2026-04-20T10:06:35.999Z</time></trkpt><trkpt lat="43.9027081111642" lon="12.114135385007735"><ele>262.5</ele><time>2026-04-20T10:06:36.999Z</time></trkpt><trkpt lat="43.90277270705889" lon="12.114081241600616"><ele>261.0</ele><time>2026-04-20T10:06:37.999Z</time></trkpt><trkpt lat="43.902838011347605" lon="12.114013498280928"><ele>260.8</ele><time>2026-04-20T10:06:38.999Z</time></trkpt><trkpt lat="43.902906955603555" lon="12.113936128476023"><ele>260.6</ele><time>2026-04-20T10:06:39.999Z</time></trkpt><trkpt lat="43.902978918624164" lon="12.11385417872961"><ele>260.4</ele><time>2026-04-20T10:06:40.999Z</time></trkpt><trkpt lat="43.90305408205738" lon="12.113767909058934"><ele>260.2</ele><time>2026-04-20T10:06:41.999Z</time></trkpt><trkpt lat="43.90313108720693" lon="12.113679525523374"><ele>260.0</ele><time>2026-04-20T10:06:42.999Z</time></trkpt><trkpt lat="43.9032135971324" lon="12.113586432080327"><ele>260.0</ele><time>2026-04-20T10:06:43.999Z</time></trkpt><trkpt lat="43.90329844192093" lon="12.113492431933546"><ele>260.0</ele><time>2026-04-20T10:06:44.999Z</time></trkpt><trkpt lat="43.903476439212774" lon="12.113298178948607"><ele>260.0</ele><time>2026-04-20T10:06:46.999Z</time></trkpt><trkpt lat="43.90357718377394" lon="12.11322000762901"><ele>263.75</ele><time>2026-04-20T10:06:47.999Z</time></trkpt><trkpt lat="43.90368341156487" lon="12.113145784493863"><ele>267.5</ele><time>2026-04-20T10:06:48.999Z</time></trkpt><trkpt lat="43.9038073877552" lon="12.11307729816139"><ele>271.25</ele><time>2026-04-20T10:06:49.999Z</time></trkpt><trkpt lat="43.903941290951" lon="12.113015258319109"><ele>275.0</ele><time>2026-04-20T10:06:50.999Z</time></trkpt><trkpt lat="43.90407968890986" lon="12.112966989054208"><ele>275.0</ele><time>2026-04-20T10:06:51.999Z</time></trkpt><trkpt lat="43.90422863198737" lon="12.112935592278124"><ele>275.0</ele><time>2026-04-20T10:06:52.999Z</time></trkpt><trkpt lat="43.904384136890776" lon="12.112923062398941"><ele>275.0</ele><time>2026-04-20T10:06:53.999Z</time></trkpt><trkpt lat="43.90454634133449" lon="12.112933809532706"><ele>275.0</ele><time>2026-04-20T10:06:54.999Z</time></trkpt><trkpt lat="43.904709726305725" lon="12.112963010375074"><ele>275.0</ele><time>2026-04-20T10:06:55.999Z</time></trkpt><trkpt lat="43.904876405424" lon="12.11300936326806"><ele>275.0</ele><time>2026-04-20T10:06:56.999Z</time></trkpt><trkpt lat="43.905043959421775" lon="12.11305768875931"><ele>279.6666666666667</ele><time>2026-04-20T10:06:57.999Z</time></trkpt><trkpt lat="43.90521316213763" lon="12.113103573954977"><ele>284.3333333333333</ele><time>2026-04-20T10:06:58.999Z</time></trkpt><trkpt lat="43.90538570517733" lon="12.113160572400554"><ele>289.0</ele><time>2026-04-20T10:06:59.999Z</time></trkpt><trkpt lat="43.90556203975942" lon="12.113210339067782"><ele>285.66666666666663</ele><time>2026-04-20T10:07:00.999Z</time></trkpt><trkpt lat="43.9057331065122" lon="12.113261060531617"><ele>282.3333333333333</ele><time>2026-04-20T10:07:01.999Z</time></trkpt><trkpt lat="43.905906722357194" lon="12.113305639995426"><ele>279.0</ele><time>2026-04-20T10:07:02.999Z</time></trkpt><trkpt lat="43.90608341686268" lon="12.113353836862842"><ele>279.0</ele><time>2026-04-20T10:07:03.999Z</time></trkpt><trkpt lat="43.90625684570663" lon="12.113419427082745"><ele>279.0</ele><time>2026-04-20T10:07:04.999Z</time></trkpt><trkpt lat="43.90642092134352" lon="12.113522517468578"><ele>279.0</ele><time>2026-04-20T10:07:05.999Z</time></trkpt><trkpt lat="43.906555964020725" lon="12.113673995483078"><ele>279.0</ele><time>2026-04-20T10:07:06.999Z</time></trkpt><trkpt lat="43.90667095638784" lon="12.113848698246516"><ele>279.0</ele><time>2026-04-20T10:07:07.999Z</time></trkpt><trkpt lat="43.90678921707731" lon="12.114025561252967"><ele>279.0</ele><time>2026-04-20T10:07:08.999Z</time></trkpt><trkpt lat="43.90691164091751" lon="12.114205227557179"><ele>278.0</ele><time>2026-04-20T10:07:09.999Z</time></trkpt><trkpt lat="43.907041142595716" lon="12.114390942800382"><ele>277.0</ele><time>2026-04-20T10:07:10.999Z</time></trkpt><trkpt lat="43.90716892601844" lon="12.114576985005288"><ele>276.0</ele><time>2026-04-20T10:07:11.999Z</time></trkpt><trkpt lat="43.907296009063366" lon="12.114773377968424"><ele>272.3333333333333</ele><time>2026-04-20T10:07:12.999Z</time></trkpt><trkpt lat="43.90740294535222" lon="12.11499244700041"><ele>268.66666666666663</ele><time>2026-04-20T10:07:13.999Z</time></trkpt><trkpt lat="43.907481147779706" lon="12.115236720017515"><ele>265.0</ele><time>2026-04-20T10:07:14.999Z</time></trkpt><trkpt lat="43.90754929022196" lon="12.115493729962926"><ele>270.66666666666663</ele><time>2026-04-20T10:07:15.999Z</time></trkpt><trkpt lat="43.90760551111414" lon="12.11576297571225"><ele>276.3333333333333</ele><time>2026-04-20T10:07:16.999Z</time></trkpt><trkpt lat="43.90765757116582" lon="12.116028749444263"><ele>282.0</ele><time>2026-04-20T10:07:17.999Z</time></trkpt><trkpt lat="43.9077162028065" lon="12.116273753280408"><ele>282.0</ele><time>2026-04-20T10:07:19Z</time></trkpt><trkpt lat="43.907767661884286" lon="12.11649043888359"><ele>282.0</ele><time>2026-04-20T10:07:20Z</time></trkpt><trkpt lat="43.90781686734574" lon="12.11666761733152"><ele>282.0</ele><time>2026-04-20T10:07:21Z</time></trkpt><trkpt lat="43.907886425578596" lon="12.11679929604755"><ele>282.0</ele><time>2026-04-20T10:07:22Z</time></trkpt><trkpt lat="43.90798769986288" lon="12.116869015228987"><ele>277.75</ele><time>2026-04-20T10:07:23Z</time></trkpt><trkpt lat="43.90809863855509" lon="12.116859503797107"><ele>273.5</ele><time>2026-04-20T10:07:24Z</time></trkpt><trkpt lat="43.90821854662491" lon="12.11678258836349"><ele>269.25</ele><time>2026-04-20T10:07:25Z</time></trkpt><trkpt lat="43.908348166982606" lon="12.11668593465229"><ele>265.0</ele><time>2026-04-20T10:07:26Z</time></trkpt><trkpt lat="43.908474420138" lon="12.116623217817336"><ele>265.0</ele><time>2026-04-20T10:07:27Z</time></trkpt><trkpt lat="43.90859531878289" lon="12.116569586849266"><ele>265.0</ele><time>2026-04-20T10:07:28Z</time></trkpt><trkpt lat="43.90871022636437" lon="12.116552555664615"><ele>265.0</ele><time>2026-04-20T10:07:29Z</time></trkpt><trkpt lat="43.90881418771028" lon="12.116594816123838"><ele>265.0</ele><time>2026-04-20T10:07:30Z</time></trkpt><trkpt lat="43.90888898965598" lon="12.116689568026867"><ele>265.0</ele><time>2026-04-20T10:07:31Z</time></trkpt><trkpt lat="43.90893496202152" lon="12.116829215879564"><ele>265.0</ele><time>2026-04-20T10:07:32Z</time></trkpt><trkpt lat="43.90894372817394" lon="12.11699169359901"><ele>265.0</ele><time>2026-04-20T10:07:33Z</time></trkpt><trkpt lat="43.90890374124842" lon="12.117154179013664"><ele>265.0</ele><time>2026-04-20T10:07:34Z</time></trkpt><trkpt lat="43.90880209605009" lon="12.117289368217373"><ele>267.0</ele><time>2026-04-20T10:07:35Z</time></trkpt><trkpt lat="43.90869737128442" lon="12.117453536626272"><ele>269.0</ele><time>2026-04-20T10:07:36Z</time></trkpt><trkpt lat="43.90858467125413" lon="12.117588175603043"><ele>271.0</ele><time>2026-04-20T10:07:37Z</time></trkpt><trkpt lat="43.90850215091758" lon="12.117705839676134"><ele>273.0</ele><time>2026-04-20T10:07:38Z</time></trkpt><trkpt lat="43.908425039573316" lon="12.117805553527653"><ele>273.0</ele><time>2026-04-20T10:07:39Z</time></trkpt><trkpt lat="43.90841326186478" lon="12.11796239131593"><ele>273.0</ele><time>2026-04-20T10:07:40Z</time></trkpt><trkpt lat="43.90843555590629" lon="12.11811060498238"><ele>273.0</ele><time>2026-04-20T10:07:41Z</time></trkpt><trkpt lat="43.90851193473323" lon="12.118261806290352"><ele>273.0</ele><time>2026-04-20T10:07:42Z</time></trkpt><trkpt lat="43.908614746472686" lon="12.11842939602556"><ele>272.0</ele><time>2026-04-20T10:07:43Z</time></trkpt><trkpt lat="43.90871372930554" lon="12.11862429751581"><ele>271.0</ele><time>2026-04-20T10:07:44Z</time></trkpt><trkpt lat="43.90881197513802" lon="12.118822481482798"><ele>270.0</ele><time>2026-04-20T10:07:45Z</time></trkpt><trkpt lat="43.90891591051216" lon="12.119027096705734"><ele>267.0</ele><time>2026-04-20T10:07:46Z</time></trkpt><trkpt lat="43.909022657978326" lon="12.119235267213783"><ele>264.0</ele><time>2026-04-20T10:07:47Z</time></trkpt><trkpt lat="43.909131307936626" lon="12.119445421829477"><ele>261.0</ele><time>2026-04-20T10:07:48Z</time></trkpt><trkpt lat="43.90923999592671" lon="12.119657430953822"><ele>263.3333333333333</ele><time>2026-04-20T10:07:49Z</time></trkpt><trkpt lat="43.90935191707172" lon="12.119857576781015"><ele>265.66666666666663</ele><time>2026-04-20T10:07:50Z</time></trkpt><trkpt lat="43.90945606359858" lon="12.120085881389022"><ele>268.0</ele><time>2026-04-20T10:07:51Z</time></trkpt><trkpt lat="43.90955965893131" lon="12.1203079070264"><ele>268.0</ele><time>2026-04-20T10:07:52Z</time></trkpt><trkpt lat="43.909656613350236" lon="12.12051680331323"><ele>268.0</ele><time>2026-04-20T10:07:53Z</time></trkpt><trkpt lat="43.9097443583056" lon="12.120724444840398"><ele>268.0</ele><time>2026-04-20T10:07:54Z</time></trkpt><trkpt lat="43.90983424899603" lon="12.120922180082701"><ele>270.0</ele><time>2026-04-20T10:07:55Z</time></trkpt><trkpt lat="43.909937111847896" lon="12.121096439075794"><ele>272.0</ele><time>2026-04-20T10:07:56Z</time></trkpt><trkpt lat="43.910051144666106" lon="12.121258997530012"><ele>274.0</ele><time>2026-04-20T10:07:57Z</time></trkpt><trkpt lat="43.9101673065634" lon="12.121408496807021"><ele>274.0</ele><time>2026-04-20T10:07:58Z</time></trkpt><trkpt lat="43.91027640195128" lon="12.121541381632268"><ele>274.0</ele><time>2026-04-20T10:07:59Z</time></trkpt><trkpt lat="43.91038069162678" lon="12.121672944652621"><ele>274.0</ele><time>2026-04-20T10:08:00Z</time></trkpt><trkpt lat="43.910479484936666" lon="12.121795400775268"><ele>274.0</ele><time>2026-04-20T10:08:01Z</time></trkpt><trkpt lat="43.91057514501548" lon="12.121914139621735"><ele>271.25</ele><time>2026-04-20T10:08:02Z</time></trkpt><trkpt lat="43.91066493442818" lon="12.122029850120093"><ele>268.5</ele><time>2026-04-20T10:08:03Z</time></trkpt><trkpt lat="43.91074623502576" lon="12.122146129008764"><ele>265.75</ele><time>2026-04-20T10:08:04Z</time></trkpt><trkpt lat="43.91082476346767" lon="12.122270273548489"><ele>263.0</ele><time>2026-04-20T10:08:05Z</time></trkpt><trkpt lat="43.910911220504936" lon="12.122413961537854"><ele>263.0</ele><time>2026-04-20T10:08:06Z</time></trkpt><trkpt lat="43.91099230687209" lon="12.122603983634729"><ele>263.0</ele><time>2026-04-20T10:08:07Z</time></trkpt><trkpt lat="43.91109774160501" lon="12.122790989938295"><ele>263.0</ele><time>2026-04-20T10:08:08Z</time></trkpt><trkpt lat="43.91118090207055" lon="12.123001524072679"><ele>263.0</ele><time>2026-04-20T10:08:09Z</time></trkpt><trkpt lat="43.9112725067382" lon="12.123202312274795"><ele>263.0</ele><time>2026-04-20T10:08:10Z</time></trkpt><trkpt lat="43.911377399089226" lon="12.123397343923015"><ele>263.0</ele><time>2026-04-20T10:08:10.999Z</time></trkpt><trkpt lat="43.911489530958896" lon="12.123590601582997"><ele>262.0</ele><time>2026-04-20T10:08:11.999Z</time></trkpt><trkpt lat="43.91159819372052" lon="12.12377344783345"><ele>261.0</ele><time>2026-04-20T10:08:12.999Z</time></trkpt><trkpt lat="43.91170532362355" lon="12.123933569441105"><ele>260.0</ele><time>2026-04-20T10:08:13.999Z</time></trkpt><trkpt lat="43.91181126897186" lon="12.124055476167909"><ele>260.0</ele><time>2026-04-20T10:08:14.999Z</time></trkpt><trkpt lat="43.911924066736454" lon="12.124136426221995"><ele>260.0</ele><time>2026-04-20T10:08:15.999Z</time></trkpt><trkpt lat="43.91204561857013" lon="12.124150700381964"><ele>260.0</ele><time>2026-04-20T10:08:16.999Z</time></trkpt><trkpt lat="43.91215669469041" lon="12.124094488288423"><ele>260.0</ele><time>2026-04-20T10:08:17.999Z</time></trkpt><trkpt lat="43.912257416394695" lon="12.12401355598951"><ele>260.0</ele><time>2026-04-20T10:08:18.999Z</time></trkpt><trkpt lat="43.912355677709435" lon="12.123986094457598"><ele>260.0</ele><time>2026-04-20T10:08:19.999Z</time></trkpt><trkpt lat="43.91244066173693" lon="12.12403162597706"><ele>260.0</ele><time>2026-04-20T10:08:20.999Z</time></trkpt><trkpt lat="43.91250771062669" lon="12.124133983874712"><ele>260.0</ele><time>2026-04-20T10:08:21.999Z</time></trkpt><trkpt lat="43.91255208309333" lon="12.124281630153336"><ele>260.0</ele><time>2026-04-20T10:08:22.999Z</time></trkpt><trkpt lat="43.91256332621838" lon="12.124456840418755"><ele>257.6666666666667</ele><time>2026-04-20T10:08:23.999Z</time></trkpt><trkpt lat="43.912542275156326" lon="12.124644456696386"><ele>255.33333333333331</ele><time>2026-04-20T10:08:24.999Z</time></trkpt><trkpt lat="43.91249126082696" lon="12.124845566350805"><ele>253.0</ele><time>2026-04-20T10:08:25.999Z</time></trkpt><trkpt lat="43.91242183129882" lon="12.125053712702494"><ele>251.66666666666666</ele><time>2026-04-20T10:08:27Z</time></trkpt><trkpt lat="43.91235317509064" lon="12.125268217484315"><ele>250.33333333333331</ele><time>2026-04-20T10:08:28Z</time></trkpt><trkpt lat="43.912302249467" lon="12.125506700472915"><ele>249.0</ele><time>2026-04-20T10:08:29Z</time></trkpt><trkpt lat="43.912281834582394" lon="12.125742004516912"><ele>248.0</ele><time>2026-04-20T10:08:30Z</time></trkpt><trkpt lat="43.91229578638835" lon="12.125977953101417"><ele>247.0</ele><time>2026-04-20T10:08:31Z</time></trkpt><trkpt lat="43.912349119504185" lon="12.126221642107035"><ele>246.0</ele><time>2026-04-20T10:08:32Z</time></trkpt><trkpt lat="43.91244215345557" lon="12.12645867443587"><ele>244.0</ele><time>2026-04-20T10:08:33Z</time></trkpt><trkpt lat="43.912551223485785" lon="12.126698799783858"><ele>242.0</ele><time>2026-04-20T10:08:34Z</time></trkpt><trkpt lat="43.91264602497968" lon="12.126940297553993"><ele>240.0</ele><time>2026-04-20T10:08:35Z</time></trkpt><trkpt lat="43.91274928216874" lon="12.127152843200225"><ele>244.0</ele><time>2026-04-20T10:08:36Z</time></trkpt><trkpt lat="43.91286631813964" lon="12.127342355216046"><ele>248.0</ele><time>2026-04-20T10:08:37Z</time></trkpt><trkpt lat="43.91299310015091" lon="12.12751080536596"><ele>252.0</ele><time>2026-04-20T10:08:38Z</time></trkpt><trkpt lat="43.913117252744875" lon="12.127706396792796"><ele>252.0</ele><time>2026-04-20T10:08:39Z</time></trkpt><trkpt lat="43.9132479652766" lon="12.127837385568357"><ele>252.0</ele><time>2026-04-20T10:08:40Z</time></trkpt><trkpt lat="43.9133577279188" lon="12.127970726110703"><ele>252.0</ele><time>2026-04-20T10:08:41Z</time></trkpt><trkpt lat="43.91344483918878" lon="12.128126058610292"><ele>252.0</ele><time>2026-04-20T10:08:42Z</time></trkpt><trkpt lat="43.91354122044508" lon="12.128267311988372"><ele>254.5</ele><time>2026-04-20T10:08:43Z</time></trkpt><trkpt lat="43.913632484236246" lon="12.128389831500241"><ele>257.0</ele><time>2026-04-20T10:08:44Z</time></trkpt><trkpt lat="43.913722740851775" lon="12.128503788532129"><ele>259.5</ele><time>2026-04-20T10:08:45Z</time></trkpt><trkpt lat="43.91383923498736" lon="12.128622009982763"><ele>262.0</ele><time>2026-04-20T10:08:46Z</time></trkpt><trkpt lat="43.91392565973555" lon="12.128702069142381"><ele>262.0</ele><time>2026-04-20T10:08:47Z</time></trkpt><trkpt lat="43.91398798626366" lon="12.128784469642529"><ele>262.0</ele><time>2026-04-20T10:08:48Z</time></trkpt><trkpt lat="43.91403794498181" lon="12.128876461152416"><ele>262.0</ele><time>2026-04-20T10:08:49Z</time></trkpt><trkpt lat="43.9140878190188" lon="12.128987165129573"><ele>262.0</ele><time>2026-04-20T10:08:50Z</time></trkpt><trkpt lat="43.9141359245728" lon="12.129098145758029"><ele>262.0</ele><time>2026-04-20T10:08:51Z</time></trkpt><trkpt lat="43.91418734366411" lon="12.129194578209244"><ele>262.0</ele><time>2026-04-20T10:08:52Z</time></trkpt><trkpt lat="43.91423586307462" lon="12.129319509899823"><ele>266.5</ele><time>2026-04-20T10:08:53Z</time></trkpt><trkpt lat="43.91434489408458" lon="12.129596303730308"><ele>271.0</ele><time>2026-04-20T10:08:55Z</time></trkpt><trkpt lat="43.91439332122005" lon="12.129726861577247"><ele>275.5</ele><time>2026-04-20T10:08:56Z</time></trkpt><trkpt lat="43.9144222155931" lon="12.129860178145032"><ele>280.0</ele><time>2026-04-20T10:08:57Z</time></trkpt><trkpt lat="43.91440800849853" lon="12.130015501524515"><ele>280.0</ele><time>2026-04-20T10:08:58Z</time></trkpt><trkpt lat="43.914410547919154" lon="12.130197471047781"><ele>280.0</ele><time>2026-04-20T10:08:59Z</time></trkpt><trkpt lat="43.914421754204106" lon="12.130390393146898"><ele>280.0</ele><time>2026-04-20T10:09:00Z</time></trkpt><trkpt lat="43.91441611340762" lon="12.130582783618658"><ele>280.0</ele><time>2026-04-20T10:09:01Z</time></trkpt><trkpt lat="43.91441466152191" lon="12.130759372590164"><ele>278.5</ele><time>2026-04-20T10:09:02Z</time></trkpt><trkpt lat="43.9144113002283" lon="12.13092982611764"><ele>277.0</ele><time>2026-04-20T10:09:03Z</time></trkpt><trkpt lat="43.91441052694626" lon="12.131112964856609"><ele>275.5</ele><time>2026-04-20T10:09:04Z</time></trkpt><trkpt lat="43.91440633412918" lon="12.131297458481507"><ele>274.0</ele><time>2026-04-20T10:09:05Z</time></trkpt><trkpt lat="43.914404622062804" lon="12.13149854241504"><ele>272.0</ele><time>2026-04-20T10:09:06Z</time></trkpt><trkpt lat="43.91439863232976" lon="12.13171249419985"><ele>270.0</ele><time>2026-04-20T10:09:07Z</time></trkpt><trkpt lat="43.914389563919144" lon="12.131904948422688"><ele>268.0</ele><time>2026-04-20T10:09:08Z</time></trkpt><trkpt lat="43.91437729670343" lon="12.132090466945938"><ele>266.0</ele><time>2026-04-20T10:09:09Z</time></trkpt><trkpt lat="43.914369094020074" lon="12.132269153900502"><ele>266.0</ele><time>2026-04-20T10:09:10Z</time></trkpt><trkpt lat="43.91436294625774" lon="12.132395282256812"><ele>266.0</ele><time>2026-04-20T10:09:11Z</time></trkpt><trkpt lat="43.9143386841478" lon="12.132516764850747"><ele>266.0</ele><time>2026-04-20T10:09:13Z</time></trkpt><trkpt lat="43.91426855172378" lon="12.132467506495747"><ele>266.0</ele><time>2026-04-20T10:09:15Z</time></trkpt><trkpt lat="43.914283304117774" lon="12.132372956418607"><ele>266.0</ele><time>2026-04-20T10:09:16Z</time></trkpt><trkpt lat="43.91426733514" lon="12.132261555599015"><ele>266.0</ele><time>2026-04-20T10:09:17Z</time></trkpt><trkpt lat="43.91424880010518" lon="12.132171406053795"><ele>257.8</ele><time>2026-04-20T10:09:18Z</time></trkpt><trkpt lat="43.91421026738212" lon="12.132088672901812"><ele>249.60000000000002</ele><time>2026-04-20T10:09:19Z</time></trkpt><trkpt lat="43.91412310472195" lon="12.13202759374179"><ele>241.4</ele><time>2026-04-20T10:09:20Z</time></trkpt><trkpt lat="43.91401440617079" lon="12.132029816207337"><ele>233.2</ele><time>2026-04-20T10:09:21Z</time></trkpt><trkpt lat="43.913910152788006" lon="12.132127639309168"><ele>225.0</ele><time>2026-04-20T10:09:22Z</time></trkpt><trkpt lat="43.91384683279369" lon="12.13223679768298"><ele>225.0</ele><time>2026-04-20T10:09:23Z</time></trkpt><trkpt lat="43.913795223331334" lon="12.132379116424394"><ele>225.0</ele><time>2026-04-20T10:09:24Z</time></trkpt><trkpt lat="43.91372164686447" lon="12.132496703016615"><ele>225.0</ele><time>2026-04-20T10:09:25Z</time></trkpt><trkpt lat="43.91369449886613" lon="12.132645400426227"><ele>225.0</ele><time>2026-04-20T10:09:26Z</time></trkpt><trkpt lat="43.91366920295738" lon="12.132780160347272"><ele>225.0</ele><time>2026-04-20T10:09:27Z</time></trkpt><trkpt lat="43.91367629773416" lon="12.132902727779006"><ele>225.0</ele><time>2026-04-20T10:09:28Z</time></trkpt><trkpt lat="43.913716108032304" lon="12.1330448532543"><ele>225.0</ele><time>2026-04-20T10:09:29Z</time></trkpt><trkpt lat="43.91373900523472" lon="12.133204064255512"><ele>225.0</ele><time>2026-04-20T10:09:30Z</time></trkpt><trkpt lat="43.91372263473864" lon="12.133379071033735"><ele>225.0</ele><time>2026-04-20T10:09:31Z</time></trkpt><trkpt lat="43.91366812437886" lon="12.133542566332265"><ele>225.2</ele><time>2026-04-20T10:09:32Z</time></trkpt><trkpt lat="43.913612321644614" lon="12.13368098763763"><ele>225.4</ele><time>2026-04-20T10:09:33Z</time></trkpt><trkpt lat="43.91359466924601" lon="12.133816168785408"><ele>225.60000000000002</ele><time>2026-04-20T10:09:34Z</time></trkpt><trkpt lat="43.91361555864157" lon="12.133949766531945"><ele>225.8</ele><time>2026-04-20T10:09:35Z</time></trkpt><trkpt lat="43.91367399386824" lon="12.134079429078096"><ele>226.0</ele><time>2026-04-20T10:09:36Z</time></trkpt><trkpt lat="43.913756585707404" lon="12.13420897296686"><ele>225.4</ele><time>2026-04-20T10:09:37Z</time></trkpt><trkpt lat="43.913843089123375" lon="12.134328703386247"><ele>224.8</ele><time>2026-04-20T10:09:38Z</time></trkpt><trkpt lat="43.91393134183656" lon="12.134433358300539"><ele>224.20000000000002</ele><time>2026-04-20T10:09:39Z</time></trkpt><trkpt lat="43.91400926940182" lon="12.13452534726449"><ele>223.60000000000002</ele><time>2026-04-20T10:09:40Z</time></trkpt><trkpt lat="43.91407313535224" lon="12.134597421446166"><ele>223.0</ele><time>2026-04-20T10:09:41Z</time></trkpt><trkpt lat="43.91412079542792" lon="12.134663566487363"><ele>223.0</ele><time>2026-04-20T10:09:42Z</time></trkpt><trkpt lat="43.91411180541942" lon="12.134791688964496"><ele>223.0</ele><time>2026-04-20T10:09:44Z</time></trkpt><trkpt lat="43.913995644188226" lon="12.13480159577951"><ele>223.0</ele><time>2026-04-20T10:09:45Z</time></trkpt><trkpt lat="43.91394091559848" lon="12.134708702147993"><ele>223.0</ele><time>2026-04-20T10:09:46Z</time></trkpt><trkpt lat="43.91388313529002" lon="12.134616355799185"><ele>223.0</ele><time>2026-04-20T10:09:47Z</time></trkpt><trkpt lat="43.91377712084047" lon="12.134529619273508"><ele>223.0</ele><time>2026-04-20T10:09:48Z</time></trkpt><trkpt lat="43.91367302304427" lon="12.134398292348362"><ele>223.0</ele><time>2026-04-20T10:09:49Z</time></trkpt><trkpt lat="43.91354564093837" lon="12.134269355577171"><ele>223.0</ele><time>2026-04-20T10:09:50Z</time></trkpt><trkpt lat="43.91341199547206" lon="12.134127224035431"><ele>216.33333333333331</ele><time>2026-04-20T10:09:51Z</time></trkpt><trkpt lat="43.91328948201244" lon="12.133966493327353"><ele>209.66666666666669</ele><time>2026-04-20T10:09:52Z</time></trkpt><trkpt lat="43.913134841690834" lon="12.133846314365758"><ele>203.0</ele><time>2026-04-20T10:09:53Z</time></trkpt><trkpt lat="43.91297685267781" lon="12.133723888544148"><ele>203.0</ele><time>2026-04-20T10:09:54Z</time></trkpt><trkpt lat="43.91281693627573" lon="12.133605040123836"><ele>203.0</ele><time>2026-04-20T10:09:55Z</time></trkpt><trkpt lat="43.91266109172241" lon="12.133499516230694"><ele>203.0</ele><time>2026-04-20T10:09:56Z</time></trkpt><trkpt lat="43.912519845404034" lon="12.133404340679425"><ele>202.75</ele><time>2026-04-20T10:09:57Z</time></trkpt><trkpt lat="43.912396549035726" lon="12.133306053121293"><ele>202.5</ele><time>2026-04-20T10:09:58Z</time></trkpt><trkpt lat="43.912295214089546" lon="12.133206020421504"><ele>202.25</ele><time>2026-04-20T10:09:59Z</time></trkpt><trkpt lat="43.91223496475541" lon="12.13309353930113"><ele>202.0</ele><time>2026-04-20T10:10:00Z</time></trkpt><trkpt lat="43.91222261485847" lon="12.13296136621544"><ele>202.0</ele><time>2026-04-20T10:10:01Z</time></trkpt><trkpt lat="43.91228865939286" lon="12.132832865452263"><ele>202.0</ele><time>2026-04-20T10:10:02Z</time></trkpt><trkpt lat="43.91233445611916" lon="12.132659977008723"><ele>202.0</ele><time>2026-04-20T10:10:03Z</time></trkpt><trkpt lat="43.91238416193874" lon="12.132452816987742"><ele>202.0</ele><time>2026-04-20T10:10:04Z</time></trkpt><trkpt lat="43.912416243549124" lon="12.132244598468468"><ele>204.0</ele><time>2026-04-20T10:10:05Z</time></trkpt><trkpt lat="43.91239620247764" lon="12.132036819588755"><ele>206.0</ele><time>2026-04-20T10:10:06Z</time></trkpt><trkpt lat="43.91234830312156" lon="12.131806120770875"><ele>208.0</ele><time>2026-04-20T10:10:07Z</time></trkpt><trkpt lat="43.91236688500144" lon="12.131592052589136"><ele>207.0</ele><time>2026-04-20T10:10:08Z</time></trkpt><trkpt lat="43.912334053413936" lon="12.131394338152147"><ele>206.0</ele><time>2026-04-20T10:10:09Z</time></trkpt><trkpt lat="43.912277501519625" lon="12.13119591647355"><ele>205.0</ele><time>2026-04-20T10:10:10Z</time></trkpt><trkpt lat="43.91217733683268" lon="12.131040179724911"><ele>205.0</ele><time>2026-04-20T10:10:11Z</time></trkpt><trkpt lat="43.91207204018935" lon="12.130938868081943"><ele>205.0</ele><time>2026-04-20T10:10:12Z</time></trkpt><trkpt lat="43.91196316971946" lon="12.130882063359817"><ele>205.0</ele><time>2026-04-20T10:10:13Z</time></trkpt><trkpt lat="43.91188398525859" lon="12.130817595492939"><ele>205.0</ele><time>2026-04-20T10:10:14Z</time></trkpt><trkpt lat="43.911881292861594" lon="12.130628520386097"><ele>206.5</ele><time>2026-04-20T10:10:15Z</time></trkpt><trkpt lat="43.911831217373525" lon="12.130428881747926"><ele>208.0</ele><time>2026-04-20T10:10:16Z</time></trkpt><trkpt lat="43.91176369353807" lon="12.130232868558823"><ele>209.5</ele><time>2026-04-20T10:10:17Z</time></trkpt><trkpt lat="43.911704025251865" lon="12.130089325610234"><ele>211.0</ele><time>2026-04-20T10:10:18Z</time></trkpt><trkpt lat="43.91164336351861" lon="12.130013944946562"><ele>211.0</ele><time>2026-04-20T10:10:19Z</time></trkpt><trkpt lat="43.91159267672074" lon="12.129960310389867"><ele>211.0</ele><time>2026-04-20T10:10:20Z</time></trkpt><trkpt lat="43.91151433913171" lon="12.130026618490936"><ele>211.0</ele><time>2026-04-20T10:10:21Z</time></trkpt><trkpt lat="43.911499538437276" lon="12.13016357169544"><ele>211.0</ele><time>2026-04-20T10:10:22Z</time></trkpt><trkpt lat="43.91152599472323" lon="12.130309940825878"><ele>211.0</ele><time>2026-04-20T10:10:23Z</time></trkpt><trkpt lat="43.911564415048396" lon="12.130495343297003"><ele>211.0</ele><time>2026-04-20T10:10:24Z</time></trkpt><trkpt lat="43.91152641476552" lon="12.130662336817075"><ele>211.0</ele><time>2026-04-20T10:10:25Z</time></trkpt><trkpt lat="43.911471582286865" lon="12.130852630187132"><ele>211.0</ele><time>2026-04-20T10:10:26Z</time></trkpt><trkpt lat="43.91144322462889" lon="12.131031951354531"><ele>211.0</ele><time>2026-04-20T10:10:27Z</time></trkpt><trkpt lat="43.91144509670138" lon="12.131173818216917"><ele>214.33333333333331</ele><time>2026-04-20T10:10:28Z</time></trkpt><trkpt lat="43.91150092138059" lon="12.131296203135236"><ele>217.66666666666666</ele><time>2026-04-20T10:10:29Z</time></trkpt><trkpt lat="43.911584221366965" lon="12.131377506513331"><ele>221.0</ele><time>2026-04-20T10:10:30Z</time></trkpt><trkpt lat="43.91161643673005" lon="12.131475223890897"><ele>224.33333333333331</ele><time>2026-04-20T10:10:31Z</time></trkpt><trkpt lat="43.9115712821766" lon="12.131564060121967"><ele>227.66666666666666</ele><time>2026-04-20T10:10:33Z</time></trkpt><trkpt lat="43.91150655658583" lon="12.131528040955343"><ele>231.0</ele><time>2026-04-20T10:10:34Z</time></trkpt><trkpt lat="43.91148205824311" lon="12.131395524682109"><ele>231.0</ele><time>2026-04-20T10:10:35Z</time></trkpt><trkpt lat="43.91139918421291" lon="12.131304703454305"><ele>231.0</ele><time>2026-04-20T10:10:36Z</time></trkpt><trkpt lat="43.911311172936955" lon="12.131192809739034"><ele>231.0</ele><time>2026-04-20T10:10:37Z</time></trkpt><trkpt lat="43.91121945862732" lon="12.131051722135302"><ele>231.0</ele><time>2026-04-20T10:10:38Z</time></trkpt><trkpt lat="43.91120758351916" lon="12.130876623773322"><ele>226.0</ele><time>2026-04-20T10:10:39Z</time></trkpt><trkpt lat="43.91118328691542" lon="12.130658790541585"><ele>221.0</ele><time>2026-04-20T10:10:40Z</time></trkpt><trkpt lat="43.91118217701599" lon="12.130460641787028"><ele>216.0</ele><time>2026-04-20T10:10:41Z</time></trkpt><trkpt lat="43.91115964130325" lon="12.130317197632149"><ele>211.0</ele><time>2026-04-20T10:10:42Z</time></trkpt><trkpt lat="43.91109756319639" lon="12.130205112833316"><ele>211.0</ele><time>2026-04-20T10:10:43Z</time></trkpt><trkpt lat="43.91100186563712" lon="12.130125327638558"><ele>211.0</ele><time>2026-04-20T10:10:44Z</time></trkpt><trkpt lat="43.91087146726982" lon="12.13006299013442"><ele>211.0</ele><time>2026-04-20T10:10:45Z</time></trkpt><trkpt lat="43.91071189639783" lon="12.130000094388738"><ele>211.0</ele><time>2026-04-20T10:10:46Z</time></trkpt><trkpt lat="43.910523394419386" lon="12.129920082848637"><ele>207.66666666666666</ele><time>2026-04-20T10:10:47Z</time></trkpt><trkpt lat="43.91032881960241" lon="12.129827853966251"><ele>204.33333333333331</ele><time>2026-04-20T10:10:48Z</time></trkpt><trkpt lat="43.91016248170738" lon="12.129741277575702"><ele>201.0</ele><time>2026-04-20T10:10:49Z</time></trkpt><trkpt lat="43.91000703387715" lon="12.129664822703912"><ele>213.0</ele><time>2026-04-20T10:10:50Z</time></trkpt><trkpt lat="43.90985322914647" lon="12.129577013764303"><ele>225.0</ele><time>2026-04-20T10:10:51Z</time></trkpt><trkpt lat="43.90973330880597" lon="12.129424809470747"><ele>237.0</ele><time>2026-04-20T10:10:52Z</time></trkpt><trkpt lat="43.90962701753234" lon="12.12926018168082"><ele>237.0</ele><time>2026-04-20T10:10:53Z</time></trkpt><trkpt lat="43.90951287757554" lon="12.129090373855544"><ele>237.0</ele><time>2026-04-20T10:10:54Z</time></trkpt><trkpt lat="43.909403653085235" lon="12.128900552959559"><ele>237.0</ele><time>2026-04-20T10:10:55Z</time></trkpt><trkpt lat="43.909285822675294" lon="12.12871174676616"><ele>236.33333333333331</ele><time>2026-04-20T10:10:56Z</time></trkpt><trkpt lat="43.90916152860735" lon="12.128514604888995"><ele>235.66666666666666</ele><time>2026-04-20T10:10:57Z</time></trkpt><trkpt lat="43.90904316977446" lon="12.128332516088902"><ele>235.0</ele><time>2026-04-20T10:10:58Z</time></trkpt><trkpt lat="43.908941823623096" lon="12.128156728051595"><ele>235.0</ele><time>2026-04-20T10:10:59Z</time></trkpt><trkpt lat="43.90885185357151" lon="12.127987192099738"><ele>235.0</ele><time>2026-04-20T10:11:00Z</time></trkpt><trkpt lat="43.90876045606356" lon="12.127824795543987"><ele>235.0</ele><time>2026-04-20T10:11:01Z</time></trkpt><trkpt lat="43.90865801392859" lon="12.127719770811996"><ele>235.0</ele><time>2026-04-20T10:11:02Z</time></trkpt><trkpt lat="43.908537990470826" lon="12.127670264908488"><ele>248.66666666666666</ele><time>2026-04-20T10:11:03Z</time></trkpt><trkpt lat="43.908397363777226" lon="12.127650570965773"><ele>262.3333333333333</ele><time>2026-04-20T10:11:04Z</time></trkpt><trkpt lat="43.908241260343374" lon="12.127733038298256"><ele>276.0</ele><time>2026-04-20T10:11:05Z</time></trkpt><trkpt lat="43.90808120676148" lon="12.127815819853407"><ele>276.0</ele><time>2026-04-20T10:11:06Z</time></trkpt><trkpt lat="43.907904324223416" lon="12.12786954078535"><ele>276.0</ele><time>2026-04-20T10:11:07Z</time></trkpt><trkpt lat="43.90772031280889" lon="12.12794650684585"><ele>276.0</ele><time>2026-04-20T10:11:08Z</time></trkpt><trkpt lat="43.90753120383792" lon="12.128024795977732"><ele>277.0</ele><time>2026-04-20T10:11:09Z</time></trkpt><trkpt lat="43.907336986673556" lon="12.12810596534821"><ele>278.0</ele><time>2026-04-20T10:11:10Z</time></trkpt><trkpt lat="43.90714134283448" lon="12.12819578723155"><ele>279.0</ele><time>2026-04-20T10:11:11Z</time></trkpt><trkpt lat="43.906943238951065" lon="12.128291856029621"><ele>279.3333333333333</ele><time>2026-04-20T10:11:12Z</time></trkpt><trkpt lat="43.90676076491252" lon="12.12840406214633"><ele>279.66666666666663</ele><time>2026-04-20T10:11:13Z</time></trkpt><trkpt lat="43.90660037864596" lon="12.128481091806632"><ele>280.0</ele><time>2026-04-20T10:11:14Z</time></trkpt><trkpt lat="43.906451807798355" lon="12.128546335277868"><ele>281.6</ele><time>2026-04-20T10:11:15Z</time></trkpt><trkpt lat="43.90632107947445" lon="12.128591180830611"><ele>283.2</ele><time>2026-04-20T10:11:16Z</time></trkpt><trkpt lat="43.90622910741374" lon="12.128682145860369"><ele>284.8</ele><time>2026-04-20T10:11:17Z</time></trkpt><trkpt lat="43.906174101681735" lon="12.128789946652706"><ele>286.4</ele><time>2026-04-20T10:11:18Z</time></trkpt><trkpt lat="43.906177825007155" lon="12.128936119019121"><ele>288.0</ele><time>2026-04-20T10:11:19Z</time></trkpt><trkpt lat="43.90621742196914" lon="12.129099842411293"><ele>290.3333333333333</ele><time>2026-04-20T10:11:20Z</time></trkpt><trkpt lat="43.90628933237018" lon="12.129283036422528"><ele>292.66666666666663</ele><time>2026-04-20T10:11:21Z</time></trkpt><trkpt lat="43.90638485053699" lon="12.129492430612165"><ele>295.0</ele><time>2026-04-20T10:11:22Z</time></trkpt><trkpt lat="43.90647618478213" lon="12.129719031357132"><ele>299.0</ele><time>2026-04-20T10:11:23Z</time></trkpt><trkpt lat="43.90656878465443" lon="12.129956909340171"><ele>303.0</ele><time>2026-04-20T10:11:24Z</time></trkpt><trkpt lat="43.90666288449004" lon="12.130201121598992"><ele>307.0</ele><time>2026-04-20T10:11:25Z</time></trkpt><trkpt lat="43.906734300637325" lon="12.130422793598362"><ele>304.4</ele><time>2026-04-20T10:11:26Z</time></trkpt><trkpt lat="43.90680839391427" lon="12.130600525147395"><ele>301.79999999999995</ele><time>2026-04-20T10:11:27Z</time></trkpt><trkpt lat="43.90687003034417" lon="12.1307499281717"><ele>299.2</ele><time>2026-04-20T10:11:28Z</time></trkpt><trkpt lat="43.9069074511611" lon="12.130853657449924"><ele>296.59999999999997</ele><time>2026-04-20T10:11:29Z</time></trkpt><trkpt lat="43.90691119648894" lon="12.130981476507607"><ele>294.0</ele><time>2026-04-20T10:11:31Z</time></trkpt><trkpt lat="43.906839677221384" lon="12.131008847127115"><ele>294.0</ele><time>2026-04-20T10:11:32Z</time></trkpt><trkpt lat="43.90676714110053" lon="12.130952608438967"><ele>294.0</ele><time>2026-04-20T10:11:33Z</time></trkpt><trkpt lat="43.906711831546964" lon="12.13080909114772"><ele>294.0</ele><time>2026-04-20T10:11:34Z</time></trkpt><trkpt lat="43.90662531945782" lon="12.1306504613682"><ele>294.0</ele><time>2026-04-20T10:11:35Z</time></trkpt><trkpt lat="43.90653850261149" lon="12.130472505555693"><ele>298.3333333333333</ele><time>2026-04-20T10:11:36Z</time></trkpt><trkpt lat="43.90643544156407" lon="12.130297876192321"><ele>302.66666666666663</ele><time>2026-04-20T10:11:37Z</time></trkpt><trkpt lat="43.9063287587163" lon="12.130124550774967"><ele>307.0</ele><time>2026-04-20T10:11:38Z</time></trkpt><trkpt lat="43.906233334498964" lon="12.12997721566873"><ele>308.0</ele><time>2026-04-20T10:11:39Z</time></trkpt><trkpt lat="43.90614354385864" lon="12.129856599626693"><ele>309.0</ele><time>2026-04-20T10:11:40Z</time></trkpt><trkpt lat="43.90605328339927" lon="12.129757874189684"><ele>310.0</ele><time>2026-04-20T10:11:41Z</time></trkpt><trkpt lat="43.90596339184253" lon="12.129695554817133"><ele>311.0</ele><time>2026-04-20T10:11:42Z</time></trkpt><trkpt lat="43.90586036139907" lon="12.129687070067313"><ele>312.0</ele><time>2026-04-20T10:11:43Z</time></trkpt><trkpt lat="43.905755295945774" lon="12.129732003690433"><ele>312.0</ele><time>2026-04-20T10:11:44Z</time></trkpt><trkpt lat="43.9056373438599" lon="12.129822970755647"><ele>312.0</ele><time>2026-04-20T10:11:45Z</time></trkpt><trkpt lat="43.90549955240748" lon="12.129898307436312"><ele>312.0</ele><time>2026-04-20T10:11:46Z</time></trkpt><trkpt lat="43.905343307275196" lon="12.129925403954246"><ele>312.0</ele><time>2026-04-20T10:11:47Z</time></trkpt><trkpt lat="43.90519205993917" lon="12.12989227589372"><ele>320.3333333333333</ele><time>2026-04-20T10:11:48Z</time></trkpt><trkpt lat="43.90505960683846" lon="12.129778656322234"><ele>328.66666666666663</ele><time>2026-04-20T10:11:49Z</time></trkpt><trkpt lat="43.904940410325864" lon="12.129647485052875"><ele>337.0</ele><time>2026-04-20T10:11:50Z</time></trkpt><trkpt lat="43.90483904249395" lon="12.129473316338558"><ele>337.0</ele><time>2026-04-20T10:11:51Z</time></trkpt><trkpt lat="43.90474821035944" lon="12.12926669367828"><ele>337.0</ele><time>2026-04-20T10:11:52Z</time></trkpt><trkpt lat="43.9046907233286" lon="12.129032426644267"><ele>337.0</ele><time>2026-04-20T10:11:53Z</time></trkpt><trkpt lat="43.90464291457439" lon="12.128781407462856"><ele>335.66666666666663</ele><time>2026-04-20T10:11:54Z</time></trkpt><trkpt lat="43.904590781658" lon="12.128533488599093"><ele>334.3333333333333</ele><time>2026-04-20T10:11:55Z</time></trkpt><trkpt lat="43.90455046761919" lon="12.128275484093367"><ele>333.0</ele><time>2026-04-20T10:11:56Z</time></trkpt><trkpt lat="43.90450632276157" lon="12.128025228013879"><ele>331.3333333333333</ele><time>2026-04-20T10:11:57Z</time></trkpt><trkpt lat="43.90446777459721" lon="12.12777507416596"><ele>329.66666666666663</ele><time>2026-04-20T10:11:58Z</time></trkpt><trkpt lat="43.90442490671575" lon="12.127560507351424"><ele>328.0</ele><time>2026-04-20T10:11:59Z</time></trkpt><trkpt lat="43.90437121825498" lon="12.127378603589895"><ele>325.59999999999997</ele><time>2026-04-20T10:12:00Z</time></trkpt><trkpt lat="43.904298224255434" lon="12.127248671368774"><ele>323.2</ele><time>2026-04-20T10:12:01Z</time></trkpt><trkpt lat="43.904213835690484" lon="12.127174712345907"><ele>320.8</ele><time>2026-04-20T10:12:02Z</time></trkpt><trkpt lat="43.904132722219636" lon="12.127155503088352"><ele>318.4</ele><time>2026-04-20T10:12:03Z</time></trkpt><trkpt lat="43.904046408769474" lon="12.127188228402291"><ele>316.0</ele><time>2026-04-20T10:12:04Z</time></trkpt><trkpt lat="43.90397110791146" lon="12.12730046878623"><ele>326.75</ele><time>2026-04-20T10:12:05Z</time></trkpt><trkpt lat="43.903907190829685" lon="12.127455213988727"><ele>337.5</ele><time>2026-04-20T10:12:06Z</time></trkpt><trkpt lat="43.90386961569012" lon="12.127622214173815"><ele>348.25</ele><time>2026-04-20T10:12:07Z</time></trkpt><trkpt lat="43.90384770553062" lon="12.127814445799261"><ele>359.0</ele><time>2026-04-20T10:12:08Z</time></trkpt><trkpt lat="43.903835009528514" lon="12.12803321775229"><ele>361.0</ele><time>2026-04-20T10:12:09Z</time></trkpt><trkpt lat="43.90375903537236" lon="12.128232285058774"><ele>363.0</ele><time>2026-04-20T10:12:10Z</time></trkpt><trkpt lat="43.90368302953659" lon="12.128402061074299"><ele>365.0</ele><time>2026-04-20T10:12:11Z</time></trkpt><trkpt lat="43.90364703401539" lon="12.128556782601706"><ele>367.0</ele><time>2026-04-20T10:12:12Z</time></trkpt><trkpt lat="43.90363527039351" lon="12.128723530850086"><ele>367.0</ele><time>2026-04-20T10:12:13Z</time></trkpt><trkpt lat="43.903662888808256" lon="12.128906719396015"><ele>367.0</ele><time>2026-04-20T10:12:14Z</time></trkpt><trkpt lat="43.90372159712012" lon="12.129085634043214"><ele>367.0</ele><time>2026-04-20T10:12:15Z</time></trkpt><trkpt lat="43.90381691322743" lon="12.129275560542101"><ele>367.0</ele><time>2026-04-20T10:12:16Z</time></trkpt><trkpt lat="43.90391736734811" lon="12.129504394745197"><ele>368.66666666666663</ele><time>2026-04-20T10:12:17Z</time></trkpt><trkpt lat="43.90401995172305" lon="12.129733809157985"><ele>370.3333333333333</ele><time>2026-04-20T10:12:18Z</time></trkpt><trkpt lat="43.9041051393449" lon="12.129957236190052"><ele>372.0</ele><time>2026-04-20T10:12:19Z</time></trkpt><trkpt lat="43.90415752747828" lon="12.130199073038476"><ele>373.3333333333333</ele><time>2026-04-20T10:12:20Z</time></trkpt><trkpt lat="43.90419553124644" lon="12.130461288862747"><ele>374.66666666666663</ele><time>2026-04-20T10:12:21Z</time></trkpt><trkpt lat="43.904208538571915" lon="12.130700943531155"><ele>376.0</ele><time>2026-04-20T10:12:22Z</time></trkpt><trkpt lat="43.904162224323116" lon="12.130915207353226"><ele>380.0</ele><time>2026-04-20T10:12:23Z</time></trkpt><trkpt lat="43.90408745740135" lon="12.131140383974722"><ele>384.0</ele><time>2026-04-20T10:12:24Z</time></trkpt><trkpt lat="43.904024588222164" lon="12.131378747326226"><ele>388.0</ele><time>2026-04-20T10:12:25Z</time></trkpt><trkpt lat="43.90398636868062" lon="12.131634827182436"><ele>393.0</ele><time>2026-04-20T10:12:26Z</time></trkpt><trkpt lat="43.90397602283444" lon="12.131909638620687"><ele>398.0</ele><time>2026-04-20T10:12:27Z</time></trkpt><trkpt lat="43.90392415841079" lon="12.132134775856088"><ele>403.0</ele><time>2026-04-20T10:12:28Z</time></trkpt><trkpt lat="43.90384787370993" lon="12.132304982496423"><ele>403.75</ele><time>2026-04-20T10:12:29Z</time></trkpt><trkpt lat="43.90375562885242" lon="12.13239651658792"><ele>404.5</ele><time>2026-04-20T10:12:30Z</time></trkpt><trkpt lat="43.90363738772154" lon="12.132465442060122"><ele>405.25</ele><time>2026-04-20T10:12:31Z</time></trkpt><trkpt lat="43.903490146145835" lon="12.132552963724361"><ele>406.0</ele><time>2026-04-20T10:12:32Z</time></trkpt><trkpt lat="43.903335492160934" lon="12.132638488710544"><ele>402.6666666666667</ele><time>2026-04-20T10:12:33Z</time></trkpt><trkpt lat="43.90315747179387" lon="12.132707550739669"><ele>399.33333333333337</ele><time>2026-04-20T10:12:34Z</time></trkpt><trkpt lat="43.90297906690087" lon="12.132782236490783"><ele>396.0</ele><time>2026-04-20T10:12:35Z</time></trkpt><trkpt lat="43.90280510891361" lon="12.132786538667002"><ele>396.0</ele><time>2026-04-20T10:12:36Z</time></trkpt><trkpt lat="43.902647319119204" lon="12.132768534834092"><ele>396.0</ele><time>2026-04-20T10:12:37Z</time></trkpt><trkpt lat="43.902478630138745" lon="12.132783625810095"><ele>396.0</ele><time>2026-04-20T10:12:38Z</time></trkpt><trkpt lat="43.902339086705915" lon="12.132860088316463"><ele>396.66666666666663</ele><time>2026-04-20T10:12:39Z</time></trkpt><trkpt lat="43.902188695653" lon="12.13293842408863"><ele>397.3333333333333</ele><time>2026-04-20T10:12:40Z</time></trkpt><trkpt lat="43.90203171428896" lon="12.133051710706981"><ele>398.0</ele><time>2026-04-20T10:12:41Z</time></trkpt><trkpt lat="43.90188671348174" lon="12.133197142442684"><ele>399.66666666666663</ele><time>2026-04-20T10:12:42Z</time></trkpt><trkpt lat="43.90176714897101" lon="12.13338764461325"><ele>401.33333333333337</ele><time>2026-04-20T10:12:43Z</time></trkpt><trkpt lat="43.901640175922374" lon="12.133568151069472"><ele>403.0</ele><time>2026-04-20T10:12:44Z</time></trkpt><trkpt lat="43.90149458239198" lon="12.133710888346586"><ele>403.0</ele><time>2026-04-20T10:12:45Z</time></trkpt><trkpt lat="43.90134378338779" lon="12.133822940229233"><ele>403.0</ele><time>2026-04-20T10:12:46Z</time></trkpt><trkpt lat="43.90117043161415" lon="12.133933345247101"><ele>403.0</ele><time>2026-04-20T10:12:47Z</time></trkpt><trkpt lat="43.90099267708883" lon="12.134050001033767"><ele>403.33333333333337</ele><time>2026-04-20T10:12:48Z</time></trkpt><trkpt lat="43.90083656061041" lon="12.134207152040712"><ele>403.66666666666663</ele><time>2026-04-20T10:12:49Z</time></trkpt><trkpt lat="43.900675857101504" lon="12.134331214552166"><ele>404.0</ele><time>2026-04-20T10:12:50Z</time></trkpt><trkpt lat="43.90055068442929" lon="12.1344424902606"><ele>404.0</ele><time>2026-04-20T10:12:51Z</time></trkpt><trkpt lat="43.90043288723861" lon="12.134528367213447"><ele>404.0</ele><time>2026-04-20T10:12:52Z</time></trkpt><trkpt lat="43.90031247843476" lon="12.134544224713695"><ele>404.0</ele><time>2026-04-20T10:12:53Z</time></trkpt><trkpt lat="43.90017928183991" lon="12.134529321501345"><ele>404.0</ele><time>2026-04-20T10:12:54Z</time></trkpt><trkpt lat="43.90006405769755" lon="12.13441427634263"><ele>408.3333333333333</ele><time>2026-04-20T10:12:55Z</time></trkpt><trkpt lat="43.89993018934375" lon="12.134292097739587"><ele>412.66666666666663</ele><time>2026-04-20T10:12:56Z</time></trkpt><trkpt lat="43.89977339226643" lon="12.134211875770403"><ele>417.0</ele><time>2026-04-20T10:12:57Z</time></trkpt><trkpt lat="43.89961840175797" lon="12.134100969296078"><ele>418.66666666666663</ele><time>2026-04-20T10:12:58Z</time></trkpt><trkpt lat="43.89946068576679" lon="12.133962547747547"><ele>420.3333333333333</ele><time>2026-04-20T10:12:59Z</time></trkpt><trkpt lat="43.899304536000045" lon="12.133822569104852"><ele>422.0</ele><time>2026-04-20T10:13:00Z</time></trkpt><trkpt lat="43.899164943936405" lon="12.133689914715221"><ele>422.0</ele><time>2026-04-20T10:13:01Z</time></trkpt><trkpt lat="43.89904845197085" lon="12.133570969903065"><ele>422.0</ele><time>2026-04-20T10:13:02Z</time></trkpt><trkpt lat="43.89895800068734" lon="12.13348791210618"><ele>422.0</ele><time>2026-04-20T10:13:03Z</time></trkpt><trkpt lat="43.898893686258134" lon="12.133444120283578"><ele>422.0</ele><time>2026-04-20T10:13:04Z</time></trkpt><trkpt lat="43.89879969594568" lon="12.133523647115029"><ele>422.0</ele><time>2026-04-20T10:13:06Z</time></trkpt><trkpt lat="43.898835220463575" lon="12.133663047568106"><ele>422.0</ele><time>2026-04-20T10:13:07Z</time></trkpt><trkpt lat="43.898910279927875" lon="12.133758525424224"><ele>422.0</ele><time>2026-04-20T10:13:08Z</time></trkpt><trkpt lat="43.89902922554245" lon="12.133838956816758"><ele>422.0</ele><time>2026-04-20T10:13:09Z</time></trkpt><trkpt lat="43.89915410872977" lon="12.133958156812767"><ele>422.0</ele><time>2026-04-20T10:13:10Z</time></trkpt><trkpt lat="43.89925660422568" lon="12.134120092577064"><ele>420.3333333333333</ele><time>2026-04-20T10:13:11Z</time></trkpt><trkpt lat="43.899385013920174" lon="12.134304338796984"><ele>418.66666666666663</ele><time>2026-04-20T10:13:12Z</time></trkpt><trkpt lat="43.89951701676296" lon="12.134490269277094"><ele>417.0</ele><time>2026-04-20T10:13:13Z</time></trkpt><trkpt lat="43.899644014455475" lon="12.13468719090695"><ele>417.0</ele><time>2026-04-20T10:13:14Z</time></trkpt><trkpt lat="43.89978628422905" lon="12.134867885907648"><ele>417.0</ele><time>2026-04-20T10:13:15Z</time></trkpt><trkpt lat="43.89991340522401" lon="12.135050820059838"><ele>417.0</ele><time>2026-04-20T10:13:16Z</time></trkpt><trkpt lat="43.89999398527845" lon="12.135213666252355"><ele>415.6</ele><time>2026-04-20T10:13:17Z</time></trkpt><trkpt lat="43.90004500398825" lon="12.135334934524943"><ele>414.20000000000005</ele><time>2026-04-20T10:13:18Z</time></trkpt><trkpt lat="43.900150285632115" lon="12.135431454226554"><ele>412.8</ele><time>2026-04-20T10:13:50Z</time></trkpt><trkpt lat="43.90019654900081" lon="12.135512768219849"><ele>411.4</ele><time>2026-04-20T10:13:51Z</time></trkpt><trkpt lat="43.90021449450444" lon="12.135623496954768"><ele>410.0</ele><time>2026-04-20T10:13:52Z</time></trkpt><trkpt lat="43.90021255351997" lon="12.135762381221433"><ele>412.49999999999994</ele><time>2026-04-20T10:13:53Z</time></trkpt><trkpt lat="43.9001911460608" lon="12.135908797367932"><ele>415.0</ele><time>2026-04-20T10:13:54Z</time></trkpt><trkpt lat="43.900172062151896" lon="12.136018783884378"><ele>417.5</ele><time>2026-04-20T10:13:55Z</time></trkpt><trkpt lat="43.90015688670367" lon="12.136110106193458"><ele>420.0</ele><time>2026-04-20T10:13:56Z</time></trkpt><trkpt lat="43.90013645280418" lon="12.136197628854372"><ele>422.49999999999994</ele><time>2026-04-20T10:13:57Z</time></trkpt><trkpt lat="43.900089630940634" lon="12.136259588061023"><ele>425.0</ele><time>2026-04-20T10:13:58Z</time></trkpt><trkpt lat="43.89994737289077" lon="12.136209284946988"><ele>432.75</ele><time>2026-04-20T10:14:00Z</time></trkpt><trkpt lat="43.8998514981161" lon="12.136128965293084"><ele>440.5</ele><time>2026-04-20T10:14:01Z</time></trkpt><trkpt lat="43.89974199565084" lon="12.136049985785842"><ele>448.25</ele><time>2026-04-20T10:14:02Z</time></trkpt><trkpt lat="43.89962740693817" lon="12.135970314576403"><ele>456.0</ele><time>2026-04-20T10:14:03Z</time></trkpt><trkpt lat="43.899504073010945" lon="12.135887036854443"><ele>456.0</ele><time>2026-04-20T10:14:04Z</time></trkpt><trkpt lat="43.899371018018975" lon="12.135805161754739"><ele>456.0</ele><time>2026-04-20T10:14:05Z</time></trkpt><trkpt lat="43.899232156256154" lon="12.13572508289638"><ele>456.0</ele><time>2026-04-20T10:14:06Z</time></trkpt><trkpt lat="43.89909002604228" lon="12.135642337797872"><ele>460.33333333333337</ele><time>2026-04-20T10:14:07Z</time></trkpt><trkpt lat="43.89894718913406" lon="12.13555208121186"><ele>464.6666666666667</ele><time>2026-04-20T10:14:08Z</time></trkpt><trkpt lat="43.89879555842225" lon="12.13545953310188"><ele>469.0</ele><time>2026-04-20T10:14:09Z</time></trkpt><trkpt lat="43.89864086140359" lon="12.135387697687195"><ele>469.0</ele><time>2026-04-20T10:14:10Z</time></trkpt><trkpt lat="43.898498285257666" lon="12.135334437363916"><ele>469.0</ele><time>2026-04-20T10:14:11Z</time></trkpt><trkpt lat="43.898366489729504" lon="12.135302682299598"><ele>469.0</ele><time>2026-04-20T10:14:12Z</time></trkpt><trkpt lat="43.898226820317234" lon="12.135312556425555"><ele>469.0</ele><time>2026-04-20T10:14:13Z</time></trkpt><trkpt lat="43.89808476547895" lon="12.135364257700068"><ele>471.75</ele><time>2026-04-20T10:14:14Z</time></trkpt><trkpt lat="43.89794654797176" lon="12.135437143518365"><ele>474.5</ele><time>2026-04-20T10:14:15Z</time></trkpt><trkpt lat="43.89782033567488" lon="12.135517838809891"><ele>477.25</ele><time>2026-04-20T10:14:16Z</time></trkpt><trkpt lat="43.89770678803847" lon="12.135587793852574"><ele>480.0</ele><time>2026-04-20T10:14:17Z</time></trkpt><trkpt lat="43.89759613501315" lon="12.135601786896075"><ele>483.25</ele><time>2026-04-20T10:14:18Z</time></trkpt><trkpt lat="43.89749582219211" lon="12.135563508013188"><ele>486.5</ele><time>2026-04-20T10:14:19Z</time></trkpt><trkpt lat="43.89743218843777" lon="12.135432396039224"><ele>489.75</ele><time>2026-04-20T10:14:20Z</time></trkpt><trkpt lat="43.89733436049952" lon="12.135295015564399"><ele>493.0</ele><time>2026-04-20T10:14:21Z</time></trkpt><trkpt lat="43.89721419560179" lon="12.135170836471046"><ele>493.0</ele><time>2026-04-20T10:14:22Z</time></trkpt><trkpt lat="43.89704972976947" lon="12.135102138461429"><ele>493.0</ele><time>2026-04-20T10:14:23.001Z</time></trkpt><trkpt lat="43.89687723742331" lon="12.135079326767348"><ele>493.0</ele><time>2026-04-20T10:14:24.001Z</time></trkpt><trkpt lat="43.89670375634994" lon="12.135069192182304"><ele>494.0</ele><time>2026-04-20T10:14:25.001Z</time></trkpt><trkpt lat="43.89654555960914" lon="12.135046928754527"><ele>495.0</ele><time>2026-04-20T10:14:26.001Z</time></trkpt><trkpt lat="43.8964244904914" lon="12.134987064363076"><ele>496.0</ele><time>2026-04-20T10:14:27.001Z</time></trkpt><trkpt lat="43.89635255606947" lon="12.134857076643703"><ele>497.0</ele><time>2026-04-20T10:14:28.001Z</time></trkpt><trkpt lat="43.896323653485794" lon="12.13471855767939"><ele>498.75</ele><time>2026-04-20T10:14:29Z</time></trkpt><trkpt lat="43.8963379187108" lon="12.134556499813863"><ele>500.5</ele><time>2026-04-20T10:14:30Z</time></trkpt><trkpt lat="43.89630562752158" lon="12.134349689825562"><ele>502.25</ele><time>2026-04-20T10:14:31Z</time></trkpt><trkpt lat="43.89625360224081" lon="12.134143920821543"><ele>504.0</ele><time>2026-04-20T10:14:32Z</time></trkpt><trkpt lat="43.89614891221243" lon="12.133972088289486"><ele>504.0</ele><time>2026-04-20T10:14:33Z</time></trkpt><trkpt lat="43.89602979395402" lon="12.133817279619956"><ele>504.0</ele><time>2026-04-20T10:14:34Z</time></trkpt><trkpt lat="43.8959523471077" lon="12.133625682603533"><ele>504.0</ele><time>2026-04-20T10:14:35Z</time></trkpt><trkpt lat="43.89590916754969" lon="12.133439525766272"><ele>505.25</ele><time>2026-04-20T10:14:36Z</time></trkpt><trkpt lat="43.89583780152924" lon="12.133297621748351"><ele>506.5</ele><time>2026-04-20T10:14:37Z</time></trkpt><trkpt lat="43.89573831952277" lon="12.133183710969165"><ele>507.75</ele><time>2026-04-20T10:14:38Z</time></trkpt><trkpt lat="43.89559308926308" lon="12.133074900437897"><ele>509.0</ele><time>2026-04-20T10:14:39Z</time></trkpt><trkpt lat="43.895453829128435" lon="12.13296287724776"><ele>509.0</ele><time>2026-04-20T10:14:40Z</time></trkpt><trkpt lat="43.89531560910131" lon="12.132875899306924"><ele>509.0</ele><time>2026-04-20T10:14:41Z</time></trkpt><trkpt lat="43.89515996054508" lon="12.132826623930454"><ele>509.0</ele><time>2026-04-20T10:14:42Z</time></trkpt><trkpt lat="43.894996990457685" lon="12.132805762890984"><ele>513.0</ele><time>2026-04-20T10:14:43Z</time></trkpt><trkpt lat="43.89484437532007" lon="12.132795856857173"><ele>517.0</ele><time>2026-04-20T10:14:44Z</time></trkpt><trkpt lat="43.89472167982421" lon="12.132720001983186"><ele>521.0</ele><time>2026-04-20T10:14:45Z</time></trkpt><trkpt lat="43.89460180077016" lon="12.132610255766574"><ele>525.0</ele><time>2026-04-20T10:14:46Z</time></trkpt><trkpt lat="43.89445826145741" lon="12.132513871067893"><ele>525.0</ele><time>2026-04-20T10:14:47Z</time></trkpt><trkpt lat="43.894319701888236" lon="12.132438244275887"><ele>525.0</ele><time>2026-04-20T10:14:48Z</time></trkpt><trkpt lat="43.89417267357343" lon="12.132417164605203"><ele>525.0</ele><time>2026-04-20T10:14:49Z</time></trkpt><trkpt lat="43.894016544517605" lon="12.132418719581336"><ele>525.3333333333334</ele><time>2026-04-20T10:14:50Z</time></trkpt><trkpt lat="43.893852365576045" lon="12.13241594803692"><ele>525.6666666666667</ele><time>2026-04-20T10:14:51Z</time></trkpt><trkpt lat="43.893688336291405" lon="12.132410786173848"><ele>526.0</ele><time>2026-04-20T10:14:52Z</time></trkpt><trkpt lat="43.89352035982691" lon="12.132401575002591"><ele>537.6666666666667</ele><time>2026-04-20T10:14:53Z</time></trkpt><trkpt lat="43.89335288941792" lon="12.132378010028818"><ele>549.3333333333334</ele><time>2026-04-20T10:14:54Z</time></trkpt><trkpt lat="43.893198537485794" lon="12.132329071169758"><ele>561.0</ele><time>2026-04-20T10:14:55Z</time></trkpt><trkpt lat="43.8930624854822" lon="12.132221912897117"><ele>561.0</ele><time>2026-04-20T10:14:56Z</time></trkpt><trkpt lat="43.89294336885607" lon="12.132099339529288"><ele>561.0</ele><time>2026-04-20T10:14:57Z</time></trkpt><trkpt lat="43.89285912959549" lon="12.131937740061124"><ele>561.0</ele><time>2026-04-20T10:14:58Z</time></trkpt><trkpt lat="43.89280384380987" lon="12.131738997331507"><ele>561.0</ele><time>2026-04-20T10:14:59Z</time></trkpt><trkpt lat="43.89274198185163" lon="12.131534207567416"><ele>563.6666666666666</ele><time>2026-04-20T10:15:00Z</time></trkpt><trkpt lat="43.89264730221253" lon="12.131375674695303"><ele>566.3333333333333</ele><time>2026-04-20T10:15:01Z</time></trkpt><trkpt lat="43.89251533168582" lon="12.131242055028755"><ele>569.0</ele><time>2026-04-20T10:15:02Z</time></trkpt><trkpt lat="43.892365887101555" lon="12.131123677437762"><ele>569.0</ele><time>2026-04-20T10:15:03Z</time></trkpt><trkpt lat="43.89223157465404" lon="12.130965449022737"><ele>569.0</ele><time>2026-04-20T10:15:04Z</time></trkpt><trkpt lat="43.89208420447611" lon="12.130807488007132"><ele>569.0</ele><time>2026-04-20T10:15:05Z</time></trkpt><trkpt lat="43.89191752009861" lon="12.13068681999792"><ele>572.0</ele><time>2026-04-20T10:15:06Z</time></trkpt><trkpt lat="43.891745078606355" lon="12.130581992781241"><ele>575.0</ele><time>2026-04-20T10:15:07Z</time></trkpt><trkpt lat="43.8915623027318" lon="12.130488881157074"><ele>578.0</ele><time>2026-04-20T10:15:08Z</time></trkpt><trkpt lat="43.89138324133832" lon="12.130429834287721"><ele>578.0</ele><time>2026-04-20T10:15:09Z</time></trkpt><trkpt lat="43.89119708451684" lon="12.130384455107759"><ele>578.0</ele><time>2026-04-20T10:15:10Z</time></trkpt><trkpt lat="43.8910156627767" lon="12.130301878141724"><ele>578.0</ele><time>2026-04-20T10:15:11Z</time></trkpt><trkpt lat="43.89084168912544" lon="12.130218488869259"><ele>577.0</ele><time>2026-04-20T10:15:12Z</time></trkpt><trkpt lat="43.89066939076537" lon="12.13011822973402"><ele>576.0</ele><time>2026-04-20T10:15:13Z</time></trkpt><trkpt lat="43.89049746363978" lon="12.130007801590002"><ele>575.0</ele><time>2026-04-20T10:15:14Z</time></trkpt><trkpt lat="43.89032132904533" lon="12.129926108895107"><ele>569.6666666666666</ele><time>2026-04-20T10:15:15Z</time></trkpt><trkpt lat="43.890154188914586" lon="12.129839537670145"><ele>564.3333333333334</ele><time>2026-04-20T10:15:16Z</time></trkpt><trkpt lat="43.889986664049474" lon="12.129777809007612"><ele>559.0</ele><time>2026-04-20T10:15:17Z</time></trkpt><trkpt lat="43.88982030048161" lon="12.129769448181907"><ele>559.0</ele><time>2026-04-20T10:15:18Z</time></trkpt><trkpt lat="43.889648926303614" lon="12.129788753799767"><ele>559.0</ele><time>2026-04-20T10:15:19Z</time></trkpt><trkpt lat="43.88948781643959" lon="12.129815786254802"><ele>559.0</ele><time>2026-04-20T10:15:20Z</time></trkpt><trkpt lat="43.889353982614985" lon="12.129790056433913"><ele>562.25</ele><time>2026-04-20T10:15:21Z</time></trkpt><trkpt lat="43.88925151591954" lon="12.129738468443511"><ele>565.5</ele><time>2026-04-20T10:15:22Z</time></trkpt><trkpt lat="43.88915486883907" lon="12.12964861006126"><ele>568.75</ele><time>2026-04-20T10:15:23Z</time></trkpt><trkpt lat="43.88903932572834" lon="12.129553985100888"><ele>572.0</ele><time>2026-04-20T10:15:24Z</time></trkpt><trkpt lat="43.88890811750905" lon="12.12945708082289"><ele>572.0</ele><time>2026-04-20T10:15:25Z</time></trkpt><trkpt lat="43.88879602519813" lon="12.129363060410835"><ele>572.0</ele><time>2026-04-20T10:15:26Z</time></trkpt><trkpt lat="43.888703962331505" lon="12.129301839172422"><ele>572.0</ele><time>2026-04-20T10:15:27Z</time></trkpt><trkpt lat="43.888619341015755" lon="12.12927378242412"><ele>572.0</ele><time>2026-04-20T10:15:28Z</time></trkpt><trkpt lat="43.88852511192843" lon="12.129360760563692"><ele>572.0</ele><time>2026-04-20T10:15:29Z</time></trkpt><trkpt lat="43.88842957556618" lon="12.129479778790612"><ele>572.5</ele><time>2026-04-20T10:15:30Z</time></trkpt><trkpt lat="43.88833193785263" lon="12.129615563030343"><ele>573.0</ele><time>2026-04-20T10:15:31Z</time></trkpt><trkpt lat="43.888218798876835" lon="12.129754992420489"><ele>573.5</ele><time>2026-04-20T10:15:32Z</time></trkpt><trkpt lat="43.88809886347891" lon="12.129898967449558"><ele>574.0</ele><time>2026-04-20T10:15:33Z</time></trkpt><trkpt lat="43.88797403107684" lon="12.130030895793718"><ele>581.6666666666667</ele><time>2026-04-20T10:15:34Z</time></trkpt><trkpt lat="43.887815378486174" lon="12.130080474669462"><ele>589.3333333333334</ele><time>2026-04-20T10:15:35Z</time></trkpt><trkpt lat="43.88766350260007" lon="12.130186978131555"><ele>597.0</ele><time>2026-04-20T10:15:36Z</time></trkpt><trkpt lat="43.88750120392936" lon="12.13028044153918"><ele>597.25</ele><time>2026-04-20T10:15:37Z</time></trkpt><trkpt lat="43.88736065883528" lon="12.130389956749108"><ele>597.5</ele><time>2026-04-20T10:15:38.001Z</time></trkpt><trkpt lat="43.88723302285328" lon="12.1304682017936"><ele>597.75</ele><time>2026-04-20T10:15:39.001Z</time></trkpt><trkpt lat="43.88712785298605" lon="12.130494101963029"><ele>598.0</ele><time>2026-04-20T10:15:40.001Z</time></trkpt><trkpt lat="43.88703724021058" lon="12.130453724487277"><ele>598.0</ele><time>2026-04-20T10:15:41.001Z</time></trkpt><trkpt lat="43.8869930024817" lon="12.13030740400187"><ele>598.0</ele><time>2026-04-20T10:15:42.001Z</time></trkpt><trkpt lat="43.886894382819726" lon="12.13019735818483"><ele>598.0</ele><time>2026-04-20T10:15:43.001Z</time></trkpt><trkpt lat="43.88679253508542" lon="12.13013246114497"><ele>598.0</ele><time>2026-04-20T10:15:44.001Z</time></trkpt><trkpt lat="43.88664587046764" lon="12.130119665398027"><ele>601.5</ele><time>2026-04-20T10:15:45.001Z</time></trkpt><trkpt lat="43.88651298136297" lon="12.130113862835401"><ele>605.0</ele><time>2026-04-20T10:15:46.001Z</time></trkpt><trkpt lat="43.886402897284476" lon="12.130133498881845"><ele>608.5</ele><time>2026-04-20T10:15:47.001Z</time></trkpt><trkpt lat="43.88629443807028" lon="12.130243431291904"><ele>612.0</ele><time>2026-04-20T10:15:48.001Z</time></trkpt><trkpt lat="43.88618060091798" lon="12.130349502315838"><ele>612.0</ele><time>2026-04-20T10:15:49.001Z</time></trkpt><trkpt lat="43.886078163518356" lon="12.1303659600088"><ele>612.0</ele><time>2026-04-20T10:15:50.001Z</time></trkpt><trkpt lat="43.88600325245617" lon="12.130188779778091"><ele>612.0</ele><time>2026-04-20T10:15:51.001Z</time></trkpt><trkpt lat="43.88591298346393" lon="12.130181613666192"><ele>612.0</ele><time>2026-04-20T10:15:52.001Z</time></trkpt><trkpt lat="43.885835146303535" lon="12.130147157241334"><ele>612.0</ele><time>2026-04-20T10:15:53.001Z</time></trkpt><trkpt lat="43.88576123425313" lon="12.13020512433376"><ele>612.0</ele><time>2026-04-20T10:15:54.001Z</time></trkpt><trkpt lat="43.88568752564912" lon="12.130336234134163"><ele>612.0</ele><time>2026-04-20T10:15:55.001Z</time></trkpt><trkpt lat="43.88560439738582" lon="12.130493925610185"><ele>612.0</ele><time>2026-04-20T10:15:56.001Z</time></trkpt><trkpt lat="43.88550766831245" lon="12.130606869435372"><ele>612.0</ele><time>2026-04-20T10:15:57.001Z</time></trkpt><trkpt lat="43.88540430683299" lon="12.130662043674814"><ele>612.0</ele><time>2026-04-20T10:15:58.001Z</time></trkpt><trkpt lat="43.88528675871616" lon="12.130608333373617"><ele>612.0</ele><time>2026-04-20T10:15:59.001Z</time></trkpt><trkpt lat="43.885161282072595" lon="12.130624273143336"><ele>612.0</ele><time>2026-04-20T10:16:00.001Z</time></trkpt><trkpt lat="43.88504216871909" lon="12.130741323397846"><ele>612.0</ele><time>2026-04-20T10:16:01.001Z</time></trkpt><trkpt lat="43.88490561911697" lon="12.130868520470951"><ele>621.3333333333334</ele><time>2026-04-20T10:16:02.001Z</time></trkpt><trkpt lat="43.88473869724834" lon="12.130912450969435"><ele>630.6666666666667</ele><time>2026-04-20T10:16:03.001Z</time></trkpt><trkpt lat="43.884590853353686" lon="12.130979387433241"><ele>640.0</ele><time>2026-04-20T10:16:04.001Z</time></trkpt><trkpt lat="43.88446074936125" lon="12.130980902609313"><ele>640.0</ele><time>2026-04-20T10:16:05.001Z</time></trkpt><trkpt lat="43.88434159531411" lon="12.130933190066463"><ele>640.0</ele><time>2026-04-20T10:16:06.001Z</time></trkpt><trkpt lat="43.884255700673904" lon="12.130779029919115"><ele>640.0</ele><time>2026-04-20T10:16:07.001Z</time></trkpt><trkpt lat="43.884157454062" lon="12.130606846815528"><ele>640.0</ele><time>2026-04-20T10:16:08.001Z</time></trkpt><trkpt lat="43.8840183929471" lon="12.130479594888188"><ele>637.2</ele><time>2026-04-20T10:16:09.001Z</time></trkpt><trkpt lat="43.88389816494369" lon="12.13036353282236"><ele>634.4</ele><time>2026-04-20T10:16:10.001Z</time></trkpt><trkpt lat="43.88380684906313" lon="12.130272245335949"><ele>631.6</ele><time>2026-04-20T10:16:11.001Z</time></trkpt><trkpt lat="43.88374503220466" lon="12.130231445685926"><ele>628.8</ele><time>2026-04-20T10:16:12.001Z</time></trkpt><trkpt lat="43.883667804357664" lon="12.130263066247812"><ele>626.0</ele><time>2026-04-20T10:16:13.001Z</time></trkpt><trkpt lat="43.88355598541608" lon="12.130348728198513"><ele>626.0</ele><time>2026-04-20T10:16:14.001Z</time></trkpt><trkpt lat="43.88344052894175" lon="12.130428009746032"><ele>626.0</ele><time>2026-04-20T10:16:15.001Z</time></trkpt><trkpt lat="43.88331933715634" lon="12.130435344591165"><ele>626.0</ele><time>2026-04-20T10:16:16.001Z</time></trkpt><trkpt lat="43.88320157071241" lon="12.130328872734504"><ele>626.0</ele><time>2026-04-20T10:16:17.001Z</time></trkpt><trkpt lat="43.883069867164096" lon="12.130202326554699"><ele>624.5</ele><time>2026-04-20T10:16:18.001Z</time></trkpt><trkpt lat="43.88292718099512" lon="12.130089115995897"><ele>623.0</ele><time>2026-04-20T10:16:19.001Z</time></trkpt><trkpt lat="43.8828151438184" lon="12.129965198834626"><ele>621.5</ele><time>2026-04-20T10:16:20.001Z</time></trkpt><trkpt lat="43.882728820966015" lon="12.129820353884076"><ele>620.0</ele><time>2026-04-20T10:16:21.001Z</time></trkpt><trkpt lat="43.88267423189234" lon="12.129681337634949"><ele>620.0</ele><time>2026-04-20T10:16:22.001Z</time></trkpt><trkpt lat="43.882609188476046" lon="12.129587035625885"><ele>620.0</ele><time>2026-04-20T10:16:23.001Z</time></trkpt><trkpt lat="43.88249039626644" lon="12.12948241591468"><ele>620.0</ele><time>2026-04-20T10:16:25.001Z</time></trkpt><trkpt lat="43.88242274018416" lon="12.129492181813044"><ele>620.0</ele><time>2026-04-20T10:16:26.001Z</time></trkpt><trkpt lat="43.88237500389996" lon="12.129571150696908"><ele>620.0</ele><time>2026-04-20T10:16:27.001Z</time></trkpt><trkpt lat="43.882439395680954" lon="12.12976432705891"><ele>628.3333333333333</ele><time>2026-04-20T10:16:28.001Z</time></trkpt><trkpt lat="43.88254472542143" lon="12.129892131947056"><ele>636.6666666666666</ele><time>2026-04-20T10:16:29.001Z</time></trkpt><trkpt lat="43.88264658377274" lon="12.130074031694619"><ele>645.0</ele><time>2026-04-20T10:16:30.001Z</time></trkpt><trkpt lat="43.88275268646298" lon="12.13022731939005"><ele>645.0</ele><time>2026-04-20T10:16:31.001Z</time></trkpt><trkpt lat="43.882869790424316" lon="12.130390674336276"><ele>645.0</ele><time>2026-04-20T10:16:32.001Z</time></trkpt><trkpt lat="43.88298906940863" lon="12.130545318498273"><ele>645.0</ele><time>2026-04-20T10:16:33.001Z</time></trkpt><trkpt lat="43.883108982606494" lon="12.130665757218695"><ele>649.6</ele><time>2026-04-20T10:16:34.001Z</time></trkpt><trkpt lat="43.88321175516469" lon="12.13080784014457"><ele>654.2</ele><time>2026-04-20T10:16:35.001Z</time></trkpt><trkpt lat="43.88329913800628" lon="12.13088539982226"><ele>658.8</ele><time>2026-04-20T10:16:36.001Z</time></trkpt><trkpt lat="43.88335351784198" lon="12.13095173992817"><ele>663.4</ele><time>2026-04-20T10:16:37.001Z</time></trkpt><trkpt lat="43.88333316344887" lon="12.131056039301457"><ele>668.0</ele><time>2026-04-20T10:16:39.001Z</time></trkpt><trkpt lat="43.883233642280416" lon="12.131051389459754"><ele>668.0</ele><time>2026-04-20T10:16:40.001Z</time></trkpt><trkpt lat="43.88316124734333" lon="12.131011620626314"><ele>668.0</ele><time>2026-04-20T10:16:41.001Z</time></trkpt><trkpt lat="43.88307615692008" lon="12.130839403935388"><ele>668.0</ele><time>2026-04-20T10:16:42.001Z</time></trkpt><trkpt lat="43.88296422761641" lon="12.130732660907702"><ele>668.0</ele><time>2026-04-20T10:16:43.001Z</time></trkpt><trkpt lat="43.88285209622043" lon="12.1306784946591"><ele>670.0</ele><time>2026-04-20T10:16:44.001Z</time></trkpt><trkpt lat="43.88272262906269" lon="12.130664671189946"><ele>672.0</ele><time>2026-04-20T10:16:45.001Z</time></trkpt><trkpt lat="43.882581874241346" lon="12.130688867786109"><ele>674.0</ele><time>2026-04-20T10:16:46.001Z</time></trkpt><trkpt lat="43.88243374959902" lon="12.130722960174767"><ele>676.0</ele><time>2026-04-20T10:16:47.001Z</time></trkpt><trkpt lat="43.88228342059473" lon="12.130749528419322"><ele>676.0</ele><time>2026-04-20T10:16:48.001Z</time></trkpt><trkpt lat="43.88214316858478" lon="12.130770362212344"><ele>676.0</ele><time>2026-04-20T10:16:49.001Z</time></trkpt><trkpt lat="43.882007843056975" lon="12.13076372793695"><ele>676.0</ele><time>2026-04-20T10:16:50.001Z</time></trkpt><trkpt lat="43.881880129791575" lon="12.130703257529719"><ele>676.0</ele><time>2026-04-20T10:16:51.001Z</time></trkpt><trkpt lat="43.881765382815566" lon="12.130568739513947"><ele>681.3333333333334</ele><time>2026-04-20T10:16:52.001Z</time></trkpt><trkpt lat="43.88160793546256" lon="12.130492062089047"><ele>686.6666666666666</ele><time>2026-04-20T10:16:53.001Z</time></trkpt><trkpt lat="43.88144190591361" lon="12.130438753841215"><ele>692.0</ele><time>2026-04-20T10:16:54.001Z</time></trkpt><trkpt lat="43.88126240129585" lon="12.130402222063594"><ele>692.0</ele><time>2026-04-20T10:16:55.001Z</time></trkpt><trkpt lat="43.881084772998214" lon="12.130367062733546"><ele>692.0</ele><time>2026-04-20T10:16:56.001Z</time></trkpt><trkpt lat="43.88091704371959" lon="12.130353262611639"><ele>692.0</ele><time>2026-04-20T10:16:57.001Z</time></trkpt><trkpt lat="43.880756615968295" lon="12.130359259249772"><ele>698.25</ele><time>2026-04-20T10:16:58.001Z</time></trkpt><trkpt lat="43.880610818432714" lon="12.130390756544728"><ele>704.5</ele><time>2026-04-20T10:16:59.001Z</time></trkpt><trkpt lat="43.880473967800945" lon="12.13045696770509"><ele>710.75</ele><time>2026-04-20T10:17:00.001Z</time></trkpt><trkpt lat="43.880339797832754" lon="12.13055200333398"><ele>717.0</ele><time>2026-04-20T10:17:01.001Z</time></trkpt><trkpt lat="43.8802074437968" lon="12.13064083804184"><ele>719.2</ele><time>2026-04-20T10:17:02Z</time></trkpt><trkpt lat="43.88009677643207" lon="12.13073233359335"><ele>721.4000000000001</ele><time>2026-04-20T10:17:03Z</time></trkpt><trkpt lat="43.88002118707328" lon="12.13083660108515"><ele>723.5999999999999</ele><time>2026-04-20T10:17:04Z</time></trkpt><trkpt lat="43.87998618340275" lon="12.130965538933614"><ele>725.8</ele><time>2026-04-20T10:17:05Z</time></trkpt><trkpt lat="43.879992694491534" lon="12.131120843923794"><ele>728.0</ele><time>2026-04-20T10:17:06Z</time></trkpt><trkpt lat="43.880012658297545" lon="12.131282831280213"><ele>728.0</ele><time>2026-04-20T10:17:07Z</time></trkpt><trkpt lat="43.87998380924956" lon="12.131424999715234"><ele>728.0</ele><time>2026-04-20T10:17:08Z</time></trkpt><trkpt lat="43.87988364396789" lon="12.131503889222033"><ele>728.0</ele><time>2026-04-20T10:17:09Z</time></trkpt><trkpt lat="43.87978828931384" lon="12.131563343195484"><ele>728.0</ele><time>2026-04-20T10:17:10Z</time></trkpt><trkpt lat="43.87966734551382" lon="12.131614902644765"><ele>723.5</ele><time>2026-04-20T10:17:11Z</time></trkpt><trkpt lat="43.87952316242902" lon="12.131676667533942"><ele>719.0</ele><time>2026-04-20T10:17:12Z</time></trkpt><trkpt lat="43.879381336294344" lon="12.131730496229697"><ele>714.5</ele><time>2026-04-20T10:17:13Z</time></trkpt><trkpt lat="43.879276981105484" lon="12.131833204621673"><ele>710.0</ele><time>2026-04-20T10:17:14Z</time></trkpt><trkpt lat="43.879209200985315" lon="12.131994295806798"><ele>718.6666666666666</ele><time>2026-04-20T10:17:15Z</time></trkpt><trkpt lat="43.87915015406202" lon="12.13219449745607"><ele>727.3333333333334</ele><time>2026-04-20T10:17:16Z</time></trkpt><trkpt lat="43.87904913405528" lon="12.13236087148917"><ele>736.0</ele><time>2026-04-20T10:17:17Z</time></trkpt><trkpt lat="43.87897179258474" lon="12.132558828132174"><ele>736.0</ele><time>2026-04-20T10:17:18Z</time></trkpt><trkpt lat="43.87897015348952" lon="12.132761589923492"><ele>736.0</ele><time>2026-04-20T10:17:19Z</time></trkpt><trkpt lat="43.878957571188906" lon="12.132929822575013"><ele>736.0</ele><time>2026-04-20T10:17:20Z</time></trkpt><trkpt lat="43.87887605225276" lon="12.13308142710728"><ele>736.0</ele><time>2026-04-20T10:17:21Z</time></trkpt><trkpt lat="43.87880136852791" lon="12.13329656759357"><ele>735.0</ele><time>2026-04-20T10:17:22Z</time></trkpt><trkpt lat="43.87878174288721" lon="12.133458031283213"><ele>734.0</ele><time>2026-04-20T10:17:23.001Z</time></trkpt><trkpt lat="43.87883858297141" lon="12.133644954319685"><ele>733.0</ele><time>2026-04-20T10:17:24.001Z</time></trkpt><trkpt lat="43.87889323345637" lon="12.13382754388652"><ele>732.0</ele><time>2026-04-20T10:17:25.001Z</time></trkpt><trkpt lat="43.87893636787225" lon="12.134044173241634"><ele>735.75</ele><time>2026-04-20T10:17:26.001Z</time></trkpt><trkpt lat="43.87896707507975" lon="12.134255720682216"><ele>739.5</ele><time>2026-04-20T10:17:27.001Z</time></trkpt><trkpt lat="43.879016101664796" lon="12.134439096351747"><ele>743.25</ele><time>2026-04-20T10:17:28.001Z</time></trkpt><trkpt lat="43.87908691573574" lon="12.134574124013204"><ele>747.0</ele><time>2026-04-20T10:17:29.001Z</time></trkpt><trkpt lat="43.87921588099745" lon="12.134623196365816"><ele>742.0</ele><time>2026-04-20T10:17:30.001Z</time></trkpt><trkpt lat="43.87934283608847" lon="12.134637991372063"><ele>737.0</ele><time>2026-04-20T10:17:31.001Z</time></trkpt><trkpt lat="43.87943796926984" lon="12.134676921727845"><ele>732.0</ele><time>2026-04-20T10:17:32.001Z</time></trkpt><trkpt lat="43.87947745047656" lon="12.134791202656842"><ele>727.0</ele><time>2026-04-20T10:17:33.001Z</time></trkpt><trkpt lat="43.879500921365256" lon="12.135111619876069"><ele>727.0</ele><time>2026-04-20T10:17:35.001Z</time></trkpt><trkpt lat="43.87950095181382" lon="12.135251215398437"><ele>727.0</ele><time>2026-04-20T10:17:36.001Z</time></trkpt><trkpt lat="43.87945661650438" lon="12.135362572169178"><ele>727.0</ele><time>2026-04-20T10:17:37.001Z</time></trkpt><trkpt lat="43.87936658813266" lon="12.135472659216328"><ele>727.0</ele><time>2026-04-20T10:17:38.001Z</time></trkpt><trkpt lat="43.87926327886878" lon="12.135610194913463"><ele>736.0</ele><time>2026-04-20T10:17:39.001Z</time></trkpt><trkpt lat="43.87915125951365" lon="12.135759478065737"><ele>745.0</ele><time>2026-04-20T10:17:40.001Z</time></trkpt><trkpt lat="43.87908236079045" lon="12.135937710511405"><ele>754.0</ele><time>2026-04-20T10:17:41.001Z</time></trkpt><trkpt lat="43.879047035815425" lon="12.136092552696688"><ele>763.0</ele><time>2026-04-20T10:17:42.001Z</time></trkpt><trkpt lat="43.87901141898214" lon="12.136211739186201"><ele>763.0</ele><time>2026-04-20T10:17:43.001Z</time></trkpt><trkpt lat="43.87897485697631" lon="12.136284154384"><ele>763.0</ele><time>2026-04-20T10:17:44.001Z</time></trkpt><trkpt lat="43.87887745262038" lon="12.13628142247116"><ele>763.0</ele><time>2026-04-20T10:17:45.001Z</time></trkpt><trkpt lat="43.87876080994338" lon="12.136200801936814"><ele>763.0</ele><time>2026-04-20T10:17:46.001Z</time></trkpt><trkpt lat="43.878613784632236" lon="12.136145852541475"><ele>763.0</ele><time>2026-04-20T10:17:47.001Z</time></trkpt><trkpt lat="43.87850202293129" lon="12.136067739886245"><ele>763.0</ele><time>2026-04-20T10:17:48.001Z</time></trkpt><trkpt lat="43.878431830874874" lon="12.135965128291456"><ele>763.0</ele><time>2026-04-20T10:17:49.001Z</time></trkpt><trkpt lat="43.87843683386564" lon="12.135807239680247"><ele>763.0</ele><time>2026-04-20T10:17:50.001Z</time></trkpt><trkpt lat="43.87841728412638" lon="12.135605774667475"><ele>763.0</ele><time>2026-04-20T10:17:51.001Z</time></trkpt><trkpt lat="43.87839001645418" lon="12.135378443898459"><ele>765.5</ele><time>2026-04-20T10:17:52.001Z</time></trkpt><trkpt lat="43.87835859219932" lon="12.135164308208898"><ele>768.0</ele><time>2026-04-20T10:17:53.001Z</time></trkpt><trkpt lat="43.87834401808123" lon="12.134963455654578"><ele>770.5</ele><time>2026-04-20T10:17:54.001Z</time></trkpt><trkpt lat="43.87830322161897" lon="12.134787913100679"><ele>773.0</ele><time>2026-04-20T10:17:55.001Z</time></trkpt><trkpt lat="43.87819354550822" lon="12.13464218826838"><ele>773.75</ele><time>2026-04-20T10:17:56.001Z</time></trkpt><trkpt lat="43.87808319910209" lon="12.13449461080511"><ele>774.5</ele><time>2026-04-20T10:17:57.001Z</time></trkpt><trkpt lat="43.87802474781096" lon="12.134312432089661"><ele>775.25</ele><time>2026-04-20T10:17:58.001Z</time></trkpt><trkpt lat="43.877990474487085" lon="12.134111983398613"><ele>776.0</ele><time>2026-04-20T10:17:59.001Z</time></trkpt><trkpt lat="43.87793287203162" lon="12.133883671270684"><ele>776.3333333333334</ele><time>2026-04-20T10:18:00.001Z</time></trkpt><trkpt lat="43.87788418462271" lon="12.133638977942347"><ele>776.6666666666667</ele><time>2026-04-20T10:18:01.001Z</time></trkpt><trkpt lat="43.87782767060898" lon="12.13341211981819"><ele>777.0</ele><time>2026-04-20T10:18:02.001Z</time></trkpt><trkpt lat="43.877806556019586" lon="12.133196414400464"><ele>777.6666666666667</ele><time>2026-04-20T10:18:03.001Z</time></trkpt><trkpt lat="43.877806543891985" lon="12.132992386883622"><ele>778.3333333333334</ele><time>2026-04-20T10:18:04.001Z</time></trkpt><trkpt lat="43.877865922502856" lon="12.13280749264714"><ele>779.0</ele><time>2026-04-20T10:18:05.001Z</time></trkpt><trkpt lat="43.87791908857459" lon="12.132600457000306"><ele>779.0</ele><time>2026-04-20T10:18:06.001Z</time></trkpt><trkpt lat="43.87793328877754" lon="12.13240696302077"><ele>779.0</ele><time>2026-04-20T10:18:07.001Z</time></trkpt><trkpt lat="43.87792009857519" lon="12.1322098434656"><ele>779.0</ele><time>2026-04-20T10:18:08.001Z</time></trkpt><trkpt lat="43.87787708616172" lon="12.131984061354812"><ele>782.3333333333334</ele><time>2026-04-20T10:18:09.001Z</time></trkpt><trkpt lat="43.8778074030874" lon="12.131759571042545"><ele>785.6666666666667</ele><time>2026-04-20T10:18:10.001Z</time></trkpt><trkpt lat="43.877746553038484" lon="12.131532540553025"><ele>789.0</ele><time>2026-04-20T10:18:11.001Z</time></trkpt><trkpt lat="43.87764931846878" lon="12.131337960820787"><ele>786.6666666666667</ele><time>2026-04-20T10:18:12.001Z</time></trkpt><trkpt lat="43.87752423017944" lon="12.131176801562496"><ele>784.3333333333334</ele><time>2026-04-20T10:18:13.001Z</time></trkpt><trkpt lat="43.877396523641494" lon="12.131015214078326"><ele>782.0</ele><time>2026-04-20T10:18:14.001Z</time></trkpt><trkpt lat="43.87725111769675" lon="12.130877036165954"><ele>782.0</ele><time>2026-04-20T10:18:15.001Z</time></trkpt><trkpt lat="43.87709244772324" lon="12.130770842554272"><ele>782.0</ele><time>2026-04-20T10:18:16.001Z</time></trkpt><trkpt lat="43.87693977691527" lon="12.130659670996579"><ele>782.0</ele><time>2026-04-20T10:18:17.001Z</time></trkpt><trkpt lat="43.87678809665328" lon="12.13054919691329"><ele>782.3333333333334</ele><time>2026-04-20T10:18:18.001Z</time></trkpt><trkpt lat="43.8766336004754" lon="12.130438827497457"><ele>782.6666666666667</ele><time>2026-04-20T10:18:19.001Z</time></trkpt><trkpt lat="43.87647577052656" lon="12.130355200708948"><ele>783.0</ele><time>2026-04-20T10:18:20.001Z</time></trkpt><trkpt lat="43.87630930183785" lon="12.130282945193201"><ele>783.0</ele><time>2026-04-20T10:18:21.001Z</time></trkpt><trkpt lat="43.87613857703177" lon="12.130217662724094"><ele>783.0</ele><time>2026-04-20T10:18:22.001Z</time></trkpt><trkpt lat="43.87596845895047" lon="12.130162707662281"><ele>783.0</ele><time>2026-04-20T10:18:23.001Z</time></trkpt><trkpt lat="43.875790714343836" lon="12.130109575158643"><ele>787.3333333333333</ele><time>2026-04-20T10:18:24.001Z</time></trkpt><trkpt lat="43.87561184734349" lon="12.130091624673327"><ele>791.6666666666666</ele><time>2026-04-20T10:18:25.001Z</time></trkpt><trkpt lat="43.87542979416926" lon="12.130095814284653"><ele>796.0</ele><time>2026-04-20T10:18:26.001Z</time></trkpt><trkpt lat="43.87524440226135" lon="12.130088501409253"><ele>795.0</ele><time>2026-04-20T10:18:27.001Z</time></trkpt><trkpt lat="43.87506063480254" lon="12.13006974039827"><ele>794.0</ele><time>2026-04-20T10:18:28.001Z</time></trkpt><trkpt lat="43.87487903331585" lon="12.130039853009352"><ele>793.0</ele><time>2026-04-20T10:18:29.001Z</time></trkpt><trkpt lat="43.87469196678342" lon="12.129999213069445"><ele>793.0</ele><time>2026-04-20T10:18:30.001Z</time></trkpt><trkpt lat="43.874518555279785" lon="12.129917109045829"><ele>793.0</ele><time>2026-04-20T10:18:31.001Z</time></trkpt><trkpt lat="43.874343539930116" lon="12.129828028111547"><ele>793.0</ele><time>2026-04-20T10:18:32.001Z</time></trkpt><trkpt lat="43.87417408228939" lon="12.129742375132727"><ele>793.6666666666666</ele><time>2026-04-20T10:18:33.001Z</time></trkpt><trkpt lat="43.87398510766018" lon="12.129692301119118"><ele>794.3333333333333</ele><time>2026-04-20T10:18:34.001Z</time></trkpt><trkpt lat="43.87379512230124" lon="12.129652211092301"><ele>795.0</ele><time>2026-04-20T10:18:35.001Z</time></trkpt><trkpt lat="43.87359565677596" lon="12.129624979188396"><ele>793.0</ele><time>2026-04-20T10:18:36.001Z</time></trkpt><trkpt lat="43.873393235648024" lon="12.129610140169936"><ele>791.0</ele><time>2026-04-20T10:18:37.001Z</time></trkpt><trkpt lat="43.87319171287432" lon="12.12958373949143"><ele>789.0</ele><time>2026-04-20T10:18:38.001Z</time></trkpt><trkpt lat="43.87298737461633" lon="12.129545904686914"><ele>789.0</ele><time>2026-04-20T10:18:39.001Z</time></trkpt><trkpt lat="43.87278507176268" lon="12.129498177434126"><ele>789.0</ele><time>2026-04-20T10:18:40.001Z</time></trkpt><trkpt lat="43.872588928398926" lon="12.129411576277882"><ele>789.0</ele><time>2026-04-20T10:18:41Z</time></trkpt><trkpt lat="43.87240676880401" lon="12.1293499385986"><ele>790.3333333333333</ele><time>2026-04-20T10:18:42Z</time></trkpt><trkpt lat="43.872232710350964" lon="12.129305837494122"><ele>791.6666666666666</ele><time>2026-04-20T10:18:43.001Z</time></trkpt><trkpt lat="43.87207386946233" lon="12.129253894577543"><ele>793.0</ele><time>2026-04-20T10:18:44.001Z</time></trkpt><trkpt lat="43.871921049241536" lon="12.129229194895052"><ele>793.0</ele><time>2026-04-20T10:18:45.001Z</time></trkpt><trkpt lat="43.871784844840725" lon="12.129265123138767"><ele>793.0</ele><time>2026-04-20T10:18:46.001Z</time></trkpt><trkpt lat="43.87165111668869" lon="12.129365861003004"><ele>793.0</ele><time>2026-04-20T10:18:47Z</time></trkpt><trkpt lat="43.871526116299925" lon="12.129497206928953"><ele>793.0</ele><time>2026-04-20T10:18:48Z</time></trkpt><trkpt lat="43.87138660133608" lon="12.129545816624676"><ele>796.0</ele><time>2026-04-20T10:18:49Z</time></trkpt><trkpt lat="43.87123117368769" lon="12.12952880202955"><ele>799.0</ele><time>2026-04-20T10:18:50Z</time></trkpt><trkpt lat="43.871049579193645" lon="12.129517749988574"><ele>802.0</ele><time>2026-04-20T10:18:51Z</time></trkpt><trkpt lat="43.87085877662503" lon="12.129528522597978"><ele>802.3333333333333</ele><time>2026-04-20T10:18:52Z</time></trkpt><trkpt lat="43.87068459982953" lon="12.129549989804538"><ele>802.6666666666667</ele><time>2026-04-20T10:18:53Z</time></trkpt><trkpt lat="43.87053137210643" lon="12.12959421107229"><ele>803.0</ele><time>2026-04-20T10:18:54Z</time></trkpt><trkpt lat="43.87041355411634" lon="12.12962650874948"><ele>803.0</ele><time>2026-04-20T10:18:55Z</time></trkpt><trkpt lat="43.870327202465845" lon="12.129596313066324"><ele>803.0</ele><time>2026-04-20T10:18:56Z</time></trkpt><trkpt lat="43.870291376335715" lon="12.12944606019848"><ele>803.0</ele><time>2026-04-20T10:18:57Z</time></trkpt><trkpt lat="43.870209583865034" lon="12.129302940090456"><ele>803.0</ele><time>2026-04-20T10:18:58Z</time></trkpt><trkpt lat="43.870084870886075" lon="12.128958733888249"><ele>804.75</ele><time>2026-04-20T10:19:00Z</time></trkpt><trkpt lat="43.870091030680086" lon="12.128790702405974"><ele>806.5</ele><time>2026-04-20T10:19:01Z</time></trkpt><trkpt lat="43.87011963372816" lon="12.128623379169124"><ele>808.25</ele><time>2026-04-20T10:19:02Z</time></trkpt><trkpt lat="43.87015976244041" lon="12.128428168203719"><ele>810.0</ele><time>2026-04-20T10:19:03Z</time></trkpt><trkpt lat="43.8701996690617" lon="12.128228569409297"><ele>809.5</ele><time>2026-04-20T10:19:04Z</time></trkpt><trkpt lat="43.87022698180082" lon="12.128041366769473"><ele>809.0</ele><time>2026-04-20T10:19:05Z</time></trkpt><trkpt lat="43.870224480732055" lon="12.127852292827923"><ele>808.5</ele><time>2026-04-20T10:19:06Z</time></trkpt><trkpt lat="43.870145858848126" lon="12.127662343007936"><ele>808.0</ele><time>2026-04-20T10:19:07Z</time></trkpt><trkpt lat="43.87007499063353" lon="12.127469024491822"><ele>803.5</ele><time>2026-04-20T10:19:08Z</time></trkpt><trkpt lat="43.870024737615935" lon="12.1272767600559"><ele>799.0</ele><time>2026-04-20T10:19:09Z</time></trkpt><trkpt lat="43.86994027873964" lon="12.12713834575858"><ele>794.5</ele><time>2026-04-20T10:19:10Z</time></trkpt><trkpt lat="43.86984728681745" lon="12.127025440833242"><ele>790.0</ele><time>2026-04-20T10:19:11Z</time></trkpt><trkpt lat="43.869725204812376" lon="12.126958116542204"><ele>790.0</ele><time>2026-04-20T10:19:12Z</time></trkpt><trkpt lat="43.86959811009212" lon="12.126894416618532"><ele>790.0</ele><time>2026-04-20T10:19:13Z</time></trkpt><trkpt lat="43.86946169897776" lon="12.12681908045194"><ele>790.0</ele><time>2026-04-20T10:19:14Z</time></trkpt><trkpt lat="43.869342982306264" lon="12.126721431118316"><ele>790.0</ele><time>2026-04-20T10:19:15Z</time></trkpt><trkpt lat="43.86925716516936" lon="12.126577519101653"><ele>785.75</ele><time>2026-04-20T10:19:16Z</time></trkpt><trkpt lat="43.86916180660339" lon="12.12642954811369"><ele>781.5</ele><time>2026-04-20T10:19:17Z</time></trkpt><trkpt lat="43.869067138093946" lon="12.126285876438972"><ele>777.25</ele><time>2026-04-20T10:19:18Z</time></trkpt><trkpt lat="43.86895636513196" lon="12.12615678761624"><ele>773.0</ele><time>2026-04-20T10:19:19Z</time></trkpt><trkpt lat="43.86883325827818" lon="12.126076065228498"><ele>773.0</ele><time>2026-04-20T10:19:20Z</time></trkpt><trkpt lat="43.86874377598619" lon="12.126011662286"><ele>773.0</ele><time>2026-04-20T10:19:21Z</time></trkpt><trkpt lat="43.86865703521623" lon="12.125958947161175"><ele>773.0</ele><time>2026-04-20T10:19:23Z</time></trkpt><trkpt lat="43.86869040019773" lon="12.126138313774815"><ele>773.0</ele><time>2026-04-20T10:19:26Z</time></trkpt><trkpt lat="43.86874648225598" lon="12.12620155911911"><ele>773.0</ele><time>2026-04-20T10:19:27Z</time></trkpt><trkpt lat="43.86881334346353" lon="12.126269825184048"><ele>773.0000000000001</ele><time>2026-04-20T10:19:28Z</time></trkpt><trkpt lat="43.86886655012754" lon="12.126362062502375"><ele>773.0</ele><time>2026-04-20T10:19:29Z</time></trkpt><trkpt lat="43.86891400799542" lon="12.126450793794614"><ele>773.0</ele><time>2026-04-20T10:19:30Z</time></trkpt><trkpt lat="43.86891909304414" lon="12.126565584698827"><ele>773.0</ele><time>2026-04-20T10:19:31Z</time></trkpt><trkpt lat="43.86891897983422" lon="12.126683874772182"><ele>773.0000000000001</ele><time>2026-04-20T10:19:32Z</time></trkpt><trkpt lat="43.86892052617318" lon="12.126790883617328"><ele>773.0</ele><time>2026-04-20T10:19:33Z</time></trkpt><trkpt lat="43.868933559312026" lon="12.12689391655498"><ele>770.5999999999999</ele><time>2026-04-20T10:19:34Z</time></trkpt><trkpt lat="43.869000205399836" lon="12.126969861484067"><ele>768.1999999999999</ele><time>2026-04-20T10:19:35Z</time></trkpt><trkpt lat="43.86907603180985" lon="12.127040451940482"><ele>765.8</ele><time>2026-04-20T10:19:36Z</time></trkpt><trkpt lat="43.8691570957892" lon="12.127117682933703"><ele>763.4</ele><time>2026-04-20T10:19:37Z</time></trkpt><trkpt lat="43.86923686509751" lon="12.127222323332196"><ele>761.0</ele><time>2026-04-20T10:19:38Z</time></trkpt><trkpt lat="43.86930756286366" lon="12.127347101866519"><ele>764.4</ele><time>2026-04-20T10:19:39Z</time></trkpt><trkpt lat="43.86936632483886" lon="12.127477609316896"><ele>767.8</ele><time>2026-04-20T10:19:40Z</time></trkpt><trkpt lat="43.8694148289712" lon="12.127592821180452"><ele>771.1999999999999</ele><time>2026-04-20T10:19:41Z</time></trkpt><trkpt lat="43.86944372644035" lon="12.127691741639683"><ele>774.5999999999999</ele><time>2026-04-20T10:19:42Z</time></trkpt><trkpt lat="43.86943283342489" lon="12.127844715008882"><ele>778.0</ele><time>2026-04-20T10:19:44Z</time></trkpt><trkpt lat="43.86938631671296" lon="12.1279196379036"><ele>778.0</ele><time>2026-04-20T10:19:45Z</time></trkpt><trkpt lat="43.869292114517435" lon="12.127947774405488"><ele>778.0</ele><time>2026-04-20T10:19:46Z</time></trkpt><trkpt lat="43.86920298901809" lon="12.128005588328843"><ele>778.0</ele><time>2026-04-20T10:19:47Z</time></trkpt><trkpt lat="43.86909854482761" lon="12.128076750336984"><ele>778.0</ele><time>2026-04-20T10:19:48Z</time></trkpt><trkpt lat="43.869012950745216" lon="12.128141404886122"><ele>778.0</ele><time>2026-04-20T10:19:49Z</time></trkpt><trkpt lat="43.86893604306318" lon="12.128217346451194"><ele>771.2</ele><time>2026-04-20T10:19:50Z</time></trkpt><trkpt lat="43.86888223226911" lon="12.128330649768987"><ele>764.4</ele><time>2026-04-20T10:19:51Z</time></trkpt><trkpt lat="43.86882617188088" lon="12.128405424873652"><ele>757.6</ele><time>2026-04-20T10:19:52.001Z</time></trkpt><trkpt lat="43.86880632187128" lon="12.128538134815837"><ele>750.8000000000001</ele><time>2026-04-20T10:19:53.001Z</time></trkpt><trkpt lat="43.868772941637005" lon="12.128661787462269"><ele>744.0</ele><time>2026-04-20T10:19:54.001Z</time></trkpt><trkpt lat="43.86884460992984" lon="12.128805943927855"><ele>744.0</ele><time>2026-04-20T10:19:55.001Z</time></trkpt><trkpt lat="43.868876081046935" lon="12.128937147400592"><ele>744.0</ele><time>2026-04-20T10:19:56.001Z</time></trkpt><trkpt lat="43.86888729552343" lon="12.129045609614703"><ele>744.0</ele><time>2026-04-20T10:19:57.001Z</time></trkpt><trkpt lat="43.86882756903653" lon="12.129179087435281"><ele>744.0</ele><time>2026-04-20T10:19:59.001Z</time></trkpt><trkpt lat="43.86874262995438" lon="12.129222486884792"><ele>744.0</ele><time>2026-04-20T10:20:00.001Z</time></trkpt><trkpt lat="43.868619221363446" lon="12.12924952042385"><ele>745.25</ele><time>2026-04-20T10:20:01.001Z</time></trkpt><trkpt lat="43.8685069174609" lon="12.12933543474922"><ele>746.5</ele><time>2026-04-20T10:20:02.001Z</time></trkpt><trkpt lat="43.8683891347896" lon="12.129398196647461"><ele>747.75</ele><time>2026-04-20T10:20:03.001Z</time></trkpt><trkpt lat="43.86827752607709" lon="12.1294498297736"><ele>749.0</ele><time>2026-04-20T10:20:04.001Z</time></trkpt><trkpt lat="43.8681732043702" lon="12.129514504069654"><ele>746.0</ele><time>2026-04-20T10:20:05.001Z</time></trkpt><trkpt lat="43.86808673237182" lon="12.129578986114154"><ele>743.0</ele><time>2026-04-20T10:20:06.001Z</time></trkpt><trkpt lat="43.86799945044999" lon="12.129662517283883"><ele>740.0</ele><time>2026-04-20T10:20:07.001Z</time></trkpt><trkpt lat="43.86793899626166" lon="12.12973876294343"><ele>737.0</ele><time>2026-04-20T10:20:08.001Z</time></trkpt><trkpt lat="43.867913659156955" lon="12.12983627219671"><ele>734.0</ele><time>2026-04-20T10:20:09.001Z</time></trkpt><trkpt lat="43.86789691800305" lon="12.12994461308967"><ele>731.0</ele><time>2026-04-20T10:20:10.001Z</time></trkpt><trkpt lat="43.86790064650256" lon="12.130063102137463"><ele>731.0</ele><time>2026-04-20T10:20:11.001Z</time></trkpt><trkpt lat="43.867925727267966" lon="12.130204555511698"><ele>731.0</ele><time>2026-04-20T10:20:12.001Z</time></trkpt><trkpt lat="43.86795028041721" lon="12.130335210365141"><ele>731.0</ele><time>2026-04-20T10:20:13.001Z</time></trkpt><trkpt lat="43.86796965449312" lon="12.13043063180592"><ele>731.0</ele><time>2026-04-20T10:20:14.001Z</time></trkpt><trkpt lat="43.86797094275783" lon="12.130521755509971"><ele>731.0</ele><time>2026-04-20T10:20:15.001Z</time></trkpt><trkpt lat="43.86788519297926" lon="12.13064630518561"><ele>731.0</ele><time>2026-04-20T10:20:17.001Z</time></trkpt><trkpt lat="43.86778222106492" lon="12.130633969232676"><ele>731.0</ele><time>2026-04-20T10:20:18.001Z</time></trkpt><trkpt lat="43.867659934995714" lon="12.130671928968251"><ele>731.0</ele><time>2026-04-20T10:20:19.001Z</time></trkpt><trkpt lat="43.867542700745894" lon="12.130688973338865"><ele>731.0</ele><time>2026-04-20T10:20:20.001Z</time></trkpt><trkpt lat="43.867432526569864" lon="12.130737393806523"><ele>727.5999999999999</ele><time>2026-04-20T10:20:21.001Z</time></trkpt><trkpt lat="43.86734308044322" lon="12.130806607882668"><ele>724.2</ele><time>2026-04-20T10:20:22.001Z</time></trkpt><trkpt lat="43.86725360532374" lon="12.130892623902401"><ele>720.8</ele><time>2026-04-20T10:20:23.001Z</time></trkpt><trkpt lat="43.86717076231428" lon="12.130969993805337"><ele>717.4000000000001</ele><time>2026-04-20T10:20:24.001Z</time></trkpt><trkpt lat="43.86709747976155" lon="12.131046985579736"><ele>714.0</ele><time>2026-04-20T10:20:25.001Z</time></trkpt><trkpt lat="43.867031531462985" lon="12.131136216854651"><ele>714.0</ele><time>2026-04-20T10:20:26.001Z</time></trkpt><trkpt lat="43.86698293150773" lon="12.13124975123096"><ele>714.0</ele><time>2026-04-20T10:20:27.001Z</time></trkpt><trkpt lat="43.86694383433657" lon="12.131378840249305"><ele>714.0</ele><time>2026-04-20T10:20:28.001Z</time></trkpt><trkpt lat="43.866902380869405" lon="12.131498814049527"><ele>714.0</ele><time>2026-04-20T10:20:29.001Z</time></trkpt><trkpt lat="43.86690436489779" lon="12.131622142342541"><ele>714.0</ele><time>2026-04-20T10:20:30.001Z</time></trkpt><trkpt lat="43.86689940088012" lon="12.131716904641896"><ele>714.0</ele><time>2026-04-20T10:20:31.001Z</time></trkpt><trkpt lat="43.86695771094219" lon="12.131837362345749"><ele>714.4000000000001</ele><time>2026-04-20T10:20:32.001Z</time></trkpt><trkpt lat="43.86701234452756" lon="12.13195883759858"><ele>714.8</ele><time>2026-04-20T10:20:33.001Z</time></trkpt><trkpt lat="43.86705987728274" lon="12.132091641452469"><ele>715.2</ele><time>2026-04-20T10:20:34.001Z</time></trkpt><trkpt lat="43.8670863989713" lon="12.13220640614162"><ele>715.5999999999999</ele><time>2026-04-20T10:20:35.001Z</time></trkpt><trkpt lat="43.86708168572519" lon="12.132315091915519"><ele>716.0</ele><time>2026-04-20T10:20:36.001Z</time></trkpt><trkpt lat="43.867039330792345" lon="12.132429459254842"><ele>716.0</ele><time>2026-04-20T10:20:37.001Z</time></trkpt><trkpt lat="43.86695527891522" lon="12.13251485977542"><ele>716.0</ele><time>2026-04-20T10:20:38.001Z</time></trkpt><trkpt lat="43.86690178068011" lon="12.132639787657945"><ele>716.0</ele><time>2026-04-20T10:20:39.001Z</time></trkpt><trkpt lat="43.866914378176865" lon="12.132777189864004"><ele>716.0</ele><time>2026-04-20T10:20:40.001Z</time></trkpt><trkpt lat="43.866920062236716" lon="12.132912665074114"><ele>716.0</ele><time>2026-04-20T10:20:41.001Z</time></trkpt><trkpt lat="43.86691873748729" lon="12.133057213377562"><ele>716.0</ele><time>2026-04-20T10:20:42.001Z</time></trkpt><trkpt lat="43.86693555472352" lon="12.13318855904958"><ele>716.0</ele><time>2026-04-20T10:20:43.001Z</time></trkpt><trkpt lat="43.866941897371596" lon="12.133280273222528"><ele>716.0</ele><time>2026-04-20T10:20:44.001Z</time></trkpt><trkpt lat="43.866889015559074" lon="12.133335895759723"><ele>716.0</ele><time>2026-04-20T10:20:45.001Z</time></trkpt><trkpt lat="43.866800679517276" lon="12.133389494922891"><ele>716.0</ele><time>2026-04-20T10:20:46.001Z</time></trkpt><trkpt lat="43.86673348416094" lon="12.133478373468582"><ele>716.0</ele><time>2026-04-20T10:20:47Z</time></trkpt><trkpt lat="43.8666762623481" lon="12.133533882068868"><ele>716.0</ele><time>2026-04-20T10:20:48Z</time></trkpt><trkpt lat="43.86660680428708" lon="12.133497985368773"><ele>716.0</ele><time>2026-04-20T10:20:50Z</time></trkpt><trkpt lat="43.86663201773222" lon="12.133354145897693"><ele>716.0</ele><time>2026-04-20T10:20:52Z</time></trkpt><trkpt lat="43.866727021004145" lon="12.133316859079319"><ele>716.0</ele><time>2026-04-20T10:20:53Z</time></trkpt><trkpt lat="43.86678917749205" lon="12.133234798908747"><ele>716.0</ele><time>2026-04-20T10:20:54Z</time></trkpt><trkpt lat="43.86683650771814" lon="12.13313004348925"><ele>716.0</ele><time>2026-04-20T10:20:55Z</time></trkpt><trkpt lat="43.866834229463024" lon="12.132990776106462"><ele>716.0</ele><time>2026-04-20T10:20:56Z</time></trkpt><trkpt lat="43.86677335507613" lon="12.13284107617871"><ele>716.0</ele><time>2026-04-20T10:20:57Z</time></trkpt><trkpt lat="43.86673365509294" lon="12.132667166156574"><ele>716.0</ele><time>2026-04-20T10:20:58Z</time></trkpt><trkpt lat="43.866726895918724" lon="12.132516126219798"><ele>711.1999999999999</ele><time>2026-04-20T10:20:59Z</time></trkpt><trkpt lat="43.86673126493773" lon="12.132361437006395"><ele>706.4</ele><time>2026-04-20T10:21:00Z</time></trkpt><trkpt lat="43.86671895897586" lon="12.132220557917725"><ele>701.6</ele><time>2026-04-20T10:21:01Z</time></trkpt><trkpt lat="43.86668386930217" lon="12.132087045012899"><ele>696.8</ele><time>2026-04-20T10:21:02Z</time></trkpt><trkpt lat="43.86662908266413" lon="12.131972822212049"><ele>692.0</ele><time>2026-04-20T10:21:03Z</time></trkpt><trkpt lat="43.86653752858506" lon="12.131886522820714"><ele>692.0</ele><time>2026-04-20T10:21:04Z</time></trkpt><trkpt lat="43.866458982502834" lon="12.131772523397677"><ele>692.0</ele><time>2026-04-20T10:21:05Z</time></trkpt><trkpt lat="43.86639504296995" lon="12.131627416055476"><ele>692.0</ele><time>2026-04-20T10:21:06Z</time></trkpt><trkpt lat="43.86633611723619" lon="12.131507201516555"><ele>692.0</ele><time>2026-04-20T10:21:07Z</time></trkpt><trkpt lat="43.866290221748905" lon="12.131395483041487"><ele>692.0</ele><time>2026-04-20T10:21:08Z</time></trkpt><trkpt lat="43.866260129228365" lon="12.131285292228558"><ele>691.0</ele><time>2026-04-20T10:21:09Z</time></trkpt><trkpt lat="43.86624943257407" lon="12.131160503825175"><ele>690.0</ele><time>2026-04-20T10:21:10Z</time></trkpt><trkpt lat="43.86625609089208" lon="12.131035577766763"><ele>689.0</ele><time>2026-04-20T10:21:11Z</time></trkpt><trkpt lat="43.86627124836147" lon="12.130886898181211"><ele>688.0</ele><time>2026-04-20T10:21:12Z</time></trkpt><trkpt lat="43.86630933383491" lon="12.130742342382122"><ele>687.0</ele><time>2026-04-20T10:21:13Z</time></trkpt><trkpt lat="43.86634736475812" lon="12.130597370044322"><ele>685.0</ele><time>2026-04-20T10:21:14Z</time></trkpt><trkpt lat="43.86638066735343" lon="12.13047379269857"><ele>683.0</ele><time>2026-04-20T10:21:15Z</time></trkpt><trkpt lat="43.866408335841044" lon="12.13038387244015"><ele>681.0</ele><time>2026-04-20T10:21:16Z</time></trkpt><trkpt lat="43.86645283944075" lon="12.130254441233275"><ele>679.0</ele><time>2026-04-20T10:21:18Z</time></trkpt><trkpt lat="43.8663929285094" lon="12.130123192726504"><ele>677.0</ele><time>2026-04-20T10:21:20Z</time></trkpt><trkpt lat="43.866310633593685" lon="12.130134814738522"><ele>677.0</ele><time>2026-04-20T10:21:21Z</time></trkpt><trkpt lat="43.86625380241841" lon="12.130243076775297"><ele>677.0</ele><time>2026-04-20T10:21:22Z</time></trkpt><trkpt lat="43.8661964032744" lon="12.130371061050663"><ele>677.0</ele><time>2026-04-20T10:21:23Z</time></trkpt><trkpt lat="43.8661252787926" lon="12.130504563150511"><ele>677.0</ele><time>2026-04-20T10:21:24Z</time></trkpt><trkpt lat="43.86606596288639" lon="12.130615560198022"><ele>677.0</ele><time>2026-04-20T10:21:25Z</time></trkpt><trkpt lat="43.866007374919455" lon="12.130718315032256"><ele>673.2</ele><time>2026-04-20T10:21:26Z</time></trkpt><trkpt lat="43.86594325850402" lon="12.130825228480294"><ele>669.4000000000001</ele><time>2026-04-20T10:21:27Z</time></trkpt><trkpt lat="43.86587568839103" lon="12.13092842800159"><ele>665.5999999999999</ele><time>2026-04-20T10:21:28Z</time></trkpt><trkpt lat="43.865789924211526" lon="12.131007615697584"><ele>661.8</ele><time>2026-04-20T10:21:29Z</time></trkpt><trkpt lat="43.865723323851874" lon="12.131113826059245"><ele>658.0</ele><time>2026-04-20T10:21:30Z</time></trkpt><trkpt lat="43.86565054740494" lon="12.131211891263215"><ele>658.0</ele><time>2026-04-20T10:21:31Z</time></trkpt><trkpt lat="43.86557818092274" lon="12.131296529721208"><ele>658.0</ele><time>2026-04-20T10:21:32Z</time></trkpt><trkpt lat="43.86552603179414" lon="12.131361753822256"><ele>658.0</ele><time>2026-04-20T10:21:33Z</time></trkpt><trkpt lat="43.86542402389985" lon="12.131396400447272"><ele>658.0</ele><time>2026-04-20T10:21:35Z</time></trkpt><trkpt lat="43.86535142306967" lon="12.131464104841232"><ele>658.0</ele><time>2026-04-20T10:21:37.001Z</time></trkpt><trkpt lat="43.86530602537894" lon="12.131573483750355"><ele>658.0</ele><time>2026-04-20T10:21:39.001Z</time></trkpt><trkpt lat="43.86527746861554" lon="12.131656280643089"><ele>658.1666666666667</ele><time>2026-04-20T10:21:40.001Z</time></trkpt><trkpt lat="43.86523443476267" lon="12.13172284270627"><ele>658.3333333333334</ele><time>2026-04-20T10:21:41.001Z</time></trkpt><trkpt lat="43.86520023405653" lon="12.13180589408703"><ele>658.5</ele><time>2026-04-20T10:21:42.001Z</time></trkpt><trkpt lat="43.86517732560772" lon="12.131917547672344"><ele>658.6666666666666</ele><time>2026-04-20T10:21:43.001Z</time></trkpt><trkpt lat="43.86511813993867" lon="12.132028021064677"><ele>658.8333333333333</ele><time>2026-04-20T10:21:44.001Z</time></trkpt><trkpt lat="43.86508589641067" lon="12.132129812014991"><ele>659.0</ele><time>2026-04-20T10:21:45.001Z</time></trkpt><trkpt lat="43.86503022841758" lon="12.13220913097804"><ele>655.4000000000001</ele><time>2026-04-20T10:21:46.001Z</time></trkpt><trkpt lat="43.86495056888467" lon="12.132236459490564"><ele>651.8</ele><time>2026-04-20T10:21:47.001Z</time></trkpt><trkpt lat="43.86485285043831" lon="12.132267555747793"><ele>648.2</ele><time>2026-04-20T10:21:48.001Z</time></trkpt><trkpt lat="43.86474755170656" lon="12.132289673091861"><ele>644.5999999999999</ele><time>2026-04-20T10:21:49.001Z</time></trkpt><trkpt lat="43.86465514654608" lon="12.132303931883314"><ele>641.0</ele><time>2026-04-20T10:21:50.001Z</time></trkpt><trkpt lat="43.86458109276793" lon="12.13232752453156"><ele>642.0</ele><time>2026-04-20T10:21:51.001Z</time></trkpt><trkpt lat="43.864506990211126" lon="12.132400352811155"><ele>643.0</ele><time>2026-04-20T10:21:52.001Z</time></trkpt><trkpt lat="43.86442201332302" lon="12.132462247449157"><ele>644.0</ele><time>2026-04-20T10:21:53.001Z</time></trkpt><trkpt lat="43.8643446913896" lon="12.132521500907977"><ele>645.0</ele><time>2026-04-20T10:21:54.001Z</time></trkpt><trkpt lat="43.86429146342518" lon="12.1326095245782"><ele>646.0</ele><time>2026-04-20T10:21:55.001Z</time></trkpt><trkpt lat="43.864246475147965" lon="12.132681019233486"><ele>647.0</ele><time>2026-04-20T10:21:56.001Z</time></trkpt><trkpt lat="43.86420551205591" lon="12.132753882085819"><ele>644.8333333333333</ele><time>2026-04-20T10:21:57.001Z</time></trkpt><trkpt lat="43.86416051239633" lon="12.132817906128311"><ele>642.6666666666666</ele><time>2026-04-20T10:21:58.001Z</time></trkpt><trkpt lat="43.86407709304974" lon="12.1328445646308"><ele>640.5</ele><time>2026-04-20T10:22:00.001Z</time></trkpt><trkpt lat="43.8640072629606" lon="12.132737331060977"><ele>638.3333333333334</ele><time>2026-04-20T10:22:02.001Z</time></trkpt><trkpt lat="43.86395819206373" lon="12.13257846493944"><ele>636.1666666666667</ele><time>2026-04-20T10:22:04.001Z</time></trkpt><trkpt lat="43.863968325416714" lon="12.13248198034264"><ele>634.0</ele><time>2026-04-20T10:22:05.001Z</time></trkpt><trkpt lat="43.86401278047516" lon="12.132399261828484"><ele>634.0</ele><time>2026-04-20T10:22:06.001Z</time></trkpt><trkpt lat="43.86401344857246" lon="12.132310930607535"><ele>634.0</ele><time>2026-04-20T10:22:07.001Z</time></trkpt><trkpt lat="43.86391092042271" lon="12.132230738553158"><ele>634.0</ele><time>2026-04-20T10:22:09.001Z</time></trkpt><trkpt lat="43.86385292477219" lon="12.132295682635501"><ele>634.0</ele><time>2026-04-20T10:22:10.001Z</time></trkpt><trkpt lat="43.86379853606407" lon="12.132371517533816"><ele>634.0</ele><time>2026-04-20T10:22:11.001Z</time></trkpt><trkpt lat="43.86373873538518" lon="12.132453804567389"><ele>634.0</ele><time>2026-04-20T10:22:12.001Z</time></trkpt><trkpt lat="43.863690920094676" lon="12.132531264252314"><ele>634.0</ele><time>2026-04-20T10:22:13.001Z</time></trkpt><trkpt lat="43.86365604488939" lon="12.132619425725094"><ele>634.0</ele><time>2026-04-20T10:22:14.001Z</time></trkpt><trkpt lat="43.8636406690824" lon="12.132725228130665"><ele>634.0</ele><time>2026-04-20T10:22:15.001Z</time></trkpt><trkpt lat="43.863626430852925" lon="12.13285459504487"><ele>634.0</ele><time>2026-04-20T10:22:16.001Z</time></trkpt><trkpt lat="43.86360849024316" lon="12.132987161302983"><ele>634.0</ele><time>2026-04-20T10:22:17.001Z</time></trkpt><trkpt lat="43.863589391638065" lon="12.133099926126652"><ele>634.0</ele><time>2026-04-20T10:22:18.001Z</time></trkpt><trkpt lat="43.86356957511106" lon="12.133206810366453"><ele>633.5</ele><time>2026-04-20T10:22:19.001Z</time></trkpt><trkpt lat="43.86354534955828" lon="12.133300644193143"><ele>633.0</ele><time>2026-04-20T10:22:20.001Z</time></trkpt><trkpt lat="43.86350923904278" lon="12.133399138871425"><ele>632.5</ele><time>2026-04-20T10:22:21.001Z</time></trkpt><trkpt lat="43.86346313353517" lon="12.133515797012736"><ele>632.0</ele><time>2026-04-20T10:22:22.001Z</time></trkpt><trkpt lat="43.86341207491292" lon="12.133635065360949"><ele>631.5</ele><time>2026-04-20T10:22:23.001Z</time></trkpt><trkpt lat="43.86335857536599" lon="12.13375180849361"><ele>631.0</ele><time>2026-04-20T10:22:24.001Z</time></trkpt><trkpt lat="43.863307543629155" lon="12.133865075975498"><ele>626.8</ele><time>2026-04-20T10:22:25.001Z</time></trkpt><trkpt lat="43.8632514702713" lon="12.133973813365927"><ele>622.6</ele><time>2026-04-20T10:22:26.001Z</time></trkpt><trkpt lat="43.863200804415115" lon="12.134083780912714"><ele>618.4</ele><time>2026-04-20T10:22:27.001Z</time></trkpt><trkpt lat="43.863144837412435" lon="12.13419769613856"><ele>614.2</ele><time>2026-04-20T10:22:28.001Z</time></trkpt><trkpt lat="43.86309759695082" lon="12.134308660230499"><ele>610.0</ele><time>2026-04-20T10:22:29.001Z</time></trkpt><trkpt lat="43.863061003291115" lon="12.134425041445795"><ele>610.0</ele><time>2026-04-20T10:22:30.001Z</time></trkpt><trkpt lat="43.86302739831329" lon="12.134566395715952"><ele>610.0</ele><time>2026-04-20T10:22:31.001Z</time></trkpt><trkpt lat="43.862997393713165" lon="12.13470932265197"><ele>610.0</ele><time>2026-04-20T10:22:32.001Z</time></trkpt><trkpt lat="43.86298015635869" lon="12.134833242633626"><ele>610.0</ele><time>2026-04-20T10:22:33.001Z</time></trkpt><trkpt lat="43.86297776870178" lon="12.134931614978305"><ele>610.0</ele><time>2026-04-20T10:22:34.001Z</time></trkpt><trkpt lat="43.8629890901145" lon="12.135021908474963"><ele>610.0</ele><time>2026-04-20T10:22:35.001Z</time></trkpt><trkpt lat="43.863022090417346" lon="12.135134239687249"><ele>609.4</ele><time>2026-04-20T10:22:36.001Z</time></trkpt><trkpt lat="43.863068367529245" lon="12.135258551911559"><ele>608.8</ele><time>2026-04-20T10:22:37.001Z</time></trkpt><trkpt lat="43.86309982898421" lon="12.135386419440646"><ele>608.2</ele><time>2026-04-20T10:22:38.001Z</time></trkpt><trkpt lat="43.86311845087365" lon="12.13551643969023"><ele>607.6</ele><time>2026-04-20T10:22:39.001Z</time></trkpt><trkpt lat="43.863117433703685" lon="12.135633582068124"><ele>607.0</ele><time>2026-04-20T10:22:40.001Z</time></trkpt><trkpt lat="43.86307481900364" lon="12.135745909407325"><ele>606.6</ele><time>2026-04-20T10:22:41.001Z</time></trkpt><trkpt lat="43.86302673879017" lon="12.135837579701223"><ele>606.2</ele><time>2026-04-20T10:22:42.001Z</time></trkpt><trkpt lat="43.86297037710327" lon="12.135930495976549"><ele>605.8</ele><time>2026-04-20T10:22:43.001Z</time></trkpt><trkpt lat="43.86291652682191" lon="12.136047954866015"><ele>605.4</ele><time>2026-04-20T10:22:44.001Z</time></trkpt><trkpt lat="43.862850881343725" lon="12.136172381751678"><ele>605.0</ele><time>2026-04-20T10:22:45.001Z</time></trkpt><trkpt lat="43.86279593200816" lon="12.136285052307556"><ele>605.0</ele><time>2026-04-20T10:22:46.001Z</time></trkpt><trkpt lat="43.862754727365086" lon="12.1363883284151"><ele>605.0</ele><time>2026-04-20T10:22:47.001Z</time></trkpt><trkpt lat="43.86269431143444" lon="12.136491531243845"><ele>605.0</ele><time>2026-04-20T10:22:48.001Z</time></trkpt><trkpt lat="43.862637943025334" lon="12.136574819890326"><ele>605.0</ele><time>2026-04-20T10:22:49.001Z</time></trkpt><trkpt lat="43.86257563697457" lon="12.136661002052577"><ele>605.0</ele><time>2026-04-20T10:22:50.001Z</time></trkpt><trkpt lat="43.862507720002135" lon="12.136737582941976"><ele>605.0</ele><time>2026-04-20T10:22:51.001Z</time></trkpt><trkpt lat="43.86244422567829" lon="12.13681922090743"><ele>601.5</ele><time>2026-04-20T10:22:52.001Z</time></trkpt><trkpt lat="43.862396093187854" lon="12.13691580431135"><ele>598.0</ele><time>2026-04-20T10:22:53Z</time></trkpt><trkpt lat="43.862340115434534" lon="12.137007578478983"><ele>594.5</ele><time>2026-04-20T10:22:54Z</time></trkpt><trkpt lat="43.86229952769928" lon="12.137106205143217"><ele>591.0</ele><time>2026-04-20T10:22:55Z</time></trkpt><trkpt lat="43.86229257564516" lon="12.13721113295439"><ele>587.5</ele><time>2026-04-20T10:22:56Z</time></trkpt><trkpt lat="43.862267082151256" lon="12.137309151476618"><ele>584.0</ele><time>2026-04-20T10:22:58Z</time></trkpt><trkpt lat="43.86234555910748" lon="12.13734872727682"><ele>584.0</ele><time>2026-04-20T10:23:07Z</time></trkpt><trkpt lat="43.862421956517274" lon="12.137331044160431"><ele>584.0</ele><time>2026-04-20T10:23:08Z</time></trkpt><trkpt lat="43.86251522777122" lon="12.137319736951527"><ele>584.0</ele><time>2026-04-20T10:23:10Z</time></trkpt><trkpt lat="43.862577743797935" lon="12.13729715646508"><ele>584.0</ele><time>2026-04-20T10:23:12Z</time></trkpt><trkpt lat="43.86248770925665" lon="12.13735346058608"><ele>584.0</ele><time>2026-04-20T10:23:17Z</time></trkpt><trkpt lat="43.862404263817915" lon="12.137375988489527"><ele>584.0</ele><time>2026-04-20T10:23:18Z</time></trkpt><trkpt lat="43.86234441097442" lon="12.137552009367095"><ele>581.3333333333333</ele><time>2026-04-20T10:23:19Z</time></trkpt><trkpt lat="43.86228022035625" lon="12.137644524228426"><ele>578.6666666666666</ele><time>2026-04-20T10:23:20Z</time></trkpt><trkpt lat="43.86222481628928" lon="12.137745444695774"><ele>576.0</ele><time>2026-04-20T10:23:21Z</time></trkpt><trkpt lat="43.86216753368706" lon="12.13783858305453"><ele>573.3333333333334</ele><time>2026-04-20T10:23:22Z</time></trkpt><trkpt lat="43.86210424998833" lon="12.137915718809944"><ele>570.6666666666667</ele><time>2026-04-20T10:23:23Z</time></trkpt><trkpt lat="43.862042817701685" lon="12.137972323524986"><ele>568.0</ele><time>2026-04-20T10:23:24Z</time></trkpt><trkpt lat="43.86196774660398" lon="12.138014807559154"><ele>568.0</ele><time>2026-04-20T10:23:25Z</time></trkpt><trkpt lat="43.86188655855536" lon="12.13803664594635"><ele>568.0</ele><time>2026-04-20T10:23:26Z</time></trkpt><trkpt lat="43.8618141371557" lon="12.138053112850995"><ele>568.0</ele><time>2026-04-20T10:23:27Z</time></trkpt><trkpt lat="43.861746149037096" lon="12.138076775010424"><ele>568.0</ele><time>2026-04-20T10:23:28Z</time></trkpt><trkpt lat="43.861680646203226" lon="12.138102405947606"><ele>568.0</ele><time>2026-04-20T10:23:29Z</time></trkpt><trkpt lat="43.86161934218821" lon="12.13813293406832"><ele>568.0</ele><time>2026-04-20T10:23:30Z</time></trkpt><trkpt lat="43.86155670386814" lon="12.138155172396344"><ele>568.0</ele><time>2026-04-20T10:23:31Z</time></trkpt><trkpt lat="43.86149222335551" lon="12.13820195366932"><ele>565.3333333333334</ele><time>2026-04-20T10:23:32.001Z</time></trkpt><trkpt lat="43.861428163122675" lon="12.138242571503152"><ele>562.6666666666667</ele><time>2026-04-20T10:23:33.001Z</time></trkpt><trkpt lat="43.86136415267227" lon="12.138286854067685"><ele>560.0</ele><time>2026-04-20T10:23:34.001Z</time></trkpt><trkpt lat="43.861294709939784" lon="12.138340736432003"><ele>557.3333333333334</ele><time>2026-04-20T10:23:35.001Z</time></trkpt><trkpt lat="43.86122192505634" lon="12.138407028314361"><ele>554.6666666666666</ele><time>2026-04-20T10:23:36.001Z</time></trkpt><trkpt lat="43.861144056638324" lon="12.138476593754357"><ele>552.0</ele><time>2026-04-20T10:23:37.001Z</time></trkpt><trkpt lat="43.8610799295238" lon="12.138536635316104"><ele>552.0</ele><time>2026-04-20T10:23:38.001Z</time></trkpt><trkpt lat="43.86101053516718" lon="12.138597638940906"><ele>552.0</ele><time>2026-04-20T10:23:39.001Z</time></trkpt><trkpt lat="43.86094583736006" lon="12.138651503987049"><ele>552.0</ele><time>2026-04-20T10:23:40.001Z</time></trkpt><trkpt lat="43.86089074278293" lon="12.138723181934225"><ele>552.0</ele><time>2026-04-20T10:23:41.001Z</time></trkpt><trkpt lat="43.860836299269444" lon="12.138799091230972"><ele>552.0</ele><time>2026-04-20T10:23:42.001Z</time></trkpt><trkpt lat="43.860790559076165" lon="12.138888185482568"><ele>552.0</ele><time>2026-04-20T10:23:43.001Z</time></trkpt><trkpt lat="43.860762231435785" lon="12.138977522219038"><ele>549.6666666666666</ele><time>2026-04-20T10:23:44.001Z</time></trkpt><trkpt lat="43.86075600552551" lon="12.139067392166854"><ele>547.3333333333334</ele><time>2026-04-20T10:23:45.001Z</time></trkpt><trkpt lat="43.86080284968758" lon="12.13922579826064"><ele>545.0</ele><time>2026-04-20T10:23:47.001Z</time></trkpt><trkpt lat="43.860829859878415" lon="12.139310080520918"><ele>542.6666666666667</ele><time>2026-04-20T10:23:48.001Z</time></trkpt><trkpt lat="43.86089781488819" lon="12.139374818972664"><ele>540.3333333333334</ele><time>2026-04-20T10:23:49.001Z</time></trkpt><trkpt lat="43.860982172465796" lon="12.13939340149771"><ele>538.0</ele><time>2026-04-20T10:23:50.001Z</time></trkpt><trkpt lat="43.86104046924169" lon="12.139432457171173"><ele>538.0</ele><time>2026-04-20T10:23:51.001Z</time></trkpt><trkpt lat="43.86109911418804" lon="12.139508016271536"><ele>538.0</ele><time>2026-04-20T10:23:53.001Z</time></trkpt><trkpt lat="43.86105435588877" lon="12.139594286548421"><ele>538.0</ele><time>2026-04-20T10:23:55.001Z</time></trkpt><trkpt lat="43.860937474132754" lon="12.139526543344383"><ele>538.0</ele><time>2026-04-20T10:23:57.001Z</time></trkpt><trkpt lat="43.86084475525501" lon="12.139476091389243"><ele>538.0</ele><time>2026-04-20T10:23:58.001Z</time></trkpt><trkpt lat="43.86074374722063" lon="12.139447657851427"><ele>538.0</ele><time>2026-04-20T10:23:59.001Z</time></trkpt><trkpt lat="43.86064965058562" lon="12.13940972128618"><ele>538.0</ele><time>2026-04-20T10:24:00.001Z</time></trkpt><trkpt lat="43.860561808725684" lon="12.139385087973293"><ele>538.0</ele><time>2026-04-20T10:24:01.001Z</time></trkpt><trkpt lat="43.86048267100039" lon="12.139336243470066"><ele>538.0</ele><time>2026-04-20T10:24:02.001Z</time></trkpt><trkpt lat="43.86042620683402" lon="12.139253412397226"><ele>538.0</ele><time>2026-04-20T10:24:03.001Z</time></trkpt><trkpt lat="43.86033502863844" lon="12.139181413262861"><ele>538.0</ele><time>2026-04-20T10:24:05.001Z</time></trkpt><trkpt lat="43.86024803414745" lon="12.139246091078201"><ele>538.0</ele><time>2026-04-20T10:24:07.001Z</time></trkpt><trkpt lat="43.86026610070673" lon="12.139344691366066"><ele>538.0</ele><time>2026-04-20T10:24:08.001Z</time></trkpt><trkpt lat="43.86030338058508" lon="12.139437379108244"><ele>538.0</ele><time>2026-04-20T10:24:09.001Z</time></trkpt><trkpt lat="43.860388877792964" lon="12.139491578550427"><ele>538.0</ele><time>2026-04-20T10:24:10.001Z</time></trkpt><trkpt lat="43.86047897979564" lon="12.139559672799539"><ele>538.0</ele><time>2026-04-20T10:24:11.001Z</time></trkpt><trkpt lat="43.86057502453801" lon="12.139643104945868"><ele>538.0</ele><time>2026-04-20T10:24:12.001Z</time></trkpt><trkpt lat="43.860672558829734" lon="12.139711526857157"><ele>538.0</ele><time>2026-04-20T10:24:13.001Z</time></trkpt><trkpt lat="43.86075567675762" lon="12.139785004690394"><ele>538.0</ele><time>2026-04-20T10:24:14.001Z</time></trkpt><trkpt lat="43.86081893476906" lon="12.13984723742013"><ele>538.0</ele><time>2026-04-20T10:24:15.001Z</time></trkpt><trkpt lat="43.86087213651723" lon="12.13993311456257"><ele>538.0</ele><time>2026-04-20T10:24:17.001Z</time></trkpt><trkpt lat="43.86083054723863" lon="12.140003085022187"><ele>538.0</ele><time>2026-04-20T10:24:19.001Z</time></trkpt><trkpt lat="43.86073785272893" lon="12.13996789281473"><ele>538.0</ele><time>2026-04-20T10:24:21.001Z</time></trkpt><trkpt lat="43.86071658197127" lon="12.13986605467223"><ele>538.0</ele><time>2026-04-20T10:24:22.001Z</time></trkpt><trkpt lat="43.8606625902849" lon="12.13980756007443"><ele>538.0</ele><time>2026-04-20T10:24:23.001Z</time></trkpt><trkpt lat="43.86058437063707" lon="12.139763831321117"><ele>538.0</ele><time>2026-04-20T10:24:24.001Z</time></trkpt><trkpt lat="43.860487311319545" lon="12.139746630011105"><ele>538.0</ele><time>2026-04-20T10:24:25.001Z</time></trkpt><trkpt lat="43.86036975667884" lon="12.13972530059957"><ele>538.0</ele><time>2026-04-20T10:24:26.001Z</time></trkpt><trkpt lat="43.86025601303615" lon="12.139711869541953"><ele>538.0</ele><time>2026-04-20T10:24:27.001Z</time></trkpt><trkpt lat="43.8601451217428" lon="12.13970754201979"><ele>538.0</ele><time>2026-04-20T10:24:28.001Z</time></trkpt><trkpt lat="43.86003072956821" lon="12.139715064546754"><ele>538.0</ele><time>2026-04-20T10:24:29.001Z</time></trkpt><trkpt lat="43.85992467519546" lon="12.139737021476577"><ele>538.0</ele><time>2026-04-20T10:24:30.001Z</time></trkpt><trkpt lat="43.859820381609694" lon="12.139721851950071"><ele>538.0</ele><time>2026-04-20T10:24:31.001Z</time></trkpt><trkpt lat="43.85972877028314" lon="12.139673431814433"><ele>534.1666666666667</ele><time>2026-04-20T10:24:32.001Z</time></trkpt><trkpt lat="43.85964909718886" lon="12.13962076130356"><ele>530.3333333333334</ele><time>2026-04-20T10:24:33.001Z</time></trkpt><trkpt lat="43.859583899060205" lon="12.139578832765938"><ele>526.5</ele><time>2026-04-20T10:24:34.001Z</time></trkpt><trkpt lat="43.859528140018035" lon="12.139536028191385"><ele>522.6666666666666</ele><time>2026-04-20T10:24:35.001Z</time></trkpt><trkpt lat="43.85950964004596" lon="12.139421861781562"><ele>518.8333333333333</ele><time>2026-04-20T10:24:36.001Z</time></trkpt><trkpt lat="43.85947590806486" lon="12.139263227411758"><ele>515.0</ele><time>2026-04-20T10:24:37.001Z</time></trkpt><trkpt lat="43.85940357912483" lon="12.139150721774632"><ele>515.2</ele><time>2026-04-20T10:24:38.001Z</time></trkpt><trkpt lat="43.859356594100156" lon="12.13901444542895"><ele>515.4</ele><time>2026-04-20T10:24:39.001Z</time></trkpt><trkpt lat="43.85929179439664" lon="12.138895805460708"><ele>515.6</ele><time>2026-04-20T10:24:40.001Z</time></trkpt><trkpt lat="43.85920613405381" lon="12.138804162037541"><ele>515.8</ele><time>2026-04-20T10:24:41.001Z</time></trkpt><trkpt lat="43.85912495248853" lon="12.138737229648326"><ele>516.0</ele><time>2026-04-20T10:24:42.001Z</time></trkpt><trkpt lat="43.85904828169755" lon="12.138697038450363"><ele>512.2</ele><time>2026-04-20T10:24:43.001Z</time></trkpt><trkpt lat="43.85901039369747" lon="12.1385990190492"><ele>508.40000000000003</ele><time>2026-04-20T10:24:44.001Z</time></trkpt><trkpt lat="43.85902888189064" lon="12.138458553009977"><ele>504.6</ele><time>2026-04-20T10:24:45.001Z</time></trkpt><trkpt lat="43.85902376293064" lon="12.138310149295412"><ele>500.8</ele><time>2026-04-20T10:24:46.001Z</time></trkpt><trkpt lat="43.858992492009314" lon="12.138158583677637"><ele>497.0</ele><time>2026-04-20T10:24:47.001Z</time></trkpt><trkpt lat="43.85892866214675" lon="12.138038924135278"><ele>497.0</ele><time>2026-04-20T10:24:48.001Z</time></trkpt><trkpt lat="43.85888423057585" lon="12.137914043153293"><ele>497.00000000000006</ele><time>2026-04-20T10:24:49.001Z</time></trkpt><trkpt lat="43.8588505389948" lon="12.1377889978675"><ele>497.00000000000006</ele><time>2026-04-20T10:24:50.001Z</time></trkpt><trkpt lat="43.858848353756585" lon="12.137666287232923"><ele>497.0</ele><time>2026-04-20T10:24:51.001Z</time></trkpt><trkpt lat="43.85886084362195" lon="12.137538205651756"><ele>497.0</ele><time>2026-04-20T10:24:52.001Z</time></trkpt><trkpt lat="43.85884834400596" lon="12.137424793376896"><ele>497.16666666666663</ele><time>2026-04-20T10:24:53.001Z</time></trkpt><trkpt lat="43.8588316610516" lon="12.137318247659426"><ele>497.3333333333333</ele><time>2026-04-20T10:24:54.001Z</time></trkpt><trkpt lat="43.85879099702692" lon="12.137224623928814"><ele>497.5</ele><time>2026-04-20T10:24:55.001Z</time></trkpt><trkpt lat="43.85871818724749" lon="12.137177862534372"><ele>497.66666666666663</ele><time>2026-04-20T10:24:56.001Z</time></trkpt><trkpt lat="43.85864765231732" lon="12.137129093100034"><ele>497.8333333333333</ele><time>2026-04-20T10:24:58.001Z</time></trkpt><trkpt lat="43.85854975953564" lon="12.137164580515876"><ele>498.0</ele><time>2026-04-20T10:28:11Z</time></trkpt><trkpt lat="43.85848485319662" lon="12.13718791336732"><ele>498.3333333333333</ele><time>2026-04-20T10:28:12Z</time></trkpt><trkpt lat="43.858415619056764" lon="12.137216266100687"><ele>498.66666666666663</ele><time>2026-04-20T10:28:13Z</time></trkpt><trkpt lat="43.85835233481971" lon="12.137224192867386"><ele>499.0</ele><time>2026-04-20T10:28:14Z</time></trkpt><trkpt lat="43.85824059910674" lon="12.137309229304641"><ele>499.3333333333333</ele><time>2026-04-20T10:28:16Z</time></trkpt><trkpt lat="43.858191566516766" lon="12.137386961802374"><ele>499.66666666666663</ele><time>2026-04-20T10:28:17Z</time></trkpt><trkpt lat="43.85817589650796" lon="12.137510380722654"><ele>500.0</ele><time>2026-04-20T10:28:18Z</time></trkpt><trkpt lat="43.85816050458632" lon="12.13762901217392"><ele>498.8</ele><time>2026-04-20T10:28:19Z</time></trkpt><trkpt lat="43.85814232261287" lon="12.137750429600892"><ele>497.6</ele><time>2026-04-20T10:28:20Z</time></trkpt><trkpt lat="43.85812218470234" lon="12.137868193932205"><ele>496.4</ele><time>2026-04-20T10:28:21Z</time></trkpt><trkpt lat="43.858098117377374" lon="12.138008548198304"><ele>495.2</ele><time>2026-04-20T10:28:22Z</time></trkpt><trkpt lat="43.858079597627004" lon="12.138136271444147"><ele>494.0</ele><time>2026-04-20T10:28:23Z</time></trkpt><trkpt lat="43.85806386421555" lon="12.13827312671212"><ele>493.3333333333333</ele><time>2026-04-20T10:28:24Z</time></trkpt><trkpt lat="43.85805175444075" lon="12.138403502609993"><ele>492.66666666666663</ele><time>2026-04-20T10:28:25Z</time></trkpt><trkpt lat="43.85804371807581" lon="12.138525017837592"><ele>492.0</ele><time>2026-04-20T10:28:26Z</time></trkpt><trkpt lat="43.85805507158021" lon="12.138634166595292"><ele>491.33333333333337</ele><time>2026-04-20T10:28:27Z</time></trkpt><trkpt lat="43.85806077910826" lon="12.138760449929247"><ele>490.6666666666667</ele><time>2026-04-20T10:28:28Z</time></trkpt><trkpt lat="43.85805405033526" lon="12.138891675488487"><ele>490.0</ele><time>2026-04-20T10:28:29Z</time></trkpt><trkpt lat="43.85806419241486" lon="12.139035956990266"><ele>489.6</ele><time>2026-04-20T10:28:30Z</time></trkpt><trkpt lat="43.85807025107725" lon="12.139168140959065"><ele>489.2</ele><time>2026-04-20T10:28:31Z</time></trkpt><trkpt lat="43.85805760468565" lon="12.139299009445645"><ele>488.79999999999995</ele><time>2026-04-20T10:28:32Z</time></trkpt><trkpt lat="43.85801112541904" lon="12.139447433828538"><ele>488.4</ele><time>2026-04-20T10:28:33Z</time></trkpt><trkpt lat="43.85799842255815" lon="12.139610511152867"><ele>488.0</ele><time>2026-04-20T10:28:34Z</time></trkpt><trkpt lat="43.85799700719402" lon="12.139767609001211"><ele>488.16666666666663</ele><time>2026-04-20T10:28:35Z</time></trkpt><trkpt lat="43.85798857918954" lon="12.139909139415362"><ele>488.3333333333333</ele><time>2026-04-20T10:28:36Z</time></trkpt><trkpt lat="43.85797652689622" lon="12.14002318777536"><ele>488.5</ele><time>2026-04-20T10:28:37Z</time></trkpt><trkpt lat="43.85795356493507" lon="12.140123353093772"><ele>488.66666666666663</ele><time>2026-04-20T10:28:38Z</time></trkpt><trkpt lat="43.85789338295642" lon="12.140214268026076"><ele>488.8333333333333</ele><time>2026-04-20T10:28:39Z</time></trkpt><trkpt lat="43.8578286285912" lon="12.140302903575588"><ele>489.0</ele><time>2026-04-20T10:28:40Z</time></trkpt><trkpt lat="43.857751643011795" lon="12.140376992010653"><ele>489.0</ele><time>2026-04-20T10:28:41Z</time></trkpt><trkpt lat="43.85767019613728" lon="12.140421634940934"><ele>489.0</ele><time>2026-04-20T10:28:42Z</time></trkpt><trkpt lat="43.85756613718522" lon="12.140469019345579"><ele>489.0</ele><time>2026-04-20T10:28:43Z</time></trkpt><trkpt lat="43.85745548989596" lon="12.140525811217966"><ele>489.0</ele><time>2026-04-20T10:28:44Z</time></trkpt><trkpt lat="43.857344853232576" lon="12.140592454789456"><ele>489.0</ele><time>2026-04-20T10:28:45Z</time></trkpt><trkpt lat="43.85724824271072" lon="12.140682700902106"><ele>494.2</ele><time>2026-04-20T10:28:46Z</time></trkpt><trkpt lat="43.85717670193192" lon="12.140760383775529"><ele>499.4</ele><time>2026-04-20T10:28:47Z</time></trkpt><trkpt lat="43.85711295899844" lon="12.140826892065535"><ele>504.6</ele><time>2026-04-20T10:28:48Z</time></trkpt><trkpt lat="43.8569643926664" lon="12.140838457810622"><ele>509.8</ele><time>2026-04-20T10:28:50Z</time></trkpt><trkpt lat="43.85685244708562" lon="12.140772559270545"><ele>515.0</ele><time>2026-04-20T10:28:51Z</time></trkpt><trkpt lat="43.85673600902726" lon="12.14074535669457"><ele>518.6</ele><time>2026-04-20T10:28:52Z</time></trkpt><trkpt lat="43.85663476304345" lon="12.140724814364539"><ele>522.2</ele><time>2026-04-20T10:28:53Z</time></trkpt><trkpt lat="43.856542191656104" lon="12.140698194972623"><ele>525.8</ele><time>2026-04-20T10:28:54Z</time></trkpt><trkpt lat="43.856469033236976" lon="12.14063372348055"><ele>529.4</ele><time>2026-04-20T10:28:55Z</time></trkpt><trkpt lat="43.85639241756493" lon="12.140547437869191"><ele>533.0</ele><time>2026-04-20T10:28:56Z</time></trkpt><trkpt lat="43.85630279522615" lon="12.140446915678037"><ele>541.5</ele><time>2026-04-20T10:28:57Z</time></trkpt><trkpt lat="43.8562095545707" lon="12.140373601343226"><ele>550.0</ele><time>2026-04-20T10:28:58Z</time></trkpt><trkpt lat="43.85612825248535" lon="12.140333212860119"><ele>558.5</ele><time>2026-04-20T10:28:59Z</time></trkpt><trkpt lat="43.85603398075022" lon="12.140351659381539"><ele>567.0</ele><time>2026-04-20T10:29:00Z</time></trkpt><trkpt lat="43.855869477184264" lon="12.140512485537963"><ele>567.0</ele><time>2026-04-20T10:29:02Z</time></trkpt><trkpt lat="43.855774972066754" lon="12.140559243576861"><ele>567.0</ele><time>2026-04-20T10:29:03Z</time></trkpt><trkpt lat="43.855710766806155" lon="12.14059104856694"><ele>567.0</ele><time>2026-04-20T10:29:04Z</time></trkpt><trkpt lat="43.85563993459546" lon="12.140599710481098"><ele>567.0</ele><time>2026-04-20T10:29:05Z</time></trkpt><trkpt lat="43.85554736743132" lon="12.140583837779443"><ele>567.0</ele><time>2026-04-20T10:29:06Z</time></trkpt><trkpt lat="43.85540910541006" lon="12.14056925761739"><ele>567.0</ele><time>2026-04-20T10:29:07Z</time></trkpt><trkpt lat="43.85527328335274" lon="12.14058282678896"><ele>567.0</ele><time>2026-04-20T10:29:08Z</time></trkpt><trkpt lat="43.85515203394461" lon="12.140605293536312"><ele>567.0</ele><time>2026-04-20T10:29:09Z</time></trkpt><trkpt lat="43.85505357687844" lon="12.140630710800027"><ele>567.0</ele><time>2026-04-20T10:29:10Z</time></trkpt><trkpt lat="43.85495829981457" lon="12.140659592882985"><ele>567.6666666666666</ele><time>2026-04-20T10:29:11Z</time></trkpt><trkpt lat="43.854885670622366" lon="12.140679712478738"><ele>568.3333333333334</ele><time>2026-04-20T10:29:12Z</time></trkpt><trkpt lat="43.85481586325848" lon="12.140686390735448"><ele>569.0</ele><time>2026-04-20T10:29:13Z</time></trkpt><trkpt lat="43.85475740173265" lon="12.140653952832226"><ele>569.6666666666667</ele><time>2026-04-20T10:29:14Z</time></trkpt><trkpt lat="43.85471137777033" lon="12.140591011014473"><ele>570.3333333333334</ele><time>2026-04-20T10:29:15Z</time></trkpt><trkpt lat="43.85467108724014" lon="12.140486450612038"><ele>571.0</ele><time>2026-04-20T10:29:16Z</time></trkpt><trkpt lat="43.85461155136227" lon="12.140352069700036"><ele>571.0</ele><time>2026-04-20T10:29:17Z</time></trkpt><trkpt lat="43.85454994923868" lon="12.14020640864432"><ele>571.0</ele><time>2026-04-20T10:29:18Z</time></trkpt><trkpt lat="43.854463282252546" lon="12.140083684883452"><ele>571.0</ele><time>2026-04-20T10:29:19Z</time></trkpt><trkpt lat="43.85436854900354" lon="12.140000573579343"><ele>571.0</ele><time>2026-04-20T10:29:20Z</time></trkpt><trkpt lat="43.8542575458169" lon="12.139960879565438"><ele>574.0</ele><time>2026-04-20T10:29:21Z</time></trkpt><trkpt lat="43.8541776550156" lon="12.139875587385111"><ele>577.0</ele><time>2026-04-20T10:29:22Z</time></trkpt><trkpt lat="43.854102461504034" lon="12.139782549914752"><ele>580.0</ele><time>2026-04-20T10:29:23Z</time></trkpt><trkpt lat="43.854026163670405" lon="12.139665077481876"><ele>583.0</ele><time>2026-04-20T10:29:24Z</time></trkpt><trkpt lat="43.85394103064664" lon="12.139558838714876"><ele>586.0</ele><time>2026-04-20T10:29:25Z</time></trkpt><trkpt lat="43.85385030785431" lon="12.139470547594813"><ele>586.0</ele><time>2026-04-20T10:29:26Z</time></trkpt><trkpt lat="43.85376853554031" lon="12.139367883172989"><ele>586.0</ele><time>2026-04-20T10:29:27Z</time></trkpt><trkpt lat="43.85368651354272" lon="12.139281309129315"><ele>586.0</ele><time>2026-04-20T10:29:28Z</time></trkpt><trkpt lat="43.85362090987413" lon="12.139223905337843"><ele>586.0</ele><time>2026-04-20T10:29:29Z</time></trkpt><trkpt lat="43.85356542772656" lon="12.13916934457838"><ele>586.0</ele><time>2026-04-20T10:29:30Z</time></trkpt><trkpt lat="43.85351927656899" lon="12.139109831739683"><ele>586.0</ele><time>2026-04-20T10:29:31Z</time></trkpt><trkpt lat="43.85347839835973" lon="12.139034476032814"><ele>586.2</ele><time>2026-04-20T10:29:32Z</time></trkpt><trkpt lat="43.85341521306598" lon="12.13889101338719"><ele>586.4000000000001</ele><time>2026-04-20T10:29:34Z</time></trkpt><trkpt lat="43.85334606130964" lon="12.138786559534664"><ele>586.6</ele><time>2026-04-20T10:29:36Z</time></trkpt><trkpt lat="43.85327848642701" lon="12.138679607890351"><ele>586.8000000000001</ele><time>2026-04-20T10:29:38Z</time></trkpt><trkpt lat="43.853233840582334" lon="12.138606326580472"><ele>587.0</ele><time>2026-04-20T10:29:40Z</time></trkpt><trkpt lat="43.85316885936219" lon="12.138513662044051"><ele>587.0</ele><time>2026-04-20T10:29:44Z</time></trkpt><trkpt lat="43.85310391494611" lon="12.138386073548883"><ele>587.0</ele><time>2026-04-20T10:29:46Z</time></trkpt><trkpt lat="43.853028730097144" lon="12.13825236728581"><ele>587.0</ele><time>2026-04-20T10:29:48Z</time></trkpt><trkpt lat="43.85299637754696" lon="12.138173467514443"><ele>587.0</ele><time>2026-04-20T10:29:49Z</time></trkpt><trkpt lat="43.85294401467911" lon="12.138004425402224"><ele>587.0</ele><time>2026-04-20T10:29:51Z</time></trkpt><trkpt lat="43.85290448598237" lon="12.137908512307476"><ele>588.3333333333333</ele><time>2026-04-20T10:29:52Z</time></trkpt><trkpt lat="43.85284776065438" lon="12.137819991781633"><ele>589.6666666666666</ele><time>2026-04-20T10:29:53Z</time></trkpt><trkpt lat="43.85278168984207" lon="12.137734402425277"><ele>591.0</ele><time>2026-04-20T10:29:54Z</time></trkpt><trkpt lat="43.8527011417226" lon="12.137666796909633"><ele>592.3333333333334</ele><time>2026-04-20T10:29:55Z</time></trkpt><trkpt lat="43.852620176013865" lon="12.137624782350656"><ele>593.6666666666667</ele><time>2026-04-20T10:29:56Z</time></trkpt><trkpt lat="43.85254031802157" lon="12.137589980119783"><ele>595.0</ele><time>2026-04-20T10:29:57Z</time></trkpt><trkpt lat="43.85244465609629" lon="12.137561040303112"><ele>595.0</ele><time>2026-04-20T10:29:58Z</time></trkpt><trkpt lat="43.85234477744267" lon="12.137535298779781"><ele>595.0</ele><time>2026-04-20T10:29:59Z</time></trkpt><trkpt lat="43.85224201709329" lon="12.137527692710805"><ele>595.0</ele><time>2026-04-20T10:30:00Z</time></trkpt><trkpt lat="43.852149131089654" lon="12.137543578936386"><ele>595.0</ele><time>2026-04-20T10:30:01Z</time></trkpt><trkpt lat="43.85207735995522" lon="12.137566922793196"><ele>595.0</ele><time>2026-04-20T10:30:02Z</time></trkpt><trkpt lat="43.85201406371822" lon="12.137611060379049"><ele>595.0</ele><time>2026-04-20T10:30:03Z</time></trkpt><trkpt lat="43.85196255993094" lon="12.137682722331421"><ele>595.0</ele><time>2026-04-20T10:30:04Z</time></trkpt><trkpt lat="43.85192748640902" lon="12.137768095192476"><ele>595.0</ele><time>2026-04-20T10:30:05Z</time></trkpt><trkpt lat="43.85190929611269" lon="12.137870847715815"><ele>595.0</ele><time>2026-04-20T10:30:06Z</time></trkpt><trkpt lat="43.85189990711933" lon="12.137996534492522"><ele>595.0</ele><time>2026-04-20T10:30:07Z</time></trkpt><trkpt lat="43.85192587844949" lon="12.138151415900674"><ele>595.0</ele><time>2026-04-20T10:30:08Z</time></trkpt><trkpt lat="43.85198311940965" lon="12.138292162653611"><ele>590.25</ele><time>2026-04-20T10:30:09Z</time></trkpt><trkpt lat="43.85204603109216" lon="12.138452743834804"><ele>585.5</ele><time>2026-04-20T10:30:10Z</time></trkpt><trkpt lat="43.85209356819647" lon="12.138624516817911"><ele>580.75</ele><time>2026-04-20T10:30:11Z</time></trkpt><trkpt lat="43.85212605778554" lon="12.138776435408273"><ele>576.0</ele><time>2026-04-20T10:30:12Z</time></trkpt><trkpt lat="43.8521331334855" lon="12.138934467540214"><ele>573.6</ele><time>2026-04-20T10:30:13Z</time></trkpt><trkpt lat="43.852144013747534" lon="12.139060470089113"><ele>571.2</ele><time>2026-04-20T10:30:14Z</time></trkpt><trkpt lat="43.85213801940949" lon="12.139179465022227"><ele>568.8</ele><time>2026-04-20T10:30:15Z</time></trkpt><trkpt lat="43.852125454493276" lon="12.139287090547628"><ele>566.4</ele><time>2026-04-20T10:30:16Z</time></trkpt><trkpt lat="43.85211414473211" lon="12.13942731494668"><ele>564.0</ele><time>2026-04-20T10:30:17Z</time></trkpt><trkpt lat="43.85207799974197" lon="12.139572392966983"><ele>564.0</ele><time>2026-04-20T10:30:18Z</time></trkpt><trkpt lat="43.85204359447847" lon="12.139702839802531"><ele>564.0</ele><time>2026-04-20T10:30:19Z</time></trkpt><trkpt lat="43.852020634698405" lon="12.13982235874107"><ele>564.0</ele><time>2026-04-20T10:30:20Z</time></trkpt><trkpt lat="43.85199203222626" lon="12.139920859738647"><ele>564.0</ele><time>2026-04-20T10:30:21Z</time></trkpt><trkpt lat="43.85194561417437" lon="12.13998279337752"><ele>564.0</ele><time>2026-04-20T10:30:22Z</time></trkpt><trkpt lat="43.85187976856707" lon="12.140017461480005"><ele>564.0</ele><time>2026-04-20T10:30:23Z</time></trkpt><trkpt lat="43.851802475933944" lon="12.14002297658972"><ele>564.6</ele><time>2026-04-20T10:30:24Z</time></trkpt><trkpt lat="43.85171638042613" lon="12.139975240239872"><ele>565.2</ele><time>2026-04-20T10:30:25Z</time></trkpt><trkpt lat="43.851627232347774" lon="12.139918226224466"><ele>565.8000000000001</ele><time>2026-04-20T10:30:26Z</time></trkpt><trkpt lat="43.85151373292909" lon="12.139867920843855"><ele>566.4</ele><time>2026-04-20T10:30:27Z</time></trkpt><trkpt lat="43.85139155259018" lon="12.139812575968788"><ele>567.0</ele><time>2026-04-20T10:30:28Z</time></trkpt><trkpt lat="43.85128376798184" lon="12.139759803973789"><ele>570.4</ele><time>2026-04-20T10:30:29Z</time></trkpt><trkpt lat="43.85117669801427" lon="12.139706251381579"><ele>573.8000000000001</ele><time>2026-04-20T10:30:30Z</time></trkpt><trkpt lat="43.851070763779255" lon="12.139653266954191"><ele>577.2</ele><time>2026-04-20T10:30:31Z</time></trkpt><trkpt lat="43.850969051889194" lon="12.139603825655422"><ele>580.6</ele><time>2026-04-20T10:30:32Z</time></trkpt><trkpt lat="43.85086785862214" lon="12.139555650105374"><ele>584.0</ele><time>2026-04-20T10:30:33Z</time></trkpt><trkpt lat="43.850761411243596" lon="12.139509209611434"><ele>584.0</ele><time>2026-04-20T10:30:34Z</time></trkpt><trkpt lat="43.85065695386614" lon="12.139471512373332"><ele>584.0</ele><time>2026-04-20T10:30:35Z</time></trkpt><trkpt lat="43.850550270656505" lon="12.13944092640885"><ele>584.0</ele><time>2026-04-20T10:30:36Z</time></trkpt><trkpt lat="43.850462393200374" lon="12.13941777816632"><ele>584.0</ele><time>2026-04-20T10:30:37Z</time></trkpt><trkpt lat="43.85038919189826" lon="12.13940494908764"><ele>584.0</ele><time>2026-04-20T10:30:38Z</time></trkpt><trkpt lat="43.85032385123297" lon="12.139409492620798"><ele>584.0</ele><time>2026-04-20T10:30:39Z</time></trkpt><trkpt lat="43.8502514089727" lon="12.139461226177744"><ele>584.0</ele><time>2026-04-20T10:30:40Z</time></trkpt><trkpt lat="43.85020483244602" lon="12.139588344790166"><ele>584.0</ele><time>2026-04-20T10:30:41Z</time></trkpt><trkpt lat="43.85016645877833" lon="12.139705464622427"><ele>584.0</ele><time>2026-04-20T10:30:42Z</time></trkpt><trkpt lat="43.85012544467928" lon="12.139833454535866"><ele>584.0</ele><time>2026-04-20T10:30:43Z</time></trkpt><trkpt lat="43.85009576655312" lon="12.139958112793567"><ele>584.0</ele><time>2026-04-20T10:30:44Z</time></trkpt><trkpt lat="43.85007352510375" lon="12.140095105720954"><ele>579.0</ele><time>2026-04-20T10:30:45Z</time></trkpt><trkpt lat="43.85006480417276" lon="12.140242037265734"><ele>574.0</ele><time>2026-04-20T10:30:46Z</time></trkpt><trkpt lat="43.85008116215285" lon="12.14040237243304"><ele>569.0</ele><time>2026-04-20T10:30:47Z</time></trkpt><trkpt lat="43.85014028884638" lon="12.14054640746132"><ele>564.0</ele><time>2026-04-20T10:30:48Z</time></trkpt><trkpt lat="43.850196112267426" lon="12.140692952696071"><ele>558.6</ele><time>2026-04-20T10:30:49Z</time></trkpt><trkpt lat="43.85023474072989" lon="12.140853077941259"><ele>553.2</ele><time>2026-04-20T10:30:50Z</time></trkpt><trkpt lat="43.85028315179796" lon="12.14099247992844"><ele>547.8000000000001</ele><time>2026-04-20T10:30:51Z</time></trkpt><trkpt lat="43.850319929550416" lon="12.141103215711615"><ele>542.4</ele><time>2026-04-20T10:30:52Z</time></trkpt><trkpt lat="43.850341847041385" lon="12.141198593930778"><ele>537.0</ele><time>2026-04-20T10:30:53Z</time></trkpt><trkpt lat="43.85028713239706" lon="12.141320886271584"><ele>537.0</ele><time>2026-04-20T10:30:55Z</time></trkpt><trkpt lat="43.85021729928373" lon="12.14134165152692"><ele>537.0</ele><time>2026-04-20T10:30:56Z</time></trkpt><trkpt lat="43.8501324252516" lon="12.141407258097292"><ele>537.0</ele><time>2026-04-20T10:30:57Z</time></trkpt><trkpt lat="43.850030553958476" lon="12.141502443345288"><ele>537.0</ele><time>2026-04-20T10:30:58Z</time></trkpt><trkpt lat="43.84992668043517" lon="12.14157595413648"><ele>537.0</ele><time>2026-04-20T10:30:59Z</time></trkpt><trkpt lat="43.84983013231541" lon="12.141637293773531"><ele>540.2</ele><time>2026-04-20T10:31:00Z</time></trkpt><trkpt lat="43.8497405667758" lon="12.141712317758598"><ele>543.4000000000001</ele><time>2026-04-20T10:31:01Z</time></trkpt><trkpt lat="43.849640860814254" lon="12.141741684923527"><ele>546.5999999999999</ele><time>2026-04-20T10:31:02Z</time></trkpt><trkpt lat="43.84955720664329" lon="12.141796694717797"><ele>549.8</ele><time>2026-04-20T10:31:03Z</time></trkpt><trkpt lat="43.84948531070192" lon="12.14189602952501"><ele>553.0</ele><time>2026-04-20T10:31:04Z</time></trkpt><trkpt lat="43.84944672586112" lon="12.14201021743245"><ele>553.0</ele><time>2026-04-20T10:31:05Z</time></trkpt><trkpt lat="43.84939144156954" lon="12.142128245992465"><ele>553.0</ele><time>2026-04-20T10:31:06Z</time></trkpt><trkpt lat="43.84933719533069" lon="12.142277073457347"><ele>553.0</ele><time>2026-04-20T10:31:07Z</time></trkpt><trkpt lat="43.84931516626045" lon="12.142426938112866"><ele>553.0</ele><time>2026-04-20T10:31:08Z</time></trkpt><trkpt lat="43.84925331854436" lon="12.142512584829948"><ele>553.0</ele><time>2026-04-20T10:31:09Z</time></trkpt><trkpt lat="43.84919160838462" lon="12.142593140296304"><ele>553.1999999999999</ele><time>2026-04-20T10:31:10Z</time></trkpt><trkpt lat="43.84911430137794" lon="12.142678884206145"><ele>553.4</ele><time>2026-04-20T10:31:11Z</time></trkpt><trkpt lat="43.849027396064095" lon="12.142761510675621"><ele>553.5999999999999</ele><time>2026-04-20T10:31:12Z</time></trkpt><trkpt lat="43.848931243695176" lon="12.14280171853804"><ele>553.8</ele><time>2026-04-20T10:31:13Z</time></trkpt><trkpt lat="43.84884423862255" lon="12.142805763565201"><ele>554.0</ele><time>2026-04-20T10:31:14Z</time></trkpt><trkpt lat="43.8487718954356" lon="12.142756063476913"><ele>554.0</ele><time>2026-04-20T10:31:15Z</time></trkpt><trkpt lat="43.84869908872503" lon="12.142726012079185"><ele>554.0</ele><time>2026-04-20T10:31:16Z</time></trkpt><trkpt lat="43.8485889407537" lon="12.142667006829024"><ele>554.0</ele><time>2026-04-20T10:31:16.999Z</time></trkpt><trkpt lat="43.84850388803392" lon="12.14260884136366"><ele>554.0</ele><time>2026-04-20T10:31:17.999Z</time></trkpt><trkpt lat="43.84841456805326" lon="12.142561452167097"><ele>554.0</ele><time>2026-04-20T10:31:18.999Z</time></trkpt><trkpt lat="43.848354313363345" lon="12.14253051982852"><ele>554.0</ele><time>2026-04-20T10:31:19.999Z</time></trkpt><trkpt lat="43.848226122706194" lon="12.142501818659978"><ele>554.0</ele><time>2026-04-20T10:31:21.999Z</time></trkpt><trkpt lat="43.84814895056125" lon="12.14255962189685"><ele>554.0</ele><time>2026-04-20T10:31:22.999Z</time></trkpt><trkpt lat="43.848099966817976" lon="12.142675882016412"><ele>554.0</ele><time>2026-04-20T10:31:23.999Z</time></trkpt><trkpt lat="43.84808190632689" lon="12.14280177917611"><ele>554.0</ele><time>2026-04-20T10:31:24.999Z</time></trkpt><trkpt lat="43.84803070713863" lon="12.142929263283156"><ele>554.0</ele><time>2026-04-20T10:31:25.999Z</time></trkpt><trkpt lat="43.84799263113429" lon="12.143068689788972"><ele>554.0</ele><time>2026-04-20T10:31:26.999Z</time></trkpt><trkpt lat="43.847951462835184" lon="12.143192576230364"><ele>554.0</ele><time>2026-04-20T10:31:27.999Z</time></trkpt><trkpt lat="43.847897529290094" lon="12.14330596630512"><ele>554.0</ele><time>2026-04-20T10:31:28.999Z</time></trkpt><trkpt lat="43.847826165887874" lon="12.143432629117216"><ele>554.0</ele><time>2026-04-20T10:31:29.999Z</time></trkpt><trkpt lat="43.84775448606097" lon="12.143560952356331"><ele>554.0</ele><time>2026-04-20T10:31:30.999Z</time></trkpt><trkpt lat="43.84768403661082" lon="12.143678422292558"><ele>556.75</ele><time>2026-04-20T10:31:31.999Z</time></trkpt><trkpt lat="43.84763226546341" lon="12.14380013191572"><ele>559.5</ele><time>2026-04-20T10:31:32.999Z</time></trkpt><trkpt lat="43.84761807255353" lon="12.143958398458198"><ele>562.25</ele><time>2026-04-20T10:31:33.999Z</time></trkpt><trkpt lat="43.84764337440492" lon="12.144120609755648"><ele>565.0</ele><time>2026-04-20T10:31:34.999Z</time></trkpt><trkpt lat="43.84763900213676" lon="12.144284505596476"><ele>559.8</ele><time>2026-04-20T10:31:35.999Z</time></trkpt><trkpt lat="43.84767395645208" lon="12.144445543716927"><ele>554.6</ele><time>2026-04-20T10:31:36.999Z</time></trkpt><trkpt lat="43.84767185685836" lon="12.14458958866555"><ele>549.4</ele><time>2026-04-20T10:31:37.999Z</time></trkpt><trkpt lat="43.847675086115814" lon="12.144720107716797"><ele>544.2</ele><time>2026-04-20T10:31:38.999Z</time></trkpt><trkpt lat="43.84766158869297" lon="12.144860188234045"><ele>539.0</ele><time>2026-04-20T10:31:39.999Z</time></trkpt><trkpt lat="43.847617986630496" lon="12.145002526244186"><ele>539.0</ele><time>2026-04-20T10:31:40.999Z</time></trkpt><trkpt lat="43.84754729906524" lon="12.145140964562346"><ele>539.0</ele><time>2026-04-20T10:31:41.999Z</time></trkpt><trkpt lat="43.847500717621436" lon="12.145262096909615"><ele>539.0</ele><time>2026-04-20T10:31:42.999Z</time></trkpt><trkpt lat="43.84748379546539" lon="12.145377786152714"><ele>539.0</ele><time>2026-04-20T10:31:43.999Z</time></trkpt><trkpt lat="43.84747464421538" lon="12.145481717633208"><ele>539.0</ele><time>2026-04-20T10:31:44.999Z</time></trkpt><trkpt lat="43.84749919207148" lon="12.145604734141271"><ele>538.6</ele><time>2026-04-20T10:31:46Z</time></trkpt><trkpt lat="43.84753762300239" lon="12.145733680238704"><ele>538.2</ele><time>2026-04-20T10:31:47Z</time></trkpt><trkpt lat="43.84755745986933" lon="12.145874423694664"><ele>537.8000000000001</ele><time>2026-04-20T10:31:48Z</time></trkpt><trkpt lat="43.847602004343194" lon="12.146011072801116"><ele>537.4</ele><time>2026-04-20T10:31:49Z</time></trkpt><trkpt lat="43.8476586652319" lon="12.14614201491588"><ele>537.0</ele><time>2026-04-20T10:31:50Z</time></trkpt><trkpt lat="43.84771337524549" lon="12.146247995656452"><ele>538.6666666666666</ele><time>2026-04-20T10:31:51Z</time></trkpt><trkpt lat="43.847773593515" lon="12.146305450669908"><ele>540.3333333333334</ele><time>2026-04-20T10:31:52Z</time></trkpt><trkpt lat="43.84781535602774" lon="12.146374810147323"><ele>542.0</ele><time>2026-04-20T10:31:53Z</time></trkpt><trkpt lat="43.84790148075147" lon="12.146348305576943"><ele>543.6666666666667</ele><time>2026-04-20T10:31:54Z</time></trkpt><trkpt lat="43.84797803322516" lon="12.14625983649256"><ele>545.3333333333334</ele><time>2026-04-20T10:31:55Z</time></trkpt><trkpt lat="43.848039018732" lon="12.146168262142838"><ele>547.0</ele><time>2026-04-20T10:31:56Z</time></trkpt><trkpt lat="43.84810788976144" lon="12.146101466110933"><ele>547.0</ele><time>2026-04-20T10:31:57Z</time></trkpt><trkpt lat="43.848177668340625" lon="12.146003434644317"><ele>547.0</ele><time>2026-04-20T10:31:58Z</time></trkpt><trkpt lat="43.84825961190353" lon="12.145905915142192"><ele>547.0</ele><time>2026-04-20T10:31:59Z</time></trkpt><trkpt lat="43.8483408709923" lon="12.145797791211674"><ele>547.0</ele><time>2026-04-20T10:32:00Z</time></trkpt><trkpt lat="43.84842204367152" lon="12.145721155519285"><ele>547.0</ele><time>2026-04-20T10:32:01Z</time></trkpt><trkpt lat="43.8484846111121" lon="12.145638473409619"><ele>547.0</ele><time>2026-04-20T10:32:02Z</time></trkpt><trkpt lat="43.84854662984828" lon="12.145558417272328"><ele>547.0</ele><time>2026-04-20T10:32:03Z</time></trkpt><trkpt lat="43.848612322413935" lon="12.145488079436243"><ele>547.0</ele><time>2026-04-20T10:32:04Z</time></trkpt><trkpt lat="43.84870420269178" lon="12.14546262876251"><ele>547.0</ele><time>2026-04-20T10:32:06Z</time></trkpt><trkpt lat="43.84876565709834" lon="12.145573283851059"><ele>547.0</ele><time>2026-04-20T10:32:08Z</time></trkpt><trkpt lat="43.84873085118872" lon="12.145666787824238"><ele>547.0</ele><time>2026-04-20T10:32:09Z</time></trkpt><trkpt lat="43.84869600356151" lon="12.145767984605488"><ele>549.8333333333334</ele><time>2026-04-20T10:32:10Z</time></trkpt><trkpt lat="43.848685967095534" lon="12.145865316334886"><ele>552.6666666666667</ele><time>2026-04-20T10:32:11Z</time></trkpt><trkpt lat="43.848666676204104" lon="12.14597557176973"><ele>555.5</ele><time>2026-04-20T10:32:12Z</time></trkpt><trkpt lat="43.84865121112817" lon="12.146084163534198"><ele>558.3333333333334</ele><time>2026-04-20T10:32:13Z</time></trkpt><trkpt lat="43.848635514501204" lon="12.146229853172596"><ele>561.1666666666666</ele><time>2026-04-20T10:32:14Z</time></trkpt><trkpt lat="43.848631046349304" lon="12.146361509918023"><ele>564.0</ele><time>2026-04-20T10:32:15Z</time></trkpt><trkpt lat="43.84863429805784" lon="12.14648060894109"><ele>565.3333333333334</ele><time>2026-04-20T10:32:16Z</time></trkpt><trkpt lat="43.848657333083715" lon="12.146582914516816"><ele>566.6666666666666</ele><time>2026-04-20T10:32:17Z</time></trkpt><trkpt lat="43.848673901964204" lon="12.146702129040532"><ele>568.0</ele><time>2026-04-20T10:32:18Z</time></trkpt><trkpt lat="43.848699658313286" lon="12.14681594747366"><ele>569.3333333333333</ele><time>2026-04-20T10:32:19Z</time></trkpt><trkpt lat="43.848718484213244" lon="12.146922750902238"><ele>570.6666666666666</ele><time>2026-04-20T10:32:20Z</time></trkpt><trkpt lat="43.84873425141264" lon="12.147032164494759"><ele>572.0</ele><time>2026-04-20T10:32:21Z</time></trkpt><trkpt lat="43.84874800453069" lon="12.147166654109247"><ele>572.0</ele><time>2026-04-20T10:32:22Z</time></trkpt><trkpt lat="43.84876572445151" lon="12.147275214875197"><ele>572.0</ele><time>2026-04-20T10:32:23Z</time></trkpt><trkpt lat="43.84874717025245" lon="12.147395120898773"><ele>572.0</ele><time>2026-04-20T10:32:24Z</time></trkpt><trkpt lat="43.84865710504261" lon="12.147442663754981"><ele>572.0</ele><time>2026-04-20T10:32:26Z</time></trkpt><trkpt lat="43.84853646372104" lon="12.147494146679263"><ele>572.0</ele><time>2026-04-20T10:32:28Z</time></trkpt><trkpt lat="43.84848180148147" lon="12.14758597208611"><ele>570.8000000000001</ele><time>2026-04-20T10:32:29Z</time></trkpt><trkpt lat="43.84842788428647" lon="12.147673573441068"><ele>569.6</ele><time>2026-04-20T10:32:30Z</time></trkpt><trkpt lat="43.848350501760336" lon="12.14776194188853"><ele>568.4000000000001</ele><time>2026-04-20T10:32:31Z</time></trkpt><trkpt lat="43.84827238997756" lon="12.14787973521008"><ele>567.2</ele><time>2026-04-20T10:32:32Z</time></trkpt><trkpt lat="43.848192848627036" lon="12.147995257349608"><ele>566.0</ele><time>2026-04-20T10:32:33Z</time></trkpt><trkpt lat="43.84812009168756" lon="12.148106017629882"><ele>566.0</ele><time>2026-04-20T10:32:34Z</time></trkpt><trkpt lat="43.84808268905821" lon="12.148202652280945"><ele>566.0</ele><time>2026-04-20T10:32:35Z</time></trkpt><trkpt lat="43.84803711108457" lon="12.148301251015369"><ele>566.0</ele><time>2026-04-20T10:32:36Z</time></trkpt><trkpt lat="43.8479791980277" lon="12.148422416310092"><ele>566.0</ele><time>2026-04-20T10:32:37Z</time></trkpt><trkpt lat="43.84794445591483" lon="12.148523164675915"><ele>566.0</ele><time>2026-04-20T10:32:38Z</time></trkpt><trkpt lat="43.84790785150446" lon="12.148641622756767"><ele>566.0</ele><time>2026-04-20T10:32:39Z</time></trkpt><trkpt lat="43.84784636892264" lon="12.148710157623285"><ele>567.0</ele><time>2026-04-20T10:32:40Z</time></trkpt><trkpt lat="43.847750117972886" lon="12.148753606791422"><ele>568.0</ele><time>2026-04-20T10:32:41Z</time></trkpt><trkpt lat="43.84762744858304" lon="12.148774645886286"><ele>569.0</ele><time>2026-04-20T10:32:42Z</time></trkpt><trkpt lat="43.84750974241064" lon="12.148779682265742"><ele>570.0</ele><time>2026-04-20T10:32:43Z</time></trkpt><trkpt lat="43.847380996187454" lon="12.148765131142053"><ele>570.0</ele><time>2026-04-20T10:32:44Z</time></trkpt><trkpt lat="43.84725116773553" lon="12.148765934157463"><ele>570.0</ele><time>2026-04-20T10:32:45Z</time></trkpt><trkpt lat="43.847152095698824" lon="12.148748206235139"><ele>570.0</ele><time>2026-04-20T10:32:46Z</time></trkpt><trkpt lat="43.8470710042501" lon="12.148756593033829"><ele>570.0</ele><time>2026-04-20T10:32:47Z</time></trkpt><trkpt lat="43.84698497999168" lon="12.148797701536816"><ele>570.0</ele><time>2026-04-20T10:32:48Z</time></trkpt><trkpt lat="43.84687753952926" lon="12.148862703268616"><ele>568.5</ele><time>2026-04-20T10:32:49Z</time></trkpt><trkpt lat="43.84675829886189" lon="12.148938858360296"><ele>567.0</ele><time>2026-04-20T10:32:50Z</time></trkpt><trkpt lat="43.846618689845194" lon="12.148995563273354"><ele>565.5</ele><time>2026-04-20T10:32:51Z</time></trkpt><trkpt lat="43.84648902430164" lon="12.149049583167983"><ele>564.0</ele><time>2026-04-20T10:32:52Z</time></trkpt><trkpt lat="43.84635979328531" lon="12.149044699877559"><ele>568.0</ele><time>2026-04-20T10:32:53Z</time></trkpt><trkpt lat="43.84624788742973" lon="12.149125016452707"><ele>572.0</ele><time>2026-04-20T10:32:54Z</time></trkpt><trkpt lat="43.846143310159846" lon="12.14916455070956"><ele>576.0</ele><time>2026-04-20T10:32:55Z</time></trkpt><trkpt lat="43.846044921043095" lon="12.149198640061377"><ele>580.0</ele><time>2026-04-20T10:32:56Z</time></trkpt><trkpt lat="43.845939308214554" lon="12.14926969560719"><ele>580.0</ele><time>2026-04-20T10:32:57Z</time></trkpt><trkpt lat="43.8458664912774" lon="12.149308306751031"><ele>580.0</ele><time>2026-04-20T10:32:58Z</time></trkpt><trkpt lat="43.8457686028141" lon="12.149491632463807"><ele>580.0</ele><time>2026-04-20T10:33:00Z</time></trkpt><trkpt lat="43.845686012950644" lon="12.14963106150382"><ele>580.0</ele><time>2026-04-20T10:33:01Z</time></trkpt><trkpt lat="43.845594555399124" lon="12.149756910701981"><ele>580.0</ele><time>2026-04-20T10:33:02Z</time></trkpt><trkpt lat="43.84550573978702" lon="12.149869554854693"><ele>580.0</ele><time>2026-04-20T10:33:03Z</time></trkpt><trkpt lat="43.845425643230854" lon="12.14998820004276"><ele>580.0</ele><time>2026-04-20T10:33:04Z</time></trkpt><trkpt lat="43.84535477992882" lon="12.15013168332057"><ele>580.0</ele><time>2026-04-20T10:33:05Z</time></trkpt><trkpt lat="43.84527951940478" lon="12.150281412954483"><ele>584.4</ele><time>2026-04-20T10:33:06Z</time></trkpt><trkpt lat="43.84521897633967" lon="12.150418892015972"><ele>588.8</ele><time>2026-04-20T10:33:07Z</time></trkpt><trkpt lat="43.845182658958855" lon="12.150540426724016"><ele>593.2</ele><time>2026-04-20T10:33:08Z</time></trkpt><trkpt lat="43.84515834463403" lon="12.150628521510512"><ele>597.6</ele><time>2026-04-20T10:33:09Z</time></trkpt><trkpt lat="43.84513917776123" lon="12.150762459217528"><ele>602.0</ele><time>2026-04-20T10:33:10Z</time></trkpt><trkpt lat="43.8451500072182" lon="12.15091626794526"><ele>601.75</ele><time>2026-04-20T10:33:11Z</time></trkpt><trkpt lat="43.84516238158743" lon="12.151077894702514"><ele>601.5</ele><time>2026-04-20T10:33:12Z</time></trkpt><trkpt lat="43.84516498772307" lon="12.15125444707845"><ele>601.25</ele><time>2026-04-20T10:33:13Z</time></trkpt><trkpt lat="43.84514681779139" lon="12.151447840133219"><ele>601.0</ele><time>2026-04-20T10:33:14Z</time></trkpt><trkpt lat="43.84511459678969" lon="12.151646793283245"><ele>601.0</ele><time>2026-04-20T10:33:15Z</time></trkpt><trkpt lat="43.84507224604625" lon="12.151820532625365"><ele>601.0</ele><time>2026-04-20T10:33:16Z</time></trkpt><trkpt lat="43.84502040423205" lon="12.151978274264016"><ele>601.0</ele><time>2026-04-20T10:33:17Z</time></trkpt><trkpt lat="43.844967653619065" lon="12.15212743255952"><ele>601.0</ele><time>2026-04-20T10:33:18Z</time></trkpt><trkpt lat="43.84491641679009" lon="12.152270056083337"><ele>603.4</ele><time>2026-04-20T10:33:19Z</time></trkpt><trkpt lat="43.844859193523305" lon="12.152404119387192"><ele>605.8</ele><time>2026-04-20T10:33:20Z</time></trkpt><trkpt lat="43.84479070307873" lon="12.15252104072031"><ele>608.1999999999999</ele><time>2026-04-20T10:33:21Z</time></trkpt><trkpt lat="43.84473415257906" lon="12.152641122633831"><ele>610.6</ele><time>2026-04-20T10:33:22Z</time></trkpt><trkpt lat="43.8446870961803" lon="12.152762215399662"><ele>613.0</ele><time>2026-04-20T10:33:22.999Z</time></trkpt><trkpt lat="43.84465306463188" lon="12.152914386729323"><ele>613.0</ele><time>2026-04-20T10:33:23.999Z</time></trkpt><trkpt lat="43.844628679300854" lon="12.15307118088404"><ele>613.0</ele><time>2026-04-20T10:33:24.999Z</time></trkpt><trkpt lat="43.844602377580934" lon="12.153226979049183"><ele>613.0</ele><time>2026-04-20T10:33:25.999Z</time></trkpt><trkpt lat="43.84457570889067" lon="12.153375057862043"><ele>613.0</ele><time>2026-04-20T10:33:26.999Z</time></trkpt><trkpt lat="43.844565730903255" lon="12.153499088536234"><ele>613.0</ele><time>2026-04-20T10:33:27.999Z</time></trkpt><trkpt lat="43.84458163070413" lon="12.153601957860953"><ele>613.4</ele><time>2026-04-20T10:33:28.999Z</time></trkpt><trkpt lat="43.844632460205126" lon="12.15370973661916"><ele>613.8</ele><time>2026-04-20T10:33:29.999Z</time></trkpt><trkpt lat="43.84470191008655" lon="12.153822658819696"><ele>614.2</ele><time>2026-04-20T10:33:30.999Z</time></trkpt><trkpt lat="43.84476557169732" lon="12.153957156115093"><ele>614.6</ele><time>2026-04-20T10:33:31.999Z</time></trkpt><trkpt lat="43.84480103285757" lon="12.154100146102522"><ele>615.0</ele><time>2026-04-20T10:33:32.999Z</time></trkpt><trkpt lat="43.84484731683923" lon="12.15420050631089"><ele>615.0</ele><time>2026-04-20T10:33:33.999Z</time></trkpt><trkpt lat="43.84491759414177" lon="12.154287409829932"><ele>615.0</ele><time>2026-04-20T10:33:34.999Z</time></trkpt><trkpt lat="43.84500875914841" lon="12.154335192235308"><ele>615.0</ele><time>2026-04-20T10:33:35.999Z</time></trkpt><trkpt lat="43.845113605994236" lon="12.154364456117698"><ele>615.0</ele><time>2026-04-20T10:33:36.999Z</time></trkpt><trkpt lat="43.84521204598741" lon="12.154421397968948"><ele>615.0</ele><time>2026-04-20T10:33:37.999Z</time></trkpt><trkpt lat="43.84529338900335" lon="12.154486296876993"><ele>617.1666666666666</ele><time>2026-04-20T10:33:38.999Z</time></trkpt><trkpt lat="43.84535943233827" lon="12.154557097466927"><ele>619.3333333333334</ele><time>2026-04-20T10:33:39.999Z</time></trkpt><trkpt lat="43.84539112895017" lon="12.154634425065913"><ele>621.5</ele><time>2026-04-20T10:33:40.999Z</time></trkpt><trkpt lat="43.84541443882562" lon="12.154727172133452"><ele>623.6666666666667</ele><time>2026-04-20T10:33:41.999Z</time></trkpt><trkpt lat="43.8454332426794" lon="12.154878176239588"><ele>625.8333333333334</ele><time>2026-04-20T10:33:43.999Z</time></trkpt><trkpt lat="43.84545364121838" lon="12.154961905520036"><ele>628.0</ele><time>2026-04-20T10:33:44.999Z</time></trkpt><trkpt lat="43.845536785011745" lon="12.155014388428576"><ele>628.0</ele><time>2026-04-20T10:33:46.999Z</time></trkpt><trkpt lat="43.84563732149289" lon="12.154954260735197"><ele>628.0</ele><time>2026-04-20T10:33:48.999Z</time></trkpt><trkpt lat="43.84566775950999" lon="12.154837760238923"><ele>628.0</ele><time>2026-04-20T10:33:50.999Z</time></trkpt><trkpt lat="43.84567694143348" lon="12.154712456095341"><ele>628.0</ele><time>2026-04-20T10:33:53Z</time></trkpt><trkpt lat="43.84578889685429" lon="12.154607045122358"><ele>628.0</ele><time>2026-04-20T10:33:55Z</time></trkpt><trkpt lat="43.84588322310861" lon="12.154613110273734"><ele>631.75</ele><time>2026-04-20T10:33:56Z</time></trkpt><trkpt lat="43.84597276441968" lon="12.154650167895257"><ele>635.5</ele><time>2026-04-20T10:33:57Z</time></trkpt><trkpt lat="43.84608490090379" lon="12.154703223688491"><ele>639.25</ele><time>2026-04-20T10:33:58Z</time></trkpt><trkpt lat="43.846209220476545" lon="12.154753875242886"><ele>643.0</ele><time>2026-04-20T10:33:59Z</time></trkpt><trkpt lat="43.84633073028598" lon="12.154801390051851"><ele>643.0</ele><time>2026-04-20T10:34:00Z</time></trkpt><trkpt lat="43.846446482827155" lon="12.15484037120268"><ele>643.0</ele><time>2026-04-20T10:34:01Z</time></trkpt><trkpt lat="43.846557435625876" lon="12.154878994689469"><ele>643.0</ele><time>2026-04-20T10:34:02Z</time></trkpt><trkpt lat="43.84666755258366" lon="12.154933611698837"><ele>643.0</ele><time>2026-04-20T10:34:03Z</time></trkpt><trkpt lat="43.846772781683406" lon="12.155010971173061"><ele>646.8</ele><time>2026-04-20T10:34:04Z</time></trkpt><trkpt lat="43.846875843643524" lon="12.155085328330104"><ele>650.5999999999999</ele><time>2026-04-20T10:34:05Z</time></trkpt><trkpt lat="43.84696539751721" lon="12.155154534866323"><ele>654.4000000000001</ele><time>2026-04-20T10:34:06Z</time></trkpt><trkpt lat="43.84703977063065" lon="12.15523112263886"><ele>658.2</ele><time>2026-04-20T10:34:07Z</time></trkpt><trkpt lat="43.847103986059686" lon="12.155318744101136"><ele>662.0</ele><time>2026-04-20T10:34:08Z</time></trkpt><trkpt lat="43.8471654416108" lon="12.15542163336907"><ele>662.0</ele><time>2026-04-20T10:34:09Z</time></trkpt><trkpt lat="43.84722441401468" lon="12.15554094204599"><ele>662.0</ele><time>2026-04-20T10:34:10Z</time></trkpt><trkpt lat="43.84728480493101" lon="12.155688788789066"><ele>662.0</ele><time>2026-04-20T10:34:11Z</time></trkpt><trkpt lat="43.8473510679619" lon="12.155869412257077"><ele>662.0</ele><time>2026-04-20T10:34:12Z</time></trkpt><trkpt lat="43.847422464444506" lon="12.156075363699712"><ele>666.0</ele><time>2026-04-20T10:34:13Z</time></trkpt><trkpt lat="43.84749723030615" lon="12.15629971700507"><ele>670.0</ele><time>2026-04-20T10:34:14Z</time></trkpt><trkpt lat="43.847581038671734" lon="12.156526119903889"><ele>674.0</ele><time>2026-04-20T10:34:15Z</time></trkpt><trkpt lat="43.84767839244301" lon="12.1567370802107"><ele>674.0</ele><time>2026-04-20T10:34:16Z</time></trkpt><trkpt lat="43.84779250563626" lon="12.156964471089966"><ele>674.0</ele><time>2026-04-20T10:34:17Z</time></trkpt><trkpt lat="43.84789604650112" lon="12.157151253262631"><ele>674.0</ele><time>2026-04-20T10:34:18Z</time></trkpt><trkpt lat="43.8479692079682" lon="12.157300308947086"><ele>674.8333333333333</ele><time>2026-04-20T10:34:19Z</time></trkpt><trkpt lat="43.84800507685219" lon="12.157397580469533"><ele>675.6666666666666</ele><time>2026-04-20T10:34:20Z</time></trkpt><trkpt lat="43.84798446990394" lon="12.157504712171512"><ele>676.5</ele><time>2026-04-20T10:34:22Z</time></trkpt><trkpt lat="43.84793380247375" lon="12.157561600914505"><ele>677.3333333333334</ele><time>2026-04-20T10:34:23Z</time></trkpt><trkpt lat="43.847850680295565" lon="12.15760197186541"><ele>678.1666666666667</ele><time>2026-04-20T10:34:24Z</time></trkpt><trkpt lat="43.84776464310664" lon="12.157610284557258"><ele>679.0</ele><time>2026-04-20T10:34:25Z</time></trkpt><trkpt lat="43.84768924765009" lon="12.157640382176096"><ele>679.0</ele><time>2026-04-20T10:34:26Z</time></trkpt><trkpt lat="43.847644432506165" lon="12.157726236080789"><ele>679.0</ele><time>2026-04-20T10:34:27Z</time></trkpt><trkpt lat="43.84763320041316" lon="12.157822903776795"><ele>679.0</ele><time>2026-04-20T10:34:28Z</time></trkpt><trkpt lat="43.84765657232324" lon="12.157920736735296"><ele>679.0</ele><time>2026-04-20T10:34:29Z</time></trkpt><trkpt lat="43.847722528256746" lon="12.158024872278943"><ele>679.0</ele><time>2026-04-20T10:34:30Z</time></trkpt><trkpt lat="43.84781505075856" lon="12.158125182786682"><ele>679.0</ele><time>2026-04-20T10:34:31Z</time></trkpt><trkpt lat="43.84791330681357" lon="12.158219302940006"><ele>678.75</ele><time>2026-04-20T10:34:32Z</time></trkpt><trkpt lat="43.848004734789725" lon="12.158334503578212"><ele>678.5</ele><time>2026-04-20T10:34:33Z</time></trkpt><trkpt lat="43.848103108229715" lon="12.15847841237043"><ele>678.25</ele><time>2026-04-20T10:34:34Z</time></trkpt><trkpt lat="43.84820142246462" lon="12.158668405415098"><ele>678.0</ele><time>2026-04-20T10:34:35Z</time></trkpt><trkpt lat="43.848307234526715" lon="12.158875160358479"><ele>680.25</ele><time>2026-04-20T10:34:36Z</time></trkpt><trkpt lat="43.848420807559705" lon="12.159056300376935"><ele>682.5</ele><time>2026-04-20T10:34:37Z</time></trkpt><trkpt lat="43.848516013139935" lon="12.15918107275792"><ele>684.75</ele><time>2026-04-20T10:34:38Z</time></trkpt><trkpt lat="43.84859655843511" lon="12.15926448524389"><ele>687.0</ele><time>2026-04-20T10:34:39Z</time></trkpt><trkpt lat="43.848694995114506" lon="12.15930566433706"><ele>688.1666666666666</ele><time>2026-04-20T10:34:40Z</time></trkpt><trkpt lat="43.84880565828084" lon="12.159327194612793"><ele>689.3333333333334</ele><time>2026-04-20T10:34:41Z</time></trkpt><trkpt lat="43.848891626542546" lon="12.159369983444021"><ele>690.5</ele><time>2026-04-20T10:34:42Z</time></trkpt><trkpt lat="43.848955985481616" lon="12.159457225826786"><ele>691.6666666666667</ele><time>2026-04-20T10:34:43Z</time></trkpt><trkpt lat="43.84896436427973" lon="12.15955918163685"><ele>692.8333333333334</ele><time>2026-04-20T10:34:44Z</time></trkpt><trkpt lat="43.84894164772344" lon="12.159659291003111"><ele>694.0</ele><time>2026-04-20T10:34:45Z</time></trkpt><trkpt lat="43.84889218483571" lon="12.159790585639453"><ele>695.0</ele><time>2026-04-20T10:34:46Z</time></trkpt><trkpt lat="43.84884238601484" lon="12.159951201083176"><ele>696.0</ele><time>2026-04-20T10:34:47Z</time></trkpt><trkpt lat="43.848803586694" lon="12.160121295645983"><ele>697.0</ele><time>2026-04-20T10:34:48Z</time></trkpt><trkpt lat="43.8487870433426" lon="12.160298386319178"><ele>698.0</ele><time>2026-04-20T10:34:49Z</time></trkpt><trkpt lat="43.848782813780026" lon="12.16043393920318"><ele>698.0</ele><time>2026-04-20T10:34:50Z</time></trkpt><trkpt lat="43.84880871150056" lon="12.160526819828732"><ele>698.0</ele><time>2026-04-20T10:34:51Z</time></trkpt><trkpt lat="43.84886745925872" lon="12.160608402098603"><ele>698.0</ele><time>2026-04-20T10:34:52Z</time></trkpt><trkpt lat="43.84896174627758" lon="12.160692386521633"><ele>698.0</ele><time>2026-04-20T10:34:53Z</time></trkpt><trkpt lat="43.84906899591253" lon="12.160749291704303"><ele>698.0</ele><time>2026-04-20T10:34:54Z</time></trkpt><trkpt lat="43.849159511313765" lon="12.160811902075212"><ele>698.8</ele><time>2026-04-20T10:34:55Z</time></trkpt><trkpt lat="43.84923001379076" lon="12.160867511146426"><ele>699.5999999999999</ele><time>2026-04-20T10:34:56Z</time></trkpt><trkpt lat="43.84930924971403" lon="12.160906606741873"><ele>700.4000000000001</ele><time>2026-04-20T10:34:57Z</time></trkpt><trkpt lat="43.84942275158326" lon="12.160949657985615"><ele>701.2</ele><time>2026-04-20T10:34:58Z</time></trkpt><trkpt lat="43.84955328619507" lon="12.160995558662954"><ele>702.0</ele><time>2026-04-20T10:34:59Z</time></trkpt><trkpt lat="43.849676809523196" lon="12.161064352451268"><ele>702.3333333333334</ele><time>2026-04-20T10:35:00Z</time></trkpt><trkpt lat="43.84978107811043" lon="12.161138977488587"><ele>702.6666666666666</ele><time>2026-04-20T10:35:01Z</time></trkpt><trkpt lat="43.849867505230335" lon="12.161191535798634"><ele>703.0</ele><time>2026-04-20T10:35:02Z</time></trkpt><trkpt lat="43.84993941946445" lon="12.161211692830143"><ele>703.3333333333333</ele><time>2026-04-20T10:35:03Z</time></trkpt><trkpt lat="43.85000416598119" lon="12.161205198641763"><ele>703.6666666666666</ele><time>2026-04-20T10:35:04Z</time></trkpt><trkpt lat="43.8500591972723" lon="12.161159625981776"><ele>704.0</ele><time>2026-04-20T10:35:05Z</time></trkpt><trkpt lat="43.85011709977846" lon="12.16107559999939"><ele>698.25</ele><time>2026-04-20T10:35:06Z</time></trkpt><trkpt lat="43.850175231782465" lon="12.160951068777699"><ele>692.5</ele><time>2026-04-20T10:35:07Z</time></trkpt><trkpt lat="43.850239477702615" lon="12.160810663639218"><ele>686.75</ele><time>2026-04-20T10:35:08Z</time></trkpt><trkpt lat="43.850304556419985" lon="12.160671691387217"><ele>681.0</ele><time>2026-04-20T10:35:09Z</time></trkpt><trkpt lat="43.850372689639435" lon="12.160526993822034"><ele>681.0</ele><time>2026-04-20T10:35:10Z</time></trkpt><trkpt lat="43.85043848206391" lon="12.16039254509996"><ele>681.0</ele><time>2026-04-20T10:35:11Z</time></trkpt><trkpt lat="43.850506899807726" lon="12.160262702184786"><ele>681.0</ele><time>2026-04-20T10:35:12Z</time></trkpt><trkpt lat="43.85059876746889" lon="12.160155875501978"><ele>681.0</ele><time>2026-04-20T10:35:13Z</time></trkpt><trkpt lat="43.85065189939246" lon="12.160023490616517"><ele>681.0</ele><time>2026-04-20T10:35:14Z</time></trkpt><trkpt lat="43.850742117840596" lon="12.159914493907019"><ele>681.0</ele><time>2026-04-20T10:35:15Z</time></trkpt><trkpt lat="43.85080865363318" lon="12.159783975666615"><ele>681.0</ele><time>2026-04-20T10:35:16Z</time></trkpt><trkpt lat="43.8508878881079" lon="12.159656319158987"><ele>681.0</ele><time>2026-04-20T10:35:17Z</time></trkpt><trkpt lat="43.85099480924524" lon="12.159564673094458"><ele>682.0</ele><time>2026-04-20T10:35:18Z</time></trkpt><trkpt lat="43.85110072078916" lon="12.159543590938307"><ele>683.0</ele><time>2026-04-20T10:35:19Z</time></trkpt><trkpt lat="43.85122086266515" lon="12.159611565590026"><ele>684.0</ele><time>2026-04-20T10:35:20Z</time></trkpt><trkpt lat="43.85130735341214" lon="12.159663527410308"><ele>685.0</ele><time>2026-04-20T10:35:21Z</time></trkpt><trkpt lat="43.85139824880634" lon="12.159696720132368"><ele>686.0</ele><time>2026-04-20T10:35:22Z</time></trkpt><trkpt lat="43.85147372149236" lon="12.159711441393204"><ele>686.0</ele><time>2026-04-20T10:35:23Z</time></trkpt><trkpt lat="43.85159056335902" lon="12.159628436914842"><ele>686.0</ele><time>2026-04-20T10:35:25Z</time></trkpt><trkpt lat="43.851673212076285" lon="12.159514158540759"><ele>686.0</ele><time>2026-04-20T10:35:26Z</time></trkpt><trkpt lat="43.851784738209915" lon="12.159371004104209"><ele>686.0</ele><time>2026-04-20T10:35:27Z</time></trkpt><trkpt lat="43.85189404210464" lon="12.159260471232768"><ele>682.1666666666666</ele><time>2026-04-20T10:35:28Z</time></trkpt><trkpt lat="43.85197352228593" lon="12.159182367362378"><ele>678.3333333333333</ele><time>2026-04-20T10:35:28.999Z</time></trkpt><trkpt lat="43.852040689747255" lon="12.15912183178745"><ele>674.5</ele><time>2026-04-20T10:35:29.999Z</time></trkpt><trkpt lat="43.85210691319257" lon="12.159090966401044"><ele>670.6666666666666</ele><time>2026-04-20T10:35:30.999Z</time></trkpt><trkpt lat="43.85218199506005" lon="12.159094719570854"><ele>666.8333333333334</ele><time>2026-04-20T10:35:31.999Z</time></trkpt><trkpt lat="43.85227459981603" lon="12.159124614708457"><ele>663.0</ele><time>2026-04-20T10:35:32.999Z</time></trkpt><trkpt lat="43.85239823667519" lon="12.159169523484215"><ele>663.0</ele><time>2026-04-20T10:35:33.999Z</time></trkpt><trkpt lat="43.85252238759352" lon="12.159190932289206"><ele>663.0</ele><time>2026-04-20T10:35:34.999Z</time></trkpt><trkpt lat="43.85264120640198" lon="12.15922558339674"><ele>663.0</ele><time>2026-04-20T10:35:35.999Z</time></trkpt><trkpt lat="43.85276005133735" lon="12.159233905139853"><ele>663.0</ele><time>2026-04-20T10:35:36.999Z</time></trkpt><trkpt lat="43.85286536357987" lon="12.15916067302373"><ele>664.2</ele><time>2026-04-20T10:35:37.999Z</time></trkpt><trkpt lat="43.85296328083875" lon="12.159136944522901"><ele>665.4</ele><time>2026-04-20T10:35:38.999Z</time></trkpt><trkpt lat="43.853037580105315" lon="12.159142142277275"><ele>666.6</ele><time>2026-04-20T10:35:39.999Z</time></trkpt><trkpt lat="43.85311157249881" lon="12.159188442250514"><ele>667.8000000000001</ele><time>2026-04-20T10:35:40.999Z</time></trkpt><trkpt lat="43.85318772467461" lon="12.159294676374827"><ele>669.0</ele><time>2026-04-20T10:35:41.999Z</time></trkpt><trkpt lat="43.85322717620242" lon="12.159439166875824"><ele>669.0</ele><time>2026-04-20T10:35:42.999Z</time></trkpt><trkpt lat="43.8532993337867" lon="12.159531116276023"><ele>669.0</ele><time>2026-04-20T10:35:43.999Z</time></trkpt><trkpt lat="43.85337262182344" lon="12.159592770931182"><ele>669.0</ele><time>2026-04-20T10:35:44.999Z</time></trkpt><trkpt lat="43.853456886685386" lon="12.159617439248544"><ele>669.0</ele><time>2026-04-20T10:35:45.999Z</time></trkpt><trkpt lat="43.85354954930588" lon="12.159590711186057"><ele>669.0</ele><time>2026-04-20T10:35:46.999Z</time></trkpt><trkpt lat="43.85365266417779" lon="12.159508281629593"><ele>668.6</ele><time>2026-04-20T10:35:47.999Z</time></trkpt><trkpt lat="43.85377316408227" lon="12.159442115761983"><ele>668.2</ele><time>2026-04-20T10:35:48.999Z</time></trkpt><trkpt lat="43.853860122656336" lon="12.159426480610145"><ele>667.8000000000001</ele><time>2026-04-20T10:35:49.999Z</time></trkpt><trkpt lat="43.85393893162895" lon="12.159448447943483"><ele>667.4000000000001</ele><time>2026-04-20T10:35:50.999Z</time></trkpt><trkpt lat="43.85400559943562" lon="12.159530628555718"><ele>667.0</ele><time>2026-04-20T10:35:51.999Z</time></trkpt><trkpt lat="43.854090614032245" lon="12.159592712117323"><ele>667.0</ele><time>2026-04-20T10:35:52.999Z</time></trkpt><trkpt lat="43.85416373671568" lon="12.1596402847504"><ele>667.0</ele><time>2026-04-20T10:35:53.999Z</time></trkpt><trkpt lat="43.854249947448004" lon="12.159674118639208"><ele>667.0</ele><time>2026-04-20T10:35:54.999Z</time></trkpt><trkpt lat="43.85433296293264" lon="12.159685984503273"><ele>667.0</ele><time>2026-04-20T10:35:55.999Z</time></trkpt><trkpt lat="43.85442195920242" lon="12.15970062048211"><ele>667.0</ele><time>2026-04-20T10:35:56.999Z</time></trkpt><trkpt lat="43.85451500674822" lon="12.159722808323197"><ele>667.0</ele><time>2026-04-20T10:35:57.999Z</time></trkpt><trkpt lat="43.85461979378799" lon="12.159753754708252"><ele>661.3333333333334</ele><time>2026-04-20T10:35:58.999Z</time></trkpt><trkpt lat="43.85471670300446" lon="12.159782917400962"><ele>655.6666666666667</ele><time>2026-04-20T10:35:59.999Z</time></trkpt><trkpt lat="43.85481363358892" lon="12.159804585891466"><ele>650.0</ele><time>2026-04-20T10:36:00.999Z</time></trkpt><trkpt lat="43.854901512437685" lon="12.159832107043293"><ele>644.3333333333334</ele><time>2026-04-20T10:36:01.999Z</time></trkpt><trkpt lat="43.854980654287615" lon="12.159796040088846"><ele>638.6666666666666</ele><time>2026-04-20T10:36:02.999Z</time></trkpt><trkpt lat="43.855051056624156" lon="12.159766071633829"><ele>633.0</ele><time>2026-04-20T10:36:03.999Z</time></trkpt><trkpt lat="43.85510985792563" lon="12.15972607663502"><ele>626.8</ele><time>2026-04-20T10:36:04.999Z</time></trkpt><trkpt lat="43.85519136898597" lon="12.159647281506814"><ele>620.5999999999999</ele><time>2026-04-20T10:36:06.999Z</time></trkpt><trkpt lat="43.85527949543745" lon="12.159663016009501"><ele>614.4000000000001</ele><time>2026-04-20T10:36:08.999Z</time></trkpt><trkpt lat="43.8552981007726" lon="12.159777796757952"><ele>608.2</ele><time>2026-04-20T10:36:10.999Z</time></trkpt><trkpt lat="43.85520997435657" lon="12.159886474026768"><ele>602.0</ele><time>2026-04-20T10:36:13Z</time></trkpt><trkpt lat="43.8551221395674" lon="12.159907803719348"><ele>606.6</ele><time>2026-04-20T10:36:14Z</time></trkpt><trkpt lat="43.85503908692438" lon="12.159973352275813"><ele>611.2</ele><time>2026-04-20T10:36:15Z</time></trkpt><trkpt lat="43.85493990548163" lon="12.160025081326436"><ele>615.8</ele><time>2026-04-20T10:36:16Z</time></trkpt><trkpt lat="43.85486566790365" lon="12.160125971324577"><ele>620.4</ele><time>2026-04-20T10:36:17Z</time></trkpt><trkpt lat="43.85478702669216" lon="12.160194540421971"><ele>625.0</ele><time>2026-04-20T10:36:18Z</time></trkpt><trkpt lat="43.854713955020735" lon="12.160248322830029"><ele>625.0</ele><time>2026-04-20T10:36:19Z</time></trkpt><trkpt lat="43.854647986049436" lon="12.160290518227397"><ele>625.0</ele><time>2026-04-20T10:36:20Z</time></trkpt><trkpt lat="43.85453555697306" lon="12.16030637018866"><ele>625.0</ele><time>2026-04-20T10:36:22Z</time></trkpt><trkpt lat="43.85446943184305" lon="12.16042588545132"><ele>625.0</ele><time>2026-04-20T10:36:24Z</time></trkpt><trkpt lat="43.85450135706794" lon="12.160559075128411"><ele>625.0</ele><time>2026-04-20T10:36:25Z</time></trkpt><trkpt lat="43.854621749234184" lon="12.160570512682105"><ele>625.0</ele><time>2026-04-20T10:36:26Z</time></trkpt><trkpt lat="43.85472528281998" lon="12.160499605116378"><ele>625.0</ele><time>2026-04-20T10:36:27Z</time></trkpt><trkpt lat="43.85482297058532" lon="12.16043302490412"><ele>625.0</ele><time>2026-04-20T10:36:28Z</time></trkpt><trkpt lat="43.854924796544466" lon="12.160366139138207"><ele>625.0</ele><time>2026-04-20T10:36:29Z</time></trkpt><trkpt lat="43.85503017727293" lon="12.160340416879466"><ele>625.0</ele><time>2026-04-20T10:36:30Z</time></trkpt><trkpt lat="43.85512588779563" lon="12.160306252188906"><ele>619.8</ele><time>2026-04-20T10:36:31Z</time></trkpt><trkpt lat="43.8552156256072" lon="12.160290261914199"><ele>614.6</ele><time>2026-04-20T10:36:32Z</time></trkpt><trkpt lat="43.85530835506344" lon="12.160277237003987"><ele>609.4</ele><time>2026-04-20T10:36:33Z</time></trkpt><trkpt lat="43.85539776524815" lon="12.160265094629498"><ele>604.2</ele><time>2026-04-20T10:36:34Z</time></trkpt><trkpt lat="43.85548359724097" lon="12.160232537551217"><ele>599.0</ele><time>2026-04-20T10:36:35Z</time></trkpt><trkpt lat="43.855551919875346" lon="12.160150261267585"><ele>599.0</ele><time>2026-04-20T10:36:36Z</time></trkpt><trkpt lat="43.85562839039454" lon="12.160102084941132"><ele>599.0</ele><time>2026-04-20T10:36:37Z</time></trkpt><trkpt lat="43.85569957554277" lon="12.160061676500787"><ele>599.0</ele><time>2026-04-20T10:36:38Z</time></trkpt><trkpt lat="43.85576202796038" lon="12.160044485786583"><ele>599.0</ele><time>2026-04-20T10:36:39Z</time></trkpt><trkpt lat="43.85586175073094" lon="12.160066319861738"><ele>599.0</ele><time>2026-04-20T10:36:41Z</time></trkpt><trkpt lat="43.85589512224939" lon="12.160144007784972"><ele>599.0</ele><time>2026-04-20T10:36:43Z</time></trkpt><trkpt lat="43.85583743217156" lon="12.160205186794553"><ele>599.0</ele><time>2026-04-20T10:36:46Z</time></trkpt><trkpt lat="43.85572417588853" lon="12.160278925639835"><ele>599.0</ele><time>2026-04-20T10:36:48Z</time></trkpt><trkpt lat="43.855636831689196" lon="12.160329350213976"><ele>599.0</ele><time>2026-04-20T10:36:49Z</time></trkpt><trkpt lat="43.85555209587941" lon="12.16039840923703"><ele>599.0</ele><time>2026-04-20T10:36:50Z</time></trkpt><trkpt lat="43.85545654038809" lon="12.16044199296315"><ele>599.0</ele><time>2026-04-20T10:36:51Z</time></trkpt><trkpt lat="43.855348177144194" lon="12.160412226466338"><ele>599.0</ele><time>2026-04-20T10:36:52Z</time></trkpt><trkpt lat="43.85522426842146" lon="12.160402897182522"><ele>599.0</ele><time>2026-04-20T10:36:53Z</time></trkpt><trkpt lat="43.855133496577565" lon="12.16042580297452"><ele>599.0</ele><time>2026-04-20T10:36:54Z</time></trkpt><trkpt lat="43.85506695641157" lon="12.16054114918755"><ele>599.0</ele><time>2026-04-20T10:36:55Z</time></trkpt><trkpt lat="43.855019784860595" lon="12.160666791095895"><ele>599.0</ele><time>2026-04-20T10:36:56Z</time></trkpt><trkpt lat="43.85498429872917" lon="12.160840677593452"><ele>599.8333333333333</ele><time>2026-04-20T10:36:57Z</time></trkpt><trkpt lat="43.854952258392416" lon="12.160999060491713"><ele>600.6666666666666</ele><time>2026-04-20T10:36:58Z</time></trkpt><trkpt lat="43.85492046996686" lon="12.161099391728614"><ele>601.5</ele><time>2026-04-20T10:36:59Z</time></trkpt><trkpt lat="43.85486974323882" lon="12.16118278409023"><ele>602.3333333333334</ele><time>2026-04-20T10:37:00Z</time></trkpt><trkpt lat="43.85480905561216" lon="12.161226485890182"><ele>603.1666666666667</ele><time>2026-04-20T10:37:01Z</time></trkpt><trkpt lat="43.854720291724384" lon="12.161252917164036"><ele>604.0</ele><time>2026-04-20T10:37:02Z</time></trkpt><trkpt lat="43.854626140288104" lon="12.16124391292329"><ele>604.0</ele><time>2026-04-20T10:37:03Z</time></trkpt><trkpt lat="43.85452439814738" lon="12.161192698059983"><ele>604.0</ele><time>2026-04-20T10:37:04Z</time></trkpt><trkpt lat="43.854446903590976" lon="12.161094422313065"><ele>604.0</ele><time>2026-04-20T10:37:05Z</time></trkpt><trkpt lat="43.85435036434178" lon="12.16100847350967"><ele>604.0</ele><time>2026-04-20T10:37:06Z</time></trkpt><trkpt lat="43.85426959203897" lon="12.160892176365437"><ele>604.0</ele><time>2026-04-20T10:37:07Z</time></trkpt><trkpt lat="43.85419073345542" lon="12.16077801156738"><ele>609.4</ele><time>2026-04-20T10:37:08Z</time></trkpt><trkpt lat="43.85413710165318" lon="12.160663088427892"><ele>614.8</ele><time>2026-04-20T10:37:09Z</time></trkpt><trkpt lat="43.854074143472026" lon="12.160556846314892"><ele>620.2</ele><time>2026-04-20T10:37:10Z</time></trkpt><trkpt lat="43.85400331799164" lon="12.160466018601188"><ele>625.6</ele><time>2026-04-20T10:37:11Z</time></trkpt><trkpt lat="43.85392017646816" lon="12.160430977356658"><ele>631.0</ele><time>2026-04-20T10:37:12Z</time></trkpt><trkpt lat="43.85381976463849" lon="12.160407596315174"><ele>631.0</ele><time>2026-04-20T10:37:13Z</time></trkpt><trkpt lat="43.85369786188" lon="12.160418035798873"><ele>631.0</ele><time>2026-04-20T10:37:14Z</time></trkpt><trkpt lat="43.853566554682885" lon="12.160440202284047"><ele>631.0</ele><time>2026-04-20T10:37:15Z</time></trkpt><trkpt lat="43.853423587039956" lon="12.160443135723918"><ele>631.0</ele><time>2026-04-20T10:37:16Z</time></trkpt><trkpt lat="43.85329042570782" lon="12.16043084765389"><ele>630.4</ele><time>2026-04-20T10:37:17Z</time></trkpt><trkpt lat="43.85317259369159" lon="12.160417477388151"><ele>629.8</ele><time>2026-04-20T10:37:18Z</time></trkpt><trkpt lat="43.85306254379104" lon="12.160390755955722"><ele>629.1999999999999</ele><time>2026-04-20T10:37:19Z</time></trkpt><trkpt lat="43.85295162922559" lon="12.160387890453668"><ele>628.6</ele><time>2026-04-20T10:37:20Z</time></trkpt><trkpt lat="43.85284427569015" lon="12.160398186349823"><ele>628.0</ele><time>2026-04-20T10:37:21Z</time></trkpt><trkpt lat="43.85274299030702" lon="12.160442848153288"><ele>628.0</ele><time>2026-04-20T10:37:22Z</time></trkpt><trkpt lat="43.852623288683816" lon="12.160474309569622"><ele>628.0</ele><time>2026-04-20T10:37:23Z</time></trkpt><trkpt lat="43.8525208120859" lon="12.160531515043644"><ele>628.0</ele><time>2026-04-20T10:37:24Z</time></trkpt><trkpt lat="43.85243029257195" lon="12.160620692646233"><ele>628.0</ele><time>2026-04-20T10:37:25Z</time></trkpt><trkpt lat="43.852334666121905" lon="12.160729275873038"><ele>619.75</ele><time>2026-04-20T10:37:26Z</time></trkpt><trkpt lat="43.85222879870247" lon="12.160850114168094"><ele>611.5</ele><time>2026-04-20T10:37:27Z</time></trkpt><trkpt lat="43.85216641117377" lon="12.161014828822381"><ele>603.25</ele><time>2026-04-20T10:37:28Z</time></trkpt><trkpt lat="43.8521182034145" lon="12.161141199541547"><ele>595.0</ele><time>2026-04-20T10:37:29Z</time></trkpt><trkpt lat="43.8520835845121" lon="12.161291889983291"><ele>595.0</ele><time>2026-04-20T10:37:30Z</time></trkpt><trkpt lat="43.85204423474967" lon="12.161419444039732"><ele>595.0</ele><time>2026-04-20T10:37:31Z</time></trkpt><trkpt lat="43.85196363153381" lon="12.161468206583487"><ele>595.0</ele><time>2026-04-20T10:37:32Z</time></trkpt><trkpt lat="43.85189581291325" lon="12.16151969732333"><ele>595.0</ele><time>2026-04-20T10:37:33Z</time></trkpt><trkpt lat="43.851804734922126" lon="12.161575467197457"><ele>595.0</ele><time>2026-04-20T10:37:34Z</time></trkpt><trkpt lat="43.85172453643892" lon="12.161651361679981"><ele>595.75</ele><time>2026-04-20T10:37:34.999Z</time></trkpt><trkpt lat="43.851696343124345" lon="12.16176752429516"><ele>596.5</ele><time>2026-04-20T10:37:35.999Z</time></trkpt><trkpt lat="43.85165888160901" lon="12.161956029186124"><ele>597.25</ele><time>2026-04-20T10:37:36.999Z</time></trkpt><trkpt lat="43.85159390088826" lon="12.162143840081214"><ele>598.0</ele><time>2026-04-20T10:37:37.999Z</time></trkpt><trkpt lat="43.85148971549021" lon="12.162339053101581"><ele>592.6666666666667</ele><time>2026-04-20T10:37:38.999Z</time></trkpt><trkpt lat="43.85138401451766" lon="12.162549630358521"><ele>587.3333333333334</ele><time>2026-04-20T10:37:39.999Z</time></trkpt><trkpt lat="43.85127349456566" lon="12.162788995250015"><ele>582.0</ele><time>2026-04-20T10:37:40.999Z</time></trkpt><trkpt lat="43.85115928464642" lon="12.162951430082833"><ele>582.0</ele><time>2026-04-20T10:37:41.999Z</time></trkpt><trkpt lat="43.85108675768042" lon="12.163108116296117"><ele>582.0</ele><time>2026-04-20T10:37:42.999Z</time></trkpt><trkpt lat="43.85103220269579" lon="12.163251665549495"><ele>582.0</ele><time>2026-04-20T10:37:43.999Z</time></trkpt><trkpt lat="43.85102011164727" lon="12.163411521994952"><ele>582.0</ele><time>2026-04-20T10:37:44.999Z</time></trkpt><trkpt lat="43.85100633265431" lon="12.163555270504183"><ele>579.6666666666666</ele><time>2026-04-20T10:37:45.999Z</time></trkpt><trkpt lat="43.850972104452126" lon="12.163654867979188"><ele>577.3333333333334</ele><time>2026-04-20T10:37:46.999Z</time></trkpt><trkpt lat="43.850915120144855" lon="12.16372097423764"><ele>575.0</ele><time>2026-04-20T10:37:47.999Z</time></trkpt><trkpt lat="43.85084672411439" lon="12.16373544137823"><ele>572.6666666666667</ele><time>2026-04-20T10:37:48.999Z</time></trkpt><trkpt lat="43.8507716692629" lon="12.163702136165051"><ele>570.3333333333334</ele><time>2026-04-20T10:37:49.999Z</time></trkpt><trkpt lat="43.85066483246763" lon="12.16362383002594"><ele>568.0</ele><time>2026-04-20T10:37:50.999Z</time></trkpt><trkpt lat="43.85054298505444" lon="12.163529634756808"><ele>576.0</ele><time>2026-04-20T10:37:51.999Z</time></trkpt><trkpt lat="43.85042917561085" lon="12.163442099633459"><ele>584.0</ele><time>2026-04-20T10:37:53Z</time></trkpt><trkpt lat="43.85029953767626" lon="12.163396245143886"><ele>592.0</ele><time>2026-04-20T10:37:54Z</time></trkpt><trkpt lat="43.850165035572786" lon="12.163430758435737"><ele>600.0</ele><time>2026-04-20T10:37:55Z</time></trkpt><trkpt lat="43.85002211761359" lon="12.163471584134731"><ele>602.5</ele><time>2026-04-20T10:37:56Z</time></trkpt><trkpt lat="43.84986509861613" lon="12.163526775428615"><ele>605.0</ele><time>2026-04-20T10:37:57Z</time></trkpt><trkpt lat="43.849723899025975" lon="12.163507509241978"><ele>607.5</ele><time>2026-04-20T10:37:58Z</time></trkpt><trkpt lat="43.84960314821914" lon="12.163500992240724"><ele>610.0</ele><time>2026-04-20T10:37:59Z</time></trkpt><trkpt lat="43.849512737393106" lon="12.163530224209229"><ele>610.0</ele><time>2026-04-20T10:38:00Z</time></trkpt><trkpt lat="43.84942008303121" lon="12.163599366136273"><ele>610.0</ele><time>2026-04-20T10:38:01Z</time></trkpt><trkpt lat="43.849325798294274" lon="12.163708660773873"><ele>610.0</ele><time>2026-04-20T10:38:02Z</time></trkpt><trkpt lat="43.84922012083175" lon="12.163850464492407"><ele>610.0</ele><time>2026-04-20T10:38:03Z</time></trkpt><trkpt lat="43.84911068227915" lon="12.16401121465827"><ele>605.0</ele><time>2026-04-20T10:38:04Z</time></trkpt><trkpt lat="43.84900477922002" lon="12.16418471633245"><ele>600.0</ele><time>2026-04-20T10:38:05Z</time></trkpt><trkpt lat="43.84891332960328" lon="12.164376676616683"><ele>595.0</ele><time>2026-04-20T10:38:06Z</time></trkpt><trkpt lat="43.848857113059694" lon="12.164555969474604"><ele>595.0</ele><time>2026-04-20T10:38:07Z</time></trkpt><trkpt lat="43.84879926652497" lon="12.164696960283672"><ele>595.0</ele><time>2026-04-20T10:38:08Z</time></trkpt><trkpt lat="43.848790528145784" lon="12.164857817635657"><ele>595.0</ele><time>2026-04-20T10:38:09Z</time></trkpt><trkpt lat="43.848756048079444" lon="12.164982111348289"><ele>595.0</ele><time>2026-04-20T10:38:10Z</time></trkpt><trkpt lat="43.84874267252082" lon="12.165087304813552"><ele>595.0</ele><time>2026-04-20T10:38:11Z</time></trkpt><trkpt lat="43.84870454365056" lon="12.165173245226267"><ele>592.8571428571429</ele><time>2026-04-20T10:38:12Z</time></trkpt><trkpt lat="43.84866158098767" lon="12.165248160608517"><ele>590.7142857142858</ele><time>2026-04-20T10:38:13Z</time></trkpt><trkpt lat="43.84861457300736" lon="12.165328960300592"><ele>588.5714285714286</ele><time>2026-04-20T10:38:14Z</time></trkpt><trkpt lat="43.84856984246574" lon="12.165410677944903"><ele>586.4285714285714</ele><time>2026-04-20T10:38:15Z</time></trkpt><trkpt lat="43.84853771889248" lon="12.165489376711722"><ele>584.2857142857143</ele><time>2026-04-20T10:38:16Z</time></trkpt><trkpt lat="43.848516075224595" lon="12.165575887898875"><ele>582.1428571428571</ele><time>2026-04-20T10:38:17Z</time></trkpt><trkpt lat="43.8484981186834" lon="12.165661857029704"><ele>580.0</ele><time>2026-04-20T10:38:18Z</time></trkpt><trkpt lat="43.84846937960169" lon="12.16575127485017"><ele>579.6666666666667</ele><time>2026-04-20T10:38:19Z</time></trkpt><trkpt lat="43.848444543882906" lon="12.165907249633824"><ele>579.3333333333334</ele><time>2026-04-20T10:38:21Z</time></trkpt><trkpt lat="43.84848119677762" lon="12.166005042200359"><ele>579.0</ele><time>2026-04-20T10:38:22Z</time></trkpt><trkpt lat="43.84852082914977" lon="12.166091803387792"><ele>578.6666666666666</ele><time>2026-04-20T10:38:23Z</time></trkpt><trkpt lat="43.8485635664482" lon="12.166178493520524"><ele>578.3333333333333</ele><time>2026-04-20T10:38:24Z</time></trkpt><trkpt lat="43.84860423835205" lon="12.16627438658026"><ele>578.0</ele><time>2026-04-20T10:38:25Z</time></trkpt><trkpt lat="43.84864758565821" lon="12.166369953778569"><ele>578.0</ele><time>2026-04-20T10:38:26Z</time></trkpt><trkpt lat="43.84864364086804" lon="12.16647984853256"><ele>578.0</ele><time>2026-04-20T10:38:27Z</time></trkpt><trkpt lat="43.84865883723535" lon="12.16660955761102"><ele>578.0</ele><time>2026-04-20T10:38:28Z</time></trkpt><trkpt lat="43.84867011204667" lon="12.166752735575578"><ele>578.0</ele><time>2026-04-20T10:38:29Z</time></trkpt><trkpt lat="43.84869061720524" lon="12.166909995723007"><ele>578.0</ele><time>2026-04-20T10:38:30Z</time></trkpt><trkpt lat="43.848705763072196" lon="12.167037236222095"><ele>580.5</ele><time>2026-04-20T10:38:31Z</time></trkpt><trkpt lat="43.84871527557164" lon="12.1671907028432"><ele>583.0</ele><time>2026-04-20T10:38:32Z</time></trkpt><trkpt lat="43.84875438207325" lon="12.167347007972753"><ele>585.5</ele><time>2026-04-20T10:38:33Z</time></trkpt><trkpt lat="43.848796593225494" lon="12.167516659445582"><ele>588.0</ele><time>2026-04-20T10:38:34Z</time></trkpt><trkpt lat="43.84883556212226" lon="12.167665920506025"><ele>589.8</ele><time>2026-04-20T10:38:35Z</time></trkpt><trkpt lat="43.84886830170991" lon="12.16778377954154"><ele>591.5999999999999</ele><time>2026-04-20T10:38:36Z</time></trkpt><trkpt lat="43.84885491962141" lon="12.167917711100769"><ele>593.4000000000001</ele><time>2026-04-20T10:38:37Z</time></trkpt><trkpt lat="43.848830633763605" lon="12.168051387793799"><ele>595.2</ele><time>2026-04-20T10:38:38Z</time></trkpt><trkpt lat="43.8487976557631" lon="12.168207781250494"><ele>597.0</ele><time>2026-04-20T10:38:39Z</time></trkpt><trkpt lat="43.848767278509634" lon="12.168364571913198"><ele>597.0</ele><time>2026-04-20T10:38:40Z</time></trkpt><trkpt lat="43.84872882833642" lon="12.168498538144426"><ele>597.0</ele><time>2026-04-20T10:38:41Z</time></trkpt><trkpt lat="43.848675225320484" lon="12.168609615201845"><ele>597.0</ele><time>2026-04-20T10:38:42Z</time></trkpt><trkpt lat="43.848599142409185" lon="12.168727208750589"><ele>597.0</ele><time>2026-04-20T10:38:43Z</time></trkpt><trkpt lat="43.848521806165394" lon="12.168843992758108"><ele>597.0</ele><time>2026-04-20T10:38:44Z</time></trkpt><trkpt lat="43.84844796679091" lon="12.168940842208945"><ele>601.25</ele><time>2026-04-20T10:38:45Z</time></trkpt><trkpt lat="43.848362235942716" lon="12.169021468644125"><ele>605.5</ele><time>2026-04-20T10:38:46Z</time></trkpt><trkpt lat="43.84824827085685" lon="12.16908797200737"><ele>609.75</ele><time>2026-04-20T10:38:47Z</time></trkpt><trkpt lat="43.848114174350584" lon="12.16915008342393"><ele>614.0</ele><time>2026-04-20T10:38:48Z</time></trkpt><trkpt lat="43.84799235225439" lon="12.169230985322123"><ele>614.0</ele><time>2026-04-20T10:38:49Z</time></trkpt><trkpt lat="43.84790859446719" lon="12.169371567667751"><ele>614.0</ele><time>2026-04-20T10:38:50Z</time></trkpt><trkpt lat="43.84782116721946" lon="12.169522906774787"><ele>614.0</ele><time>2026-04-20T10:38:51Z</time></trkpt><trkpt lat="43.84771852138801" lon="12.169672992887524"><ele>614.0</ele><time>2026-04-20T10:38:52Z</time></trkpt><trkpt lat="43.84763026759322" lon="12.169823563019126"><ele>613.5</ele><time>2026-04-20T10:38:53Z</time></trkpt><trkpt lat="43.84754316333026" lon="12.169968202656824"><ele>613.0</ele><time>2026-04-20T10:38:54Z</time></trkpt><trkpt lat="43.84746113928077" lon="12.17010324168262"><ele>612.5</ele><time>2026-04-20T10:38:55Z</time></trkpt><trkpt lat="43.84738260905181" lon="12.170232529052967"><ele>612.0</ele><time>2026-04-20T10:38:56Z</time></trkpt><trkpt lat="43.84731320502107" lon="12.17036146485177"><ele>612.0</ele><time>2026-04-20T10:38:57Z</time></trkpt><trkpt lat="43.84723134298281" lon="12.170470641950944"><ele>612.0</ele><time>2026-04-20T10:38:58Z</time></trkpt><trkpt lat="43.847163331027915" lon="12.170613343061047"><ele>612.0</ele><time>2026-04-20T10:38:59Z</time></trkpt><trkpt lat="43.84711222221489" lon="12.170817479858167"><ele>612.0</ele><time>2026-04-20T10:39:00Z</time></trkpt><trkpt lat="43.84703739267912" lon="12.171029831616401"><ele>607.6666666666666</ele><time>2026-04-20T10:39:01Z</time></trkpt><trkpt lat="43.846962816043565" lon="12.171222609279502"><ele>603.3333333333333</ele><time>2026-04-20T10:39:02Z</time></trkpt><trkpt lat="43.846890443909224" lon="12.171406366999967"><ele>599.0</ele><time>2026-04-20T10:39:03Z</time></trkpt><trkpt lat="43.846831065447056" lon="12.171597853480735"><ele>600.0</ele><time>2026-04-20T10:39:04Z</time></trkpt><trkpt lat="43.84675184778805" lon="12.171748675583434"><ele>601.0</ele><time>2026-04-20T10:39:05Z</time></trkpt><trkpt lat="43.84669644309706" lon="12.17190385813636"><ele>602.0</ele><time>2026-04-20T10:39:06Z</time></trkpt><trkpt lat="43.84667129412713" lon="12.172052000471583"><ele>603.0</ele><time>2026-04-20T10:39:07Z</time></trkpt><trkpt lat="43.846624593089096" lon="12.1721991133766"><ele>601.5</ele><time>2026-04-20T10:39:08Z</time></trkpt><trkpt lat="43.8466127736922" lon="12.172386467581896"><ele>600.0</ele><time>2026-04-20T10:39:09Z</time></trkpt><trkpt lat="43.846631675213345" lon="12.172576353158899"><ele>598.5</ele><time>2026-04-20T10:39:10Z</time></trkpt><trkpt lat="43.846613859782074" lon="12.172747942827634"><ele>597.0</ele><time>2026-04-20T10:39:11Z</time></trkpt><trkpt lat="43.846606384031226" lon="12.172919393637573"><ele>597.0</ele><time>2026-04-20T10:39:12Z</time></trkpt><trkpt lat="43.84660285127265" lon="12.173047551220435"><ele>597.0</ele><time>2026-04-20T10:39:13Z</time></trkpt><trkpt lat="43.84662040898803" lon="12.173174873659361"><ele>597.0</ele><time>2026-04-20T10:39:14.001Z</time></trkpt><trkpt lat="43.84667487740212" lon="12.173300953761261"><ele>597.0</ele><time>2026-04-20T10:39:15.001Z</time></trkpt><trkpt lat="43.846840897883965" lon="12.17333419222388"><ele>591.5</ele><time>2026-04-20T10:39:16.001Z</time></trkpt><trkpt lat="43.846962665323574" lon="12.17343846015773"><ele>586.0</ele><time>2026-04-20T10:39:17.001Z</time></trkpt><trkpt lat="43.84704120034901" lon="12.173503063043"><ele>580.5</ele><time>2026-04-20T10:39:18.001Z</time></trkpt><trkpt lat="43.84712498021588" lon="12.173598017014514"><ele>575.0</ele><time>2026-04-20T10:39:19.001Z</time></trkpt><trkpt lat="43.84721298266993" lon="12.173744107730757"><ele>575.0</ele><time>2026-04-20T10:39:20.001Z</time></trkpt><trkpt lat="43.8473053254876" lon="12.173908529021114"><ele>575.0</ele><time>2026-04-20T10:39:21.001Z</time></trkpt><trkpt lat="43.84738929270717" lon="12.174063797184541"><ele>575.0</ele><time>2026-04-20T10:39:22.001Z</time></trkpt><trkpt lat="43.84747058481476" lon="12.174202466490936"><ele>575.0</ele><time>2026-04-20T10:39:23.001Z</time></trkpt><trkpt lat="43.84754002914222" lon="12.174314250246775"><ele>573.5</ele><time>2026-04-20T10:39:24.001Z</time></trkpt><trkpt lat="43.847592910440895" lon="12.174432759723418"><ele>572.0</ele><time>2026-04-20T10:39:25.001Z</time></trkpt><trkpt lat="43.847622057840766" lon="12.174573387965115"><ele>570.5</ele><time>2026-04-20T10:39:26.001Z</time></trkpt><trkpt lat="43.84763579038802" lon="12.174751145581695"><ele>569.0</ele><time>2026-04-20T10:39:27.001Z</time></trkpt><trkpt lat="43.84765955352629" lon="12.174935578445604"><ele>573.75</ele><time>2026-04-20T10:39:28.001Z</time></trkpt><trkpt lat="43.8477208190529" lon="12.175107475837516"><ele>578.5</ele><time>2026-04-20T10:39:29.001Z</time></trkpt><trkpt lat="43.8478148618718" lon="12.175227896580138"><ele>583.25</ele><time>2026-04-20T10:39:30.001Z</time></trkpt><trkpt lat="43.847918167081396" lon="12.175350497560101"><ele>588.0</ele><time>2026-04-20T10:39:31.001Z</time></trkpt><trkpt lat="43.84803974172038" lon="12.17547611493216"><ele>588.0</ele><time>2026-04-20T10:39:32.001Z</time></trkpt><trkpt lat="43.848162824605275" lon="12.175589341494973"><ele>588.0</ele><time>2026-04-20T10:39:33.001Z</time></trkpt><trkpt lat="43.84827442989302" lon="12.175709999127095"><ele>588.0</ele><time>2026-04-20T10:39:34.001Z</time></trkpt><trkpt lat="43.84836898225764" lon="12.175821816505106"><ele>588.0</ele><time>2026-04-20T10:39:35.001Z</time></trkpt><trkpt lat="43.84843592523384" lon="12.175914957933456"><ele>586.4</ele><time>2026-04-20T10:39:36.001Z</time></trkpt><trkpt lat="43.848477495564424" lon="12.176012127896724"><ele>584.8</ele><time>2026-04-20T10:39:37.001Z</time></trkpt><trkpt lat="43.84850008246365" lon="12.176258759949219"><ele>583.2</ele><time>2026-04-20T10:39:39.001Z</time></trkpt><trkpt lat="43.84846664597329" lon="12.176374620819521"><ele>581.6</ele><time>2026-04-20T10:39:40.001Z</time></trkpt><trkpt lat="43.84841610362228" lon="12.176446664221073"><ele>580.0</ele><time>2026-04-20T10:39:41Z</time></trkpt><trkpt lat="43.84835513104618" lon="12.176487363129388"><ele>584.2</ele><time>2026-04-20T10:39:42Z</time></trkpt><trkpt lat="43.8482855776187" lon="12.176473172206121"><ele>588.4</ele><time>2026-04-20T10:39:43Z</time></trkpt><trkpt lat="43.848186770898785" lon="12.17648477765153"><ele>592.6</ele><time>2026-04-20T10:39:44Z</time></trkpt><trkpt lat="43.84806871048275" lon="12.176538529540853"><ele>596.8</ele><time>2026-04-20T10:39:45Z</time></trkpt><trkpt lat="43.847937793466386" lon="12.176576719428391"><ele>601.0</ele><time>2026-04-20T10:39:46Z</time></trkpt><trkpt lat="43.8478070999357" lon="12.176644699888358"><ele>603.0</ele><time>2026-04-20T10:39:47Z</time></trkpt><trkpt lat="43.84767261455468" lon="12.176745035312987"><ele>605.0</ele><time>2026-04-20T10:39:48Z</time></trkpt><trkpt lat="43.84749656846933" lon="12.176879108856795"><ele>607.0</ele><time>2026-04-20T10:39:49Z</time></trkpt><trkpt lat="43.84731626318863" lon="12.176997751308106"><ele>608.6666666666667</ele><time>2026-04-20T10:39:50Z</time></trkpt><trkpt lat="43.8471430581349" lon="12.177098687080118"><ele>610.3333333333334</ele><time>2026-04-20T10:39:51Z</time></trkpt><trkpt lat="43.84697583401019" lon="12.177210972955331"><ele>612.0</ele><time>2026-04-20T10:39:52Z</time></trkpt><trkpt lat="43.846813476279515" lon="12.177335196595608"><ele>611.5</ele><time>2026-04-20T10:39:53Z</time></trkpt><trkpt lat="43.84667699392732" lon="12.177447305508904"><ele>611.0</ele><time>2026-04-20T10:39:54Z</time></trkpt><trkpt lat="43.84655097157055" lon="12.177541507886028"><ele>610.5</ele><time>2026-04-20T10:39:55Z</time></trkpt><trkpt lat="43.84644052107486" lon="12.177618480517244"><ele>610.0</ele><time>2026-04-20T10:39:56Z</time></trkpt><trkpt lat="43.84633168801205" lon="12.177608509411892"><ele>610.0</ele><time>2026-04-20T10:39:57Z</time></trkpt><trkpt lat="43.846228131221956" lon="12.177641177754843"><ele>610.0</ele><time>2026-04-20T10:39:58Z</time></trkpt><trkpt lat="43.84613003763498" lon="12.17772889609103"><ele>610.0</ele><time>2026-04-20T10:39:59Z</time></trkpt><trkpt lat="43.84614151169378" lon="12.177996657904712"><ele>610.0</ele><time>2026-04-20T10:40:00Z</time></trkpt><trkpt lat="43.84605868952782" lon="12.178105612730088"><ele>611.25</ele><time>2026-04-20T10:40:01Z</time></trkpt><trkpt lat="43.84593662485749" lon="12.178210142861188"><ele>612.5</ele><time>2026-04-20T10:40:02Z</time></trkpt><trkpt lat="43.84581951634952" lon="12.17834836581681"><ele>613.75</ele><time>2026-04-20T10:40:03Z</time></trkpt><trkpt lat="43.845730960510615" lon="12.178518432868511"><ele>615.0</ele><time>2026-04-20T10:40:04Z</time></trkpt><trkpt lat="43.84567544788955" lon="12.178681415174085"><ele>615.0</ele><time>2026-04-20T10:40:05Z</time></trkpt><trkpt lat="43.845641043663974" lon="12.178840527985626"><ele>615.0</ele><time>2026-04-20T10:40:06Z</time></trkpt><trkpt lat="43.845589334290636" lon="12.178944919624378"><ele>615.0</ele><time>2026-04-20T10:40:07Z</time></trkpt><trkpt lat="43.84555863601709" lon="12.179025466718686"><ele>615.0</ele><time>2026-04-20T10:40:08Z</time></trkpt><trkpt lat="43.84543097290618" lon="12.17900367276161"><ele>615.0</ele><time>2026-04-20T10:40:10Z</time></trkpt><trkpt lat="43.84537008418405" lon="12.178952751780619"><ele>615.0</ele><time>2026-04-20T10:40:11Z</time></trkpt><trkpt lat="43.84526653832871" lon="12.178893866636711"><ele>615.0</ele><time>2026-04-20T10:40:12Z</time></trkpt><trkpt lat="43.84515892166619" lon="12.178829889232762"><ele>615.0</ele><time>2026-04-20T10:40:13Z</time></trkpt><trkpt lat="43.8450479500873" lon="12.178822463655006"><ele>615.0</ele><time>2026-04-20T10:40:14Z</time></trkpt><trkpt lat="43.8449319372062" lon="12.178843486577755"><ele>615.0</ele><time>2026-04-20T10:40:15Z</time></trkpt><trkpt lat="43.844794169659416" lon="12.178903249159623"><ele>615.0</ele><time>2026-04-20T10:40:16Z</time></trkpt><trkpt lat="43.844649987400075" lon="12.178974534122434"><ele>615.0</ele><time>2026-04-20T10:40:17Z</time></trkpt><trkpt lat="43.84451499290267" lon="12.179052105552005"><ele>615.0</ele><time>2026-04-20T10:40:18Z</time></trkpt><trkpt lat="43.844389994971976" lon="12.17914060236241"><ele>617.0</ele><time>2026-04-20T10:40:19Z</time></trkpt><trkpt lat="43.844270305618316" lon="12.179227450883142"><ele>619.0</ele><time>2026-04-20T10:40:20Z</time></trkpt><trkpt lat="43.84414200326213" lon="12.17926765854948"><ele>621.0</ele><time>2026-04-20T10:40:21Z</time></trkpt><trkpt lat="43.84401201882097" lon="12.179304992827907"><ele>623.0</ele><time>2026-04-20T10:40:22Z</time></trkpt><trkpt lat="43.8438728295114" lon="12.17932494078496"><ele>623.0</ele><time>2026-04-20T10:40:23.001Z</time></trkpt><trkpt lat="43.8437292898865" lon="12.179320645217658"><ele>623.0</ele><time>2026-04-20T10:40:24.001Z</time></trkpt><trkpt lat="43.84357818098989" lon="12.179300050690713"><ele>623.0</ele><time>2026-04-20T10:40:25.001Z</time></trkpt><trkpt lat="43.84344120500983" lon="12.179276436663512"><ele>623.0</ele><time>2026-04-20T10:40:26.001Z</time></trkpt><trkpt lat="43.8433261465566" lon="12.179275415311619"><ele>625.75</ele><time>2026-04-20T10:40:27.001Z</time></trkpt><trkpt lat="43.84320773311004" lon="12.179339402576177"><ele>628.5</ele><time>2026-04-20T10:40:28.001Z</time></trkpt><trkpt lat="43.84312586617259" lon="12.17945370012559"><ele>631.25</ele><time>2026-04-20T10:40:29.001Z</time></trkpt><trkpt lat="43.843019923096676" lon="12.1795582276848"><ele>634.0</ele><time>2026-04-20T10:40:30.001Z</time></trkpt><trkpt lat="43.8428927712643" lon="12.17959540350904"><ele>634.0</ele><time>2026-04-20T10:40:31.001Z</time></trkpt><trkpt lat="43.842755564856375" lon="12.179597443180137"><ele>634.0</ele><time>2026-04-20T10:40:32.001Z</time></trkpt><trkpt lat="43.842639227490224" lon="12.179642751212947"><ele>634.0</ele><time>2026-04-20T10:40:33.001Z</time></trkpt><trkpt lat="43.842556850831556" lon="12.179738770638078"><ele>634.0</ele><time>2026-04-20T10:40:34.001Z</time></trkpt><trkpt lat="43.84249309190422" lon="12.179855843865024"><ele>632.0</ele><time>2026-04-20T10:40:35.001Z</time></trkpt><trkpt lat="43.84242581013306" lon="12.179925391688537"><ele>630.0</ele><time>2026-04-20T10:40:36.001Z</time></trkpt><trkpt lat="43.84236003387263" lon="12.179966603713734"><ele>628.0</ele><time>2026-04-20T10:40:37.001Z</time></trkpt><trkpt lat="43.84227923710526" lon="12.180007691308676"><ele>626.0</ele><time>2026-04-20T10:40:38.001Z</time></trkpt><trkpt lat="43.84216424080831" lon="12.179982781186574"><ele>624.0</ele><time>2026-04-20T10:40:39.001Z</time></trkpt><trkpt lat="43.842055637893445" lon="12.179868303271547"><ele>626.2</ele><time>2026-04-20T10:40:40.001Z</time></trkpt><trkpt lat="43.84194190884759" lon="12.17979634133299"><ele>628.4</ele><time>2026-04-20T10:40:41.001Z</time></trkpt><trkpt lat="43.841846598858154" lon="12.179764755142639"><ele>630.6</ele><time>2026-04-20T10:40:42.001Z</time></trkpt><trkpt lat="43.84176031733426" lon="12.179759325144168"><ele>632.8</ele><time>2026-04-20T10:40:43.001Z</time></trkpt><trkpt lat="43.8416749760194" lon="12.179820941398152"><ele>635.0</ele><time>2026-04-20T10:40:44.001Z</time></trkpt><trkpt lat="43.84161569620847" lon="12.179940377706792"><ele>635.0</ele><time>2026-04-20T10:40:45.001Z</time></trkpt><trkpt lat="43.8415707186122" lon="12.180053646639225"><ele>635.0</ele><time>2026-04-20T10:40:46.001Z</time></trkpt><trkpt lat="43.841519898269844" lon="12.18018671549942"><ele>635.0</ele><time>2026-04-20T10:40:47.001Z</time></trkpt><trkpt lat="43.84146859280173" lon="12.180319548209477"><ele>635.0</ele><time>2026-04-20T10:40:48.001Z</time></trkpt><trkpt lat="43.841398568908154" lon="12.180495060305914"><ele>630.5</ele><time>2026-04-20T10:40:49.001Z</time></trkpt><trkpt lat="43.841321170500876" lon="12.180694165076819"><ele>626.0</ele><time>2026-04-20T10:40:50.001Z</time></trkpt><trkpt lat="43.84127256294681" lon="12.180880693435459"><ele>621.5</ele><time>2026-04-20T10:40:51.001Z</time></trkpt><trkpt lat="43.84120678188451" lon="12.181029995080905"><ele>617.0</ele><time>2026-04-20T10:40:52.001Z</time></trkpt><trkpt lat="43.8411573806111" lon="12.181177403627755"><ele>617.0</ele><time>2026-04-20T10:40:53.001Z</time></trkpt><trkpt lat="43.8411061427916" lon="12.181293105426727"><ele>617.0</ele><time>2026-04-20T10:40:54.001Z</time></trkpt><trkpt lat="43.8410341358442" lon="12.181369932424463"><ele>617.0</ele><time>2026-04-20T10:40:55.001Z</time></trkpt><trkpt lat="43.84097570033441" lon="12.181444887407112"><ele>617.0</ele><time>2026-04-20T10:40:56.001Z</time></trkpt><trkpt lat="43.840875366531" lon="12.181437886776015"><ele>617.0</ele><time>2026-04-20T10:40:57.001Z</time></trkpt><trkpt lat="43.84077428211918" lon="12.181445566206943"><ele>623.75</ele><time>2026-04-20T10:40:58.001Z</time></trkpt><trkpt lat="43.84065212938902" lon="12.181418900879185"><ele>630.5</ele><time>2026-04-20T10:40:59.001Z</time></trkpt><trkpt lat="43.84051190675058" lon="12.181391896939216"><ele>637.25</ele><time>2026-04-20T10:41:00.001Z</time></trkpt><trkpt lat="43.84036803727395" lon="12.181346064310054"><ele>644.0</ele><time>2026-04-20T10:41:01.001Z</time></trkpt><trkpt lat="43.84021162780011" lon="12.181359327860111"><ele>640.3333333333333</ele><time>2026-04-20T10:41:02.001Z</time></trkpt><trkpt lat="43.84006205505224" lon="12.181404997778525"><ele>636.6666666666666</ele><time>2026-04-20T10:41:03.001Z</time></trkpt><trkpt lat="43.8399160678975" lon="12.181485144881657"><ele>633.0</ele><time>2026-04-20T10:41:04.001Z</time></trkpt><trkpt lat="43.839782314571345" lon="12.181583520672119"><ele>633.0</ele><time>2026-04-20T10:41:05.001Z</time></trkpt><trkpt lat="43.83964573059494" lon="12.181643159892333"><ele>633.0</ele><time>2026-04-20T10:41:06.001Z</time></trkpt><trkpt lat="43.839508226768146" lon="12.181726462873112"><ele>633.0</ele><time>2026-04-20T10:41:07.001Z</time></trkpt><trkpt lat="43.83937634287912" lon="12.181815800017135"><ele>633.0</ele><time>2026-04-20T10:41:08.001Z</time></trkpt><trkpt lat="43.83928453300192" lon="12.181910404656502"><ele>635.2</ele><time>2026-04-20T10:41:09.001Z</time></trkpt><trkpt lat="43.839216165418364" lon="12.182017860142565"><ele>637.4</ele><time>2026-04-20T10:41:10.001Z</time></trkpt><trkpt lat="43.839170626797554" lon="12.182114014262156"><ele>639.6</ele><time>2026-04-20T10:41:11.001Z</time></trkpt><trkpt lat="43.83915823858196" lon="12.182268152239425"><ele>641.8000000000001</ele><time>2026-04-20T10:41:12.001Z</time></trkpt><trkpt lat="43.839197958308795" lon="12.182407604631438"><ele>644.0</ele><time>2026-04-20T10:41:13.001Z</time></trkpt><trkpt lat="43.83921536901606" lon="12.182522782398442"><ele>644.0</ele><time>2026-04-20T10:41:14.001Z</time></trkpt><trkpt lat="43.839189274779876" lon="12.18262028261623"><ele>644.0</ele><time>2026-04-20T10:41:15.001Z</time></trkpt><trkpt lat="43.83912624330934" lon="12.182682760663994"><ele>644.0</ele><time>2026-04-20T10:41:16.001Z</time></trkpt><trkpt lat="43.839007484221014" lon="12.182665875783794"><ele>644.0</ele><time>2026-04-20T10:41:17.001Z</time></trkpt><trkpt lat="43.83890080496306" lon="12.182742967226769"><ele>644.0</ele><time>2026-04-20T10:41:18.001Z</time></trkpt><trkpt lat="43.838806351691375" lon="12.182850321351177"><ele>644.0</ele><time>2026-04-20T10:41:19.001Z</time></trkpt><trkpt lat="43.838734259918674" lon="12.182945526240015"><ele>644.0</ele><time>2026-04-20T10:41:20.001Z</time></trkpt><trkpt lat="43.838602647297606" lon="12.183077348964076"><ele>644.0</ele><time>2026-04-20T10:41:22.001Z</time></trkpt><trkpt lat="43.83854472569582" lon="12.183130741941726"><ele>644.0</ele><time>2026-04-20T10:41:23.001Z</time></trkpt><trkpt lat="43.83845544390167" lon="12.183181717144295"><ele>644.0</ele><time>2026-04-20T10:41:25.001Z</time></trkpt><trkpt lat="43.83836994522687" lon="12.183024977229906"><ele>644.0</ele><time>2026-04-20T10:41:26.001Z</time></trkpt><trkpt lat="43.838313505976274" lon="12.182938779326518"><ele>644.0</ele><time>2026-04-20T10:41:27.001Z</time></trkpt><trkpt lat="43.83827592940762" lon="12.182848937650858"><ele>644.0</ele><time>2026-04-20T10:41:28.001Z</time></trkpt><trkpt lat="43.838298735606365" lon="12.1827440931822"><ele>644.0</ele><time>2026-04-20T10:41:29.001Z</time></trkpt><trkpt lat="43.83836352505337" lon="12.18267075056534"><ele>644.0</ele><time>2026-04-20T10:41:30.001Z</time></trkpt><trkpt lat="43.838456161607986" lon="12.182691972855094"><ele>644.0</ele><time>2026-04-20T10:41:31.001Z</time></trkpt><trkpt lat="43.83854664061327" lon="12.182656817545222"><ele>644.0</ele><time>2026-04-20T10:41:32.001Z</time></trkpt><trkpt lat="43.838622141745965" lon="12.182634097853096"><ele>644.0</ele><time>2026-04-20T10:41:33.001Z</time></trkpt><trkpt lat="43.83865797102449" lon="12.1825434332572"><ele>644.0</ele><time>2026-04-20T10:41:34.001Z</time></trkpt><trkpt lat="43.83862581288701" lon="12.18244968643916"><ele>644.0</ele><time>2026-04-20T10:41:35.001Z</time></trkpt><trkpt lat="43.83857716430609" lon="12.182375185880106"><ele>644.0</ele><time>2026-04-20T10:41:36.001Z</time></trkpt><trkpt lat="43.83850369951706" lon="12.182303772730176"><ele>644.0</ele><time>2026-04-20T10:41:37.001Z</time></trkpt><trkpt lat="43.838423974758626" lon="12.182198211587584"><ele>652.5</ele><time>2026-04-20T10:41:38.001Z</time></trkpt><trkpt lat="43.8383097917062" lon="12.18210537507807"><ele>661.0</ele><time>2026-04-20T10:41:39.001Z</time></trkpt><trkpt lat="43.83819272328829" lon="12.182064352424797"><ele>669.5</ele><time>2026-04-20T10:41:40.001Z</time></trkpt><trkpt lat="43.838098861701184" lon="12.181995263205275"><ele>678.0</ele><time>2026-04-20T10:41:41.001Z</time></trkpt><trkpt lat="43.83800810757174" lon="12.181978188698094"><ele>678.0</ele><time>2026-04-20T10:41:42.001Z</time></trkpt><trkpt lat="43.83791911444559" lon="12.181935276403664"><ele>678.0</ele><time>2026-04-20T10:41:43.001Z</time></trkpt><trkpt lat="43.83783414103977" lon="12.181889923792841"><ele>678.0</ele><time>2026-04-20T10:41:44.001Z</time></trkpt><trkpt lat="43.837749858845726" lon="12.181820820495131"><ele>678.0</ele><time>2026-04-20T10:41:45.001Z</time></trkpt><trkpt lat="43.83766727540323" lon="12.181739744433111"><ele>678.0</ele><time>2026-04-20T10:41:46.001Z</time></trkpt><trkpt lat="43.837578168974865" lon="12.181666536907088"><ele>676.5</ele><time>2026-04-20T10:41:47.001Z</time></trkpt><trkpt lat="43.837483980106846" lon="12.181582007045938"><ele>675.0</ele><time>2026-04-20T10:41:48.001Z</time></trkpt><trkpt lat="43.83740750174013" lon="12.181456166504493"><ele>673.5</ele><time>2026-04-20T10:41:49.001Z</time></trkpt><trkpt lat="43.837317918916064" lon="12.181346409137337"><ele>672.0</ele><time>2026-04-20T10:41:50.001Z</time></trkpt><trkpt lat="43.837212702584715" lon="12.181245001752385"><ele>677.0</ele><time>2026-04-20T10:41:51.001Z</time></trkpt><trkpt lat="43.837079376795245" lon="12.181172584553746"><ele>682.0</ele><time>2026-04-20T10:41:52.001Z</time></trkpt><trkpt lat="43.836975352373805" lon="12.18108273274114"><ele>687.0</ele><time>2026-04-20T10:41:53.001Z</time></trkpt><trkpt lat="43.83691742323164" lon="12.18095835666266"><ele>692.0</ele><time>2026-04-20T10:41:54.001Z</time></trkpt><trkpt lat="43.8368853802899" lon="12.180819104345169"><ele>692.0</ele><time>2026-04-20T10:41:55.001Z</time></trkpt><trkpt lat="43.83681782007655" lon="12.18071432530387"><ele>692.0</ele><time>2026-04-20T10:41:56.001Z</time></trkpt><trkpt lat="43.836702640144495" lon="12.18067568783134"><ele>692.0</ele><time>2026-04-20T10:41:57.001Z</time></trkpt><trkpt lat="43.83658292310157" lon="12.180664869204595"><ele>692.0</ele><time>2026-04-20T10:41:58.001Z</time></trkpt><trkpt lat="43.83646755360462" lon="12.180680709539093"><ele>687.75</ele><time>2026-04-20T10:41:59.001Z</time></trkpt><trkpt lat="43.83635387466823" lon="12.18071788323114"><ele>683.5</ele><time>2026-04-20T10:42:00.001Z</time></trkpt><trkpt lat="43.83626192309366" lon="12.180845042863384"><ele>679.25</ele><time>2026-04-20T10:42:01.001Z</time></trkpt><trkpt lat="43.83616595052284" lon="12.180932850134665"><ele>675.0</ele><time>2026-04-20T10:42:02.001Z</time></trkpt><trkpt lat="43.836052596298586" lon="12.180915693995681"><ele>676.25</ele><time>2026-04-20T10:42:03.001Z</time></trkpt><trkpt lat="43.83592972464029" lon="12.180925195472904"><ele>677.5</ele><time>2026-04-20T10:42:04.001Z</time></trkpt><trkpt lat="43.83578545050157" lon="12.180939536698435"><ele>678.75</ele><time>2026-04-20T10:42:05.001Z</time></trkpt><trkpt lat="43.83563769358744" lon="12.180943693207714"><ele>680.0</ele><time>2026-04-20T10:42:06.001Z</time></trkpt><trkpt lat="43.835492138558855" lon="12.18093815116726"><ele>680.0</ele><time>2026-04-20T10:42:07.001Z</time></trkpt><trkpt lat="43.83535217171049" lon="12.18091103383926"><ele>680.0</ele><time>2026-04-20T10:42:08.001Z</time></trkpt><trkpt lat="43.83522310689821" lon="12.180851596011424"><ele>680.0</ele><time>2026-04-20T10:42:09.001Z</time></trkpt><trkpt lat="43.83510205038963" lon="12.180751071529745"><ele>680.0</ele><time>2026-04-20T10:42:10.001Z</time></trkpt><trkpt lat="43.834977620944905" lon="12.180630092746723"><ele>686.6666666666666</ele><time>2026-04-20T10:42:11.001Z</time></trkpt><trkpt lat="43.83485076472984" lon="12.180481039593733"><ele>693.3333333333334</ele><time>2026-04-20T10:42:12.001Z</time></trkpt><trkpt lat="43.83470673784723" lon="12.180371680769875"><ele>700.0</ele><time>2026-04-20T10:42:13.001Z</time></trkpt><trkpt lat="43.83459382237934" lon="12.180204405326434"><ele>700.0</ele><time>2026-04-20T10:42:14.001Z</time></trkpt><trkpt lat="43.834485238363676" lon="12.180051075649793"><ele>700.0</ele><time>2026-04-20T10:42:15.001Z</time></trkpt><trkpt lat="43.83440597671807" lon="12.179908152754606"><ele>700.0</ele><time>2026-04-20T10:42:16.001Z</time></trkpt><trkpt lat="43.83435226543056" lon="12.179756652011095"><ele>700.0</ele><time>2026-04-20T10:42:17.001Z</time></trkpt><trkpt lat="43.83430710593834" lon="12.17961044525631"><ele>702.25</ele><time>2026-04-20T10:42:18.001Z</time></trkpt><trkpt lat="43.834308065710836" lon="12.179468303194193"><ele>704.5</ele><time>2026-04-20T10:42:19.001Z</time></trkpt><trkpt lat="43.834327200616485" lon="12.179331277331773"><ele>706.75</ele><time>2026-04-20T10:42:20.001Z</time></trkpt><trkpt lat="43.834364301892215" lon="12.179167149354754"><ele>709.0</ele><time>2026-04-20T10:42:21.001Z</time></trkpt><trkpt lat="43.834421015511765" lon="12.178995420264437"><ele>709.0</ele><time>2026-04-20T10:42:22.001Z</time></trkpt><trkpt lat="43.83450284380195" lon="12.178846254497866"><ele>709.0</ele><time>2026-04-20T10:42:23.001Z</time></trkpt><trkpt lat="43.83462559679068" lon="12.178737709600274"><ele>709.0</ele><time>2026-04-20T10:42:24.001Z</time></trkpt><trkpt lat="43.83474882572441" lon="12.178632609445994"><ele>709.0</ele><time>2026-04-20T10:42:25.001Z</time></trkpt><trkpt lat="43.834825475355416" lon="12.178511619537462"><ele>709.0</ele><time>2026-04-20T10:42:26.001Z</time></trkpt><trkpt lat="43.83489798957327" lon="12.178397363101709"><ele>709.0</ele><time>2026-04-20T10:42:27.001Z</time></trkpt><trkpt lat="43.83491167332053" lon="12.178222329818539"><ele>709.0</ele><time>2026-04-20T10:42:28.001Z</time></trkpt><trkpt lat="43.834917966060566" lon="12.178068072449072"><ele>709.0</ele><time>2026-04-20T10:42:29.001Z</time></trkpt><trkpt lat="43.83491433813258" lon="12.177915834029573"><ele>712.0</ele><time>2026-04-20T10:42:30.001Z</time></trkpt><trkpt lat="43.83484202560503" lon="12.177780577603"><ele>715.0</ele><time>2026-04-20T10:42:31.001Z</time></trkpt><trkpt lat="43.83476889544833" lon="12.177643944056692"><ele>718.0</ele><time>2026-04-20T10:42:32.001Z</time></trkpt><trkpt lat="43.83468129702649" lon="12.177500184958108"><ele>721.0</ele><time>2026-04-20T10:42:33.001Z</time></trkpt><trkpt lat="43.83457785137027" lon="12.17736411957712"><ele>721.75</ele><time>2026-04-20T10:42:34.001Z</time></trkpt><trkpt lat="43.83445908245944" lon="12.177243583770764"><ele>722.5</ele><time>2026-04-20T10:42:35.001Z</time></trkpt><trkpt lat="43.83433583435407" lon="12.17714046404183"><ele>723.25</ele><time>2026-04-20T10:42:36.001Z</time></trkpt><trkpt lat="43.83420565556026" lon="12.17703663553836"><ele>724.0</ele><time>2026-04-20T10:42:37.001Z</time></trkpt><trkpt lat="43.834081403602234" lon="12.176927890666017"><ele>724.0</ele><time>2026-04-20T10:42:38.001Z</time></trkpt><trkpt lat="43.83397509807806" lon="12.176799883591867"><ele>724.0</ele><time>2026-04-20T10:42:39.001Z</time></trkpt><trkpt lat="43.83389350030697" lon="12.17665899050228"><ele>724.0</ele><time>2026-04-20T10:42:40.001Z</time></trkpt><trkpt lat="43.83378237625591" lon="12.176539927998364"><ele>724.0</ele><time>2026-04-20T10:42:41.001Z</time></trkpt><trkpt lat="43.833673037928655" lon="12.176423140965703"><ele>726.6</ele><time>2026-04-20T10:42:42.001Z</time></trkpt><trkpt lat="43.83358672340763" lon="12.176305523824107"><ele>729.2</ele><time>2026-04-20T10:42:43.001Z</time></trkpt><trkpt lat="43.83350879831534" lon="12.176191008536051"><ele>731.8000000000001</ele><time>2026-04-20T10:42:44.001Z</time></trkpt><trkpt lat="43.833429599456466" lon="12.17608882284971"><ele>734.4000000000001</ele><time>2026-04-20T10:42:45.001Z</time></trkpt><trkpt lat="43.83336307267148" lon="12.176002100670761"><ele>737.0</ele><time>2026-04-20T10:42:46.001Z</time></trkpt><trkpt lat="43.833309994405276" lon="12.175913819645494"><ele>731.6</ele><time>2026-04-20T10:42:47.001Z</time></trkpt><trkpt lat="43.83326512523503" lon="12.17583396826491"><ele>726.2</ele><time>2026-04-20T10:42:48.001Z</time></trkpt><trkpt lat="43.83328151565927" lon="12.175711800999037"><ele>720.8</ele><time>2026-04-20T10:42:49.001Z</time></trkpt><trkpt lat="43.83335212606826" lon="12.175581060054098"><ele>715.4</ele><time>2026-04-20T10:42:50.001Z</time></trkpt><trkpt lat="43.83338182663215" lon="12.17541305461538"><ele>710.0</ele><time>2026-04-20T10:42:51.001Z</time></trkpt><trkpt lat="43.833416179580496" lon="12.175248748180497"><ele>709.5</ele><time>2026-04-20T10:42:52.001Z</time></trkpt><trkpt lat="43.83338353213276" lon="12.17506459552783"><ele>709.0</ele><time>2026-04-20T10:42:53.001Z</time></trkpt><trkpt lat="43.83339637459838" lon="12.174884950914695"><ele>708.5</ele><time>2026-04-20T10:42:54.001Z</time></trkpt><trkpt lat="43.833422980349276" lon="12.17472502804531"><ele>708.0</ele><time>2026-04-20T10:42:55.001Z</time></trkpt><trkpt lat="43.83348653759327" lon="12.174576813668812"><ele>706.75</ele><time>2026-04-20T10:42:56.001Z</time></trkpt><trkpt lat="43.833564743334954" lon="12.174414155943321"><ele>705.5</ele><time>2026-04-20T10:42:57.001Z</time></trkpt><trkpt lat="43.83361616332867" lon="12.174254765847756"><ele>704.25</ele><time>2026-04-20T10:42:58.001Z</time></trkpt><trkpt lat="43.8336623913442" lon="12.174132008765035"><ele>703.0</ele><time>2026-04-20T10:42:59.001Z</time></trkpt><trkpt lat="43.8337049568257" lon="12.17400047935804"><ele>703.0</ele><time>2026-04-20T10:43:00.001Z</time></trkpt><trkpt lat="43.83377238213517" lon="12.17387039532485"><ele>703.0</ele><time>2026-04-20T10:43:01.001Z</time></trkpt><trkpt lat="43.83386511897636" lon="12.17374885626208"><ele>703.0</ele><time>2026-04-20T10:43:02.001Z</time></trkpt><trkpt lat="43.833973595349306" lon="12.17363270897448"><ele>703.0</ele><time>2026-04-20T10:43:03.001Z</time></trkpt><trkpt lat="43.834104306236696" lon="12.173526207684848"><ele>703.0</ele><time>2026-04-20T10:43:04.001Z</time></trkpt><trkpt lat="43.83424572313053" lon="12.173468026511634"><ele>703.0</ele><time>2026-04-20T10:43:05.001Z</time></trkpt><trkpt lat="43.834380751416695" lon="12.173399968590958"><ele>703.0</ele><time>2026-04-20T10:43:06.001Z</time></trkpt><trkpt lat="43.834524872488366" lon="12.173425658837681"><ele>703.0</ele><time>2026-04-20T10:43:07.001Z</time></trkpt><trkpt lat="43.83465651309356" lon="12.173437022121263"><ele>702.25</ele><time>2026-04-20T10:43:08.001Z</time></trkpt><trkpt lat="43.83477140315963" lon="12.173393847841922"><ele>701.5</ele><time>2026-04-20T10:43:09.001Z</time></trkpt><trkpt lat="43.83484725863709" lon="12.173278780562109"><ele>700.75</ele><time>2026-04-20T10:43:10.001Z</time></trkpt><trkpt lat="43.8349365167409" lon="12.173165445636988"><ele>700.0</ele><time>2026-04-20T10:43:11.001Z</time></trkpt><trkpt lat="43.835032969269285" lon="12.173079536601644"><ele>700.0</ele><time>2026-04-20T10:43:12.001Z</time></trkpt><trkpt lat="43.83510666209954" lon="12.173057532423488"><ele>700.0</ele><time>2026-04-20T10:43:13.001Z</time></trkpt><trkpt lat="43.835209358656236" lon="12.173144598305113"><ele>700.0</ele><time>2026-04-20T10:43:14.001Z</time></trkpt><trkpt lat="43.83535391982697" lon="12.173186586154879"><ele>700.0</ele><time>2026-04-20T10:43:15.001Z</time></trkpt><trkpt lat="43.83552235202681" lon="12.17319044397291"><ele>704.75</ele><time>2026-04-20T10:43:16.001Z</time></trkpt><trkpt lat="43.83567310382015" lon="12.173194561708067"><ele>709.5</ele><time>2026-04-20T10:43:17.001Z</time></trkpt><trkpt lat="43.83579256775145" lon="12.173172824443173"><ele>714.25</ele><time>2026-04-20T10:43:18.001Z</time></trkpt><trkpt lat="43.83590033872367" lon="12.173101496988215"><ele>719.0</ele><time>2026-04-20T10:43:19.001Z</time></trkpt><trkpt lat="43.83599482407115" lon="12.172968298326616"><ele>725.3333333333333</ele><time>2026-04-20T10:43:20.001Z</time></trkpt><trkpt lat="43.836092090358676" lon="12.172801961754523"><ele>731.6666666666666</ele><time>2026-04-20T10:43:21.001Z</time></trkpt><trkpt lat="43.83622744426635" lon="12.172679228202764"><ele>738.0</ele><time>2026-04-20T10:43:22.001Z</time></trkpt><trkpt lat="43.836329000761566" lon="12.172521722111377"><ele>735.0</ele><time>2026-04-20T10:43:23.001Z</time></trkpt><trkpt lat="43.836399962426206" lon="12.172330541594192"><ele>732.0</ele><time>2026-04-20T10:43:24.001Z</time></trkpt><trkpt lat="43.836434462373866" lon="12.172139564423683"><ele>729.0</ele><time>2026-04-20T10:43:25.001Z</time></trkpt><trkpt lat="43.83647213001191" lon="12.17199906511632"><ele>726.0</ele><time>2026-04-20T10:43:26.001Z</time></trkpt><trkpt lat="43.83653919986393" lon="12.171920308122594"><ele>726.0</ele><time>2026-04-20T10:43:27.001Z</time></trkpt><trkpt lat="43.83663531810528" lon="12.171950794805674"><ele>726.0</ele><time>2026-04-20T10:43:28.001Z</time></trkpt><trkpt lat="43.836751211874166" lon="12.171929203265027"><ele>726.0</ele><time>2026-04-20T10:43:29.001Z</time></trkpt><trkpt lat="43.83688751763896" lon="12.17188141980667"><ele>726.0</ele><time>2026-04-20T10:43:30.001Z</time></trkpt><trkpt lat="43.837000014432505" lon="12.171746913157756"><ele>726.5</ele><time>2026-04-20T10:43:31.001Z</time></trkpt><trkpt lat="43.83710420859547" lon="12.171580362839443"><ele>727.0</ele><time>2026-04-20T10:43:32.001Z</time></trkpt><trkpt lat="43.83719373281656" lon="12.171412145001442"><ele>727.5</ele><time>2026-04-20T10:43:33.001Z</time></trkpt><trkpt lat="43.83731276584111" lon="12.171343506521024"><ele>728.0</ele><time>2026-04-20T10:43:34.001Z</time></trkpt><trkpt lat="43.837450095645075" lon="12.171341475889612"><ele>728.0</ele><time>2026-04-20T10:43:35.001Z</time></trkpt><trkpt lat="43.83761749608447" lon="12.171342399199917"><ele>728.0</ele><time>2026-04-20T10:43:36.001Z</time></trkpt><trkpt lat="43.83780301946734" lon="12.171320672091577"><ele>728.0</ele><time>2026-04-20T10:43:37.001Z</time></trkpt><trkpt lat="43.837988344832524" lon="12.171269273431184"><ele>732.25</ele><time>2026-04-20T10:43:38.001Z</time></trkpt><trkpt lat="43.83815768931387" lon="12.17123472876238"><ele>736.5</ele><time>2026-04-20T10:43:39.001Z</time></trkpt><trkpt lat="43.83829454699192" lon="12.17118911489018"><ele>740.75</ele><time>2026-04-20T10:43:40.001Z</time></trkpt><trkpt lat="43.838404474113105" lon="12.171115116143334"><ele>745.0</ele><time>2026-04-20T10:43:41.001Z</time></trkpt><trkpt lat="43.83847433464365" lon="12.170991128809458"><ele>746.0</ele><time>2026-04-20T10:43:42.001Z</time></trkpt><trkpt lat="43.838506497636175" lon="12.170858892392769"><ele>747.0</ele><time>2026-04-20T10:43:43.001Z</time></trkpt><trkpt lat="43.83848269938475" lon="12.170734108214317"><ele>748.0</ele><time>2026-04-20T10:43:44.001Z</time></trkpt><trkpt lat="43.83842814616988" lon="12.170626064419046"><ele>749.0</ele><time>2026-04-20T10:43:45.001Z</time></trkpt><trkpt lat="43.83833551699113" lon="12.170509567387093"><ele>750.0</ele><time>2026-04-20T10:43:46.001Z</time></trkpt><trkpt lat="43.8382749615275" lon="12.17038015953268"><ele>750.0</ele><time>2026-04-20T10:43:47.001Z</time></trkpt><trkpt lat="43.838286381419564" lon="12.170256716652398"><ele>750.0</ele><time>2026-04-20T10:43:48.001Z</time></trkpt><trkpt lat="43.8383658551367" lon="12.170158308171915"><ele>750.0</ele><time>2026-04-20T10:43:49.001Z</time></trkpt><trkpt lat="43.83844300758783" lon="12.170003932263432"><ele>750.0</ele><time>2026-04-20T10:43:50.001Z</time></trkpt><trkpt lat="43.838507191776344" lon="12.169849871109735"><ele>754.2</ele><time>2026-04-20T10:43:51.001Z</time></trkpt><trkpt lat="43.838534261129226" lon="12.16970376995606"><ele>758.4</ele><time>2026-04-20T10:43:52.001Z</time></trkpt><trkpt lat="43.83853932480685" lon="12.169583105938637"><ele>762.5999999999999</ele><time>2026-04-20T10:43:53.001Z</time></trkpt><trkpt lat="43.83850148868589" lon="12.169485806960147"><ele>766.8</ele><time>2026-04-20T10:43:54.001Z</time></trkpt><trkpt lat="43.83842944418544" lon="12.169401653419445"><ele>771.0</ele><time>2026-04-20T10:43:55.001Z</time></trkpt><trkpt lat="43.83831809101929" lon="12.1693422780638"><ele>771.0</ele><time>2026-04-20T10:43:56.001Z</time></trkpt><trkpt lat="43.838173978809756" lon="12.16931860206546"><ele>771.0</ele><time>2026-04-20T10:43:57.001Z</time></trkpt><trkpt lat="43.83800405971768" lon="12.16936556782708"><ele>771.0</ele><time>2026-04-20T10:43:58.001Z</time></trkpt><trkpt lat="43.837889595536524" lon="12.169379220795319"><ele>771.0</ele><time>2026-04-20T10:43:59.001Z</time></trkpt><trkpt lat="43.83781346435085" lon="12.169345578923771"><ele>771.0</ele><time>2026-04-20T10:44:00.001Z</time></trkpt><trkpt lat="43.83777645252652" lon="12.169213894683486"><ele>771.0</ele><time>2026-04-20T10:44:01.001Z</time></trkpt><trkpt lat="43.83768400725393" lon="12.169123856738965"><ele>771.0</ele><time>2026-04-20T10:44:02.001Z</time></trkpt><trkpt lat="43.837589288096765" lon="12.169083700564592"><ele>771.0</ele><time>2026-04-20T10:44:03.001Z</time></trkpt><trkpt lat="43.837485285272116" lon="12.169096037606048"><ele>771.0</ele><time>2026-04-20T10:44:04.001Z</time></trkpt><trkpt lat="43.83736493344436" lon="12.169115178821686"><ele>768.1999999999999</ele><time>2026-04-20T10:44:05.001Z</time></trkpt><trkpt lat="43.837262879099" lon="12.16908357732486"><ele>765.4</ele><time>2026-04-20T10:44:06.001Z</time></trkpt><trkpt lat="43.83719506131125" lon="12.168994660351178"><ele>762.6</ele><time>2026-04-20T10:44:07.001Z</time></trkpt><trkpt lat="43.83716827416894" lon="12.168834099829006"><ele>759.8</ele><time>2026-04-20T10:44:08.001Z</time></trkpt><trkpt lat="43.83706631821951" lon="12.168735809607318"><ele>757.0</ele><time>2026-04-20T10:44:09.001Z</time></trkpt><trkpt lat="43.83695043263337" lon="12.168669987716733"><ele>755.8</ele><time>2026-04-20T10:44:10.001Z</time></trkpt><trkpt lat="43.83685609199606" lon="12.16860006665867"><ele>754.6</ele><time>2026-04-20T10:44:11.001Z</time></trkpt><trkpt lat="43.836800048392206" lon="12.168534571152879"><ele>753.4</ele><time>2026-04-20T10:44:12.001Z</time></trkpt><trkpt lat="43.8367633466346" lon="12.168462230309839"><ele>752.1999999999999</ele><time>2026-04-20T10:44:13.001Z</time></trkpt><trkpt lat="43.83679259255194" lon="12.16833383495279"><ele>751.0</ele><time>2026-04-20T10:44:14.001Z</time></trkpt><trkpt lat="43.83685469171312" lon="12.168177305814098"><ele>758.5999999999999</ele><time>2026-04-20T10:44:15.001Z</time></trkpt><trkpt lat="43.83691972570856" lon="12.168012618548346"><ele>766.2</ele><time>2026-04-20T10:44:16.001Z</time></trkpt><trkpt lat="43.83696479988823" lon="12.167863852774188"><ele>773.8</ele><time>2026-04-20T10:44:17.001Z</time></trkpt><trkpt lat="43.83697525262833" lon="12.167734420395822"><ele>781.4000000000001</ele><time>2026-04-20T10:44:18.001Z</time></trkpt><trkpt lat="43.83693234913515" lon="12.16763129764301"><ele>789.0</ele><time>2026-04-20T10:44:19.001Z</time></trkpt><trkpt lat="43.83686076521203" lon="12.167539351431055"><ele>783.25</ele><time>2026-04-20T10:44:20.001Z</time></trkpt><trkpt lat="43.836765831108735" lon="12.167483309312555"><ele>777.5</ele><time>2026-04-20T10:44:21.001Z</time></trkpt><trkpt lat="43.83664086677342" lon="12.167453376886472"><ele>771.75</ele><time>2026-04-20T10:44:22.001Z</time></trkpt><trkpt lat="43.83651171082693" lon="12.16744807117943"><ele>766.0</ele><time>2026-04-20T10:44:23.001Z</time></trkpt><trkpt lat="43.836385440391524" lon="12.167410212796709"><ele>773.8</ele><time>2026-04-20T10:44:24.001Z</time></trkpt><trkpt lat="43.83628695546842" lon="12.167337764703012"><ele>781.5999999999999</ele><time>2026-04-20T10:44:25.001Z</time></trkpt><trkpt lat="43.83619929419796" lon="12.167250739684548"><ele>789.4</ele><time>2026-04-20T10:44:26.001Z</time></trkpt><trkpt lat="43.83610161756553" lon="12.167211371076592"><ele>797.2</ele><time>2026-04-20T10:44:27.001Z</time></trkpt><trkpt lat="43.83599670405121" lon="12.167225200863953"><ele>805.0</ele><time>2026-04-20T10:44:28.001Z</time></trkpt><trkpt lat="43.83589178284674" lon="12.167312901424758"><ele>795.75</ele><time>2026-04-20T10:44:29.001Z</time></trkpt><trkpt lat="43.835786800934606" lon="12.167436177721678"><ele>786.5</ele><time>2026-04-20T10:44:30.001Z</time></trkpt><trkpt lat="43.835663126007304" lon="12.167565046756902"><ele>777.25</ele><time>2026-04-20T10:44:31.001Z</time></trkpt><trkpt lat="43.83553578845823" lon="12.167671396808"><ele>768.0</ele><time>2026-04-20T10:44:32.001Z</time></trkpt><trkpt lat="43.83540694679557" lon="12.167766966217469"><ele>768.0</ele><time>2026-04-20T10:44:33.001Z</time></trkpt><trkpt lat="43.83530356382312" lon="12.167852113086473"><ele>768.0</ele><time>2026-04-20T10:44:34.001Z</time></trkpt><trkpt lat="43.835232564628704" lon="12.167980864461263"><ele>768.0</ele><time>2026-04-20T10:44:35.001Z</time></trkpt><trkpt lat="43.835195005283275" lon="12.16816278740809"><ele>768.0</ele><time>2026-04-20T10:44:36.001Z</time></trkpt><trkpt lat="43.835135999802375" lon="12.168336946207129"><ele>768.5999999999999</ele><time>2026-04-20T10:44:37.001Z</time></trkpt><trkpt lat="43.83507560860784" lon="12.168481766140163"><ele>769.1999999999999</ele><time>2026-04-20T10:44:38.001Z</time></trkpt><trkpt lat="43.83500639754479" lon="12.16859532240268"><ele>769.8</ele><time>2026-04-20T10:44:39.001Z</time></trkpt><trkpt lat="43.83492455801133" lon="12.168643466646609"><ele>770.4</ele><time>2026-04-20T10:44:40.001Z</time></trkpt><trkpt lat="43.834851098265645" lon="12.16861711910735"><ele>771.0</ele><time>2026-04-20T10:44:41.001Z</time></trkpt><trkpt lat="43.834771564858634" lon="12.168566071726891"><ele>771.0</ele><time>2026-04-20T10:44:42.001Z</time></trkpt><trkpt lat="43.83467049545834" lon="12.168434316609169"><ele>771.0</ele><time>2026-04-20T10:44:43.001Z</time></trkpt><trkpt lat="43.83452939739079" lon="12.168368677205304"><ele>771.0</ele><time>2026-04-20T10:44:44.001Z</time></trkpt><trkpt lat="43.83438214893102" lon="12.168382615374128"><ele>771.0</ele><time>2026-04-20T10:44:45.001Z</time></trkpt><trkpt lat="43.83423080562077" lon="12.168321332247366"><ele>771.75</ele><time>2026-04-20T10:44:46.001Z</time></trkpt><trkpt lat="43.83410026170004" lon="12.168235393533621"><ele>772.5</ele><time>2026-04-20T10:44:47.001Z</time></trkpt><trkpt lat="43.833968582669144" lon="12.168169360778574"><ele>773.25</ele><time>2026-04-20T10:44:48.001Z</time></trkpt><trkpt lat="43.83384919751204" lon="12.168067889019538"><ele>774.0</ele><time>2026-04-20T10:44:49.001Z</time></trkpt><trkpt lat="43.83373634290477" lon="12.16798344356191"><ele>776.0</ele><time>2026-04-20T10:44:50.001Z</time></trkpt><trkpt lat="43.83365897036264" lon="12.167862053870488"><ele>778.0</ele><time>2026-04-20T10:44:51.001Z</time></trkpt><trkpt lat="43.833505837572034" lon="12.167652853920448"><ele>780.0</ele><time>2026-04-20T10:44:53.001Z</time></trkpt><trkpt lat="43.83343788914224" lon="12.167570223121196"><ele>782.0</ele><time>2026-04-20T10:44:54.001Z</time></trkpt><trkpt lat="43.83341686149839" lon="12.167456039524074"><ele>783.6</ele><time>2026-04-20T10:44:55.001Z</time></trkpt><trkpt lat="43.833429887079156" lon="12.16733824895646"><ele>785.2</ele><time>2026-04-20T10:44:56.001Z</time></trkpt><trkpt lat="43.83346847417178" lon="12.16721349401777"><ele>786.8</ele><time>2026-04-20T10:44:57.001Z</time></trkpt><trkpt lat="43.83353738688001" lon="12.167084012716208"><ele>788.4</ele><time>2026-04-20T10:44:58.001Z</time></trkpt><trkpt lat="43.83357614888737" lon="12.166928645924829"><ele>790.0</ele><time>2026-04-20T10:44:59.001Z</time></trkpt><trkpt lat="43.833608389851506" lon="12.166792903657784"><ele>794.25</ele><time>2026-04-20T10:45:00.001Z</time></trkpt><trkpt lat="43.833622695114" lon="12.1666521549682"><ele>798.5</ele><time>2026-04-20T10:45:01.001Z</time></trkpt><trkpt lat="43.833543817581" lon="12.166522499674134"><ele>802.75</ele><time>2026-04-20T10:45:02.001Z</time></trkpt><trkpt lat="43.8334553948522" lon="12.166417549444413"><ele>807.0</ele><time>2026-04-20T10:45:03.001Z</time></trkpt><trkpt lat="43.8333869843131" lon="12.166289632323233"><ele>807.0</ele><time>2026-04-20T10:45:04.001Z</time></trkpt><trkpt lat="43.83332877335541" lon="12.166171273479545"><ele>807.0</ele><time>2026-04-20T10:45:05.001Z</time></trkpt><trkpt lat="43.83333984820437" lon="12.166041150358422"><ele>807.0</ele><time>2026-04-20T10:45:06.001Z</time></trkpt><trkpt lat="43.83334739342747" lon="12.165865909909721"><ele>807.0</ele><time>2026-04-20T10:45:07.001Z</time></trkpt><trkpt lat="43.833347552215294" lon="12.165671256930453"><ele>812.0</ele><time>2026-04-20T10:45:08.001Z</time></trkpt><trkpt lat="43.83333789734544" lon="12.16549885049715"><ele>817.0</ele><time>2026-04-20T10:45:09.001Z</time></trkpt><trkpt lat="43.83328113930196" lon="12.165358882606538"><ele>822.0</ele><time>2026-04-20T10:45:10.001Z</time></trkpt><trkpt lat="43.83320249362437" lon="12.165250595505256"><ele>827.0</ele><time>2026-04-20T10:45:11.001Z</time></trkpt><trkpt lat="43.83308465607904" lon="12.165247484058598"><ele>827.0</ele><time>2026-04-20T10:45:12.001Z</time></trkpt><trkpt lat="43.833021382197266" lon="12.165200703293007"><ele>827.0</ele><time>2026-04-20T10:45:13.001Z</time></trkpt><trkpt lat="43.8329661698918" lon="12.16507737184282"><ele>827.0</ele><time>2026-04-20T10:45:15.001Z</time></trkpt><trkpt lat="43.83302339992654" lon="12.164964726194356"><ele>827.0</ele><time>2026-04-20T10:45:16.001Z</time></trkpt><trkpt lat="43.83308813453286" lon="12.16486050591066"><ele>827.0</ele><time>2026-04-20T10:45:17.001Z</time></trkpt><trkpt lat="43.83310364455728" lon="12.164745721664396"><ele>829.0</ele><time>2026-04-20T10:45:18.001Z</time></trkpt><trkpt lat="43.833064005353556" lon="12.164613833250902"><ele>831.0</ele><time>2026-04-20T10:45:19.001Z</time></trkpt><trkpt lat="43.832955304502754" lon="12.164550972544413"><ele>833.0</ele><time>2026-04-20T10:45:20.001Z</time></trkpt><trkpt lat="43.832885181749795" lon="12.16447808980091"><ele>835.0</ele><time>2026-04-20T10:45:21.001Z</time></trkpt><trkpt lat="43.83283049706068" lon="12.164395449302484"><ele>837.0</ele><time>2026-04-20T10:45:22.001Z</time></trkpt><trkpt lat="43.83282578715203" lon="12.164287479892655"><ele>837.0</ele><time>2026-04-20T10:45:23.001Z</time></trkpt><trkpt lat="43.832833292121286" lon="12.164169929989514"><ele>837.0</ele><time>2026-04-20T10:45:24.001Z</time></trkpt><trkpt lat="43.83284767212817" lon="12.164040512539364"><ele>837.0</ele><time>2026-04-20T10:45:25.001Z</time></trkpt><trkpt lat="43.832835902707416" lon="12.16391245137498"><ele>837.0</ele><time>2026-04-20T10:45:26.001Z</time></trkpt><trkpt lat="43.83274767847167" lon="12.163839137960522"><ele>837.0</ele><time>2026-04-20T10:45:27.001Z</time></trkpt><trkpt lat="43.83265251989381" lon="12.163788820304642"><ele>837.25</ele><time>2026-04-20T10:45:28.001Z</time></trkpt><trkpt lat="43.83252258773374" lon="12.163741013711293"><ele>837.5</ele><time>2026-04-20T10:45:29.001Z</time></trkpt><trkpt lat="43.83242459359399" lon="12.163627549091574"><ele>837.75</ele><time>2026-04-20T10:45:30.001Z</time></trkpt><trkpt lat="43.83233894254408" lon="12.163514955650415"><ele>838.0</ele><time>2026-04-20T10:45:31.001Z</time></trkpt><trkpt lat="43.83226775355341" lon="12.163383197481743"><ele>838.0</ele><time>2026-04-20T10:45:32.001Z</time></trkpt><trkpt lat="43.83220802217014" lon="12.163243828040889"><ele>838.0</ele><time>2026-04-20T10:45:33.001Z</time></trkpt><trkpt lat="43.83215303510644" lon="12.163121938928633"><ele>838.0</ele><time>2026-04-20T10:45:34.001Z</time></trkpt><trkpt lat="43.83209045183351" lon="12.163034224182935"><ele>838.0</ele><time>2026-04-20T10:45:35.001Z</time></trkpt><trkpt lat="43.83199837441036" lon="12.162980608960982"><ele>838.0</ele><time>2026-04-20T10:45:36.001Z</time></trkpt><trkpt lat="43.83189383478495" lon="12.163018013398435"><ele>839.0</ele><time>2026-04-20T10:45:37.001Z</time></trkpt><trkpt lat="43.831784535462035" lon="12.16304431116347"><ele>840.0</ele><time>2026-04-20T10:45:38.001Z</time></trkpt><trkpt lat="43.83167151755921" lon="12.163115818459104"><ele>841.0</ele><time>2026-04-20T10:45:39.001Z</time></trkpt><trkpt lat="43.83158031841547" lon="12.163215958919736"><ele>842.0</ele><time>2026-04-20T10:45:40.001Z</time></trkpt><trkpt lat="43.831504472080965" lon="12.163311272483446"><ele>842.0</ele><time>2026-04-20T10:45:41.001Z</time></trkpt><trkpt lat="43.83142024268765" lon="12.1633411760233"><ele>842.0</ele><time>2026-04-20T10:45:42.001Z</time></trkpt><trkpt lat="43.83132420910021" lon="12.163354643541306"><ele>842.0</ele><time>2026-04-20T10:45:43.001Z</time></trkpt><trkpt lat="43.831219621886305" lon="12.163340244274096"><ele>842.0</ele><time>2026-04-20T10:45:44.001Z</time></trkpt><trkpt lat="43.831120377640914" lon="12.163287127331031"><ele>842.0</ele><time>2026-04-20T10:45:45.001Z</time></trkpt><trkpt lat="43.83101150257328" lon="12.163226599883526"><ele>857.3333333333334</ele><time>2026-04-20T10:45:46.001Z</time></trkpt><trkpt lat="43.83072978628695" lon="12.163102460688068"><ele>872.6666666666667</ele><time>2026-04-20T10:45:48.001Z</time></trkpt><trkpt lat="43.830595191623004" lon="12.163033811298881"><ele>888.0</ele><time>2026-04-20T10:45:49.001Z</time></trkpt><trkpt lat="43.83045749409586" lon="12.162966572983768"><ele>888.0</ele><time>2026-04-20T10:45:50.001Z</time></trkpt><trkpt lat="43.830307126685085" lon="12.162898759737667"><ele>888.0</ele><time>2026-04-20T10:45:51.001Z</time></trkpt><trkpt lat="43.83016928764718" lon="12.162807771538484"><ele>888.0</ele><time>2026-04-20T10:45:52.001Z</time></trkpt><trkpt lat="43.830050755060086" lon="12.162739983055834"><ele>888.0</ele><time>2026-04-20T10:45:53.001Z</time></trkpt><trkpt lat="43.829941532461326" lon="12.162686314236032"><ele>886.8</ele><time>2026-04-20T10:45:54.001Z</time></trkpt><trkpt lat="43.82985003590501" lon="12.162665928756669"><ele>885.5999999999999</ele><time>2026-04-20T10:45:55.001Z</time></trkpt><trkpt lat="43.82976519904427" lon="12.162679620815329"><ele>884.4000000000001</ele><time>2026-04-20T10:45:56.001Z</time></trkpt><trkpt lat="43.829678162320874" lon="12.162721178486462"><ele>883.2</ele><time>2026-04-20T10:45:57.001Z</time></trkpt><trkpt lat="43.82957714133752" lon="12.162804673588472"><ele>882.0</ele><time>2026-04-20T10:45:58.001Z</time></trkpt><trkpt lat="43.82950882560731" lon="12.162851237741519"><ele>882.0</ele><time>2026-04-20T10:45:59.001Z</time></trkpt><trkpt lat="43.82946600158274" lon="12.162784551431598"><ele>882.0</ele><time>2026-04-20T10:46:02.001Z</time></trkpt><trkpt lat="43.82943953495407" lon="12.162695491882069"><ele>882.0</ele><time>2026-04-20T10:46:03Z</time></trkpt><trkpt lat="43.82946246732991" lon="12.162550511377773"><ele>882.0</ele><time>2026-04-20T10:46:04Z</time></trkpt><trkpt lat="43.82944755601211" lon="12.16240540417591"><ele>882.0</ele><time>2026-04-20T10:46:05Z</time></trkpt><trkpt lat="43.82940139474236" lon="12.162237632608587"><ele>883.25</ele><time>2026-04-20T10:46:06Z</time></trkpt><trkpt lat="43.82930714267496" lon="12.16211409547345"><ele>884.5</ele><time>2026-04-20T10:46:07Z</time></trkpt><trkpt lat="43.829223738285734" lon="12.161983332834154"><ele>885.75</ele><time>2026-04-20T10:46:08Z</time></trkpt><trkpt lat="43.82918495744648" lon="12.161840485890858"><ele>887.0</ele><time>2026-04-20T10:46:09Z</time></trkpt><trkpt lat="43.82919547356481" lon="12.1616943296919"><ele>887.0</ele><time>2026-04-20T10:46:10Z</time></trkpt><trkpt lat="43.829147545836605" lon="12.161585495527916"><ele>887.0</ele><time>2026-04-20T10:46:11Z</time></trkpt><trkpt lat="43.82904315404145" lon="12.161533825540491"><ele>887.0</ele><time>2026-04-20T10:46:12Z</time></trkpt><trkpt lat="43.82892836541083" lon="12.161502296043377"><ele>887.0</ele><time>2026-04-20T10:46:13Z</time></trkpt><trkpt lat="43.828808802253036" lon="12.161485076604333"><ele>887.0</ele><time>2026-04-20T10:46:14Z</time></trkpt><trkpt lat="43.82868820265525" lon="12.161487018720942"><ele>886.75</ele><time>2026-04-20T10:46:15Z</time></trkpt><trkpt lat="43.82857002604796" lon="12.161506214518255"><ele>886.5</ele><time>2026-04-20T10:46:16Z</time></trkpt><trkpt lat="43.82847091411223" lon="12.161510688149363"><ele>886.25</ele><time>2026-04-20T10:46:17Z</time></trkpt><trkpt lat="43.82838479473438" lon="12.161519780967103"><ele>886.0</ele><time>2026-04-20T10:46:18Z</time></trkpt><trkpt lat="43.828240921953196" lon="12.161487852403567"><ele>886.0</ele><time>2026-04-20T10:46:20Z</time></trkpt><trkpt lat="43.828163679369894" lon="12.161451778443089"><ele>885.9999999999999</ele><time>2026-04-20T10:46:21Z</time></trkpt><trkpt lat="43.82806674016641" lon="12.161394873859637"><ele>885.9999999999999</ele><time>2026-04-20T10:46:22Z</time></trkpt><trkpt lat="43.827958157551585" lon="12.161336227452608"><ele>886.0</ele><time>2026-04-20T10:46:23Z</time></trkpt><trkpt lat="43.82785078383409" lon="12.161284764190349"><ele>886.0</ele><time>2026-04-20T10:46:24Z</time></trkpt><trkpt lat="43.827773727148944" lon="12.161225693627385"><ele>886.0</ele><time>2026-04-20T10:46:25Z</time></trkpt><trkpt lat="43.82770202346778" lon="12.161123574646096"><ele>886.0</ele><time>2026-04-20T10:46:26Z</time></trkpt><trkpt lat="43.82763177753981" lon="12.16099112270226"><ele>886.0</ele><time>2026-04-20T10:46:27Z</time></trkpt><trkpt lat="43.82754728937231" lon="12.160857666254149"><ele>886.0</ele><time>2026-04-20T10:46:28Z</time></trkpt><trkpt lat="43.82745780604119" lon="12.160747000036052"><ele>883.25</ele><time>2026-04-20T10:46:29Z</time></trkpt><trkpt lat="43.827350404293306" lon="12.160650240432956"><ele>880.5</ele><time>2026-04-20T10:46:30Z</time></trkpt><trkpt lat="43.82723513332554" lon="12.160535696686846"><ele>877.75</ele><time>2026-04-20T10:46:31Z</time></trkpt><trkpt lat="43.82715339517326" lon="12.160388630522535"><ele>875.0</ele><time>2026-04-20T10:46:32Z</time></trkpt><trkpt lat="43.82707296135118" lon="12.160251855930653"><ele>875.0</ele><time>2026-04-20T10:46:33Z</time></trkpt><trkpt lat="43.827004089931755" lon="12.16014937194806"><ele>875.0</ele><time>2026-04-20T10:46:34Z</time></trkpt><trkpt lat="43.82692429492836" lon="12.160073931842758"><ele>875.0</ele><time>2026-04-20T10:46:35Z</time></trkpt><trkpt lat="43.82682853588875" lon="12.16003961947856"><ele>875.0</ele><time>2026-04-20T10:46:36Z</time></trkpt><trkpt lat="43.82672320492433" lon="12.160040126365157"><ele>875.0</ele><time>2026-04-20T10:46:37Z</time></trkpt><trkpt lat="43.826607825848704" lon="12.160084540661188"><ele>879.0</ele><time>2026-04-20T10:46:38Z</time></trkpt><trkpt lat="43.826496397283954" lon="12.160161181242733"><ele>883.0</ele><time>2026-04-20T10:46:39Z</time></trkpt><trkpt lat="43.82638184456268" lon="12.160236501047958"><ele>887.0</ele><time>2026-04-20T10:46:40Z</time></trkpt><trkpt lat="43.82627272540462" lon="12.16032990355944"><ele>891.0</ele><time>2026-04-20T10:46:41Z</time></trkpt><trkpt lat="43.82614684665706" lon="12.16033955781202"><ele>891.0</ele><time>2026-04-20T10:46:42Z</time></trkpt><trkpt lat="43.82601695820831" lon="12.160362449931348"><ele>891.0</ele><time>2026-04-20T10:46:43Z</time></trkpt><trkpt lat="43.825896262107435" lon="12.160382173205743"><ele>891.0</ele><time>2026-04-20T10:46:44Z</time></trkpt><trkpt lat="43.82576723831099" lon="12.160419551217913"><ele>891.0</ele><time>2026-04-20T10:46:45Z</time></trkpt><trkpt lat="43.82561900315906" lon="12.160440243223327"><ele>893.25</ele><time>2026-04-20T10:46:46Z</time></trkpt><trkpt lat="43.82548471251649" lon="12.160413292262492"><ele>895.5</ele><time>2026-04-20T10:46:47Z</time></trkpt><trkpt lat="43.82534870834375" lon="12.160398717670217"><ele>897.75</ele><time>2026-04-20T10:46:48Z</time></trkpt><trkpt lat="43.8252303039175" lon="12.160363078057928"><ele>900.0</ele><time>2026-04-20T10:46:49Z</time></trkpt><trkpt lat="43.825119415799215" lon="12.160329223400169"><ele>902.25</ele><time>2026-04-20T10:46:50Z</time></trkpt><trkpt lat="43.825015682329756" lon="12.160270770010357"><ele>904.5</ele><time>2026-04-20T10:46:51Z</time></trkpt><trkpt lat="43.824914134048576" lon="12.160206887197589"><ele>906.75</ele><time>2026-04-20T10:46:52Z</time></trkpt><trkpt lat="43.82481628025024" lon="12.160134098113554"><ele>909.0</ele><time>2026-04-20T10:46:53Z</time></trkpt><trkpt lat="43.82471719737571" lon="12.160047941069204"><ele>909.0</ele><time>2026-04-20T10:46:54Z</time></trkpt><trkpt lat="43.824628231383805" lon="12.159931193346784"><ele>909.0</ele><time>2026-04-20T10:46:55Z</time></trkpt><trkpt lat="43.82456843103759" lon="12.159779653182925"><ele>909.0</ele><time>2026-04-20T10:46:56Z</time></trkpt><trkpt lat="43.82451523408516" lon="12.159638586239307"><ele>909.0</ele><time>2026-04-20T10:46:57Z</time></trkpt><trkpt lat="43.824471776822016" lon="12.15952831949802"><ele>906.2</ele><time>2026-04-20T10:46:58Z</time></trkpt><trkpt lat="43.82444878708898" lon="12.159428124608494"><ele>903.4000000000001</ele><time>2026-04-20T10:46:59Z</time></trkpt><trkpt lat="43.82446252666699" lon="12.159293047806768"><ele>900.6</ele><time>2026-04-20T10:47:00Z</time></trkpt><trkpt lat="43.82447040766354" lon="12.159095028534106"><ele>897.8</ele><time>2026-04-20T10:47:01Z</time></trkpt><trkpt lat="43.82447272315487" lon="12.158929580728708"><ele>895.0</ele><time>2026-04-20T10:47:02Z</time></trkpt><trkpt lat="43.82445487855077" lon="12.158812149462486"><ele>892.8</ele><time>2026-04-20T10:47:03Z</time></trkpt><trkpt lat="43.82441346023458" lon="12.158717291732815"><ele>890.6</ele><time>2026-04-20T10:47:04Z</time></trkpt><trkpt lat="43.82434627906511" lon="12.158637514262466"><ele>888.4000000000001</ele><time>2026-04-20T10:47:05Z</time></trkpt><trkpt lat="43.824248858142056" lon="12.158572721099457"><ele>886.2</ele><time>2026-04-20T10:47:06Z</time></trkpt><trkpt lat="43.8241389982534" lon="12.158537807674326"><ele>884.0</ele><time>2026-04-20T10:47:07Z</time></trkpt><trkpt lat="43.82403280361551" lon="12.15851988687576"><ele>890.5</ele><time>2026-04-20T10:47:08Z</time></trkpt><trkpt lat="43.82394164287038" lon="12.158549512868968"><ele>897.0</ele><time>2026-04-20T10:47:09Z</time></trkpt><trkpt lat="43.82384493661697" lon="12.158621980874482"><ele>903.5</ele><time>2026-04-20T10:47:10Z</time></trkpt><trkpt lat="43.82374448231317" lon="12.158738490443183"><ele>910.0</ele><time>2026-04-20T10:47:11Z</time></trkpt><trkpt lat="43.82364729662373" lon="12.158850490154483"><ele>910.0</ele><time>2026-04-20T10:47:12Z</time></trkpt><trkpt lat="43.82355192686056" lon="12.158887421974635"><ele>910.0</ele><time>2026-04-20T10:47:13Z</time></trkpt><trkpt lat="43.82345410619474" lon="12.158923905332365"><ele>910.0</ele><time>2026-04-20T10:47:14Z</time></trkpt><trkpt lat="43.823338593321566" lon="12.158871627989535"><ele>910.0</ele><time>2026-04-20T10:47:15Z</time></trkpt><trkpt lat="43.823106842371864" lon="12.15874279484165"><ele>910.0</ele><time>2026-04-20T10:47:17Z</time></trkpt><trkpt lat="43.82300071511094" lon="12.158673263831005"><ele>910.0</ele><time>2026-04-20T10:47:18Z</time></trkpt><trkpt lat="43.822917917471884" lon="12.158577663159411"><ele>910.0</ele><time>2026-04-20T10:47:19Z</time></trkpt><trkpt lat="43.82281949463657" lon="12.15845622436122"><ele>910.0</ele><time>2026-04-20T10:47:20Z</time></trkpt><trkpt lat="43.82270510021826" lon="12.158319799976772"><ele>915.0</ele><time>2026-04-20T10:47:21Z</time></trkpt><trkpt lat="43.82257648770652" lon="12.158179491144583"><ele>920.0</ele><time>2026-04-20T10:47:22Z</time></trkpt><trkpt lat="43.82232845622575" lon="12.157892796475762"><ele>920.0</ele><time>2026-04-20T10:47:24Z</time></trkpt><trkpt lat="43.82221996872462" lon="12.157791930474898"><ele>920.0</ele><time>2026-04-20T10:47:25Z</time></trkpt><trkpt lat="43.82211411174778" lon="12.157689268384285"><ele>920.0</ele><time>2026-04-20T10:47:26Z</time></trkpt><trkpt lat="43.82201849717411" lon="12.157598055175589"><ele>920.0</ele><time>2026-04-20T10:47:27Z</time></trkpt><trkpt lat="43.82194335732461" lon="12.157480792279072"><ele>921.0</ele><time>2026-04-20T10:47:28Z</time></trkpt><trkpt lat="43.82187355492791" lon="12.157334383423159"><ele>922.0</ele><time>2026-04-20T10:47:29Z</time></trkpt><trkpt lat="43.82179216612661" lon="12.157171192066736"><ele>923.0</ele><time>2026-04-20T10:47:30Z</time></trkpt><trkpt lat="43.821698768902685" lon="12.157024896763131"><ele>924.0</ele><time>2026-04-20T10:47:31Z</time></trkpt><trkpt lat="43.821611209933465" lon="12.1568716081324"><ele>929.0</ele><time>2026-04-20T10:47:32Z</time></trkpt><trkpt lat="43.82150159310533" lon="12.156725104171642"><ele>934.0</ele><time>2026-04-20T10:47:33Z</time></trkpt><trkpt lat="43.821408235789505" lon="12.156616185290613"><ele>939.0</ele><time>2026-04-20T10:47:34Z</time></trkpt><trkpt lat="43.82131637523211" lon="12.156538408041879"><ele>944.0</ele><time>2026-04-20T10:47:35Z</time></trkpt><trkpt lat="43.821216771819685" lon="12.156408527594296"><ele>945.75</ele><time>2026-04-20T10:47:36Z</time></trkpt><trkpt lat="43.82111220712227" lon="12.156300663890242"><ele>947.5</ele><time>2026-04-20T10:47:37Z</time></trkpt><trkpt lat="43.820980524270965" lon="12.156267693723017"><ele>949.25</ele><time>2026-04-20T10:47:38Z</time></trkpt><trkpt lat="43.82085706274552" lon="12.15623697700775"><ele>951.0</ele><time>2026-04-20T10:47:39Z</time></trkpt><trkpt lat="43.82075194443211" lon="12.156213048484497"><ele>951.0</ele><time>2026-04-20T10:47:40Z</time></trkpt><trkpt lat="43.82063777411332" lon="12.15614372557573"><ele>951.0</ele><time>2026-04-20T10:47:41Z</time></trkpt><trkpt lat="43.82052065019129" lon="12.15608762123294"><ele>951.0</ele><time>2026-04-20T10:47:42Z</time></trkpt><trkpt lat="43.82040561085597" lon="12.15603250875958"><ele>951.0</ele><time>2026-04-20T10:47:43Z</time></trkpt><trkpt lat="43.82028033512421" lon="12.15597912600556"><ele>951.0</ele><time>2026-04-20T10:47:44Z</time></trkpt><trkpt lat="43.820165040883246" lon="12.155917032406283"><ele>951.0</ele><time>2026-04-20T10:47:45Z</time></trkpt><trkpt lat="43.82004896160343" lon="12.155837299112797"><ele>951.0</ele><time>2026-04-20T10:47:46Z</time></trkpt><trkpt lat="43.81993322782389" lon="12.15574955953891"><ele>951.0</ele><time>2026-04-20T10:47:47Z</time></trkpt><trkpt lat="43.81982313317697" lon="12.15567270777835"><ele>947.0</ele><time>2026-04-20T10:47:48Z</time></trkpt><trkpt lat="43.81972557074269" lon="12.155605687570116"><ele>942.9999999999999</ele><time>2026-04-20T10:47:49Z</time></trkpt><trkpt lat="43.819630930525506" lon="12.155550736585136"><ele>938.9999999999999</ele><time>2026-04-20T10:47:50Z</time></trkpt><trkpt lat="43.81953306617481" lon="12.155496721995403"><ele>935.0</ele><time>2026-04-20T10:47:51Z</time></trkpt><trkpt lat="43.81943013737978" lon="12.155448716099725"><ele>931.0</ele><time>2026-04-20T10:47:52Z</time></trkpt><trkpt lat="43.819308964091455" lon="12.155412596323572"><ele>931.0</ele><time>2026-04-20T10:47:53Z</time></trkpt><trkpt lat="43.81919153481123" lon="12.155388515200531"><ele>931.0</ele><time>2026-04-20T10:47:54Z</time></trkpt><trkpt lat="43.81908046296608" lon="12.155363647753003"><ele>931.0</ele><time>2026-04-20T10:47:55Z</time></trkpt><trkpt lat="43.818977363258945" lon="12.155324283236231"><ele>931.0</ele><time>2026-04-20T10:47:56Z</time></trkpt><trkpt lat="43.8188770920772" lon="12.155249646976738"><ele>931.0</ele><time>2026-04-20T10:47:57Z</time></trkpt><trkpt lat="43.818791005810894" lon="12.155124174818141"><ele>931.0</ele><time>2026-04-20T10:47:58Z</time></trkpt><trkpt lat="43.81870244921571" lon="12.154992968919203"><ele>931.0</ele><time>2026-04-20T10:47:59Z</time></trkpt><trkpt lat="43.818629562552054" lon="12.154861954771583"><ele>931.0</ele><time>2026-04-20T10:48:00Z</time></trkpt><trkpt lat="43.81854712405078" lon="12.154731512056884"><ele>929.75</ele><time>2026-04-20T10:48:01Z</time></trkpt><trkpt lat="43.81847019630525" lon="12.154584161850659"><ele>928.5</ele><time>2026-04-20T10:48:02Z</time></trkpt><trkpt lat="43.818397686766474" lon="12.154442905513868"><ele>927.25</ele><time>2026-04-20T10:48:03Z</time></trkpt><trkpt lat="43.81833966366234" lon="12.154319239598982"><ele>926.0</ele><time>2026-04-20T10:48:04Z</time></trkpt><trkpt lat="43.818296859696105" lon="12.154198952474472"><ele>926.0000000000001</ele><time>2026-04-20T10:48:05Z</time></trkpt><trkpt lat="43.81827135818943" lon="12.154077911510447"><ele>926.0</ele><time>2026-04-20T10:48:06Z</time></trkpt><trkpt lat="43.81827025695414" lon="12.153957955062513"><ele>926.0</ele><time>2026-04-20T10:48:07Z</time></trkpt><trkpt lat="43.81825495007921" lon="12.15384392840582"><ele>926.0</ele><time>2026-04-20T10:48:08Z</time></trkpt><trkpt lat="43.81820973064195" lon="12.153745318321013"><ele>926.0000000000001</ele><time>2026-04-20T10:48:09Z</time></trkpt><trkpt lat="43.81815806937614" lon="12.15368799351796"><ele>926.0</ele><time>2026-04-20T10:48:10Z</time></trkpt><trkpt lat="43.81807360100046" lon="12.153614167836556"><ele>924.0</ele><time>2026-04-20T10:48:11Z</time></trkpt><trkpt lat="43.81799482446673" lon="12.153537489905101"><ele>921.9999999999999</ele><time>2026-04-20T10:48:12Z</time></trkpt><trkpt lat="43.81794666241646" lon="12.15344017581178"><ele>919.9999999999999</ele><time>2026-04-20T10:48:13Z</time></trkpt><trkpt lat="43.81793642339204" lon="12.153324879847522"><ele>918.0</ele><time>2026-04-20T10:48:14Z</time></trkpt><trkpt lat="43.81794616539346" lon="12.153168314745248"><ele>916.0</ele><time>2026-04-20T10:48:15Z</time></trkpt><trkpt lat="43.817945472706306" lon="12.15300012899213"><ele>914.8</ele><time>2026-04-20T10:48:16Z</time></trkpt><trkpt lat="43.81793796188927" lon="12.152878796794356"><ele>913.5999999999999</ele><time>2026-04-20T10:48:17Z</time></trkpt><trkpt lat="43.81786717696141" lon="12.152742246042935"><ele>912.4</ele><time>2026-04-20T10:48:19Z</time></trkpt><trkpt lat="43.817781639447965" lon="12.15274908950336"><ele>911.2</ele><time>2026-04-20T10:48:20Z</time></trkpt><trkpt lat="43.81770132309269" lon="12.15278877316493"><ele>910.0</ele><time>2026-04-20T10:48:21Z</time></trkpt><trkpt lat="43.817645988090064" lon="12.152857050700888"><ele>910.0</ele><time>2026-04-20T10:48:22Z</time></trkpt><trkpt lat="43.8176212266024" lon="12.152948123444546"><ele>910.0</ele><time>2026-04-20T10:48:23Z</time></trkpt><trkpt lat="43.817623816461165" lon="12.15307445536919"><ele>910.0</ele><time>2026-04-20T10:48:24Z</time></trkpt><trkpt lat="43.817633074397236" lon="12.153234525999906"><ele>910.0</ele><time>2026-04-20T10:48:25Z</time></trkpt><trkpt lat="43.81762601356659" lon="12.15336961484274"><ele>910.0</ele><time>2026-04-20T10:48:26Z</time></trkpt><trkpt lat="43.817565544185385" lon="12.153501014209874"><ele>911.0</ele><time>2026-04-20T10:48:27Z</time></trkpt><trkpt lat="43.81752613356031" lon="12.153647902017715"><ele>912.0</ele><time>2026-04-20T10:48:28Z</time></trkpt><trkpt lat="43.817496802027875" lon="12.153797568429255"><ele>913.0</ele><time>2026-04-20T10:48:29Z</time></trkpt><trkpt lat="43.81749625409898" lon="12.153961260173128"><ele>914.0</ele><time>2026-04-20T10:48:30Z</time></trkpt><trkpt lat="43.81751118874029" lon="12.15409651551765"><ele>915.0</ele><time>2026-04-20T10:48:31Z</time></trkpt><trkpt lat="43.81751336843721" lon="12.154216342278083"><ele>915.3333333333334</ele><time>2026-04-20T10:48:32Z</time></trkpt><trkpt lat="43.817510057045034" lon="12.154318540569857"><ele>915.6666666666667</ele><time>2026-04-20T10:48:33Z</time></trkpt><trkpt lat="43.81746665308261" lon="12.154396299286711"><ele>916.0</ele><time>2026-04-20T10:48:34Z</time></trkpt><trkpt lat="43.817416734126056" lon="12.154450568456417"><ele>916.3333333333334</ele><time>2026-04-20T10:48:35Z</time></trkpt><trkpt lat="43.81734488050858" lon="12.154468383689391"><ele>916.6666666666667</ele><time>2026-04-20T10:48:36Z</time></trkpt><trkpt lat="43.8172651808293" lon="12.1544881955685"><ele>917.0</ele><time>2026-04-20T10:48:37Z</time></trkpt><trkpt lat="43.817183288071774" lon="12.154407430571801"><ele>917.0</ele><time>2026-04-20T10:48:38Z</time></trkpt><trkpt lat="43.81709360781544" lon="12.154339487565908"><ele>917.0</ele><time>2026-04-20T10:48:39Z</time></trkpt><trkpt lat="43.81699067317452" lon="12.154216563625319"><ele>917.0</ele><time>2026-04-20T10:48:40Z</time></trkpt><trkpt lat="43.81687085787941" lon="12.154088067810138"><ele>917.0</ele><time>2026-04-20T10:48:41Z</time></trkpt><trkpt lat="43.81673981238552" lon="12.153951400506816"><ele>910.6666666666667</ele><time>2026-04-20T10:48:42Z</time></trkpt><trkpt lat="43.816594586590305" lon="12.153811883754098"><ele>904.3333333333333</ele><time>2026-04-20T10:48:43Z</time></trkpt><trkpt lat="43.81645286635587" lon="12.153676370537402"><ele>898.0</ele><time>2026-04-20T10:48:44Z</time></trkpt><trkpt lat="43.81633419500367" lon="12.15354073299334"><ele>898.0</ele><time>2026-04-20T10:48:45Z</time></trkpt><trkpt lat="43.816227779232314" lon="12.153425503383042"><ele>898.0</ele><time>2026-04-20T10:48:46Z</time></trkpt><trkpt lat="43.81614150540842" lon="12.153336421303107"><ele>898.0</ele><time>2026-04-20T10:48:47Z</time></trkpt><trkpt lat="43.81607837484539" lon="12.153232905595672"><ele>898.0</ele><time>2026-04-20T10:48:48Z</time></trkpt><trkpt lat="43.81604797387331" lon="12.15310622287897"><ele>898.0</ele><time>2026-04-20T10:48:49Z</time></trkpt><trkpt lat="43.81601368008422" lon="12.15293487980637"><ele>896.5</ele><time>2026-04-20T10:48:50Z</time></trkpt><trkpt lat="43.81597268063828" lon="12.152737770274609"><ele>895.0</ele><time>2026-04-20T10:48:51Z</time></trkpt><trkpt lat="43.81594047299511" lon="12.152550797507207"><ele>893.5</ele><time>2026-04-20T10:48:52Z</time></trkpt><trkpt lat="43.81592087062707" lon="12.152380545192905"><ele>892.0</ele><time>2026-04-20T10:48:53Z</time></trkpt><trkpt lat="43.81593614799472" lon="12.152216023503788"><ele>892.0</ele><time>2026-04-20T10:48:54Z</time></trkpt><trkpt lat="43.81594054357425" lon="12.152031299217317"><ele>892.0</ele><time>2026-04-20T10:48:55Z</time></trkpt><trkpt lat="43.8159519294701" lon="12.151848429914324"><ele>892.0</ele><time>2026-04-20T10:48:56Z</time></trkpt><trkpt lat="43.815977374208515" lon="12.15168950711031"><ele>892.0</ele><time>2026-04-20T10:48:57Z</time></trkpt><trkpt lat="43.81600395103022" lon="12.151546522058721"><ele>891.6</ele><time>2026-04-20T10:48:58Z</time></trkpt><trkpt lat="43.816016915687506" lon="12.151419016708155"><ele>891.2</ele><time>2026-04-20T10:48:59Z</time></trkpt><trkpt lat="43.81597981483575" lon="12.151305818082687"><ele>890.8</ele><time>2026-04-20T10:49:00Z</time></trkpt><trkpt lat="43.815929822572194" lon="12.15119212066776"><ele>890.4</ele><time>2026-04-20T10:49:01Z</time></trkpt><trkpt lat="43.81585019419827" lon="12.151060682948641"><ele>890.0</ele><time>2026-04-20T10:49:02Z</time></trkpt><trkpt lat="43.81580958043189" lon="12.1508927776467"><ele>890.0</ele><time>2026-04-20T10:49:03Z</time></trkpt><trkpt lat="43.815769548441565" lon="12.150714797121141"><ele>890.0</ele><time>2026-04-20T10:49:04Z</time></trkpt><trkpt lat="43.81573015853946" lon="12.1505587744564"><ele>890.0</ele><time>2026-04-20T10:49:05Z</time></trkpt><trkpt lat="43.81573507492582" lon="12.150425097960458"><ele>890.0</ele><time>2026-04-20T10:49:06Z</time></trkpt><trkpt lat="43.81572428744757" lon="12.150304921849765"><ele>890.0</ele><time>2026-04-20T10:49:07Z</time></trkpt><trkpt lat="43.81576897775288" lon="12.150175751955713"><ele>888.5000000000001</ele><time>2026-04-20T10:49:08Z</time></trkpt><trkpt lat="43.81585588715499" lon="12.150083453967314"><ele>887.0</ele><time>2026-04-20T10:49:09Z</time></trkpt><trkpt lat="43.815893132533354" lon="12.149964146537071"><ele>885.5</ele><time>2026-04-20T10:49:10Z</time></trkpt><trkpt lat="43.81592606409223" lon="12.149869377929168"><ele>884.0</ele><time>2026-04-20T10:49:11Z</time></trkpt><trkpt lat="43.815906763043" lon="12.149758255388509"><ele>882.5000000000001</ele><time>2026-04-20T10:49:12Z</time></trkpt><trkpt lat="43.81583682274099" lon="12.149692861691651"><ele>881.0</ele><time>2026-04-20T10:49:13Z</time></trkpt><trkpt lat="43.81575917922172" lon="12.149627011398897"><ele>879.4</ele><time>2026-04-20T10:49:14Z</time></trkpt><trkpt lat="43.81565154394958" lon="12.14954748300206"><ele>877.8</ele><time>2026-04-20T10:49:15Z</time></trkpt><trkpt lat="43.81557711710946" lon="12.149424959542632"><ele>876.1999999999999</ele><time>2026-04-20T10:49:16Z</time></trkpt><trkpt lat="43.81552902455716" lon="12.149304713562918"><ele>874.5999999999999</ele><time>2026-04-20T10:49:17Z</time></trkpt><trkpt lat="43.81552241795256" lon="12.149149495933361"><ele>873.0</ele><time>2026-04-20T10:49:18Z</time></trkpt><trkpt lat="43.81553361722137" lon="12.14894690592886"><ele>873.0</ele><time>2026-04-20T10:49:19Z</time></trkpt><trkpt lat="43.81554691891822" lon="12.148728449220492"><ele>873.0</ele><time>2026-04-20T10:49:20Z</time></trkpt><trkpt lat="43.815560781636506" lon="12.148528406888197"><ele>873.0</ele><time>2026-04-20T10:49:21Z</time></trkpt><trkpt lat="43.81557539424282" lon="12.148358758625612"><ele>873.0</ele><time>2026-04-20T10:49:22Z</time></trkpt><trkpt lat="43.81557589464212" lon="12.148204975106426"><ele>875.4</ele><time>2026-04-20T10:49:23Z</time></trkpt><trkpt lat="43.81559892719276" lon="12.148066776244125"><ele>877.8</ele><time>2026-04-20T10:49:24Z</time></trkpt><trkpt lat="43.8156265431601" lon="12.147946221659165"><ele>880.2</ele><time>2026-04-20T10:49:25Z</time></trkpt><trkpt lat="43.815690472766455" lon="12.147840690275759"><ele>882.6</ele><time>2026-04-20T10:49:26Z</time></trkpt><trkpt lat="43.81574810144538" lon="12.14770726769517"><ele>885.0</ele><time>2026-04-20T10:49:27Z</time></trkpt><trkpt lat="43.81582560653457" lon="12.14757395531559"><ele>885.0</ele><time>2026-04-20T10:49:28Z</time></trkpt><trkpt lat="43.81591189231124" lon="12.147451473081151"><ele>885.0</ele><time>2026-04-20T10:49:29Z</time></trkpt><trkpt lat="43.81600677841588" lon="12.147390390347802"><ele>885.0</ele><time>2026-04-20T10:49:30Z</time></trkpt><trkpt lat="43.81610290275585" lon="12.14738063715233"><ele>885.0</ele><time>2026-04-20T10:49:31Z</time></trkpt><trkpt lat="43.81620209651062" lon="12.147438731474752"><ele>885.0</ele><time>2026-04-20T10:49:32Z</time></trkpt><trkpt lat="43.816318142592586" lon="12.14749004503006"><ele>884.0</ele><time>2026-04-20T10:49:33Z</time></trkpt><trkpt lat="43.81643576756171" lon="12.147509938979708"><ele>883.0</ele><time>2026-04-20T10:49:34Z</time></trkpt><trkpt lat="43.81653770317899" lon="12.147531551169516"><ele>882.0</ele><time>2026-04-20T10:49:35Z</time></trkpt><trkpt lat="43.81662129050106" lon="12.14755139238879"><ele>881.0</ele><time>2026-04-20T10:49:36Z</time></trkpt><trkpt lat="43.81669290322196" lon="12.147487028076283"><ele>880.0</ele><time>2026-04-20T10:49:37Z</time></trkpt><trkpt lat="43.8167599195788" lon="12.14740714596504"><ele>876.0</ele><time>2026-04-20T10:49:38Z</time></trkpt><trkpt lat="43.81683957050346" lon="12.147306710147339"><ele>872.0</ele><time>2026-04-20T10:49:39.001Z</time></trkpt><trkpt lat="43.81687191558009" lon="12.147153385723188"><ele>868.0</ele><time>2026-04-20T10:49:40.001Z</time></trkpt><trkpt lat="43.81690261427467" lon="12.147022178516716"><ele>864.0</ele><time>2026-04-20T10:49:41.001Z</time></trkpt><trkpt lat="43.81689724332437" lon="12.14690310925614"><ele>860.0</ele><time>2026-04-20T10:49:42.001Z</time></trkpt><trkpt lat="43.81686607917417" lon="12.14678024086865"><ele>862.5</ele><time>2026-04-20T10:49:43.001Z</time></trkpt><trkpt lat="43.81680676148064" lon="12.14666260312689"><ele>865.0</ele><time>2026-04-20T10:49:44.001Z</time></trkpt><trkpt lat="43.816711774850894" lon="12.146539522150409"><ele>867.5</ele><time>2026-04-20T10:49:45.001Z</time></trkpt><trkpt lat="43.81661305031609" lon="12.146435876116222"><ele>870.0</ele><time>2026-04-20T10:49:46.001Z</time></trkpt><trkpt lat="43.81649979890299" lon="12.146358946985712"><ele>870.0</ele><time>2026-04-20T10:49:47.001Z</time></trkpt><trkpt lat="43.816363371421026" lon="12.14629901169277"><ele>870.0</ele><time>2026-04-20T10:49:48.001Z</time></trkpt><trkpt lat="43.81625890038467" lon="12.146204985332114"><ele>870.0</ele><time>2026-04-20T10:49:49.001Z</time></trkpt><trkpt lat="43.816167046133316" lon="12.146086666819928"><ele>870.0</ele><time>2026-04-20T10:49:50.001Z</time></trkpt><trkpt lat="43.816071634202224" lon="12.145950874287045"><ele>870.0</ele><time>2026-04-20T10:49:51.001Z</time></trkpt><trkpt lat="43.81599815649644" lon="12.145791596873755"><ele>870.0</ele><time>2026-04-20T10:49:52.001Z</time></trkpt><trkpt lat="43.81591954167277" lon="12.145643205057763"><ele>870.0</ele><time>2026-04-20T10:49:53.001Z</time></trkpt><trkpt lat="43.81582809673223" lon="12.145522162356018"><ele>870.0</ele><time>2026-04-20T10:49:54.001Z</time></trkpt><trkpt lat="43.81576324015151" lon="12.145412658027695"><ele>872.0</ele><time>2026-04-20T10:49:55.001Z</time></trkpt><trkpt lat="43.81577238689545" lon="12.14528019367146"><ele>874.0</ele><time>2026-04-20T10:49:56.001Z</time></trkpt><trkpt lat="43.81576587642135" lon="12.145135955859212"><ele>876.0</ele><time>2026-04-20T10:49:57.001Z</time></trkpt><trkpt lat="43.81574062562586" lon="12.145002640939065"><ele>878.0</ele><time>2026-04-20T10:49:58.001Z</time></trkpt><trkpt lat="43.81572828193169" lon="12.14486576741578"><ele>880.0</ele><time>2026-04-20T10:49:59.001Z</time></trkpt><trkpt lat="43.815705889230664" lon="12.144736259329477"><ele>880.6666666666666</ele><time>2026-04-20T10:50:00.001Z</time></trkpt><trkpt lat="43.815683910615924" lon="12.144623809913599"><ele>881.3333333333333</ele><time>2026-04-20T10:50:01.001Z</time></trkpt><trkpt lat="43.81567215474251" lon="12.14451897892848"><ele>882.0</ele><time>2026-04-20T10:50:02.001Z</time></trkpt><trkpt lat="43.815684926511615" lon="12.144430336043493"><ele>882.6666666666667</ele><time>2026-04-20T10:50:03.001Z</time></trkpt><trkpt lat="43.81568356013442" lon="12.144322252178302"><ele>883.3333333333334</ele><time>2026-04-20T10:50:05.001Z</time></trkpt><trkpt lat="43.815551262564114" lon="12.144324193760257"><ele>884.0</ele><time>2026-04-20T10:50:07.001Z</time></trkpt><trkpt lat="43.815509951534445" lon="12.144418779810184"><ele>884.0</ele><time>2026-04-20T10:50:08.001Z</time></trkpt><trkpt lat="43.815475305410374" lon="12.14455270468634"><ele>884.0000000000001</ele><time>2026-04-20T10:50:09.001Z</time></trkpt><trkpt lat="43.815424418065135" lon="12.144666751740852"><ele>884.0000000000001</ele><time>2026-04-20T10:50:10.001Z</time></trkpt><trkpt lat="43.81535083788585" lon="12.14474844641766"><ele>884.0</ele><time>2026-04-20T10:50:11.001Z</time></trkpt><trkpt lat="43.81526357916145" lon="12.144831547042184"><ele>884.0</ele><time>2026-04-20T10:50:12.001Z</time></trkpt><trkpt lat="43.81515747372163" lon="12.144922369503842"><ele>879.5</ele><time>2026-04-20T10:50:13.001Z</time></trkpt><trkpt lat="43.81505423420708" lon="12.145020816207175"><ele>875.0</ele><time>2026-04-20T10:50:14.001Z</time></trkpt><trkpt lat="43.814979364618004" lon="12.14514125264772"><ele>870.5</ele><time>2026-04-20T10:50:15.001Z</time></trkpt><trkpt lat="43.81487817963556" lon="12.145210245895724"><ele>866.0</ele><time>2026-04-20T10:50:16.001Z</time></trkpt><trkpt lat="43.81477884110945" lon="12.145285554012304"><ele>866.0</ele><time>2026-04-20T10:50:17.001Z</time></trkpt><trkpt lat="43.81468200418646" lon="12.145353843210161"><ele>865.9999999999999</ele><time>2026-04-20T10:50:18.001Z</time></trkpt><trkpt lat="43.81458702118251" lon="12.145385808012048"><ele>865.9999999999999</ele><time>2026-04-20T10:50:19.001Z</time></trkpt><trkpt lat="43.81450447230087" lon="12.145419876205041"><ele>866.0</ele><time>2026-04-20T10:50:20.001Z</time></trkpt><trkpt lat="43.8144135352979" lon="12.14546117697474"><ele>866.0</ele><time>2026-04-20T10:50:21.001Z</time></trkpt><trkpt lat="43.81431302160813" lon="12.145492394338392"><ele>861.5999999999999</ele><time>2026-04-20T10:50:22.001Z</time></trkpt><trkpt lat="43.81421244238442" lon="12.14548894199399"><ele>857.1999999999999</ele><time>2026-04-20T10:50:23.001Z</time></trkpt><trkpt lat="43.814109490942535" lon="12.14546800268127"><ele>852.8</ele><time>2026-04-20T10:50:24.001Z</time></trkpt><trkpt lat="43.814013544279156" lon="12.145469197332696"><ele>848.4000000000001</ele><time>2026-04-20T10:50:25.001Z</time></trkpt><trkpt lat="43.81392057861706" lon="12.145500445920407"><ele>844.0</ele><time>2026-04-20T10:50:26.001Z</time></trkpt><trkpt lat="43.81383401948675" lon="12.145542831986806"><ele>843.9999999999999</ele><time>2026-04-20T10:50:27.001Z</time></trkpt><trkpt lat="43.81374255248525" lon="12.145582977135522"><ele>844.0</ele><time>2026-04-20T10:50:28.001Z</time></trkpt><trkpt lat="43.81365257147672" lon="12.14560091500061"><ele>844.0</ele><time>2026-04-20T10:50:29.001Z</time></trkpt><trkpt lat="43.81357200073274" lon="12.145610069146626"><ele>844.0</ele><time>2026-04-20T10:50:30.001Z</time></trkpt><trkpt lat="43.81350301782734" lon="12.145655480067454"><ele>843.9999999999999</ele><time>2026-04-20T10:50:31Z</time></trkpt><trkpt lat="43.81345768866762" lon="12.145746693175434"><ele>844.0</ele><time>2026-04-20T10:50:32Z</time></trkpt><trkpt lat="43.8134587956853" lon="12.145939024174794"><ele>844.8000000000001</ele><time>2026-04-20T10:50:34Z</time></trkpt><trkpt lat="43.81351140588606" lon="12.146001539988752"><ele>845.6</ele><time>2026-04-20T10:50:35Z</time></trkpt><trkpt lat="43.81361641334469" lon="12.145973242028198"><ele>846.4</ele><time>2026-04-20T10:50:36Z</time></trkpt><trkpt lat="43.81370233845245" lon="12.145935674918073"><ele>847.2</ele><time>2026-04-20T10:50:37Z</time></trkpt><trkpt lat="43.8137952004831" lon="12.145910668044127"><ele>848.0</ele><time>2026-04-20T10:50:38Z</time></trkpt><trkpt lat="43.81389851714481" lon="12.145914455126379"><ele>848.0</ele><time>2026-04-20T10:50:39Z</time></trkpt><trkpt lat="43.814007929766426" lon="12.145917882161712"><ele>848.0</ele><time>2026-04-20T10:50:40Z</time></trkpt><trkpt lat="43.81409560365945" lon="12.145930089285791"><ele>848.0</ele><time>2026-04-20T10:50:41Z</time></trkpt><trkpt lat="43.81417710738055" lon="12.145947103672137"><ele>848.0</ele><time>2026-04-20T10:50:42Z</time></trkpt><trkpt lat="43.814244095880795" lon="12.145984912414594"><ele>848.0</ele><time>2026-04-20T10:50:43Z</time></trkpt><trkpt lat="43.81430367030883" lon="12.146113486337105"><ele>848.0</ele><time>2026-04-20T10:50:45Z</time></trkpt><trkpt lat="43.81426051516284" lon="12.146195290963359"><ele>848.0</ele><time>2026-04-20T10:50:46Z</time></trkpt><trkpt lat="43.81417145386715" lon="12.146199384368762"><ele>848.0</ele><time>2026-04-20T10:50:47Z</time></trkpt><trkpt lat="43.81409286699573" lon="12.146149639878303"><ele>848.0</ele><time>2026-04-20T10:50:48Z</time></trkpt><trkpt lat="43.81398620291959" lon="12.146121715360174"><ele>848.0</ele><time>2026-04-20T10:50:49Z</time></trkpt><trkpt lat="43.81387484597504" lon="12.146085946105101"><ele>848.0</ele><time>2026-04-20T10:50:50Z</time></trkpt><trkpt lat="43.81376457151452" lon="12.146116008600357"><ele>848.0</ele><time>2026-04-20T10:50:51Z</time></trkpt><trkpt lat="43.81364840898519" lon="12.146190423885766"><ele>848.0</ele><time>2026-04-20T10:50:52Z</time></trkpt><trkpt lat="43.81353493419849" lon="12.146288446582009"><ele>848.0</ele><time>2026-04-20T10:50:53Z</time></trkpt><trkpt lat="43.81342836373003" lon="12.146382991201655"><ele>846.0</ele><time>2026-04-20T10:50:54Z</time></trkpt><trkpt lat="43.81331725843681" lon="12.146440837604766"><ele>844.0</ele><time>2026-04-20T10:50:55Z</time></trkpt><trkpt lat="43.81322718833519" lon="12.14653776977916"><ele>842.0</ele><time>2026-04-20T10:50:56Z</time></trkpt><trkpt lat="43.81313970261952" lon="12.146602657226813"><ele>840.0</ele><time>2026-04-20T10:50:57Z</time></trkpt><trkpt lat="43.813067883635796" lon="12.146643637250133"><ele>838.0</ele><time>2026-04-20T10:50:58Z</time></trkpt><trkpt lat="43.81296251095608" lon="12.146538767610522"><ele>838.0</ele><time>2026-04-20T10:51:00Z</time></trkpt><trkpt lat="43.81288902508589" lon="12.146454555705752"><ele>838.0</ele><time>2026-04-20T10:51:01Z</time></trkpt><trkpt lat="43.81277845708552" lon="12.146398840901284"><ele>838.0</ele><time>2026-04-20T10:51:02Z</time></trkpt><trkpt lat="43.81266069909955" lon="12.146379648998034"><ele>838.0</ele><time>2026-04-20T10:51:03Z</time></trkpt><trkpt lat="43.81255664264732" lon="12.14633459936295"><ele>838.0</ele><time>2026-04-20T10:51:04Z</time></trkpt><trkpt lat="43.81247345375883" lon="12.146232470507362"><ele>834.4</ele><time>2026-04-20T10:51:05Z</time></trkpt><trkpt lat="43.812387248870124" lon="12.146142734698975"><ele>830.8</ele><time>2026-04-20T10:51:06Z</time></trkpt><trkpt lat="43.81231676428838" lon="12.14604370566173"><ele>827.2</ele><time>2026-04-20T10:51:07Z</time></trkpt><trkpt lat="43.81226696214145" lon="12.14593541470834"><ele>823.6</ele><time>2026-04-20T10:51:08Z</time></trkpt><trkpt lat="43.812245989383655" lon="12.145792308824122"><ele>820.0</ele><time>2026-04-20T10:51:09Z</time></trkpt><trkpt lat="43.812207726501384" lon="12.14565116372293"><ele>818.6666666666666</ele><time>2026-04-20T10:51:10Z</time></trkpt><trkpt lat="43.81220344939261" lon="12.145527106189295"><ele>817.3333333333333</ele><time>2026-04-20T10:51:11Z</time></trkpt><trkpt lat="43.81217837598843" lon="12.145446534684563"><ele>816.0</ele><time>2026-04-20T10:51:12Z</time></trkpt><trkpt lat="43.81206795753526" lon="12.145395837700294"><ele>814.6666666666667</ele><time>2026-04-20T10:51:14Z</time></trkpt><trkpt lat="43.811984436405965" lon="12.145335304330453"><ele>813.3333333333334</ele><time>2026-04-20T10:51:16Z</time></trkpt><trkpt lat="43.81197115620411" lon="12.14523188162026"><ele>812.0</ele><time>2026-04-20T10:51:17Z</time></trkpt><trkpt lat="43.812006391194174" lon="12.145118810654314"><ele>812.0</ele><time>2026-04-20T10:51:18Z</time></trkpt><trkpt lat="43.81202871065642" lon="12.145004708236492"><ele>812.0</ele><time>2026-04-20T10:51:19Z</time></trkpt><trkpt lat="43.812056804010254" lon="12.144878398235965"><ele>812.0</ele><time>2026-04-20T10:51:20Z</time></trkpt><trkpt lat="43.812082824011625" lon="12.144739115821"><ele>812.0</ele><time>2026-04-20T10:51:21Z</time></trkpt><trkpt lat="43.812097859363995" lon="12.144584944257799"><ele>812.0</ele><time>2026-04-20T10:51:22Z</time></trkpt><trkpt lat="43.812088495062376" lon="12.14443556655617"><ele>810.75</ele><time>2026-04-20T10:51:23Z</time></trkpt><trkpt lat="43.81202931201077" lon="12.14430289865965"><ele>809.5</ele><time>2026-04-20T10:51:24Z</time></trkpt><trkpt lat="43.811963865310766" lon="12.144188690416835"><ele>808.25</ele><time>2026-04-20T10:51:25Z</time></trkpt><trkpt lat="43.81188653940643" lon="12.144059774009232"><ele>807.0</ele><time>2026-04-20T10:51:26Z</time></trkpt><trkpt lat="43.81180582174281" lon="12.143909602541775"><ele>805.5</ele><time>2026-04-20T10:51:27Z</time></trkpt><trkpt lat="43.81173174412494" lon="12.14374725620076"><ele>804.0</ele><time>2026-04-20T10:51:28Z</time></trkpt><trkpt lat="43.811650937609414" lon="12.143596988569634"><ele>802.5</ele><time>2026-04-20T10:51:29Z</time></trkpt><trkpt lat="43.81156267953102" lon="12.143481641025552"><ele>801.0</ele><time>2026-04-20T10:51:30.001Z</time></trkpt><trkpt lat="43.81151005934719" lon="12.14334923874189"><ele>801.0</ele><time>2026-04-20T10:51:31.001Z</time></trkpt><trkpt lat="43.81147783247908" lon="12.14322129782466"><ele>801.0</ele><time>2026-04-20T10:51:32.001Z</time></trkpt><trkpt lat="43.81145716685521" lon="12.143071994558452"><ele>801.0</ele><time>2026-04-20T10:51:33.001Z</time></trkpt><trkpt lat="43.81146078396147" lon="12.142920194357325"><ele>801.0</ele><time>2026-04-20T10:51:34.001Z</time></trkpt><trkpt lat="43.81148221807008" lon="12.142788089834312"><ele>801.0</ele><time>2026-04-20T10:51:35.001Z</time></trkpt><trkpt lat="43.81154153872904" lon="12.142673163000149"><ele>801.0</ele><time>2026-04-20T10:51:36.001Z</time></trkpt><trkpt lat="43.81160253126102" lon="12.142535998385224"><ele>801.0</ele><time>2026-04-20T10:51:37.001Z</time></trkpt><trkpt lat="43.8116909524749" lon="12.142424440940008"><ele>801.0</ele><time>2026-04-20T10:51:38.001Z</time></trkpt><trkpt lat="43.81178353848519" lon="12.142134729678764"><ele>804.25</ele><time>2026-04-20T10:51:39.001Z</time></trkpt><trkpt lat="43.811887242020354" lon="12.14199786469721"><ele>807.5</ele><time>2026-04-20T10:51:40.001Z</time></trkpt><trkpt lat="43.811966477816576" lon="12.141871764935992"><ele>810.75</ele><time>2026-04-20T10:51:41.001Z</time></trkpt><trkpt lat="43.81199528483961" lon="12.141755831979577"><ele>814.0</ele><time>2026-04-20T10:51:42.001Z</time></trkpt><trkpt lat="43.811998048288984" lon="12.141610887111149"><ele>814.0</ele><time>2026-04-20T10:51:44.001Z</time></trkpt><trkpt lat="43.811898015618624" lon="12.141566691943162"><ele>814.0</ele><time>2026-04-20T10:51:45.001Z</time></trkpt><trkpt lat="43.811797403169976" lon="12.141550168975089"><ele>814.0</ele><time>2026-04-20T10:51:46.001Z</time></trkpt><trkpt lat="43.811655313079655" lon="12.141534826445834"><ele>814.0</ele><time>2026-04-20T10:51:47.001Z</time></trkpt><trkpt lat="43.811563693079535" lon="12.141496156379445"><ele>814.0</ele><time>2026-04-20T10:51:48.001Z</time></trkpt><trkpt lat="43.81151135678977" lon="12.141393547827604"><ele>812.8000000000001</ele><time>2026-04-20T10:51:49.001Z</time></trkpt><trkpt lat="43.81146406878073" lon="12.141269190835384"><ele>811.6</ele><time>2026-04-20T10:51:50.001Z</time></trkpt><trkpt lat="43.811412344674835" lon="12.141128222266886"><ele>810.4</ele><time>2026-04-20T10:51:51.001Z</time></trkpt><trkpt lat="43.81135629700695" lon="12.140973790662368"><ele>809.2</ele><time>2026-04-20T10:51:52.001Z</time></trkpt><trkpt lat="43.81131545212424" lon="12.140844254557848"><ele>808.0</ele><time>2026-04-20T10:51:53.001Z</time></trkpt><trkpt lat="43.81128682253995" lon="12.140722838536659"><ele>807.4</ele><time>2026-04-20T10:51:54.001Z</time></trkpt><trkpt lat="43.811251541676675" lon="12.140631080224088"><ele>806.8</ele><time>2026-04-20T10:51:55.001Z</time></trkpt><trkpt lat="43.81118250522258" lon="12.140577451889493"><ele>806.2</ele><time>2026-04-20T10:51:56.001Z</time></trkpt><trkpt lat="43.81109441999284" lon="12.140625084763013"><ele>805.6</ele><time>2026-04-20T10:51:57.001Z</time></trkpt><trkpt lat="43.81101172084541" lon="12.140680485975608"><ele>805.0</ele><time>2026-04-20T10:51:58.001Z</time></trkpt><trkpt lat="43.81091097680852" lon="12.14076101018075"><ele>805.0</ele><time>2026-04-20T10:51:59.001Z</time></trkpt><trkpt lat="43.8108299039835" lon="12.14089255263165"><ele>805.0</ele><time>2026-04-20T10:52:00.001Z</time></trkpt><trkpt lat="43.81081559664707" lon="12.141069727827901"><ele>805.0</ele><time>2026-04-20T10:52:01.001Z</time></trkpt><trkpt lat="43.8108067315798" lon="12.141235669810694"><ele>805.0</ele><time>2026-04-20T10:52:02.001Z</time></trkpt><trkpt lat="43.81081540622894" lon="12.14141666293233"><ele>804.0</ele><time>2026-04-20T10:52:03.001Z</time></trkpt><trkpt lat="43.8108471337612" lon="12.141590360411243"><ele>803.0</ele><time>2026-04-20T10:52:04.001Z</time></trkpt><trkpt lat="43.81085406038457" lon="12.14174098535792"><ele>802.0</ele><time>2026-04-20T10:52:05.001Z</time></trkpt><trkpt lat="43.81084098873603" lon="12.141854146219618"><ele>801.0</ele><time>2026-04-20T10:52:06.001Z</time></trkpt><trkpt lat="43.810812015455184" lon="12.141975920648129"><ele>800.0</ele><time>2026-04-20T10:52:07.001Z</time></trkpt><trkpt lat="43.810749194395534" lon="12.14210654438856"><ele>800.0</ele><time>2026-04-20T10:52:08.001Z</time></trkpt><trkpt lat="43.810668805500605" lon="12.142213468642408"><ele>800.0</ele><time>2026-04-20T10:52:09.001Z</time></trkpt><trkpt lat="43.810579410221564" lon="12.1422740995275"><ele>800.0</ele><time>2026-04-20T10:52:10.001Z</time></trkpt><trkpt lat="43.810462979406104" lon="12.14235166885904"><ele>800.0</ele><time>2026-04-20T10:52:11.001Z</time></trkpt><trkpt lat="43.810355507754466" lon="12.142474490817012"><ele>800.4</ele><time>2026-04-20T10:52:12.001Z</time></trkpt><trkpt lat="43.81024821556824" lon="12.142505694827927"><ele>800.8</ele><time>2026-04-20T10:52:13.001Z</time></trkpt><trkpt lat="43.810166260211716" lon="12.142550809924815"><ele>801.2</ele><time>2026-04-20T10:52:14.001Z</time></trkpt><trkpt lat="43.81008752452806" lon="12.142464419372134"><ele>801.6</ele><time>2026-04-20T10:52:15.001Z</time></trkpt><trkpt lat="43.80999496055339" lon="12.142405363110187"><ele>802.0</ele><time>2026-04-20T10:52:16.001Z</time></trkpt><trkpt lat="43.80991997655209" lon="12.142404609072898"><ele>802.0</ele><time>2026-04-20T10:52:17.001Z</time></trkpt><trkpt lat="43.8098525839325" lon="12.142478126223423"><ele>802.0</ele><time>2026-04-20T10:52:18.001Z</time></trkpt><trkpt lat="43.80981022115052" lon="12.14263674086022"><ele>802.0</ele><time>2026-04-20T10:52:19.001Z</time></trkpt><trkpt lat="43.80982182872081" lon="12.142842764013217"><ele>802.0</ele><time>2026-04-20T10:52:20.001Z</time></trkpt><trkpt lat="43.80985167938879" lon="12.143030710795985"><ele>802.0</ele><time>2026-04-20T10:52:21.001Z</time></trkpt><trkpt lat="43.809856651714924" lon="12.143185337361643"><ele>802.0</ele><time>2026-04-20T10:52:22.001Z</time></trkpt><trkpt lat="43.80984324468776" lon="12.143305674883308"><ele>802.0</ele><time>2026-04-20T10:52:23.001Z</time></trkpt><trkpt lat="43.809834179885826" lon="12.143426509005897"><ele>802.0</ele><time>2026-04-20T10:52:24.001Z</time></trkpt><trkpt lat="43.80973852592948" lon="12.143503205405146"><ele>802.0</ele><time>2026-04-20T10:52:25.001Z</time></trkpt><trkpt lat="43.8096674550226" lon="12.143588988581541"><ele>801.8333333333333</ele><time>2026-04-20T10:52:26.001Z</time></trkpt><trkpt lat="43.80956717465802" lon="12.143645211481392"><ele>801.6666666666666</ele><time>2026-04-20T10:52:28.001Z</time></trkpt><trkpt lat="43.80947051359866" lon="12.143632770322316"><ele>801.5</ele><time>2026-04-20T10:52:30.001Z</time></trkpt><trkpt lat="43.80940959112594" lon="12.143607717826155"><ele>801.3333333333333</ele><time>2026-04-20T10:52:31.001Z</time></trkpt><trkpt lat="43.80933866379146" lon="12.143575859243935"><ele>801.1666666666666</ele><time>2026-04-20T10:52:32.001Z</time></trkpt><trkpt lat="43.809270965321566" lon="12.14354057162461"><ele>801.0</ele><time>2026-04-20T10:52:33.001Z</time></trkpt><trkpt lat="43.80918255672952" lon="12.143485504387536"><ele>801.0</ele><time>2026-04-20T10:52:34.001Z</time></trkpt><trkpt lat="43.80907528105969" lon="12.14341603624587"><ele>801.0</ele><time>2026-04-20T10:52:35.001Z</time></trkpt><trkpt lat="43.80898632195568" lon="12.143345585854261"><ele>801.0</ele><time>2026-04-20T10:52:36.001Z</time></trkpt><trkpt lat="43.808901877029705" lon="12.143322070328187"><ele>801.0</ele><time>2026-04-20T10:52:37.001Z</time></trkpt><trkpt lat="43.80880218247722" lon="12.143327224975666"><ele>801.0</ele><time>2026-04-20T10:52:38.001Z</time></trkpt><trkpt lat="43.80869051196238" lon="12.143366953891089"><ele>801.0</ele><time>2026-04-20T10:52:39.001Z</time></trkpt><trkpt lat="43.80858235240536" lon="12.143471162307538"><ele>801.0</ele><time>2026-04-20T10:52:40.001Z</time></trkpt><trkpt lat="43.808458507376876" lon="12.143545101235866"><ele>801.0</ele><time>2026-04-20T10:52:41.001Z</time></trkpt><trkpt lat="43.80833460306127" lon="12.143619089636141"><ele>801.0</ele><time>2026-04-20T10:52:42Z</time></trkpt><trkpt lat="43.80821618940006" lon="12.143686834739823"><ele>800.75</ele><time>2026-04-20T10:52:43Z</time></trkpt><trkpt lat="43.80809620013091" lon="12.143745805557218"><ele>800.5</ele><time>2026-04-20T10:52:44Z</time></trkpt><trkpt lat="43.80795400377128" lon="12.143790470204664"><ele>800.25</ele><time>2026-04-20T10:52:45Z</time></trkpt><trkpt lat="43.8078134770668" lon="12.14386478912749"><ele>800.0</ele><time>2026-04-20T10:52:46Z</time></trkpt><trkpt lat="43.80766522912207" lon="12.143935500938975"><ele>801.6666666666667</ele><time>2026-04-20T10:52:47Z</time></trkpt><trkpt lat="43.807514716274504" lon="12.14399216340998"><ele>803.3333333333333</ele><time>2026-04-20T10:52:48Z</time></trkpt><trkpt lat="43.80736946987642" lon="12.144088293056406"><ele>805.0</ele><time>2026-04-20T10:52:49Z</time></trkpt><trkpt lat="43.80723971818563" lon="12.144229998716625"><ele>802.6666666666666</ele><time>2026-04-20T10:52:50Z</time></trkpt><trkpt lat="43.80708486152457" lon="12.144341613248146"><ele>800.3333333333333</ele><time>2026-04-20T10:52:51Z</time></trkpt><trkpt lat="43.8069436701946" lon="12.144464369562538"><ele>798.0</ele><time>2026-04-20T10:52:52Z</time></trkpt><trkpt lat="43.806810040754215" lon="12.14458288095557"><ele>798.0</ele><time>2026-04-20T10:52:53Z</time></trkpt><trkpt lat="43.80668952589971" lon="12.144693422850471"><ele>798.0</ele><time>2026-04-20T10:52:54Z</time></trkpt><trkpt lat="43.80658434605274" lon="12.14478853316193"><ele>798.0</ele><time>2026-04-20T10:52:55Z</time></trkpt><trkpt lat="43.806480478339964" lon="12.144860566192888"><ele>798.0</ele><time>2026-04-20T10:52:56Z</time></trkpt><trkpt lat="43.806376140278076" lon="12.144908777163831"><ele>798.0</ele><time>2026-04-20T10:52:57Z</time></trkpt><trkpt lat="43.806270143685836" lon="12.144907410964104"><ele>798.0</ele><time>2026-04-20T10:52:58Z</time></trkpt><trkpt lat="43.806160786616786" lon="12.144869803153705"><ele>798.0</ele><time>2026-04-20T10:52:59Z</time></trkpt><trkpt lat="43.80601943280766" lon="12.144802420986958"><ele>798.0</ele><time>2026-04-20T10:53:00Z</time></trkpt><trkpt lat="43.80590133859137" lon="12.144757444860506"><ele>798.0</ele><time>2026-04-20T10:53:01Z</time></trkpt><trkpt lat="43.80582554696717" lon="12.144715627609314"><ele>798.0</ele><time>2026-04-20T10:53:02Z</time></trkpt><trkpt lat="43.80575849017994" lon="12.144671404955261"><ele>798.0</ele><time>2026-04-20T10:53:03Z</time></trkpt><trkpt lat="43.80572540154163" lon="12.144588960301144"><ele>798.0</ele><time>2026-04-20T10:53:04Z</time></trkpt><trkpt lat="43.80570757974542" lon="12.144466403340815"><ele>798.0</ele><time>2026-04-20T10:53:05Z</time></trkpt><trkpt lat="43.805720866650844" lon="12.144297583239021"><ele>798.0</ele><time>2026-04-20T10:53:06Z</time></trkpt><trkpt lat="43.8057007021641" lon="12.144125142390024"><ele>797.4</ele><time>2026-04-20T10:53:07Z</time></trkpt><trkpt lat="43.80563574074324" lon="12.14397213782602"><ele>796.8</ele><time>2026-04-20T10:53:08Z</time></trkpt><trkpt lat="43.80558836272701" lon="12.143864015901332"><ele>796.2</ele><time>2026-04-20T10:53:09Z</time></trkpt><trkpt lat="43.80558260519685" lon="12.143749275188592"><ele>795.6</ele><time>2026-04-20T10:53:11Z</time></trkpt><trkpt lat="43.80571360144253" lon="12.143668644072173"><ele>795.0</ele><time>2026-04-20T10:53:13Z</time></trkpt><trkpt lat="43.805777272942144" lon="12.143558664462827"><ele>795.0</ele><time>2026-04-20T10:53:14Z</time></trkpt><trkpt lat="43.80584771581196" lon="12.143449236970916"><ele>795.0</ele><time>2026-04-20T10:53:15Z</time></trkpt><trkpt lat="43.805923169484615" lon="12.14332679504146"><ele>795.0</ele><time>2026-04-20T10:53:16Z</time></trkpt><trkpt lat="43.80599055651019" lon="12.143206671274841"><ele>795.0</ele><time>2026-04-20T10:53:17Z</time></trkpt><trkpt lat="43.80603356661598" lon="12.143096470087084"><ele>795.0</ele><time>2026-04-20T10:53:18Z</time></trkpt><trkpt lat="43.80607090259785" lon="12.142990801139055"><ele>797.6</ele><time>2026-04-20T10:53:19Z</time></trkpt><trkpt lat="43.80608297293087" lon="12.142882695819443"><ele>800.2</ele><time>2026-04-20T10:53:20Z</time></trkpt><trkpt lat="43.80607685464159" lon="12.142748555957633"><ele>802.8</ele><time>2026-04-20T10:53:21Z</time></trkpt><trkpt lat="43.80605487012052" lon="12.142615862154567"><ele>805.4</ele><time>2026-04-20T10:53:22Z</time></trkpt><trkpt lat="43.80600866588495" lon="12.142503587337822"><ele>808.0</ele><time>2026-04-20T10:53:23Z</time></trkpt><trkpt lat="43.80593561743263" lon="12.142379581616277"><ele>808.0</ele><time>2026-04-20T10:53:24Z</time></trkpt><trkpt lat="43.80585116147513" lon="12.14226196592301"><ele>808.0</ele><time>2026-04-20T10:53:25Z</time></trkpt><trkpt lat="43.80575626708884" lon="12.14214496986096"><ele>808.0</ele><time>2026-04-20T10:53:26Z</time></trkpt><trkpt lat="43.805673005722284" lon="12.142023999629439"><ele>808.0</ele><time>2026-04-20T10:53:27Z</time></trkpt><trkpt lat="43.80559938206398" lon="12.141897612239584"><ele>808.0</ele><time>2026-04-20T10:53:28Z</time></trkpt><trkpt lat="43.80554408386215" lon="12.141756154321401"><ele>808.0</ele><time>2026-04-20T10:53:29Z</time></trkpt><trkpt lat="43.805494900154045" lon="12.141609192446664"><ele>808.0</ele><time>2026-04-20T10:53:30Z</time></trkpt><trkpt lat="43.80544598529272" lon="12.14148088657847"><ele>808.0</ele><time>2026-04-20T10:53:31Z</time></trkpt><trkpt lat="43.80541350793835" lon="12.141381402135197"><ele>808.0</ele><time>2026-04-20T10:53:32Z</time></trkpt><trkpt lat="43.80543304164487" lon="12.141261109597938"><ele>803.8</ele><time>2026-04-20T10:53:34Z</time></trkpt><trkpt lat="43.80551435976453" lon="12.14125745737123"><ele>799.5999999999999</ele><time>2026-04-20T10:53:35Z</time></trkpt><trkpt lat="43.805608041826694" lon="12.141224198611056"><ele>795.4000000000001</ele><time>2026-04-20T10:53:36Z</time></trkpt><trkpt lat="43.805723479543865" lon="12.141202545586053"><ele>791.2</ele><time>2026-04-20T10:53:37Z</time></trkpt><trkpt lat="43.8058474444796" lon="12.141144847668611"><ele>787.0</ele><time>2026-04-20T10:53:38Z</time></trkpt><trkpt lat="43.805962933392365" lon="12.141096589077595"><ele>792.6</ele><time>2026-04-20T10:53:39Z</time></trkpt><trkpt lat="43.8060655045306" lon="12.141051004347467"><ele>798.2</ele><time>2026-04-20T10:53:40Z</time></trkpt><trkpt lat="43.80615893085555" lon="12.14098200269379"><ele>803.8</ele><time>2026-04-20T10:53:41Z</time></trkpt><trkpt lat="43.80624033529071" lon="12.140916704330476"><ele>809.4</ele><time>2026-04-20T10:53:42Z</time></trkpt><trkpt lat="43.80631836050494" lon="12.140848653872931"><ele>815.0</ele><time>2026-04-20T10:53:43Z</time></trkpt><trkpt lat="43.80637454881194" lon="12.140777276641955"><ele>817.0000000000001</ele><time>2026-04-20T10:53:44Z</time></trkpt><trkpt lat="43.80642341763082" lon="12.140705125372458"><ele>819.0</ele><time>2026-04-20T10:53:45Z</time></trkpt><trkpt lat="43.80646539248602" lon="12.140617014707315"><ele>821.0</ele><time>2026-04-20T10:53:46Z</time></trkpt><trkpt lat="43.806463448326" lon="12.140490118449673"><ele>823.0</ele><time>2026-04-20T10:53:47Z</time></trkpt><trkpt lat="43.80640425119214" lon="12.140370420026176"><ele>825.0000000000001</ele><time>2026-04-20T10:53:48Z</time></trkpt><trkpt lat="43.80634578350163" lon="12.140280150594254"><ele>827.0</ele><time>2026-04-20T10:53:49Z</time></trkpt><trkpt lat="43.80625280637385" lon="12.140217002795008"><ele>827.0000000000001</ele><time>2026-04-20T10:53:50Z</time></trkpt><trkpt lat="43.80615626955923" lon="12.140153385972514"><ele>827.0</ele><time>2026-04-20T10:53:51Z</time></trkpt><trkpt lat="43.80607052523028" lon="12.140080549099993"><ele>827.0</ele><time>2026-04-20T10:53:52Z</time></trkpt><trkpt lat="43.80602728167572" lon="12.139982965435946"><ele>827.0</ele><time>2026-04-20T10:53:53Z</time></trkpt><trkpt lat="43.80598842135321" lon="12.139889764695578"><ele>827.0000000000001</ele><time>2026-04-20T10:53:54Z</time></trkpt><trkpt lat="43.805994533418705" lon="12.139783207335913"><ele>827.0</ele><time>2026-04-20T10:53:55Z</time></trkpt><trkpt lat="43.806040179412925" lon="12.13966839957887"><ele>828.4000000000001</ele><time>2026-04-20T10:53:56Z</time></trkpt><trkpt lat="43.80603920720848" lon="12.139540686918396"><ele>829.8000000000001</ele><time>2026-04-20T10:53:57Z</time></trkpt><trkpt lat="43.80599570679362" lon="12.139383493965308"><ele>831.2</ele><time>2026-04-20T10:53:58Z</time></trkpt><trkpt lat="43.80594334337009" lon="12.13923637010231"><ele>832.6</ele><time>2026-04-20T10:53:59Z</time></trkpt><trkpt lat="43.80588087121496" lon="12.139109360955725"><ele>834.0</ele><time>2026-04-20T10:54:00Z</time></trkpt><trkpt lat="43.805811799983985" lon="12.13899864344125"><ele>826.3333333333334</ele><time>2026-04-20T10:54:01.001Z</time></trkpt><trkpt lat="43.80576172280708" lon="12.138907144553574"><ele>818.6666666666667</ele><time>2026-04-20T10:54:02.001Z</time></trkpt><trkpt lat="43.805723466342855" lon="12.138801607080978"><ele>811.0</ele><time>2026-04-20T10:54:04.001Z</time></trkpt><trkpt lat="43.805736494025616" lon="12.138703896629952"><ele>803.3333333333334</ele><time>2026-04-20T10:54:06.001Z</time></trkpt><trkpt lat="43.80580732976493" lon="12.138571914713234"><ele>795.6666666666667</ele><time>2026-04-20T10:54:08.001Z</time></trkpt><trkpt lat="43.805870394323186" lon="12.138546924581348"><ele>788.0</ele><time>2026-04-20T10:54:09.001Z</time></trkpt><trkpt lat="43.8059618885551" lon="12.13843617044131"><ele>789.8333333333334</ele><time>2026-04-20T10:54:11.001Z</time></trkpt><trkpt lat="43.80605935275039" lon="12.138323989872612"><ele>791.6666666666667</ele><time>2026-04-20T10:54:13.001Z</time></trkpt><trkpt lat="43.8061122081559" lon="12.138259853466726"><ele>793.5</ele><time>2026-04-20T10:54:14.001Z</time></trkpt><trkpt lat="43.806167307006284" lon="12.138202756477408"><ele>795.3333333333333</ele><time>2026-04-20T10:54:15.001Z</time></trkpt><trkpt lat="43.8062220865794" lon="12.138145536452424"><ele>797.1666666666666</ele><time>2026-04-20T10:54:16.001Z</time></trkpt><trkpt lat="43.80627726406691" lon="12.138081436441976"><ele>799.0</ele><time>2026-04-20T10:54:17.001Z</time></trkpt><trkpt lat="43.80634061257963" lon="12.138009491816725"><ele>798.9999999999999</ele><time>2026-04-20T10:54:18.001Z</time></trkpt><trkpt lat="43.80639734882613" lon="12.13793137596801"><ele>799.0</ele><time>2026-04-20T10:54:19.001Z</time></trkpt><trkpt lat="43.80645776080828" lon="12.137864230431163"><ele>799.0</ele><time>2026-04-20T10:54:20.001Z</time></trkpt><trkpt lat="43.806494214508895" lon="12.13777364611781"><ele>799.0</ele><time>2026-04-20T10:54:21.001Z</time></trkpt><trkpt lat="43.80647915851858" lon="12.137669587639314"><ele>798.9999999999999</ele><time>2026-04-20T10:54:22.001Z</time></trkpt><trkpt lat="43.80647449960641" lon="12.137562104646522"><ele>799.0</ele><time>2026-04-20T10:54:23.001Z</time></trkpt><trkpt lat="43.806451837218184" lon="12.137435649941986"><ele>799.8000000000001</ele><time>2026-04-20T10:54:24.001Z</time></trkpt><trkpt lat="43.80644344388155" lon="12.137310076495002"><ele>800.6</ele><time>2026-04-20T10:54:25.001Z</time></trkpt><trkpt lat="43.80648150062463" lon="12.137203745436"><ele>801.4</ele><time>2026-04-20T10:54:26.001Z</time></trkpt><trkpt lat="43.80650492062149" lon="12.137104494979928"><ele>802.2</ele><time>2026-04-20T10:54:27.001Z</time></trkpt><trkpt lat="43.80657471385861" lon="12.137014221723463"><ele>803.0</ele><time>2026-04-20T10:54:28.001Z</time></trkpt><trkpt lat="43.80663180069519" lon="12.136895566824489"><ele>803.0</ele><time>2026-04-20T10:54:29.001Z</time></trkpt><trkpt lat="43.80666430577185" lon="12.136749962951031"><ele>803.0</ele><time>2026-04-20T10:54:30.001Z</time></trkpt><trkpt lat="43.80665677641439" lon="12.136588830785609"><ele>803.0</ele><time>2026-04-20T10:54:31.001Z</time></trkpt><trkpt lat="43.806642445871326" lon="12.136424004226974"><ele>803.0</ele><time>2026-04-20T10:54:32.001Z</time></trkpt><trkpt lat="43.80664741194799" lon="12.136249413866881"><ele>804.2</ele><time>2026-04-20T10:54:33.001Z</time></trkpt><trkpt lat="43.80664258913836" lon="12.136088578673915"><ele>805.4</ele><time>2026-04-20T10:54:34.001Z</time></trkpt><trkpt lat="43.80665036610774" lon="12.135945857674523"><ele>806.6</ele><time>2026-04-20T10:54:35.001Z</time></trkpt><trkpt lat="43.80666128839941" lon="12.135856998412542"><ele>807.8000000000001</ele><time>2026-04-20T10:54:36.001Z</time></trkpt><trkpt lat="43.80665313818136" lon="12.13574845051884"><ele>809.0</ele><time>2026-04-20T10:54:37.001Z</time></trkpt><trkpt lat="43.80656178911468" lon="12.135625864348409"><ele>809.0</ele><time>2026-04-20T10:54:39.001Z</time></trkpt><trkpt lat="43.806465989194066" lon="12.135647054583158"><ele>809.0</ele><time>2026-04-20T10:54:40.001Z</time></trkpt><trkpt lat="43.806369793846414" lon="12.13569502224905"><ele>809.0</ele><time>2026-04-20T10:54:41Z</time></trkpt><trkpt lat="43.806280908389354" lon="12.135786052450209"><ele>809.0</ele><time>2026-04-20T10:54:42Z</time></trkpt><trkpt lat="43.80619682391678" lon="12.135882449887982"><ele>809.0</ele><time>2026-04-20T10:54:43Z</time></trkpt><trkpt lat="43.80610685806821" lon="12.13590806350514"><ele>809.0</ele><time>2026-04-20T10:54:44Z</time></trkpt><trkpt lat="43.80602631611047" lon="12.13592046890093"><ele>809.0</ele><time>2026-04-20T10:54:45Z</time></trkpt><trkpt lat="43.805935535522785" lon="12.135916229566146"><ele>809.0</ele><time>2026-04-20T10:54:46Z</time></trkpt><trkpt lat="43.805831141447314" lon="12.135914770472384"><ele>809.0</ele><time>2026-04-20T10:54:47Z</time></trkpt><trkpt lat="43.80574634001014" lon="12.135878875609924"><ele>809.0</ele><time>2026-04-20T10:54:48Z</time></trkpt><trkpt lat="43.80564877150633" lon="12.135865112213153"><ele>809.0000000000001</ele><time>2026-04-20T10:54:49Z</time></trkpt><trkpt lat="43.805567179791375" lon="12.13587617852751"><ele>809.0</ele><time>2026-04-20T10:54:50Z</time></trkpt><trkpt lat="43.805500826147096" lon="12.135881895668211"><ele>809.0</ele><time>2026-04-20T10:54:52Z</time></trkpt><trkpt lat="43.805440730799226" lon="12.135836231895466"><ele>809.0</ele><time>2026-04-20T10:54:59Z</time></trkpt><trkpt lat="43.80540565186696" lon="12.13572689209614"><ele>809.0000000000001</ele><time>2026-04-20T10:55:12Z</time></trkpt><trkpt lat="43.805386965008026" lon="12.13561895748217"><ele>809.0</ele><time>2026-04-20T10:55:14Z</time></trkpt><trkpt lat="43.805350084607156" lon="12.13550419209074"><ele>814.1666666666667</ele><time>2026-04-20T10:55:16Z</time></trkpt><trkpt lat="43.805319953668686" lon="12.135425075333385"><ele>819.3333333333334</ele><time>2026-04-20T10:55:18Z</time></trkpt><trkpt lat="43.80527644394519" lon="12.13535760484308"><ele>824.5</ele><time>2026-04-20T10:55:20Z</time></trkpt><trkpt lat="43.80520702806854" lon="12.135257971932266"><ele>829.6666666666667</ele><time>2026-04-20T10:55:22Z</time></trkpt><trkpt lat="43.805167267062195" lon="12.135153103008305"><ele>834.8333333333334</ele><time>2026-04-20T10:55:24Z</time></trkpt><trkpt lat="43.8051764170774" lon="12.135032295249696"><ele>840.0</ele><time>2026-04-20T10:55:26Z</time></trkpt><trkpt lat="43.8051814232478" lon="12.134887917212655"><ele>841.8</ele><time>2026-04-20T10:55:28Z</time></trkpt><trkpt lat="43.80515369141507" lon="12.134725904439769"><ele>843.6</ele><time>2026-04-20T10:55:30Z</time></trkpt><trkpt lat="43.80508633441343" lon="12.13467902006579"><ele>845.4000000000001</ele><time>2026-04-20T10:55:31Z</time></trkpt><trkpt lat="43.80497467335791" lon="12.134600493751083"><ele>847.2</ele><time>2026-04-20T10:55:33Z</time></trkpt><trkpt lat="43.80491327804254" lon="12.134558112123583"><ele>849.0</ele><time>2026-04-20T10:55:34Z</time></trkpt><trkpt lat="43.8048432453544" lon="12.134507267895822"><ele>849.0</ele><time>2026-04-20T10:55:35Z</time></trkpt><trkpt lat="43.804783031087396" lon="12.134460469063365"><ele>849.0</ele><time>2026-04-20T10:55:36Z</time></trkpt><trkpt lat="43.80470647679631" lon="12.134413650536159"><ele>849.0</ele><time>2026-04-20T10:55:37Z</time></trkpt><trkpt lat="43.80465980253872" lon="12.134335981739772"><ele>849.0</ele><time>2026-04-20T10:55:38Z</time></trkpt><trkpt lat="43.80463694504146" lon="12.134242030806362"><ele>849.0</ele><time>2026-04-20T10:55:39Z</time></trkpt><trkpt lat="43.80457158143702" lon="12.134109618166171"><ele>849.0</ele><time>2026-04-20T10:55:41Z</time></trkpt><trkpt lat="43.80451007124187" lon="12.134000708024113"><ele>848.5</ele><time>2026-04-20T10:55:43Z</time></trkpt><trkpt lat="43.80439812298263" lon="12.133981411093972"><ele>848.0</ele><time>2026-04-20T10:55:45Z</time></trkpt><trkpt lat="43.804335715416244" lon="12.134014014671898"><ele>847.5</ele><time>2026-04-20T10:55:46Z</time></trkpt><trkpt lat="43.80424981057119" lon="12.134038314542948"><ele>847.0</ele><time>2026-04-20T10:55:47Z</time></trkpt><trkpt lat="43.8041694924103" lon="12.134058929450443"><ele>846.5</ele><time>2026-04-20T10:55:48Z</time></trkpt><trkpt lat="43.804086997088554" lon="12.13406465350604"><ele>846.0</ele><time>2026-04-20T10:55:50Z</time></trkpt><trkpt lat="43.804033252092886" lon="12.133973343820484"><ele>849.8333333333334</ele><time>2026-04-20T10:55:53Z</time></trkpt><trkpt lat="43.80405941932839" lon="12.13387009283657"><ele>853.6666666666667</ele><time>2026-04-20T10:55:55Z</time></trkpt><trkpt lat="43.804133504766526" lon="12.133794290640955"><ele>857.5</ele><time>2026-04-20T10:55:57Z</time></trkpt><trkpt lat="43.80418281291113" lon="12.133734130546415"><ele>861.3333333333334</ele><time>2026-04-20T10:55:58Z</time></trkpt><trkpt lat="43.80423800801981" lon="12.133688505075689"><ele>865.1666666666667</ele><time>2026-04-20T10:55:59Z</time></trkpt><trkpt lat="43.80428681741208" lon="12.133632707533483"><ele>869.0</ele><time>2026-04-20T10:56:00Z</time></trkpt><trkpt lat="43.80435180712803" lon="12.133526409522359"><ele>871.0</ele><time>2026-04-20T10:56:02Z</time></trkpt><trkpt lat="43.804341065627135" lon="12.133373840431874"><ele>873.0000000000001</ele><time>2026-04-20T10:56:04Z</time></trkpt><trkpt lat="43.80436153548015" lon="12.133234553876768"><ele>875.0000000000001</ele><time>2026-04-20T10:56:06Z</time></trkpt><trkpt lat="43.80437924831679" lon="12.133116422408662"><ele>877.0</ele><time>2026-04-20T10:56:08Z</time></trkpt><trkpt lat="43.80440136402793" lon="12.13297793620122"><ele>879.0</ele><time>2026-04-20T10:56:10Z</time></trkpt><trkpt lat="43.804428804449344" lon="12.132840353906811"><ele>882.5</ele><time>2026-04-20T10:56:12Z</time></trkpt><trkpt lat="43.80447660477505" lon="12.132715413782313"><ele>886.0</ele><time>2026-04-20T10:56:14Z</time></trkpt><trkpt lat="43.80453905532804" lon="12.132666178279711"><ele>889.5</ele><time>2026-04-20T10:56:16Z</time></trkpt><trkpt lat="43.80463917712345" lon="12.132703375718723"><ele>893.0</ele><time>2026-04-20T10:56:18Z</time></trkpt><trkpt lat="43.8047115630735" lon="12.132714063255474"><ele>896.5</ele><time>2026-04-20T10:56:19Z</time></trkpt><trkpt lat="43.80477679888157" lon="12.13273523765238"><ele>900.0</ele><time>2026-04-20T10:56:20Z</time></trkpt><trkpt lat="43.80486905442249" lon="12.132699122109196"><ele>900.0</ele><time>2026-04-20T10:56:22Z</time></trkpt><trkpt lat="43.80490092451295" lon="12.132623529965299"><ele>900.0</ele><time>2026-04-20T10:56:23Z</time></trkpt><trkpt lat="43.80490642151611" lon="12.132533912083968"><ele>900.0</ele><time>2026-04-20T10:56:24Z</time></trkpt><trkpt lat="43.80482462561624" lon="12.132451893396413"><ele>900.0</ele><time>2026-04-20T10:56:25Z</time></trkpt><trkpt lat="43.80473210369581" lon="12.132411227956757"><ele>900.0</ele><time>2026-04-20T10:56:27Z</time></trkpt><trkpt lat="43.80466117460511" lon="12.132408938175434"><ele>900.0</ele><time>2026-04-20T10:56:28Z</time></trkpt><trkpt lat="43.80455919730351" lon="12.1323462214113"><ele>903.0</ele><time>2026-04-20T10:56:30Z</time></trkpt><trkpt lat="43.804488687958816" lon="12.13223110080835"><ele>906.0</ele><time>2026-04-20T10:56:32Z</time></trkpt><trkpt lat="43.804417459774236" lon="12.132121303996065"><ele>909.0</ele><time>2026-04-20T10:56:34Z</time></trkpt><trkpt lat="43.8043703242258" lon="12.13204382491994"><ele>912.0</ele><time>2026-04-20T10:56:36Z</time></trkpt><trkpt lat="43.8042565419256" lon="12.132140262123933"><ele>915.0</ele><time>2026-04-20T10:56:38Z</time></trkpt><trkpt lat="43.804173103269335" lon="12.132280852754269"><ele>915.0</ele><time>2026-04-20T10:56:40Z</time></trkpt><trkpt lat="43.804149570411134" lon="12.132378534154018"><ele>915.0</ele><time>2026-04-20T10:56:41Z</time></trkpt><trkpt lat="43.80411272645504" lon="12.132457997277392"><ele>915.0</ele><time>2026-04-20T10:56:42Z</time></trkpt><trkpt lat="43.80406499689373" lon="12.132545720560351"><ele>915.0</ele><time>2026-04-20T10:56:43Z</time></trkpt><trkpt lat="43.803979315983085" lon="12.132647499817567"><ele>915.0</ele><time>2026-04-20T10:56:45Z</time></trkpt><trkpt lat="43.803913306190196" lon="12.132678626862086"><ele>915.0</ele><time>2026-04-20T10:56:46Z</time></trkpt><trkpt lat="43.80384240289857" lon="12.132683818446525"><ele>916.4</ele><time>2026-04-20T10:56:47Z</time></trkpt><trkpt lat="43.80373247637078" lon="12.132716047826259"><ele>917.8</ele><time>2026-04-20T10:56:49Z</time></trkpt><trkpt lat="43.803617153307094" lon="12.132741286043661"><ele>919.2</ele><time>2026-04-20T10:56:51Z</time></trkpt><trkpt lat="43.80352703554421" lon="12.132732900873714"><ele>920.6</ele><time>2026-04-20T10:56:53Z</time></trkpt><trkpt lat="43.80349227459324" lon="12.132635926591426"><ele>922.0</ele><time>2026-04-20T10:56:55Z</time></trkpt><trkpt lat="43.80355263469225" lon="12.132467514230157"><ele>920.8333333333333</ele><time>2026-04-20T10:56:57Z</time></trkpt><trkpt lat="43.80359364768144" lon="12.132387570817006"><ele>919.6666666666666</ele><time>2026-04-20T10:56:58Z</time></trkpt><trkpt lat="43.80364493508374" lon="12.132295923219411"><ele>918.5</ele><time>2026-04-20T10:56:59Z</time></trkpt><trkpt lat="43.80368590242766" lon="12.13221244230495"><ele>917.3333333333333</ele><time>2026-04-20T10:57:00Z</time></trkpt><trkpt lat="43.80372757208064" lon="12.132141970620168"><ele>916.1666666666666</ele><time>2026-04-20T10:57:01Z</time></trkpt><trkpt lat="43.8037992505713" lon="12.132003991761573"><ele>915.0</ele><time>2026-04-20T10:57:03Z</time></trkpt><trkpt lat="43.803845627279465" lon="12.131941989291022"><ele>915.0</ele><time>2026-04-20T10:57:04Z</time></trkpt><trkpt lat="43.80396516233224" lon="12.131856806345603"><ele>915.0</ele><time>2026-04-20T10:57:06Z</time></trkpt><trkpt lat="43.804018301062115" lon="12.13176046286191"><ele>915.0</ele><time>2026-04-20T10:57:08Z</time></trkpt><trkpt lat="43.804019416442756" lon="12.131637302918008"><ele>915.0</ele><time>2026-04-20T10:57:10Z</time></trkpt><trkpt lat="43.803995248180485" lon="12.131498135368355"><ele>915.0</ele><time>2026-04-20T10:57:12Z</time></trkpt><trkpt lat="43.803972561970575" lon="12.13134540635497"><ele>920.2</ele><time>2026-04-20T10:57:14Z</time></trkpt><trkpt lat="43.80408619532224" lon="12.13131028270613"><ele>925.4</ele><time>2026-04-20T10:57:15Z</time></trkpt><trkpt lat="43.804108780602256" lon="12.131185223708982"><ele>930.5999999999999</ele><time>2026-04-20T10:57:16Z</time></trkpt><trkpt lat="43.80412697372682" lon="12.131066065363427"><ele>935.8</ele><time>2026-04-20T10:57:19Z</time></trkpt><trkpt lat="43.804165448264634" lon="12.130979391177792"><ele>941.0</ele><time>2026-04-20T10:57:21Z</time></trkpt><trkpt lat="43.80426721415485" lon="12.130940643729133"><ele>944.8</ele><time>2026-04-20T10:57:23Z</time></trkpt><trkpt lat="43.80437611625876" lon="12.130885211169602"><ele>948.5999999999999</ele><time>2026-04-20T10:57:25Z</time></trkpt><trkpt lat="43.80449374830839" lon="12.130861155302018"><ele>952.4</ele><time>2026-04-20T10:57:27Z</time></trkpt><trkpt lat="43.8045479126598" lon="12.130812002274114"><ele>956.2</ele><time>2026-04-20T10:57:28Z</time></trkpt><trkpt lat="43.804656345057296" lon="12.130775164655107"><ele>960.0</ele><time>2026-04-20T10:57:30Z</time></trkpt><trkpt lat="43.804762543300455" lon="12.130826376936994"><ele>960.0</ele><time>2026-04-20T10:57:32Z</time></trkpt><trkpt lat="43.804815379864806" lon="12.130875120174318"><ele>960.0</ele><time>2026-04-20T10:57:33Z</time></trkpt><trkpt lat="43.8049003523919" lon="12.130940724981688"><ele>960.0</ele><time>2026-04-20T10:57:35Z</time></trkpt><trkpt lat="43.805056147301926" lon="12.13104159106046"><ele>960.0</ele><time>2026-04-20T10:57:37Z</time></trkpt><trkpt lat="43.80513148835711" lon="12.131080099931824"><ele>960.0</ele><time>2026-04-20T10:57:38Z</time></trkpt><trkpt lat="43.80519402749477" lon="12.131101957361274"><ele>960.0</ele><time>2026-04-20T10:57:39Z</time></trkpt><trkpt lat="43.80527304084392" lon="12.131058644504153"><ele>960.0</ele><time>2026-04-20T10:57:42Z</time></trkpt><trkpt lat="43.80526310115043" lon="12.130959348049686"><ele>960.0</ele><time>2026-04-20T10:57:43Z</time></trkpt><trkpt lat="43.80520958512884" lon="12.130889716536968"><ele>960.0</ele><time>2026-04-20T10:57:44Z</time></trkpt><trkpt lat="43.80514160271622" lon="12.130844338924334"><ele>960.0</ele><time>2026-04-20T10:57:45Z</time></trkpt><trkpt lat="43.80508757701503" lon="12.130795003627377"><ele>960.0</ele><time>2026-04-20T10:57:46Z</time></trkpt><trkpt lat="43.805031459397476" lon="12.13074018285613"><ele>960.0</ele><time>2026-04-20T10:57:47Z</time></trkpt><trkpt lat="43.80499215461593" lon="12.13067056607097"><ele>965.8</ele><time>2026-04-20T10:57:48Z</time></trkpt><trkpt lat="43.80494234341661" lon="12.130489958569216"><ele>971.6</ele><time>2026-04-20T10:57:50Z</time></trkpt><trkpt lat="43.80490437743026" lon="12.13040890653766"><ele>977.4000000000001</ele><time>2026-04-20T10:57:51Z</time></trkpt><trkpt lat="43.804848525585285" lon="12.13034053833213"><ele>983.2</ele><time>2026-04-20T10:57:52Z</time></trkpt><trkpt lat="43.80475972171704" lon="12.13034257255683"><ele>989.0</ele><time>2026-04-20T10:57:53Z</time></trkpt><trkpt lat="43.8046842487367" lon="12.13030901220776"><ele>989.0000000000001</ele><time>2026-04-20T10:57:54Z</time></trkpt><trkpt lat="43.80461537389891" lon="12.130275979738453"><ele>989.0</ele><time>2026-04-20T10:57:55Z</time></trkpt><trkpt lat="43.80455634675705" lon="12.13023016162663"><ele>989.0</ele><time>2026-04-20T10:57:56Z</time></trkpt><trkpt lat="43.804517475376024" lon="12.130131334004282"><ele>989.0</ele><time>2026-04-20T10:57:57Z</time></trkpt><trkpt lat="43.80443432848443" lon="12.130069733915821"><ele>989.0000000000001</ele><time>2026-04-20T10:57:58Z</time></trkpt><trkpt lat="43.80437839148833" lon="12.130000709186506"><ele>989.0</ele><time>2026-04-20T10:57:59Z</time></trkpt><trkpt lat="43.80431343951946" lon="12.129929618708982"><ele>991.3333333333334</ele><time>2026-04-20T10:58:00Z</time></trkpt><trkpt lat="43.80425102970369" lon="12.129873655769693"><ele>993.6666666666667</ele><time>2026-04-20T10:58:01Z</time></trkpt><trkpt lat="43.80418948856962" lon="12.129834033739913"><ele>996.0</ele><time>2026-04-20T10:58:02Z</time></trkpt><trkpt lat="43.804122305811866" lon="12.129773428541608"><ele>998.3333333333333</ele><time>2026-04-20T10:58:03Z</time></trkpt><trkpt lat="43.804050535548136" lon="12.129725187054774"><ele>1000.6666666666666</ele><time>2026-04-20T10:58:04Z</time></trkpt><trkpt lat="43.803985145262544" lon="12.129693088157415"><ele>1003.0</ele><time>2026-04-20T10:58:05Z</time></trkpt><trkpt lat="43.80405696379948" lon="12.129574758999919"><ele>1002.9999999999999</ele><time>2026-04-20T10:58:09Z</time></trkpt><trkpt lat="43.80414867739999" lon="12.129621800521734"><ele>1003.0</ele><time>2026-04-20T10:58:11Z</time></trkpt><trkpt lat="43.80421067822665" lon="12.1296778449955"><ele>1003.0</ele><time>2026-04-20T10:58:12Z</time></trkpt><trkpt lat="43.80428570794564" lon="12.129715875887754"><ele>1003.0</ele><time>2026-04-20T10:58:13Z</time></trkpt><trkpt lat="43.80434733606087" lon="12.129766406118177"><ele>1002.9999999999999</ele><time>2026-04-20T10:58:14Z</time></trkpt><trkpt lat="43.80444062804501" lon="12.129788324614683"><ele>1003.0</ele><time>2026-04-20T10:58:15Z</time></trkpt><trkpt lat="43.80451563527964" lon="12.12979662821068"><ele>1005.4</ele><time>2026-04-20T10:58:16Z</time></trkpt><trkpt lat="43.80460982706813" lon="12.129776267063672"><ele>1007.8</ele><time>2026-04-20T10:58:17Z</time></trkpt><trkpt lat="43.80469866424435" lon="12.129751678050846"><ele>1010.2</ele><time>2026-04-20T10:58:18Z</time></trkpt><trkpt lat="43.8047830363113" lon="12.12977746729146"><ele>1012.6</ele><time>2026-04-20T10:58:19Z</time></trkpt><trkpt lat="43.80484600142405" lon="12.129852300646426"><ele>1015.0</ele><time>2026-04-20T10:58:20Z</time></trkpt><trkpt lat="43.80493603699614" lon="12.12989765596373"><ele>1011.6</ele><time>2026-04-20T10:58:21Z</time></trkpt><trkpt lat="43.805033006353725" lon="12.129932494593614"><ele>1008.2</ele><time>2026-04-20T10:58:22Z</time></trkpt><trkpt lat="43.805123100367645" lon="12.129979677925526"><ele>1004.8</ele><time>2026-04-20T10:58:23Z</time></trkpt><trkpt lat="43.80521579491531" lon="12.130035676488179"><ele>1001.4</ele><time>2026-04-20T10:58:24Z</time></trkpt><trkpt lat="43.805302777521376" lon="12.130110980355862"><ele>998.0</ele><time>2026-04-20T10:58:25Z</time></trkpt><trkpt lat="43.805364928535646" lon="12.130205790295687"><ele>998.0</ele><time>2026-04-20T10:58:26Z</time></trkpt><trkpt lat="43.80544768448298" lon="12.130293031667438"><ele>998.0</ele><time>2026-04-20T10:58:27Z</time></trkpt><trkpt lat="43.805531553648315" lon="12.130378722329704"><ele>998.0</ele><time>2026-04-20T10:58:28Z</time></trkpt><trkpt lat="43.80560548043719" lon="12.130416891535528"><ele>998.0</ele><time>2026-04-20T10:58:29Z</time></trkpt><trkpt lat="43.80571978949545" lon="12.130400844051247"><ele>998.0</ele><time>2026-04-20T10:58:31Z</time></trkpt><trkpt lat="43.8057762152443" lon="12.130327691875845"><ele>998.0</ele><time>2026-04-20T10:58:32Z</time></trkpt><trkpt lat="43.805813855311314" lon="12.130228046103133"><ele>998.0</ele><time>2026-04-20T10:58:33Z</time></trkpt><trkpt lat="43.80585680670461" lon="12.130098831389445"><ele>998.0</ele><time>2026-04-20T10:58:34Z</time></trkpt><trkpt lat="43.80589186653655" lon="12.129969905143744"><ele>998.0</ele><time>2026-04-20T10:58:35Z</time></trkpt><trkpt lat="43.8059533244941" lon="12.12985976111819"><ele>998.0</ele><time>2026-04-20T10:58:36Z</time></trkpt><trkpt lat="43.805989403210035" lon="12.129741878737635"><ele>1000.2</ele><time>2026-04-20T10:58:37Z</time></trkpt><trkpt lat="43.806053171986285" lon="12.129643132373719"><ele>1002.4</ele><time>2026-04-20T10:58:38Z</time></trkpt><trkpt lat="43.80613040527468" lon="12.129570540371425"><ele>1004.6000000000001</ele><time>2026-04-20T10:58:39Z</time></trkpt><trkpt lat="43.806199541326976" lon="12.129577431405087"><ele>1006.8000000000001</ele><time>2026-04-20T10:58:40Z</time></trkpt><trkpt lat="43.80623891902528" lon="12.129498514193063"><ele>1009.0</ele><time>2026-04-20T10:58:42Z</time></trkpt><trkpt lat="43.80612414635683" lon="12.12942600689351"><ele>1009.0</ele><time>2026-04-20T10:58:45Z</time></trkpt><trkpt lat="43.806046130885825" lon="12.129496946388974"><ele>1009.0000000000001</ele><time>2026-04-20T10:58:46Z</time></trkpt><trkpt lat="43.80597462421778" lon="12.129595356217875"><ele>1009.0000000000001</ele><time>2026-04-20T10:58:47Z</time></trkpt><trkpt lat="43.80589212115935" lon="12.129675254965964"><ele>1009.0</ele><time>2026-04-20T10:58:48Z</time></trkpt><trkpt lat="43.8058115817925" lon="12.12976731686532"><ele>1009.0</ele><time>2026-04-20T10:58:49Z</time></trkpt><trkpt lat="43.80573146199661" lon="12.129836354898005"><ele>1011.0</ele><time>2026-04-20T10:58:50Z</time></trkpt><trkpt lat="43.80566959398182" lon="12.12987830608024"><ele>1013.0000000000001</ele><time>2026-04-20T10:58:51Z</time></trkpt><trkpt lat="43.8055477572199" lon="12.129836313558762"><ele>1015.0000000000001</ele><time>2026-04-20T10:58:53Z</time></trkpt><trkpt lat="43.80548132058123" lon="12.129751787073555"><ele>1017.0</ele><time>2026-04-20T10:58:54Z</time></trkpt><trkpt lat="43.80539992365317" lon="12.129669397778404"><ele>1019.0</ele><time>2026-04-20T10:58:55Z</time></trkpt><trkpt lat="43.80531928016094" lon="12.129591529461205"><ele>1019.0</ele><time>2026-04-20T10:58:56Z</time></trkpt><trkpt lat="43.80527045812918" lon="12.129450930729426"><ele>1019.0</ele><time>2026-04-20T10:58:57Z</time></trkpt><trkpt lat="43.805185248804555" lon="12.129335662870659"><ele>1019.0</ele><time>2026-04-20T10:58:58Z</time></trkpt><trkpt lat="43.80510849941612" lon="12.129187451654655"><ele>1019.0</ele><time>2026-04-20T10:58:59Z</time></trkpt><trkpt lat="43.80501485962788" lon="12.129039083555089"><ele>1019.6</ele><time>2026-04-20T10:59:00Z</time></trkpt><trkpt lat="43.80492324679676" lon="12.1289266582155"><ele>1020.2</ele><time>2026-04-20T10:59:01Z</time></trkpt><trkpt lat="43.80485050352496" lon="12.12883805733764"><ele>1020.8000000000001</ele><time>2026-04-20T10:59:02Z</time></trkpt><trkpt lat="43.80480206505851" lon="12.128728991892052"><ele>1021.4000000000001</ele><time>2026-04-20T10:59:03Z</time></trkpt><trkpt lat="43.80476920985802" lon="12.128618161471096"><ele>1022.0</ele><time>2026-04-20T10:59:04Z</time></trkpt><trkpt lat="43.804764103310134" lon="12.128501019513704"><ele>1022.0</ele><time>2026-04-20T10:59:05Z</time></trkpt><trkpt lat="43.80477334772065" lon="12.128364541157469"><ele>1022.0</ele><time>2026-04-20T10:59:06Z</time></trkpt><trkpt lat="43.8047630665475" lon="12.128206662481267"><ele>1022.0</ele><time>2026-04-20T10:59:07Z</time></trkpt><trkpt lat="43.80476299852818" lon="12.128046875450586"><ele>1022.0</ele><time>2026-04-20T10:59:08Z</time></trkpt><trkpt lat="43.804740530682736" lon="12.127886505145279"><ele>1022.0</ele><time>2026-04-20T10:59:09Z</time></trkpt><trkpt lat="43.804707690521965" lon="12.127733681318798"><ele>1019.1666666666667</ele><time>2026-04-20T10:59:10Z</time></trkpt><trkpt lat="43.804678886978095" lon="12.127600720125773"><ele>1016.3333333333334</ele><time>2026-04-20T10:59:11Z</time></trkpt><trkpt lat="43.80466656855525" lon="12.127476353096652"><ele>1013.5</ele><time>2026-04-20T10:59:12Z</time></trkpt><trkpt lat="43.80466432745062" lon="12.127363708749867"><ele>1010.6666666666667</ele><time>2026-04-20T10:59:13Z</time></trkpt><trkpt lat="43.804634059009445" lon="12.127230005793802"><ele>1007.8333333333334</ele><time>2026-04-20T10:59:15Z</time></trkpt><trkpt lat="43.80457935840255" lon="12.127172328504003"><ele>1005.0</ele><time>2026-04-20T10:59:16Z</time></trkpt><trkpt lat="43.80448249505281" lon="12.127146222028076"><ele>1002.75</ele><time>2026-04-20T10:59:17Z</time></trkpt><trkpt lat="43.80437032263926" lon="12.127180871151054"><ele>1000.5</ele><time>2026-04-20T10:59:18Z</time></trkpt><trkpt lat="43.804251691929295" lon="12.12725648164004"><ele>998.25</ele><time>2026-04-20T10:59:19Z</time></trkpt><trkpt lat="43.80414271952415" lon="12.127353255359328"><ele>996.0</ele><time>2026-04-20T10:59:20Z</time></trkpt><trkpt lat="43.80404835294724" lon="12.127441220929317"><ele>1001.4</ele><time>2026-04-20T10:59:21Z</time></trkpt><trkpt lat="43.803968435704654" lon="12.127508103986939"><ele>1006.8</ele><time>2026-04-20T10:59:22Z</time></trkpt><trkpt lat="43.80387649918872" lon="12.127529267098383"><ele>1012.1999999999999</ele><time>2026-04-20T10:59:23Z</time></trkpt><trkpt lat="43.80377611488114" lon="12.127487339232449"><ele>1017.5999999999999</ele><time>2026-04-20T10:59:24Z</time></trkpt><trkpt lat="43.80366494883899" lon="12.127430406961311"><ele>1023.0</ele><time>2026-04-20T10:59:25Z</time></trkpt><trkpt lat="43.80353840619669" lon="12.127418613685728"><ele>1022.75</ele><time>2026-04-20T10:59:26Z</time></trkpt><trkpt lat="43.803399903308815" lon="12.12743016913309"><ele>1022.5</ele><time>2026-04-20T10:59:27Z</time></trkpt><trkpt lat="43.80327479249696" lon="12.12744038715669"><ele>1022.25</ele><time>2026-04-20T10:59:28Z</time></trkpt><trkpt lat="43.80316336265281" lon="12.12745335004097"><ele>1022.0</ele><time>2026-04-20T10:59:29Z</time></trkpt><trkpt lat="43.80306753759884" lon="12.127417251195363"><ele>1019.1666666666667</ele><time>2026-04-20T10:59:30Z</time></trkpt><trkpt lat="43.80299855831334" lon="12.127312589910604"><ele>1016.3333333333334</ele><time>2026-04-20T10:59:31Z</time></trkpt><trkpt lat="43.80292569372308" lon="12.127195097434663"><ele>1013.5</ele><time>2026-04-20T10:59:32Z</time></trkpt><trkpt lat="43.802852138325065" lon="12.127112882371655"><ele>1010.6666666666667</ele><time>2026-04-20T10:59:33Z</time></trkpt><trkpt lat="43.802814978731476" lon="12.127024776843493"><ele>1007.8333333333334</ele><time>2026-04-20T10:59:34Z</time></trkpt><trkpt lat="43.8027815957465" lon="12.126948720415953"><ele>1005.0</ele><time>2026-04-20T10:59:35Z</time></trkpt><trkpt lat="43.80273398859571" lon="12.126886452964653"><ele>1010.0</ele><time>2026-04-20T10:59:37Z</time></trkpt><trkpt lat="43.80265036975275" lon="12.126849503461578"><ele>1015.0</ele><time>2026-04-20T11:03:08Z</time></trkpt><trkpt lat="43.80251568953477" lon="12.126806054258791"><ele>1020.0</ele><time>2026-04-20T11:03:10Z</time></trkpt><trkpt lat="43.80243729534473" lon="12.126783797093475"><ele>1025.0</ele><time>2026-04-20T11:03:11Z</time></trkpt><trkpt lat="43.802349102927465" lon="12.126690701465794"><ele>1030.0</ele><time>2026-04-20T11:03:12Z</time></trkpt><trkpt lat="43.80226267249753" lon="12.126658184343297"><ele>1030.0</ele><time>2026-04-20T11:03:13Z</time></trkpt><trkpt lat="43.80216789809808" lon="12.126618575009362"><ele>1030.0</ele><time>2026-04-20T11:03:14Z</time></trkpt><trkpt lat="43.80208422551117" lon="12.126592508361997"><ele>1030.0</ele><time>2026-04-20T11:03:15Z</time></trkpt><trkpt lat="43.802001250269264" lon="12.126578495244436"><ele>1030.0</ele><time>2026-04-20T11:03:16Z</time></trkpt><trkpt lat="43.80191758788998" lon="12.126567968956506"><ele>1030.0</ele><time>2026-04-20T11:03:17Z</time></trkpt><trkpt lat="43.80183675970534" lon="12.126597683893715"><ele>1030.0</ele><time>2026-04-20T11:03:18Z</time></trkpt><trkpt lat="43.80176034848838" lon="12.126663789444288"><ele>1033.75</ele><time>2026-04-20T11:03:19Z</time></trkpt><trkpt lat="43.80168406176773" lon="12.126764903690177"><ele>1037.5</ele><time>2026-04-20T11:03:20Z</time></trkpt><trkpt lat="43.80161496955821" lon="12.126899494039087"><ele>1041.25</ele><time>2026-04-20T11:03:21Z</time></trkpt><trkpt lat="43.80152442075809" lon="12.12701309095967"><ele>1045.0</ele><time>2026-04-20T11:03:22Z</time></trkpt><trkpt lat="43.801454123807545" lon="12.12715762055833"><ele>1045.0</ele><time>2026-04-20T11:03:23Z</time></trkpt><trkpt lat="43.801373270478116" lon="12.127266351004277"><ele>1045.0</ele><time>2026-04-20T11:03:24Z</time></trkpt><trkpt lat="43.801287413113286" lon="12.12736576812889"><ele>1045.0</ele><time>2026-04-20T11:03:25Z</time></trkpt><trkpt lat="43.80122100374719" lon="12.127452951266639"><ele>1045.0</ele><time>2026-04-20T11:03:26Z</time></trkpt><trkpt lat="43.80115617748756" lon="12.127524780292687"><ele>1045.0</ele><time>2026-04-20T11:03:27Z</time></trkpt><trkpt lat="43.8010902358543" lon="12.127604981753857"><ele>1045.2</ele><time>2026-04-20T11:03:28Z</time></trkpt><trkpt lat="43.80099586521808" lon="12.127649839235835"><ele>1045.4</ele><time>2026-04-20T11:03:29Z</time></trkpt><trkpt lat="43.80089496990521" lon="12.127694482184884"><ele>1045.6</ele><time>2026-04-20T11:03:30Z</time></trkpt><trkpt lat="43.80079581446486" lon="12.127746451055529"><ele>1045.8</ele><time>2026-04-20T11:03:31Z</time></trkpt><trkpt lat="43.80071841320892" lon="12.127821721369939"><ele>1046.0</ele><time>2026-04-20T11:03:32Z</time></trkpt><trkpt lat="43.800672084121175" lon="12.127959154383431"><ele>1046.0</ele><time>2026-04-20T11:03:33Z</time></trkpt><trkpt lat="43.80059817695874" lon="12.128028697821774"><ele>1046.0</ele><time>2026-04-20T11:03:34Z</time></trkpt><trkpt lat="43.800527460783535" lon="12.12809734018052"><ele>1046.0</ele><time>2026-04-20T11:03:35Z</time></trkpt><trkpt lat="43.80045427926047" lon="12.128130697781598"><ele>1046.0</ele><time>2026-04-20T11:03:36Z</time></trkpt><trkpt lat="43.80039355422626" lon="12.128163514921466"><ele>1046.0</ele><time>2026-04-20T11:03:37Z</time></trkpt><trkpt lat="43.800287245252186" lon="12.128141606162812"><ele>1046.0</ele><time>2026-04-20T11:03:39Z</time></trkpt><trkpt lat="43.80017455430819" lon="12.128054491125447"><ele>1045.6</ele><time>2026-04-20T11:03:41Z</time></trkpt><trkpt lat="43.80013218496606" lon="12.127896929687234"><ele>1045.1999999999998</ele><time>2026-04-20T11:03:43Z</time></trkpt><trkpt lat="43.80011247794283" lon="12.127769162569816"><ele>1044.8000000000002</ele><time>2026-04-20T11:03:44Z</time></trkpt><trkpt lat="43.80008957299102" lon="12.127629515684463"><ele>1044.4</ele><time>2026-04-20T11:03:45Z</time></trkpt><trkpt lat="43.800062066191636" lon="12.127499033214454"><ele>1044.0</ele><time>2026-04-20T11:03:46Z</time></trkpt><trkpt lat="43.80001414854135" lon="12.127385300694614"><ele>1048.0</ele><time>2026-04-20T11:03:47Z</time></trkpt><trkpt lat="43.799920948993986" lon="12.127338961428231"><ele>1052.0</ele><time>2026-04-20T11:03:48Z</time></trkpt><trkpt lat="43.79981279473514" lon="12.127264915031471"><ele>1056.0</ele><time>2026-04-20T11:03:49Z</time></trkpt><trkpt lat="43.799735314446586" lon="12.127162654568826"><ele>1060.0</ele><time>2026-04-20T11:03:50Z</time></trkpt><trkpt lat="43.79967674550722" lon="12.127048350144257"><ele>1064.0</ele><time>2026-04-20T11:03:51Z</time></trkpt><trkpt lat="43.79962674269916" lon="12.126925658314859"><ele>1064.0</ele><time>2026-04-20T11:03:52Z</time></trkpt><trkpt lat="43.79956937981476" lon="12.126784809579412"><ele>1064.0</ele><time>2026-04-20T11:03:53Z</time></trkpt><trkpt lat="43.79952257288928" lon="12.126641191997457"><ele>1064.0</ele><time>2026-04-20T11:03:54Z</time></trkpt><trkpt lat="43.79950848165667" lon="12.126506724166932"><ele>1064.0</ele><time>2026-04-20T11:03:55Z</time></trkpt><trkpt lat="43.79952582412421" lon="12.126407862094498"><ele>1064.0</ele><time>2026-04-20T11:03:56Z</time></trkpt><trkpt lat="43.799534639659925" lon="12.12628614070007"><ele>1064.4</ele><time>2026-04-20T11:03:57Z</time></trkpt><trkpt lat="43.7995333496942" lon="12.126151914501412"><ele>1064.8000000000002</ele><time>2026-04-20T11:03:58Z</time></trkpt><trkpt lat="43.79947089458481" lon="12.126030489464053"><ele>1065.1999999999998</ele><time>2026-04-20T11:03:59Z</time></trkpt><trkpt lat="43.79939623863598" lon="12.125923843562578"><ele>1065.6</ele><time>2026-04-20T11:04:00Z</time></trkpt><trkpt lat="43.79930016287944" lon="12.125790348416103"><ele>1066.0</ele><time>2026-04-20T11:04:01Z</time></trkpt><trkpt lat="43.79923526867968" lon="12.125624564605722"><ele>1066.0</ele><time>2026-04-20T11:04:02Z</time></trkpt><trkpt lat="43.79914818980926" lon="12.125502392936195"><ele>1066.0</ele><time>2026-04-20T11:04:03Z</time></trkpt><trkpt lat="43.7990215175405" lon="12.125460906648742"><ele>1066.0</ele><time>2026-04-20T11:04:04Z</time></trkpt><trkpt lat="43.79889753143901" lon="12.125422513062613"><ele>1066.0</ele><time>2026-04-20T11:04:05Z</time></trkpt><trkpt lat="43.79876057157033" lon="12.125368878123318"><ele>1066.0</ele><time>2026-04-20T11:04:06Z</time></trkpt><trkpt lat="43.798643791885425" lon="12.12532093242108"><ele>1066.0</ele><time>2026-04-20T11:04:07Z</time></trkpt><trkpt lat="43.79853998163224" lon="12.125316719079775"><ele>1066.0</ele><time>2026-04-20T11:04:08Z</time></trkpt><trkpt lat="43.798442465597944" lon="12.125317053527112"><ele>1066.0</ele><time>2026-04-20T11:04:09Z</time></trkpt><trkpt lat="43.79834583449946" lon="12.125371742224296"><ele>1066.0</ele><time>2026-04-20T11:04:10Z</time></trkpt><trkpt lat="43.79824015380913" lon="12.125452526347495"><ele>1067.2</ele><time>2026-04-20T11:04:11Z</time></trkpt><trkpt lat="43.798124487023365" lon="12.125545950997656"><ele>1068.3999999999999</ele><time>2026-04-20T11:04:12Z</time></trkpt><trkpt lat="43.798014697793754" lon="12.125584184699873"><ele>1069.6</ele><time>2026-04-20T11:04:13Z</time></trkpt><trkpt lat="43.79794055975452" lon="12.125615855730345"><ele>1070.8</ele><time>2026-04-20T11:04:14Z</time></trkpt><trkpt lat="43.797869301959345" lon="12.125615826802271"><ele>1072.0</ele><time>2026-04-20T11:04:15Z</time></trkpt><trkpt lat="43.79780748021718" lon="12.125579876085899"><ele>1072.0</ele><time>2026-04-20T11:04:16Z</time></trkpt><trkpt lat="43.797734650710304" lon="12.125524521011268"><ele>1072.0</ele><time>2026-04-20T11:04:17Z</time></trkpt><trkpt lat="43.797643258812506" lon="12.125439146547931"><ele>1072.0</ele><time>2026-04-20T11:04:18Z</time></trkpt><trkpt lat="43.79753929655016" lon="12.125361356539392"><ele>1072.0</ele><time>2026-04-20T11:04:19Z</time></trkpt><trkpt lat="43.797431332234694" lon="12.12532676080418"><ele>1072.0</ele><time>2026-04-20T11:04:20Z</time></trkpt><trkpt lat="43.79732231615316" lon="12.125328495904244"><ele>1071.4</ele><time>2026-04-20T11:04:21Z</time></trkpt><trkpt lat="43.79720530265837" lon="12.125364398077368"><ele>1070.8000000000002</ele><time>2026-04-20T11:04:22Z</time></trkpt><trkpt lat="43.79711141792137" lon="12.125332425993218"><ele>1070.2</ele><time>2026-04-20T11:04:23Z</time></trkpt><trkpt lat="43.79702256190806" lon="12.125294861428507"><ele>1069.6000000000001</ele><time>2026-04-20T11:04:24Z</time></trkpt><trkpt lat="43.79691896559068" lon="12.125251143636461"><ele>1069.0</ele><time>2026-04-20T11:04:25Z</time></trkpt><trkpt lat="43.796814921999776" lon="12.125201728063608"><ele>1069.0</ele><time>2026-04-20T11:04:26Z</time></trkpt><trkpt lat="43.79671133407729" lon="12.125145359910043"><ele>1069.0</ele><time>2026-04-20T11:04:27Z</time></trkpt><trkpt lat="43.796623555422585" lon="12.125082028387885"><ele>1069.0</ele><time>2026-04-20T11:04:28Z</time></trkpt><trkpt lat="43.796553063668135" lon="12.125008291705829"><ele>1069.0</ele><time>2026-04-20T11:04:29Z</time></trkpt><trkpt lat="43.79650408209403" lon="12.124936873231704"><ele>1069.0</ele><time>2026-04-20T11:04:30Z</time></trkpt><trkpt lat="43.796473193142994" lon="12.124834743588304"><ele>1071.4</ele><time>2026-04-20T11:04:31Z</time></trkpt><trkpt lat="43.79645692690775" lon="12.124716452448116"><ele>1073.8000000000002</ele><time>2026-04-20T11:04:32Z</time></trkpt><trkpt lat="43.79644625595532" lon="12.124575124786174"><ele>1076.1999999999998</ele><time>2026-04-20T11:04:33Z</time></trkpt><trkpt lat="43.796435153666934" lon="12.124420297867704"><ele>1078.6</ele><time>2026-04-20T11:04:34Z</time></trkpt><trkpt lat="43.79642496075892" lon="12.124246666531679"><ele>1081.0</ele><time>2026-04-20T11:04:35Z</time></trkpt><trkpt lat="43.79641315550173" lon="12.124081030026039"><ele>1081.75</ele><time>2026-04-20T11:04:36Z</time></trkpt><trkpt lat="43.79637896761301" lon="12.123906836347889"><ele>1082.5</ele><time>2026-04-20T11:04:37Z</time></trkpt><trkpt lat="43.79636124898758" lon="12.123718961075914"><ele>1083.25</ele><time>2026-04-20T11:04:38Z</time></trkpt><trkpt lat="43.796363801126446" lon="12.123527946659214"><ele>1084.0</ele><time>2026-04-20T11:04:39Z</time></trkpt><trkpt lat="43.796322640935834" lon="12.123334849342744"><ele>1083.0</ele><time>2026-04-20T11:04:40Z</time></trkpt><trkpt lat="43.79629900720135" lon="12.123128538353036"><ele>1082.0</ele><time>2026-04-20T11:04:41Z</time></trkpt><trkpt lat="43.79635595271557" lon="12.123002343779428"><ele>1081.0</ele><time>2026-04-20T11:04:42Z</time></trkpt><trkpt lat="43.79638806827609" lon="12.122825483496202"><ele>1080.0</ele><time>2026-04-20T11:04:43Z</time></trkpt><trkpt lat="43.7964552265565" lon="12.122657938932953"><ele>1080.0</ele><time>2026-04-20T11:04:44Z</time></trkpt><trkpt lat="43.79650187579021" lon="12.12248310130516"><ele>1080.0</ele><time>2026-04-20T11:04:45Z</time></trkpt><trkpt lat="43.796550532969704" lon="12.122318813804293"><ele>1080.0</ele><time>2026-04-20T11:04:46Z</time></trkpt><trkpt lat="43.79659161244759" lon="12.122178530768936"><ele>1080.0</ele><time>2026-04-20T11:04:47Z</time></trkpt><trkpt lat="43.79661220347816" lon="12.122046018978956"><ele>1080.0</ele><time>2026-04-20T11:04:48Z</time></trkpt><trkpt lat="43.79661064759238" lon="12.121923787189276"><ele>1080.0</ele><time>2026-04-20T11:04:49Z</time></trkpt><trkpt lat="43.79655822065509" lon="12.121793219772849"><ele>1080.0</ele><time>2026-04-20T11:04:50Z</time></trkpt><trkpt lat="43.79649229526717" lon="12.121655764732225"><ele>1080.0</ele><time>2026-04-20T11:04:51Z</time></trkpt><trkpt lat="43.796389933758945" lon="12.121498246179094"><ele>1081.75</ele><time>2026-04-20T11:04:52Z</time></trkpt><trkpt lat="43.79629031810175" lon="12.12131846691649"><ele>1083.5</ele><time>2026-04-20T11:04:53Z</time></trkpt><trkpt lat="43.79621047855375" lon="12.121156261625028"><ele>1085.25</ele><time>2026-04-20T11:04:54Z</time></trkpt><trkpt lat="43.79613604710906" lon="12.121016822692656"><ele>1087.0</ele><time>2026-04-20T11:04:55Z</time></trkpt><trkpt lat="43.79606399767205" lon="12.120903012873447"><ele>1083.5</ele><time>2026-04-20T11:04:56Z</time></trkpt><trkpt lat="43.79598262624011" lon="12.120807740884658"><ele>1080.0</ele><time>2026-04-20T11:04:57Z</time></trkpt><trkpt lat="43.79587170545582" lon="12.120751815398856"><ele>1076.5</ele><time>2026-04-20T11:04:58Z</time></trkpt><trkpt lat="43.79574084573292" lon="12.12074321091554"><ele>1073.0</ele><time>2026-04-20T11:04:59Z</time></trkpt><trkpt lat="43.79561720101597" lon="12.120747335770256"><ele>1073.0</ele><time>2026-04-20T11:05:00Z</time></trkpt><trkpt lat="43.79553634020493" lon="12.120742058040893"><ele>1073.0</ele><time>2026-04-20T11:05:01Z</time></trkpt><trkpt lat="43.7954844322251" lon="12.120690850976302"><ele>1073.0</ele><time>2026-04-20T11:05:02Z</time></trkpt><trkpt lat="43.79547562024653" lon="12.12057622160434"><ele>1073.0</ele><time>2026-04-20T11:05:03Z</time></trkpt><trkpt lat="43.79549368904739" lon="12.120441986135255"><ele>1073.0</ele><time>2026-04-20T11:05:04Z</time></trkpt><trkpt lat="43.79553229359042" lon="12.120309805450322"><ele>1073.0</ele><time>2026-04-20T11:05:05Z</time></trkpt><trkpt lat="43.79559913814893" lon="12.120139710485942"><ele>1074.5</ele><time>2026-04-20T11:05:06Z</time></trkpt><trkpt lat="43.79565360964025" lon="12.119970385796117"><ele>1076.0</ele><time>2026-04-20T11:05:07Z</time></trkpt><trkpt lat="43.795671429376135" lon="12.11981450603652"><ele>1077.5</ele><time>2026-04-20T11:05:08Z</time></trkpt><trkpt lat="43.795630857757175" lon="12.119671992005552"><ele>1079.0</ele><time>2026-04-20T11:05:09Z</time></trkpt><trkpt lat="43.79556091952508" lon="12.11952804867309"><ele>1079.25</ele><time>2026-04-20T11:05:10Z</time></trkpt><trkpt lat="43.795471262724995" lon="12.119404951041725"><ele>1079.5</ele><time>2026-04-20T11:05:11Z</time></trkpt><trkpt lat="43.795381537012275" lon="12.119272556580404"><ele>1079.75</ele><time>2026-04-20T11:05:12Z</time></trkpt><trkpt lat="43.79530946702459" lon="12.119145142054455"><ele>1080.0</ele><time>2026-04-20T11:05:13Z</time></trkpt><trkpt lat="43.795272112351476" lon="12.119038700492938"><ele>1079.4</ele><time>2026-04-20T11:05:14Z</time></trkpt><trkpt lat="43.79527099661815" lon="12.11886380378872"><ele>1078.8</ele><time>2026-04-20T11:05:16Z</time></trkpt><trkpt lat="43.795324497497454" lon="12.118794424949336"><ele>1078.2</ele><time>2026-04-20T11:05:17Z</time></trkpt><trkpt lat="43.795429498677194" lon="12.118789402150849"><ele>1077.6</ele><time>2026-04-20T11:05:18Z</time></trkpt><trkpt lat="43.79554940503803" lon="12.118731641473337"><ele>1077.0</ele><time>2026-04-20T11:05:19Z</time></trkpt><trkpt lat="43.79562636204654" lon="12.11864487542077"><ele>1077.0</ele><time>2026-04-20T11:05:20Z</time></trkpt><trkpt lat="43.79568321468171" lon="12.118545585577063"><ele>1077.0</ele><time>2026-04-20T11:05:21Z</time></trkpt><trkpt lat="43.79570183833371" lon="12.118420041304454"><ele>1077.0</ele><time>2026-04-20T11:05:22Z</time></trkpt><trkpt lat="43.795673391320896" lon="12.11828781576647"><ele>1077.0</ele><time>2026-04-20T11:05:23Z</time></trkpt><trkpt lat="43.795633990107405" lon="12.118153397543638"><ele>1077.0</ele><time>2026-04-20T11:05:24Z</time></trkpt><trkpt lat="43.79558429812693" lon="12.118007149413097"><ele>1076.75</ele><time>2026-04-20T11:05:25Z</time></trkpt><trkpt lat="43.795542931349445" lon="12.117827313207599"><ele>1076.5</ele><time>2026-04-20T11:05:26Z</time></trkpt><trkpt lat="43.795480589148255" lon="12.117636783400457"><ele>1076.25</ele><time>2026-04-20T11:05:27Z</time></trkpt><trkpt lat="43.79538033380312" lon="12.117483965601123"><ele>1076.0</ele><time>2026-04-20T11:05:28Z</time></trkpt><trkpt lat="43.7952939490011" lon="12.117359431141729"><ele>1076.0</ele><time>2026-04-20T11:05:29Z</time></trkpt><trkpt lat="43.795251915298394" lon="12.117226330834924"><ele>1076.0</ele><time>2026-04-20T11:05:30Z</time></trkpt><trkpt lat="43.79520860595825" lon="12.117105459950745"><ele>1076.0</ele><time>2026-04-20T11:05:31Z</time></trkpt><trkpt lat="43.79525094615955" lon="12.116982015305748"><ele>1076.0</ele><time>2026-04-20T11:05:32Z</time></trkpt><trkpt lat="43.795315704382915" lon="12.116883060592617"><ele>1076.0</ele><time>2026-04-20T11:05:33Z</time></trkpt><trkpt lat="43.795375392227655" lon="12.116774311908532"><ele>1076.0</ele><time>2026-04-20T11:05:34Z</time></trkpt><trkpt lat="43.795420636264495" lon="12.116650925838147"><ele>1076.0</ele><time>2026-04-20T11:05:35Z</time></trkpt><trkpt lat="43.79539974791131" lon="12.116475129212823"><ele>1076.0</ele><time>2026-04-20T11:05:37Z</time></trkpt><trkpt lat="43.79532987702866" lon="12.116372676753942"><ele>1076.0</ele><time>2026-04-20T11:05:38Z</time></trkpt><trkpt lat="43.79522841765837" lon="12.116260731108039"><ele>1073.75</ele><time>2026-04-20T11:05:39Z</time></trkpt><trkpt lat="43.79510680082026" lon="12.116164576252707"><ele>1071.5</ele><time>2026-04-20T11:05:40Z</time></trkpt><trkpt lat="43.79500900623194" lon="12.116078988441405"><ele>1069.25</ele><time>2026-04-20T11:05:41Z</time></trkpt><trkpt lat="43.794920768182884" lon="12.116002215131502"><ele>1067.0</ele><time>2026-04-20T11:05:42Z</time></trkpt><trkpt lat="43.794824350743305" lon="12.115920057183692"><ele>1067.0</ele><time>2026-04-20T11:05:43Z</time></trkpt><trkpt lat="43.79473589409155" lon="12.115845090653176"><ele>1067.0</ele><time>2026-04-20T11:05:44Z</time></trkpt><trkpt lat="43.79455566515751" lon="12.115687767983829"><ele>1067.0</ele><time>2026-04-20T11:05:46Z</time></trkpt><trkpt lat="43.794476148307524" lon="12.115610263671117"><ele>1067.0</ele><time>2026-04-20T11:05:47Z</time></trkpt><trkpt lat="43.79441075869989" lon="12.115543100908535"><ele>1067.75</ele><time>2026-04-20T11:05:48Z</time></trkpt><trkpt lat="43.79434089268809" lon="12.1154711741252"><ele>1068.5</ele><time>2026-04-20T11:05:50Z</time></trkpt><trkpt lat="43.794197062113554" lon="12.115669846980389"><ele>1069.25</ele><time>2026-04-20T11:05:52Z</time></trkpt><trkpt lat="43.79409435958489" lon="12.115743287532446"><ele>1070.0</ele><time>2026-04-20T11:05:53Z</time></trkpt><trkpt lat="43.79397387461043" lon="12.115828829152504"><ele>1070.0</ele><time>2026-04-20T11:05:54Z</time></trkpt><trkpt lat="43.79386026010081" lon="12.115909492904002"><ele>1070.0</ele><time>2026-04-20T11:05:55Z</time></trkpt><trkpt lat="43.79375343917248" lon="12.116003535882134"><ele>1070.0</ele><time>2026-04-20T11:05:56Z</time></trkpt><trkpt lat="43.79363783306475" lon="12.116064678137628"><ele>1070.0</ele><time>2026-04-20T11:05:57Z</time></trkpt><trkpt lat="43.79354236059555" lon="12.116129881221829"><ele>1071.2</ele><time>2026-04-20T11:05:58Z</time></trkpt><trkpt lat="43.793453671461094" lon="12.11619086296511"><ele>1072.4</ele><time>2026-04-20T11:05:59Z</time></trkpt><trkpt lat="43.79336717420456" lon="12.116254903359232"><ele>1073.6</ele><time>2026-04-20T11:06:00Z</time></trkpt><trkpt lat="43.793278837806945" lon="12.116328297927637"><ele>1074.8</ele><time>2026-04-20T11:06:01Z</time></trkpt><trkpt lat="43.79317627346412" lon="12.11641006630129"><ele>1076.0</ele><time>2026-04-20T11:06:02Z</time></trkpt><trkpt lat="43.79306583875821" lon="12.116487465904546"><ele>1076.0</ele><time>2026-04-20T11:06:03Z</time></trkpt><trkpt lat="43.79294627701575" lon="12.116564438273809"><ele>1076.0</ele><time>2026-04-20T11:06:04Z</time></trkpt><trkpt lat="43.792828497792954" lon="12.1166408365533"><ele>1076.0</ele><time>2026-04-20T11:06:05Z</time></trkpt><trkpt lat="43.79271759070357" lon="12.116712777190326"><ele>1076.0</ele><time>2026-04-20T11:06:06Z</time></trkpt><trkpt lat="43.79262043927439" lon="12.116774587594293"><ele>1075.0</ele><time>2026-04-20T11:06:07Z</time></trkpt><trkpt lat="43.79252169918735" lon="12.116825091493284"><ele>1074.0</ele><time>2026-04-20T11:06:08Z</time></trkpt><trkpt lat="43.79241669073229" lon="12.116879885243447"><ele>1073.0</ele><time>2026-04-20T11:06:09Z</time></trkpt><trkpt lat="43.79231494835359" lon="12.116936263969048"><ele>1072.0</ele><time>2026-04-20T11:06:10Z</time></trkpt><trkpt lat="43.79220281199087" lon="12.116998138722458"><ele>1071.0</ele><time>2026-04-20T11:06:11Z</time></trkpt><trkpt lat="43.79208235870978" lon="12.117062216122237"><ele>1071.0</ele><time>2026-04-20T11:06:12Z</time></trkpt><trkpt lat="43.79196039309237" lon="12.117127098039683"><ele>1071.0</ele><time>2026-04-20T11:06:13Z</time></trkpt><trkpt lat="43.791838831496676" lon="12.117191765210787"><ele>1071.0</ele><time>2026-04-20T11:06:14Z</time></trkpt><trkpt lat="43.791714191490044" lon="12.117258069593108"><ele>1071.0</ele><time>2026-04-20T11:06:15Z</time></trkpt><trkpt lat="43.791591336485425" lon="12.117323426378633"><ele>1069.75</ele><time>2026-04-20T11:06:16Z</time></trkpt><trkpt lat="43.79146976490359" lon="12.117382448007863"><ele>1068.5</ele><time>2026-04-20T11:06:17Z</time></trkpt><trkpt lat="43.791344135608156" lon="12.117437288389869"><ele>1067.25</ele><time>2026-04-20T11:06:18Z</time></trkpt><trkpt lat="43.79121789850276" lon="12.11748958722847"><ele>1066.0</ele><time>2026-04-20T11:06:19Z</time></trkpt><trkpt lat="43.79109171895474" lon="12.11754084225552"><ele>1066.5</ele><time>2026-04-20T11:06:20Z</time></trkpt><trkpt lat="43.790972446746295" lon="12.117598269067068"><ele>1067.0</ele><time>2026-04-20T11:06:21Z</time></trkpt><trkpt lat="43.79085856172953" lon="12.117658970608606"><ele>1067.5</ele><time>2026-04-20T11:06:22Z</time></trkpt><trkpt lat="43.79075392484486" lon="12.117717276927607"><ele>1068.0</ele><time>2026-04-20T11:06:23Z</time></trkpt><trkpt lat="43.790654167698044" lon="12.117773496483524"><ele>1068.0</ele><time>2026-04-20T11:06:24Z</time></trkpt><trkpt lat="43.790555780949454" lon="12.117831785883885"><ele>1068.0</ele><time>2026-04-20T11:06:25Z</time></trkpt><trkpt lat="43.79045486909697" lon="12.117897513945747"><ele>1068.0</ele><time>2026-04-20T11:06:26Z</time></trkpt><trkpt lat="43.790360346322466" lon="12.117996063045497"><ele>1068.0</ele><time>2026-04-20T11:06:27Z</time></trkpt><trkpt lat="43.79025206793067" lon="12.118080339687964"><ele>1067.4</ele><time>2026-04-20T11:06:28Z</time></trkpt><trkpt lat="43.790160598772424" lon="12.118167782809325"><ele>1066.8</ele><time>2026-04-20T11:06:29Z</time></trkpt><trkpt lat="43.79008553428687" lon="12.118231965732555"><ele>1066.2</ele><time>2026-04-20T11:06:30Z</time></trkpt><trkpt lat="43.79000150647571" lon="12.11825951731347"><ele>1065.6</ele><time>2026-04-20T11:06:31Z</time></trkpt><trkpt lat="43.789914530914196" lon="12.11825811868076"><ele>1065.0</ele><time>2026-04-20T11:06:32Z</time></trkpt><trkpt lat="43.78982788504044" lon="12.118234847054298"><ele>1065.0</ele><time>2026-04-20T11:06:33Z</time></trkpt><trkpt lat="43.78974298481581" lon="12.118184834700243"><ele>1065.0</ele><time>2026-04-20T11:06:34Z</time></trkpt><trkpt lat="43.789654908174604" lon="12.118126197808147"><ele>1065.0</ele><time>2026-04-20T11:06:35Z</time></trkpt><trkpt lat="43.78956600444663" lon="12.118051691546533"><ele>1065.0</ele><time>2026-04-20T11:06:36Z</time></trkpt><trkpt lat="43.78948132805" lon="12.117984913561745"><ele>1065.0</ele><time>2026-04-20T11:06:37Z</time></trkpt><trkpt lat="43.78940174712966" lon="12.117932011910312"><ele>1062.8333333333333</ele><time>2026-04-20T11:06:38Z</time></trkpt><trkpt lat="43.78931766807228" lon="12.117887961695484"><ele>1060.6666666666667</ele><time>2026-04-20T11:06:39Z</time></trkpt><trkpt lat="43.78923355724885" lon="12.117864456834893"><ele>1058.5</ele><time>2026-04-20T11:06:40Z</time></trkpt><trkpt lat="43.78915501632738" lon="12.117865632446344"><ele>1056.3333333333335</ele><time>2026-04-20T11:06:41Z</time></trkpt><trkpt lat="43.789089667111014" lon="12.117788978287447"><ele>1054.1666666666667</ele><time>2026-04-20T11:06:42.001Z</time></trkpt><trkpt lat="43.78900957893532" lon="12.117722193955611"><ele>1052.0</ele><time>2026-04-20T11:06:43.001Z</time></trkpt><trkpt lat="43.788920657867976" lon="12.117668350423182"><ele>1052.0</ele><time>2026-04-20T11:06:44.001Z</time></trkpt><trkpt lat="43.78883522620211" lon="12.117605070679893"><ele>1052.0</ele><time>2026-04-20T11:06:45.001Z</time></trkpt><trkpt lat="43.78874361002678" lon="12.11753670465312"><ele>1052.0</ele><time>2026-04-20T11:06:46.001Z</time></trkpt><trkpt lat="43.78863888898941" lon="12.117567081458885"><ele>1052.0</ele><time>2026-04-20T11:06:47.001Z</time></trkpt><trkpt lat="43.7885371898666" lon="12.117560280054196"><ele>1052.0</ele><time>2026-04-20T11:06:48.001Z</time></trkpt><trkpt lat="43.788428420886035" lon="12.117556406526642"><ele>1050.6</ele><time>2026-04-20T11:06:49.001Z</time></trkpt><trkpt lat="43.788328687625636" lon="12.117563969237525"><ele>1049.2</ele><time>2026-04-20T11:06:50.001Z</time></trkpt><trkpt lat="43.78822184210882" lon="12.117586027470244"><ele>1047.8</ele><time>2026-04-20T11:06:51.001Z</time></trkpt><trkpt lat="43.78813317193284" lon="12.117655686985628"><ele>1046.4</ele><time>2026-04-20T11:06:52.001Z</time></trkpt><trkpt lat="43.78805878779778" lon="12.117739399108572"><ele>1045.0</ele><time>2026-04-20T11:06:53.001Z</time></trkpt><trkpt lat="43.78801201909935" lon="12.117851780451518"><ele>1045.0</ele><time>2026-04-20T11:06:54.001Z</time></trkpt><trkpt lat="43.788009564267824" lon="12.11797903931381"><ele>1045.0</ele><time>2026-04-20T11:06:55.001Z</time></trkpt><trkpt lat="43.788036872929275" lon="12.118099444719897"><ele>1045.0</ele><time>2026-04-20T11:06:56.001Z</time></trkpt><trkpt lat="43.78809105312292" lon="12.118208381774632"><ele>1045.0</ele><time>2026-04-20T11:06:57Z</time></trkpt><trkpt lat="43.78817156783011" lon="12.118293270311534"><ele>1045.0</ele><time>2026-04-20T11:06:58Z</time></trkpt><trkpt lat="43.788267888856154" lon="12.118352596441543"><ele>1042.6</ele><time>2026-04-20T11:06:59Z</time></trkpt><trkpt lat="43.78833405461971" lon="12.11845708091584"><ele>1040.2</ele><time>2026-04-20T11:07:00Z</time></trkpt><trkpt lat="43.78836630859097" lon="12.118580944460268"><ele>1037.8</ele><time>2026-04-20T11:07:01Z</time></trkpt><trkpt lat="43.78834480329505" lon="12.118715224721372"><ele>1035.4</ele><time>2026-04-20T11:07:02Z</time></trkpt><trkpt lat="43.788327238424" lon="12.118858155256998"><ele>1033.0</ele><time>2026-04-20T11:07:03Z</time></trkpt><trkpt lat="43.78826834926855" lon="12.118961829384675"><ele>1030.8333333333333</ele><time>2026-04-20T11:07:04Z</time></trkpt><trkpt lat="43.788221766888924" lon="12.119075258583454"><ele>1028.6666666666665</ele><time>2026-04-20T11:07:05Z</time></trkpt><trkpt lat="43.78819622330125" lon="12.119182428208132"><ele>1026.5</ele><time>2026-04-20T11:07:06Z</time></trkpt><trkpt lat="43.78821345123845" lon="12.119293276392607"><ele>1024.3333333333333</ele><time>2026-04-20T11:07:07Z</time></trkpt><trkpt lat="43.78826468637136" lon="12.119364474173508"><ele>1022.1666666666666</ele><time>2026-04-20T11:07:08Z</time></trkpt><trkpt lat="43.788334124184864" lon="12.119401491127237"><ele>1020.0</ele><time>2026-04-20T11:07:09Z</time></trkpt><trkpt lat="43.788426588989225" lon="12.119434758614048"><ele>1022.75</ele><time>2026-04-20T11:07:10Z</time></trkpt><trkpt lat="43.78853570693807" lon="12.11946920371113"><ele>1025.5</ele><time>2026-04-20T11:07:11Z</time></trkpt><trkpt lat="43.78864229132067" lon="12.119558872790808"><ele>1028.25</ele><time>2026-04-20T11:07:12Z</time></trkpt><trkpt lat="43.788750913630615" lon="12.119644420928623"><ele>1031.0</ele><time>2026-04-20T11:07:13Z</time></trkpt><trkpt lat="43.78887120967409" lon="12.119706122807628"><ele>1031.0</ele><time>2026-04-20T11:07:14Z</time></trkpt><trkpt lat="43.78898394073353" lon="12.119786012392169"><ele>1031.0</ele><time>2026-04-20T11:07:15Z</time></trkpt><trkpt lat="43.78910871158571" lon="12.119837038249484"><ele>1031.0</ele><time>2026-04-20T11:07:16Z</time></trkpt><trkpt lat="43.78922147129837" lon="12.119922023339889"><ele>1031.0</ele><time>2026-04-20T11:07:17Z</time></trkpt><trkpt lat="43.789331878430374" lon="12.119983706903819"><ele>1026.5</ele><time>2026-04-20T11:07:18Z</time></trkpt><trkpt lat="43.789443688921764" lon="12.120044671777404"><ele>1022.0</ele><time>2026-04-20T11:07:19Z</time></trkpt><trkpt lat="43.78955960532321" lon="12.12009036401222"><ele>1017.5</ele><time>2026-04-20T11:07:20Z</time></trkpt><trkpt lat="43.78967124338417" lon="12.12014228324263"><ele>1013.0</ele><time>2026-04-20T11:07:21Z</time></trkpt><trkpt lat="43.78977906629123" lon="12.12020782252082"><ele>1013.0</ele><time>2026-04-20T11:07:22Z</time></trkpt><trkpt lat="43.789878598311454" lon="12.120289967621911"><ele>1013.0</ele><time>2026-04-20T11:07:23Z</time></trkpt><trkpt lat="43.789959137063434" lon="12.120420955961626"><ele>1013.0</ele><time>2026-04-20T11:07:24Z</time></trkpt><trkpt lat="43.79004777229343" lon="12.120549060209882"><ele>1013.0</ele><time>2026-04-20T11:07:25Z</time></trkpt><trkpt lat="43.79013092054271" lon="12.120673033367055"><ele>1009.8</ele><time>2026-04-20T11:07:25.999Z</time></trkpt><trkpt lat="43.79019092830547" lon="12.120795210342761"><ele>1006.5999999999999</ele><time>2026-04-20T11:07:26.999Z</time></trkpt><trkpt lat="43.79023306352634" lon="12.120930840054628"><ele>1003.4000000000001</ele><time>2026-04-20T11:07:27.999Z</time></trkpt><trkpt lat="43.79027959955192" lon="12.121071577016018"><ele>1000.2</ele><time>2026-04-20T11:07:28.999Z</time></trkpt><trkpt lat="43.79033622529784" lon="12.121193261731445"><ele>997.0</ele><time>2026-04-20T11:07:29.999Z</time></trkpt><trkpt lat="43.79037903400888" lon="12.12131830859528"><ele>996.9999999999999</ele><time>2026-04-20T11:07:30.999Z</time></trkpt><trkpt lat="43.790424625905" lon="12.12143165816767"><ele>997.0</ele><time>2026-04-20T11:07:31.999Z</time></trkpt><trkpt lat="43.79046528871562" lon="12.121520120107578"><ele>997.0</ele><time>2026-04-20T11:07:32.999Z</time></trkpt><trkpt lat="43.790477405703236" lon="12.121616520371354"><ele>997.0</ele><time>2026-04-20T11:07:33.999Z</time></trkpt><trkpt lat="43.79047670563036" lon="12.121719141689615"><ele>996.9999999999999</ele><time>2026-04-20T11:07:34.999Z</time></trkpt><trkpt lat="43.79045264683883" lon="12.121817091810579"><ele>997.0</ele><time>2026-04-20T11:07:35.999Z</time></trkpt><trkpt lat="43.7903935876139" lon="12.121913686218292"><ele>995.8</ele><time>2026-04-20T11:07:36.999Z</time></trkpt><trkpt lat="43.790332215056154" lon="12.122028784655642"><ele>994.6</ele><time>2026-04-20T11:07:37.999Z</time></trkpt><trkpt lat="43.79026634347648" lon="12.122141524856428"><ele>993.3999999999999</ele><time>2026-04-20T11:07:38.999Z</time></trkpt><trkpt lat="43.79019921753154" lon="12.122242540329708"><ele>992.1999999999999</ele><time>2026-04-20T11:07:39.999Z</time></trkpt><trkpt lat="43.79012185977301" lon="12.122302931248544"><ele>991.0</ele><time>2026-04-20T11:07:40.999Z</time></trkpt><trkpt lat="43.79004213155067" lon="12.122327026010705"><ele>990.4</ele><time>2026-04-20T11:07:41.999Z</time></trkpt><trkpt lat="43.78996557346042" lon="12.12226644703057"><ele>989.8</ele><time>2026-04-20T11:07:42.999Z</time></trkpt><trkpt lat="43.78988019339748" lon="12.12219793213248"><ele>989.1999999999999</ele><time>2026-04-20T11:07:43.999Z</time></trkpt><trkpt lat="43.789797186323284" lon="12.122098090259028"><ele>988.5999999999999</ele><time>2026-04-20T11:07:44.999Z</time></trkpt><trkpt lat="43.7897415019839" lon="12.121974757523772"><ele>988.0</ele><time>2026-04-20T11:07:45.999Z</time></trkpt><trkpt lat="43.78970554747628" lon="12.121846788766433"><ele>988.0</ele><time>2026-04-20T11:07:46.999Z</time></trkpt><trkpt lat="43.78965745250016" lon="12.121727432639668"><ele>988.0</ele><time>2026-04-20T11:07:47.999Z</time></trkpt><trkpt lat="43.789588420230764" lon="12.121610906818951"><ele>988.0</ele><time>2026-04-20T11:07:48.999Z</time></trkpt><trkpt lat="43.78946079268771" lon="12.121576139018858"><ele>988.0</ele><time>2026-04-20T11:07:49.999Z</time></trkpt><trkpt lat="43.78934794572119" lon="12.121553204139568"><ele>987.5999999999999</ele><time>2026-04-20T11:07:50.999Z</time></trkpt><trkpt lat="43.78923911167497" lon="12.12153010735283"><ele>987.1999999999999</ele><time>2026-04-20T11:07:51.999Z</time></trkpt><trkpt lat="43.78916309393843" lon="12.121451729353293"><ele>986.8</ele><time>2026-04-20T11:07:53Z</time></trkpt><trkpt lat="43.78908647913853" lon="12.121382804346823"><ele>986.4</ele><time>2026-04-20T11:07:54Z</time></trkpt><trkpt lat="43.789019398587776" lon="12.121311399853019"><ele>986.0</ele><time>2026-04-20T11:07:55Z</time></trkpt><trkpt lat="43.788943009604516" lon="12.121256056623375"><ele>986.0000000000001</ele><time>2026-04-20T11:07:56Z</time></trkpt><trkpt lat="43.78887538712809" lon="12.121227387857616"><ele>986.0</ele><time>2026-04-20T11:07:57Z</time></trkpt><trkpt lat="43.78879879240028" lon="12.12128966967557"><ele>986.0</ele><time>2026-04-20T11:07:58Z</time></trkpt><trkpt lat="43.78874065983044" lon="12.121381823539522"><ele>986.0</ele><time>2026-04-20T11:07:59Z</time></trkpt><trkpt lat="43.788662338250894" lon="12.12144637452667"><ele>986.0000000000001</ele><time>2026-04-20T11:08:00Z</time></trkpt><trkpt lat="43.78860082763262" lon="12.121525818040075"><ele>986.0</ele><time>2026-04-20T11:08:01Z</time></trkpt><trkpt lat="43.78855710673609" lon="12.121592930625772"><ele>984.0</ele><time>2026-04-20T11:08:02Z</time></trkpt><trkpt lat="43.78854035209615" lon="12.121744262563316"><ele>981.9999999999999</ele><time>2026-04-20T11:08:04Z</time></trkpt><trkpt lat="43.78868312247439" lon="12.121783354989976"><ele>979.9999999999999</ele><time>2026-04-20T11:08:06Z</time></trkpt><trkpt lat="43.78876977340078" lon="12.121783102099284"><ele>978.0</ele><time>2026-04-20T11:08:07Z</time></trkpt><trkpt lat="43.78884094613637" lon="12.121824956440532"><ele>976.0</ele><time>2026-04-20T11:08:08Z</time></trkpt><trkpt lat="43.78886420434649" lon="12.121931312679221"><ele>976.0</ele><time>2026-04-20T11:08:09Z</time></trkpt><trkpt lat="43.78886176280585" lon="12.122068746149282"><ele>976.0</ele><time>2026-04-20T11:08:10Z</time></trkpt><trkpt lat="43.78889031491385" lon="12.122222297895656"><ele>976.0</ele><time>2026-04-20T11:08:11Z</time></trkpt><trkpt lat="43.78895632597665" lon="12.122364640471549"><ele>976.0</ele><time>2026-04-20T11:08:12Z</time></trkpt><trkpt lat="43.789007429997824" lon="12.122517135463028"><ele>974.5999999999999</ele><time>2026-04-20T11:08:13Z</time></trkpt><trkpt lat="43.789024343147666" lon="12.12267404500003"><ele>973.1999999999999</ele><time>2026-04-20T11:08:14Z</time></trkpt><trkpt lat="43.7890569257578" lon="12.122812935841834"><ele>971.8000000000001</ele><time>2026-04-20T11:08:15Z</time></trkpt><trkpt lat="43.789097889929046" lon="12.12293919161666"><ele>970.4000000000001</ele><time>2026-04-20T11:08:16Z</time></trkpt><trkpt lat="43.789168697086616" lon="12.123050528154566"><ele>969.0</ele><time>2026-04-20T11:08:17Z</time></trkpt><trkpt lat="43.789239150568484" lon="12.123150619197975"><ele>970.6</ele><time>2026-04-20T11:08:18Z</time></trkpt><trkpt lat="43.78931677185138" lon="12.123252051794877"><ele>972.2</ele><time>2026-04-20T11:08:19Z</time></trkpt><trkpt lat="43.7893659400039" lon="12.123365015043838"><ele>973.8000000000001</ele><time>2026-04-20T11:08:20Z</time></trkpt><trkpt lat="43.78936111240806" lon="12.123508793249961"><ele>975.4000000000001</ele><time>2026-04-20T11:08:21Z</time></trkpt><trkpt lat="43.78933602142697" lon="12.123620385572638"><ele>977.0</ele><time>2026-04-20T11:08:22Z</time></trkpt><trkpt lat="43.789273414832984" lon="12.1236941599774"><ele>972.2</ele><time>2026-04-20T11:08:23Z</time></trkpt><trkpt lat="43.789199456799075" lon="12.123789762279984"><ele>967.4000000000001</ele><time>2026-04-20T11:08:24Z</time></trkpt><trkpt lat="43.789163361990425" lon="12.123908853064425"><ele>962.5999999999999</ele><time>2026-04-20T11:08:25Z</time></trkpt><trkpt lat="43.789170816456426" lon="12.124034587368433"><ele>957.8</ele><time>2026-04-20T11:08:26Z</time></trkpt><trkpt lat="43.78922751898407" lon="12.124133434281166"><ele>953.0</ele><time>2026-04-20T11:08:27Z</time></trkpt><trkpt lat="43.78929078466003" lon="12.124224485950554"><ele>956.4</ele><time>2026-04-20T11:08:28Z</time></trkpt><trkpt lat="43.7893773600843" lon="12.124300907683088"><ele>959.8</ele><time>2026-04-20T11:08:29Z</time></trkpt><trkpt lat="43.78947266226884" lon="12.124387650199612"><ele>963.2</ele><time>2026-04-20T11:08:30Z</time></trkpt><trkpt lat="43.78956359864788" lon="12.124468968670921"><ele>966.6</ele><time>2026-04-20T11:08:31Z</time></trkpt><trkpt lat="43.78965136244701" lon="12.12456668667028"><ele>970.0</ele><time>2026-04-20T11:08:32Z</time></trkpt><trkpt lat="43.78973091841201" lon="12.124676248617293"><ele>969.9999999999999</ele><time>2026-04-20T11:08:33Z</time></trkpt><trkpt lat="43.78979012164497" lon="12.124791350543827"><ele>970.0</ele><time>2026-04-20T11:08:34Z</time></trkpt><trkpt lat="43.789785947410394" lon="12.124921013337024"><ele>970.0</ele><time>2026-04-20T11:08:35Z</time></trkpt><trkpt lat="43.789779091424016" lon="12.125040604858732"><ele>970.0</ele><time>2026-04-20T11:08:36Z</time></trkpt><trkpt lat="43.789764294769" lon="12.12515207311767"><ele>969.9999999999999</ele><time>2026-04-20T11:08:37Z</time></trkpt><trkpt lat="43.78974487873386" lon="12.125258851422904"><ele>970.0</ele><time>2026-04-20T11:08:38Z</time></trkpt><trkpt lat="43.78971934294117" lon="12.125365006574356"><ele>966.2</ele><time>2026-04-20T11:08:39Z</time></trkpt><trkpt lat="43.78970856932629" lon="12.125474281995356"><ele>962.4</ele><time>2026-04-20T11:08:40Z</time></trkpt><trkpt lat="43.789718285220125" lon="12.125581072662404"><ele>958.5999999999999</ele><time>2026-04-20T11:08:41Z</time></trkpt><trkpt lat="43.789790303013085" lon="12.125690950424802"><ele>954.8</ele><time>2026-04-20T11:08:42Z</time></trkpt><trkpt lat="43.789815176285224" lon="12.12584256696908"><ele>951.0</ele><time>2026-04-20T11:08:43Z</time></trkpt><trkpt lat="43.78984423799261" lon="12.126006550750692"><ele>949.0</ele><time>2026-04-20T11:08:44Z</time></trkpt><trkpt lat="43.78987510766892" lon="12.126165650389325"><ele>946.9999999999999</ele><time>2026-04-20T11:08:45Z</time></trkpt><trkpt lat="43.789895657047836" lon="12.126291018605585"><ele>944.9999999999999</ele><time>2026-04-20T11:08:46Z</time></trkpt><trkpt lat="43.789910665750504" lon="12.12639080627843"><ele>943.0</ele><time>2026-04-20T11:08:47Z</time></trkpt><trkpt lat="43.78985275031954" lon="12.126480897260496"><ele>941.0</ele><time>2026-04-20T11:08:48Z</time></trkpt><trkpt lat="43.7897455746593" lon="12.1264947000176"><ele>941.0</ele><time>2026-04-20T11:08:49Z</time></trkpt><trkpt lat="43.78964573871973" lon="12.12654417070431"><ele>940.9999999999999</ele><time>2026-04-20T11:08:50Z</time></trkpt><trkpt lat="43.789536425666896" lon="12.126602954619873"><ele>940.9999999999999</ele><time>2026-04-20T11:08:51Z</time></trkpt><trkpt lat="43.78943747710059" lon="12.126673568695853"><ele>941.0</ele><time>2026-04-20T11:08:52Z</time></trkpt><trkpt lat="43.78935749349387" lon="12.126753706587477"><ele>941.0</ele><time>2026-04-20T11:08:53Z</time></trkpt><trkpt lat="43.789301828053205" lon="12.126859886218211"><ele>941.8</ele><time>2026-04-20T11:08:54Z</time></trkpt><trkpt lat="43.78929053468232" lon="12.127011720277828"><ele>942.5999999999999</ele><time>2026-04-20T11:08:55Z</time></trkpt><trkpt lat="43.78928015429025" lon="12.127153675802214"><ele>943.4</ele><time>2026-04-20T11:08:56Z</time></trkpt><trkpt lat="43.789268129276486" lon="12.127297265413977"><ele>944.2</ele><time>2026-04-20T11:08:57Z</time></trkpt><trkpt lat="43.78931655298878" lon="12.127439395031697"><ele>945.0</ele><time>2026-04-20T11:08:58Z</time></trkpt><trkpt lat="43.78936881557264" lon="12.127572914287382"><ele>945.0</ele><time>2026-04-20T11:08:59Z</time></trkpt><trkpt lat="43.789370854343154" lon="12.12772373653971"><ele>945.0</ele><time>2026-04-20T11:09:00Z</time></trkpt><trkpt lat="43.78935410941322" lon="12.127873722276263"><ele>945.0</ele><time>2026-04-20T11:09:01Z</time></trkpt><trkpt lat="43.789353160868096" lon="12.1280287488381"><ele>945.0</ele><time>2026-04-20T11:09:02Z</time></trkpt><trkpt lat="43.78936896301227" lon="12.12817604291351"><ele>945.0</ele><time>2026-04-20T11:09:02.999Z</time></trkpt><trkpt lat="43.78938892341313" lon="12.128287035121243"><ele>940.6</ele><time>2026-04-20T11:09:03.999Z</time></trkpt><trkpt lat="43.78934511347808" lon="12.128428435839792"><ele>936.2</ele><time>2026-04-20T11:09:05.999Z</time></trkpt><trkpt lat="43.78926839470637" lon="12.12845485328819"><ele>931.8</ele><time>2026-04-20T11:09:06.999Z</time></trkpt><trkpt lat="43.789194342466104" lon="12.128508670513964"><ele>927.4</ele><time>2026-04-20T11:09:07.999Z</time></trkpt><trkpt lat="43.78910732634879" lon="12.128573909429065"><ele>923.0</ele><time>2026-04-20T11:09:08.999Z</time></trkpt><trkpt lat="43.78902282311778" lon="12.128640460279094"><ele>919.5999999999999</ele><time>2026-04-20T11:09:09.999Z</time></trkpt><trkpt lat="43.78894546192572" lon="12.128710715333828"><ele>916.1999999999999</ele><time>2026-04-20T11:09:10.999Z</time></trkpt><trkpt lat="43.788869804812066" lon="12.128785714033928"><ele>912.8</ele><time>2026-04-20T11:09:11.999Z</time></trkpt><trkpt lat="43.788798109052834" lon="12.128861558570325"><ele>909.4</ele><time>2026-04-20T11:09:12.999Z</time></trkpt><trkpt lat="43.78873177922624" lon="12.128965907428956"><ele>906.0</ele><time>2026-04-20T11:09:13.999Z</time></trkpt><trkpt lat="43.78866830417944" lon="12.129073304386988"><ele>903.5999999999999</ele><time>2026-04-20T11:09:14.999Z</time></trkpt><trkpt lat="43.788608475569134" lon="12.129180630853195"><ele>901.1999999999999</ele><time>2026-04-20T11:09:15.999Z</time></trkpt><trkpt lat="43.788551152540066" lon="12.129297411712358"><ele>898.8000000000001</ele><time>2026-04-20T11:09:16.999Z</time></trkpt><trkpt lat="43.78848528374368" lon="12.12940319590431"><ele>896.4000000000001</ele><time>2026-04-20T11:09:18Z</time></trkpt><trkpt lat="43.7884073121574" lon="12.129502413870767"><ele>894.0</ele><time>2026-04-20T11:09:19Z</time></trkpt><trkpt lat="43.788349790500504" lon="12.129602439887682"><ele>892.3333333333334</ele><time>2026-04-20T11:09:20Z</time></trkpt><trkpt lat="43.78828572083748" lon="12.12969154599454"><ele>890.6666666666667</ele><time>2026-04-20T11:09:21Z</time></trkpt><trkpt lat="43.788205120680466" lon="12.129729583666359"><ele>889.0</ele><time>2026-04-20T11:09:22Z</time></trkpt><trkpt lat="43.788141750287856" lon="12.129786086729164"><ele>887.3333333333334</ele><time>2026-04-20T11:09:23Z</time></trkpt><trkpt lat="43.788087643331764" lon="12.129843819041833"><ele>885.6666666666667</ele><time>2026-04-20T11:09:24Z</time></trkpt><trkpt lat="43.78805257104544" lon="12.12993107884359"><ele>884.0</ele><time>2026-04-20T11:09:25Z</time></trkpt><trkpt lat="43.78806785183647" lon="12.130044527483454"><ele>881.6</ele><time>2026-04-20T11:09:26Z</time></trkpt><trkpt lat="43.78813557160205" lon="12.130136100219232"><ele>879.2</ele><time>2026-04-20T11:09:27Z</time></trkpt><trkpt lat="43.788194356822515" lon="12.130238186013116"><ele>876.8000000000001</ele><time>2026-04-20T11:09:28Z</time></trkpt><trkpt lat="43.78824670603703" lon="12.130369516468631"><ele>874.4000000000001</ele><time>2026-04-20T11:09:29Z</time></trkpt><trkpt lat="43.788337258570145" lon="12.130456825275433"><ele>872.0</ele><time>2026-04-20T11:09:30Z</time></trkpt><trkpt lat="43.78841022302878" lon="12.130536846537408"><ele>872.0000000000001</ele><time>2026-04-20T11:09:31Z</time></trkpt><trkpt lat="43.78846428642553" lon="12.130607642239257"><ele>872.0</ele><time>2026-04-20T11:09:32Z</time></trkpt><trkpt lat="43.788492904681114" lon="12.130690703272597"><ele>872.0</ele><time>2026-04-20T11:09:33Z</time></trkpt><trkpt lat="43.788460112454686" lon="12.130782473862324"><ele>872.0</ele><time>2026-04-20T11:09:34Z</time></trkpt><trkpt lat="43.78835864667152" lon="12.130851328203622"><ele>872.0000000000001</ele><time>2026-04-20T11:09:36Z</time></trkpt><trkpt lat="43.788287794244354" lon="12.130819525862684"><ele>872.0</ele><time>2026-04-20T11:09:37Z</time></trkpt><trkpt lat="43.78819778417396" lon="12.130772567079893"><ele>868.5</ele><time>2026-04-20T11:09:38Z</time></trkpt><trkpt lat="43.788080185377666" lon="12.130743192050634"><ele>865.0</ele><time>2026-04-20T11:09:39Z</time></trkpt><trkpt lat="43.78796129188768" lon="12.130742144175967"><ele>861.5</ele><time>2026-04-20T11:09:40Z</time></trkpt><trkpt lat="43.78783966847661" lon="12.130806693184587"><ele>858.0</ele><time>2026-04-20T11:09:41Z</time></trkpt><trkpt lat="43.787725894107496" lon="12.130854200063709"><ele>856.0</ele><time>2026-04-20T11:09:42Z</time></trkpt><trkpt lat="43.78760745264282" lon="12.130865254014424"><ele>854.0</ele><time>2026-04-20T11:09:43Z</time></trkpt><trkpt lat="43.787497130936934" lon="12.130886322182445"><ele>852.0</ele><time>2026-04-20T11:09:44Z</time></trkpt><trkpt lat="43.78738306461469" lon="12.130946667148882"><ele>850.0</ele><time>2026-04-20T11:09:45Z</time></trkpt><trkpt lat="43.78729545416499" lon="12.131054299413334"><ele>850.0</ele><time>2026-04-20T11:09:46Z</time></trkpt><trkpt lat="43.787188068575745" lon="12.131125950688002"><ele>850.0</ele><time>2026-04-20T11:09:47Z</time></trkpt><trkpt lat="43.787095012846756" lon="12.131209971189461"><ele>850.0</ele><time>2026-04-20T11:09:48Z</time></trkpt><trkpt lat="43.78701613777961" lon="12.131292498283472"><ele>850.0</ele><time>2026-04-20T11:09:49Z</time></trkpt><trkpt lat="43.78692280320819" lon="12.131337379319302"><ele>850.0</ele><time>2026-04-20T11:09:50Z</time></trkpt><trkpt lat="43.78681666366584" lon="12.1313116292781"><ele>848.4999999999999</ele><time>2026-04-20T11:09:51Z</time></trkpt><trkpt lat="43.786730601708896" lon="12.131338595412803"><ele>847.0</ele><time>2026-04-20T11:09:52Z</time></trkpt><trkpt lat="43.78665793825517" lon="12.131374245428194"><ele>845.5</ele><time>2026-04-20T11:09:53Z</time></trkpt><trkpt lat="43.78661137146965" lon="12.131458677829894"><ele>844.0</ele><time>2026-04-20T11:09:54Z</time></trkpt><trkpt lat="43.786606804999444" lon="12.131583283161268"><ele>842.4999999999999</ele><time>2026-04-20T11:09:55Z</time></trkpt><trkpt lat="43.78664487729141" lon="12.131708429236493"><ele>841.0</ele><time>2026-04-20T11:09:56Z</time></trkpt><trkpt lat="43.786722371508375" lon="12.131820976783253"><ele>839.0</ele><time>2026-04-20T11:09:57Z</time></trkpt><trkpt lat="43.78680558699115" lon="12.13191633153635"><ele>837.0</ele><time>2026-04-20T11:09:58Z</time></trkpt><trkpt lat="43.78690845856209" lon="12.132008176499008"><ele>835.0</ele><time>2026-04-20T11:09:59Z</time></trkpt><trkpt lat="43.78701455267318" lon="12.132067600069512"><ele>833.0</ele><time>2026-04-20T11:10:00Z</time></trkpt><trkpt lat="43.78712155768211" lon="12.132081450118045"><ele>833.0</ele><time>2026-04-20T11:10:01Z</time></trkpt><trkpt lat="43.78722031447495" lon="12.132092927614966"><ele>833.0</ele><time>2026-04-20T11:10:02Z</time></trkpt><trkpt lat="43.78729576030575" lon="12.132169194075574"><ele>833.0</ele><time>2026-04-20T11:10:03Z</time></trkpt><trkpt lat="43.78734548632632" lon="12.132239702751644"><ele>833.0</ele><time>2026-04-20T11:10:04Z</time></trkpt><trkpt lat="43.78736432388843" lon="12.132385964021049"><ele>833.0</ele><time>2026-04-20T11:10:06Z</time></trkpt><trkpt lat="43.787268402614" lon="12.132464789974577"><ele>830.2</ele><time>2026-04-20T11:10:08Z</time></trkpt><trkpt lat="43.787182576850384" lon="12.13243096639907"><ele>827.4</ele><time>2026-04-20T11:10:09Z</time></trkpt><trkpt lat="43.787076128451055" lon="12.132450599734506"><ele>824.6</ele><time>2026-04-20T11:10:10Z</time></trkpt><trkpt lat="43.786969687207744" lon="12.132492839756784"><ele>821.8000000000001</ele><time>2026-04-20T11:10:11Z</time></trkpt><trkpt lat="43.78685495471748" lon="12.132518097587683"><ele>819.0</ele><time>2026-04-20T11:10:12Z</time></trkpt><trkpt lat="43.78673884276095" lon="12.13254668191785"><ele>818.25</ele><time>2026-04-20T11:10:13Z</time></trkpt><trkpt lat="43.786615718888974" lon="12.132586181430886"><ele>817.5</ele><time>2026-04-20T11:10:14Z</time></trkpt><trkpt lat="43.78648907838516" lon="12.132636569766204"><ele>816.75</ele><time>2026-04-20T11:10:15Z</time></trkpt><trkpt lat="43.78637085777411" lon="12.132679309372142"><ele>816.0</ele><time>2026-04-20T11:10:16Z</time></trkpt><trkpt lat="43.786259259946284" lon="12.132735847981497"><ele>816.0</ele><time>2026-04-20T11:10:17Z</time></trkpt><trkpt lat="43.78616103511119" lon="12.132784062885612"><ele>816.0</ele><time>2026-04-20T11:10:18Z</time></trkpt><trkpt lat="43.78608563303748" lon="12.132834905698667"><ele>816.0</ele><time>2026-04-20T11:10:19Z</time></trkpt><trkpt lat="43.7860220225952" lon="12.13291116361787"><ele>816.0</ele><time>2026-04-20T11:10:20Z</time></trkpt><trkpt lat="43.785968014613374" lon="12.133010022840455"><ele>816.0</ele><time>2026-04-20T11:10:21Z</time></trkpt><trkpt lat="43.785905853565254" lon="12.133124841021429"><ele>812.25</ele><time>2026-04-20T11:10:22Z</time></trkpt><trkpt lat="43.785799918171676" lon="12.133191609085788"><ele>808.5</ele><time>2026-04-20T11:10:23Z</time></trkpt><trkpt lat="43.78567746885209" lon="12.133226427520636"><ele>804.75</ele><time>2026-04-20T11:10:24Z</time></trkpt><trkpt lat="43.7855579317197" lon="12.133263283198657"><ele>801.0</ele><time>2026-04-20T11:10:25Z</time></trkpt><trkpt lat="43.78545141956398" lon="12.133278699918332"><ele>801.0</ele><time>2026-04-20T11:10:26Z</time></trkpt><trkpt lat="43.78535206932964" lon="12.133327386963648"><ele>801.0</ele><time>2026-04-20T11:10:27Z</time></trkpt><trkpt lat="43.78527255051186" lon="12.133371327235302"><ele>801.0</ele><time>2026-04-20T11:10:28Z</time></trkpt><trkpt lat="43.785220598721985" lon="12.133453588942565"><ele>801.0</ele><time>2026-04-20T11:10:29Z</time></trkpt><trkpt lat="43.78519445230424" lon="12.133534574584225"><ele>801.0</ele><time>2026-04-20T11:10:30Z</time></trkpt><trkpt lat="43.785211076089354" lon="12.13367245983476"><ele>801.0</ele><time>2026-04-20T11:10:31Z</time></trkpt><trkpt lat="43.785233771376156" lon="12.133827447484176"><ele>801.0</ele><time>2026-04-20T11:10:32Z</time></trkpt><trkpt lat="43.78525990323965" lon="12.133993770550555"><ele>801.0</ele><time>2026-04-20T11:10:33Z</time></trkpt><trkpt lat="43.78527641735919" lon="12.134126997715263"><ele>801.0</ele><time>2026-04-20T11:10:34Z</time></trkpt><trkpt lat="43.78527815161517" lon="12.134283927399979"><ele>801.0</ele><time>2026-04-20T11:10:35Z</time></trkpt><trkpt lat="43.78526976313132" lon="12.13441736197617"><ele>801.0</ele><time>2026-04-20T11:10:36Z</time></trkpt><trkpt lat="43.785249161972196" lon="12.134550262155027"><ele>799.75</ele><time>2026-04-20T11:10:37Z</time></trkpt><trkpt lat="43.785200447800975" lon="12.134664189949797"><ele>798.5</ele><time>2026-04-20T11:10:38Z</time></trkpt><trkpt lat="43.78512571754365" lon="12.134754117910317"><ele>797.25</ele><time>2026-04-20T11:10:39Z</time></trkpt><trkpt lat="43.7850234976601" lon="12.134832173287485"><ele>796.0</ele><time>2026-04-20T11:10:40Z</time></trkpt><trkpt lat="43.784803170438295" lon="12.135002344177074"><ele>793.0</ele><time>2026-04-20T11:10:42Z</time></trkpt><trkpt lat="43.78469517917533" lon="12.1350890500045"><ele>790.0</ele><time>2026-04-20T11:10:43Z</time></trkpt><trkpt lat="43.78458952961934" lon="12.135167826974024"><ele>787.0</ele><time>2026-04-20T11:10:44Z</time></trkpt><trkpt lat="43.78448817673957" lon="12.135223102801934"><ele>784.0</ele><time>2026-04-20T11:10:45Z</time></trkpt><trkpt lat="43.78439525487477" lon="12.13526726650119"><ele>781.2</ele><time>2026-04-20T11:10:46Z</time></trkpt><trkpt lat="43.784302070563584" lon="12.135316750678546"><ele>778.4000000000001</ele><time>2026-04-20T11:10:47Z</time></trkpt><trkpt lat="43.7842471227871" lon="12.135374423152744"><ele>775.6</ele><time>2026-04-20T11:10:48Z</time></trkpt><trkpt lat="43.784172928052556" lon="12.135494301855141"><ele>772.8</ele><time>2026-04-20T11:10:50Z</time></trkpt><trkpt lat="43.7841961847175" lon="12.135634924479689"><ele>770.0</ele><time>2026-04-20T11:10:51Z</time></trkpt><trkpt lat="43.78422057261626" lon="12.135754310151633"><ele>769.6</ele><time>2026-04-20T11:10:52Z</time></trkpt><trkpt lat="43.784260923784664" lon="12.13588079733833"><ele>769.2</ele><time>2026-04-20T11:10:53Z</time></trkpt><trkpt lat="43.78430445145656" lon="12.136004617966682"><ele>768.8</ele><time>2026-04-20T11:10:54Z</time></trkpt><trkpt lat="43.784349158955294" lon="12.13613443403404"><ele>768.4</ele><time>2026-04-20T11:10:55Z</time></trkpt><trkpt lat="43.78441300044749" lon="12.136272354658594"><ele>768.0</ele><time>2026-04-20T11:10:56Z</time></trkpt><trkpt lat="43.78445670004413" lon="12.13640620765736"><ele>769.2</ele><time>2026-04-20T11:10:57Z</time></trkpt><trkpt lat="43.78450175307572" lon="12.136545333835812"><ele>770.4</ele><time>2026-04-20T11:10:58Z</time></trkpt><trkpt lat="43.78451571773519" lon="12.136666329360404"><ele>771.6</ele><time>2026-04-20T11:10:59Z</time></trkpt><trkpt lat="43.784526131110944" lon="12.136782559187568"><ele>772.8000000000001</ele><time>2026-04-20T11:11:00Z</time></trkpt><trkpt lat="43.78450423631409" lon="12.136961080577716"><ele>774.0</ele><time>2026-04-20T11:11:02Z</time></trkpt><trkpt lat="43.784480392094906" lon="12.13706171282011"><ele>771.8333333333334</ele><time>2026-04-20T11:11:03Z</time></trkpt><trkpt lat="43.78444538797011" lon="12.137139096536309"><ele>769.6666666666666</ele><time>2026-04-20T11:11:04Z</time></trkpt><trkpt lat="43.78441165788796" lon="12.13722335359143"><ele>767.5</ele><time>2026-04-20T11:11:05Z</time></trkpt><trkpt lat="43.78434300886113" lon="12.137381105601747"><ele>765.3333333333333</ele><time>2026-04-20T11:11:07Z</time></trkpt><trkpt lat="43.78430903272058" lon="12.137459555989928"><ele>763.1666666666666</ele><time>2026-04-20T11:11:08Z</time></trkpt><trkpt lat="43.78428649056426" lon="12.137549009395071"><ele>761.0</ele><time>2026-04-20T11:11:09Z</time></trkpt><trkpt lat="43.784247149344225" lon="12.137617732465094"><ele>759.4</ele><time>2026-04-20T11:11:10Z</time></trkpt><trkpt lat="43.784201995605365" lon="12.137747538912883"><ele>757.8</ele><time>2026-04-20T11:11:12Z</time></trkpt><trkpt lat="43.78418271894838" lon="12.137842886763348"><ele>756.1999999999999</ele><time>2026-04-20T11:12:01Z</time></trkpt><trkpt lat="43.78418371739278" lon="12.137955941369595"><ele>754.5999999999999</ele><time>2026-04-20T11:12:05Z</time></trkpt><trkpt lat="43.78432923159195" lon="12.137852799174974"><ele>753.0</ele><time>2026-04-20T11:12:07Z</time></trkpt><trkpt lat="43.78439212190675" lon="12.137776927275574"><ele>751.0</ele><time>2026-04-20T11:12:09Z</time></trkpt><trkpt lat="43.78446997283866" lon="12.137713909475195"><ele>749.0</ele><time>2026-04-20T11:12:11Z</time></trkpt><trkpt lat="43.7845635012103" lon="12.137651932437754"><ele>747.0</ele><time>2026-04-20T11:12:13Z</time></trkpt><trkpt lat="43.78466048303476" lon="12.137567240503538"><ele>745.0</ele><time>2026-04-20T11:12:15Z</time></trkpt><trkpt lat="43.784754240498266" lon="12.13748623120558"><ele>743.0</ele><time>2026-04-20T11:12:17Z</time></trkpt><trkpt lat="43.7848105390704" lon="12.137441180577138"><ele>743.0</ele><time>2026-04-20T11:12:18Z</time></trkpt><trkpt lat="43.78487496651227" lon="12.137392651016429"><ele>743.0</ele><time>2026-04-20T11:12:19Z</time></trkpt><trkpt lat="43.78494888115775" lon="12.137333035756276"><ele>743.0</ele><time>2026-04-20T11:12:20Z</time></trkpt><trkpt lat="43.785028444810806" lon="12.137264715529176"><ele>743.0</ele><time>2026-04-20T11:12:21Z</time></trkpt><trkpt lat="43.78511572567393" lon="12.137196525435328"><ele>743.0</ele><time>2026-04-20T11:12:22Z</time></trkpt><trkpt lat="43.785197858282494" lon="12.137135392211245"><ele>743.0</ele><time>2026-04-20T11:12:23Z</time></trkpt><trkpt lat="43.78527586232277" lon="12.137079835308612"><ele>744.5999999999999</ele><time>2026-04-20T11:12:24Z</time></trkpt><trkpt lat="43.78535589455301" lon="12.13702493813747"><ele>746.1999999999999</ele><time>2026-04-20T11:12:25Z</time></trkpt><trkpt lat="43.785448496999265" lon="12.1369676083528"><ele>747.8</ele><time>2026-04-20T11:12:26Z</time></trkpt><trkpt lat="43.78554913639207" lon="12.136911876504389"><ele>749.4</ele><time>2026-04-20T11:12:27Z</time></trkpt><trkpt lat="43.78566320845351" lon="12.13689804941425"><ele>751.0</ele><time>2026-04-20T11:12:28Z</time></trkpt><trkpt lat="43.785780545381755" lon="12.136855917741643"><ele>751.0</ele><time>2026-04-20T11:12:29Z</time></trkpt><trkpt lat="43.78591019309558" lon="12.136841726539298"><ele>751.0</ele><time>2026-04-20T11:12:30Z</time></trkpt><trkpt lat="43.78604656078655" lon="12.13682752828445"><ele>751.0</ele><time>2026-04-20T11:12:31Z</time></trkpt><trkpt lat="43.78619113906158" lon="12.136813151798924"><ele>751.0</ele><time>2026-04-20T11:12:32Z</time></trkpt><trkpt lat="43.78633912647965" lon="12.136792703364355"><ele>747.6666666666667</ele><time>2026-04-20T11:12:33Z</time></trkpt><trkpt lat="43.7864975424572" lon="12.136765419618708"><ele>744.3333333333334</ele><time>2026-04-20T11:12:34Z</time></trkpt><trkpt lat="43.786658551757434" lon="12.136762036551799"><ele>741.0</ele><time>2026-04-20T11:12:35Z</time></trkpt><trkpt lat="43.78681492098041" lon="12.136731392554655"><ele>740.0</ele><time>2026-04-20T11:12:36Z</time></trkpt><trkpt lat="43.786960663142395" lon="12.136691049827277"><ele>739.0</ele><time>2026-04-20T11:12:37Z</time></trkpt><trkpt lat="43.787086621427974" lon="12.136621843471984"><ele>738.0</ele><time>2026-04-20T11:12:38Z</time></trkpt><trkpt lat="43.7872133531316" lon="12.136571431714748"><ele>737.0</ele><time>2026-04-20T11:12:39Z</time></trkpt><trkpt lat="43.7873486929725" lon="12.13653297384517"><ele>737.0</ele><time>2026-04-20T11:12:40Z</time></trkpt><trkpt lat="43.78749062270164" lon="12.13656039641852"><ele>737.0</ele><time>2026-04-20T11:12:41Z</time></trkpt><trkpt lat="43.78763572170754" lon="12.136575241445625"><ele>737.0</ele><time>2026-04-20T11:12:42Z</time></trkpt><trkpt lat="43.787775769481584" lon="12.136567423090566"><ele>737.0</ele><time>2026-04-20T11:12:43Z</time></trkpt><trkpt lat="43.78790549630221" lon="12.136568779295233"><ele>737.4000000000001</ele><time>2026-04-20T11:12:44Z</time></trkpt><trkpt lat="43.78802601930854" lon="12.136552444760849"><ele>737.8000000000001</ele><time>2026-04-20T11:12:45Z</time></trkpt><trkpt lat="43.78813699399921" lon="12.136590909008932"><ele>738.2</ele><time>2026-04-20T11:12:46Z</time></trkpt><trkpt lat="43.788236792098324" lon="12.136639666502584"><ele>738.6</ele><time>2026-04-20T11:12:47Z</time></trkpt><trkpt lat="43.788309740110776" lon="12.136737630577146"><ele>739.0</ele><time>2026-04-20T11:12:48Z</time></trkpt><trkpt lat="43.78836428249987" lon="12.136865332007618"><ele>739.0</ele><time>2026-04-20T11:12:49Z</time></trkpt><trkpt lat="43.78839647731765" lon="12.137011901986268"><ele>739.0</ele><time>2026-04-20T11:12:50Z</time></trkpt><trkpt lat="43.78837051539518" lon="12.137169222326643"><ele>739.0</ele><time>2026-04-20T11:12:51Z</time></trkpt><trkpt lat="43.788332755100086" lon="12.137341609859297"><ele>739.0</ele><time>2026-04-20T11:12:52Z</time></trkpt><trkpt lat="43.78828670501065" lon="12.137530173025668"><ele>737.3333333333334</ele><time>2026-04-20T11:12:53Z</time></trkpt><trkpt lat="43.788235048660205" lon="12.13772793017215"><ele>735.6666666666666</ele><time>2026-04-20T11:12:54Z</time></trkpt><trkpt lat="43.78818472668604" lon="12.13793516927909"><ele>734.0</ele><time>2026-04-20T11:12:55Z</time></trkpt><trkpt lat="43.78815532212741" lon="12.13816345758354"><ele>734.0</ele><time>2026-04-20T11:12:56Z</time></trkpt><trkpt lat="43.7881587812065" lon="12.138389562098448"><ele>734.0</ele><time>2026-04-20T11:12:57Z</time></trkpt><trkpt lat="43.788122429890684" lon="12.138605114467316"><ele>734.0</ele><time>2026-04-20T11:12:58Z</time></trkpt><trkpt lat="43.78805349177984" lon="12.138793995721866"><ele>735.0</ele><time>2026-04-20T11:12:59Z</time></trkpt><trkpt lat="43.78788040863434" lon="12.139147765666642"><ele>736.0</ele><time>2026-04-20T11:13:01Z</time></trkpt><trkpt lat="43.787802621216365" lon="12.13933106522427"><ele>736.0</ele><time>2026-04-20T11:13:02Z</time></trkpt><trkpt lat="43.78773418155009" lon="12.139525975383167"><ele>736.0</ele><time>2026-04-20T11:13:03Z</time></trkpt><trkpt lat="43.78767602075827" lon="12.139725029230508"><ele>736.0</ele><time>2026-04-20T11:13:04Z</time></trkpt><trkpt lat="43.787622336214554" lon="12.13991293982964"><ele>732.1999999999999</ele><time>2026-04-20T11:13:05Z</time></trkpt><trkpt lat="43.78756864867994" lon="12.140080542835697"><ele>728.4</ele><time>2026-04-20T11:13:06Z</time></trkpt><trkpt lat="43.787530148406134" lon="12.1402347733923"><ele>724.6</ele><time>2026-04-20T11:13:07Z</time></trkpt><trkpt lat="43.78752060888974" lon="12.140358285800561"><ele>720.8</ele><time>2026-04-20T11:13:08Z</time></trkpt><trkpt lat="43.787545275273054" lon="12.140442682204364"><ele>717.0</ele><time>2026-04-20T11:13:09Z</time></trkpt><trkpt lat="43.7876050295937" lon="12.140514862646878"><ele>717.0</ele><time>2026-04-20T11:13:10Z</time></trkpt><trkpt lat="43.78769370083567" lon="12.140564173610935"><ele>717.0</ele><time>2026-04-20T11:13:11Z</time></trkpt><trkpt lat="43.78779919034482" lon="12.140610048066351"><ele>717.0</ele><time>2026-04-20T11:13:12Z</time></trkpt><trkpt lat="43.787904101136306" lon="12.140689446166242"><ele>717.0</ele><time>2026-04-20T11:13:13Z</time></trkpt><trkpt lat="43.788003256289535" lon="12.140807602958004"><ele>717.0</ele><time>2026-04-20T11:13:13.999Z</time></trkpt><trkpt lat="43.78808132872906" lon="12.140955941435436"><ele>717.0</ele><time>2026-04-20T11:13:14.999Z</time></trkpt><trkpt lat="43.7881304409901" lon="12.1411168777156"><ele>717.0</ele><time>2026-04-20T11:13:15.999Z</time></trkpt><trkpt lat="43.78816144688915" lon="12.141283528059263"><ele>717.0</ele><time>2026-04-20T11:13:16.999Z</time></trkpt><trkpt lat="43.78819230514823" lon="12.141449122625408"><ele>715.8</ele><time>2026-04-20T11:13:17.999Z</time></trkpt><trkpt lat="43.788245469658946" lon="12.14156305817016"><ele>714.6</ele><time>2026-04-20T11:13:18.999Z</time></trkpt><trkpt lat="43.7883223755143" lon="12.141623514952686"><ele>713.4</ele><time>2026-04-20T11:13:19.999Z</time></trkpt><trkpt lat="43.788417326775196" lon="12.14162954505572"><ele>712.1999999999999</ele><time>2026-04-20T11:13:20.999Z</time></trkpt><trkpt lat="43.788523972145015" lon="12.141593800031323"><ele>711.0</ele><time>2026-04-20T11:13:21.999Z</time></trkpt><trkpt lat="43.788642599140566" lon="12.141545706316764"><ele>715.75</ele><time>2026-04-20T11:13:22.999Z</time></trkpt><trkpt lat="43.78878256230753" lon="12.141511540905842"><ele>720.5</ele><time>2026-04-20T11:13:23.999Z</time></trkpt><trkpt lat="43.788926811212335" lon="12.141469538052084"><ele>725.25</ele><time>2026-04-20T11:13:24.999Z</time></trkpt><trkpt lat="43.78905965284951" lon="12.141434050869933"><ele>730.0</ele><time>2026-04-20T11:13:25.999Z</time></trkpt><trkpt lat="43.78918089660729" lon="12.141421901228071"><ele>730.0</ele><time>2026-04-20T11:13:26.999Z</time></trkpt><trkpt lat="43.78930055286798" lon="12.141435949451365"><ele>730.0</ele><time>2026-04-20T11:13:27.999Z</time></trkpt><trkpt lat="43.78940899695665" lon="12.141472232529118"><ele>730.0</ele><time>2026-04-20T11:13:28.999Z</time></trkpt><trkpt lat="43.78950735021535" lon="12.141540585276749"><ele>730.0</ele><time>2026-04-20T11:13:29.999Z</time></trkpt><trkpt lat="43.7895966793517" lon="12.14163800591645"><ele>724.25</ele><time>2026-04-20T11:13:30.999Z</time></trkpt><trkpt lat="43.78968726728478" lon="12.141750751443666"><ele>718.5</ele><time>2026-04-20T11:13:31.999Z</time></trkpt><trkpt lat="43.78977481113792" lon="12.141872165824859"><ele>712.75</ele><time>2026-04-20T11:13:32.999Z</time></trkpt><trkpt lat="43.78985234763556" lon="12.141985223968737"><ele>707.0</ele><time>2026-04-20T11:13:33.999Z</time></trkpt><trkpt lat="43.78993055702341" lon="12.142057862825133"><ele>707.0</ele><time>2026-04-20T11:13:34.999Z</time></trkpt><trkpt lat="43.790001982394145" lon="12.142096829590422"><ele>707.0</ele><time>2026-04-20T11:13:35.999Z</time></trkpt><trkpt lat="43.79008228675968" lon="12.142093026412741"><ele>707.0</ele><time>2026-04-20T11:13:36.999Z</time></trkpt><trkpt lat="43.790171581561864" lon="12.14205772005336"><ele>707.0</ele><time>2026-04-20T11:13:37.999Z</time></trkpt><trkpt lat="43.790273269209216" lon="12.142015792422775"><ele>707.0</ele><time>2026-04-20T11:13:39Z</time></trkpt><trkpt lat="43.790383330702056" lon="12.141977533039114"><ele>704.75</ele><time>2026-04-20T11:13:40Z</time></trkpt><trkpt lat="43.790501387769474" lon="12.14193686090555"><ele>702.5</ele><time>2026-04-20T11:13:41Z</time></trkpt><trkpt lat="43.79061180823187" lon="12.1418985765875"><ele>700.25</ele><time>2026-04-20T11:13:42Z</time></trkpt><trkpt lat="43.79072357335052" lon="12.141853987713143"><ele>698.0</ele><time>2026-04-20T11:13:43Z</time></trkpt><trkpt lat="43.79083669853711" lon="12.141800750584622"><ele>698.0</ele><time>2026-04-20T11:13:44Z</time></trkpt><trkpt lat="43.7909496119554" lon="12.141727512751194"><ele>698.0</ele><time>2026-04-20T11:13:45Z</time></trkpt><trkpt lat="43.79106250839064" lon="12.141623784249399"><ele>698.0</ele><time>2026-04-20T11:13:46Z</time></trkpt><trkpt lat="43.79116841746588" lon="12.141517873577152"><ele>698.0</ele><time>2026-04-20T11:13:47Z</time></trkpt><trkpt lat="43.791267445527936" lon="12.141416342348565"><ele>696.8333333333333</ele><time>2026-04-20T11:13:48Z</time></trkpt><trkpt lat="43.79135842680228" lon="12.1413450685567"><ele>695.6666666666666</ele><time>2026-04-20T11:13:49Z</time></trkpt><trkpt lat="43.791441330108334" lon="12.1413192407067"><ele>694.5</ele><time>2026-04-20T11:13:50Z</time></trkpt><trkpt lat="43.791509886206974" lon="12.141356653055109"><ele>693.3333333333334</ele><time>2026-04-20T11:13:51Z</time></trkpt><trkpt lat="43.79155889138047" lon="12.141441579497505"><ele>692.1666666666667</ele><time>2026-04-20T11:13:52Z</time></trkpt><trkpt lat="43.79157951969978" lon="12.141554941962717"><ele>691.0</ele><time>2026-04-20T11:13:53Z</time></trkpt><trkpt lat="43.791564786022036" lon="12.141687767201548"><ele>691.0</ele><time>2026-04-20T11:13:54Z</time></trkpt><trkpt lat="43.79151458338315" lon="12.141850315402642"><ele>691.0</ele><time>2026-04-20T11:13:55Z</time></trkpt><trkpt lat="43.79145628521454" lon="12.141998658762752"><ele>691.0</ele><time>2026-04-20T11:13:56Z</time></trkpt><trkpt lat="43.79141996545185" lon="12.142144181797208"><ele>691.0</ele><time>2026-04-20T11:13:57Z</time></trkpt><trkpt lat="43.79140678138763" lon="12.14229945942177"><ele>828.0</ele><time>2026-04-20T11:13:58Z</time></trkpt><trkpt lat="43.78680558699115" lon="12.13191633153635"><ele>829.0</ele><time>2026-04-20T11:09:58Z</time></trkpt><trkpt lat="43.78690845856209" lon="12.132008176499008"><ele>830.0</ele><time>2026-04-20T11:09:59Z</time></trkpt><trkpt lat="43.78701455267318" lon="12.132067600069512"><ele>831.0</ele><time>2026-04-20T11:10:00Z</time></trkpt><trkpt lat="43.78712155768211" lon="12.132081450118045"><ele>832.0</ele><time>2026-04-20T11:10:01Z</time></trkpt><trkpt lat="43.78722031447495" lon="12.132092927614966"><ele>833.0</ele><time>2026-04-20T11:10:02Z</time></trkpt><trkpt lat="43.78729576030575" lon="12.132169194075574"><ele>833.0</ele><time>2026-04-20T11:10:03Z</time></trkpt><trkpt lat="43.78734548632632" lon="12.132239702751644"><ele>833.0</ele><time>2026-04-20T11:10:04Z</time></trkpt><trkpt lat="43.78736432388843" lon="12.132385964021049"><ele>833.0</ele><time>2026-04-20T11:10:06Z</time></trkpt><trkpt lat="43.787268402614" lon="12.132464789974577"><ele>833.0</ele><time>2026-04-20T11:10:08Z</time></trkpt><trkpt lat="43.787182576850384" lon="12.13243096639907"><ele>833.0</ele><time>2026-04-20T11:10:09Z</time></trkpt><trkpt lat="43.787076128451055" lon="12.132450599734506"><ele>829.5</ele><time>2026-04-20T11:10:10Z</time></trkpt><trkpt lat="43.786969687207744" lon="12.132492839756784"><ele>826.0</ele><time>2026-04-20T11:10:11Z</time></trkpt><trkpt lat="43.78685495471748" lon="12.132518097587683"><ele>822.5</ele><time>2026-04-20T11:10:12Z</time></trkpt><trkpt lat="43.78673884276095" lon="12.13254668191785"><ele>819.0</ele><time>2026-04-20T11:10:13Z</time></trkpt><trkpt lat="43.786615718888974" lon="12.132586181430886"><ele>818.25</ele><time>2026-04-20T11:10:14Z</time></trkpt><trkpt lat="43.78648907838516" lon="12.132636569766204"><ele>817.5</ele><time>2026-04-20T11:10:15Z</time></trkpt><trkpt lat="43.78637085777411" lon="12.132679309372142"><ele>816.75</ele><time>2026-04-20T11:10:16Z</time></trkpt><trkpt lat="43.786259259946284" lon="12.132735847981497"><ele>816.0</ele><time>2026-04-20T11:10:17Z</time></trkpt><trkpt lat="43.78616103511119" lon="12.132784062885612"><ele>816.0</ele><time>2026-04-20T11:10:18Z</time></trkpt><trkpt lat="43.78608563303748" lon="12.132834905698667"><ele>816.0</ele><time>2026-04-20T11:10:19Z</time></trkpt><trkpt lat="43.7860220225952" lon="12.13291116361787"><ele>816.0</ele><time>2026-04-20T11:10:20Z</time></trkpt><trkpt lat="43.785968014613374" lon="12.133010022840455"><ele>816.0</ele><time>2026-04-20T11:10:21Z</time></trkpt><trkpt lat="43.785905853565254" lon="12.133124841021429"><ele>816.0</ele><time>2026-04-20T11:10:22Z</time></trkpt><trkpt lat="43.785799918171676" lon="12.133191609085788"><ele>812.25</ele><time>2026-04-20T11:10:23Z</time></trkpt><trkpt lat="43.78567746885209" lon="12.133226427520636"><ele>808.5</ele><time>2026-04-20T11:10:24Z</time></trkpt><trkpt lat="43.7855579317197" lon="12.133263283198657"><ele>804.75</ele><time>2026-04-20T11:10:25Z</time></trkpt><trkpt lat="43.78545141956398" lon="12.133278699918332"><ele>801.0</ele><time>2026-04-20T11:10:26Z</time></trkpt><trkpt lat="43.78535206932964" lon="12.133327386963648"><ele>801.0</ele><time>2026-04-20T11:10:27Z</time></trkpt><trkpt lat="43.78527255051186" lon="12.133371327235302"><ele>801.0</ele><time>2026-04-20T11:10:28Z</time></trkpt><trkpt lat="43.785220598721985" lon="12.133453588942565"><ele>801.0</ele><time>2026-04-20T11:10:29Z</time></trkpt><trkpt lat="43.78519445230424" lon="12.133534574584225"><ele>801.0</ele><time>2026-04-20T11:10:30Z</time></trkpt><trkpt lat="43.785211076089354" lon="12.13367245983476"><ele>801.0</ele><time>2026-04-20T11:10:31Z</time></trkpt><trkpt lat="43.785233771376156" lon="12.133827447484176"><ele>801.0</ele><time>2026-04-20T11:10:32Z</time></trkpt><trkpt lat="43.78525990323965" lon="12.133993770550555"><ele>800.0</ele><time>2026-04-20T11:10:33Z</time></trkpt><trkpt lat="43.78527641735919" lon="12.134126997715263"><ele>799.0</ele><time>2026-04-20T11:10:34Z</time></trkpt><trkpt lat="43.78527815161517" lon="12.134283927399979"><ele>798.0</ele><time>2026-04-20T11:10:35Z</time></trkpt><trkpt lat="43.78526976313132" lon="12.13441736197617"><ele>797.0</ele><time>2026-04-20T11:10:36Z</time></trkpt><trkpt lat="43.785249161972196" lon="12.134550262155027"><ele>796.0</ele><time>2026-04-20T11:10:37Z</time></trkpt><trkpt lat="43.785200447800975" lon="12.134664189949797"><ele>793.0</ele><time>2026-04-20T11:10:38Z</time></trkpt><trkpt lat="43.78512571754365" lon="12.134754117910317"><ele>790.0</ele><time>2026-04-20T11:10:39Z</time></trkpt><trkpt lat="43.7850234976601" lon="12.134832173287485"><ele>787.0</ele><time>2026-04-20T11:10:40Z</time></trkpt><trkpt lat="43.784803170438295" lon="12.135002344177074"><ele>786.25</ele><time>2026-04-20T11:10:42Z</time></trkpt><trkpt lat="43.78469517917533" lon="12.1350890500045"><ele>785.5</ele><time>2026-04-20T11:10:43Z</time></trkpt><trkpt lat="43.78458952961934" lon="12.135167826974024"><ele>784.75</ele><time>2026-04-20T11:10:44Z</time></trkpt><trkpt lat="43.78448817673957" lon="12.135223102801934"><ele>784.0</ele><time>2026-04-20T11:10:45Z</time></trkpt><trkpt lat="43.78439525487477" lon="12.13526726650119"><ele>781.2</ele><time>2026-04-20T11:10:46Z</time></trkpt><trkpt lat="43.784302070563584" lon="12.135316750678546"><ele>778.4000000000001</ele><time>2026-04-20T11:10:47Z</time></trkpt><trkpt lat="43.7842471227871" lon="12.135374423152744"><ele>775.6</ele><time>2026-04-20T11:10:48Z</time></trkpt><trkpt lat="43.784172928052556" lon="12.135494301855141"><ele>772.8</ele><time>2026-04-20T11:10:50Z</time></trkpt><trkpt lat="43.7841961847175" lon="12.135634924479689"><ele>770.0</ele><time>2026-04-20T11:10:51Z</time></trkpt><trkpt lat="43.78422057261626" lon="12.135754310151633"><ele>769.6</ele><time>2026-04-20T11:10:52Z</time></trkpt><trkpt lat="43.784260923784664" lon="12.13588079733833"><ele>769.2</ele><time>2026-04-20T11:10:53Z</time></trkpt><trkpt lat="43.78430445145656" lon="12.136004617966682"><ele>768.8</ele><time>2026-04-20T11:10:54Z</time></trkpt><trkpt lat="43.784349158955294" lon="12.13613443403404"><ele>768.4</ele><time>2026-04-20T11:10:55Z</time></trkpt><trkpt lat="43.78441300044749" lon="12.136272354658594"><ele>768.0</ele><time>2026-04-20T11:10:56Z</time></trkpt><trkpt lat="43.78445670004413" lon="12.13640620765736"><ele>769.2</ele><time>2026-04-20T11:10:57Z</time></trkpt><trkpt lat="43.78450175307572" lon="12.136545333835812"><ele>770.4</ele><time>2026-04-20T11:10:58Z</time></trkpt><trkpt lat="43.78451571773519" lon="12.136666329360404"><ele>771.6</ele><time>2026-04-20T11:10:59Z</time></trkpt><trkpt lat="43.784526131110944" lon="12.136782559187568"><ele>772.8000000000001</ele><time>2026-04-20T11:11:00Z</time></trkpt><trkpt lat="43.78450423631409" lon="12.136961080577716"><ele>774.0</ele><time>2026-04-20T11:11:02Z</time></trkpt><trkpt lat="43.784480392094906" lon="12.13706171282011"><ele>771.8333333333334</ele><time>2026-04-20T11:11:03Z</time></trkpt><trkpt lat="43.78444538797011" lon="12.137139096536309"><ele>769.6666666666666</ele><time>2026-04-20T11:11:04Z</time></trkpt><trkpt lat="43.78441165788796" lon="12.13722335359143"><ele>767.5</ele><time>2026-04-20T11:11:05Z</time></trkpt><trkpt lat="43.78434300886113" lon="12.137381105601747"><ele>765.3333333333333</ele><time>2026-04-20T11:11:07Z</time></trkpt><trkpt lat="43.78430903272058" lon="12.137459555989928"><ele>763.1666666666666</ele><time>2026-04-20T11:11:08Z</time></trkpt><trkpt lat="43.78428649056426" lon="12.137549009395071"><ele>761.0</ele><time>2026-04-20T11:11:09Z</time></trkpt><trkpt lat="43.784247149344225" lon="12.137617732465094"><ele>759.4</ele><time>2026-04-20T11:11:10Z</time></trkpt><trkpt lat="43.784201995605365" lon="12.137747538912883"><ele>757.8</ele><time>2026-04-20T11:11:12Z</time></trkpt><trkpt lat="43.78418271894838" lon="12.137842886763348"><ele>756.1999999999999</ele><time>2026-04-20T11:12:01Z</time></trkpt><trkpt lat="43.78418371739278" lon="12.137955941369595"><ele>754.5999999999999</ele><time>2026-04-20T11:12:05Z</time></trkpt><trkpt lat="43.78432923159195" lon="12.137852799174974"><ele>753.0</ele><time>2026-04-20T11:12:07Z</time></trkpt><trkpt lat="43.78439212190675" lon="12.137776927275574"><ele>751.0</ele><time>2026-04-20T11:12:09Z</time></trkpt><trkpt lat="43.78446997283866" lon="12.137713909475195"><ele>749.0</ele><time>2026-04-20T11:12:11Z</time></trkpt><trkpt lat="43.7845635012103" lon="12.137651932437754"><ele>747.0</ele><time>2026-04-20T11:12:13Z</time></trkpt><trkpt lat="43.78466048303476" lon="12.137567240503538"><ele>745.0</ele><time>2026-04-20T11:12:15Z</time></trkpt><trkpt lat="43.784754240498266" lon="12.13748623120558"><ele>743.0</ele><time>2026-04-20T11:12:17Z</time></trkpt><trkpt lat="43.7848105390704" lon="12.137441180577138"><ele>743.0</ele><time>2026-04-20T11:12:18Z</time></trkpt><trkpt lat="43.78487496651227" lon="12.137392651016429"><ele>743.0</ele><time>2026-04-20T11:12:19Z</time></trkpt><trkpt lat="43.78494888115775" lon="12.137333035756276"><ele>743.0</ele><time>2026-04-20T11:12:20Z</time></trkpt><trkpt lat="43.785028444810806" lon="12.137264715529176"><ele>743.0</ele><time>2026-04-20T11:12:21Z</time></trkpt><trkpt lat="43.78511572567393" lon="12.137196525435328"><ele>743.0</ele><time>2026-04-20T11:12:22Z</time></trkpt><trkpt lat="43.785197858282494" lon="12.137135392211245"><ele>743.0</ele><time>2026-04-20T11:12:23Z</time></trkpt><trkpt lat="43.78527586232277" lon="12.137079835308612"><ele>744.5999999999999</ele><time>2026-04-20T11:12:24Z</time></trkpt><trkpt lat="43.78535589455301" lon="12.13702493813747"><ele>746.1999999999999</ele><time>2026-04-20T11:12:25Z</time></trkpt><trkpt lat="43.785448496999265" lon="12.1369676083528"><ele>747.8</ele><time>2026-04-20T11:12:26Z</time></trkpt><trkpt lat="43.78554913639207" lon="12.136911876504389"><ele>749.4</ele><time>2026-04-20T11:12:27Z</time></trkpt><trkpt lat="43.78566320845351" lon="12.13689804941425"><ele>751.0</ele><time>2026-04-20T11:12:28Z</time></trkpt><trkpt lat="43.785780545381755" lon="12.136855917741643"><ele>751.0</ele><time>2026-04-20T11:12:29Z</time></trkpt><trkpt lat="43.78591019309558" lon="12.136841726539298"><ele>751.0</ele><time>2026-04-20T11:12:30Z</time></trkpt><trkpt lat="43.78604656078655" lon="12.13682752828445"><ele>751.0</ele><time>2026-04-20T11:12:31Z</time></trkpt><trkpt lat="43.78619113906158" lon="12.136813151798924"><ele>751.0</ele><time>2026-04-20T11:12:32Z</time></trkpt><trkpt lat="43.78633912647965" lon="12.136792703364355"><ele>747.6666666666667</ele><time>2026-04-20T11:12:33Z</time></trkpt><trkpt lat="43.7864975424572" lon="12.136765419618708"><ele>744.3333333333334</ele><time>2026-04-20T11:12:34Z</time></trkpt><trkpt lat="43.786658551757434" lon="12.136762036551799"><ele>741.0</ele><time>2026-04-20T11:12:35Z</time></trkpt><trkpt lat="43.78681492098041" lon="12.136731392554655"><ele>740.0</ele><time>2026-04-20T11:12:36Z</time></trkpt><trkpt lat="43.786960663142395" lon="12.136691049827277"><ele>739.0</ele><time>2026-04-20T11:12:37Z</time></trkpt><trkpt lat="43.787086621427974" lon="12.136621843471984"><ele>738.0</ele><time>2026-04-20T11:12:38Z</time></trkpt><trkpt lat="43.7872133531316" lon="12.136571431714748"><ele>737.0</ele><time>2026-04-20T11:12:39Z</time></trkpt><trkpt lat="43.7873486929725" lon="12.13653297384517"><ele>737.0</ele><time>2026-04-20T11:12:40Z</time></trkpt><trkpt lat="43.78749062270164" lon="12.13656039641852"><ele>737.0</ele><time>2026-04-20T11:12:41Z</time></trkpt><trkpt lat="43.78763572170754" lon="12.136575241445625"><ele>737.0</ele><time>2026-04-20T11:12:42Z</time></trkpt><trkpt lat="43.787775769481584" lon="12.136567423090566"><ele>737.0</ele><time>2026-04-20T11:12:43Z</time></trkpt><trkpt lat="43.78790549630221" lon="12.136568779295233"><ele>737.4000000000001</ele><time>2026-04-20T11:12:44Z</time></trkpt><trkpt lat="43.78802601930854" lon="12.136552444760849"><ele>737.8000000000001</ele><time>2026-04-20T11:12:45Z</time></trkpt><trkpt lat="43.78813699399921" lon="12.136590909008932"><ele>738.2</ele><time>2026-04-20T11:12:46Z</time></trkpt><trkpt lat="43.788236792098324" lon="12.136639666502584"><ele>738.6</ele><time>2026-04-20T11:12:47Z</time></trkpt><trkpt lat="43.788309740110776" lon="12.136737630577146"><ele>739.0</ele><time>2026-04-20T11:12:48Z</time></trkpt><trkpt lat="43.78836428249987" lon="12.136865332007618"><ele>739.0</ele><time>2026-04-20T11:12:49Z</time></trkpt><trkpt lat="43.78839647731765" lon="12.137011901986268"><ele>739.0</ele><time>2026-04-20T11:12:50Z</time></trkpt><trkpt lat="43.78837051539518" lon="12.137169222326643"><ele>739.0</ele><time>2026-04-20T11:12:51Z</time></trkpt><trkpt lat="43.788332755100086" lon="12.137341609859297"><ele>739.0</ele><time>2026-04-20T11:12:52Z</time></trkpt><trkpt lat="43.78828670501065" lon="12.137530173025668"><ele>737.3333333333334</ele><time>2026-04-20T11:12:53Z</time></trkpt><trkpt lat="43.788235048660205" lon="12.13772793017215"><ele>735.6666666666666</ele><time>2026-04-20T11:12:54Z</time></trkpt><trkpt lat="43.78818472668604" lon="12.13793516927909"><ele>734.0</ele><time>2026-04-20T11:12:55Z</time></trkpt><trkpt lat="43.78815532212741" lon="12.13816345758354"><ele>734.0</ele><time>2026-04-20T11:12:56Z</time></trkpt><trkpt lat="43.7881587812065" lon="12.138389562098448"><ele>734.0</ele><time>2026-04-20T11:12:57Z</time></trkpt><trkpt lat="43.788122429890684" lon="12.138605114467316"><ele>734.0</ele><time>2026-04-20T11:12:58Z</time></trkpt><trkpt lat="43.78805349177984" lon="12.138793995721866"><ele>735.0</ele><time>2026-04-20T11:12:59Z</time></trkpt><trkpt lat="43.78788040863434" lon="12.139147765666642"><ele>736.0</ele><time>2026-04-20T11:13:01Z</time></trkpt><trkpt lat="43.787802621216365" lon="12.13933106522427"><ele>736.0</ele><time>2026-04-20T11:13:02Z</time></trkpt><trkpt lat="43.78773418155009" lon="12.139525975383167"><ele>736.0</ele><time>2026-04-20T11:13:03Z</time></trkpt><trkpt lat="43.78767602075827" lon="12.139725029230508"><ele>736.0</ele><time>2026-04-20T11:13:04Z</time></trkpt><trkpt lat="43.787622336214554" lon="12.13991293982964"><ele>732.1999999999999</ele><time>2026-04-20T11:13:05Z</time></trkpt><trkpt lat="43.78756864867994" lon="12.140080542835697"><ele>728.4</ele><time>2026-04-20T11:13:06Z</time></trkpt><trkpt lat="43.787530148406134" lon="12.1402347733923"><ele>724.6</ele><time>2026-04-20T11:13:07Z</time></trkpt><trkpt lat="43.78752060888974" lon="12.140358285800561"><ele>720.8</ele><time>2026-04-20T11:13:08Z</time></trkpt><trkpt lat="43.787545275273054" lon="12.140442682204364"><ele>717.0</ele><time>2026-04-20T11:13:09Z</time></trkpt><trkpt lat="43.7876050295937" lon="12.140514862646878"><ele>717.0</ele><time>2026-04-20T11:13:10Z</time></trkpt><trkpt lat="43.78769370083567" lon="12.140564173610935"><ele>717.0</ele><time>2026-04-20T11:13:11Z</time></trkpt><trkpt lat="43.78779919034482" lon="12.140610048066351"><ele>717.0</ele><time>2026-04-20T11:13:12Z</time></trkpt><trkpt lat="43.787904101136306" lon="12.140689446166242"><ele>717.0</ele><time>2026-04-20T11:13:13Z</time></trkpt><trkpt lat="43.788003256289535" lon="12.140807602958004"><ele>717.0</ele><time>2026-04-20T11:13:13.999Z</time></trkpt><trkpt lat="43.78808132872906" lon="12.140955941435436"><ele>717.0</ele><time>2026-04-20T11:13:14.999Z</time></trkpt><trkpt lat="43.7881304409901" lon="12.1411168777156"><ele>717.0</ele><time>2026-04-20T11:13:15.999Z</time></trkpt><trkpt lat="43.78816144688915" lon="12.141283528059263"><ele>717.0</ele><time>2026-04-20T11:13:16.999Z</time></trkpt><trkpt lat="43.78819230514823" lon="12.141449122625408"><ele>715.8</ele><time>2026-04-20T11:13:17.999Z</time></trkpt><trkpt lat="43.788245469658946" lon="12.14156305817016"><ele>714.6</ele><time>2026-04-20T11:13:18.999Z</time></trkpt><trkpt lat="43.7883223755143" lon="12.141623514952686"><ele>713.4</ele><time>2026-04-20T11:13:19.999Z</time></trkpt><trkpt lat="43.788417326775196" lon="12.14162954505572"><ele>712.1999999999999</ele><time>2026-04-20T11:13:20.999Z</time></trkpt><trkpt lat="43.788523972145015" lon="12.141593800031323"><ele>711.0</ele><time>2026-04-20T11:13:21.999Z</time></trkpt><trkpt lat="43.788642599140566" lon="12.141545706316764"><ele>715.75</ele><time>2026-04-20T11:13:22.999Z</time></trkpt><trkpt lat="43.78878256230753" lon="12.141511540905842"><ele>720.5</ele><time>2026-04-20T11:13:23.999Z</time></trkpt><trkpt lat="43.788926811212335" lon="12.141469538052084"><ele>725.25</ele><time>2026-04-20T11:13:24.999Z</time></trkpt><trkpt lat="43.78905965284951" lon="12.141434050869933"><ele>730.0</ele><time>2026-04-20T11:13:25.999Z</time></trkpt><trkpt lat="43.78918089660729" lon="12.141421901228071"><ele>730.0</ele><time>2026-04-20T11:13:26.999Z</time></trkpt><trkpt lat="43.78930055286798" lon="12.141435949451365"><ele>730.0</ele><time>2026-04-20T11:13:27.999Z</time></trkpt><trkpt lat="43.78940899695665" lon="12.141472232529118"><ele>730.0</ele><time>2026-04-20T11:13:28.999Z</time></trkpt><trkpt lat="43.78950735021535" lon="12.141540585276749"><ele>730.0</ele><time>2026-04-20T11:13:29.999Z</time></trkpt><trkpt lat="43.7895966793517" lon="12.14163800591645"><ele>724.25</ele><time>2026-04-20T11:13:30.999Z</time></trkpt><trkpt lat="43.78968726728478" lon="12.141750751443666"><ele>718.5</ele><time>2026-04-20T11:13:31.999Z</time></trkpt><trkpt lat="43.78977481113792" lon="12.141872165824859"><ele>712.75</ele><time>2026-04-20T11:13:32.999Z</time></trkpt><trkpt lat="43.78985234763556" lon="12.141985223968737"><ele>707.0</ele><time>2026-04-20T11:13:33.999Z</time></trkpt><trkpt lat="43.78993055702341" lon="12.142057862825133"><ele>707.0</ele><time>2026-04-20T11:13:34.999Z</time></trkpt><trkpt lat="43.790001982394145" lon="12.142096829590422"><ele>707.0</ele><time>2026-04-20T11:13:35.999Z</time></trkpt><trkpt lat="43.79008228675968" lon="12.142093026412741"><ele>707.0</ele><time>2026-04-20T11:13:36.999Z</time></trkpt><trkpt lat="43.790171581561864" lon="12.14205772005336"><ele>707.0</ele><time>2026-04-20T11:13:37.999Z</time></trkpt><trkpt lat="43.790273269209216" lon="12.142015792422775"><ele>707.0</ele><time>2026-04-20T11:13:39Z</time></trkpt><trkpt lat="43.790383330702056" lon="12.141977533039114"><ele>704.75</ele><time>2026-04-20T11:13:40Z</time></trkpt><trkpt lat="43.790501387769474" lon="12.14193686090555"><ele>702.5</ele><time>2026-04-20T11:13:41Z</time></trkpt><trkpt lat="43.79061180823187" lon="12.1418985765875"><ele>700.25</ele><time>2026-04-20T11:13:42Z</time></trkpt><trkpt lat="43.79072357335052" lon="12.141853987713143"><ele>698.0</ele><time>2026-04-20T11:13:43Z</time></trkpt><trkpt lat="43.79083669853711" lon="12.141800750584622"><ele>698.0</ele><time>2026-04-20T11:13:44Z</time></trkpt><trkpt lat="43.7909496119554" lon="12.141727512751194"><ele>698.0</ele><time>2026-04-20T11:13:45Z</time></trkpt><trkpt lat="43.79106250839064" lon="12.141623784249399"><ele>698.0</ele><time>2026-04-20T11:13:46Z</time></trkpt><trkpt lat="43.79116841746588" lon="12.141517873577152"><ele>698.0</ele><time>2026-04-20T11:13:47Z</time></trkpt><trkpt lat="43.791267445527936" lon="12.141416342348565"><ele>696.8333333333333</ele><time>2026-04-20T11:13:48Z</time></trkpt><trkpt lat="43.79135842680228" lon="12.1413450685567"><ele>695.6666666666666</ele><time>2026-04-20T11:13:49Z</time></trkpt><trkpt lat="43.791441330108334" lon="12.1413192407067"><ele>694.5</ele><time>2026-04-20T11:13:50Z</time></trkpt><trkpt lat="43.791509886206974" lon="12.141356653055109"><ele>693.3333333333334</ele><time>2026-04-20T11:13:51Z</time></trkpt><trkpt lat="43.79155889138047" lon="12.141441579497505"><ele>692.1666666666667</ele><time>2026-04-20T11:13:52Z</time></trkpt><trkpt lat="43.79157951969978" lon="12.141554941962717"><ele>691.0</ele><time>2026-04-20T11:13:53Z</time></trkpt><trkpt lat="43.791564786022036" lon="12.141687767201548"><ele>691.0</ele><time>2026-04-20T11:13:54Z</time></trkpt><trkpt lat="43.79151458338315" lon="12.141850315402642"><ele>691.0</ele><time>2026-04-20T11:13:55Z</time></trkpt><trkpt lat="43.79145628521454" lon="12.141998658762752"><ele>691.0</ele><time>2026-04-20T11:13:56Z</time></trkpt><trkpt lat="43.79141996545185" lon="12.142144181797208"><ele>691.0</ele><time>2026-04-20T11:13:57Z</time></trkpt><trkpt lat="43.79140678138763" lon="12.14229945942177"><ele>690.0</ele><time>2026-04-20T11:13:58Z</time></trkpt><trkpt lat="43.791420374254145" lon="12.142461619982575"><ele>689.0</ele><time>2026-04-20T11:13:59Z</time></trkpt><trkpt lat="43.79145443023308" lon="12.14262530714559"><ele>688.0</ele><time>2026-04-20T11:14:00Z</time></trkpt><trkpt lat="43.791494551426126" lon="12.142797605204471"><ele>687.0</ele><time>2026-04-20T11:14:01Z</time></trkpt><trkpt lat="43.791531168892384" lon="12.142974732982335"><ele>687.0</ele><time>2026-04-20T11:14:02Z</time></trkpt><trkpt lat="43.79156998132342" lon="12.143142689161396"><ele>687.0</ele><time>2026-04-20T11:14:03Z</time></trkpt><trkpt lat="43.79160534938039" lon="12.143299138650423"><ele>687.0</ele><time>2026-04-20T11:14:04Z</time></trkpt><trkpt lat="43.79162600207395" lon="12.143426248768423"><ele>687.0</ele><time>2026-04-20T11:14:05Z</time></trkpt><trkpt lat="43.79162029482344" lon="12.143547241972673"><ele>687.0</ele><time>2026-04-20T11:14:06Z</time></trkpt><trkpt lat="43.79157712110578" lon="12.143641245433425"><ele>686.2</ele><time>2026-04-20T11:14:07Z</time></trkpt><trkpt lat="43.791491290753456" lon="12.143689219966634"><ele>685.4000000000001</ele><time>2026-04-20T11:14:08Z</time></trkpt><trkpt lat="43.79137488459848" lon="12.143685960169632"><ele>684.5999999999999</ele><time>2026-04-20T11:14:09Z</time></trkpt><trkpt lat="43.79125723481681" lon="12.14365477206912"><ele>683.8</ele><time>2026-04-20T11:14:10Z</time></trkpt><trkpt lat="43.791157591547154" lon="12.14364018395508"><ele>683.0</ele><time>2026-04-20T11:14:11Z</time></trkpt><trkpt lat="43.79107348171682" lon="12.143665661703855"><ele>683.0</ele><time>2026-04-20T11:14:12Z</time></trkpt><trkpt lat="43.79101710485056" lon="12.143738063395057"><ele>683.0</ele><time>2026-04-20T11:14:13Z</time></trkpt><trkpt lat="43.790993235431465" lon="12.143846069092152"><ele>683.0</ele><time>2026-04-20T11:14:14Z</time></trkpt><trkpt lat="43.79101367682009" lon="12.143954195395452"><ele>683.0</ele><time>2026-04-20T11:14:15Z</time></trkpt><trkpt lat="43.79106724778501" lon="12.144048924654324"><ele>683.0</ele><time>2026-04-20T11:14:16Z</time></trkpt><trkpt lat="43.79114595080385" lon="12.14413254238898"><ele>683.0</ele><time>2026-04-20T11:14:17Z</time></trkpt><trkpt lat="43.79122739564217" lon="12.144208708153545"><ele>681.5</ele><time>2026-04-20T11:14:18Z</time></trkpt><trkpt lat="43.79128474906605" lon="12.144300465916908"><ele>680.0</ele><time>2026-04-20T11:14:19Z</time></trkpt><trkpt lat="43.791305058829494" lon="12.144418475627548"><ele>678.5</ele><time>2026-04-20T11:14:20Z</time></trkpt><trkpt lat="43.79128723131734" lon="12.144535944348796"><ele>677.0</ele><time>2026-04-20T11:14:21Z</time></trkpt><trkpt lat="43.791235403249" lon="12.144609101457046"><ele>675.5</ele><time>2026-04-20T11:14:22Z</time></trkpt><trkpt lat="43.79115357456643" lon="12.144630065788602"><ele>674.0</ele><time>2026-04-20T11:14:23Z</time></trkpt><trkpt lat="43.791058938816015" lon="12.144592555951826"><ele>670.2</ele><time>2026-04-20T11:14:24Z</time></trkpt><trkpt lat="43.790966981153055" lon="12.144522504832706"><ele>666.4000000000001</ele><time>2026-04-20T11:14:25Z</time></trkpt><trkpt lat="43.79088130337445" lon="12.144471827956776"><ele>662.6</ele><time>2026-04-20T11:14:26Z</time></trkpt><trkpt lat="43.79079328227228" lon="12.144472370163914"><ele>658.8</ele><time>2026-04-20T11:14:27Z</time></trkpt><trkpt lat="43.790715582648815" lon="12.144533063677411"><ele>655.0</ele><time>2026-04-20T11:14:28Z</time></trkpt><trkpt lat="43.79066808913024" lon="12.144635254466083"><ele>655.0</ele><time>2026-04-20T11:14:29Z</time></trkpt><trkpt lat="43.790658833404" lon="12.144755878660018"><ele>655.0</ele><time>2026-04-20T11:14:30Z</time></trkpt><trkpt lat="43.790689754415766" lon="12.144862365397788"><ele>655.0</ele><time>2026-04-20T11:14:31Z</time></trkpt><trkpt lat="43.790758602663765" lon="12.144955622603401"><ele>655.0</ele><time>2026-04-20T11:14:32Z</time></trkpt><trkpt lat="43.790841416412036" lon="12.14502859576897"><ele>655.0</ele><time>2026-04-20T11:14:33Z</time></trkpt><trkpt lat="43.790932594042864" lon="12.145103763839746"><ele>655.0</ele><time>2026-04-20T11:14:34Z</time></trkpt><trkpt lat="43.791005014366185" lon="12.145205555482795"><ele>655.0</ele><time>2026-04-20T11:14:35Z</time></trkpt><trkpt lat="43.7910554771876" lon="12.145339623774747"><ele>655.0</ele><time>2026-04-20T11:14:36Z</time></trkpt><trkpt lat="43.79106382700551" lon="12.145470652093236"><ele>655.0</ele><time>2026-04-20T11:14:37Z</time></trkpt><trkpt lat="43.79107013610704" lon="12.1456412688183"><ele>655.0</ele><time>2026-04-20T11:14:38Z</time></trkpt><trkpt lat="43.79110150493858" lon="12.145814433180309"><ele>655.0</ele><time>2026-04-20T11:14:39Z</time></trkpt><trkpt lat="43.79114785883814" lon="12.145982266468806"><ele>655.0</ele><time>2026-04-20T11:14:40Z</time></trkpt><trkpt lat="43.79119445298613" lon="12.146154456069025"><ele>655.0</ele><time>2026-04-20T11:14:41Z</time></trkpt><trkpt lat="43.79121861483208" lon="12.146331142434057"><ele>655.0</ele><time>2026-04-20T11:14:42Z</time></trkpt><trkpt lat="43.79120348072315" lon="12.146508249998458"><ele>654.4</ele><time>2026-04-20T11:14:43Z</time></trkpt><trkpt lat="43.791167739893076" lon="12.146669122032792"><ele>653.8</ele><time>2026-04-20T11:14:44Z</time></trkpt><trkpt lat="43.791160624838284" lon="12.146810702367565"><ele>653.2</ele><time>2026-04-20T11:14:45Z</time></trkpt><trkpt lat="43.79119190403379" lon="12.146936883232627"><ele>652.6</ele><time>2026-04-20T11:14:46Z</time></trkpt><trkpt lat="43.79124959906825" lon="12.147057876072243"><ele>652.0</ele><time>2026-04-20T11:14:47Z</time></trkpt><trkpt lat="43.791311791891786" lon="12.14719495916275"><ele>652.0</ele><time>2026-04-20T11:14:48Z</time></trkpt><trkpt lat="43.79137675305605" lon="12.147337830034667"><ele>652.0</ele><time>2026-04-20T11:14:49Z</time></trkpt><trkpt lat="43.79142668616635" lon="12.147482733633616"><ele>652.0</ele><time>2026-04-20T11:14:50Z</time></trkpt><trkpt lat="43.79144398013844" lon="12.147634501834165"><ele>652.0</ele><time>2026-04-20T11:14:51Z</time></trkpt><trkpt lat="43.79142623200783" lon="12.147782210040967"><ele>649.5</ele><time>2026-04-20T11:14:52Z</time></trkpt><trkpt lat="43.79137707220634" lon="12.147914733865466"><ele>647.0</ele><time>2026-04-20T11:14:53Z</time></trkpt><trkpt lat="43.79128857793499" lon="12.148020495776928"><ele>644.5</ele><time>2026-04-20T11:14:54Z</time></trkpt><trkpt lat="43.79118413392298" lon="12.148103899288762"><ele>642.0</ele><time>2026-04-20T11:14:55Z</time></trkpt><trkpt lat="43.79109574445484" lon="12.148205238301685"><ele>644.0</ele><time>2026-04-20T11:14:56Z</time></trkpt><trkpt lat="43.79105114518934" lon="12.14833946520391"><ele>646.0</ele><time>2026-04-20T11:14:57Z</time></trkpt><trkpt lat="43.79102957360552" lon="12.148502504827038"><ele>648.0</ele><time>2026-04-20T11:14:58Z</time></trkpt><trkpt lat="43.79101227957925" lon="12.1486829168045"><ele>650.0</ele><time>2026-04-20T11:14:59Z</time></trkpt><trkpt lat="43.79100923909923" lon="12.148869376284871"><ele>646.8</ele><time>2026-04-20T11:15:00Z</time></trkpt><trkpt lat="43.791023511388126" lon="12.149044942282101"><ele>643.6</ele><time>2026-04-20T11:15:01Z</time></trkpt><trkpt lat="43.79104804403103" lon="12.149196759555114"><ele>640.4</ele><time>2026-04-20T11:15:02Z</time></trkpt><trkpt lat="43.79109038647041" lon="12.149314879396334"><ele>637.2</ele><time>2026-04-20T11:15:03Z</time></trkpt><trkpt lat="43.79115494452478" lon="12.149393908870442"><ele>634.0</ele><time>2026-04-20T11:15:04Z</time></trkpt><trkpt lat="43.791235471681304" lon="12.149427320363472"><ele>634.0</ele><time>2026-04-20T11:15:05Z</time></trkpt><trkpt lat="43.791325821024884" lon="12.14942298701194"><ele>634.0</ele><time>2026-04-20T11:15:06Z</time></trkpt><trkpt lat="43.79142967325961" lon="12.149403530824916"><ele>634.0</ele><time>2026-04-20T11:15:07Z</time></trkpt><trkpt lat="43.79154200155897" lon="12.149381801657206"><ele>634.0</ele><time>2026-04-20T11:15:08Z</time></trkpt><trkpt lat="43.791670642310756" lon="12.149372329913541"><ele>634.0</ele><time>2026-04-20T11:15:09Z</time></trkpt><trkpt lat="43.79179232748412" lon="12.149352233306354"><ele>632.6</ele><time>2026-04-20T11:15:10Z</time></trkpt><trkpt lat="43.7919083126254" lon="12.14932460769111"><ele>631.2</ele><time>2026-04-20T11:15:11Z</time></trkpt><trkpt lat="43.792018688743575" lon="12.149295551995728"><ele>629.8000000000001</ele><time>2026-04-20T11:15:12Z</time></trkpt><trkpt lat="43.792126745244516" lon="12.149277213273606"><ele>628.4</ele><time>2026-04-20T11:15:13Z</time></trkpt><trkpt lat="43.79223309777482" lon="12.149290989035947"><ele>627.0</ele><time>2026-04-20T11:15:14Z</time></trkpt><trkpt lat="43.79233245908928" lon="12.14933911194308"><ele>627.0</ele><time>2026-04-20T11:15:15Z</time></trkpt><trkpt lat="43.792415037653534" lon="12.14941541363039"><ele>627.0</ele><time>2026-04-20T11:15:16Z</time></trkpt><trkpt lat="43.79246745497777" lon="12.149515266733006"><ele>627.0</ele><time>2026-04-20T11:15:17Z</time></trkpt><trkpt lat="43.792476668021976" lon="12.149634946343754"><ele>627.0</ele><time>2026-04-20T11:15:18Z</time></trkpt><trkpt lat="43.79245550978495" lon="12.149759928383974"><ele>627.0</ele><time>2026-04-20T11:15:19Z</time></trkpt><trkpt lat="43.792404698436506" lon="12.149875533389757"><ele>626.75</ele><time>2026-04-20T11:15:19.999Z</time></trkpt><trkpt lat="43.79231903726156" lon="12.149967192814527"><ele>626.5</ele><time>2026-04-20T11:15:20.999Z</time></trkpt><trkpt lat="43.79221081259335" lon="12.150035478738923"><ele>626.25</ele><time>2026-04-20T11:15:21.999Z</time></trkpt><trkpt lat="43.79209383400335" lon="12.15010880088105"><ele>626.0</ele><time>2026-04-20T11:15:22.999Z</time></trkpt><trkpt lat="43.79197775627929" lon="12.150205075693604"><ele>626.0</ele><time>2026-04-20T11:15:23.999Z</time></trkpt><trkpt lat="43.79187022959773" lon="12.150309644568196"><ele>626.0</ele><time>2026-04-20T11:15:24.999Z</time></trkpt><trkpt lat="43.79176698372602" lon="12.150417211190216"><ele>626.0</ele><time>2026-04-20T11:15:25.999Z</time></trkpt><trkpt lat="43.791668926287265" lon="12.150535920752153"><ele>626.0</ele><time>2026-04-20T11:15:26.999Z</time></trkpt><trkpt lat="43.7915763720734" lon="12.150670310693071"><ele>623.4</ele><time>2026-04-20T11:15:27.999Z</time></trkpt><trkpt lat="43.79149189171392" lon="12.150812886198434"><ele>620.8</ele><time>2026-04-20T11:15:28.999Z</time></trkpt><trkpt lat="43.79141335916576" lon="12.150950086060254"><ele>618.1999999999999</ele><time>2026-04-20T11:15:29.999Z</time></trkpt><trkpt lat="43.791358419624544" lon="12.151061546103127"><ele>615.6</ele><time>2026-04-20T11:15:30.999Z</time></trkpt><trkpt lat="43.79133611790475" lon="12.151164806346692"><ele>613.0</ele><time>2026-04-20T11:15:31.999Z</time></trkpt><trkpt lat="43.79135264929279" lon="12.1512693801646"><ele>613.0</ele><time>2026-04-20T11:15:32.999Z</time></trkpt><trkpt lat="43.79140332220195" lon="12.15137090475833"><ele>613.0</ele><time>2026-04-20T11:15:33.999Z</time></trkpt><trkpt lat="43.791480124791384" lon="12.151478807277554"><ele>613.0</ele><time>2026-04-20T11:15:34.999Z</time></trkpt><trkpt lat="43.79156258930812" lon="12.151594128303023"><ele>613.0</ele><time>2026-04-20T11:15:35.999Z</time></trkpt><trkpt lat="43.791642030227315" lon="12.151721773374758"><ele>613.0</ele><time>2026-04-20T11:15:36.999Z</time></trkpt><trkpt lat="43.79172555548418" lon="12.151852398806248"><ele>609.75</ele><time>2026-04-20T11:15:37.999Z</time></trkpt><trkpt lat="43.79181829372835" lon="12.151970204411022"><ele>606.5</ele><time>2026-04-20T11:15:38.999Z</time></trkpt><trkpt lat="43.791920898126264" lon="12.152072178877695"><ele>603.25</ele><time>2026-04-20T11:15:39.999Z</time></trkpt><trkpt lat="43.79202977107605" lon="12.152157804528981"><ele>600.0</ele><time>2026-04-20T11:15:40.999Z</time></trkpt><trkpt lat="43.79213062948628" lon="12.15224135676723"><ele>601.6</ele><time>2026-04-20T11:15:41.999Z</time></trkpt><trkpt lat="43.79221545416476" lon="12.152334857424256"><ele>603.2</ele><time>2026-04-20T11:15:42.999Z</time></trkpt><trkpt lat="43.79228065104858" lon="12.152449333120716"><ele>604.8</ele><time>2026-04-20T11:15:43.999Z</time></trkpt><trkpt lat="43.79231409460573" lon="12.152580591002483"><ele>606.4</ele><time>2026-04-20T11:15:44.999Z</time></trkpt><trkpt lat="43.79230568166535" lon="12.152733159206418"><ele>608.0</ele><time>2026-04-20T11:15:45.999Z</time></trkpt><trkpt lat="43.792276872182434" lon="12.152902511967866"><ele>608.0</ele><time>2026-04-20T11:15:46.999Z</time></trkpt><trkpt lat="43.792267527206505" lon="12.153063888838481"><ele>608.0</ele><time>2026-04-20T11:15:48Z</time></trkpt><trkpt lat="43.792260650462524" lon="12.153220011886605"><ele>608.0</ele><time>2026-04-20T11:15:49Z</time></trkpt><trkpt lat="43.79226735786495" lon="12.153357153402588"><ele>608.0</ele><time>2026-04-20T11:15:50Z</time></trkpt><trkpt lat="43.79228976106223" lon="12.15346720227971"><ele>608.0</ele><time>2026-04-20T11:15:51Z</time></trkpt><trkpt lat="43.792314096616614" lon="12.153551219170305"><ele>604.8</ele><time>2026-04-20T11:15:52Z</time></trkpt><trkpt lat="43.79224827725036" lon="12.153680304180684"><ele>601.5999999999999</ele><time>2026-04-20T11:15:54Z</time></trkpt><trkpt lat="43.792137466928935" lon="12.15372541339448"><ele>598.4000000000001</ele><time>2026-04-20T11:15:56Z</time></trkpt><trkpt lat="43.79207677355748" lon="12.153669544199612"><ele>595.2</ele><time>2026-04-20T11:15:58Z</time></trkpt><trkpt lat="43.79207183620432" lon="12.153527994150421"><ele>592.0</ele><time>2026-04-20T11:16:00Z</time></trkpt><trkpt lat="43.7920855011801" lon="12.153410322039033"><ele>592.0</ele><time>2026-04-20T11:16:01Z</time></trkpt><trkpt lat="43.79209034826176" lon="12.153276440982296"><ele>592.0</ele><time>2026-04-20T11:16:02Z</time></trkpt><trkpt lat="43.79209169253431" lon="12.153123291229772"><ele>592.0</ele><time>2026-04-20T11:16:03Z</time></trkpt><trkpt lat="43.79208196648859" lon="12.152972145340415"><ele>592.0</ele><time>2026-04-20T11:16:04Z</time></trkpt><trkpt lat="43.79205967614023" lon="12.152824899248744"><ele>592.0</ele><time>2026-04-20T11:16:05Z</time></trkpt><trkpt lat="43.79203978849891" lon="12.152678423231066"><ele>594.0</ele><time>2026-04-20T11:16:06Z</time></trkpt><trkpt lat="43.791988535136184" lon="12.15256876127444"><ele>596.0</ele><time>2026-04-20T11:16:07Z</time></trkpt><trkpt lat="43.79192123292154" lon="12.15245710826293"><ele>598.0</ele><time>2026-04-20T11:16:08Z</time></trkpt><trkpt lat="43.79183084858926" lon="12.152347178978456"><ele>600.0</ele><time>2026-04-20T11:16:09Z</time></trkpt><trkpt lat="43.791733299499015" lon="12.152227109421226"><ele>600.0</ele><time>2026-04-20T11:16:10Z</time></trkpt><trkpt lat="43.79163183130966" lon="12.152106776675042"><ele>600.0</ele><time>2026-04-20T11:16:11Z</time></trkpt><trkpt lat="43.79152946356814" lon="12.15198852614758"><ele>600.0</ele><time>2026-04-20T11:16:12Z</time></trkpt><trkpt lat="43.791414453367274" lon="12.151879247027859"><ele>600.0</ele><time>2026-04-20T11:16:13Z</time></trkpt><trkpt lat="43.79129429715787" lon="12.151794092591972"><ele>600.0</ele><time>2026-04-20T11:16:14Z</time></trkpt><trkpt lat="43.791175671108796" lon="12.151729236125655"><ele>600.0</ele><time>2026-04-20T11:16:15Z</time></trkpt><trkpt lat="43.7910589706529" lon="12.151691457540778"><ele>600.0</ele><time>2026-04-20T11:16:16Z</time></trkpt><trkpt lat="43.790950611754305" lon="12.151671755178759"><ele>600.0</ele><time>2026-04-20T11:16:17Z</time></trkpt><trkpt lat="43.790846432619354" lon="12.151645202761953"><ele>597.0</ele><time>2026-04-20T11:16:18Z</time></trkpt><trkpt lat="43.79075043449415" lon="12.151598391391143"><ele>594.0</ele><time>2026-04-20T11:16:19Z</time></trkpt><trkpt lat="43.790667893861205" lon="12.151551731940124"><ele>591.0</ele><time>2026-04-20T11:16:20Z</time></trkpt><trkpt lat="43.79060094736969" lon="12.151538153621894"><ele>588.0</ele><time>2026-04-20T11:16:21Z</time></trkpt><trkpt lat="43.79051243642779" lon="12.15164405019276"><ele>585.0</ele><time>2026-04-20T11:16:23Z</time></trkpt><trkpt lat="43.790549901058384" lon="12.151764209085014"><ele>583.4</ele><time>2026-04-20T11:16:25Z</time></trkpt><trkpt lat="43.79067515481681" lon="12.151800074685472"><ele>581.8</ele><time>2026-04-20T11:16:27Z</time></trkpt><trkpt lat="43.79076553710796" lon="12.151829952228049"><ele>580.2</ele><time>2026-04-20T11:16:28Z</time></trkpt><trkpt lat="43.79086721541011" lon="12.151877473666962"><ele>578.6</ele><time>2026-04-20T11:16:29Z</time></trkpt><trkpt lat="43.790981853275206" lon="12.151915254032417"><ele>577.0</ele><time>2026-04-20T11:16:30Z</time></trkpt><trkpt lat="43.79110657501067" lon="12.151961122707114"><ele>578.75</ele><time>2026-04-20T11:16:31Z</time></trkpt><trkpt lat="43.79122111224812" lon="12.152031092276156"><ele>580.5</ele><time>2026-04-20T11:16:32Z</time></trkpt><trkpt lat="43.7913134819504" lon="12.152135665314294"><ele>582.25</ele><time>2026-04-20T11:16:33Z</time></trkpt><trkpt lat="43.79138668749101" lon="12.15227715724638"><ele>584.0</ele><time>2026-04-20T11:16:34Z</time></trkpt><trkpt lat="43.791431931665464" lon="12.152452296278762"><ele>584.0</ele><time>2026-04-20T11:16:35Z</time></trkpt><trkpt lat="43.79146411808439" lon="12.152645595916114"><ele>584.0</ele><time>2026-04-20T11:16:36Z</time></trkpt><trkpt lat="43.79149341170409" lon="12.152839989802333"><ele>584.0</ele><time>2026-04-20T11:16:37Z</time></trkpt><trkpt lat="43.79152607314314" lon="12.153019953933534"><ele>584.0</ele><time>2026-04-20T11:16:38Z</time></trkpt><trkpt lat="43.7915519235659" lon="12.153191171856008"><ele>582.8</ele><time>2026-04-20T11:16:39Z</time></trkpt><trkpt lat="43.79156937305315" lon="12.153348978119295"><ele>581.5999999999999</ele><time>2026-04-20T11:16:40Z</time></trkpt><trkpt lat="43.79156377216168" lon="12.153482694576413"><ele>580.4</ele><time>2026-04-20T11:16:41Z</time></trkpt><trkpt lat="43.7915238119134" lon="12.153603141561325"><ele>579.1999999999999</ele><time>2026-04-20T11:16:42Z</time></trkpt><trkpt lat="43.79144972856299" lon="12.153683744322079"><ele>578.0</ele><time>2026-04-20T11:16:43Z</time></trkpt><trkpt lat="43.79134807518916" lon="12.153694843058325"><ele>578.0</ele><time>2026-04-20T11:16:44Z</time></trkpt><trkpt lat="43.7912449480287" lon="12.15364275201149"><ele>578.0</ele><time>2026-04-20T11:16:45Z</time></trkpt><trkpt lat="43.79117822370009" lon="12.153517564985764"><ele>578.0</ele><time>2026-04-20T11:16:46Z</time></trkpt><trkpt lat="43.791123204712804" lon="12.153351562129247"><ele>578.0</ele><time>2026-04-20T11:16:47Z</time></trkpt><trkpt lat="43.79108488764799" lon="12.153183869853875"><ele>579.1999999999999</ele><time>2026-04-20T11:16:48Z</time></trkpt><trkpt lat="43.791025503008335" lon="12.153052761555914"><ele>580.4</ele><time>2026-04-20T11:16:49Z</time></trkpt><trkpt lat="43.790940934776316" lon="12.152960655234372"><ele>581.5999999999999</ele><time>2026-04-20T11:16:50Z</time></trkpt><trkpt lat="43.790836564322575" lon="12.15291978785152"><ele>582.8</ele><time>2026-04-20T11:16:51Z</time></trkpt><trkpt lat="43.79073032780424" lon="12.152946926901917"><ele>584.0</ele><time>2026-04-20T11:16:52Z</time></trkpt><trkpt lat="43.7906351708922" lon="12.153035562570153"><ele>577.75</ele><time>2026-04-20T11:16:53Z</time></trkpt><trkpt lat="43.79056286362725" lon="12.15318217919385"><ele>571.5</ele><time>2026-04-20T11:16:54Z</time></trkpt><trkpt lat="43.790519170081346" lon="12.153368115111679"><ele>565.25</ele><time>2026-04-20T11:16:55Z</time></trkpt><trkpt lat="43.79048928620426" lon="12.1535644499366"><ele>559.0</ele><time>2026-04-20T11:16:56Z</time></trkpt><trkpt lat="43.790445760137004" lon="12.15376859430451"><ele>560.0</ele><time>2026-04-20T11:16:57Z</time></trkpt><trkpt lat="43.79037827283296" lon="12.153969853094813"><ele>561.0</ele><time>2026-04-20T11:16:58Z</time></trkpt><trkpt lat="43.79030022545157" lon="12.154157114698853"><ele>562.0</ele><time>2026-04-20T11:16:59Z</time></trkpt><trkpt lat="43.79023081344384" lon="12.1543466729938"><ele>562.0</ele><time>2026-04-20T11:17:00Z</time></trkpt><trkpt lat="43.79017584104367" lon="12.154561493449227"><ele>562.0</ele><time>2026-04-20T11:17:01Z</time></trkpt><trkpt lat="43.79014341950938" lon="12.15478874766649"><ele>562.0</ele><time>2026-04-20T11:17:02Z</time></trkpt><trkpt lat="43.7901284899988" lon="12.155023564067077"><ele>555.3333333333334</ele><time>2026-04-20T11:17:03Z</time></trkpt><trkpt lat="43.790110647927335" lon="12.155267688794277"><ele>548.6666666666666</ele><time>2026-04-20T11:17:04Z</time></trkpt><trkpt lat="43.790090839989894" lon="12.15551451788996"><ele>542.0</ele><time>2026-04-20T11:17:05Z</time></trkpt><trkpt lat="43.790053585139255" lon="12.155979243677526"><ele>541.5</ele><time>2026-04-20T11:17:07Z</time></trkpt><trkpt lat="43.79003257687878" lon="12.156197285909752"><ele>541.0</ele><time>2026-04-20T11:17:08Z</time></trkpt><trkpt lat="43.790009145785895" lon="12.156400367252697"><ele>540.5</ele><time>2026-04-20T11:17:09Z</time></trkpt><trkpt lat="43.78998218462102" lon="12.156589437953281"><ele>540.0</ele><time>2026-04-20T11:17:10Z</time></trkpt><trkpt lat="43.78994497237577" lon="12.156778377538073"><ele>540.0</ele><time>2026-04-20T11:17:11Z</time></trkpt><trkpt lat="43.7898915614639" lon="12.156965502168276"><ele>540.0</ele><time>2026-04-20T11:17:12Z</time></trkpt><trkpt lat="43.789827248661354" lon="12.157154544092583"><ele>540.0</ele><time>2026-04-20T11:17:13Z</time></trkpt><trkpt lat="43.78975862283522" lon="12.157346407425086"><ele>540.0</ele><time>2026-04-20T11:17:14Z</time></trkpt><trkpt lat="43.7896833965119" lon="12.157543763006675"><ele>540.0</ele><time>2026-04-20T11:17:15Z</time></trkpt><trkpt lat="43.78961255360163" lon="12.157742130319866"><ele>540.0</ele><time>2026-04-20T11:17:16Z</time></trkpt><trkpt lat="43.789537590209704" lon="12.157949028462703"><ele>540.0</ele><time>2026-04-20T11:17:17Z</time></trkpt><trkpt lat="43.78946172522033" lon="12.158155508916085"><ele>540.0</ele><time>2026-04-20T11:17:18Z</time></trkpt><trkpt lat="43.78938800591248" lon="12.158351844018926"><ele>540.0</ele><time>2026-04-20T11:17:19Z</time></trkpt><trkpt lat="43.789335295370876" lon="12.1585318641846"><ele>540.25</ele><time>2026-04-20T11:17:20Z</time></trkpt><trkpt lat="43.789323619609014" lon="12.158698969193772"><ele>540.5</ele><time>2026-04-20T11:17:21Z</time></trkpt><trkpt lat="43.78935870651328" lon="12.158848591696804"><ele>540.75</ele><time>2026-04-20T11:17:22Z</time></trkpt><trkpt lat="43.78942939050981" lon="12.158992038902838"><ele>541.0</ele><time>2026-04-20T11:17:23Z</time></trkpt><trkpt lat="43.789510979462946" lon="12.159141047377457"><ele>542.4</ele><time>2026-04-20T11:17:24Z</time></trkpt><trkpt lat="43.789589945863916" lon="12.159300406293944"><ele>543.8</ele><time>2026-04-20T11:17:25Z</time></trkpt><trkpt lat="43.789660957000514" lon="12.159442985479414"><ele>545.1999999999999</ele><time>2026-04-20T11:17:25.999Z</time></trkpt><trkpt lat="43.78971430748395" lon="12.159554695263013"><ele>546.6</ele><time>2026-04-20T11:17:26.999Z</time></trkpt><trkpt lat="43.789752949401624" lon="12.159641808976538"><ele>548.0</ele><time>2026-04-20T11:17:27.999Z</time></trkpt><trkpt lat="43.78978839854006" lon="12.159724611252269"><ele>548.0</ele><time>2026-04-20T11:17:28.999Z</time></trkpt><trkpt lat="43.789830409909" lon="12.159815515175355"><ele>548.0</ele><time>2026-04-20T11:17:29.999Z</time></trkpt><trkpt lat="43.78987683646749" lon="12.15991733141628"><ele>548.0</ele><time>2026-04-20T11:17:30.999Z</time></trkpt><trkpt lat="43.78992852120382" lon="12.160024434511474"><ele>548.0</ele><time>2026-04-20T11:17:31.999Z</time></trkpt><trkpt lat="43.78998902213724" lon="12.160141386597267"><ele>548.0</ele><time>2026-04-20T11:17:32.999Z</time></trkpt><trkpt lat="43.790045021819765" lon="12.16025241346256"><ele>549.1666666666666</ele><time>2026-04-20T11:17:33.999Z</time></trkpt><trkpt lat="43.79010055478035" lon="12.160356852496083"><ele>550.3333333333333</ele><time>2026-04-20T11:17:34.999Z</time></trkpt><trkpt lat="43.79015374881153" lon="12.160465898375524"><ele>551.5</ele><time>2026-04-20T11:17:35.999Z</time></trkpt><trkpt lat="43.79019906905669" lon="12.160565823881244"><ele>552.6666666666666</ele><time>2026-04-20T11:17:36.999Z</time></trkpt><trkpt lat="43.79024070994769" lon="12.160662921921286"><ele>553.8333333333334</ele><time>2026-04-20T11:17:37.999Z</time></trkpt><trkpt lat="43.790279471879565" lon="12.160760427176553"><ele>555.0</ele><time>2026-04-20T11:17:38.999Z</time></trkpt><trkpt lat="43.79031819922937" lon="12.160875815019848"><ele>555.0</ele><time>2026-04-20T11:17:39.999Z</time></trkpt><trkpt lat="43.79035901386935" lon="12.161009815219845"><ele>555.0</ele><time>2026-04-20T11:17:40.999Z</time></trkpt><trkpt lat="43.790406241580996" lon="12.161168863513298"><ele>555.0</ele><time>2026-04-20T11:17:41.999Z</time></trkpt><trkpt lat="43.79045575361049" lon="12.161347786709417"><ele>555.0</ele><time>2026-04-20T11:17:42.999Z</time></trkpt><trkpt lat="43.790509714359914" lon="12.161526035879874"><ele>554.75</ele><time>2026-04-20T11:17:43.999Z</time></trkpt><trkpt lat="43.79056801916799" lon="12.161704236271017"><ele>554.5</ele><time>2026-04-20T11:17:44.999Z</time></trkpt><trkpt lat="43.79062701545104" lon="12.161888890278128"><ele>554.25</ele><time>2026-04-20T11:17:45.999Z</time></trkpt><trkpt lat="43.790692062735346" lon="12.162068470750864"><ele>554.0</ele><time>2026-04-20T11:17:46.999Z</time></trkpt><trkpt lat="43.7907611209737" lon="12.162236926471369"><ele>553.75</ele><time>2026-04-20T11:17:47.999Z</time></trkpt><trkpt lat="43.790839253078666" lon="12.162395510416811"><ele>553.5</ele><time>2026-04-20T11:17:48.999Z</time></trkpt><trkpt lat="43.79094389052703" lon="12.162536590211054"><ele>553.25</ele><time>2026-04-20T11:17:49.999Z</time></trkpt><trkpt lat="43.791069218089675" lon="12.162659188045863"><ele>553.0</ele><time>2026-04-20T11:17:50.999Z</time></trkpt><trkpt lat="43.79120324530145" lon="12.162769583118832"><ele>550.5</ele><time>2026-04-20T11:17:51.999Z</time></trkpt><trkpt lat="43.79133106938625" lon="12.162877451678074"><ele>548.0</ele><time>2026-04-20T11:17:52.999Z</time></trkpt><trkpt lat="43.791450362364436" lon="12.162979467863494"><ele>545.5</ele><time>2026-04-20T11:17:53.999Z</time></trkpt><trkpt lat="43.79156156271369" lon="12.163070620161522"><ele>543.0</ele><time>2026-04-20T11:17:54.999Z</time></trkpt><trkpt lat="43.79166349797712" lon="12.163165612425919"><ele>542.75</ele><time>2026-04-20T11:17:56Z</time></trkpt><trkpt lat="43.791752319107566" lon="12.163268553342911"><ele>542.5</ele><time>2026-04-20T11:17:57Z</time></trkpt><trkpt lat="43.791825194445835" lon="12.163393857230128"><ele>542.25</ele><time>2026-04-20T11:17:58Z</time></trkpt><trkpt lat="43.79186896421942" lon="12.163543783137861"><ele>542.0</ele><time>2026-04-20T11:17:59Z</time></trkpt><trkpt lat="43.79190425889668" lon="12.163702514811835"><ele>539.5</ele><time>2026-04-20T11:18:00Z</time></trkpt><trkpt lat="43.79194974693882" lon="12.163873154480628"><ele>537.0</ele><time>2026-04-20T11:18:01Z</time></trkpt><trkpt lat="43.79199978278686" lon="12.164052587111641"><ele>534.5</ele><time>2026-04-20T11:18:02Z</time></trkpt><trkpt lat="43.79205068625974" lon="12.164240479588589"><ele>532.0</ele><time>2026-04-20T11:18:03Z</time></trkpt><trkpt lat="43.79210147261932" lon="12.164432462663889"><ele>531.75</ele><time>2026-04-20T11:18:04Z</time></trkpt><trkpt lat="43.79214872346567" lon="12.164629014870346"><ele>531.5</ele><time>2026-04-20T11:18:05Z</time></trkpt><trkpt lat="43.7921886447316" lon="12.164826496071246"><ele>531.25</ele><time>2026-04-20T11:18:06Z</time></trkpt><trkpt lat="43.792231604919664" lon="12.165013919805864"><ele>531.0</ele><time>2026-04-20T11:18:07Z</time></trkpt><trkpt lat="43.79227645891936" lon="12.165196980335965"><ele>529.75</ele><time>2026-04-20T11:18:08Z</time></trkpt><trkpt lat="43.79232391197179" lon="12.165378662938178"><ele>528.5</ele><time>2026-04-20T11:18:09Z</time></trkpt><trkpt lat="43.79237250054195" lon="12.165554111712177"><ele>527.25</ele><time>2026-04-20T11:18:10Z</time></trkpt><trkpt lat="43.79242013639604" lon="12.165725729378435"><ele>526.0</ele><time>2026-04-20T11:18:11Z</time></trkpt><trkpt lat="43.79247098677729" lon="12.1658909771613"><ele>526.0</ele><time>2026-04-20T11:18:12Z</time></trkpt><trkpt lat="43.79253796525381" lon="12.166042271112657"><ele>526.0</ele><time>2026-04-20T11:18:13Z</time></trkpt><trkpt lat="43.792627061517734" lon="12.166170208254096"><ele>526.0</ele><time>2026-04-20T11:18:14Z</time></trkpt><trkpt lat="43.79273043306258" lon="12.166274739051556"><ele>526.0</ele><time>2026-04-20T11:18:15Z</time></trkpt><trkpt lat="43.79283903304883" lon="12.16636588569696"><ele>523.6</ele><time>2026-04-20T11:18:16Z</time></trkpt><trkpt lat="43.79294181827661" lon="12.166444815910339"><ele>521.2</ele><time>2026-04-20T11:18:17Z</time></trkpt><trkpt lat="43.79302218735394" lon="12.166516423991762"><ele>518.8</ele><time>2026-04-20T11:18:18Z</time></trkpt><trkpt lat="43.79308351777725" lon="12.166589449950761"><ele>516.4</ele><time>2026-04-20T11:18:19Z</time></trkpt><trkpt lat="43.79312381162978" lon="12.166696400099497"><ele>514.0</ele><time>2026-04-20T11:18:20Z</time></trkpt><trkpt lat="43.79316543374868" lon="12.166844066297555"><ele>514.0</ele><time>2026-04-20T11:18:21Z</time></trkpt><trkpt lat="43.79319878195233" lon="12.166987193134995"><ele>514.0</ele><time>2026-04-20T11:18:22Z</time></trkpt><trkpt lat="43.79324544830825" lon="12.167155126926792"><ele>514.0</ele><time>2026-04-20T11:18:23Z</time></trkpt><trkpt lat="43.793306985579235" lon="12.167320633165156"><ele>514.0</ele><time>2026-04-20T11:18:24Z</time></trkpt><trkpt lat="43.79332116390147" lon="12.167418675274673"><ele>514.0</ele><time>2026-04-20T11:18:25Z</time></trkpt><trkpt lat="43.79339307554774" lon="12.167561027393077"><ele>513.4</ele><time>2026-04-20T11:18:26Z</time></trkpt><trkpt lat="43.79345453784612" lon="12.167684211469878"><ele>512.8</ele><time>2026-04-20T11:18:27Z</time></trkpt><trkpt lat="43.79350662873526" lon="12.167800377299931"><ele>512.2</ele><time>2026-04-20T11:18:28Z</time></trkpt><trkpt lat="43.79355547166236" lon="12.167909377525026"><ele>511.6</ele><time>2026-04-20T11:18:29Z</time></trkpt><trkpt lat="43.793599301379324" lon="12.168017408885381"><ele>511.0</ele><time>2026-04-20T11:18:30Z</time></trkpt><trkpt lat="43.793634670114876" lon="12.168126331618227"><ele>511.4</ele><time>2026-04-20T11:18:31Z</time></trkpt><trkpt lat="43.793659882396476" lon="12.168236336654607"><ele>511.8</ele><time>2026-04-20T11:18:32Z</time></trkpt><trkpt lat="43.793677900252604" lon="12.16834669220846"><ele>512.1999999999999</ele><time>2026-04-20T11:18:33Z</time></trkpt><trkpt lat="43.79370864662809" lon="12.168454067384012"><ele>512.6</ele><time>2026-04-20T11:18:34Z</time></trkpt><trkpt lat="43.793766846272455" lon="12.168567446798685"><ele>513.0</ele><time>2026-04-20T11:18:35Z</time></trkpt><trkpt lat="43.79382618895489" lon="12.168689052231308"><ele>513.0</ele><time>2026-04-20T11:18:36Z</time></trkpt><trkpt lat="43.79387779587598" lon="12.168807332352527"><ele>513.0</ele><time>2026-04-20T11:18:37Z</time></trkpt><trkpt lat="43.79392758405653" lon="12.1689168515445"><ele>513.0</ele><time>2026-04-20T11:18:38Z</time></trkpt><trkpt lat="43.79396218807217" lon="12.16902434071045"><ele>513.0</ele><time>2026-04-20T11:18:39Z</time></trkpt><trkpt lat="43.79396673018213" lon="12.169134625108883"><ele>513.0</ele><time>2026-04-20T11:18:40Z</time></trkpt><trkpt lat="43.7939591826174" lon="12.16924274587437"><ele>513.0</ele><time>2026-04-20T11:18:41Z</time></trkpt><trkpt lat="43.79395161381364" lon="12.169353302834365"><ele>512.6</ele><time>2026-04-20T11:18:42Z</time></trkpt><trkpt lat="43.793936051378495" lon="12.169465566517706"><ele>512.1999999999999</ele><time>2026-04-20T11:18:43Z</time></trkpt><trkpt lat="43.79390183986533" lon="12.169551040465315"><ele>511.8</ele><time>2026-04-20T11:18:44Z</time></trkpt><trkpt lat="43.79383423246717" lon="12.169625838516488"><ele>511.4</ele><time>2026-04-20T11:18:45Z</time></trkpt><trkpt lat="43.79374447119465" lon="12.169712139940284"><ele>511.0</ele><time>2026-04-20T11:18:46Z</time></trkpt><trkpt lat="43.7936649325846" lon="12.169822355734858"><ele>510.5</ele><time>2026-04-20T11:18:47Z</time></trkpt><trkpt lat="43.793592320551845" lon="12.169955377212881"><ele>510.0</ele><time>2026-04-20T11:18:48Z</time></trkpt><trkpt lat="43.79350687250545" lon="12.170076610846012"><ele>509.5</ele><time>2026-04-20T11:18:49Z</time></trkpt><trkpt lat="43.79340750438975" lon="12.170182365254389"><ele>509.0</ele><time>2026-04-20T11:18:50Z</time></trkpt><trkpt lat="43.793301476680014" lon="12.170271488227256"><ele>510.0</ele><time>2026-04-20T11:18:51Z</time></trkpt><trkpt lat="43.79319384477191" lon="12.170373317287394"><ele>511.0</ele><time>2026-04-20T11:18:52Z</time></trkpt><trkpt lat="43.79308408742733" lon="12.170471917761363"><ele>512.0</ele><time>2026-04-20T11:18:53Z</time></trkpt><trkpt lat="43.79297763664925" lon="12.170569473559562"><ele>513.0</ele><time>2026-04-20T11:18:54Z</time></trkpt><trkpt lat="43.79286532381831" lon="12.170676265576358"><ele>515.0</ele><time>2026-04-20T11:18:55Z</time></trkpt><trkpt lat="43.792759300414126" lon="12.170794517341637"><ele>517.0</ele><time>2026-04-20T11:18:56Z</time></trkpt><trkpt lat="43.79265725655251" lon="12.170902586954206"><ele>519.0</ele><time>2026-04-20T11:18:57Z</time></trkpt><trkpt lat="43.792547765043786" lon="12.170996292991951"><ele>521.0</ele><time>2026-04-20T11:18:58Z</time></trkpt><trkpt lat="43.79245392762666" lon="12.171071691276339"><ele>521.5</ele><time>2026-04-20T11:18:59Z</time></trkpt><trkpt lat="43.79237226231903" lon="12.171148507037834"><ele>522.0</ele><time>2026-04-20T11:19:00Z</time></trkpt><trkpt lat="43.79230942548621" lon="12.17123061689963"><ele>522.5</ele><time>2026-04-20T11:19:01Z</time></trkpt><trkpt lat="43.79227875206114" lon="12.171319527796943"><ele>523.0</ele><time>2026-04-20T11:19:02Z</time></trkpt><trkpt lat="43.7922646129498" lon="12.171422032622875"><ele>523.5</ele><time>2026-04-20T11:19:03Z</time></trkpt><trkpt lat="43.792268973165235" lon="12.171510941502678"><ele>524.0</ele><time>2026-04-20T11:19:04Z</time></trkpt><trkpt lat="43.79235313687113" lon="12.171624697008804"><ele>525.2</ele><time>2026-04-20T11:19:06Z</time></trkpt><trkpt lat="43.79244248172673" lon="12.171649329501944"><ele>526.4</ele><time>2026-04-20T11:19:07Z</time></trkpt><trkpt lat="43.79254428575799" lon="12.171648271718446"><ele>527.6</ele><time>2026-04-20T11:19:08Z</time></trkpt><trkpt lat="43.79264889573035" lon="12.171634309345981"><ele>528.8</ele><time>2026-04-20T11:19:09Z</time></trkpt><trkpt lat="43.79273997909026" lon="12.171581696960805"><ele>530.0</ele><time>2026-04-20T11:19:10Z</time></trkpt><trkpt lat="43.79283509356887" lon="12.171526704439877"><ele>527.75</ele><time>2026-04-20T11:19:11Z</time></trkpt><trkpt lat="43.792934389137805" lon="12.171462372150302"><ele>525.5</ele><time>2026-04-20T11:19:12Z</time></trkpt><trkpt lat="43.79305126338502" lon="12.171407735328248"><ele>523.25</ele><time>2026-04-20T11:19:13Z</time></trkpt><trkpt lat="43.793151539687976" lon="12.17131846597547"><ele>521.0</ele><time>2026-04-20T11:19:14Z</time></trkpt><trkpt lat="43.79326473273205" lon="12.171235952057028"><ele>521.0</ele><time>2026-04-20T11:19:15Z</time></trkpt><trkpt lat="43.79337966266408" lon="12.171168755957686"><ele>521.0</ele><time>2026-04-20T11:19:16Z</time></trkpt><trkpt lat="43.793492858999834" lon="12.171136845533072"><ele>521.0</ele><time>2026-04-20T11:19:17Z</time></trkpt><trkpt lat="43.79359621143623" lon="12.17108942381994"><ele>521.0</ele><time>2026-04-20T11:19:18Z</time></trkpt><trkpt lat="43.793687998357896" lon="12.171067773337453"><ele>521.0</ele><time>2026-04-20T11:19:19Z</time></trkpt><trkpt lat="43.79376406656059" lon="12.171030899383606"><ele>520.6</ele><time>2026-04-20T11:19:20Z</time></trkpt><trkpt lat="43.79384027189831" lon="12.171028325244126"><ele>520.2</ele><time>2026-04-20T11:19:21Z</time></trkpt><trkpt lat="43.793902551100665" lon="12.171066288260906"><ele>519.8</ele><time>2026-04-20T11:19:22Z</time></trkpt><trkpt lat="43.79396885540451" lon="12.171214189843987"><ele>519.4</ele><time>2026-04-20T11:19:24Z</time></trkpt><trkpt lat="43.793937368610976" lon="12.171373885830894"><ele>519.0</ele><time>2026-04-20T11:19:26.001Z</time></trkpt><trkpt lat="43.79381915372987" lon="12.171516618408347"><ele>524.0</ele><time>2026-04-20T11:19:28.001Z</time></trkpt><trkpt lat="43.7937344752738" lon="12.171644882457615"><ele>529.0</ele><time>2026-04-20T11:19:29.001Z</time></trkpt><trkpt lat="43.79363880911464" lon="12.171785564286155"><ele>534.0</ele><time>2026-04-20T11:19:30.001Z</time></trkpt><trkpt lat="43.793556833641276" lon="12.17189774740234"><ele>539.0</ele><time>2026-04-20T11:19:31.001Z</time></trkpt><trkpt lat="43.79349143392093" lon="12.171976991315448"><ele>539.0</ele><time>2026-04-20T11:19:31.998Z</time></trkpt><trkpt lat="43.793428522232766" lon="12.172044659198715"><ele>539.0</ele><time>2026-04-20T11:19:32.998Z</time></trkpt><trkpt lat="43.79337435128491" lon="12.172112300349605"><ele>539.0</ele><time>2026-04-20T11:19:33.998Z</time></trkpt><trkpt lat="43.79331012181561" lon="12.172180632212374"><ele>539.0</ele><time>2026-04-20T11:19:34.998Z</time></trkpt><trkpt lat="43.793237081717514" lon="12.172262382028418"><ele>539.0</ele><time>2026-04-20T11:19:35.998Z</time></trkpt><trkpt lat="43.79315707488351" lon="12.172339370094672"><ele>539.0</ele><time>2026-04-20T11:19:36.998Z</time></trkpt><trkpt lat="43.79308178246892" lon="12.172384957389022"><ele>542.3333333333333</ele><time>2026-04-20T11:19:37.998Z</time></trkpt><trkpt lat="43.79301446113064" lon="12.172417682283951"><ele>545.6666666666666</ele><time>2026-04-20T11:19:38.998Z</time></trkpt><trkpt lat="43.792983490534176" lon="12.172518519025031"><ele>549.0</ele><time>2026-04-20T11:19:40.998Z</time></trkpt><trkpt lat="43.7930727152359" lon="12.17259219297921"><ele>552.3333333333334</ele><time>2026-04-20T11:19:42.998Z</time></trkpt><trkpt lat="43.793139150920204" lon="12.17258570038325"><ele>555.6666666666667</ele><time>2026-04-20T11:19:43.998Z</time></trkpt><trkpt lat="43.793207781431356" lon="12.172551764291867"><ele>559.0</ele><time>2026-04-20T11:19:44.998Z</time></trkpt><trkpt lat="43.79328571684246" lon="12.172533559510383"><ele>559.0</ele><time>2026-04-20T11:19:45.998Z</time></trkpt><trkpt lat="43.79337906401206" lon="12.172524890781911"><ele>559.0</ele><time>2026-04-20T11:19:46.998Z</time></trkpt><trkpt lat="43.79348935619353" lon="12.172509659956647"><ele>559.0</ele><time>2026-04-20T11:19:47.998Z</time></trkpt><trkpt lat="43.79360261966565" lon="12.17249693958872"><ele>559.0</ele><time>2026-04-20T11:19:48.998Z</time></trkpt><trkpt lat="43.79371452298152" lon="12.172497457975627"><ele>559.0</ele><time>2026-04-20T11:19:49.998Z</time></trkpt><trkpt lat="43.793819777363346" lon="12.172508259510836"><ele>558.8333333333334</ele><time>2026-04-20T11:19:50.998Z</time></trkpt><trkpt lat="43.793919423043114" lon="12.172526106823812"><ele>558.6666666666667</ele><time>2026-04-20T11:19:51.999Z</time></trkpt><trkpt lat="43.79400237129582" lon="12.172554154389276"><ele>558.5</ele><time>2026-04-20T11:19:52.999Z</time></trkpt><trkpt lat="43.79407466001048" lon="12.172608963234335"><ele>558.3333333333334</ele><time>2026-04-20T11:19:53.999Z</time></trkpt><trkpt lat="43.79412556301309" lon="12.172678851514247"><ele>558.1666666666666</ele><time>2026-04-20T11:19:54.999Z</time></trkpt><trkpt lat="43.794160861778906" lon="12.172766381427275"><ele>558.0</ele><time>2026-04-20T11:19:55.999Z</time></trkpt><trkpt lat="43.79416351146322" lon="12.172874631706138"><ele>558.0</ele><time>2026-04-20T11:19:57.999Z</time></trkpt><trkpt lat="43.79409773669887" lon="12.172972082081058"><ele>558.0</ele><time>2026-04-20T11:19:59.999Z</time></trkpt><trkpt lat="43.79397852342726" lon="12.173061015687974"><ele>558.0</ele><time>2026-04-20T11:20:01.999Z</time></trkpt><trkpt lat="43.793918659259674" lon="12.17310570803674"><ele>558.0</ele><time>2026-04-20T11:20:02.999Z</time></trkpt><trkpt lat="43.79386367323815" lon="12.173163146419128"><ele>558.0</ele><time>2026-04-20T11:20:03.999Z</time></trkpt><trkpt lat="43.79382033669901" lon="12.173231653217103"><ele>558.0</ele><time>2026-04-20T11:20:04.999Z</time></trkpt><trkpt lat="43.79376215302845" lon="12.173379567178111"><ele>558.4285714285713</ele><time>2026-04-20T11:20:06.999Z</time></trkpt><trkpt lat="43.79373637015773" lon="12.17346552484914"><ele>558.8571428571429</ele><time>2026-04-20T11:20:07.999Z</time></trkpt><trkpt lat="43.793714843685464" lon="12.17355458169398"><ele>559.2857142857142</ele><time>2026-04-20T11:20:08.999Z</time></trkpt><trkpt lat="43.7936933556184" lon="12.173640778128613"><ele>559.7142857142857</ele><time>2026-04-20T11:20:09.999Z</time></trkpt><trkpt lat="43.79366688384898" lon="12.173746597661983"><ele>560.1428571428571</ele><time>2026-04-20T11:20:10.999Z</time></trkpt><trkpt lat="43.79365564765692" lon="12.173863581938539"><ele>560.5714285714286</ele><time>2026-04-20T11:20:11.999Z</time></trkpt><trkpt lat="43.79364491695158" lon="12.173962432724458"><ele>561.0</ele><time>2026-04-20T11:20:12.999Z</time></trkpt><trkpt lat="43.79361825018467" lon="12.174067578256777"><ele>556.8</ele><time>2026-04-20T11:20:13.999Z</time></trkpt><trkpt lat="43.793576399184886" lon="12.17417883691374"><ele>552.6</ele><time>2026-04-20T11:20:14.999Z</time></trkpt><trkpt lat="43.79353380990028" lon="12.17430492133241"><ele>548.4</ele><time>2026-04-20T11:20:15.999Z</time></trkpt><trkpt lat="43.793492593624784" lon="12.174425098064555"><ele>544.2</ele><time>2026-04-20T11:20:16.999Z</time></trkpt><trkpt lat="43.793465610762546" lon="12.174544407074809"><ele>540.0</ele><time>2026-04-20T11:20:17.999Z</time></trkpt><trkpt lat="43.79345644798102" lon="12.174655149613429"><ele>545.8</ele><time>2026-04-20T11:20:18.999Z</time></trkpt><trkpt lat="43.79345793295982" lon="12.174749661576449"><ele>551.6</ele><time>2026-04-20T11:20:19.999Z</time></trkpt><trkpt lat="43.793471526312516" lon="12.174842546685856"><ele>557.4</ele><time>2026-04-20T11:20:20.999Z</time></trkpt><trkpt lat="43.79342529027604" lon="12.174995586835195"><ele>563.2</ele><time>2026-04-20T11:20:22.999Z</time></trkpt><trkpt lat="43.79338925026266" lon="12.175072999248108"><ele>569.0</ele><time>2026-04-20T11:20:23.999Z</time></trkpt><trkpt lat="43.79328197313591" lon="12.175201759564565"><ele>569.0</ele><time>2026-04-20T11:20:26Z</time></trkpt><trkpt lat="43.79320826898593" lon="12.17528471143884"><ele>569.0</ele><time>2026-04-20T11:20:27Z</time></trkpt><trkpt lat="43.79313957336279" lon="12.175378548121376"><ele>569.0</ele><time>2026-04-20T11:20:28Z</time></trkpt><trkpt lat="43.79308379203387" lon="12.1754904477344"><ele>569.0</ele><time>2026-04-20T11:20:29Z</time></trkpt><trkpt lat="43.79303465075325" lon="12.175611700024138"><ele>569.0</ele><time>2026-04-20T11:20:30Z</time></trkpt><trkpt lat="43.79297823587159" lon="12.175740187371163"><ele>567.5</ele><time>2026-04-20T11:20:31Z</time></trkpt><trkpt lat="43.79293370744882" lon="12.175852132461085"><ele>566.0</ele><time>2026-04-20T11:20:32Z</time></trkpt><trkpt lat="43.792890723539045" lon="12.175968736082002"><ele>564.5</ele><time>2026-04-20T11:20:33Z</time></trkpt><trkpt lat="43.79286207353452" lon="12.17609101885041"><ele>563.0</ele><time>2026-04-20T11:20:34Z</time></trkpt><trkpt lat="43.79285350701693" lon="12.176179436438563"><ele>561.5</ele><time>2026-04-20T11:20:35Z</time></trkpt><trkpt lat="43.79285597134882" lon="12.176281185193174"><ele>560.0</ele><time>2026-04-20T11:20:36Z</time></trkpt><trkpt lat="43.79287576511637" lon="12.176416673831644"><ele>561.8</ele><time>2026-04-20T11:20:37Z</time></trkpt><trkpt lat="43.792894922249864" lon="12.176542432776888"><ele>563.6</ele><time>2026-04-20T11:20:38Z</time></trkpt><trkpt lat="43.79292484798681" lon="12.176682554598731"><ele>565.4</ele><time>2026-04-20T11:20:40Z</time></trkpt><trkpt lat="43.793049475788884" lon="12.176762075775098"><ele>567.2</ele><time>2026-04-20T11:20:42Z</time></trkpt><trkpt lat="43.793144402741824" lon="12.176805843002155"><ele>569.0</ele><time>2026-04-20T11:20:43Z</time></trkpt><trkpt lat="43.7932251066879" lon="12.176842324594608"><ele>569.0</ele><time>2026-04-20T11:20:44Z</time></trkpt><trkpt lat="43.793312990411145" lon="12.176839717955135"><ele>569.0</ele><time>2026-04-20T11:20:45Z</time></trkpt><trkpt lat="43.79345330582391" lon="12.176774548470716"><ele>569.0</ele><time>2026-04-20T11:20:47Z</time></trkpt><trkpt lat="43.79353183621948" lon="12.176740410570021"><ele>569.0</ele><time>2026-04-20T11:20:48Z</time></trkpt><trkpt lat="43.79361585173493" lon="12.176713980305255"><ele>569.0</ele><time>2026-04-20T11:20:49Z</time></trkpt><trkpt lat="43.79370543119901" lon="12.176672772346574"><ele>569.8</ele><time>2026-04-20T11:20:50Z</time></trkpt><trkpt lat="43.79378409411481" lon="12.176640176023838"><ele>570.5999999999999</ele><time>2026-04-20T11:20:51Z</time></trkpt><trkpt lat="43.7938685481468" lon="12.176614859223518"><ele>571.4</ele><time>2026-04-20T11:20:52Z</time></trkpt><trkpt lat="43.79395044423585" lon="12.17661582346369"><ele>572.1999999999999</ele><time>2026-04-20T11:20:53Z</time></trkpt><trkpt lat="43.794039901414116" lon="12.176647188007635"><ele>573.0</ele><time>2026-04-20T11:20:54Z</time></trkpt><trkpt lat="43.79413935894981" lon="12.176704937503445"><ele>573.0</ele><time>2026-04-20T11:20:55Z</time></trkpt><trkpt lat="43.79423520346329" lon="12.17677042439479"><ele>573.0</ele><time>2026-04-20T11:20:56Z</time></trkpt><trkpt lat="43.79432567833712" lon="12.176840455161953"><ele>573.0</ele><time>2026-04-20T11:20:57Z</time></trkpt><trkpt lat="43.794424627800524" lon="12.17690012898588"><ele>573.0</ele><time>2026-04-20T11:20:58Z</time></trkpt><trkpt lat="43.7945339957819" lon="12.176954104251243"><ele>573.0</ele><time>2026-04-20T11:20:59Z</time></trkpt><trkpt lat="43.79463613816886" lon="12.177007547207475"><ele>572.0</ele><time>2026-04-20T11:21:00Z</time></trkpt><trkpt lat="43.79473892694734" lon="12.17706161953201"><ele>571.0</ele><time>2026-04-20T11:21:01Z</time></trkpt><trkpt lat="43.79482935482376" lon="12.177102894507028"><ele>570.0</ele><time>2026-04-20T11:21:02Z</time></trkpt><trkpt lat="43.794920188949625" lon="12.177115916203931"><ele>569.0</ele><time>2026-04-20T11:21:03Z</time></trkpt><trkpt lat="43.795019673433416" lon="12.177114604037762"><ele>568.0</ele><time>2026-04-20T11:21:04Z</time></trkpt><trkpt lat="43.79512946674655" lon="12.177097455860716"><ele>568.4</ele><time>2026-04-20T11:21:05Z</time></trkpt><trkpt lat="43.795238502213" lon="12.17707982332723"><ele>568.8</ele><time>2026-04-20T11:21:06Z</time></trkpt><trkpt lat="43.79534413255206" lon="12.177068113762516"><ele>569.2</ele><time>2026-04-20T11:21:07Z</time></trkpt><trkpt lat="43.795439023117474" lon="12.177051824553192"><ele>569.6</ele><time>2026-04-20T11:21:08Z</time></trkpt><trkpt lat="43.79552489095627" lon="12.177035072737418"><ele>570.0</ele><time>2026-04-20T11:21:09Z</time></trkpt><trkpt lat="43.79561142044083" lon="12.177038820786944"><ele>570.0</ele><time>2026-04-20T11:21:10Z</time></trkpt><trkpt lat="43.79570231855971" lon="12.177043012779505"><ele>570.0</ele><time>2026-04-20T11:21:11Z</time></trkpt><trkpt lat="43.79577073918511" lon="12.177055072936097"><ele>570.0</ele><time>2026-04-20T11:21:12Z</time></trkpt><trkpt lat="43.79586568033415" lon="12.177068304123473"><ele>570.0</ele><time>2026-04-20T11:21:13Z</time></trkpt><trkpt lat="43.795940773637774" lon="12.177062805984555"><ele>570.0</ele><time>2026-04-20T11:21:14Z</time></trkpt><trkpt lat="43.79601993143668" lon="12.177052367702174"><ele>570.0</ele><time>2026-04-20T11:21:15Z</time></trkpt><trkpt lat="43.79609054609034" lon="12.177011653143408"><ele>567.2</ele><time>2026-04-20T11:21:16Z</time></trkpt><trkpt lat="43.796166638503045" lon="12.176965436964284"><ele>564.4</ele><time>2026-04-20T11:21:17Z</time></trkpt><trkpt lat="43.79623173304488" lon="12.176904495985104"><ele>561.6</ele><time>2026-04-20T11:21:18Z</time></trkpt><trkpt lat="43.79632516652374" lon="12.17688124679904"><ele>558.8</ele><time>2026-04-20T11:21:20Z</time></trkpt><trkpt lat="43.79640166236915" lon="12.176980772901501"><ele>556.0</ele><time>2026-04-20T11:21:22Z</time></trkpt><trkpt lat="43.79642519935503" lon="12.177112927545032"><ele>556.0</ele><time>2026-04-20T11:21:24Z</time></trkpt><trkpt lat="43.796438435836414" lon="12.17723222199645"><ele>556.0</ele><time>2026-04-20T11:21:26Z</time></trkpt><trkpt lat="43.796473552633" lon="12.177396114758848"><ele>556.0</ele><time>2026-04-20T11:21:28Z</time></trkpt><trkpt lat="43.79653897865544" lon="12.177532769283061"><ele>556.0</ele><time>2026-04-20T11:21:30Z</time></trkpt><trkpt lat="43.796644228235785" lon="12.1776319413034"><ele>557.0</ele><time>2026-04-20T11:21:32Z</time></trkpt><trkpt lat="43.79672710737174" lon="12.177709507853004"><ele>558.0</ele><time>2026-04-20T11:21:34Z</time></trkpt><trkpt lat="43.796847618542714" lon="12.177750731423119"><ele>559.0</ele><time>2026-04-20T11:21:36.001Z</time></trkpt><trkpt lat="43.796925905616234" lon="12.177798322321369"><ele>560.0</ele><time>2026-04-20T11:21:37.001Z</time></trkpt><trkpt lat="43.79698248669319" lon="12.177846328798053"><ele>561.0</ele><time>2026-04-20T11:21:37.999Z</time></trkpt><trkpt lat="43.79703802562421" lon="12.177919250325749"><ele>558.0</ele><time>2026-04-20T11:21:38.999Z</time></trkpt><trkpt lat="43.79710042619725" lon="12.178027478202093"><ele>555.0</ele><time>2026-04-20T11:21:39.999Z</time></trkpt><trkpt lat="43.79716801926888" lon="12.178120691196552"><ele>552.0</ele><time>2026-04-20T11:21:40.999Z</time></trkpt><trkpt lat="43.797237375240385" lon="12.178204888762084"><ele>549.0</ele><time>2026-04-20T11:21:41.999Z</time></trkpt><trkpt lat="43.79730115674753" lon="12.178272191577284"><ele>546.0</ele><time>2026-04-20T11:21:42.999Z</time></trkpt><trkpt lat="43.79735386645064" lon="12.178336554087894"><ele>543.0</ele><time>2026-04-20T11:21:43.999Z</time></trkpt><trkpt lat="43.797415886412516" lon="12.178411088480772"><ele>543.0</ele><time>2026-04-20T11:21:44.999Z</time></trkpt><trkpt lat="43.79748099376716" lon="12.178479955508312"><ele>543.0</ele><time>2026-04-20T11:21:45.999Z</time></trkpt><trkpt lat="43.797532361648514" lon="12.178541376625109"><ele>543.0</ele><time>2026-04-20T11:21:46.999Z</time></trkpt><trkpt lat="43.797568579382165" lon="12.17863179037685"><ele>543.0</ele><time>2026-04-20T11:21:47.999Z</time></trkpt><trkpt lat="43.79760061674318" lon="12.17870720116043"><ele>543.0</ele><time>2026-04-20T11:21:48.999Z</time></trkpt><trkpt lat="43.79762802583764" lon="12.178800118630223"><ele>543.0</ele><time>2026-04-20T11:21:49.999Z</time></trkpt><trkpt lat="43.79764244884605" lon="12.178894643420547"><ele>543.0</ele><time>2026-04-20T11:21:50.999Z</time></trkpt><trkpt lat="43.797639707641224" lon="12.179043555014156"><ele>543.0</ele><time>2026-04-20T11:21:52.999Z</time></trkpt><trkpt lat="43.79755658402441" lon="12.179136705716406"><ele>543.0</ele><time>2026-04-20T11:21:54.999Z</time></trkpt><trkpt lat="43.79745539865339" lon="12.179255963333834"><ele>543.0</ele><time>2026-04-20T11:21:56.999Z</time></trkpt><trkpt lat="43.797417946289784" lon="12.179351088778445"><ele>543.0</ele><time>2026-04-20T11:21:57.999Z</time></trkpt><trkpt lat="43.79739482337161" lon="12.179472231214008"><ele>543.0</ele><time>2026-04-20T11:21:58.999Z</time></trkpt><trkpt lat="43.79738260156014" lon="12.179606943246462"><ele>543.0</ele><time>2026-04-20T11:21:59.999Z</time></trkpt><trkpt lat="43.79736208756568" lon="12.179718549984685"><ele>543.0</ele><time>2026-04-20T11:22:00.999Z</time></trkpt><trkpt lat="43.797339234241285" lon="12.179833402967704"><ele>543.0</ele><time>2026-04-20T11:22:01.999Z</time></trkpt><trkpt lat="43.79730027289821" lon="12.179922118452629"><ele>543.0</ele><time>2026-04-20T11:22:02.999Z</time></trkpt><trkpt lat="43.79727386584053" lon="12.180005113760549"><ele>543.0</ele><time>2026-04-20T11:22:03.999Z</time></trkpt><trkpt lat="43.7972787667715" lon="12.180124808906312"><ele>543.0</ele><time>2026-04-20T11:22:04.999Z</time></trkpt><trkpt lat="43.7972990643113" lon="12.180253190687464"><ele>541.1666666666666</ele><time>2026-04-20T11:22:06Z</time></trkpt><trkpt lat="43.79733204356288" lon="12.180372289535853"><ele>539.3333333333334</ele><time>2026-04-20T11:22:07Z</time></trkpt><trkpt lat="43.79735654251372" lon="12.180461881740081"><ele>537.5</ele><time>2026-04-20T11:22:08Z</time></trkpt><trkpt lat="43.7973892339041" lon="12.18054143644608"><ele>535.6666666666667</ele><time>2026-04-20T11:22:09Z</time></trkpt><trkpt lat="43.79747197699398" lon="12.180655428490837"><ele>533.8333333333334</ele><time>2026-04-20T11:22:11Z</time></trkpt><trkpt lat="43.79751328418415" lon="12.18075544330999"><ele>532.0</ele><time>2026-04-20T11:22:12Z</time></trkpt><trkpt lat="43.797535117083754" lon="12.180881991974804"><ele>531.7142857142857</ele><time>2026-04-20T11:22:13Z</time></trkpt><trkpt lat="43.79753058056453" lon="12.180984283370533"><ele>531.4285714285714</ele><time>2026-04-20T11:22:14Z</time></trkpt><trkpt lat="43.79751463855799" lon="12.181087496660767"><ele>531.1428571428571</ele><time>2026-04-20T11:22:15Z</time></trkpt><trkpt lat="43.797498437873045" lon="12.181181746466118"><ele>530.8571428571429</ele><time>2026-04-20T11:22:16Z</time></trkpt><trkpt lat="43.797502047278634" lon="12.181291450261764"><ele>530.5714285714286</ele><time>2026-04-20T11:22:17Z</time></trkpt><trkpt lat="43.79753205064847" lon="12.181394312426555"><ele>530.2857142857142</ele><time>2026-04-20T11:22:18Z</time></trkpt><trkpt lat="43.79758289424048" lon="12.181459545895043"><ele>530.0</ele><time>2026-04-20T11:22:19Z</time></trkpt><trkpt lat="43.79765074334872" lon="12.181504661163553"><ele>531.5</ele><time>2026-04-20T11:22:20Z</time></trkpt><trkpt lat="43.79773671388163" lon="12.181523621531184"><ele>533.0</ele><time>2026-04-20T11:22:21Z</time></trkpt><trkpt lat="43.79781918780152" lon="12.181538665348397"><ele>534.5</ele><time>2026-04-20T11:22:22Z</time></trkpt><trkpt lat="43.79789673346992" lon="12.181580092419573"><ele>536.0</ele><time>2026-04-20T11:22:23Z</time></trkpt><trkpt lat="43.79798400886832" lon="12.18163263902399"><ele>537.5</ele><time>2026-04-20T11:22:24Z</time></trkpt><trkpt lat="43.798067270550035" lon="12.181670898431513"><ele>539.0</ele><time>2026-04-20T11:22:25Z</time></trkpt><trkpt lat="43.79818675618065" lon="12.18170523945357"><ele>539.0</ele><time>2026-04-20T11:22:26Z</time></trkpt><trkpt lat="43.79831022202786" lon="12.181729111999266"><ele>539.0</ele><time>2026-04-20T11:22:27Z</time></trkpt><trkpt lat="43.79840027602718" lon="12.181770317241241"><ele>539.0</ele><time>2026-04-20T11:22:28Z</time></trkpt><trkpt lat="43.798470917106364" lon="12.181809754515527"><ele>539.0</ele><time>2026-04-20T11:22:29Z</time></trkpt><trkpt lat="43.79855676238898" lon="12.181845099438945"><ele>539.0</ele><time>2026-04-20T11:22:30Z</time></trkpt><trkpt lat="43.79862053836773" lon="12.18187704272808"><ele>538.1666666666666</ele><time>2026-04-20T11:22:31Z</time></trkpt><trkpt lat="43.79868526964546" lon="12.181923824139282"><ele>537.3333333333333</ele><time>2026-04-20T11:22:32Z</time></trkpt><trkpt lat="43.798745110639025" lon="12.182053317753917"><ele>536.5</ele><time>2026-04-20T11:22:34Z</time></trkpt><trkpt lat="43.798773034764245" lon="12.182162687412607"><ele>535.6666666666666</ele><time>2026-04-20T11:22:35Z</time></trkpt><trkpt lat="43.79878501300665" lon="12.182258700289006"><ele>534.8333333333334</ele><time>2026-04-20T11:22:36Z</time></trkpt><trkpt lat="43.79881007377608" lon="12.182374738062306"><ele>534.0</ele><time>2026-04-20T11:22:37Z</time></trkpt><trkpt lat="43.798831939896196" lon="12.182519660214478"><ele>534.0</ele><time>2026-04-20T11:22:38Z</time></trkpt><trkpt lat="43.79885513503864" lon="12.1826495403089"><ele>534.0</ele><time>2026-04-20T11:22:39Z</time></trkpt><trkpt lat="43.79886577905066" lon="12.18279634813315"><ele>534.0</ele><time>2026-04-20T11:22:40Z</time></trkpt><trkpt lat="43.79886975047439" lon="12.182930105772549"><ele>534.0</ele><time>2026-04-20T11:22:41Z</time></trkpt><trkpt lat="43.79887135249672" lon="12.183037375014246"><ele>534.0</ele><time>2026-04-20T11:22:42Z</time></trkpt><trkpt lat="43.79883705825557" lon="12.183217174929796"><ele>534.4</ele><time>2026-04-20T11:22:44Z</time></trkpt><trkpt lat="43.798816419209494" lon="12.183327589364593"><ele>534.8</ele><time>2026-04-20T11:22:45Z</time></trkpt><trkpt lat="43.798797888217905" lon="12.183460729640792"><ele>535.2</ele><time>2026-04-20T11:22:46Z</time></trkpt><trkpt lat="43.79878838566017" lon="12.183580920436968"><ele>535.6</ele><time>2026-04-20T11:22:47Z</time></trkpt><trkpt lat="43.79876918896417" lon="12.183705125320499"><ele>536.0</ele><time>2026-04-20T11:22:48Z</time></trkpt><trkpt lat="43.79874962956425" lon="12.183837332022604"><ele>536.0</ele><time>2026-04-20T11:22:49Z</time></trkpt><trkpt lat="43.79873345617989" lon="12.183973094556633"><ele>536.0</ele><time>2026-04-20T11:22:50Z</time></trkpt><trkpt lat="43.79871498768732" lon="12.184105556080059"><ele>536.0</ele><time>2026-04-20T11:22:51Z</time></trkpt><trkpt lat="43.798688923344365" lon="12.184241711360421"><ele>536.0</ele><time>2026-04-20T11:22:52Z</time></trkpt><trkpt lat="43.79867351434969" lon="12.184360050431366"><ele>536.0</ele><time>2026-04-20T11:22:53.001Z</time></trkpt><trkpt lat="43.798646054204795" lon="12.184484522821812"><ele>536.0</ele><time>2026-04-20T11:22:54.001Z</time></trkpt><trkpt lat="43.79863511613371" lon="12.184599817763768"><ele>536.0</ele><time>2026-04-20T11:22:55.001Z</time></trkpt><trkpt lat="43.79861490017797" lon="12.184734131167245"><ele>536.0</ele><time>2026-04-20T11:22:56.001Z</time></trkpt><trkpt lat="43.7985985518899" lon="12.1848768111698"><ele>536.0</ele><time>2026-04-20T11:22:57.001Z</time></trkpt><trkpt lat="43.798589846915625" lon="12.184999737745226"><ele>536.0</ele><time>2026-04-20T11:22:58.001Z</time></trkpt><trkpt lat="43.79856861819191" lon="12.185144683707815"><ele>535.8333333333333</ele><time>2026-04-20T11:22:59.001Z</time></trkpt><trkpt lat="43.79855044453427" lon="12.185284479313022"><ele>535.6666666666666</ele><time>2026-04-20T11:23:00.001Z</time></trkpt><trkpt lat="43.798530409656145" lon="12.185394779043637"><ele>535.5</ele><time>2026-04-20T11:23:01.001Z</time></trkpt><trkpt lat="43.79851771726476" lon="12.185491823575521"><ele>535.3333333333334</ele><time>2026-04-20T11:23:02.001Z</time></trkpt><trkpt lat="43.798499238346174" lon="12.185604901354534"><ele>535.1666666666667</ele><time>2026-04-20T11:23:03.001Z</time></trkpt><trkpt lat="43.79848593360755" lon="12.185709304372168"><ele>535.0</ele><time>2026-04-20T11:23:04.001Z</time></trkpt><trkpt lat="43.798481833865125" lon="12.185812067932495"><ele>535.4</ele><time>2026-04-20T11:23:05.001Z</time></trkpt><trkpt lat="43.79852073366967" lon="12.186006953692104"><ele>535.8</ele><time>2026-04-20T11:23:07.001Z</time></trkpt><trkpt lat="43.798541372488444" lon="12.186144563456768"><ele>536.2</ele><time>2026-04-20T11:23:08.001Z</time></trkpt><trkpt lat="43.79856261149673" lon="12.186277726423127"><ele>536.6</ele><time>2026-04-20T11:23:09.001Z</time></trkpt><trkpt lat="43.79858264649653" lon="12.186410941019412"><ele>537.0</ele><time>2026-04-20T11:23:10.001Z</time></trkpt><trkpt lat="43.79856396835633" lon="12.18655442664867"><ele>537.0</ele><time>2026-04-20T11:23:11.001Z</time></trkpt><trkpt lat="43.798581488233765" lon="12.186682517259525"><ele>537.0</ele><time>2026-04-20T11:23:12.001Z</time></trkpt><trkpt lat="43.798597808624294" lon="12.186796865264256"><ele>537.0</ele><time>2026-04-20T11:23:13.001Z</time></trkpt><trkpt lat="43.79862007727774" lon="12.186914871568467"><ele>537.0</ele><time>2026-04-20T11:23:14.001Z</time></trkpt><trkpt lat="43.798635424083095" lon="12.187019693094168"><ele>537.0</ele><time>2026-04-20T11:23:15.001Z</time></trkpt><trkpt lat="43.79866447157681" lon="12.187112243162812"><ele>537.0</ele><time>2026-04-20T11:23:16.001Z</time></trkpt><trkpt lat="43.798734768665994" lon="12.187191612433516"><ele>537.0</ele><time>2026-04-20T11:23:17.001Z</time></trkpt><trkpt lat="43.79884371809155" lon="12.187199999436094"><ele>537.0</ele><time>2026-04-20T11:23:18.001Z</time></trkpt><trkpt lat="43.79892141190808" lon="12.187234966786331"><ele>537.0</ele><time>2026-04-20T11:23:19.001Z</time></trkpt><trkpt lat="43.79902430811662" lon="12.187302637830216"><ele>537.0</ele><time>2026-04-20T11:23:21.001Z</time></trkpt><trkpt lat="43.799084338894225" lon="12.187377681364548"><ele>537.0</ele><time>2026-04-20T11:23:23.001Z</time></trkpt><trkpt lat="43.79911808485278" lon="12.187456598190131"><ele>534.4</ele><time>2026-04-20T11:23:37.001Z</time></trkpt><trkpt lat="43.79919275457268" lon="12.187592743910034"><ele>531.8000000000001</ele><time>2026-04-20T11:23:39.001Z</time></trkpt><trkpt lat="43.79924107998456" lon="12.187685965199737"><ele>529.2</ele><time>2026-04-20T11:23:40.001Z</time></trkpt><trkpt lat="43.79928677238301" lon="12.18778076277323"><ele>526.6</ele><time>2026-04-20T11:23:41.001Z</time></trkpt><trkpt lat="43.79932859102778" lon="12.187880398291878"><ele>524.0</ele><time>2026-04-20T11:23:42.001Z</time></trkpt><trkpt lat="43.79938400263081" lon="12.18796502236801"><ele>524.0</ele><time>2026-04-20T11:23:43.001Z</time></trkpt><trkpt lat="43.79940846061975" lon="12.188066138033578"><ele>524.0</ele><time>2026-04-20T11:23:44Z</time></trkpt><trkpt lat="43.79942142295303" lon="12.188170923584433"><ele>524.0</ele><time>2026-04-20T11:23:45Z</time></trkpt><trkpt lat="43.799397555800596" lon="12.188276143017184"><ele>524.0</ele><time>2026-04-20T11:23:46Z</time></trkpt><trkpt lat="43.79937269892343" lon="12.18839710872812"><ele>524.0</ele><time>2026-04-20T11:23:47Z</time></trkpt><trkpt lat="43.799345664336144" lon="12.188531449987561"><ele>524.0</ele><time>2026-04-20T11:23:48Z</time></trkpt><trkpt lat="43.79931897458849" lon="12.188671047452731"><ele>527.6</ele><time>2026-04-20T11:23:49Z</time></trkpt><trkpt lat="43.79929684052128" lon="12.188797928321456"><ele>531.2</ele><time>2026-04-20T11:23:50Z</time></trkpt><trkpt lat="43.79929291206065" lon="12.188924202988298"><ele>534.8000000000001</ele><time>2026-04-20T11:23:51Z</time></trkpt><trkpt lat="43.79929803153369" lon="12.189060458079805"><ele>538.4</ele><time>2026-04-20T11:23:52Z</time></trkpt><trkpt lat="43.79933118941247" lon="12.18919518958047"><ele>542.0</ele><time>2026-04-20T11:23:53Z</time></trkpt><trkpt lat="43.799415347175774" lon="12.18929374234343"><ele>542.0</ele><time>2026-04-20T11:23:54Z</time></trkpt><trkpt lat="43.79948919724597" lon="12.189375318136051"><ele>542.0</ele><time>2026-04-20T11:23:55Z</time></trkpt><trkpt lat="43.79958680536961" lon="12.189425076742525"><ele>542.0</ele><time>2026-04-20T11:23:56Z</time></trkpt><trkpt lat="43.79971962899025" lon="12.189448784376413"><ele>542.0</ele><time>2026-04-20T11:23:57Z</time></trkpt><trkpt lat="43.799885731399954" lon="12.189461931616082"><ele>542.0</ele><time>2026-04-20T11:23:58Z</time></trkpt><trkpt lat="43.80004444519094" lon="12.18948483934579"><ele>542.0</ele><time>2026-04-20T11:23:59Z</time></trkpt><trkpt lat="43.80019428342013" lon="12.189479572941451"><ele>542.0</ele><time>2026-04-20T11:24:00Z</time></trkpt><trkpt lat="43.80033866188295" lon="12.189515104447054"><ele>541.0</ele><time>2026-04-20T11:24:01Z</time></trkpt><trkpt lat="43.8004717569651" lon="12.189547644934912"><ele>540.0</ele><time>2026-04-20T11:24:02Z</time></trkpt><trkpt lat="43.80059636654154" lon="12.189568644735482"><ele>539.0</ele><time>2026-04-20T11:24:03Z</time></trkpt><trkpt lat="43.80070215975815" lon="12.189621011615426"><ele>538.0</ele><time>2026-04-20T11:24:04Z</time></trkpt><trkpt lat="43.80078489962707" lon="12.18967809581631"><ele>538.0</ele><time>2026-04-20T11:24:05Z</time></trkpt><trkpt lat="43.800854147470126" lon="12.18974601922232"><ele>538.0</ele><time>2026-04-20T11:24:06.001Z</time></trkpt><trkpt lat="43.80085469912892" lon="12.189874921644419"><ele>538.0</ele><time>2026-04-20T11:24:07.001Z</time></trkpt><trkpt lat="43.80085795410855" lon="12.18998254278879"><ele>538.0</ele><time>2026-04-20T11:24:08.001Z</time></trkpt><trkpt lat="43.80083850271341" lon="12.190141388071707"><ele>538.0</ele><time>2026-04-20T11:24:09.001Z</time></trkpt><trkpt lat="43.80080941116465" lon="12.190362489532479"><ele>540.0</ele><time>2026-04-20T11:24:10.001Z</time></trkpt><trkpt lat="43.80081110332513" lon="12.19057568529859"><ele>542.0</ele><time>2026-04-20T11:24:11.001Z</time></trkpt><trkpt lat="43.80077391064245" lon="12.190747026761674"><ele>544.0</ele><time>2026-04-20T11:24:12.001Z</time></trkpt><trkpt lat="43.80073141712285" lon="12.190907041838212"><ele>546.0</ele><time>2026-04-20T11:24:13.001Z</time></trkpt><trkpt lat="43.8006644030527" lon="12.191054911165237"><ele>546.0</ele><time>2026-04-20T11:24:14.001Z</time></trkpt><trkpt lat="43.8005885801567" lon="12.191220575512276"><ele>546.0</ele><time>2026-04-20T11:24:15.001Z</time></trkpt><trkpt lat="43.80052093942876" lon="12.191415490988613"><ele>546.0</ele><time>2026-04-20T11:24:16.001Z</time></trkpt><trkpt lat="43.80044840067533" lon="12.191589531634673"><ele>546.0</ele><time>2026-04-20T11:24:17.001Z</time></trkpt><trkpt lat="43.80039195726266" lon="12.191744286683235"><ele>545.6</ele><time>2026-04-20T11:24:18.001Z</time></trkpt><trkpt lat="43.80033449888662" lon="12.19187768443415"><ele>545.2</ele><time>2026-04-20T11:24:19.001Z</time></trkpt><trkpt lat="43.80031075798525" lon="12.19200998070955"><ele>544.8</ele><time>2026-04-20T11:24:20.001Z</time></trkpt><trkpt lat="43.800326419328044" lon="12.19214683751944"><ele>544.4</ele><time>2026-04-20T11:24:21.001Z</time></trkpt><trkpt lat="43.800406872506954" lon="12.19226408441007"><ele>544.0</ele><time>2026-04-20T11:24:22.001Z</time></trkpt><trkpt lat="43.800498532485946" lon="12.192394424339971"><ele>544.0</ele><time>2026-04-20T11:24:23.001Z</time></trkpt><trkpt lat="43.800603663309516" lon="12.19255559643519"><ele>544.0</ele><time>2026-04-20T11:24:24.001Z</time></trkpt><trkpt lat="43.80068891558261" lon="12.192704602803076"><ele>544.0</ele><time>2026-04-20T11:24:25.001Z</time></trkpt><trkpt lat="43.80075470737571" lon="12.192835035787793"><ele>544.0</ele><time>2026-04-20T11:24:26.001Z</time></trkpt><trkpt lat="43.800830272164866" lon="12.192937915359963"><ele>544.0</ele><time>2026-04-20T11:24:27.001Z</time></trkpt><trkpt lat="43.80093612548709" lon="12.1929774021969"><ele>544.0</ele><time>2026-04-20T11:24:28.001Z</time></trkpt><trkpt lat="43.80104307734238" lon="12.193001167538752"><ele>544.0</ele><time>2026-04-20T11:24:29.001Z</time></trkpt><trkpt lat="43.80116634756722" lon="12.193004076048009"><ele>544.0</ele><time>2026-04-20T11:24:30.001Z</time></trkpt><trkpt lat="43.80131416856397" lon="12.193014442886268"><ele>545.4</ele><time>2026-04-20T11:24:31.001Z</time></trkpt><trkpt lat="43.80144367878961" lon="12.193038098901502"><ele>546.8</ele><time>2026-04-20T11:24:32.001Z</time></trkpt><trkpt lat="43.801559071011944" lon="12.193082904139148"><ele>548.2</ele><time>2026-04-20T11:24:33.001Z</time></trkpt><trkpt lat="43.80164623171587" lon="12.193168885066418"><ele>549.6</ele><time>2026-04-20T11:24:34.001Z</time></trkpt><trkpt lat="43.80172325061229" lon="12.193234274596533"><ele>551.0</ele><time>2026-04-20T11:24:35.001Z</time></trkpt><trkpt lat="43.801763051038" lon="12.193336248892864"><ele>551.0</ele><time>2026-04-20T11:24:36.001Z</time></trkpt><trkpt lat="43.80176498037642" lon="12.193451974452696"><ele>551.0</ele><time>2026-04-20T11:24:37.001Z</time></trkpt><trkpt lat="43.80173452630289" lon="12.193592658952339"><ele>551.0</ele><time>2026-04-20T11:24:38.001Z</time></trkpt><trkpt lat="43.801668196619005" lon="12.193732917152598"><ele>551.0</ele><time>2026-04-20T11:24:39.001Z</time></trkpt><trkpt lat="43.801551482399056" lon="12.193846443522846"><ele>549.0</ele><time>2026-04-20T11:24:40.001Z</time></trkpt><trkpt lat="43.801465149781045" lon="12.194021610204585"><ele>547.0</ele><time>2026-04-20T11:24:41.001Z</time></trkpt><trkpt lat="43.80139869359308" lon="12.194180868594806"><ele>545.0</ele><time>2026-04-20T11:24:42.001Z</time></trkpt><trkpt lat="43.80136529247438" lon="12.194358010989193"><ele>543.0</ele><time>2026-04-20T11:24:43.001Z</time></trkpt><trkpt lat="43.80133293463673" lon="12.19449601699337"><ele>543.0</ele><time>2026-04-20T11:24:44.001Z</time></trkpt><trkpt lat="43.801271145508686" lon="12.19459282690758"><ele>543.0</ele><time>2026-04-20T11:24:45.001Z</time></trkpt><trkpt lat="43.80118145427895" lon="12.194634250442743"><ele>543.0</ele><time>2026-04-20T11:24:46.001Z</time></trkpt><trkpt lat="43.80107849268399" lon="12.194645674510475"><ele>543.0</ele><time>2026-04-20T11:24:47.001Z</time></trkpt><trkpt lat="43.80096731772925" lon="12.194561757465145"><ele>543.0</ele><time>2026-04-20T11:24:48.001Z</time></trkpt><trkpt lat="43.8008190247809" lon="12.194530949131623"><ele>553.3333333333334</ele><time>2026-04-20T11:24:49.001Z</time></trkpt><trkpt lat="43.80067220528282" lon="12.194536047377477"><ele>563.6666666666667</ele><time>2026-04-20T11:24:50.001Z</time></trkpt><trkpt lat="43.80049866343983" lon="12.194615371880056"><ele>574.0</ele><time>2026-04-20T11:24:51.001Z</time></trkpt><trkpt lat="43.800317274891974" lon="12.194693145110678"><ele>576.75</ele><time>2026-04-20T11:24:52.001Z</time></trkpt><trkpt lat="43.800156453128615" lon="12.19476215868479"><ele>579.5</ele><time>2026-04-20T11:24:53.001Z</time></trkpt><trkpt lat="43.80002815918423" lon="12.194781831017414"><ele>582.25</ele><time>2026-04-20T11:24:54.001Z</time></trkpt><trkpt lat="43.799925590433816" lon="12.194782465056136"><ele>585.0</ele><time>2026-04-20T11:24:55.001Z</time></trkpt><trkpt lat="43.79980734338726" lon="12.194762333809537"><ele>585.0</ele><time>2026-04-20T11:24:56.001Z</time></trkpt><trkpt lat="43.79966409305413" lon="12.194690343407686"><ele>585.0</ele><time>2026-04-20T11:24:57.001Z</time></trkpt><trkpt lat="43.79953172478919" lon="12.194618706386848"><ele>585.0</ele><time>2026-04-20T11:24:58.001Z</time></trkpt><trkpt lat="43.7994116742596" lon="12.194583097220843"><ele>585.0</ele><time>2026-04-20T11:24:59.001Z</time></trkpt><trkpt lat="43.7992966971475" lon="12.194575914107205"><ele>585.75</ele><time>2026-04-20T11:25:00.001Z</time></trkpt><trkpt lat="43.79918084863784" lon="12.194593098883614"><ele>586.5</ele><time>2026-04-20T11:25:01.001Z</time></trkpt><trkpt lat="43.79907723468867" lon="12.1947187639163"><ele>587.25</ele><time>2026-04-20T11:25:02.001Z</time></trkpt><trkpt lat="43.79897877595562" lon="12.194832862768338"><ele>588.0</ele><time>2026-04-20T11:25:03.001Z</time></trkpt><trkpt lat="43.798935799288685" lon="12.19500189645842"><ele>582.5</ele><time>2026-04-20T11:25:04.001Z</time></trkpt><trkpt lat="43.7989214887545" lon="12.195185074354226"><ele>577.0</ele><time>2026-04-20T11:25:05.002Z</time></trkpt><trkpt lat="43.79893406007603" lon="12.195385067247372"><ele>571.5</ele><time>2026-04-20T11:25:06.002Z</time></trkpt><trkpt lat="43.798981912809225" lon="12.195594756821452"><ele>566.0</ele><time>2026-04-20T11:25:07.002Z</time></trkpt><trkpt lat="43.79905098152123" lon="12.195808769273661"><ele>564.8</ele><time>2026-04-20T11:25:08.002Z</time></trkpt><trkpt lat="43.79909756567971" lon="12.195982942491812"><ele>563.6</ele><time>2026-04-20T11:25:09.002Z</time></trkpt><trkpt lat="43.79910440616493" lon="12.196144229768102"><ele>562.4</ele><time>2026-04-20T11:25:10.002Z</time></trkpt><trkpt lat="43.79909305789228" lon="12.196283623928498"><ele>561.2</ele><time>2026-04-20T11:25:11.002Z</time></trkpt><trkpt lat="43.79905766115551" lon="12.196407520132253"><ele>560.0</ele><time>2026-04-20T11:25:12.002Z</time></trkpt><trkpt lat="43.79897086268239" lon="12.196479454155334"><ele>558.25</ele><time>2026-04-20T11:25:13.002Z</time></trkpt><trkpt lat="43.798858225167336" lon="12.196599068017392"><ele>556.5</ele><time>2026-04-20T11:25:14.002Z</time></trkpt><trkpt lat="43.79873640402908" lon="12.196734215386941"><ele>554.75</ele><time>2026-04-20T11:25:15.002Z</time></trkpt><trkpt lat="43.79861510348863" lon="12.196860036167706"><ele>553.0</ele><time>2026-04-20T11:25:16.002Z</time></trkpt><trkpt lat="43.79851019658472" lon="12.196958564850695"><ele>560.0</ele><time>2026-04-20T11:25:17.002Z</time></trkpt><trkpt lat="43.798417622782665" lon="12.19702033856097"><ele>567.0</ele><time>2026-04-20T11:25:18.002Z</time></trkpt><trkpt lat="43.79832237894156" lon="12.197049081024026"><ele>574.0</ele><time>2026-04-20T11:25:19.002Z</time></trkpt><trkpt lat="43.79820294390625" lon="12.197056493664963"><ele>581.0</ele><time>2026-04-20T11:25:20.002Z</time></trkpt><trkpt lat="43.79804963295968" lon="12.197015030147217"><ele>581.0</ele><time>2026-04-20T11:25:21.002Z</time></trkpt><trkpt lat="43.79788040827261" lon="12.196967071623403"><ele>581.0</ele><time>2026-04-20T11:25:22.002Z</time></trkpt><trkpt lat="43.797701110245036" lon="12.196882528456472"><ele>581.0</ele><time>2026-04-20T11:25:23.002Z</time></trkpt><trkpt lat="43.79752655131285" lon="12.19675523720976"><ele>582.6666666666666</ele><time>2026-04-20T11:25:24.002Z</time></trkpt><trkpt lat="43.79735129658317" lon="12.196646594186966"><ele>584.3333333333334</ele><time>2026-04-20T11:25:25.002Z</time></trkpt><trkpt lat="43.7972087657142" lon="12.196552411067653"><ele>586.0</ele><time>2026-04-20T11:25:26.002Z</time></trkpt><trkpt lat="43.797077206854055" lon="12.196446502331046"><ele>590.6666666666667</ele><time>2026-04-20T11:25:27.002Z</time></trkpt><trkpt lat="43.796951305748934" lon="12.19630947798796"><ele>595.3333333333334</ele><time>2026-04-20T11:25:28.002Z</time></trkpt><trkpt lat="43.796808419474154" lon="12.196165671202793"><ele>600.0</ele><time>2026-04-20T11:25:29.002Z</time></trkpt><trkpt lat="43.796685463754216" lon="12.196013530294724"><ele>600.0</ele><time>2026-04-20T11:25:30.002Z</time></trkpt><trkpt lat="43.79655705290307" lon="12.19590005542926"><ele>600.0</ele><time>2026-04-20T11:25:31.002Z</time></trkpt><trkpt lat="43.796435913151875" lon="12.195834649743764"><ele>600.0</ele><time>2026-04-20T11:25:32.002Z</time></trkpt><trkpt lat="43.79632019196579" lon="12.195798468904703"><ele>600.0</ele><time>2026-04-20T11:25:33.002Z</time></trkpt><trkpt lat="43.79620814920504" lon="12.195793993327765"><ele>600.0</ele><time>2026-04-20T11:25:34.002Z</time></trkpt><trkpt lat="43.79609562311962" lon="12.195831402275642"><ele>600.0</ele><time>2026-04-20T11:25:35.002Z</time></trkpt><trkpt lat="43.79599394582774" lon="12.19589361765053"><ele>600.0</ele><time>2026-04-20T11:25:36.002Z</time></trkpt><trkpt lat="43.795914481371454" lon="12.195966697573244"><ele>600.0</ele><time>2026-04-20T11:25:37.002Z</time></trkpt><trkpt lat="43.795835790395486" lon="12.196052552616392"><ele>600.0</ele><time>2026-04-20T11:25:38.002Z</time></trkpt><trkpt lat="43.795745156208866" lon="12.196105453348254"><ele>598.6666666666666</ele><time>2026-04-20T11:25:39.002Z</time></trkpt><trkpt lat="43.79566313472853" lon="12.196156432464791"><ele>597.3333333333334</ele><time>2026-04-20T11:25:40.002Z</time></trkpt><trkpt lat="43.795600729504784" lon="12.196185070102429"><ele>596.0</ele><time>2026-04-20T11:25:41.002Z</time></trkpt><trkpt lat="43.79547692441466" lon="12.196218396678352"><ele>594.6666666666667</ele><time>2026-04-20T11:25:43.002Z</time></trkpt><trkpt lat="43.795407218827606" lon="12.196221246490028"><ele>593.3333333333334</ele><time>2026-04-20T11:25:44.002Z</time></trkpt><trkpt lat="43.79533800922726" lon="12.196202831311686"><ele>592.0</ele><time>2026-04-20T11:25:45.002Z</time></trkpt><trkpt lat="43.79527019725277" lon="12.196162510709067"><ele>592.0</ele><time>2026-04-20T11:25:46.002Z</time></trkpt><trkpt lat="43.79519846734" lon="12.196110615992218"><ele>592.0</ele><time>2026-04-20T11:25:47.002Z</time></trkpt><trkpt lat="43.79511332772864" lon="12.196072504385146"><ele>592.0</ele><time>2026-04-20T11:25:48.002Z</time></trkpt><trkpt lat="43.79502864015903" lon="12.196004193417922"><ele>592.0</ele><time>2026-04-20T11:25:49.002Z</time></trkpt><trkpt lat="43.794942990270094" lon="12.195940861010824"><ele>592.0</ele><time>2026-04-20T11:25:50.002Z</time></trkpt><trkpt lat="43.794861459517115" lon="12.195875568602842"><ele>592.0</ele><time>2026-04-20T11:25:51.002Z</time></trkpt><trkpt lat="43.794776658283915" lon="12.195802627884296"><ele>592.0</ele><time>2026-04-20T11:25:52.002Z</time></trkpt><trkpt lat="43.79468298152496" lon="12.195723985149284"><ele>592.0</ele><time>2026-04-20T11:25:53.002Z</time></trkpt><trkpt lat="43.79458233654272" lon="12.19564577058093"><ele>592.0</ele><time>2026-04-20T11:25:54.002Z</time></trkpt><trkpt lat="43.79448689621336" lon="12.195549313187083"><ele>592.0</ele><time>2026-04-20T11:25:55.002Z</time></trkpt><trkpt lat="43.79437360674325" lon="12.195489007116885"><ele>592.25</ele><time>2026-04-20T11:25:56.002Z</time></trkpt><trkpt lat="43.79426990019915" lon="12.195405178635212"><ele>592.5</ele><time>2026-04-20T11:25:57.002Z</time></trkpt><trkpt lat="43.7941655417525" lon="12.19532065828842"><ele>592.75</ele><time>2026-04-20T11:25:58.002Z</time></trkpt><trkpt lat="43.79406770763125" lon="12.19523193648314"><ele>593.0</ele><time>2026-04-20T11:25:59.002Z</time></trkpt><trkpt lat="43.793964552005036" lon="12.195148774067398"><ele>593.0</ele><time>2026-04-20T11:26:00.002Z</time></trkpt><trkpt lat="43.79386397718093" lon="12.195066524665917"><ele>593.0</ele><time>2026-04-20T11:26:01.002Z</time></trkpt><trkpt lat="43.79376827876584" lon="12.194967109781036"><ele>593.0</ele><time>2026-04-20T11:26:02.002Z</time></trkpt><trkpt lat="43.79366877763267" lon="12.194884179757135"><ele>593.0</ele><time>2026-04-20T11:26:03.002Z</time></trkpt><trkpt lat="43.793570750944895" lon="12.19480247858558"><ele>594.1999999999999</ele><time>2026-04-20T11:26:04.002Z</time></trkpt><trkpt lat="43.79347343654697" lon="12.194726441056275"><ele>595.4</ele><time>2026-04-20T11:26:05.002Z</time></trkpt><trkpt lat="43.79337330047657" lon="12.194673431545443"><ele>596.5999999999999</ele><time>2026-04-20T11:26:06.002Z</time></trkpt><trkpt lat="43.79329503511944" lon="12.194579474509084"><ele>597.8</ele><time>2026-04-20T11:26:07.002Z</time></trkpt><trkpt lat="43.793211242590246" lon="12.194510046993866"><ele>599.0</ele><time>2026-04-20T11:26:08.002Z</time></trkpt><trkpt lat="43.79312077263214" lon="12.194453761547328"><ele>599.0</ele><time>2026-04-20T11:26:09.001Z</time></trkpt><trkpt lat="43.79302152739192" lon="12.194432937500789"><ele>599.0</ele><time>2026-04-20T11:26:10.001Z</time></trkpt><trkpt lat="43.79292448312412" lon="12.19450040800751"><ele>599.0</ele><time>2026-04-20T11:26:11.001Z</time></trkpt><trkpt lat="43.79283248909896" lon="12.194581983277073"><ele>599.0</ele><time>2026-04-20T11:26:12.001Z</time></trkpt><trkpt lat="43.792745391287774" lon="12.194686560764161"><ele>599.0</ele><time>2026-04-20T11:26:13.001Z</time></trkpt><trkpt lat="43.792649843639886" lon="12.194800169075819"><ele>594.5</ele><time>2026-04-20T11:26:14.001Z</time></trkpt><trkpt lat="43.7925443767702" lon="12.194920259635941"><ele>590.0</ele><time>2026-04-20T11:26:15.001Z</time></trkpt><trkpt lat="43.79243156555608" lon="12.195046936852878"><ele>585.5</ele><time>2026-04-20T11:26:16.001Z</time></trkpt><trkpt lat="43.79231144064123" lon="12.19516732568619"><ele>581.0</ele><time>2026-04-20T11:26:17.001Z</time></trkpt><trkpt lat="43.79219594664524" lon="12.195274091997884"><ele>581.0</ele><time>2026-04-20T11:26:18.001Z</time></trkpt><trkpt lat="43.79208332563038" lon="12.195380468343018"><ele>581.0</ele><time>2026-04-20T11:26:19.002Z</time></trkpt><trkpt lat="43.79197204310415" lon="12.195481361524493"><ele>581.0</ele><time>2026-04-20T11:26:20.002Z</time></trkpt><trkpt lat="43.79186302231564" lon="12.195581549848134"><ele>581.0</ele><time>2026-04-20T11:26:21.002Z</time></trkpt><trkpt lat="43.79175904268371" lon="12.195679863047035"><ele>579.25</ele><time>2026-04-20T11:26:22.002Z</time></trkpt><trkpt lat="43.79165085394112" lon="12.195761478477836"><ele>577.5</ele><time>2026-04-20T11:26:23.002Z</time></trkpt><trkpt lat="43.79155655067246" lon="12.195868426977352"><ele>575.75</ele><time>2026-04-20T11:26:24.002Z</time></trkpt><trkpt lat="43.791482972337626" lon="12.196000450147613"><ele>574.0</ele><time>2026-04-20T11:26:25.002Z</time></trkpt><trkpt lat="43.79140012221944" lon="12.196112673930854"><ele>574.0</ele><time>2026-04-20T11:26:26.002Z</time></trkpt><trkpt lat="43.79131855808827" lon="12.196217735376806"><ele>574.0</ele><time>2026-04-20T11:26:27.002Z</time></trkpt><trkpt lat="43.791240047798745" lon="12.196319693790276"><ele>574.0</ele><time>2026-04-20T11:26:28.002Z</time></trkpt><trkpt lat="43.79116073539594" lon="12.196414685152932"><ele>574.0</ele><time>2026-04-20T11:26:29.002Z</time></trkpt><trkpt lat="43.79107562388329" lon="12.196506833010185"><ele>574.0</ele><time>2026-04-20T11:26:30.002Z</time></trkpt><trkpt lat="43.790966605077614" lon="12.196572570890018"><ele>572.0</ele><time>2026-04-20T11:26:31.002Z</time></trkpt><trkpt lat="43.79084083170919" lon="12.196610775734902"><ele>570.0</ele><time>2026-04-20T11:26:32.002Z</time></trkpt><trkpt lat="43.790702733051155" lon="12.196616353699687"><ele>568.0</ele><time>2026-04-20T11:26:33.002Z</time></trkpt><trkpt lat="43.7905582457941" lon="12.196580723798697"><ele>566.0</ele><time>2026-04-20T11:26:34.002Z</time></trkpt><trkpt lat="43.79040748575898" lon="12.196565354326648"><ele>566.0</ele><time>2026-04-20T11:26:35.002Z</time></trkpt><trkpt lat="43.79027047827349" lon="12.196579803582921"><ele>566.0</ele><time>2026-04-20T11:26:36.002Z</time></trkpt><trkpt lat="43.79013958036451" lon="12.196562173289504"><ele>566.0</ele><time>2026-04-20T11:26:37.002Z</time></trkpt><trkpt lat="43.79001430712925" lon="12.196546176457922"><ele>566.0</ele><time>2026-04-20T11:26:38.002Z</time></trkpt><trkpt lat="43.78990805359006" lon="12.19647814214792"><ele>566.6</ele><time>2026-04-20T11:26:39.002Z</time></trkpt><trkpt lat="43.789812768768655" lon="12.196398464591887"><ele>567.2</ele><time>2026-04-20T11:26:40.002Z</time></trkpt><trkpt lat="43.78973751620244" lon="12.196297803736263"><ele>567.8</ele><time>2026-04-20T11:26:41.002Z</time></trkpt><trkpt lat="43.789670664604685" lon="12.196194365436083"><ele>568.4</ele><time>2026-04-20T11:26:42.002Z</time></trkpt><trkpt lat="43.789608732402044" lon="12.196094913382625"><ele>569.0</ele><time>2026-04-20T11:26:43.002Z</time></trkpt><trkpt lat="43.78954677147262" lon="12.196002492419602"><ele>569.0</ele><time>2026-04-20T11:26:44.002Z</time></trkpt><trkpt lat="43.78948353747504" lon="12.195914372257953"><ele>569.0</ele><time>2026-04-20T11:26:45.002Z</time></trkpt><trkpt lat="43.78940792595174" lon="12.195842440368684"><ele>569.0</ele><time>2026-04-20T11:26:46.002Z</time></trkpt><trkpt lat="43.78933166722683" lon="12.19579257258891"><ele>569.0</ele><time>2026-04-20T11:26:47.002Z</time></trkpt><trkpt lat="43.78925460872139" lon="12.195753285290879"><ele>569.0</ele><time>2026-04-20T11:26:48.002Z</time></trkpt><trkpt lat="43.789180788779994" lon="12.195713056801514"><ele>569.0</ele><time>2026-04-20T11:26:49.002Z</time></trkpt><trkpt lat="43.78910852920514" lon="12.19567357811573"><ele>570.3333333333333</ele><time>2026-04-20T11:26:50.002Z</time></trkpt><trkpt lat="43.78903613903394" lon="12.195635505871808"><ele>571.6666666666666</ele><time>2026-04-20T11:26:51.002Z</time></trkpt><trkpt lat="43.78896393655719" lon="12.195598207742114"><ele>573.0</ele><time>2026-04-20T11:26:52.002Z</time></trkpt><trkpt lat="43.788881048701235" lon="12.195580208333817"><ele>574.3333333333334</ele><time>2026-04-20T11:26:53.002Z</time></trkpt><trkpt lat="43.78879719048822" lon="12.195540973937426"><ele>575.6666666666667</ele><time>2026-04-20T11:26:54.002Z</time></trkpt><trkpt lat="43.788707244006225" lon="12.19549638673434"><ele>577.0</ele><time>2026-04-20T11:26:55.002Z</time></trkpt><trkpt lat="43.78861584172193" lon="12.195507150371819"><ele>577.0</ele><time>2026-04-20T11:26:56.002Z</time></trkpt><trkpt lat="43.788552048411326" lon="12.195605249552793"><ele>577.0</ele><time>2026-04-20T11:26:57.002Z</time></trkpt><trkpt lat="43.788505583491435" lon="12.195699807280395"><ele>577.0</ele><time>2026-04-20T11:26:58.002Z</time></trkpt><trkpt lat="43.788515880234506" lon="12.195827854450616"><ele>577.0</ele><time>2026-04-20T11:26:59.002Z</time></trkpt><trkpt lat="43.788552551691765" lon="12.195958312199664"><ele>577.0</ele><time>2026-04-20T11:27:00.002Z</time></trkpt><trkpt lat="43.788646442534464" lon="12.196068371937129"><ele>572.0</ele><time>2026-04-20T11:27:01.002Z</time></trkpt><trkpt lat="43.78873513619523" lon="12.196219534187847"><ele>567.0</ele><time>2026-04-20T11:27:02.002Z</time></trkpt><trkpt lat="43.788819567829854" lon="12.196400652721753"><ele>562.0</ele><time>2026-04-20T11:27:03.002Z</time></trkpt><trkpt lat="43.788883802320676" lon="12.196585303222486"><ele>557.0</ele><time>2026-04-20T11:27:04.002Z</time></trkpt><trkpt lat="43.78893676497397" lon="12.196777858070151"><ele>554.0</ele><time>2026-04-20T11:27:05.002Z</time></trkpt><trkpt lat="43.7889846087685" lon="12.196966607811124"><ele>551.0</ele><time>2026-04-20T11:27:06.002Z</time></trkpt><trkpt lat="43.789032028847565" lon="12.197153456637007"><ele>548.0</ele><time>2026-04-20T11:27:07.002Z</time></trkpt><trkpt lat="43.789121358399505" lon="12.197516851001968"><ele>544.75</ele><time>2026-04-20T11:27:09.002Z</time></trkpt><trkpt lat="43.78915727157681" lon="12.197685926057831"><ele>541.5</ele><time>2026-04-20T11:27:10.002Z</time></trkpt><trkpt lat="43.789178244747234" lon="12.197850916655145"><ele>538.25</ele><time>2026-04-20T11:27:11.002Z</time></trkpt><trkpt lat="43.789168886555444" lon="12.19801607892217"><ele>535.0</ele><time>2026-04-20T11:27:12.002Z</time></trkpt><trkpt lat="43.78913433232743" lon="12.198177814860054"><ele>532.25</ele><time>2026-04-20T11:27:13.002Z</time></trkpt><trkpt lat="43.78907069472757" lon="12.198336607790521"><ele>529.5</ele><time>2026-04-20T11:27:14.002Z</time></trkpt><trkpt lat="43.78901296757345" lon="12.198520284835956"><ele>526.75</ele><time>2026-04-20T11:27:15.002Z</time></trkpt><trkpt lat="43.78895496826508" lon="12.19870361281921"><ele>524.0</ele><time>2026-04-20T11:27:16.002Z</time></trkpt><trkpt lat="43.78890298017989" lon="12.19887298301084"><ele>523.8</ele><time>2026-04-20T11:27:17.002Z</time></trkpt><trkpt lat="43.78886470266078" lon="12.199010269663066"><ele>523.5999999999999</ele><time>2026-04-20T11:27:18.002Z</time></trkpt><trkpt lat="43.78879741469421" lon="12.199101509152085"><ele>523.4</ele><time>2026-04-20T11:27:19.002Z</time></trkpt><trkpt lat="43.788708627941695" lon="12.19914539371106"><ele>523.1999999999999</ele><time>2026-04-20T11:27:20.002Z</time></trkpt><trkpt lat="43.788612120384016" lon="12.199134790693732"><ele>523.0</ele><time>2026-04-20T11:27:21.002Z</time></trkpt><trkpt lat="43.788527656259284" lon="12.199066810529958"><ele>521.75</ele><time>2026-04-20T11:27:22.002Z</time></trkpt><trkpt lat="43.78846541843431" lon="12.198930685886726"><ele>520.5</ele><time>2026-04-20T11:27:23.002Z</time></trkpt><trkpt lat="43.78838120637361" lon="12.19879538366748"><ele>519.25</ele><time>2026-04-20T11:27:24.002Z</time></trkpt><trkpt lat="43.78829349684254" lon="12.19865112814198"><ele>518.0</ele><time>2026-04-20T11:27:25.002Z</time></trkpt><trkpt lat="43.78819821549095" lon="12.198526923614741"><ele>518.0</ele><time>2026-04-20T11:27:26.002Z</time></trkpt><trkpt lat="43.78812878385681" lon="12.198368872557996"><ele>518.0</ele><time>2026-04-20T11:27:27.002Z</time></trkpt><trkpt lat="43.78804915579503" lon="12.198229959773387"><ele>518.0</ele><time>2026-04-20T11:27:28.002Z</time></trkpt><trkpt lat="43.78797497931121" lon="12.198094465784717"><ele>518.0</ele><time>2026-04-20T11:27:29.002Z</time></trkpt><trkpt lat="43.78788696376138" lon="12.19798742756976"><ele>518.75</ele><time>2026-04-20T11:27:30.002Z</time></trkpt><trkpt lat="43.78778345659194" lon="12.197925195408153"><ele>519.5</ele><time>2026-04-20T11:27:31.002Z</time></trkpt><trkpt lat="43.78766749259947" lon="12.19791789055666"><ele>520.25</ele><time>2026-04-20T11:27:32.002Z</time></trkpt><trkpt lat="43.78756204862062" lon="12.197965525107078"><ele>521.0</ele><time>2026-04-20T11:27:33.002Z</time></trkpt><trkpt lat="43.78749390620637" lon="12.19809465999253"><ele>518.4</ele><time>2026-04-20T11:27:34.002Z</time></trkpt><trkpt lat="43.78741710711592" lon="12.19818469679293"><ele>515.8</ele><time>2026-04-20T11:27:35.002Z</time></trkpt><trkpt lat="43.7873519554481" lon="12.1982889157756"><ele>513.1999999999999</ele><time>2026-04-20T11:27:36.002Z</time></trkpt><trkpt lat="43.78728642931443" lon="12.198401069735507"><ele>510.59999999999997</ele><time>2026-04-20T11:27:37.002Z</time></trkpt><trkpt lat="43.787227103634955" lon="12.198527754751495"><ele>508.0</ele><time>2026-04-20T11:27:38.002Z</time></trkpt><trkpt lat="43.78715299135475" lon="12.198641089987007"><ele>508.0</ele><time>2026-04-20T11:27:39.001Z</time></trkpt><trkpt lat="43.78708227537917" lon="12.198752602447637"><ele>507.99999999999994</ele><time>2026-04-20T11:27:40.002Z</time></trkpt><trkpt lat="43.78701616876722" lon="12.198867833868885"><ele>507.99999999999994</ele><time>2026-04-20T11:27:41.002Z</time></trkpt><trkpt lat="43.78695974306872" lon="12.19898980076929"><ele>508.0</ele><time>2026-04-20T11:27:42.002Z</time></trkpt><trkpt lat="43.78691624855395" lon="12.19912144778075"><ele>508.0</ele><time>2026-04-20T11:27:43.002Z</time></trkpt><trkpt lat="43.786882832347196" lon="12.199258003321715"><ele>507.59999999999997</ele><time>2026-04-20T11:27:44.002Z</time></trkpt><trkpt lat="43.78686885381511" lon="12.199388934342663"><ele>507.19999999999993</ele><time>2026-04-20T11:27:45.002Z</time></trkpt><trkpt lat="43.78687321263295" lon="12.19951980631737"><ele>506.8</ele><time>2026-04-20T11:27:46.002Z</time></trkpt><trkpt lat="43.78689795622729" lon="12.199647925274128"><ele>506.4</ele><time>2026-04-20T11:27:47.002Z</time></trkpt><trkpt lat="43.786933933105296" lon="12.199774797972232"><ele>506.0</ele><time>2026-04-20T11:27:48.002Z</time></trkpt><trkpt lat="43.786973713322176" lon="12.199908373548496"><ele>504.0</ele><time>2026-04-20T11:27:49.002Z</time></trkpt><trkpt lat="43.78701538419093" lon="12.200056940871098"><ele>502.0</ele><time>2026-04-20T11:27:50.002Z</time></trkpt><trkpt lat="43.7870565972155" lon="12.200216462049822"><ele>500.0</ele><time>2026-04-20T11:27:51.002Z</time></trkpt><trkpt lat="43.787099896969615" lon="12.200363015580825"><ele>498.0</ele><time>2026-04-20T11:27:52.002Z</time></trkpt><trkpt lat="43.787165313087336" lon="12.200485806684386"><ele>498.0</ele><time>2026-04-20T11:27:53.002Z</time></trkpt><trkpt lat="43.78725516713637" lon="12.200578721568396"><ele>498.0</ele><time>2026-04-20T11:27:54.002Z</time></trkpt><trkpt lat="43.787384104019196" lon="12.20064887214617"><ele>498.0</ele><time>2026-04-20T11:27:55.002Z</time></trkpt><trkpt lat="43.787532867406206" lon="12.200710364477333"><ele>498.0</ele><time>2026-04-20T11:27:56.002Z</time></trkpt><trkpt lat="43.787674213154546" lon="12.200767738561959"><ele>496.0</ele><time>2026-04-20T11:27:57.002Z</time></trkpt><trkpt lat="43.78781280793558" lon="12.200839928655354"><ele>494.0</ele><time>2026-04-20T11:27:58.002Z</time></trkpt><trkpt lat="43.78794431054335" lon="12.200926492946593"><ele>492.0</ele><time>2026-04-20T11:27:59.002Z</time></trkpt><trkpt lat="43.78802499146963" lon="12.20099158104319"><ele>490.0</ele><time>2026-04-20T11:28:00.002Z</time></trkpt><trkpt lat="43.78811136572477" lon="12.201068884167844"><ele>490.0</ele><time>2026-04-20T11:28:01.002Z</time></trkpt><trkpt lat="43.78816884479491" lon="12.201162906634668"><ele>490.0</ele><time>2026-04-20T11:28:02.002Z</time></trkpt><trkpt lat="43.78821214331668" lon="12.201372209722335"><ele>490.0</ele><time>2026-04-20T11:28:04.001Z</time></trkpt><trkpt lat="43.78815941803062" lon="12.201471403080093"><ele>490.0</ele><time>2026-04-20T11:28:05.001Z</time></trkpt><trkpt lat="43.788054752795084" lon="12.201507807467497"><ele>490.0</ele><time>2026-04-20T11:28:06.001Z</time></trkpt><trkpt lat="43.78794875340665" lon="12.201512199347457"><ele>490.0</ele><time>2026-04-20T11:28:07.001Z</time></trkpt><trkpt lat="43.787840495874526" lon="12.201483983872368"><ele>490.0</ele><time>2026-04-20T11:28:08.001Z</time></trkpt><trkpt lat="43.78771091317857" lon="12.201457547045727"><ele>490.0</ele><time>2026-04-20T11:28:09.001Z</time></trkpt><trkpt lat="43.78756818115702" lon="12.20142744772499"><ele>490.0</ele><time>2026-04-20T11:28:10.001Z</time></trkpt><trkpt lat="43.787418202254244" lon="12.201402347895495"><ele>487.5</ele><time>2026-04-20T11:28:11.001Z</time></trkpt><trkpt lat="43.78727893154645" lon="12.201379567386965"><ele>485.0</ele><time>2026-04-20T11:28:12.001Z</time></trkpt><trkpt lat="43.78713240009679" lon="12.201369413231951"><ele>482.5</ele><time>2026-04-20T11:28:13.001Z</time></trkpt><trkpt lat="43.7869839798841" lon="12.201339079501254"><ele>480.0</ele><time>2026-04-20T11:28:14.001Z</time></trkpt><trkpt lat="43.786844817830826" lon="12.201317985566854"><ele>478.25</ele><time>2026-04-20T11:28:15.001Z</time></trkpt><trkpt lat="43.78671114728951" lon="12.20130488878859"><ele>476.5</ele><time>2026-04-20T11:28:16.001Z</time></trkpt><trkpt lat="43.78658463131676" lon="12.20128324867196"><ele>474.75</ele><time>2026-04-20T11:28:17.001Z</time></trkpt><trkpt lat="43.786463641293295" lon="12.20125960698597"><ele>473.0</ele><time>2026-04-20T11:28:18.001Z</time></trkpt><trkpt lat="43.78633988095524" lon="12.201252287448849"><ele>473.0</ele><time>2026-04-20T11:28:19.001Z</time></trkpt><trkpt lat="43.78622158831697" lon="12.201292190291046"><ele>473.0</ele><time>2026-04-20T11:28:20.001Z</time></trkpt><trkpt lat="43.78610409094932" lon="12.201380001925145"><ele>473.0</ele><time>2026-04-20T11:28:21.001Z</time></trkpt><trkpt lat="43.78597875197177" lon="12.201481259866489"><ele>473.0</ele><time>2026-04-20T11:28:22.001Z</time></trkpt><trkpt lat="43.78585050654685" lon="12.201583037024896"><ele>468.0</ele><time>2026-04-20T11:28:23.001Z</time></trkpt><trkpt lat="43.78572908602981" lon="12.201662600049428"><ele>463.0</ele><time>2026-04-20T11:28:24.001Z</time></trkpt><trkpt lat="43.78561816158836" lon="12.201695248705443"><ele>458.0</ele><time>2026-04-20T11:28:25.001Z</time></trkpt><trkpt lat="43.78546773210937" lon="12.201695531704694"><ele>453.0</ele><time>2026-04-20T11:28:27.001Z</time></trkpt><trkpt lat="43.7854017601564" lon="12.201621458735666"><ele>453.0</ele><time>2026-04-20T11:28:28.001Z</time></trkpt><trkpt lat="43.785347533362824" lon="12.201538265422208"><ele>452.99999999999994</ele><time>2026-04-20T11:28:29.001Z</time></trkpt><trkpt lat="43.785319775935655" lon="12.201421408097291"><ele>452.99999999999994</ele><time>2026-04-20T11:28:30.001Z</time></trkpt><trkpt lat="43.78528400604632" lon="12.2012958641945"><ele>453.0</ele><time>2026-04-20T11:28:31.001Z</time></trkpt><trkpt lat="43.785229041996764" lon="12.201159660950225"><ele>453.0</ele><time>2026-04-20T11:28:32.001Z</time></trkpt><trkpt lat="43.785193824069914" lon="12.201009936707758"><ele>451.79999999999995</ele><time>2026-04-20T11:28:33.001Z</time></trkpt><trkpt lat="43.78515471823378" lon="12.200862188218668"><ele>450.59999999999997</ele><time>2026-04-20T11:28:34.001Z</time></trkpt><trkpt lat="43.78512155781085" lon="12.200724632991605"><ele>449.40000000000003</ele><time>2026-04-20T11:28:35.001Z</time></trkpt><trkpt lat="43.78508867121103" lon="12.200605761540569"><ele>448.20000000000005</ele><time>2026-04-20T11:28:36.001Z</time></trkpt><trkpt lat="43.78503103888421" lon="12.200522064049437"><ele>447.0</ele><time>2026-04-20T11:28:37.001Z</time></trkpt><trkpt lat="43.78495133345117" lon="12.200480645225952"><ele>447.0</ele><time>2026-04-20T11:28:38.001Z</time></trkpt><trkpt lat="43.784872379737855" lon="12.200457892533139"><ele>447.00000000000006</ele><time>2026-04-20T11:28:39.001Z</time></trkpt><trkpt lat="43.7847872068935" lon="12.200497208803602"><ele>447.00000000000006</ele><time>2026-04-20T11:28:40.001Z</time></trkpt><trkpt lat="43.78471716679521" lon="12.200596733884145"><ele>447.0</ele><time>2026-04-20T11:28:41.001Z</time></trkpt><trkpt lat="43.784662876012625" lon="12.20073401528868"><ele>447.0</ele><time>2026-04-20T11:28:42.001Z</time></trkpt><trkpt lat="43.78459472891132" lon="12.200856493875136"><ele>447.0</ele><time>2026-04-20T11:28:43.001Z</time></trkpt><trkpt lat="43.78440199817294" lon="12.201094985779676"><ele>447.0</ele><time>2026-04-20T11:28:45.001Z</time></trkpt><trkpt lat="43.784279330910614" lon="12.201177466604543"><ele>447.0</ele><time>2026-04-20T11:28:46.001Z</time></trkpt><trkpt lat="43.78414256940276" lon="12.201260757168388"><ele>444.25</ele><time>2026-04-20T11:28:47.001Z</time></trkpt><trkpt lat="43.78400799685718" lon="12.201340791281549"><ele>441.5</ele><time>2026-04-20T11:28:48.001Z</time></trkpt><trkpt lat="43.78388519041756" lon="12.201414802857226"><ele>438.75</ele><time>2026-04-20T11:28:49.001Z</time></trkpt><trkpt lat="43.7837787962341" lon="12.201506942735344"><ele>436.0</ele><time>2026-04-20T11:28:50.001Z</time></trkpt><trkpt lat="43.78368443466213" lon="12.201571657759168"><ele>436.0</ele><time>2026-04-20T11:28:51.001Z</time></trkpt><trkpt lat="43.78360310570021" lon="12.201639444477625"><ele>436.0</ele><time>2026-04-20T11:28:52.001Z</time></trkpt><trkpt lat="43.78356041003063" lon="12.201754739226603"><ele>436.0</ele><time>2026-04-20T11:28:53.001Z</time></trkpt><trkpt lat="43.78357619122664" lon="12.201893679092839"><ele>436.0</ele><time>2026-04-20T11:28:54.001Z</time></trkpt><trkpt lat="43.783616068887795" lon="12.202032763703768"><ele>436.0</ele><time>2026-04-20T11:28:55.001Z</time></trkpt><trkpt lat="43.7836230599626" lon="12.202186547488303"><ele>436.0</ele><time>2026-04-20T11:28:56.001Z</time></trkpt><trkpt lat="43.78360695068045" lon="12.20230860759309"><ele>436.0</ele><time>2026-04-20T11:28:57.001Z</time></trkpt><trkpt lat="43.78355640707922" lon="12.202394994670508"><ele>436.0</ele><time>2026-04-20T11:28:58.001Z</time></trkpt><trkpt lat="43.783452498343074" lon="12.202413760303225"><ele>436.0</ele><time>2026-04-20T11:28:59.001Z</time></trkpt><trkpt lat="43.78335387118046" lon="12.202357821603956"><ele>436.0</ele><time>2026-04-20T11:29:00.001Z</time></trkpt><trkpt lat="43.78329014615771" lon="12.20223970015066"><ele>432.25</ele><time>2026-04-20T11:29:01.001Z</time></trkpt><trkpt lat="43.78323980523267" lon="12.20209696768641"><ele>428.5</ele><time>2026-04-20T11:29:02.001Z</time></trkpt><trkpt lat="43.78316224887357" lon="12.201982784225146"><ele>424.75</ele><time>2026-04-20T11:29:03.001Z</time></trkpt><trkpt lat="43.783051890974306" lon="12.201920590326095"><ele>421.0</ele><time>2026-04-20T11:29:04.001Z</time></trkpt><trkpt lat="43.7829295412329" lon="12.201928195835503"><ele>421.0</ele><time>2026-04-20T11:29:05.001Z</time></trkpt><trkpt lat="43.782825246847764" lon="12.201993303615279"><ele>421.0</ele><time>2026-04-20T11:29:06.001Z</time></trkpt><trkpt lat="43.78272717390168" lon="12.202066916355152"><ele>421.0</ele><time>2026-04-20T11:29:07.001Z</time></trkpt><trkpt lat="43.78262309364082" lon="12.202156052271416"><ele>421.0</ele><time>2026-04-20T11:29:08.001Z</time></trkpt><trkpt lat="43.782511980837185" lon="12.202234778690281"><ele>420.75</ele><time>2026-04-20T11:29:09.001Z</time></trkpt><trkpt lat="43.78240656637518" lon="12.202312823046325"><ele>420.5</ele><time>2026-04-20T11:29:10.001Z</time></trkpt><trkpt lat="43.78230060965595" lon="12.20238960436716"><ele>420.25</ele><time>2026-04-20T11:29:11.001Z</time></trkpt><trkpt lat="43.78218751430133" lon="12.202467032267911"><ele>420.0</ele><time>2026-04-20T11:29:12.001Z</time></trkpt><trkpt lat="43.78206949114357" lon="12.202546469153267"><ele>417.5</ele><time>2026-04-20T11:29:13.001Z</time></trkpt><trkpt lat="43.78195279343298" lon="12.202634241466662"><ele>415.0</ele><time>2026-04-20T11:29:14.001Z</time></trkpt><trkpt lat="43.78183358936451" lon="12.20272687977418"><ele>412.5</ele><time>2026-04-20T11:29:15.001Z</time></trkpt><trkpt lat="43.78170963314546" lon="12.202822351196687"><ele>410.0</ele><time>2026-04-20T11:29:16.001Z</time></trkpt><trkpt lat="43.78158320016282" lon="12.2029159878258"><ele>410.0</ele><time>2026-04-20T11:29:17.001Z</time></trkpt><trkpt lat="43.7814520856513" lon="12.203010538800264"><ele>410.0</ele><time>2026-04-20T11:29:18.001Z</time></trkpt><trkpt lat="43.78132070004841" lon="12.203106345650896"><ele>410.0</ele><time>2026-04-20T11:29:19.001Z</time></trkpt><trkpt lat="43.78118578528936" lon="12.203199813886185"><ele>410.0</ele><time>2026-04-20T11:29:20.001Z</time></trkpt><trkpt lat="43.7810556069328" lon="12.203291371150282"><ele>408.75</ele><time>2026-04-20T11:29:21.001Z</time></trkpt><trkpt lat="43.78093107463506" lon="12.203380174475114"><ele>407.5</ele><time>2026-04-20T11:29:22.001Z</time></trkpt><trkpt lat="43.780809234612285" lon="12.203457459675391"><ele>406.25</ele><time>2026-04-20T11:29:23.001Z</time></trkpt><trkpt lat="43.78069869337649" lon="12.203547050176692"><ele>405.0</ele><time>2026-04-20T11:29:24.001Z</time></trkpt><trkpt lat="43.78058379896263" lon="12.203653010067349"><ele>405.0</ele><time>2026-04-20T11:29:25.001Z</time></trkpt><trkpt lat="43.780473266614315" lon="12.203775466208082"><ele>405.0</ele><time>2026-04-20T11:29:26.001Z</time></trkpt><trkpt lat="43.78037825788197" lon="12.203925970682414"><ele>405.0</ele><time>2026-04-20T11:29:27.001Z</time></trkpt><trkpt lat="43.780306769034645" lon="12.204106688645966"><ele>405.0</ele><time>2026-04-20T11:29:28.001Z</time></trkpt><trkpt lat="43.780260917748" lon="12.204303964337116"><ele>405.33333333333337</ele><time>2026-04-20T11:29:29.001Z</time></trkpt><trkpt lat="43.78023537863719" lon="12.204510328888553"><ele>405.6666666666667</ele><time>2026-04-20T11:29:30.001Z</time></trkpt><trkpt lat="43.78022768579147" lon="12.2047192452973"><ele>406.0</ele><time>2026-04-20T11:29:31.001Z</time></trkpt><trkpt lat="43.78024719057701" lon="12.204935860117688"><ele>406.33333333333337</ele><time>2026-04-20T11:29:32.001Z</time></trkpt><trkpt lat="43.78027714806685" lon="12.20515645038728"><ele>406.66666666666663</ele><time>2026-04-20T11:29:33.001Z</time></trkpt><trkpt lat="43.78031467862959" lon="12.20537364578666"><ele>407.0</ele><time>2026-04-20T11:29:34.001Z</time></trkpt><trkpt lat="43.780295134633974" lon="12.205589911531863"><ele>408.0</ele><time>2026-04-20T11:29:35.001Z</time></trkpt><trkpt lat="43.78029630281149" lon="12.205799694881547"><ele>409.0</ele><time>2026-04-20T11:29:36.001Z</time></trkpt><trkpt lat="43.78032040289143" lon="12.20598795299252"><ele>410.0</ele><time>2026-04-20T11:29:37.002Z</time></trkpt><trkpt lat="43.78034984960568" lon="12.206156599874117"><ele>411.0</ele><time>2026-04-20T11:29:38.002Z</time></trkpt><trkpt lat="43.78040063793889" lon="12.206283700339778"><ele>411.0</ele><time>2026-04-20T11:29:39.002Z</time></trkpt><trkpt lat="43.78042137683665" lon="12.206391464926618"><ele>411.0</ele><time>2026-04-20T11:29:40.002Z</time></trkpt><trkpt lat="43.78045226065062" lon="12.206497580107424"><ele>411.0</ele><time>2026-04-20T11:29:42.002Z</time></trkpt><trkpt lat="43.780375002749636" lon="12.206462321042482"><ele>411.0</ele><time>2026-04-20T11:32:06.001Z</time></trkpt><trkpt lat="43.78033126653162" lon="12.206356251651307"><ele>411.0</ele><time>2026-04-20T11:32:07.001Z</time></trkpt><trkpt lat="43.78028459520279" lon="12.206251190378195"><ele>411.0</ele><time>2026-04-20T11:32:08.001Z</time></trkpt><trkpt lat="43.78024013629262" lon="12.206134482913784"><ele>411.0</ele><time>2026-04-20T11:32:09.001Z</time></trkpt><trkpt lat="43.78019822408073" lon="12.2059953712119"><ele>411.0</ele><time>2026-04-20T11:32:10.001Z</time></trkpt><trkpt lat="43.780163348287026" lon="12.205837448977869"><ele>411.0</ele><time>2026-04-20T11:32:11.001Z</time></trkpt><trkpt lat="43.78013824688222" lon="12.205683491698471"><ele>411.0</ele><time>2026-04-20T11:32:12.001Z</time></trkpt><trkpt lat="43.78011642314845" lon="12.205533587291743"><ele>412.75</ele><time>2026-04-20T11:32:13.001Z</time></trkpt><trkpt lat="43.780074804390125" lon="12.205395128622468"><ele>414.5</ele><time>2026-04-20T11:32:14.001Z</time></trkpt><trkpt lat="43.77999589215725" lon="12.205275674454924"><ele>416.25</ele><time>2026-04-20T11:32:15.001Z</time></trkpt><trkpt lat="43.77989653982056" lon="12.205188686489508"><ele>418.0</ele><time>2026-04-20T11:32:16.001Z</time></trkpt><trkpt lat="43.779785285610075" lon="12.205126020433973"><ele>418.0</ele><time>2026-04-20T11:32:17.001Z</time></trkpt><trkpt lat="43.77967208321561" lon="12.20507735898283"><ele>418.0</ele><time>2026-04-20T11:32:18.001Z</time></trkpt><trkpt lat="43.77955802142695" lon="12.205020311243489"><ele>418.0</ele><time>2026-04-20T11:32:19.001Z</time></trkpt><trkpt lat="43.77944702029" lon="12.204960738338874"><ele>418.0</ele><time>2026-04-20T11:32:20.001Z</time></trkpt><trkpt lat="43.779331967634924" lon="12.204936092615638"><ele>421.25</ele><time>2026-04-20T11:32:21.001Z</time></trkpt><trkpt lat="43.779212448017006" lon="12.204937377168507"><ele>424.5</ele><time>2026-04-20T11:32:22.001Z</time></trkpt><trkpt lat="43.77909221007722" lon="12.204956948295388"><ele>427.75</ele><time>2026-04-20T11:32:23Z</time></trkpt><trkpt lat="43.77897137692828" lon="12.204988056758573"><ele>431.0</ele><time>2026-04-20T11:32:24Z</time></trkpt><trkpt lat="43.778850934495985" lon="12.205018666097361"><ele>431.0</ele><time>2026-04-20T11:32:25Z</time></trkpt><trkpt lat="43.7787309796649" lon="12.205048909483216"><ele>431.0</ele><time>2026-04-20T11:32:26Z</time></trkpt><trkpt lat="43.7786080201819" lon="12.205058184772623"><ele>431.0</ele><time>2026-04-20T11:32:27Z</time></trkpt><trkpt lat="43.778486058132394" lon="12.205035585246058"><ele>431.0</ele><time>2026-04-20T11:32:28Z</time></trkpt><trkpt lat="43.778366527405275" lon="12.204983273149496"><ele>432.0</ele><time>2026-04-20T11:32:29Z</time></trkpt><trkpt lat="43.778253319557834" lon="12.204909347219528"><ele>433.0</ele><time>2026-04-20T11:32:30Z</time></trkpt><trkpt lat="43.77813839536301" lon="12.204827107360883"><ele>434.0</ele><time>2026-04-20T11:32:31Z</time></trkpt><trkpt lat="43.7780220819634" lon="12.204748880729184"><ele>435.0</ele><time>2026-04-20T11:32:32Z</time></trkpt><trkpt lat="43.777903208102316" lon="12.204664462696245"><ele>433.75</ele><time>2026-04-20T11:32:33Z</time></trkpt><trkpt lat="43.777784998922314" lon="12.204572187638549"><ele>432.5</ele><time>2026-04-20T11:32:34Z</time></trkpt><trkpt lat="43.777667505197904" lon="12.204486480353157"><ele>431.25</ele><time>2026-04-20T11:32:35Z</time></trkpt><trkpt lat="43.77755753799827" lon="12.204403684232679"><ele>430.0</ele><time>2026-04-20T11:32:36Z</time></trkpt><trkpt lat="43.77746287299852" lon="12.204330140316696"><ele>430.0</ele><time>2026-04-20T11:32:37Z</time></trkpt><trkpt lat="43.77737871751633" lon="12.20426901240834"><ele>430.0</ele><time>2026-04-20T11:32:38Z</time></trkpt><trkpt lat="43.777298220314044" lon="12.204207373337479"><ele>430.0</ele><time>2026-04-20T11:32:39Z</time></trkpt><trkpt lat="43.777214491613755" lon="12.204142121799988"><ele>430.0</ele><time>2026-04-20T11:32:40Z</time></trkpt><trkpt lat="43.777124262090794" lon="12.20407757676531"><ele>430.0</ele><time>2026-04-20T11:32:41Z</time></trkpt><trkpt lat="43.777035493108485" lon="12.204016918218048"><ele>429.4</ele><time>2026-04-20T11:32:42Z</time></trkpt><trkpt lat="43.776942272473526" lon="12.203943407948344"><ele>428.8</ele><time>2026-04-20T11:32:43Z</time></trkpt><trkpt lat="43.77684968818808" lon="12.203867148048625"><ele>428.20000000000005</ele><time>2026-04-20T11:32:44Z</time></trkpt><trkpt lat="43.776757433231005" lon="12.203787156457166"><ele>427.6</ele><time>2026-04-20T11:32:45Z</time></trkpt><trkpt lat="43.77666010252498" lon="12.203712335864925"><ele>427.0</ele><time>2026-04-20T11:32:46Z</time></trkpt><trkpt lat="43.77655917177847" lon="12.20363345932109"><ele>427.0</ele><time>2026-04-20T11:32:47Z</time></trkpt><trkpt lat="43.77645778161267" lon="12.203557909071739"><ele>427.0</ele><time>2026-04-20T11:32:48Z</time></trkpt><trkpt lat="43.77635416763403" lon="12.20348206468537"><ele>427.0</ele><time>2026-04-20T11:32:49Z</time></trkpt><trkpt lat="43.77624997115129" lon="12.203401478118609"><ele>427.0</ele><time>2026-04-20T11:32:50Z</time></trkpt><trkpt lat="43.77614479815557" lon="12.203318417816055"><ele>427.0</ele><time>2026-04-20T11:32:51Z</time></trkpt><trkpt lat="43.77603204491957" lon="12.203237764903054"><ele>427.0</ele><time>2026-04-20T11:32:52Z</time></trkpt><trkpt lat="43.77592234879165" lon="12.203146746660957"><ele>427.0</ele><time>2026-04-20T11:32:53Z</time></trkpt><trkpt lat="43.775801629813856" lon="12.203050972836483"><ele>427.0</ele><time>2026-04-20T11:32:54Z</time></trkpt><trkpt lat="43.775689607586266" lon="12.202967264424675"><ele>426.0</ele><time>2026-04-20T11:32:55Z</time></trkpt><trkpt lat="43.775579052143286" lon="12.202885241874208"><ele>425.0</ele><time>2026-04-20T11:32:56Z</time></trkpt><trkpt lat="43.77547207501889" lon="12.2027966588484"><ele>424.0</ele><time>2026-04-20T11:32:57Z</time></trkpt><trkpt lat="43.77536776660355" lon="12.20269218103039"><ele>423.0</ele><time>2026-04-20T11:32:58Z</time></trkpt><trkpt lat="43.77526852191775" lon="12.20257045677019"><ele>424.25</ele><time>2026-04-20T11:32:59Z</time></trkpt><trkpt lat="43.77517013249124" lon="12.202444578605219"><ele>425.5</ele><time>2026-04-20T11:33:00Z</time></trkpt><trkpt lat="43.77506667873082" lon="12.202322348112249"><ele>426.75</ele><time>2026-04-20T11:33:01Z</time></trkpt><trkpt lat="43.77495266631827" lon="12.202222759901808"><ele>428.0</ele><time>2026-04-20T11:33:02Z</time></trkpt><trkpt lat="43.774838113114484" lon="12.202120053904848"><ele>428.0</ele><time>2026-04-20T11:33:03Z</time></trkpt><trkpt lat="43.7747043136728" lon="12.202085189706628"><ele>428.0</ele><time>2026-04-20T11:33:04.001Z</time></trkpt><trkpt lat="43.77456877159641" lon="12.202047809684501"><ele>428.0</ele><time>2026-04-20T11:33:05.001Z</time></trkpt><trkpt lat="43.77443227376829" lon="12.202022101749407"><ele>428.0</ele><time>2026-04-20T11:33:06.001Z</time></trkpt><trkpt lat="43.77429765416505" lon="12.201991483913856"><ele>428.5</ele><time>2026-04-20T11:33:07.001Z</time></trkpt><trkpt lat="43.77416401432338" lon="12.201937838034574"><ele>429.0</ele><time>2026-04-20T11:33:08.001Z</time></trkpt><trkpt lat="43.77403523822412" lon="12.201856320207463"><ele>429.5</ele><time>2026-04-20T11:33:09.001Z</time></trkpt><trkpt lat="43.773910948729984" lon="12.201760434518343"><ele>430.0</ele><time>2026-04-20T11:33:10.001Z</time></trkpt><trkpt lat="43.77378389925406" lon="12.201663884452033"><ele>430.0</ele><time>2026-04-20T11:33:11.001Z</time></trkpt><trkpt lat="43.77365163528837" lon="12.201579443621627"><ele>430.0</ele><time>2026-04-20T11:33:12.001Z</time></trkpt><trkpt lat="43.77351202567356" lon="12.201506783206996"><ele>430.0</ele><time>2026-04-20T11:33:13.001Z</time></trkpt><trkpt lat="43.77336316296715" lon="12.201450045310985"><ele>430.0</ele><time>2026-04-20T11:33:14.001Z</time></trkpt><trkpt lat="43.77321178611873" lon="12.201401371046801"><ele>429.0</ele><time>2026-04-20T11:33:15.001Z</time></trkpt><trkpt lat="43.77306261695207" lon="12.20135821793123"><ele>428.0</ele><time>2026-04-20T11:33:16.001Z</time></trkpt><trkpt lat="43.77291603352993" lon="12.201330240237185"><ele>427.0</ele><time>2026-04-20T11:33:17.001Z</time></trkpt><trkpt lat="43.77277403296793" lon="12.2013193932563"><ele>426.0</ele><time>2026-04-20T11:33:18.001Z</time></trkpt><trkpt lat="43.77262605035516" lon="12.201324744335405"><ele>426.0</ele><time>2026-04-20T11:33:19.001Z</time></trkpt><trkpt lat="43.77247523201455" lon="12.201347271094724"><ele>426.0</ele><time>2026-04-20T11:33:20.001Z</time></trkpt><trkpt lat="43.772321666041776" lon="12.201371613607652"><ele>426.0</ele><time>2026-04-20T11:33:21.001Z</time></trkpt><trkpt lat="43.77217635164532" lon="12.201380526848673"><ele>426.0</ele><time>2026-04-20T11:33:22.001Z</time></trkpt><trkpt lat="43.772041265886706" lon="12.201378578552383"><ele>426.0</ele><time>2026-04-20T11:33:23.001Z</time></trkpt><trkpt lat="43.771912776934194" lon="12.201357900123465"><ele>426.0</ele><time>2026-04-20T11:33:24.001Z</time></trkpt><trkpt lat="43.77179495747019" lon="12.201307656587476"><ele>426.0</ele><time>2026-04-20T11:33:25.001Z</time></trkpt><trkpt lat="43.77167797100233" lon="12.20124619243198"><ele>426.0</ele><time>2026-04-20T11:33:26.001Z</time></trkpt><trkpt lat="43.77155965079033" lon="12.201168221729583"><ele>426.0</ele><time>2026-04-20T11:33:27.001Z</time></trkpt><trkpt lat="43.771441045093226" lon="12.201076406584534"><ele>426.0</ele><time>2026-04-20T11:33:28.001Z</time></trkpt><trkpt lat="43.771319012408675" lon="12.2009781931011"><ele>426.0</ele><time>2026-04-20T11:33:29.001Z</time></trkpt><trkpt lat="43.77119310938526" lon="12.200875301833529"><ele>426.0</ele><time>2026-04-20T11:33:30.001Z</time></trkpt><trkpt lat="43.77106887162911" lon="12.20077375400412"><ele>426.0</ele><time>2026-04-20T11:33:31.001Z</time></trkpt><trkpt lat="43.77094336199919" lon="12.200686426599407"><ele>426.0</ele><time>2026-04-20T11:33:32.001Z</time></trkpt><trkpt lat="43.770811944271706" lon="12.200639127397983"><ele>426.0</ele><time>2026-04-20T11:33:33.001Z</time></trkpt><trkpt lat="43.77068241661252" lon="12.200622260609673"><ele>425.75</ele><time>2026-04-20T11:33:34.001Z</time></trkpt><trkpt lat="43.77055724633818" lon="12.20062418412176"><ele>425.5</ele><time>2026-04-20T11:33:35.001Z</time></trkpt><trkpt lat="43.77043134671316" lon="12.200629100452248"><ele>425.25</ele><time>2026-04-20T11:33:36.001Z</time></trkpt><trkpt lat="43.770304952250974" lon="12.200638323266036"><ele>425.0</ele><time>2026-04-20T11:33:37.001Z</time></trkpt><trkpt lat="43.770175969804434" lon="12.200654053441443"><ele>428.0</ele><time>2026-04-20T11:33:38.001Z</time></trkpt><trkpt lat="43.770052732307605" lon="12.200674171822167"><ele>431.0</ele><time>2026-04-20T11:33:39.001Z</time></trkpt><trkpt lat="43.76993238303104" lon="12.200689837541372"><ele>434.0</ele><time>2026-04-20T11:33:40.001Z</time></trkpt><trkpt lat="43.7698084733193" lon="12.200702920734349"><ele>437.0</ele><time>2026-04-20T11:33:41.001Z</time></trkpt><trkpt lat="43.76968354891237" lon="12.20071351593235"><ele>437.0</ele><time>2026-04-20T11:33:42.001Z</time></trkpt><trkpt lat="43.76955500498749" lon="12.200710732582706"><ele>437.0</ele><time>2026-04-20T11:33:43.001Z</time></trkpt><trkpt lat="43.76942780900973" lon="12.200687150711284"><ele>437.0</ele><time>2026-04-20T11:33:44.001Z</time></trkpt><trkpt lat="43.76930011704264" lon="12.200628929664454"><ele>437.0</ele><time>2026-04-20T11:33:45.001Z</time></trkpt><trkpt lat="43.769175785379964" lon="12.200531852824067"><ele>434.5</ele><time>2026-04-20T11:33:46.001Z</time></trkpt><trkpt lat="43.76905318075451" lon="12.200430576022255"><ele>432.0</ele><time>2026-04-20T11:33:47.001Z</time></trkpt><trkpt lat="43.768930393266324" lon="12.200340188794643"><ele>429.5</ele><time>2026-04-20T11:33:48.001Z</time></trkpt><trkpt lat="43.76880387934086" lon="12.2002620206741"><ele>427.0</ele><time>2026-04-20T11:33:49.001Z</time></trkpt><trkpt lat="43.76866995382764" lon="12.200191232886057"><ele>427.0</ele><time>2026-04-20T11:33:50.001Z</time></trkpt><trkpt lat="43.768527413913716" lon="12.200141271728238"><ele>427.0</ele><time>2026-04-20T11:33:51.001Z</time></trkpt><trkpt lat="43.76838639470427" lon="12.200103795091083"><ele>427.0</ele><time>2026-04-20T11:33:52.001Z</time></trkpt><trkpt lat="43.76824997088916" lon="12.2000836770385"><ele>427.0</ele><time>2026-04-20T11:33:53.001Z</time></trkpt><trkpt lat="43.76812081218857" lon="12.200086795359413"><ele>428.25</ele><time>2026-04-20T11:33:54.001Z</time></trkpt><trkpt lat="43.767993155675136" lon="12.200106347094854"><ele>429.5</ele><time>2026-04-20T11:33:55.001Z</time></trkpt><trkpt lat="43.76786390121839" lon="12.200147840801565"><ele>430.75</ele><time>2026-04-20T11:33:56.001Z</time></trkpt><trkpt lat="43.767736804945855" lon="12.200210925009427"><ele>432.0</ele><time>2026-04-20T11:33:57.001Z</time></trkpt><trkpt lat="43.76761200356359" lon="12.200280494475441"><ele>432.0</ele><time>2026-04-20T11:33:58.001Z</time></trkpt><trkpt lat="43.767490799209696" lon="12.20034283905931"><ele>432.0</ele><time>2026-04-20T11:33:59.001Z</time></trkpt><trkpt lat="43.76737572394154" lon="12.200390293315023"><ele>432.0</ele><time>2026-04-20T11:34:00.001Z</time></trkpt><trkpt lat="43.767264750189725" lon="12.20042444787619"><ele>432.0</ele><time>2026-04-20T11:34:01.001Z</time></trkpt><trkpt lat="43.76715579948479" lon="12.20045056199979"><ele>432.0</ele><time>2026-04-20T11:34:02.001Z</time></trkpt><trkpt lat="43.76704160654334" lon="12.200461846851905"><ele>432.00000000000006</ele><time>2026-04-20T11:34:03.001Z</time></trkpt><trkpt lat="43.766930732486884" lon="12.200446298909803"><ele>432.00000000000006</ele><time>2026-04-20T11:34:04.001Z</time></trkpt><trkpt lat="43.76682236681839" lon="12.200437485933755"><ele>432.0</ele><time>2026-04-20T11:34:05.001Z</time></trkpt><trkpt lat="43.76672096442174" lon="12.200424987127214"><ele>432.0</ele><time>2026-04-20T11:34:06.001Z</time></trkpt><trkpt lat="43.76663063575713" lon="12.200406207674835"><ele>431.8333333333333</ele><time>2026-04-20T11:34:07.001Z</time></trkpt><trkpt lat="43.766548155705856" lon="12.200383209204713"><ele>431.66666666666663</ele><time>2026-04-20T11:34:08.001Z</time></trkpt><trkpt lat="43.766470538106645" lon="12.200365968627345"><ele>431.5</ele><time>2026-04-20T11:34:09.001Z</time></trkpt><trkpt lat="43.76639963303997" lon="12.200348872438301"><ele>431.3333333333333</ele><time>2026-04-20T11:34:10.001Z</time></trkpt><trkpt lat="43.76633331650819" lon="12.200318429532038"><ele>431.16666666666663</ele><time>2026-04-20T11:34:11.001Z</time></trkpt><trkpt lat="43.7662734897044" lon="12.200272612726213"><ele>431.0</ele><time>2026-04-20T11:34:12.001Z</time></trkpt><trkpt lat="43.766211024588806" lon="12.200210095396692"><ele>431.0</ele><time>2026-04-20T11:34:13.001Z</time></trkpt><trkpt lat="43.766144611234175" lon="12.200125493702116"><ele>431.0</ele><time>2026-04-20T11:34:14Z</time></trkpt><trkpt lat="43.76609280426662" lon="12.199999341321728"><ele>431.0</ele><time>2026-04-20T11:34:15Z</time></trkpt><trkpt lat="43.76601824104089" lon="12.199879307787658"><ele>431.0</ele><time>2026-04-20T11:34:16Z</time></trkpt><trkpt lat="43.7659600156592" lon="12.199756702100148"><ele>431.0</ele><time>2026-04-20T11:34:17Z</time></trkpt><trkpt lat="43.765901835077734" lon="12.199631824450487"><ele>431.20000000000005</ele><time>2026-04-20T11:34:18Z</time></trkpt><trkpt lat="43.76583796572232" lon="12.199506433442107"><ele>431.40000000000003</ele><time>2026-04-20T11:34:19Z</time></trkpt><trkpt lat="43.765775391323864" lon="12.199377708337472"><ele>431.6</ele><time>2026-04-20T11:34:20Z</time></trkpt><trkpt lat="43.76571582554925" lon="12.199253186759544"><ele>431.8</ele><time>2026-04-20T11:34:21Z</time></trkpt><trkpt lat="43.76565386654172" lon="12.199137831034296"><ele>432.0</ele><time>2026-04-20T11:34:22Z</time></trkpt><trkpt lat="43.765590081151124" lon="12.199026463701015"><ele>431.40000000000003</ele><time>2026-04-20T11:34:23Z</time></trkpt><trkpt lat="43.76551329593885" lon="12.198926046826129"><ele>430.80000000000007</ele><time>2026-04-20T11:34:24Z</time></trkpt><trkpt lat="43.765423876535124" lon="12.198856327921327"><ele>430.2</ele><time>2026-04-20T11:34:25Z</time></trkpt><trkpt lat="43.76532544694869" lon="12.198806512692665"><ele>429.6</ele><time>2026-04-20T11:34:26Z</time></trkpt><trkpt lat="43.76521974878635" lon="12.198768328601828"><ele>429.0</ele><time>2026-04-20T11:34:27Z</time></trkpt><trkpt lat="43.76512016267197" lon="12.198727172421174"><ele>430.6</ele><time>2026-04-20T11:34:28Z</time></trkpt><trkpt lat="43.76501792348298" lon="12.19868582149546"><ele>432.2</ele><time>2026-04-20T11:34:29Z</time></trkpt><trkpt lat="43.764913785843135" lon="12.198643376816381"><ele>433.80000000000007</ele><time>2026-04-20T11:34:30Z</time></trkpt><trkpt lat="43.76480768296529" lon="12.198596609129737"><ele>435.40000000000003</ele><time>2026-04-20T11:34:31Z</time></trkpt><trkpt lat="43.764699352102554" lon="12.198551221605221"><ele>437.0</ele><time>2026-04-20T11:34:32Z</time></trkpt><trkpt lat="43.76458640921997" lon="12.198502018104367"><ele>437.0</ele><time>2026-04-20T11:34:33Z</time></trkpt><trkpt lat="43.764473521226385" lon="12.198453779860422"><ele>437.0</ele><time>2026-04-20T11:34:34Z</time></trkpt><trkpt lat="43.76436018825331" lon="12.198409435289554"><ele>437.0</ele><time>2026-04-20T11:34:35Z</time></trkpt><trkpt lat="43.764246539365224" lon="12.198377266254782"><ele>437.0</ele><time>2026-04-20T11:34:36Z</time></trkpt><trkpt lat="43.76413233579025" lon="12.198374833137311"><ele>438.75</ele><time>2026-04-20T11:34:37Z</time></trkpt><trkpt lat="43.764018332954876" lon="12.198394906474112"><ele>440.5</ele><time>2026-04-20T11:34:38Z</time></trkpt><trkpt lat="43.76391383338512" lon="12.198449439152094"><ele>442.25</ele><time>2026-04-20T11:34:39Z</time></trkpt><trkpt lat="43.76381813229285" lon="12.198527591360044"><ele>444.0</ele><time>2026-04-20T11:34:40Z</time></trkpt><trkpt lat="43.76372594730417" lon="12.198618289321217"><ele>444.0</ele><time>2026-04-20T11:34:41Z</time></trkpt><trkpt lat="43.76363811098662" lon="12.198721276221798"><ele>444.0</ele><time>2026-04-20T11:34:42Z</time></trkpt><trkpt lat="43.76355266364441" lon="12.198828752439072"><ele>444.0</ele><time>2026-04-20T11:34:43Z</time></trkpt><trkpt lat="43.76347664135079" lon="12.198928041891376"><ele>444.0</ele><time>2026-04-20T11:34:44Z</time></trkpt><trkpt lat="43.7634000128311" lon="12.199020841434878"><ele>444.0</ele><time>2026-04-20T11:34:45Z</time></trkpt><trkpt lat="43.763317757849016" lon="12.199111206947855"><ele>445.0</ele><time>2026-04-20T11:34:46Z</time></trkpt><trkpt lat="43.763238138188704" lon="12.199202220853557"><ele>446.0</ele><time>2026-04-20T11:34:47Z</time></trkpt><trkpt lat="43.763153155497676" lon="12.199287630094753"><ele>447.0</ele><time>2026-04-20T11:34:48Z</time></trkpt><trkpt lat="43.763051089423605" lon="12.199365247419378"><ele>448.0</ele><time>2026-04-20T11:34:49Z</time></trkpt><trkpt lat="43.76293114869268" lon="12.19942910579568"><ele>448.0</ele><time>2026-04-20T11:34:50Z</time></trkpt><trkpt lat="43.76282654401453" lon="12.19946728090113"><ele>447.99999999999994</ele><time>2026-04-20T11:34:51Z</time></trkpt><trkpt lat="43.762733742575556" lon="12.199459354556174"><ele>447.99999999999994</ele><time>2026-04-20T11:34:53Z</time></trkpt><trkpt lat="43.76280759251635" lon="12.199483207523155"><ele>448.0</ele><time>2026-04-20T11:35:04Z</time></trkpt><trkpt lat="43.76289600856815" lon="12.199469770083684"><ele>448.0</ele><time>2026-04-20T11:35:05Z</time></trkpt><trkpt lat="43.76298776441054" lon="12.199434690941219"><ele>448.0</ele><time>2026-04-20T11:35:06Z</time></trkpt><trkpt lat="43.76307504715769" lon="12.199379072369876"><ele>447.99999999999994</ele><time>2026-04-20T11:35:07Z</time></trkpt><trkpt lat="43.76316358429569" lon="12.199309145905904"><ele>447.99999999999994</ele><time>2026-04-20T11:35:08Z</time></trkpt><trkpt lat="43.76325626728223" lon="12.199217944483692"><ele>448.0</ele><time>2026-04-20T11:35:09Z</time></trkpt><trkpt lat="43.76334890591877" lon="12.199113110967465"><ele>448.0</ele><time>2026-04-20T11:35:10Z</time></trkpt><trkpt lat="43.76344072707774" lon="12.199013091421246"><ele>447.2</ele><time>2026-04-20T11:35:11Z</time></trkpt><trkpt lat="43.763517795214334" lon="12.198916113724762"><ele>446.4</ele><time>2026-04-20T11:35:12Z</time></trkpt><trkpt lat="43.76360132250369" lon="12.198817207083257"><ele>445.59999999999997</ele><time>2026-04-20T11:35:13Z</time></trkpt><trkpt lat="43.763682399623626" lon="12.198722130113547"><ele>444.79999999999995</ele><time>2026-04-20T11:35:14Z</time></trkpt><trkpt lat="43.76376982136636" lon="12.198623425477022"><ele>444.0</ele><time>2026-04-20T11:35:15Z</time></trkpt><trkpt lat="43.76386414324028" lon="12.198531460057216"><ele>444.0</ele><time>2026-04-20T11:35:16Z</time></trkpt><trkpt lat="43.76395821091351" lon="12.198449622968237"><ele>444.0</ele><time>2026-04-20T11:35:17Z</time></trkpt><trkpt lat="43.7640534769964" lon="12.198401057576111"><ele>444.0</ele><time>2026-04-20T11:35:18Z</time></trkpt><trkpt lat="43.76415222372959" lon="12.198413016131866"><ele>444.0</ele><time>2026-04-20T11:35:19Z</time></trkpt><trkpt lat="43.76424614627451" lon="12.19841657563018"><ele>444.0</ele><time>2026-04-20T11:35:20Z</time></trkpt><trkpt lat="43.76433258464608" lon="12.19843492499387"><ele>442.6</ele><time>2026-04-20T11:35:21Z</time></trkpt><trkpt lat="43.764395809468674" lon="12.198463115618619"><ele>441.2</ele><time>2026-04-20T11:35:22Z</time></trkpt><trkpt lat="43.76446167583442" lon="12.198488003337493"><ele>439.80000000000007</ele><time>2026-04-20T11:35:24Z</time></trkpt><trkpt lat="43.76445451507561" lon="12.198301367960713"><ele>438.40000000000003</ele><time>2026-04-20T11:35:26Z</time></trkpt><trkpt lat="43.764395675873246" lon="12.198184631943755"><ele>437.0</ele><time>2026-04-20T11:35:28Z</time></trkpt><trkpt lat="43.764372804641866" lon="12.198078515151488"><ele>436.57142857142856</ele><time>2026-04-20T11:35:29Z</time></trkpt><trkpt lat="43.76436145001952" lon="12.19798366986739"><ele>436.14285714285717</ele><time>2026-04-20T11:35:30Z</time></trkpt><trkpt lat="43.764341872768625" lon="12.19789087732869"><ele>435.7142857142857</ele><time>2026-04-20T11:35:31Z</time></trkpt><trkpt lat="43.764319775675375" lon="12.197795286476582"><ele>435.2857142857143</ele><time>2026-04-20T11:35:32Z</time></trkpt><trkpt lat="43.76429955813205" lon="12.197704234196502"><ele>434.8571428571429</ele><time>2026-04-20T11:35:33.001Z</time></trkpt><trkpt lat="43.76427793781159" lon="12.1975922035035"><ele>434.42857142857144</ele><time>2026-04-20T11:35:34.001Z</time></trkpt><trkpt lat="43.76425641550443" lon="12.197480129461146"><ele>434.0</ele><time>2026-04-20T11:35:35.001Z</time></trkpt><trkpt lat="43.76422908289061" lon="12.19736666667153"><ele>434.2</ele><time>2026-04-20T11:35:36.001Z</time></trkpt><trkpt lat="43.764198031799154" lon="12.197249443629314"><ele>434.4</ele><time>2026-04-20T11:35:37.001Z</time></trkpt><trkpt lat="43.764170410110005" lon="12.197126199730233"><ele>434.6</ele><time>2026-04-20T11:35:38.001Z</time></trkpt><trkpt lat="43.76414413339265" lon="12.19699386255026"><ele>434.8</ele><time>2026-04-20T11:35:39.001Z</time></trkpt><trkpt lat="43.76411488571106" lon="12.196873636355768"><ele>435.0</ele><time>2026-04-20T11:35:40.001Z</time></trkpt><trkpt lat="43.764088762134534" lon="12.196762231183952"><ele>435.0</ele><time>2026-04-20T11:35:41.001Z</time></trkpt><trkpt lat="43.764069961755084" lon="12.196643998552794"><ele>435.0</ele><time>2026-04-20T11:35:42.001Z</time></trkpt><trkpt lat="43.76406231136474" lon="12.196537553863996"><ele>435.0</ele><time>2026-04-20T11:35:43.001Z</time></trkpt><trkpt lat="43.76406574830507" lon="12.196411956774075"><ele>435.0</ele><time>2026-04-20T11:35:44.001Z</time></trkpt><trkpt lat="43.76411048054038" lon="12.196298874410848"><ele>435.0</ele><time>2026-04-20T11:35:45.001Z</time></trkpt><trkpt lat="43.76415642679536" lon="12.19617485633507"><ele>435.0</ele><time>2026-04-20T11:35:46.001Z</time></trkpt><trkpt lat="43.76417883311225" lon="12.196022111199616"><ele>436.4</ele><time>2026-04-20T11:35:47.001Z</time></trkpt><trkpt lat="43.76421903256117" lon="12.195892367158965"><ele>437.8</ele><time>2026-04-20T11:35:48.001Z</time></trkpt><trkpt lat="43.76424636595991" lon="12.195755622746816"><ele>439.20000000000005</ele><time>2026-04-20T11:35:49.001Z</time></trkpt><trkpt lat="43.764284787405614" lon="12.195605259004537"><ele>440.6</ele><time>2026-04-20T11:35:50.001Z</time></trkpt><trkpt lat="43.76432188700097" lon="12.195465205014386"><ele>442.0</ele><time>2026-04-20T11:35:51.001Z</time></trkpt><trkpt lat="43.76436255477831" lon="12.195324184998844"><ele>445.6666666666667</ele><time>2026-04-20T11:35:52.001Z</time></trkpt><trkpt lat="43.76440022667677" lon="12.195215783723924"><ele>449.33333333333337</ele><time>2026-04-20T11:35:53.001Z</time></trkpt><trkpt lat="43.764438230479804" lon="12.195130786015907"><ele>453.0</ele><time>2026-04-20T11:35:54.001Z</time></trkpt><trkpt lat="43.764475625036056" lon="12.195057170594197"><ele>456.66666666666663</ele><time>2026-04-20T11:35:55.001Z</time></trkpt><trkpt lat="43.764541914213375" lon="12.194962845403001"><ele>460.3333333333333</ele><time>2026-04-20T11:35:57.001Z</time></trkpt><trkpt lat="43.76460125227871" lon="12.194858757261182"><ele>464.0</ele><time>2026-04-20T11:35:59.001Z</time></trkpt><trkpt lat="43.76468022786809" lon="12.19474359155907"><ele>464.79999999999995</ele><time>2026-04-20T11:36:01.001Z</time></trkpt><trkpt lat="43.76472742764965" lon="12.19460912750441"><ele>465.59999999999997</ele><time>2026-04-20T11:36:03.001Z</time></trkpt><trkpt lat="43.764736149352" lon="12.194517559813365"><ele>466.4</ele><time>2026-04-20T11:36:05.001Z</time></trkpt><trkpt lat="43.764599927778825" lon="12.19447653221665"><ele>467.2</ele><time>2026-04-20T11:36:06.001Z</time></trkpt><trkpt lat="43.764530915730504" lon="12.194601026169657"><ele>468.0</ele><time>2026-04-20T11:36:07.001Z</time></trkpt><trkpt lat="43.76445347029305" lon="12.194672885324596"><ele>468.0</ele><time>2026-04-20T11:36:08.001Z</time></trkpt><trkpt lat="43.76437754140056" lon="12.194772995295937"><ele>467.99999999999994</ele><time>2026-04-20T11:36:09.001Z</time></trkpt><trkpt lat="43.7643013369653" lon="12.194867643730547"><ele>467.99999999999994</ele><time>2026-04-20T11:36:10.001Z</time></trkpt><trkpt lat="43.76422058114415" lon="12.19495478503288"><ele>468.0</ele><time>2026-04-20T11:36:11.001Z</time></trkpt><trkpt lat="43.76413958164954" lon="12.195034691925716"><ele>468.0</ele><time>2026-04-20T11:36:12.001Z</time></trkpt><trkpt lat="43.76406910574088" lon="12.19509737095527"><ele>467.59999999999997</ele><time>2026-04-20T11:36:13.001Z</time></trkpt><trkpt lat="43.76398725524151" lon="12.195162324632154"><ele>467.19999999999993</ele><time>2026-04-20T11:36:14.001Z</time></trkpt><trkpt lat="43.763900138453884" lon="12.19522502810872"><ele>466.8</ele><time>2026-04-20T11:36:15.001Z</time></trkpt><trkpt lat="43.76380462466569" lon="12.195293104902923"><ele>466.4</ele><time>2026-04-20T11:36:16.001Z</time></trkpt><trkpt lat="43.76370530739557" lon="12.195365395057095"><ele>466.0</ele><time>2026-04-20T11:36:17.001Z</time></trkpt><trkpt lat="43.763607346630806" lon="12.195441567555967"><ele>468.5</ele><time>2026-04-20T11:36:18.001Z</time></trkpt><trkpt lat="43.76350801903949" lon="12.195520287561363"><ele>471.0</ele><time>2026-04-20T11:36:19.001Z</time></trkpt><trkpt lat="43.7634076883465" lon="12.195599802645077"><ele>473.5</ele><time>2026-04-20T11:36:20Z</time></trkpt><trkpt lat="43.763312245231546" lon="12.195699220851802"><ele>476.0</ele><time>2026-04-20T11:36:21Z</time></trkpt><trkpt lat="43.76320323478232" lon="12.19577241225576"><ele>476.0</ele><time>2026-04-20T11:36:22Z</time></trkpt><trkpt lat="43.763084268726764" lon="12.195813671403855"><ele>476.0</ele><time>2026-04-20T11:36:23Z</time></trkpt><trkpt lat="43.762962102071576" lon="12.195858274365289"><ele>476.0</ele><time>2026-04-20T11:36:24Z</time></trkpt><trkpt lat="43.76284209885705" lon="12.195941919497168"><ele>476.0</ele><time>2026-04-20T11:36:25Z</time></trkpt><trkpt lat="43.7627423684992" lon="12.196065324404687"><ele>474.75</ele><time>2026-04-20T11:36:26Z</time></trkpt><trkpt lat="43.76262933166735" lon="12.196157749473889"><ele>473.5</ele><time>2026-04-20T11:36:27Z</time></trkpt><trkpt lat="43.76252991473432" lon="12.196271211202951"><ele>472.25</ele><time>2026-04-20T11:36:28Z</time></trkpt><trkpt lat="43.762439714442195" lon="12.19639586484192"><ele>471.0</ele><time>2026-04-20T11:36:29Z</time></trkpt><trkpt lat="43.76238054509143" lon="12.196515435824338"><ele>471.0</ele><time>2026-04-20T11:36:30Z</time></trkpt><trkpt lat="43.76230891355422" lon="12.196582882936285"><ele>471.0</ele><time>2026-04-20T11:36:31Z</time></trkpt><trkpt lat="43.7622539474518" lon="12.19665326373613"><ele>471.0</ele><time>2026-04-20T11:36:32Z</time></trkpt><trkpt lat="43.762164938229176" lon="12.196710379486758"><ele>471.0</ele><time>2026-04-20T11:36:34Z</time></trkpt><trkpt lat="43.76213842140674" lon="12.196578494968543"><ele>471.0</ele><time>2026-04-20T11:36:36Z</time></trkpt><trkpt lat="43.762255418357185" lon="12.196499090287592"><ele>478.6</ele><time>2026-04-20T11:36:38Z</time></trkpt><trkpt lat="43.762337856249864" lon="12.196418068981679"><ele>486.20000000000005</ele><time>2026-04-20T11:36:39Z</time></trkpt><trkpt lat="43.762403946021735" lon="12.196291606804813"><ele>493.79999999999995</ele><time>2026-04-20T11:36:40Z</time></trkpt><trkpt lat="43.762478856829546" lon="12.196166724447668"><ele>501.4</ele><time>2026-04-20T11:36:41Z</time></trkpt><trkpt lat="43.76255306919738" lon="12.19604414725467"><ele>509.0</ele><time>2026-04-20T11:36:42Z</time></trkpt><trkpt lat="43.762633255603966" lon="12.195922488473018"><ele>506.75</ele><time>2026-04-20T11:36:43Z</time></trkpt><trkpt lat="43.7627169327285" lon="12.195801230496542"><ele>504.5</ele><time>2026-04-20T11:36:44Z</time></trkpt><trkpt lat="43.76280609012611" lon="12.195709847874026"><ele>502.25</ele><time>2026-04-20T11:36:45Z</time></trkpt><trkpt lat="43.76292158210418" lon="12.19566959233657"><ele>500.0</ele><time>2026-04-20T11:36:46Z</time></trkpt><trkpt lat="43.76301675081371" lon="12.195578833481035"><ele>500.0</ele><time>2026-04-20T11:36:47Z</time></trkpt><trkpt lat="43.76307793308847" lon="12.195488395303286"><ele>500.0</ele><time>2026-04-20T11:36:48Z</time></trkpt><trkpt lat="43.76312159516959" lon="12.195364907690216"><ele>500.0</ele><time>2026-04-20T11:36:49Z</time></trkpt><trkpt lat="43.763165733648115" lon="12.195225035336717"><ele>500.0</ele><time>2026-04-20T11:36:50Z</time></trkpt><trkpt lat="43.76322957616563" lon="12.195081265857532"><ele>500.0</ele><time>2026-04-20T11:36:51Z</time></trkpt><trkpt lat="43.763318489889706" lon="12.194954696817613"><ele>500.0</ele><time>2026-04-20T11:36:52Z</time></trkpt><trkpt lat="43.76342638399586" lon="12.194845896552591"><ele>500.0</ele><time>2026-04-20T11:36:53Z</time></trkpt><trkpt lat="43.76353630642053" lon="12.194747659644232"><ele>500.0</ele><time>2026-04-20T11:36:54Z</time></trkpt><trkpt lat="43.763643982228" lon="12.19464143853245"><ele>500.0</ele><time>2026-04-20T11:36:55Z</time></trkpt><trkpt lat="43.76374955179958" lon="12.194542309563138"><ele>501.0</ele><time>2026-04-20T11:36:56Z</time></trkpt><trkpt lat="43.763835479383566" lon="12.194439772388396"><ele>502.0</ele><time>2026-04-20T11:36:57Z</time></trkpt><trkpt lat="43.763877716504716" lon="12.194310372913295"><ele>503.0</ele><time>2026-04-20T11:36:58Z</time></trkpt><trkpt lat="43.763903623562456" lon="12.194161744117643"><ele>504.0</ele><time>2026-04-20T11:36:59Z</time></trkpt><trkpt lat="43.76392629290246" lon="12.194006508728298"><ele>505.0</ele><time>2026-04-20T11:37:00Z</time></trkpt><trkpt lat="43.76395126829077" lon="12.193854993738052"><ele>505.0</ele><time>2026-04-20T11:37:01Z</time></trkpt><trkpt lat="43.76398717648701" lon="12.19370740445661"><ele>505.0</ele><time>2026-04-20T11:37:02Z</time></trkpt><trkpt lat="43.764023198250676" lon="12.19355725350865"><ele>505.0</ele><time>2026-04-20T11:37:03Z</time></trkpt><trkpt lat="43.76406887319941" lon="12.19341298507984"><ele>505.0</ele><time>2026-04-20T11:37:04Z</time></trkpt><trkpt lat="43.764101506018804" lon="12.193261432034129"><ele>506.1666666666667</ele><time>2026-04-20T11:37:05Z</time></trkpt><trkpt lat="43.76415668931815" lon="12.19313707687112"><ele>507.33333333333337</ele><time>2026-04-20T11:37:06Z</time></trkpt><trkpt lat="43.76422171972443" lon="12.193050840025922"><ele>508.5</ele><time>2026-04-20T11:37:07Z</time></trkpt><trkpt lat="43.76427721857606" lon="12.192979608889729"><ele>509.66666666666663</ele><time>2026-04-20T11:37:08Z</time></trkpt><trkpt lat="43.76430498397776" lon="12.192877218993974"><ele>510.8333333333333</ele><time>2026-04-20T11:37:10Z</time></trkpt><trkpt lat="43.76430057851166" lon="12.192758335873926"><ele>512.0</ele><time>2026-04-20T11:37:12Z</time></trkpt><trkpt lat="43.764239524339" lon="12.192615547948394"><ele>511.99999999999994</ele><time>2026-04-20T11:37:14Z</time></trkpt><trkpt lat="43.76417462942933" lon="12.192594119561939"><ele>512.0</ele><time>2026-04-20T11:37:15Z</time></trkpt><trkpt lat="43.76407372533948" lon="12.192571963813878"><ele>512.0</ele><time>2026-04-20T11:37:17Z</time></trkpt><trkpt lat="43.764017991362415" lon="12.192619501183453"><ele>512.0</ele><time>2026-04-20T11:37:18Z</time></trkpt><trkpt lat="43.76393198831611" lon="12.192741233953702"><ele>511.99999999999994</ele><time>2026-04-20T11:37:20Z</time></trkpt><trkpt lat="43.763891872840354" lon="12.192814805231437"><ele>512.0</ele><time>2026-04-20T11:37:21Z</time></trkpt><trkpt lat="43.76383584501348" lon="12.19296261021357"><ele>512.0</ele><time>2026-04-20T11:37:23Z</time></trkpt><trkpt lat="43.76378869488274" lon="12.193081924091686"><ele>512.0</ele><time>2026-04-20T11:37:25Z</time></trkpt><trkpt lat="43.763714360416024" lon="12.193210651063223"><ele>512.0</ele><time>2026-04-20T11:37:27Z</time></trkpt><trkpt lat="43.763609731925236" lon="12.193200623894862"><ele>512.0</ele><time>2026-04-20T11:37:29Z</time></trkpt><trkpt lat="43.763544503763555" lon="12.19307706647719"><ele>512.0</ele><time>2026-04-20T11:37:31Z</time></trkpt><trkpt lat="43.76353294024934" lon="12.192990632756796"><ele>511.99999999999994</ele><time>2026-04-20T11:37:32Z</time></trkpt><trkpt lat="43.76354117338236" lon="12.192900017241934"><ele>512.0</ele><time>2026-04-20T11:37:33Z</time></trkpt><trkpt lat="43.76355605029699" lon="12.192813679758578"><ele>512.0</ele><time>2026-04-20T11:37:34Z</time></trkpt><trkpt lat="43.76355201071604" lon="12.192661489594474"><ele>512.0</ele><time>2026-04-20T11:37:36Z</time></trkpt><trkpt lat="43.76352907248575" lon="12.192508782716008"><ele>511.99999999999994</ele><time>2026-04-20T11:37:38Z</time></trkpt><trkpt lat="43.76349407017769" lon="12.192421557441605"><ele>512.0</ele><time>2026-04-20T11:37:39Z</time></trkpt><trkpt lat="43.76344393212386" lon="12.192282861416732"><ele>516.25</ele><time>2026-04-20T11:37:40Z</time></trkpt><trkpt lat="43.76333239740856" lon="12.19214855243133"><ele>520.5</ele><time>2026-04-20T11:37:41Z</time></trkpt><trkpt lat="43.76325526823945" lon="12.191982409348444"><ele>524.75</ele><time>2026-04-20T11:37:42Z</time></trkpt><trkpt lat="43.763227952291736" lon="12.191799617891252"><ele>529.0</ele><time>2026-04-20T11:37:43Z</time></trkpt><trkpt lat="43.76319655397214" lon="12.191591615408969"><ele>528.25</ele><time>2026-04-20T11:37:44Z</time></trkpt><trkpt lat="43.76316735277055" lon="12.191400628449362"><ele>527.5</ele><time>2026-04-20T11:37:45Z</time></trkpt><trkpt lat="43.76311877901423" lon="12.191246936884694"><ele>526.75</ele><time>2026-04-20T11:37:46Z</time></trkpt><trkpt lat="43.763055728103716" lon="12.191120049644262"><ele>526.0</ele><time>2026-04-20T11:37:47Z</time></trkpt><trkpt lat="43.7629923362595" lon="12.191035372224263"><ele>526.0</ele><time>2026-04-20T11:37:48Z</time></trkpt><trkpt lat="43.762912784019676" lon="12.19097068252669"><ele>526.0</ele><time>2026-04-20T11:37:49Z</time></trkpt><trkpt lat="43.762806073796625" lon="12.19092344790045"><ele>526.0</ele><time>2026-04-20T11:37:50Z</time></trkpt><trkpt lat="43.76268456412757" lon="12.19088987475334"><ele>526.0</ele><time>2026-04-20T11:37:51Z</time></trkpt><trkpt lat="43.76255744947875" lon="12.19083372832442"><ele>529.2</ele><time>2026-04-20T11:37:52Z</time></trkpt><trkpt lat="43.76244609790985" lon="12.190857459821208"><ele>532.4000000000001</ele><time>2026-04-20T11:37:53Z</time></trkpt><trkpt lat="43.76235805347909" lon="12.190884512945106"><ele>535.6</ele><time>2026-04-20T11:37:54Z</time></trkpt><trkpt lat="43.762292771993394" lon="12.190986598060105"><ele>538.8000000000001</ele><time>2026-04-20T11:37:55Z</time></trkpt><trkpt lat="43.76227641033351" lon="12.191122768498916"><ele>542.0</ele><time>2026-04-20T11:37:56Z</time></trkpt><trkpt lat="43.76227076215993" lon="12.191267658424971"><ele>542.0</ele><time>2026-04-20T11:37:57Z</time></trkpt><trkpt lat="43.76226111177169" lon="12.19142963857091"><ele>542.0</ele><time>2026-04-20T11:37:58Z</time></trkpt><trkpt lat="43.76222646437763" lon="12.19158080079548"><ele>542.0</ele><time>2026-04-20T11:37:59Z</time></trkpt><trkpt lat="43.76214903495936" lon="12.191718547499976"><ele>542.0</ele><time>2026-04-20T11:38:00Z</time></trkpt><trkpt lat="43.76208263183799" lon="12.191871211935032"><ele>543.0</ele><time>2026-04-20T11:38:01Z</time></trkpt><trkpt lat="43.76198047898681" lon="12.191982388319602"><ele>544.0</ele><time>2026-04-20T11:38:02Z</time></trkpt><trkpt lat="43.761883052997284" lon="12.192102061259616"><ele>545.0</ele><time>2026-04-20T11:38:03Z</time></trkpt><trkpt lat="43.76178971708901" lon="12.19225721256254"><ele>546.0</ele><time>2026-04-20T11:38:04Z</time></trkpt><trkpt lat="43.76172607039048" lon="12.19246384492363"><ele>548.5</ele><time>2026-04-20T11:38:05Z</time></trkpt><trkpt lat="43.76168020388887" lon="12.192675559847386"><ele>551.0</ele><time>2026-04-20T11:38:06Z</time></trkpt><trkpt lat="43.761631858107336" lon="12.19283071498014"><ele>553.5</ele><time>2026-04-20T11:38:07Z</time></trkpt><trkpt lat="43.7616083608025" lon="12.192939856495814"><ele>556.0</ele><time>2026-04-20T11:38:08Z</time></trkpt><trkpt lat="43.76155443940149" lon="12.193046766192099"><ele>556.0</ele><time>2026-04-20T11:38:10Z</time></trkpt><trkpt lat="43.76146925483926" lon="12.193124712495214"><ele>556.0</ele><time>2026-04-20T11:38:11Z</time></trkpt><trkpt lat="43.76145797728196" lon="12.192893145616548"><ele>556.0</ele><time>2026-04-20T11:38:12Z</time></trkpt><trkpt lat="43.761453940664964" lon="12.192761453183827"><ele>556.0</ele><time>2026-04-20T11:38:13Z</time></trkpt><trkpt lat="43.761452698542925" lon="12.19259457002611"><ele>556.0</ele><time>2026-04-20T11:38:14Z</time></trkpt><trkpt lat="43.761452626720754" lon="12.192398952625439"><ele>556.0</ele><time>2026-04-20T11:38:15Z</time></trkpt><trkpt lat="43.761452348457745" lon="12.192178405556515"><ele>556.0</ele><time>2026-04-20T11:38:16Z</time></trkpt><trkpt lat="43.76145565854301" lon="12.19193515124085"><ele>557.6666666666667</ele><time>2026-04-20T11:38:17Z</time></trkpt><trkpt lat="43.7614647988214" lon="12.191678439274876"><ele>559.3333333333334</ele><time>2026-04-20T11:38:18Z</time></trkpt><trkpt lat="43.76152133052489" lon="12.19144065226573"><ele>561.0</ele><time>2026-04-20T11:38:19.001Z</time></trkpt><trkpt lat="43.76154765869433" lon="12.191230492182642"><ele>561.4</ele><time>2026-04-20T11:38:20.001Z</time></trkpt><trkpt lat="43.761565364110425" lon="12.191068212071864"><ele>561.8</ele><time>2026-04-20T11:38:21.001Z</time></trkpt><trkpt lat="43.76154320113261" lon="12.190926659159688"><ele>562.1999999999999</ele><time>2026-04-20T11:38:22.001Z</time></trkpt><trkpt lat="43.76149040764125" lon="12.190811586652902"><ele>562.6</ele><time>2026-04-20T11:38:23.001Z</time></trkpt><trkpt lat="43.76140737142837" lon="12.190756299469417"><ele>563.0</ele><time>2026-04-20T11:38:24.001Z</time></trkpt><trkpt lat="43.76133326584648" lon="12.190724616662711"><ele>563.0</ele><time>2026-04-20T11:38:25.001Z</time></trkpt><trkpt lat="43.76124618631133" lon="12.190796298474165"><ele>563.0</ele><time>2026-04-20T11:38:26Z</time></trkpt><trkpt lat="43.761176866816335" lon="12.190874339868731"><ele>563.0</ele><time>2026-04-20T11:38:27Z</time></trkpt><trkpt lat="43.7610257133978" lon="12.191038512987744"><ele>563.0</ele><time>2026-04-20T11:38:29Z</time></trkpt><trkpt lat="43.760937768030516" lon="12.19114825358834"><ele>567.75</ele><time>2026-04-20T11:38:30Z</time></trkpt><trkpt lat="43.76087098334819" lon="12.191302406956206"><ele>572.5</ele><time>2026-04-20T11:38:31Z</time></trkpt><trkpt lat="43.76080653594823" lon="12.191465570980734"><ele>577.25</ele><time>2026-04-20T11:38:32Z</time></trkpt><trkpt lat="43.760757797037485" lon="12.191647642614445"><ele>582.0</ele><time>2026-04-20T11:38:33Z</time></trkpt><trkpt lat="43.76070016501461" lon="12.19179503898176"><ele>582.0</ele><time>2026-04-20T11:38:34Z</time></trkpt><trkpt lat="43.760677213240264" lon="12.191923232232854"><ele>582.0</ele><time>2026-04-20T11:38:35Z</time></trkpt><trkpt lat="43.76061719282667" lon="12.19198075203857"><ele>582.0</ele><time>2026-04-20T11:38:36Z</time></trkpt><trkpt lat="43.76054613657196" lon="12.191959468654561"><ele>582.0</ele><time>2026-04-20T11:38:37Z</time></trkpt><trkpt lat="43.76046348905969" lon="12.191743757852452"><ele>582.0</ele><time>2026-04-20T11:38:39Z</time></trkpt><trkpt lat="43.76041186423686" lon="12.191603893312726"><ele>583.25</ele><time>2026-04-20T11:38:40Z</time></trkpt><trkpt lat="43.76034791555278" lon="12.19144600829066"><ele>584.5</ele><time>2026-04-20T11:38:41Z</time></trkpt><trkpt lat="43.760308719257786" lon="12.191288564982683"><ele>585.75</ele><time>2026-04-20T11:38:42Z</time></trkpt><trkpt lat="43.7603036414877" lon="12.19110975668201"><ele>587.0</ele><time>2026-04-20T11:38:43Z</time></trkpt><trkpt lat="43.76027772926087" lon="12.190919419410209"><ele>587.0</ele><time>2026-04-20T11:38:44Z</time></trkpt><trkpt lat="43.76026892314504" lon="12.190725184126435"><ele>587.0</ele><time>2026-04-20T11:38:45Z</time></trkpt><trkpt lat="43.7602502590992" lon="12.190529085821497"><ele>587.0</ele><time>2026-04-20T11:38:46Z</time></trkpt><trkpt lat="43.760222919185416" lon="12.190333785510882"><ele>587.0</ele><time>2026-04-20T11:38:47Z</time></trkpt><trkpt lat="43.76017635468262" lon="12.190146302466815"><ele>591.3333333333333</ele><time>2026-04-20T11:38:48Z</time></trkpt><trkpt lat="43.760093526986395" lon="12.18995696542831"><ele>595.6666666666666</ele><time>2026-04-20T11:38:49Z</time></trkpt><trkpt lat="43.75997793714129" lon="12.189780453620875"><ele>600.0</ele><time>2026-04-20T11:38:50Z</time></trkpt><trkpt lat="43.75985192680802" lon="12.189607620880956"><ele>601.5</ele><time>2026-04-20T11:38:51Z</time></trkpt><trkpt lat="43.75975783845872" lon="12.189430355975794"><ele>603.0</ele><time>2026-04-20T11:38:52Z</time></trkpt><trkpt lat="43.75969130264854" lon="12.189271609132467"><ele>604.5</ele><time>2026-04-20T11:38:53Z</time></trkpt><trkpt lat="43.75965191304446" lon="12.189125665622239"><ele>606.0</ele><time>2026-04-20T11:38:54Z</time></trkpt><trkpt lat="43.759662539232906" lon="12.188982678266456"><ele>603.4</ele><time>2026-04-20T11:38:55Z</time></trkpt><trkpt lat="43.75967997967085" lon="12.18885797976446"><ele>600.8</ele><time>2026-04-20T11:38:56Z</time></trkpt><trkpt lat="43.75966881247393" lon="12.188730015199186"><ele>598.1999999999999</ele><time>2026-04-20T11:38:57Z</time></trkpt><trkpt lat="43.75964459546976" lon="12.188612537132608"><ele>595.6</ele><time>2026-04-20T11:38:58Z</time></trkpt><trkpt lat="43.75957230186643" lon="12.188498519026858"><ele>593.0</ele><time>2026-04-20T11:38:59Z</time></trkpt><trkpt lat="43.75949895491339" lon="12.188354878532744"><ele>593.0</ele><time>2026-04-20T11:39:00Z</time></trkpt><trkpt lat="43.75940594379033" lon="12.188216190124129"><ele>593.0</ele><time>2026-04-20T11:39:01Z</time></trkpt><trkpt lat="43.75930611809398" lon="12.188089698867094"><ele>593.0</ele><time>2026-04-20T11:39:02Z</time></trkpt><trkpt lat="43.75918675335627" lon="12.188016307992942"><ele>593.0</ele><time>2026-04-20T11:39:03Z</time></trkpt><trkpt lat="43.75906428979527" lon="12.187996455234048"><ele>597.1999999999999</ele><time>2026-04-20T11:39:04Z</time></trkpt><trkpt lat="43.758953503099406" lon="12.187935510272819"><ele>601.4</ele><time>2026-04-20T11:39:05Z</time></trkpt><trkpt lat="43.75885621317196" lon="12.187883573491892"><ele>605.5999999999999</ele><time>2026-04-20T11:39:06Z</time></trkpt><trkpt lat="43.758768317743886" lon="12.18782213524552"><ele>609.8</ele><time>2026-04-20T11:39:07Z</time></trkpt><trkpt lat="43.758734358551294" lon="12.187702076427518"><ele>614.0</ele><time>2026-04-20T11:39:08Z</time></trkpt><trkpt lat="43.758688115172475" lon="12.18762296924931"><ele>614.0</ele><time>2026-04-20T11:39:09Z</time></trkpt><trkpt lat="43.75865448808635" lon="12.187480354827205"><ele>614.0</ele><time>2026-04-20T11:39:11Z</time></trkpt><trkpt lat="43.75858315841967" lon="12.187399241418916"><ele>614.0</ele><time>2026-04-20T11:39:13Z</time></trkpt><trkpt lat="43.758520908744615" lon="12.187321794585147"><ele>614.0</ele><time>2026-04-20T11:39:40Z</time></trkpt><trkpt lat="43.75843040043871" lon="12.187249564332742"><ele>614.0</ele><time>2026-04-20T11:39:42Z</time></trkpt><trkpt lat="43.75837417143634" lon="12.187192665928752"><ele>614.5714285714286</ele><time>2026-04-20T11:39:43Z</time></trkpt><trkpt lat="43.7583213941261" lon="12.187133210555146"><ele>615.1428571428571</ele><time>2026-04-20T11:39:44Z</time></trkpt><trkpt lat="43.758273070020735" lon="12.187073127942513"><ele>615.7142857142858</ele><time>2026-04-20T11:39:45Z</time></trkpt><trkpt lat="43.758216818517035" lon="12.187022594557238"><ele>616.2857142857142</ele><time>2026-04-20T11:39:46Z</time></trkpt><trkpt lat="43.758177247790066" lon="12.186937343455513"><ele>616.8571428571429</ele><time>2026-04-20T11:39:47Z</time></trkpt><trkpt lat="43.75813113063586" lon="12.18686134605071"><ele>617.4285714285714</ele><time>2026-04-20T11:39:48Z</time></trkpt><trkpt lat="43.75808806744855" lon="12.186791117620222"><ele>618.0</ele><time>2026-04-20T11:39:49Z</time></trkpt><trkpt lat="43.758041309201666" lon="12.186680329255676"><ele>618.0</ele><time>2026-04-20T11:39:51Z</time></trkpt><trkpt lat="43.757982981735246" lon="12.186570925178476"><ele>618.0</ele><time>2026-04-20T11:39:53Z</time></trkpt><trkpt lat="43.75792836666728" lon="12.186510986596778"><ele>618.0</ele><time>2026-04-20T11:39:56Z</time></trkpt><trkpt lat="43.75785121598869" lon="12.186573838485156"><ele>618.0</ele><time>2026-04-20T11:40:00Z</time></trkpt><trkpt lat="43.75778845246291" lon="12.186552717525464"><ele>618.0</ele><time>2026-04-20T11:40:03Z</time></trkpt><trkpt lat="43.75778569998776" lon="12.186665316292025"><ele>618.0</ele><time>2026-04-20T11:40:06Z</time></trkpt><trkpt lat="43.75780950837581" lon="12.186780198393748"><ele>618.0</ele><time>2026-04-20T11:40:39Z</time></trkpt><trkpt lat="43.75800315868665" lon="12.186725069345568"><ele>618.0</ele><time>2026-04-20T11:40:41Z</time></trkpt><trkpt lat="43.758043351030665" lon="12.18682488624229"><ele>618.0</ele><time>2026-04-20T11:40:43Z</time></trkpt><trkpt lat="43.75810877788413" lon="12.18691236983801"><ele>618.0</ele><time>2026-04-20T11:40:45Z</time></trkpt><trkpt lat="43.7581916197007" lon="12.187024859744712"><ele>618.0000000000001</ele><time>2026-04-20T11:40:47Z</time></trkpt><trkpt lat="43.75823993236027" lon="12.187092701372823"><ele>618.0</ele><time>2026-04-20T11:40:48Z</time></trkpt><trkpt lat="43.75829396346702" lon="12.18716155124298"><ele>618.0</ele><time>2026-04-20T11:40:49Z</time></trkpt><trkpt lat="43.75835890595677" lon="12.187209183967248"><ele>618.0</ele><time>2026-04-20T11:40:50Z</time></trkpt><trkpt lat="43.75841968494127" lon="12.187281750439539"><ele>618.0</ele><time>2026-04-20T11:40:51Z</time></trkpt><trkpt lat="43.75848633632422" lon="12.187338534759345"><ele>618.0000000000001</ele><time>2026-04-20T11:40:52Z</time></trkpt><trkpt lat="43.758546713574134" lon="12.187387863569093"><ele>618.0</ele><time>2026-04-20T11:40:53Z</time></trkpt><trkpt lat="43.75859566710417" lon="12.187452098365553"><ele>617.4285714285714</ele><time>2026-04-20T11:40:54Z</time></trkpt><trkpt lat="43.75863579494957" lon="12.187520798222744"><ele>616.8571428571429</ele><time>2026-04-20T11:40:55Z</time></trkpt><trkpt lat="43.75865693823468" lon="12.187616636560533"><ele>616.2857142857142</ele><time>2026-04-20T11:40:56Z</time></trkpt><trkpt lat="43.75869555856097" lon="12.187702037309224"><ele>615.7142857142858</ele><time>2026-04-20T11:40:57Z</time></trkpt><trkpt lat="43.7587355162959" lon="12.187790394124207"><ele>615.1428571428571</ele><time>2026-04-20T11:40:58Z</time></trkpt><trkpt lat="43.758786640364704" lon="12.187869104055363"><ele>614.5714285714286</ele><time>2026-04-20T11:40:59Z</time></trkpt><trkpt lat="43.75884781614958" lon="12.18793271123344"><ele>614.0</ele><time>2026-04-20T11:41:00Z</time></trkpt><trkpt lat="43.758924250279186" lon="12.187951415605399"><ele>614.0</ele><time>2026-04-20T11:41:01Z</time></trkpt><trkpt lat="43.7589953487853" lon="12.187983624518521"><ele>614.0</ele><time>2026-04-20T11:41:02Z</time></trkpt><trkpt lat="43.75906920268565" lon="12.188004451027636"><ele>614.0</ele><time>2026-04-20T11:41:03Z</time></trkpt><trkpt lat="43.759139130619374" lon="12.18804969019377"><ele>614.0</ele><time>2026-04-20T11:41:04Z</time></trkpt><trkpt lat="43.7592159398275" lon="12.188063134119613"><ele>614.0</ele><time>2026-04-20T11:41:05Z</time></trkpt><trkpt lat="43.759279664477226" lon="12.188117647744994"><ele>614.0</ele><time>2026-04-20T11:41:06Z</time></trkpt><trkpt lat="43.75934020947277" lon="12.188186076196105"><ele>610.5</ele><time>2026-04-20T11:41:07Z</time></trkpt><trkpt lat="43.75940354293517" lon="12.188266174553549"><ele>607.0</ele><time>2026-04-20T11:41:08Z</time></trkpt><trkpt lat="43.75946818323519" lon="12.188353529156842"><ele>603.5</ele><time>2026-04-20T11:41:09Z</time></trkpt><trkpt lat="43.75952966759018" lon="12.188440671556604"><ele>600.0</ele><time>2026-04-20T11:41:10Z</time></trkpt><trkpt lat="43.75958491542701" lon="12.188531358000867"><ele>596.5</ele><time>2026-04-20T11:41:11Z</time></trkpt><trkpt lat="43.759636553048615" lon="12.18862436722587"><ele>593.0</ele><time>2026-04-20T11:41:12Z</time></trkpt><trkpt lat="43.75966754391635" lon="12.188726902676684"><ele>593.0</ele><time>2026-04-20T11:41:13Z</time></trkpt><trkpt lat="43.75965205754989" lon="12.188841422675655"><ele>593.0</ele><time>2026-04-20T11:41:14Z</time></trkpt><trkpt lat="43.759634659386805" lon="12.188950841551202"><ele>593.0</ele><time>2026-04-20T11:41:15Z</time></trkpt><trkpt lat="43.75964549405734" lon="12.189079846020736"><ele>593.0</ele><time>2026-04-20T11:41:16Z</time></trkpt><trkpt lat="43.75964440535419" lon="12.189196358308768"><ele>593.0</ele><time>2026-04-20T11:41:17Z</time></trkpt><trkpt lat="43.75969701312711" lon="12.18930379969515"><ele>593.0</ele><time>2026-04-20T11:41:18Z</time></trkpt><trkpt lat="43.75973425131457" lon="12.189431386079228"><ele>594.75</ele><time>2026-04-20T11:41:19Z</time></trkpt><trkpt lat="43.75979453063151" lon="12.18956268989027"><ele>596.5</ele><time>2026-04-20T11:41:20Z</time></trkpt><trkpt lat="43.7598769262057" lon="12.189694999632785"><ele>598.25</ele><time>2026-04-20T11:41:21Z</time></trkpt><trkpt lat="43.759975783788434" lon="12.189812594827966"><ele>600.0</ele><time>2026-04-20T11:41:22Z</time></trkpt><trkpt lat="43.76005746409404" lon="12.189947898826995"><ele>600.0</ele><time>2026-04-20T11:41:23Z</time></trkpt><trkpt lat="43.76011188432386" lon="12.190101985960858"><ele>600.0</ele><time>2026-04-20T11:41:24Z</time></trkpt><trkpt lat="43.76016539261476" lon="12.1902499065881"><ele>600.0</ele><time>2026-04-20T11:41:25Z</time></trkpt><trkpt lat="43.76020734807144" lon="12.190401156736405"><ele>600.0</ele><time>2026-04-20T11:41:26Z</time></trkpt><trkpt lat="43.76022967357057" lon="12.19055798843741"><ele>596.75</ele><time>2026-04-20T11:41:27Z</time></trkpt><trkpt lat="43.76023953869351" lon="12.190721325668935"><ele>593.5</ele><time>2026-04-20T11:41:28Z</time></trkpt><trkpt lat="43.76025162667151" lon="12.190884161640659"><ele>590.25</ele><time>2026-04-20T11:41:29Z</time></trkpt><trkpt lat="43.76026456223801" lon="12.191046559388232"><ele>587.0</ele><time>2026-04-20T11:41:30Z</time></trkpt><trkpt lat="43.760280885590994" lon="12.19120721955074"><ele>587.0</ele><time>2026-04-20T11:41:31Z</time></trkpt><trkpt lat="43.760321716504194" lon="12.191357773689981"><ele>587.0</ele><time>2026-04-20T11:41:32Z</time></trkpt><trkpt lat="43.760359357190005" lon="12.191506379082618"><ele>587.0</ele><time>2026-04-20T11:41:33Z</time></trkpt><trkpt lat="43.76040352038195" lon="12.191643645322332"><ele>587.0</ele><time>2026-04-20T11:41:34Z</time></trkpt><trkpt lat="43.76044394212127" lon="12.191763213945256"><ele>587.0</ele><time>2026-04-20T11:41:35Z</time></trkpt><trkpt lat="43.76047956984284" lon="12.191855968307658"><ele>586.1666666666666</ele><time>2026-04-20T11:41:36Z</time></trkpt><trkpt lat="43.76052004005564" lon="12.19192906413905"><ele>585.3333333333333</ele><time>2026-04-20T11:41:37Z</time></trkpt><trkpt lat="43.76063053301834" lon="12.191988970400566"><ele>584.5</ele><time>2026-04-20T11:41:39Z</time></trkpt><trkpt lat="43.76069131398462" lon="12.191938101129141"><ele>583.6666666666666</ele><time>2026-04-20T11:41:40Z</time></trkpt><trkpt lat="43.76071384584739" lon="12.191830821390854"><ele>582.8333333333334</ele><time>2026-04-20T11:41:41Z</time></trkpt><trkpt lat="43.7607439208348" lon="12.191717521122685"><ele>582.0</ele><time>2026-04-20T11:41:42Z</time></trkpt><trkpt lat="43.76078134603409" lon="12.191591733412999"><ele>583.0</ele><time>2026-04-20T11:41:43Z</time></trkpt><trkpt lat="43.76082579611303" lon="12.191454841282708"><ele>584.0</ele><time>2026-04-20T11:41:44Z</time></trkpt><trkpt lat="43.76087506123673" lon="12.191325967671292"><ele>585.0</ele><time>2026-04-20T11:41:45Z</time></trkpt><trkpt lat="43.76093327760346" lon="12.1912065207476"><ele>586.0</ele><time>2026-04-20T11:41:46Z</time></trkpt><trkpt lat="43.76100257533106" lon="12.191104893747672"><ele>587.0</ele><time>2026-04-20T11:41:47Z</time></trkpt><trkpt lat="43.761077204943305" lon="12.191012660320888"><ele>583.0</ele><time>2026-04-20T11:41:48.001Z</time></trkpt><trkpt lat="43.76115034019354" lon="12.190920750275012"><ele>579.0</ele><time>2026-04-20T11:41:49.001Z</time></trkpt><trkpt lat="43.761222546533176" lon="12.190841642983521"><ele>575.0</ele><time>2026-04-20T11:41:50.001Z</time></trkpt><trkpt lat="43.76129625635538" lon="12.190793716972328"><ele>571.0</ele><time>2026-04-20T11:41:51.001Z</time></trkpt><trkpt lat="43.76137574278181" lon="12.190782195172318"><ele>567.0</ele><time>2026-04-20T11:41:52.001Z</time></trkpt><trkpt lat="43.76145067563998" lon="12.190817158923993"><ele>563.0</ele><time>2026-04-20T11:41:53.001Z</time></trkpt><trkpt lat="43.761490396338566" lon="12.190919061687119"><ele>563.0</ele><time>2026-04-20T11:41:54.001Z</time></trkpt><trkpt lat="43.76153356987339" lon="12.191011995399572"><ele>563.0</ele><time>2026-04-20T11:41:55.001Z</time></trkpt><trkpt lat="43.76153973338948" lon="12.191144336150966"><ele>563.0</ele><time>2026-04-20T11:41:56.001Z</time></trkpt><trkpt lat="43.76153015120771" lon="12.191285526075248"><ele>563.0</ele><time>2026-04-20T11:41:57.001Z</time></trkpt><trkpt lat="43.76148916623814" lon="12.191428760941587"><ele>563.0</ele><time>2026-04-20T11:41:58.001Z</time></trkpt><trkpt lat="43.76145894855839" lon="12.19159052166556"><ele>562.5</ele><time>2026-04-20T11:41:59.001Z</time></trkpt><trkpt lat="43.761435429658356" lon="12.191751298233982"><ele>562.0</ele><time>2026-04-20T11:42:00.001Z</time></trkpt><trkpt lat="43.761426382222695" lon="12.191916358336131"><ele>561.5</ele><time>2026-04-20T11:42:01.001Z</time></trkpt><trkpt lat="43.76142780692964" lon="12.192071848699442"><ele>561.0</ele><time>2026-04-20T11:42:02.001Z</time></trkpt><trkpt lat="43.76143056076702" lon="12.192218625051868"><ele>560.0</ele><time>2026-04-20T11:42:03.001Z</time></trkpt><trkpt lat="43.76143318560264" lon="12.192358525542538"><ele>559.0</ele><time>2026-04-20T11:42:04.001Z</time></trkpt><trkpt lat="43.76143232687102" lon="12.192491626438906"><ele>558.0</ele><time>2026-04-20T11:42:05.001Z</time></trkpt><trkpt lat="43.76143326897409" lon="12.192626242790771"><ele>557.0</ele><time>2026-04-20T11:42:06.001Z</time></trkpt><trkpt lat="43.761437522129285" lon="12.19274934113599"><ele>556.0</ele><time>2026-04-20T11:42:07.001Z</time></trkpt><trkpt lat="43.76144591341464" lon="12.192850162280148"><ele>556.0</ele><time>2026-04-20T11:42:08.001Z</time></trkpt><trkpt lat="43.76148185732054" lon="12.192996465616543"><ele>556.0</ele><time>2026-04-20T11:42:10.001Z</time></trkpt><trkpt lat="43.761560574784674" lon="12.193064689560366"><ele>556.0</ele><time>2026-04-20T11:42:12.001Z</time></trkpt><trkpt lat="43.76148388332545" lon="12.193184475459226"><ele>556.0</ele><time>2026-04-20T11:42:15.001Z</time></trkpt><trkpt lat="43.761421378753994" lon="12.193125739546938"><ele>556.0</ele><time>2026-04-20T11:42:35.001Z</time></trkpt><trkpt lat="43.76134780436295" lon="12.193055511568883"><ele>556.0</ele><time>2026-04-20T11:42:37Z</time></trkpt><trkpt lat="43.761295337849674" lon="12.193002577411418"><ele>556.0</ele><time>2026-04-20T11:42:38Z</time></trkpt><trkpt lat="43.76123493324586" lon="12.192945035096951"><ele>556.0</ele><time>2026-04-20T11:42:39Z</time></trkpt><trkpt lat="43.76115620452888" lon="12.192870604807593"><ele>556.0</ele><time>2026-04-20T11:42:40Z</time></trkpt><trkpt lat="43.761080804143695" lon="12.192796893823663"><ele>556.0</ele><time>2026-04-20T11:42:41Z</time></trkpt><trkpt lat="43.76100710674768" lon="12.192721099751456"><ele>556.0</ele><time>2026-04-20T11:42:42Z</time></trkpt><trkpt lat="43.76091651794768" lon="12.19263115709038"><ele>558.8</ele><time>2026-04-20T11:42:43Z</time></trkpt><trkpt lat="43.76082619686029" lon="12.192549234745247"><ele>561.6</ele><time>2026-04-20T11:42:44Z</time></trkpt><trkpt lat="43.76073554841615" lon="12.192470157127866"><ele>564.4</ele><time>2026-04-20T11:42:45Z</time></trkpt><trkpt lat="43.76063473760759" lon="12.192387562481548"><ele>567.2</ele><time>2026-04-20T11:42:46Z</time></trkpt><trkpt lat="43.760547659626525" lon="12.192316185319413"><ele>570.0</ele><time>2026-04-20T11:42:47Z</time></trkpt><trkpt lat="43.7604653511477" lon="12.192248717387"><ele>570.0</ele><time>2026-04-20T11:42:48Z</time></trkpt><trkpt lat="43.76040275155076" lon="12.192195433100403"><ele>570.0</ele><time>2026-04-20T11:42:49Z</time></trkpt><trkpt lat="43.76034705398574" lon="12.192132281855065"><ele>570.0</ele><time>2026-04-20T11:42:50Z</time></trkpt><trkpt lat="43.76030834817027" lon="12.192059914242197"><ele>570.0</ele><time>2026-04-20T11:42:51Z</time></trkpt><trkpt lat="43.76027652002153" lon="12.191973047789247"><ele>570.0</ele><time>2026-04-20T11:42:52Z</time></trkpt><trkpt lat="43.760238713820165" lon="12.191853826750972"><ele>570.0</ele><time>2026-04-20T11:42:53Z</time></trkpt><trkpt lat="43.76019007464067" lon="12.191719015635384"><ele>570.0</ele><time>2026-04-20T11:42:54Z</time></trkpt><trkpt lat="43.7601364670581" lon="12.191581622759262"><ele>570.0</ele><time>2026-04-20T11:42:55Z</time></trkpt><trkpt lat="43.76006548358653" lon="12.191457387108512"><ele>570.0</ele><time>2026-04-20T11:42:56.001Z</time></trkpt><trkpt lat="43.7600085578188" lon="12.191313019132945"><ele>570.0</ele><time>2026-04-20T11:42:57.001Z</time></trkpt><trkpt lat="43.7599482530514" lon="12.191181457400205"><ele>573.0</ele><time>2026-04-20T11:42:58.001Z</time></trkpt><trkpt lat="43.759885617002716" lon="12.191074946326863"><ele>576.0</ele><time>2026-04-20T11:42:59.001Z</time></trkpt><trkpt lat="43.75981811836416" lon="12.190978487857642"><ele>579.0</ele><time>2026-04-20T11:43:00.001Z</time></trkpt><trkpt lat="43.75974104240508" lon="12.190904168520031"><ele>582.0</ele><time>2026-04-20T11:43:01.001Z</time></trkpt><trkpt lat="43.7596429854475" lon="12.190840956365005"><ele>585.0</ele><time>2026-04-20T11:43:02.001Z</time></trkpt><trkpt lat="43.759541085819265" lon="12.190789850227393"><ele>585.0</ele><time>2026-04-20T11:43:03.001Z</time></trkpt><trkpt lat="43.75944998167962" lon="12.190727200376156"><ele>585.0</ele><time>2026-04-20T11:43:04.001Z</time></trkpt><trkpt lat="43.759386842025094" lon="12.190627532703255"><ele>585.0</ele><time>2026-04-20T11:43:05.001Z</time></trkpt><trkpt lat="43.759329513188256" lon="12.190532276453114"><ele>585.0</ele><time>2026-04-20T11:43:06.001Z</time></trkpt><trkpt lat="43.75926787967962" lon="12.190442985254915"><ele>585.0</ele><time>2026-04-20T11:43:07.001Z</time></trkpt><trkpt lat="43.75926429232217" lon="12.190302324187781"><ele>584.75</ele><time>2026-04-20T11:43:08.001Z</time></trkpt><trkpt lat="43.75923748564598" lon="12.19014698673815"><ele>584.5</ele><time>2026-04-20T11:43:09.001Z</time></trkpt><trkpt lat="43.75918778047655" lon="12.189983256066538"><ele>584.25</ele><time>2026-04-20T11:43:10.001Z</time></trkpt><trkpt lat="43.759150277232855" lon="12.189817728067021"><ele>584.0</ele><time>2026-04-20T11:43:11.001Z</time></trkpt><trkpt lat="43.759111660619546" lon="12.189666665606925"><ele>584.0</ele><time>2026-04-20T11:43:12.001Z</time></trkpt><trkpt lat="43.75907890864339" lon="12.189522723889594"><ele>584.0</ele><time>2026-04-20T11:43:13.001Z</time></trkpt><trkpt lat="43.759046567411154" lon="12.18939256076288"><ele>584.0</ele><time>2026-04-20T11:43:14.001Z</time></trkpt><trkpt lat="43.75901844037372" lon="12.189272542606965"><ele>584.0</ele><time>2026-04-20T11:43:15.001Z</time></trkpt><trkpt lat="43.75893795971418" lon="12.189190762157343"><ele>584.0</ele><time>2026-04-20T11:43:16.001Z</time></trkpt><trkpt lat="43.75883640149983" lon="12.189143653923294"><ele>584.0</ele><time>2026-04-20T11:43:17.001Z</time></trkpt><trkpt lat="43.758720561324154" lon="12.189146479944698"><ele>584.0</ele><time>2026-04-20T11:43:18.001Z</time></trkpt><trkpt lat="43.75860491358674" lon="12.189150528396372"><ele>584.0</ele><time>2026-04-20T11:43:19.001Z</time></trkpt><trkpt lat="43.75850885127093" lon="12.189136175104077"><ele>584.0</ele><time>2026-04-20T11:43:20.001Z</time></trkpt><trkpt lat="43.75843586079867" lon="12.189080829841167"><ele>584.0</ele><time>2026-04-20T11:43:21.001Z</time></trkpt><trkpt lat="43.75836572077314" lon="12.188990376065169"><ele>584.6</ele><time>2026-04-20T11:43:22.001Z</time></trkpt><trkpt lat="43.75828483608714" lon="12.188888648745916"><ele>585.2</ele><time>2026-04-20T11:43:23.001Z</time></trkpt><trkpt lat="43.75819827119798" lon="12.188783464801935"><ele>585.8000000000001</ele><time>2026-04-20T11:43:24.001Z</time></trkpt><trkpt lat="43.758108869520036" lon="12.188697371278394"><ele>586.4</ele><time>2026-04-20T11:43:25.001Z</time></trkpt><trkpt lat="43.758020611151395" lon="12.18864436900294"><ele>587.0</ele><time>2026-04-20T11:43:26.001Z</time></trkpt><trkpt lat="43.75789680953538" lon="12.188633466730865"><ele>587.0</ele><time>2026-04-20T11:43:27.001Z</time></trkpt><trkpt lat="43.757786989122465" lon="12.188622109599068"><ele>587.0</ele><time>2026-04-20T11:43:28.001Z</time></trkpt><trkpt lat="43.75767871121286" lon="12.188652833880765"><ele>587.0</ele><time>2026-04-20T11:43:29.001Z</time></trkpt><trkpt lat="43.757570635247944" lon="12.188722704578804"><ele>587.0</ele><time>2026-04-20T11:43:30.001Z</time></trkpt><trkpt lat="43.757489416827354" lon="12.188813320576445"><ele>587.0</ele><time>2026-04-20T11:43:31.001Z</time></trkpt><trkpt lat="43.7574368912311" lon="12.188954622113004"><ele>578.75</ele><time>2026-04-20T11:43:32.001Z</time></trkpt><trkpt lat="43.75740342036499" lon="12.189100010867401"><ele>570.5</ele><time>2026-04-20T11:43:33.001Z</time></trkpt><trkpt lat="43.75734658952525" lon="12.189256173956997"><ele>562.25</ele><time>2026-04-20T11:43:34.001Z</time></trkpt><trkpt lat="43.75729015965784" lon="12.189406929117295"><ele>554.0</ele><time>2026-04-20T11:43:35.001Z</time></trkpt><trkpt lat="43.75722280141181" lon="12.18955036628573"><ele>554.0</ele><time>2026-04-20T11:43:36.001Z</time></trkpt><trkpt lat="43.75720343539584" lon="12.189714085896432"><ele>554.0</ele><time>2026-04-20T11:43:37.001Z</time></trkpt><trkpt lat="43.757169268512705" lon="12.189885790002664"><ele>554.0</ele><time>2026-04-20T11:43:38.001Z</time></trkpt><trkpt lat="43.75712127999053" lon="12.190067232434293"><ele>554.0</ele><time>2026-04-20T11:43:39.001Z</time></trkpt><trkpt lat="43.75708801499121" lon="12.19024807748845"><ele>551.2</ele><time>2026-04-20T11:43:40.001Z</time></trkpt><trkpt lat="43.75705852100935" lon="12.190405416357518"><ele>548.4</ele><time>2026-04-20T11:43:41.001Z</time></trkpt><trkpt lat="43.75703041391889" lon="12.190549447643965"><ele>545.6</ele><time>2026-04-20T11:43:42.001Z</time></trkpt><trkpt lat="43.75700524167625" lon="12.190667405506755"><ele>542.8</ele><time>2026-04-20T11:43:43.001Z</time></trkpt><trkpt lat="43.75697994153346" lon="12.190771218399814"><ele>540.0</ele><time>2026-04-20T11:43:44.001Z</time></trkpt><trkpt lat="43.75692683359397" lon="12.190885337240166"><ele>539.8</ele><time>2026-04-20T11:43:46.001Z</time></trkpt><trkpt lat="43.75684465712284" lon="12.190855270914646"><ele>539.6</ele><time>2026-04-20T11:43:48.001Z</time></trkpt><trkpt lat="43.75679373986343" lon="12.190706675449976"><ele>539.4</ele><time>2026-04-20T11:43:50.001Z</time></trkpt><trkpt lat="43.75673512636131" lon="12.190592239868899"><ele>539.2</ele><time>2026-04-20T11:43:51.001Z</time></trkpt><trkpt lat="43.75666597880172" lon="12.19049856791568"><ele>539.0</ele><time>2026-04-20T11:43:52.001Z</time></trkpt><trkpt lat="43.756556432444974" lon="12.190442415414012"><ele>543.0</ele><time>2026-04-20T11:43:53.001Z</time></trkpt><trkpt lat="43.75643718029822" lon="12.190393193306344"><ele>547.0</ele><time>2026-04-20T11:43:54.001Z</time></trkpt><trkpt lat="43.756341977807374" lon="12.19030147287781"><ele>551.0</ele><time>2026-04-20T11:43:55.001Z</time></trkpt><trkpt lat="43.7562723823646" lon="12.190234500869495"><ele>555.0</ele><time>2026-04-20T11:43:56.001Z</time></trkpt><trkpt lat="43.75622079508521" lon="12.190163541373153"><ele>559.0</ele><time>2026-04-20T11:43:57.001Z</time></trkpt><trkpt lat="43.75620007659864" lon="12.189990538871589"><ele>559.0</ele><time>2026-04-20T11:43:59.001Z</time></trkpt><trkpt lat="43.75618732140279" lon="12.189868535883136"><ele>559.0</ele><time>2026-04-20T11:44:00.001Z</time></trkpt><trkpt lat="43.75617002248296" lon="12.189734825438114"><ele>559.0</ele><time>2026-04-20T11:44:01.001Z</time></trkpt><trkpt lat="43.75613028186306" lon="12.189607413391714"><ele>559.0</ele><time>2026-04-20T11:44:02.001Z</time></trkpt><trkpt lat="43.75606845073788" lon="12.189502282198296"><ele>559.0</ele><time>2026-04-20T11:44:03.001Z</time></trkpt><trkpt lat="43.7559927479998" lon="12.189398394891597"><ele>556.8</ele><time>2026-04-20T11:44:04.001Z</time></trkpt><trkpt lat="43.75591397264432" lon="12.18928441549781"><ele>554.5999999999999</ele><time>2026-04-20T11:44:05.001Z</time></trkpt><trkpt lat="43.75583493344231" lon="12.189188657183458"><ele>552.4</ele><time>2026-04-20T11:44:06.001Z</time></trkpt><trkpt lat="43.75576552333614" lon="12.1891053651398"><ele>550.1999999999999</ele><time>2026-04-20T11:44:07.001Z</time></trkpt><trkpt lat="43.75568980454878" lon="12.189052648446788"><ele>548.0</ele><time>2026-04-20T11:44:08.001Z</time></trkpt><trkpt lat="43.75555971468203" lon="12.189058263840286"><ele>548.0</ele><time>2026-04-20T11:44:10.001Z</time></trkpt><trkpt lat="43.75548016764574" lon="12.18910554221219"><ele>548.0</ele><time>2026-04-20T11:44:11.001Z</time></trkpt><trkpt lat="43.75542840327618" lon="12.18925494122602"><ele>548.0</ele><time>2026-04-20T11:44:12.001Z</time></trkpt><trkpt lat="43.75534218312475" lon="12.189325102769256"><ele>548.0</ele><time>2026-04-20T11:44:13.001Z</time></trkpt><trkpt lat="43.75525187566991" lon="12.189348996709196"><ele>548.0</ele><time>2026-04-20T11:44:14.001Z</time></trkpt><trkpt lat="43.75519254532943" lon="12.189395837059843"><ele>549.25</ele><time>2026-04-20T11:44:15.001Z</time></trkpt><trkpt lat="43.755129229386924" lon="12.189467482313727"><ele>550.5</ele><time>2026-04-20T11:44:16.001Z</time></trkpt><trkpt lat="43.755054886707995" lon="12.189626824126515"><ele>551.75</ele><time>2026-04-20T11:44:17.001Z</time></trkpt><trkpt lat="43.75499828613969" lon="12.189791010930918"><ele>553.0</ele><time>2026-04-20T11:44:18.001Z</time></trkpt><trkpt lat="43.75495926317395" lon="12.189954831469688"><ele>549.1999999999999</ele><time>2026-04-20T11:44:19.001Z</time></trkpt><trkpt lat="43.75495756311337" lon="12.190120739657743"><ele>545.4</ele><time>2026-04-20T11:44:20.001Z</time></trkpt><trkpt lat="43.754933089895964" lon="12.19025581826449"><ele>541.5999999999999</ele><time>2026-04-20T11:44:21.001Z</time></trkpt><trkpt lat="43.75489367163995" lon="12.190378456203408"><ele>537.8</ele><time>2026-04-20T11:44:22.001Z</time></trkpt><trkpt lat="43.754869167693045" lon="12.19053192055311"><ele>534.0</ele><time>2026-04-20T11:44:23.001Z</time></trkpt><trkpt lat="43.75488559499983" lon="12.190694281511197"><ele>531.4</ele><time>2026-04-20T11:44:24.001Z</time></trkpt><trkpt lat="43.754906743737415" lon="12.19083868685461"><ele>528.8</ele><time>2026-04-20T11:44:25.001Z</time></trkpt><trkpt lat="43.754917507906576" lon="12.190972233248"><ele>526.2</ele><time>2026-04-20T11:44:26.001Z</time></trkpt><trkpt lat="43.75493489206946" lon="12.191111723789579"><ele>523.6</ele><time>2026-04-20T11:44:27.001Z</time></trkpt><trkpt lat="43.75494708518568" lon="12.191237803169122"><ele>521.0</ele><time>2026-04-20T11:44:28.001Z</time></trkpt><trkpt lat="43.754946042256165" lon="12.191342908592555"><ele>521.0</ele><time>2026-04-20T11:44:29.001Z</time></trkpt><trkpt lat="43.754881213556274" lon="12.191468843852666"><ele>521.0</ele><time>2026-04-20T11:44:31.001Z</time></trkpt><trkpt lat="43.754826212596974" lon="12.191518873012729"><ele>521.0</ele><time>2026-04-20T11:44:32.001Z</time></trkpt><trkpt lat="43.75475225951919" lon="12.191552329045209"><ele>521.0</ele><time>2026-04-20T11:44:33.001Z</time></trkpt><trkpt lat="43.75465844527566" lon="12.191608016410756"><ele>521.0</ele><time>2026-04-20T11:44:34.001Z</time></trkpt><trkpt lat="43.75457545403766" lon="12.191665267234773"><ele>517.0</ele><time>2026-04-20T11:44:35.001Z</time></trkpt><trkpt lat="43.75451874564154" lon="12.191754105871368"><ele>513.0</ele><time>2026-04-20T11:44:36.001Z</time></trkpt><trkpt lat="43.754498974513304" lon="12.191889733828859"><ele>509.0</ele><time>2026-04-20T11:44:37.001Z</time></trkpt><trkpt lat="43.754508112386354" lon="12.19204006085316"><ele>505.0</ele><time>2026-04-20T11:44:38.001Z</time></trkpt><trkpt lat="43.754511850799446" lon="12.192217612055172"><ele>501.0</ele><time>2026-04-20T11:44:39.001Z</time></trkpt><trkpt lat="43.7545026360986" lon="12.192322770797825"><ele>504.6</ele><time>2026-04-20T11:44:40.001Z</time></trkpt><trkpt lat="43.754460109629136" lon="12.192407884368981"><ele>508.20000000000005</ele><time>2026-04-20T11:44:41.001Z</time></trkpt><trkpt lat="43.754391067370996" lon="12.192522778250224"><ele>511.79999999999995</ele><time>2026-04-20T11:44:42.001Z</time></trkpt><trkpt lat="43.75430405561327" lon="12.192628183195401"><ele>515.4</ele><time>2026-04-20T11:44:43.001Z</time></trkpt><trkpt lat="43.75420219551086" lon="12.192762267168183"><ele>519.0</ele><time>2026-04-20T11:44:44.001Z</time></trkpt><trkpt lat="43.75414815573923" lon="12.192842162521762"><ele>519.0</ele><time>2026-04-20T11:44:45.001Z</time></trkpt><trkpt lat="43.75409312127334" lon="12.192919143871748"><ele>519.0</ele><time>2026-04-20T11:44:46.001Z</time></trkpt><trkpt lat="43.75403269345107" lon="12.193003669307506"><ele>519.0</ele><time>2026-04-20T11:44:47.001Z</time></trkpt><trkpt lat="43.75397446870563" lon="12.193056072456024"><ele>519.0</ele><time>2026-04-20T11:44:48.001Z</time></trkpt><trkpt lat="43.753857903159194" lon="12.193079407554379"><ele>519.0</ele><time>2026-04-20T11:44:50.001Z</time></trkpt><trkpt lat="43.75378466086407" lon="12.193063130351161"><ele>519.0</ele><time>2026-04-20T11:44:51.001Z</time></trkpt><trkpt lat="43.75371891647689" lon="12.193026277006812"><ele>519.0</ele><time>2026-04-20T11:44:52.001Z</time></trkpt><trkpt lat="43.75365379767531" lon="12.193008451169703"><ele>519.0</ele><time>2026-04-20T11:44:53.001Z</time></trkpt><trkpt lat="43.753577192168706" lon="12.19301292402602"><ele>519.0</ele><time>2026-04-20T11:44:54.001Z</time></trkpt><trkpt lat="43.75350945858053" lon="12.193063434380061"><ele>519.0</ele><time>2026-04-20T11:44:55.001Z</time></trkpt><trkpt lat="43.75344353809783" lon="12.193118671505596"><ele>519.0</ele><time>2026-04-20T11:44:56.001Z</time></trkpt><trkpt lat="43.75337692432209" lon="12.193162448671691"><ele>519.0</ele><time>2026-04-20T11:44:57.001Z</time></trkpt><trkpt lat="43.75329664911758" lon="12.193205248977899"><ele>520.0</ele><time>2026-04-20T11:44:58.001Z</time></trkpt><trkpt lat="43.753228495761256" lon="12.19322268198263"><ele>521.0</ele><time>2026-04-20T11:44:59.001Z</time></trkpt><trkpt lat="43.753163217258084" lon="12.193222529984348"><ele>522.0</ele><time>2026-04-20T11:45:00.001Z</time></trkpt><trkpt lat="43.75309371920326" lon="12.193202055718045"><ele>523.0</ele><time>2026-04-20T11:45:02.001Z</time></trkpt><trkpt lat="43.753014809659305" lon="12.193169679652318"><ele>524.0</ele><time>2026-04-20T11:45:05.001Z</time></trkpt><trkpt lat="43.75291530545907" lon="12.193120310856713"><ele>525.0</ele><time>2026-04-20T11:45:07.001Z</time></trkpt><trkpt lat="43.75281065521588" lon="12.193077024007781"><ele>520.0</ele><time>2026-04-20T11:45:09.001Z</time></trkpt><trkpt lat="43.75269690476975" lon="12.193045438083395"><ele>515.0</ele><time>2026-04-20T11:45:11.001Z</time></trkpt><trkpt lat="43.75256158984399" lon="12.193050973566162"><ele>510.0</ele><time>2026-04-20T11:45:13.001Z</time></trkpt><trkpt lat="43.75243290182434" lon="12.193075460250332"><ele>505.0</ele><time>2026-04-20T11:45:15.001Z</time></trkpt><trkpt lat="43.7523615286437" lon="12.193090019369501"><ele>505.0</ele><time>2026-04-20T11:45:16.001Z</time></trkpt><trkpt lat="43.75223679581118" lon="12.193104910633956"><ele>505.0</ele><time>2026-04-20T11:45:18.001Z</time></trkpt><trkpt lat="43.75212185062382" lon="12.19312696081857"><ele>505.0</ele><time>2026-04-20T11:45:20.001Z</time></trkpt><trkpt lat="43.752040372976566" lon="12.193116163832492"><ele>505.0</ele><time>2026-04-20T11:45:22.001Z</time></trkpt><trkpt lat="43.75195724427023" lon="12.19312254553873"><ele>505.0</ele><time>2026-04-20T11:45:24.001Z</time></trkpt><trkpt lat="43.75184407859213" lon="12.19312679398377"><ele>501.6</ele><time>2026-04-20T11:45:26.001Z</time></trkpt><trkpt lat="43.75176546601546" lon="12.193131672663595"><ele>498.2</ele><time>2026-04-20T11:45:27.001Z</time></trkpt><trkpt lat="43.751677827107024" lon="12.193148409679365"><ele>494.79999999999995</ele><time>2026-04-20T11:45:28.001Z</time></trkpt><trkpt lat="43.75158356732553" lon="12.193166074542598"><ele>491.4</ele><time>2026-04-20T11:45:29.001Z</time></trkpt><trkpt lat="43.75149114495667" lon="12.193191859771433"><ele>488.0</ele><time>2026-04-20T11:45:30.001Z</time></trkpt><trkpt lat="43.751390855504624" lon="12.193224712335578"><ele>488.2</ele><time>2026-04-20T11:45:31.001Z</time></trkpt><trkpt lat="43.751298579316405" lon="12.193256454946358"><ele>488.4</ele><time>2026-04-20T11:45:32.001Z</time></trkpt><trkpt lat="43.751202535453125" lon="12.19329964971766"><ele>488.59999999999997</ele><time>2026-04-20T11:45:33.001Z</time></trkpt><trkpt lat="43.751127639818414" lon="12.193319050515285"><ele>488.79999999999995</ele><time>2026-04-20T11:45:34.001Z</time></trkpt><trkpt lat="43.7509939612668" lon="12.19328023409959"><ele>489.0</ele><time>2026-04-20T11:45:36.001Z</time></trkpt><trkpt lat="43.7509181818013" lon="12.193234066771895"><ele>489.0</ele><time>2026-04-20T11:45:37.001Z</time></trkpt><trkpt lat="43.75085365360548" lon="12.193176916752394"><ele>489.0</ele><time>2026-04-20T11:45:38.001Z</time></trkpt><trkpt lat="43.75081639479544" lon="12.193081744153991"><ele>489.0</ele><time>2026-04-20T11:45:39.001Z</time></trkpt><trkpt lat="43.750742620598274" lon="12.193000116423146"><ele>489.0</ele><time>2026-04-20T11:45:41.001Z</time></trkpt><trkpt lat="43.750655903325416" lon="12.193083292639098"><ele>489.0</ele><time>2026-04-20T11:45:43.001Z</time></trkpt><trkpt lat="43.750645324265356" lon="12.193176664868119"><ele>489.0</ele><time>2026-04-20T11:45:44.001Z</time></trkpt><trkpt lat="43.75068619378149" lon="12.193260674906966"><ele>489.0</ele><time>2026-04-20T11:45:45.001Z</time></trkpt><trkpt lat="43.750736482977665" lon="12.193339293501671"><ele>489.0</ele><time>2026-04-20T11:45:46.001Z</time></trkpt><trkpt lat="43.75083667817928" lon="12.193433618322615"><ele>489.0</ele><time>2026-04-20T11:45:47.001Z</time></trkpt><trkpt lat="43.750884958476945" lon="12.193535188770635"><ele>489.0</ele><time>2026-04-20T11:45:48.001Z</time></trkpt><trkpt lat="43.75092211754734" lon="12.193660868200869"><ele>489.0</ele><time>2026-04-20T11:45:50.001Z</time></trkpt><trkpt lat="43.750811325880086" lon="12.193713953940065"><ele>489.0</ele><time>2026-04-20T11:45:52.001Z</time></trkpt><trkpt lat="43.7507423147927" lon="12.193698113777499"><ele>489.0</ele><time>2026-04-20T11:45:53.001Z</time></trkpt><trkpt lat="43.7506638530184" lon="12.193652840941068"><ele>489.0</ele><time>2026-04-20T11:45:54.001Z</time></trkpt><trkpt lat="43.750546061502746" lon="12.193622461415071"><ele>489.0</ele><time>2026-04-20T11:45:55.001Z</time></trkpt><trkpt lat="43.750395945153464" lon="12.193597300433733"><ele>489.0</ele><time>2026-04-20T11:45:56.001Z</time></trkpt><trkpt lat="43.750269671389354" lon="12.193612552402666"><ele>495.75</ele><time>2026-04-20T11:45:57.001Z</time></trkpt><trkpt lat="43.75015497419707" lon="12.193648976726761"><ele>502.5</ele><time>2026-04-20T11:45:58.001Z</time></trkpt><trkpt lat="43.75003457819122" lon="12.19372734692272"><ele>509.25</ele><time>2026-04-20T11:45:59.001Z</time></trkpt><trkpt lat="43.749923409612485" lon="12.193816695654727"><ele>516.0</ele><time>2026-04-20T11:46:00.001Z</time></trkpt><trkpt lat="43.74980477053992" lon="12.193912967507378"><ele>516.0</ele><time>2026-04-20T11:46:01.001Z</time></trkpt><trkpt lat="43.7497056545891" lon="12.193997028787674"><ele>516.0</ele><time>2026-04-20T11:46:02.001Z</time></trkpt><trkpt lat="43.74961350021292" lon="12.194071382637727"><ele>516.0</ele><time>2026-04-20T11:46:03.001Z</time></trkpt><trkpt lat="43.74950850382337" lon="12.194156053140201"><ele>516.0</ele><time>2026-04-20T11:46:04.001Z</time></trkpt><trkpt lat="43.749398565340876" lon="12.19426819642555"><ele>520.0</ele><time>2026-04-20T11:46:05.001Z</time></trkpt><trkpt lat="43.749291976115934" lon="12.194370096633964"><ele>524.0</ele><time>2026-04-20T11:46:06.001Z</time></trkpt><trkpt lat="43.749193865729104" lon="12.194441925550393"><ele>528.0</ele><time>2026-04-20T11:46:07.001Z</time></trkpt><trkpt lat="43.74909988448551" lon="12.194529139094861"><ele>532.0</ele><time>2026-04-20T11:46:08.001Z</time></trkpt><trkpt lat="43.748988297103395" lon="12.194563461991695"><ele>532.0</ele><time>2026-04-20T11:46:09.001Z</time></trkpt><trkpt lat="43.74887816303111" lon="12.194657672828416"><ele>532.0</ele><time>2026-04-20T11:46:10.001Z</time></trkpt><trkpt lat="43.74876779562662" lon="12.194716253655406"><ele>532.0</ele><time>2026-04-20T11:46:11.001Z</time></trkpt><trkpt lat="43.74863294187218" lon="12.194761335769387"><ele>532.0</ele><time>2026-04-20T11:46:12.001Z</time></trkpt><trkpt lat="43.748498730641494" lon="12.194829821035501"><ele>530.6</ele><time>2026-04-20T11:46:13.001Z</time></trkpt><trkpt lat="43.74840177369023" lon="12.194866202128779"><ele>529.2</ele><time>2026-04-20T11:46:14.001Z</time></trkpt><trkpt lat="43.74831883342868" lon="12.194907015236586"><ele>527.8</ele><time>2026-04-20T11:46:15.001Z</time></trkpt><trkpt lat="43.74823561902013" lon="12.19491634158001"><ele>526.4</ele><time>2026-04-20T11:46:16.001Z</time></trkpt><trkpt lat="43.74812938469158" lon="12.194897661149334"><ele>525.0</ele><time>2026-04-20T11:46:18.001Z</time></trkpt><trkpt lat="43.74806392590127" lon="12.194859313803036"><ele>532.5</ele><time>2026-04-20T11:46:20.001Z</time></trkpt><trkpt lat="43.74796450292831" lon="12.194790352919123"><ele>540.0</ele><time>2026-04-20T11:46:22.001Z</time></trkpt><trkpt lat="43.74789748258038" lon="12.194749816384627"><ele>547.5</ele><time>2026-04-20T11:46:23.001Z</time></trkpt><trkpt lat="43.747825390000294" lon="12.194729232757247"><ele>555.0</ele><time>2026-04-20T11:46:24.001Z</time></trkpt><trkpt lat="43.74773044998034" lon="12.194742857260323"><ele>562.5</ele><time>2026-04-20T11:46:25.001Z</time></trkpt><trkpt lat="43.747647836722116" lon="12.194724479271208"><ele>570.0</ele><time>2026-04-20T11:46:26.001Z</time></trkpt><trkpt lat="43.74754991042637" lon="12.194701840338567"><ele>570.0</ele><time>2026-04-20T11:46:27.001Z</time></trkpt><trkpt lat="43.74744583631903" lon="12.194668316684902"><ele>570.0</ele><time>2026-04-20T11:46:28.001Z</time></trkpt><trkpt lat="43.747351263392964" lon="12.19462716822525"><ele>570.0</ele><time>2026-04-20T11:46:29.001Z</time></trkpt><trkpt lat="43.74724671625894" lon="12.19457448142481"><ele>570.0</ele><time>2026-04-20T11:46:30.001Z</time></trkpt><trkpt lat="43.7471617798099" lon="12.194528516036002"><ele>570.0</ele><time>2026-04-20T11:46:31.001Z</time></trkpt><trkpt lat="43.747081644375356" lon="12.194479631559341"><ele>570.0</ele><time>2026-04-20T11:46:32.001Z</time></trkpt><trkpt lat="43.746984339629336" lon="12.19442181381446"><ele>570.0</ele><time>2026-04-20T11:46:33.001Z</time></trkpt><trkpt lat="43.746902443401744" lon="12.194345237816599"><ele>570.0</ele><time>2026-04-20T11:46:34.001Z</time></trkpt><trkpt lat="43.74681361323659" lon="12.194238879331694"><ele>570.0</ele><time>2026-04-20T11:46:35.001Z</time></trkpt><trkpt lat="43.746719173408096" lon="12.194141620947066"><ele>570.0</ele><time>2026-04-20T11:46:36.001Z</time></trkpt><trkpt lat="43.7466217051192" lon="12.194035463021917"><ele>570.75</ele><time>2026-04-20T11:46:37.001Z</time></trkpt><trkpt lat="43.746517245521495" lon="12.193932644175936"><ele>571.5</ele><time>2026-04-20T11:46:38.001Z</time></trkpt><trkpt lat="43.746419500292916" lon="12.193830571440781"><ele>572.25</ele><time>2026-04-20T11:46:39.001Z</time></trkpt><trkpt lat="43.74632395817962" lon="12.19374007169388"><ele>573.0</ele><time>2026-04-20T11:46:40.001Z</time></trkpt><trkpt lat="43.74622951717677" lon="12.193638106959114"><ele>573.0</ele><time>2026-04-20T11:46:41.001Z</time></trkpt><trkpt lat="43.74609894855383" lon="12.193570573982372"><ele>573.0</ele><time>2026-04-20T11:46:42.001Z</time></trkpt><trkpt lat="43.74596463751285" lon="12.193549584180039"><ele>573.0</ele><time>2026-04-20T11:46:43.001Z</time></trkpt><trkpt lat="43.74582076349638" lon="12.193524378496226"><ele>573.0</ele><time>2026-04-20T11:46:44.001Z</time></trkpt><trkpt lat="43.74568127262642" lon="12.193506816729476"><ele>572.0</ele><time>2026-04-20T11:46:45.001Z</time></trkpt><trkpt lat="43.74554411092923" lon="12.193483103929552"><ele>571.0</ele><time>2026-04-20T11:46:46.001Z</time></trkpt><trkpt lat="43.74526416119915" lon="12.193451405066984"><ele>570.0</ele><time>2026-04-20T11:46:48.001Z</time></trkpt><trkpt lat="43.745115428414906" lon="12.193460837970832"><ele>570.0</ele><time>2026-04-20T11:46:49.001Z</time></trkpt><trkpt lat="43.74497829420122" lon="12.193431273014172"><ele>570.0</ele><time>2026-04-20T11:46:50.001Z</time></trkpt><trkpt lat="43.74484883249744" lon="12.193445075905013"><ele>570.0</ele><time>2026-04-20T11:46:51.001Z</time></trkpt><trkpt lat="43.74473369670649" lon="12.19343024151183"><ele>570.0</ele><time>2026-04-20T11:46:52.001Z</time></trkpt><trkpt lat="43.7446273185785" lon="12.193433026093764"><ele>570.0</ele><time>2026-04-20T11:46:53.001Z</time></trkpt><trkpt lat="43.744534219725736" lon="12.19340657766135"><ele>570.0</ele><time>2026-04-20T11:46:54.001Z</time></trkpt><trkpt lat="43.74444119498898" lon="12.193389189233873"><ele>570.0</ele><time>2026-04-20T11:46:55.001Z</time></trkpt><trkpt lat="43.74435194256515" lon="12.193367407961327"><ele>570.0</ele><time>2026-04-20T11:46:56.001Z</time></trkpt><trkpt lat="43.744272843829485" lon="12.193345734883248"><ele>570.0</ele><time>2026-04-20T11:46:57.001Z</time></trkpt><trkpt lat="43.74418177131763" lon="12.19334056190422"><ele>571.0</ele><time>2026-04-20T11:46:58.001Z</time></trkpt><trkpt lat="43.74407399018243" lon="12.193284028744728"><ele>572.0</ele><time>2026-04-20T11:46:59.001Z</time></trkpt><trkpt lat="43.743954261758276" lon="12.193242912046015"><ele>573.0</ele><time>2026-04-20T11:47:00.001Z</time></trkpt><trkpt lat="43.7438429535423" lon="12.193207348435228"><ele>574.0</ele><time>2026-04-20T11:47:01.001Z</time></trkpt><trkpt lat="43.743763306048336" lon="12.193188055649891"><ele>575.0</ele><time>2026-04-20T11:47:02.001Z</time></trkpt><trkpt lat="43.743680611945706" lon="12.19321299747838"><ele>575.0</ele><time>2026-04-20T11:47:03.001Z</time></trkpt><trkpt lat="43.743596512644956" lon="12.193267083863386"><ele>575.0</ele><time>2026-04-20T11:47:04.001Z</time></trkpt><trkpt lat="43.74353847728633" lon="12.193395677684103"><ele>575.0</ele><time>2026-04-20T11:47:05.001Z</time></trkpt><trkpt lat="43.74349657067888" lon="12.193528375142257"><ele>575.0</ele><time>2026-04-20T11:47:06.001Z</time></trkpt><trkpt lat="43.74343621597297" lon="12.19368993396115"><ele>575.0</ele><time>2026-04-20T11:47:07.001Z</time></trkpt><trkpt lat="43.74336924152699" lon="12.193840263206436"><ele>576.5</ele><time>2026-04-20T11:47:08.001Z</time></trkpt><trkpt lat="43.74328824071978" lon="12.19400789584071"><ele>578.0</ele><time>2026-04-20T11:47:09.001Z</time></trkpt><trkpt lat="43.743216867802374" lon="12.194144217249496"><ele>579.5</ele><time>2026-04-20T11:47:10.001Z</time></trkpt><trkpt lat="43.743153222859135" lon="12.19426459350573"><ele>581.0</ele><time>2026-04-20T11:47:11.001Z</time></trkpt><trkpt lat="43.74309286568409" lon="12.194356427014814"><ele>581.0</ele><time>2026-04-20T11:47:12.001Z</time></trkpt><trkpt lat="43.743021423035316" lon="12.194422967467718"><ele>581.0</ele><time>2026-04-20T11:47:13.001Z</time></trkpt><trkpt lat="43.74293742680339" lon="12.194469433159947"><ele>581.0</ele><time>2026-04-20T11:47:14.001Z</time></trkpt><trkpt lat="43.74284955493435" lon="12.194493209392986"><ele>581.0</ele><time>2026-04-20T11:47:15.001Z</time></trkpt><trkpt lat="43.74267974820231" lon="12.194570496032593"><ele>581.0</ele><time>2026-04-20T11:47:17.001Z</time></trkpt><trkpt lat="43.742583585165725" lon="12.194603751481175"><ele>584.6</ele><time>2026-04-20T11:47:18.001Z</time></trkpt><trkpt lat="43.74250359128093" lon="12.194646875048697"><ele>588.2</ele><time>2026-04-20T11:47:19.001Z</time></trkpt><trkpt lat="43.742414278252475" lon="12.194690584562442"><ele>591.8</ele><time>2026-04-20T11:47:20.001Z</time></trkpt><trkpt lat="43.74232249649563" lon="12.194736724870829"><ele>595.4</ele><time>2026-04-20T11:47:21.001Z</time></trkpt><trkpt lat="43.742229831025526" lon="12.194784234363715"><ele>599.0</ele><time>2026-04-20T11:47:22.001Z</time></trkpt><trkpt lat="43.74214606688053" lon="12.194830440023548"><ele>599.8333333333333</ele><time>2026-04-20T11:47:23.001Z</time></trkpt><trkpt lat="43.7420812477321" lon="12.194862651153846"><ele>600.6666666666666</ele><time>2026-04-20T11:47:24.001Z</time></trkpt><trkpt lat="43.74199338005749" lon="12.194904652149102"><ele>601.5</ele><time>2026-04-20T11:47:26.001Z</time></trkpt><trkpt lat="43.74192518661213" lon="12.194949406699612"><ele>602.3333333333334</ele><time>2026-04-20T11:47:32.001Z</time></trkpt><trkpt lat="43.7418644889312" lon="12.194975420373895"><ele>603.1666666666667</ele><time>2026-04-20T11:47:37.001Z</time></trkpt><trkpt lat="43.74175666437416" lon="12.195057990044125"><ele>604.0</ele><time>2026-04-20T11:47:39.001Z</time></trkpt><trkpt lat="43.741656215448465" lon="12.195164069689291"><ele>604.0</ele><time>2026-04-20T11:47:41.001Z</time></trkpt><trkpt lat="43.74158120063581" lon="12.195220464673577"><ele>604.0</ele><time>2026-04-20T11:47:42.001Z</time></trkpt><trkpt lat="43.74150813139484" lon="12.195279367246883"><ele>604.0</ele><time>2026-04-20T11:47:43.001Z</time></trkpt><trkpt lat="43.74142346113569" lon="12.195322623520507"><ele>604.0</ele><time>2026-04-20T11:47:44.001Z</time></trkpt><trkpt lat="43.741355306495905" lon="12.195393145110305"><ele>604.0</ele><time>2026-04-20T11:47:46.001Z</time></trkpt><trkpt lat="43.74127121757266" lon="12.195422566333248"><ele>604.0</ele><time>2026-04-20T11:47:59.001Z</time></trkpt><trkpt lat="43.741173670904345" lon="12.195367407131993"><ele>604.0</ele><time>2026-04-20T11:48:01.001Z</time></trkpt><trkpt lat="43.741155769034194" lon="12.19525989122328"><ele>604.0</ele><time>2026-04-20T11:48:02.001Z</time></trkpt><trkpt lat="43.741120058022986" lon="12.195115674124535"><ele>604.0</ele><time>2026-04-20T11:48:03.001Z</time></trkpt><trkpt lat="43.74108135103928" lon="12.194958913039995"><ele>604.0</ele><time>2026-04-20T11:48:04.001Z</time></trkpt><trkpt lat="43.74102903438151" lon="12.19481086173539"><ele>604.0</ele><time>2026-04-20T11:48:05.001Z</time></trkpt><trkpt lat="43.7409909578022" lon="12.194648901915784"><ele>602.75</ele><time>2026-04-20T11:48:06.001Z</time></trkpt><trkpt lat="43.74095285760887" lon="12.194502420897981"><ele>601.5</ele><time>2026-04-20T11:48:07.001Z</time></trkpt><trkpt lat="43.74094460986539" lon="12.19435026836472"><ele>600.25</ele><time>2026-04-20T11:48:08.001Z</time></trkpt><trkpt lat="43.740935981971624" lon="12.194188084202734"><ele>599.0</ele><time>2026-04-20T11:48:09.001Z</time></trkpt><trkpt lat="43.740939542016896" lon="12.194008487324487"><ele>600.0</ele><time>2026-04-20T11:48:10.001Z</time></trkpt><trkpt lat="43.74094464306376" lon="12.193824479810951"><ele>601.0</ele><time>2026-04-20T11:48:11.001Z</time></trkpt><trkpt lat="43.74095177663269" lon="12.19364144948416"><ele>602.0</ele><time>2026-04-20T11:48:12.001Z</time></trkpt><trkpt lat="43.74095852138947" lon="12.193468394938984"><ele>603.0</ele><time>2026-04-20T11:48:13.001Z</time></trkpt><trkpt lat="43.74096391553319" lon="12.193323195926146"><ele>603.0</ele><time>2026-04-20T11:48:14.001Z</time></trkpt><trkpt lat="43.74096641135397" lon="12.193181451978374"><ele>603.0</ele><time>2026-04-20T11:48:15.001Z</time></trkpt><trkpt lat="43.74095630701095" lon="12.19305614956023"><ele>603.0</ele><time>2026-04-20T11:48:16.001Z</time></trkpt><trkpt lat="43.740942657779804" lon="12.19294378312894"><ele>603.0</ele><time>2026-04-20T11:48:17.001Z</time></trkpt><trkpt lat="43.74092801714097" lon="12.192840870352684"><ele>603.0</ele><time>2026-04-20T11:48:18.001Z</time></trkpt><trkpt lat="43.74091468614421" lon="12.192749555596526"><ele>603.0</ele><time>2026-04-20T11:48:19.001Z</time></trkpt><trkpt lat="43.740893518091994" lon="12.192657285576262"><ele>605.3333333333334</ele><time>2026-04-20T11:48:20.001Z</time></trkpt><trkpt lat="43.74085536785842" lon="12.192568244919249"><ele>607.6666666666666</ele><time>2026-04-20T11:48:21.001Z</time></trkpt><trkpt lat="43.74080263438774" lon="12.192478034752126"><ele>610.0</ele><time>2026-04-20T11:48:22.001Z</time></trkpt><trkpt lat="43.74072309649528" lon="12.192409580088716"><ele>612.3333333333333</ele><time>2026-04-20T11:48:23.001Z</time></trkpt><trkpt lat="43.74064159582128" lon="12.192332095282016"><ele>614.6666666666666</ele><time>2026-04-20T11:48:24.001Z</time></trkpt><trkpt lat="43.740561363094365" lon="12.192256606633466"><ele>617.0</ele><time>2026-04-20T11:48:25.001Z</time></trkpt><trkpt lat="43.74048251196231" lon="12.1921989192425"><ele>617.0</ele><time>2026-04-20T11:48:26.001Z</time></trkpt><trkpt lat="43.74037242947645" lon="12.192196687085351"><ele>617.0</ele><time>2026-04-20T11:48:28.001Z</time></trkpt><trkpt lat="43.74032469602865" lon="12.192268428203679"><ele>617.0</ele><time>2026-04-20T11:48:29.001Z</time></trkpt><trkpt lat="43.74025192376201" lon="12.192329194619164"><ele>617.0</ele><time>2026-04-20T11:48:30Z</time></trkpt><trkpt lat="43.740179043183936" lon="12.192412141492005"><ele>617.0</ele><time>2026-04-20T11:48:31Z</time></trkpt><trkpt lat="43.740086501863885" lon="12.192489069531776"><ele>617.0</ele><time>2026-04-20T11:48:32Z</time></trkpt><trkpt lat="43.739989074935394" lon="12.192557043447591"><ele>617.0</ele><time>2026-04-20T11:48:33Z</time></trkpt><trkpt lat="43.73988461229472" lon="12.192629332060392"><ele>617.0</ele><time>2026-04-20T11:48:34Z</time></trkpt><trkpt lat="43.7397797874132" lon="12.192711895890753"><ele>617.0</ele><time>2026-04-20T11:48:35Z</time></trkpt><trkpt lat="43.739676498963426" lon="12.192816226315248"><ele>617.0</ele><time>2026-04-20T11:48:36Z</time></trkpt><trkpt lat="43.73956978612369" lon="12.192928617281959"><ele>617.0</ele><time>2026-04-20T11:48:37Z</time></trkpt><trkpt lat="43.73946115240634" lon="12.19304485282199"><ele>617.0</ele><time>2026-04-20T11:48:38Z</time></trkpt><trkpt lat="43.73936048932319" lon="12.193152559826844"><ele>617.0</ele><time>2026-04-20T11:48:39Z</time></trkpt><trkpt lat="43.73926922470083" lon="12.193244906958244"><ele>614.1666666666666</ele><time>2026-04-20T11:48:40Z</time></trkpt><trkpt lat="43.73919066859704" lon="12.193326611444347"><ele>611.3333333333333</ele><time>2026-04-20T11:48:41Z</time></trkpt><trkpt lat="43.73911668449556" lon="12.193398711494458"><ele>608.5</ele><time>2026-04-20T11:48:42Z</time></trkpt><trkpt lat="43.739061166379514" lon="12.19346184612162"><ele>605.6666666666666</ele><time>2026-04-20T11:48:43Z</time></trkpt><trkpt lat="43.73899596062404" lon="12.193481801396782"><ele>602.8333333333334</ele><time>2026-04-20T11:48:44Z</time></trkpt><trkpt lat="43.738935983202346" lon="12.193441172675369"><ele>600.0</ele><time>2026-04-20T11:48:45Z</time></trkpt><trkpt lat="43.73889264652305" lon="12.19337566151856"><ele>600.0</ele><time>2026-04-20T11:48:46Z</time></trkpt><trkpt lat="43.73887779977736" lon="12.193240114057009"><ele>600.0</ele><time>2026-04-20T11:48:47Z</time></trkpt><trkpt lat="43.73886743594171" lon="12.193075252795191"><ele>600.0</ele><time>2026-04-20T11:48:48Z</time></trkpt><trkpt lat="43.73884750019056" lon="12.192882034625713"><ele>600.0</ele><time>2026-04-20T11:48:49Z</time></trkpt><trkpt lat="43.7387961748834" lon="12.192688918389406"><ele>606.5</ele><time>2026-04-20T11:48:50Z</time></trkpt><trkpt lat="43.73873855318034" lon="12.192513812886325"><ele>613.0</ele><time>2026-04-20T11:48:51Z</time></trkpt><trkpt lat="43.738677755565654" lon="12.192371157921857"><ele>619.5</ele><time>2026-04-20T11:48:52Z</time></trkpt><trkpt lat="43.73862230014668" lon="12.192228787019777"><ele>626.0</ele><time>2026-04-20T11:48:53Z</time></trkpt><trkpt lat="43.73859650796031" lon="12.192095418536432"><ele>625.5</ele><time>2026-04-20T11:48:54Z</time></trkpt><trkpt lat="43.73855159144402" lon="12.192005179919738"><ele>625.0</ele><time>2026-04-20T11:48:55Z</time></trkpt><trkpt lat="43.738517668134264" lon="12.191931619373234"><ele>624.5</ele><time>2026-04-20T11:48:57Z</time></trkpt><trkpt lat="43.73844298697365" lon="12.19193093573833"><ele>624.0</ele><time>2026-04-20T11:48:58Z</time></trkpt><trkpt lat="43.7383798608673" lon="12.192036538342656"><ele>623.5</ele><time>2026-04-20T11:48:59Z</time></trkpt><trkpt lat="43.73829200455164" lon="12.192094714850183"><ele>623.0</ele><time>2026-04-20T11:49:00Z</time></trkpt><trkpt lat="43.73818761930856" lon="12.192112259359261"><ele>623.0</ele><time>2026-04-20T11:49:01Z</time></trkpt><trkpt lat="43.738087254843244" lon="12.192147396367004"><ele>623.0</ele><time>2026-04-20T11:49:02Z</time></trkpt><trkpt lat="43.73800304216203" lon="12.192159213871852"><ele>623.0</ele><time>2026-04-20T11:49:03Z</time></trkpt><trkpt lat="43.73791029213526" lon="12.192174305636795"><ele>623.0</ele><time>2026-04-20T11:49:04Z</time></trkpt><trkpt lat="43.73780676722007" lon="12.192186392371347"><ele>623.0</ele><time>2026-04-20T11:49:05Z</time></trkpt><trkpt lat="43.73768535421362" lon="12.192218217845763"><ele>623.4</ele><time>2026-04-20T11:49:06Z</time></trkpt><trkpt lat="43.737592607961496" lon="12.192261612792661"><ele>623.8</ele><time>2026-04-20T11:49:07Z</time></trkpt><trkpt lat="43.737491993010856" lon="12.192309420067613"><ele>624.2</ele><time>2026-04-20T11:49:08Z</time></trkpt><trkpt lat="43.7373772236152" lon="12.192355337256972"><ele>624.6</ele><time>2026-04-20T11:49:09Z</time></trkpt><trkpt lat="43.73726962243381" lon="12.19239568017912"><ele>625.0</ele><time>2026-04-20T11:49:10Z</time></trkpt><trkpt lat="43.73713941141285" lon="12.19242816397763"><ele>624.5</ele><time>2026-04-20T11:49:11Z</time></trkpt><trkpt lat="43.73702166378916" lon="12.192488490471762"><ele>624.0</ele><time>2026-04-20T11:49:12Z</time></trkpt><trkpt lat="43.73690155882586" lon="12.192536689331316"><ele>623.5</ele><time>2026-04-20T11:49:13Z</time></trkpt><trkpt lat="43.736780386771365" lon="12.192582597409586"><ele>623.0</ele><time>2026-04-20T11:49:14Z</time></trkpt><trkpt lat="43.73666029682075" lon="12.19264517323458"><ele>623.0</ele><time>2026-04-20T11:49:15Z</time></trkpt><trkpt lat="43.73653035537512" lon="12.192710638799683"><ele>623.0</ele><time>2026-04-20T11:49:16Z</time></trkpt><trkpt lat="43.73640052972383" lon="12.1927757329709"><ele>623.0</ele><time>2026-04-20T11:49:17Z</time></trkpt><trkpt lat="43.73627544856101" lon="12.192839107781083"><ele>623.0</ele><time>2026-04-20T11:49:18Z</time></trkpt><trkpt lat="43.736149009300384" lon="12.19288739050659"><ele>627.5</ele><time>2026-04-20T11:49:19Z</time></trkpt><trkpt lat="43.73602511328011" lon="12.19294154019049"><ele>632.0</ele><time>2026-04-20T11:49:20Z</time></trkpt><trkpt lat="43.73590935743636" lon="12.192991770742275"><ele>636.5</ele><time>2026-04-20T11:49:21Z</time></trkpt><trkpt lat="43.73579825014116" lon="12.1930481114065"><ele>641.0</ele><time>2026-04-20T11:49:22Z</time></trkpt><trkpt lat="43.73569304354704" lon="12.19310955095184"><ele>641.0</ele><time>2026-04-20T11:49:23Z</time></trkpt><trkpt lat="43.73559571954054" lon="12.193166398021862"><ele>641.0</ele><time>2026-04-20T11:49:24Z</time></trkpt><trkpt lat="43.735519709511564" lon="12.193191862967609"><ele>641.0</ele><time>2026-04-20T11:49:25Z</time></trkpt><trkpt lat="43.7354505649694" lon="12.19321657216595"><ele>641.0</ele><time>2026-04-20T11:49:26Z</time></trkpt><trkpt lat="43.73536506794984" lon="12.193165685645607"><ele>641.0</ele><time>2026-04-20T11:49:28Z</time></trkpt><trkpt lat="43.7353877116003" lon="12.193063812349765"><ele>641.0</ele><time>2026-04-20T11:49:29Z</time></trkpt><trkpt lat="43.735458233313956" lon="12.192928774602361"><ele>641.0</ele><time>2026-04-20T11:49:31Z</time></trkpt><trkpt lat="43.73548282090855" lon="12.192812884114682"><ele>641.0</ele><time>2026-04-20T11:49:32Z</time></trkpt><trkpt lat="43.73551959839462" lon="12.192703303776089"><ele>641.0</ele><time>2026-04-20T11:49:33Z</time></trkpt><trkpt lat="43.73554304115867" lon="12.192573480245693"><ele>641.0</ele><time>2026-04-20T11:49:34Z</time></trkpt><trkpt lat="43.73558108323039" lon="12.192441630069489"><ele>641.0</ele><time>2026-04-20T11:49:35Z</time></trkpt><trkpt lat="43.73560918503494" lon="12.192293012407172"><ele>645.5999999999999</ele><time>2026-04-20T11:49:36Z</time></trkpt><trkpt lat="43.73565156279744" lon="12.192156361559762"><ele>650.2</ele><time>2026-04-20T11:49:37Z</time></trkpt><trkpt lat="43.735708834892584" lon="12.192062191240753"><ele>654.8</ele><time>2026-04-20T11:49:38Z</time></trkpt><trkpt lat="43.73577459631671" lon="12.191976342071131"><ele>659.4000000000001</ele><time>2026-04-20T11:49:39Z</time></trkpt><trkpt lat="43.735854453356744" lon="12.191910131314648"><ele>664.0</ele><time>2026-04-20T11:49:40Z</time></trkpt><trkpt lat="43.73593999249346" lon="12.191801874522328"><ele>664.0</ele><time>2026-04-20T11:49:41Z</time></trkpt><trkpt lat="43.736011081982774" lon="12.191715465830688"><ele>664.0</ele><time>2026-04-20T11:49:42Z</time></trkpt><trkpt lat="43.736039821284145" lon="12.19160136079271"><ele>664.0</ele><time>2026-04-20T11:49:44Z</time></trkpt><trkpt lat="43.735936363647205" lon="12.191534236629982"><ele>664.0</ele><time>2026-04-20T11:49:46Z</time></trkpt><trkpt lat="43.73587124393073" lon="12.191618481100928"><ele>664.0</ele><time>2026-04-20T11:49:47Z</time></trkpt><trkpt lat="43.73578051921806" lon="12.191685116343752"><ele>664.0</ele><time>2026-04-20T11:49:48Z</time></trkpt><trkpt lat="43.73570629161905" lon="12.191723712271145"><ele>664.0</ele><time>2026-04-20T11:49:49Z</time></trkpt><trkpt lat="43.73559238153356" lon="12.191735973929488"><ele>664.0</ele><time>2026-04-20T11:49:50Z</time></trkpt><trkpt lat="43.73545385120541" lon="12.191759714569812"><ele>664.0</ele><time>2026-04-20T11:49:51Z</time></trkpt><trkpt lat="43.735339721359416" lon="12.191795719685667"><ele>664.0</ele><time>2026-04-20T11:49:52Z</time></trkpt><trkpt lat="43.73526341593936" lon="12.191833482911209"><ele>664.0</ele><time>2026-04-20T11:49:53Z</time></trkpt><trkpt lat="43.73520442861478" lon="12.191777262152481"><ele>664.0</ele><time>2026-04-20T11:49:54Z</time></trkpt><trkpt lat="43.735158465668114" lon="12.191713054266064"><ele>664.0</ele><time>2026-04-20T11:49:55Z</time></trkpt><trkpt lat="43.735194331657276" lon="12.191567942786683"><ele>664.0</ele><time>2026-04-20T11:49:57Z</time></trkpt><trkpt lat="43.73526125881491" lon="12.191439614793229"><ele>664.0</ele><time>2026-04-20T11:49:59Z</time></trkpt><trkpt lat="43.73529367046688" lon="12.191319308368561"><ele>666.6</ele><time>2026-04-20T11:50:01Z</time></trkpt><trkpt lat="43.73527024544564" lon="12.191145465961286"><ele>669.2</ele><time>2026-04-20T11:50:03Z</time></trkpt><trkpt lat="43.735273284033404" lon="12.19103187380216"><ele>671.8000000000001</ele><time>2026-04-20T11:50:04Z</time></trkpt><trkpt lat="43.73527946951997" lon="12.190889523219024"><ele>674.4000000000001</ele><time>2026-04-20T11:50:05Z</time></trkpt><trkpt lat="43.73527672152817" lon="12.190740612610092"><ele>677.0</ele><time>2026-04-20T11:50:06Z</time></trkpt><trkpt lat="43.73525437987096" lon="12.190607469404346"><ele>677.6666666666666</ele><time>2026-04-20T11:50:07Z</time></trkpt><trkpt lat="43.7352280527965" lon="12.190474169720396"><ele>678.3333333333333</ele><time>2026-04-20T11:50:08Z</time></trkpt><trkpt lat="43.73518379572083" lon="12.190371816461564"><ele>679.0</ele><time>2026-04-20T11:50:09Z</time></trkpt><trkpt lat="43.73513588903739" lon="12.190278123588456"><ele>679.6666666666666</ele><time>2026-04-20T11:50:10Z</time></trkpt><trkpt lat="43.73508159817567" lon="12.190204208203003"><ele>680.3333333333334</ele><time>2026-04-20T11:50:11Z</time></trkpt><trkpt lat="43.735017848707336" lon="12.190131143816913"><ele>681.0</ele><time>2026-04-20T11:50:12Z</time></trkpt><trkpt lat="43.73493462833673" lon="12.190076418301759"><ele>681.0</ele><time>2026-04-20T11:50:13Z</time></trkpt><trkpt lat="43.73483962249235" lon="12.19003683489133"><ele>681.0</ele><time>2026-04-20T11:50:14Z</time></trkpt><trkpt lat="43.7347550365648" lon="12.189997750387066"><ele>681.0</ele><time>2026-04-20T11:50:15Z</time></trkpt><trkpt lat="43.73467166631742" lon="12.189933741901283"><ele>681.0</ele><time>2026-04-20T11:50:16Z</time></trkpt><trkpt lat="43.73459509662795" lon="12.189906750221184"><ele>681.0</ele><time>2026-04-20T11:50:17Z</time></trkpt><trkpt lat="43.734504345170464" lon="12.189859728743178"><ele>680.1999999999999</ele><time>2026-04-20T11:50:18Z</time></trkpt><trkpt lat="43.7344071235913" lon="12.189812294913152"><ele>679.4</ele><time>2026-04-20T11:50:19Z</time></trkpt><trkpt lat="43.734325173721885" lon="12.18978385763631"><ele>678.6</ele><time>2026-04-20T11:50:20Z</time></trkpt><trkpt lat="43.73423876676941" lon="12.189746998656643"><ele>677.8</ele><time>2026-04-20T11:50:21Z</time></trkpt><trkpt lat="43.734146724828626" lon="12.18968142597293"><ele>677.0</ele><time>2026-04-20T11:50:22Z</time></trkpt><trkpt lat="43.73405921448457" lon="12.189628538709298"><ele>677.0</ele><time>2026-04-20T11:50:23Z</time></trkpt><trkpt lat="43.73399064530206" lon="12.189588641526358"><ele>677.0</ele><time>2026-04-20T11:50:24Z</time></trkpt><trkpt lat="43.73395238945514" lon="12.189509198965892"><ele>677.0</ele><time>2026-04-20T11:50:25Z</time></trkpt><trkpt lat="43.73393080989079" lon="12.18940793224821"><ele>677.0</ele><time>2026-04-20T11:50:26Z</time></trkpt><trkpt lat="43.73394413438114" lon="12.189261615506016"><ele>677.0</ele><time>2026-04-20T11:50:27Z</time></trkpt><trkpt lat="43.733944415770004" lon="12.189126185820085"><ele>677.0</ele><time>2026-04-20T11:50:28Z</time></trkpt><trkpt lat="43.733939107880126" lon="12.189030459473738"><ele>682.0</ele><time>2026-04-20T11:50:29Z</time></trkpt><trkpt lat="43.73391585667792" lon="12.188904354668619"><ele>687.0</ele><time>2026-04-20T11:50:30Z</time></trkpt><trkpt lat="43.73388360659494" lon="12.188818557027876"><ele>692.0</ele><time>2026-04-20T11:50:31Z</time></trkpt><trkpt lat="43.733789626358096" lon="12.188756718356537"><ele>697.0</ele><time>2026-04-20T11:50:32Z</time></trkpt><trkpt lat="43.73368976411866" lon="12.188682099509355"><ele>702.0</ele><time>2026-04-20T11:50:33Z</time></trkpt><trkpt lat="43.73358363683975" lon="12.188608033554303"><ele>697.4000000000001</ele><time>2026-04-20T11:50:34Z</time></trkpt><trkpt lat="43.73347772790035" lon="12.188551543157082"><ele>692.8000000000001</ele><time>2026-04-20T11:50:35Z</time></trkpt><trkpt lat="43.733366259290364" lon="12.188516379293873"><ele>688.2</ele><time>2026-04-20T11:50:36Z</time></trkpt><trkpt lat="43.7332715597965" lon="12.188493099928538"><ele>683.6</ele><time>2026-04-20T11:50:37Z</time></trkpt><trkpt lat="43.73317570753925" lon="12.188468726420272"><ele>679.0</ele><time>2026-04-20T11:50:38Z</time></trkpt><trkpt lat="43.733069564546746" lon="12.188440370313938"><ele>679.0</ele><time>2026-04-20T11:50:39Z</time></trkpt><trkpt lat="43.7329615402443" lon="12.188395066353513"><ele>679.0</ele><time>2026-04-20T11:50:40Z</time></trkpt><trkpt lat="43.73286494879347" lon="12.188325548175964"><ele>679.0</ele><time>2026-04-20T11:50:41Z</time></trkpt><trkpt lat="43.732757107879536" lon="12.188306256386658"><ele>679.0</ele><time>2026-04-20T11:50:42Z</time></trkpt><trkpt lat="43.732650598710464" lon="12.188321262745342"><ele>679.0</ele><time>2026-04-20T11:50:43Z</time></trkpt><trkpt lat="43.732550562503064" lon="12.188362015980756"><ele>678.6666666666667</ele><time>2026-04-20T11:50:44Z</time></trkpt><trkpt lat="43.73246115741865" lon="12.188418992402843"><ele>678.3333333333334</ele><time>2026-04-20T11:50:45Z</time></trkpt><trkpt lat="43.73235837870219" lon="12.188424590470204"><ele>678.0</ele><time>2026-04-20T11:50:46Z</time></trkpt><trkpt lat="43.7322842753792" lon="12.188446210110545"><ele>677.6666666666666</ele><time>2026-04-20T11:50:47Z</time></trkpt><trkpt lat="43.73222957549912" lon="12.188371430597659"><ele>677.3333333333333</ele><time>2026-04-20T11:50:48Z</time></trkpt><trkpt lat="43.73217130137945" lon="12.188292026421516"><ele>677.0</ele><time>2026-04-20T11:50:49Z</time></trkpt><trkpt lat="43.73210469231885" lon="12.18821001351901"><ele>675.4000000000001</ele><time>2026-04-20T11:50:50Z</time></trkpt><trkpt lat="43.73203062288372" lon="12.188119016021213"><ele>673.8000000000001</ele><time>2026-04-20T11:50:51Z</time></trkpt><trkpt lat="43.731957275778605" lon="12.188014504622755"><ele>672.2</ele><time>2026-04-20T11:50:52Z</time></trkpt><trkpt lat="43.73189958446191" lon="12.187896714064895"><ele>670.6</ele><time>2026-04-20T11:50:53Z</time></trkpt><trkpt lat="43.731862596123094" lon="12.187790174300765"><ele>669.0</ele><time>2026-04-20T11:50:54Z</time></trkpt><trkpt lat="43.73183906572473" lon="12.187650350364304"><ele>669.0</ele><time>2026-04-20T11:50:55Z</time></trkpt><trkpt lat="43.73184877736619" lon="12.187512962835555"><ele>669.0</ele><time>2026-04-20T11:50:56Z</time></trkpt><trkpt lat="43.73185754677383" lon="12.187389122645369"><ele>669.0</ele><time>2026-04-20T11:50:57Z</time></trkpt><trkpt lat="43.731869044937504" lon="12.18728800794691"><ele>669.0</ele><time>2026-04-20T11:50:58Z</time></trkpt><trkpt lat="43.73188963849134" lon="12.187163285785003"><ele>669.0</ele><time>2026-04-20T11:50:59Z</time></trkpt><trkpt lat="43.731921094378194" lon="12.18701173369974"><ele>671.0</ele><time>2026-04-20T11:51:00Z</time></trkpt><trkpt lat="43.731957029229235" lon="12.186858821673118"><ele>673.0</ele><time>2026-04-20T11:51:01Z</time></trkpt><trkpt lat="43.731999869147785" lon="12.186711731275498"><ele>675.0</ele><time>2026-04-20T11:51:02Z</time></trkpt><trkpt lat="43.732047196924135" lon="12.186593588445229"><ele>677.0</ele><time>2026-04-20T11:51:03Z</time></trkpt><trkpt lat="43.73210331639089" lon="12.186454163387408"><ele>679.0</ele><time>2026-04-20T11:51:04Z</time></trkpt><trkpt lat="43.73215048525894" lon="12.186314407513413"><ele>679.0</ele><time>2026-04-20T11:51:05Z</time></trkpt><trkpt lat="43.732173913460706" lon="12.186191612989703"><ele>679.0</ele><time>2026-04-20T11:51:06Z</time></trkpt><trkpt lat="43.732226858299036" lon="12.186094209792795"><ele>679.0</ele><time>2026-04-20T11:51:07Z</time></trkpt><trkpt lat="43.73226563315891" lon="12.186000024770953"><ele>679.0</ele><time>2026-04-20T11:51:08Z</time></trkpt><trkpt lat="43.732305800028435" lon="12.185918116153923"><ele>679.0</ele><time>2026-04-20T11:51:09Z</time></trkpt><trkpt lat="43.73236212280666" lon="12.185836818693987"><ele>679.0</ele><time>2026-04-20T11:51:10Z</time></trkpt><trkpt lat="43.73244352481264" lon="12.185759222285151"><ele>681.2</ele><time>2026-04-20T11:51:11Z</time></trkpt><trkpt lat="43.732525247989244" lon="12.185663283639299"><ele>683.4000000000001</ele><time>2026-04-20T11:51:12Z</time></trkpt><trkpt lat="43.73258380420124" lon="12.185537080927752"><ele>685.6</ele><time>2026-04-20T11:51:13Z</time></trkpt><trkpt lat="43.7326016103105" lon="12.185382332346654"><ele>687.8</ele><time>2026-04-20T11:51:14Z</time></trkpt><trkpt lat="43.732668579470165" lon="12.185246110374965"><ele>690.0</ele><time>2026-04-20T11:51:15Z</time></trkpt><trkpt lat="43.73272634693125" lon="12.185101655737052"><ele>690.0</ele><time>2026-04-20T11:51:16Z</time></trkpt><trkpt lat="43.732784207796584" lon="12.184970910179684"><ele>690.0</ele><time>2026-04-20T11:51:17Z</time></trkpt><trkpt lat="43.73284139437522" lon="12.184855127881267"><ele>690.0</ele><time>2026-04-20T11:51:18Z</time></trkpt><trkpt lat="43.73290513467315" lon="12.184740699658056"><ele>690.0</ele><time>2026-04-20T11:51:19Z</time></trkpt><trkpt lat="43.73296656413031" lon="12.184632174015857"><ele>690.0</ele><time>2026-04-20T11:51:20Z</time></trkpt><trkpt lat="43.73302582757449" lon="12.184525067195011"><ele>685.0</ele><time>2026-04-20T11:51:21Z</time></trkpt><trkpt lat="43.73308764233929" lon="12.18442280757419"><ele>680.0</ele><time>2026-04-20T11:51:22Z</time></trkpt><trkpt lat="43.73316204238062" lon="12.18432244893667"><ele>675.0</ele><time>2026-04-20T11:51:23Z</time></trkpt><trkpt lat="43.73322447255725" lon="12.184256117037975"><ele>670.0</ele><time>2026-04-20T11:51:24Z</time></trkpt><trkpt lat="43.73328884457446" lon="12.184188353314292"><ele>665.0</ele><time>2026-04-20T11:51:25Z</time></trkpt><trkpt lat="43.73340783737639" lon="12.184085100698015"><ele>665.0</ele><time>2026-04-20T11:51:26Z</time></trkpt><trkpt lat="43.73349109062648" lon="12.184017650734468"><ele>665.0</ele><time>2026-04-20T11:51:27Z</time></trkpt><trkpt lat="43.73357611206355" lon="12.183949184593972"><ele>665.0</ele><time>2026-04-20T11:51:28Z</time></trkpt><trkpt lat="43.73364452997159" lon="12.183863242175363"><ele>665.0</ele><time>2026-04-20T11:51:29Z</time></trkpt><trkpt lat="43.733660208201115" lon="12.183732602514034"><ele>665.0</ele><time>2026-04-20T11:51:30Z</time></trkpt><trkpt lat="43.73366254982284" lon="12.183603369791589"><ele>666.0</ele><time>2026-04-20T11:51:31Z</time></trkpt><trkpt lat="43.73364436051731" lon="12.183436202504854"><ele>667.0</ele><time>2026-04-20T11:51:32Z</time></trkpt><trkpt lat="43.7336605933144" lon="12.183285312522232"><ele>668.0</ele><time>2026-04-20T11:51:33Z</time></trkpt><trkpt lat="43.73372191613896" lon="12.183138561646635"><ele>669.0</ele><time>2026-04-20T11:51:34Z</time></trkpt><trkpt lat="43.733728310087194" lon="12.182946666719376"><ele>669.0</ele><time>2026-04-20T11:51:35Z</time></trkpt><trkpt lat="43.733736326236475" lon="12.182808183408852"><ele>669.0</ele><time>2026-04-20T11:51:36Z</time></trkpt><trkpt lat="43.73377092407738" lon="12.182638178388181"><ele>669.0</ele><time>2026-04-20T11:51:37Z</time></trkpt><trkpt lat="43.73379497384549" lon="12.182464558644412"><ele>669.0</ele><time>2026-04-20T11:51:38Z</time></trkpt><trkpt lat="43.73380818643121" lon="12.182294762969335"><ele>667.2</ele><time>2026-04-20T11:51:39Z</time></trkpt><trkpt lat="43.73383558243475" lon="12.182131290550709"><ele>665.4000000000001</ele><time>2026-04-20T11:51:40Z</time></trkpt><trkpt lat="43.73386391495629" lon="12.181987550857054"><ele>663.6</ele><time>2026-04-20T11:51:41Z</time></trkpt><trkpt lat="43.73388031542149" lon="12.181857598575018"><ele>661.8</ele><time>2026-04-20T11:51:42Z</time></trkpt><trkpt lat="43.73391175964048" lon="12.181744293568858"><ele>660.0</ele><time>2026-04-20T11:51:43Z</time></trkpt><trkpt lat="43.73392927941673" lon="12.181633509775121"><ele>660.0</ele><time>2026-04-20T11:51:44Z</time></trkpt><trkpt lat="43.733952303234204" lon="12.181521034053587"><ele>660.0</ele><time>2026-04-20T11:51:45Z</time></trkpt><trkpt lat="43.73396882655268" lon="12.181401092412784"><ele>660.0</ele><time>2026-04-20T11:51:46Z</time></trkpt><trkpt lat="43.734011218356784" lon="12.18129863423469"><ele>660.0</ele><time>2026-04-20T11:51:47Z</time></trkpt><trkpt lat="43.73405956768807" lon="12.181206095058378"><ele>660.0</ele><time>2026-04-20T11:51:48Z</time></trkpt><trkpt lat="43.734118103290136" lon="12.181098834552744"><ele>660.0</ele><time>2026-04-20T11:51:49Z</time></trkpt><trkpt lat="43.73418600062085" lon="12.181013675721623"><ele>657.5</ele><time>2026-04-20T11:51:50Z</time></trkpt><trkpt lat="43.734260051754504" lon="12.180966529770439"><ele>655.0</ele><time>2026-04-20T11:51:51Z</time></trkpt><trkpt lat="43.73430452747076" lon="12.180868198639033"><ele>652.5</ele><time>2026-04-20T11:51:52Z</time></trkpt><trkpt lat="43.7343444364088" lon="12.180777800534662"><ele>650.0</ele><time>2026-04-20T11:51:53Z</time></trkpt><trkpt lat="43.734345768288065" lon="12.180688349786548"><ele>647.5</ele><time>2026-04-20T11:51:54Z</time></trkpt><trkpt lat="43.734331606470455" lon="12.180586560299567"><ele>645.0</ele><time>2026-04-20T11:51:55Z</time></trkpt><trkpt lat="43.73427933232555" lon="12.180425546480544"><ele>643.6666666666666</ele><time>2026-04-20T11:51:57Z</time></trkpt><trkpt lat="43.73427071508914" lon="12.180315843417835"><ele>642.3333333333334</ele><time>2026-04-20T11:51:58Z</time></trkpt><trkpt lat="43.73424048647064" lon="12.180141222158344"><ele>641.0</ele><time>2026-04-20T11:52:00Z</time></trkpt><trkpt lat="43.73425332939817" lon="12.180050150528682"><ele>639.6666666666667</ele><time>2026-04-20T11:52:01Z</time></trkpt><trkpt lat="43.73430419176775" lon="12.179953865769429"><ele>638.3333333333334</ele><time>2026-04-20T11:52:02Z</time></trkpt><trkpt lat="43.73431506228738" lon="12.179866288319163"><ele>637.0</ele><time>2026-04-20T11:52:03Z</time></trkpt><trkpt lat="43.734347015340376" lon="12.17976397236866"><ele>637.8333333333334</ele><time>2026-04-20T11:52:04Z</time></trkpt><trkpt lat="43.73437847368652" lon="12.179647186937684"><ele>638.6666666666667</ele><time>2026-04-20T11:52:05Z</time></trkpt><trkpt lat="43.73439442401792" lon="12.179529016672602"><ele>639.5</ele><time>2026-04-20T11:52:06Z</time></trkpt><trkpt lat="43.7344053997891" lon="12.179442662232946"><ele>640.3333333333334</ele><time>2026-04-20T11:52:07Z</time></trkpt><trkpt lat="43.734408410408435" lon="12.179355151889458"><ele>641.1666666666666</ele><time>2026-04-20T11:52:08Z</time></trkpt><trkpt lat="43.73443216037073" lon="12.17917167355081"><ele>642.0</ele><time>2026-04-20T11:52:10Z</time></trkpt><trkpt lat="43.73445723071318" lon="12.17900622608082"><ele>639.5</ele><time>2026-04-20T11:52:12Z</time></trkpt><trkpt lat="43.734489425834546" lon="12.178887448250373"><ele>637.0</ele><time>2026-04-20T11:52:14Z</time></trkpt><trkpt lat="43.73453043838781" lon="12.178809173410762"><ele>634.5</ele><time>2026-04-20T11:52:15Z</time></trkpt><trkpt lat="43.734576305050716" lon="12.17873382356055"><ele>632.0</ele><time>2026-04-20T11:52:16Z</time></trkpt><trkpt lat="43.73462195622089" lon="12.178657129604641"><ele>629.5</ele><time>2026-04-20T11:52:17Z</time></trkpt><trkpt lat="43.73465925779075" lon="12.17857006184489"><ele>627.0</ele><time>2026-04-20T11:52:18Z</time></trkpt><trkpt lat="43.734696570603184" lon="12.178456820789881"><ele>627.0</ele><time>2026-04-20T11:52:19Z</time></trkpt><trkpt lat="43.734765952863405" lon="12.178314282232016"><ele>627.0</ele><time>2026-04-20T11:52:21Z</time></trkpt><trkpt lat="43.73488413629127" lon="12.17825270791589"><ele>627.0</ele><time>2026-04-20T11:52:23Z</time></trkpt><trkpt lat="43.734962719135716" lon="12.17825050219188"><ele>627.0</ele><time>2026-04-20T11:52:24Z</time></trkpt><trkpt lat="43.735038729893574" lon="12.178210406252594"><ele>627.0</ele><time>2026-04-20T11:52:25Z</time></trkpt><trkpt lat="43.73513702951824" lon="12.178105987583637"><ele>628.0</ele><time>2026-04-20T11:52:27Z</time></trkpt><trkpt lat="43.735140641147076" lon="12.17799394054167"><ele>629.0</ele><time>2026-04-20T11:52:28Z</time></trkpt><trkpt lat="43.735156719830655" lon="12.177896486409605"><ele>630.0</ele><time>2026-04-20T11:52:29Z</time></trkpt><trkpt lat="43.73511305428336" lon="12.177795640153777"><ele>631.0</ele><time>2026-04-20T11:52:30Z</time></trkpt><trkpt lat="43.735066782843575" lon="12.177710579332082"><ele>632.0</ele><time>2026-04-20T11:52:31Z</time></trkpt><trkpt lat="43.73499536607326" lon="12.177648191928212"><ele>633.0</ele><time>2026-04-20T11:52:32Z</time></trkpt><trkpt lat="43.73489862385969" lon="12.177615175167405"><ele>633.0</ele><time>2026-04-20T11:52:33Z</time></trkpt><trkpt lat="43.73480949437964" lon="12.177553201172525"><ele>633.0</ele><time>2026-04-20T11:52:34Z</time></trkpt><trkpt lat="43.734729764513474" lon="12.177520536700362"><ele>633.0</ele><time>2026-04-20T11:52:35Z</time></trkpt><trkpt lat="43.73460746655656" lon="12.177459427965573"><ele>633.0</ele><time>2026-04-20T11:52:37Z</time></trkpt><trkpt lat="43.73456717160922" lon="12.177340722726605"><ele>633.0</ele><time>2026-04-20T11:52:38Z</time></trkpt><trkpt lat="43.73449581310725" lon="12.177247659231325"><ele>632.6</ele><time>2026-04-20T11:52:39Z</time></trkpt><trkpt lat="43.734436732584946" lon="12.177142319279985"><ele>632.1999999999999</ele><time>2026-04-20T11:52:40Z</time></trkpt><trkpt lat="43.734372725769354" lon="12.177014304457677"><ele>631.8</ele><time>2026-04-20T11:52:41Z</time></trkpt><trkpt lat="43.73429268331956" lon="12.176907689933849"><ele>631.4</ele><time>2026-04-20T11:52:42Z</time></trkpt><trkpt lat="43.73421133182734" lon="12.176809000411971"><ele>631.0</ele><time>2026-04-20T11:52:43Z</time></trkpt><trkpt lat="43.73414393094862" lon="12.176731511702874"><ele>631.0</ele><time>2026-04-20T11:52:44Z</time></trkpt><trkpt lat="43.73406664014213" lon="12.176656297319603"><ele>631.0</ele><time>2026-04-20T11:52:45Z</time></trkpt><trkpt lat="43.73399512407144" lon="12.176566967360966"><ele>631.0</ele><time>2026-04-20T11:52:46Z</time></trkpt><trkpt lat="43.73392191229077" lon="12.176511149762746"><ele>631.0</ele><time>2026-04-20T11:52:47Z</time></trkpt><trkpt lat="43.73385373859105" lon="12.176466588495952"><ele>631.0</ele><time>2026-04-20T11:52:48Z</time></trkpt><trkpt lat="43.73377039425957" lon="12.176359424659655"><ele>631.5</ele><time>2026-04-20T11:52:50Z</time></trkpt><trkpt lat="43.73375621309249" lon="12.176242588186156"><ele>632.0</ele><time>2026-04-20T11:52:52Z</time></trkpt><trkpt lat="43.733792458259366" lon="12.176125245900128"><ele>632.5</ele><time>2026-04-20T11:52:54Z</time></trkpt><trkpt lat="43.73385859821614" lon="12.176120437322622"><ele>633.0</ele><time>2026-04-20T11:52:55Z</time></trkpt><trkpt lat="43.73392209644352" lon="12.176108199334259"><ele>633.5</ele><time>2026-04-20T11:52:57Z</time></trkpt><trkpt lat="43.73402012142674" lon="12.176039375114701"><ele>634.0</ele><time>2026-04-20T11:53:00Z</time></trkpt><trkpt lat="43.7340670137276" lon="12.175938520164344"><ele>634.0</ele><time>2026-04-20T11:53:02Z</time></trkpt><trkpt lat="43.7341097758254" lon="12.175812900422583"><ele>634.0</ele><time>2026-04-20T11:53:05Z</time></trkpt><trkpt lat="43.73418284560233" lon="12.175674372705474"><ele>634.0</ele><time>2026-04-20T11:53:07.001Z</time></trkpt><trkpt lat="43.7342145726604" lon="12.175590277976207"><ele>634.0</ele><time>2026-04-20T11:53:08.001Z</time></trkpt><trkpt lat="43.73425140325005" lon="12.175499512221437"><ele>634.0</ele><time>2026-04-20T11:53:09.001Z</time></trkpt><trkpt lat="43.73428610494486" lon="12.175413961335366"><ele>634.0</ele><time>2026-04-20T11:53:10.001Z</time></trkpt><trkpt lat="43.73433728189941" lon="12.175348089957902"><ele>634.0</ele><time>2026-04-20T11:53:11.001Z</time></trkpt><trkpt lat="43.73438005682833" lon="12.175268842416765"><ele>634.0</ele><time>2026-04-20T11:53:12.001Z</time></trkpt><trkpt lat="43.734430248489275" lon="12.175172253424346"><ele>634.0</ele><time>2026-04-20T11:53:13.001Z</time></trkpt><trkpt lat="43.734474926072785" lon="12.175064534685335"><ele>634.0</ele><time>2026-04-20T11:53:14.001Z</time></trkpt><trkpt lat="43.734458897951704" lon="12.174924393633221"><ele>634.0</ele><time>2026-04-20T11:53:15.001Z</time></trkpt><trkpt lat="43.73442894593147" lon="12.174795091009894"><ele>634.0</ele><time>2026-04-20T11:53:16Z</time></trkpt><trkpt lat="43.73438666711206" lon="12.174675596708749"><ele>635.2</ele><time>2026-04-20T11:53:17Z</time></trkpt><trkpt lat="43.73436027029948" lon="12.174571791793783"><ele>636.4</ele><time>2026-04-20T11:53:18Z</time></trkpt><trkpt lat="43.73436433770823" lon="12.174465282794504"><ele>637.6</ele><time>2026-04-20T11:53:20Z</time></trkpt><trkpt lat="43.73448687528683" lon="12.174467739965813"><ele>638.8</ele><time>2026-04-20T11:53:21Z</time></trkpt><trkpt lat="43.734564351348915" lon="12.174413360614096"><ele>640.0</ele><time>2026-04-20T11:53:22Z</time></trkpt><trkpt lat="43.734638632005236" lon="12.174315788695852"><ele>642.4</ele><time>2026-04-20T11:53:23Z</time></trkpt><trkpt lat="43.73467089411306" lon="12.174166553482948"><ele>644.8</ele><time>2026-04-20T11:53:24Z</time></trkpt><trkpt lat="43.73468684864638" lon="12.174023421661628"><ele>647.2</ele><time>2026-04-20T11:53:25Z</time></trkpt><trkpt lat="43.73466109158342" lon="12.173900889332808"><ele>649.6</ele><time>2026-04-20T11:53:26Z</time></trkpt><trkpt lat="43.7346122951522" lon="12.173772553174441"><ele>652.0</ele><time>2026-04-20T11:53:27Z</time></trkpt><trkpt lat="43.73454080340938" lon="12.17364108473633"><ele>653.2</ele><time>2026-04-20T11:53:28Z</time></trkpt><trkpt lat="43.73446046642035" lon="12.173524031012061"><ele>654.4000000000001</ele><time>2026-04-20T11:53:29Z</time></trkpt><trkpt lat="43.734382005240185" lon="12.173437332303434"><ele>655.5999999999999</ele><time>2026-04-20T11:53:30Z</time></trkpt><trkpt lat="43.73433867531757" lon="12.17335208647952"><ele>656.8</ele><time>2026-04-20T11:53:31Z</time></trkpt><trkpt lat="43.73435438216523" lon="12.173247397830478"><ele>658.0</ele><time>2026-04-20T11:53:32Z</time></trkpt><trkpt lat="43.73440902497223" lon="12.173165176369285"><ele>658.2</ele><time>2026-04-20T11:53:33Z</time></trkpt><trkpt lat="43.73450542467535" lon="12.17315662602356"><ele>658.4</ele><time>2026-04-20T11:53:34Z</time></trkpt><trkpt lat="43.73460322316548" lon="12.173114586489456"><ele>658.6</ele><time>2026-04-20T11:53:35Z</time></trkpt><trkpt lat="43.73470741047946" lon="12.173029999306763"><ele>658.8000000000001</ele><time>2026-04-20T11:53:36Z</time></trkpt><trkpt lat="43.73481277687027" lon="12.172954690703289"><ele>659.0</ele><time>2026-04-20T11:53:37Z</time></trkpt><trkpt lat="43.73492849876247" lon="12.172876120086553"><ele>659.0</ele><time>2026-04-20T11:53:38Z</time></trkpt><trkpt lat="43.735032180210716" lon="12.172750963019384"><ele>659.0</ele><time>2026-04-20T11:53:39Z</time></trkpt><trkpt lat="43.73512491839731" lon="12.172592124472455"><ele>659.0</ele><time>2026-04-20T11:53:40Z</time></trkpt><trkpt lat="43.735219220722016" lon="12.172432781049652"><ele>659.0</ele><time>2026-04-20T11:53:41Z</time></trkpt><trkpt lat="43.73531604816327" lon="12.172279869091717"><ele>662.0</ele><time>2026-04-20T11:53:42Z</time></trkpt><trkpt lat="43.73539098035658" lon="12.172123830385408"><ele>665.0</ele><time>2026-04-20T11:53:43Z</time></trkpt><trkpt lat="43.7354600277061" lon="12.172007441302586"><ele>668.0</ele><time>2026-04-20T11:53:44Z</time></trkpt><trkpt lat="43.73548749018854" lon="12.171908874866205"><ele>671.0</ele><time>2026-04-20T11:53:45Z</time></trkpt><trkpt lat="43.73550944011417" lon="12.171824761088281"><ele>674.0</ele><time>2026-04-20T11:53:46Z</time></trkpt><trkpt lat="43.735473892691" lon="12.171730867908545"><ele>674.0</ele><time>2026-04-20T11:53:47Z</time></trkpt><trkpt lat="43.73536540960642" lon="12.171682227285654"><ele>674.0</ele><time>2026-04-20T11:53:48Z</time></trkpt><trkpt lat="43.73524089197114" lon="12.171639509747028"><ele>674.0</ele><time>2026-04-20T11:53:49Z</time></trkpt><trkpt lat="43.73510860648454" lon="12.17162627100181"><ele>674.0</ele><time>2026-04-20T11:53:50Z</time></trkpt><trkpt lat="43.734960611048585" lon="12.171653226714307"><ele>673.25</ele><time>2026-04-20T11:53:51Z</time></trkpt><trkpt lat="43.734818787688525" lon="12.171675662176817"><ele>672.5</ele><time>2026-04-20T11:53:52Z</time></trkpt><trkpt lat="43.73467783947644" lon="12.171657647872568"><ele>671.75</ele><time>2026-04-20T11:53:53Z</time></trkpt><trkpt lat="43.73454600892511" lon="12.17158949446714"><ele>671.0</ele><time>2026-04-20T11:53:54Z</time></trkpt><trkpt lat="43.7344163891975" lon="12.171505787285776"><ele>672.8</ele><time>2026-04-20T11:53:55Z</time></trkpt><trkpt lat="43.73431452977081" lon="12.171405801416006"><ele>674.5999999999999</ele><time>2026-04-20T11:53:56Z</time></trkpt><trkpt lat="43.73426195146585" lon="12.171297435922833"><ele>676.4</ele><time>2026-04-20T11:53:57Z</time></trkpt><trkpt lat="43.73425992373283" lon="12.171167185257577"><ele>678.2</ele><time>2026-04-20T11:53:58Z</time></trkpt><trkpt lat="43.73425516189603" lon="12.171005207680418"><ele>680.0</ele><time>2026-04-20T11:53:59Z</time></trkpt><trkpt lat="43.73426276007689" lon="12.170870462097467"><ele>680.0</ele><time>2026-04-20T11:54:00Z</time></trkpt><trkpt lat="43.734224135594474" lon="12.170751010010251"><ele>680.0</ele><time>2026-04-20T11:54:01Z</time></trkpt><trkpt lat="43.73415182665067" lon="12.170640508205494"><ele>680.0</ele><time>2026-04-20T11:54:02Z</time></trkpt><trkpt lat="43.73403886328279" lon="12.170528656115863"><ele>680.0</ele><time>2026-04-20T11:54:03Z</time></trkpt><trkpt lat="43.73393421498453" lon="12.170426428116363"><ele>681.3333333333333</ele><time>2026-04-20T11:54:04Z</time></trkpt><trkpt lat="43.7338486887656" lon="12.17033606471102"><ele>682.6666666666666</ele><time>2026-04-20T11:54:05Z</time></trkpt><trkpt lat="43.73377615995404" lon="12.170257573585333"><ele>684.0</ele><time>2026-04-20T11:54:06Z</time></trkpt><trkpt lat="43.733733732755674" lon="12.170172443812064"><ele>685.3333333333334</ele><time>2026-04-20T11:54:07Z</time></trkpt><trkpt lat="43.73372354808955" lon="12.17007012964943"><ele>686.6666666666667</ele><time>2026-04-20T11:54:08Z</time></trkpt><trkpt lat="43.733753905079055" lon="12.169970800316072"><ele>688.0</ele><time>2026-04-20T11:54:09Z</time></trkpt><trkpt lat="43.733824044061755" lon="12.16986965587534"><ele>688.75</ele><time>2026-04-20T11:54:10Z</time></trkpt><trkpt lat="43.733911033905386" lon="12.1697704752838"><ele>689.5</ele><time>2026-04-20T11:54:11Z</time></trkpt><trkpt lat="43.73400679494424" lon="12.1696838413605"><ele>690.25</ele><time>2026-04-20T11:54:12Z</time></trkpt><trkpt lat="43.73410956967915" lon="12.169592518297323"><ele>691.0</ele><time>2026-04-20T11:54:13Z</time></trkpt><trkpt lat="43.734218380779595" lon="12.169496029441849"><ele>691.0</ele><time>2026-04-20T11:54:14Z</time></trkpt><trkpt lat="43.7343327930694" lon="12.169394520474446"><ele>691.0</ele><time>2026-04-20T11:54:15Z</time></trkpt><trkpt lat="43.734451845733226" lon="12.169288993658666"><ele>691.0</ele><time>2026-04-20T11:54:16Z</time></trkpt><trkpt lat="43.7345684732953" lon="12.169184815555411"><ele>691.0</ele><time>2026-04-20T11:54:17Z</time></trkpt><trkpt lat="43.7346646783299" lon="12.169083205551047"><ele>694.8</ele><time>2026-04-20T11:54:18Z</time></trkpt><trkpt lat="43.73474123014349" lon="12.168962745689079"><ele>698.5999999999999</ele><time>2026-04-20T11:54:19Z</time></trkpt><trkpt lat="43.73479884390097" lon="12.168847063387139"><ele>702.4</ele><time>2026-04-20T11:54:20Z</time></trkpt><trkpt lat="43.73486158386947" lon="12.168756626458878"><ele>706.2</ele><time>2026-04-20T11:54:21Z</time></trkpt><trkpt lat="43.734951667858894" lon="12.168738786479325"><ele>710.0</ele><time>2026-04-20T11:54:22Z</time></trkpt><trkpt lat="43.73504037438381" lon="12.168672966710071"><ele>710.0</ele><time>2026-04-20T11:54:23Z</time></trkpt><trkpt lat="43.73514780908227" lon="12.168645442214792"><ele>710.0</ele><time>2026-04-20T11:54:24Z</time></trkpt><trkpt lat="43.735238503003394" lon="12.168536066563533"><ele>710.0</ele><time>2026-04-20T11:54:25Z</time></trkpt><trkpt lat="43.73528493325902" lon="12.16837107891769"><ele>710.0</ele><time>2026-04-20T11:54:26Z</time></trkpt><trkpt lat="43.73535316759152" lon="12.168222735077336"><ele>709.8</ele><time>2026-04-20T11:54:27Z</time></trkpt><trkpt lat="43.73538799291559" lon="12.168066562343359"><ele>709.6</ele><time>2026-04-20T11:54:28Z</time></trkpt><trkpt lat="43.73543570685916" lon="12.167948361751044"><ele>709.4000000000001</ele><time>2026-04-20T11:54:29Z</time></trkpt><trkpt lat="43.73549005322648" lon="12.167850096620262"><ele>709.2</ele><time>2026-04-20T11:54:30Z</time></trkpt><trkpt lat="43.73556079723578" lon="12.16777214202021"><ele>709.0</ele><time>2026-04-20T11:54:31Z</time></trkpt><trkpt lat="43.73565714646524" lon="12.16778457775332"><ele>709.0</ele><time>2026-04-20T11:54:32Z</time></trkpt><trkpt lat="43.73574336401735" lon="12.167771200016508"><ele>709.0</ele><time>2026-04-20T11:54:33Z</time></trkpt><trkpt lat="43.7358157902795" lon="12.167841776292883"><ele>709.0</ele><time>2026-04-20T11:54:34Z</time></trkpt><trkpt lat="43.73583458520131" lon="12.167954797676614"><ele>709.0</ele><time>2026-04-20T11:54:35Z</time></trkpt><trkpt lat="43.735841707197636" lon="12.168061572835313"><ele>709.0</ele><time>2026-04-20T11:54:36Z</time></trkpt><trkpt lat="43.73585968500374" lon="12.168174022805603"><ele>709.0</ele><time>2026-04-20T11:54:37Z</time></trkpt><trkpt lat="43.73587492018036" lon="12.168292794832869"><ele>710.8000000000001</ele><time>2026-04-20T11:54:38Z</time></trkpt><trkpt lat="43.7358939964333" lon="12.168419242118757"><ele>712.6</ele><time>2026-04-20T11:54:39Z</time></trkpt><trkpt lat="43.73594963034919" lon="12.168536401426008"><ele>714.4</ele><time>2026-04-20T11:54:40Z</time></trkpt><trkpt lat="43.736032188683595" lon="12.168627919902606"><ele>716.2</ele><time>2026-04-20T11:54:41Z</time></trkpt><trkpt lat="43.73613165004905" lon="12.168695121640544"><ele>718.0</ele><time>2026-04-20T11:54:42Z</time></trkpt><trkpt lat="43.73625338353694" lon="12.168729497662058"><ele>721.0</ele><time>2026-04-20T11:54:43Z</time></trkpt><trkpt lat="43.73637230674117" lon="12.168776924236719"><ele>724.0</ele><time>2026-04-20T11:54:44Z</time></trkpt><trkpt lat="43.736490858700975" lon="12.168827140998046"><ele>727.0</ele><time>2026-04-20T11:54:45Z</time></trkpt><trkpt lat="43.73661110377225" lon="12.168859808816826"><ele>730.0</ele><time>2026-04-20T11:54:46Z</time></trkpt><trkpt lat="43.736738510521164" lon="12.168868904925745"><ele>730.0</ele><time>2026-04-20T11:54:47Z</time></trkpt><trkpt lat="43.73686963534187" lon="12.1688584722499"><ele>730.0</ele><time>2026-04-20T11:54:48Z</time></trkpt><trkpt lat="43.73700667995601" lon="12.168831683625719"><ele>730.0</ele><time>2026-04-20T11:54:49Z</time></trkpt><trkpt lat="43.73714715070173" lon="12.168797935216821"><ele>730.0</ele><time>2026-04-20T11:54:50Z</time></trkpt><trkpt lat="43.737288117719515" lon="12.168753326962744"><ele>729.5</ele><time>2026-04-20T11:54:51Z</time></trkpt><trkpt lat="43.73742604660325" lon="12.168698233849037"><ele>729.0</ele><time>2026-04-20T11:54:52Z</time></trkpt><trkpt lat="43.73756054787543" lon="12.16863838609845"><ele>728.5</ele><time>2026-04-20T11:54:53Z</time></trkpt><trkpt lat="43.73769215424628" lon="12.168581163216674"><ele>728.0</ele><time>2026-04-20T11:54:54Z</time></trkpt><trkpt lat="43.73782239561883" lon="12.16852994089704"><ele>728.0</ele><time>2026-04-20T11:54:55Z</time></trkpt><trkpt lat="43.73795345435102" lon="12.168493692535034"><ele>728.0</ele><time>2026-04-20T11:54:56Z</time></trkpt><trkpt lat="43.738086192140344" lon="12.168497487020288"><ele>728.0</ele><time>2026-04-20T11:54:57Z</time></trkpt><trkpt lat="43.738205869768805" lon="12.168579825583018"><ele>728.0</ele><time>2026-04-20T11:54:58Z</time></trkpt><trkpt lat="43.73833375137359" lon="12.1686574922328"><ele>728.0</ele><time>2026-04-20T11:54:59Z</time></trkpt><trkpt lat="43.7384680995238" lon="12.16873887370174"><ele>728.0</ele><time>2026-04-20T11:55:00Z</time></trkpt><trkpt lat="43.73860885079439" lon="12.168820492566413"><ele>728.0</ele><time>2026-04-20T11:55:01Z</time></trkpt><trkpt lat="43.7387568033331" lon="12.168896484241014"><ele>732.3333333333333</ele><time>2026-04-20T11:55:02Z</time></trkpt><trkpt lat="43.73891444003582" lon="12.16897711108026"><ele>736.6666666666666</ele><time>2026-04-20T11:55:03Z</time></trkpt><trkpt lat="43.73907172997547" lon="12.169063802952069"><ele>741.0</ele><time>2026-04-20T11:55:04Z</time></trkpt><trkpt lat="43.73923201522342" lon="12.16915231868774"><ele>746.3333333333334</ele><time>2026-04-20T11:55:05Z</time></trkpt><trkpt lat="43.739388775141606" lon="12.169240731463912"><ele>751.6666666666667</ele><time>2026-04-20T11:55:06Z</time></trkpt><trkpt lat="43.73955158818076" lon="12.16933761352047"><ele>757.0</ele><time>2026-04-20T11:55:07Z</time></trkpt><trkpt lat="43.73970772634252" lon="12.169431790412334"><ele>757.0</ele><time>2026-04-20T11:55:08Z</time></trkpt><trkpt lat="43.739841062883805" lon="12.16951657891874"><ele>757.0</ele><time>2026-04-20T11:55:09Z</time></trkpt><trkpt lat="43.73997291539937" lon="12.16955281436659"><ele>757.0</ele><time>2026-04-20T11:55:10Z</time></trkpt><trkpt lat="43.74008903269053" lon="12.169568926982587"><ele>757.0</ele><time>2026-04-20T11:55:11Z</time></trkpt><trkpt lat="43.740205415954364" lon="12.169544572411933"><ele>759.25</ele><time>2026-04-20T11:55:12.001Z</time></trkpt><trkpt lat="43.74031439674893" lon="12.169478489485147"><ele>761.5</ele><time>2026-04-20T11:55:13.001Z</time></trkpt><trkpt lat="43.74041529656841" lon="12.169369087407805"><ele>763.75</ele><time>2026-04-20T11:55:14.001Z</time></trkpt><trkpt lat="43.740508891927036" lon="12.16923487799797"><ele>766.0</ele><time>2026-04-20T11:55:15.001Z</time></trkpt><trkpt lat="43.74062424946115" lon="12.169112697000852"><ele>766.0</ele><time>2026-04-20T11:55:16.001Z</time></trkpt><trkpt lat="43.740735319929506" lon="12.168969806870674"><ele>766.0</ele><time>2026-04-20T11:55:17.001Z</time></trkpt><trkpt lat="43.74085283949175" lon="12.168818619522106"><ele>766.0</ele><time>2026-04-20T11:55:18.001Z</time></trkpt><trkpt lat="43.74097702811625" lon="12.168663060271264"><ele>768.6666666666667</ele><time>2026-04-20T11:55:19.001Z</time></trkpt><trkpt lat="43.74110374058414" lon="12.168509141109407"><ele>771.3333333333334</ele><time>2026-04-20T11:55:20.001Z</time></trkpt><trkpt lat="43.741223689299844" lon="12.16836924442214"><ele>774.0</ele><time>2026-04-20T11:55:21.001Z</time></trkpt><trkpt lat="43.74133717993356" lon="12.168240829234522"><ele>773.25</ele><time>2026-04-20T11:55:22.001Z</time></trkpt><trkpt lat="43.74144640975404" lon="12.168142442702772"><ele>772.5</ele><time>2026-04-20T11:55:23Z</time></trkpt><trkpt lat="43.74155275095191" lon="12.168079511067434"><ele>771.75</ele><time>2026-04-20T11:55:24Z</time></trkpt><trkpt lat="43.74166932189821" lon="12.16805078630282"><ele>771.0</ele><time>2026-04-20T11:55:25Z</time></trkpt><trkpt lat="43.74180385348404" lon="12.168040882816857"><ele>774.5</ele><time>2026-04-20T11:55:26Z</time></trkpt><trkpt lat="43.74192929977603" lon="12.168019090171176"><ele>778.0</ele><time>2026-04-20T11:55:27Z</time></trkpt><trkpt lat="43.74203104358475" lon="12.167952968197131"><ele>781.5</ele><time>2026-04-20T11:55:28Z</time></trkpt><trkpt lat="43.742123621891885" lon="12.167864862908562"><ele>785.0</ele><time>2026-04-20T11:55:29Z</time></trkpt><trkpt lat="43.74220893399856" lon="12.167732193806463"><ele>785.0</ele><time>2026-04-20T11:55:30Z</time></trkpt><trkpt lat="43.742299634768635" lon="12.167596720222795"><ele>785.0</ele><time>2026-04-20T11:55:31Z</time></trkpt><trkpt lat="43.742389152373306" lon="12.167455858948161"><ele>785.0</ele><time>2026-04-20T11:55:32Z</time></trkpt><trkpt lat="43.74249563424706" lon="12.167338734846918"><ele>785.0</ele><time>2026-04-20T11:55:33Z</time></trkpt><trkpt lat="43.742595714412126" lon="12.167203730385804"><ele>784.0</ele><time>2026-04-20T11:55:34Z</time></trkpt><trkpt lat="43.742701713146445" lon="12.167061109083244"><ele>783.0</ele><time>2026-04-20T11:55:35Z</time></trkpt><trkpt lat="43.7427948078187" lon="12.166902893904433"><ele>782.0</ele><time>2026-04-20T11:55:36Z</time></trkpt><trkpt lat="43.7429037048953" lon="12.166749107400019"><ele>786.3333333333334</ele><time>2026-04-20T11:55:37Z</time></trkpt><trkpt lat="43.74300680279038" lon="12.166588503965635"><ele>790.6666666666667</ele><time>2026-04-20T11:55:38Z</time></trkpt><trkpt lat="43.74311273127623" lon="12.166430637761284"><ele>795.0</ele><time>2026-04-20T11:55:39Z</time></trkpt><trkpt lat="43.74322195817721" lon="12.166273244199855"><ele>795.0</ele><time>2026-04-20T11:55:40Z</time></trkpt><trkpt lat="43.74333143749901" lon="12.1661198397023"><ele>795.0</ele><time>2026-04-20T11:55:41Z</time></trkpt><trkpt lat="43.743429394664346" lon="12.16597938029792"><ele>795.0</ele><time>2026-04-20T11:55:42Z</time></trkpt><trkpt lat="43.74351161524881" lon="12.165849467536884"><ele>795.0</ele><time>2026-04-20T11:55:43Z</time></trkpt><trkpt lat="43.743573174142895" lon="12.165709356971565"><ele>795.25</ele><time>2026-04-20T11:55:44Z</time></trkpt><trkpt lat="43.74360252994602" lon="12.16554570467084"><ele>795.5</ele><time>2026-04-20T11:55:45Z</time></trkpt><trkpt lat="43.74359894839785" lon="12.165362074584285"><ele>795.75</ele><time>2026-04-20T11:55:46Z</time></trkpt><trkpt lat="43.74356375831465" lon="12.165175235132606"><ele>796.0</ele><time>2026-04-20T11:55:47Z</time></trkpt><trkpt lat="43.74351558977499" lon="12.164984313696314"><ele>796.25</ele><time>2026-04-20T11:55:48Z</time></trkpt><trkpt lat="43.7434687028179" lon="12.164793213666451"><ele>796.5</ele><time>2026-04-20T11:55:49Z</time></trkpt><trkpt lat="43.74343375881641" lon="12.164630458365579"><ele>796.75</ele><time>2026-04-20T11:55:50Z</time></trkpt><trkpt lat="43.743423279612216" lon="12.164479932763184"><ele>797.0</ele><time>2026-04-20T11:55:51Z</time></trkpt><trkpt lat="43.743450917543775" lon="12.164337217699526"><ele>797.0</ele><time>2026-04-20T11:55:52Z</time></trkpt><trkpt lat="43.74352301214283" lon="12.164206430427399"><ele>797.0</ele><time>2026-04-20T11:55:53Z</time></trkpt><trkpt lat="43.74360766240107" lon="12.164106750461922"><ele>797.0</ele><time>2026-04-20T11:55:54Z</time></trkpt><trkpt lat="43.743700445447466" lon="12.1639632686934"><ele>797.0</ele><time>2026-04-20T11:55:55Z</time></trkpt><trkpt lat="43.74382567471187" lon="12.163826460974578"><ele>802.6666666666667</ele><time>2026-04-20T11:55:56Z</time></trkpt><trkpt lat="43.743942743367015" lon="12.163673072745784"><ele>808.3333333333333</ele><time>2026-04-20T11:55:57Z</time></trkpt><trkpt lat="43.744071560015556" lon="12.163530819838735"><ele>814.0</ele><time>2026-04-20T11:55:58Z</time></trkpt><trkpt lat="43.74417731647024" lon="12.163358840149385"><ele>814.0</ele><time>2026-04-20T11:55:59Z</time></trkpt><trkpt lat="43.74429612046654" lon="12.163194811479677"><ele>814.0</ele><time>2026-04-20T11:56:00Z</time></trkpt><trkpt lat="43.74440533289993" lon="12.16302040079917"><ele>814.0</ele><time>2026-04-20T11:56:01Z</time></trkpt><trkpt lat="43.744486053237836" lon="12.162852103809017"><ele>818.0</ele><time>2026-04-20T11:56:02Z</time></trkpt><trkpt lat="43.744560141365795" lon="12.162714093900794"><ele>822.0</ele><time>2026-04-20T11:56:03Z</time></trkpt><trkpt lat="43.74462103809535" lon="12.162568580955238"><ele>826.0</ele><time>2026-04-20T11:56:04Z</time></trkpt><trkpt lat="43.74465207077016" lon="12.16239410353503"><ele>830.0</ele><time>2026-04-20T11:56:05Z</time></trkpt><trkpt lat="43.74459716036896" lon="12.162193376888036"><ele>830.3333333333334</ele><time>2026-04-20T11:56:06Z</time></trkpt><trkpt lat="43.74456237364768" lon="12.161985379014158"><ele>830.6666666666667</ele><time>2026-04-20T11:56:07Z</time></trkpt><trkpt lat="43.74452617643272" lon="12.161766797402914"><ele>831.0</ele><time>2026-04-20T11:56:08Z</time></trkpt><trkpt lat="43.744495894284526" lon="12.161530868110631"><ele>832.3333333333333</ele><time>2026-04-20T11:56:09Z</time></trkpt><trkpt lat="43.744493729140714" lon="12.161294640656056"><ele>833.6666666666666</ele><time>2026-04-20T11:56:10Z</time></trkpt><trkpt lat="43.7444533834861" lon="12.16106494928724"><ele>835.0</ele><time>2026-04-20T11:56:11Z</time></trkpt><trkpt lat="43.744418333562216" lon="12.160847304658716"><ele>836.25</ele><time>2026-04-20T11:56:12Z</time></trkpt><trkpt lat="43.744369117598644" lon="12.160640391879175"><ele>837.5</ele><time>2026-04-20T11:56:13Z</time></trkpt><trkpt lat="43.74431605558952" lon="12.160456586222969"><ele>838.75</ele><time>2026-04-20T11:56:14Z</time></trkpt><trkpt lat="43.74426275380425" lon="12.16028821964509"><ele>840.0</ele><time>2026-04-20T11:56:15Z</time></trkpt><trkpt lat="43.74421099360688" lon="12.160133593201188"><ele>840.0</ele><time>2026-04-20T11:56:16Z</time></trkpt><trkpt lat="43.74410906854341" lon="12.160030200184634"><ele>840.0</ele><time>2026-04-20T11:56:17Z</time></trkpt><trkpt lat="43.743978473348356" lon="12.159995213631467"><ele>840.0</ele><time>2026-04-20T11:56:18Z</time></trkpt><trkpt lat="43.74384141595331" lon="12.159971854872557"><ele>840.0</ele><time>2026-04-20T11:56:19Z</time></trkpt><trkpt lat="43.74369144658195" lon="12.159976946802713"><ele>841.6666666666667</ele><time>2026-04-20T11:56:20Z</time></trkpt><trkpt lat="43.7435361930288" lon="12.159993814623606"><ele>843.3333333333334</ele><time>2026-04-20T11:56:21Z</time></trkpt><trkpt lat="43.74337750144367" lon="12.16002461681003"><ele>845.0</ele><time>2026-04-20T11:56:22Z</time></trkpt><trkpt lat="43.74321929326697" lon="12.160089999942695"><ele>845.0</ele><time>2026-04-20T11:56:23Z</time></trkpt><trkpt lat="43.74305349944371" lon="12.160173952862474"><ele>845.0</ele><time>2026-04-20T11:56:24Z</time></trkpt><trkpt lat="43.74290089853533" lon="12.160259096188902"><ele>845.0</ele><time>2026-04-20T11:56:25Z</time></trkpt><trkpt lat="43.7427421203865" lon="12.160356336202915"><ele>849.3333333333334</ele><time>2026-04-20T11:56:26Z</time></trkpt><trkpt lat="43.74257801975498" lon="12.160440866969413"><ele>853.6666666666667</ele><time>2026-04-20T11:56:27Z</time></trkpt><trkpt lat="43.74242066119215" lon="12.160509091745991"><ele>858.0</ele><time>2026-04-20T11:56:28Z</time></trkpt><trkpt lat="43.742245176048385" lon="12.160571904894564"><ele>858.0</ele><time>2026-04-20T11:56:29Z</time></trkpt><trkpt lat="43.742073119281166" lon="12.160621289720549"><ele>858.0</ele><time>2026-04-20T11:56:30Z</time></trkpt><trkpt lat="43.74189609734631" lon="12.16066773750553"><ele>858.0</ele><time>2026-04-20T11:56:31Z</time></trkpt><trkpt lat="43.74174789158199" lon="12.160712055400166"><ele>859.5</ele><time>2026-04-20T11:56:32Z</time></trkpt><trkpt lat="43.741601058290456" lon="12.160745993857667"><ele>861.0</ele><time>2026-04-20T11:56:33Z</time></trkpt><trkpt lat="43.741483208436264" lon="12.160719067330872"><ele>862.5</ele><time>2026-04-20T11:56:34Z</time></trkpt><trkpt lat="43.741352610374044" lon="12.160702925656162"><ele>864.0</ele><time>2026-04-20T11:56:35Z</time></trkpt><trkpt lat="43.74120521574314" lon="12.160633519429654"><ele>864.0</ele><time>2026-04-20T11:56:36Z</time></trkpt><trkpt lat="43.741061022659764" lon="12.160586598087736"><ele>864.0</ele><time>2026-04-20T11:56:37Z</time></trkpt><trkpt lat="43.74092343209965" lon="12.160547163564322"><ele>864.0</ele><time>2026-04-20T11:56:38Z</time></trkpt><trkpt lat="43.74078583921331" lon="12.160533271142482"><ele>864.0</ele><time>2026-04-20T11:56:39Z</time></trkpt><trkpt lat="43.74065235019788" lon="12.160502450753587"><ele>864.25</ele><time>2026-04-20T11:56:40Z</time></trkpt><trkpt lat="43.74051054661059" lon="12.160485197529425"><ele>864.5</ele><time>2026-04-20T11:56:41Z</time></trkpt><trkpt lat="43.740363822043214" lon="12.160481375981947"><ele>864.75</ele><time>2026-04-20T11:56:42Z</time></trkpt><trkpt lat="43.74021597252078" lon="12.16046779810279"><ele>865.0</ele><time>2026-04-20T11:56:43Z</time></trkpt><trkpt lat="43.740067426546325" lon="12.160449292396791"><ele>865.0</ele><time>2026-04-20T11:56:44Z</time></trkpt><trkpt lat="43.7399100627571" lon="12.160423973628571"><ele>865.0</ele><time>2026-04-20T11:56:45Z</time></trkpt><trkpt lat="43.73974554455946" lon="12.16040832086727"><ele>865.0</ele><time>2026-04-20T11:56:46Z</time></trkpt><trkpt lat="43.73958376534132" lon="12.16038512184968"><ele>865.0</ele><time>2026-04-20T11:56:47Z</time></trkpt><trkpt lat="43.73942102675111" lon="12.16035698902579"><ele>865.0</ele><time>2026-04-20T11:56:48Z</time></trkpt><trkpt lat="43.7392516381685" lon="12.160331692680685"><ele>865.0</ele><time>2026-04-20T11:56:49Z</time></trkpt><trkpt lat="43.739084910138914" lon="12.160301645191584"><ele>868.0</ele><time>2026-04-20T11:56:50Z</time></trkpt><trkpt lat="43.73891626585366" lon="12.160285504650961"><ele>871.0</ele><time>2026-04-20T11:56:51Z</time></trkpt><trkpt lat="43.73874542793758" lon="12.160250119695114"><ele>874.0</ele><time>2026-04-20T11:56:52Z</time></trkpt><trkpt lat="43.738575361636116" lon="12.160229598611442"><ele>876.0</ele><time>2026-04-20T11:56:53Z</time></trkpt><trkpt lat="43.738405578364905" lon="12.160211404860242"><ele>878.0</ele><time>2026-04-20T11:56:54Z</time></trkpt><trkpt lat="43.73823565529186" lon="12.160219532391224"><ele>880.0</ele><time>2026-04-20T11:56:55Z</time></trkpt><trkpt lat="43.73806378208609" lon="12.16020233828846"><ele>880.0</ele><time>2026-04-20T11:56:56Z</time></trkpt><trkpt lat="43.73788995209147" lon="12.160181741917011"><ele>880.0</ele><time>2026-04-20T11:56:57Z</time></trkpt><trkpt lat="43.7377223646922" lon="12.160133228570587"><ele>880.0</ele><time>2026-04-20T11:56:58Z</time></trkpt><trkpt lat="43.73754350038294" lon="12.160094742904665"><ele>880.3333333333333</ele><time>2026-04-20T11:56:59Z</time></trkpt><trkpt lat="43.73736949358498" lon="12.16006964108644"><ele>880.6666666666667</ele><time>2026-04-20T11:57:00Z</time></trkpt><trkpt lat="43.73720820315196" lon="12.160041197784974"><ele>881.0</ele><time>2026-04-20T11:57:01Z</time></trkpt><trkpt lat="43.737039309496005" lon="12.16000741906794"><ele>882.3333333333334</ele><time>2026-04-20T11:57:02Z</time></trkpt><trkpt lat="43.73687080905198" lon="12.159966586841712"><ele>883.6666666666667</ele><time>2026-04-20T11:57:03Z</time></trkpt><trkpt lat="43.73670427003273" lon="12.159913093030276"><ele>885.0</ele><time>2026-04-20T11:57:04Z</time></trkpt><trkpt lat="43.736532798253336" lon="12.15984130200502"><ele>896.3333333333333</ele><time>2026-04-20T11:57:05Z</time></trkpt><trkpt lat="43.73636591976825" lon="12.159785208371115"><ele>907.6666666666666</ele><time>2026-04-20T11:57:06Z</time></trkpt><trkpt lat="43.736191134405274" lon="12.15976216969868"><ele>919.0</ele><time>2026-04-20T11:57:07Z</time></trkpt><trkpt lat="43.736017267739655" lon="12.159734604386069"><ele>920.3333333333333</ele><time>2026-04-20T11:57:08Z</time></trkpt><trkpt lat="43.73585979677494" lon="12.159692304595326"><ele>921.6666666666667</ele><time>2026-04-20T11:57:09Z</time></trkpt><trkpt lat="43.735702605480355" lon="12.159628466408966"><ele>923.0</ele><time>2026-04-20T11:57:10Z</time></trkpt><trkpt lat="43.73555499389926" lon="12.159596498548517"><ele>923.0</ele><time>2026-04-20T11:57:11Z</time></trkpt><trkpt lat="43.7354316150455" lon="12.15960152564527"><ele>923.0</ele><time>2026-04-20T11:57:12Z</time></trkpt><trkpt lat="43.73532946930532" lon="12.159605080843223"><ele>923.0</ele><time>2026-04-20T11:57:13Z</time></trkpt><trkpt lat="43.73525272491794" lon="12.159577829013147"><ele>923.0</ele><time>2026-04-20T11:57:14Z</time></trkpt><trkpt lat="43.73519792023712" lon="12.159524322514084"><ele>923.0</ele><time>2026-04-20T11:57:15Z</time></trkpt><trkpt lat="43.73515514152271" lon="12.15943457896151"><ele>917.0</ele><time>2026-04-20T11:57:16Z</time></trkpt><trkpt lat="43.735158580888964" lon="12.159298081854853"><ele>911.0</ele><time>2026-04-20T11:57:17.001Z</time></trkpt><trkpt lat="43.73515142093767" lon="12.159158877881705"><ele>905.0</ele><time>2026-04-20T11:57:18.001Z</time></trkpt><trkpt lat="43.73514798167588" lon="12.158985861535614"><ele>899.0</ele><time>2026-04-20T11:57:19.001Z</time></trkpt><trkpt lat="43.73515637845463" lon="12.158789494402082"><ele>899.0</ele><time>2026-04-20T11:57:20.001Z</time></trkpt><trkpt lat="43.735171147892984" lon="12.158571869522415"><ele>899.0</ele><time>2026-04-20T11:57:21.001Z</time></trkpt><trkpt lat="43.73518934857405" lon="12.158344115469205"><ele>899.0</ele><time>2026-04-20T11:57:22.001Z</time></trkpt><trkpt lat="43.735209162068536" lon="12.158116847693753"><ele>898.0</ele><time>2026-04-20T11:57:23.001Z</time></trkpt><trkpt lat="43.735214419935176" lon="12.157889840285407"><ele>897.0</ele><time>2026-04-20T11:57:24.001Z</time></trkpt><trkpt lat="43.735242478149125" lon="12.157690350096722"><ele>896.0</ele><time>2026-04-20T11:57:25.001Z</time></trkpt><trkpt lat="43.735257575844614" lon="12.157492715679801"><ele>898.6666666666667</ele><time>2026-04-20T11:57:26.001Z</time></trkpt><trkpt lat="43.73526262605569" lon="12.157276619155628"><ele>901.3333333333333</ele><time>2026-04-20T11:57:27.001Z</time></trkpt><trkpt lat="43.7352190803857" lon="12.157060012172995"><ele>904.0</ele><time>2026-04-20T11:57:28.001Z</time></trkpt><trkpt lat="43.73516253652396" lon="12.156843594528851"><ele>904.0</ele><time>2026-04-20T11:57:29.001Z</time></trkpt><trkpt lat="43.73509648192751" lon="12.156646854049068"><ele>904.0</ele><time>2026-04-20T11:57:30.001Z</time></trkpt><trkpt lat="43.73506394233988" lon="12.156463223908654"><ele>904.0</ele><time>2026-04-20T11:57:31.001Z</time></trkpt><trkpt lat="43.735052762772455" lon="12.156300400781443"><ele>904.0</ele><time>2026-04-20T11:57:32.001Z</time></trkpt><trkpt lat="43.73502101740553" lon="12.156157974874263"><ele>911.25</ele><time>2026-04-20T11:57:33.001Z</time></trkpt><trkpt lat="43.734951862894995" lon="12.156037286504525"><ele>918.5</ele><time>2026-04-20T11:57:34Z</time></trkpt><trkpt lat="43.73484856021465" lon="12.155966890796844"><ele>925.75</ele><time>2026-04-20T11:57:35Z</time></trkpt><trkpt lat="43.734706785460176" lon="12.155979666865257"><ele>933.0</ele><time>2026-04-20T11:57:36Z</time></trkpt><trkpt lat="43.73457389670923" lon="12.156033736595973"><ele>933.0</ele><time>2026-04-20T11:57:37Z</time></trkpt><trkpt lat="43.734420224041735" lon="12.156096857170597"><ele>933.0</ele><time>2026-04-20T11:57:38Z</time></trkpt><trkpt lat="43.73426691708676" lon="12.156106734512528"><ele>933.0</ele><time>2026-04-20T11:57:39Z</time></trkpt><trkpt lat="43.73412263171288" lon="12.156106503595202"><ele>929.75</ele><time>2026-04-20T11:57:40Z</time></trkpt><trkpt lat="43.73401016729926" lon="12.156056425150792"><ele>926.5</ele><time>2026-04-20T11:57:41Z</time></trkpt><trkpt lat="43.73389944657863" lon="12.155958153272287"><ele>923.25</ele><time>2026-04-20T11:57:42Z</time></trkpt><trkpt lat="43.73377148207597" lon="12.155857884620941"><ele>920.0</ele><time>2026-04-20T11:57:43Z</time></trkpt><trkpt lat="43.73362337731338" lon="12.155782904865225"><ele>917.0</ele><time>2026-04-20T11:57:44Z</time></trkpt><trkpt lat="43.733465037095414" lon="12.15578203079036"><ele>914.0</ele><time>2026-04-20T11:57:45Z</time></trkpt><trkpt lat="43.73330635785163" lon="12.155801164099532"><ele>911.0</ele><time>2026-04-20T11:57:46Z</time></trkpt><trkpt lat="43.73316268056939" lon="12.155853643955805"><ele>911.0</ele><time>2026-04-20T11:57:47Z</time></trkpt><trkpt lat="43.73304655257379" lon="12.155904209661077"><ele>910.9999999999999</ele><time>2026-04-20T11:57:48Z</time></trkpt><trkpt lat="43.73295005091169" lon="12.155913271441362"><ele>910.9999999999999</ele><time>2026-04-20T11:57:49Z</time></trkpt><trkpt lat="43.73285810863625" lon="12.155888734242271"><ele>911.0</ele><time>2026-04-20T11:57:50Z</time></trkpt><trkpt lat="43.732778555993825" lon="12.155816945429846"><ele>911.0</ele><time>2026-04-20T11:57:51Z</time></trkpt><trkpt lat="43.732707807561056" lon="12.155697780987174"><ele>907.5</ele><time>2026-04-20T11:57:52Z</time></trkpt><trkpt lat="43.73268762878942" lon="12.155534954865558"><ele>904.0</ele><time>2026-04-20T11:57:53Z</time></trkpt><trkpt lat="43.73267278186058" lon="12.155379508405154"><ele>900.5</ele><time>2026-04-20T11:57:54Z</time></trkpt><trkpt lat="43.7326817647299" lon="12.155220595245357"><ele>897.0</ele><time>2026-04-20T11:57:55Z</time></trkpt><trkpt lat="43.732707264138924" lon="12.155035576020248"><ele>897.5</ele><time>2026-04-20T11:57:56Z</time></trkpt><trkpt lat="43.73273644569786" lon="12.154852987424759"><ele>898.0</ele><time>2026-04-20T11:57:57Z</time></trkpt><trkpt lat="43.73274384821602" lon="12.154680790200688"><ele>898.5</ele><time>2026-04-20T11:57:58Z</time></trkpt><trkpt lat="43.732705158288276" lon="12.154508238916232"><ele>899.0</ele><time>2026-04-20T11:57:59Z</time></trkpt><trkpt lat="43.7326552459" lon="12.154329382101752"><ele>899.0</ele><time>2026-04-20T11:58:00Z</time></trkpt><trkpt lat="43.732581850082916" lon="12.154160997028141"><ele>899.0</ele><time>2026-04-20T11:58:01Z</time></trkpt><trkpt lat="43.73252254098849" lon="12.153986449684718"><ele>899.0</ele><time>2026-04-20T11:58:02Z</time></trkpt><trkpt lat="43.73248314387579" lon="12.153824346778606"><ele>899.0</ele><time>2026-04-20T11:58:03Z</time></trkpt><trkpt lat="43.732461433757585" lon="12.153689656168385"><ele>898.6666666666667</ele><time>2026-04-20T11:58:04Z</time></trkpt><trkpt lat="43.732484319311745" lon="12.153570176112478"><ele>898.3333333333334</ele><time>2026-04-20T11:58:05Z</time></trkpt><trkpt lat="43.73250797154524" lon="12.153449600669056"><ele>898.0</ele><time>2026-04-20T11:58:06Z</time></trkpt><trkpt lat="43.73253648306545" lon="12.15334052085679"><ele>897.6666666666667</ele><time>2026-04-20T11:58:07Z</time></trkpt><trkpt lat="43.732577846186174" lon="12.153246387749105"><ele>897.3333333333334</ele><time>2026-04-20T11:58:08Z</time></trkpt><trkpt lat="43.73263177106837" lon="12.1531529298932"><ele>897.0</ele><time>2026-04-20T11:58:09Z</time></trkpt><trkpt lat="43.732690001879526" lon="12.153066157822224"><ele>901.6666666666666</ele><time>2026-04-20T11:58:10Z</time></trkpt><trkpt lat="43.73275585831655" lon="12.152993867478424"><ele>906.3333333333333</ele><time>2026-04-20T11:58:11Z</time></trkpt><trkpt lat="43.73281379322091" lon="12.152911105498504"><ele>911.0</ele><time>2026-04-20T11:58:12Z</time></trkpt><trkpt lat="43.732855157059234" lon="12.152825029908692"><ele>915.6666666666666</ele><time>2026-04-20T11:58:13Z</time></trkpt><trkpt lat="43.73287612644864" lon="12.15272295700274"><ele>920.3333333333333</ele><time>2026-04-20T11:58:14Z</time></trkpt><trkpt lat="43.732869848244974" lon="12.15262915886335"><ele>925.0</ele><time>2026-04-20T11:58:15Z</time></trkpt><trkpt lat="43.732832070798445" lon="12.152550199932234"><ele>919.8333333333333</ele><time>2026-04-20T11:58:16Z</time></trkpt><trkpt lat="43.732709691542645" lon="12.1525394257072"><ele>914.6666666666666</ele><time>2026-04-20T11:58:18Z</time></trkpt><trkpt lat="43.73265622506459" lon="12.152612506299269"><ele>909.5</ele><time>2026-04-20T11:58:19Z</time></trkpt><trkpt lat="43.73259025918702" lon="12.152666495649957"><ele>904.3333333333333</ele><time>2026-04-20T11:58:20Z</time></trkpt><trkpt lat="43.732527425259725" lon="12.152724866806658"><ele>899.1666666666666</ele><time>2026-04-20T11:58:21Z</time></trkpt><trkpt lat="43.73246129580018" lon="12.152777319489047"><ele>894.0</ele><time>2026-04-20T11:58:22Z</time></trkpt><trkpt lat="43.732397263767616" lon="12.152811742070359"><ele>894.0</ele><time>2026-04-20T11:58:23Z</time></trkpt><trkpt lat="43.73230405763988" lon="12.152810822076095"><ele>894.0</ele><time>2026-04-20T11:58:25Z</time></trkpt><trkpt lat="43.732319284477825" lon="12.15272354356017"><ele>894.0</ele><time>2026-04-20T11:58:27Z</time></trkpt><trkpt lat="43.732416935852925" lon="12.152662893487303"><ele>894.0</ele><time>2026-04-20T11:58:32Z</time></trkpt><trkpt lat="43.73248415009003" lon="12.152630851929786"><ele>894.0</ele><time>2026-04-20T11:58:33Z</time></trkpt><trkpt lat="43.7325602334018" lon="12.15256417124639"><ele>894.0</ele><time>2026-04-20T11:58:34Z</time></trkpt><trkpt lat="43.73263623996642" lon="12.152472545685866"><ele>890.75</ele><time>2026-04-20T11:58:35Z</time></trkpt><trkpt lat="43.73268909121039" lon="12.152330171986858"><ele>887.5</ele><time>2026-04-20T11:58:36Z</time></trkpt><trkpt lat="43.73274592953976" lon="12.152207511191225"><ele>884.25</ele><time>2026-04-20T11:58:37Z</time></trkpt><trkpt lat="43.73279941984442" lon="12.152072939107835"><ele>881.0</ele><time>2026-04-20T11:58:38Z</time></trkpt><trkpt lat="43.732854907572346" lon="12.151925628058631"><ele>891.5</ele><time>2026-04-20T11:58:39Z</time></trkpt><trkpt lat="43.732905607882074" lon="12.151777919115718"><ele>902.0</ele><time>2026-04-20T11:58:40Z</time></trkpt><trkpt lat="43.73294702535794" lon="12.15162846741302"><ele>912.5</ele><time>2026-04-20T11:58:41Z</time></trkpt><trkpt lat="43.732996272718616" lon="12.151489814940147"><ele>923.0</ele><time>2026-04-20T11:58:42Z</time></trkpt><trkpt lat="43.73302734385628" lon="12.1513403246909"><ele>923.0</ele><time>2026-04-20T11:58:43Z</time></trkpt><trkpt lat="43.73306704483521" lon="12.151207302049965"><ele>923.0</ele><time>2026-04-20T11:58:44Z</time></trkpt><trkpt lat="43.73305715062168" lon="12.151064622169736"><ele>923.0</ele><time>2026-04-20T11:58:45Z</time></trkpt><trkpt lat="43.73305123618901" lon="12.150917642224853"><ele>923.0</ele><time>2026-04-20T11:58:46Z</time></trkpt><trkpt lat="43.73302214255614" lon="12.150773987940244"><ele>923.0</ele><time>2026-04-20T11:58:47Z</time></trkpt><trkpt lat="43.73295458431767" lon="12.150640853594885"><ele>921.25</ele><time>2026-04-20T11:58:48Z</time></trkpt><trkpt lat="43.732884194015675" lon="12.150496952738097"><ele>919.5</ele><time>2026-04-20T11:58:49Z</time></trkpt><trkpt lat="43.73285011631781" lon="12.150317331671665"><ele>917.75</ele><time>2026-04-20T11:58:50Z</time></trkpt><trkpt lat="43.73280893377065" lon="12.150144813373387"><ele>916.0</ele><time>2026-04-20T11:58:51Z</time></trkpt><trkpt lat="43.73276732086806" lon="12.15001077813603"><ele>915.9999999999999</ele><time>2026-04-20T11:58:52Z</time></trkpt><trkpt lat="43.73277179996514" lon="12.14988305732765"><ele>916.0</ele><time>2026-04-20T11:58:53Z</time></trkpt><trkpt lat="43.732767847650884" lon="12.149770132105608"><ele>916.0</ele><time>2026-04-20T11:58:54Z</time></trkpt><trkpt lat="43.732825125109805" lon="12.149673411454904"><ele>916.0</ele><time>2026-04-20T11:58:55Z</time></trkpt><trkpt lat="43.73289160442761" lon="12.149608218075185"><ele>915.9999999999999</ele><time>2026-04-20T11:58:56Z</time></trkpt><trkpt lat="43.7329749383837" lon="12.149558782454728"><ele>916.0</ele><time>2026-04-20T11:58:57Z</time></trkpt><trkpt lat="43.73307351707545" lon="12.14955029304107"><ele>918.5999999999999</ele><time>2026-04-20T11:58:58Z</time></trkpt><trkpt lat="43.73318837026497" lon="12.149528672029565"><ele>921.1999999999999</ele><time>2026-04-20T11:58:59Z</time></trkpt><trkpt lat="43.73331250199011" lon="12.149505304363851"><ele>923.8000000000001</ele><time>2026-04-20T11:59:00Z</time></trkpt><trkpt lat="43.733415108121136" lon="12.149488470491754"><ele>926.4000000000001</ele><time>2026-04-20T11:59:01Z</time></trkpt><trkpt lat="43.733514085621636" lon="12.149472197392818"><ele>929.0</ele><time>2026-04-20T11:59:02Z</time></trkpt><trkpt lat="43.73360432661911" lon="12.149451282996306"><ele>929.0000000000001</ele><time>2026-04-20T11:59:03Z</time></trkpt><trkpt lat="43.73368365410783" lon="12.149422204982509"><ele>929.0</ele><time>2026-04-20T11:59:04Z</time></trkpt><trkpt lat="43.73374116535883" lon="12.14934679568468"><ele>929.0</ele><time>2026-04-20T11:59:05Z</time></trkpt><trkpt lat="43.73376752453933" lon="12.149252049722866"><ele>929.0</ele><time>2026-04-20T11:59:06Z</time></trkpt><trkpt lat="43.73374755730824" lon="12.14914604162259"><ele>929.0000000000001</ele><time>2026-04-20T11:59:07Z</time></trkpt><trkpt lat="43.733736124410434" lon="12.149021525830593"><ele>929.0</ele><time>2026-04-20T11:59:08Z</time></trkpt><trkpt lat="43.73370390776924" lon="12.148877183010518"><ele>929.25</ele><time>2026-04-20T11:59:09Z</time></trkpt><trkpt lat="43.73365177303026" lon="12.148724414721356"><ele>929.5</ele><time>2026-04-20T11:59:10Z</time></trkpt><trkpt lat="43.73361337789223" lon="12.148574393513467"><ele>929.75</ele><time>2026-04-20T11:59:11Z</time></trkpt><trkpt lat="43.73358304157391" lon="12.148427062487546"><ele>930.0</ele><time>2026-04-20T11:59:12Z</time></trkpt><trkpt lat="43.733575567318816" lon="12.1482754925465"><ele>927.6</ele><time>2026-04-20T11:59:13Z</time></trkpt><trkpt lat="43.7335566449532" lon="12.148116370060869"><ele>925.2</ele><time>2026-04-20T11:59:14Z</time></trkpt><trkpt lat="43.73353780960064" lon="12.147969897571368"><ele>922.8</ele><time>2026-04-20T11:59:15Z</time></trkpt><trkpt lat="43.73351985560264" lon="12.147842492074375"><ele>920.4</ele><time>2026-04-20T11:59:16Z</time></trkpt><trkpt lat="43.733510175920316" lon="12.147738736478804"><ele>918.0</ele><time>2026-04-20T11:59:17Z</time></trkpt><trkpt lat="43.73351622590832" lon="12.147564678656781"><ele>918.0</ele><time>2026-04-20T11:59:19Z</time></trkpt><trkpt lat="43.733544029824806" lon="12.147470957014978"><ele>918.0</ele><time>2026-04-20T11:59:20Z</time></trkpt><trkpt lat="43.73358900164795" lon="12.147385542331767"><ele>918.0</ele><time>2026-04-20T11:59:21Z</time></trkpt><trkpt lat="43.73366092974106" lon="12.147341278555109"><ele>918.0</ele><time>2026-04-20T11:59:22Z</time></trkpt><trkpt lat="43.73374076056608" lon="12.147291036995378"><ele>918.0</ele><time>2026-04-20T11:59:23.001Z</time></trkpt><trkpt lat="43.73384517992353" lon="12.147241739238929"><ele>918.0</ele><time>2026-04-20T11:59:24.001Z</time></trkpt><trkpt lat="43.73396060145554" lon="12.147200759827504"><ele>911.5</ele><time>2026-04-20T11:59:25.001Z</time></trkpt><trkpt lat="43.734082022038635" lon="12.147169917627549"><ele>905.0</ele><time>2026-04-20T11:59:26.001Z</time></trkpt><trkpt lat="43.73421215685901" lon="12.147145865953018"><ele>898.5</ele><time>2026-04-20T11:59:27.001Z</time></trkpt><trkpt lat="43.734332960506684" lon="12.147135543090913"><ele>892.0</ele><time>2026-04-20T11:59:28.001Z</time></trkpt><trkpt lat="43.734432301189266" lon="12.147146702429726"><ele>894.4000000000001</ele><time>2026-04-20T11:59:29.001Z</time></trkpt><trkpt lat="43.7345110786229" lon="12.147184528580269"><ele>896.8000000000001</ele><time>2026-04-20T11:59:30.001Z</time></trkpt><trkpt lat="43.73458010781492" lon="12.147248481017757"><ele>899.2</ele><time>2026-04-20T11:59:31.001Z</time></trkpt><trkpt lat="43.7346628474837" lon="12.147339557834677"><ele>901.6</ele><time>2026-04-20T11:59:32.001Z</time></trkpt><trkpt lat="43.73475778597121" lon="12.147437029797423"><ele>904.0</ele><time>2026-04-20T11:59:33.001Z</time></trkpt><trkpt lat="43.73487592512837" lon="12.147511112784679"><ele>904.0</ele><time>2026-04-20T11:59:34.001Z</time></trkpt><trkpt lat="43.73496880171883" lon="12.147612196778654"><ele>904.0</ele><time>2026-04-20T11:59:35.001Z</time></trkpt><trkpt lat="43.735082743210654" lon="12.147687600253168"><ele>904.0</ele><time>2026-04-20T11:59:36.001Z</time></trkpt><trkpt lat="43.7352000446749" lon="12.147750367636117"><ele>904.0</ele><time>2026-04-20T11:59:37.001Z</time></trkpt><trkpt lat="43.735319773023484" lon="12.14780324354231"><ele>904.8000000000001</ele><time>2026-04-20T11:59:38.001Z</time></trkpt><trkpt lat="43.735438511806834" lon="12.147804184746093"><ele>905.6000000000001</ele><time>2026-04-20T11:59:39.001Z</time></trkpt><trkpt lat="43.73554565685792" lon="12.147803168791054"><ele>906.4</ele><time>2026-04-20T11:59:40.001Z</time></trkpt><trkpt lat="43.7356364942442" lon="12.147781977707169"><ele>907.2</ele><time>2026-04-20T11:59:41.001Z</time></trkpt><trkpt lat="43.73571937796415" lon="12.147769251746084"><ele>908.0</ele><time>2026-04-20T11:59:42.001Z</time></trkpt><trkpt lat="43.7357686386188" lon="12.147693980981304"><ele>908.0</ele><time>2026-04-20T11:59:43.001Z</time></trkpt><trkpt lat="43.73580100683283" lon="12.147557927869569"><ele>908.0</ele><time>2026-04-20T11:59:44Z</time></trkpt><trkpt lat="43.735838382124065" lon="12.147419446971996"><ele>908.0</ele><time>2026-04-20T11:59:45Z</time></trkpt><trkpt lat="43.73587866834315" lon="12.147257303426613"><ele>908.0</ele><time>2026-04-20T11:59:46Z</time></trkpt><trkpt lat="43.73591741821409" lon="12.147110263468312"><ele>908.0</ele><time>2026-04-20T11:59:47Z</time></trkpt><trkpt lat="43.735950152994555" lon="12.146955798133156"><ele>909.5999999999999</ele><time>2026-04-20T11:59:48Z</time></trkpt><trkpt lat="43.73600048759812" lon="12.146829988771156"><ele>911.1999999999999</ele><time>2026-04-20T11:59:49Z</time></trkpt><trkpt lat="43.73608120873353" lon="12.146783216895638"><ele>912.8</ele><time>2026-04-20T11:59:50Z</time></trkpt><trkpt lat="43.736149342784586" lon="12.146725359017886"><ele>914.4</ele><time>2026-04-20T11:59:51Z</time></trkpt><trkpt lat="43.73625635645728" lon="12.146685810449883"><ele>916.0</ele><time>2026-04-20T11:59:52Z</time></trkpt><trkpt lat="43.73638184261788" lon="12.146642592832945"><ele>916.0</ele><time>2026-04-20T11:59:53Z</time></trkpt><trkpt lat="43.7365195808986" lon="12.146626486823154"><ele>916.0</ele><time>2026-04-20T11:59:54Z</time></trkpt><trkpt lat="43.736643533033245" lon="12.14660165247519"><ele>916.0</ele><time>2026-04-20T11:59:55Z</time></trkpt><trkpt lat="43.73675320483978" lon="12.146540166680913"><ele>916.0</ele><time>2026-04-20T11:59:56Z</time></trkpt><trkpt lat="43.73687183545004" lon="12.14647527018612"><ele>909.25</ele><time>2026-04-20T11:59:57Z</time></trkpt><trkpt lat="43.73699147624796" lon="12.146374809837882"><ele>902.5</ele><time>2026-04-20T11:59:58Z</time></trkpt><trkpt lat="43.73712543393944" lon="12.146292437646059"><ele>895.75</ele><time>2026-04-20T11:59:59Z</time></trkpt><trkpt lat="43.73725437142368" lon="12.146207010155424"><ele>889.0</ele><time>2026-04-20T12:00:00Z</time></trkpt><trkpt lat="43.73737039626394" lon="12.146130451839259"><ele>889.0</ele><time>2026-04-20T12:00:01Z</time></trkpt><trkpt lat="43.73748133747601" lon="12.146070613543396"><ele>889.0000000000001</ele><time>2026-04-20T12:00:02Z</time></trkpt><trkpt lat="43.73758931447186" lon="12.146041141682444"><ele>889.0000000000001</ele><time>2026-04-20T12:00:03Z</time></trkpt><trkpt lat="43.73767952537498" lon="12.14600219940292"><ele>889.0</ele><time>2026-04-20T12:00:04Z</time></trkpt><trkpt lat="43.73776716371108" lon="12.146022504431672"><ele>889.0</ele><time>2026-04-20T12:00:05Z</time></trkpt><trkpt lat="43.73785045564017" lon="12.146109953031917"><ele>891.5</ele><time>2026-04-20T12:00:06Z</time></trkpt><trkpt lat="43.73794470233808" lon="12.146184800284525"><ele>894.0</ele><time>2026-04-20T12:00:07Z</time></trkpt><trkpt lat="43.73806071299552" lon="12.146271933322502"><ele>896.5</ele><time>2026-04-20T12:00:08Z</time></trkpt><trkpt lat="43.73817027363996" lon="12.146340064116686"><ele>899.0</ele><time>2026-04-20T12:00:09Z</time></trkpt><trkpt lat="43.738266395750834" lon="12.146357084523732"><ele>899.0</ele><time>2026-04-20T12:00:10Z</time></trkpt><trkpt lat="43.738348758934734" lon="12.14636614743963"><ele>899.0000000000001</ele><time>2026-04-20T12:00:11Z</time></trkpt><trkpt lat="43.73841890819104" lon="12.146314202698992"><ele>899.0000000000001</ele><time>2026-04-20T12:00:12Z</time></trkpt><trkpt lat="43.7384886108188" lon="12.146253825392717"><ele>899.0</ele><time>2026-04-20T12:00:13Z</time></trkpt><trkpt lat="43.738525181626315" lon="12.146109583397271"><ele>899.0</ele><time>2026-04-20T12:00:14Z</time></trkpt><trkpt lat="43.73855053324202" lon="12.14595448931748"><ele>900.4000000000001</ele><time>2026-04-20T12:00:15Z</time></trkpt><trkpt lat="43.73855865457969" lon="12.145803321783042"><ele>901.8000000000001</ele><time>2026-04-20T12:00:16Z</time></trkpt><trkpt lat="43.73860529435243" lon="12.145696197221788"><ele>903.1999999999999</ele><time>2026-04-20T12:00:17Z</time></trkpt><trkpt lat="43.738651336741235" lon="12.145621974799262"><ele>904.5999999999999</ele><time>2026-04-20T12:00:18Z</time></trkpt><trkpt lat="43.738774605146496" lon="12.145604822326417"><ele>906.0</ele><time>2026-04-20T12:00:20Z</time></trkpt><trkpt lat="43.738885381600625" lon="12.145712324228437"><ele>908.5999999999999</ele><time>2026-04-20T12:00:22Z</time></trkpt><trkpt lat="43.738964863102964" lon="12.14576918034276"><ele>911.1999999999999</ele><time>2026-04-20T12:00:23Z</time></trkpt><trkpt lat="43.73906753488339" lon="12.14579509877551"><ele>913.8000000000001</ele><time>2026-04-20T12:00:24Z</time></trkpt><trkpt lat="43.739161292029316" lon="12.145816865843475"><ele>916.4000000000001</ele><time>2026-04-20T12:00:25Z</time></trkpt><trkpt lat="43.73927747108672" lon="12.145842262206445"><ele>919.0</ele><time>2026-04-20T12:00:26Z</time></trkpt><trkpt lat="43.739393615995546" lon="12.145861284826944"><ele>922.0</ele><time>2026-04-20T12:00:27Z</time></trkpt><trkpt lat="43.739523358552056" lon="12.145865360726324"><ele>925.0</ele><time>2026-04-20T12:00:28Z</time></trkpt><trkpt lat="43.7396613217252" lon="12.145859062625437"><ele>928.0</ele><time>2026-04-20T12:00:29Z</time></trkpt><trkpt lat="43.73979059370854" lon="12.145850588721379"><ele>931.0</ele><time>2026-04-20T12:00:30Z</time></trkpt><trkpt lat="43.73990262964674" lon="12.145843244668894"><ele>931.0</ele><time>2026-04-20T12:00:31Z</time></trkpt><trkpt lat="43.739983145549004" lon="12.145834328713532"><ele>930.9999999999999</ele><time>2026-04-20T12:00:32Z</time></trkpt><trkpt lat="43.74007325413331" lon="12.145706035962297"><ele>930.9999999999999</ele><time>2026-04-20T12:00:34Z</time></trkpt><trkpt lat="43.74007733054989" lon="12.145599550959439"><ele>931.0</ele><time>2026-04-20T12:00:35Z</time></trkpt><trkpt lat="43.74001644168131" lon="12.145473304193661"><ele>931.0</ele><time>2026-04-20T12:00:36Z</time></trkpt><trkpt lat="43.73997948229566" lon="12.145347721313199"><ele>930.8</ele><time>2026-04-20T12:00:37Z</time></trkpt><trkpt lat="43.7399295818344" lon="12.145257297401047"><ele>930.5999999999999</ele><time>2026-04-20T12:00:38Z</time></trkpt><trkpt lat="43.73986822342947" lon="12.145160251187695"><ele>930.4</ele><time>2026-04-20T12:00:39Z</time></trkpt><trkpt lat="43.73975725182819" lon="12.145132486060895"><ele>930.2</ele><time>2026-04-20T12:00:40Z</time></trkpt><trkpt lat="43.73966286759909" lon="12.145094786873825"><ele>930.0</ele><time>2026-04-20T12:00:41Z</time></trkpt><trkpt lat="43.739591824734454" lon="12.145046499786972"><ele>930.0</ele><time>2026-04-20T12:00:42Z</time></trkpt><trkpt lat="43.73954538251184" lon="12.14496010165782"><ele>930.0</ele><time>2026-04-20T12:00:43Z</time></trkpt><trkpt lat="43.73952936321395" lon="12.144848816778769"><ele>930.0</ele><time>2026-04-20T12:00:44Z</time></trkpt><trkpt lat="43.73957210226107" lon="12.14474188929721"><ele>930.0</ele><time>2026-04-20T12:00:45Z</time></trkpt><trkpt lat="43.73963217210764" lon="12.144647966981477"><ele>930.0</ele><time>2026-04-20T12:00:46Z</time></trkpt><trkpt lat="43.73971614498283" lon="12.144588204245803"><ele>930.0</ele><time>2026-04-20T12:00:47Z</time></trkpt><trkpt lat="43.73981024835077" lon="12.144503313250704"><ele>931.6</ele><time>2026-04-20T12:00:48Z</time></trkpt><trkpt lat="43.739903732504374" lon="12.144386462803105"><ele>933.2</ele><time>2026-04-20T12:00:49Z</time></trkpt><trkpt lat="43.73997604495733" lon="12.144280938048299"><ele>934.8</ele><time>2026-04-20T12:00:50Z</time></trkpt><trkpt lat="43.7400512778357" lon="12.144181914567833"><ele>936.4</ele><time>2026-04-20T12:00:51Z</time></trkpt><trkpt lat="43.74009736815128" lon="12.144091739600304"><ele>938.0</ele><time>2026-04-20T12:00:52Z</time></trkpt><trkpt lat="43.74011656287929" lon="12.143982065315441"><ele>940.8</ele><time>2026-04-20T12:00:53Z</time></trkpt><trkpt lat="43.74005978261696" lon="12.143861841795044"><ele>943.5999999999999</ele><time>2026-04-20T12:00:54Z</time></trkpt><trkpt lat="43.73999329393151" lon="12.143765094002436"><ele>946.4000000000001</ele><time>2026-04-20T12:00:55Z</time></trkpt><trkpt lat="43.739917780916215" lon="12.143692484181228"><ele>949.2</ele><time>2026-04-20T12:00:56Z</time></trkpt><trkpt lat="43.73984429969401" lon="12.14357391025675"><ele>952.0</ele><time>2026-04-20T12:00:57Z</time></trkpt><trkpt lat="43.739751294594235" lon="12.143454883279066"><ele>952.0</ele><time>2026-04-20T12:00:58Z</time></trkpt><trkpt lat="43.73965055098431" lon="12.14334965737401"><ele>952.0</ele><time>2026-04-20T12:00:59Z</time></trkpt><trkpt lat="43.73953730585819" lon="12.143240102135936"><ele>952.0</ele><time>2026-04-20T12:01:00Z</time></trkpt><trkpt lat="43.73940989002145" lon="12.143130860764305"><ele>952.0</ele><time>2026-04-20T12:01:01Z</time></trkpt><trkpt lat="43.739268934195294" lon="12.143048749858906"><ele>951.8</ele><time>2026-04-20T12:01:02Z</time></trkpt><trkpt lat="43.739154532894084" lon="12.142974089164431"><ele>951.6</ele><time>2026-04-20T12:01:03Z</time></trkpt><trkpt lat="43.739052274565665" lon="12.142903969153721"><ele>951.3999999999999</ele><time>2026-04-20T12:01:04Z</time></trkpt><trkpt lat="43.73898046856055" lon="12.142839294962592"><ele>951.1999999999999</ele><time>2026-04-20T12:01:05Z</time></trkpt><trkpt lat="43.73895893596222" lon="12.142691751980724"><ele>951.0</ele><time>2026-04-20T12:01:07Z</time></trkpt><trkpt lat="43.73905011883648" lon="12.142590954541758"><ele>951.0</ele><time>2026-04-20T12:01:09Z</time></trkpt><trkpt lat="43.739118991716495" lon="12.142557613543477"><ele>950.9999999999999</ele><time>2026-04-20T12:01:10Z</time></trkpt><trkpt lat="43.73921618138536" lon="12.14251591166647"><ele>950.9999999999999</ele><time>2026-04-20T12:01:11Z</time></trkpt><trkpt lat="43.73932122371397" lon="12.142501777502385"><ele>951.0</ele><time>2026-04-20T12:01:12Z</time></trkpt><trkpt lat="43.73942499253146" lon="12.142518770431728"><ele>951.0</ele><time>2026-04-20T12:01:13Z</time></trkpt><trkpt lat="43.73951226327083" lon="12.142590309035786"><ele>954.1999999999999</ele><time>2026-04-20T12:01:14Z</time></trkpt><trkpt lat="43.7396207391142" lon="12.142664585065624"><ele>957.3999999999999</ele><time>2026-04-20T12:01:15Z</time></trkpt><trkpt lat="43.73972470185174" lon="12.142721497014321"><ele>960.6</ele><time>2026-04-20T12:01:16Z</time></trkpt><trkpt lat="43.73981905851799" lon="12.14275374949807"><ele>963.8</ele><time>2026-04-20T12:01:17Z</time></trkpt><trkpt lat="43.739923173091" lon="12.14275098875269"><ele>967.0</ele><time>2026-04-20T12:01:18Z</time></trkpt><trkpt lat="43.740032302082554" lon="12.14270582915088"><ele>967.0</ele><time>2026-04-20T12:01:19Z</time></trkpt><trkpt lat="43.740147987546486" lon="12.142688589810831"><ele>967.0</ele><time>2026-04-20T12:01:20Z</time></trkpt><trkpt lat="43.74026533922051" lon="12.142741856278796"><ele>967.0</ele><time>2026-04-20T12:01:21Z</time></trkpt><trkpt lat="43.74038354753388" lon="12.142800611976433"><ele>967.0</ele><time>2026-04-20T12:01:22Z</time></trkpt><trkpt lat="43.740500891234525" lon="12.142809277051496"><ele>969.25</ele><time>2026-04-20T12:01:23Z</time></trkpt><trkpt lat="43.74062354062637" lon="12.142792068107992"><ele>971.5</ele><time>2026-04-20T12:01:24Z</time></trkpt><trkpt lat="43.74075019261528" lon="12.142744287980443"><ele>973.75</ele><time>2026-04-20T12:01:25Z</time></trkpt><trkpt lat="43.74087847491768" lon="12.14266782985028"><ele>976.0</ele><time>2026-04-20T12:01:26Z</time></trkpt><trkpt lat="43.74098536142991" lon="12.142585191368243"><ele>975.5999999999999</ele><time>2026-04-20T12:01:27Z</time></trkpt><trkpt lat="43.741066378901614" lon="12.142516347093796"><ele>975.1999999999999</ele><time>2026-04-20T12:01:28Z</time></trkpt><trkpt lat="43.74113734293578" lon="12.142455867026332"><ele>974.8000000000001</ele><time>2026-04-20T12:01:29.001Z</time></trkpt><trkpt lat="43.74121348518174" lon="12.142400323095993"><ele>974.4000000000001</ele><time>2026-04-20T12:01:30.001Z</time></trkpt><trkpt lat="43.74130049577679" lon="12.142358716610609"><ele>974.0</ele><time>2026-04-20T12:01:31.001Z</time></trkpt><trkpt lat="43.741411664728176" lon="12.142304192434098"><ele>974.0</ele><time>2026-04-20T12:01:32.001Z</time></trkpt><trkpt lat="43.74152065509583" lon="12.142232078556445"><ele>974.0</ele><time>2026-04-20T12:01:33.001Z</time></trkpt><trkpt lat="43.74161654813773" lon="12.142126578495418"><ele>974.0</ele><time>2026-04-20T12:01:34.001Z</time></trkpt><trkpt lat="43.74172623194034" lon="12.142035204225843"><ele>974.0</ele><time>2026-04-20T12:01:35.001Z</time></trkpt><trkpt lat="43.741824892105036" lon="12.1419372938416"><ele>975.8000000000001</ele><time>2026-04-20T12:01:36.001Z</time></trkpt><trkpt lat="43.7419066516335" lon="12.141834254810783"><ele>977.6000000000001</ele><time>2026-04-20T12:01:37.001Z</time></trkpt><trkpt lat="43.74199545790553" lon="12.141793244400732"><ele>979.4</ele><time>2026-04-20T12:01:38.001Z</time></trkpt><trkpt lat="43.74207557954167" lon="12.141753944319955"><ele>981.2</ele><time>2026-04-20T12:01:39.001Z</time></trkpt><trkpt lat="43.74216413976357" lon="12.14171124430707"><ele>983.0</ele><time>2026-04-20T12:01:40.001Z</time></trkpt><trkpt lat="43.742245221302156" lon="12.141659420840337"><ele>983.0</ele><time>2026-04-20T12:01:41.001Z</time></trkpt><trkpt lat="43.74232295071362" lon="12.141565474772133"><ele>983.0</ele><time>2026-04-20T12:01:42.001Z</time></trkpt><trkpt lat="43.74239635721396" lon="12.141457030763311"><ele>983.0</ele><time>2026-04-20T12:01:43.001Z</time></trkpt><trkpt lat="43.74246974559945" lon="12.141327903420505"><ele>983.0</ele><time>2026-04-20T12:01:44.001Z</time></trkpt><trkpt lat="43.742552278882" lon="12.141200368179069"><ele>982.5</ele><time>2026-04-20T12:01:45.001Z</time></trkpt><trkpt lat="43.74263012049096" lon="12.141074733894428"><ele>982.0</ele><time>2026-04-20T12:01:46.001Z</time></trkpt><trkpt lat="43.74270949112706" lon="12.140944754240667"><ele>981.5</ele><time>2026-04-20T12:01:47.001Z</time></trkpt><trkpt lat="43.74277863102831" lon="12.140801137644836"><ele>981.0</ele><time>2026-04-20T12:01:48Z</time></trkpt><trkpt lat="43.74282850937325" lon="12.140643138376124"><ele>981.0</ele><time>2026-04-20T12:01:49Z</time></trkpt><trkpt lat="43.74287550398935" lon="12.140465456603314"><ele>981.0</ele><time>2026-04-20T12:01:50Z</time></trkpt><trkpt lat="43.742934857607146" lon="12.140298737946441"><ele>981.0</ele><time>2026-04-20T12:01:51Z</time></trkpt><trkpt lat="43.742996038022504" lon="12.140121187449418"><ele>981.0</ele><time>2026-04-20T12:01:52Z</time></trkpt><trkpt lat="43.743051003866825" lon="12.139937962457255"><ele>980.75</ele><time>2026-04-20T12:01:53Z</time></trkpt><trkpt lat="43.743090994767606" lon="12.139738468494347"><ele>980.5</ele><time>2026-04-20T12:01:54Z</time></trkpt><trkpt lat="43.74314980202819" lon="12.139561869662408"><ele>980.25</ele><time>2026-04-20T12:01:55Z</time></trkpt><trkpt lat="43.74320357933547" lon="12.139373442509457"><ele>980.0</ele><time>2026-04-20T12:01:56Z</time></trkpt><trkpt lat="43.74323777871171" lon="12.139205625075283"><ele>980.0</ele><time>2026-04-20T12:01:57Z</time></trkpt><trkpt lat="43.74327000947636" lon="12.139042328305726"><ele>980.0</ele><time>2026-04-20T12:01:58Z</time></trkpt><trkpt lat="43.743284263771905" lon="12.138865750174906"><ele>980.0</ele><time>2026-04-20T12:01:59Z</time></trkpt><trkpt lat="43.74329388706612" lon="12.138722207205046"><ele>980.0</ele><time>2026-04-20T12:02:00Z</time></trkpt><trkpt lat="43.743302567919976" lon="12.138590486447375"><ele>980.0000000000001</ele><time>2026-04-20T12:02:01Z</time></trkpt><trkpt lat="43.743313267989734" lon="12.138462147592598"><ele>980.0</ele><time>2026-04-20T12:02:02Z</time></trkpt><trkpt lat="43.743330722477786" lon="12.138325097438672"><ele>980.0</ele><time>2026-04-20T12:02:03Z</time></trkpt><trkpt lat="43.743359593684104" lon="12.138229006287235"><ele>980.0</ele><time>2026-04-20T12:02:04Z</time></trkpt><trkpt lat="43.74339449622123" lon="12.138150505965347"><ele>980.0000000000001</ele><time>2026-04-20T12:02:05Z</time></trkpt><trkpt lat="43.743436244380696" lon="12.138053658129804"><ele>980.0</ele><time>2026-04-20T12:02:06Z</time></trkpt><trkpt lat="43.743494863602734" lon="12.137891872642188"><ele>982.0</ele><time>2026-04-20T12:02:07Z</time></trkpt><trkpt lat="43.74357089153849" lon="12.137725752825768"><ele>984.0</ele><time>2026-04-20T12:02:08Z</time></trkpt><trkpt lat="43.74363539376582" lon="12.137535917669902"><ele>986.0</ele><time>2026-04-20T12:02:09Z</time></trkpt><trkpt lat="43.74372386735679" lon="12.137364984815344"><ele>988.0</ele><time>2026-04-20T12:02:10Z</time></trkpt><trkpt lat="43.7437932782262" lon="12.1371932213978"><ele>988.0</ele><time>2026-04-20T12:02:11Z</time></trkpt><trkpt lat="43.743860372886196" lon="12.137034886681798"><ele>988.0</ele><time>2026-04-20T12:02:12Z</time></trkpt><trkpt lat="43.743913453389126" lon="12.136861422381168"><ele>988.0</ele><time>2026-04-20T12:02:13Z</time></trkpt><trkpt lat="43.74398005404912" lon="12.136702505794512"><ele>988.0</ele><time>2026-04-20T12:02:14Z</time></trkpt><trkpt lat="43.74404013834941" lon="12.13657010620959"><ele>987.5999999999999</ele><time>2026-04-20T12:02:15Z</time></trkpt><trkpt lat="43.74413103886638" lon="12.136463684586927"><ele>987.1999999999999</ele><time>2026-04-20T12:02:16Z</time></trkpt><trkpt lat="43.74421908129348" lon="12.136383834341217"><ele>986.8</ele><time>2026-04-20T12:02:17Z</time></trkpt><trkpt lat="43.74431389475497" lon="12.136274271716468"><ele>986.4</ele><time>2026-04-20T12:02:18Z</time></trkpt><trkpt lat="43.74437975946117" lon="12.136176081342729"><ele>986.0</ele><time>2026-04-20T12:02:19Z</time></trkpt><trkpt lat="43.744404047321595" lon="12.136036396972873"><ele>986.0</ele><time>2026-04-20T12:02:20Z</time></trkpt><trkpt lat="43.74442107514206" lon="12.135907945393287"><ele>986.0</ele><time>2026-04-20T12:02:21Z</time></trkpt><trkpt lat="43.744364049061694" lon="12.13576980095304"><ele>986.0</ele><time>2026-04-20T12:02:22Z</time></trkpt><trkpt lat="43.74431645794449" lon="12.135607455813547"><ele>986.0</ele><time>2026-04-20T12:02:23Z</time></trkpt><trkpt lat="43.74424925404729" lon="12.135457288742566"><ele>988.0</ele><time>2026-04-20T12:02:24Z</time></trkpt><trkpt lat="43.74417212559812" lon="12.135302740369527"><ele>989.9999999999999</ele><time>2026-04-20T12:02:25Z</time></trkpt><trkpt lat="43.74410350892577" lon="12.135155479360392"><ele>991.9999999999999</ele><time>2026-04-20T12:02:26Z</time></trkpt><trkpt lat="43.74406181779599" lon="12.135041098098085"><ele>994.0</ele><time>2026-04-20T12:02:27Z</time></trkpt><trkpt lat="43.744043778361565" lon="12.134937495851664"><ele>996.0</ele><time>2026-04-20T12:02:28Z</time></trkpt><trkpt lat="43.74403080232941" lon="12.13477581079002"><ele>996.8</ele><time>2026-04-20T12:02:29Z</time></trkpt><trkpt lat="43.74401281770888" lon="12.13464030725812"><ele>997.5999999999999</ele><time>2026-04-20T12:02:30Z</time></trkpt><trkpt lat="43.7439820362706" lon="12.134526999152472"><ele>998.4</ele><time>2026-04-20T12:02:31Z</time></trkpt><trkpt lat="43.74388579834412" lon="12.134437743193198"><ele>999.2</ele><time>2026-04-20T12:02:32Z</time></trkpt><trkpt lat="43.74379409077615" lon="12.134323213528084"><ele>1000.0</ele><time>2026-04-20T12:02:33Z</time></trkpt><trkpt lat="43.7436792677186" lon="12.134231402776285"><ele>1000.0</ele><time>2026-04-20T12:02:34Z</time></trkpt><trkpt lat="43.743589616574184" lon="12.134161038839657"><ele>1000.0</ele><time>2026-04-20T12:02:35Z</time></trkpt><trkpt lat="43.74350119180462" lon="12.134121488842299"><ele>1000.0</ele><time>2026-04-20T12:02:36Z</time></trkpt><trkpt lat="43.74340951512602" lon="12.134116297662809"><ele>1000.0</ele><time>2026-04-20T12:02:37Z</time></trkpt><trkpt lat="43.74330701478261" lon="12.134113698659185"><ele>1000.0</ele><time>2026-04-20T12:02:38Z</time></trkpt><trkpt lat="43.74320687695206" lon="12.134110386322064"><ele>997.8</ele><time>2026-04-20T12:02:39Z</time></trkpt><trkpt lat="43.74312259852009" lon="12.134107708916458"><ele>995.6</ele><time>2026-04-20T12:02:40Z</time></trkpt><trkpt lat="43.7430321116135" lon="12.134108783185544"><ele>993.4000000000001</ele><time>2026-04-20T12:02:41Z</time></trkpt><trkpt lat="43.742942096118405" lon="12.13411580416917"><ele>991.2</ele><time>2026-04-20T12:02:42Z</time></trkpt><trkpt lat="43.74284350151768" lon="12.134128241523124"><ele>989.0</ele><time>2026-04-20T12:02:43Z</time></trkpt><trkpt lat="43.742749609881216" lon="12.13414131679598"><ele>987.5000000000001</ele><time>2026-04-20T12:02:44Z</time></trkpt><trkpt lat="43.74265272922941" lon="12.134178237788126"><ele>986.0</ele><time>2026-04-20T12:02:45Z</time></trkpt><trkpt lat="43.74256527549497" lon="12.134181305057417"><ele>984.5</ele><time>2026-04-20T12:02:46Z</time></trkpt><trkpt lat="43.74247116266076" lon="12.13418991168126"><ele>983.0</ele><time>2026-04-20T12:02:47Z</time></trkpt><trkpt lat="43.742388714666895" lon="12.13416064430785"><ele>981.5000000000001</ele><time>2026-04-20T12:02:48Z</time></trkpt><trkpt lat="43.74231832940272" lon="12.13413635040764"><ele>980.0</ele><time>2026-04-20T12:02:49Z</time></trkpt><trkpt lat="43.74224906280571" lon="12.134094382208447"><ele>980.6</ele><time>2026-04-20T12:02:50Z</time></trkpt><trkpt lat="43.74219731422329" lon="12.134016402429932"><ele>981.2</ele><time>2026-04-20T12:02:51Z</time></trkpt><trkpt lat="43.74214327975043" lon="12.133921770006936"><ele>981.8</ele><time>2026-04-20T12:02:52Z</time></trkpt><trkpt lat="43.742075326896455" lon="12.133798329587465"><ele>982.4</ele><time>2026-04-20T12:02:53Z</time></trkpt><trkpt lat="43.742016692431505" lon="12.133667245779266"><ele>983.0</ele><time>2026-04-20T12:02:54Z</time></trkpt><trkpt lat="43.741944765974274" lon="12.133511311863556"><ele>981.25</ele><time>2026-04-20T12:02:55Z</time></trkpt><trkpt lat="43.741859429401" lon="12.133400230935097"><ele>979.5</ele><time>2026-04-20T12:02:56Z</time></trkpt><trkpt lat="43.74177471173605" lon="12.133319652878694"><ele>977.75</ele><time>2026-04-20T12:02:57Z</time></trkpt><trkpt lat="43.74169849744072" lon="12.133193977945792"><ele>976.0</ele><time>2026-04-20T12:02:58Z</time></trkpt><trkpt lat="43.74161492933396" lon="12.133067646519942"><ele>976.0</ele><time>2026-04-20T12:02:59Z</time></trkpt><trkpt lat="43.74153886537349" lon="12.132933370039614"><ele>976.0</ele><time>2026-04-20T12:03:00Z</time></trkpt><trkpt lat="43.741458908517046" lon="12.132799196987039"><ele>976.0</ele><time>2026-04-20T12:03:01Z</time></trkpt><trkpt lat="43.741365506145485" lon="12.132688105518628"><ele>976.0</ele><time>2026-04-20T12:03:02Z</time></trkpt><trkpt lat="43.74127481814779" lon="12.13260247803094"><ele>976.0</ele><time>2026-04-20T12:03:03Z</time></trkpt><trkpt lat="43.741163362009374" lon="12.132541211464975"><ele>975.9999999999999</ele><time>2026-04-20T12:03:04Z</time></trkpt><trkpt lat="43.741071129629965" lon="12.132496069312374"><ele>975.9999999999999</ele><time>2026-04-20T12:03:05Z</time></trkpt><trkpt lat="43.74099243543385" lon="12.132480037878342"><ele>976.0</ele><time>2026-04-20T12:03:06Z</time></trkpt><trkpt lat="43.74089839856291" lon="12.132479207107659"><ele>976.0</ele><time>2026-04-20T12:03:07Z</time></trkpt><trkpt lat="43.74082353722599" lon="12.132487034930103"><ele>974.9999999999999</ele><time>2026-04-20T12:03:08Z</time></trkpt><trkpt lat="43.74076247454246" lon="12.1325165424278"><ele>974.0</ele><time>2026-04-20T12:03:09Z</time></trkpt><trkpt lat="43.74073087568984" lon="12.132666891259786"><ele>973.0</ele><time>2026-04-20T12:03:11Z</time></trkpt><trkpt lat="43.74068291505368" lon="12.13275869864491"><ele>972.0</ele><time>2026-04-20T12:03:12Z</time></trkpt><trkpt lat="43.74063296400819" lon="12.132842466718666"><ele>970.9999999999999</ele><time>2026-04-20T12:03:13Z</time></trkpt><trkpt lat="43.74056403183984" lon="12.132883763266715"><ele>970.0</ele><time>2026-04-20T12:03:14Z</time></trkpt><trkpt lat="43.740468426541426" lon="12.132918251683911"><ele>970.0</ele><time>2026-04-20T12:03:15Z</time></trkpt><trkpt lat="43.74038594923262" lon="12.132954507771029"><ele>970.0</ele><time>2026-04-20T12:03:16Z</time></trkpt><trkpt lat="43.74026870997455" lon="12.133002747856251"><ele>970.0</ele><time>2026-04-20T12:03:17Z</time></trkpt><trkpt lat="43.740135026874135" lon="12.13305123534559"><ele>970.0</ele><time>2026-04-20T12:03:18Z</time></trkpt><trkpt lat="43.74000632585976" lon="12.133091963134836"><ele>969.25</ele><time>2026-04-20T12:03:19Z</time></trkpt><trkpt lat="43.73988156497551" lon="12.133131315670905"><ele>968.5</ele><time>2026-04-20T12:03:20Z</time></trkpt><trkpt lat="43.73975765354997" lon="12.133170400266383"><ele>967.75</ele><time>2026-04-20T12:03:21Z</time></trkpt><trkpt lat="43.73963562554369" lon="12.133202410475738"><ele>967.0</ele><time>2026-04-20T12:03:22Z</time></trkpt><trkpt lat="43.73951441225753" lon="12.133234203514725"><ele>965.5</ele><time>2026-04-20T12:03:23Z</time></trkpt><trkpt lat="43.73939291840498" lon="12.133266735633473"><ele>964.0</ele><time>2026-04-20T12:03:24Z</time></trkpt><trkpt lat="43.739272098326055" lon="12.133307255336986"><ele>962.5</ele><time>2026-04-20T12:03:25Z</time></trkpt><trkpt lat="43.739150993986705" lon="12.13336812365465"><ele>961.0</ele><time>2026-04-20T12:03:26Z</time></trkpt><trkpt lat="43.73904038001838" lon="12.133449833845072"><ele>961.0</ele><time>2026-04-20T12:03:27Z</time></trkpt><trkpt lat="43.73892267639633" lon="12.13347922306926"><ele>961.0</ele><time>2026-04-20T12:03:28Z</time></trkpt><trkpt lat="43.738808659332584" lon="12.133517535075297"><ele>961.0</ele><time>2026-04-20T12:03:29Z</time></trkpt><trkpt lat="43.7386957405681" lon="12.133537100175092"><ele>961.0</ele><time>2026-04-20T12:03:30Z</time></trkpt><trkpt lat="43.73857517898047" lon="12.133546933298955"><ele>962.5999999999999</ele><time>2026-04-20T12:03:31Z</time></trkpt><trkpt lat="43.73846187042394" lon="12.133571143770283"><ele>964.1999999999999</ele><time>2026-04-20T12:03:32Z</time></trkpt><trkpt lat="43.738350637671445" lon="12.133623427572694"><ele>965.8000000000001</ele><time>2026-04-20T12:03:33Z</time></trkpt><trkpt lat="43.73825383857051" lon="12.133661178878615"><ele>967.4000000000001</ele><time>2026-04-20T12:03:34Z</time></trkpt><trkpt lat="43.73817276357758" lon="12.13371935974071"><ele>969.0</ele><time>2026-04-20T12:03:35.001Z</time></trkpt><trkpt lat="43.73809991548006" lon="12.133775239768514"><ele>969.0</ele><time>2026-04-20T12:03:36.001Z</time></trkpt><trkpt lat="43.73803226688747" lon="12.133919390330899"><ele>969.0</ele><time>2026-04-20T12:03:37.001Z</time></trkpt><trkpt lat="43.73796420025035" lon="12.134025590763024"><ele>969.0</ele><time>2026-04-20T12:03:38.001Z</time></trkpt><trkpt lat="43.737859619473795" lon="12.13415755995925"><ele>969.0</ele><time>2026-04-20T12:03:39.001Z</time></trkpt><trkpt lat="43.7377512764558" lon="12.134191462776945"><ele>965.8000000000001</ele><time>2026-04-20T12:03:41.001Z</time></trkpt><trkpt lat="43.73766027152215" lon="12.13417850736366"><ele>962.6000000000001</ele><time>2026-04-20T12:03:42.001Z</time></trkpt><trkpt lat="43.7375481143455" lon="12.134159722154783"><ele>959.4</ele><time>2026-04-20T12:03:43.001Z</time></trkpt><trkpt lat="43.737442415789715" lon="12.134129181266891"><ele>956.2</ele><time>2026-04-20T12:03:44.001Z</time></trkpt><trkpt lat="43.73732228235104" lon="12.13409675704602"><ele>953.0</ele><time>2026-04-20T12:03:45.001Z</time></trkpt><trkpt lat="43.73719707423552" lon="12.134078695250263"><ele>953.0</ele><time>2026-04-20T12:03:46.001Z</time></trkpt><trkpt lat="43.73707974579995" lon="12.134093898643966"><ele>953.0</ele><time>2026-04-20T12:03:47.001Z</time></trkpt><trkpt lat="43.73695978633663" lon="12.13411597268435"><ele>953.0</ele><time>2026-04-20T12:03:48.001Z</time></trkpt><trkpt lat="43.73683715076026" lon="12.134153606583526"><ele>953.0</ele><time>2026-04-20T12:03:49.001Z</time></trkpt><trkpt lat="43.736707352347835" lon="12.134177262790171"><ele>952.0</ele><time>2026-04-20T12:03:50.001Z</time></trkpt><trkpt lat="43.736568598258486" lon="12.13419680660467"><ele>951.0</ele><time>2026-04-20T12:03:51.001Z</time></trkpt><trkpt lat="43.73641533138729" lon="12.134214002667566"><ele>950.0</ele><time>2026-04-20T12:03:52.001Z</time></trkpt><trkpt lat="43.736269229350235" lon="12.134233556801897"><ele>949.0</ele><time>2026-04-20T12:03:53.001Z</time></trkpt><trkpt lat="43.73613730004331" lon="12.134253887870123"><ele>950.2</ele><time>2026-04-20T12:03:54.001Z</time></trkpt><trkpt lat="43.736025509284374" lon="12.134282795329561"><ele>951.4000000000001</ele><time>2026-04-20T12:03:55.001Z</time></trkpt><trkpt lat="43.735915223075764" lon="12.13429972997913"><ele>952.6</ele><time>2026-04-20T12:03:56.001Z</time></trkpt><trkpt lat="43.73580528815379" lon="12.134289207989832"><ele>953.8</ele><time>2026-04-20T12:03:57Z</time></trkpt><trkpt lat="43.73569995422635" lon="12.134337810906096"><ele>955.0</ele><time>2026-04-20T12:03:58Z</time></trkpt><trkpt lat="43.735617115558505" lon="12.134363279934039"><ele>955.0</ele><time>2026-04-20T12:03:59Z</time></trkpt><trkpt lat="43.735561103544235" lon="12.134447206162978"><ele>955.0</ele><time>2026-04-20T12:04:00Z</time></trkpt><trkpt lat="43.735490951669746" lon="12.134569173187705"><ele>955.0</ele><time>2026-04-20T12:04:01Z</time></trkpt><trkpt lat="43.735454736938806" lon="12.134687977729799"><ele>955.0</ele><time>2026-04-20T12:04:02Z</time></trkpt><trkpt lat="43.735410029069605" lon="12.134802074065986"><ele>955.0</ele><time>2026-04-20T12:04:03Z</time></trkpt><trkpt lat="43.735348495571714" lon="12.134866126835787"><ele>953.3333333333333</ele><time>2026-04-20T12:04:04Z</time></trkpt><trkpt lat="43.73529340537327" lon="12.13492394659842"><ele>951.6666666666666</ele><time>2026-04-20T12:04:05Z</time></trkpt><trkpt lat="43.7352275408105" lon="12.134957223624836"><ele>950.0</ele><time>2026-04-20T12:04:06Z</time></trkpt><trkpt lat="43.73515600824058" lon="12.134934550539036"><ele>948.3333333333333</ele><time>2026-04-20T12:04:07Z</time></trkpt><trkpt lat="43.7350695889491" lon="12.134963505366885"><ele>946.6666666666666</ele><time>2026-04-20T12:04:08Z</time></trkpt><trkpt lat="43.734990897322994" lon="12.135012582100602"><ele>945.0</ele><time>2026-04-20T12:04:09Z</time></trkpt><trkpt lat="43.73493116767195" lon="12.135085769472159"><ele>944.8</ele><time>2026-04-20T12:04:10Z</time></trkpt><trkpt lat="43.73487381810924" lon="12.135196580113897"><ele>944.6</ele><time>2026-04-20T12:04:11Z</time></trkpt><trkpt lat="43.73481106926341" lon="12.13525710689653"><ele>944.4000000000001</ele><time>2026-04-20T12:04:12Z</time></trkpt><trkpt lat="43.73470389167186" lon="12.135307730461161"><ele>944.2</ele><time>2026-04-20T12:04:14Z</time></trkpt><trkpt lat="43.73461605664898" lon="12.13529585003166"><ele>944.0</ele><time>2026-04-20T12:04:15Z</time></trkpt><trkpt lat="43.7345324285106" lon="12.135255122631888"><ele>944.0</ele><time>2026-04-20T12:04:16Z</time></trkpt><trkpt lat="43.734451726470695" lon="12.13523463384475"><ele>944.0000000000001</ele><time>2026-04-20T12:04:17Z</time></trkpt><trkpt lat="43.73437956490418" lon="12.13522121092666"><ele>944.0000000000001</ele><time>2026-04-20T12:04:18Z</time></trkpt><trkpt lat="43.734297712877776" lon="12.135234442836735"><ele>944.0</ele><time>2026-04-20T12:04:19Z</time></trkpt><trkpt lat="43.734193074771525" lon="12.13529704366529"><ele>944.0</ele><time>2026-04-20T12:04:20Z</time></trkpt><trkpt lat="43.734107712159336" lon="12.135365316627052"><ele>944.0000000000001</ele><time>2026-04-20T12:04:21Z</time></trkpt><trkpt lat="43.734029969311884" lon="12.135435352516804"><ele>944.0</ele><time>2026-04-20T12:04:22Z</time></trkpt><trkpt lat="43.73395207844746" lon="12.135498717440916"><ele>944.0</ele><time>2026-04-20T12:04:23Z</time></trkpt><trkpt lat="43.73388404667826" lon="12.13555534297362"><ele>944.0</ele><time>2026-04-20T12:04:24Z</time></trkpt><trkpt lat="43.733792058289126" lon="12.135564096812633"><ele>944.0000000000001</ele><time>2026-04-20T12:04:25Z</time></trkpt><trkpt lat="43.73372143098533" lon="12.135609219945012"><ele>944.0</ele><time>2026-04-20T12:04:26Z</time></trkpt><trkpt lat="43.733673266320174" lon="12.135679117353192"><ele>941.0000000000001</ele><time>2026-04-20T12:04:27Z</time></trkpt><trkpt lat="43.73362761896669" lon="12.135749150233842"><ele>938.0</ele><time>2026-04-20T12:04:28Z</time></trkpt><trkpt lat="43.7335904887371" lon="12.135872520463243"><ele>935.0</ele><time>2026-04-20T12:04:29Z</time></trkpt><trkpt lat="43.73356549545159" lon="12.136011683949269"><ele>932.0</ele><time>2026-04-20T12:04:30Z</time></trkpt><trkpt lat="43.733556127482345" lon="12.136138945354997"><ele>929.0000000000001</ele><time>2026-04-20T12:04:31Z</time></trkpt><trkpt lat="43.73354940812039" lon="12.136227085764183"><ele>926.0</ele><time>2026-04-20T12:04:32Z</time></trkpt><trkpt lat="43.7335373167402" lon="12.136371473140853"><ele>926.0000000000001</ele><time>2026-04-20T12:04:33Z</time></trkpt><trkpt lat="43.733517437232166" lon="12.136486020138536"><ele>926.0</ele><time>2026-04-20T12:04:34Z</time></trkpt><trkpt lat="43.733485059257625" lon="12.136593496306155"><ele>926.0</ele><time>2026-04-20T12:04:35Z</time></trkpt><trkpt lat="43.73344251995615" lon="12.13668701949315"><ele>926.0</ele><time>2026-04-20T12:04:36Z</time></trkpt><trkpt lat="43.73338097430268" lon="12.136742635103069"><ele>926.0000000000001</ele><time>2026-04-20T12:04:37Z</time></trkpt><trkpt lat="43.733304270458525" lon="12.136795310919215"><ele>926.0</ele><time>2026-04-20T12:04:38Z</time></trkpt><trkpt lat="43.73323797994654" lon="12.136851117299951"><ele>921.1999999999999</ele><time>2026-04-20T12:04:39Z</time></trkpt><trkpt lat="43.73315101927719" lon="12.1368311492852"><ele>916.3999999999999</ele><time>2026-04-20T12:04:40Z</time></trkpt><trkpt lat="43.7330622038066" lon="12.13681089115711"><ele>911.6</ele><time>2026-04-20T12:04:41Z</time></trkpt><trkpt lat="43.73297629405779" lon="12.13678204760409"><ele>906.8</ele><time>2026-04-20T12:04:42Z</time></trkpt><trkpt lat="43.732880434726766" lon="12.136763143393793"><ele>902.0</ele><time>2026-04-20T12:04:43Z</time></trkpt><trkpt lat="43.732778389969205" lon="12.136721668262085"><ele>900.4000000000001</ele><time>2026-04-20T12:04:44Z</time></trkpt><trkpt lat="43.73267420446038" lon="12.136710805888265"><ele>898.8000000000001</ele><time>2026-04-20T12:04:45Z</time></trkpt><trkpt lat="43.73258353682917" lon="12.136700567822444"><ele>897.2</ele><time>2026-04-20T12:04:46Z</time></trkpt><trkpt lat="43.73249047903496" lon="12.13665968152984"><ele>895.6</ele><time>2026-04-20T12:04:47Z</time></trkpt><trkpt lat="43.73241892916774" lon="12.13665305188337"><ele>894.0</ele><time>2026-04-20T12:04:48Z</time></trkpt><trkpt lat="43.73230734039014" lon="12.136674270445775"><ele>894.0</ele><time>2026-04-20T12:04:50Z</time></trkpt><trkpt lat="43.73229325731985" lon="12.136828330582846"><ele>894.0</ele><time>2026-04-20T12:04:52Z</time></trkpt><trkpt lat="43.73231881256641" lon="12.13690803672916"><ele>894.0</ele><time>2026-04-20T12:04:53Z</time></trkpt><trkpt lat="43.73238558217104" lon="12.136997671620108"><ele>894.0</ele><time>2026-04-20T12:04:54Z</time></trkpt><trkpt lat="43.73246286244582" lon="12.137076432811435"><ele>894.0</ele><time>2026-04-20T12:04:55Z</time></trkpt><trkpt lat="43.73254684253948" lon="12.137094613780972"><ele>894.0</ele><time>2026-04-20T12:04:56Z</time></trkpt><trkpt lat="43.73261413319191" lon="12.137144886172615"><ele>894.0</ele><time>2026-04-20T12:04:57Z</time></trkpt><trkpt lat="43.73266992381024" lon="12.13720038841992"><ele>894.0</ele><time>2026-04-20T12:04:58Z</time></trkpt><trkpt lat="43.732709044299845" lon="12.137271620293609"><ele>894.0</ele><time>2026-04-20T12:04:59Z</time></trkpt><trkpt lat="43.73268438778096" lon="12.137419425284763"><ele>894.0</ele><time>2026-04-20T12:05:01Z</time></trkpt><trkpt lat="43.73265926329565" lon="12.137500202525505"><ele>894.0</ele><time>2026-04-20T12:05:02Z</time></trkpt><trkpt lat="43.732583855794424" lon="12.137520858708053"><ele>894.0</ele><time>2026-04-20T12:05:03Z</time></trkpt><trkpt lat="43.73251051238415" lon="12.137566382869958"><ele>890.6</ele><time>2026-04-20T12:05:04Z</time></trkpt><trkpt lat="43.73242794821921" lon="12.137566590134075"><ele>887.2</ele><time>2026-04-20T12:05:05Z</time></trkpt><trkpt lat="43.73233349442108" lon="12.137538150244467"><ele>883.8000000000001</ele><time>2026-04-20T12:05:06Z</time></trkpt><trkpt lat="43.7322233460926" lon="12.137532686994138"><ele>880.4000000000001</ele><time>2026-04-20T12:05:07Z</time></trkpt><trkpt lat="43.732122169062784" lon="12.137487352995864"><ele>877.0</ele><time>2026-04-20T12:05:08Z</time></trkpt><trkpt lat="43.7320367358982" lon="12.137473980257834"><ele>877.0</ele><time>2026-04-20T12:05:09Z</time></trkpt><trkpt lat="43.731945483935775" lon="12.137453461771797"><ele>877.0</ele><time>2026-04-20T12:05:10Z</time></trkpt><trkpt lat="43.73184948052501" lon="12.137423899485226"><ele>877.0</ele><time>2026-04-20T12:05:11Z</time></trkpt><trkpt lat="43.73174324426498" lon="12.13740438127879"><ele>877.0</ele><time>2026-04-20T12:05:12Z</time></trkpt><trkpt lat="43.73165994148897" lon="12.137367106758058"><ele>877.0</ele><time>2026-04-20T12:05:13Z</time></trkpt><trkpt lat="43.73156252543224" lon="12.137350190334923"><ele>876.9999999999999</ele><time>2026-04-20T12:05:14Z</time></trkpt><trkpt lat="43.73147091686866" lon="12.137311693766364"><ele>877.0</ele><time>2026-04-20T12:05:15Z</time></trkpt><trkpt lat="43.73137855390565" lon="12.137264250272132"><ele>877.0</ele><time>2026-04-20T12:05:16Z</time></trkpt><trkpt lat="43.73132151372621" lon="12.137202148626285"><ele>877.0</ele><time>2026-04-20T12:05:17Z</time></trkpt><trkpt lat="43.73124100953675" lon="12.13714991195099"><ele>876.9999999999999</ele><time>2026-04-20T12:05:18Z</time></trkpt><trkpt lat="43.73116898877395" lon="12.137085887990803"><ele>877.0</ele><time>2026-04-20T12:05:19Z</time></trkpt><trkpt lat="43.7310753637147" lon="12.137032788031515"><ele>875.2</ele><time>2026-04-20T12:05:20Z</time></trkpt><trkpt lat="43.730997136390634" lon="12.137000262880212"><ele>873.4000000000001</ele><time>2026-04-20T12:05:21Z</time></trkpt><trkpt lat="43.73087358626113" lon="12.137079738863855"><ele>871.5999999999999</ele><time>2026-04-20T12:05:22Z</time></trkpt><trkpt lat="43.73079226795008" lon="12.137112738367055"><ele>869.8</ele><time>2026-04-20T12:05:23Z</time></trkpt><trkpt lat="43.73070998814626" lon="12.137162348962098"><ele>868.0</ele><time>2026-04-20T12:05:24Z</time></trkpt><trkpt lat="43.730635466686444" lon="12.137215247439709"><ele>867.9999999999999</ele><time>2026-04-20T12:05:25Z</time></trkpt><trkpt lat="43.73056072815634" lon="12.137263422924184"><ele>868.0</ele><time>2026-04-20T12:05:26Z</time></trkpt><trkpt lat="43.73048245506378" lon="12.137235793020018"><ele>868.0</ele><time>2026-04-20T12:05:27Z</time></trkpt><trkpt lat="43.73041355739095" lon="12.137216049596734"><ele>868.0</ele><time>2026-04-20T12:05:28Z</time></trkpt><trkpt lat="43.73032812495823" lon="12.137192283330366"><ele>867.9999999999999</ele><time>2026-04-20T12:05:29Z</time></trkpt><trkpt lat="43.73023108336908" lon="12.13716855621059"><ele>868.0</ele><time>2026-04-20T12:05:30Z</time></trkpt><trkpt lat="43.73013413687879" lon="12.137148392581096"><ele>865.1666666666666</ele><time>2026-04-20T12:05:31Z</time></trkpt><trkpt lat="43.73003792683947" lon="12.137148638886627"><ele>862.3333333333333</ele><time>2026-04-20T12:05:32Z</time></trkpt><trkpt lat="43.72994858212579" lon="12.137106357020537"><ele>859.5</ele><time>2026-04-20T12:05:33Z</time></trkpt><trkpt lat="43.729865773984095" lon="12.13707784021871"><ele>856.6666666666667</ele><time>2026-04-20T12:05:34Z</time></trkpt><trkpt lat="43.72980708111609" lon="12.137014554129872"><ele>853.8333333333334</ele><time>2026-04-20T12:05:35Z</time></trkpt><trkpt lat="43.72975577670398" lon="12.136929331402257"><ele>851.0</ele><time>2026-04-20T12:05:36Z</time></trkpt><trkpt lat="43.729701238867946" lon="12.136809658892439"><ele>851.0</ele><time>2026-04-20T12:05:37Z</time></trkpt><trkpt lat="43.72964353632684" lon="12.13667947415093"><ele>851.0</ele><time>2026-04-20T12:05:38Z</time></trkpt><trkpt lat="43.72958575624784" lon="12.136554017755756"><ele>851.0</ele><time>2026-04-20T12:05:39Z</time></trkpt><trkpt lat="43.729521403352095" lon="12.136426116363106"><ele>851.0</ele><time>2026-04-20T12:05:40Z</time></trkpt><trkpt lat="43.729440167366434" lon="12.136313876573137"><ele>851.0</ele><time>2026-04-20T12:05:41.001Z</time></trkpt><trkpt lat="43.72936903270307" lon="12.13617896682463"><ele>849.5</ele><time>2026-04-20T12:05:42.001Z</time></trkpt><trkpt lat="43.72928946158427" lon="12.13605249265249"><ele>848.0</ele><time>2026-04-20T12:05:43.001Z</time></trkpt><trkpt lat="43.72921606529162" lon="12.135927162755356"><ele>846.5</ele><time>2026-04-20T12:05:44.001Z</time></trkpt><trkpt lat="43.729148450309246" lon="12.135813724329557"><ele>845.0</ele><time>2026-04-20T12:05:45.001Z</time></trkpt><trkpt lat="43.72908291184508" lon="12.135696185061699"><ele>845.0</ele><time>2026-04-20T12:05:46.001Z</time></trkpt><trkpt lat="43.72900753111277" lon="12.135607528953404"><ele>845.0</ele><time>2026-04-20T12:05:47.001Z</time></trkpt><trkpt lat="43.728940447106424" lon="12.135505852349938"><ele>845.0</ele><time>2026-04-20T12:05:48.001Z</time></trkpt><trkpt lat="43.72885956550295" lon="12.135413342602902"><ele>845.0</ele><time>2026-04-20T12:05:49.001Z</time></trkpt><trkpt lat="43.72878294171748" lon="12.135338506112499"><ele>845.0</ele><time>2026-04-20T12:05:50.001Z</time></trkpt><trkpt lat="43.7287161327455" lon="12.135281126388643"><ele>845.0000000000001</ele><time>2026-04-20T12:05:51.001Z</time></trkpt><trkpt lat="43.72863378387436" lon="12.135242579048528"><ele>845.0</ele><time>2026-04-20T12:05:52.001Z</time></trkpt><trkpt lat="43.72854776942003" lon="12.135237832431516"><ele>845.0</ele><time>2026-04-20T12:05:53.001Z</time></trkpt><trkpt lat="43.72847881097465" lon="12.13526394007495"><ele>845.0</ele><time>2026-04-20T12:05:54.001Z</time></trkpt><trkpt lat="43.72839724309371" lon="12.135391728386208"><ele>845.0000000000001</ele><time>2026-04-20T12:05:56.001Z</time></trkpt><trkpt lat="43.72837601786379" lon="12.1354885567473"><ele>845.0</ele><time>2026-04-20T12:05:57.001Z</time></trkpt><trkpt lat="43.72835757917161" lon="12.135606956299707"><ele>843.1666666666667</ele><time>2026-04-20T12:05:58.001Z</time></trkpt><trkpt lat="43.728349416692794" lon="12.135721334518177"><ele>841.3333333333334</ele><time>2026-04-20T12:05:59.001Z</time></trkpt><trkpt lat="43.72836650319556" lon="12.135828212723352"><ele>839.5</ele><time>2026-04-20T12:06:00.001Z</time></trkpt><trkpt lat="43.72838544780114" lon="12.135935982932157"><ele>837.6666666666667</ele><time>2026-04-20T12:06:01.001Z</time></trkpt><trkpt lat="43.72842872201292" lon="12.136031020989972"><ele>835.8333333333334</ele><time>2026-04-20T12:06:02.001Z</time></trkpt><trkpt lat="43.728493308628416" lon="12.136136476394253"><ele>834.0</ele><time>2026-04-20T12:06:03.001Z</time></trkpt><trkpt lat="43.728565130796326" lon="12.136222016103536"><ele>834.0</ele><time>2026-04-20T12:06:04.001Z</time></trkpt><trkpt lat="43.728604953703496" lon="12.13631123817023"><ele>834.0</ele><time>2026-04-20T12:06:05.001Z</time></trkpt><trkpt lat="43.72864479502819" lon="12.13641821091979"><ele>834.0</ele><time>2026-04-20T12:06:06Z</time></trkpt><trkpt lat="43.72869764163532" lon="12.1365272915507"><ele>834.0</ele><time>2026-04-20T12:06:07Z</time></trkpt><trkpt lat="43.72874761302512" lon="12.1366272642509"><ele>834.0</ele><time>2026-04-20T12:06:08Z</time></trkpt><trkpt lat="43.72879377704861" lon="12.136734472084633"><ele>834.0</ele><time>2026-04-20T12:06:09Z</time></trkpt><trkpt lat="43.72883535839823" lon="12.136831715820684"><ele>832.1666666666666</ele><time>2026-04-20T12:06:10Z</time></trkpt><trkpt lat="43.728878120008424" lon="12.13693349284389"><ele>830.3333333333333</ele><time>2026-04-20T12:06:11Z</time></trkpt><trkpt lat="43.728918987246594" lon="12.137045067914363"><ele>828.5</ele><time>2026-04-20T12:06:12Z</time></trkpt><trkpt lat="43.72894915004985" lon="12.137170736949683"><ele>826.6666666666666</ele><time>2026-04-20T12:06:13Z</time></trkpt><trkpt lat="43.72897684823651" lon="12.137278588542605"><ele>824.8333333333333</ele><time>2026-04-20T12:06:14Z</time></trkpt><trkpt lat="43.728977793787145" lon="12.137399840628555"><ele>823.0</ele><time>2026-04-20T12:06:15Z</time></trkpt><trkpt lat="43.7289919902658" lon="12.137528220705674"><ele>819.4999999999999</ele><time>2026-04-20T12:06:16Z</time></trkpt><trkpt lat="43.729005022441555" lon="12.13767007551737"><ele>816.0</ele><time>2026-04-20T12:06:17Z</time></trkpt><trkpt lat="43.72901269360363" lon="12.137783809884167"><ele>812.5</ele><time>2026-04-20T12:06:18Z</time></trkpt><trkpt lat="43.72901215145285" lon="12.137887387157939"><ele>809.0</ele><time>2026-04-20T12:06:19Z</time></trkpt><trkpt lat="43.728989485616026" lon="12.13803672597133"><ele>805.4999999999999</ele><time>2026-04-20T12:06:21Z</time></trkpt><trkpt lat="43.72895720772507" lon="12.138115663088604"><ele>802.0</ele><time>2026-04-20T12:06:23Z</time></trkpt><trkpt lat="43.7288639233558" lon="12.138069852870833"><ele>801.9999999999999</ele><time>2026-04-20T12:06:25Z</time></trkpt><trkpt lat="43.72879421061778" lon="12.138053415410079"><ele>802.0</ele><time>2026-04-20T12:06:26Z</time></trkpt><trkpt lat="43.72871670016101" lon="12.138005172639716"><ele>802.0</ele><time>2026-04-20T12:06:27Z</time></trkpt><trkpt lat="43.72863632090169" lon="12.137954015681876"><ele>802.0</ele><time>2026-04-20T12:06:28Z</time></trkpt><trkpt lat="43.728548847882" lon="12.137900443130246"><ele>801.9999999999999</ele><time>2026-04-20T12:06:29Z</time></trkpt><trkpt lat="43.72845063642715" lon="12.137844004025675"><ele>802.0</ele><time>2026-04-20T12:06:30Z</time></trkpt><trkpt lat="43.72834661569351" lon="12.137778977096637"><ele>798.5</ele><time>2026-04-20T12:06:31Z</time></trkpt><trkpt lat="43.728241077421806" lon="12.137714167581494"><ele>795.0</ele><time>2026-04-20T12:06:32Z</time></trkpt><trkpt lat="43.72813644657615" lon="12.137652834282592"><ele>791.5</ele><time>2026-04-20T12:06:33Z</time></trkpt><trkpt lat="43.72802157878972" lon="12.13758569113186"><ele>788.0</ele><time>2026-04-20T12:06:34Z</time></trkpt><trkpt lat="43.7279117174596" lon="12.13751489663057"><ele>788.0</ele><time>2026-04-20T12:06:35Z</time></trkpt><trkpt lat="43.727794869241905" lon="12.137437673984099"><ele>788.0</ele><time>2026-04-20T12:06:36Z</time></trkpt><trkpt lat="43.72768007692578" lon="12.13738096901434"><ele>788.0</ele><time>2026-04-20T12:06:37Z</time></trkpt><trkpt lat="43.727570744314576" lon="12.137327545004558"><ele>788.0</ele><time>2026-04-20T12:06:38Z</time></trkpt><trkpt lat="43.72747330849467" lon="12.137280484681998"><ele>790.2</ele><time>2026-04-20T12:06:39Z</time></trkpt><trkpt lat="43.72738141102932" lon="12.137219050816313"><ele>792.4</ele><time>2026-04-20T12:06:40Z</time></trkpt><trkpt lat="43.727283471703124" lon="12.137145379860689"><ele>794.6</ele><time>2026-04-20T12:06:41Z</time></trkpt><trkpt lat="43.727193912224784" lon="12.13705427838049"><ele>796.8000000000001</ele><time>2026-04-20T12:06:42Z</time></trkpt><trkpt lat="43.72712983494626" lon="12.136934012394045"><ele>799.0</ele><time>2026-04-20T12:06:43Z</time></trkpt><trkpt lat="43.72707755431818" lon="12.136807020371817"><ele>799.0</ele><time>2026-04-20T12:06:44Z</time></trkpt><trkpt lat="43.72701237433976" lon="12.136674753329627"><ele>799.0</ele><time>2026-04-20T12:06:45Z</time></trkpt><trkpt lat="43.72693366596743" lon="12.136565225945875"><ele>799.0</ele><time>2026-04-20T12:06:46Z</time></trkpt><trkpt lat="43.7268689828951" lon="12.136440611801342"><ele>799.0</ele><time>2026-04-20T12:06:47Z</time></trkpt><trkpt lat="43.72681579325184" lon="12.136299522551115"><ele>798.8000000000001</ele><time>2026-04-20T12:06:48Z</time></trkpt><trkpt lat="43.726744832156854" lon="12.13617268067045"><ele>798.6</ele><time>2026-04-20T12:06:49Z</time></trkpt><trkpt lat="43.72665188080173" lon="12.136087422242168"><ele>798.4</ele><time>2026-04-20T12:06:50Z</time></trkpt><trkpt lat="43.72656989193035" lon="12.136007415166796"><ele>798.2</ele><time>2026-04-20T12:06:51Z</time></trkpt><trkpt lat="43.726486091127434" lon="12.135944639291687"><ele>798.0</ele><time>2026-04-20T12:06:52Z</time></trkpt><trkpt lat="43.72640655448406" lon="12.135885110486935"><ele>798.0</ele><time>2026-04-20T12:06:53Z</time></trkpt><trkpt lat="43.72633568660534" lon="12.135825659965608"><ele>798.0</ele><time>2026-04-20T12:06:54Z</time></trkpt><trkpt lat="43.72626812160822" lon="12.135773907768934"><ele>798.0</ele><time>2026-04-20T12:06:55Z</time></trkpt><trkpt lat="43.72619945066769" lon="12.135757821439105"><ele>798.0</ele><time>2026-04-20T12:06:56Z</time></trkpt><trkpt lat="43.72613325696425" lon="12.135730780101674"><ele>798.0</ele><time>2026-04-20T12:06:57Z</time></trkpt><trkpt lat="43.72607216849841" lon="12.135695432596718"><ele>798.0</ele><time>2026-04-20T12:06:58Z</time></trkpt><trkpt lat="43.72601510417812" lon="12.135654146174648"><ele>798.0</ele><time>2026-04-20T12:06:59Z</time></trkpt><trkpt lat="43.72596281708761" lon="12.135595990417402"><ele>798.6666666666666</ele><time>2026-04-20T12:07:00Z</time></trkpt><trkpt lat="43.72594490296754" lon="12.135492566448947"><ele>799.3333333333333</ele><time>2026-04-20T12:07:01Z</time></trkpt><trkpt lat="43.72589951096223" lon="12.135428805493166"><ele>800.0</ele><time>2026-04-20T12:07:02Z</time></trkpt><trkpt lat="43.72578382931456" lon="12.135314118214989"><ele>800.6666666666666</ele><time>2026-04-20T12:07:04Z</time></trkpt><trkpt lat="43.7257097913375" lon="12.135275590783069"><ele>801.3333333333333</ele><time>2026-04-20T12:07:05Z</time></trkpt><trkpt lat="43.72564102391249" lon="12.135234954668723"><ele>802.0</ele><time>2026-04-20T12:07:06Z</time></trkpt><trkpt lat="43.72557856176568" lon="12.135192153524033"><ele>802.0</ele><time>2026-04-20T12:07:07Z</time></trkpt><trkpt lat="43.72551334235582" lon="12.135114700483195"><ele>802.0</ele><time>2026-04-20T12:07:08Z</time></trkpt><trkpt lat="43.725448164904385" lon="12.135026423961978"><ele>802.0</ele><time>2026-04-20T12:07:09Z</time></trkpt><trkpt lat="43.72537369107861" lon="12.134946554662244"><ele>802.0</ele><time>2026-04-20T12:07:10Z</time></trkpt><trkpt lat="43.725290653077074" lon="12.134884595411098"><ele>802.0</ele><time>2026-04-20T12:07:11Z</time></trkpt><trkpt lat="43.72520560471203" lon="12.134840949669282"><ele>801.4000000000001</ele><time>2026-04-20T12:07:12Z</time></trkpt><trkpt lat="43.72511930841015" lon="12.13482098113161"><ele>800.8000000000001</ele><time>2026-04-20T12:07:13Z</time></trkpt><trkpt lat="43.725033890510836" lon="12.134830350253512"><ele>800.2</ele><time>2026-04-20T12:07:14Z</time></trkpt><trkpt lat="43.72494583091456" lon="12.134891685633015"><ele>799.6</ele><time>2026-04-20T12:07:15Z</time></trkpt><trkpt lat="43.72486778551558" lon="12.134966213073556"><ele>799.0</ele><time>2026-04-20T12:07:16Z</time></trkpt><trkpt lat="43.72477478561878" lon="12.135030103029791"><ele>799.0</ele><time>2026-04-20T12:07:17Z</time></trkpt><trkpt lat="43.72468875263798" lon="12.135104366897444"><ele>799.0</ele><time>2026-04-20T12:07:18Z</time></trkpt><trkpt lat="43.724604549425656" lon="12.1351604635627"><ele>799.0</ele><time>2026-04-20T12:07:19Z</time></trkpt><trkpt lat="43.72451463191306" lon="12.135174457521453"><ele>799.0</ele><time>2026-04-20T12:07:20Z</time></trkpt><trkpt lat="43.72442742995089" lon="12.135072120716114"><ele>799.0</ele><time>2026-04-20T12:07:21Z</time></trkpt><trkpt lat="43.724324456882506" lon="12.13496365103291"><ele>803.5</ele><time>2026-04-20T12:07:22Z</time></trkpt><trkpt lat="43.724206819997654" lon="12.13484543076182"><ele>808.0</ele><time>2026-04-20T12:07:23Z</time></trkpt><trkpt lat="43.72409010592474" lon="12.134709993084908"><ele>812.5</ele><time>2026-04-20T12:07:24Z</time></trkpt><trkpt lat="43.72396847953661" lon="12.134596965028518"><ele>817.0</ele><time>2026-04-20T12:07:25Z</time></trkpt><trkpt lat="43.72384535337141" lon="12.134503537392524"><ele>817.0</ele><time>2026-04-20T12:07:26Z</time></trkpt><trkpt lat="43.72371474753915" lon="12.134423444771677"><ele>817.0</ele><time>2026-04-20T12:07:27Z</time></trkpt><trkpt lat="43.72358302875227" lon="12.134331232929837"><ele>817.0</ele><time>2026-04-20T12:07:28Z</time></trkpt><trkpt lat="43.72348019860033" lon="12.134190837008818"><ele>817.0</ele><time>2026-04-20T12:07:29Z</time></trkpt><trkpt lat="43.72339655940394" lon="12.134059844169016"><ele>816.25</ele><time>2026-04-20T12:07:30Z</time></trkpt><trkpt lat="43.72332681940366" lon="12.13392566946203"><ele>815.5</ele><time>2026-04-20T12:07:31Z</time></trkpt><trkpt lat="43.72329434326968" lon="12.133753006216091"><ele>814.75</ele><time>2026-04-20T12:07:32Z</time></trkpt><trkpt lat="43.72324786902921" lon="12.133581335202395"><ele>814.0</ele><time>2026-04-20T12:07:33Z</time></trkpt><trkpt lat="43.72316741416914" lon="12.133438238042537"><ele>814.0</ele><time>2026-04-20T12:07:34Z</time></trkpt><trkpt lat="43.723062661099945" lon="12.133331723800126"><ele>814.0</ele><time>2026-04-20T12:07:35Z</time></trkpt><trkpt lat="43.72293765508402" lon="12.133258597033818"><ele>814.0</ele><time>2026-04-20T12:07:36Z</time></trkpt><trkpt lat="43.722805505667395" lon="12.133206424198736"><ele>814.0</ele><time>2026-04-20T12:07:37Z</time></trkpt><trkpt lat="43.722677694113315" lon="12.133114620865653"><ele>814.4000000000001</ele><time>2026-04-20T12:07:38Z</time></trkpt><trkpt lat="43.7225562377177" lon="12.133062484873136"><ele>814.8</ele><time>2026-04-20T12:07:39Z</time></trkpt><trkpt lat="43.72246137166096" lon="12.132978641098058"><ele>815.2</ele><time>2026-04-20T12:07:40Z</time></trkpt><trkpt lat="43.72240913969074" lon="12.132861588800386"><ele>815.5999999999999</ele><time>2026-04-20T12:07:41Z</time></trkpt><trkpt lat="43.72242423201739" lon="12.132711479756537"><ele>816.0</ele><time>2026-04-20T12:07:42Z</time></trkpt><trkpt lat="43.72244966751613" lon="12.132559627483962"><ele>818.0</ele><time>2026-04-20T12:07:43Z</time></trkpt><trkpt lat="43.7224844994628" lon="12.13238556505042"><ele>820.0</ele><time>2026-04-20T12:07:44Z</time></trkpt><trkpt lat="43.722496527049344" lon="12.132192563625166"><ele>822.0</ele><time>2026-04-20T12:07:45Z</time></trkpt><trkpt lat="43.72250687219262" lon="12.131988297752706"><ele>824.0</ele><time>2026-04-20T12:07:46Z</time></trkpt><trkpt lat="43.72248291519878" lon="12.131784264170442"><ele>824.0</ele><time>2026-04-20T12:07:47.001Z</time></trkpt><trkpt lat="43.72243581798622" lon="12.131579251513243"><ele>824.0</ele><time>2026-04-20T12:07:48.001Z</time></trkpt><trkpt lat="43.72237221755833" lon="12.131366833301318"><ele>824.0</ele><time>2026-04-20T12:07:49.001Z</time></trkpt><trkpt lat="43.72230051205007" lon="12.131150142621552"><ele>826.75</ele><time>2026-04-20T12:07:50.001Z</time></trkpt><trkpt lat="43.72225013932085" lon="12.1309475781186"><ele>829.5</ele><time>2026-04-20T12:07:51.001Z</time></trkpt><trkpt lat="43.72219685830786" lon="12.130771621119248"><ele>832.25</ele><time>2026-04-20T12:07:52.001Z</time></trkpt><trkpt lat="43.72214698024386" lon="12.130615212325587"><ele>835.0</ele><time>2026-04-20T12:07:53.001Z</time></trkpt><trkpt lat="43.72208979955055" lon="12.130487952362337"><ele>837.8</ele><time>2026-04-20T12:07:54.001Z</time></trkpt><trkpt lat="43.72204213836287" lon="12.130363024717411"><ele>840.6</ele><time>2026-04-20T12:07:55.001Z</time></trkpt><trkpt lat="43.72200640151107" lon="12.130246460972264"><ele>843.4000000000001</ele><time>2026-04-20T12:07:56.001Z</time></trkpt><trkpt lat="43.7219665363956" lon="12.130125625164153"><ele>846.2</ele><time>2026-04-20T12:07:58.001Z</time></trkpt><trkpt lat="43.72190734032943" lon="12.130020722155942"><ele>849.0</ele><time>2026-04-20T12:08:00.001Z</time></trkpt><trkpt lat="43.721983302773026" lon="12.13011178243182"><ele>849.0</ele><time>2026-04-20T12:08:05.001Z</time></trkpt><trkpt lat="43.72204634765316" lon="12.1302196603818"><ele>849.0</ele><time>2026-04-20T12:08:06.001Z</time></trkpt><trkpt lat="43.72210338122748" lon="12.13036675499445"><ele>849.0</ele><time>2026-04-20T12:08:07.001Z</time></trkpt><trkpt lat="43.72211064897665" lon="12.13053900266895"><ele>849.0</ele><time>2026-04-20T12:08:08.001Z</time></trkpt><trkpt lat="43.72206892184177" lon="12.130701044771167"><ele>844.3333333333333</ele><time>2026-04-20T12:08:09.001Z</time></trkpt><trkpt lat="43.72196335869489" lon="12.13083055130219"><ele>839.6666666666666</ele><time>2026-04-20T12:08:10Z</time></trkpt><trkpt lat="43.72187006886341" lon="12.131019525523337"><ele>835.0</ele><time>2026-04-20T12:08:11Z</time></trkpt><trkpt lat="43.72176807342951" lon="12.131199626475832"><ele>831.5</ele><time>2026-04-20T12:08:12Z</time></trkpt><trkpt lat="43.72168534232305" lon="12.131330685156328"><ele>828.0</ele><time>2026-04-20T12:08:13Z</time></trkpt><trkpt lat="43.72160516925869" lon="12.131463633087451"><ele>824.5</ele><time>2026-04-20T12:08:14Z</time></trkpt><trkpt lat="43.72150063579362" lon="12.131504742242669"><ele>821.0</ele><time>2026-04-20T12:08:15Z</time></trkpt><trkpt lat="43.7213790667869" lon="12.131467266797166"><ele>821.0</ele><time>2026-04-20T12:08:16Z</time></trkpt><trkpt lat="43.721278824837135" lon="12.131373040098492"><ele>821.0</ele><time>2026-04-20T12:08:17Z</time></trkpt><trkpt lat="43.72119174739213" lon="12.131257585133138"><ele>821.0</ele><time>2026-04-20T12:08:18Z</time></trkpt><trkpt lat="43.72113241313087" lon="12.131094631908852"><ele>821.0</ele><time>2026-04-20T12:08:19Z</time></trkpt><trkpt lat="43.72107423939208" lon="12.13094019377729"><ele>818.75</ele><time>2026-04-20T12:08:20Z</time></trkpt><trkpt lat="43.721007733582894" lon="12.130776747929751"><ele>816.5</ele><time>2026-04-20T12:08:21Z</time></trkpt><trkpt lat="43.72093621058328" lon="12.130603916223796"><ele>814.25</ele><time>2026-04-20T12:08:22Z</time></trkpt><trkpt lat="43.720862280326024" lon="12.130421446131976"><ele>812.0</ele><time>2026-04-20T12:08:23Z</time></trkpt><trkpt lat="43.72079878706432" lon="12.130245009002502"><ele>812.0</ele><time>2026-04-20T12:08:24Z</time></trkpt><trkpt lat="43.72072952471116" lon="12.130068606115588"><ele>812.0</ele><time>2026-04-20T12:08:25Z</time></trkpt><trkpt lat="43.72066237895632" lon="12.129891600328719"><ele>812.0</ele><time>2026-04-20T12:08:26Z</time></trkpt><trkpt lat="43.72060141041702" lon="12.129705877501777"><ele>812.0</ele><time>2026-04-20T12:08:27Z</time></trkpt><trkpt lat="43.7205322684028" lon="12.129523621905173"><ele>813.5</ele><time>2026-04-20T12:08:28Z</time></trkpt><trkpt lat="43.72046288688866" lon="12.129347807321093"><ele>815.0</ele><time>2026-04-20T12:08:29Z</time></trkpt><trkpt lat="43.72040877403571" lon="12.129170704484391"><ele>816.5</ele><time>2026-04-20T12:08:30Z</time></trkpt><trkpt lat="43.720347423228176" lon="12.129004980690185"><ele>818.0</ele><time>2026-04-20T12:08:31Z</time></trkpt><trkpt lat="43.720290105191445" lon="12.12883964265382"><ele>818.25</ele><time>2026-04-20T12:08:32Z</time></trkpt><trkpt lat="43.72024137436321" lon="12.12867990067932"><ele>818.5</ele><time>2026-04-20T12:08:33Z</time></trkpt><trkpt lat="43.72020284797006" lon="12.128517410288019"><ele>818.75</ele><time>2026-04-20T12:08:34Z</time></trkpt><trkpt lat="43.72017553911466" lon="12.12835678044812"><ele>819.0</ele><time>2026-04-20T12:08:35Z</time></trkpt><trkpt lat="43.72015580184357" lon="12.128183506138221"><ele>812.0</ele><time>2026-04-20T12:08:36Z</time></trkpt><trkpt lat="43.72013277590488" lon="12.128003644194246"><ele>805.0</ele><time>2026-04-20T12:08:37Z</time></trkpt><trkpt lat="43.720121555529474" lon="12.127814792276281"><ele>798.0</ele><time>2026-04-20T12:08:38Z</time></trkpt><trkpt lat="43.72010829921521" lon="12.12763029049291"><ele>791.0</ele><time>2026-04-20T12:08:39Z</time></trkpt><trkpt lat="43.72009556292101" lon="12.12745664831558"><ele>792.0</ele><time>2026-04-20T12:08:40Z</time></trkpt><trkpt lat="43.72008186258019" lon="12.12729521634637"><ele>793.0</ele><time>2026-04-20T12:08:41Z</time></trkpt><trkpt lat="43.72005096005661" lon="12.127152351058621"><ele>794.0</ele><time>2026-04-20T12:08:42Z</time></trkpt><trkpt lat="43.720019291002316" lon="12.126995826773577"><ele>795.0</ele><time>2026-04-20T12:08:43Z</time></trkpt><trkpt lat="43.719964675564924" lon="12.126836176707648"><ele>795.0</ele><time>2026-04-20T12:08:44Z</time></trkpt><trkpt lat="43.71989271784107" lon="12.126675200315164"><ele>795.0</ele><time>2026-04-20T12:08:45Z</time></trkpt><trkpt lat="43.719813752661686" lon="12.126508539648915"><ele>795.0</ele><time>2026-04-20T12:08:46Z</time></trkpt><trkpt lat="43.719729606788746" lon="12.126331801997415"><ele>795.0</ele><time>2026-04-20T12:08:47Z</time></trkpt><trkpt lat="43.719645214868294" lon="12.126146790507224"><ele>797.0</ele><time>2026-04-20T12:08:48Z</time></trkpt><trkpt lat="43.719558577267534" lon="12.125953456808196"><ele>799.0</ele><time>2026-04-20T12:08:49Z</time></trkpt><trkpt lat="43.71947522098223" lon="12.12575919928626"><ele>801.0</ele><time>2026-04-20T12:08:50Z</time></trkpt><trkpt lat="43.719398564935574" lon="12.125563609306024"><ele>791.0</ele><time>2026-04-20T12:08:51Z</time></trkpt><trkpt lat="43.7193336172997" lon="12.125361008737805"><ele>781.0</ele><time>2026-04-20T12:08:52Z</time></trkpt><trkpt lat="43.719275287141" lon="12.125164581695728"><ele>771.0</ele><time>2026-04-20T12:08:53Z</time></trkpt><trkpt lat="43.71922127113916" lon="12.124966026668567"><ele>772.0</ele><time>2026-04-20T12:08:54Z</time></trkpt><trkpt lat="43.71917196080785" lon="12.124776236062948"><ele>773.0</ele><time>2026-04-20T12:08:55Z</time></trkpt><trkpt lat="43.71912391514911" lon="12.124590084494441"><ele>774.0</ele><time>2026-04-20T12:08:56Z</time></trkpt><trkpt lat="43.71907656574825" lon="12.124404780069439"><ele>775.0</ele><time>2026-04-20T12:08:57Z</time></trkpt><trkpt lat="43.7190259283816" lon="12.124220476849931"><ele>779.0</ele><time>2026-04-20T12:08:58Z</time></trkpt><trkpt lat="43.71897728922769" lon="12.12403509516572"><ele>783.0</ele><time>2026-04-20T12:08:59Z</time></trkpt><trkpt lat="43.718925419614585" lon="12.123851695040859"><ele>787.0</ele><time>2026-04-20T12:09:00Z</time></trkpt><trkpt lat="43.71887066771494" lon="12.123673463760376"><ele>791.0</ele><time>2026-04-20T12:09:01Z</time></trkpt><trkpt lat="43.71882086847761" lon="12.123490047149687"><ele>791.0</ele><time>2026-04-20T12:09:02Z</time></trkpt><trkpt lat="43.7187744361881" lon="12.123306225770483"><ele>791.0</ele><time>2026-04-20T12:09:03Z</time></trkpt><trkpt lat="43.718729327375335" lon="12.12312636727845"><ele>791.0</ele><time>2026-04-20T12:09:04Z</time></trkpt><trkpt lat="43.718687523131486" lon="12.122944403855698"><ele>791.0</ele><time>2026-04-20T12:09:05Z</time></trkpt><trkpt lat="43.718646036037065" lon="12.12276446160838"><ele>792.5</ele><time>2026-04-20T12:09:06Z</time></trkpt><trkpt lat="43.718607169910186" lon="12.122585442130179"><ele>794.0</ele><time>2026-04-20T12:09:07Z</time></trkpt><trkpt lat="43.718571686243784" lon="12.122408771771402"><ele>795.5</ele><time>2026-04-20T12:09:08Z</time></trkpt><trkpt lat="43.718539015072174" lon="12.122245711542934"><ele>797.0</ele><time>2026-04-20T12:09:09Z</time></trkpt><trkpt lat="43.71851306225453" lon="12.122094777268533"><ele>793.2</ele><time>2026-04-20T12:09:10Z</time></trkpt><trkpt lat="43.71849137934175" lon="12.121956978378757"><ele>789.4000000000001</ele><time>2026-04-20T12:09:11Z</time></trkpt><trkpt lat="43.71847490273161" lon="12.121842049732509"><ele>785.5999999999999</ele><time>2026-04-20T12:09:12Z</time></trkpt><trkpt lat="43.71846292681585" lon="12.121753733715737"><ele>781.8</ele><time>2026-04-20T12:09:13Z</time></trkpt><trkpt lat="43.718428138772595" lon="12.121624590363059"><ele>778.0</ele><time>2026-04-20T12:09:15Z</time></trkpt><trkpt lat="43.71844245447345" lon="12.121797041889257"><ele>777.9999999999999</ele><time>2026-04-20T12:09:21Z</time></trkpt><trkpt lat="43.71847206382907" lon="12.121898093382669"><ele>778.0</ele><time>2026-04-20T12:09:22Z</time></trkpt><trkpt lat="43.71850107256748" lon="12.122000635096565"><ele>778.0</ele><time>2026-04-20T12:09:24Z</time></trkpt><trkpt lat="43.71856452256349" lon="12.122016588657042"><ele>778.0</ele><time>2026-04-20T12:09:26Z</time></trkpt><trkpt lat="43.71864777704355" lon="12.122003015963902"><ele>777.9999999999999</ele><time>2026-04-20T12:09:28Z</time></trkpt><trkpt lat="43.71873476889666" lon="12.122016815012422"><ele>778.0</ele><time>2026-04-20T12:09:30Z</time></trkpt><trkpt lat="43.71881255735109" lon="12.122058003844998"><ele>778.0</ele><time>2026-04-20T12:09:32Z</time></trkpt><trkpt lat="43.71886597387352" lon="12.122008049326922"><ele>778.0</ele><time>2026-04-20T12:09:36Z</time></trkpt><trkpt lat="43.71879764242962" lon="12.121979804960088"><ele>778.0</ele><time>2026-04-20T12:09:38Z</time></trkpt><trkpt lat="43.7187085980507" lon="12.122019953057437"><ele>778.0</ele><time>2026-04-20T12:09:40Z</time></trkpt><trkpt lat="43.71863932015983" lon="12.122011254823013"><ele>778.0</ele><time>2026-04-20T12:09:42Z</time></trkpt><trkpt lat="43.71857454877313" lon="12.121985935891002"><ele>778.0</ele><time>2026-04-20T12:09:44Z</time></trkpt><trkpt lat="43.71849913089453" lon="12.121959774207854"><ele>778.0</ele><time>2026-04-20T12:09:47Z</time></trkpt><trkpt lat="43.71846340464475" lon="12.12183065945588"><ele>777.9999999999999</ele><time>2026-04-20T12:09:49Z</time></trkpt><trkpt lat="43.7184512071095" lon="12.121729800619265"><ele>778.0</ele><time>2026-04-20T12:09:50Z</time></trkpt><trkpt lat="43.71843314650982" lon="12.121630135601054"><ele>778.0</ele><time>2026-04-20T12:09:51Z</time></trkpt><trkpt lat="43.71840797921891" lon="12.121548284902824"><ele>778.0</ele><time>2026-04-20T12:09:52Z</time></trkpt><trkpt lat="43.718372556346445" lon="12.121461053128835"><ele>777.9999999999999</ele><time>2026-04-20T12:09:53Z</time></trkpt><trkpt lat="43.71833007061419" lon="12.121341827722475"><ele>778.0</ele><time>2026-04-20T12:09:54Z</time></trkpt><trkpt lat="43.71826291687072" lon="12.121197281968845"><ele>779.2</ele><time>2026-04-20T12:09:55Z</time></trkpt><trkpt lat="43.71819885503965" lon="12.12107801704457"><ele>780.4</ele><time>2026-04-20T12:09:56Z</time></trkpt><trkpt lat="43.71813454647807" lon="12.120970863808942"><ele>781.6</ele><time>2026-04-20T12:09:57Z</time></trkpt><trkpt lat="43.71805777077904" lon="12.12089472020625"><ele>782.8000000000001</ele><time>2026-04-20T12:09:58Z</time></trkpt><trkpt lat="43.717962428527656" lon="12.120866577258859"><ele>784.0</ele><time>2026-04-20T12:09:59Z</time></trkpt><trkpt lat="43.71785536787827" lon="12.120875576566384"><ele>784.0</ele><time>2026-04-20T12:10:00Z</time></trkpt><trkpt lat="43.71774932473318" lon="12.120924087803248"><ele>784.0</ele><time>2026-04-20T12:10:01Z</time></trkpt><trkpt lat="43.71766185250941" lon="12.121008961987577"><ele>784.0</ele><time>2026-04-20T12:10:02Z</time></trkpt><trkpt lat="43.717593773032604" lon="12.121126893446839"><ele>784.0</ele><time>2026-04-20T12:10:03Z</time></trkpt><trkpt lat="43.717554468311896" lon="12.121272000309583"><ele>784.0</ele><time>2026-04-20T12:10:04Z</time></trkpt><trkpt lat="43.71754184752569" lon="12.12142902935182"><ele>782.5</ele><time>2026-04-20T12:10:05Z</time></trkpt><trkpt lat="43.71756172427052" lon="12.121592811361083"><ele>781.0</ele><time>2026-04-20T12:10:06Z</time></trkpt><trkpt lat="43.7176188410177" lon="12.1217573841249"><ele>779.5</ele><time>2026-04-20T12:10:07Z</time></trkpt><trkpt lat="43.71771160482833" lon="12.121909488701249"><ele>778.0</ele><time>2026-04-20T12:10:08Z</time></trkpt><trkpt lat="43.717811897583886" lon="12.122067866320572"><ele>778.0</ele><time>2026-04-20T12:10:09Z</time></trkpt><trkpt lat="43.717911436979485" lon="12.122224014679347"><ele>778.0</ele><time>2026-04-20T12:10:10Z</time></trkpt><trkpt lat="43.71798909747041" lon="12.12238814866916"><ele>778.0</ele><time>2026-04-20T12:10:11Z</time></trkpt><trkpt lat="43.718033061832394" lon="12.12256705915225"><ele>778.0</ele><time>2026-04-20T12:10:12Z</time></trkpt><trkpt lat="43.718023675390036" lon="12.122750829638655"><ele>776.75</ele><time>2026-04-20T12:10:13Z</time></trkpt><trkpt lat="43.71797823198037" lon="12.122918993386628"><ele>775.5</ele><time>2026-04-20T12:10:14Z</time></trkpt><trkpt lat="43.71790082351431" lon="12.123064076355405"><ele>774.25</ele><time>2026-04-20T12:10:15Z</time></trkpt><trkpt lat="43.71778731190339" lon="12.12317274208255"><ele>773.0</ele><time>2026-04-20T12:10:16Z</time></trkpt><trkpt lat="43.717656737414636" lon="12.123282129957293"><ele>766.0</ele><time>2026-04-20T12:10:17Z</time></trkpt><trkpt lat="43.71752032005173" lon="12.12340952268787"><ele>759.0</ele><time>2026-04-20T12:10:18Z</time></trkpt><trkpt lat="43.717368420790436" lon="12.123528755547087"><ele>752.0</ele><time>2026-04-20T12:10:19Z</time></trkpt><trkpt lat="43.71721535344186" lon="12.123652553355537"><ele>752.0</ele><time>2026-04-20T12:10:20Z</time></trkpt><trkpt lat="43.717058695180945" lon="12.123773165002614"><ele>752.0</ele><time>2026-04-20T12:10:21Z</time></trkpt><trkpt lat="43.71690505067634" lon="12.123890114000366"><ele>752.0</ele><time>2026-04-20T12:10:22Z</time></trkpt><trkpt lat="43.71676417347239" lon="12.124005064360617"><ele>750.5</ele><time>2026-04-20T12:10:23Z</time></trkpt><trkpt lat="43.71664207591196" lon="12.124117419537464"><ele>749.0</ele><time>2026-04-20T12:10:24Z</time></trkpt><trkpt lat="43.716536406901874" lon="12.124251463666003"><ele>747.5</ele><time>2026-04-20T12:10:25Z</time></trkpt><trkpt lat="43.71646744225177" lon="12.124424943164387"><ele>746.0</ele><time>2026-04-20T12:10:26Z</time></trkpt><trkpt lat="43.71643481102157" lon="12.124633176533685"><ele>746.0</ele><time>2026-04-20T12:10:27Z</time></trkpt><trkpt lat="43.716422911374515" lon="12.12486009436644"><ele>746.0</ele><time>2026-04-20T12:10:28Z</time></trkpt><trkpt lat="43.71641443743073" lon="12.125096311204764"><ele>746.0</ele><time>2026-04-20T12:10:29Z</time></trkpt><trkpt lat="43.71639994257198" lon="12.125351256252474"><ele>747.6666666666666</ele><time>2026-04-20T12:10:30Z</time></trkpt><trkpt lat="43.7163819459429" lon="12.125602116089416"><ele>749.3333333333334</ele><time>2026-04-20T12:10:31Z</time></trkpt><trkpt lat="43.716366712105156" lon="12.125846178841162"><ele>751.0</ele><time>2026-04-20T12:10:32Z</time></trkpt><trkpt lat="43.7163667388673" lon="12.12609411009695"><ele>751.0</ele><time>2026-04-20T12:10:33Z</time></trkpt><trkpt lat="43.71639447272164" lon="12.126341908286749"><ele>751.0</ele><time>2026-04-20T12:10:34Z</time></trkpt><trkpt lat="43.71644094469949" lon="12.126602712857155"><ele>751.0</ele><time>2026-04-20T12:10:35Z</time></trkpt><trkpt lat="43.716482948256825" lon="12.12685313040743"><ele>749.0</ele><time>2026-04-20T12:10:36Z</time></trkpt><trkpt lat="43.71650325719703" lon="12.12710870438448"><ele>747.0</ele><time>2026-04-20T12:10:37Z</time></trkpt><trkpt lat="43.71653569125592" lon="12.127331257687537"><ele>745.0</ele><time>2026-04-20T12:10:38Z</time></trkpt><trkpt lat="43.71656061111964" lon="12.127516380339577"><ele>743.4</ele><time>2026-04-20T12:10:39Z</time></trkpt><trkpt lat="43.71657538056783" lon="12.127681810099054"><ele>741.8</ele><time>2026-04-20T12:10:40Z</time></trkpt><trkpt lat="43.71655463747576" lon="12.127808994686953"><ele>740.2</ele><time>2026-04-20T12:10:41Z</time></trkpt><trkpt lat="43.71650761887903" lon="12.127931674373073"><ele>738.6</ele><time>2026-04-20T12:10:42Z</time></trkpt><trkpt lat="43.71641299903278" lon="12.128015730816012"><ele>737.0</ele><time>2026-04-20T12:10:43Z</time></trkpt><trkpt lat="43.71628009741787" lon="12.128022525650879"><ele>737.0</ele><time>2026-04-20T12:10:44Z</time></trkpt><trkpt lat="43.71614299947926" lon="12.127952846942678"><ele>737.0</ele><time>2026-04-20T12:10:45Z</time></trkpt><trkpt lat="43.71603069922798" lon="12.127802700559718"><ele>737.0</ele><time>2026-04-20T12:10:46Z</time></trkpt><trkpt lat="43.715901140245805" lon="12.127668061828325"><ele>734.3333333333333</ele><time>2026-04-20T12:10:47Z</time></trkpt><trkpt lat="43.715776359300946" lon="12.127521227079907"><ele>731.6666666666666</ele><time>2026-04-20T12:10:48Z</time></trkpt><trkpt lat="43.7156397893259" lon="12.127368100335664"><ele>729.0</ele><time>2026-04-20T12:10:49Z</time></trkpt><trkpt lat="43.715515133569774" lon="12.127207085556922"><ele>729.0</ele><time>2026-04-20T12:10:50Z</time></trkpt><trkpt lat="43.7154143400267" lon="12.127034133674114"><ele>729.0</ele><time>2026-04-20T12:10:51Z</time></trkpt><trkpt lat="43.71536219699005" lon="12.12681833607844"><ele>729.0</ele><time>2026-04-20T12:10:52Z</time></trkpt><trkpt lat="43.71531752419613" lon="12.12658368520617"><ele>730.3333333333334</ele><time>2026-04-20T12:10:53Z</time></trkpt><trkpt lat="43.71527084942459" lon="12.12633273970707"><ele>731.6666666666667</ele><time>2026-04-20T12:10:54Z</time></trkpt><trkpt lat="43.715217266109306" lon="12.126087073305252"><ele>733.0</ele><time>2026-04-20T12:10:55Z</time></trkpt><trkpt lat="43.715151900570156" lon="12.125839096402654"><ele>727.6666666666667</ele><time>2026-04-20T12:10:56Z</time></trkpt><trkpt lat="43.71507159278811" lon="12.125594665112663"><ele>722.3333333333334</ele><time>2026-04-20T12:10:57Z</time></trkpt><trkpt lat="43.714975490442214" lon="12.125345454934587"><ele>717.0</ele><time>2026-04-20T12:10:58Z</time></trkpt><trkpt lat="43.714862515472966" lon="12.125103968184774"><ele>717.0</ele><time>2026-04-20T12:10:59Z</time></trkpt><trkpt lat="43.71473879165636" lon="12.124866388324037"><ele>717.0</ele><time>2026-04-20T12:11:00Z</time></trkpt><trkpt lat="43.714621015086045" lon="12.124632598118543"><ele>717.0</ele><time>2026-04-20T12:11:01Z</time></trkpt><trkpt lat="43.714521442119036" lon="12.124402181507724"><ele>717.0</ele><time>2026-04-20T12:11:02Z</time></trkpt><trkpt lat="43.71445009115413" lon="12.12420229296195"><ele>717.0</ele><time>2026-04-20T12:11:03Z</time></trkpt><trkpt lat="43.7144130152669" lon="12.123986894260122"><ele>717.0</ele><time>2026-04-20T12:11:04Z</time></trkpt><trkpt lat="43.71441343869639" lon="12.123771811770272"><ele>716.3333333333334</ele><time>2026-04-20T12:11:05Z</time></trkpt><trkpt lat="43.71445292681514" lon="12.123565480637117"><ele>715.6666666666667</ele><time>2026-04-20T12:11:06Z</time></trkpt><trkpt lat="43.714512892604134" lon="12.123357996183174"><ele>715.0</ele><time>2026-04-20T12:11:07Z</time></trkpt><trkpt lat="43.714560848619584" lon="12.123145534532568"><ele>715.0</ele><time>2026-04-20T12:11:08Z</time></trkpt><trkpt lat="43.71459848734547" lon="12.122963432450456"><ele>715.0</ele><time>2026-04-20T12:11:09Z</time></trkpt><trkpt lat="43.71459682238719" lon="12.122796721624692"><ele>715.0</ele><time>2026-04-20T12:11:10Z</time></trkpt><trkpt lat="43.71455100726727" lon="12.122643555306693"><ele>715.0</ele><time>2026-04-20T12:11:11Z</time></trkpt><trkpt lat="43.71446310762922" lon="12.122523544514292"><ele>710.5</ele><time>2026-04-20T12:11:12Z</time></trkpt><trkpt lat="43.71434794006138" lon="12.122453938476879"><ele>706.0</ele><time>2026-04-20T12:11:13Z</time></trkpt><trkpt lat="43.71422184724588" lon="12.122417289672216"><ele>701.5</ele><time>2026-04-20T12:11:14Z</time></trkpt><trkpt lat="43.71408396508873" lon="12.12240409058318"><ele>697.0</ele><time>2026-04-20T12:11:15Z</time></trkpt><trkpt lat="43.713937473103606" lon="12.122397270603557"><ele>696.75</ele><time>2026-04-20T12:11:16Z</time></trkpt><trkpt lat="43.71378986579268" lon="12.122378315898427"><ele>696.5</ele><time>2026-04-20T12:11:17Z</time></trkpt><trkpt lat="43.71364266277886" lon="12.122354885426692"><ele>696.25</ele><time>2026-04-20T12:11:18Z</time></trkpt><trkpt lat="43.71350680688926" lon="12.122331764973682"><ele>696.0</ele><time>2026-04-20T12:11:19Z</time></trkpt><trkpt lat="43.71338059748035" lon="12.122309860436793"><ele>695.8</ele><time>2026-04-20T12:11:20Z</time></trkpt><trkpt lat="43.7132622257201" lon="12.122291845650434"><ele>695.5999999999999</ele><time>2026-04-20T12:11:21Z</time></trkpt><trkpt lat="43.71315197740717" lon="12.122290284285018"><ele>695.4</ele><time>2026-04-20T12:11:22Z</time></trkpt><trkpt lat="43.7130519737929" lon="12.122321592492312"><ele>695.2</ele><time>2026-04-20T12:11:23Z</time></trkpt><trkpt lat="43.71296773825366" lon="12.122402124572691"><ele>695.0</ele><time>2026-04-20T12:11:24Z</time></trkpt><trkpt lat="43.71290295384659" lon="12.122530990755207"><ele>695.0</ele><time>2026-04-20T12:11:25Z</time></trkpt><trkpt lat="43.712852033808026" lon="12.122699020017954"><ele>695.0</ele><time>2026-04-20T12:11:26Z</time></trkpt><trkpt lat="43.71281661205685" lon="12.122893902794237"><ele>695.0</ele><time>2026-04-20T12:11:27Z</time></trkpt><trkpt lat="43.71279895276367" lon="12.12309073319848"><ele>695.0</ele><time>2026-04-20T12:11:28Z</time></trkpt><trkpt lat="43.71280834118116" lon="12.123292678121825"><ele>694.5</ele><time>2026-04-20T12:11:29Z</time></trkpt><trkpt lat="43.71285242606511" lon="12.12349528385464"><ele>694.0</ele><time>2026-04-20T12:11:30Z</time></trkpt><trkpt lat="43.71287665615063" lon="12.123694037738828"><ele>693.5</ele><time>2026-04-20T12:11:31Z</time></trkpt><trkpt lat="43.71287263223394" lon="12.123886686070508"><ele>693.0</ele><time>2026-04-20T12:11:32Z</time></trkpt><trkpt lat="43.712835663733536" lon="12.12407381701538"><ele>692.6666666666666</ele><time>2026-04-20T12:11:33Z</time></trkpt><trkpt lat="43.71276498843267" lon="12.124253419744308"><ele>692.3333333333333</ele><time>2026-04-20T12:11:34Z</time></trkpt><trkpt lat="43.712695221913215" lon="12.124446183542641"><ele>692.0</ele><time>2026-04-20T12:11:35Z</time></trkpt><trkpt lat="43.71261768200314" lon="12.124626671785915"><ele>697.6666666666666</ele><time>2026-04-20T12:11:36Z</time></trkpt><trkpt lat="43.71253769042959" lon="12.12482048098721"><ele>703.3333333333334</ele><time>2026-04-20T12:11:37Z</time></trkpt><trkpt lat="43.71246500837499" lon="12.125010071740371"><ele>709.0</ele><time>2026-04-20T12:11:38Z</time></trkpt><trkpt lat="43.712402430172766" lon="12.125215194647195"><ele>709.0</ele><time>2026-04-20T12:11:39Z</time></trkpt><trkpt lat="43.71235620395544" lon="12.125445382831952"><ele>709.0</ele><time>2026-04-20T12:11:40Z</time></trkpt><trkpt lat="43.71232698395434" lon="12.125680016257444"><ele>709.0</ele><time>2026-04-20T12:11:41Z</time></trkpt><trkpt lat="43.71230372962111" lon="12.12591445088303"><ele>709.25</ele><time>2026-04-20T12:11:42Z</time></trkpt><trkpt lat="43.71227766771357" lon="12.126144774497527"><ele>709.5</ele><time>2026-04-20T12:11:43Z</time></trkpt><trkpt lat="43.71225855638189" lon="12.126346347907608"><ele>709.75</ele><time>2026-04-20T12:11:44Z</time></trkpt><trkpt lat="43.712221073291246" lon="12.126520480755355"><ele>710.0</ele><time>2026-04-20T12:11:45Z</time></trkpt><trkpt lat="43.71218931378889" lon="12.126676182367476"><ele>710.0</ele><time>2026-04-20T12:11:46Z</time></trkpt><trkpt lat="43.712141564959374" lon="12.126804888516483"><ele>710.0</ele><time>2026-04-20T12:11:47Z</time></trkpt><trkpt lat="43.712071418089764" lon="12.126907789053456"><ele>710.0</ele><time>2026-04-20T12:11:48Z</time></trkpt><trkpt lat="43.71198580564274" lon="12.126992938358532"><ele>710.0</ele><time>2026-04-20T12:11:49Z</time></trkpt><trkpt lat="43.71186429023789" lon="12.126983925677964"><ele>710.0</ele><time>2026-04-20T12:11:50Z</time></trkpt><trkpt lat="43.71173706286768" lon="12.12695928031095"><ele>712.75</ele><time>2026-04-20T12:11:51Z</time></trkpt><trkpt lat="43.71159868359316" lon="12.12692692244146"><ele>715.5</ele><time>2026-04-20T12:11:52Z</time></trkpt><trkpt lat="43.711468237400474" lon="12.126842111101764"><ele>718.25</ele><time>2026-04-20T12:11:53Z</time></trkpt><trkpt lat="43.71137123980874" lon="12.126718265438635"><ele>721.0</ele><time>2026-04-20T12:11:54Z</time></trkpt><trkpt lat="43.71133034461192" lon="12.126555193534369"><ele>722.0</ele><time>2026-04-20T12:11:55Z</time></trkpt><trkpt lat="43.71130849046497" lon="12.126380992492297"><ele>723.0</ele><time>2026-04-20T12:11:56Z</time></trkpt><trkpt lat="43.711367299361456" lon="12.12620810411441"><ele>724.0</ele><time>2026-04-20T12:11:57Z</time></trkpt><trkpt lat="43.711425772253435" lon="12.126032524768132"><ele>725.0</ele><time>2026-04-20T12:11:58Z</time></trkpt><trkpt lat="43.711483279595676" lon="12.125852414716034"><ele>727.0</ele><time>2026-04-20T12:11:59Z</time></trkpt><trkpt lat="43.71156222681018" lon="12.125664465034555"><ele>729.0</ele><time>2026-04-20T12:12:00Z</time></trkpt><trkpt lat="43.71163658769363" lon="12.125454150265375"><ele>731.0</ele><time>2026-04-20T12:12:01Z</time></trkpt><trkpt lat="43.711703477651966" lon="12.125252716325678"><ele>731.0</ele><time>2026-04-20T12:12:02Z</time></trkpt><trkpt lat="43.71175705683599" lon="12.125055874487682"><ele>731.0</ele><time>2026-04-20T12:12:03Z</time></trkpt><trkpt lat="43.71179355790135" lon="12.124833164911847"><ele>731.0</ele><time>2026-04-20T12:12:04Z</time></trkpt><trkpt lat="43.711798772636335" lon="12.124599076434002"><ele>732.3333333333333</ele><time>2026-04-20T12:12:05Z</time></trkpt><trkpt lat="43.711773091318406" lon="12.124366368992082"><ele>733.6666666666666</ele><time>2026-04-20T12:12:06Z</time></trkpt><trkpt lat="43.71175261341967" lon="12.124125042080232"><ele>735.0</ele><time>2026-04-20T12:12:07Z</time></trkpt><trkpt lat="43.71173947524537" lon="12.123883829216528"><ele>735.0</ele><time>2026-04-20T12:12:08Z</time></trkpt><trkpt lat="43.711741131385324" lon="12.123641281375221"><ele>735.0</ele><time>2026-04-20T12:12:09Z</time></trkpt><trkpt lat="43.711741055215114" lon="12.123425290187045"><ele>735.0</ele><time>2026-04-20T12:12:10Z</time></trkpt><trkpt lat="43.71174328850785" lon="12.12322413129761"><ele>734.25</ele><time>2026-04-20T12:12:11Z</time></trkpt><trkpt lat="43.71173193442464" lon="12.123039300275089"><ele>733.5</ele><time>2026-04-20T12:12:12.001Z</time></trkpt><trkpt lat="43.711701416630284" lon="12.122881782143995"><ele>732.75</ele><time>2026-04-20T12:12:13Z</time></trkpt><trkpt lat="43.71164307601601" lon="12.122754888806172"><ele>732.0</ele><time>2026-04-20T12:12:14Z</time></trkpt><trkpt lat="43.71155436473989" lon="12.12266431668562"><ele>732.0</ele><time>2026-04-20T12:12:15Z</time></trkpt><trkpt lat="43.71144283378802" lon="12.122629295607604"><ele>732.0</ele><time>2026-04-20T12:12:16Z</time></trkpt><trkpt lat="43.711326201994105" lon="12.122645200673901"><ele>732.0</ele><time>2026-04-20T12:12:17Z</time></trkpt><trkpt lat="43.71121702319243" lon="12.122727721158892"><ele>732.0</ele><time>2026-04-20T12:12:18Z</time></trkpt><trkpt lat="43.71113436390012" lon="12.122866209441037"><ele>732.0</ele><time>2026-04-20T12:12:19Z</time></trkpt><trkpt lat="43.71109385779575" lon="12.123042943904487"><ele>732.0</ele><time>2026-04-20T12:12:20Z</time></trkpt><trkpt lat="43.7110914883049" lon="12.123235675048651"><ele>732.0</ele><time>2026-04-20T12:12:21Z</time></trkpt><trkpt lat="43.71110949426003" lon="12.12344774407358"><ele>732.0</ele><time>2026-04-20T12:12:22Z</time></trkpt><trkpt lat="43.711122709829276" lon="12.123653581025058"><ele>733.0</ele><time>2026-04-20T12:12:23Z</time></trkpt><trkpt lat="43.7111144377359" lon="12.123868434885479"><ele>734.0</ele><time>2026-04-20T12:12:24Z</time></trkpt><trkpt lat="43.71111776407303" lon="12.124071403075133"><ele>735.0</ele><time>2026-04-20T12:12:25Z</time></trkpt><trkpt lat="43.71109935280675" lon="12.124284022270373"><ele>738.5</ele><time>2026-04-20T12:12:26Z</time></trkpt><trkpt lat="43.71105090853086" lon="12.124475662372552"><ele>742.0</ele><time>2026-04-20T12:12:27Z</time></trkpt><trkpt lat="43.71097780183759" lon="12.124648647540893"><ele>745.5</ele><time>2026-04-20T12:12:28Z</time></trkpt><trkpt lat="43.71090046335358" lon="12.12481567837699"><ele>749.0</ele><time>2026-04-20T12:12:29Z</time></trkpt><trkpt lat="43.71079969393863" lon="12.12490797239314"><ele>749.0</ele><time>2026-04-20T12:12:30Z</time></trkpt><trkpt lat="43.71067996782066" lon="12.124956941850707"><ele>749.0</ele><time>2026-04-20T12:12:31Z</time></trkpt><trkpt lat="43.71053738566446" lon="12.12495291920879"><ele>749.0</ele><time>2026-04-20T12:12:32Z</time></trkpt><trkpt lat="43.71038402859715" lon="12.124921227611155"><ele>749.0</ele><time>2026-04-20T12:12:33Z</time></trkpt><trkpt lat="43.71022966838517" lon="12.124873202781721"><ele>754.0</ele><time>2026-04-20T12:12:34Z</time></trkpt><trkpt lat="43.710078822523954" lon="12.124842485963066"><ele>759.0</ele><time>2026-04-20T12:12:35Z</time></trkpt><trkpt lat="43.70992492292573" lon="12.124839353241708"><ele>764.0</ele><time>2026-04-20T12:12:36Z</time></trkpt><trkpt lat="43.70977577721123" lon="12.124898204946739"><ele>764.0</ele><time>2026-04-20T12:12:37Z</time></trkpt><trkpt lat="43.70963249275918" lon="12.125014152262759"><ele>764.0</ele><time>2026-04-20T12:12:38Z</time></trkpt><trkpt lat="43.709500059032294" lon="12.125158554342937"><ele>764.0</ele><time>2026-04-20T12:12:39Z</time></trkpt><trkpt lat="43.709364050867016" lon="12.125307707798678"><ele>764.0</ele><time>2026-04-20T12:12:40Z</time></trkpt><trkpt lat="43.709224516892164" lon="12.12544428298144"><ele>764.0</ele><time>2026-04-20T12:12:41Z</time></trkpt><trkpt lat="43.7090784692893" lon="12.1255876347522"><ele>764.0</ele><time>2026-04-20T12:12:42Z</time></trkpt><trkpt lat="43.708921839564375" lon="12.125730735312299"><ele>764.0</ele><time>2026-04-20T12:12:43Z</time></trkpt><trkpt lat="43.70876931628719" lon="12.125872349179582"><ele>764.0</ele><time>2026-04-20T12:12:44Z</time></trkpt><trkpt lat="43.70861396757126" lon="12.126016240276504"><ele>764.0</ele><time>2026-04-20T12:12:45Z</time></trkpt><trkpt lat="43.7084655471449" lon="12.126165666249161"><ele>767.0</ele><time>2026-04-20T12:12:46Z</time></trkpt><trkpt lat="43.70831790201575" lon="12.126330021850018"><ele>770.0</ele><time>2026-04-20T12:12:47Z</time></trkpt><trkpt lat="43.70816991566863" lon="12.126493281047852"><ele>773.0</ele><time>2026-04-20T12:12:48Z</time></trkpt><trkpt lat="43.70803371740365" lon="12.126679449597749"><ele>773.0</ele><time>2026-04-20T12:12:49Z</time></trkpt><trkpt lat="43.70790605007132" lon="12.12688576208986"><ele>773.0</ele><time>2026-04-20T12:12:50Z</time></trkpt><trkpt lat="43.70775915129789" lon="12.127064041587344"><ele>773.0</ele><time>2026-04-20T12:12:51Z</time></trkpt><trkpt lat="43.7076204693574" lon="12.12725838075"><ele>777.3333333333334</ele><time>2026-04-20T12:12:52Z</time></trkpt><trkpt lat="43.70749158196726" lon="12.127470284818864"><ele>781.6666666666667</ele><time>2026-04-20T12:12:53Z</time></trkpt><trkpt lat="43.70735607597398" lon="12.127656026717728"><ele>786.0</ele><time>2026-04-20T12:12:54Z</time></trkpt><trkpt lat="43.707229243959226" lon="12.127826332457197"><ele>786.0</ele><time>2026-04-20T12:12:55Z</time></trkpt><trkpt lat="43.70709403571888" lon="12.127948483094265"><ele>786.0</ele><time>2026-04-20T12:12:56Z</time></trkpt><trkpt lat="43.70695377437972" lon="12.128050993720505"><ele>786.0</ele><time>2026-04-20T12:12:57Z</time></trkpt><trkpt lat="43.70680139943363" lon="12.128172854236547"><ele>784.6666666666667</ele><time>2026-04-20T12:12:58Z</time></trkpt><trkpt lat="43.706628306514695" lon="12.128267000477274"><ele>783.3333333333334</ele><time>2026-04-20T12:12:59Z</time></trkpt><trkpt lat="43.70645436758651" lon="12.128375064829045"><ele>782.0</ele><time>2026-04-20T12:13:00Z</time></trkpt><trkpt lat="43.70627262121552" lon="12.128494829891807"><ele>782.0</ele><time>2026-04-20T12:13:01Z</time></trkpt><trkpt lat="43.70609046519674" lon="12.1286157675198"><ele>782.0</ele><time>2026-04-20T12:13:02Z</time></trkpt><trkpt lat="43.70590432995443" lon="12.128735529905155"><ele>782.0</ele><time>2026-04-20T12:13:03Z</time></trkpt><trkpt lat="43.70571768205305" lon="12.128853637100379"><ele>781.6666666666667</ele><time>2026-04-20T12:13:04Z</time></trkpt><trkpt lat="43.705548194213044" lon="12.128957758889419"><ele>781.3333333333333</ele><time>2026-04-20T12:13:05Z</time></trkpt><trkpt lat="43.70537760781883" lon="12.129060690710965"><ele>781.0</ele><time>2026-04-20T12:13:06Z</time></trkpt><trkpt lat="43.70522211081253" lon="12.129167068836654"><ele>781.0</ele><time>2026-04-20T12:13:07Z</time></trkpt><trkpt lat="43.70506893433388" lon="12.129265908037876"><ele>781.0</ele><time>2026-04-20T12:13:08Z</time></trkpt><trkpt lat="43.70492953766449" lon="12.129351425556518"><ele>781.0</ele><time>2026-04-20T12:13:09Z</time></trkpt><trkpt lat="43.70480454035746" lon="12.12943876194951"><ele>781.0</ele><time>2026-04-20T12:13:10Z</time></trkpt><trkpt lat="43.70471125647206" lon="12.12955835160806"><ele>781.0</ele><time>2026-04-20T12:13:11Z</time></trkpt><trkpt lat="43.70465760429776" lon="12.129715842462984"><ele>781.0</ele><time>2026-04-20T12:13:12Z</time></trkpt><trkpt lat="43.70465357547241" lon="12.129891654330631"><ele>781.0</ele><time>2026-04-20T12:13:13Z</time></trkpt><trkpt lat="43.704688245571354" lon="12.130065257096508"><ele>778.5</ele><time>2026-04-20T12:13:14Z</time></trkpt><trkpt lat="43.70474463738423" lon="12.130238452557304"><ele>776.0</ele><time>2026-04-20T12:13:15Z</time></trkpt><trkpt lat="43.70479398200822" lon="12.130408104786552"><ele>773.5</ele><time>2026-04-20T12:13:16Z</time></trkpt><trkpt lat="43.70487246486527" lon="12.130516867006095"><ele>771.0</ele><time>2026-04-20T12:13:17Z</time></trkpt><trkpt lat="43.70498812795181" lon="12.130553614633275"><ele>771.0</ele><time>2026-04-20T12:13:18Z</time></trkpt><trkpt lat="43.70511319276883" lon="12.130560405539063"><ele>771.0</ele><time>2026-04-20T12:13:19Z</time></trkpt><trkpt lat="43.70525357513563" lon="12.13055121256432"><ele>771.0</ele><time>2026-04-20T12:13:20Z</time></trkpt><trkpt lat="43.70540381382327" lon="12.13053797808656"><ele>771.0</ele><time>2026-04-20T12:13:21Z</time></trkpt><trkpt lat="43.70555667452174" lon="12.130530521503648"><ele>770.25</ele><time>2026-04-20T12:13:22Z</time></trkpt><trkpt lat="43.70570352909207" lon="12.13055698985933"><ele>769.5</ele><time>2026-04-20T12:13:23Z</time></trkpt><trkpt lat="43.70584918638362" lon="12.130597338358761"><ele>768.75</ele><time>2026-04-20T12:13:24Z</time></trkpt><trkpt lat="43.70598457438107" lon="12.13069310075315"><ele>768.0</ele><time>2026-04-20T12:13:25Z</time></trkpt><trkpt lat="43.706121706303485" lon="12.13082818416234"><ele>771.0</ele><time>2026-04-20T12:13:26Z</time></trkpt><trkpt lat="43.70625383307413" lon="12.130978018894062"><ele>774.0</ele><time>2026-04-20T12:13:27Z</time></trkpt><trkpt lat="43.70638749791098" lon="12.131126676705042"><ele>777.0</ele><time>2026-04-20T12:13:28Z</time></trkpt><trkpt lat="43.706520358393554" lon="12.131274440367022"><ele>777.0</ele><time>2026-04-20T12:13:29Z</time></trkpt><trkpt lat="43.706652146675104" lon="12.13142101118865"><ele>777.0</ele><time>2026-04-20T12:13:30Z</time></trkpt><trkpt lat="43.706782571774895" lon="12.13156515668999"><ele>777.0</ele><time>2026-04-20T12:13:31Z</time></trkpt><trkpt lat="43.70691096909261" lon="12.131696730324874"><ele>780.6666666666667</ele><time>2026-04-20T12:13:32Z</time></trkpt><trkpt lat="43.70705544326124" lon="12.131786899724398"><ele>784.3333333333334</ele><time>2026-04-20T12:13:33Z</time></trkpt><trkpt lat="43.70719723748732" lon="12.131873315520288"><ele>788.0</ele><time>2026-04-20T12:13:34Z</time></trkpt><trkpt lat="43.707350385498955" lon="12.13193756086634"><ele>788.0</ele><time>2026-04-20T12:13:35Z</time></trkpt><trkpt lat="43.70751128653742" lon="12.131963358627447"><ele>788.0</ele><time>2026-04-20T12:13:36Z</time></trkpt><trkpt lat="43.70767456794621" lon="12.131983392536133"><ele>788.0</ele><time>2026-04-20T12:13:37Z</time></trkpt><trkpt lat="43.70783327163005" lon="12.132011809320659"><ele>789.3333333333334</ele><time>2026-04-20T12:13:38Z</time></trkpt><trkpt lat="43.707998137072096" lon="12.132044892920817"><ele>790.6666666666667</ele><time>2026-04-20T12:13:38.999Z</time></trkpt><trkpt lat="43.70815247069825" lon="12.132098766083606"><ele>792.0</ele><time>2026-04-20T12:13:39.999Z</time></trkpt><trkpt lat="43.708279595027065" lon="12.132136851745841"><ele>792.0</ele><time>2026-04-20T12:13:40.999Z</time></trkpt><trkpt lat="43.70838598611613" lon="12.132191565366591"><ele>792.0</ele><time>2026-04-20T12:13:41.999Z</time></trkpt><trkpt lat="43.708460199449526" lon="12.132286938107512"><ele>792.0</ele><time>2026-04-20T12:13:42.999Z</time></trkpt><trkpt lat="43.70851852468116" lon="12.132419044540438"><ele>792.0</ele><time>2026-04-20T12:13:43.999Z</time></trkpt><trkpt lat="43.708541721232564" lon="12.132578138108908"><ele>792.0</ele><time>2026-04-20T12:13:44.999Z</time></trkpt><trkpt lat="43.70853627207178" lon="12.132745878902053"><ele>794.5</ele><time>2026-04-20T12:13:45.999Z</time></trkpt><trkpt lat="43.70848398409654" lon="12.13290138501884"><ele>797.0</ele><time>2026-04-20T12:13:46.999Z</time></trkpt><trkpt lat="43.708389716145206" lon="12.13302549448052"><ele>799.5</ele><time>2026-04-20T12:13:47.999Z</time></trkpt><trkpt lat="43.708262413252385" lon="12.133106614865902"><ele>802.0</ele><time>2026-04-20T12:13:48.999Z</time></trkpt><trkpt lat="43.708115128081104" lon="12.133205894951178"><ele>804.0</ele><time>2026-04-20T12:13:49.999Z</time></trkpt><trkpt lat="43.70797102638428" lon="12.133319912455338"><ele>806.0</ele><time>2026-04-20T12:13:50.999Z</time></trkpt><trkpt lat="43.70780465275146" lon="12.133424021500998"><ele>808.0</ele><time>2026-04-20T12:13:51.999Z</time></trkpt><trkpt lat="43.70765067511373" lon="12.133528161987327"><ele>808.0</ele><time>2026-04-20T12:13:52.999Z</time></trkpt><trkpt lat="43.70749601392539" lon="12.133632223586444"><ele>808.0</ele><time>2026-04-20T12:13:53.999Z</time></trkpt><trkpt lat="43.70734541636942" lon="12.133734002310192"><ele>808.0</ele><time>2026-04-20T12:13:54.999Z</time></trkpt><trkpt lat="43.70720605391757" lon="12.133840428266403"><ele>808.0</ele><time>2026-04-20T12:13:55.999Z</time></trkpt><trkpt lat="43.70707123411753" lon="12.133962357973497"><ele>808.0</ele><time>2026-04-20T12:13:56.999Z</time></trkpt><trkpt lat="43.706968554126554" lon="12.13411830566849"><ele>808.0</ele><time>2026-04-20T12:13:57.999Z</time></trkpt><trkpt lat="43.70689565668376" lon="12.134332465350814"><ele>810.3333333333333</ele><time>2026-04-20T12:13:58.999Z</time></trkpt><trkpt lat="43.70681379186511" lon="12.134545529140581"><ele>812.6666666666667</ele><time>2026-04-20T12:13:59.999Z</time></trkpt><trkpt lat="43.706751808579824" lon="12.134757922720057"><ele>815.0</ele><time>2026-04-20T12:14:00.999Z</time></trkpt><trkpt lat="43.706690230278866" lon="12.134967186838736"><ele>817.0</ele><time>2026-04-20T12:14:01.999Z</time></trkpt><trkpt lat="43.70662934783288" lon="12.135166863620993"><ele>819.0</ele><time>2026-04-20T12:14:02.999Z</time></trkpt><trkpt lat="43.706557361645736" lon="12.13533291613529"><ele>821.0</ele><time>2026-04-20T12:14:03.999Z</time></trkpt><trkpt lat="43.70646521549527" lon="12.135453065421055"><ele>823.0</ele><time>2026-04-20T12:14:05Z</time></trkpt><trkpt lat="43.706331683816884" lon="12.135491087883459"><ele>823.0</ele><time>2026-04-20T12:14:06Z</time></trkpt><trkpt lat="43.70617244371014" lon="12.135441920782243"><ele>823.0</ele><time>2026-04-20T12:14:07Z</time></trkpt><trkpt lat="43.70601592645351" lon="12.135343296313774"><ele>823.0</ele><time>2026-04-20T12:14:08Z</time></trkpt><trkpt lat="43.70586036073964" lon="12.13524309280778"><ele>823.25</ele><time>2026-04-20T12:14:09Z</time></trkpt><trkpt lat="43.70574235379295" lon="12.135218906183553"><ele>823.5</ele><time>2026-04-20T12:14:10Z</time></trkpt><trkpt lat="43.70559583568022" lon="12.135120313507544"><ele>823.75</ele><time>2026-04-20T12:14:11Z</time></trkpt><trkpt lat="43.70548997695809" lon="12.13503685418797"><ele>824.0</ele><time>2026-04-20T12:14:12Z</time></trkpt><trkpt lat="43.7053831989959" lon="12.135005250393199"><ele>824.25</ele><time>2026-04-20T12:14:13Z</time></trkpt><trkpt lat="43.705242717262735" lon="12.134959554782101"><ele>824.5</ele><time>2026-04-20T12:14:14Z</time></trkpt><trkpt lat="43.70510711022751" lon="12.135003708006879"><ele>824.75</ele><time>2026-04-20T12:14:15Z</time></trkpt><trkpt lat="43.704982784733545" lon="12.135121705583563"><ele>825.0</ele><time>2026-04-20T12:14:16Z</time></trkpt><trkpt lat="43.7049080111044" lon="12.135306281025374"><ele>825.0</ele><time>2026-04-20T12:14:17Z</time></trkpt><trkpt lat="43.704862922723144" lon="12.1354914043282"><ele>825.0</ele><time>2026-04-20T12:14:18Z</time></trkpt><trkpt lat="43.704888443725196" lon="12.13570169570142"><ele>825.0</ele><time>2026-04-20T12:14:19Z</time></trkpt><trkpt lat="43.70499232943807" lon="12.135867519252761"><ele>827.3333333333333</ele><time>2026-04-20T12:14:20Z</time></trkpt><trkpt lat="43.70511330607698" lon="12.13600162486579"><ele>829.6666666666666</ele><time>2026-04-20T12:14:21Z</time></trkpt><trkpt lat="43.70523844163676" lon="12.136146328324893"><ele>832.0</ele><time>2026-04-20T12:14:22Z</time></trkpt><trkpt lat="43.70531580580707" lon="12.136325051489177"><ele>832.0</ele><time>2026-04-20T12:14:23Z</time></trkpt><trkpt lat="43.70531836957638" lon="12.136524980047236"><ele>832.0</ele><time>2026-04-20T12:14:24Z</time></trkpt><trkpt lat="43.705296268551024" lon="12.136748721582123"><ele>832.0</ele><time>2026-04-20T12:14:25Z</time></trkpt><trkpt lat="43.70526585423741" lon="12.136985167008726"><ele>832.6666666666666</ele><time>2026-04-20T12:14:26Z</time></trkpt><trkpt lat="43.70521883552771" lon="12.13720640166384"><ele>833.3333333333333</ele><time>2026-04-20T12:14:27Z</time></trkpt><trkpt lat="43.705120512190334" lon="12.13738391832496"><ele>834.0</ele><time>2026-04-20T12:14:28Z</time></trkpt><trkpt lat="43.70498810044354" lon="12.13754633261291"><ele>836.6666666666667</ele><time>2026-04-20T12:14:29Z</time></trkpt><trkpt lat="43.70485024499635" lon="12.137705505577935"><ele>839.3333333333334</ele><time>2026-04-20T12:14:30Z</time></trkpt><trkpt lat="43.70472918648081" lon="12.137845040648955"><ele>842.0</ele><time>2026-04-20T12:14:31Z</time></trkpt><trkpt lat="43.70461964363832" lon="12.137971287756509"><ele>842.0</ele><time>2026-04-20T12:14:32Z</time></trkpt><trkpt lat="43.70452192694942" lon="12.138086626324464"><ele>842.0</ele><time>2026-04-20T12:14:33Z</time></trkpt><trkpt lat="43.704438380013585" lon="12.138189202492345"><ele>842.0</ele><time>2026-04-20T12:14:34Z</time></trkpt><trkpt lat="43.70437710442568" lon="12.138284177863236"><ele>842.0</ele><time>2026-04-20T12:14:35Z</time></trkpt><trkpt lat="43.704325599377086" lon="12.138346735089799"><ele>842.0</ele><time>2026-04-20T12:14:35.999Z</time></trkpt><trkpt lat="43.704263661307" lon="12.138393721468418"><ele>839.8</ele><time>2026-04-20T12:14:37.999Z</time></trkpt><trkpt lat="43.70421074666754" lon="12.13847300021836"><ele>837.6</ele><time>2026-04-20T12:14:41.999Z</time></trkpt><trkpt lat="43.704164745160796" lon="12.138548383948734"><ele>835.4</ele><time>2026-04-20T12:14:42.999Z</time></trkpt><trkpt lat="43.70410915476814" lon="12.138633242370018"><ele>833.1999999999999</ele><time>2026-04-20T12:14:43.999Z</time></trkpt><trkpt lat="43.70394961246359" lon="12.13859284534911"><ele>831.0</ele><time>2026-04-20T12:14:44.999Z</time></trkpt><trkpt lat="43.703843045349586" lon="12.138590938562471"><ele>831.0</ele><time>2026-04-20T12:14:45.999Z</time></trkpt><trkpt lat="43.70375770682033" lon="12.138575255869668"><ele>831.0</ele><time>2026-04-20T12:14:46.999Z</time></trkpt><trkpt lat="43.70368320299402" lon="12.138559044262475"><ele>831.0</ele><time>2026-04-20T12:14:47.999Z</time></trkpt><trkpt lat="43.70360944086982" lon="12.138544573190552"><ele>831.0</ele><time>2026-04-20T12:14:48.999Z</time></trkpt><trkpt lat="43.703512537385265" lon="12.138479767857085"><ele>831.0</ele><time>2026-04-20T12:14:50.999Z</time></trkpt><trkpt lat="43.703450513250736" lon="12.138440301145605"><ele>831.0</ele><time>2026-04-20T12:14:52.999Z</time></trkpt><trkpt lat="43.703376447358565" lon="12.138448060869163"><ele>831.8</ele><time>2026-04-20T12:15:23.999Z</time></trkpt><trkpt lat="43.703449567917595" lon="12.138461312313643"><ele>832.5999999999999</ele><time>2026-04-20T12:15:40.999Z</time></trkpt><trkpt lat="43.70346817649344" lon="12.138340089883327"><ele>833.4</ele><time>2026-04-20T12:15:54.999Z</time></trkpt><trkpt lat="43.703485895092236" lon="12.13823677691781"><ele>834.2</ele><time>2026-04-20T12:15:59.999Z</time></trkpt><trkpt lat="43.70348269104947" lon="12.138326813388348"><ele>835.0</ele><time>2026-04-20T12:16:24Z</time></trkpt><trkpt lat="43.70351086539827" lon="12.138729945092319"><ele>834.9999999999999</ele><time>2026-04-20T12:19:30.019Z</time></trkpt><trkpt lat="43.703594303046266" lon="12.138673350549656"><ele>835.0</ele><time>2026-04-20T12:19:31.022Z</time></trkpt><trkpt lat="43.70352636424024" lon="12.138584440157821"><ele>835.0</ele><time>2026-04-20T12:19:33.021Z</time></trkpt><trkpt lat="43.70351054045416" lon="12.138485811781075"><ele>835.0</ele><time>2026-04-20T12:19:36.022Z</time></trkpt><trkpt lat="43.70349855057416" lon="12.138365383627258"><ele>834.9999999999999</ele><time>2026-04-20T12:19:39.023Z</time></trkpt><trkpt lat="43.70355009956392" lon="12.138463825208564"><ele>835.0</ele><time>2026-04-20T12:19:44.018Z</time></trkpt><trkpt lat="43.70355443335755" lon="12.13836728494446"><ele>834.9999999999999</ele><time>2026-04-20T12:19:49.02Z</time></trkpt><trkpt lat="43.70349061934413" lon="12.138319875018064"><ele>835.0</ele><time>2026-04-20T12:19:50.998Z</time></trkpt><trkpt lat="43.70349230564172" lon="12.138442815259975"><ele>835.0</ele><time>2026-04-20T12:20:05Z</time></trkpt><trkpt lat="43.70348286427917" lon="12.138353543771935"><ele>835.0</ele><time>2026-04-20T12:36:08Z</time></trkpt><trkpt lat="43.70342649026949" lon="12.138424035186137"><ele>834.9999999999999</ele><time>2026-04-20T12:41:00Z</time></trkpt><trkpt lat="43.7035432801141" lon="12.138467081667088"><ele>835.0</ele><time>2026-04-20T12:45:21.017Z</time></trkpt><trkpt lat="43.70355378807609" lon="12.138376428124644"><ele>835.0</ele><time>2026-04-20T12:45:34.999Z</time></trkpt><trkpt lat="43.703509670421774" lon="12.138306566940646"><ele>835.0</ele><time>2026-04-20T12:45:40.001Z</time></trkpt><trkpt lat="43.70340969673767" lon="12.138232250700412"><ele>835.0</ele><time>2026-04-20T12:46:07Z</time></trkpt><trkpt lat="43.70345776570109" lon="12.13836904896794"><ele>835.0</ele><time>2026-04-20T12:46:43.604Z</time></trkpt><trkpt lat="43.70348271292674" lon="12.138249364729328"><ele>835.0</ele><time>2026-04-20T12:48:58.013Z</time></trkpt><trkpt lat="43.703463127906694" lon="12.138118112240635"><ele>834.9999999999999</ele><time>2026-04-20T12:49:01.015Z</time></trkpt><trkpt lat="43.703483911362966" lon="12.138258248437484"><ele>835.0</ele><time>2026-04-20T12:49:12.999Z</time></trkpt><trkpt lat="43.703479441927925" lon="12.138350234806747"><ele>835.0</ele><time>2026-04-20T12:49:14.999Z</time></trkpt><trkpt lat="43.703411837577846" lon="12.138383143013796"><ele>835.0</ele><time>2026-04-20T12:50:35Z</time></trkpt><trkpt lat="43.70346912019624" lon="12.138436412201479"><ele>834.9999999999999</ele><time>2026-04-20T12:53:14.999Z</time></trkpt><trkpt lat="43.70353325816157" lon="12.138485361814237"><ele>835.0</ele><time>2026-04-20T12:53:17.999Z</time></trkpt><trkpt lat="43.70362660616408" lon="12.138548274097735"><ele>834.2</ele><time>2026-04-20T12:53:20.999Z</time></trkpt><trkpt lat="43.703696829143155" lon="12.138576442143117"><ele>833.4</ele><time>2026-04-20T12:53:21.999Z</time></trkpt><trkpt lat="43.70377557014588" lon="12.138589359903456"><ele>832.5999999999999</ele><time>2026-04-20T12:53:22.999Z</time></trkpt><trkpt lat="43.70386725018581" lon="12.13859628974795"><ele>831.8</ele><time>2026-04-20T12:53:23.999Z</time></trkpt><trkpt lat="43.7039901444373" lon="12.138601353585987"><ele>831.0</ele><time>2026-04-20T12:53:24.999Z</time></trkpt><trkpt lat="43.704111716455586" lon="12.138607913800067"><ele>831.0</ele><time>2026-04-20T12:53:25.999Z</time></trkpt><trkpt lat="43.70423162092872" lon="12.1386360421313"><ele>831.0</ele><time>2026-04-20T12:53:26.999Z</time></trkpt><trkpt lat="43.704355465019916" lon="12.138625018467195"><ele>831.0</ele><time>2026-04-20T12:53:28Z</time></trkpt><trkpt lat="43.70447357032975" lon="12.13864629777932"><ele>831.0</ele><time>2026-04-20T12:53:29Z</time></trkpt><trkpt lat="43.704587678438195" lon="12.13867652919537"><ele>833.5</ele><time>2026-04-20T12:53:30Z</time></trkpt><trkpt lat="43.704695377048544" lon="12.13872820227755"><ele>836.0</ele><time>2026-04-20T12:53:31Z</time></trkpt><trkpt lat="43.704795394679834" lon="12.13884908676432"><ele>838.5</ele><time>2026-04-20T12:53:32Z</time></trkpt><trkpt lat="43.70490809703863" lon="12.13897937383204"><ele>841.0</ele><time>2026-04-20T12:53:33Z</time></trkpt><trkpt lat="43.705016706618245" lon="12.139105177532286"><ele>841.0</ele><time>2026-04-20T12:53:34Z</time></trkpt><trkpt lat="43.70510792984563" lon="12.139210951400843"><ele>841.0</ele><time>2026-04-20T12:53:35Z</time></trkpt><trkpt lat="43.70519489345798" lon="12.139291225817145"><ele>841.0</ele><time>2026-04-20T12:53:36Z</time></trkpt><trkpt lat="43.70523952465581" lon="12.139407457218864"><ele>841.0</ele><time>2026-04-20T12:53:37Z</time></trkpt><trkpt lat="43.705248358774256" lon="12.139523519261283"><ele>841.0</ele><time>2026-04-20T12:53:38Z</time></trkpt><trkpt lat="43.705225793556615" lon="12.139643164208847"><ele>841.0</ele><time>2026-04-20T12:53:39Z</time></trkpt><trkpt lat="43.705170884533324" lon="12.139752922939953"><ele>841.0</ele><time>2026-04-20T12:53:40Z</time></trkpt><trkpt lat="43.70509513772294" lon="12.139847690621245"><ele>841.0</ele><time>2026-04-20T12:53:41Z</time></trkpt><trkpt lat="43.70500002976575" lon="12.139924553109338"><ele>841.0</ele><time>2026-04-20T12:53:42Z</time></trkpt><trkpt lat="43.70489254223287" lon="12.139989160346701"><ele>841.0</ele><time>2026-04-20T12:53:43Z</time></trkpt><trkpt lat="43.704772075263726" lon="12.140039689588402"><ele>842.5</ele><time>2026-04-20T12:53:44Z</time></trkpt><trkpt lat="43.70463463054591" lon="12.14006792492829"><ele>844.0</ele><time>2026-04-20T12:53:45Z</time></trkpt><trkpt lat="43.70449379517787" lon="12.140081263252116"><ele>845.5</ele><time>2026-04-20T12:53:46Z</time></trkpt><trkpt lat="43.7043553382311" lon="12.140124836211736"><ele>847.0</ele><time>2026-04-20T12:53:47Z</time></trkpt><trkpt lat="43.70422355242891" lon="12.140207106993664"><ele>844.5</ele><time>2026-04-20T12:53:48Z</time></trkpt><trkpt lat="43.70411287377836" lon="12.140308872797807"><ele>842.0</ele><time>2026-04-20T12:53:49Z</time></trkpt><trkpt lat="43.704031492635536" lon="12.140428330363813"><ele>839.5</ele><time>2026-04-20T12:53:50Z</time></trkpt><trkpt lat="43.70396860814384" lon="12.140562727305575"><ele>837.0</ele><time>2026-04-20T12:53:51Z</time></trkpt><trkpt lat="43.70396912731134" lon="12.14073730861054"><ele>837.0</ele><time>2026-04-20T12:53:52Z</time></trkpt><trkpt lat="43.70399753561905" lon="12.140900965133342"><ele>837.0</ele><time>2026-04-20T12:53:53Z</time></trkpt><trkpt lat="43.70406371448924" lon="12.141050768340822"><ele>837.0</ele><time>2026-04-20T12:53:54Z</time></trkpt><trkpt lat="43.704161299664705" lon="12.141182151382273"><ele>837.0</ele><time>2026-04-20T12:53:55Z</time></trkpt><trkpt lat="43.70427714960874" lon="12.14130610297612"><ele>837.0</ele><time>2026-04-20T12:53:56Z</time></trkpt><trkpt lat="43.70440153020591" lon="12.141441653171373"><ele>837.0</ele><time>2026-04-20T12:53:57Z</time></trkpt><trkpt lat="43.704520444350614" lon="12.141586390576666"><ele>837.0</ele><time>2026-04-20T12:53:58Z</time></trkpt><trkpt lat="43.70460433937994" lon="12.141747900362095"><ele>839.8</ele><time>2026-04-20T12:53:59Z</time></trkpt><trkpt lat="43.704689132990595" lon="12.141874085196166"><ele>842.6</ele><time>2026-04-20T12:54:00Z</time></trkpt><trkpt lat="43.70472074779022" lon="12.142015587563428"><ele>845.4</ele><time>2026-04-20T12:54:01Z</time></trkpt><trkpt lat="43.70470905412316" lon="12.14216128148147"><ele>848.1999999999999</ele><time>2026-04-20T12:54:02Z</time></trkpt><trkpt lat="43.70465405025722" lon="12.142293112029552"><ele>851.0</ele><time>2026-04-20T12:54:03Z</time></trkpt><trkpt lat="43.70457418868706" lon="12.142413457805493"><ele>851.5</ele><time>2026-04-20T12:54:04Z</time></trkpt><trkpt lat="43.70448292466113" lon="12.142530257825978"><ele>852.0</ele><time>2026-04-20T12:54:05Z</time></trkpt><trkpt lat="43.70440181267487" lon="12.1426676007498"><ele>852.5</ele><time>2026-04-20T12:54:06Z</time></trkpt><trkpt lat="43.70433029440435" lon="12.142824184055817"><ele>853.0</ele><time>2026-04-20T12:54:07Z</time></trkpt><trkpt lat="43.70426649572249" lon="12.1429802017011"><ele>847.4</ele><time>2026-04-20T12:54:08Z</time></trkpt><trkpt lat="43.704220889784025" lon="12.143126379526143"><ele>841.8</ele><time>2026-04-20T12:54:09Z</time></trkpt><trkpt lat="43.704208154360856" lon="12.143276945468372"><ele>836.2</ele><time>2026-04-20T12:54:10Z</time></trkpt><trkpt lat="43.70423491529506" lon="12.143418659767786"><ele>830.6</ele><time>2026-04-20T12:54:11Z</time></trkpt><trkpt lat="43.70430124724085" lon="12.143524666251245"><ele>825.0</ele><time>2026-04-20T12:54:12Z</time></trkpt><trkpt lat="43.70439633819403" lon="12.14360402407364"><ele>832.0</ele><time>2026-04-20T12:54:13Z</time></trkpt><trkpt lat="43.70450094147237" lon="12.143670929288598"><ele>839.0</ele><time>2026-04-20T12:54:14Z</time></trkpt><trkpt lat="43.70460417787948" lon="12.143748964682509"><ele>846.0</ele><time>2026-04-20T12:54:15Z</time></trkpt><trkpt lat="43.70469765607201" lon="12.143854722050348"><ele>853.0</ele><time>2026-04-20T12:54:16Z</time></trkpt><trkpt lat="43.70476888168888" lon="12.143996669425798"><ele>851.0</ele><time>2026-04-20T12:54:17Z</time></trkpt><trkpt lat="43.704778149919946" lon="12.144171011213732"><ele>849.0</ele><time>2026-04-20T12:54:18Z</time></trkpt><trkpt lat="43.704776484117524" lon="12.144349431679087"><ele>847.0</ele><time>2026-04-20T12:54:19Z</time></trkpt><trkpt lat="43.70477023245143" lon="12.144535049561476"><ele>845.0</ele><time>2026-04-20T12:54:20Z</time></trkpt><trkpt lat="43.7047643551347" lon="12.144730256919631"><ele>844.75</ele><time>2026-04-20T12:54:21Z</time></trkpt><trkpt lat="43.704774252636504" lon="12.144929518448562"><ele>844.5</ele><time>2026-04-20T12:54:22Z</time></trkpt><trkpt lat="43.704772781675445" lon="12.145133991265897"><ele>844.25</ele><time>2026-04-20T12:54:23Z</time></trkpt><trkpt lat="43.70475329154515" lon="12.145333448060324"><ele>844.0</ele><time>2026-04-20T12:54:24Z</time></trkpt><trkpt lat="43.70474997557888" lon="12.145524201564527"><ele>844.0</ele><time>2026-04-20T12:54:25Z</time></trkpt><trkpt lat="43.7047589013309" lon="12.14571197239631"><ele>844.0</ele><time>2026-04-20T12:54:26Z</time></trkpt><trkpt lat="43.70475540577304" lon="12.145899239309593"><ele>844.0</ele><time>2026-04-20T12:54:27Z</time></trkpt><trkpt lat="43.70474252014904" lon="12.146087628060332"><ele>844.0</ele><time>2026-04-20T12:54:28Z</time></trkpt><trkpt lat="43.704763665584906" lon="12.146278656779668"><ele>842.0</ele><time>2026-04-20T12:54:29Z</time></trkpt><trkpt lat="43.704833552132044" lon="12.146460697271163"><ele>840.0</ele><time>2026-04-20T12:54:30Z</time></trkpt><trkpt lat="43.70491562081166" lon="12.14663936798481"><ele>838.0</ele><time>2026-04-20T12:54:31Z</time></trkpt><trkpt lat="43.70498885197192" lon="12.1468194955154"><ele>835.25</ele><time>2026-04-20T12:54:32Z</time></trkpt><trkpt lat="43.70506945777718" lon="12.146981390263768"><ele>832.5</ele><time>2026-04-20T12:54:33Z</time></trkpt><trkpt lat="43.7051314761087" lon="12.14714290727062"><ele>829.75</ele><time>2026-04-20T12:54:34Z</time></trkpt><trkpt lat="43.705179380381615" lon="12.14731758645763"><ele>827.0</ele><time>2026-04-20T12:54:34.999Z</time></trkpt><trkpt lat="43.70517522712343" lon="12.147517240210288"><ele>824.25</ele><time>2026-04-20T12:54:35.999Z</time></trkpt><trkpt lat="43.705161676603126" lon="12.14770409471383"><ele>821.5</ele><time>2026-04-20T12:54:36.999Z</time></trkpt><trkpt lat="43.705160468636066" lon="12.147873806738108"><ele>818.75</ele><time>2026-04-20T12:54:37.999Z</time></trkpt><trkpt lat="43.70521911188576" lon="12.148029592518546"><ele>816.0</ele><time>2026-04-20T12:54:38.999Z</time></trkpt><trkpt lat="43.70531876897356" lon="12.148147781712948"><ele>818.25</ele><time>2026-04-20T12:54:39.999Z</time></trkpt><trkpt lat="43.70542300548561" lon="12.148248595407887"><ele>820.5</ele><time>2026-04-20T12:54:40.999Z</time></trkpt><trkpt lat="43.70551151784781" lon="12.148366843997113"><ele>822.75</ele><time>2026-04-20T12:54:41.999Z</time></trkpt><trkpt lat="43.7055510754569" lon="12.148531007832217"><ele>825.0</ele><time>2026-04-20T12:54:42.999Z</time></trkpt><trkpt lat="43.70554221361496" lon="12.148692918879549"><ele>825.0</ele><time>2026-04-20T12:54:43.999Z</time></trkpt><trkpt lat="43.70549162706001" lon="12.148848846375598"><ele>825.0</ele><time>2026-04-20T12:54:44.999Z</time></trkpt><trkpt lat="43.70540244720679" lon="12.148984966057444"><ele>825.0</ele><time>2026-04-20T12:54:45.999Z</time></trkpt><trkpt lat="43.70529125365525" lon="12.149094673128419"><ele>825.0</ele><time>2026-04-20T12:54:46.999Z</time></trkpt><trkpt lat="43.70518584377582" lon="12.14920278728939"><ele>821.0</ele><time>2026-04-20T12:54:47.999Z</time></trkpt><trkpt lat="43.70510541111096" lon="12.149318071326457"><ele>817.0</ele><time>2026-04-20T12:54:48.999Z</time></trkpt><trkpt lat="43.705056724211694" lon="12.149445882811532"><ele>813.0</ele><time>2026-04-20T12:54:49.999Z</time></trkpt><trkpt lat="43.70502310179756" lon="12.149579965828456"><ele>809.0</ele><time>2026-04-20T12:54:50.999Z</time></trkpt><trkpt lat="43.70506532175506" lon="12.149728011694224"><ele>805.0</ele><time>2026-04-20T12:54:51.999Z</time></trkpt><trkpt lat="43.7051552094531" lon="12.149817897674874"><ele>807.5</ele><time>2026-04-20T12:54:52.999Z</time></trkpt><trkpt lat="43.705263228241115" lon="12.149866358702145"><ele>810.0</ele><time>2026-04-20T12:54:53.999Z</time></trkpt><trkpt lat="43.70539108046531" lon="12.14990128405577"><ele>812.5</ele><time>2026-04-20T12:54:54.999Z</time></trkpt><trkpt lat="43.705529904755444" lon="12.149951491154665"><ele>815.0</ele><time>2026-04-20T12:54:55.999Z</time></trkpt><trkpt lat="43.70566376803796" lon="12.150035242486615"><ele>815.0</ele><time>2026-04-20T12:54:56.999Z</time></trkpt><trkpt lat="43.70577671892775" lon="12.150147471421226"><ele>815.0</ele><time>2026-04-20T12:54:57.999Z</time></trkpt><trkpt lat="43.705874344915806" lon="12.150263333906219"><ele>815.0</ele><time>2026-04-20T12:54:58.999Z</time></trkpt><trkpt lat="43.70596877939308" lon="12.150368794137755"><ele>815.0</ele><time>2026-04-20T12:54:59.999Z</time></trkpt><trkpt lat="43.706068071818684" lon="12.150446853457078"><ele>814.25</ele><time>2026-04-20T12:55:00.999Z</time></trkpt><trkpt lat="43.706169586945435" lon="12.150504076555615"><ele>813.5</ele><time>2026-04-20T12:55:01.999Z</time></trkpt><trkpt lat="43.706280487569664" lon="12.150468430897424"><ele>812.75</ele><time>2026-04-20T12:55:02.999Z</time></trkpt><trkpt lat="43.70637474355252" lon="12.150396699077548"><ele>812.0</ele><time>2026-04-20T12:55:03.999Z</time></trkpt><trkpt lat="43.70645682964059" lon="12.15027786976995"><ele>812.0</ele><time>2026-04-20T12:55:04.999Z</time></trkpt><trkpt lat="43.70653478429698" lon="12.150143858027675"><ele>812.0</ele><time>2026-04-20T12:55:05.999Z</time></trkpt><trkpt lat="43.70663523076187" lon="12.150019138723543"><ele>812.0</ele><time>2026-04-20T12:55:06.999Z</time></trkpt><trkpt lat="43.70675470089258" lon="12.149929322832728"><ele>812.0</ele><time>2026-04-20T12:55:07.999Z</time></trkpt><trkpt lat="43.70687977102384" lon="12.149907316256597"><ele>812.0</ele><time>2026-04-20T12:55:08.999Z</time></trkpt><trkpt lat="43.707003307706536" lon="12.149944355170916"><ele>812.0</ele><time>2026-04-20T12:55:09.999Z</time></trkpt><trkpt lat="43.7071174525372" lon="12.15003063552532"><ele>812.0</ele><time>2026-04-20T12:55:10.999Z</time></trkpt><trkpt lat="43.70721543491424" lon="12.150164028656016"><ele>812.0</ele><time>2026-04-20T12:55:11.999Z</time></trkpt><trkpt lat="43.707287154460396" lon="12.150338616236509"><ele>812.0</ele><time>2026-04-20T12:55:12.999Z</time></trkpt><trkpt lat="43.707334157397405" lon="12.150542538206349"><ele>812.0</ele><time>2026-04-20T12:55:13.999Z</time></trkpt><trkpt lat="43.7073654356428" lon="12.15075282501256"><ele>812.0</ele><time>2026-04-20T12:55:14.999Z</time></trkpt><trkpt lat="43.70739920288154" lon="12.150948243087687"><ele>812.5</ele><time>2026-04-20T12:55:15.999Z</time></trkpt><trkpt lat="43.70745111460398" lon="12.151126356024307"><ele>813.0</ele><time>2026-04-20T12:55:16.999Z</time></trkpt><trkpt lat="43.70753161210494" lon="12.151277846149144"><ele>813.5</ele><time>2026-04-20T12:55:17.999Z</time></trkpt><trkpt lat="43.70763959645526" lon="12.151394720157695"><ele>814.0</ele><time>2026-04-20T12:55:18.999Z</time></trkpt><trkpt lat="43.70776968356149" lon="12.151444206246236"><ele>814.0</ele><time>2026-04-20T12:55:19.999Z</time></trkpt><trkpt lat="43.70790765737967" lon="12.151439774790889"><ele>814.0</ele><time>2026-04-20T12:55:20.999Z</time></trkpt><trkpt lat="43.70804617515992" lon="12.151398779234436"><ele>814.0</ele><time>2026-04-20T12:55:21.999Z</time></trkpt><trkpt lat="43.70818307504028" lon="12.151372533874373"><ele>814.0</ele><time>2026-04-20T12:55:22.999Z</time></trkpt><trkpt lat="43.70831050670231" lon="12.15138829141747"><ele>814.0</ele><time>2026-04-20T12:55:23.999Z</time></trkpt><trkpt lat="43.70843308189213" lon="12.151447938018682"><ele>814.0</ele><time>2026-04-20T12:55:24.999Z</time></trkpt><trkpt lat="43.70854964014342" lon="12.151516643114713"><ele>814.0</ele><time>2026-04-20T12:55:25.999Z</time></trkpt><trkpt lat="43.70866591699909" lon="12.151595949813245"><ele>814.0</ele><time>2026-04-20T12:55:26.999Z</time></trkpt><trkpt lat="43.70875401091436" lon="12.151713201104934"><ele>814.25</ele><time>2026-04-20T12:55:27.999Z</time></trkpt><trkpt lat="43.708818832794776" lon="12.151870634983812"><ele>814.5</ele><time>2026-04-20T12:55:28.999Z</time></trkpt><trkpt lat="43.70883721915543" lon="12.152064431287494"><ele>814.75</ele><time>2026-04-20T12:55:29.999Z</time></trkpt><trkpt lat="43.70886290325192" lon="12.152288402411859"><ele>815.0</ele><time>2026-04-20T12:55:30.999Z</time></trkpt><trkpt lat="43.708883764175226" lon="12.152517549699951"><ele>813.0</ele><time>2026-04-20T12:55:31.999Z</time></trkpt><trkpt lat="43.7088913579756" lon="12.152735449595621"><ele>811.0</ele><time>2026-04-20T12:55:32.999Z</time></trkpt><trkpt lat="43.70886662333656" lon="12.152922151326973"><ele>809.0</ele><time>2026-04-20T12:55:33.999Z</time></trkpt><trkpt lat="43.70879231356793" lon="12.153068404844689"><ele>807.0</ele><time>2026-04-20T12:55:34.999Z</time></trkpt><trkpt lat="43.70870653582586" lon="12.153218937040107"><ele>807.0</ele><time>2026-04-20T12:55:35.999Z</time></trkpt><trkpt lat="43.708640460284194" lon="12.15339101480993"><ele>807.0</ele><time>2026-04-20T12:55:36.999Z</time></trkpt><trkpt lat="43.70859126022461" lon="12.153546311891276"><ele>807.0</ele><time>2026-04-20T12:55:37.999Z</time></trkpt><trkpt lat="43.70860602088485" lon="12.153704821026423"><ele>807.0</ele><time>2026-04-20T12:55:38.999Z</time></trkpt><trkpt lat="43.70867662154367" lon="12.15385177215613"><ele>807.0</ele><time>2026-04-20T12:55:39.999Z</time></trkpt><trkpt lat="43.70877438024978" lon="12.153978186291733"><ele>807.0</ele><time>2026-04-20T12:55:40.999Z</time></trkpt><trkpt lat="43.7088903826087" lon="12.154099214179816"><ele>807.0</ele><time>2026-04-20T12:55:41.999Z</time></trkpt><trkpt lat="43.708999432431305" lon="12.154234374940605"><ele>807.0</ele><time>2026-04-20T12:55:42.999Z</time></trkpt><trkpt lat="43.709068964283674" lon="12.154412535244216"><ele>804.6666666666667</ele><time>2026-04-20T12:55:43.999Z</time></trkpt><trkpt lat="43.70911568622333" lon="12.154607580311174"><ele>802.3333333333334</ele><time>2026-04-20T12:55:44.999Z</time></trkpt><trkpt lat="43.70915678498433" lon="12.154820307059984"><ele>800.0</ele><time>2026-04-20T12:55:45.999Z</time></trkpt><trkpt lat="43.70919590355295" lon="12.155042024543093"><ele>797.0</ele><time>2026-04-20T12:55:46.999Z</time></trkpt><trkpt lat="43.70924362009648" lon="12.155264884158893"><ele>794.0</ele><time>2026-04-20T12:55:47.999Z</time></trkpt><trkpt lat="43.70928660658245" lon="12.15548807567963"><ele>791.0</ele><time>2026-04-20T12:55:48.999Z</time></trkpt><trkpt lat="43.709327455660244" lon="12.155721798293959"><ele>789.0</ele><time>2026-04-20T12:55:49.999Z</time></trkpt><trkpt lat="43.70936874916804" lon="12.155958712243288"><ele>787.0</ele><time>2026-04-20T12:55:50.999Z</time></trkpt><trkpt lat="43.70941686820961" lon="12.156206203446775"><ele>785.0</ele><time>2026-04-20T12:55:51.999Z</time></trkpt><trkpt lat="43.70945637444904" lon="12.1564537426109"><ele>792.3333333333334</ele><time>2026-04-20T12:55:52.999Z</time></trkpt><trkpt lat="43.70954085369092" lon="12.156678936069408"><ele>799.6666666666667</ele><time>2026-04-20T12:55:53.999Z</time></trkpt><trkpt lat="43.70960215513905" lon="12.156898550294962"><ele>807.0</ele><time>2026-04-20T12:55:54.999Z</time></trkpt><trkpt lat="43.7096517192936" lon="12.157114762300056"><ele>807.0</ele><time>2026-04-20T12:55:55.999Z</time></trkpt><trkpt lat="43.709640051364225" lon="12.157337139765769"><ele>807.0</ele><time>2026-04-20T12:55:56.999Z</time></trkpt><trkpt lat="43.70960969210041" lon="12.157542974913431"><ele>807.0</ele><time>2026-04-20T12:55:57.999Z</time></trkpt><trkpt lat="43.70956965285893" lon="12.157796947267926"><ele>805.6666666666667</ele><time>2026-04-20T12:55:58.999Z</time></trkpt><trkpt lat="43.70954642709057" lon="12.158045058842081"><ele>804.3333333333334</ele><time>2026-04-20T12:55:59.999Z</time></trkpt><trkpt lat="43.70953312910118" lon="12.15830496422278"><ele>803.0</ele><time>2026-04-20T12:56:00.999Z</time></trkpt><trkpt lat="43.70951046873126" lon="12.158566451579771"><ele>800.3333333333334</ele><time>2026-04-20T12:56:01.999Z</time></trkpt><trkpt lat="43.70949916625476" lon="12.15881922276599"><ele>797.6666666666667</ele><time>2026-04-20T12:56:02.999Z</time></trkpt><trkpt lat="43.709488703497584" lon="12.159053213742263"><ele>795.0</ele><time>2026-04-20T12:56:03.999Z</time></trkpt><trkpt lat="43.709491458810255" lon="12.15927996407616"><ele>793.75</ele><time>2026-04-20T12:56:04.999Z</time></trkpt><trkpt lat="43.70947831216534" lon="12.159484975016575"><ele>792.5</ele><time>2026-04-20T12:56:05.999Z</time></trkpt><trkpt lat="43.70947510713303" lon="12.159698456354816"><ele>791.25</ele><time>2026-04-20T12:56:06.999Z</time></trkpt><trkpt lat="43.70949430578993" lon="12.159890459253733"><ele>790.0</ele><time>2026-04-20T12:56:07.999Z</time></trkpt><trkpt lat="43.7095565119119" lon="12.160048482852943"><ele>788.25</ele><time>2026-04-20T12:56:08.999Z</time></trkpt><trkpt lat="43.70964684052299" lon="12.160175332837998"><ele>786.5</ele><time>2026-04-20T12:56:09.999Z</time></trkpt><trkpt lat="43.709761430512046" lon="12.160279402443843"><ele>784.75</ele><time>2026-04-20T12:56:10.999Z</time></trkpt><trkpt lat="43.709899040710674" lon="12.160370634654573"><ele>783.0</ele><time>2026-04-20T12:56:11.999Z</time></trkpt><trkpt lat="43.71004380109394" lon="12.160458671510673"><ele>783.0</ele><time>2026-04-20T12:56:12.999Z</time></trkpt><trkpt lat="43.710204521867006" lon="12.160520159690574"><ele>783.0</ele><time>2026-04-20T12:56:13.999Z</time></trkpt><trkpt lat="43.710358443744575" lon="12.160543419360897"><ele>783.0</ele><time>2026-04-20T12:56:14.999Z</time></trkpt><trkpt lat="43.71050785655856" lon="12.160553544767446"><ele>781.5</ele><time>2026-04-20T12:56:15.999Z</time></trkpt><trkpt lat="43.7106296451698" lon="12.160626324269113"><ele>780.0</ele><time>2026-04-20T12:56:16.999Z</time></trkpt><trkpt lat="43.71071991178348" lon="12.160740505589644"><ele>778.5</ele><time>2026-04-20T12:56:17.999Z</time></trkpt><trkpt lat="43.7107988614136" lon="12.160873313136994"><ele>777.0</ele><time>2026-04-20T12:56:18.999Z</time></trkpt><trkpt lat="43.71085826365429" lon="12.161042128059446"><ele>777.0</ele><time>2026-04-20T12:56:19.999Z</time></trkpt><trkpt lat="43.71092029548398" lon="12.161225678584357"><ele>777.0</ele><time>2026-04-20T12:56:20.999Z</time></trkpt><trkpt lat="43.71098568149576" lon="12.161413058552053"><ele>777.0</ele><time>2026-04-20T12:56:21.999Z</time></trkpt><trkpt lat="43.711066956435246" lon="12.161569237132444"><ele>777.0</ele><time>2026-04-20T12:56:22.999Z</time></trkpt><trkpt lat="43.71115136041293" lon="12.161716548361559"><ele>778.3333333333333</ele><time>2026-04-20T12:56:23.999Z</time></trkpt><trkpt lat="43.71125881688611" lon="12.161851474629028"><ele>779.6666666666666</ele><time>2026-04-20T12:56:24.999Z</time></trkpt><trkpt lat="43.71140876165479" lon="12.161908355752153"><ele>781.0</ele><time>2026-04-20T12:56:25.999Z</time></trkpt><trkpt lat="43.7115670719087" lon="12.161929218794224"><ele>781.0</ele><time>2026-04-20T12:56:26.999Z</time></trkpt><trkpt lat="43.71172626730317" lon="12.161895692390463"><ele>781.0</ele><time>2026-04-20T12:56:27.999Z</time></trkpt><trkpt lat="43.711874470961156" lon="12.161896250456985"><ele>781.0</ele><time>2026-04-20T12:56:28.999Z</time></trkpt><trkpt lat="43.71200517383008" lon="12.16193243722623"><ele>781.0</ele><time>2026-04-20T12:56:29.999Z</time></trkpt><trkpt lat="43.71211919075995" lon="12.162011705962021"><ele>781.0</ele><time>2026-04-20T12:56:30.999Z</time></trkpt><trkpt lat="43.712201929987714" lon="12.162150075507565"><ele>781.0</ele><time>2026-04-20T12:56:31.999Z</time></trkpt><trkpt lat="43.71228777838257" lon="12.162304730058674"><ele>781.0</ele><time>2026-04-20T12:56:32.999Z</time></trkpt><trkpt lat="43.712364816595134" lon="12.162473487155138"><ele>781.0</ele><time>2026-04-20T12:56:33.999Z</time></trkpt><trkpt lat="43.712419007601646" lon="12.162658897609202"><ele>781.0</ele><time>2026-04-20T12:56:34.999Z</time></trkpt><trkpt lat="43.71242961086261" lon="12.162863448458644"><ele>781.0</ele><time>2026-04-20T12:56:35.999Z</time></trkpt><trkpt lat="43.71240546047579" lon="12.163076570161643"><ele>781.0</ele><time>2026-04-20T12:56:36.999Z</time></trkpt><trkpt lat="43.712324093429814" lon="12.163257313164847"><ele>781.6666666666666</ele><time>2026-04-20T12:56:37.999Z</time></trkpt><trkpt lat="43.71219417201573" lon="12.163390719707388"><ele>782.3333333333333</ele><time>2026-04-20T12:56:38.999Z</time></trkpt><trkpt lat="43.71205894693701" lon="12.163530182784404"><ele>783.0</ele><time>2026-04-20T12:56:39.999Z</time></trkpt><trkpt lat="43.711941225291355" lon="12.163706824592008"><ele>781.6666666666667</ele><time>2026-04-20T12:56:40.999Z</time></trkpt><trkpt lat="43.71182532131433" lon="12.16389188031623"><ele>780.3333333333334</ele><time>2026-04-20T12:56:41.999Z</time></trkpt><trkpt lat="43.71172784933238" lon="12.164098731419681"><ele>779.0</ele><time>2026-04-20T12:56:42.999Z</time></trkpt><trkpt lat="43.71163530253782" lon="12.164316946721033"><ele>779.0</ele><time>2026-04-20T12:56:43.999Z</time></trkpt><trkpt lat="43.71153186908259" lon="12.164540936521764"><ele>779.0</ele><time>2026-04-20T12:56:44.999Z</time></trkpt><trkpt lat="43.71143524142098" lon="12.164769587835528"><ele>779.0</ele><time>2026-04-20T12:56:45.999Z</time></trkpt><trkpt lat="43.711332873808125" lon="12.165011849556771"><ele>777.0</ele><time>2026-04-20T12:56:46.999Z</time></trkpt><trkpt lat="43.71123523765677" lon="12.165260660511018"><ele>775.0</ele><time>2026-04-20T12:56:47.999Z</time></trkpt><trkpt lat="43.71114134538641" lon="12.165518352430217"><ele>773.0</ele><time>2026-04-20T12:56:48.999Z</time></trkpt><trkpt lat="43.711051275499244" lon="12.165766606762848"><ele>773.0</ele><time>2026-04-20T12:56:49.999Z</time></trkpt><trkpt lat="43.71095526474213" lon="12.166016927418019"><ele>773.0</ele><time>2026-04-20T12:56:50.999Z</time></trkpt><trkpt lat="43.710854991943975" lon="12.166271137410677"><ele>773.0</ele><time>2026-04-20T12:56:51.999Z</time></trkpt><trkpt lat="43.710753427752834" lon="12.166525849566778"><ele>777.3333333333334</ele><time>2026-04-20T12:56:52.999Z</time></trkpt><trkpt lat="43.710652988459444" lon="12.16677780458022"><ele>781.6666666666667</ele><time>2026-04-20T12:56:53.999Z</time></trkpt><trkpt lat="43.710545338936406" lon="12.167023070470714"><ele>786.0</ele><time>2026-04-20T12:56:54.999Z</time></trkpt><trkpt lat="43.710433644611655" lon="12.167258567760319"><ele>786.0</ele><time>2026-04-20T12:56:55.999Z</time></trkpt><trkpt lat="43.71032037139297" lon="12.1674831532108"><ele>786.0</ele><time>2026-04-20T12:56:56.999Z</time></trkpt><trkpt lat="43.71021950439617" lon="12.167708837077354"><ele>786.0</ele><time>2026-04-20T12:56:57.999Z</time></trkpt><trkpt lat="43.71014602486322" lon="12.167947156112877"><ele>789.0</ele><time>2026-04-20T12:56:58.999Z</time></trkpt><trkpt lat="43.710104005703286" lon="12.16820289309119"><ele>792.0</ele><time>2026-04-20T12:56:59.999Z</time></trkpt><trkpt lat="43.710087728541716" lon="12.168466675706782"><ele>795.0</ele><time>2026-04-20T12:57:00.999Z</time></trkpt><trkpt lat="43.71009537796555" lon="12.168737777203154"><ele>795.0</ele><time>2026-04-20T12:57:01.999Z</time></trkpt><trkpt lat="43.71012963281159" lon="12.169010998722927"><ele>795.0</ele><time>2026-04-20T12:57:02.999Z</time></trkpt><trkpt lat="43.7101785063646" lon="12.1692826498584"><ele>795.0</ele><time>2026-04-20T12:57:03.999Z</time></trkpt><trkpt lat="43.71021850661474" lon="12.169561744972215"><ele>798.0</ele><time>2026-04-20T12:57:04.999Z</time></trkpt><trkpt lat="43.710252031730505" lon="12.169839897222648"><ele>801.0</ele><time>2026-04-20T12:57:05.999Z</time></trkpt><trkpt lat="43.71028535465726" lon="12.170118690611142"><ele>804.0</ele><time>2026-04-20T12:57:06.999Z</time></trkpt><trkpt lat="43.71031922874895" lon="12.170396801171862"><ele>804.0</ele><time>2026-04-20T12:57:07.999Z</time></trkpt><trkpt lat="43.71034068717133" lon="12.170670123052492"><ele>804.0</ele><time>2026-04-20T12:57:08.999Z</time></trkpt><trkpt lat="43.710339907754" lon="12.170931156690552"><ele>804.0</ele><time>2026-04-20T12:57:09.999Z</time></trkpt><trkpt lat="43.71031351931025" lon="12.171250205026793"><ele>793.3333333333333</ele><time>2026-04-20T12:57:10.999Z</time></trkpt><trkpt lat="43.71023592395584" lon="12.171568031935022"><ele>782.6666666666666</ele><time>2026-04-20T12:57:11.999Z</time></trkpt><trkpt lat="43.710178265645716" lon="12.171797347933094"><ele>772.0</ele><time>2026-04-20T12:57:12.999Z</time></trkpt><trkpt lat="43.71010567583757" lon="12.172026602418008"><ele>772.0</ele><time>2026-04-20T12:57:13.999Z</time></trkpt><trkpt lat="43.710049172923505" lon="12.172253031290683"><ele>772.0</ele><time>2026-04-20T12:57:14.999Z</time></trkpt><trkpt lat="43.71003094677188" lon="12.17248262712339"><ele>772.0</ele><time>2026-04-20T12:57:15.999Z</time></trkpt><trkpt lat="43.71005340889037" lon="12.172722698858362"><ele>770.3333333333333</ele><time>2026-04-20T12:57:16.999Z</time></trkpt><trkpt lat="43.710107700478325" lon="12.172969769146972"><ele>768.6666666666666</ele><time>2026-04-20T12:57:17.999Z</time></trkpt><trkpt lat="43.71019329838827" lon="12.173200292663484"><ele>767.0</ele><time>2026-04-20T12:57:18.999Z</time></trkpt><trkpt lat="43.71031073448273" lon="12.173427786100735"><ele>767.0</ele><time>2026-04-20T12:57:19.999Z</time></trkpt><trkpt lat="43.710413945058534" lon="12.173669208929521"><ele>767.0</ele><time>2026-04-20T12:57:20.999Z</time></trkpt><trkpt lat="43.710464891754114" lon="12.173926817688114"><ele>767.0</ele><time>2026-04-20T12:57:21.999Z</time></trkpt><trkpt lat="43.71049445637387" lon="12.174224832726201"><ele>767.0</ele><time>2026-04-20T12:57:22.999Z</time></trkpt><trkpt lat="43.710521616319056" lon="12.17452520815465"><ele>767.0</ele><time>2026-04-20T12:57:23.999Z</time></trkpt><trkpt lat="43.71055187610132" lon="12.174835094455377"><ele>767.0</ele><time>2026-04-20T12:57:24.999Z</time></trkpt><trkpt lat="43.710582885510114" lon="12.175148691414632"><ele>765.6666666666666</ele><time>2026-04-20T12:57:25.999Z</time></trkpt><trkpt lat="43.71061170190274" lon="12.175456302379818"><ele>764.3333333333334</ele><time>2026-04-20T12:57:26.999Z</time></trkpt><trkpt lat="43.71063876930264" lon="12.175759994293191"><ele>763.0</ele><time>2026-04-20T12:57:27.999Z</time></trkpt><trkpt lat="43.710662058457544" lon="12.176049580748133"><ele>761.3333333333334</ele><time>2026-04-20T12:57:28.999Z</time></trkpt><trkpt lat="43.71069214510654" lon="12.176337639485846"><ele>759.6666666666666</ele><time>2026-04-20T12:57:29.999Z</time></trkpt><trkpt lat="43.71068648987593" lon="12.176625673817496"><ele>758.0</ele><time>2026-04-20T12:57:30.999Z</time></trkpt><trkpt lat="43.7106150462742" lon="12.176893325004492"><ele>754.6666666666666</ele><time>2026-04-20T12:57:31.999Z</time></trkpt><trkpt lat="43.710526040684805" lon="12.177156219071225"><ele>751.3333333333334</ele><time>2026-04-20T12:57:32.999Z</time></trkpt><trkpt lat="43.71043216325592" lon="12.177418199404128"><ele>748.0</ele><time>2026-04-20T12:57:33.999Z</time></trkpt><trkpt lat="43.71031979134794" lon="12.177661832839858"><ele>739.3333333333334</ele><time>2026-04-20T12:57:34.999Z</time></trkpt><trkpt lat="43.71023332728755" lon="12.177905100785434"><ele>730.6666666666666</ele><time>2026-04-20T12:57:35.999Z</time></trkpt><trkpt lat="43.710181201070625" lon="12.178167146480986"><ele>722.0</ele><time>2026-04-20T12:57:36.999Z</time></trkpt><trkpt lat="43.710165501038766" lon="12.178445309971641"><ele>721.6666666666666</ele><time>2026-04-20T12:57:37.999Z</time></trkpt><trkpt lat="43.71018031618379" lon="12.178737193641835"><ele>721.3333333333334</ele><time>2026-04-20T12:57:38.999Z</time></trkpt><trkpt lat="43.710222331309865" lon="12.17902901458269"><ele>721.0</ele><time>2026-04-20T12:57:39.999Z</time></trkpt><trkpt lat="43.710241694652375" lon="12.179331639885763"><ele>721.6666666666667</ele><time>2026-04-20T12:57:40.999Z</time></trkpt><trkpt lat="43.71026076536043" lon="12.179614527209834"><ele>722.3333333333334</ele><time>2026-04-20T12:57:41.999Z</time></trkpt><trkpt lat="43.71024314907145" lon="12.179886463012728"><ele>723.0</ele><time>2026-04-20T12:57:42.999Z</time></trkpt><trkpt lat="43.71018490638104" lon="12.180139484868409"><ele>720.0</ele><time>2026-04-20T12:57:43.999Z</time></trkpt><trkpt lat="43.71010853336526" lon="12.180389397399724"><ele>717.0</ele><time>2026-04-20T12:57:44.999Z</time></trkpt><trkpt lat="43.71002780887924" lon="12.180628563869032"><ele>714.0</ele><time>2026-04-20T12:57:45.999Z</time></trkpt><trkpt lat="43.70996525420149" lon="12.1808668724422"><ele>713.0</ele><time>2026-04-20T12:57:46.999Z</time></trkpt><trkpt lat="43.70988355255442" lon="12.181093160283405"><ele>712.0</ele><time>2026-04-20T12:57:47.999Z</time></trkpt><trkpt lat="43.709810143750374" lon="12.1813122574639"><ele>711.0</ele><time>2026-04-20T12:57:48.999Z</time></trkpt><trkpt lat="43.70973678354591" lon="12.181533304498886"><ele>710.25</ele><time>2026-04-20T12:57:49.999Z</time></trkpt><trkpt lat="43.709667153439014" lon="12.181740832832395"><ele>709.5</ele><time>2026-04-20T12:57:50.999Z</time></trkpt><trkpt lat="43.709608519030425" lon="12.181918661958541"><ele>708.75</ele><time>2026-04-20T12:57:51.999Z</time></trkpt><trkpt lat="43.7095516400839" lon="12.182088470033294"><ele>708.0</ele><time>2026-04-20T12:57:52.999Z</time></trkpt><trkpt lat="43.709494128147504" lon="12.18225889774974"><ele>707.0</ele><time>2026-04-20T12:57:53.999Z</time></trkpt><trkpt lat="43.70943385225425" lon="12.18242768558534"><ele>706.0</ele><time>2026-04-20T12:57:54.999Z</time></trkpt><trkpt lat="43.70936978990657" lon="12.182594684234605"><ele>705.0</ele><time>2026-04-20T12:57:55.999Z</time></trkpt><trkpt lat="43.70930267692622" lon="12.182757957414365"><ele>704.0</ele><time>2026-04-20T12:57:56.999Z</time></trkpt><trkpt lat="43.709232932511675" lon="12.182916331584178"><ele>702.25</ele><time>2026-04-20T12:57:57.999Z</time></trkpt><trkpt lat="43.70915879868811" lon="12.18306947835012"><ele>700.5</ele><time>2026-04-20T12:57:58.999Z</time></trkpt><trkpt lat="43.70908344447852" lon="12.18321819344416"><ele>698.75</ele><time>2026-04-20T12:57:59.999Z</time></trkpt><trkpt lat="43.70900989478681" lon="12.183365052488648"><ele>697.0</ele><time>2026-04-20T12:58:00.999Z</time></trkpt><trkpt lat="43.708937506049345" lon="12.183507019093211"><ele>697.0</ele><time>2026-04-20T12:58:01.999Z</time></trkpt><trkpt lat="43.70886331767532" lon="12.183649534802479"><ele>697.0</ele><time>2026-04-20T12:58:02.999Z</time></trkpt><trkpt lat="43.708788566869494" lon="12.183785794676819"><ele>697.0</ele><time>2026-04-20T12:58:03.999Z</time></trkpt><trkpt lat="43.70870827315734" lon="12.183917042625431"><ele>697.0</ele><time>2026-04-20T12:58:04.999Z</time></trkpt><trkpt lat="43.708615449990724" lon="12.184031429914024"><ele>695.75</ele><time>2026-04-20T12:58:05.999Z</time></trkpt><trkpt lat="43.70850869422054" lon="12.184129519405293"><ele>694.5</ele><time>2026-04-20T12:58:06.999Z</time></trkpt><trkpt lat="43.70839055498208" lon="12.18420500677737"><ele>693.25</ele><time>2026-04-20T12:58:07.999Z</time></trkpt><trkpt lat="43.70826418694174" lon="12.1842503895336"><ele>692.0</ele><time>2026-04-20T12:58:08.999Z</time></trkpt><trkpt lat="43.708131611308296" lon="12.184274273240135"><ele>692.0</ele><time>2026-04-20T12:58:09.999Z</time></trkpt><trkpt lat="43.70799488449022" lon="12.184282171655468"><ele>692.0</ele><time>2026-04-20T12:58:10.999Z</time></trkpt><trkpt lat="43.707857483049956" lon="12.184274479436784"><ele>692.0</ele><time>2026-04-20T12:58:11.999Z</time></trkpt><trkpt lat="43.70772005956548" lon="12.184260866186303"><ele>692.0</ele><time>2026-04-20T12:58:12.999Z</time></trkpt><trkpt lat="43.70758463999454" lon="12.184242186914492"><ele>691.75</ele><time>2026-04-20T12:58:13.999Z</time></trkpt><trkpt lat="43.70745314418364" lon="12.184226066964612"><ele>691.5</ele><time>2026-04-20T12:58:14.999Z</time></trkpt><trkpt lat="43.70732456330528" lon="12.184210132190413"><ele>691.25</ele><time>2026-04-20T12:58:15.999Z</time></trkpt><trkpt lat="43.70719759410554" lon="12.184207452500049"><ele>691.0</ele><time>2026-04-20T12:58:16.999Z</time></trkpt><trkpt lat="43.70707744250179" lon="12.184219735170595"><ele>691.0</ele><time>2026-04-20T12:58:17.999Z</time></trkpt><trkpt lat="43.706968812586894" lon="12.184251855262632"><ele>691.0</ele><time>2026-04-20T12:58:18.999Z</time></trkpt><trkpt lat="43.706867622103545" lon="12.184308091956073"><ele>691.0</ele><time>2026-04-20T12:58:19.999Z</time></trkpt><trkpt lat="43.70677228137291" lon="12.184379749759913"><ele>691.0</ele><time>2026-04-20T12:58:20.999Z</time></trkpt><trkpt lat="43.706680567775635" lon="12.184464423677941"><ele>691.0</ele><time>2026-04-20T12:58:21.999Z</time></trkpt><trkpt lat="43.70659268161773" lon="12.184562733716714"><ele>691.4</ele><time>2026-04-20T12:58:22.999Z</time></trkpt><trkpt lat="43.706510812894955" lon="12.184671703623453"><ele>691.8</ele><time>2026-04-20T12:58:23.999Z</time></trkpt><trkpt lat="43.706433193248024" lon="12.184784223612732"><ele>692.1999999999999</ele><time>2026-04-20T12:58:24.999Z</time></trkpt><trkpt lat="43.7063583902026" lon="12.184891548945629"><ele>692.5999999999999</ele><time>2026-04-20T12:58:25.999Z</time></trkpt><trkpt lat="43.70628324643936" lon="12.184988589774552"><ele>693.0</ele><time>2026-04-20T12:58:26.999Z</time></trkpt><trkpt lat="43.706213137327616" lon="12.185080969515075"><ele>692.8333333333334</ele><time>2026-04-20T12:58:27.999Z</time></trkpt><trkpt lat="43.7061443496772" lon="12.185169966214168"><ele>692.6666666666666</ele><time>2026-04-20T12:58:28.999Z</time></trkpt><trkpt lat="43.706078227703166" lon="12.185256628521755"><ele>692.5</ele><time>2026-04-20T12:58:29.999Z</time></trkpt><trkpt lat="43.7060145514179" lon="12.185334774949443"><ele>692.3333333333333</ele><time>2026-04-20T12:58:30.999Z</time></trkpt><trkpt lat="43.705953513657185" lon="12.185412118626637"><ele>692.1666666666666</ele><time>2026-04-20T12:58:31.999Z</time></trkpt><trkpt lat="43.70589352691096" lon="12.185495469723293"><ele>692.0</ele><time>2026-04-20T12:58:32.999Z</time></trkpt><trkpt lat="43.70582489066593" lon="12.185593459532994"><ele>693.4000000000001</ele><time>2026-04-20T12:58:33.999Z</time></trkpt><trkpt lat="43.70575330396337" lon="12.18569081709923"><ele>694.8000000000001</ele><time>2026-04-20T12:58:34.999Z</time></trkpt><trkpt lat="43.705682113464896" lon="12.185790488200313"><ele>696.2</ele><time>2026-04-20T12:58:35.999Z</time></trkpt><trkpt lat="43.70560650799292" lon="12.185904877031193"><ele>697.6</ele><time>2026-04-20T12:58:36.999Z</time></trkpt><trkpt lat="43.705516657782304" lon="12.186039458798913"><ele>699.0</ele><time>2026-04-20T12:58:37.999Z</time></trkpt><trkpt lat="43.70541432963981" lon="12.18618881321555"><ele>699.0</ele><time>2026-04-20T12:58:38.999Z</time></trkpt><trkpt lat="43.705299945410225" lon="12.186344599558574"><ele>699.0</ele><time>2026-04-20T12:58:39.999Z</time></trkpt><trkpt lat="43.70517486229885" lon="12.186493575517712"><ele>699.0</ele><time>2026-04-20T12:58:40.999Z</time></trkpt><trkpt lat="43.70504759540984" lon="12.1866387800792"><ele>697.25</ele><time>2026-04-20T12:58:41.999Z</time></trkpt><trkpt lat="43.704923791915185" lon="12.186770144558272"><ele>695.5</ele><time>2026-04-20T12:58:42.999Z</time></trkpt><trkpt lat="43.70480565661885" lon="12.186894442571575"><ele>693.75</ele><time>2026-04-20T12:58:43.999Z</time></trkpt><trkpt lat="43.704692779704835" lon="12.187006337249544"><ele>692.0</ele><time>2026-04-20T12:58:44.999Z</time></trkpt><trkpt lat="43.70458612553464" lon="12.187114106945458"><ele>692.0</ele><time>2026-04-20T12:58:45.999Z</time></trkpt><trkpt lat="43.70448792608023" lon="12.187208456526205"><ele>692.0</ele><time>2026-04-20T12:58:46.999Z</time></trkpt><trkpt lat="43.70439783173354" lon="12.187288180076049"><ele>692.0</ele><time>2026-04-20T12:58:47.999Z</time></trkpt><trkpt lat="43.70431499516975" lon="12.187340952270455"><ele>692.0</ele><time>2026-04-20T12:58:48.999Z</time></trkpt><trkpt lat="43.70424620028162" lon="12.1873521600986"><ele>692.0</ele><time>2026-04-20T12:58:49.999Z</time></trkpt><trkpt lat="43.704158721746566" lon="12.187283997049674"><ele>692.0</ele><time>2026-04-20T12:58:51.999Z</time></trkpt><trkpt lat="43.704113864750916" lon="12.187346226295704"><ele>692.0</ele><time>2026-04-20T13:04:51Z</time></trkpt><trkpt lat="43.70408392609697" lon="12.187452861194485"><ele>692.0</ele><time>2026-04-20T13:04:53Z</time></trkpt><trkpt lat="43.7040712095147" lon="12.187558727175194"><ele>692.0</ele><time>2026-04-20T13:04:55Z</time></trkpt><trkpt lat="43.70405528526205" lon="12.187667176821144"><ele>692.0</ele><time>2026-04-20T13:04:57Z</time></trkpt><trkpt lat="43.70399107278652" lon="12.187755597474428"><ele>692.0</ele><time>2026-04-20T13:04:59Z</time></trkpt><trkpt lat="43.703937758005274" lon="12.187807958985422"><ele>692.0</ele><time>2026-04-20T13:05:00Z</time></trkpt><trkpt lat="43.70387651402736" lon="12.187866743159157"><ele>692.0</ele><time>2026-04-20T13:05:01Z</time></trkpt><trkpt lat="43.70381364983896" lon="12.187936587627945"><ele>692.0</ele><time>2026-04-20T13:05:02Z</time></trkpt><trkpt lat="43.70374521980917" lon="12.18800494746858"><ele>692.0</ele><time>2026-04-20T13:05:03Z</time></trkpt><trkpt lat="43.70367450913713" lon="12.188079413368687"><ele>692.0</ele><time>2026-04-20T13:05:04Z</time></trkpt><trkpt lat="43.70359848107744" lon="12.188165112042402"><ele>692.0</ele><time>2026-04-20T13:05:05Z</time></trkpt><trkpt lat="43.70351613966752" lon="12.18825204257546"><ele>691.4000000000001</ele><time>2026-04-20T13:05:06Z</time></trkpt><trkpt lat="43.70343150637996" lon="12.188340708763539"><ele>690.8000000000001</ele><time>2026-04-20T13:05:07Z</time></trkpt><trkpt lat="43.703344298239664" lon="12.188427999631042"><ele>690.2</ele><time>2026-04-20T13:05:08Z</time></trkpt><trkpt lat="43.70324962699865" lon="12.188523711070623"><ele>689.6</ele><time>2026-04-20T13:05:09Z</time></trkpt><trkpt lat="43.703158616221536" lon="12.188624106142575"><ele>689.0</ele><time>2026-04-20T13:05:10Z</time></trkpt><trkpt lat="43.703068826461156" lon="12.188737258909525"><ele>689.0</ele><time>2026-04-20T13:05:11Z</time></trkpt><trkpt lat="43.702986835634064" lon="12.18885585720655"><ele>689.0</ele><time>2026-04-20T13:05:12Z</time></trkpt><trkpt lat="43.70294232129375" lon="12.189018437115884"><ele>689.0</ele><time>2026-04-20T13:05:13Z</time></trkpt><trkpt lat="43.70289490876993" lon="12.189187920710186"><ele>689.0</ele><time>2026-04-20T13:05:14Z</time></trkpt><trkpt lat="43.70288512471906" lon="12.189389793758851"><ele>688.25</ele><time>2026-04-20T13:05:15Z</time></trkpt><trkpt lat="43.70291004339757" lon="12.189594114746594"><ele>687.5</ele><time>2026-04-20T13:05:16Z</time></trkpt><trkpt lat="43.70293816576557" lon="12.189781699889522"><ele>686.75</ele><time>2026-04-20T13:05:17Z</time></trkpt><trkpt lat="43.70299195096329" lon="12.189957029101773"><ele>686.0</ele><time>2026-04-20T13:05:18Z</time></trkpt><trkpt lat="43.70307104438847" lon="12.190118491383823"><ele>686.0</ele><time>2026-04-20T13:05:19Z</time></trkpt><trkpt lat="43.703155524927006" lon="12.1902744755974"><ele>686.0</ele><time>2026-04-20T13:05:20Z</time></trkpt><trkpt lat="43.703281119744666" lon="12.190363029379638"><ele>686.0</ele><time>2026-04-20T13:05:21Z</time></trkpt><trkpt lat="43.70340473053888" lon="12.19044195961641"><ele>686.0</ele><time>2026-04-20T13:05:22Z</time></trkpt><trkpt lat="43.703536829862145" lon="12.190502665152302"><ele>686.0</ele><time>2026-04-20T13:05:23Z</time></trkpt><trkpt lat="43.703663607260076" lon="12.190584563428802"><ele>686.0</ele><time>2026-04-20T13:05:24Z</time></trkpt><trkpt lat="43.70379412373666" lon="12.190628563582509"><ele>686.0</ele><time>2026-04-20T13:05:25Z</time></trkpt><trkpt lat="43.703923175143" lon="12.190692663067416"><ele>686.0</ele><time>2026-04-20T13:05:26Z</time></trkpt><trkpt lat="43.70406091693375" lon="12.190754121624785"><ele>682.6666666666666</ele><time>2026-04-20T13:05:27Z</time></trkpt><trkpt lat="43.70420463470132" lon="12.19081416306167"><ele>679.3333333333334</ele><time>2026-04-20T13:05:28Z</time></trkpt><trkpt lat="43.704348793299246" lon="12.190879554114696"><ele>676.0</ele><time>2026-04-20T13:05:29Z</time></trkpt><trkpt lat="43.70449831569884" lon="12.190941268094186"><ele>676.0</ele><time>2026-04-20T13:05:30Z</time></trkpt><trkpt lat="43.704658856662206" lon="12.19098002607429"><ele>676.0</ele><time>2026-04-20T13:05:31Z</time></trkpt><trkpt lat="43.70482757496047" lon="12.19098217026129"><ele>676.0</ele><time>2026-04-20T13:05:32Z</time></trkpt><trkpt lat="43.704996857324936" lon="12.190959575527124"><ele>676.0</ele><time>2026-04-20T13:05:33Z</time></trkpt><trkpt lat="43.705162266857826" lon="12.190938214031398"><ele>676.0</ele><time>2026-04-20T13:05:34Z</time></trkpt><trkpt lat="43.70532196512453" lon="12.190919439578563"><ele>676.0</ele><time>2026-04-20T13:05:35Z</time></trkpt><trkpt lat="43.70547139210234" lon="12.190907148985579"><ele>676.0</ele><time>2026-04-20T13:05:36Z</time></trkpt><trkpt lat="43.70560447373225" lon="12.190916772292068"><ele>676.0</ele><time>2026-04-20T13:05:37Z</time></trkpt><trkpt lat="43.705725597930666" lon="12.190971776178369"><ele>676.0</ele><time>2026-04-20T13:05:38Z</time></trkpt><trkpt lat="43.70582073132056" lon="12.191068266621247"><ele>676.0</ele><time>2026-04-20T13:05:39Z</time></trkpt><trkpt lat="43.70588432024743" lon="12.191200610994143"><ele>676.0</ele><time>2026-04-20T13:05:40Z</time></trkpt><trkpt lat="43.70590866915212" lon="12.191357336986323"><ele>676.0</ele><time>2026-04-20T13:05:41Z</time></trkpt><trkpt lat="43.70590116414249" lon="12.191528781610842"><ele>676.0</ele><time>2026-04-20T13:05:42Z</time></trkpt><trkpt lat="43.70585991575629" lon="12.191691493568516"><ele>676.0</ele><time>2026-04-20T13:05:43Z</time></trkpt><trkpt lat="43.70577913281923" lon="12.191819540096695"><ele>673.25</ele><time>2026-04-20T13:05:44Z</time></trkpt><trkpt lat="43.70566831423599" lon="12.191909981836961"><ele>670.5</ele><time>2026-04-20T13:05:45Z</time></trkpt><trkpt lat="43.70553670612529" lon="12.191964341271579"><ele>667.75</ele><time>2026-04-20T13:05:46Z</time></trkpt><trkpt lat="43.705392352042594" lon="12.192005762889066"><ele>665.0</ele><time>2026-04-20T13:05:47Z</time></trkpt><trkpt lat="43.70523609213636" lon="12.192051948358186"><ele>665.0</ele><time>2026-04-20T13:05:48Z</time></trkpt><trkpt lat="43.70507286558866" lon="12.19210212112695"><ele>665.0</ele><time>2026-04-20T13:05:49Z</time></trkpt><trkpt lat="43.7049063406887" lon="12.192151629806414"><ele>665.0</ele><time>2026-04-20T13:05:50Z</time></trkpt><trkpt lat="43.70475473492565" lon="12.192194645022386"><ele>665.0</ele><time>2026-04-20T13:05:51Z</time></trkpt><trkpt lat="43.70461638067382" lon="12.19223894287892"><ele>665.0</ele><time>2026-04-20T13:05:52Z</time></trkpt><trkpt lat="43.70448702842321" lon="12.192305319983229"><ele>665.0</ele><time>2026-04-20T13:05:53Z</time></trkpt><trkpt lat="43.70437724626439" lon="12.192408949325653"><ele>665.0</ele><time>2026-04-20T13:05:54Z</time></trkpt><trkpt lat="43.7042973675267" lon="12.192554306710386"><ele>662.25</ele><time>2026-04-20T13:05:55Z</time></trkpt><trkpt lat="43.70425537271007" lon="12.192722924535335"><ele>659.5</ele><time>2026-04-20T13:05:56Z</time></trkpt><trkpt lat="43.70425370614414" lon="12.192907734734733"><ele>656.75</ele><time>2026-04-20T13:05:57Z</time></trkpt><trkpt lat="43.70429687695738" lon="12.193086593298512"><ele>654.0</ele><time>2026-04-20T13:05:58Z</time></trkpt><trkpt lat="43.7043792867314" lon="12.193237161689105"><ele>651.75</ele><time>2026-04-20T13:05:59Z</time></trkpt><trkpt lat="43.704495544841436" lon="12.193344263751571"><ele>649.5</ele><time>2026-04-20T13:06:00Z</time></trkpt><trkpt lat="43.704634191215874" lon="12.193408537959494"><ele>647.25</ele><time>2026-04-20T13:06:01Z</time></trkpt><trkpt lat="43.70479347830355" lon="12.193417960063295"><ele>645.0</ele><time>2026-04-20T13:06:02Z</time></trkpt><trkpt lat="43.7049629055271" lon="12.193421725960533"><ele>645.0</ele><time>2026-04-20T13:06:03Z</time></trkpt><trkpt lat="43.70512869916554" lon="12.193433921706253"><ele>645.0</ele><time>2026-04-20T13:06:04Z</time></trkpt><trkpt lat="43.70529699546902" lon="12.193440854127175"><ele>645.0</ele><time>2026-04-20T13:06:05Z</time></trkpt><trkpt lat="43.70547345804491" lon="12.19344596763036"><ele>644.0</ele><time>2026-04-20T13:06:06Z</time></trkpt><trkpt lat="43.70565993033145" lon="12.193478344267627"><ele>643.0</ele><time>2026-04-20T13:06:07Z</time></trkpt><trkpt lat="43.70584131016851" lon="12.193548923368622"><ele>642.0</ele><time>2026-04-20T13:06:08Z</time></trkpt><trkpt lat="43.70601622005147" lon="12.193660822885859"><ele>642.0</ele><time>2026-04-20T13:06:09Z</time></trkpt><trkpt lat="43.70616974320447" lon="12.193831403532945"><ele>642.0</ele><time>2026-04-20T13:06:10Z</time></trkpt><trkpt lat="43.7063326676651" lon="12.193995731760223"><ele>642.0</ele><time>2026-04-20T13:06:11Z</time></trkpt><trkpt lat="43.70650849809738" lon="12.194144044566922"><ele>642.0</ele><time>2026-04-20T13:06:12Z</time></trkpt><trkpt lat="43.706677178686796" lon="12.1943164959057"><ele>642.0</ele><time>2026-04-20T13:06:13Z</time></trkpt><trkpt lat="43.70684981008344" lon="12.194489709513988"><ele>642.0</ele><time>2026-04-20T13:06:14Z</time></trkpt><trkpt lat="43.707027458015176" lon="12.194662328657875"><ele>636.0</ele><time>2026-04-20T13:06:15Z</time></trkpt><trkpt lat="43.70720818306108" lon="12.194842681387541"><ele>630.0</ele><time>2026-04-20T13:06:16Z</time></trkpt><trkpt lat="43.707375955902066" lon="12.195037871876943"><ele>624.0</ele><time>2026-04-20T13:06:17Z</time></trkpt><trkpt lat="43.70754585312921" lon="12.195207391405253"><ele>624.0</ele><time>2026-04-20T13:06:18Z</time></trkpt><trkpt lat="43.707714356231556" lon="12.1953728418312"><ele>624.0</ele><time>2026-04-20T13:06:19Z</time></trkpt><trkpt lat="43.707894887968" lon="12.195484930555484"><ele>624.0</ele><time>2026-04-20T13:06:20Z</time></trkpt><trkpt lat="43.70807813987062" lon="12.195572388487529"><ele>622.0</ele><time>2026-04-20T13:06:21Z</time></trkpt><trkpt lat="43.708267936640276" lon="12.19562631455891"><ele>620.0</ele><time>2026-04-20T13:06:22Z</time></trkpt><trkpt lat="43.70846707990148" lon="12.195643972679752"><ele>618.0</ele><time>2026-04-20T13:06:23Z</time></trkpt><trkpt lat="43.70866807095114" lon="12.195619768551833"><ele>615.3333333333334</ele><time>2026-04-20T13:06:24Z</time></trkpt><trkpt lat="43.708868631517035" lon="12.195554155387397"><ele>612.6666666666667</ele><time>2026-04-20T13:06:25Z</time></trkpt><trkpt lat="43.70906354204919" lon="12.195455308472088"><ele>610.0</ele><time>2026-04-20T13:06:26Z</time></trkpt><trkpt lat="43.709244068870056" lon="12.19531060268564"><ele>610.0</ele><time>2026-04-20T13:06:27Z</time></trkpt><trkpt lat="43.70940292258506" lon="12.195117724832857"><ele>610.0</ele><time>2026-04-20T13:06:28Z</time></trkpt><trkpt lat="43.70954410453638" lon="12.194895429085827"><ele>610.0</ele><time>2026-04-20T13:06:29Z</time></trkpt><trkpt lat="43.70965861325478" lon="12.194639553470346"><ele>606.6666666666667</ele><time>2026-04-20T13:06:30Z</time></trkpt><trkpt lat="43.70974770188973" lon="12.19436279414941"><ele>603.3333333333334</ele><time>2026-04-20T13:06:31Z</time></trkpt><trkpt lat="43.70983038445634" lon="12.194083765899244"><ele>600.0</ele><time>2026-04-20T13:06:32Z</time></trkpt><trkpt lat="43.709911984381506" lon="12.19381636893782"><ele>600.0</ele><time>2026-04-20T13:06:33Z</time></trkpt><trkpt lat="43.709992642854225" lon="12.193555910752938"><ele>600.0</ele><time>2026-04-20T13:06:34Z</time></trkpt><trkpt lat="43.71008593395857" lon="12.193308311768115"><ele>600.0</ele><time>2026-04-20T13:06:35Z</time></trkpt><trkpt lat="43.71019814913518" lon="12.193082472251174"><ele>597.0</ele><time>2026-04-20T13:06:36Z</time></trkpt><trkpt lat="43.7103375483784" lon="12.192881051268879"><ele>594.0</ele><time>2026-04-20T13:06:37Z</time></trkpt><trkpt lat="43.71050721214585" lon="12.192712581164265"><ele>591.0</ele><time>2026-04-20T13:06:38Z</time></trkpt><trkpt lat="43.71069218612363" lon="12.192577610316352"><ele>591.0</ele><time>2026-04-20T13:06:39Z</time></trkpt><trkpt lat="43.71088800306133" lon="12.19245875130473"><ele>591.0</ele><time>2026-04-20T13:06:40Z</time></trkpt><trkpt lat="43.71108892396801" lon="12.19234863229876"><ele>591.0</ele><time>2026-04-20T13:06:41Z</time></trkpt><trkpt lat="43.71129583615332" lon="12.192255279250222"><ele>591.0</ele><time>2026-04-20T13:06:42Z</time></trkpt><trkpt lat="43.71150393434785" lon="12.192249173275421"><ele>591.0</ele><time>2026-04-20T13:06:43Z</time></trkpt><trkpt lat="43.71169167603879" lon="12.19228240668231"><ele>591.0</ele><time>2026-04-20T13:06:44Z</time></trkpt><trkpt lat="43.71185949669483" lon="12.192365209543677"><ele>585.6666666666666</ele><time>2026-04-20T13:06:45Z</time></trkpt><trkpt lat="43.71200394430074" lon="12.19249264139909"><ele>580.3333333333333</ele><time>2026-04-20T13:06:46Z</time></trkpt><trkpt lat="43.71214560564193" lon="12.192652379319222"><ele>575.0</ele><time>2026-04-20T13:06:47Z</time></trkpt><trkpt lat="43.71227951221454" lon="12.192841827930291"><ele>575.0</ele><time>2026-04-20T13:06:48Z</time></trkpt><trkpt lat="43.71241353874072" lon="12.193023870446993"><ele>575.0</ele><time>2026-04-20T13:06:49Z</time></trkpt><trkpt lat="43.712523352990516" lon="12.1932029044364"><ele>575.0</ele><time>2026-04-20T13:06:50Z</time></trkpt><trkpt lat="43.71262593173472" lon="12.193360607445051"><ele>573.25</ele><time>2026-04-20T13:06:51Z</time></trkpt><trkpt lat="43.712715970401284" lon="12.193502807967429"><ele>571.5</ele><time>2026-04-20T13:06:52Z</time></trkpt><trkpt lat="43.712802545623596" lon="12.193633554008587"><ele>569.75</ele><time>2026-04-20T13:06:53Z</time></trkpt><trkpt lat="43.712878443703794" lon="12.193746340741118"><ele>568.0</ele><time>2026-04-20T13:06:54Z</time></trkpt><trkpt lat="43.71294529132017" lon="12.193842001722594"><ele>566.3333333333334</ele><time>2026-04-20T13:06:55Z</time></trkpt><trkpt lat="43.71300498256953" lon="12.193921691506572"><ele>564.6666666666667</ele><time>2026-04-20T13:06:56Z</time></trkpt><trkpt lat="43.71305684623949" lon="12.193991263515056"><ele>563.0</ele><time>2026-04-20T13:06:57Z</time></trkpt><trkpt lat="43.71312004674622" lon="12.194071379451772"><ele>561.3333333333334</ele><time>2026-04-20T13:06:59Z</time></trkpt><trkpt lat="43.71315893833594" lon="12.194145428590502"><ele>559.6666666666666</ele><time>2026-04-20T13:08:23Z</time></trkpt><trkpt lat="43.7132506376557" lon="12.194267696551094"><ele>558.0</ele><time>2026-04-20T13:08:25Z</time></trkpt><trkpt lat="43.713309231836355" lon="12.194344988324424"><ele>557.5</ele><time>2026-04-20T13:08:26Z</time></trkpt><trkpt lat="43.71337846012357" lon="12.194436307826791"><ele>557.0</ele><time>2026-04-20T13:08:27Z</time></trkpt><trkpt lat="43.713461748918945" lon="12.19454617434082"><ele>556.5</ele><time>2026-04-20T13:08:28Z</time></trkpt><trkpt lat="43.71354937861981" lon="12.19466176709401"><ele>556.0</ele><time>2026-04-20T13:08:29Z</time></trkpt><trkpt lat="43.71364778648045" lon="12.194791577340512"><ele>548.6666666666667</ele><time>2026-04-20T13:08:30Z</time></trkpt><trkpt lat="43.71375441084616" lon="12.19493236861472"><ele>541.3333333333334</ele><time>2026-04-20T13:08:31Z</time></trkpt><trkpt lat="43.713865022405635" lon="12.195078504299804"><ele>534.0</ele><time>2026-04-20T13:08:32Z</time></trkpt><trkpt lat="43.71398090628933" lon="12.195231605606068"><ele>534.0</ele><time>2026-04-20T13:08:33Z</time></trkpt><trkpt lat="43.71410042731462" lon="12.19538951218507"><ele>534.0</ele><time>2026-04-20T13:08:34Z</time></trkpt><trkpt lat="43.71422524771787" lon="12.195554420064756"><ele>534.0</ele><time>2026-04-20T13:08:35Z</time></trkpt><trkpt lat="43.714347607746646" lon="12.195717156508183"><ele>533.3333333333334</ele><time>2026-04-20T13:08:36Z</time></trkpt><trkpt lat="43.71447170558119" lon="12.195882433571484"><ele>532.6666666666667</ele><time>2026-04-20T13:08:37Z</time></trkpt><trkpt lat="43.71459580611916" lon="12.196047714256736"><ele>532.0</ele><time>2026-04-20T13:08:38Z</time></trkpt><trkpt lat="43.714720216660275" lon="12.196212958796202"><ele>532.0</ele><time>2026-04-20T13:08:39Z</time></trkpt><trkpt lat="43.71485029277019" lon="12.196369577793542"><ele>532.0</ele><time>2026-04-20T13:08:40Z</time></trkpt><trkpt lat="43.71498928507299" lon="12.19648866910802"><ele>532.0</ele><time>2026-04-20T13:08:41Z</time></trkpt><trkpt lat="43.71515048974605" lon="12.196578457915015"><ele>538.0</ele><time>2026-04-20T13:08:42Z</time></trkpt><trkpt lat="43.71532333116965" lon="12.196628667324688"><ele>544.0</ele><time>2026-04-20T13:08:43Z</time></trkpt><trkpt lat="43.71550120367278" lon="12.196657791179005"><ele>550.0</ele><time>2026-04-20T13:08:44Z</time></trkpt><trkpt lat="43.71567354484204" lon="12.196622514629578"><ele>550.0</ele><time>2026-04-20T13:08:45Z</time></trkpt><trkpt lat="43.715827845313335" lon="12.196584256301806"><ele>550.0</ele><time>2026-04-20T13:08:46Z</time></trkpt><trkpt lat="43.71596021301408" lon="12.19651498844182"><ele>550.0</ele><time>2026-04-20T13:08:47Z</time></trkpt><trkpt lat="43.716065521038004" lon="12.196443087176721"><ele>550.0</ele><time>2026-04-20T13:08:48Z</time></trkpt><trkpt lat="43.71614835146952" lon="12.196388657703345"><ele>550.5</ele><time>2026-04-20T13:08:49Z</time></trkpt><trkpt lat="43.71622214419903" lon="12.196386234072783"><ele>551.0</ele><time>2026-04-20T13:08:50Z</time></trkpt><trkpt lat="43.71629177684093" lon="12.196424889747837"><ele>551.5</ele><time>2026-04-20T13:08:51Z</time></trkpt><trkpt lat="43.71634032411414" lon="12.196600149774039"><ele>552.0</ele><time>2026-04-20T13:08:53Z</time></trkpt><trkpt lat="43.716327014602754" lon="12.196700085424425"><ele>552.5</ele><time>2026-04-20T13:08:54Z</time></trkpt><trkpt lat="43.71628265173556" lon="12.196785965496"><ele>553.0</ele><time>2026-04-20T13:08:55Z</time></trkpt><trkpt lat="43.71620976105063" lon="12.19682885539752"><ele>552.4</ele><time>2026-04-20T13:08:56Z</time></trkpt><trkpt lat="43.71612543750532" lon="12.196820769037116"><ele>551.8</ele><time>2026-04-20T13:08:57Z</time></trkpt><trkpt lat="43.716030391375845" lon="12.19678892066195"><ele>551.2</ele><time>2026-04-20T13:08:58Z</time></trkpt><trkpt lat="43.71592561260398" lon="12.196779081680457"><ele>550.6</ele><time>2026-04-20T13:08:59Z</time></trkpt><trkpt lat="43.71580961973665" lon="12.196797348193314"><ele>550.0</ele><time>2026-04-20T13:09:00Z</time></trkpt><trkpt lat="43.7156880654815" lon="12.196846363678453"><ele>550.0</ele><time>2026-04-20T13:09:01Z</time></trkpt><trkpt lat="43.71556828389024" lon="12.196917200348523"><ele>550.0</ele><time>2026-04-20T13:09:02Z</time></trkpt><trkpt lat="43.715452111805874" lon="12.197006251271725"><ele>550.0</ele><time>2026-04-20T13:09:03Z</time></trkpt><trkpt lat="43.71533635317077" lon="12.197106341641316"><ele>550.0</ele><time>2026-04-20T13:09:04Z</time></trkpt><trkpt lat="43.715220379957486" lon="12.197213683794041"><ele>549.25</ele><time>2026-04-20T13:09:05Z</time></trkpt><trkpt lat="43.71510559993104" lon="12.197313798690795"><ele>548.5</ele><time>2026-04-20T13:09:06Z</time></trkpt><trkpt lat="43.71499398162473" lon="12.19741381361123"><ele>547.75</ele><time>2026-04-20T13:09:07Z</time></trkpt><trkpt lat="43.71488126319797" lon="12.19751066196976"><ele>547.0</ele><time>2026-04-20T13:09:08Z</time></trkpt><trkpt lat="43.71477047848134" lon="12.19760918781747"><ele>547.0</ele><time>2026-04-20T13:09:09Z</time></trkpt><trkpt lat="43.71466143818058" lon="12.19770589755831"><ele>547.0</ele><time>2026-04-20T13:09:10Z</time></trkpt><trkpt lat="43.71455258297593" lon="12.197805314598272"><ele>547.0</ele><time>2026-04-20T13:09:11Z</time></trkpt><trkpt lat="43.71443889008024" lon="12.197905350231233"><ele>547.0</ele><time>2026-04-20T13:09:12Z</time></trkpt><trkpt lat="43.71432576701241" lon="12.198006745792652"><ele>546.75</ele><time>2026-04-20T13:09:13Z</time></trkpt><trkpt lat="43.71421227350832" lon="12.198114086029015"><ele>546.5</ele><time>2026-04-20T13:09:14Z</time></trkpt><trkpt lat="43.71410750263891" lon="12.198229353997139"><ele>546.25</ele><time>2026-04-20T13:09:15Z</time></trkpt><trkpt lat="43.71400941035921" lon="12.198361967350834"><ele>546.0</ele><time>2026-04-20T13:09:16Z</time></trkpt><trkpt lat="43.71392214860488" lon="12.19850758192794"><ele>546.0</ele><time>2026-04-20T13:09:17Z</time></trkpt><trkpt lat="43.7138405325425" lon="12.198663312095706"><ele>546.0</ele><time>2026-04-20T13:09:18Z</time></trkpt><trkpt lat="43.71375588367846" lon="12.198814676820751"><ele>546.0</ele><time>2026-04-20T13:09:19Z</time></trkpt><trkpt lat="43.713665117310235" lon="12.198961490559972"><ele>546.0</ele><time>2026-04-20T13:09:20Z</time></trkpt><trkpt lat="43.71357587230402" lon="12.199111984760206"><ele>545.0</ele><time>2026-04-20T13:09:21Z</time></trkpt><trkpt lat="43.713490047943935" lon="12.19925787505436"><ele>544.0</ele><time>2026-04-20T13:09:22Z</time></trkpt><trkpt lat="43.71340546728092" lon="12.19940263814914"><ele>543.0</ele><time>2026-04-20T13:09:23Z</time></trkpt><trkpt lat="43.71332489526778" lon="12.19953957587488"><ele>542.0</ele><time>2026-04-20T13:09:24Z</time></trkpt><trkpt lat="43.71324647628651" lon="12.199664135655174"><ele>542.0</ele><time>2026-04-20T13:09:25Z</time></trkpt><trkpt lat="43.71317591121267" lon="12.199782436313823"><ele>542.0</ele><time>2026-04-20T13:09:26Z</time></trkpt><trkpt lat="43.71310312059431" lon="12.199882592158295"><ele>542.0</ele><time>2026-04-20T13:09:27Z</time></trkpt><trkpt lat="43.71302100270512" lon="12.199965761280122"><ele>542.0</ele><time>2026-04-20T13:09:28Z</time></trkpt><trkpt lat="43.71292446096875" lon="12.199997618380689"><ele>542.0</ele><time>2026-04-20T13:09:29Z</time></trkpt><trkpt lat="43.712826584164745" lon="12.200007792679628"><ele>541.4</ele><time>2026-04-20T13:09:30Z</time></trkpt><trkpt lat="43.71273043658654" lon="12.200029619541409"><ele>540.8000000000001</ele><time>2026-04-20T13:09:31Z</time></trkpt><trkpt lat="43.7126350182107" lon="12.200069527920558"><ele>540.2</ele><time>2026-04-20T13:09:32Z</time></trkpt><trkpt lat="43.712553912364044" lon="12.200139541450389"><ele>539.6</ele><time>2026-04-20T13:09:33Z</time></trkpt><trkpt lat="43.712493321208825" lon="12.20025345691019"><ele>539.0</ele><time>2026-04-20T13:09:34Z</time></trkpt><trkpt lat="43.712442091481634" lon="12.200389535158811"><ele>539.0</ele><time>2026-04-20T13:09:35Z</time></trkpt><trkpt lat="43.71238908607326" lon="12.200538899704702"><ele>539.0</ele><time>2026-04-20T13:09:36Z</time></trkpt><trkpt lat="43.71231754385924" lon="12.200678840747024"><ele>539.0</ele><time>2026-04-20T13:09:37Z</time></trkpt><trkpt lat="43.71227820566814" lon="12.200839824408495"><ele>539.0</ele><time>2026-04-20T13:09:38Z</time></trkpt><trkpt lat="43.712233606814706" lon="12.200984093339123"><ele>540.0</ele><time>2026-04-20T13:09:39Z</time></trkpt><trkpt lat="43.71220757027593" lon="12.201125288796515"><ele>541.0</ele><time>2026-04-20T13:09:40Z</time></trkpt><trkpt lat="43.71220919653143" lon="12.201263690377093"><ele>542.0</ele><time>2026-04-20T13:09:41Z</time></trkpt><trkpt lat="43.71224739012034" lon="12.201392577715218"><ele>543.0</ele><time>2026-04-20T13:09:42Z</time></trkpt><trkpt lat="43.712324020519006" lon="12.201501493338931"><ele>544.0</ele><time>2026-04-20T13:09:43Z</time></trkpt><trkpt lat="43.71242396540829" lon="12.201582258385361"><ele>544.0</ele><time>2026-04-20T13:09:44Z</time></trkpt><trkpt lat="43.71253720139589" lon="12.201635054412865"><ele>544.0</ele><time>2026-04-20T13:09:45Z</time></trkpt><trkpt lat="43.71265110875522" lon="12.201685557940548"><ele>544.0</ele><time>2026-04-20T13:09:46Z</time></trkpt><trkpt lat="43.71275713893601" lon="12.20177519699215"><ele>544.0</ele><time>2026-04-20T13:09:47Z</time></trkpt><trkpt lat="43.71286053358589" lon="12.201864470205967"><ele>545.2</ele><time>2026-04-20T13:09:48Z</time></trkpt><trkpt lat="43.71293805374524" lon="12.201986888222239"><ele>546.4</ele><time>2026-04-20T13:09:49Z</time></trkpt><trkpt lat="43.71298111006693" lon="12.202123340261423"><ele>547.6</ele><time>2026-04-20T13:09:50Z</time></trkpt><trkpt lat="43.71299208918476" lon="12.202257016359084"><ele>548.8</ele><time>2026-04-20T13:09:51Z</time></trkpt><trkpt lat="43.712981074843285" lon="12.202385168581722"><ele>550.0</ele><time>2026-04-20T13:09:52Z</time></trkpt><trkpt lat="43.712947343285805" lon="12.202491627001118"><ele>550.0</ele><time>2026-04-20T13:09:53Z</time></trkpt><trkpt lat="43.71287549360933" lon="12.202567336553958"><ele>550.0</ele><time>2026-04-20T13:09:54Z</time></trkpt><trkpt lat="43.712791963629265" lon="12.202601104289096"><ele>550.0</ele><time>2026-04-20T13:09:55Z</time></trkpt><trkpt lat="43.71270879396855" lon="12.202597541004414"><ele>550.0</ele><time>2026-04-20T13:09:56Z</time></trkpt><trkpt lat="43.71263366292492" lon="12.202559719397199"><ele>550.0</ele><time>2026-04-20T13:09:57Z</time></trkpt><trkpt lat="43.712564503692256" lon="12.202527328021388"><ele>550.0</ele><time>2026-04-20T13:09:58Z</time></trkpt><trkpt lat="43.7124441509789" lon="12.202487538620911"><ele>549.4</ele><time>2026-04-20T13:10:00Z</time></trkpt><trkpt lat="43.712376713136905" lon="12.202479016193605"><ele>548.8</ele><time>2026-04-20T13:10:01Z</time></trkpt><trkpt lat="43.712289727250635" lon="12.202474393197697"><ele>548.2</ele><time>2026-04-20T13:10:02Z</time></trkpt><trkpt lat="43.71220080152766" lon="12.202496747521906"><ele>547.6</ele><time>2026-04-20T13:10:03Z</time></trkpt><trkpt lat="43.712108981723865" lon="12.202553540843715"><ele>547.0</ele><time>2026-04-20T13:10:04Z</time></trkpt><trkpt lat="43.712020401248985" lon="12.202651828177299"><ele>547.0</ele><time>2026-04-20T13:10:05Z</time></trkpt><trkpt lat="43.71193461348562" lon="12.202781904738295"><ele>547.0</ele><time>2026-04-20T13:10:06Z</time></trkpt><trkpt lat="43.71185328542212" lon="12.202929688163854"><ele>547.0</ele><time>2026-04-20T13:10:07Z</time></trkpt><trkpt lat="43.711770001104426" lon="12.20308748298308"><ele>547.0</ele><time>2026-04-20T13:10:08Z</time></trkpt><trkpt lat="43.71169001962994" lon="12.203234583418778"><ele>548.25</ele><time>2026-04-20T13:10:09Z</time></trkpt><trkpt lat="43.71161843882194" lon="12.203375148665991"><ele>549.5</ele><time>2026-04-20T13:10:10Z</time></trkpt><trkpt lat="43.711568403939374" lon="12.203533590175596"><ele>550.75</ele><time>2026-04-20T13:10:11Z</time></trkpt><trkpt lat="43.71155282986938" lon="12.203711599579801"><ele>552.0</ele><time>2026-04-20T13:10:12Z</time></trkpt><trkpt lat="43.711532400666876" lon="12.20390429021098"><ele>553.3333333333334</ele><time>2026-04-20T13:10:13Z</time></trkpt><trkpt lat="43.71151589633059" lon="12.204110953716638"><ele>554.6666666666667</ele><time>2026-04-20T13:10:14Z</time></trkpt><trkpt lat="43.71151300238469" lon="12.204329824114048"><ele>556.0</ele><time>2026-04-20T13:10:15Z</time></trkpt><trkpt lat="43.711484864728455" lon="12.204549687868148"><ele>556.0</ele><time>2026-04-20T13:10:16Z</time></trkpt><trkpt lat="43.71147533654848" lon="12.20478410348154"><ele>556.0</ele><time>2026-04-20T13:10:17Z</time></trkpt><trkpt lat="43.71146351222966" lon="12.204994300417567"><ele>556.0</ele><time>2026-04-20T13:10:18Z</time></trkpt><trkpt lat="43.711427999284396" lon="12.205180442268233"><ele>557.75</ele><time>2026-04-20T13:10:19Z</time></trkpt><trkpt lat="43.711404646908875" lon="12.20535007149001"><ele>559.5</ele><time>2026-04-20T13:10:20Z</time></trkpt><trkpt lat="43.71132834135805" lon="12.205504477542226"><ele>561.25</ele><time>2026-04-20T13:10:21Z</time></trkpt><trkpt lat="43.71121608597025" lon="12.205646288885017"><ele>563.0</ele><time>2026-04-20T13:10:22Z</time></trkpt><trkpt lat="43.71109680414073" lon="12.205781642344231"><ele>564.25</ele><time>2026-04-20T13:10:23Z</time></trkpt><trkpt lat="43.710968102210096" lon="12.205900195937511"><ele>565.5</ele><time>2026-04-20T13:10:24Z</time></trkpt><trkpt lat="43.7108335578239" lon="12.205976152343732"><ele>566.75</ele><time>2026-04-20T13:10:25Z</time></trkpt><trkpt lat="43.710694499271185" lon="12.20599607946184"><ele>568.0</ele><time>2026-04-20T13:10:26Z</time></trkpt><trkpt lat="43.71056246850894" lon="12.205960823783327"><ele>568.0</ele><time>2026-04-20T13:10:27Z</time></trkpt><trkpt lat="43.710449831863244" lon="12.205936200312784"><ele>568.0</ele><time>2026-04-20T13:10:28Z</time></trkpt><trkpt lat="43.710363321542786" lon="12.205937161469576"><ele>568.0</ele><time>2026-04-20T13:10:29Z</time></trkpt><trkpt lat="43.71027386586768" lon="12.205990617741802"><ele>568.0</ele><time>2026-04-20T13:10:31Z</time></trkpt><trkpt lat="43.710319686793106" lon="12.20592093952116"><ele>568.0</ele><time>2026-04-20T13:10:36Z</time></trkpt><trkpt lat="43.71048193538794" lon="12.205970166193383"><ele>568.0</ele><time>2026-04-20T13:10:37Z</time></trkpt><trkpt lat="43.710559870762665" lon="12.205974420082336"><ele>568.0</ele><time>2026-04-20T13:10:38Z</time></trkpt><trkpt lat="43.71065903961381" lon="12.205983529809858"><ele>568.0</ele><time>2026-04-20T13:10:40Z</time></trkpt><trkpt lat="43.710679802957074" lon="12.205887667620068"><ele>568.0</ele><time>2026-04-20T13:10:42Z</time></trkpt><trkpt lat="43.7105940229912" lon="12.205797067943104"><ele>568.0</ele><time>2026-04-20T13:10:44Z</time></trkpt><trkpt lat="43.71052625873787" lon="12.205758281241113"><ele>568.0</ele><time>2026-04-20T13:10:45Z</time></trkpt><trkpt lat="43.710470148122354" lon="12.205709455325342"><ele>566.7142857142857</ele><time>2026-04-20T13:10:46Z</time></trkpt><trkpt lat="43.710411404121565" lon="12.205658815454353"><ele>565.4285714285713</ele><time>2026-04-20T13:10:47Z</time></trkpt><trkpt lat="43.71034983625067" lon="12.205603606841352"><ele>564.1428571428571</ele><time>2026-04-20T13:10:48Z</time></trkpt><trkpt lat="43.71029423426776" lon="12.205546497320753"><ele>562.8571428571429</ele><time>2026-04-20T13:10:49Z</time></trkpt><trkpt lat="43.710240072552544" lon="12.205488750561788"><ele>561.5714285714287</ele><time>2026-04-20T13:10:50Z</time></trkpt><trkpt lat="43.71018678180874" lon="12.205418533742593"><ele>560.2857142857143</ele><time>2026-04-20T13:10:51Z</time></trkpt><trkpt lat="43.71013952070502" lon="12.205331964502143"><ele>559.0</ele><time>2026-04-20T13:10:52Z</time></trkpt><trkpt lat="43.71010732146769" lon="12.205231972070187"><ele>559.0</ele><time>2026-04-20T13:10:53Z</time></trkpt><trkpt lat="43.71008356041026" lon="12.205118057470116"><ele>559.0</ele><time>2026-04-20T13:10:54Z</time></trkpt><trkpt lat="43.710068158154314" lon="12.204996356138071"><ele>559.0</ele><time>2026-04-20T13:10:55Z</time></trkpt><trkpt lat="43.710062555314856" lon="12.20487066178836"><ele>559.0</ele><time>2026-04-20T13:10:56Z</time></trkpt><trkpt lat="43.71005748243547" lon="12.204752630687072"><ele>559.0</ele><time>2026-04-20T13:10:57Z</time></trkpt><trkpt lat="43.71003985665187" lon="12.204645653644668"><ele>559.0</ele><time>2026-04-20T13:10:58Z</time></trkpt><trkpt lat="43.71000964414951" lon="12.204547199148314"><ele>557.8333333333334</ele><time>2026-04-20T13:10:59Z</time></trkpt><trkpt lat="43.70996906969105" lon="12.204470187196582"><ele>556.6666666666667</ele><time>2026-04-20T13:11:00Z</time></trkpt><trkpt lat="43.709863054932164" lon="12.204374813365499"><ele>555.5</ele><time>2026-04-20T13:11:02Z</time></trkpt><trkpt lat="43.709799653684755" lon="12.204344982385438"><ele>554.3333333333334</ele><time>2026-04-20T13:11:03Z</time></trkpt><trkpt lat="43.70973475517008" lon="12.204321270587332"><ele>553.1666666666666</ele><time>2026-04-20T13:11:04Z</time></trkpt><trkpt lat="43.709666746599005" lon="12.204299237324406"><ele>552.0</ele><time>2026-04-20T13:11:05Z</time></trkpt><trkpt lat="43.709587168870925" lon="12.204273800827131"><ele>552.0</ele><time>2026-04-20T13:11:06Z</time></trkpt><trkpt lat="43.70949793038638" lon="12.204239606275742"><ele>552.0</ele><time>2026-04-20T13:11:07Z</time></trkpt><trkpt lat="43.70940015503143" lon="12.204205091253169"><ele>552.0</ele><time>2026-04-20T13:11:08Z</time></trkpt><trkpt lat="43.709289375441564" lon="12.204161980922033"><ele>552.0</ele><time>2026-04-20T13:11:09Z</time></trkpt><trkpt lat="43.709171678287305" lon="12.204116156729501"><ele>552.0</ele><time>2026-04-20T13:11:10Z</time></trkpt><trkpt lat="43.70905306302107" lon="12.204070910806855"><ele>551.75</ele><time>2026-04-20T13:11:11Z</time></trkpt><trkpt lat="43.70893101720238" lon="12.204023620340958"><ele>551.5</ele><time>2026-04-20T13:11:12Z</time></trkpt><trkpt lat="43.70880722357789" lon="12.203978179771548"><ele>551.25</ele><time>2026-04-20T13:11:13Z</time></trkpt><trkpt lat="43.708681137351334" lon="12.203934093819997"><ele>551.0</ele><time>2026-04-20T13:11:14Z</time></trkpt><trkpt lat="43.70855752408121" lon="12.203887410427974"><ele>549.4</ele><time>2026-04-20T13:11:15Z</time></trkpt><trkpt lat="43.70843934822586" lon="12.203841946000786"><ele>547.8</ele><time>2026-04-20T13:11:16Z</time></trkpt><trkpt lat="43.70832643873187" lon="12.203798926564918"><ele>546.1999999999999</ele><time>2026-04-20T13:11:17Z</time></trkpt><trkpt lat="43.70822082699065" lon="12.203766993528156"><ele>544.6</ele><time>2026-04-20T13:11:18Z</time></trkpt><trkpt lat="43.70812152268054" lon="12.203758539451396"><ele>543.0</ele><time>2026-04-20T13:11:19Z</time></trkpt><trkpt lat="43.70802448634148" lon="12.20377777695962"><ele>543.0</ele><time>2026-04-20T13:11:20Z</time></trkpt><trkpt lat="43.70793315835984" lon="12.203833412374935"><ele>543.0</ele><time>2026-04-20T13:11:21Z</time></trkpt><trkpt lat="43.70785840252327" lon="12.203925635365223"><ele>543.0</ele><time>2026-04-20T13:11:22Z</time></trkpt><trkpt lat="43.707786906918145" lon="12.204026740064984"><ele>543.0</ele><time>2026-04-20T13:11:23Z</time></trkpt><trkpt lat="43.707705376523755" lon="12.204127823756469"><ele>543.0</ele><time>2026-04-20T13:11:24Z</time></trkpt><trkpt lat="43.70761545193075" lon="12.20422305081013"><ele>542.6</ele><time>2026-04-20T13:11:25Z</time></trkpt><trkpt lat="43.707504798167705" lon="12.204250431246368"><ele>542.1999999999999</ele><time>2026-04-20T13:11:26Z</time></trkpt><trkpt lat="43.70739650565275" lon="12.2042309490212"><ele>541.8</ele><time>2026-04-20T13:11:27Z</time></trkpt><trkpt lat="43.707308075612985" lon="12.204186582436868"><ele>541.4</ele><time>2026-04-20T13:11:28Z</time></trkpt><trkpt lat="43.70723315294196" lon="12.20414739532368"><ele>541.0</ele><time>2026-04-20T13:11:29Z</time></trkpt><trkpt lat="43.7071858813822" lon="12.204077799178837"><ele>540.8</ele><time>2026-04-20T13:11:30Z</time></trkpt><trkpt lat="43.707175384797075" lon="12.203988564301504"><ele>540.6</ele><time>2026-04-20T13:11:31Z</time></trkpt><trkpt lat="43.707217785115375" lon="12.203817970185096"><ele>540.4</ele><time>2026-04-20T13:11:33Z</time></trkpt><trkpt lat="43.70724892075601" lon="12.203713837279812"><ele>540.2</ele><time>2026-04-20T13:11:34Z</time></trkpt><trkpt lat="43.7072386258169" lon="12.203579652265404"><ele>540.0</ele><time>2026-04-20T13:11:35Z</time></trkpt><trkpt lat="43.707233225920085" lon="12.203454670646703"><ele>540.0</ele><time>2026-04-20T13:11:36Z</time></trkpt><trkpt lat="43.707213792564275" lon="12.20333427522983"><ele>540.0</ele><time>2026-04-20T13:11:37Z</time></trkpt><trkpt lat="43.70717292551643" lon="12.203227218961443"><ele>540.0</ele><time>2026-04-20T13:11:38Z</time></trkpt><trkpt lat="43.70711071912403" lon="12.203115617390427"><ele>540.0</ele><time>2026-04-20T13:11:39Z</time></trkpt><trkpt lat="43.70704490707208" lon="12.203006537057275"><ele>540.0</ele><time>2026-04-20T13:11:40Z</time></trkpt><trkpt lat="43.70700345197405" lon="12.202856328264588"><ele>539.5</ele><time>2026-04-20T13:11:41Z</time></trkpt><trkpt lat="43.70694779105186" lon="12.20270741420776"><ele>539.0</ele><time>2026-04-20T13:11:42Z</time></trkpt><trkpt lat="43.706890969146336" lon="12.202553085528637"><ele>538.5</ele><time>2026-04-20T13:11:43Z</time></trkpt><trkpt lat="43.7068251830901" lon="12.202412799266032"><ele>538.0</ele><time>2026-04-20T13:11:44Z</time></trkpt><trkpt lat="43.70677576849348" lon="12.202256771607559"><ele>539.75</ele><time>2026-04-20T13:11:45Z</time></trkpt><trkpt lat="43.70672168380211" lon="12.202099682446716"><ele>541.5</ele><time>2026-04-20T13:11:46Z</time></trkpt><trkpt lat="43.70666473676196" lon="12.20193779253937"><ele>543.25</ele><time>2026-04-20T13:11:47Z</time></trkpt><trkpt lat="43.70660524052635" lon="12.201774187480483"><ele>545.0</ele><time>2026-04-20T13:11:48Z</time></trkpt><trkpt lat="43.7065479731004" lon="12.201606692744688"><ele>543.75</ele><time>2026-04-20T13:11:49Z</time></trkpt><trkpt lat="43.70649240169573" lon="12.201437184924742"><ele>542.5</ele><time>2026-04-20T13:11:50Z</time></trkpt><trkpt lat="43.706438690228424" lon="12.201271022520608"><ele>541.25</ele><time>2026-04-20T13:11:51Z</time></trkpt><trkpt lat="43.70638300401633" lon="12.201110731127407"><ele>540.0</ele><time>2026-04-20T13:11:52Z</time></trkpt><trkpt lat="43.70631207840786" lon="12.200970806432673"><ele>540.0</ele><time>2026-04-20T13:11:53Z</time></trkpt><trkpt lat="43.70622057522542" lon="12.20085581656076"><ele>540.0</ele><time>2026-04-20T13:11:54Z</time></trkpt><trkpt lat="43.70610630234979" lon="12.20076887959612"><ele>540.0</ele><time>2026-04-20T13:11:55Z</time></trkpt><trkpt lat="43.705977767856076" lon="12.200694382555081"><ele>540.0</ele><time>2026-04-20T13:11:56Z</time></trkpt><trkpt lat="43.70584263708875" lon="12.200620131298535"><ele>541.75</ele><time>2026-04-20T13:11:57Z</time></trkpt><trkpt lat="43.705708701759605" lon="12.20053385135978"><ele>543.5</ele><time>2026-04-20T13:11:58Z</time></trkpt><trkpt lat="43.70558524607331" lon="12.200437861674198"><ele>545.25</ele><time>2026-04-20T13:11:59Z</time></trkpt><trkpt lat="43.70545545779985" lon="12.20034554196465"><ele>547.0</ele><time>2026-04-20T13:12:00Z</time></trkpt><trkpt lat="43.705313367286415" lon="12.20027296316022"><ele>547.4</ele><time>2026-04-20T13:12:01Z</time></trkpt><trkpt lat="43.705169696293495" lon="12.200227848271089"><ele>547.8000000000001</ele><time>2026-04-20T13:12:02Z</time></trkpt><trkpt lat="43.70505424242376" lon="12.200209689030958"><ele>548.2</ele><time>2026-04-20T13:12:03Z</time></trkpt><trkpt lat="43.70497260892647" lon="12.200221429690403"><ele>548.6</ele><time>2026-04-20T13:12:04Z</time></trkpt><trkpt lat="43.70489107050588" lon="12.200260193298197"><ele>549.0</ele><time>2026-04-20T13:12:05Z</time></trkpt><trkpt lat="43.704807532038195" lon="12.200313984579203"><ele>549.0</ele><time>2026-04-20T13:12:06Z</time></trkpt><trkpt lat="43.704699460689206" lon="12.200361954818868"><ele>549.0</ele><time>2026-04-20T13:12:07Z</time></trkpt><trkpt lat="43.70457907570853" lon="12.200378040790461"><ele>549.0</ele><time>2026-04-20T13:12:08Z</time></trkpt><trkpt lat="43.7044537459685" lon="12.200418625627975"><ele>549.0</ele><time>2026-04-20T13:12:09Z</time></trkpt><trkpt lat="43.70432133114915" lon="12.200461504787873"><ele>550.5</ele><time>2026-04-20T13:12:10Z</time></trkpt><trkpt lat="43.70419077583775" lon="12.20050765297207"><ele>552.0</ele><time>2026-04-20T13:12:11Z</time></trkpt><trkpt lat="43.70405696720619" lon="12.200568308829222"><ele>553.5</ele><time>2026-04-20T13:12:12Z</time></trkpt><trkpt lat="43.70390799985921" lon="12.200580774550692"><ele>555.0</ele><time>2026-04-20T13:12:13Z</time></trkpt><trkpt lat="43.703759684241845" lon="12.200561358442425"><ele>555.0</ele><time>2026-04-20T13:12:14Z</time></trkpt><trkpt lat="43.70360547310798" lon="12.200509393310066"><ele>555.0</ele><time>2026-04-20T13:12:15Z</time></trkpt><trkpt lat="43.703457007927526" lon="12.200460080106335"><ele>555.0</ele><time>2026-04-20T13:12:16Z</time></trkpt><trkpt lat="43.70329721600388" lon="12.200409608008265"><ele>557.6666666666666</ele><time>2026-04-20T13:12:17Z</time></trkpt><trkpt lat="43.703125874908174" lon="12.200359341876128"><ele>560.3333333333333</ele><time>2026-04-20T13:12:18Z</time></trkpt><trkpt lat="43.70296997183762" lon="12.200285204593326"><ele>563.0</ele><time>2026-04-20T13:12:19Z</time></trkpt><trkpt lat="43.702813550076996" lon="12.20023561559362"><ele>567.5</ele><time>2026-04-20T13:12:20Z</time></trkpt><trkpt lat="43.702672558152834" lon="12.200209012778574"><ele>572.0</ele><time>2026-04-20T13:12:21Z</time></trkpt><trkpt lat="43.7025563699197" lon="12.200125515117877"><ele>576.5</ele><time>2026-04-20T13:12:22Z</time></trkpt><trkpt lat="43.70244892844103" lon="12.200001708689168"><ele>581.0</ele><time>2026-04-20T13:12:23Z</time></trkpt><trkpt lat="43.70234715811276" lon="12.199847688897739"><ele>576.75</ele><time>2026-04-20T13:12:24Z</time></trkpt><trkpt lat="43.702247526901324" lon="12.199691557629858"><ele>572.5</ele><time>2026-04-20T13:12:25Z</time></trkpt><trkpt lat="43.70215943382275" lon="12.199550773561862"><ele>568.25</ele><time>2026-04-20T13:12:26Z</time></trkpt><trkpt lat="43.70206234049296" lon="12.199450552266324"><ele>564.0</ele><time>2026-04-20T13:12:27Z</time></trkpt><trkpt lat="43.7019472663191" lon="12.199390904957115"><ele>566.5</ele><time>2026-04-20T13:12:28Z</time></trkpt><trkpt lat="43.70182098598097" lon="12.199343683340121"><ele>569.0</ele><time>2026-04-20T13:12:29Z</time></trkpt><trkpt lat="43.70170421827664" lon="12.199322711975839"><ele>571.5</ele><time>2026-04-20T13:12:30Z</time></trkpt><trkpt lat="43.70159678215684" lon="12.199324510910152"><ele>574.0</ele><time>2026-04-20T13:12:31Z</time></trkpt><trkpt lat="43.70150924146512" lon="12.199375165567899"><ele>574.0</ele><time>2026-04-20T13:12:32Z</time></trkpt><trkpt lat="43.70143403742885" lon="12.199466722704527"><ele>574.0</ele><time>2026-04-20T13:12:33Z</time></trkpt><trkpt lat="43.70138164678067" lon="12.199595894435058"><ele>574.0</ele><time>2026-04-20T13:12:34Z</time></trkpt><trkpt lat="43.701348316049724" lon="12.199765630366548"><ele>574.0</ele><time>2026-04-20T13:12:35Z</time></trkpt><trkpt lat="43.70132994280172" lon="12.199958837516947"><ele>579.6666666666667</ele><time>2026-04-20T13:12:36Z</time></trkpt><trkpt lat="43.70128331615313" lon="12.200168642124055"><ele>585.3333333333334</ele><time>2026-04-20T13:12:37Z</time></trkpt><trkpt lat="43.70124968185207" lon="12.20038728402926"><ele>591.0</ele><time>2026-04-20T13:12:38Z</time></trkpt><trkpt lat="43.70119569126909" lon="12.200580444734998"><ele>592.5</ele><time>2026-04-20T13:12:39Z</time></trkpt><trkpt lat="43.70113517126473" lon="12.200730502528152"><ele>594.0</ele><time>2026-04-20T13:12:40Z</time></trkpt><trkpt lat="43.701067848853036" lon="12.200858506033423"><ele>595.5</ele><time>2026-04-20T13:12:41Z</time></trkpt><trkpt lat="43.700953067254936" lon="12.20089892270913"><ele>597.0</ele><time>2026-04-20T13:12:42Z</time></trkpt><trkpt lat="43.70082749896465" lon="12.200958773308626"><ele>597.0</ele><time>2026-04-20T13:12:43Z</time></trkpt><trkpt lat="43.70070150211717" lon="12.20105612384134"><ele>597.0</ele><time>2026-04-20T13:12:44Z</time></trkpt><trkpt lat="43.70056855694732" lon="12.201161744508347"><ele>597.0</ele><time>2026-04-20T13:12:45Z</time></trkpt><trkpt lat="43.700445384015524" lon="12.201279628349418"><ele>597.0</ele><time>2026-04-20T13:12:46Z</time></trkpt><trkpt lat="43.70032066731618" lon="12.201400761781501"><ele>602.0</ele><time>2026-04-20T13:12:47Z</time></trkpt><trkpt lat="43.700191093257445" lon="12.20152558540587"><ele>607.0</ele><time>2026-04-20T13:12:48Z</time></trkpt><trkpt lat="43.700062686776384" lon="12.201641284715215"><ele>612.0</ele><time>2026-04-20T13:12:49Z</time></trkpt><trkpt lat="43.69993053805715" lon="12.201699762158547"><ele>612.0</ele><time>2026-04-20T13:12:50Z</time></trkpt><trkpt lat="43.69980084244023" lon="12.201725778938105"><ele>612.0</ele><time>2026-04-20T13:12:51Z</time></trkpt><trkpt lat="43.6996565229431" lon="12.201697444420377"><ele>612.0</ele><time>2026-04-20T13:12:52Z</time></trkpt><trkpt lat="43.69949216457154" lon="12.201687840196339"><ele>612.0</ele><time>2026-04-20T13:12:53Z</time></trkpt><trkpt lat="43.6993400830236" lon="12.201654023459302"><ele>612.5</ele><time>2026-04-20T13:12:54Z</time></trkpt><trkpt lat="43.699204981789194" lon="12.201635118861523"><ele>613.0</ele><time>2026-04-20T13:12:55Z</time></trkpt><trkpt lat="43.69908646718893" lon="12.201621210195329"><ele>613.5</ele><time>2026-04-20T13:12:56Z</time></trkpt><trkpt lat="43.69898545106948" lon="12.201620029394572"><ele>614.0</ele><time>2026-04-20T13:12:57Z</time></trkpt><trkpt lat="43.69889072445104" lon="12.201642414382128"><ele>614.0</ele><time>2026-04-20T13:12:58Z</time></trkpt><trkpt lat="43.69880598718229" lon="12.201676256841697"><ele>614.0</ele><time>2026-04-20T13:12:59Z</time></trkpt><trkpt lat="43.69867583640925" lon="12.20169809159188"><ele>614.0</ele><time>2026-04-20T13:13:00Z</time></trkpt><trkpt lat="43.6986433823776" lon="12.201917210626167"><ele>614.0</ele><time>2026-04-20T13:13:01Z</time></trkpt><trkpt lat="43.69857876903083" lon="12.202091167876349"><ele>612.6666666666666</ele><time>2026-04-20T13:13:02Z</time></trkpt><trkpt lat="43.69850852008148" lon="12.202282963535733"><ele>611.3333333333334</ele><time>2026-04-20T13:13:03Z</time></trkpt><trkpt lat="43.698430957547494" lon="12.20248794793065"><ele>610.0</ele><time>2026-04-20T13:13:04Z</time></trkpt><trkpt lat="43.69835583697369" lon="12.202692482547599"><ele>613.3333333333334</ele><time>2026-04-20T13:13:05Z</time></trkpt><trkpt lat="43.69827641035001" lon="12.202892278363347"><ele>616.6666666666666</ele><time>2026-04-20T13:13:06Z</time></trkpt><trkpt lat="43.69818978299187" lon="12.2030997833084"><ele>620.0</ele><time>2026-04-20T13:13:07Z</time></trkpt><trkpt lat="43.69810629588464" lon="12.20330423658013"><ele>623.0</ele><time>2026-04-20T13:13:08Z</time></trkpt><trkpt lat="43.698011829831586" lon="12.203515965789894"><ele>626.0</ele><time>2026-04-20T13:13:09Z</time></trkpt><trkpt lat="43.69789594295779" lon="12.20371113652072"><ele>629.0</ele><time>2026-04-20T13:13:10Z</time></trkpt><trkpt lat="43.69779988402462" lon="12.203923981050721"><ele>630.0</ele><time>2026-04-20T13:13:11Z</time></trkpt><trkpt lat="43.69768797501328" lon="12.204119723445105"><ele>631.0</ele><time>2026-04-20T13:13:12Z</time></trkpt><trkpt lat="43.697581854461106" lon="12.204318598412344"><ele>632.0</ele><time>2026-04-20T13:13:13Z</time></trkpt><trkpt lat="43.697485358766244" lon="12.20451147183586"><ele>632.0</ele><time>2026-04-20T13:13:14Z</time></trkpt><trkpt lat="43.697377495756115" lon="12.204696587241394"><ele>632.0</ele><time>2026-04-20T13:13:15Z</time></trkpt><trkpt lat="43.69727837818962" lon="12.20490054777969"><ele>632.0</ele><time>2026-04-20T13:13:16Z</time></trkpt><trkpt lat="43.69717587545161" lon="12.205088711445981"><ele>635.6666666666666</ele><time>2026-04-20T13:13:17Z</time></trkpt><trkpt lat="43.69707839000319" lon="12.205277773862509"><ele>639.3333333333334</ele><time>2026-04-20T13:13:18Z</time></trkpt><trkpt lat="43.69701229749053" lon="12.2054742586639"><ele>643.0</ele><time>2026-04-20T13:13:19Z</time></trkpt><trkpt lat="43.696942395541384" lon="12.205666945090739"><ele>641.3333333333334</ele><time>2026-04-20T13:13:20Z</time></trkpt><trkpt lat="43.69689554293003" lon="12.205875166761645"><ele>639.6666666666666</ele><time>2026-04-20T13:13:21Z</time></trkpt><trkpt lat="43.69686379681289" lon="12.206108287276601"><ele>638.0</ele><time>2026-04-20T13:13:22Z</time></trkpt><trkpt lat="43.696809811129924" lon="12.206343083655275"><ele>640.6666666666666</ele><time>2026-04-20T13:13:23Z</time></trkpt><trkpt lat="43.69676879161142" lon="12.20657143102303"><ele>643.3333333333334</ele><time>2026-04-20T13:13:24Z</time></trkpt><trkpt lat="43.69672489386579" lon="12.206813354876275"><ele>646.0</ele><time>2026-04-20T13:13:25Z</time></trkpt><trkpt lat="43.69668180455196" lon="12.207049487122147"><ele>646.0</ele><time>2026-04-20T13:13:26Z</time></trkpt><trkpt lat="43.696670215736106" lon="12.207298593310384"><ele>646.0</ele><time>2026-04-20T13:13:27Z</time></trkpt><trkpt lat="43.696657879757005" lon="12.20753169138041"><ele>646.0</ele><time>2026-04-20T13:13:28Z</time></trkpt><trkpt lat="43.696622099958184" lon="12.20776487670748"><ele>649.0</ele><time>2026-04-20T13:13:29Z</time></trkpt><trkpt lat="43.69656872891618" lon="12.207973915722002"><ele>652.0</ele><time>2026-04-20T13:13:30Z</time></trkpt><trkpt lat="43.69649888181309" lon="12.208174559422876"><ele>655.0</ele><time>2026-04-20T13:13:31Z</time></trkpt><trkpt lat="43.696418061938125" lon="12.208366549864971"><ele>659.3333333333334</ele><time>2026-04-20T13:13:32Z</time></trkpt><trkpt lat="43.69633139369349" lon="12.20856146890402"><ele>663.6666666666666</ele><time>2026-04-20T13:13:33Z</time></trkpt><trkpt lat="43.69626323303462" lon="12.2087608403964"><ele>668.0</ele><time>2026-04-20T13:13:34Z</time></trkpt><trkpt lat="43.696182905084335" lon="12.208958074035037"><ele>663.3333333333333</ele><time>2026-04-20T13:13:35Z</time></trkpt><trkpt lat="43.69612053428312" lon="12.2091618940945"><ele>658.6666666666666</ele><time>2026-04-20T13:13:36Z</time></trkpt><trkpt lat="43.69608482091133" lon="12.209378853813382"><ele>654.0</ele><time>2026-04-20T13:13:37Z</time></trkpt><trkpt lat="43.69607159296567" lon="12.209598523758457"><ele>657.6666666666666</ele><time>2026-04-20T13:13:38Z</time></trkpt><trkpt lat="43.69606644822537" lon="12.209826572746776"><ele>661.3333333333333</ele><time>2026-04-20T13:13:39Z</time></trkpt><trkpt lat="43.69603798805866" lon="12.21004369777742"><ele>665.0</ele><time>2026-04-20T13:13:40Z</time></trkpt><trkpt lat="43.696017508662685" lon="12.210241711589564"><ele>665.0</ele><time>2026-04-20T13:13:41Z</time></trkpt><trkpt lat="43.69597297750641" lon="12.210409873968432"><ele>665.0</ele><time>2026-04-20T13:13:42Z</time></trkpt><trkpt lat="43.69589205193402" lon="12.210540823780782"><ele>665.0</ele><time>2026-04-20T13:13:43Z</time></trkpt><trkpt lat="43.69578646759034" lon="12.210659743128163"><ele>665.0</ele><time>2026-04-20T13:13:44Z</time></trkpt><trkpt lat="43.69568238973215" lon="12.210804757982194"><ele>669.0</ele><time>2026-04-20T13:13:45Z</time></trkpt><trkpt lat="43.69558460836449" lon="12.21091911848963"><ele>673.0</ele><time>2026-04-20T13:13:46Z</time></trkpt><trkpt lat="43.69553461038152" lon="12.21104658448383"><ele>677.0</ele><time>2026-04-20T13:13:47Z</time></trkpt><trkpt lat="43.69552262761739" lon="12.211195461817736"><ele>681.0</ele><time>2026-04-20T13:13:48Z</time></trkpt><trkpt lat="43.69550743385565" lon="12.211361640988526"><ele>685.25</ele><time>2026-04-20T13:13:49Z</time></trkpt><trkpt lat="43.695495061454324" lon="12.21153987051605"><ele>689.5</ele><time>2026-04-20T13:13:50Z</time></trkpt><trkpt lat="43.69545565827519" lon="12.211702492246987"><ele>693.75</ele><time>2026-04-20T13:13:51Z</time></trkpt><trkpt lat="43.695381854182656" lon="12.21187384467"><ele>698.0</ele><time>2026-04-20T13:13:52Z</time></trkpt><trkpt lat="43.69528039069462" lon="12.212060461941618"><ele>692.6666666666666</ele><time>2026-04-20T13:13:53Z</time></trkpt><trkpt lat="43.69518909155024" lon="12.212256208806314"><ele>687.3333333333334</ele><time>2026-04-20T13:13:54Z</time></trkpt><trkpt lat="43.69509402021006" lon="12.21241987217873"><ele>682.0</ele><time>2026-04-20T13:13:55Z</time></trkpt><trkpt lat="43.69502589637824" lon="12.21258828496148"><ele>682.0</ele><time>2026-04-20T13:13:56Z</time></trkpt><trkpt lat="43.69498126810567" lon="12.212764684386457"><ele>682.0</ele><time>2026-04-20T13:13:57Z</time></trkpt><trkpt lat="43.69495984157998" lon="12.212938800278959"><ele>682.0</ele><time>2026-04-20T13:13:58Z</time></trkpt><trkpt lat="43.69497858738648" lon="12.213117670535732"><ele>682.0</ele><time>2026-04-20T13:13:59Z</time></trkpt><trkpt lat="43.69499411445574" lon="12.213323813072455"><ele>684.6666666666667</ele><time>2026-04-20T13:14:00Z</time></trkpt><trkpt lat="43.694996351098744" lon="12.213551852077998"><ele>687.3333333333334</ele><time>2026-04-20T13:14:01Z</time></trkpt><trkpt lat="43.694938012430164" lon="12.213744069057258"><ele>690.0</ele><time>2026-04-20T13:14:02Z</time></trkpt><trkpt lat="43.694858640435676" lon="12.213982587776044"><ele>693.0</ele><time>2026-04-20T13:14:03Z</time></trkpt><trkpt lat="43.694818007940235" lon="12.214232889947734"><ele>696.0</ele><time>2026-04-20T13:14:04Z</time></trkpt><trkpt lat="43.69478629380872" lon="12.214446896279298"><ele>699.0</ele><time>2026-04-20T13:14:05Z</time></trkpt><trkpt lat="43.69477262549173" lon="12.21464068413391"><ele>703.0</ele><time>2026-04-20T13:14:06Z</time></trkpt><trkpt lat="43.694779496002305" lon="12.214834382041404"><ele>707.0</ele><time>2026-04-20T13:14:07Z</time></trkpt><trkpt lat="43.694766760465626" lon="12.215047911082221"><ele>711.0</ele><time>2026-04-20T13:14:08Z</time></trkpt><trkpt lat="43.69476444570956" lon="12.215267267035212"><ele>711.0</ele><time>2026-04-20T13:14:09Z</time></trkpt><trkpt lat="43.69475182303161" lon="12.215474071864836"><ele>711.0</ele><time>2026-04-20T13:14:10Z</time></trkpt><trkpt lat="43.69473964686261" lon="12.21564005981567"><ele>711.0</ele><time>2026-04-20T13:14:11Z</time></trkpt><trkpt lat="43.69468910697951" lon="12.215778280929193"><ele>711.0</ele><time>2026-04-20T13:14:12Z</time></trkpt><trkpt lat="43.69460496252226" lon="12.215867582054067"><ele>712.75</ele><time>2026-04-20T13:14:13Z</time></trkpt><trkpt lat="43.69451123273293" lon="12.21595703280539"><ele>714.5</ele><time>2026-04-20T13:14:14Z</time></trkpt><trkpt lat="43.69441028035097" lon="12.216059372781258"><ele>716.25</ele><time>2026-04-20T13:14:15Z</time></trkpt><trkpt lat="43.69430952948666" lon="12.216184901131868"><ele>718.0</ele><time>2026-04-20T13:14:16Z</time></trkpt><trkpt lat="43.69424850361301" lon="12.21636664729982"><ele>713.3333333333334</ele><time>2026-04-20T13:14:17Z</time></trkpt><trkpt lat="43.69419303792895" lon="12.216563524401417"><ele>708.6666666666666</ele><time>2026-04-20T13:14:18Z</time></trkpt><trkpt lat="43.69415197517427" lon="12.216784722993921"><ele>704.0</ele><time>2026-04-20T13:14:19Z</time></trkpt><trkpt lat="43.694088979480405" lon="12.217012703437808"><ele>704.0</ele><time>2026-04-20T13:14:20Z</time></trkpt><trkpt lat="43.6940420865429" lon="12.217257461963984"><ele>704.0</ele><time>2026-04-20T13:14:21Z</time></trkpt><trkpt lat="43.69399373497981" lon="12.217513778376325"><ele>704.0</ele><time>2026-04-20T13:14:22Z</time></trkpt><trkpt lat="43.69393979329473" lon="12.21777592394537"><ele>704.6666666666666</ele><time>2026-04-20T13:14:23Z</time></trkpt><trkpt lat="43.693883060118424" lon="12.218039654471012"><ele>705.3333333333334</ele><time>2026-04-20T13:14:24Z</time></trkpt><trkpt lat="43.69382486296895" lon="12.218295793245193"><ele>706.0</ele><time>2026-04-20T13:14:25Z</time></trkpt><trkpt lat="43.69376563394736" lon="12.218547341059777"><ele>706.3333333333334</ele><time>2026-04-20T13:14:26Z</time></trkpt><trkpt lat="43.693705624567045" lon="12.218793119934904"><ele>706.6666666666666</ele><time>2026-04-20T13:14:27Z</time></trkpt><trkpt lat="43.69364806198505" lon="12.219025041737718"><ele>707.0</ele><time>2026-04-20T13:14:28Z</time></trkpt><trkpt lat="43.69359252050914" lon="12.219235678267754"><ele>707.75</ele><time>2026-04-20T13:14:29Z</time></trkpt><trkpt lat="43.69354640028768" lon="12.219420914989714"><ele>708.5</ele><time>2026-04-20T13:14:30Z</time></trkpt><trkpt lat="43.6935135761084" lon="12.219591177965782"><ele>709.25</ele><time>2026-04-20T13:14:31Z</time></trkpt><trkpt lat="43.69348657452594" lon="12.219754347350763"><ele>710.0</ele><time>2026-04-20T13:14:32Z</time></trkpt><trkpt lat="43.69345968631751" lon="12.219917421422197"><ele>710.0</ele><time>2026-04-20T13:14:33Z</time></trkpt><trkpt lat="43.69343248746761" lon="12.22008727624519"><ele>710.0</ele><time>2026-04-20T13:14:34Z</time></trkpt><trkpt lat="43.69340343131257" lon="12.220253752373829"><ele>710.0</ele><time>2026-04-20T13:14:35Z</time></trkpt><trkpt lat="43.69335706743295" lon="12.220418008364033"><ele>710.0</ele><time>2026-04-20T13:14:36Z</time></trkpt><trkpt lat="43.693280639590235" lon="12.220554170529109"><ele>712.2</ele><time>2026-04-20T13:14:37Z</time></trkpt><trkpt lat="43.693193009391145" lon="12.220665424569136"><ele>714.4</ele><time>2026-04-20T13:14:38Z</time></trkpt><trkpt lat="43.69311974436131" lon="12.220781116006536"><ele>716.5999999999999</ele><time>2026-04-20T13:14:39Z</time></trkpt><trkpt lat="43.69304778808827" lon="12.220856261203334"><ele>718.8</ele><time>2026-04-20T13:14:40Z</time></trkpt><trkpt lat="43.693000381749734" lon="12.22091909105584"><ele>721.0</ele><time>2026-04-20T13:14:41Z</time></trkpt><trkpt lat="43.692943791820014" lon="12.221003966624004"><ele>721.0</ele><time>2026-04-20T13:14:43Z</time></trkpt><trkpt lat="43.69289419429156" lon="12.221146098110044"><ele>721.0</ele><time>2026-04-20T13:19:54Z</time></trkpt><trkpt lat="43.692869717913446" lon="12.22123435200221"><ele>721.0</ele><time>2026-04-20T13:19:55Z</time></trkpt><trkpt lat="43.69282018840837" lon="12.221327993584618"><ele>721.0</ele><time>2026-04-20T13:19:56Z</time></trkpt><trkpt lat="43.69280130465647" lon="12.221420244487092"><ele>721.0</ele><time>2026-04-20T13:19:57Z</time></trkpt><trkpt lat="43.69277035294133" lon="12.221509937762606"><ele>721.0</ele><time>2026-04-20T13:19:58Z</time></trkpt><trkpt lat="43.692731774649836" lon="12.221615060890416"><ele>720.0</ele><time>2026-04-20T13:19:59Z</time></trkpt><trkpt lat="43.6926861267739" lon="12.221735427602992"><ele>719.0</ele><time>2026-04-20T13:20:00Z</time></trkpt><trkpt lat="43.69263584577329" lon="12.22187101250754"><ele>718.0</ele><time>2026-04-20T13:20:01Z</time></trkpt><trkpt lat="43.69257939840865" lon="12.22202281324501"><ele>717.0</ele><time>2026-04-20T13:20:02Z</time></trkpt><trkpt lat="43.692524476048874" lon="12.22216104457269"><ele>716.0</ele><time>2026-04-20T13:20:03Z</time></trkpt><trkpt lat="43.692470629533084" lon="12.222264069510974"><ele>719.75</ele><time>2026-04-20T13:20:04Z</time></trkpt><trkpt lat="43.692422080248" lon="12.22239413011876"><ele>723.5</ele><time>2026-04-20T13:20:05Z</time></trkpt><trkpt lat="43.69236823224729" lon="12.222537617577496"><ele>727.25</ele><time>2026-04-20T13:20:06Z</time></trkpt><trkpt lat="43.692309772958474" lon="12.222693392512236"><ele>731.0</ele><time>2026-04-20T13:20:07Z</time></trkpt><trkpt lat="43.692245297520564" lon="12.222857974381784"><ele>731.0</ele><time>2026-04-20T13:20:08Z</time></trkpt><trkpt lat="43.69217771595487" lon="12.223030455039563"><ele>731.0</ele><time>2026-04-20T13:20:09Z</time></trkpt><trkpt lat="43.692108732412535" lon="12.223208087740144"><ele>731.0</ele><time>2026-04-20T13:20:10Z</time></trkpt><trkpt lat="43.692057455227484" lon="12.223381953448177"><ele>731.0</ele><time>2026-04-20T13:20:11Z</time></trkpt><trkpt lat="43.69200834399853" lon="12.223533966183057"><ele>729.0</ele><time>2026-04-20T13:20:12Z</time></trkpt><trkpt lat="43.69197012333546" lon="12.223688877010922"><ele>727.0</ele><time>2026-04-20T13:20:13Z</time></trkpt><trkpt lat="43.691939994653694" lon="12.223862159494605"><ele>725.0</ele><time>2026-04-20T13:20:14Z</time></trkpt><trkpt lat="43.691906706155116" lon="12.224045837910902"><ele>723.0</ele><time>2026-04-20T13:20:15Z</time></trkpt><trkpt lat="43.69190447920334" lon="12.224239861995594"><ele>731.6666666666666</ele><time>2026-04-20T13:20:16Z</time></trkpt><trkpt lat="43.69193067708103" lon="12.224440757200693"><ele>740.3333333333333</ele><time>2026-04-20T13:20:17Z</time></trkpt><trkpt lat="43.6919438912654" lon="12.224651821442261"><ele>749.0</ele><time>2026-04-20T13:20:18Z</time></trkpt><trkpt lat="43.69196245766245" lon="12.224861779078198"><ele>749.0</ele><time>2026-04-20T13:20:19Z</time></trkpt><trkpt lat="43.69195951478308" lon="12.225052037824138"><ele>749.0</ele><time>2026-04-20T13:20:20Z</time></trkpt><trkpt lat="43.691970154587615" lon="12.225245823752294"><ele>749.0</ele><time>2026-04-20T13:20:21Z</time></trkpt><trkpt lat="43.6919812793269" lon="12.225448441911425"><ele>749.0</ele><time>2026-04-20T13:20:22Z</time></trkpt><trkpt lat="43.69199409826161" lon="12.225647283597715"><ele>748.6666666666666</ele><time>2026-04-20T13:20:23Z</time></trkpt><trkpt lat="43.692015892830945" lon="12.225851790618284"><ele>748.3333333333334</ele><time>2026-04-20T13:20:24Z</time></trkpt><trkpt lat="43.69204277453757" lon="12.226057490249595"><ele>748.0</ele><time>2026-04-20T13:20:25Z</time></trkpt><trkpt lat="43.692077269170774" lon="12.226265588917729"><ele>748.3333333333334</ele><time>2026-04-20T13:20:26Z</time></trkpt><trkpt lat="43.69212508788876" lon="12.226486084325817"><ele>748.6666666666666</ele><time>2026-04-20T13:20:27Z</time></trkpt><trkpt lat="43.6921739326704" lon="12.2267088278124"><ele>749.0</ele><time>2026-04-20T13:20:28Z</time></trkpt><trkpt lat="43.69222504949577" lon="12.226942781875765"><ele>749.0</ele><time>2026-04-20T13:20:29Z</time></trkpt><trkpt lat="43.69227253658772" lon="12.22718511424324"><ele>749.0</ele><time>2026-04-20T13:20:30Z</time></trkpt><trkpt lat="43.69231040747119" lon="12.227408505941861"><ele>749.0</ele><time>2026-04-20T13:20:31Z</time></trkpt><trkpt lat="43.692336550713584" lon="12.227609861516392"><ele>748.8000000000001</ele><time>2026-04-20T13:20:32Z</time></trkpt><trkpt lat="43.69235671676116" lon="12.2277781198604"><ele>748.6</ele><time>2026-04-20T13:20:33Z</time></trkpt><trkpt lat="43.69235693562771" lon="12.22789835507197"><ele>748.4</ele><time>2026-04-20T13:20:34Z</time></trkpt><trkpt lat="43.69233734370039" lon="12.228000622255157"><ele>748.2</ele><time>2026-04-20T13:20:35Z</time></trkpt><trkpt lat="43.69229039057491" lon="12.228072929538227"><ele>748.0</ele><time>2026-04-20T13:20:36Z</time></trkpt><trkpt lat="43.69224807086051" lon="12.228200094534667"><ele>748.0</ele><time>2026-04-20T13:20:37Z</time></trkpt><trkpt lat="43.692173528790676" lon="12.228323518595191"><ele>748.0</ele><time>2026-04-20T13:20:38Z</time></trkpt><trkpt lat="43.692118536110456" lon="12.228480220800984"><ele>748.0</ele><time>2026-04-20T13:20:39Z</time></trkpt><trkpt lat="43.69205406059137" lon="12.22864988502777"><ele>748.0</ele><time>2026-04-20T13:20:40Z</time></trkpt><trkpt lat="43.69198704004048" lon="12.22882504750145"><ele>746.6666666666667</ele><time>2026-04-20T13:20:41Z</time></trkpt><trkpt lat="43.69191567416984" lon="12.229017015624532"><ele>745.3333333333334</ele><time>2026-04-20T13:20:42Z</time></trkpt><trkpt lat="43.69184845957744" lon="12.229181188130346"><ele>744.0</ele><time>2026-04-20T13:20:43Z</time></trkpt><trkpt lat="43.6917726937125" lon="12.229378807247553"><ele>744.0</ele><time>2026-04-20T13:20:44Z</time></trkpt><trkpt lat="43.69169568865923" lon="12.229552795947182"><ele>744.0</ele><time>2026-04-20T13:20:45Z</time></trkpt><trkpt lat="43.69161471710651" lon="12.229736233705548"><ele>744.0</ele><time>2026-04-20T13:20:46Z</time></trkpt><trkpt lat="43.69154957381873" lon="12.229919212898299"><ele>746.0</ele><time>2026-04-20T13:20:47Z</time></trkpt><trkpt lat="43.69150813832585" lon="12.230092070221037"><ele>748.0</ele><time>2026-04-20T13:20:48Z</time></trkpt><trkpt lat="43.69149315136728" lon="12.230264737651618"><ele>750.0</ele><time>2026-04-20T13:20:49Z</time></trkpt><trkpt lat="43.69149728273441" lon="12.230449893205042"><ele>752.0</ele><time>2026-04-20T13:20:50Z</time></trkpt><trkpt lat="43.69150777091984" lon="12.230647091827798"><ele>753.6666666666666</ele><time>2026-04-20T13:20:51Z</time></trkpt><trkpt lat="43.69151133384718" lon="12.230854587777625"><ele>755.3333333333334</ele><time>2026-04-20T13:20:52Z</time></trkpt><trkpt lat="43.69152376930978" lon="12.231065453423318"><ele>757.0</ele><time>2026-04-20T13:20:53Z</time></trkpt><trkpt lat="43.69152677998732" lon="12.231280523102553"><ele>757.25</ele><time>2026-04-20T13:20:54Z</time></trkpt><trkpt lat="43.69153368456693" lon="12.23150194032521"><ele>757.5</ele><time>2026-04-20T13:20:55Z</time></trkpt><trkpt lat="43.69153209703132" lon="12.231711119346174"><ele>757.75</ele><time>2026-04-20T13:20:56Z</time></trkpt><trkpt lat="43.69154124993232" lon="12.231899373994949"><ele>758.0</ele><time>2026-04-20T13:20:57Z</time></trkpt><trkpt lat="43.69151471592367" lon="12.232072044131783"><ele>758.0</ele><time>2026-04-20T13:20:58Z</time></trkpt><trkpt lat="43.69147392333211" lon="12.232244064702027"><ele>758.0</ele><time>2026-04-20T13:20:59Z</time></trkpt><trkpt lat="43.69142408276628" lon="12.232419035285872"><ele>758.0</ele><time>2026-04-20T13:21:00Z</time></trkpt><trkpt lat="43.691373311969976" lon="12.232602740905715"><ele>758.0</ele><time>2026-04-20T13:21:01Z</time></trkpt><trkpt lat="43.691316511609465" lon="12.232782957958072"><ele>759.25</ele><time>2026-04-20T13:21:02Z</time></trkpt><trkpt lat="43.69124740945054" lon="12.232943900275353"><ele>760.5</ele><time>2026-04-20T13:21:03Z</time></trkpt><trkpt lat="43.691171806280806" lon="12.233079017600447"><ele>761.75</ele><time>2026-04-20T13:21:04Z</time></trkpt><trkpt lat="43.691084256049855" lon="12.233187163062802"><ele>763.0</ele><time>2026-04-20T13:21:05Z</time></trkpt><trkpt lat="43.690985628901316" lon="12.233289676904125"><ele>764.25</ele><time>2026-04-20T13:21:06Z</time></trkpt><trkpt lat="43.69088220289191" lon="12.233385366841592"><ele>765.5</ele><time>2026-04-20T13:21:07Z</time></trkpt><trkpt lat="43.69077256779066" lon="12.23344434960716"><ele>766.75</ele><time>2026-04-20T13:21:08Z</time></trkpt><trkpt lat="43.69065952576718" lon="12.23347988647899"><ele>768.0</ele><time>2026-04-20T13:21:09Z</time></trkpt><trkpt lat="43.69053804872402" lon="12.23348203822135"><ele>768.0</ele><time>2026-04-20T13:21:10Z</time></trkpt><trkpt lat="43.69041811339214" lon="12.23345691791564"><ele>768.0</ele><time>2026-04-20T13:21:11Z</time></trkpt><trkpt lat="43.690297444512865" lon="12.233412644018216"><ele>768.0</ele><time>2026-04-20T13:21:12Z</time></trkpt><trkpt lat="43.6901745188704" lon="12.233376714198007"><ele>768.0</ele><time>2026-04-20T13:21:13Z</time></trkpt><trkpt lat="43.690054232481714" lon="12.2333601723291"><ele>770.0</ele><time>2026-04-20T13:21:14Z</time></trkpt><trkpt lat="43.689925690996446" lon="12.233338945650717"><ele>772.0</ele><time>2026-04-20T13:21:15Z</time></trkpt><trkpt lat="43.68979355391712" lon="12.233323619864015"><ele>774.0</ele><time>2026-04-20T13:21:16Z</time></trkpt><trkpt lat="43.6896568763131" lon="12.233305986549995"><ele>776.0</ele><time>2026-04-20T13:21:17Z</time></trkpt><trkpt lat="43.68952477318658" lon="12.23327670623219"><ele>779.1999999999999</ele><time>2026-04-20T13:21:18Z</time></trkpt><trkpt lat="43.689413477828886" lon="12.233214904181379"><ele>782.4</ele><time>2026-04-20T13:21:19Z</time></trkpt><trkpt lat="43.68931791057615" lon="12.233148673475966"><ele>785.6</ele><time>2026-04-20T13:21:20Z</time></trkpt><trkpt lat="43.689228658945055" lon="12.233079374483964"><ele>788.8</ele><time>2026-04-20T13:21:21Z</time></trkpt><trkpt lat="43.68917660463044" lon="12.23295502223141"><ele>792.0</ele><time>2026-04-20T13:21:22Z</time></trkpt><trkpt lat="43.68916063323206" lon="12.232798410113189"><ele>792.25</ele><time>2026-04-20T13:21:23Z</time></trkpt><trkpt lat="43.689152337016516" lon="12.232644389511714"><ele>792.5</ele><time>2026-04-20T13:21:24Z</time></trkpt><trkpt lat="43.689167759979384" lon="12.232502758241129"><ele>792.75</ele><time>2026-04-20T13:21:25Z</time></trkpt><trkpt lat="43.68919833978275" lon="12.232354964880715"><ele>793.0</ele><time>2026-04-20T13:21:26Z</time></trkpt><trkpt lat="43.68923288900127" lon="12.232190060468449"><ele>795.75</ele><time>2026-04-20T13:21:27Z</time></trkpt><trkpt lat="43.68926812949123" lon="12.232024514099491"><ele>798.5</ele><time>2026-04-20T13:21:28Z</time></trkpt><trkpt lat="43.68930707424934" lon="12.231862259589153"><ele>801.25</ele><time>2026-04-20T13:21:29Z</time></trkpt><trkpt lat="43.68935019540012" lon="12.231700685623718"><ele>804.0</ele><time>2026-04-20T13:21:30Z</time></trkpt><trkpt lat="43.68939820437652" lon="12.231538110762422"><ele>800.25</ele><time>2026-04-20T13:21:31Z</time></trkpt><trkpt lat="43.68943362203438" lon="12.231356227051583"><ele>796.5</ele><time>2026-04-20T13:21:32Z</time></trkpt><trkpt lat="43.68948102080555" lon="12.231183689158525"><ele>792.75</ele><time>2026-04-20T13:21:33Z</time></trkpt><trkpt lat="43.6895346193156" lon="12.231031765069618"><ele>789.0</ele><time>2026-04-20T13:21:34Z</time></trkpt><trkpt lat="43.68956570368519" lon="12.23087848788525"><ele>789.0</ele><time>2026-04-20T13:21:35Z</time></trkpt><trkpt lat="43.68958073530556" lon="12.23070205130132"><ele>789.0</ele><time>2026-04-20T13:21:36Z</time></trkpt><trkpt lat="43.689562693177685" lon="12.230550084127024"><ele>789.0</ele><time>2026-04-20T13:21:37Z</time></trkpt><trkpt lat="43.689533870796716" lon="12.23040862610626"><ele>789.0</ele><time>2026-04-20T13:21:38Z</time></trkpt><trkpt lat="43.68947424710505" lon="12.230266767836468"><ele>794.75</ele><time>2026-04-20T13:21:39Z</time></trkpt><trkpt lat="43.68941409928285" lon="12.230105017101106"><ele>800.5</ele><time>2026-04-20T13:21:40Z</time></trkpt><trkpt lat="43.68936313375433" lon="12.229956489548217"><ele>806.25</ele><time>2026-04-20T13:21:41Z</time></trkpt><trkpt lat="43.68929282181105" lon="12.22981962356932"><ele>812.0</ele><time>2026-04-20T13:21:42Z</time></trkpt><trkpt lat="43.68920025743271" lon="12.229739809655973"><ele>812.0</ele><time>2026-04-20T13:21:43Z</time></trkpt><trkpt lat="43.689103737363446" lon="12.229666627751197"><ele>812.0</ele><time>2026-04-20T13:21:44Z</time></trkpt><trkpt lat="43.68901307096539" lon="12.229603316290103"><ele>812.0</ele><time>2026-04-20T13:21:45Z</time></trkpt><trkpt lat="43.68895449341449" lon="12.22951818910715"><ele>812.0</ele><time>2026-04-20T13:21:46Z</time></trkpt><trkpt lat="43.6889706739211" lon="12.22938194331687"><ele>812.0</ele><time>2026-04-20T13:21:47Z</time></trkpt><trkpt lat="43.688987306380916" lon="12.229277038140408"><ele>812.0000000000001</ele><time>2026-04-20T13:21:48Z</time></trkpt><trkpt lat="43.68897570633356" lon="12.229133964635329"><ele>812.0</ele><time>2026-04-20T13:21:49Z</time></trkpt><trkpt lat="43.6889531282446" lon="12.229009008245425"><ele>812.0</ele><time>2026-04-20T13:21:50Z</time></trkpt><trkpt lat="43.68889198239222" lon="12.228934359375922"><ele>812.0</ele><time>2026-04-20T13:21:51Z</time></trkpt><trkpt lat="43.68882063275357" lon="12.228899721568501"><ele>812.0000000000001</ele><time>2026-04-20T13:21:52Z</time></trkpt><trkpt lat="43.688728696501656" lon="12.228907109230665"><ele>812.0</ele><time>2026-04-20T13:21:53Z</time></trkpt><trkpt lat="43.6886326350152" lon="12.228951834868905"><ele>812.0</ele><time>2026-04-20T13:21:54Z</time></trkpt><trkpt lat="43.688507754439016" lon="12.22898685424707"><ele>812.0</ele><time>2026-04-20T13:21:55Z</time></trkpt><trkpt lat="43.68837754937517" lon="12.229011173869434"><ele>812.0</ele><time>2026-04-20T13:21:56Z</time></trkpt><trkpt lat="43.68825625012154" lon="12.22898841635438"><ele>812.0</ele><time>2026-04-20T13:21:57Z</time></trkpt><trkpt lat="43.688132020842545" lon="12.228945906352939"><ele>812.0</ele><time>2026-04-20T13:21:58Z</time></trkpt><trkpt lat="43.68801477504361" lon="12.228887251859883"><ele>812.0</ele><time>2026-04-20T13:21:59Z</time></trkpt><trkpt lat="43.687893066680715" lon="12.22880361086627"><ele>812.0</ele><time>2026-04-20T13:22:00Z</time></trkpt><trkpt lat="43.68779287160894" lon="12.228693382406183"><ele>812.0</ele><time>2026-04-20T13:22:01Z</time></trkpt><trkpt lat="43.68768645212116" lon="12.228582453492466"><ele>817.5</ele><time>2026-04-20T13:22:02Z</time></trkpt><trkpt lat="43.68759964733316" lon="12.228462486418879"><ele>823.0</ele><time>2026-04-20T13:22:03Z</time></trkpt><trkpt lat="43.687514976072144" lon="12.22834059803431"><ele>828.5</ele><time>2026-04-20T13:22:04Z</time></trkpt><trkpt lat="43.68743749761859" lon="12.228207194900916"><ele>834.0</ele><time>2026-04-20T13:22:05Z</time></trkpt><trkpt lat="43.68736961984551" lon="12.228081380451476"><ele>834.0</ele><time>2026-04-20T13:22:06Z</time></trkpt><trkpt lat="43.68731497370774" lon="12.227951396170559"><ele>834.0</ele><time>2026-04-20T13:22:07Z</time></trkpt><trkpt lat="43.687325135982306" lon="12.22780858528787"><ele>834.0</ele><time>2026-04-20T13:22:08Z</time></trkpt><trkpt lat="43.687343307393604" lon="12.227678902197463"><ele>834.0</ele><time>2026-04-20T13:22:09Z</time></trkpt><trkpt lat="43.68737201129771" lon="12.22753668027996"><ele>834.0</ele><time>2026-04-20T13:22:10Z</time></trkpt><trkpt lat="43.68740146017322" lon="12.227391970272478"><ele>831.2</ele><time>2026-04-20T13:22:11Z</time></trkpt><trkpt lat="43.68741646029298" lon="12.22725785484665"><ele>828.4000000000001</ele><time>2026-04-20T13:22:12Z</time></trkpt><trkpt lat="43.687385344860225" lon="12.227140815588106"><ele>825.6</ele><time>2026-04-20T13:22:13Z</time></trkpt><trkpt lat="43.6873101576057" lon="12.227044972476245"><ele>822.8</ele><time>2026-04-20T13:22:14Z</time></trkpt><trkpt lat="43.68722437659146" lon="12.226982495612564"><ele>820.0</ele><time>2026-04-20T13:22:15Z</time></trkpt><trkpt lat="43.6871109880023" lon="12.22691486491868"><ele>820.0</ele><time>2026-04-20T13:22:16Z</time></trkpt><trkpt lat="43.686991948511114" lon="12.226870273010844"><ele>820.0</ele><time>2026-04-20T13:22:17Z</time></trkpt><trkpt lat="43.68689050244379" lon="12.226868409157323"><ele>820.0</ele><time>2026-04-20T13:22:18Z</time></trkpt><trkpt lat="43.686777128006035" lon="12.226903176378153"><ele>820.0</ele><time>2026-04-20T13:22:19Z</time></trkpt><trkpt lat="43.68667359447003" lon="12.226970122656317"><ele>827.0</ele><time>2026-04-20T13:22:20Z</time></trkpt><trkpt lat="43.6865739983003" lon="12.226983156235143"><ele>834.0</ele><time>2026-04-20T13:22:21Z</time></trkpt><trkpt lat="43.68647700222787" lon="12.226927975406317"><ele>841.0</ele><time>2026-04-20T13:22:22Z</time></trkpt><trkpt lat="43.686400980525676" lon="12.226789027042525"><ele>848.0</ele><time>2026-04-20T13:22:23Z</time></trkpt><trkpt lat="43.68631799916908" lon="12.2266616872376"><ele>848.0</ele><time>2026-04-20T13:22:24Z</time></trkpt><trkpt lat="43.68623872864521" lon="12.22653997641986"><ele>848.0</ele><time>2026-04-20T13:22:25Z</time></trkpt><trkpt lat="43.686157991120886" lon="12.226432853878634"><ele>848.0</ele><time>2026-04-20T13:22:26Z</time></trkpt><trkpt lat="43.68606957136493" lon="12.226316086704033"><ele>848.0</ele><time>2026-04-20T13:22:27Z</time></trkpt><trkpt lat="43.68598380816916" lon="12.226185971245469"><ele>850.75</ele><time>2026-04-20T13:22:28Z</time></trkpt><trkpt lat="43.68591583047775" lon="12.226078753797525"><ele>853.5</ele><time>2026-04-20T13:22:29Z</time></trkpt><trkpt lat="43.685825467589346" lon="12.226008062243643"><ele>856.25</ele><time>2026-04-20T13:22:30Z</time></trkpt><trkpt lat="43.68571614379541" lon="12.225982738009826"><ele>859.0</ele><time>2026-04-20T13:22:31Z</time></trkpt><trkpt lat="43.685584189259636" lon="12.225970500801479"><ele>859.0</ele><time>2026-04-20T13:22:32Z</time></trkpt><trkpt lat="43.6854391887542" lon="12.22594466366412"><ele>859.0000000000001</ele><time>2026-04-20T13:22:33Z</time></trkpt><trkpt lat="43.68535271103215" lon="12.2259232717088"><ele>859.0000000000001</ele><time>2026-04-20T13:22:34Z</time></trkpt><trkpt lat="43.685293344424295" lon="12.225781402291975"><ele>859.0</ele><time>2026-04-20T13:22:35Z</time></trkpt><trkpt lat="43.68524541693754" lon="12.225673107254426"><ele>859.0</ele><time>2026-04-20T13:22:36Z</time></trkpt><trkpt lat="43.68523538967201" lon="12.225576254657652"><ele>859.0</ele><time>2026-04-20T13:22:37Z</time></trkpt><trkpt lat="43.68527658657869" lon="12.225458352881343"><ele>859.0000000000001</ele><time>2026-04-20T13:22:38Z</time></trkpt><trkpt lat="43.685306970491254" lon="12.225351971789825"><ele>859.0000000000001</ele><time>2026-04-20T13:22:39Z</time></trkpt><trkpt lat="43.68534732057836" lon="12.22522965540557"><ele>859.0</ele><time>2026-04-20T13:22:40Z</time></trkpt><trkpt lat="43.68540268886212" lon="12.225115802507261"><ele>859.0</ele><time>2026-04-20T13:22:41Z</time></trkpt><trkpt lat="43.68547462754676" lon="12.225025126366413"><ele>859.0</ele><time>2026-04-20T13:22:42Z</time></trkpt><trkpt lat="43.68555334563446" lon="12.224911937720869"><ele>859.0000000000001</ele><time>2026-04-20T13:22:43Z</time></trkpt><trkpt lat="43.6856151472064" lon="12.224798930334591"><ele>859.0000000000001</ele><time>2026-04-20T13:22:44Z</time></trkpt><trkpt lat="43.68566489198266" lon="12.224701950737655"><ele>859.0</ele><time>2026-04-20T13:22:45Z</time></trkpt><trkpt lat="43.68569020435578" lon="12.224563702634912"><ele>859.0</ele><time>2026-04-20T13:22:46Z</time></trkpt><trkpt lat="43.68572298475818" lon="12.224420363475398"><ele>864.25</ele><time>2026-04-20T13:22:47Z</time></trkpt><trkpt lat="43.68574798955397" lon="12.224262405518342"><ele>869.5</ele><time>2026-04-20T13:22:48Z</time></trkpt><trkpt lat="43.68578268956266" lon="12.224083661959268"><ele>874.75</ele><time>2026-04-20T13:22:49Z</time></trkpt><trkpt lat="43.68583179089856" lon="12.223947003165843"><ele>880.0</ele><time>2026-04-20T13:22:50Z</time></trkpt><trkpt lat="43.68589107113813" lon="12.223837027336975"><ele>882.0</ele><time>2026-04-20T13:22:51Z</time></trkpt><trkpt lat="43.68596852562351" lon="12.223720889548442"><ele>884.0</ele><time>2026-04-20T13:22:52Z</time></trkpt><trkpt lat="43.68605040863363" lon="12.223606656250656"><ele>886.0</ele><time>2026-04-20T13:22:53Z</time></trkpt><trkpt lat="43.68615718139342" lon="12.223482122938048"><ele>888.0</ele><time>2026-04-20T13:22:54Z</time></trkpt><trkpt lat="43.686270993975214" lon="12.22335510383763"><ele>888.0</ele><time>2026-04-20T13:22:55Z</time></trkpt><trkpt lat="43.686378252432974" lon="12.223228434397862"><ele>888.0</ele><time>2026-04-20T13:22:56Z</time></trkpt><trkpt lat="43.686475351573094" lon="12.22312641416351"><ele>888.0</ele><time>2026-04-20T13:22:57Z</time></trkpt><trkpt lat="43.686563101298795" lon="12.22307177411137"><ele>888.0</ele><time>2026-04-20T13:22:58Z</time></trkpt><trkpt lat="43.68666954135307" lon="12.223026642338281"><ele>889.5</ele><time>2026-04-20T13:22:59Z</time></trkpt><trkpt lat="43.686779221136014" lon="12.222984274046262"><ele>891.0</ele><time>2026-04-20T13:23:00Z</time></trkpt><trkpt lat="43.68690005519352" lon="12.222906922050123"><ele>892.5</ele><time>2026-04-20T13:23:01Z</time></trkpt><trkpt lat="43.687002605525834" lon="12.222802314622722"><ele>894.0</ele><time>2026-04-20T13:23:02Z</time></trkpt><trkpt lat="43.68711783413148" lon="12.22272195611419"><ele>894.0</ele><time>2026-04-20T13:23:03Z</time></trkpt><trkpt lat="43.687244754081966" lon="12.222644874816558"><ele>894.0</ele><time>2026-04-20T13:23:04Z</time></trkpt><trkpt lat="43.68734977923698" lon="12.222550960385862"><ele>894.0</ele><time>2026-04-20T13:23:05Z</time></trkpt><trkpt lat="43.68742155920538" lon="12.222423894835467"><ele>894.0</ele><time>2026-04-20T13:23:06Z</time></trkpt><trkpt lat="43.68749499163945" lon="12.22227979765726"><ele>896.6</ele><time>2026-04-20T13:23:07Z</time></trkpt><trkpt lat="43.68754588321754" lon="12.222133915968822"><ele>899.2</ele><time>2026-04-20T13:23:08Z</time></trkpt><trkpt lat="43.687569636833146" lon="12.22195885867562"><ele>901.8000000000001</ele><time>2026-04-20T13:23:09Z</time></trkpt><trkpt lat="43.68758465309459" lon="12.221811305120452"><ele>904.4000000000001</ele><time>2026-04-20T13:23:10Z</time></trkpt><trkpt lat="43.68758137056994" lon="12.221683412704879"><ele>907.0</ele><time>2026-04-20T13:23:11Z</time></trkpt><trkpt lat="43.6875569120712" lon="12.22157889501598"><ele>907.0</ele><time>2026-04-20T13:23:12Z</time></trkpt><trkpt lat="43.68750311540526" lon="12.221484933215056"><ele>907.0</ele><time>2026-04-20T13:23:13Z</time></trkpt><trkpt lat="43.687412497063775" lon="12.22138024274923"><ele>907.0</ele><time>2026-04-20T13:23:14Z</time></trkpt><trkpt lat="43.6873052020046" lon="12.221320374927252"><ele>907.0</ele><time>2026-04-20T13:23:15Z</time></trkpt><trkpt lat="43.687181605249386" lon="12.221292795270099"><ele>907.0</ele><time>2026-04-20T13:23:16Z</time></trkpt><trkpt lat="43.6870368648487" lon="12.221307103980571"><ele>904.3333333333333</ele><time>2026-04-20T13:23:17Z</time></trkpt><trkpt lat="43.68687820952305" lon="12.221354741218544"><ele>901.6666666666667</ele><time>2026-04-20T13:23:18Z</time></trkpt><trkpt lat="43.68671730134639" lon="12.221400375929942"><ele>899.0</ele><time>2026-04-20T13:23:19Z</time></trkpt><trkpt lat="43.68657178076625" lon="12.22144285855518"><ele>899.0</ele><time>2026-04-20T13:23:20Z</time></trkpt><trkpt lat="43.68642890288989" lon="12.221478807924766"><ele>899.0</ele><time>2026-04-20T13:23:21Z</time></trkpt><trkpt lat="43.68629633027037" lon="12.2214936289463"><ele>899.0</ele><time>2026-04-20T13:23:22Z</time></trkpt><trkpt lat="43.68616147726419" lon="12.221463400413095"><ele>899.0</ele><time>2026-04-20T13:23:23Z</time></trkpt><trkpt lat="43.686050253438225" lon="12.221417465004254"><ele>900.5</ele><time>2026-04-20T13:23:24Z</time></trkpt><trkpt lat="43.68594129577454" lon="12.221348161184851"><ele>902.0</ele><time>2026-04-20T13:23:25Z</time></trkpt><trkpt lat="43.68584323908076" lon="12.221258716192086"><ele>903.5</ele><time>2026-04-20T13:23:26Z</time></trkpt><trkpt lat="43.68575715851123" lon="12.221138379803154"><ele>905.0</ele><time>2026-04-20T13:23:27Z</time></trkpt><trkpt lat="43.68567471112155" lon="12.221000547087678"><ele>905.0</ele><time>2026-04-20T13:23:28Z</time></trkpt><trkpt lat="43.685608722546824" lon="12.220854575982765"><ele>905.0</ele><time>2026-04-20T13:23:29Z</time></trkpt><trkpt lat="43.68552569847681" lon="12.220742267560622"><ele>905.0</ele><time>2026-04-20T13:23:30Z</time></trkpt><trkpt lat="43.68544535162958" lon="12.220674793571716"><ele>905.0</ele><time>2026-04-20T13:23:31Z</time></trkpt><trkpt lat="43.68536112519437" lon="12.22062905435961"><ele>905.0</ele><time>2026-04-20T13:23:32Z</time></trkpt><trkpt lat="43.685257149415385" lon="12.220603055026706"><ele>905.5</ele><time>2026-04-20T13:23:33Z</time></trkpt><trkpt lat="43.68514719215539" lon="12.220620564055842"><ele>906.0</ele><time>2026-04-20T13:23:34Z</time></trkpt><trkpt lat="43.685024570371986" lon="12.220651614297022"><ele>906.5</ele><time>2026-04-20T13:23:35Z</time></trkpt><trkpt lat="43.6849048021399" lon="12.220698855161102"><ele>907.0</ele><time>2026-04-20T13:23:36Z</time></trkpt><trkpt lat="43.68477333551068" lon="12.220761798662954"><ele>910.5</ele><time>2026-04-20T13:23:37Z</time></trkpt><trkpt lat="43.68463841910534" lon="12.220834994609516"><ele>914.0</ele><time>2026-04-20T13:23:38Z</time></trkpt><trkpt lat="43.684505812784664" lon="12.220921689519038"><ele>917.5</ele><time>2026-04-20T13:23:39Z</time></trkpt><trkpt lat="43.68438045353552" lon="12.221017581344217"><ele>921.0</ele><time>2026-04-20T13:23:40Z</time></trkpt><trkpt lat="43.68428730359208" lon="12.221156690441765"><ele>921.0</ele><time>2026-04-20T13:23:41Z</time></trkpt><trkpt lat="43.68420663293875" lon="12.221262494048196"><ele>920.9999999999999</ele><time>2026-04-20T13:23:42Z</time></trkpt><trkpt lat="43.684124536478436" lon="12.221361130344249"><ele>920.9999999999999</ele><time>2026-04-20T13:23:43Z</time></trkpt><trkpt lat="43.68403416574293" lon="12.221443365429883"><ele>921.0</ele><time>2026-04-20T13:23:44Z</time></trkpt><trkpt lat="43.68394931981575" lon="12.221520854395783"><ele>921.0</ele><time>2026-04-20T13:23:45Z</time></trkpt><trkpt lat="43.683873703934246" lon="12.221591477605369"><ele>921.3333333333334</ele><time>2026-04-20T13:23:46Z</time></trkpt><trkpt lat="43.6837970027954" lon="12.221666608072043"><ele>921.6666666666667</ele><time>2026-04-20T13:23:47Z</time></trkpt><trkpt lat="43.68372246893306" lon="12.22174268964152"><ele>922.0</ele><time>2026-04-20T13:23:48Z</time></trkpt><trkpt lat="43.683652648228744" lon="12.221806768163184"><ele>922.3333333333334</ele><time>2026-04-20T13:23:49Z</time></trkpt><trkpt lat="43.68358318604281" lon="12.221865375770797"><ele>922.6666666666667</ele><time>2026-04-20T13:23:50Z</time></trkpt><trkpt lat="43.683514670010574" lon="12.221929789565102"><ele>923.0</ele><time>2026-04-20T13:23:51Z</time></trkpt><trkpt lat="43.68346559117237" lon="12.22200462493525"><ele>920.5000000000001</ele><time>2026-04-20T13:23:52Z</time></trkpt><trkpt lat="43.68342114255768" lon="12.222084228670917"><ele>918.0</ele><time>2026-04-20T13:23:53Z</time></trkpt><trkpt lat="43.683387109242304" lon="12.222169728140846"><ele>915.5</ele><time>2026-04-20T13:23:54Z</time></trkpt><trkpt lat="43.68336369492095" lon="12.222272636045405"><ele>913.0</ele><time>2026-04-20T13:23:55Z</time></trkpt><trkpt lat="43.683323001985315" lon="12.222382728843506"><ele>910.5000000000001</ele><time>2026-04-20T13:23:56Z</time></trkpt><trkpt lat="43.68331005342849" lon="12.222531681475441"><ele>908.0</ele><time>2026-04-20T13:23:57Z</time></trkpt><trkpt lat="43.68328616077116" lon="12.222671787604627"><ele>908.0000000000001</ele><time>2026-04-20T13:23:58Z</time></trkpt><trkpt lat="43.6832491655977" lon="12.222789541917138"><ele>908.0</ele><time>2026-04-20T13:23:59Z</time></trkpt><trkpt lat="43.68322777167011" lon="12.222897333078285"><ele>908.0</ele><time>2026-04-20T13:24:00Z</time></trkpt><trkpt lat="43.68320479735303" lon="12.223012369457287"><ele>908.0</ele><time>2026-04-20T13:24:01Z</time></trkpt><trkpt lat="43.68318227220899" lon="12.223126497030242"><ele>908.0000000000001</ele><time>2026-04-20T13:24:02Z</time></trkpt><trkpt lat="43.68315696314591" lon="12.223237679556744"><ele>908.0</ele><time>2026-04-20T13:24:03Z</time></trkpt><trkpt lat="43.68312185014683" lon="12.223355287109719"><ele>909.0000000000001</ele><time>2026-04-20T13:24:04Z</time></trkpt><trkpt lat="43.68307164524918" lon="12.223455261894411"><ele>910.0</ele><time>2026-04-20T13:24:05Z</time></trkpt><trkpt lat="43.683020576195986" lon="12.223555568150106"><ele>911.0</ele><time>2026-04-20T13:24:06Z</time></trkpt><trkpt lat="43.68293583480323" lon="12.22358242447311"><ele>912.0</ele><time>2026-04-20T13:24:07Z</time></trkpt><trkpt lat="43.68286028312646" lon="12.223639023321143"><ele>913.0000000000001</ele><time>2026-04-20T13:24:08Z</time></trkpt><trkpt lat="43.68277688235176" lon="12.223695763554334"><ele>914.0</ele><time>2026-04-20T13:24:09Z</time></trkpt><trkpt lat="43.68271577788179" lon="12.223745519897154"><ele>911.5000000000001</ele><time>2026-04-20T13:24:10Z</time></trkpt><trkpt lat="43.68263628228801" lon="12.223783453781333"><ele>909.0</ele><time>2026-04-20T13:24:11Z</time></trkpt><trkpt lat="43.68255789735527" lon="12.223841570423406"><ele>906.5</ele><time>2026-04-20T13:24:12Z</time></trkpt><trkpt lat="43.682474694278156" lon="12.223897660695958"><ele>904.0</ele><time>2026-04-20T13:24:13Z</time></trkpt><trkpt lat="43.68239802161104" lon="12.2239525715649"><ele>901.5000000000001</ele><time>2026-04-20T13:24:14Z</time></trkpt><trkpt lat="43.68232707298354" lon="12.224006373891136"><ele>899.0</ele><time>2026-04-20T13:24:15Z</time></trkpt><trkpt lat="43.6822413723" lon="12.2240372416658"><ele>899.0000000000001</ele><time>2026-04-20T13:24:16Z</time></trkpt><trkpt lat="43.68216477786009" lon="12.224112360549482"><ele>899.0</ele><time>2026-04-20T13:24:17Z</time></trkpt><trkpt lat="43.68207026047982" lon="12.2241663007425"><ele>899.0</ele><time>2026-04-20T13:24:18Z</time></trkpt><trkpt lat="43.68200112551184" lon="12.224207960634965"><ele>899.0</ele><time>2026-04-20T13:24:19Z</time></trkpt><trkpt lat="43.681939961466824" lon="12.224249824141237"><ele>899.0000000000001</ele><time>2026-04-20T13:24:20Z</time></trkpt><trkpt lat="43.681881164021874" lon="12.2243001911395"><ele>899.0</ele><time>2026-04-20T13:24:21Z</time></trkpt><trkpt lat="43.68182390429794" lon="12.224372536307403"><ele>896.6666666666667</ele><time>2026-04-20T13:24:22Z</time></trkpt><trkpt lat="43.681765887946874" lon="12.224464589222817"><ele>894.3333333333334</ele><time>2026-04-20T13:24:23Z</time></trkpt><trkpt lat="43.68171909368887" lon="12.224573772127961"><ele>892.0</ele><time>2026-04-20T13:24:24Z</time></trkpt><trkpt lat="43.68169781733793" lon="12.224696478724269"><ele>889.6666666666667</ele><time>2026-04-20T13:24:25Z</time></trkpt><trkpt lat="43.68169781347279" lon="12.224814809310152"><ele>887.3333333333334</ele><time>2026-04-20T13:24:26Z</time></trkpt><trkpt lat="43.68168018006424" lon="12.224913390328725"><ele>885.0</ele><time>2026-04-20T13:24:27Z</time></trkpt><trkpt lat="43.681630659239055" lon="12.224984227013406"><ele>885.0</ele><time>2026-04-20T13:24:28Z</time></trkpt><trkpt lat="43.681561549371814" lon="12.22500979076242"><ele>885.0</ele><time>2026-04-20T13:24:29Z</time></trkpt><trkpt lat="43.681491338217455" lon="12.2249685576388"><ele>885.0</ele><time>2026-04-20T13:24:30Z</time></trkpt><trkpt lat="43.68147305999273" lon="12.224836142060601"><ele>885.0</ele><time>2026-04-20T13:24:31Z</time></trkpt><trkpt lat="43.68142837646398" lon="12.224724082971717"><ele>885.0</ele><time>2026-04-20T13:24:32Z</time></trkpt><trkpt lat="43.68141322395913" lon="12.224591583393307"><ele>885.0</ele><time>2026-04-20T13:24:33Z</time></trkpt><trkpt lat="43.68140284550282" lon="12.224459739655357"><ele>883.0</ele><time>2026-04-20T13:24:34Z</time></trkpt><trkpt lat="43.681402145132864" lon="12.224336008367407"><ele>881.0</ele><time>2026-04-20T13:24:35Z</time></trkpt><trkpt lat="43.68145150751637" lon="12.224227589108137"><ele>879.0</ele><time>2026-04-20T13:24:36Z</time></trkpt><trkpt lat="43.681501926990386" lon="12.224134304543849"><ele>877.0</ele><time>2026-04-20T13:24:37Z</time></trkpt><trkpt lat="43.6815638773572" lon="12.224043759764507"><ele>875.0</ele><time>2026-04-20T13:24:38Z</time></trkpt><trkpt lat="43.68163684142112" lon="12.223957512427333"><ele>876.8</ele><time>2026-04-20T13:24:39Z</time></trkpt><trkpt lat="43.68170664639351" lon="12.223863580111642"><ele>878.6</ele><time>2026-04-20T13:24:40Z</time></trkpt><trkpt lat="43.68178565355393" lon="12.223783510503194"><ele>880.4000000000001</ele><time>2026-04-20T13:24:41Z</time></trkpt><trkpt lat="43.68186172476803" lon="12.223702643160587"><ele>882.2</ele><time>2026-04-20T13:24:42Z</time></trkpt><trkpt lat="43.68194716976564" lon="12.223635259913424"><ele>884.0</ele><time>2026-04-20T13:24:43Z</time></trkpt><trkpt lat="43.68200782548224" lon="12.223547121743534"><ele>884.0000000000001</ele><time>2026-04-20T13:24:44Z</time></trkpt><trkpt lat="43.682023488114005" lon="12.223410591934655"><ele>884.0</ele><time>2026-04-20T13:24:45Z</time></trkpt><trkpt lat="43.682037964845726" lon="12.223292915690115"><ele>884.0</ele><time>2026-04-20T13:24:46Z</time></trkpt><trkpt lat="43.68203665851497" lon="12.223185177990514"><ele>884.0</ele><time>2026-04-20T13:24:47Z</time></trkpt><trkpt lat="43.68201350084271" lon="12.223076893951207"><ele>884.0000000000001</ele><time>2026-04-20T13:24:48Z</time></trkpt><trkpt lat="43.68196945296696" lon="12.222988137927986"><ele>884.0</ele><time>2026-04-20T13:24:49Z</time></trkpt><trkpt lat="43.68190074459198" lon="12.22293769949892"><ele>878.8000000000001</ele><time>2026-04-20T13:24:50Z</time></trkpt><trkpt lat="43.68182509892954" lon="12.222927068629469"><ele>873.6000000000001</ele><time>2026-04-20T13:24:51Z</time></trkpt><trkpt lat="43.68176092342592" lon="12.222916201990737"><ele>868.4</ele><time>2026-04-20T13:24:52Z</time></trkpt><trkpt lat="43.68164913245579" lon="12.22284674513677"><ele>863.2</ele><time>2026-04-20T13:24:54Z</time></trkpt><trkpt lat="43.68154341984579" lon="12.222713072591056"><ele>858.0</ele><time>2026-04-20T13:24:56Z</time></trkpt><trkpt lat="43.68150412077875" lon="12.222604766490772"><ele>858.0</ele><time>2026-04-20T13:24:57Z</time></trkpt><trkpt lat="43.681470856630916" lon="12.222493175307905"><ele>858.0</ele><time>2026-04-20T13:24:58Z</time></trkpt><trkpt lat="43.681436351560485" lon="12.222390651426105"><ele>858.0</ele><time>2026-04-20T13:24:59Z</time></trkpt><trkpt lat="43.68143122272081" lon="12.222281611792614"><ele>858.0</ele><time>2026-04-20T13:25:00Z</time></trkpt><trkpt lat="43.681421375804376" lon="12.22217371594148"><ele>858.0</ele><time>2026-04-20T13:25:01Z</time></trkpt><trkpt lat="43.681420248523835" lon="12.22206318140613"><ele>858.0</ele><time>2026-04-20T13:25:02Z</time></trkpt><trkpt lat="43.68140882252011" lon="12.221953665960077"><ele>858.0</ele><time>2026-04-20T13:25:03Z</time></trkpt><trkpt lat="43.681431754786445" lon="12.221826680322879"><ele>858.0</ele><time>2026-04-20T13:25:04Z</time></trkpt><trkpt lat="43.68146322110775" lon="12.221695361123988"><ele>858.0</ele><time>2026-04-20T13:25:05Z</time></trkpt><trkpt lat="43.68150191328414" lon="12.22157293031671"><ele>858.0</ele><time>2026-04-20T13:25:06Z</time></trkpt><trkpt lat="43.68153783834125" lon="12.221465943714726"><ele>858.0</ele><time>2026-04-20T13:25:07Z</time></trkpt><trkpt lat="43.681569754394026" lon="12.221358253781725"><ele>857.1666666666666</ele><time>2026-04-20T13:25:08Z</time></trkpt><trkpt lat="43.681594672561936" lon="12.221263473083951"><ele>856.3333333333333</ele><time>2026-04-20T13:25:09Z</time></trkpt><trkpt lat="43.681631854193306" lon="12.221118510454058"><ele>855.5</ele><time>2026-04-20T13:25:11Z</time></trkpt><trkpt lat="43.681589801103165" lon="12.22098068812363"><ele>854.6666666666666</ele><time>2026-04-20T13:25:13Z</time></trkpt><trkpt lat="43.68152449287086" lon="12.220943110476215"><ele>853.8333333333333</ele><time>2026-04-20T13:25:14Z</time></trkpt><trkpt lat="43.68145298411092" lon="12.220926409763534"><ele>853.0</ele><time>2026-04-20T13:25:15Z</time></trkpt><trkpt lat="43.68138483371154" lon="12.220935859272657"><ele>852.9999999999999</ele><time>2026-04-20T13:25:16Z</time></trkpt><trkpt lat="43.68132653958431" lon="12.22102181741484"><ele>853.0</ele><time>2026-04-20T13:25:16.999Z</time></trkpt><trkpt lat="43.681279798782185" lon="12.22109168083195"><ele>853.0</ele><time>2026-04-20T13:25:17.999Z</time></trkpt><trkpt lat="43.681223211335166" lon="12.22117271705897"><ele>853.0</ele><time>2026-04-20T13:25:18.999Z</time></trkpt><trkpt lat="43.68115792910103" lon="12.221267322638507"><ele>852.9999999999999</ele><time>2026-04-20T13:25:19.999Z</time></trkpt><trkpt lat="43.681089634592986" lon="12.221368931438823"><ele>853.0</ele><time>2026-04-20T13:25:21Z</time></trkpt><trkpt lat="43.681016551867806" lon="12.221466386436715"><ele>849.4</ele><time>2026-04-20T13:25:21.999Z</time></trkpt><trkpt lat="43.68094592758367" lon="12.22155499734626"><ele>845.8</ele><time>2026-04-20T13:25:22.999Z</time></trkpt><trkpt lat="43.68087744156004" lon="12.221639918020092"><ele>842.2</ele><time>2026-04-20T13:25:23.999Z</time></trkpt><trkpt lat="43.680815641341205" lon="12.22170678487723"><ele>838.6</ele><time>2026-04-20T13:25:24.999Z</time></trkpt><trkpt lat="43.68076229401793" lon="12.221839025593066"><ele>835.0</ele><time>2026-04-20T13:25:26.999Z</time></trkpt><trkpt lat="43.68072661068468" lon="12.221999616982583"><ele>835.0</ele><time>2026-04-20T13:25:28.999Z</time></trkpt><trkpt lat="43.68074867753275" lon="12.222180630010204"><ele>835.0</ele><time>2026-04-20T13:25:31Z</time></trkpt><trkpt lat="43.68074774122227" lon="12.222294045222489"><ele>835.0</ele><time>2026-04-20T13:25:31.999Z</time></trkpt><trkpt lat="43.680785006093224" lon="12.222413438556881"><ele>835.0</ele><time>2026-04-20T13:25:32.999Z</time></trkpt><trkpt lat="43.68080578568951" lon="12.22253561909739"><ele>835.0</ele><time>2026-04-20T13:25:33.999Z</time></trkpt><trkpt lat="43.680824489638674" lon="12.2226314393488"><ele>835.1666666666666</ele><time>2026-04-20T13:25:34.999Z</time></trkpt><trkpt lat="43.68080503925191" lon="12.22272852352063"><ele>835.3333333333333</ele><time>2026-04-20T13:25:35.999Z</time></trkpt><trkpt lat="43.68077021878467" lon="12.222817682853435"><ele>835.5</ele><time>2026-04-20T13:25:36.999Z</time></trkpt><trkpt lat="43.68071046407057" lon="12.222892835950654"><ele>835.6666666666667</ele><time>2026-04-20T13:25:37.999Z</time></trkpt><trkpt lat="43.68063482022389" lon="12.222945580421962"><ele>835.8333333333334</ele><time>2026-04-20T13:25:38.999Z</time></trkpt><trkpt lat="43.680553812562636" lon="12.223000119139453"><ele>836.0</ele><time>2026-04-20T13:25:39.999Z</time></trkpt><trkpt lat="43.680489372400096" lon="12.223069532780626"><ele>836.0000000000001</ele><time>2026-04-20T13:25:40.999Z</time></trkpt><trkpt lat="43.68042908636004" lon="12.223116642070199"><ele>836.0</ele><time>2026-04-20T13:25:41.999Z</time></trkpt><trkpt lat="43.680384328695055" lon="12.223182381894572"><ele>836.0</ele><time>2026-04-20T13:25:42.999Z</time></trkpt><trkpt lat="43.680349817492726" lon="12.223277619833127"><ele>836.0</ele><time>2026-04-20T13:25:43.999Z</time></trkpt><trkpt lat="43.6803217149024" lon="12.223398302711313"><ele>836.0000000000001</ele><time>2026-04-20T13:25:44.999Z</time></trkpt><trkpt lat="43.680312084104486" lon="12.223533213948363"><ele>836.0</ele><time>2026-04-20T13:25:45.999Z</time></trkpt><trkpt lat="43.6803115026498" lon="12.223681829785802"><ele>837.0</ele><time>2026-04-20T13:25:46.999Z</time></trkpt><trkpt lat="43.680309260234196" lon="12.223828404318667"><ele>838.0</ele><time>2026-04-20T13:25:47.999Z</time></trkpt><trkpt lat="43.68025814942824" lon="12.22397436741528"><ele>839.0</ele><time>2026-04-20T13:25:48.999Z</time></trkpt><trkpt lat="43.680208202627476" lon="12.22412556873688"><ele>840.0</ele><time>2026-04-20T13:25:49.999Z</time></trkpt><trkpt lat="43.6801722514748" lon="12.224293410123904"><ele>835.5</ele><time>2026-04-20T13:25:50.999Z</time></trkpt><trkpt lat="43.68013287110124" lon="12.224445792493874"><ele>831.0</ele><time>2026-04-20T13:25:51.999Z</time></trkpt><trkpt lat="43.68010243396912" lon="12.224610462330604"><ele>826.5</ele><time>2026-04-20T13:25:52.999Z</time></trkpt><trkpt lat="43.68008285631387" lon="12.224762322325562"><ele>822.0</ele><time>2026-04-20T13:25:53.999Z</time></trkpt><trkpt lat="43.680063800803325" lon="12.224911997302945"><ele>822.0</ele><time>2026-04-20T13:25:54.999Z</time></trkpt><trkpt lat="43.68004570275506" lon="12.225053811037863"><ele>822.0</ele><time>2026-04-20T13:25:55.999Z</time></trkpt><trkpt lat="43.68001797846943" lon="12.225188199274154"><ele>822.0</ele><time>2026-04-20T13:25:56.999Z</time></trkpt><trkpt lat="43.68000030884222" lon="12.225304022914793"><ele>822.0</ele><time>2026-04-20T13:25:57.999Z</time></trkpt><trkpt lat="43.6800087955434" lon="12.225415212845684"><ele>822.0</ele><time>2026-04-20T13:25:58.999Z</time></trkpt><trkpt lat="43.68004344401341" lon="12.225521561248065"><ele>822.0</ele><time>2026-04-20T13:25:59.999Z</time></trkpt><trkpt lat="43.680089916068624" lon="12.225628953810986"><ele>822.0</ele><time>2026-04-20T13:26:00.999Z</time></trkpt><trkpt lat="43.68013694990662" lon="12.225748392437556"><ele>822.0</ele><time>2026-04-20T13:26:01.999Z</time></trkpt><trkpt lat="43.680190967129846" lon="12.225873624851413"><ele>822.0</ele><time>2026-04-20T13:26:02.999Z</time></trkpt><trkpt lat="43.680242519131774" lon="12.225997422345927"><ele>822.0</ele><time>2026-04-20T13:26:03.999Z</time></trkpt><trkpt lat="43.680283798370226" lon="12.226089941706453"><ele>821.2857142857142</ele><time>2026-04-20T13:26:04.999Z</time></trkpt><trkpt lat="43.68029758447245" lon="12.226184787462747"><ele>820.5714285714286</ele><time>2026-04-20T13:26:05.999Z</time></trkpt><trkpt lat="43.680317412555524" lon="12.226270984675091"><ele>819.8571428571429</ele><time>2026-04-20T13:26:06.999Z</time></trkpt><trkpt lat="43.680294818312255" lon="12.226354835019034"><ele>819.1428571428571</ele><time>2026-04-20T13:26:07.999Z</time></trkpt><trkpt lat="43.680248917884754" lon="12.226426684556117"><ele>818.4285714285714</ele><time>2026-04-20T13:26:08.999Z</time></trkpt><trkpt lat="43.68017656736228" lon="12.226465709369633"><ele>817.7142857142857</ele><time>2026-04-20T13:26:09.999Z</time></trkpt><trkpt lat="43.68011181417937" lon="12.226489952350255"><ele>817.0</ele><time>2026-04-20T13:26:10.999Z</time></trkpt><trkpt lat="43.68004742264162" lon="12.226470109666096"><ele>816.8</ele><time>2026-04-20T13:26:11.999Z</time></trkpt><trkpt lat="43.67999514028188" lon="12.226400716357304"><ele>816.6</ele><time>2026-04-20T13:26:12.999Z</time></trkpt><trkpt lat="43.67995041711373" lon="12.226305004709133"><ele>816.4</ele><time>2026-04-20T13:26:14Z</time></trkpt><trkpt lat="43.67986140213943" lon="12.22621799298632"><ele>816.1999999999999</ele><time>2026-04-20T13:26:15Z</time></trkpt><trkpt lat="43.67978221256884" lon="12.226105383111085"><ele>816.0</ele><time>2026-04-20T13:26:16Z</time></trkpt><trkpt lat="43.67966795297537" lon="12.226038030139591"><ele>816.0</ele><time>2026-04-20T13:26:17Z</time></trkpt><trkpt lat="43.67954694112877" lon="12.225964099839539"><ele>816.0</ele><time>2026-04-20T13:26:18Z</time></trkpt><trkpt lat="43.67943561155441" lon="12.225911190723792"><ele>816.0</ele><time>2026-04-20T13:26:19Z</time></trkpt><trkpt lat="43.67932907432898" lon="12.225863967896219"><ele>816.0</ele><time>2026-04-20T13:26:20Z</time></trkpt><trkpt lat="43.679225796846765" lon="12.225793978721478"><ele>815.75</ele><time>2026-04-20T13:26:21Z</time></trkpt><trkpt lat="43.67915148507707" lon="12.225689613419476"><ele>815.5</ele><time>2026-04-20T13:26:22Z</time></trkpt><trkpt lat="43.679061715920575" lon="12.225551505647532"><ele>815.25</ele><time>2026-04-20T13:26:23Z</time></trkpt><trkpt lat="43.67895301651755" lon="12.225389336933825"><ele>815.0</ele><time>2026-04-20T13:26:24Z</time></trkpt><trkpt lat="43.678846330060566" lon="12.225229160678648"><ele>812.3333333333334</ele><time>2026-04-20T13:26:25Z</time></trkpt><trkpt lat="43.67873841668052" lon="12.225065281924035"><ele>809.6666666666667</ele><time>2026-04-20T13:26:26Z</time></trkpt><trkpt lat="43.678628164312975" lon="12.22490165959809"><ele>807.0</ele><time>2026-04-20T13:26:27Z</time></trkpt><trkpt lat="43.678528239801764" lon="12.224722466205629"><ele>807.0</ele><time>2026-04-20T13:26:28Z</time></trkpt><trkpt lat="43.67843505761701" lon="12.224542317334148"><ele>807.0</ele><time>2026-04-20T13:26:29Z</time></trkpt><trkpt lat="43.67834397997881" lon="12.224354742236102"><ele>807.0</ele><time>2026-04-20T13:26:30Z</time></trkpt><trkpt lat="43.6782520455903" lon="12.224181619337742"><ele>807.0</ele><time>2026-04-20T13:26:31Z</time></trkpt><trkpt lat="43.67817270479776" lon="12.224028485187594"><ele>807.0</ele><time>2026-04-20T13:26:32Z</time></trkpt><trkpt lat="43.67810389688402" lon="12.223877807385334"><ele>807.0</ele><time>2026-04-20T13:26:33Z</time></trkpt><trkpt lat="43.678042530126426" lon="12.22375294759353"><ele>807.0</ele><time>2026-04-20T13:26:34Z</time></trkpt><trkpt lat="43.67796929175149" lon="12.22366805120893"><ele>805.8</ele><time>2026-04-20T13:26:35Z</time></trkpt><trkpt lat="43.67787595367422" lon="12.22361143716617"><ele>804.6</ele><time>2026-04-20T13:26:36Z</time></trkpt><trkpt lat="43.67775825072483" lon="12.223590126285695"><ele>803.4</ele><time>2026-04-20T13:26:37Z</time></trkpt><trkpt lat="43.67764846645074" lon="12.223537911956868"><ele>802.1999999999999</ele><time>2026-04-20T13:26:38Z</time></trkpt><trkpt lat="43.67755211428934" lon="12.223483630059814"><ele>801.0</ele><time>2026-04-20T13:26:39Z</time></trkpt><trkpt lat="43.67745445201098" lon="12.223415437556216"><ele>804.1999999999999</ele><time>2026-04-20T13:26:40Z</time></trkpt><trkpt lat="43.67738827074911" lon="12.223317613893816"><ele>807.4</ele><time>2026-04-20T13:26:41Z</time></trkpt><trkpt lat="43.67731656330029" lon="12.22319676890523"><ele>810.6</ele><time>2026-04-20T13:26:42Z</time></trkpt><trkpt lat="43.6772326662605" lon="12.22307965907578"><ele>813.8</ele><time>2026-04-20T13:26:43Z</time></trkpt><trkpt lat="43.67716457652612" lon="12.222944233273573"><ele>817.0</ele><time>2026-04-20T13:26:44Z</time></trkpt><trkpt lat="43.6771049526647" lon="12.222770911836555"><ele>817.0</ele><time>2026-04-20T13:26:45Z</time></trkpt><trkpt lat="43.67703935856006" lon="12.222612879032665"><ele>817.0</ele><time>2026-04-20T13:26:46Z</time></trkpt><trkpt lat="43.67699306894912" lon="12.222484301846105"><ele>817.0</ele><time>2026-04-20T13:26:47Z</time></trkpt><trkpt lat="43.676953330333596" lon="12.222342323929295"><ele>817.0</ele><time>2026-04-20T13:26:48Z</time></trkpt><trkpt lat="43.676948842304796" lon="12.222176597378976"><ele>816.25</ele><time>2026-04-20T13:26:49Z</time></trkpt><trkpt lat="43.67698544498784" lon="12.222020316140663"><ele>815.5</ele><time>2026-04-20T13:26:50Z</time></trkpt><trkpt lat="43.67700459701299" lon="12.221860106829395"><ele>814.75</ele><time>2026-04-20T13:26:51Z</time></trkpt><trkpt lat="43.677052376376636" lon="12.221709650200264"><ele>814.0</ele><time>2026-04-20T13:26:52Z</time></trkpt><trkpt lat="43.67706225044215" lon="12.22156864639946"><ele>814.0</ele><time>2026-04-20T13:26:53Z</time></trkpt><trkpt lat="43.6770771040106" lon="12.221433372358758"><ele>814.0</ele><time>2026-04-20T13:26:54Z</time></trkpt><trkpt lat="43.67706409797062" lon="12.22128906840865"><ele>814.0</ele><time>2026-04-20T13:26:55Z</time></trkpt><trkpt lat="43.67702269078939" lon="12.221135343695163"><ele>814.0</ele><time>2026-04-20T13:26:56Z</time></trkpt><trkpt lat="43.67696897821328" lon="12.221002438109787"><ele>814.0</ele><time>2026-04-20T13:26:57Z</time></trkpt><trkpt lat="43.67689492913278" lon="12.220886987566939"><ele>814.0</ele><time>2026-04-20T13:26:58Z</time></trkpt><trkpt lat="43.67680307423697" lon="12.220782461412927"><ele>814.0</ele><time>2026-04-20T13:26:59Z</time></trkpt><trkpt lat="43.676726341408624" lon="12.22066883712547"><ele>814.0</ele><time>2026-04-20T13:27:00Z</time></trkpt><trkpt lat="43.676661889750555" lon="12.220557817772194"><ele>814.0</ele><time>2026-04-20T13:27:01Z</time></trkpt><trkpt lat="43.6765928877206" lon="12.220465450919578"><ele>814.0</ele><time>2026-04-20T13:27:02Z</time></trkpt><trkpt lat="43.676510902465765" lon="12.220394686634105"><ele>810.8000000000001</ele><time>2026-04-20T13:27:03Z</time></trkpt><trkpt lat="43.67641241088951" lon="12.220362396246797"><ele>807.6</ele><time>2026-04-20T13:27:04Z</time></trkpt><trkpt lat="43.67629666234623" lon="12.22034863193669"><ele>804.4</ele><time>2026-04-20T13:27:05Z</time></trkpt><trkpt lat="43.676190783114" lon="12.220349071414924"><ele>801.2</ele><time>2026-04-20T13:27:06Z</time></trkpt><trkpt lat="43.67607477684229" lon="12.220372579226911"><ele>798.0</ele><time>2026-04-20T13:27:07Z</time></trkpt><trkpt lat="43.67596010121282" lon="12.22039418187116"><ele>797.8</ele><time>2026-04-20T13:27:08Z</time></trkpt><trkpt lat="43.67586401126957" lon="12.220401966424133"><ele>797.5999999999999</ele><time>2026-04-20T13:27:09Z</time></trkpt><trkpt lat="43.67576161212162" lon="12.220393228105978"><ele>797.4000000000001</ele><time>2026-04-20T13:27:10Z</time></trkpt><trkpt lat="43.67566204534138" lon="12.220387215970018"><ele>797.2</ele><time>2026-04-20T13:27:11Z</time></trkpt><trkpt lat="43.67558049651431" lon="12.220359330813164"><ele>797.0</ele><time>2026-04-20T13:27:12Z</time></trkpt><trkpt lat="43.67549842185536" lon="12.220354374901332"><ele>797.0</ele><time>2026-04-20T13:27:13Z</time></trkpt><trkpt lat="43.67538697646885" lon="12.220043178157509"><ele>797.0</ele><time>2026-04-20T13:27:14Z</time></trkpt><trkpt lat="43.67527457972051" lon="12.21992783027032"><ele>797.0</ele><time>2026-04-20T13:27:15Z</time></trkpt><trkpt lat="43.67517596333008" lon="12.219836156208638"><ele>793.75</ele><time>2026-04-20T13:27:16Z</time></trkpt><trkpt lat="43.67507774178061" lon="12.219747529290132"><ele>790.5</ele><time>2026-04-20T13:27:17Z</time></trkpt><trkpt lat="43.67498034427148" lon="12.21966259884167"><ele>787.25</ele><time>2026-04-20T13:27:18Z</time></trkpt><trkpt lat="43.67489587407743" lon="12.219554625879988"><ele>784.0</ele><time>2026-04-20T13:27:19Z</time></trkpt><trkpt lat="43.67482473255645" lon="12.219417015520122"><ele>784.0</ele><time>2026-04-20T13:27:20Z</time></trkpt><trkpt lat="43.674747361870196" lon="12.219297023992596"><ele>784.0</ele><time>2026-04-20T13:27:21Z</time></trkpt><trkpt lat="43.6746516608698" lon="12.219214221091176"><ele>784.0</ele><time>2026-04-20T13:27:22Z</time></trkpt><trkpt lat="43.674544641624074" lon="12.219168732040478"><ele>784.0</ele><time>2026-04-20T13:27:23Z</time></trkpt><trkpt lat="43.6744300464764" lon="12.219155496628993"><ele>783.75</ele><time>2026-04-20T13:27:24Z</time></trkpt><trkpt lat="43.674302004436896" lon="12.219166441930362"><ele>783.5</ele><time>2026-04-20T13:27:25Z</time></trkpt><trkpt lat="43.67416293649718" lon="12.21919563334035"><ele>783.25</ele><time>2026-04-20T13:27:26Z</time></trkpt><trkpt lat="43.67402574307599" lon="12.219232778891485"><ele>783.0</ele><time>2026-04-20T13:27:27Z</time></trkpt><trkpt lat="43.67388510339576" lon="12.219276768795746"><ele>783.0</ele><time>2026-04-20T13:27:28Z</time></trkpt><trkpt lat="43.67374093622867" lon="12.219327309167003"><ele>783.0</ele><time>2026-04-20T13:27:29Z</time></trkpt><trkpt lat="43.67359743161456" lon="12.21936123264493"><ele>783.0</ele><time>2026-04-20T13:27:30Z</time></trkpt><trkpt lat="43.6734556682915" lon="12.219392119183006"><ele>783.0</ele><time>2026-04-20T13:27:31Z</time></trkpt><trkpt lat="43.67331190199663" lon="12.21942623743201"><ele>780.25</ele><time>2026-04-20T13:27:32Z</time></trkpt><trkpt lat="43.67315335921989" lon="12.21946118132514"><ele>777.5</ele><time>2026-04-20T13:27:33Z</time></trkpt><trkpt lat="43.67301144360103" lon="12.219479907658858"><ele>774.75</ele><time>2026-04-20T13:27:34Z</time></trkpt><trkpt lat="43.67287286846368" lon="12.219527434172651"><ele>772.0</ele><time>2026-04-20T13:27:35Z</time></trkpt><trkpt lat="43.67274194505424" lon="12.219521074466284"><ele>770.0</ele><time>2026-04-20T13:27:36Z</time></trkpt><trkpt lat="43.67258636902902" lon="12.219527174825181"><ele>768.0</ele><time>2026-04-20T13:27:37Z</time></trkpt><trkpt lat="43.6724467504121" lon="12.219559561580377"><ele>766.0</ele><time>2026-04-20T13:27:38Z</time></trkpt><trkpt lat="43.672302549972905" lon="12.219625636294442"><ele>764.0</ele><time>2026-04-20T13:27:39Z</time></trkpt><trkpt lat="43.6721693041749" lon="12.219710672537246"><ele>764.0</ele><time>2026-04-20T13:27:40Z</time></trkpt><trkpt lat="43.6720463393727" lon="12.219793662666827"><ele>764.0</ele><time>2026-04-20T13:27:41Z</time></trkpt><trkpt lat="43.67193093925639" lon="12.21983847083562"><ele>764.0</ele><time>2026-04-20T13:27:42Z</time></trkpt><trkpt lat="43.67182353749352" lon="12.219867865479605"><ele>764.0</ele><time>2026-04-20T13:27:43Z</time></trkpt><trkpt lat="43.67172471123287" lon="12.219903716683541"><ele>766.4000000000001</ele><time>2026-04-20T13:27:44Z</time></trkpt><trkpt lat="43.67163500443994" lon="12.219964975110882"><ele>768.8</ele><time>2026-04-20T13:27:45Z</time></trkpt><trkpt lat="43.671555540533" lon="12.220024702003373"><ele>771.2</ele><time>2026-04-20T13:27:46Z</time></trkpt><trkpt lat="43.671459382106974" lon="12.220082024476152"><ele>773.5999999999999</ele><time>2026-04-20T13:27:47Z</time></trkpt><trkpt lat="43.671360717872645" lon="12.220160729421925"><ele>776.0</ele><time>2026-04-20T13:27:48Z</time></trkpt><trkpt lat="43.67128005750362" lon="12.220246768863904"><ele>776.0000000000001</ele><time>2026-04-20T13:27:49Z</time></trkpt><trkpt lat="43.67120895432084" lon="12.22032103331899"><ele>776.0</ele><time>2026-04-20T13:27:50Z</time></trkpt><trkpt lat="43.671126072882814" lon="12.220357105949114"><ele>776.0</ele><time>2026-04-20T13:27:51Z</time></trkpt><trkpt lat="43.67105110579476" lon="12.220350790372349"><ele>776.0</ele><time>2026-04-20T13:27:52Z</time></trkpt><trkpt lat="43.67097713362206" lon="12.22031252760586"><ele>776.0000000000001</ele><time>2026-04-20T13:27:53Z</time></trkpt><trkpt lat="43.670931090472315" lon="12.220226489600641"><ele>776.0</ele><time>2026-04-20T13:27:54Z</time></trkpt><trkpt lat="43.670918682944645" lon="12.22012243322235"><ele>773.0</ele><time>2026-04-20T13:27:55Z</time></trkpt><trkpt lat="43.67094200598751" lon="12.220016903298665"><ele>770.0</ele><time>2026-04-20T13:27:56Z</time></trkpt><trkpt lat="43.67100856417279" lon="12.21989820061902"><ele>767.0</ele><time>2026-04-20T13:27:57Z</time></trkpt><trkpt lat="43.6711067937849" lon="12.219794587068046"><ele>764.0</ele><time>2026-04-20T13:27:58Z</time></trkpt><trkpt lat="43.67120432616991" lon="12.219710376834618"><ele>761.0</ele><time>2026-04-20T13:27:59Z</time></trkpt><trkpt lat="43.67132691334333" lon="12.219615106719127"><ele>760.8</ele><time>2026-04-20T13:28:00Z</time></trkpt><trkpt lat="43.67142086219164" lon="12.219530981038547"><ele>760.5999999999999</ele><time>2026-04-20T13:28:01Z</time></trkpt><trkpt lat="43.67151083782762" lon="12.219466805443352"><ele>760.4</ele><time>2026-04-20T13:28:02Z</time></trkpt><trkpt lat="43.67158052027406" lon="12.219391765867815"><ele>760.2</ele><time>2026-04-20T13:28:03Z</time></trkpt><trkpt lat="43.67162276550667" lon="12.219293019762647"><ele>760.0</ele><time>2026-04-20T13:28:04Z</time></trkpt><trkpt lat="43.67162800905559" lon="12.219184601092161"><ele>760.0</ele><time>2026-04-20T13:28:05Z</time></trkpt><trkpt lat="43.67159832327772" lon="12.219077486683707"><ele>760.0</ele><time>2026-04-20T13:28:06Z</time></trkpt><trkpt lat="43.67154223370953" lon="12.219011154119148"><ele>760.0</ele><time>2026-04-20T13:28:07Z</time></trkpt><trkpt lat="43.67145289715875" lon="12.218974987901586"><ele>760.0</ele><time>2026-04-20T13:28:08Z</time></trkpt><trkpt lat="43.67135032726299" lon="12.219004472066093"><ele>760.0</ele><time>2026-04-20T13:28:09Z</time></trkpt><trkpt lat="43.6712487583053" lon="12.219078005682034"><ele>760.0</ele><time>2026-04-20T13:28:10Z</time></trkpt><trkpt lat="43.67114750012082" lon="12.219161910948486"><ele>760.0</ele><time>2026-04-20T13:28:11Z</time></trkpt><trkpt lat="43.67103643930116" lon="12.219255472156483"><ele>760.0</ele><time>2026-04-20T13:28:12Z</time></trkpt><trkpt lat="43.670914115458004" lon="12.219346034000454"><ele>760.0</ele><time>2026-04-20T13:28:13Z</time></trkpt><trkpt lat="43.67078575693558" lon="12.21939792533099"><ele>757.5</ele><time>2026-04-20T13:28:14Z</time></trkpt><trkpt lat="43.67068890492164" lon="12.219481186313313"><ele>755.0</ele><time>2026-04-20T13:28:15Z</time></trkpt><trkpt lat="43.67060227808737" lon="12.219564350648632"><ele>752.5</ele><time>2026-04-20T13:28:16Z</time></trkpt><trkpt lat="43.67052132647489" lon="12.21968531238945"><ele>750.0</ele><time>2026-04-20T13:28:17Z</time></trkpt><trkpt lat="43.670437481780176" lon="12.219811847106023"><ele>749.6</ele><time>2026-04-20T13:28:18Z</time></trkpt><trkpt lat="43.67035769277188" lon="12.219919888257362"><ele>749.2</ele><time>2026-04-20T13:28:19Z</time></trkpt><trkpt lat="43.67028523913871" lon="12.220003044177055"><ele>748.8</ele><time>2026-04-20T13:28:20Z</time></trkpt><trkpt lat="43.67021568838016" lon="12.220040814204031"><ele>748.4</ele><time>2026-04-20T13:28:21Z</time></trkpt><trkpt lat="43.670135913687766" lon="12.220020862438725"><ele>748.0</ele><time>2026-04-20T13:28:22Z</time></trkpt><trkpt lat="43.670036236639525" lon="12.219953890479717"><ele>748.0</ele><time>2026-04-20T13:28:23Z</time></trkpt><trkpt lat="43.669918577754046" lon="12.219863820343825"><ele>748.0</ele><time>2026-04-20T13:28:24Z</time></trkpt><trkpt lat="43.669814030827574" lon="12.219763491929802"><ele>748.0</ele><time>2026-04-20T13:28:25Z</time></trkpt><trkpt lat="43.66972332158546" lon="12.219646015918588"><ele>748.0</ele><time>2026-04-20T13:28:26Z</time></trkpt><trkpt lat="43.66963615739404" lon="12.219543583999547"><ele>744.5999999999999</ele><time>2026-04-20T13:28:27Z</time></trkpt><trkpt lat="43.66954841488362" lon="12.219470697093934"><ele>741.1999999999999</ele><time>2026-04-20T13:28:28Z</time></trkpt><trkpt lat="43.66944766559424" lon="12.219423065018457"><ele>737.8</ele><time>2026-04-20T13:28:29Z</time></trkpt><trkpt lat="43.669325264751315" lon="12.219402988873313"><ele>734.4</ele><time>2026-04-20T13:28:30Z</time></trkpt><trkpt lat="43.66922278512342" lon="12.21942741326345"><ele>731.0</ele><time>2026-04-20T13:28:31Z</time></trkpt><trkpt lat="43.66913310975702" lon="12.219479599151036"><ele>731.5999999999999</ele><time>2026-04-20T13:28:32Z</time></trkpt><trkpt lat="43.66904756882823" lon="12.219570641204974"><ele>732.2</ele><time>2026-04-20T13:28:33Z</time></trkpt><trkpt lat="43.66900013191523" lon="12.219716357362392"><ele>732.8</ele><time>2026-04-20T13:28:34Z</time></trkpt><trkpt lat="43.66898095885939" lon="12.219859347050471"><ele>733.4000000000001</ele><time>2026-04-20T13:28:35Z</time></trkpt><trkpt lat="43.66898008966135" lon="12.220024996425977"><ele>734.0</ele><time>2026-04-20T13:28:36Z</time></trkpt><trkpt lat="43.66899241953503" lon="12.220204295125669"><ele>734.0</ele><time>2026-04-20T13:28:37Z</time></trkpt><trkpt lat="43.66902692379189" lon="12.22039563673945"><ele>734.0</ele><time>2026-04-20T13:28:38Z</time></trkpt><trkpt lat="43.669051489893434" lon="12.220588111196227"><ele>734.0</ele><time>2026-04-20T13:28:39Z</time></trkpt><trkpt lat="43.669061206163725" lon="12.220776798264072"><ele>734.0</ele><time>2026-04-20T13:28:40Z</time></trkpt><trkpt lat="43.669079043861885" lon="12.22097424662911"><ele>734.0</ele><time>2026-04-20T13:28:41Z</time></trkpt><trkpt lat="43.6691034784454" lon="12.221171967749124"><ele>734.0</ele><time>2026-04-20T13:28:42Z</time></trkpt><trkpt lat="43.66912163841548" lon="12.22135325106218"><ele>734.0</ele><time>2026-04-20T13:28:43Z</time></trkpt><trkpt lat="43.66914359672366" lon="12.221534507356298"><ele>734.0</ele><time>2026-04-20T13:28:44Z</time></trkpt><trkpt lat="43.66917001119243" lon="12.221709504286919"><ele>732.5</ele><time>2026-04-20T13:28:45Z</time></trkpt><trkpt lat="43.66918228354197" lon="12.221888688306267"><ele>731.0</ele><time>2026-04-20T13:28:46Z</time></trkpt><trkpt lat="43.66918792603794" lon="12.222054890235187"><ele>729.5</ele><time>2026-04-20T13:28:47Z</time></trkpt><trkpt lat="43.6691918609892" lon="12.222226921662045"><ele>728.0</ele><time>2026-04-20T13:28:48Z</time></trkpt><trkpt lat="43.669207542742896" lon="12.222373848886239"><ele>728.0</ele><time>2026-04-20T13:28:49Z</time></trkpt><trkpt lat="43.66922095112221" lon="12.222510628457233"><ele>728.0</ele><time>2026-04-20T13:28:50Z</time></trkpt><trkpt lat="43.669205087022036" lon="12.222638768344524"><ele>728.0</ele><time>2026-04-20T13:28:51Z</time></trkpt><trkpt lat="43.669150476085505" lon="12.222765729641067"><ele>728.0</ele><time>2026-04-20T13:28:52Z</time></trkpt><trkpt lat="43.66909557845662" lon="12.222851090766605"><ele>728.0</ele><time>2026-04-20T13:28:53Z</time></trkpt><trkpt lat="43.66901757657251" lon="12.222919702551028"><ele>728.0</ele><time>2026-04-20T13:28:54Z</time></trkpt><trkpt lat="43.66893581436854" lon="12.22292184044753"><ele>728.0</ele><time>2026-04-20T13:28:55Z</time></trkpt><trkpt lat="43.66884964156414" lon="12.22287776175761"><ele>728.0</ele><time>2026-04-20T13:28:56Z</time></trkpt><trkpt lat="43.66873224674389" lon="12.222797880314406"><ele>728.0</ele><time>2026-04-20T13:28:57Z</time></trkpt><trkpt lat="43.66862537973742" lon="12.222686542223695"><ele>728.0</ele><time>2026-04-20T13:28:58Z</time></trkpt><trkpt lat="43.66852236673863" lon="12.222563123682034"><ele>724.75</ele><time>2026-04-20T13:28:59Z</time></trkpt><trkpt lat="43.66844494050655" lon="12.222449576504767"><ele>721.5</ele><time>2026-04-20T13:29:00Z</time></trkpt><trkpt lat="43.66835702354269" lon="12.222399022861769"><ele>718.25</ele><time>2026-04-20T13:29:01Z</time></trkpt><trkpt lat="43.66827676679731" lon="12.222359700108175"><ele>715.0</ele><time>2026-04-20T13:29:02Z</time></trkpt><trkpt lat="43.668112784468704" lon="12.222364657688397"><ele>715.0</ele><time>2026-04-20T13:29:03Z</time></trkpt><trkpt lat="43.668001001002" lon="12.222411844162233"><ele>715.0</ele><time>2026-04-20T13:29:04Z</time></trkpt><trkpt lat="43.66788618246986" lon="12.222492298255881"><ele>715.0</ele><time>2026-04-20T13:29:05Z</time></trkpt><trkpt lat="43.66778548274163" lon="12.222604356763686"><ele>715.0</ele><time>2026-04-20T13:29:06Z</time></trkpt><trkpt lat="43.66770114821362" lon="12.222732412237235"><ele>712.0</ele><time>2026-04-20T13:29:07Z</time></trkpt><trkpt lat="43.66762495499979" lon="12.222837057097642"><ele>709.0</ele><time>2026-04-20T13:29:08Z</time></trkpt><trkpt lat="43.667542562905" lon="12.222869953922128"><ele>706.0</ele><time>2026-04-20T13:29:09Z</time></trkpt><trkpt lat="43.66744157149284" lon="12.222847536329192"><ele>703.0</ele><time>2026-04-20T13:29:10Z</time></trkpt><trkpt lat="43.66730993162855" lon="12.222809364830932"><ele>700.0</ele><time>2026-04-20T13:29:11Z</time></trkpt><trkpt lat="43.667192684624325" lon="12.222769407089627"><ele>700.0</ele><time>2026-04-20T13:29:12Z</time></trkpt><trkpt lat="43.66708503561403" lon="12.222729820094402"><ele>700.0</ele><time>2026-04-20T13:29:13Z</time></trkpt><trkpt lat="43.666977745542404" lon="12.222739967476242"><ele>700.0</ele><time>2026-04-20T13:29:14Z</time></trkpt><trkpt lat="43.66686156526007" lon="12.222796820156578"><ele>700.0</ele><time>2026-04-20T13:29:15Z</time></trkpt><trkpt lat="43.66674773697213" lon="12.222860331037095"><ele>697.6</ele><time>2026-04-20T13:29:16Z</time></trkpt><trkpt lat="43.66665963572886" lon="12.222913996705907"><ele>695.2</ele><time>2026-04-20T13:29:17Z</time></trkpt><trkpt lat="43.66659058796499" lon="12.222948821782193"><ele>692.8</ele><time>2026-04-20T13:29:18Z</time></trkpt><trkpt lat="43.66649486225521" lon="12.222849452806779"><ele>690.4</ele><time>2026-04-20T13:29:20Z</time></trkpt><trkpt lat="43.666472471893535" lon="12.222737565887561"><ele>688.0</ele><time>2026-04-20T13:29:21Z</time></trkpt><trkpt lat="43.66648561238676" lon="12.222629581165771"><ele>688.0</ele><time>2026-04-20T13:29:22Z</time></trkpt><trkpt lat="43.66653200006697" lon="12.222542275109221"><ele>688.0</ele><time>2026-04-20T13:29:23Z</time></trkpt><trkpt lat="43.66660031862254" lon="12.222483842511272"><ele>688.0</ele><time>2026-04-20T13:29:24Z</time></trkpt><trkpt lat="43.666696765515596" lon="12.222436463743312"><ele>688.0</ele><time>2026-04-20T13:29:25Z</time></trkpt><trkpt lat="43.66681065159561" lon="12.222406677719668"><ele>688.0</ele><time>2026-04-20T13:29:26Z</time></trkpt><trkpt lat="43.66693982552222" lon="12.222382852031224"><ele>691.0</ele><time>2026-04-20T13:29:27Z</time></trkpt><trkpt lat="43.66708190829535" lon="12.222374133866097"><ele>694.0</ele><time>2026-04-20T13:29:28Z</time></trkpt><trkpt lat="43.66720654055376" lon="12.222375177384388"><ele>697.0</ele><time>2026-04-20T13:29:29Z</time></trkpt><trkpt lat="43.66731936442102" lon="12.222376582980674"><ele>700.0</ele><time>2026-04-20T13:29:30Z</time></trkpt><trkpt lat="43.667420044863356" lon="12.222351192624656"><ele>696.8333333333334</ele><time>2026-04-20T13:29:31Z</time></trkpt><trkpt lat="43.667500994363266" lon="12.22227641427016"><ele>693.6666666666667</ele><time>2026-04-20T13:29:32Z</time></trkpt><trkpt lat="43.66754906125504" lon="12.22219470590469"><ele>690.5</ele><time>2026-04-20T13:29:33Z</time></trkpt><trkpt lat="43.667575026627134" lon="12.222085671815174"><ele>687.3333333333334</ele><time>2026-04-20T13:29:34Z</time></trkpt><trkpt lat="43.66756871130225" lon="12.221956640548303"><ele>684.1666666666666</ele><time>2026-04-20T13:29:35Z</time></trkpt><trkpt lat="43.667525628531806" lon="12.221855801261212"><ele>681.0</ele><time>2026-04-20T13:29:36Z</time></trkpt><trkpt lat="43.66744939516715" lon="12.22178709331623"><ele>681.0</ele><time>2026-04-20T13:29:37Z</time></trkpt><trkpt lat="43.66736056211649" lon="12.221777506499434"><ele>681.0</ele><time>2026-04-20T13:29:38Z</time></trkpt><trkpt lat="43.66724467968591" lon="12.221822107630762"><ele>681.0</ele><time>2026-04-20T13:29:39Z</time></trkpt><trkpt lat="43.66710175535251" lon="12.22188001503411"><ele>681.0</ele><time>2026-04-20T13:29:40Z</time></trkpt><trkpt lat="43.66694409792209" lon="12.221936160376075"><ele>677.5</ele><time>2026-04-20T13:29:41Z</time></trkpt><trkpt lat="43.666809744546605" lon="12.221948492215722"><ele>674.0</ele><time>2026-04-20T13:29:42Z</time></trkpt><trkpt lat="43.666682468545346" lon="12.221945202287758"><ele>670.5</ele><time>2026-04-20T13:29:43Z</time></trkpt><trkpt lat="43.666572427619336" lon="12.221957975007543"><ele>667.0</ele><time>2026-04-20T13:29:44Z</time></trkpt><trkpt lat="43.6664645073572" lon="12.221979908662453"><ele>667.0</ele><time>2026-04-20T13:29:45Z</time></trkpt><trkpt lat="43.666354221100704" lon="12.22204614370189"><ele>667.0</ele><time>2026-04-20T13:29:46Z</time></trkpt><trkpt lat="43.666253399051435" lon="12.222148756753452"><ele>667.0</ele><time>2026-04-20T13:29:47Z</time></trkpt><trkpt lat="43.666165105501804" lon="12.222272028377107"><ele>667.0</ele><time>2026-04-20T13:29:48Z</time></trkpt><trkpt lat="43.66609271998719" lon="12.222407667864163"><ele>665.25</ele><time>2026-04-20T13:29:49Z</time></trkpt><trkpt lat="43.66604601212455" lon="12.222549885926703"><ele>663.5</ele><time>2026-04-20T13:29:50Z</time></trkpt><trkpt lat="43.66601840114154" lon="12.222712315715725"><ele>661.75</ele><time>2026-04-20T13:29:51Z</time></trkpt><trkpt lat="43.66600027422186" lon="12.222868394183662"><ele>660.0</ele><time>2026-04-20T13:29:52Z</time></trkpt><trkpt lat="43.66596506809757" lon="12.223016915928255"><ele>662.0</ele><time>2026-04-20T13:29:53Z</time></trkpt><trkpt lat="43.665905523081854" lon="12.223150151694803"><ele>664.0</ele><time>2026-04-20T13:29:54Z</time></trkpt><trkpt lat="43.665820962839554" lon="12.223273931317806"><ele>666.0</ele><time>2026-04-20T13:29:55Z</time></trkpt><trkpt lat="43.66572770418643" lon="12.223382395079026"><ele>668.0</ele><time>2026-04-20T13:29:56Z</time></trkpt><trkpt lat="43.66564228939046" lon="12.223505134439513"><ele>668.0</ele><time>2026-04-20T13:29:57Z</time></trkpt><trkpt lat="43.66557655659424" lon="12.223664956811199"><ele>668.0</ele><time>2026-04-20T13:29:58Z</time></trkpt><trkpt lat="43.66552289607586" lon="12.223813070020793"><ele>668.0</ele><time>2026-04-20T13:29:59Z</time></trkpt><trkpt lat="43.66547933012977" lon="12.223951359673379"><ele>668.0</ele><time>2026-04-20T13:30:00Z</time></trkpt><trkpt lat="43.66544292558404" lon="12.224070864751608"><ele>670.5999999999999</ele><time>2026-04-20T13:30:01Z</time></trkpt><trkpt lat="43.665411826871185" lon="12.22419549226875"><ele>673.1999999999999</ele><time>2026-04-20T13:30:02Z</time></trkpt><trkpt lat="43.665410063827075" lon="12.224312478603785"><ele>675.8</ele><time>2026-04-20T13:30:03Z</time></trkpt><trkpt lat="43.665422900216896" lon="12.2244377552169"><ele>678.4</ele><time>2026-04-20T13:30:04Z</time></trkpt><trkpt lat="43.66544127053308" lon="12.224574467470916"><ele>681.0</ele><time>2026-04-20T13:30:05Z</time></trkpt><trkpt lat="43.6654557563951" lon="12.224696544051577"><ele>681.0</ele><time>2026-04-20T13:30:06Z</time></trkpt><trkpt lat="43.665437451211076" lon="12.224790999425416"><ele>681.0</ele><time>2026-04-20T13:30:07Z</time></trkpt><trkpt lat="43.665393180551995" lon="12.224874440947863"><ele>681.0</ele><time>2026-04-20T13:30:08Z</time></trkpt><trkpt lat="43.665337971506965" lon="12.224923051663923"><ele>681.0</ele><time>2026-04-20T13:30:09Z</time></trkpt><trkpt lat="43.665240376139636" lon="12.224933491530026"><ele>681.0</ele><time>2026-04-20T13:30:10Z</time></trkpt><trkpt lat="43.66512403646872" lon="12.224944101568298"><ele>681.0</ele><time>2026-04-20T13:30:11Z</time></trkpt><trkpt lat="43.66499561415661" lon="12.22491809849322"><ele>675.5</ele><time>2026-04-20T13:30:12Z</time></trkpt><trkpt lat="43.66485792435521" lon="12.224900509630439"><ele>670.0</ele><time>2026-04-20T13:30:13Z</time></trkpt><trkpt lat="43.66473609761205" lon="12.224888820935057"><ele>664.5</ele><time>2026-04-20T13:30:14Z</time></trkpt><trkpt lat="43.66462951223623" lon="12.224891220532838"><ele>659.0</ele><time>2026-04-20T13:30:15Z</time></trkpt><trkpt lat="43.664521905362605" lon="12.224883405150505"><ele>656.75</ele><time>2026-04-20T13:30:16Z</time></trkpt><trkpt lat="43.66440036679288" lon="12.224898901811473"><ele>654.5</ele><time>2026-04-20T13:30:17Z</time></trkpt><trkpt lat="43.6642804039595" lon="12.22496238244135"><ele>652.25</ele><time>2026-04-20T13:30:18Z</time></trkpt><trkpt lat="43.66415464262519" lon="12.225025614508393"><ele>650.0</ele><time>2026-04-20T13:30:19Z</time></trkpt><trkpt lat="43.66404781191386" lon="12.225040162272048"><ele>650.0</ele><time>2026-04-20T13:30:20Z</time></trkpt><trkpt lat="43.66394046367082" lon="12.225010561224641"><ele>650.0</ele><time>2026-04-20T13:30:21Z</time></trkpt><trkpt lat="43.66386014601239" lon="12.22494528344125"><ele>650.0</ele><time>2026-04-20T13:30:22Z</time></trkpt><trkpt lat="43.663761591588994" lon="12.224854835772618"><ele>650.0</ele><time>2026-04-20T13:30:23Z</time></trkpt><trkpt lat="43.6636604384583" lon="12.224780887882092"><ele>650.0</ele><time>2026-04-20T13:30:24Z</time></trkpt><trkpt lat="43.66355509310662" lon="12.224714867197722"><ele>644.2</ele><time>2026-04-20T13:30:25Z</time></trkpt><trkpt lat="43.66345511006511" lon="12.224667292621415"><ele>638.4</ele><time>2026-04-20T13:30:26Z</time></trkpt><trkpt lat="43.663376003257376" lon="12.224638589770093"><ele>632.6</ele><time>2026-04-20T13:30:27Z</time></trkpt><trkpt lat="43.66330470092495" lon="12.224630849472646"><ele>626.8</ele><time>2026-04-20T13:30:28Z</time></trkpt><trkpt lat="43.66320526164133" lon="12.224657930067222"><ele>621.0</ele><time>2026-04-20T13:30:29Z</time></trkpt><trkpt lat="43.66310352929691" lon="12.224735751380893"><ele>620.6</ele><time>2026-04-20T13:30:30Z</time></trkpt><trkpt lat="43.66301169074503" lon="12.224831139022637"><ele>620.2</ele><time>2026-04-20T13:30:31Z</time></trkpt><trkpt lat="43.662930940140576" lon="12.224911111389796"><ele>619.8</ele><time>2026-04-20T13:30:32Z</time></trkpt><trkpt lat="43.662840303906414" lon="12.225022843921947"><ele>619.4</ele><time>2026-04-20T13:30:33Z</time></trkpt><trkpt lat="43.66277812972525" lon="12.225135346727532"><ele>619.0</ele><time>2026-04-20T13:30:34Z</time></trkpt><trkpt lat="43.662694828286924" lon="12.225233975907761"><ele>619.0</ele><time>2026-04-20T13:30:35Z</time></trkpt><trkpt lat="43.662581131990486" lon="12.225298023678473"><ele>619.0</ele><time>2026-04-20T13:30:36Z</time></trkpt><trkpt lat="43.66246980693776" lon="12.22533227214061"><ele>619.0</ele><time>2026-04-20T13:30:37Z</time></trkpt><trkpt lat="43.66235513571942" lon="12.225415072606536"><ele>619.0</ele><time>2026-04-20T13:30:38Z</time></trkpt><trkpt lat="43.66228118926155" lon="12.225503925242613"><ele>619.0</ele><time>2026-04-20T13:30:39Z</time></trkpt><trkpt lat="43.662210063732715" lon="12.225584126016157"><ele>619.0</ele><time>2026-04-20T13:30:40Z</time></trkpt><trkpt lat="43.66216233036919" lon="12.225676863642917"><ele>619.0</ele><time>2026-04-20T13:30:41Z</time></trkpt><trkpt lat="43.66210836009951" lon="12.22581035590473"><ele>619.0</ele><time>2026-04-20T13:30:42Z</time></trkpt><trkpt lat="43.662076851661055" lon="12.22596191585564"><ele>619.0</ele><time>2026-04-20T13:30:43Z</time></trkpt><trkpt lat="43.66207768827594" lon="12.226123473418866"><ele>625.0</ele><time>2026-04-20T13:30:44Z</time></trkpt><trkpt lat="43.66207360934562" lon="12.226312441688123"><ele>631.0</ele><time>2026-04-20T13:30:45Z</time></trkpt><trkpt lat="43.66205423445352" lon="12.22647270647082"><ele>637.0</ele><time>2026-04-20T13:30:46Z</time></trkpt><trkpt lat="43.66205341023293" lon="12.226621884392452"><ele>643.0</ele><time>2026-04-20T13:30:47Z</time></trkpt><trkpt lat="43.66204938522595" lon="12.22674441607754"><ele>645.5999999999999</ele><time>2026-04-20T13:30:48Z</time></trkpt><trkpt lat="43.662041494530136" lon="12.226847038134107"><ele>648.1999999999999</ele><time>2026-04-20T13:30:49Z</time></trkpt><trkpt lat="43.66200675645963" lon="12.226996522818236"><ele>650.8</ele><time>2026-04-20T13:30:51Z</time></trkpt><trkpt lat="43.66190336772042" lon="12.227047354285254"><ele>653.4</ele><time>2026-04-20T13:30:53Z</time></trkpt><trkpt lat="43.661817459877646" lon="12.226921218546956"><ele>656.0</ele><time>2026-04-20T13:30:55Z</time></trkpt><trkpt lat="43.66182127529173" lon="12.226812445431747"><ele>645.75</ele><time>2026-04-20T13:30:56Z</time></trkpt><trkpt lat="43.66184132490009" lon="12.226654403724494"><ele>635.5</ele><time>2026-04-20T13:30:57Z</time></trkpt><trkpt lat="43.66187331100832" lon="12.226467603650859"><ele>625.25</ele><time>2026-04-20T13:30:58Z</time></trkpt><trkpt lat="43.661902216472406" lon="12.226258008049488"><ele>615.0</ele><time>2026-04-20T13:30:59Z</time></trkpt><trkpt lat="43.66191671573587" lon="12.226073285775048"><ele>614.6</ele><time>2026-04-20T13:31:00Z</time></trkpt><trkpt lat="43.66191223895698" lon="12.2259025886784"><ele>614.2</ele><time>2026-04-20T13:31:01Z</time></trkpt><trkpt lat="43.66191528554833" lon="12.225743795034543"><ele>613.8</ele><time>2026-04-20T13:31:02Z</time></trkpt><trkpt lat="43.661927569941795" lon="12.225604494148643"><ele>613.4</ele><time>2026-04-20T13:31:03Z</time></trkpt><trkpt lat="43.66193537349737" lon="12.225507234492024"><ele>613.0</ele><time>2026-04-20T13:31:04Z</time></trkpt><trkpt lat="43.66193472490758" lon="12.225416972527606"><ele>613.0</ele><time>2026-04-20T13:31:05Z</time></trkpt><trkpt lat="43.661896643462114" lon="12.2253474850792"><ele>613.0</ele><time>2026-04-20T13:31:06Z</time></trkpt><trkpt lat="43.66183530193413" lon="12.225322939871369"><ele>613.0</ele><time>2026-04-20T13:31:07Z</time></trkpt><trkpt lat="43.66176525526609" lon="12.225356516207306"><ele>613.0</ele><time>2026-04-20T13:31:08Z</time></trkpt><trkpt lat="43.66171020405852" lon="12.225445015870323"><ele>613.0</ele><time>2026-04-20T13:31:09Z</time></trkpt><trkpt lat="43.66169030108903" lon="12.22558066838962"><ele>613.0</ele><time>2026-04-20T13:31:10Z</time></trkpt><trkpt lat="43.66170363112571" lon="12.225758002947208"><ele>613.0</ele><time>2026-04-20T13:31:11Z</time></trkpt><trkpt lat="43.661707367493946" lon="12.225954349583006"><ele>613.0</ele><time>2026-04-20T13:31:12Z</time></trkpt><trkpt lat="43.66169007171165" lon="12.226122508034832"><ele>613.0</ele><time>2026-04-20T13:31:13Z</time></trkpt><trkpt lat="43.66166347959716" lon="12.226282365307851"><ele>613.0</ele><time>2026-04-20T13:31:14Z</time></trkpt><trkpt lat="43.66164101637421" lon="12.226435350205152"><ele>613.4</ele><time>2026-04-20T13:31:15Z</time></trkpt><trkpt lat="43.66161038849147" lon="12.226579248785612"><ele>613.8</ele><time>2026-04-20T13:31:16Z</time></trkpt><trkpt lat="43.66155313111896" lon="12.22673299159931"><ele>614.2</ele><time>2026-04-20T13:31:17Z</time></trkpt><trkpt lat="43.66149482283839" lon="12.226842335045363"><ele>614.6</ele><time>2026-04-20T13:31:18Z</time></trkpt><trkpt lat="43.661417030715356" lon="12.226946123920133"><ele>615.0</ele><time>2026-04-20T13:31:19Z</time></trkpt><trkpt lat="43.66130977580895" lon="12.227042514193334"><ele>615.0</ele><time>2026-04-20T13:31:20Z</time></trkpt><trkpt lat="43.66119205912304" lon="12.227143251832809"><ele>615.0</ele><time>2026-04-20T13:31:21Z</time></trkpt><trkpt lat="43.66106856574666" lon="12.227221583555165"><ele>615.0</ele><time>2026-04-20T13:31:22Z</time></trkpt><trkpt lat="43.66093884697291" lon="12.227302422503149"><ele>615.0</ele><time>2026-04-20T13:31:23Z</time></trkpt><trkpt lat="43.660801143357546" lon="12.227372414385512"><ele>611.75</ele><time>2026-04-20T13:31:24Z</time></trkpt><trkpt lat="43.66065441121289" lon="12.227425434627873"><ele>608.5</ele><time>2026-04-20T13:31:25Z</time></trkpt><trkpt lat="43.66052115791161" lon="12.22747831153062"><ele>605.25</ele><time>2026-04-20T13:31:26Z</time></trkpt><trkpt lat="43.66037725108229" lon="12.22755900723277"><ele>602.0</ele><time>2026-04-20T13:31:27Z</time></trkpt><trkpt lat="43.660221176485265" lon="12.227610758813112"><ele>601.25</ele><time>2026-04-20T13:31:28Z</time></trkpt><trkpt lat="43.66013415016173" lon="12.227667467470988"><ele>600.5</ele><time>2026-04-20T13:31:29Z</time></trkpt><trkpt lat="43.66003084050071" lon="12.227769485100557"><ele>599.75</ele><time>2026-04-20T13:31:30Z</time></trkpt><trkpt lat="43.659934367478186" lon="12.227893254205856"><ele>599.0</ele><time>2026-04-20T13:31:31Z</time></trkpt><trkpt lat="43.659843076792775" lon="12.227997812372871"><ele>599.0</ele><time>2026-04-20T13:31:32Z</time></trkpt><trkpt lat="43.65974564095735" lon="12.22808931611062"><ele>599.0</ele><time>2026-04-20T13:31:33Z</time></trkpt><trkpt lat="43.65962163432093" lon="12.228149699295253"><ele>599.0</ele><time>2026-04-20T13:31:34Z</time></trkpt><trkpt lat="43.65949851693618" lon="12.228184439409917"><ele>599.0</ele><time>2026-04-20T13:31:35Z</time></trkpt><trkpt lat="43.65936223205429" lon="12.22819302722726"><ele>598.25</ele><time>2026-04-20T13:31:36Z</time></trkpt><trkpt lat="43.659223650389876" lon="12.228179164128314"><ele>597.5</ele><time>2026-04-20T13:31:37Z</time></trkpt><trkpt lat="43.65909207860336" lon="12.228160481108501"><ele>596.75</ele><time>2026-04-20T13:31:38Z</time></trkpt><trkpt lat="43.658983627695285" lon="12.22812458170826"><ele>596.0</ele><time>2026-04-20T13:31:39Z</time></trkpt><trkpt lat="43.658895170584046" lon="12.228079935546619"><ele>596.0</ele><time>2026-04-20T13:31:40Z</time></trkpt><trkpt lat="43.65881333036941" lon="12.227990572122803"><ele>596.0</ele><time>2026-04-20T13:31:41Z</time></trkpt><trkpt lat="43.65874869801885" lon="12.227874032742863"><ele>596.0</ele><time>2026-04-20T13:31:42Z</time></trkpt><trkpt lat="43.65868638830562" lon="12.227763240589743"><ele>596.0</ele><time>2026-04-20T13:31:43Z</time></trkpt><trkpt lat="43.65854467491567" lon="12.22776127530074"><ele>596.8</ele><time>2026-04-20T13:31:45Z</time></trkpt><trkpt lat="43.65846996649116" lon="12.22782050536639"><ele>597.6</ele><time>2026-04-20T13:31:46Z</time></trkpt><trkpt lat="43.658395433354244" lon="12.227895982572624"><ele>598.4</ele><time>2026-04-20T13:31:47Z</time></trkpt><trkpt lat="43.658310704994136" lon="12.227981926891909"><ele>599.2</ele><time>2026-04-20T13:31:48Z</time></trkpt><trkpt lat="43.65818828944469" lon="12.228024968488212"><ele>600.0</ele><time>2026-04-20T13:31:49Z</time></trkpt><trkpt lat="43.658071703454006" lon="12.22804850709556"><ele>600.0</ele><time>2026-04-20T13:31:50Z</time></trkpt><trkpt lat="43.65796500677708" lon="12.22807967953194"><ele>600.0</ele><time>2026-04-20T13:31:51Z</time></trkpt><trkpt lat="43.65783992084094" lon="12.228139892567084"><ele>600.0</ele><time>2026-04-20T13:31:52Z</time></trkpt><trkpt lat="43.657725955418094" lon="12.228227607551586"><ele>600.0</ele><time>2026-04-20T13:31:53Z</time></trkpt><trkpt lat="43.657610750155264" lon="12.228331549470935"><ele>600.75</ele><time>2026-04-20T13:31:54Z</time></trkpt><trkpt lat="43.65749448573779" lon="12.228426087464793"><ele>601.5</ele><time>2026-04-20T13:31:55Z</time></trkpt><trkpt lat="43.65737193481256" lon="12.228512208183686"><ele>602.25</ele><time>2026-04-20T13:31:56Z</time></trkpt><trkpt lat="43.65725984124793" lon="12.228593551376179"><ele>603.0</ele><time>2026-04-20T13:31:57Z</time></trkpt><trkpt lat="43.65713750643394" lon="12.228692011961268"><ele>603.0</ele><time>2026-04-20T13:31:58Z</time></trkpt><trkpt lat="43.65701185014298" lon="12.228790514225498"><ele>603.0</ele><time>2026-04-20T13:31:59Z</time></trkpt><trkpt lat="43.656894331511914" lon="12.228884734737958"><ele>603.0</ele><time>2026-04-20T13:32:00Z</time></trkpt><trkpt lat="43.6567618275977" lon="12.228963935514546"><ele>603.0</ele><time>2026-04-20T13:32:01Z</time></trkpt><trkpt lat="43.65662657192847" lon="12.229020719619534"><ele>604.25</ele><time>2026-04-20T13:32:02Z</time></trkpt><trkpt lat="43.65649103044437" lon="12.229089959595237"><ele>605.5</ele><time>2026-04-20T13:32:03Z</time></trkpt><trkpt lat="43.656363029833734" lon="12.22915136143408"><ele>606.75</ele><time>2026-04-20T13:32:04Z</time></trkpt><trkpt lat="43.656241313137585" lon="12.229240705230568"><ele>608.0</ele><time>2026-04-20T13:32:05Z</time></trkpt><trkpt lat="43.65613553804265" lon="12.229334929278181"><ele>604.25</ele><time>2026-04-20T13:32:06Z</time></trkpt><trkpt lat="43.65603307008765" lon="12.22943807163053"><ele>600.5</ele><time>2026-04-20T13:32:07Z</time></trkpt><trkpt lat="43.65593377976175" lon="12.2295523892967"><ele>596.75</ele><time>2026-04-20T13:32:08Z</time></trkpt><trkpt lat="43.65583662117971" lon="12.229662976893565"><ele>593.0</ele><time>2026-04-20T13:32:09Z</time></trkpt><trkpt lat="43.655737807547624" lon="12.229769629707913"><ele>593.0</ele><time>2026-04-20T13:32:10Z</time></trkpt><trkpt lat="43.655647658088746" lon="12.229866677663225"><ele>593.0</ele><time>2026-04-20T13:32:11Z</time></trkpt><trkpt lat="43.65557293914887" lon="12.22993913672373"><ele>593.0</ele><time>2026-04-20T13:32:12Z</time></trkpt><trkpt lat="43.655461673920875" lon="12.229964072070345"><ele>593.0</ele><time>2026-04-20T13:32:13Z</time></trkpt><trkpt lat="43.65535667365505" lon="12.229944729598005"><ele>593.0</ele><time>2026-04-20T13:32:14Z</time></trkpt><trkpt lat="43.65524334825378" lon="12.229908986107896"><ele>593.0</ele><time>2026-04-20T13:32:15Z</time></trkpt><trkpt lat="43.655143161565874" lon="12.229911792488448"><ele>593.0</ele><time>2026-04-20T13:32:16Z</time></trkpt><trkpt lat="43.65504335906802" lon="12.229963594039388"><ele>593.0</ele><time>2026-04-20T13:32:17Z</time></trkpt><trkpt lat="43.65492794227432" lon="12.230025416093053"><ele>593.0</ele><time>2026-04-20T13:32:18Z</time></trkpt><trkpt lat="43.65480476198105" lon="12.230105048247925"><ele>593.0</ele><time>2026-04-20T13:32:19Z</time></trkpt><trkpt lat="43.654687712666146" lon="12.230205234134344"><ele>593.0</ele><time>2026-04-20T13:32:20Z</time></trkpt><trkpt lat="43.654559565970224" lon="12.230312125490698"><ele>593.0</ele><time>2026-04-20T13:32:21Z</time></trkpt><trkpt lat="43.65443193727497" lon="12.230419732711283"><ele>593.0</ele><time>2026-04-20T13:32:22Z</time></trkpt><trkpt lat="43.65429044277368" lon="12.230527118789118"><ele>594.6666666666666</ele><time>2026-04-20T13:32:23Z</time></trkpt><trkpt lat="43.654141539589716" lon="12.230645500119968"><ele>596.3333333333334</ele><time>2026-04-20T13:32:24Z</time></trkpt><trkpt lat="43.65400145169764" lon="12.230752122099458"><ele>598.0</ele><time>2026-04-20T13:32:25Z</time></trkpt><trkpt lat="43.65386637695251" lon="12.230853888530811"><ele>598.0</ele><time>2026-04-20T13:32:26Z</time></trkpt><trkpt lat="43.65374276562603" lon="12.230952352080129"><ele>598.0</ele><time>2026-04-20T13:32:27Z</time></trkpt><trkpt lat="43.65361638753809" lon="12.231041859286051"><ele>598.0</ele><time>2026-04-20T13:32:28Z</time></trkpt><trkpt lat="43.65350039922383" lon="12.231138232263845"><ele>598.0</ele><time>2026-04-20T13:32:29Z</time></trkpt><trkpt lat="43.653392920394026" lon="12.231233540954463"><ele>595.0</ele><time>2026-04-20T13:32:30Z</time></trkpt><trkpt lat="43.65329769822167" lon="12.23133327829663"><ele>592.0</ele><time>2026-04-20T13:32:31Z</time></trkpt><trkpt lat="43.653214694130035" lon="12.23146295112368"><ele>589.0</ele><time>2026-04-20T13:32:32Z</time></trkpt><trkpt lat="43.653147644213405" lon="12.231604044243479"><ele>586.0</ele><time>2026-04-20T13:32:33Z</time></trkpt><trkpt lat="43.653082371436554" lon="12.231745692699894"><ele>586.0</ele><time>2026-04-20T13:32:34Z</time></trkpt><trkpt lat="43.653029957944234" lon="12.231875957138326"><ele>586.0</ele><time>2026-04-20T13:32:35Z</time></trkpt><trkpt lat="43.65299753930352" lon="12.232001203827414"><ele>586.0</ele><time>2026-04-20T13:32:36Z</time></trkpt><trkpt lat="43.65297339169635" lon="12.232121639886882"><ele>586.0</ele><time>2026-04-20T13:32:37Z</time></trkpt><trkpt lat="43.65296397480817" lon="12.232263503409946"><ele>586.0</ele><time>2026-04-20T13:32:38Z</time></trkpt><trkpt lat="43.65297107906038" lon="12.23241334960558"><ele>588.25</ele><time>2026-04-20T13:32:39Z</time></trkpt><trkpt lat="43.652979770677454" lon="12.232592387416988"><ele>590.5</ele><time>2026-04-20T13:32:40Z</time></trkpt><trkpt lat="43.65298650275673" lon="12.232778050280729"><ele>592.75</ele><time>2026-04-20T13:32:41Z</time></trkpt><trkpt lat="43.652993938520304" lon="12.232982433222801"><ele>595.0</ele><time>2026-04-20T13:32:42Z</time></trkpt><trkpt lat="43.65299299647317" lon="12.2331813415111"><ele>595.25</ele><time>2026-04-20T13:32:43Z</time></trkpt><trkpt lat="43.65299010168998" lon="12.233379268206686"><ele>595.5</ele><time>2026-04-20T13:32:44Z</time></trkpt><trkpt lat="43.652990208407125" lon="12.233581864450706"><ele>595.75</ele><time>2026-04-20T13:32:45Z</time></trkpt><trkpt lat="43.65298990922305" lon="12.233785368881177"><ele>596.0</ele><time>2026-04-20T13:32:46Z</time></trkpt><trkpt lat="43.65299008298345" lon="12.233995188752639"><ele>594.5</ele><time>2026-04-20T13:32:47Z</time></trkpt><trkpt lat="43.652990421999725" lon="12.234193322432649"><ele>593.0</ele><time>2026-04-20T13:32:48Z</time></trkpt><trkpt lat="43.652989054843694" lon="12.234371953229362"><ele>591.5</ele><time>2026-04-20T13:32:49Z</time></trkpt><trkpt lat="43.6529895000924" lon="12.234546406192557"><ele>590.0</ele><time>2026-04-20T13:32:50Z</time></trkpt><trkpt lat="43.65301118559294" lon="12.234693332034562"><ele>589.6</ele><time>2026-04-20T13:32:51Z</time></trkpt><trkpt lat="43.65305412780066" lon="12.234849190054012"><ele>589.2</ele><time>2026-04-20T13:32:52Z</time></trkpt><trkpt lat="43.653096492444945" lon="12.234983622632281"><ele>588.8</ele><time>2026-04-20T13:32:53Z</time></trkpt><trkpt lat="43.65310861476531" lon="12.235114474497616"><ele>588.4</ele><time>2026-04-20T13:32:54Z</time></trkpt><trkpt lat="43.6531014255116" lon="12.23525727169389"><ele>588.0</ele><time>2026-04-20T13:32:55Z</time></trkpt><trkpt lat="43.6530587058774" lon="12.23539456412982"><ele>588.0</ele><time>2026-04-20T13:32:56Z</time></trkpt><trkpt lat="43.65300092587768" lon="12.235512127991631"><ele>588.0</ele><time>2026-04-20T13:32:57Z</time></trkpt><trkpt lat="43.65291594002421" lon="12.23562959189815"><ele>588.0</ele><time>2026-04-20T13:32:58Z</time></trkpt><trkpt lat="43.65282734056762" lon="12.235730900489614"><ele>588.0</ele><time>2026-04-20T13:32:59Z</time></trkpt><trkpt lat="43.652725863982376" lon="12.235847466803248"><ele>581.5</ele><time>2026-04-20T13:33:00Z</time></trkpt><trkpt lat="43.652627803481664" lon="12.235958212219057"><ele>575.0</ele><time>2026-04-20T13:33:01Z</time></trkpt><trkpt lat="43.65253400672004" lon="12.236072865499674"><ele>568.5</ele><time>2026-04-20T13:33:02Z</time></trkpt><trkpt lat="43.65244209973615" lon="12.236201698090303"><ele>562.0</ele><time>2026-04-20T13:33:03Z</time></trkpt><trkpt lat="43.65236026591457" lon="12.236352167425675"><ele>562.3333333333334</ele><time>2026-04-20T13:33:04Z</time></trkpt><trkpt lat="43.652293687451326" lon="12.236535301663935"><ele>562.6666666666666</ele><time>2026-04-20T13:33:05Z</time></trkpt><trkpt lat="43.65223646152741" lon="12.236725661899369"><ele>563.0</ele><time>2026-04-20T13:33:06Z</time></trkpt><trkpt lat="43.652171792318406" lon="12.236922528211942"><ele>563.0</ele><time>2026-04-20T13:33:07Z</time></trkpt><trkpt lat="43.65210999255382" lon="12.237110290106218"><ele>563.0</ele><time>2026-04-20T13:33:08Z</time></trkpt><trkpt lat="43.65205532762161" lon="12.237310094776733"><ele>563.0</ele><time>2026-04-20T13:33:09Z</time></trkpt><trkpt lat="43.65200777049657" lon="12.23751223603756"><ele>562.3333333333333</ele><time>2026-04-20T13:33:10Z</time></trkpt><trkpt lat="43.651967880006325" lon="12.237719300484947"><ele>561.6666666666666</ele><time>2026-04-20T13:33:11Z</time></trkpt><trkpt lat="43.65193985570805" lon="12.237921972655295"><ele>561.0</ele><time>2026-04-20T13:33:12Z</time></trkpt><trkpt lat="43.65191648624156" lon="12.238129062929515"><ele>560.6666666666666</ele><time>2026-04-20T13:33:13Z</time></trkpt><trkpt lat="43.651892251257024" lon="12.238335223746502"><ele>560.3333333333333</ele><time>2026-04-20T13:33:14Z</time></trkpt><trkpt lat="43.6518663552161" lon="12.23854830743857"><ele>560.0</ele><time>2026-04-20T13:33:15Z</time></trkpt><trkpt lat="43.65183427674978" lon="12.238762383231952"><ele>559.3333333333333</ele><time>2026-04-20T13:33:16Z</time></trkpt><trkpt lat="43.65180557821528" lon="12.238972744483126"><ele>558.6666666666666</ele><time>2026-04-20T13:33:17Z</time></trkpt><trkpt lat="43.65177498203551" lon="12.239186544004891"><ele>558.0</ele><time>2026-04-20T13:33:18.001Z</time></trkpt><trkpt lat="43.65174467065067" lon="12.239393366227729"><ele>558.0</ele><time>2026-04-20T13:33:19.001Z</time></trkpt><trkpt lat="43.65173933772121" lon="12.239588273403765"><ele>558.0</ele><time>2026-04-20T13:33:20.001Z</time></trkpt><trkpt lat="43.651771121057315" lon="12.239780974561635"><ele>558.0</ele><time>2026-04-20T13:33:21.001Z</time></trkpt><trkpt lat="43.65184915840367" lon="12.239972099968218"><ele>558.0</ele><time>2026-04-20T13:33:22.001Z</time></trkpt><trkpt lat="43.651948134684936" lon="12.240164932278134"><ele>560.3333333333334</ele><time>2026-04-20T13:33:23.001Z</time></trkpt><trkpt lat="43.65205103642198" lon="12.240357336603504"><ele>562.6666666666667</ele><time>2026-04-20T13:33:24.001Z</time></trkpt><trkpt lat="43.65214971446154" lon="12.240569880534714"><ele>565.0</ele><time>2026-04-20T13:33:25Z</time></trkpt><trkpt lat="43.652246657203776" lon="12.240781086431609"><ele>565.0</ele><time>2026-04-20T13:33:26Z</time></trkpt><trkpt lat="43.652342377648246" lon="12.241009616328515"><ele>565.0</ele><time>2026-04-20T13:33:27Z</time></trkpt><trkpt lat="43.65242007939805" lon="12.241256364644888"><ele>565.0</ele><time>2026-04-20T13:33:28Z</time></trkpt><trkpt lat="43.65247191218526" lon="12.24151047901259"><ele>561.3333333333334</ele><time>2026-04-20T13:33:29Z</time></trkpt><trkpt lat="43.652528001347946" lon="12.241756518210646"><ele>557.6666666666666</ele><time>2026-04-20T13:33:30Z</time></trkpt><trkpt lat="43.65257118747674" lon="12.242015064184569"><ele>554.0</ele><time>2026-04-20T13:33:31Z</time></trkpt><trkpt lat="43.65260902946697" lon="12.242265571923117"><ele>554.3333333333333</ele><time>2026-04-20T13:33:32Z</time></trkpt><trkpt lat="43.652616190622524" lon="12.242519149491015"><ele>554.6666666666666</ele><time>2026-04-20T13:33:33Z</time></trkpt><trkpt lat="43.6525996846338" lon="12.242770058377987"><ele>555.0</ele><time>2026-04-20T13:33:34Z</time></trkpt><trkpt lat="43.652580381221426" lon="12.24303330895526"><ele>555.3333333333334</ele><time>2026-04-20T13:33:35Z</time></trkpt><trkpt lat="43.65256629107792" lon="12.243296516275185"><ele>555.6666666666667</ele><time>2026-04-20T13:33:36Z</time></trkpt><trkpt lat="43.65256008864034" lon="12.243565316697616"><ele>556.0</ele><time>2026-04-20T13:33:37Z</time></trkpt><trkpt lat="43.65257609295983" lon="12.243831315956031"><ele>555.6666666666667</ele><time>2026-04-20T13:33:38Z</time></trkpt><trkpt lat="43.652620682287136" lon="12.24409742056973"><ele>555.3333333333334</ele><time>2026-04-20T13:33:39Z</time></trkpt><trkpt lat="43.65266760895459" lon="12.244364945190883"><ele>555.0</ele><time>2026-04-20T13:33:40Z</time></trkpt><trkpt lat="43.65268057426772" lon="12.244650324723391"><ele>557.3333333333334</ele><time>2026-04-20T13:33:41Z</time></trkpt><trkpt lat="43.65267603378138" lon="12.244930129317575"><ele>559.6666666666667</ele><time>2026-04-20T13:33:42Z</time></trkpt><trkpt lat="43.652672538850666" lon="12.245214733256748"><ele>562.0</ele><time>2026-04-20T13:33:43Z</time></trkpt><trkpt lat="43.652673773234454" lon="12.245499442477428"><ele>565.0</ele><time>2026-04-20T13:33:44Z</time></trkpt><trkpt lat="43.65268410366319" lon="12.245785031066234"><ele>568.0</ele><time>2026-04-20T13:33:45Z</time></trkpt><trkpt lat="43.652708219764925" lon="12.246061311611147"><ele>571.0</ele><time>2026-04-20T13:33:46Z</time></trkpt><trkpt lat="43.65274543299972" lon="12.246316070510451"><ele>569.2</ele><time>2026-04-20T13:33:47Z</time></trkpt><trkpt lat="43.65278439052569" lon="12.246544023810843"><ele>567.4000000000001</ele><time>2026-04-20T13:33:48Z</time></trkpt><trkpt lat="43.65279182482817" lon="12.246709668386655"><ele>565.6</ele><time>2026-04-20T13:33:49Z</time></trkpt><trkpt lat="43.65276194785607" lon="12.246813918645108"><ele>563.8000000000001</ele><time>2026-04-20T13:33:50Z</time></trkpt><trkpt lat="43.652705967894164" lon="12.24685962283866"><ele>562.0</ele><time>2026-04-20T13:33:51Z</time></trkpt><trkpt lat="43.652631417962695" lon="12.246879119283829"><ele>562.0</ele><time>2026-04-20T13:33:52Z</time></trkpt><trkpt lat="43.65253706691846" lon="12.246906900193117"><ele>562.0</ele><time>2026-04-20T13:33:53Z</time></trkpt><trkpt lat="43.65242676589511" lon="12.246969712138721"><ele>562.0</ele><time>2026-04-20T13:33:54Z</time></trkpt><trkpt lat="43.6522998305139" lon="12.24707141625186"><ele>562.0</ele><time>2026-04-20T13:33:55Z</time></trkpt><trkpt lat="43.65215810714153" lon="12.247214611158725"><ele>563.3333333333334</ele><time>2026-04-20T13:33:56Z</time></trkpt><trkpt lat="43.652030063477746" lon="12.24735261880792"><ele>564.6666666666666</ele><time>2026-04-20T13:33:57Z</time></trkpt><trkpt lat="43.65190199394956" lon="12.247483557996551"><ele>566.0</ele><time>2026-04-20T13:33:58Z</time></trkpt><trkpt lat="43.6517838166116" lon="12.247607542104848"><ele>566.0</ele><time>2026-04-20T13:33:59Z</time></trkpt><trkpt lat="43.65167119244135" lon="12.247723194347461"><ele>566.0</ele><time>2026-04-20T13:34:00Z</time></trkpt><trkpt lat="43.65156542925219" lon="12.247835699029753"><ele>566.0</ele><time>2026-04-20T13:34:01Z</time></trkpt><trkpt lat="43.65147702460607" lon="12.247957336984175"><ele>566.0</ele><time>2026-04-20T13:34:02Z</time></trkpt><trkpt lat="43.65140993509327" lon="12.24809469056475"><ele>561.5</ele><time>2026-04-20T13:34:03Z</time></trkpt><trkpt lat="43.651371898110355" lon="12.248243656382746"><ele>557.0</ele><time>2026-04-20T13:34:04Z</time></trkpt><trkpt lat="43.65134825428789" lon="12.248400535051777"><ele>552.5</ele><time>2026-04-20T13:34:05Z</time></trkpt><trkpt lat="43.65133942190769" lon="12.24857319048738"><ele>548.0</ele><time>2026-04-20T13:34:06Z</time></trkpt><trkpt lat="43.6513048793401" lon="12.248766902434712"><ele>548.0</ele><time>2026-04-20T13:34:07Z</time></trkpt><trkpt lat="43.651297494220074" lon="12.24897495299445"><ele>548.0</ele><time>2026-04-20T13:34:08Z</time></trkpt><trkpt lat="43.651304900714216" lon="12.24918195606154"><ele>548.0</ele><time>2026-04-20T13:34:09Z</time></trkpt><trkpt lat="43.65132902686727" lon="12.249402617303037"><ele>548.0</ele><time>2026-04-20T13:34:10Z</time></trkpt><trkpt lat="43.65136919023545" lon="12.249630824541395"><ele>548.0</ele><time>2026-04-20T13:34:11Z</time></trkpt><trkpt lat="43.6514189188699" lon="12.249860712981041"><ele>548.0</ele><time>2026-04-20T13:34:12Z</time></trkpt><trkpt lat="43.65148599396971" lon="12.250060713903238"><ele>550.0</ele><time>2026-04-20T13:34:13Z</time></trkpt><trkpt lat="43.65158627348902" lon="12.250252786863067"><ele>552.0</ele><time>2026-04-20T13:34:14Z</time></trkpt><trkpt lat="43.65170029248035" lon="12.250424193566065"><ele>554.0</ele><time>2026-04-20T13:34:15Z</time></trkpt><trkpt lat="43.65183081543219" lon="12.250567800046573"><ele>551.3333333333333</ele><time>2026-04-20T13:34:16Z</time></trkpt><trkpt lat="43.65197201543142" lon="12.250695920824139"><ele>548.6666666666666</ele><time>2026-04-20T13:34:17Z</time></trkpt><trkpt lat="43.652112190245305" lon="12.250790706302144"><ele>546.0</ele><time>2026-04-20T13:34:18Z</time></trkpt><trkpt lat="43.65223727634549" lon="12.250896403657803"><ele>546.0</ele><time>2026-04-20T13:34:19Z</time></trkpt><trkpt lat="43.65232478659843" lon="12.251033455346963"><ele>546.0</ele><time>2026-04-20T13:34:20Z</time></trkpt><trkpt lat="43.65236723101954" lon="12.251172461102712"><ele>546.0</ele><time>2026-04-20T13:34:21Z</time></trkpt><trkpt lat="43.65237121674259" lon="12.251311546997485"><ele>546.0</ele><time>2026-04-20T13:34:22Z</time></trkpt><trkpt lat="43.65232716720381" lon="12.251453473638536"><ele>545.8333333333334</ele><time>2026-04-20T13:34:23Z</time></trkpt><trkpt lat="43.652275835641284" lon="12.251572543194495"><ele>545.6666666666666</ele><time>2026-04-20T13:34:24Z</time></trkpt><trkpt lat="43.65224099780342" lon="12.251680262244683"><ele>545.5</ele><time>2026-04-20T13:34:25Z</time></trkpt><trkpt lat="43.652245521063726" lon="12.251769344157205"><ele>545.3333333333333</ele><time>2026-04-20T13:34:26Z</time></trkpt><trkpt lat="43.65228858785085" lon="12.251837639964002"><ele>545.1666666666666</ele><time>2026-04-20T13:34:27Z</time></trkpt><trkpt lat="43.652367445286465" lon="12.251893152535533"><ele>545.0</ele><time>2026-04-20T13:34:28Z</time></trkpt><trkpt lat="43.65248517430242" lon="12.251927376134397"><ele>545.0</ele><time>2026-04-20T13:34:29Z</time></trkpt><trkpt lat="43.652604066431216" lon="12.251966673707821"><ele>545.0</ele><time>2026-04-20T13:34:30Z</time></trkpt><trkpt lat="43.65272147739464" lon="12.252011132414388"><ele>545.0</ele><time>2026-04-20T13:34:31Z</time></trkpt><trkpt lat="43.652843643084125" lon="12.252060531660288"><ele>545.0</ele><time>2026-04-20T13:34:32Z</time></trkpt><trkpt lat="43.65296609590742" lon="12.2521202235848"><ele>544.25</ele><time>2026-04-20T13:34:33Z</time></trkpt><trkpt lat="43.653074927441466" lon="12.25220702401105"><ele>543.5</ele><time>2026-04-20T13:34:34Z</time></trkpt><trkpt lat="43.65316085237708" lon="12.252324419133789"><ele>542.75</ele><time>2026-04-20T13:34:35Z</time></trkpt><trkpt lat="43.65323253880535" lon="12.252464461717025"><ele>542.0</ele><time>2026-04-20T13:34:36Z</time></trkpt><trkpt lat="43.65329892531341" lon="12.252621918678875"><ele>542.0</ele><time>2026-04-20T13:34:37Z</time></trkpt><trkpt lat="43.653369026111434" lon="12.252791205900051"><ele>542.0</ele><time>2026-04-20T13:34:38Z</time></trkpt><trkpt lat="43.653433742006825" lon="12.252965637571432"><ele>542.0</ele><time>2026-04-20T13:34:39Z</time></trkpt><trkpt lat="43.65348704088194" lon="12.25315727222887"><ele>542.0</ele><time>2026-04-20T13:34:40Z</time></trkpt><trkpt lat="43.65353347094818" lon="12.253360887669613"><ele>539.0</ele><time>2026-04-20T13:34:41Z</time></trkpt><trkpt lat="43.65357727880905" lon="12.253569357996854"><ele>536.0</ele><time>2026-04-20T13:34:42Z</time></trkpt><trkpt lat="43.65362215188417" lon="12.25378345209148"><ele>533.0</ele><time>2026-04-20T13:34:43Z</time></trkpt><trkpt lat="43.65367149749228" lon="12.25400045583684"><ele>533.0</ele><time>2026-04-20T13:34:44Z</time></trkpt><trkpt lat="43.653726405192735" lon="12.25421388636922"><ele>533.0</ele><time>2026-04-20T13:34:45Z</time></trkpt><trkpt lat="43.65378462028031" lon="12.254408194335918"><ele>533.0</ele><time>2026-04-20T13:34:46Z</time></trkpt><trkpt lat="43.653843980513045" lon="12.254588888809609"><ele>533.0</ele><time>2026-04-20T13:34:47Z</time></trkpt><trkpt lat="43.653904652306935" lon="12.254752636148199"><ele>533.0</ele><time>2026-04-20T13:34:48Z</time></trkpt><trkpt lat="43.65397377312009" lon="12.254898431683614"><ele>533.0</ele><time>2026-04-20T13:34:49Z</time></trkpt><trkpt lat="43.6540617785128" lon="12.255013301048063"><ele>533.0</ele><time>2026-04-20T13:34:50Z</time></trkpt><trkpt lat="43.65417242066852" lon="12.255104597842468"><ele>533.75</ele><time>2026-04-20T13:34:51Z</time></trkpt><trkpt lat="43.654297619413576" lon="12.255180556477917"><ele>534.5</ele><time>2026-04-20T13:34:52Z</time></trkpt><trkpt lat="43.65443192733889" lon="12.255255823392538"><ele>535.25</ele><time>2026-04-20T13:34:53Z</time></trkpt><trkpt lat="43.65457289215277" lon="12.25533731539989"><ele>536.0</ele><time>2026-04-20T13:34:54Z</time></trkpt><trkpt lat="43.65472389787672" lon="12.255430749050566"><ele>536.0</ele><time>2026-04-20T13:34:55Z</time></trkpt><trkpt lat="43.654881276266714" lon="12.25552562563122"><ele>536.0</ele><time>2026-04-20T13:34:56Z</time></trkpt><trkpt lat="43.65504264205336" lon="12.255617041844358"><ele>536.0</ele><time>2026-04-20T13:34:57Z</time></trkpt><trkpt lat="43.6552024578351" lon="12.25571094893307"><ele>533.6666666666666</ele><time>2026-04-20T13:34:58Z</time></trkpt><trkpt lat="43.655359685461654" lon="12.255809197001165"><ele>531.3333333333334</ele><time>2026-04-20T13:34:59Z</time></trkpt><trkpt lat="43.655514859030006" lon="12.255903023784034"><ele>529.0</ele><time>2026-04-20T13:35:00Z</time></trkpt><trkpt lat="43.65567066157505" lon="12.25599701387606"><ele>529.0</ele><time>2026-04-20T13:35:01Z</time></trkpt><trkpt lat="43.655825356978376" lon="12.256090595448674"><ele>529.0</ele><time>2026-04-20T13:35:02Z</time></trkpt><trkpt lat="43.65597304135854" lon="12.256178837588388"><ele>529.0</ele><time>2026-04-20T13:35:03Z</time></trkpt><trkpt lat="43.65611907515307" lon="12.256259125881334"><ele>528.75</ele><time>2026-04-20T13:35:04Z</time></trkpt><trkpt lat="43.656261628148854" lon="12.25632311818568"><ele>528.5</ele><time>2026-04-20T13:35:05Z</time></trkpt><trkpt lat="43.656403461234326" lon="12.25637283110409"><ele>528.25</ele><time>2026-04-20T13:35:06Z</time></trkpt><trkpt lat="43.65653168874042" lon="12.256419166245689"><ele>528.0</ele><time>2026-04-20T13:35:07Z</time></trkpt><trkpt lat="43.65664819220061" lon="12.25646966183983"><ele>528.0</ele><time>2026-04-20T13:35:08Z</time></trkpt><trkpt lat="43.656756683962925" lon="12.256531123024347"><ele>528.0</ele><time>2026-04-20T13:35:09Z</time></trkpt><trkpt lat="43.65685357435846" lon="12.256619731892513"><ele>528.0</ele><time>2026-04-20T13:35:10Z</time></trkpt><trkpt lat="43.65692951619909" lon="12.256747372186481"><ele>528.0</ele><time>2026-04-20T13:35:11Z</time></trkpt><trkpt lat="43.656993564344184" lon="12.25690943110749"><ele>527.0</ele><time>2026-04-20T13:35:12Z</time></trkpt><trkpt lat="43.65704419424526" lon="12.257102946093669"><ele>526.0</ele><time>2026-04-20T13:35:13Z</time></trkpt><trkpt lat="43.6570894178313" lon="12.257307892460283"><ele>525.0</ele><time>2026-04-20T13:35:14Z</time></trkpt><trkpt lat="43.65713640227999" lon="12.257521003122077"><ele>524.6666666666666</ele><time>2026-04-20T13:35:15Z</time></trkpt><trkpt lat="43.6571865949184" lon="12.257738917089009"><ele>524.3333333333333</ele><time>2026-04-20T13:35:16Z</time></trkpt><trkpt lat="43.657243655739364" lon="12.257956723551548"><ele>524.0</ele><time>2026-04-20T13:35:17Z</time></trkpt><trkpt lat="43.65731418901934" lon="12.258171435841394"><ele>524.0</ele><time>2026-04-20T13:35:18Z</time></trkpt><trkpt lat="43.657388674567926" lon="12.2583821358268"><ele>524.0</ele><time>2026-04-20T13:35:19Z</time></trkpt><trkpt lat="43.65746490238546" lon="12.258581880766156"><ele>524.0</ele><time>2026-04-20T13:35:20Z</time></trkpt><trkpt lat="43.65755478522169" lon="12.258775077020129"><ele>523.3333333333333</ele><time>2026-04-20T13:35:21Z</time></trkpt><trkpt lat="43.65765784633391" lon="12.25896271643749"><ele>522.6666666666666</ele><time>2026-04-20T13:35:22Z</time></trkpt><trkpt lat="43.65777142584261" lon="12.259153791114764"><ele>522.0</ele><time>2026-04-20T13:35:23Z</time></trkpt><trkpt lat="43.65788650106562" lon="12.259346388030766"><ele>522.0</ele><time>2026-04-20T13:35:24Z</time></trkpt><trkpt lat="43.65799672129409" lon="12.259531725051165"><ele>522.0</ele><time>2026-04-20T13:35:25Z</time></trkpt><trkpt lat="43.658105097620115" lon="12.259715994167092"><ele>522.0</ele><time>2026-04-20T13:35:26Z</time></trkpt><trkpt lat="43.65821509934952" lon="12.25990836833237"><ele>521.0</ele><time>2026-04-20T13:35:27Z</time></trkpt><trkpt lat="43.65832416804023" lon="12.260093683369073"><ele>520.0</ele><time>2026-04-20T13:35:28Z</time></trkpt><trkpt lat="43.65842243990316" lon="12.260278785537839"><ele>519.0</ele><time>2026-04-20T13:35:29Z</time></trkpt><trkpt lat="43.658505339376646" lon="12.260474605838864"><ele>518.6666666666666</ele><time>2026-04-20T13:35:30Z</time></trkpt><trkpt lat="43.65855780631795" lon="12.260695809382781"><ele>518.3333333333333</ele><time>2026-04-20T13:35:31Z</time></trkpt><trkpt lat="43.65858677039212" lon="12.260927101754197"><ele>518.0</ele><time>2026-04-20T13:35:32Z</time></trkpt><trkpt lat="43.65861397648573" lon="12.261164815515201"><ele>521.0</ele><time>2026-04-20T13:35:33Z</time></trkpt><trkpt lat="43.65864796829671" lon="12.261402759092686"><ele>524.0</ele><time>2026-04-20T13:35:34Z</time></trkpt><trkpt lat="43.658672118377645" lon="12.261646117913374"><ele>527.0</ele><time>2026-04-20T13:35:35Z</time></trkpt><trkpt lat="43.65867816899381" lon="12.261890267492921"><ele>527.0</ele><time>2026-04-20T13:35:36Z</time></trkpt><trkpt lat="43.658680714827554" lon="12.262131417043957"><ele>527.0</ele><time>2026-04-20T13:35:37Z</time></trkpt><trkpt lat="43.6586906929916" lon="12.262367580936417"><ele>527.0</ele><time>2026-04-20T13:35:38Z</time></trkpt><trkpt lat="43.6586969266071" lon="12.262605057146422"><ele>526.3333333333333</ele><time>2026-04-20T13:35:39Z</time></trkpt><trkpt lat="43.658687467002316" lon="12.262845167007207"><ele>525.6666666666666</ele><time>2026-04-20T13:35:40Z</time></trkpt><trkpt lat="43.658658046049574" lon="12.26308231387322"><ele>525.0</ele><time>2026-04-20T13:35:41Z</time></trkpt><trkpt lat="43.65860732834467" lon="12.263323194559158"><ele>522.0</ele><time>2026-04-20T13:35:42Z</time></trkpt><trkpt lat="43.65854162869757" lon="12.263557429193115"><ele>519.0</ele><time>2026-04-20T13:35:43Z</time></trkpt><trkpt lat="43.65847812365159" lon="12.26378576668435"><ele>516.0</ele><time>2026-04-20T13:35:44Z</time></trkpt><trkpt lat="43.65844117873571" lon="12.264010238103138"><ele>516.0</ele><time>2026-04-20T13:35:45Z</time></trkpt><trkpt lat="43.65845106883112" lon="12.264235606975351"><ele>516.0</ele><time>2026-04-20T13:35:46Z</time></trkpt><trkpt lat="43.65850042559791" lon="12.264447573897868"><ele>516.0</ele><time>2026-04-20T13:35:47Z</time></trkpt><trkpt lat="43.65857490383874" lon="12.264657083220058"><ele>514.6666666666666</ele><time>2026-04-20T13:35:48Z</time></trkpt><trkpt lat="43.65867248557231" lon="12.264837469533768"><ele>513.3333333333333</ele><time>2026-04-20T13:35:49Z</time></trkpt><trkpt lat="43.658780257936364" lon="12.265013641104488"><ele>512.0</ele><time>2026-04-20T13:35:50Z</time></trkpt><trkpt lat="43.65887974977597" lon="12.265177480264452"><ele>512.0</ele><time>2026-04-20T13:35:51Z</time></trkpt><trkpt lat="43.65896579624193" lon="12.265339674741309"><ele>512.0</ele><time>2026-04-20T13:35:52Z</time></trkpt><trkpt lat="43.65903064048964" lon="12.265523371976627"><ele>512.0</ele><time>2026-04-20T13:35:53Z</time></trkpt><trkpt lat="43.65907140990087" lon="12.265734460305215"><ele>511.0</ele><time>2026-04-20T13:35:54Z</time></trkpt><trkpt lat="43.65909876352576" lon="12.26595757570851"><ele>510.0</ele><time>2026-04-20T13:35:55Z</time></trkpt><trkpt lat="43.65912762320289" lon="12.266193950651239"><ele>509.0</ele><time>2026-04-20T13:35:56Z</time></trkpt><trkpt lat="43.659157051408165" lon="12.266430401699003"><ele>509.25</ele><time>2026-04-20T13:35:57Z</time></trkpt><trkpt lat="43.659187842008755" lon="12.266649663969897"><ele>509.5</ele><time>2026-04-20T13:35:58Z</time></trkpt><trkpt lat="43.65921913652229" lon="12.266847167377486"><ele>509.75</ele><time>2026-04-20T13:35:59Z</time></trkpt><trkpt lat="43.65925786279887" lon="12.267015750446776"><ele>510.0</ele><time>2026-04-20T13:36:00Z</time></trkpt><trkpt lat="43.659308219383945" lon="12.267145767357219"><ele>510.0</ele><time>2026-04-20T13:36:01Z</time></trkpt><trkpt lat="43.65937725412206" lon="12.26721707231135"><ele>510.0</ele><time>2026-04-20T13:36:02Z</time></trkpt><trkpt lat="43.6594730848149" lon="12.26727349896388"><ele>510.0</ele><time>2026-04-20T13:36:03Z</time></trkpt><trkpt lat="43.659585159613066" lon="12.26734085842276"><ele>510.0</ele><time>2026-04-20T13:36:04Z</time></trkpt><trkpt lat="43.65968817552512" lon="12.267451490816006"><ele>510.0</ele><time>2026-04-20T13:36:05Z</time></trkpt><trkpt lat="43.65977806236697" lon="12.267609960385967"><ele>509.66666666666663</ele><time>2026-04-20T13:36:06Z</time></trkpt><trkpt lat="43.65984118351551" lon="12.26779183707862"><ele>509.3333333333333</ele><time>2026-04-20T13:36:07Z</time></trkpt><trkpt lat="43.6598985054964" lon="12.267991272413717"><ele>509.0</ele><time>2026-04-20T13:36:08Z</time></trkpt><trkpt lat="43.65996547221004" lon="12.268182028626182"><ele>509.0</ele><time>2026-04-20T13:36:09Z</time></trkpt><trkpt lat="43.66005657876273" lon="12.26836925022611"><ele>509.0</ele><time>2026-04-20T13:36:10Z</time></trkpt><trkpt lat="43.66016236453876" lon="12.268543032538016"><ele>509.0</ele><time>2026-04-20T13:36:11Z</time></trkpt><trkpt lat="43.66025563289138" lon="12.26870828225643"><ele>510.75</ele><time>2026-04-20T13:36:12Z</time></trkpt><trkpt lat="43.66033073052611" lon="12.268875371313802"><ele>512.5</ele><time>2026-04-20T13:36:13Z</time></trkpt><trkpt lat="43.6603900861624" lon="12.269038645748571"><ele>514.25</ele><time>2026-04-20T13:36:14Z</time></trkpt><trkpt lat="43.66042329811443" lon="12.26921009072009"><ele>516.0</ele><time>2026-04-20T13:36:15Z</time></trkpt><trkpt lat="43.66043035346778" lon="12.269391341931234"><ele>516.0</ele><time>2026-04-20T13:36:16Z</time></trkpt><trkpt lat="43.66041499207749" lon="12.269570892657763"><ele>516.0</ele><time>2026-04-20T13:36:17Z</time></trkpt><trkpt lat="43.66038296565219" lon="12.26975683693185"><ele>516.0</ele><time>2026-04-20T13:36:18Z</time></trkpt><trkpt lat="43.66034535797723" lon="12.269953582376738"><ele>516.0</ele><time>2026-04-20T13:36:19Z</time></trkpt><trkpt lat="43.66030843754856" lon="12.27015883787059"><ele>513.0</ele><time>2026-04-20T13:36:20Z</time></trkpt><trkpt lat="43.6602692694771" lon="12.270368857210324"><ele>510.0</ele><time>2026-04-20T13:36:21Z</time></trkpt><trkpt lat="43.66023110888404" lon="12.270582790295812"><ele>507.0</ele><time>2026-04-20T13:36:22Z</time></trkpt><trkpt lat="43.66019965098528" lon="12.270800050716923"><ele>507.0</ele><time>2026-04-20T13:36:23Z</time></trkpt><trkpt lat="43.66016831440712" lon="12.271020536309113"><ele>507.0</ele><time>2026-04-20T13:36:24Z</time></trkpt><trkpt lat="43.66014750010479" lon="12.271246189242701"><ele>507.0</ele><time>2026-04-20T13:36:25Z</time></trkpt><trkpt lat="43.66014610766831" lon="12.271462651860242"><ele>508.25</ele><time>2026-04-20T13:36:26Z</time></trkpt><trkpt lat="43.66014917067817" lon="12.271663049819963"><ele>509.5</ele><time>2026-04-20T13:36:27Z</time></trkpt><trkpt lat="43.6601583551541" lon="12.271846660286494"><ele>510.75</ele><time>2026-04-20T13:36:28Z</time></trkpt><trkpt lat="43.660196632235476" lon="12.272022381414452"><ele>512.0</ele><time>2026-04-20T13:36:29Z</time></trkpt><trkpt lat="43.66026096857247" lon="12.272192216906701"><ele>507.66666666666663</ele><time>2026-04-20T13:36:30Z</time></trkpt><trkpt lat="43.66032894978998" lon="12.272385951957272"><ele>503.33333333333337</ele><time>2026-04-20T13:36:31Z</time></trkpt><trkpt lat="43.660409125723724" lon="12.272574163585267"><ele>499.0</ele><time>2026-04-20T13:36:32Z</time></trkpt><trkpt lat="43.66049343253514" lon="12.272773101534781"><ele>499.0</ele><time>2026-04-20T13:36:33Z</time></trkpt><trkpt lat="43.66057534048303" lon="12.272975179881549"><ele>499.0</ele><time>2026-04-20T13:36:34Z</time></trkpt><trkpt lat="43.66067124673969" lon="12.273179918921192"><ele>499.0</ele><time>2026-04-20T13:36:35Z</time></trkpt><trkpt lat="43.66076057638688" lon="12.27335913592484"><ele>499.5</ele><time>2026-04-20T13:36:36Z</time></trkpt><trkpt lat="43.660849521497575" lon="12.2735299476664"><ele>500.0</ele><time>2026-04-20T13:36:37Z</time></trkpt><trkpt lat="43.66093414620731" lon="12.273692462445966"><ele>500.5</ele><time>2026-04-20T13:36:38Z</time></trkpt><trkpt lat="43.66101332290903" lon="12.273844514757846"><ele>501.0</ele><time>2026-04-20T13:36:39Z</time></trkpt><trkpt lat="43.66108552581255" lon="12.27398662447139"><ele>500.6</ele><time>2026-04-20T13:36:40Z</time></trkpt><trkpt lat="43.66114352798644" lon="12.274117780148881"><ele>500.20000000000005</ele><time>2026-04-20T13:36:41Z</time></trkpt><trkpt lat="43.66117578899535" lon="12.274249810005873"><ele>499.79999999999995</ele><time>2026-04-20T13:36:42Z</time></trkpt><trkpt lat="43.6611992920244" lon="12.274383735275663"><ele>499.4</ele><time>2026-04-20T13:36:43Z</time></trkpt><trkpt lat="43.66122384939494" lon="12.274527289205357"><ele>499.0</ele><time>2026-04-20T13:36:44Z</time></trkpt><trkpt lat="43.66125206544877" lon="12.274686805743428"><ele>498.0</ele><time>2026-04-20T13:36:45Z</time></trkpt><trkpt lat="43.66127796273866" lon="12.27485986828247"><ele>497.0</ele><time>2026-04-20T13:36:46Z</time></trkpt><trkpt lat="43.661305269978506" lon="12.275049883423929"><ele>496.0</ele><time>2026-04-20T13:36:47Z</time></trkpt><trkpt lat="43.66135094826604" lon="12.2752453878195"><ele>495.0</ele><time>2026-04-20T13:36:48Z</time></trkpt><trkpt lat="43.6613707275441" lon="12.275455835014558"><ele>496.33333333333337</ele><time>2026-04-20T13:36:49Z</time></trkpt><trkpt lat="43.66144358239809" lon="12.275653118143657"><ele>497.6666666666667</ele><time>2026-04-20T13:36:50Z</time></trkpt><trkpt lat="43.661514606960374" lon="12.275865078814517"><ele>499.0</ele><time>2026-04-20T13:36:51Z</time></trkpt><trkpt lat="43.66159679570741" lon="12.276066110167816"><ele>499.0</ele><time>2026-04-20T13:36:52Z</time></trkpt><trkpt lat="43.66166104304121" lon="12.276279813914421"><ele>499.0</ele><time>2026-04-20T13:36:53Z</time></trkpt><trkpt lat="43.66174238713781" lon="12.276485775723891"><ele>499.0</ele><time>2026-04-20T13:36:54Z</time></trkpt><trkpt lat="43.66182525987971" lon="12.276686283876439"><ele>498.6666666666667</ele><time>2026-04-20T13:36:55Z</time></trkpt><trkpt lat="43.66190796614794" lon="12.276888642871562"><ele>498.33333333333337</ele><time>2026-04-20T13:36:56Z</time></trkpt><trkpt lat="43.66197845356865" lon="12.2770826309123"><ele>498.0</ele><time>2026-04-20T13:36:57Z</time></trkpt><trkpt lat="43.662037105028666" lon="12.27727488562015"><ele>496.75</ele><time>2026-04-20T13:36:58Z</time></trkpt><trkpt lat="43.66207323532398" lon="12.277474062256301"><ele>495.5</ele><time>2026-04-20T13:36:59Z</time></trkpt><trkpt lat="43.662106172192594" lon="12.27767103266256"><ele>494.25</ele><time>2026-04-20T13:37:00Z</time></trkpt><trkpt lat="43.66213807440832" lon="12.277861815586865"><ele>493.0</ele><time>2026-04-20T13:37:01Z</time></trkpt><trkpt lat="43.662181245290945" lon="12.278038399827668"><ele>493.0</ele><time>2026-04-20T13:37:02Z</time></trkpt><trkpt lat="43.662214645048" lon="12.278226912704996"><ele>493.0</ele><time>2026-04-20T13:37:03Z</time></trkpt><trkpt lat="43.6622337719215" lon="12.27843749634898"><ele>493.0</ele><time>2026-04-20T13:37:04Z</time></trkpt><trkpt lat="43.66226822770647" lon="12.278645815958221"><ele>493.0</ele><time>2026-04-20T13:37:05Z</time></trkpt><trkpt lat="43.66231962918623" lon="12.278859235039123"><ele>492.6666666666667</ele><time>2026-04-20T13:37:06Z</time></trkpt><trkpt lat="43.66235506832374" lon="12.279083526520202"><ele>492.33333333333337</ele><time>2026-04-20T13:37:07Z</time></trkpt><trkpt lat="43.66236636758731" lon="12.279314819043798"><ele>492.0</ele><time>2026-04-20T13:37:08Z</time></trkpt><trkpt lat="43.66237808935213" lon="12.279556537529178"><ele>492.0</ele><time>2026-04-20T13:37:09Z</time></trkpt><trkpt lat="43.662368787501876" lon="12.279807448053425"><ele>492.0</ele><time>2026-04-20T13:37:10Z</time></trkpt><trkpt lat="43.66234269892569" lon="12.280061983924334"><ele>492.0</ele><time>2026-04-20T13:37:11Z</time></trkpt><trkpt lat="43.66231200672689" lon="12.280318929003915"><ele>492.0</ele><time>2026-04-20T13:37:12Z</time></trkpt><trkpt lat="43.662242560632066" lon="12.280573780624122"><ele>492.0</ele><time>2026-04-20T13:37:13Z</time></trkpt><trkpt lat="43.66215484037902" lon="12.280814075623054"><ele>492.0</ele><time>2026-04-20T13:37:14Z</time></trkpt><trkpt lat="43.66206188123836" lon="12.281038170343521"><ele>492.0</ele><time>2026-04-20T13:37:15Z</time></trkpt><trkpt lat="43.66196120048226" lon="12.281269322271179"><ele>492.0</ele><time>2026-04-20T13:37:16Z</time></trkpt><trkpt lat="43.6618628924089" lon="12.281497956286877"><ele>492.0</ele><time>2026-04-20T13:37:17Z</time></trkpt><trkpt lat="43.66176408175618" lon="12.281728175874942"><ele>492.0</ele><time>2026-04-20T13:37:18Z</time></trkpt><trkpt lat="43.66166707329935" lon="12.281950152699341"><ele>492.0</ele><time>2026-04-20T13:37:19Z</time></trkpt><trkpt lat="43.66157883082355" lon="12.282159926496602"><ele>492.0</ele><time>2026-04-20T13:37:20Z</time></trkpt><trkpt lat="43.66150404824923" lon="12.282360778290636"><ele>490.5</ele><time>2026-04-20T13:37:21Z</time></trkpt><trkpt lat="43.66145424244056" lon="12.282549555066073"><ele>489.0</ele><time>2026-04-20T13:37:22Z</time></trkpt><trkpt lat="43.66143264887403" lon="12.282735190839741"><ele>487.5</ele><time>2026-04-20T13:37:23Z</time></trkpt><trkpt lat="43.66143628703046" lon="12.28289958988495"><ele>486.0</ele><time>2026-04-20T13:37:24Z</time></trkpt><trkpt lat="43.66146027125122" lon="12.283052070365898"><ele>485.6</ele><time>2026-04-20T13:37:25Z</time></trkpt><trkpt lat="43.66149817409429" lon="12.283193554601434"><ele>485.20000000000005</ele><time>2026-04-20T13:37:26Z</time></trkpt><trkpt lat="43.66155216085553" lon="12.283321501172347"><ele>484.79999999999995</ele><time>2026-04-20T13:37:27Z</time></trkpt><trkpt lat="43.661614370836425" lon="12.283440844645378"><ele>484.4</ele><time>2026-04-20T13:37:28Z</time></trkpt><trkpt lat="43.66166603499499" lon="12.283572006097"><ele>484.0</ele><time>2026-04-20T13:37:29Z</time></trkpt><trkpt lat="43.661720639994684" lon="12.283691187288078"><ele>484.0</ele><time>2026-04-20T13:37:30Z</time></trkpt><trkpt lat="43.66177232286526" lon="12.283805080232879"><ele>484.0</ele><time>2026-04-20T13:37:31Z</time></trkpt><trkpt lat="43.66182369467349" lon="12.28391528045272"><ele>484.0</ele><time>2026-04-20T13:37:32Z</time></trkpt><trkpt lat="43.66187557600618" lon="12.284022237727008"><ele>484.0</ele><time>2026-04-20T13:37:33Z</time></trkpt><trkpt lat="43.661920111773625" lon="12.284121372083815"><ele>484.0</ele><time>2026-04-20T13:37:34Z</time></trkpt><trkpt lat="43.66194960821518" lon="12.28422450578328"><ele>483.79999999999995</ele><time>2026-04-20T13:37:35Z</time></trkpt><trkpt lat="43.66195257854834" lon="12.284325265483044"><ele>483.59999999999997</ele><time>2026-04-20T13:37:36Z</time></trkpt><trkpt lat="43.66192565043673" lon="12.284556309019655"><ele>483.4</ele><time>2026-04-20T13:37:38Z</time></trkpt><trkpt lat="43.66195365163325" lon="12.284681609845855"><ele>483.2</ele><time>2026-04-20T13:37:39Z</time></trkpt><trkpt lat="43.6619723463167" lon="12.284816437986054"><ele>483.0</ele><time>2026-04-20T13:37:40Z</time></trkpt><trkpt lat="43.66200480664163" lon="12.284953030394853"><ele>483.5</ele><time>2026-04-20T13:37:41Z</time></trkpt><trkpt lat="43.662042537994814" lon="12.285099263814248"><ele>484.0</ele><time>2026-04-20T13:37:42Z</time></trkpt><trkpt lat="43.66206808389051" lon="12.285259604779448"><ele>484.5</ele><time>2026-04-20T13:37:43Z</time></trkpt><trkpt lat="43.66210987589158" lon="12.285420356215855"><ele>485.0</ele><time>2026-04-20T13:37:44Z</time></trkpt><trkpt lat="43.662161355819705" lon="12.285588463534316"><ele>484.75</ele><time>2026-04-20T13:37:45Z</time></trkpt><trkpt lat="43.66221789353501" lon="12.285750630771252"><ele>484.5</ele><time>2026-04-20T13:37:46Z</time></trkpt><trkpt lat="43.66227848359134" lon="12.28591405214095"><ele>484.25</ele><time>2026-04-20T13:37:47Z</time></trkpt><trkpt lat="43.66234559897952" lon="12.286076010430218"><ele>484.0</ele><time>2026-04-20T13:37:48Z</time></trkpt><trkpt lat="43.662421856751116" lon="12.286232301378824"><ele>484.0</ele><time>2026-04-20T13:37:49Z</time></trkpt><trkpt lat="43.66245433049449" lon="12.286423965431135"><ele>484.0</ele><time>2026-04-20T13:37:50Z</time></trkpt><trkpt lat="43.66245891385353" lon="12.286617089445233"><ele>484.0</ele><time>2026-04-20T13:37:51Z</time></trkpt><trkpt lat="43.662436869165695" lon="12.28679955404205"><ele>484.0</ele><time>2026-04-20T13:37:52Z</time></trkpt><trkpt lat="43.66240594584816" lon="12.286979679550138"><ele>484.0</ele><time>2026-04-20T13:37:53Z</time></trkpt><trkpt lat="43.662371192440034" lon="12.287162087467475"><ele>484.0</ele><time>2026-04-20T13:37:54Z</time></trkpt><trkpt lat="43.66233718307453" lon="12.287349737993942"><ele>484.0</ele><time>2026-04-20T13:37:55Z</time></trkpt><trkpt lat="43.66231243776874" lon="12.287541644849087"><ele>484.0</ele><time>2026-04-20T13:37:56Z</time></trkpt><trkpt lat="43.662298486491665" lon="12.287737331942242"><ele>484.4</ele><time>2026-04-20T13:37:57Z</time></trkpt><trkpt lat="43.66229145868283" lon="12.287916513745614"><ele>484.79999999999995</ele><time>2026-04-20T13:37:58Z</time></trkpt><trkpt lat="43.66228821690782" lon="12.288076807455449"><ele>485.20000000000005</ele><time>2026-04-20T13:37:59Z</time></trkpt><trkpt lat="43.662288050240186" lon="12.288210847585281"><ele>485.6</ele><time>2026-04-20T13:38:00Z</time></trkpt><trkpt lat="43.662285950074725" lon="12.288324459409287"><ele>486.0</ele><time>2026-04-20T13:38:01Z</time></trkpt><trkpt lat="43.662265553991126" lon="12.288485916955699"><ele>487.20000000000005</ele><time>2026-04-20T13:38:03Z</time></trkpt><trkpt lat="43.66220401938569" lon="12.288638032448338"><ele>488.40000000000003</ele><time>2026-04-20T13:38:05Z</time></trkpt><trkpt lat="43.66215253661188" lon="12.288726864930272"><ele>489.6</ele><time>2026-04-20T13:38:06Z</time></trkpt><trkpt lat="43.66209963229473" lon="12.288833864636294"><ele>490.8</ele><time>2026-04-20T13:38:07Z</time></trkpt><trkpt lat="43.66205291832868" lon="12.288957431613769"><ele>492.0</ele><time>2026-04-20T13:38:08Z</time></trkpt><trkpt lat="43.66201139056059" lon="12.289087926082944"><ele>492.0</ele><time>2026-04-20T13:38:09Z</time></trkpt><trkpt lat="43.661961178930945" lon="12.289222516556295"><ele>492.0</ele><time>2026-04-20T13:38:10Z</time></trkpt><trkpt lat="43.6618900875485" lon="12.289349742600658"><ele>492.0</ele><time>2026-04-20T13:38:11Z</time></trkpt><trkpt lat="43.6618004068548" lon="12.289451980536224"><ele>492.0</ele><time>2026-04-20T13:38:12Z</time></trkpt><trkpt lat="43.66169979399732" lon="12.289524760951796"><ele>488.75</ele><time>2026-04-20T13:38:13Z</time></trkpt><trkpt lat="43.66159520528032" lon="12.289582228060915"><ele>485.5</ele><time>2026-04-20T13:38:14Z</time></trkpt><trkpt lat="43.6614901085872" lon="12.289629756839224"><ele>482.25</ele><time>2026-04-20T13:38:15Z</time></trkpt><trkpt lat="43.661381946589366" lon="12.289679327733705"><ele>479.0</ele><time>2026-04-20T13:38:16Z</time></trkpt><trkpt lat="43.66127261987518" lon="12.289730342343212"><ele>478.75</ele><time>2026-04-20T13:38:17Z</time></trkpt><trkpt lat="43.66116386228147" lon="12.289782720199165"><ele>478.5</ele><time>2026-04-20T13:38:18Z</time></trkpt><trkpt lat="43.66105735991204" lon="12.289842430067685"><ele>478.25</ele><time>2026-04-20T13:38:19Z</time></trkpt><trkpt lat="43.66094730573352" lon="12.289895862340353"><ele>478.0</ele><time>2026-04-20T13:38:20Z</time></trkpt><trkpt lat="43.660836168689315" lon="12.289947209621559"><ele>478.0</ele><time>2026-04-20T13:38:21Z</time></trkpt><trkpt lat="43.66074913804626" lon="12.29004457203037"><ele>477.99999999999994</ele><time>2026-04-20T13:38:22Z</time></trkpt><trkpt lat="43.660672743339624" lon="12.290133269270626"><ele>477.99999999999994</ele><time>2026-04-20T13:38:23Z</time></trkpt><trkpt lat="43.66060152695822" lon="12.290233588809615"><ele>478.0</ele><time>2026-04-20T13:38:24Z</time></trkpt><trkpt lat="43.660527953249286" lon="12.290349401739677"><ele>478.0</ele><time>2026-04-20T13:38:25Z</time></trkpt><trkpt lat="43.6604565853728" lon="12.290482155045337"><ele>478.25</ele><time>2026-04-20T13:38:26Z</time></trkpt><trkpt lat="43.660403780508005" lon="12.290635615168966"><ele>478.5</ele><time>2026-04-20T13:38:27Z</time></trkpt><trkpt lat="43.66037592998485" lon="12.290803916691777"><ele>478.75</ele><time>2026-04-20T13:38:28Z</time></trkpt><trkpt lat="43.66035194909264" lon="12.29097157694979"><ele>479.0</ele><time>2026-04-20T13:38:29Z</time></trkpt><trkpt lat="43.660309515513575" lon="12.291135041886838"><ele>477.25</ele><time>2026-04-20T13:38:30Z</time></trkpt><trkpt lat="43.66024261440911" lon="12.291292814422452"><ele>475.5</ele><time>2026-04-20T13:38:31Z</time></trkpt><trkpt lat="43.66015047676766" lon="12.291417448479349"><ele>473.75</ele><time>2026-04-20T13:38:32Z</time></trkpt><trkpt lat="43.66003224345093" lon="12.29151433987434"><ele>472.0</ele><time>2026-04-20T13:38:33Z</time></trkpt><trkpt lat="43.65991082926166" lon="12.291622775530367"><ele>471.6666666666667</ele><time>2026-04-20T13:38:34Z</time></trkpt><trkpt lat="43.659801750198056" lon="12.291766613102853"><ele>471.33333333333337</ele><time>2026-04-20T13:38:35Z</time></trkpt><trkpt lat="43.659700954015705" lon="12.29193532006064"><ele>471.0</ele><time>2026-04-20T13:38:36Z</time></trkpt><trkpt lat="43.65960666250185" lon="12.292102597488295"><ele>471.25</ele><time>2026-04-20T13:38:37Z</time></trkpt><trkpt lat="43.65951205716119" lon="12.29226354923838"><ele>471.5</ele><time>2026-04-20T13:38:38Z</time></trkpt><trkpt lat="43.659419610321116" lon="12.292419129653933"><ele>471.75</ele><time>2026-04-20T13:38:39Z</time></trkpt><trkpt lat="43.659330036040934" lon="12.292566728111362"><ele>472.0</ele><time>2026-04-20T13:38:40Z</time></trkpt><trkpt lat="43.65924202924813" lon="12.292691342074075"><ele>470.20000000000005</ele><time>2026-04-20T13:38:41Z</time></trkpt><trkpt lat="43.65914981520589" lon="12.292776227745298"><ele>468.40000000000003</ele><time>2026-04-20T13:38:42Z</time></trkpt><trkpt lat="43.65904678161798" lon="12.29280861900239"><ele>466.59999999999997</ele><time>2026-04-20T13:38:43Z</time></trkpt><trkpt lat="43.658952355321645" lon="12.29276792700964"><ele>464.79999999999995</ele><time>2026-04-20T13:38:44Z</time></trkpt><trkpt lat="43.6588697475845" lon="12.2926909498634"><ele>463.0</ele><time>2026-04-20T13:38:45Z</time></trkpt><trkpt lat="43.658764964033594" lon="12.292637032794465"><ele>463.0</ele><time>2026-04-20T13:38:46Z</time></trkpt><trkpt lat="43.65865458608162" lon="12.292569430400595"><ele>463.0</ele><time>2026-04-20T13:38:47Z</time></trkpt><trkpt lat="43.65853537030128" lon="12.292537893178018"><ele>463.0</ele><time>2026-04-20T13:38:48Z</time></trkpt><trkpt lat="43.65842125035557" lon="12.292553625018172"><ele>463.0</ele><time>2026-04-20T13:38:49Z</time></trkpt><trkpt lat="43.65831586114049" lon="12.29260960765651"><ele>465.0</ele><time>2026-04-20T13:38:50Z</time></trkpt><trkpt lat="43.65822265609264" lon="12.292710982247847"><ele>467.0</ele><time>2026-04-20T13:38:51Z</time></trkpt><trkpt lat="43.65815440548279" lon="12.292842176738258"><ele>469.0</ele><time>2026-04-20T13:38:52Z</time></trkpt><trkpt lat="43.65811285652452" lon="12.29299561450132"><ele>471.0</ele><time>2026-04-20T13:38:53Z</time></trkpt><trkpt lat="43.658091848200115" lon="12.293157335734367"><ele>471.0</ele><time>2026-04-20T13:38:54Z</time></trkpt><trkpt lat="43.658085483685504" lon="12.293302582216464"><ele>471.0</ele><time>2026-04-20T13:38:55Z</time></trkpt><trkpt lat="43.65808373510274" lon="12.293429687293528"><ele>471.0</ele><time>2026-04-20T13:38:56Z</time></trkpt><trkpt lat="43.65807861852765" lon="12.293538290639013"><ele>471.0</ele><time>2026-04-20T13:38:57Z</time></trkpt><trkpt lat="43.65807399739052" lon="12.293636589319101"><ele>471.0</ele><time>2026-04-20T13:38:58Z</time></trkpt><trkpt lat="43.658066461431375" lon="12.293726509266651"><ele>471.0</ele><time>2026-04-20T13:38:59Z</time></trkpt><trkpt lat="43.65805944509801" lon="12.293819506844931"><ele>471.0</ele><time>2026-04-20T13:39:00Z</time></trkpt><trkpt lat="43.65805128756871" lon="12.293919957840263"><ele>471.0</ele><time>2026-04-20T13:39:01Z</time></trkpt><trkpt lat="43.658034053623965" lon="12.29402740301339"><ele>471.0</ele><time>2026-04-20T13:39:02Z</time></trkpt><trkpt lat="43.657995442253736" lon="12.294114424327981"><ele>471.0</ele><time>2026-04-20T13:39:03Z</time></trkpt><trkpt lat="43.65793375544458" lon="12.294161929205282"><ele>471.0</ele><time>2026-04-20T13:39:04Z</time></trkpt><trkpt lat="43.65786197615646" lon="12.29418796052337"><ele>471.0</ele><time>2026-04-20T13:39:05Z</time></trkpt><trkpt lat="43.65778377247981" lon="12.294225415823547"><ele>471.20000000000005</ele><time>2026-04-20T13:39:06Z</time></trkpt><trkpt lat="43.657701040609254" lon="12.294271218335462"><ele>471.40000000000003</ele><time>2026-04-20T13:39:07Z</time></trkpt><trkpt lat="43.65761174736477" lon="12.29431445405814"><ele>471.6</ele><time>2026-04-20T13:39:08Z</time></trkpt><trkpt lat="43.65752108231618" lon="12.29435964876917"><ele>471.8</ele><time>2026-04-20T13:39:09Z</time></trkpt><trkpt lat="43.65743530003247" lon="12.29439943579036"><ele>472.0</ele><time>2026-04-20T13:39:10Z</time></trkpt><trkpt lat="43.657342633634734" lon="12.294440611153254"><ele>472.0</ele><time>2026-04-20T13:39:11Z</time></trkpt><trkpt lat="43.657245516053585" lon="12.294484429017452"><ele>472.00000000000006</ele><time>2026-04-20T13:39:12Z</time></trkpt><trkpt lat="43.657145180766605" lon="12.29452993892342"><ele>472.00000000000006</ele><time>2026-04-20T13:39:13Z</time></trkpt><trkpt lat="43.657042684477766" lon="12.294571608143077"><ele>472.0</ele><time>2026-04-20T13:39:14Z</time></trkpt><trkpt lat="43.65695130833243" lon="12.29460852430037"><ele>472.0</ele><time>2026-04-20T13:39:15Z</time></trkpt><trkpt lat="43.65687275255954" lon="12.2946423780053"><ele>472.50000000000006</ele><time>2026-04-20T13:39:16Z</time></trkpt><trkpt lat="43.65681280661577" lon="12.294685253927216"><ele>473.0</ele><time>2026-04-20T13:39:17Z</time></trkpt><trkpt lat="43.65676315583972" lon="12.294756682758633"><ele>473.5</ele><time>2026-04-20T13:39:19Z</time></trkpt><trkpt lat="43.65677734786069" lon="12.294913368704162"><ele>474.0</ele><time>2026-04-20T13:39:22Z</time></trkpt><trkpt lat="43.656843051324906" lon="12.295002980707451"><ele>474.50000000000006</ele><time>2026-04-20T13:39:23Z</time></trkpt><trkpt lat="43.65688602225723" lon="12.295090937134919"><ele>475.0</ele><time>2026-04-20T13:39:24Z</time></trkpt><trkpt lat="43.65694841818074" lon="12.295210895032948"><ele>473.75</ele><time>2026-04-20T13:39:25Z</time></trkpt><trkpt lat="43.65702148846916" lon="12.295338670044572"><ele>472.5</ele><time>2026-04-20T13:39:26Z</time></trkpt><trkpt lat="43.657102037043146" lon="12.295481987782402"><ele>471.25</ele><time>2026-04-20T13:39:27Z</time></trkpt><trkpt lat="43.65718704888559" lon="12.295644934558517"><ele>470.0</ele><time>2026-04-20T13:39:28Z</time></trkpt><trkpt lat="43.65726227243577" lon="12.295821449964855"><ele>469.66666666666663</ele><time>2026-04-20T13:39:29Z</time></trkpt><trkpt lat="43.6573260761081" lon="12.29601635466657"><ele>469.33333333333337</ele><time>2026-04-20T13:39:30Z</time></trkpt><trkpt lat="43.65738079805807" lon="12.296224827224881"><ele>469.0</ele><time>2026-04-20T13:39:31Z</time></trkpt><trkpt lat="43.65743317679482" lon="12.296452833993941"><ele>469.6666666666667</ele><time>2026-04-20T13:39:32Z</time></trkpt><trkpt lat="43.657488186780405" lon="12.296686486862685"><ele>470.33333333333337</ele><time>2026-04-20T13:39:33Z</time></trkpt><trkpt lat="43.657545270911626" lon="12.296915431514487"><ele>471.0</ele><time>2026-04-20T13:39:34Z</time></trkpt><trkpt lat="43.65760182758647" lon="12.297152952684112"><ele>471.0</ele><time>2026-04-20T13:39:35Z</time></trkpt><trkpt lat="43.65765949983069" lon="12.297380450282656"><ele>471.0</ele><time>2026-04-20T13:39:35.999Z</time></trkpt><trkpt lat="43.6577137039829" lon="12.297609002389706"><ele>471.0</ele><time>2026-04-20T13:39:36.999Z</time></trkpt><trkpt lat="43.65775818266734" lon="12.297845103757851"><ele>473.0</ele><time>2026-04-20T13:39:37.999Z</time></trkpt><trkpt lat="43.65778507515183" lon="12.298087993516642"><ele>475.0</ele><time>2026-04-20T13:39:38.999Z</time></trkpt><trkpt lat="43.6577858957123" lon="12.298339018662334"><ele>477.0</ele><time>2026-04-20T13:39:39.999Z</time></trkpt><trkpt lat="43.65776819009966" lon="12.298587854964717"><ele>477.0</ele><time>2026-04-20T13:39:40.999Z</time></trkpt><trkpt lat="43.657748064580424" lon="12.298845426229413"><ele>477.0</ele><time>2026-04-20T13:39:41.999Z</time></trkpt><trkpt lat="43.657730287033395" lon="12.29910176633432"><ele>477.0</ele><time>2026-04-20T13:39:42.999Z</time></trkpt><trkpt lat="43.657709568143794" lon="12.299365332038434"><ele>476.66666666666663</ele><time>2026-04-20T13:39:43.999Z</time></trkpt><trkpt lat="43.657693784137784" lon="12.299629234874258"><ele>476.3333333333333</ele><time>2026-04-20T13:39:44.999Z</time></trkpt><trkpt lat="43.65767575697422" lon="12.29989365339803"><ele>476.0</ele><time>2026-04-20T13:39:45.999Z</time></trkpt><trkpt lat="43.65765567352072" lon="12.300160285879912"><ele>476.0</ele><time>2026-04-20T13:39:46.999Z</time></trkpt><trkpt lat="43.657638496565035" lon="12.300426940033246"><ele>476.0</ele><time>2026-04-20T13:39:47.999Z</time></trkpt><trkpt lat="43.65762816665404" lon="12.300702603564778"><ele>476.0</ele><time>2026-04-20T13:39:48.999Z</time></trkpt><trkpt lat="43.657629381901145" lon="12.300977697527701"><ele>475.0</ele><time>2026-04-20T13:39:49.999Z</time></trkpt><trkpt lat="43.65763811357311" lon="12.301260128867508"><ele>474.0</ele><time>2026-04-20T13:39:50.999Z</time></trkpt><trkpt lat="43.657645964327834" lon="12.301547374870339"><ele>473.0</ele><time>2026-04-20T13:39:51.999Z</time></trkpt><trkpt lat="43.657652018888164" lon="12.301839593618725"><ele>472.66666666666663</ele><time>2026-04-20T13:39:52.999Z</time></trkpt><trkpt lat="43.65766060311908" lon="12.302128303566406"><ele>472.33333333333337</ele><time>2026-04-20T13:39:53.999Z</time></trkpt><trkpt lat="43.65766765390036" lon="12.302420455146104"><ele>472.0</ele><time>2026-04-20T13:39:54.999Z</time></trkpt><trkpt lat="43.65767755088199" lon="12.302704748647374"><ele>474.33333333333337</ele><time>2026-04-20T13:39:56Z</time></trkpt><trkpt lat="43.657688095154185" lon="12.302985130103641"><ele>476.66666666666663</ele><time>2026-04-20T13:39:57Z</time></trkpt><trkpt lat="43.65769909696345" lon="12.3032694510868"><ele>479.0</ele><time>2026-04-20T13:39:58Z</time></trkpt><trkpt lat="43.65770535062915" lon="12.303551856469277"><ele>479.3333333333333</ele><time>2026-04-20T13:39:59Z</time></trkpt><trkpt lat="43.657712588421965" lon="12.303835219378488"><ele>479.66666666666663</ele><time>2026-04-20T13:40:00Z</time></trkpt><trkpt lat="43.657719848158656" lon="12.30411733908199"><ele>480.0</ele><time>2026-04-20T13:40:01Z</time></trkpt><trkpt lat="43.65772665403081" lon="12.304397421822065"><ele>478.33333333333337</ele><time>2026-04-20T13:40:02Z</time></trkpt><trkpt lat="43.65773345326259" lon="12.304676949585522"><ele>476.6666666666667</ele><time>2026-04-20T13:40:03Z</time></trkpt><trkpt lat="43.65774165372599" lon="12.304955417833952"><ele>475.0</ele><time>2026-04-20T13:40:04Z</time></trkpt><trkpt lat="43.65774661423263" lon="12.305230067011726"><ele>474.0</ele><time>2026-04-20T13:40:05Z</time></trkpt><trkpt lat="43.65774800042132" lon="12.305504042239285"><ele>473.0</ele><time>2026-04-20T13:40:06Z</time></trkpt><trkpt lat="43.65775462807424" lon="12.305778733206532"><ele>472.0</ele><time>2026-04-20T13:40:07Z</time></trkpt><trkpt lat="43.65776176189416" lon="12.306047607438389"><ele>471.0</ele><time>2026-04-20T13:40:08Z</time></trkpt><trkpt lat="43.65775433900084" lon="12.306313066148045"><ele>470.0</ele><time>2026-04-20T13:40:09Z</time></trkpt><trkpt lat="43.65772192283274" lon="12.306562949263185"><ele>469.0</ele><time>2026-04-20T13:40:10Z</time></trkpt><trkpt lat="43.657664986296744" lon="12.306798688808357"><ele>468.0</ele><time>2026-04-20T13:40:11Z</time></trkpt><trkpt lat="43.65759914905578" lon="12.307026532850553"><ele>467.0</ele><time>2026-04-20T13:40:12Z</time></trkpt><trkpt lat="43.65752885465448" lon="12.307262208539923"><ele>466.0</ele><time>2026-04-20T13:40:13Z</time></trkpt><trkpt lat="43.657457397269425" lon="12.307502663061586"><ele>464.33333333333337</ele><time>2026-04-20T13:40:14Z</time></trkpt><trkpt lat="43.65738634333757" lon="12.307745091584959"><ele>462.66666666666663</ele><time>2026-04-20T13:40:15Z</time></trkpt><trkpt lat="43.65731419118144" lon="12.307994584086144"><ele>461.0</ele><time>2026-04-20T13:40:16Z</time></trkpt><trkpt lat="43.65723944603619" lon="12.30824817057909"><ele>459.3333333333333</ele><time>2026-04-20T13:40:17Z</time></trkpt><trkpt lat="43.65716207752549" lon="12.308503602876995"><ele>457.66666666666663</ele><time>2026-04-20T13:40:18Z</time></trkpt><trkpt lat="43.657084361161814" lon="12.308766891535171"><ele>456.0</ele><time>2026-04-20T13:40:19Z</time></trkpt><trkpt lat="43.65700820591718" lon="12.309037266557828"><ele>461.33333333333337</ele><time>2026-04-20T13:40:20Z</time></trkpt><trkpt lat="43.65693078868093" lon="12.309310578609155"><ele>466.6666666666667</ele><time>2026-04-20T13:40:21Z</time></trkpt><trkpt lat="43.656850287209025" lon="12.309587274827313"><ele>472.0</ele><time>2026-04-20T13:40:22Z</time></trkpt><trkpt lat="43.65676890987898" lon="12.309860078469708"><ele>472.0</ele><time>2026-04-20T13:40:23Z</time></trkpt><trkpt lat="43.65669105587086" lon="12.310131109117572"><ele>472.0</ele><time>2026-04-20T13:40:24Z</time></trkpt><trkpt lat="43.656619441565255" lon="12.310405290134142"><ele>472.0</ele><time>2026-04-20T13:40:25Z</time></trkpt><trkpt lat="43.656562856221335" lon="12.310687439254894"><ele>469.6666666666667</ele><time>2026-04-20T13:40:26Z</time></trkpt><trkpt lat="43.65653022146648" lon="12.310973918070621"><ele>467.33333333333337</ele><time>2026-04-20T13:40:27Z</time></trkpt><trkpt lat="43.656505147536805" lon="12.311260862540502"><ele>465.0</ele><time>2026-04-20T13:40:28Z</time></trkpt><trkpt lat="43.65647835986131" lon="12.31155069842864"><ele>462.0</ele><time>2026-04-20T13:40:29Z</time></trkpt><trkpt lat="43.65645348077599" lon="12.311838768664385"><ele>459.0</ele><time>2026-04-20T13:40:30Z</time></trkpt><trkpt lat="43.65642940484448" lon="12.312128318019292"><ele>456.0</ele><time>2026-04-20T13:40:31Z</time></trkpt><trkpt lat="43.656403934626894" lon="12.312417686776879"><ele>455.33333333333337</ele><time>2026-04-20T13:40:32Z</time></trkpt><trkpt lat="43.65637797108434" lon="12.312713127740096"><ele>454.6666666666667</ele><time>2026-04-20T13:40:33Z</time></trkpt><trkpt lat="43.65634988991493" lon="12.313008197864432"><ele>454.0</ele><time>2026-04-20T13:40:34Z</time></trkpt><trkpt lat="43.656319696137984" lon="12.31330907623776"><ele>454.0</ele><time>2026-04-20T13:40:35Z</time></trkpt><trkpt lat="43.65629140598534" lon="12.313609659309344"><ele>454.0</ele><time>2026-04-20T13:40:36Z</time></trkpt><trkpt lat="43.65626401930393" lon="12.313913175158858"><ele>454.0</ele><time>2026-04-20T13:40:37Z</time></trkpt><trkpt lat="43.65623637024824" lon="12.314219678252254"><ele>454.33333333333337</ele><time>2026-04-20T13:40:38Z</time></trkpt><trkpt lat="43.6562097645707" lon="12.31452559623614"><ele>454.66666666666663</ele><time>2026-04-20T13:40:39Z</time></trkpt><trkpt lat="43.656181728121304" lon="12.31483320368784"><ele>455.0</ele><time>2026-04-20T13:40:40Z</time></trkpt><trkpt lat="43.65615258072346" lon="12.315146546325272"><ele>455.3333333333333</ele><time>2026-04-20T13:40:41Z</time></trkpt><trkpt lat="43.65612721858254" lon="12.315448058736019"><ele>455.66666666666663</ele><time>2026-04-20T13:40:42Z</time></trkpt><trkpt lat="43.65610457178381" lon="12.315725157933054"><ele>456.0</ele><time>2026-04-20T13:40:43Z</time></trkpt><trkpt lat="43.65607684653052" lon="12.3159670085216"><ele>456.0</ele><time>2026-04-20T13:40:44Z</time></trkpt><trkpt lat="43.65604202968378" lon="12.316169667998931"><ele>456.0</ele><time>2026-04-20T13:40:45Z</time></trkpt><trkpt lat="43.65599077373683" lon="12.316351214428698"><ele>456.0</ele><time>2026-04-20T13:40:46Z</time></trkpt><trkpt lat="43.65592926221531" lon="12.316508894326304"><ele>456.0</ele><time>2026-04-20T13:40:47Z</time></trkpt><trkpt lat="43.65586149554258" lon="12.31665646010629"><ele>456.0</ele><time>2026-04-20T13:40:48Z</time></trkpt><trkpt lat="43.65579385771329" lon="12.316802220425702"><ele>456.0</ele><time>2026-04-20T13:40:49Z</time></trkpt><trkpt lat="43.65573259894809" lon="12.316946467103604"><ele>456.0</ele><time>2026-04-20T13:40:50Z</time></trkpt><trkpt lat="43.65567284203843" lon="12.317086938511386"><ele>456.0</ele><time>2026-04-20T13:40:51Z</time></trkpt><trkpt lat="43.6556097590184" lon="12.317221973705914"><ele>454.8333333333333</ele><time>2026-04-20T13:40:52Z</time></trkpt><trkpt lat="43.655548972198126" lon="12.317347492627256"><ele>453.66666666666663</ele><time>2026-04-20T13:40:53Z</time></trkpt><trkpt lat="43.65549437259002" lon="12.317466508454777"><ele>452.5</ele><time>2026-04-20T13:40:54Z</time></trkpt><trkpt lat="43.65544581707325" lon="12.31757546291374"><ele>451.3333333333333</ele><time>2026-04-20T13:40:55Z</time></trkpt><trkpt lat="43.65540881622501" lon="12.317658545899686"><ele>450.16666666666663</ele><time>2026-04-20T13:40:56Z</time></trkpt><trkpt lat="43.65537010875904" lon="12.31773979824679"><ele>449.0</ele><time>2026-04-20T13:40:58Z</time></trkpt><trkpt lat="43.65547213978902" lon="12.31766380973355"><ele>449.0</ele><time>2026-04-20T13:41:02Z</time></trkpt><trkpt lat="43.6554994446365" lon="12.317537773102858"><ele>449.0</ele><time>2026-04-20T13:41:03Z</time></trkpt><trkpt lat="43.655546029748784" lon="12.317437119044362"><ele>449.0</ele><time>2026-04-20T13:41:04Z</time></trkpt><trkpt lat="43.65560131516067" lon="12.317310484903077"><ele>449.0</ele><time>2026-04-20T13:41:05Z</time></trkpt><trkpt lat="43.655657621113015" lon="12.317175699453195"><ele>449.0</ele><time>2026-04-20T13:41:06Z</time></trkpt><trkpt lat="43.655720475923935" lon="12.317037541791128"><ele>450.75</ele><time>2026-04-20T13:41:07Z</time></trkpt><trkpt lat="43.65578935763902" lon="12.316887337573188"><ele>452.5</ele><time>2026-04-20T13:41:08Z</time></trkpt><trkpt lat="43.65586032529404" lon="12.316731068474214"><ele>454.25</ele><time>2026-04-20T13:41:09Z</time></trkpt><trkpt lat="43.65592863286389" lon="12.316575398725908"><ele>456.0</ele><time>2026-04-20T13:41:10Z</time></trkpt><trkpt lat="43.65598779413741" lon="12.316424405708318"><ele>455.6</ele><time>2026-04-20T13:41:11Z</time></trkpt><trkpt lat="43.65603301518243" lon="12.31628825978266"><ele>455.20000000000005</ele><time>2026-04-20T13:41:12Z</time></trkpt><trkpt lat="43.65606177348505" lon="12.3161767670661"><ele>454.79999999999995</ele><time>2026-04-20T13:41:13Z</time></trkpt><trkpt lat="43.656084425538815" lon="12.31607441376012"><ele>454.4</ele><time>2026-04-20T13:41:14Z</time></trkpt><trkpt lat="43.65611075348915" lon="12.315930301979346"><ele>454.0</ele><time>2026-04-20T13:41:16Z</time></trkpt><trkpt lat="43.65617926202023" lon="12.315882579738036"><ele>454.00000000000006</ele><time>2026-04-20T13:41:18Z</time></trkpt><trkpt lat="43.656258294686" lon="12.315945063900818"><ele>454.0</ele><time>2026-04-20T13:41:20Z</time></trkpt><trkpt lat="43.656358053906025" lon="12.315986527800474"><ele>454.0</ele><time>2026-04-20T13:41:22Z</time></trkpt><trkpt lat="43.65644081473052" lon="12.315948608850658"><ele>454.0</ele><time>2026-04-20T13:41:24Z</time></trkpt><trkpt lat="43.65649496832776" lon="12.315900196973978"><ele>454.00000000000006</ele><time>2026-04-20T13:41:25Z</time></trkpt><trkpt lat="43.65656378590454" lon="12.315850617160097"><ele>454.0</ele><time>2026-04-20T13:41:26Z</time></trkpt><trkpt lat="43.65664096816164" lon="12.31580139241339"><ele>454.00000000000006</ele><time>2026-04-20T13:41:27Z</time></trkpt><trkpt lat="43.656715056083335" lon="12.315757808462594"><ele>454.0</ele><time>2026-04-20T13:41:28Z</time></trkpt><trkpt lat="43.65678956081254" lon="12.315719797520094"><ele>454.0</ele><time>2026-04-20T13:41:29Z</time></trkpt><trkpt lat="43.65686382132055" lon="12.315695230050668"><ele>454.0</ele><time>2026-04-20T13:41:30Z</time></trkpt><trkpt lat="43.65693938926458" lon="12.315691912065432"><ele>454.00000000000006</ele><time>2026-04-20T13:41:31Z</time></trkpt><trkpt lat="43.657011808643844" lon="12.315720873988306"><ele>454.0</ele><time>2026-04-20T13:41:32Z</time></trkpt><trkpt lat="43.65708469297556" lon="12.315760158140023"><ele>451.4</ele><time>2026-04-20T13:41:33Z</time></trkpt><trkpt lat="43.65716698428043" lon="12.3157948827316"><ele>448.79999999999995</ele><time>2026-04-20T13:41:34Z</time></trkpt><trkpt lat="43.657255808725495" lon="12.315831257537003"><ele>446.20000000000005</ele><time>2026-04-20T13:41:35Z</time></trkpt><trkpt lat="43.65734694155807" lon="12.315874513238263"><ele>443.6</ele><time>2026-04-20T13:41:36Z</time></trkpt><trkpt lat="43.65744040526268" lon="12.315918745819866"><ele>441.0</ele><time>2026-04-20T13:41:37Z</time></trkpt><trkpt lat="43.6575312315586" lon="12.315962121188269"><ele>441.0</ele><time>2026-04-20T13:41:38Z</time></trkpt><trkpt lat="43.657601334417556" lon="12.315974453757212"><ele>441.0</ele><time>2026-04-20T13:41:39Z</time></trkpt><trkpt lat="43.657670134770676" lon="12.315980428647192"><ele>441.0</ele><time>2026-04-20T13:41:40Z</time></trkpt><trkpt lat="43.657731756370204" lon="12.315954957188643"><ele>441.0</ele><time>2026-04-20T13:41:41Z</time></trkpt><trkpt lat="43.65779207291523" lon="12.315892417679917"><ele>441.0</ele><time>2026-04-20T13:41:42Z</time></trkpt><trkpt lat="43.657866314101625" lon="12.315845822950362"><ele>441.0</ele><time>2026-04-20T13:41:43Z</time></trkpt><trkpt lat="43.65792955980628" lon="12.315769844236273"><ele>441.0</ele><time>2026-04-20T13:41:44Z</time></trkpt><trkpt lat="43.65801523681373" lon="12.315739911521291"><ele>441.6666666666667</ele><time>2026-04-20T13:41:45Z</time></trkpt><trkpt lat="43.658095033072215" lon="12.315771480403093"><ele>442.33333333333337</ele><time>2026-04-20T13:41:46Z</time></trkpt><trkpt lat="43.65817657130829" lon="12.315782030358317"><ele>443.0</ele><time>2026-04-20T13:41:47Z</time></trkpt><trkpt lat="43.65825308970461" lon="12.315800552407097"><ele>443.6666666666667</ele><time>2026-04-20T13:41:48Z</time></trkpt><trkpt lat="43.65831568764426" lon="12.315788737259586"><ele>444.33333333333337</ele><time>2026-04-20T13:41:49Z</time></trkpt><trkpt lat="43.658394859421854" lon="12.315917828071612"><ele>445.0</ele><time>2026-04-20T13:41:51Z</time></trkpt><trkpt lat="43.65844753460123" lon="12.315986068094583"><ele>445.0</ele><time>2026-04-20T13:41:52Z</time></trkpt><trkpt lat="43.658503190012354" lon="12.316052013716261"><ele>445.0</ele><time>2026-04-20T13:41:53Z</time></trkpt><trkpt lat="43.65854144440833" lon="12.316127113201642"><ele>445.0</ele><time>2026-04-20T13:41:54Z</time></trkpt><trkpt lat="43.658571347059265" lon="12.31621246431684"><ele>445.0</ele><time>2026-04-20T13:41:55Z</time></trkpt><trkpt lat="43.65858049800616" lon="12.316315101340495"><ele>445.0</ele><time>2026-04-20T13:41:56Z</time></trkpt><trkpt lat="43.658550682501144" lon="12.316421751449306"><ele>445.0</ele><time>2026-04-20T13:41:57Z</time></trkpt><trkpt lat="43.6585234422413" lon="12.316527276603786"><ele>445.0</ele><time>2026-04-20T13:41:58Z</time></trkpt><trkpt lat="43.65849621045066" lon="12.316622846235926"><ele>446.6</ele><time>2026-04-20T13:41:59Z</time></trkpt><trkpt lat="43.658465351820766" lon="12.316733344703982"><ele>448.2</ele><time>2026-04-20T13:42:00Z</time></trkpt><trkpt lat="43.658446966400284" lon="12.316869841092677"><ele>449.79999999999995</ele><time>2026-04-20T13:42:01Z</time></trkpt><trkpt lat="43.658416725081516" lon="12.317006511612249"><ele>451.4</ele><time>2026-04-20T13:42:02Z</time></trkpt><trkpt lat="43.658369353045664" lon="12.317144192925069"><ele>453.0</ele><time>2026-04-20T13:42:03Z</time></trkpt><trkpt lat="43.65833852996518" lon="12.31729431358009"><ele>455.79999999999995</ele><time>2026-04-20T13:42:04Z</time></trkpt><trkpt lat="43.65830868988018" lon="12.317449277541359"><ele>458.59999999999997</ele><time>2026-04-20T13:42:05Z</time></trkpt><trkpt lat="43.65829753066065" lon="12.31760241841418"><ele>461.40000000000003</ele><time>2026-04-20T13:42:06Z</time></trkpt><trkpt lat="43.65826125739752" lon="12.31774374391632"><ele>464.20000000000005</ele><time>2026-04-20T13:42:07Z</time></trkpt><trkpt lat="43.658241789586896" lon="12.317884405883495"><ele>467.0</ele><time>2026-04-20T13:42:08Z</time></trkpt><trkpt lat="43.65821163146125" lon="12.318032109476407"><ele>470.0</ele><time>2026-04-20T13:42:09Z</time></trkpt><trkpt lat="43.65814241029586" lon="12.318162957618338"><ele>473.0</ele><time>2026-04-20T13:42:10Z</time></trkpt><trkpt lat="43.65809541445209" lon="12.318308180943008"><ele>476.0</ele><time>2026-04-20T13:42:11Z</time></trkpt><trkpt lat="43.658023551158664" lon="12.31846596966941"><ele>479.0</ele><time>2026-04-20T13:42:12Z</time></trkpt><trkpt lat="43.65795907538485" lon="12.318632221672924"><ele>479.0</ele><time>2026-04-20T13:42:13Z</time></trkpt><trkpt lat="43.65789928024001" lon="12.318807407842083"><ele>479.0</ele><time>2026-04-20T13:42:14Z</time></trkpt><trkpt lat="43.657839150749446" lon="12.31898063217909"><ele>479.0</ele><time>2026-04-20T13:42:15Z</time></trkpt><trkpt lat="43.6577971107719" lon="12.319163059579754"><ele>479.0</ele><time>2026-04-20T13:42:16Z</time></trkpt><trkpt lat="43.657758448257354" lon="12.319339383231357"><ele>473.25</ele><time>2026-04-20T13:42:17Z</time></trkpt><trkpt lat="43.65771774693945" lon="12.31950771126662"><ele>467.5</ele><time>2026-04-20T13:42:18Z</time></trkpt><trkpt lat="43.65766898344066" lon="12.31968612881594"><ele>461.75</ele><time>2026-04-20T13:42:19Z</time></trkpt><trkpt lat="43.65760972305146" lon="12.319867871881858"><ele>456.0</ele><time>2026-04-20T13:42:20Z</time></trkpt><trkpt lat="43.657536662809896" lon="12.320042318670405"><ele>456.0</ele><time>2026-04-20T13:42:21Z</time></trkpt><trkpt lat="43.65745593178928" lon="12.320219219560443"><ele>456.0</ele><time>2026-04-20T13:42:22Z</time></trkpt><trkpt lat="43.65737395111009" lon="12.320392428238362"><ele>456.0</ele><time>2026-04-20T13:42:23Z</time></trkpt><trkpt lat="43.6572823677399" lon="12.320554045708855"><ele>459.25</ele><time>2026-04-20T13:42:24Z</time></trkpt><trkpt lat="43.65721630639827" lon="12.320719608404314"><ele>462.5</ele><time>2026-04-20T13:42:25Z</time></trkpt><trkpt lat="43.657136762660954" lon="12.320872689374383"><ele>465.75</ele><time>2026-04-20T13:42:26Z</time></trkpt><trkpt lat="43.65705941319948" lon="12.321025779101184"><ele>469.0</ele><time>2026-04-20T13:42:27Z</time></trkpt><trkpt lat="43.65698977511625" lon="12.32119437744851"><ele>465.75</ele><time>2026-04-20T13:42:28Z</time></trkpt><trkpt lat="43.65692325430728" lon="12.321362797200774"><ele>462.5</ele><time>2026-04-20T13:42:29Z</time></trkpt><trkpt lat="43.65686304458798" lon="12.321547013845196"><ele>459.25</ele><time>2026-04-20T13:42:30Z</time></trkpt><trkpt lat="43.656812177940026" lon="12.321740120769364"><ele>456.0</ele><time>2026-04-20T13:42:31Z</time></trkpt><trkpt lat="43.65677047861353" lon="12.32193851960187"><ele>456.0</ele><time>2026-04-20T13:42:32Z</time></trkpt><trkpt lat="43.656740400197435" lon="12.322144763472881"><ele>456.0</ele><time>2026-04-20T13:42:33Z</time></trkpt><trkpt lat="43.65671301783201" lon="12.32234805362185"><ele>456.0</ele><time>2026-04-20T13:42:34Z</time></trkpt><trkpt lat="43.65665632941526" lon="12.32251706567119"><ele>456.0</ele><time>2026-04-20T13:42:35Z</time></trkpt><trkpt lat="43.656604819456575" lon="12.32267898385425"><ele>459.25</ele><time>2026-04-20T13:42:36Z</time></trkpt><trkpt lat="43.65655742226235" lon="12.322862429954201"><ele>462.5</ele><time>2026-04-20T13:42:37Z</time></trkpt><trkpt lat="43.65650477313844" lon="12.32305112191541"><ele>465.75</ele><time>2026-04-20T13:42:38Z</time></trkpt><trkpt lat="43.656469523864985" lon="12.323221973221466"><ele>469.0</ele><time>2026-04-20T13:42:39Z</time></trkpt><trkpt lat="43.656442175203075" lon="12.323347921490825"><ele>469.5</ele><time>2026-04-20T13:42:40Z</time></trkpt><trkpt lat="43.656456414377374" lon="12.323467274203686"><ele>470.0</ele><time>2026-04-20T13:42:42Z</time></trkpt><trkpt lat="43.656574732851105" lon="12.323558969231167"><ele>470.5</ele><time>2026-04-20T13:42:44Z</time></trkpt><trkpt lat="43.65667738443555" lon="12.323609453626368"><ele>471.0</ele><time>2026-04-20T13:42:45Z</time></trkpt><trkpt lat="43.656790530819855" lon="12.323671159836234"><ele>471.0</ele><time>2026-04-20T13:42:46Z</time></trkpt><trkpt lat="43.656903496565945" lon="12.323740391774082"><ele>471.0</ele><time>2026-04-20T13:42:47Z</time></trkpt><trkpt lat="43.657019689552506" lon="12.323821442668542"><ele>471.0</ele><time>2026-04-20T13:42:48Z</time></trkpt><trkpt lat="43.6571374737939" lon="12.323916601280212"><ele>471.0</ele><time>2026-04-20T13:42:49Z</time></trkpt><trkpt lat="43.657233359562106" lon="12.324011990426717"><ele>475.25</ele><time>2026-04-20T13:42:50Z</time></trkpt><trkpt lat="43.65732350184184" lon="12.32412525372466"><ele>479.5</ele><time>2026-04-20T13:42:51Z</time></trkpt><trkpt lat="43.65739858281616" lon="12.324260524787421"><ele>483.75</ele><time>2026-04-20T13:42:52Z</time></trkpt><trkpt lat="43.65746266562521" lon="12.32440733341998"><ele>488.0</ele><time>2026-04-20T13:42:53Z</time></trkpt><trkpt lat="43.657526369598706" lon="12.324558810312633"><ele>488.0</ele><time>2026-04-20T13:42:54Z</time></trkpt><trkpt lat="43.65759878326538" lon="12.324701257333235"><ele>487.99999999999994</ele><time>2026-04-20T13:42:55Z</time></trkpt><trkpt lat="43.6576601791435" lon="12.324834578956162"><ele>487.99999999999994</ele><time>2026-04-20T13:42:56Z</time></trkpt><trkpt lat="43.65766802432461" lon="12.324980476724429"><ele>488.0</ele><time>2026-04-20T13:42:57Z</time></trkpt><trkpt lat="43.65768912094125" lon="12.325100066018138"><ele>488.0</ele><time>2026-04-20T13:42:58Z</time></trkpt><trkpt lat="43.657729279559135" lon="12.325190124262734"><ele>490.16666666666663</ele><time>2026-04-20T13:42:59Z</time></trkpt><trkpt lat="43.65779002592553" lon="12.325239923520005"><ele>492.3333333333333</ele><time>2026-04-20T13:43:00Z</time></trkpt><trkpt lat="43.65787191080262" lon="12.325214963072378"><ele>494.5</ele><time>2026-04-20T13:43:01Z</time></trkpt><trkpt lat="43.65793279935298" lon="12.32511349459437"><ele>496.66666666666663</ele><time>2026-04-20T13:43:02Z</time></trkpt><trkpt lat="43.657949749873126" lon="12.324986965974702"><ele>498.8333333333333</ele><time>2026-04-20T13:43:03Z</time></trkpt><trkpt lat="43.65795785367844" lon="12.324860873841077"><ele>501.0</ele><time>2026-04-20T13:43:04Z</time></trkpt><trkpt lat="43.65795605643908" lon="12.324739189797723"><ele>498.4</ele><time>2026-04-20T13:43:05Z</time></trkpt><trkpt lat="43.657870454593294" lon="12.324625057099661"><ele>495.8</ele><time>2026-04-20T13:43:06Z</time></trkpt><trkpt lat="43.657768808497174" lon="12.324542781620874"><ele>493.19999999999993</ele><time>2026-04-20T13:43:07Z</time></trkpt><trkpt lat="43.65770191319646" lon="12.324429384561494"><ele>490.59999999999997</ele><time>2026-04-20T13:43:08Z</time></trkpt><trkpt lat="43.657660465831384" lon="12.32430184955348"><ele>488.0</ele><time>2026-04-20T13:43:09Z</time></trkpt><trkpt lat="43.65765850066533" lon="12.324148412467675"><ele>488.0</ele><time>2026-04-20T13:43:10Z</time></trkpt><trkpt lat="43.657624330543" lon="12.324002244545976"><ele>488.0</ele><time>2026-04-20T13:43:11Z</time></trkpt><trkpt lat="43.65758384260918" lon="12.32385338282932"><ele>488.0</ele><time>2026-04-20T13:43:12Z</time></trkpt><trkpt lat="43.65752995016111" lon="12.323702253592629"><ele>488.0</ele><time>2026-04-20T13:43:13Z</time></trkpt><trkpt lat="43.657464381060606" lon="12.323554990090445"><ele>492.2</ele><time>2026-04-20T13:43:14Z</time></trkpt><trkpt lat="43.65739166684981" lon="12.323405120047562"><ele>496.4</ele><time>2026-04-20T13:43:15Z</time></trkpt><trkpt lat="43.657322931267416" lon="12.323261540717406"><ele>500.59999999999997</ele><time>2026-04-20T13:43:16Z</time></trkpt><trkpt lat="43.65728663623154" lon="12.323133289878173"><ele>504.79999999999995</ele><time>2026-04-20T13:43:17Z</time></trkpt><trkpt lat="43.65727446947306" lon="12.323018189678546"><ele>509.0</ele><time>2026-04-20T13:43:18Z</time></trkpt><trkpt lat="43.65730014017312" lon="12.322919896834911"><ele>509.2</ele><time>2026-04-20T13:43:19Z</time></trkpt><trkpt lat="43.6573504268949" lon="12.322830614322761"><ele>509.4</ele><time>2026-04-20T13:43:20Z</time></trkpt><trkpt lat="43.6574100123917" lon="12.322731622752013"><ele>509.6</ele><time>2026-04-20T13:43:21Z</time></trkpt><trkpt lat="43.65748585631025" lon="12.322595943053843"><ele>509.8</ele><time>2026-04-20T13:43:22Z</time></trkpt><trkpt lat="43.65750572601031" lon="12.322447501740125"><ele>510.0</ele><time>2026-04-20T13:43:23Z</time></trkpt><trkpt lat="43.65753547452422" lon="12.322355785614125"><ele>510.0</ele><time>2026-04-20T13:43:24Z</time></trkpt><trkpt lat="43.65758756095663" lon="12.322295441586373"><ele>510.0</ele><time>2026-04-20T13:43:26Z</time></trkpt><trkpt lat="43.65765535442872" lon="12.322417693229239"><ele>510.0</ele><time>2026-04-20T13:43:28Z</time></trkpt><trkpt lat="43.65763502513273" lon="12.322510593156764"><ele>510.0</ele><time>2026-04-20T13:43:29Z</time></trkpt><trkpt lat="43.65760351966742" lon="12.322597614748862"><ele>510.0</ele><time>2026-04-20T13:43:30Z</time></trkpt><trkpt lat="43.65758949549138" lon="12.322702072530076"><ele>510.0</ele><time>2026-04-20T13:43:31Z</time></trkpt><trkpt lat="43.65757112527813" lon="12.32281918085469"><ele>510.0</ele><time>2026-04-20T13:43:32Z</time></trkpt><trkpt lat="43.65756504425087" lon="12.322951060091166"><ele>510.0</ele><time>2026-04-20T13:43:33Z</time></trkpt><trkpt lat="43.65755444215296" lon="12.323086691071122"><ele>510.0</ele><time>2026-04-20T13:43:34Z</time></trkpt><trkpt lat="43.6575802646509" lon="12.323223511249845"><ele>510.0</ele><time>2026-04-20T13:43:35Z</time></trkpt><trkpt lat="43.657634156351" lon="12.323339875279226"><ele>510.0</ele><time>2026-04-20T13:43:36Z</time></trkpt><trkpt lat="43.657712683327425" lon="12.323455182867901"><ele>519.25</ele><time>2026-04-20T13:43:37Z</time></trkpt><trkpt lat="43.657786908452024" lon="12.323558346574744"><ele>528.5</ele><time>2026-04-20T13:43:38Z</time></trkpt><trkpt lat="43.657875189012124" lon="12.323666423256105"><ele>537.75</ele><time>2026-04-20T13:43:39Z</time></trkpt><trkpt lat="43.65796954882873" lon="12.323782240466148"><ele>547.0</ele><time>2026-04-20T13:43:40Z</time></trkpt><trkpt lat="43.65805386784136" lon="12.323888082463757"><ele>541.5</ele><time>2026-04-20T13:43:41Z</time></trkpt><trkpt lat="43.65814577429611" lon="12.323962231807815"><ele>536.0</ele><time>2026-04-20T13:43:42Z</time></trkpt><trkpt lat="43.65825953718705" lon="12.324016932984941"><ele>530.5</ele><time>2026-04-20T13:43:43Z</time></trkpt><trkpt lat="43.65837858572684" lon="12.32405213789539"><ele>525.0</ele><time>2026-04-20T13:43:44Z</time></trkpt><trkpt lat="43.658503957490026" lon="12.324093638248788"><ele>528.5</ele><time>2026-04-20T13:43:45Z</time></trkpt><trkpt lat="43.658630042462036" lon="12.324130358397367"><ele>532.0</ele><time>2026-04-20T13:43:46Z</time></trkpt><trkpt lat="43.65874683651732" lon="12.324189551800194"><ele>535.5</ele><time>2026-04-20T13:43:47Z</time></trkpt><trkpt lat="43.658855026100966" lon="12.324209164064"><ele>539.0</ele><time>2026-04-20T13:43:48Z</time></trkpt><trkpt lat="43.6589589936975" lon="12.32425002292892"><ele>539.0</ele><time>2026-04-20T13:43:49Z</time></trkpt><trkpt lat="43.65905407339357" lon="12.324274664456007"><ele>539.0</ele><time>2026-04-20T13:43:50Z</time></trkpt><trkpt lat="43.659142765771975" lon="12.324310835014114"><ele>539.0</ele><time>2026-04-20T13:43:51Z</time></trkpt><trkpt lat="43.659246704754665" lon="12.324328683236713"><ele>539.0</ele><time>2026-04-20T13:43:52Z</time></trkpt><trkpt lat="43.65934479967651" lon="12.324365650310583"><ele>539.0</ele><time>2026-04-20T13:43:53Z</time></trkpt><trkpt lat="43.659423840092074" lon="12.324440132719383"><ele>540.8333333333333</ele><time>2026-04-20T13:43:54Z</time></trkpt><trkpt lat="43.65951025159677" lon="12.324511176415733"><ele>542.6666666666666</ele><time>2026-04-20T13:43:55Z</time></trkpt><trkpt lat="43.65955923241298" lon="12.324630072750606"><ele>544.5</ele><time>2026-04-20T13:43:56Z</time></trkpt><trkpt lat="43.65963296797996" lon="12.324702341262512"><ele>546.3333333333334</ele><time>2026-04-20T13:43:57Z</time></trkpt><trkpt lat="43.65968588650852" lon="12.324772093595989"><ele>548.1666666666667</ele><time>2026-04-20T13:43:58Z</time></trkpt><trkpt lat="43.659766594839816" lon="12.324798992243652"><ele>550.0</ele><time>2026-04-20T13:43:59Z</time></trkpt><trkpt lat="43.65986754141211" lon="12.324766706269363"><ele>550.0</ele><time>2026-04-20T13:44:00Z</time></trkpt><trkpt lat="43.65994914458619" lon="12.324748703515652"><ele>550.0</ele><time>2026-04-20T13:44:01Z</time></trkpt><trkpt lat="43.6600368956424" lon="12.324715751414601"><ele>550.0</ele><time>2026-04-20T13:44:02Z</time></trkpt><trkpt lat="43.66011923268291" lon="12.32468503001259"><ele>550.0</ele><time>2026-04-20T13:44:03Z</time></trkpt><trkpt lat="43.66020228933128" lon="12.324575938625479"><ele>550.0</ele><time>2026-04-20T13:44:04Z</time></trkpt><trkpt lat="43.660268650094864" lon="12.32443754427131"><ele>548.5</ele><time>2026-04-20T13:44:05Z</time></trkpt><trkpt lat="43.660368758314526" lon="12.324322977606567"><ele>547.0</ele><time>2026-04-20T13:44:06Z</time></trkpt><trkpt lat="43.66046772444295" lon="12.324194551136921"><ele>545.5</ele><time>2026-04-20T13:44:07Z</time></trkpt><trkpt lat="43.660573325822696" lon="12.324050077715729"><ele>544.0</ele><time>2026-04-20T13:44:08Z</time></trkpt><trkpt lat="43.660681175773796" lon="12.323875976652687"><ele>550.75</ele><time>2026-04-20T13:44:09Z</time></trkpt><trkpt lat="43.66077087300976" lon="12.323710739028853"><ele>557.5</ele><time>2026-04-20T13:44:10Z</time></trkpt><trkpt lat="43.66086790136121" lon="12.323588601319583"><ele>564.25</ele><time>2026-04-20T13:44:11Z</time></trkpt><trkpt lat="43.66098871015843" lon="12.323484861391638"><ele>571.0</ele><time>2026-04-20T13:44:12Z</time></trkpt><trkpt lat="43.66111314831835" lon="12.323406634577935"><ele>572.6</ele><time>2026-04-20T13:44:13Z</time></trkpt><trkpt lat="43.66121445668433" lon="12.323320765107743"><ele>574.2</ele><time>2026-04-20T13:44:14Z</time></trkpt><trkpt lat="43.66131562799681" lon="12.323263980082688"><ele>575.8</ele><time>2026-04-20T13:44:15Z</time></trkpt><trkpt lat="43.66139948881143" lon="12.32325197130114"><ele>577.4</ele><time>2026-04-20T13:44:16Z</time></trkpt><trkpt lat="43.66147109171682" lon="12.323283254354717"><ele>579.0</ele><time>2026-04-20T13:44:17Z</time></trkpt><trkpt lat="43.66151495868077" lon="12.323352381609118"><ele>579.0</ele><time>2026-04-20T13:44:18Z</time></trkpt><trkpt lat="43.66155646436834" lon="12.323456930467984"><ele>579.0</ele><time>2026-04-20T13:44:19Z</time></trkpt><trkpt lat="43.66154955214114" lon="12.323581164367546"><ele>579.0</ele><time>2026-04-20T13:44:20Z</time></trkpt><trkpt lat="43.66156484933866" lon="12.323708927561892"><ele>579.0</ele><time>2026-04-20T13:44:21Z</time></trkpt><trkpt lat="43.661589237250155" lon="12.323865229187511"><ele>579.0</ele><time>2026-04-20T13:44:22Z</time></trkpt><trkpt lat="43.6616375308301" lon="12.323998532185136"><ele>578.8333333333334</ele><time>2026-04-20T13:44:23Z</time></trkpt><trkpt lat="43.66167440284838" lon="12.324111948575357"><ele>578.6666666666666</ele><time>2026-04-20T13:44:24Z</time></trkpt><trkpt lat="43.66172626307274" lon="12.324182593036419"><ele>578.5</ele><time>2026-04-20T13:44:25Z</time></trkpt><trkpt lat="43.66179321270636" lon="12.324214235974228"><ele>578.3333333333333</ele><time>2026-04-20T13:44:26Z</time></trkpt><trkpt lat="43.66187541771543" lon="12.324219673031363"><ele>578.1666666666666</ele><time>2026-04-20T13:44:27Z</time></trkpt><trkpt lat="43.66195002647717" lon="12.324186396091338"><ele>578.0</ele><time>2026-04-20T13:44:28Z</time></trkpt><trkpt lat="43.6620346006346" lon="12.324123066018121"><ele>578.0</ele><time>2026-04-20T13:44:29Z</time></trkpt><trkpt lat="43.66213001209517" lon="12.32403742951423"><ele>578.0</ele><time>2026-04-20T13:44:30Z</time></trkpt><trkpt lat="43.662225492346415" lon="12.323957973731122"><ele>578.0</ele><time>2026-04-20T13:44:31Z</time></trkpt><trkpt lat="43.6623310953868" lon="12.323932196117635"><ele>578.0</ele><time>2026-04-20T13:44:32Z</time></trkpt><trkpt lat="43.66244026982063" lon="12.323945726769978"><ele>578.0</ele><time>2026-04-20T13:44:33Z</time></trkpt><trkpt lat="43.66253719737187" lon="12.324018369763614"><ele>578.0</ele><time>2026-04-20T13:44:34Z</time></trkpt><trkpt lat="43.662610973476575" lon="12.324136070745583"><ele>578.0</ele><time>2026-04-20T13:44:35Z</time></trkpt><trkpt lat="43.66269033177725" lon="12.324172034171914"><ele>578.0</ele><time>2026-04-20T13:44:36Z</time></trkpt><trkpt lat="43.66277120146683" lon="12.324170433745083"><ele>578.0</ele><time>2026-04-20T13:44:37Z</time></trkpt><trkpt lat="43.66286359749422" lon="12.324131215792992"><ele>578.0</ele><time>2026-04-20T13:44:38Z</time></trkpt><trkpt lat="43.66297008851645" lon="12.324105828019437"><ele>581.75</ele><time>2026-04-20T13:44:39Z</time></trkpt><trkpt lat="43.66308846776561" lon="12.32412172097475"><ele>585.5</ele><time>2026-04-20T13:44:40Z</time></trkpt><trkpt lat="43.66320482029044" lon="12.324185708933832"><ele>589.25</ele><time>2026-04-20T13:44:41Z</time></trkpt><trkpt lat="43.66331505380829" lon="12.324269633163235"><ele>593.0</ele><time>2026-04-20T13:44:42Z</time></trkpt><trkpt lat="43.66343937052457" lon="12.324345096649802"><ele>593.0</ele><time>2026-04-20T13:44:43Z</time></trkpt><trkpt lat="43.66357422201696" lon="12.324391044053142"><ele>593.0</ele><time>2026-04-20T13:44:44Z</time></trkpt><trkpt lat="43.663706397253094" lon="12.324412203824393"><ele>593.0</ele><time>2026-04-20T13:44:45Z</time></trkpt><trkpt lat="43.66382262729043" lon="12.324430346637866"><ele>593.0</ele><time>2026-04-20T13:44:46Z</time></trkpt><trkpt lat="43.66391841595298" lon="12.324462734050083"><ele>592.8</ele><time>2026-04-20T13:44:47Z</time></trkpt><trkpt lat="43.66399438230898" lon="12.324548011919134"><ele>592.5999999999999</ele><time>2026-04-20T13:44:48Z</time></trkpt><trkpt lat="43.66405989807876" lon="12.324689415881126"><ele>592.4000000000001</ele><time>2026-04-20T13:44:49Z</time></trkpt><trkpt lat="43.66412541815989" lon="12.324777059057936"><ele>592.2</ele><time>2026-04-20T13:44:50Z</time></trkpt><trkpt lat="43.6642122957009" lon="12.324825277826523"><ele>592.0</ele><time>2026-04-20T13:44:51Z</time></trkpt><trkpt lat="43.66432248994374" lon="12.324845688154543"><ele>592.0</ele><time>2026-04-20T13:44:52Z</time></trkpt><trkpt lat="43.66444379741676" lon="12.324860969857367"><ele>592.0</ele><time>2026-04-20T13:44:53Z</time></trkpt><trkpt lat="43.66456486416061" lon="12.324894932644133"><ele>592.0</ele><time>2026-04-20T13:44:54Z</time></trkpt><trkpt lat="43.66469435704845" lon="12.324863617762208"><ele>592.0</ele><time>2026-04-20T13:44:55Z</time></trkpt><trkpt lat="43.66482518758572" lon="12.324830143958343"><ele>595.4</ele><time>2026-04-20T13:44:56Z</time></trkpt><trkpt lat="43.66493394520118" lon="12.324805832206922"><ele>598.8000000000001</ele><time>2026-04-20T13:44:57Z</time></trkpt><trkpt lat="43.6650189043041" lon="12.324827023601907"><ele>602.2</ele><time>2026-04-20T13:44:58Z</time></trkpt><trkpt lat="43.665086119276474" lon="12.324931579633803"><ele>605.6</ele><time>2026-04-20T13:44:59Z</time></trkpt><trkpt lat="43.665161938732034" lon="12.325063770527958"><ele>609.0</ele><time>2026-04-20T13:45:00Z</time></trkpt><trkpt lat="43.665242885591915" lon="12.325215635391183"><ele>608.4</ele><time>2026-04-20T13:45:01Z</time></trkpt><trkpt lat="43.66530882457592" lon="12.325353949514907"><ele>607.8</ele><time>2026-04-20T13:45:02Z</time></trkpt><trkpt lat="43.665354107176704" lon="12.32546749927835"><ele>607.2</ele><time>2026-04-20T13:45:03Z</time></trkpt><trkpt lat="43.665304371694134" lon="12.325604447012845"><ele>606.6</ele><time>2026-04-20T13:45:04Z</time></trkpt><trkpt lat="43.66530095641978" lon="12.325738929364025"><ele>606.0</ele><time>2026-04-20T13:45:05Z</time></trkpt><trkpt lat="43.66531449840989" lon="12.325832890172283"><ele>606.0</ele><time>2026-04-20T13:45:06Z</time></trkpt><trkpt lat="43.66540662116275" lon="12.325916645929638"><ele>606.0</ele><time>2026-04-20T13:45:08Z</time></trkpt><trkpt lat="43.66548960956115" lon="12.325876915441974"><ele>606.0</ele><time>2026-04-20T13:45:09Z</time></trkpt><trkpt lat="43.665573143753264" lon="12.325808042739494"><ele>606.0</ele><time>2026-04-20T13:45:10Z</time></trkpt><trkpt lat="43.66564312537085" lon="12.325733640091142"><ele>606.0</ele><time>2026-04-20T13:45:11Z</time></trkpt><trkpt lat="43.66567569769802" lon="12.325654192335401"><ele>609.8</ele><time>2026-04-20T13:45:12Z</time></trkpt><trkpt lat="43.66566785008173" lon="12.325554202309254"><ele>613.6</ele><time>2026-04-20T13:45:13Z</time></trkpt><trkpt lat="43.66565208963217" lon="12.325453150514429"><ele>617.4</ele><time>2026-04-20T13:45:14Z</time></trkpt><trkpt lat="43.66561787821945" lon="12.325323817244497"><ele>621.2</ele><time>2026-04-20T13:45:15Z</time></trkpt><trkpt lat="43.66560120990083" lon="12.325172313602032"><ele>625.0</ele><time>2026-04-20T13:45:16Z</time></trkpt><trkpt lat="43.66553209371518" lon="12.325021878094594"><ele>625.0</ele><time>2026-04-20T13:45:17Z</time></trkpt><trkpt lat="43.66547850617192" lon="12.324873420690528"><ele>625.0</ele><time>2026-04-20T13:45:18Z</time></trkpt><trkpt lat="43.665430629760976" lon="12.324728320210772"><ele>625.0</ele><time>2026-04-20T13:45:19Z</time></trkpt><trkpt lat="43.66543026410934" lon="12.324594549558105"><ele>625.0</ele><time>2026-04-20T13:45:20Z</time></trkpt><trkpt lat="43.665459246956765" lon="12.324493027364106"><ele>625.0</ele><time>2026-04-20T13:45:21Z</time></trkpt><trkpt lat="43.66550880308679" lon="12.324433826683697"><ele>623.0</ele><time>2026-04-20T13:45:22Z</time></trkpt><trkpt lat="43.66562410154345" lon="12.324446668676167"><ele>621.0</ele><time>2026-04-20T13:45:24Z</time></trkpt><trkpt lat="43.665692520334545" lon="12.32449903838862"><ele>619.0</ele><time>2026-04-20T13:45:25Z</time></trkpt><trkpt lat="43.66579468525895" lon="12.324555014242218"><ele>617.0</ele><time>2026-04-20T13:45:26Z</time></trkpt><trkpt lat="43.66590796117565" lon="12.324611445827312"><ele>615.0</ele><time>2026-04-20T13:45:27Z</time></trkpt><trkpt lat="43.66602114201694" lon="12.324661297330971"><ele>619.0</ele><time>2026-04-20T13:45:28Z</time></trkpt><trkpt lat="43.66613470383695" lon="12.32470602289366"><ele>623.0</ele><time>2026-04-20T13:45:29Z</time></trkpt><trkpt lat="43.666253208296176" lon="12.324739100208115"><ele>627.0</ele><time>2026-04-20T13:45:30Z</time></trkpt><trkpt lat="43.66637615391246" lon="12.324750335028188"><ele>631.0</ele><time>2026-04-20T13:45:31Z</time></trkpt><trkpt lat="43.666485951037636" lon="12.324728184316564"><ele>631.0</ele><time>2026-04-20T13:45:32Z</time></trkpt><trkpt lat="43.66657855925148" lon="12.324661235044173"><ele>631.0</ele><time>2026-04-20T13:45:33Z</time></trkpt><trkpt lat="43.66668152929432" lon="12.324598067428974"><ele>631.0</ele><time>2026-04-20T13:45:34Z</time></trkpt><trkpt lat="43.66680452555623" lon="12.324554816650236"><ele>631.0</ele><time>2026-04-20T13:45:35Z</time></trkpt><trkpt lat="43.666933443936415" lon="12.324490112793562"><ele>636.0</ele><time>2026-04-20T13:45:36Z</time></trkpt><trkpt lat="43.66706262610796" lon="12.324415222011122"><ele>641.0</ele><time>2026-04-20T13:45:37Z</time></trkpt><trkpt lat="43.66718979479982" lon="12.324388403330644"><ele>646.0</ele><time>2026-04-20T13:45:38Z</time></trkpt><trkpt lat="43.66731363467511" lon="12.32433138399088"><ele>651.0</ele><time>2026-04-20T13:45:39Z</time></trkpt><trkpt lat="43.66744768383631" lon="12.324311065204327"><ele>651.0</ele><time>2026-04-20T13:45:40Z</time></trkpt><trkpt lat="43.66756972538775" lon="12.324314481515628"><ele>651.0</ele><time>2026-04-20T13:45:41Z</time></trkpt><trkpt lat="43.66766195064113" lon="12.32426312636682"><ele>651.0</ele><time>2026-04-20T13:45:42Z</time></trkpt><trkpt lat="43.667724284796556" lon="12.324244429343977"><ele>651.0</ele><time>2026-04-20T13:45:43Z</time></trkpt><trkpt lat="43.667761058799236" lon="12.32414385550562"><ele>651.0</ele><time>2026-04-20T13:45:44Z</time></trkpt><trkpt lat="43.66775434912274" lon="12.324020068513706"><ele>654.75</ele><time>2026-04-20T13:45:45Z</time></trkpt><trkpt lat="43.66770418057234" lon="12.323877662601657"><ele>658.5</ele><time>2026-04-20T13:45:46Z</time></trkpt><trkpt lat="43.667608797627224" lon="12.323759643602491"><ele>662.25</ele><time>2026-04-20T13:45:47Z</time></trkpt><trkpt lat="43.667513825625456" lon="12.323618769510254"><ele>666.0</ele><time>2026-04-20T13:45:48Z</time></trkpt><trkpt lat="43.66741028484109" lon="12.323484063417787"><ele>666.0</ele><time>2026-04-20T13:45:49Z</time></trkpt><trkpt lat="43.66728818102666" lon="12.323363696926812"><ele>666.0</ele><time>2026-04-20T13:45:50Z</time></trkpt><trkpt lat="43.66716173943339" lon="12.323283630356807"><ele>666.0</ele><time>2026-04-20T13:45:51Z</time></trkpt><trkpt lat="43.667034661172025" lon="12.323215074135415"><ele>666.0</ele><time>2026-04-20T13:45:52Z</time></trkpt><trkpt lat="43.666908512724" lon="12.323185458164689"><ele>663.1999999999999</ele><time>2026-04-20T13:45:53Z</time></trkpt><trkpt lat="43.66679028989474" lon="12.323127508715901"><ele>660.4</ele><time>2026-04-20T13:45:54Z</time></trkpt><trkpt lat="43.66670920465214" lon="12.323025858987657"><ele>657.6</ele><time>2026-04-20T13:45:55Z</time></trkpt><trkpt lat="43.66665393459781" lon="12.322945565578294"><ele>654.8</ele><time>2026-04-20T13:45:56Z</time></trkpt><trkpt lat="43.666630486418114" lon="12.322854154241266"><ele>652.0</ele><time>2026-04-20T13:45:57Z</time></trkpt><trkpt lat="43.666627744426634" lon="12.322737422786263"><ele>652.0</ele><time>2026-04-20T13:45:58Z</time></trkpt><trkpt lat="43.666637202097846" lon="12.322644162168885"><ele>652.0</ele><time>2026-04-20T13:45:59Z</time></trkpt><trkpt lat="43.66667991756098" lon="12.322564961864103"><ele>652.0</ele><time>2026-04-20T13:46:00Z</time></trkpt><trkpt lat="43.66674255840277" lon="12.322480495434"><ele>652.0</ele><time>2026-04-20T13:46:01Z</time></trkpt><trkpt lat="43.66682647354704" lon="12.32241903455915"><ele>652.0</ele><time>2026-04-20T13:46:02Z</time></trkpt><trkpt lat="43.666940139303314" lon="12.322374060956479"><ele>652.0</ele><time>2026-04-20T13:46:03Z</time></trkpt><trkpt lat="43.6670822956021" lon="12.32234516482398"><ele>651.5</ele><time>2026-04-20T13:46:04Z</time></trkpt><trkpt lat="43.667221233221184" lon="12.322317954911778"><ele>651.0</ele><time>2026-04-20T13:46:05Z</time></trkpt><trkpt lat="43.667350009263885" lon="12.322277534155221"><ele>650.5</ele><time>2026-04-20T13:46:06Z</time></trkpt><trkpt lat="43.667451630639206" lon="12.322210992938317"><ele>650.0</ele><time>2026-04-20T13:46:07Z</time></trkpt><trkpt lat="43.667513105682346" lon="12.322058134276215"><ele>650.0</ele><time>2026-04-20T13:46:08Z</time></trkpt><trkpt lat="43.66758552489741" lon="12.321957320095834"><ele>650.0</ele><time>2026-04-20T13:46:09Z</time></trkpt><trkpt lat="43.66766854960188" lon="12.321909751256587"><ele>650.0</ele><time>2026-04-20T13:46:10Z</time></trkpt><trkpt lat="43.667768989414654" lon="12.32187228531472"><ele>650.0</ele><time>2026-04-20T13:46:11Z</time></trkpt><trkpt lat="43.66787968767863" lon="12.321836350632907"><ele>650.0</ele><time>2026-04-20T13:46:12Z</time></trkpt><trkpt lat="43.66798857494891" lon="12.32176671884655"><ele>654.25</ele><time>2026-04-20T13:46:13Z</time></trkpt><trkpt lat="43.66809227879243" lon="12.321670494998173"><ele>658.5</ele><time>2026-04-20T13:46:14Z</time></trkpt><trkpt lat="43.668213396769076" lon="12.321568282338335"><ele>662.75</ele><time>2026-04-20T13:46:15Z</time></trkpt><trkpt lat="43.66835129139128" lon="12.321524506441397"><ele>667.0</ele><time>2026-04-20T13:46:16Z</time></trkpt><trkpt lat="43.66847905401801" lon="12.321483702628504"><ele>667.0</ele><time>2026-04-20T13:46:17Z</time></trkpt><trkpt lat="43.668601739708244" lon="12.321436461663627"><ele>667.0</ele><time>2026-04-20T13:46:18Z</time></trkpt><trkpt lat="43.66872656821006" lon="12.321425475761183"><ele>667.0</ele><time>2026-04-20T13:46:19Z</time></trkpt><trkpt lat="43.66883461240281" lon="12.321449521446658"><ele>667.0</ele><time>2026-04-20T13:46:20Z</time></trkpt><trkpt lat="43.66894446023998" lon="12.32150816660085"><ele>670.0</ele><time>2026-04-20T13:46:21Z</time></trkpt><trkpt lat="43.66907587147551" lon="12.321607679058054"><ele>673.0</ele><time>2026-04-20T13:46:22Z</time></trkpt><trkpt lat="43.669181798960764" lon="12.321684137963794"><ele>676.0</ele><time>2026-04-20T13:46:23Z</time></trkpt><trkpt lat="43.66926882335116" lon="12.321722359084657"><ele>679.0</ele><time>2026-04-20T13:46:24Z</time></trkpt><trkpt lat="43.6693615020449" lon="12.321753333174268"><ele>682.75</ele><time>2026-04-20T13:46:25Z</time></trkpt><trkpt lat="43.66946133716265" lon="12.321754709297577"><ele>686.5</ele><time>2026-04-20T13:46:26Z</time></trkpt><trkpt lat="43.66956980919187" lon="12.321707673481077"><ele>690.25</ele><time>2026-04-20T13:46:27Z</time></trkpt><trkpt lat="43.66969121870703" lon="12.321622018876702"><ele>694.0</ele><time>2026-04-20T13:46:28Z</time></trkpt><trkpt lat="43.66981881433034" lon="12.321515357833889"><ele>694.0</ele><time>2026-04-20T13:46:29Z</time></trkpt><trkpt lat="43.66994089952415" lon="12.321403578452975"><ele>694.0</ele><time>2026-04-20T13:46:30Z</time></trkpt><trkpt lat="43.67006138329605" lon="12.321268309529334"><ele>694.0</ele><time>2026-04-20T13:46:31Z</time></trkpt><trkpt lat="43.67017499231493" lon="12.3211575210896"><ele>694.0</ele><time>2026-04-20T13:46:32Z</time></trkpt><trkpt lat="43.67027082288038" lon="12.32106583088451"><ele>695.25</ele><time>2026-04-20T13:46:33Z</time></trkpt><trkpt lat="43.67037204366511" lon="12.320994832475314"><ele>696.5</ele><time>2026-04-20T13:46:34Z</time></trkpt><trkpt lat="43.67048766387365" lon="12.320927934195653"><ele>697.75</ele><time>2026-04-20T13:46:35Z</time></trkpt><trkpt lat="43.67062170278951" lon="12.32087050048517"><ele>699.0</ele><time>2026-04-20T13:46:36Z</time></trkpt><trkpt lat="43.67076255151939" lon="12.320758510518347"><ele>699.0</ele><time>2026-04-20T13:46:37Z</time></trkpt><trkpt lat="43.6708975619025" lon="12.320654274936702"><ele>699.0</ele><time>2026-04-20T13:46:38Z</time></trkpt><trkpt lat="43.671036047473955" lon="12.320574748711294"><ele>699.0</ele><time>2026-04-20T13:46:39Z</time></trkpt><trkpt lat="43.67114688862195" lon="12.32048901045485"><ele>699.0</ele><time>2026-04-20T13:46:40Z</time></trkpt><trkpt lat="43.67122944203309" lon="12.320396010214777"><ele>701.1666666666666</ele><time>2026-04-20T13:46:41Z</time></trkpt><trkpt lat="43.67130391381088" lon="12.320335111471287"><ele>703.3333333333334</ele><time>2026-04-20T13:46:42Z</time></trkpt><trkpt lat="43.67133844716557" lon="12.320216014223488"><ele>705.5</ele><time>2026-04-20T13:46:43Z</time></trkpt><trkpt lat="43.67138471770073" lon="12.32010185287852"><ele>707.6666666666667</ele><time>2026-04-20T13:46:44Z</time></trkpt><trkpt lat="43.67142212986684" lon="12.320005615478545"><ele>709.8333333333334</ele><time>2026-04-20T13:46:45Z</time></trkpt><trkpt lat="43.671491172791136" lon="12.319930070792582"><ele>712.0</ele><time>2026-04-20T13:46:47Z</time></trkpt><trkpt lat="43.67157245464698" lon="12.320002406943093"><ele>712.0</ele><time>2026-04-20T13:46:49Z</time></trkpt><trkpt lat="43.671578135054965" lon="12.320100338872825"><ele>712.0</ele><time>2026-04-20T13:46:50Z</time></trkpt><trkpt lat="43.671542446498684" lon="12.320228037004762"><ele>712.0</ele><time>2026-04-20T13:46:51Z</time></trkpt><trkpt lat="43.67154073359472" lon="12.320397635248266"><ele>712.0</ele><time>2026-04-20T13:46:52Z</time></trkpt><trkpt lat="43.671510958753" lon="12.320566595608138"><ele>712.0</ele><time>2026-04-20T13:46:53Z</time></trkpt><trkpt lat="43.671476175864115" lon="12.320729821790772"><ele>708.75</ele><time>2026-04-20T13:46:54Z</time></trkpt><trkpt lat="43.67139079031109" lon="12.32086562724519"><ele>705.5</ele><time>2026-04-20T13:46:55Z</time></trkpt><trkpt lat="43.671294534352455" lon="12.32102195795313"><ele>702.25</ele><time>2026-04-20T13:46:56Z</time></trkpt><trkpt lat="43.67119496056135" lon="12.321189557171722"><ele>699.0</ele><time>2026-04-20T13:46:57Z</time></trkpt><trkpt lat="43.671104715578565" lon="12.321395577983333"><ele>704.0</ele><time>2026-04-20T13:46:58Z</time></trkpt><trkpt lat="43.671006918529024" lon="12.321535995139868"><ele>709.0</ele><time>2026-04-20T13:46:59Z</time></trkpt><trkpt lat="43.670925345977416" lon="12.321614235260672"><ele>714.0</ele><time>2026-04-20T13:47:00Z</time></trkpt><trkpt lat="43.670845960809665" lon="12.321674488687979"><ele>719.0</ele><time>2026-04-20T13:47:01Z</time></trkpt><trkpt lat="43.67074852477871" lon="12.321732298729959"><ele>724.0</ele><time>2026-04-20T13:47:02Z</time></trkpt><trkpt lat="43.67062760826991" lon="12.321786542068683"><ele>724.0</ele><time>2026-04-20T13:47:03Z</time></trkpt><trkpt lat="43.67052221247717" lon="12.321882440101968"><ele>724.0</ele><time>2026-04-20T13:47:04Z</time></trkpt><trkpt lat="43.67043592024397" lon="12.321985899571855"><ele>724.0</ele><time>2026-04-20T13:47:05Z</time></trkpt><trkpt lat="43.67034359494093" lon="12.322114343559189"><ele>724.0</ele><time>2026-04-20T13:47:06Z</time></trkpt><trkpt lat="43.67025654356866" lon="12.322239404342803"><ele>723.0</ele><time>2026-04-20T13:47:07Z</time></trkpt><trkpt lat="43.670179673724384" lon="12.322353548910282"><ele>722.0</ele><time>2026-04-20T13:47:08Z</time></trkpt><trkpt lat="43.67010559506122" lon="12.32244720995263"><ele>721.0</ele><time>2026-04-20T13:47:09Z</time></trkpt><trkpt lat="43.670039402858414" lon="12.322547267171307"><ele>720.0</ele><time>2026-04-20T13:47:10Z</time></trkpt><trkpt lat="43.66998188998507" lon="12.322662855389657"><ele>719.0</ele><time>2026-04-20T13:47:11Z</time></trkpt><trkpt lat="43.66992928118746" lon="12.322784415717578"><ele>719.0</ele><time>2026-04-20T13:47:12Z</time></trkpt><trkpt lat="43.6698680736025" lon="12.322884745576115"><ele>719.0</ele><time>2026-04-20T13:47:13Z</time></trkpt><trkpt lat="43.669840217507804" lon="12.322997305965247"><ele>719.0</ele><time>2026-04-20T13:47:14Z</time></trkpt><trkpt lat="43.66981109827679" lon="12.323105532502163"><ele>719.0</ele><time>2026-04-20T13:47:15Z</time></trkpt><trkpt lat="43.66980292546723" lon="12.32321967561386"><ele>719.0</ele><time>2026-04-20T13:47:16Z</time></trkpt><trkpt lat="43.66980949483983" lon="12.323345519054524"><ele>719.0</ele><time>2026-04-20T13:47:17Z</time></trkpt><trkpt lat="43.66984090352587" lon="12.323459626862775"><ele>722.0</ele><time>2026-04-20T13:47:18Z</time></trkpt><trkpt lat="43.66989407376641" lon="12.323575693838448"><ele>725.0</ele><time>2026-04-20T13:47:19Z</time></trkpt><trkpt lat="43.669961066844536" lon="12.323682012689577"><ele>728.0</ele><time>2026-04-20T13:47:20Z</time></trkpt><trkpt lat="43.670047023284056" lon="12.323798317980279"><ele>731.0</ele><time>2026-04-20T13:47:21Z</time></trkpt><trkpt lat="43.67013913034326" lon="12.323920644962087"><ele>734.0</ele><time>2026-04-20T13:47:22Z</time></trkpt><trkpt lat="43.67022017413423" lon="12.324041641573013"><ele>735.25</ele><time>2026-04-20T13:47:23Z</time></trkpt><trkpt lat="43.67029032394272" lon="12.324161531868059"><ele>736.5</ele><time>2026-04-20T13:47:24Z</time></trkpt><trkpt lat="43.670354274252205" lon="12.324281642545687"><ele>737.75</ele><time>2026-04-20T13:47:25Z</time></trkpt><trkpt lat="43.670430390115655" lon="12.324417697897994"><ele>739.0</ele><time>2026-04-20T13:47:26Z</time></trkpt><trkpt lat="43.67050337087874" lon="12.324554801765705"><ele>739.0</ele><time>2026-04-20T13:47:27Z</time></trkpt><trkpt lat="43.670572181106046" lon="12.3246915236598"><ele>739.0</ele><time>2026-04-20T13:47:28Z</time></trkpt><trkpt lat="43.670635927471075" lon="12.32482868214916"><ele>739.0</ele><time>2026-04-20T13:47:29Z</time></trkpt><trkpt lat="43.67070885837025" lon="12.324944705539188"><ele>739.0</ele><time>2026-04-20T13:47:30Z</time></trkpt><trkpt lat="43.67080059889618" lon="12.325050266922606"><ele>736.25</ele><time>2026-04-20T13:47:31Z</time></trkpt><trkpt lat="43.67091993663617" lon="12.325138998504801"><ele>733.5</ele><time>2026-04-20T13:47:32Z</time></trkpt><trkpt lat="43.67104132139324" lon="12.325212175019063"><ele>730.75</ele><time>2026-04-20T13:47:33Z</time></trkpt><trkpt lat="43.671177031559104" lon="12.325289038296152"><ele>728.0</ele><time>2026-04-20T13:47:34Z</time></trkpt><trkpt lat="43.67131514654724" lon="12.325353183007511"><ele>728.0</ele><time>2026-04-20T13:47:35Z</time></trkpt><trkpt lat="43.67145308204798" lon="12.325410526541418"><ele>728.0</ele><time>2026-04-20T13:47:36Z</time></trkpt><trkpt lat="43.67158101263207" lon="12.32546313172382"><ele>728.0</ele><time>2026-04-20T13:47:37Z</time></trkpt><trkpt lat="43.67169175523696" lon="12.325510877342191"><ele>728.0</ele><time>2026-04-20T13:47:38Z</time></trkpt><trkpt lat="43.67177933896403" lon="12.325593817444783"><ele>728.0</ele><time>2026-04-20T13:47:39Z</time></trkpt><trkpt lat="43.67187539603605" lon="12.32568999536641"><ele>728.0</ele><time>2026-04-20T13:47:40Z</time></trkpt><trkpt lat="43.67197512943684" lon="12.325771709674699"><ele>728.0</ele><time>2026-04-20T13:47:41Z</time></trkpt><trkpt lat="43.67206835773121" lon="12.325878644243089"><ele>728.0</ele><time>2026-04-20T13:47:42Z</time></trkpt><trkpt lat="43.67215760962051" lon="12.325994552665826"><ele>729.25</ele><time>2026-04-20T13:47:43Z</time></trkpt><trkpt lat="43.67223936832828" lon="12.326125178957545"><ele>730.5</ele><time>2026-04-20T13:47:44Z</time></trkpt><trkpt lat="43.67233058770463" lon="12.326268555023045"><ele>731.75</ele><time>2026-04-20T13:47:45Z</time></trkpt><trkpt lat="43.672407738408914" lon="12.326415882952496"><ele>733.0</ele><time>2026-04-20T13:47:46Z</time></trkpt><trkpt lat="43.67251820837315" lon="12.326523500764086"><ele>735.25</ele><time>2026-04-20T13:47:47Z</time></trkpt><trkpt lat="43.672626550942134" lon="12.32661911310587"><ele>737.5</ele><time>2026-04-20T13:47:48Z</time></trkpt><trkpt lat="43.67274551907641" lon="12.326695691803542"><ele>739.75</ele><time>2026-04-20T13:47:49Z</time></trkpt><trkpt lat="43.67286972253668" lon="12.326746692129333"><ele>742.0</ele><time>2026-04-20T13:47:50Z</time></trkpt><trkpt lat="43.67299342672932" lon="12.32679199062296"><ele>743.2</ele><time>2026-04-20T13:47:51Z</time></trkpt><trkpt lat="43.67309382246337" lon="12.326851194557525"><ele>744.4000000000001</ele><time>2026-04-20T13:47:52Z</time></trkpt><trkpt lat="43.6731744001281" lon="12.326887717181005"><ele>745.5999999999999</ele><time>2026-04-20T13:47:53Z</time></trkpt><trkpt lat="43.67323463028033" lon="12.326915400512217"><ele>746.8</ele><time>2026-04-20T13:47:54Z</time></trkpt><trkpt lat="43.67324322874059" lon="12.327040578132074"><ele>748.0</ele><time>2026-04-20T13:47:55.999Z</time></trkpt><trkpt lat="43.673135190721204" lon="12.327102802928238"><ele>748.0</ele><time>2026-04-20T13:47:57.999Z</time></trkpt><trkpt lat="43.67306704022973" lon="12.327165384225168"><ele>748.0</ele><time>2026-04-20T13:47:58.999Z</time></trkpt><trkpt lat="43.67297854580093" lon="12.327244945236911"><ele>748.0</ele><time>2026-04-20T13:47:59.999Z</time></trkpt><trkpt lat="43.67288995680513" lon="12.327334829705855"><ele>748.0</ele><time>2026-04-20T13:48:00.999Z</time></trkpt><trkpt lat="43.67279612780599" lon="12.327436700266984"><ele>748.0</ele><time>2026-04-20T13:48:01.999Z</time></trkpt><trkpt lat="43.67270782735691" lon="12.32755488289978"><ele>749.5</ele><time>2026-04-20T13:48:02.999Z</time></trkpt><trkpt lat="43.672622189544775" lon="12.327680191993979"><ele>751.0</ele><time>2026-04-20T13:48:03.999Z</time></trkpt><trkpt lat="43.672535220752074" lon="12.327813150369364"><ele>752.5</ele><time>2026-04-20T13:48:04.999Z</time></trkpt><trkpt lat="43.67244789099988" lon="12.327938379335295"><ele>754.0</ele><time>2026-04-20T13:48:05.999Z</time></trkpt><trkpt lat="43.67236346834386" lon="12.32802957796857"><ele>752.8000000000001</ele><time>2026-04-20T13:48:06.999Z</time></trkpt><trkpt lat="43.67227299179402" lon="12.328081370154507"><ele>751.6</ele><time>2026-04-20T13:48:07.999Z</time></trkpt><trkpt lat="43.6721661266339" lon="12.328077078234081"><ele>750.4</ele><time>2026-04-20T13:48:08.999Z</time></trkpt><trkpt lat="43.67206225484371" lon="12.328125593867542"><ele>749.2</ele><time>2026-04-20T13:48:09.999Z</time></trkpt><trkpt lat="43.67197000062041" lon="12.328159146007279"><ele>748.0</ele><time>2026-04-20T13:48:10.999Z</time></trkpt><trkpt lat="43.67190121673535" lon="12.328215002735748"><ele>748.0</ele><time>2026-04-20T13:48:11.999Z</time></trkpt><trkpt lat="43.6718640656871" lon="12.328287209715803"><ele>748.0</ele><time>2026-04-20T13:48:12.999Z</time></trkpt><trkpt lat="43.67183733787556" lon="12.328440472807214"><ele>748.0</ele><time>2026-04-20T13:48:14.999Z</time></trkpt><trkpt lat="43.671854809779866" lon="12.328531828640827"><ele>748.0</ele><time>2026-04-20T13:48:15.999Z</time></trkpt><trkpt lat="43.671894309823564" lon="12.32866462305272"><ele>748.0</ele><time>2026-04-20T13:48:16.999Z</time></trkpt><trkpt lat="43.67194176364153" lon="12.328832937463615"><ele>756.0</ele><time>2026-04-20T13:48:17.999Z</time></trkpt><trkpt lat="43.671981945013826" lon="12.328999027981867"><ele>764.0</ele><time>2026-04-20T13:48:18.999Z</time></trkpt><trkpt lat="43.67200381758987" lon="12.329167383715479"><ele>772.0</ele><time>2026-04-20T13:48:19.999Z</time></trkpt><trkpt lat="43.67197643218779" lon="12.329317772411684"><ele>780.0</ele><time>2026-04-20T13:48:20.999Z</time></trkpt><trkpt lat="43.67195209721467" lon="12.32944647781793"><ele>772.2</ele><time>2026-04-20T13:48:21.999Z</time></trkpt><trkpt lat="43.67190573422924" lon="12.329580219256538"><ele>764.4</ele><time>2026-04-20T13:48:22.999Z</time></trkpt><trkpt lat="43.67186525757974" lon="12.329687464029774"><ele>756.5999999999999</ele><time>2026-04-20T13:48:23.999Z</time></trkpt><trkpt lat="43.67184704284171" lon="12.329815684736094"><ele>748.8</ele><time>2026-04-20T13:48:24.999Z</time></trkpt><trkpt lat="43.67185947753603" lon="12.32993067794374"><ele>741.0</ele><time>2026-04-20T13:48:25.999Z</time></trkpt><trkpt lat="43.67188900596988" lon="12.330060840465942"><ele>740.0</ele><time>2026-04-20T13:48:26.999Z</time></trkpt><trkpt lat="43.6719337980761" lon="12.330210257252595"><ele>739.0</ele><time>2026-04-20T13:48:27.999Z</time></trkpt><trkpt lat="43.67198395631148" lon="12.330388185418457"><ele>738.0</ele><time>2026-04-20T13:48:28.999Z</time></trkpt><trkpt lat="43.672022716302536" lon="12.330562737403028"><ele>737.0</ele><time>2026-04-20T13:48:29.999Z</time></trkpt><trkpt lat="43.67206412054111" lon="12.33070940247009"><ele>743.2</ele><time>2026-04-20T13:48:30.999Z</time></trkpt><trkpt lat="43.672100647041574" lon="12.330855776198351"><ele>749.4000000000001</ele><time>2026-04-20T13:48:31.999Z</time></trkpt><trkpt lat="43.672115892283664" lon="12.331001605087497"><ele>755.5999999999999</ele><time>2026-04-20T13:48:32.999Z</time></trkpt><trkpt lat="43.672076982284" lon="12.331142412005423"><ele>761.8</ele><time>2026-04-20T13:48:33.999Z</time></trkpt><trkpt lat="43.6720579004128" lon="12.33129210323924"><ele>768.0</ele><time>2026-04-20T13:48:34.999Z</time></trkpt><trkpt lat="43.67205787771011" lon="12.331456990496497"><ele>768.0</ele><time>2026-04-20T13:48:35.999Z</time></trkpt><trkpt lat="43.67204963217647" lon="12.33159670484645"><ele>768.0</ele><time>2026-04-20T13:48:36.999Z</time></trkpt><trkpt lat="43.672056384798914" lon="12.331718726066521"><ele>768.0</ele><time>2026-04-20T13:48:38Z</time></trkpt><trkpt lat="43.67209063259821" lon="12.331842874851981"><ele>768.0</ele><time>2026-04-20T13:48:39Z</time></trkpt><trkpt lat="43.67216155814584" lon="12.33198263918879"><ele>768.0</ele><time>2026-04-20T13:48:40Z</time></trkpt><trkpt lat="43.67224125323313" lon="12.332158287930362"><ele>763.5</ele><time>2026-04-20T13:48:41Z</time></trkpt><trkpt lat="43.67228364735284" lon="12.332346350810354"><ele>759.0</ele><time>2026-04-20T13:48:42Z</time></trkpt><trkpt lat="43.672355674629046" lon="12.332484781231216"><ele>754.5</ele><time>2026-04-20T13:48:43Z</time></trkpt><trkpt lat="43.67241135881526" lon="12.332620571945867"><ele>750.0</ele><time>2026-04-20T13:48:44Z</time></trkpt><trkpt lat="43.672437066235496" lon="12.33276369461427"><ele>750.0</ele><time>2026-04-20T13:48:45Z</time></trkpt><trkpt lat="43.67245054797399" lon="12.332892161847266"><ele>750.0</ele><time>2026-04-20T13:48:46Z</time></trkpt><trkpt lat="43.67246962795009" lon="12.332999619764426"><ele>750.0</ele><time>2026-04-20T13:48:47Z</time></trkpt><trkpt lat="43.672453539353164" lon="12.333099178598479"><ele>750.0</ele><time>2026-04-20T13:48:48Z</time></trkpt><trkpt lat="43.67238207579364" lon="12.333150819923729"><ele>750.0</ele><time>2026-04-20T13:48:49Z</time></trkpt><trkpt lat="43.672308623729165" lon="12.333195130149436"><ele>750.0</ele><time>2026-04-20T13:48:50Z</time></trkpt><trkpt lat="43.672212953258146" lon="12.333272391017179"><ele>748.5</ele><time>2026-04-20T13:48:51Z</time></trkpt><trkpt lat="43.67208173338949" lon="12.33337086551276"><ele>747.0</ele><time>2026-04-20T13:48:52Z</time></trkpt><trkpt lat="43.6719594849069" lon="12.333458504331247"><ele>745.5</ele><time>2026-04-20T13:48:53Z</time></trkpt><trkpt lat="43.6718620242866" lon="12.333556676945435"><ele>744.0</ele><time>2026-04-20T13:48:54Z</time></trkpt><trkpt lat="43.671762220044" lon="12.333622810236355"><ele>738.8000000000001</ele><time>2026-04-20T13:48:55Z</time></trkpt><trkpt lat="43.67167247602068" lon="12.333706339865842"><ele>733.6</ele><time>2026-04-20T13:48:56Z</time></trkpt><trkpt lat="43.67159189111514" lon="12.333794195349016"><ele>728.4</ele><time>2026-04-20T13:48:57Z</time></trkpt><trkpt lat="43.67152375814611" lon="12.333861701835724"><ele>723.2</ele><time>2026-04-20T13:48:58Z</time></trkpt><trkpt lat="43.67143841866121" lon="12.333929214290263"><ele>718.0</ele><time>2026-04-20T13:48:59Z</time></trkpt><trkpt lat="43.67134628115409" lon="12.333947617485713"><ele>718.0</ele><time>2026-04-20T13:49:00Z</time></trkpt><trkpt lat="43.671231785358984" lon="12.333953986375203"><ele>718.0</ele><time>2026-04-20T13:49:01Z</time></trkpt><trkpt lat="43.67110259946993" lon="12.333961969882658"><ele>718.0</ele><time>2026-04-20T13:49:02Z</time></trkpt><trkpt lat="43.67098598272877" lon="12.333999314064565"><ele>718.0</ele><time>2026-04-20T13:49:03Z</time></trkpt><trkpt lat="43.67087057438785" lon="12.334023176341061"><ele>716.5</ele><time>2026-04-20T13:49:04Z</time></trkpt><trkpt lat="43.67075453970478" lon="12.334058901610256"><ele>715.0</ele><time>2026-04-20T13:49:05Z</time></trkpt><trkpt lat="43.67063781420461" lon="12.334091946799337"><ele>713.5</ele><time>2026-04-20T13:49:06Z</time></trkpt><trkpt lat="43.670522705106016" lon="12.334141242002664"><ele>712.0</ele><time>2026-04-20T13:49:07Z</time></trkpt><trkpt lat="43.67041610413235" lon="12.334202690033983"><ele>712.0</ele><time>2026-04-20T13:49:08Z</time></trkpt><trkpt lat="43.670299217937455" lon="12.3342835496832"><ele>712.0</ele><time>2026-04-20T13:49:09Z</time></trkpt><trkpt lat="43.67018079125971" lon="12.334357301596503"><ele>712.0</ele><time>2026-04-20T13:49:10Z</time></trkpt><trkpt lat="43.67005428491942" lon="12.334431921998915"><ele>712.0</ele><time>2026-04-20T13:49:11Z</time></trkpt><trkpt lat="43.66992539801747" lon="12.334457954872809"><ele>709.25</ele><time>2026-04-20T13:49:12Z</time></trkpt><trkpt lat="43.66980274190976" lon="12.334518676334312"><ele>706.5</ele><time>2026-04-20T13:49:13Z</time></trkpt><trkpt lat="43.66967975772181" lon="12.334544093238748"><ele>703.75</ele><time>2026-04-20T13:49:14Z</time></trkpt><trkpt lat="43.6695621129947" lon="12.334560618174356"><ele>701.0</ele><time>2026-04-20T13:49:15Z</time></trkpt><trkpt lat="43.66944724420416" lon="12.334574711464306"><ele>697.5</ele><time>2026-04-20T13:49:16Z</time></trkpt><trkpt lat="43.66933606937352" lon="12.334591209720761"><ele>694.0</ele><time>2026-04-20T13:49:17Z</time></trkpt><trkpt lat="43.669225629228904" lon="12.334622499254506"><ele>690.5</ele><time>2026-04-20T13:49:18Z</time></trkpt><trkpt lat="43.66911588898125" lon="12.334663320245411"><ele>687.0</ele><time>2026-04-20T13:49:19Z</time></trkpt><trkpt lat="43.66901013948535" lon="12.334712765922552"><ele>687.0</ele><time>2026-04-20T13:49:20Z</time></trkpt><trkpt lat="43.66890767813065" lon="12.334780552168846"><ele>687.0</ele><time>2026-04-20T13:49:21Z</time></trkpt><trkpt lat="43.6688124084846" lon="12.334852661741879"><ele>687.0</ele><time>2026-04-20T13:49:22Z</time></trkpt><trkpt lat="43.66872347388087" lon="12.33494071727748"><ele>687.0</ele><time>2026-04-20T13:49:23Z</time></trkpt><trkpt lat="43.66862574953052" lon="12.335007755532345"><ele>687.0</ele><time>2026-04-20T13:49:24Z</time></trkpt><trkpt lat="43.66853889866937" lon="12.335090930616076"><ele>687.0</ele><time>2026-04-20T13:49:25Z</time></trkpt><trkpt lat="43.6684702165031" lon="12.335198390794092"><ele>687.0</ele><time>2026-04-20T13:49:26Z</time></trkpt><trkpt lat="43.66838185273016" lon="12.33526861245334"><ele>687.0</ele><time>2026-04-20T13:49:27Z</time></trkpt><trkpt lat="43.6682831380654" lon="12.335274338298808"><ele>687.0</ele><time>2026-04-20T13:49:28Z</time></trkpt><trkpt lat="43.6681892810643" lon="12.335337896727273"><ele>687.0</ele><time>2026-04-20T13:49:29Z</time></trkpt><trkpt lat="43.66806292922599" lon="12.335395669502581"><ele>687.0</ele><time>2026-04-20T13:49:30Z</time></trkpt><trkpt lat="43.66792789239446" lon="12.335468396479516"><ele>687.0</ele><time>2026-04-20T13:49:31Z</time></trkpt><trkpt lat="43.66778211258799" lon="12.335535827616035"><ele>687.0</ele><time>2026-04-20T13:49:32Z</time></trkpt><trkpt lat="43.6676345535967" lon="12.335582135549695"><ele>688.0</ele><time>2026-04-20T13:49:33Z</time></trkpt><trkpt lat="43.66748202254589" lon="12.335631617060217"><ele>689.0</ele><time>2026-04-20T13:49:34Z</time></trkpt><trkpt lat="43.667335309753604" lon="12.335678825763122"><ele>690.0</ele><time>2026-04-20T13:49:35Z</time></trkpt><trkpt lat="43.66719512469704" lon="12.335724027375397"><ele>690.0</ele><time>2026-04-20T13:49:36Z</time></trkpt><trkpt lat="43.66705209675254" lon="12.335772676715994"><ele>690.0</ele><time>2026-04-20T13:49:37Z</time></trkpt><trkpt lat="43.666914525535496" lon="12.335819470015116"><ele>690.0</ele><time>2026-04-20T13:49:38Z</time></trkpt><trkpt lat="43.666779604880944" lon="12.335865361762131"><ele>690.0</ele><time>2026-04-20T13:49:39Z</time></trkpt><trkpt lat="43.66665328515704" lon="12.33590523139697"><ele>687.8</ele><time>2026-04-20T13:49:40Z</time></trkpt><trkpt lat="43.66654637124285" lon="12.335920319748201"><ele>685.6</ele><time>2026-04-20T13:49:41Z</time></trkpt><trkpt lat="43.666442881029646" lon="12.335912898302542"><ele>683.4000000000001</ele><time>2026-04-20T13:49:42Z</time></trkpt><trkpt lat="43.66632817320965" lon="12.33589287551913"><ele>681.2</ele><time>2026-04-20T13:49:43Z</time></trkpt><trkpt lat="43.66620898841288" lon="12.335866245402165"><ele>679.0</ele><time>2026-04-20T13:49:44Z</time></trkpt><trkpt lat="43.66610209019266" lon="12.335834869991542"><ele>678.0</ele><time>2026-04-20T13:49:45Z</time></trkpt><trkpt lat="43.66599363730665" lon="12.335801325878945"><ele>677.0</ele><time>2026-04-20T13:49:46Z</time></trkpt><trkpt lat="43.665891139995495" lon="12.335773775014763"><ele>676.0</ele><time>2026-04-20T13:49:47Z</time></trkpt><trkpt lat="43.665787998919164" lon="12.335767703402324"><ele>675.0</ele><time>2026-04-20T13:49:48Z</time></trkpt><trkpt lat="43.665692691405944" lon="12.335806898568121"><ele>674.0</ele><time>2026-04-20T13:49:49Z</time></trkpt><trkpt lat="43.665579744869426" lon="12.335849929661308"><ele>674.0</ele><time>2026-04-20T13:49:50Z</time></trkpt><trkpt lat="43.66544480819062" lon="12.335892788807554"><ele>674.0</ele><time>2026-04-20T13:49:51Z</time></trkpt><trkpt lat="43.66531318242907" lon="12.33595042835514"><ele>674.0</ele><time>2026-04-20T13:49:52Z</time></trkpt><trkpt lat="43.66517578687054" lon="12.335989079405188"><ele>674.0</ele><time>2026-04-20T13:49:53Z</time></trkpt><trkpt lat="43.66503823339586" lon="12.336015787506764"><ele>673.0</ele><time>2026-04-20T13:49:54Z</time></trkpt><trkpt lat="43.66490294835387" lon="12.336040344378615"><ele>672.0</ele><time>2026-04-20T13:49:55Z</time></trkpt><trkpt lat="43.664785851694305" lon="12.336067032464806"><ele>671.0</ele><time>2026-04-20T13:49:56Z</time></trkpt><trkpt lat="43.66469503698186" lon="12.336115350251402"><ele>670.0</ele><time>2026-04-20T13:49:57Z</time></trkpt><trkpt lat="43.66461214669618" lon="12.336167483837917"><ele>669.0</ele><time>2026-04-20T13:49:58Z</time></trkpt><trkpt lat="43.66452527252643" lon="12.336239535286275"><ele>666.25</ele><time>2026-04-20T13:49:59Z</time></trkpt><trkpt lat="43.66441611926314" lon="12.33625146707034"><ele>663.5</ele><time>2026-04-20T13:50:00Z</time></trkpt><trkpt lat="43.664293368514564" lon="12.336262912395195"><ele>660.75</ele><time>2026-04-20T13:50:01Z</time></trkpt><trkpt lat="43.664178660133125" lon="12.336268864988476"><ele>658.0</ele><time>2026-04-20T13:50:02Z</time></trkpt><trkpt lat="43.66407474215925" lon="12.33624889011444"><ele>658.0</ele><time>2026-04-20T13:50:03Z</time></trkpt><trkpt lat="43.663974635927616" lon="12.336198368685722"><ele>658.0</ele><time>2026-04-20T13:50:04Z</time></trkpt><trkpt lat="43.663856098485795" lon="12.336112359043728"><ele>658.0</ele><time>2026-04-20T13:50:04.999Z</time></trkpt><trkpt lat="43.663741627666724" lon="12.335995733634485"><ele>658.0</ele><time>2026-04-20T13:50:05.999Z</time></trkpt><trkpt lat="43.66362425128473" lon="12.33586134249356"><ele>657.0</ele><time>2026-04-20T13:50:06.999Z</time></trkpt><trkpt lat="43.6635302701692" lon="12.335751900625512"><ele>656.0</ele><time>2026-04-20T13:50:07.999Z</time></trkpt><trkpt lat="43.66342426186123" lon="12.33568326490429"><ele>655.0</ele><time>2026-04-20T13:50:08.999Z</time></trkpt><trkpt lat="43.66332114682809" lon="12.335625662684926"><ele>654.0</ele><time>2026-04-20T13:50:09.999Z</time></trkpt><trkpt lat="43.663199135920635" lon="12.335581575588193"><ele>652.75</ele><time>2026-04-20T13:50:10.999Z</time></trkpt><trkpt lat="43.66306450106077" lon="12.335508782258183"><ele>651.5</ele><time>2026-04-20T13:50:11.999Z</time></trkpt><trkpt lat="43.662943914055134" lon="12.335445815650923"><ele>650.25</ele><time>2026-04-20T13:50:12.999Z</time></trkpt><trkpt lat="43.66283113258421" lon="12.335367783991897"><ele>649.0</ele><time>2026-04-20T13:50:13.999Z</time></trkpt><trkpt lat="43.66272905832316" lon="12.335293008740713"><ele>649.0</ele><time>2026-04-20T13:50:14.999Z</time></trkpt><trkpt lat="43.662649343148814" lon="12.335228002375915"><ele>649.0</ele><time>2026-04-20T13:50:15.999Z</time></trkpt><trkpt lat="43.66258670766155" lon="12.33515473541147"><ele>649.0</ele><time>2026-04-20T13:50:17Z</time></trkpt><trkpt lat="43.662555837731986" lon="12.335057168597872"><ele>649.0</ele><time>2026-04-20T13:50:18Z</time></trkpt><trkpt lat="43.662559528433846" lon="12.334934130257674"><ele>649.0</ele><time>2026-04-20T13:50:19Z</time></trkpt><trkpt lat="43.662545133103684" lon="12.334801851264995"><ele>649.0</ele><time>2026-04-20T13:50:20Z</time></trkpt><trkpt lat="43.6625238605011" lon="12.334695616037832"><ele>646.8000000000001</ele><time>2026-04-20T13:50:21Z</time></trkpt><trkpt lat="43.662479575516734" lon="12.334612770831379"><ele>644.6</ele><time>2026-04-20T13:50:22Z</time></trkpt><trkpt lat="43.662420689171576" lon="12.334542674168734"><ele>642.4</ele><time>2026-04-20T13:50:23Z</time></trkpt><trkpt lat="43.6622704724554" lon="12.33456723351902"><ele>640.2</ele><time>2026-04-20T13:50:24Z</time></trkpt><trkpt lat="43.66217277990617" lon="12.334495209965937"><ele>638.0</ele><time>2026-04-20T13:50:25Z</time></trkpt><trkpt lat="43.66207394728474" lon="12.334461015345036"><ele>638.0</ele><time>2026-04-20T13:50:26Z</time></trkpt><trkpt lat="43.66198563551833" lon="12.334413492735687"><ele>638.0</ele><time>2026-04-20T13:50:27Z</time></trkpt><trkpt lat="43.66189324494489" lon="12.334419382320782"><ele>638.0</ele><time>2026-04-20T13:50:28Z</time></trkpt><trkpt lat="43.66177537606367" lon="12.334443163658358"><ele>638.0</ele><time>2026-04-20T13:50:29Z</time></trkpt><trkpt lat="43.66165519922679" lon="12.334458217014921"><ele>638.0</ele><time>2026-04-20T13:50:30Z</time></trkpt><trkpt lat="43.66153947903115" lon="12.33445769137522"><ele>639.0</ele><time>2026-04-20T13:50:31Z</time></trkpt><trkpt lat="43.66143430354471" lon="12.334450454260272"><ele>640.0</ele><time>2026-04-20T13:50:32Z</time></trkpt><trkpt lat="43.66135149718265" lon="12.334443175037066"><ele>641.0</ele><time>2026-04-20T13:50:33Z</time></trkpt><trkpt lat="43.66125247915551" lon="12.334438230164833"><ele>642.0</ele><time>2026-04-20T13:50:35Z</time></trkpt><trkpt lat="43.66121672638812" lon="12.334537499457321"><ele>643.0</ele><time>2026-04-20T13:50:37Z</time></trkpt><trkpt lat="43.66122526622317" lon="12.334735844382479"><ele>643.0</ele><time>2026-04-20T13:50:39Z</time></trkpt><trkpt lat="43.66122939489569" lon="12.334872215358821"><ele>643.0</ele><time>2026-04-20T13:50:40Z</time></trkpt><trkpt lat="43.66123104006893" lon="12.33500664104999"><ele>643.0</ele><time>2026-04-20T13:50:41Z</time></trkpt><trkpt lat="43.66122184853471" lon="12.335145040393009"><ele>643.0</ele><time>2026-04-20T13:50:42Z</time></trkpt><trkpt lat="43.66118740575066" lon="12.335280368737262"><ele>643.0</ele><time>2026-04-20T13:50:43Z</time></trkpt><trkpt lat="43.66113648528555" lon="12.335415497969759"><ele>637.25</ele><time>2026-04-20T13:50:44Z</time></trkpt><trkpt lat="43.66107400519738" lon="12.335559571405973"><ele>631.5</ele><time>2026-04-20T13:50:45Z</time></trkpt><trkpt lat="43.66101965276006" lon="12.335722284543662"><ele>625.75</ele><time>2026-04-20T13:50:46Z</time></trkpt><trkpt lat="43.66098035301851" lon="12.335879675273258"><ele>620.0</ele><time>2026-04-20T13:50:47Z</time></trkpt><trkpt lat="43.6609511784944" lon="12.336029686965338"><ele>620.0</ele><time>2026-04-20T13:50:48Z</time></trkpt><trkpt lat="43.660913953634214" lon="12.33616466579289"><ele>620.0</ele><time>2026-04-20T13:50:49Z</time></trkpt><trkpt lat="43.660859774272126" lon="12.336289047147027"><ele>620.0</ele><time>2026-04-20T13:50:50Z</time></trkpt><trkpt lat="43.66079524100585" lon="12.336376205740402"><ele>620.0</ele><time>2026-04-20T13:50:51Z</time></trkpt><trkpt lat="43.66071523787238" lon="12.33642588066664"><ele>620.0</ele><time>2026-04-20T13:50:52Z</time></trkpt><trkpt lat="43.66063959619062" lon="12.336468740336207"><ele>620.0</ele><time>2026-04-20T13:50:53Z</time></trkpt><trkpt lat="43.66055070684884" lon="12.336456351337338"><ele>620.0</ele><time>2026-04-20T13:50:54Z</time></trkpt><trkpt lat="43.660440863375555" lon="12.336415353415102"><ele>620.0</ele><time>2026-04-20T13:50:55Z</time></trkpt><trkpt lat="43.660327125608596" lon="12.336377642415474"><ele>620.0</ele><time>2026-04-20T13:50:56Z</time></trkpt><trkpt lat="43.66020218578182" lon="12.336351907576876"><ele>620.0</ele><time>2026-04-20T13:50:57Z</time></trkpt><trkpt lat="43.66008818701391" lon="12.336325881335181"><ele>616.75</ele><time>2026-04-20T13:50:58Z</time></trkpt><trkpt lat="43.65998123265005" lon="12.33627358386573"><ele>613.5</ele><time>2026-04-20T13:50:59Z</time></trkpt><trkpt lat="43.65987345854892" lon="12.336188402773136"><ele>610.25</ele><time>2026-04-20T13:51:00Z</time></trkpt><trkpt lat="43.65974713804471" lon="12.336071903577924"><ele>607.0</ele><time>2026-04-20T13:51:01Z</time></trkpt><trkpt lat="43.659632459469904" lon="12.335963123143092"><ele>607.0</ele><time>2026-04-20T13:51:02Z</time></trkpt><trkpt lat="43.65953435285411" lon="12.335878989223625"><ele>607.0</ele><time>2026-04-20T13:51:03Z</time></trkpt><trkpt lat="43.659449600855055" lon="12.335809963609849"><ele>607.0</ele><time>2026-04-20T13:51:04Z</time></trkpt><trkpt lat="43.659370858167776" lon="12.335802222827004"><ele>607.0</ele><time>2026-04-20T13:51:05Z</time></trkpt><trkpt lat="43.65929714032294" lon="12.33581614615807"><ele>607.0</ele><time>2026-04-20T13:51:06Z</time></trkpt><trkpt lat="43.65920158560584" lon="12.33582558254388"><ele>609.0</ele><time>2026-04-20T13:51:07Z</time></trkpt><trkpt lat="43.659089482244696" lon="12.335892732653448"><ele>611.0</ele><time>2026-04-20T13:51:08Z</time></trkpt><trkpt lat="43.65897439968905" lon="12.335968482426624"><ele>613.0</ele><time>2026-04-20T13:51:09Z</time></trkpt><trkpt lat="43.65886279031391" lon="12.336026505747016"><ele>615.0</ele><time>2026-04-20T13:51:10Z</time></trkpt><trkpt lat="43.65876916947416" lon="12.336077493352663"><ele>615.0</ele><time>2026-04-20T13:51:11Z</time></trkpt><trkpt lat="43.65868577741327" lon="12.336131484867414"><ele>615.0</ele><time>2026-04-20T13:51:12Z</time></trkpt><trkpt lat="43.658615810114284" lon="12.336182546496964"><ele>615.0</ele><time>2026-04-20T13:51:13Z</time></trkpt><trkpt lat="43.65857466178954" lon="12.336255860869178"><ele>615.0</ele><time>2026-04-20T13:51:14Z</time></trkpt><trkpt lat="43.65853082701807" lon="12.336364300054974"><ele>615.0</ele><time>2026-04-20T13:51:15Z</time></trkpt><trkpt lat="43.65847223111862" lon="12.336501654774354"><ele>615.0</ele><time>2026-04-20T13:51:16Z</time></trkpt><trkpt lat="43.65839897253872" lon="12.336625835165414"><ele>614.0</ele><time>2026-04-20T13:51:17Z</time></trkpt><trkpt lat="43.65830852259894" lon="12.33672081473168"><ele>613.0</ele><time>2026-04-20T13:51:18Z</time></trkpt><trkpt lat="43.65823245644736" lon="12.33679373464362"><ele>612.0</ele><time>2026-04-20T13:51:19Z</time></trkpt><trkpt lat="43.65817223488899" lon="12.336859104837599"><ele>611.0</ele><time>2026-04-20T13:51:20Z</time></trkpt><trkpt lat="43.65812980822609" lon="12.336927552672597"><ele>610.0</ele><time>2026-04-20T13:51:21Z</time></trkpt><trkpt lat="43.658132896367505" lon="12.337091737829986"><ele>610.0</ele><time>2026-04-20T13:51:23Z</time></trkpt><trkpt lat="43.6581733642005" lon="12.337180856433095"><ele>610.0</ele><time>2026-04-20T13:51:24Z</time></trkpt><trkpt lat="43.65822029616433" lon="12.337281241031414"><ele>610.0</ele><time>2026-04-20T13:51:25Z</time></trkpt><trkpt lat="43.658262332841126" lon="12.337391221100244"><ele>610.0</ele><time>2026-04-20T13:51:26Z</time></trkpt><trkpt lat="43.65828322337211" lon="12.337505284560585"><ele>610.0</ele><time>2026-04-20T13:51:27Z</time></trkpt><trkpt lat="43.658279858955645" lon="12.337627950233673"><ele>610.0</ele><time>2026-04-20T13:51:28Z</time></trkpt><trkpt lat="43.65825962960849" lon="12.337734748706934"><ele>610.2</ele><time>2026-04-20T13:51:29Z</time></trkpt><trkpt lat="43.658226600261855" lon="12.337809547146392"><ele>610.4</ele><time>2026-04-20T13:51:30Z</time></trkpt><trkpt lat="43.658105505230466" lon="12.337889709734712"><ele>610.6</ele><time>2026-04-20T13:51:32Z</time></trkpt><trkpt lat="43.65802003709005" lon="12.337901608126565"><ele>610.8</ele><time>2026-04-20T13:51:33Z</time></trkpt><trkpt lat="43.65791906846849" lon="12.33787922283737"><ele>611.0</ele><time>2026-04-20T13:51:34Z</time></trkpt><trkpt lat="43.65779170219217" lon="12.337894767011132"><ele>604.75</ele><time>2026-04-20T13:51:35Z</time></trkpt><trkpt lat="43.65766129563993" lon="12.33788356856536"><ele>598.5</ele><time>2026-04-20T13:51:36Z</time></trkpt><trkpt lat="43.657520716425424" lon="12.337877331651804"><ele>592.25</ele><time>2026-04-20T13:51:37Z</time></trkpt><trkpt lat="43.65739180913223" lon="12.33786470083799"><ele>586.0</ele><time>2026-04-20T13:51:38Z</time></trkpt><trkpt lat="43.65727667386706" lon="12.337840608780262"><ele>586.0</ele><time>2026-04-20T13:51:39Z</time></trkpt><trkpt lat="43.65716114210806" lon="12.337798896044024"><ele>586.0</ele><time>2026-04-20T13:51:40Z</time></trkpt><trkpt lat="43.65705326847336" lon="12.337711073363533"><ele>586.0</ele><time>2026-04-20T13:51:41Z</time></trkpt><trkpt lat="43.656934243537464" lon="12.337628966057503"><ele>586.0</ele><time>2026-04-20T13:51:42Z</time></trkpt><trkpt lat="43.65681296590829" lon="12.33753486627164"><ele>585.25</ele><time>2026-04-20T13:51:43Z</time></trkpt><trkpt lat="43.65668631500326" lon="12.337450635168404"><ele>584.5</ele><time>2026-04-20T13:51:44Z</time></trkpt><trkpt lat="43.65656243398202" lon="12.337402539044177"><ele>583.75</ele><time>2026-04-20T13:51:45Z</time></trkpt><trkpt lat="43.65645710814746" lon="12.337330079152492"><ele>583.0</ele><time>2026-04-20T13:51:46Z</time></trkpt><trkpt lat="43.65634731539248" lon="12.337301937888697"><ele>583.0</ele><time>2026-04-20T13:51:47Z</time></trkpt><trkpt lat="43.656252667272334" lon="12.337323534079562"><ele>583.0</ele><time>2026-04-20T13:51:48Z</time></trkpt><trkpt lat="43.65615002451626" lon="12.337318946977959"><ele>583.0</ele><time>2026-04-20T13:51:50Z</time></trkpt><trkpt lat="43.65610927050953" lon="12.337428962026339"><ele>583.0</ele><time>2026-04-20T13:51:51Z</time></trkpt><trkpt lat="43.65613144631245" lon="12.33756274424444"><ele>583.0</ele><time>2026-04-20T13:51:52Z</time></trkpt><trkpt lat="43.65615265352502" lon="12.337702065124528"><ele>583.0</ele><time>2026-04-20T13:51:53Z</time></trkpt><trkpt lat="43.65617854602321" lon="12.337859982870263"><ele>583.0</ele><time>2026-04-20T13:51:54Z</time></trkpt><trkpt lat="43.65621228772159" lon="12.33799780575867"><ele>583.0</ele><time>2026-04-20T13:51:55Z</time></trkpt><trkpt lat="43.65625149862436" lon="12.338135803220549"><ele>583.0</ele><time>2026-04-20T13:51:56Z</time></trkpt><trkpt lat="43.65630460518553" lon="12.338253535257316"><ele>583.0</ele><time>2026-04-20T13:51:57Z</time></trkpt><trkpt lat="43.65636921602503" lon="12.338337938652122"><ele>581.8</ele><time>2026-04-20T13:51:58Z</time></trkpt><trkpt lat="43.65644796935434" lon="12.338413186688168"><ele>580.5999999999999</ele><time>2026-04-20T13:51:59Z</time></trkpt><trkpt lat="43.65653875104748" lon="12.338463908708919"><ele>579.4000000000001</ele><time>2026-04-20T13:52:00Z</time></trkpt><trkpt lat="43.6566337365883" lon="12.33847677650432"><ele>578.2</ele><time>2026-04-20T13:52:01Z</time></trkpt><trkpt lat="43.656739980142156" lon="12.338481537651932"><ele>577.0</ele><time>2026-04-20T13:52:02Z</time></trkpt><trkpt lat="43.656844142838494" lon="12.338479061393121"><ele>577.0</ele><time>2026-04-20T13:52:03Z</time></trkpt><trkpt lat="43.65692813251925" lon="12.338454276928637"><ele>577.0</ele><time>2026-04-20T13:52:04Z</time></trkpt><trkpt lat="43.65700220947596" lon="12.338430463418575"><ele>577.0</ele><time>2026-04-20T13:52:05Z</time></trkpt><trkpt lat="43.65707206655315" lon="12.338436540003999"><ele>577.0</ele><time>2026-04-20T13:52:07Z</time></trkpt><trkpt lat="43.65706187153716" lon="12.338543084342122"><ele>577.0</ele><time>2026-04-20T13:52:09Z</time></trkpt><trkpt lat="43.656975724038105" lon="12.33854227720431"><ele>577.0</ele><time>2026-04-20T13:52:11Z</time></trkpt><trkpt lat="43.65685909441711" lon="12.338605817406604"><ele>577.0</ele><time>2026-04-20T13:52:13Z</time></trkpt><trkpt lat="43.656780060453755" lon="12.338654944239636"><ele>577.0</ele><time>2026-04-20T13:52:14Z</time></trkpt><trkpt lat="43.65668003015147" lon="12.338676029406015"><ele>577.0</ele><time>2026-04-20T13:52:15Z</time></trkpt><trkpt lat="43.65660091651864" lon="12.338705807046964"><ele>577.0</ele><time>2026-04-20T13:52:16Z</time></trkpt><trkpt lat="43.65652724715705" lon="12.338733618747264"><ele>577.0</ele><time>2026-04-20T13:52:17Z</time></trkpt><trkpt lat="43.65645830001753" lon="12.338770735092371"><ele>577.0</ele><time>2026-04-20T13:52:18Z</time></trkpt><trkpt lat="43.65639068125572" lon="12.338786495154608"><ele>577.0</ele><time>2026-04-20T13:52:19Z</time></trkpt><trkpt lat="43.65632427847357" lon="12.33880252297538"><ele>577.0</ele><time>2026-04-20T13:52:20Z</time></trkpt><trkpt lat="43.656251326679886" lon="12.33882998479893"><ele>577.0</ele><time>2026-04-20T13:52:21Z</time></trkpt><trkpt lat="43.65617291250142" lon="12.338868600235237"><ele>577.0</ele><time>2026-04-20T13:52:22Z</time></trkpt><trkpt lat="43.656087192262895" lon="12.338867426184581"><ele>577.0</ele><time>2026-04-20T13:52:23Z</time></trkpt><trkpt lat="43.65601604337824" lon="12.338868663566606"><ele>577.0</ele><time>2026-04-20T13:52:24Z</time></trkpt><trkpt lat="43.65594472002169" lon="12.338860519546724"><ele>573.6</ele><time>2026-04-20T13:52:25Z</time></trkpt><trkpt lat="43.65584911929656" lon="12.338862837812773"><ele>570.2</ele><time>2026-04-20T13:52:26Z</time></trkpt><trkpt lat="43.655753454405975" lon="12.338823327265423"><ele>566.8</ele><time>2026-04-20T13:52:27Z</time></trkpt><trkpt lat="43.65565760084031" lon="12.33879077105046"><ele>563.4</ele><time>2026-04-20T13:52:28Z</time></trkpt><trkpt lat="43.65556788265452" lon="12.338726613667363"><ele>560.0</ele><time>2026-04-20T13:52:29Z</time></trkpt><trkpt lat="43.65547180028585" lon="12.338696416056646"><ele>560.0</ele><time>2026-04-20T13:52:30Z</time></trkpt><trkpt lat="43.65538830602317" lon="12.33863860948482"><ele>560.0</ele><time>2026-04-20T13:52:31Z</time></trkpt><trkpt lat="43.65530295706655" lon="12.338585003894801"><ele>560.0</ele><time>2026-04-20T13:52:32Z</time></trkpt><trkpt lat="43.65521154985041" lon="12.338528307217205"><ele>560.0</ele><time>2026-04-20T13:52:33Z</time></trkpt><trkpt lat="43.65512507225153" lon="12.338469340544785"><ele>560.0</ele><time>2026-04-20T13:52:34Z</time></trkpt><trkpt lat="43.65504203533619" lon="12.338395613002282"><ele>556.6</ele><time>2026-04-20T13:52:35Z</time></trkpt><trkpt lat="43.65495678925883" lon="12.33833527376382"><ele>553.2</ele><time>2026-04-20T13:52:36Z</time></trkpt><trkpt lat="43.654864075609744" lon="12.338286108789596"><ele>549.8</ele><time>2026-04-20T13:52:37Z</time></trkpt><trkpt lat="43.65476418747641" lon="12.338242700934185"><ele>546.4</ele><time>2026-04-20T13:52:38Z</time></trkpt><trkpt lat="43.65466080255345" lon="12.338224559386735"><ele>543.0</ele><time>2026-04-20T13:52:39Z</time></trkpt><trkpt lat="43.65455854851157" lon="12.338230140052206"><ele>543.0</ele><time>2026-04-20T13:52:40Z</time></trkpt><trkpt lat="43.65445587835197" lon="12.338262019600068"><ele>543.0</ele><time>2026-04-20T13:52:41Z</time></trkpt><trkpt lat="43.65434622831456" lon="12.338305730153829"><ele>543.0</ele><time>2026-04-20T13:52:42Z</time></trkpt><trkpt lat="43.65424342625512" lon="12.338365975663711"><ele>543.0</ele><time>2026-04-20T13:52:43Z</time></trkpt><trkpt lat="43.654152019343044" lon="12.338432232686197"><ele>543.0</ele><time>2026-04-20T13:52:44Z</time></trkpt><trkpt lat="43.65405835321482" lon="12.338493407081017"><ele>541.0</ele><time>2026-04-20T13:52:45Z</time></trkpt><trkpt lat="43.653971145233605" lon="12.33856218831975"><ele>539.0</ele><time>2026-04-20T13:52:46Z</time></trkpt><trkpt lat="43.65389082859849" lon="12.338642678606579"><ele>537.0</ele><time>2026-04-20T13:52:47Z</time></trkpt><trkpt lat="43.65381137568022" lon="12.33870387299813"><ele>535.0</ele><time>2026-04-20T13:52:48Z</time></trkpt><trkpt lat="43.6537279073092" lon="12.33876847632316"><ele>533.0</ele><time>2026-04-20T13:52:49Z</time></trkpt><trkpt lat="43.65363330749836" lon="12.33878533912929"><ele>531.5</ele><time>2026-04-20T13:52:50Z</time></trkpt><trkpt lat="43.65353428632676" lon="12.33874526266868"><ele>530.0</ele><time>2026-04-20T13:52:51Z</time></trkpt><trkpt lat="43.653441425270664" lon="12.338746841768145"><ele>528.5</ele><time>2026-04-20T13:52:52Z</time></trkpt><trkpt lat="43.65336341888093" lon="12.338730352158153"><ele>527.0</ele><time>2026-04-20T13:52:53Z</time></trkpt><trkpt lat="43.6532960505161" lon="12.338738326768917"><ele>525.5</ele><time>2026-04-20T13:52:54Z</time></trkpt><trkpt lat="43.65323462452846" lon="12.338832462006891"><ele>524.0</ele><time>2026-04-20T13:52:56Z</time></trkpt><trkpt lat="43.65323065699533" lon="12.338985811347154"><ele>524.0</ele><time>2026-04-20T13:52:58Z</time></trkpt><trkpt lat="43.65328882675153" lon="12.339077239857234"><ele>524.0</ele><time>2026-04-20T13:52:59Z</time></trkpt><trkpt lat="43.653342978069205" lon="12.33916900152169"><ele>524.0</ele><time>2026-04-20T13:53:00Z</time></trkpt><trkpt lat="43.653402586853694" lon="12.339292730365095"><ele>524.0</ele><time>2026-04-20T13:53:01Z</time></trkpt><trkpt lat="43.653471872339416" lon="12.339429682488849"><ele>524.0</ele><time>2026-04-20T13:53:02Z</time></trkpt><trkpt lat="43.65352394926055" lon="12.33958827628421"><ele>522.6666666666666</ele><time>2026-04-20T13:53:03Z</time></trkpt><trkpt lat="43.65354594144292" lon="12.339747774860959"><ele>521.3333333333333</ele><time>2026-04-20T13:53:04Z</time></trkpt><trkpt lat="43.65355047858574" lon="12.339895366044354"><ele>520.0</ele><time>2026-04-20T13:53:05Z</time></trkpt><trkpt lat="43.65354565240325" lon="12.339993957677523"><ele>518.6666666666666</ele><time>2026-04-20T13:53:06Z</time></trkpt><trkpt lat="43.65352312349601" lon="12.340080695265504"><ele>517.3333333333334</ele><time>2026-04-20T13:53:07Z</time></trkpt><trkpt lat="43.6534623737534" lon="12.340159588611472"><ele>516.0</ele><time>2026-04-20T13:53:08Z</time></trkpt><trkpt lat="43.65336963512994" lon="12.34023986139414"><ele>516.0</ele><time>2026-04-20T13:53:09Z</time></trkpt><trkpt lat="43.653283675994466" lon="12.340327134712172"><ele>516.0</ele><time>2026-04-20T13:53:10Z</time></trkpt><trkpt lat="43.65320698788179" lon="12.340420100597008"><ele>516.0</ele><time>2026-04-20T13:53:11Z</time></trkpt><trkpt lat="43.65313580360759" lon="12.340497831066317"><ele>516.0</ele><time>2026-04-20T13:53:12Z</time></trkpt><trkpt lat="43.65306426265006" lon="12.340567999766273"><ele>516.0</ele><time>2026-04-20T13:53:13Z</time></trkpt><trkpt lat="43.65299332838093" lon="12.34061134199043"><ele>513.5714285714286</ele><time>2026-04-20T13:53:14Z</time></trkpt><trkpt lat="43.6529125254059" lon="12.340646398996302"><ele>511.1428571428571</ele><time>2026-04-20T13:53:15Z</time></trkpt><trkpt lat="43.6528372674757" lon="12.34065298599026"><ele>508.7142857142857</ele><time>2026-04-20T13:53:16Z</time></trkpt><trkpt lat="43.65276603962393" lon="12.340612253691884"><ele>506.2857142857143</ele><time>2026-04-20T13:53:17Z</time></trkpt><trkpt lat="43.65269684602357" lon="12.340585775835907"><ele>503.8571428571429</ele><time>2026-04-20T13:53:18Z</time></trkpt><trkpt lat="43.652632438748384" lon="12.340553740194188"><ele>501.4285714285715</ele><time>2026-04-20T13:53:19Z</time></trkpt><trkpt lat="43.652571425884325" lon="12.340513348143114"><ele>499.00000000000006</ele><time>2026-04-20T13:53:20Z</time></trkpt><trkpt lat="43.652528636716184" lon="12.340401217033474"><ele>499.0</ele><time>2026-04-20T13:53:22Z</time></trkpt><trkpt lat="43.652610272399514" lon="12.3402537215936"><ele>499.0</ele><time>2026-04-20T13:53:24Z</time></trkpt><trkpt lat="43.652653718934054" lon="12.340142481243436"><ele>499.0</ele><time>2026-04-20T13:53:25Z</time></trkpt><trkpt lat="43.652684638726726" lon="12.340039019969671"><ele>499.0</ele><time>2026-04-20T13:53:26Z</time></trkpt><trkpt lat="43.65270530439556" lon="12.339919712213206"><ele>499.0</ele><time>2026-04-20T13:53:27Z</time></trkpt><trkpt lat="43.652700842170425" lon="12.339768194419609"><ele>498.4</ele><time>2026-04-20T13:53:28Z</time></trkpt><trkpt lat="43.65267795376502" lon="12.339619799459218"><ele>497.79999999999995</ele><time>2026-04-20T13:53:29Z</time></trkpt><trkpt lat="43.65266900851756" lon="12.339485226012668"><ele>497.20000000000005</ele><time>2026-04-20T13:53:30Z</time></trkpt><trkpt lat="43.65266192353455" lon="12.339348880690974"><ele>496.6</ele><time>2026-04-20T13:53:31Z</time></trkpt><trkpt lat="43.652639784000776" lon="12.339209066606944"><ele>496.0</ele><time>2026-04-20T13:53:32Z</time></trkpt><trkpt lat="43.65260768942384" lon="12.339066603136045"><ele>496.0</ele><time>2026-04-20T13:53:33Z</time></trkpt><trkpt lat="43.65255925125409" lon="12.338910380177913"><ele>496.0</ele><time>2026-04-20T13:53:34Z</time></trkpt><trkpt lat="43.65251557001149" lon="12.33877327098424"><ele>496.0</ele><time>2026-04-20T13:53:35Z</time></trkpt><trkpt lat="43.6524815763496" lon="12.33867467454733"><ele>496.0</ele><time>2026-04-20T13:53:36Z</time></trkpt><trkpt lat="43.65244505466485" lon="12.338581299637168"><ele>496.0</ele><time>2026-04-20T13:53:37Z</time></trkpt><trkpt lat="43.65231564065922" lon="12.338511898250378"><ele>496.0</ele><time>2026-04-20T13:53:39Z</time></trkpt><trkpt lat="43.65224303852806" lon="12.33859235022937"><ele>496.0</ele><time>2026-04-20T13:53:40Z</time></trkpt><trkpt lat="43.652178687862246" lon="12.338690314821923"><ele>496.0</ele><time>2026-04-20T13:53:41Z</time></trkpt><trkpt lat="43.65211051447417" lon="12.33881537780199"><ele>496.0</ele><time>2026-04-20T13:53:42Z</time></trkpt><trkpt lat="43.652034943996064" lon="12.338935895567912"><ele>496.0</ele><time>2026-04-20T13:53:43Z</time></trkpt><trkpt lat="43.65196438388683" lon="12.339035673553425"><ele>491.6</ele><time>2026-04-20T13:53:44Z</time></trkpt><trkpt lat="43.651872564189865" lon="12.339102743747581"><ele>487.20000000000005</ele><time>2026-04-20T13:53:45Z</time></trkpt><trkpt lat="43.651758167610765" lon="12.339079170545066"><ele>482.79999999999995</ele><time>2026-04-20T13:53:46Z</time></trkpt><trkpt lat="43.651652211717405" lon="12.339119090050097"><ele>478.4</ele><time>2026-04-20T13:53:47Z</time></trkpt><trkpt lat="43.651568821309915" lon="12.339195012372912"><ele>474.0</ele><time>2026-04-20T13:53:48Z</time></trkpt><trkpt lat="43.65148279722561" lon="12.33929369278782"><ele>474.0</ele><time>2026-04-20T13:53:49Z</time></trkpt><trkpt lat="43.65138988886766" lon="12.339422560891185"><ele>474.0</ele><time>2026-04-20T13:53:50Z</time></trkpt><trkpt lat="43.65128269301581" lon="12.339551802737617"><ele>474.0</ele><time>2026-04-20T13:53:51Z</time></trkpt><trkpt lat="43.65116033787921" lon="12.339641263020036"><ele>474.0</ele><time>2026-04-20T13:53:52Z</time></trkpt><trkpt lat="43.65104608816948" lon="12.339718042719994"><ele>473.5</ele><time>2026-04-20T13:53:53Z</time></trkpt><trkpt lat="43.65092744646214" lon="12.339769970482621"><ele>473.0</ele><time>2026-04-20T13:53:54Z</time></trkpt><trkpt lat="43.650797299623356" lon="12.339827295134906"><ele>472.5</ele><time>2026-04-20T13:53:55Z</time></trkpt><trkpt lat="43.65066992000054" lon="12.339883400886931"><ele>472.0</ele><time>2026-04-20T13:53:56Z</time></trkpt><trkpt lat="43.65055476244868" lon="12.339936422242761"><ele>472.0</ele><time>2026-04-20T13:53:57Z</time></trkpt><trkpt lat="43.650453188921055" lon="12.339994028200604"><ele>472.00000000000006</ele><time>2026-04-20T13:53:58Z</time></trkpt><trkpt lat="43.6503639655653" lon="12.340053178815173"><ele>472.00000000000006</ele><time>2026-04-20T13:53:59Z</time></trkpt><trkpt lat="43.650287340152275" lon="12.340113128536627"><ele>472.0</ele><time>2026-04-20T13:54:00Z</time></trkpt><trkpt lat="43.65023943575589" lon="12.340206079582915"><ele>472.0</ele><time>2026-04-20T13:54:01Z</time></trkpt><trkpt lat="43.65015031629911" lon="12.340233235004469"><ele>468.6</ele><time>2026-04-20T13:54:03Z</time></trkpt><trkpt lat="43.6501589179359" lon="12.340130577232147"><ele>465.20000000000005</ele><time>2026-04-20T13:54:04Z</time></trkpt><trkpt lat="43.65020941990002" lon="12.339930983433053"><ele>461.8</ele><time>2026-04-20T13:54:06Z</time></trkpt><trkpt lat="43.6502035023017" lon="12.339786351283644"><ele>458.4</ele><time>2026-04-20T13:54:07Z</time></trkpt><trkpt lat="43.65019626287231" lon="12.339660192067747"><ele>455.0</ele><time>2026-04-20T13:54:08Z</time></trkpt><trkpt lat="43.65020210284119" lon="12.33954285878382"><ele>453.8333333333333</ele><time>2026-04-20T13:54:09Z</time></trkpt><trkpt lat="43.65025190758696" lon="12.339450123554213"><ele>452.66666666666663</ele><time>2026-04-20T13:54:10Z</time></trkpt><trkpt lat="43.65030072674637" lon="12.339371891840832"><ele>451.5</ele><time>2026-04-20T13:54:11Z</time></trkpt><trkpt lat="43.65033155315543" lon="12.339214957149702"><ele>450.33333333333337</ele><time>2026-04-20T13:54:13Z</time></trkpt><trkpt lat="43.650279467459626" lon="12.33913779627643"><ele>449.1666666666667</ele><time>2026-04-20T13:54:14Z</time></trkpt><trkpt lat="43.650193643636634" lon="12.339155119505856"><ele>448.0</ele><time>2026-04-20T13:54:15Z</time></trkpt><trkpt lat="43.65012848997385" lon="12.339197608062541"><ele>448.0</ele><time>2026-04-20T13:54:18Z</time></trkpt><trkpt lat="43.65018407135271" lon="12.339143185793949"><ele>448.0</ele><time>2026-04-20T13:54:28Z</time></trkpt><trkpt lat="43.650396909212695" lon="12.338769267126692"><ele>448.0</ele><time>2026-04-20T13:54:31Z</time></trkpt><trkpt lat="43.650463289371935" lon="12.338680990314305"><ele>449.1666666666667</ele><time>2026-04-20T13:54:32Z</time></trkpt><trkpt lat="43.65052344956888" lon="12.338600769628135"><ele>450.33333333333337</ele><time>2026-04-20T13:54:33Z</time></trkpt><trkpt lat="43.65056822621297" lon="12.338513964380429"><ele>451.5</ele><time>2026-04-20T13:54:34Z</time></trkpt><trkpt lat="43.650613776122526" lon="12.338451551183788"><ele>452.66666666666663</ele><time>2026-04-20T13:54:35Z</time></trkpt><trkpt lat="43.650683487531055" lon="12.338387366309576"><ele>453.8333333333333</ele><time>2026-04-20T13:54:37Z</time></trkpt><trkpt lat="43.65060492698384" lon="12.338240837927259"><ele>455.0</ele><time>2026-04-20T13:54:38Z</time></trkpt><trkpt lat="43.65055719846169" lon="12.338181047303882"><ele>455.0</ele><time>2026-04-20T13:54:39Z</time></trkpt><trkpt lat="43.650488986326856" lon="12.338077641716762"><ele>455.0</ele><time>2026-04-20T13:54:41Z</time></trkpt><trkpt lat="43.65044403390242" lon="12.337977694914702"><ele>455.0</ele><time>2026-04-20T13:54:43Z</time></trkpt><trkpt lat="43.65029310472733" lon="12.338077177640983"><ele>455.0</ele><time>2026-04-20T13:54:45Z</time></trkpt><trkpt lat="43.65023074322706" lon="12.338152856256537"><ele>455.0</ele><time>2026-04-20T13:54:46Z</time></trkpt><trkpt lat="43.6501693874868" lon="12.338228431826959"><ele>452.2</ele><time>2026-04-20T13:54:47Z</time></trkpt><trkpt lat="43.65011302430247" lon="12.338295003294585"><ele>449.4</ele><time>2026-04-20T13:54:48Z</time></trkpt><trkpt lat="43.65005692982345" lon="12.338351041445183"><ele>446.6</ele><time>2026-04-20T13:54:49Z</time></trkpt><trkpt lat="43.64995579188442" lon="12.338404626352714"><ele>443.8</ele><time>2026-04-20T13:54:51Z</time></trkpt><trkpt lat="43.649887825508465" lon="12.338304679753536"><ele>441.0</ele><time>2026-04-20T13:54:53Z</time></trkpt><trkpt lat="43.64994424629719" lon="12.338149640331038"><ele>440.3333333333333</ele><time>2026-04-20T13:54:54Z</time></trkpt><trkpt lat="43.64993500658896" lon="12.338034945349897"><ele>439.66666666666663</ele><time>2026-04-20T13:54:55Z</time></trkpt><trkpt lat="43.649915235999266" lon="12.337894809564915"><ele>439.0</ele><time>2026-04-20T13:54:57Z</time></trkpt><trkpt lat="43.64989099778741" lon="12.337805937000574"><ele>438.3333333333333</ele><time>2026-04-20T13:55:00Z</time></trkpt><trkpt lat="43.649848312925805" lon="12.33769496952217"><ele>437.66666666666663</ele><time>2026-04-20T13:55:01Z</time></trkpt><trkpt lat="43.64979730970838" lon="12.337595252886885"><ele>437.0</ele><time>2026-04-20T13:55:02Z</time></trkpt><trkpt lat="43.64972915825301" lon="12.337517160207591"><ele>436.99999999999994</ele><time>2026-04-20T13:55:03Z</time></trkpt><trkpt lat="43.64967637176823" lon="12.33746942949179"><ele>437.0</ele><time>2026-04-20T13:55:04Z</time></trkpt><trkpt lat="43.6496114880155" lon="12.337452527160831"><ele>437.0</ele><time>2026-04-20T13:55:05Z</time></trkpt><trkpt lat="43.649543492897386" lon="12.337405299729083"><ele>437.0</ele><time>2026-04-20T13:55:06Z</time></trkpt><trkpt lat="43.6494618725561" lon="12.337375165213386"><ele>436.99999999999994</ele><time>2026-04-20T13:55:07Z</time></trkpt><trkpt lat="43.649370890511" lon="12.337324161862524"><ele>437.0</ele><time>2026-04-20T13:55:08Z</time></trkpt><trkpt lat="43.649282918159194" lon="12.337253026782857"><ele>434.40000000000003</ele><time>2026-04-20T13:55:09Z</time></trkpt><trkpt lat="43.64918645608885" lon="12.337207689221781"><ele>431.80000000000007</ele><time>2026-04-20T13:55:10Z</time></trkpt><trkpt lat="43.649091096898914" lon="12.337166726450672"><ele>429.2</ele><time>2026-04-20T13:55:11Z</time></trkpt><trkpt lat="43.649003616785166" lon="12.337137921855133"><ele>426.6</ele><time>2026-04-20T13:55:12Z</time></trkpt><trkpt lat="43.6489322000861" lon="12.337108491052927"><ele>424.0</ele><time>2026-04-20T13:55:13Z</time></trkpt><trkpt lat="43.64885125213681" lon="12.337032991981237"><ele>424.00000000000006</ele><time>2026-04-20T13:55:15Z</time></trkpt><trkpt lat="43.648831577615944" lon="12.336891318968476"><ele>424.0</ele><time>2026-04-20T13:55:17Z</time></trkpt><trkpt lat="43.64882582493359" lon="12.33679262345041"><ele>424.0</ele><time>2026-04-20T13:55:18Z</time></trkpt><trkpt lat="43.64881033793693" lon="12.336697366915908"><ele>424.0</ele><time>2026-04-20T13:55:19Z</time></trkpt><trkpt lat="43.64878059185069" lon="12.33660741629288"><ele>424.00000000000006</ele><time>2026-04-20T13:55:20Z</time></trkpt><trkpt lat="43.648744558961724" lon="12.33649177762938"><ele>424.0</ele><time>2026-04-20T13:55:22Z</time></trkpt><trkpt lat="43.64867862308542" lon="12.336392258685102"><ele>423.0</ele><time>2026-04-20T13:55:25Z</time></trkpt><trkpt lat="43.64857007643058" lon="12.336398130518605"><ele>422.0</ele><time>2026-04-20T13:55:27Z</time></trkpt><trkpt lat="43.6484501867913" lon="12.33638058609163"><ele>421.0</ele><time>2026-04-20T13:55:29Z</time></trkpt><trkpt lat="43.64834285344281" lon="12.336373830197852"><ele>420.0</ele><time>2026-04-20T13:55:31Z</time></trkpt><trkpt lat="43.64828038701159" lon="12.336339382718007"><ele>419.0</ele><time>2026-04-20T13:55:33Z</time></trkpt><trkpt lat="43.64829131953293" lon="12.336241200143414"><ele>418.99999999999994</ele><time>2026-04-20T13:55:35Z</time></trkpt><trkpt lat="43.648272127151245" lon="12.336115860183874"><ele>419.0</ele><time>2026-04-20T13:55:37Z</time></trkpt><trkpt lat="43.648265829750315" lon="12.336016293298856"><ele>419.0</ele><time>2026-04-20T13:55:39Z</time></trkpt><trkpt lat="43.6482752682877" lon="12.33592083755074"><ele>419.0</ele><time>2026-04-20T13:55:42Z</time></trkpt><trkpt lat="43.6482236164929" lon="12.335831276471573"><ele>418.99999999999994</ele><time>2026-04-20T13:56:40Z</time></trkpt><trkpt lat="43.64813588552709" lon="12.335737591155564"><ele>419.0</ele><time>2026-04-20T13:56:42Z</time></trkpt><trkpt lat="43.64802201344806" lon="12.335668465994203"><ele>418.99999999999994</ele><time>2026-04-20T13:56:44Z</time></trkpt><trkpt lat="43.64789345974323" lon="12.335634331105709"><ele>419.0</ele><time>2026-04-20T13:56:46Z</time></trkpt><trkpt lat="43.6478271382848" lon="12.335607032287"><ele>419.0</ele><time>2026-04-20T13:56:47Z</time></trkpt><trkpt lat="43.647760254371484" lon="12.335578859385798"><ele>419.0</ele><time>2026-04-20T13:56:48Z</time></trkpt><trkpt lat="43.647694226801775" lon="12.33555403710318"><ele>418.99999999999994</ele><time>2026-04-20T13:56:49Z</time></trkpt><trkpt lat="43.64762802077111" lon="12.335528193996566"><ele>419.0</ele><time>2026-04-20T13:56:50Z</time></trkpt><trkpt lat="43.64756139775824" lon="12.335498960242283"><ele>419.85714285714283</ele><time>2026-04-20T13:56:51Z</time></trkpt><trkpt lat="43.64749219837697" lon="12.335472218518373"><ele>420.7142857142857</ele><time>2026-04-20T13:56:52Z</time></trkpt><trkpt lat="43.64742662255397" lon="12.335406620589332"><ele>421.57142857142856</ele><time>2026-04-20T13:56:53Z</time></trkpt><trkpt lat="43.64735258974602" lon="12.335379800180593"><ele>422.42857142857144</ele><time>2026-04-20T13:56:54Z</time></trkpt><trkpt lat="43.647286047522286" lon="12.335355693526429"><ele>423.2857142857143</ele><time>2026-04-20T13:56:55Z</time></trkpt><trkpt lat="43.64721948145401" lon="12.335331578180945"><ele>424.1428571428571</ele><time>2026-04-20T13:56:56Z</time></trkpt><trkpt lat="43.64714509812684" lon="12.335318054612877"><ele>425.0</ele><time>2026-04-20T13:56:57Z</time></trkpt><trkpt lat="43.64707740042813" lon="12.335292249246143"><ele>424.99999999999994</ele><time>2026-04-20T13:56:58Z</time></trkpt><trkpt lat="43.64700684189156" lon="12.335264234722334"><ele>425.0</ele><time>2026-04-20T13:56:59Z</time></trkpt><trkpt lat="43.64694265882546" lon="12.335232890079277"><ele>425.0</ele><time>2026-04-20T13:57:00Z</time></trkpt><trkpt lat="43.64688100909947" lon="12.335201353830845"><ele>425.0</ele><time>2026-04-20T13:57:01Z</time></trkpt><trkpt lat="43.64676237971161" lon="12.335133880011822"><ele>424.99999999999994</ele><time>2026-04-20T13:57:03Z</time></trkpt><trkpt lat="43.64670122318919" lon="12.335087628302011"><ele>425.0</ele><time>2026-04-20T13:57:04Z</time></trkpt><trkpt lat="43.64663830320989" lon="12.335060424115207"><ele>425.8333333333333</ele><time>2026-04-20T13:57:05Z</time></trkpt><trkpt lat="43.64657341236371" lon="12.33503029922139"><ele>426.66666666666663</ele><time>2026-04-20T13:57:06Z</time></trkpt><trkpt lat="43.64650450707744" lon="12.334998310657397"><ele>427.5</ele><time>2026-04-20T13:57:07Z</time></trkpt><trkpt lat="43.64643018943189" lon="12.334963809451274"><ele>428.33333333333337</ele><time>2026-04-20T13:57:08Z</time></trkpt><trkpt lat="43.64635284911781" lon="12.334927905068833"><ele>429.1666666666667</ele><time>2026-04-20T13:57:09Z</time></trkpt><trkpt lat="43.64627704193403" lon="12.33489194791015"><ele>430.0</ele><time>2026-04-20T13:57:10Z</time></trkpt><trkpt lat="43.64620940062728" lon="12.334859880923663"><ele>429.83333333333337</ele><time>2026-04-20T13:57:11Z</time></trkpt><trkpt lat="43.646111123036" lon="12.334828950660238"><ele>429.6666666666667</ele><time>2026-04-20T13:57:13Z</time></trkpt><trkpt lat="43.64603736563283" lon="12.334800035073652"><ele>429.5</ele><time>2026-04-20T13:57:16Z</time></trkpt><trkpt lat="43.64597472314558" lon="12.33488008448757"><ele>429.33333333333337</ele><time>2026-04-20T13:57:18Z</time></trkpt><trkpt lat="43.645891877718164" lon="12.334894640736225"><ele>429.1666666666667</ele><time>2026-04-20T13:57:21Z</time></trkpt><trkpt lat="43.64588716899854" lon="12.334760841502574"><ele>429.0</ele><time>2026-04-20T13:57:23Z</time></trkpt><trkpt lat="43.64586186699251" lon="12.334668331373761"><ele>430.0</ele><time>2026-04-20T13:57:24Z</time></trkpt><trkpt lat="43.645847349720974" lon="12.33456108907271"><ele>431.0</ele><time>2026-04-20T13:57:25Z</time></trkpt><trkpt lat="43.6458303713477" lon="12.33445312657825"><ele>432.0</ele><time>2026-04-20T13:57:26Z</time></trkpt><trkpt lat="43.64581127316746" lon="12.334327069572389"><ele>433.0</ele><time>2026-04-20T13:57:27Z</time></trkpt><trkpt lat="43.64580806567016" lon="12.33418713316693"><ele>434.0</ele><time>2026-04-20T13:57:28Z</time></trkpt><trkpt lat="43.645763474726955" lon="12.33405372345323"><ele>434.0</ele><time>2026-04-20T13:57:29Z</time></trkpt><trkpt lat="43.64572149368282" lon="12.333923978384876"><ele>434.0</ele><time>2026-04-20T13:57:30Z</time></trkpt><trkpt lat="43.64566847657652" lon="12.333803651731364"><ele>434.0</ele><time>2026-04-20T13:57:31Z</time></trkpt><trkpt lat="43.64560206938689" lon="12.33368469660709"><ele>434.0</ele><time>2026-04-20T13:57:32Z</time></trkpt><trkpt lat="43.645539114166645" lon="12.333567278357673"><ele>434.0</ele><time>2026-04-20T13:57:33Z</time></trkpt><trkpt lat="43.645450824783474" lon="12.33350069598953"><ele>436.2</ele><time>2026-04-20T13:57:34Z</time></trkpt><trkpt lat="43.645357416399726" lon="12.33350301157904"><ele>438.4</ele><time>2026-04-20T13:57:35Z</time></trkpt><trkpt lat="43.645287218648264" lon="12.333472554313145"><ele>440.6</ele><time>2026-04-20T13:57:36Z</time></trkpt><trkpt lat="43.64517091835329" lon="12.33345362588484"><ele>442.8</ele><time>2026-04-20T13:57:38Z</time></trkpt><trkpt lat="43.64511906765967" lon="12.333374688364769"><ele>445.0</ele><time>2026-04-20T13:57:39Z</time></trkpt><trkpt lat="43.64504532447335" lon="12.333300629975106"><ele>445.0</ele><time>2026-04-20T13:57:40Z</time></trkpt><trkpt lat="43.64497682971026" lon="12.333173925191174"><ele>445.0</ele><time>2026-04-20T13:57:41Z</time></trkpt><trkpt lat="43.644895724696646" lon="12.333036237176046"><ele>445.0</ele><time>2026-04-20T13:57:42Z</time></trkpt><trkpt lat="43.64481023763969" lon="12.33289238019636"><ele>445.0</ele><time>2026-04-20T13:57:43Z</time></trkpt><trkpt lat="43.64472800916478" lon="12.332747202280041"><ele>445.25</ele><time>2026-04-20T13:57:44Z</time></trkpt><trkpt lat="43.64463946632176" lon="12.33259865032977"><ele>445.5</ele><time>2026-04-20T13:57:45Z</time></trkpt><trkpt lat="43.64454906211353" lon="12.332450740954275"><ele>445.75</ele><time>2026-04-20T13:57:46Z</time></trkpt><trkpt lat="43.64445925729393" lon="12.332301097574517"><ele>446.0</ele><time>2026-04-20T13:57:47Z</time></trkpt><trkpt lat="43.644360793970016" lon="12.332154479856081"><ele>446.0</ele><time>2026-04-20T13:57:48Z</time></trkpt><trkpt lat="43.644261052329995" lon="12.332015079980158"><ele>446.0</ele><time>2026-04-20T13:57:49Z</time></trkpt><trkpt lat="43.64415523784237" lon="12.331881120577368"><ele>446.0</ele><time>2026-04-20T13:57:50Z</time></trkpt><trkpt lat="43.644045161247625" lon="12.331749673740275"><ele>446.0</ele><time>2026-04-20T13:57:51Z</time></trkpt><trkpt lat="43.64393652824809" lon="12.331612813198303"><ele>446.0</ele><time>2026-04-20T13:57:52Z</time></trkpt><trkpt lat="43.6438300586241" lon="12.3314740710161"><ele>446.0</ele><time>2026-04-20T13:57:53Z</time></trkpt><trkpt lat="43.64372889965678" lon="12.331326738737156"><ele>446.0</ele><time>2026-04-20T13:57:54Z</time></trkpt><trkpt lat="43.643633882503416" lon="12.331173089726555"><ele>446.0</ele><time>2026-04-20T13:57:55Z</time></trkpt><trkpt lat="43.64357070725324" lon="12.330991128956772"><ele>445.66666666666663</ele><time>2026-04-20T13:57:56Z</time></trkpt><trkpt lat="43.64350097061566" lon="12.33080891626408"><ele>445.33333333333337</ele><time>2026-04-20T13:57:57Z</time></trkpt><trkpt lat="43.64341445087223" lon="12.330639280193054"><ele>445.0</ele><time>2026-04-20T13:57:58Z</time></trkpt><trkpt lat="43.64334148416709" lon="12.330455224928892"><ele>445.0</ele><time>2026-04-20T13:57:59Z</time></trkpt><trkpt lat="43.64327279482827" lon="12.330274889005338"><ele>445.0</ele><time>2026-04-20T13:58:00Z</time></trkpt><trkpt lat="43.643200803279186" lon="12.330094195577425"><ele>445.0</ele><time>2026-04-20T13:58:01Z</time></trkpt><trkpt lat="43.64313080823844" lon="12.329914520869792"><ele>445.0</ele><time>2026-04-20T13:58:02Z</time></trkpt><trkpt lat="43.64306047596743" lon="12.32972896418445"><ele>444.0</ele><time>2026-04-20T13:58:03Z</time></trkpt><trkpt lat="43.64299100863999" lon="12.329542590289792"><ele>443.0</ele><time>2026-04-20T13:58:04Z</time></trkpt><trkpt lat="43.642921462769785" lon="12.329370619477908"><ele>442.0</ele><time>2026-04-20T13:58:05Z</time></trkpt><trkpt lat="43.64284452548368" lon="12.32920698195974"><ele>441.0</ele><time>2026-04-20T13:58:06Z</time></trkpt><trkpt lat="43.642750766566635" lon="12.329062082318487"><ele>441.0</ele><time>2026-04-20T13:58:07Z</time></trkpt><trkpt lat="43.64264784911643" lon="12.328913533672957"><ele>441.0</ele><time>2026-04-20T13:58:08Z</time></trkpt><trkpt lat="43.64256409223783" lon="12.328737924922676"><ele>441.0</ele><time>2026-04-20T13:58:09Z</time></trkpt><trkpt lat="43.64248517961558" lon="12.32854859919195"><ele>442.66666666666663</ele><time>2026-04-20T13:58:10Z</time></trkpt><trkpt lat="43.64240780561095" lon="12.328342773003346"><ele>444.3333333333333</ele><time>2026-04-20T13:58:11Z</time></trkpt><trkpt lat="43.64233102076826" lon="12.328127034784801"><ele>446.0</ele><time>2026-04-20T13:58:12Z</time></trkpt><trkpt lat="43.64225117526957" lon="12.327906295653856"><ele>445.66666666666663</ele><time>2026-04-20T13:58:13Z</time></trkpt><trkpt lat="43.64216762320214" lon="12.32768558152461"><ele>445.33333333333337</ele><time>2026-04-20T13:58:14Z</time></trkpt><trkpt lat="43.64205886633233" lon="12.32747471158696"><ele>445.0</ele><time>2026-04-20T13:58:15Z</time></trkpt><trkpt lat="43.64194887487995" lon="12.327264646757357"><ele>447.6666666666667</ele><time>2026-04-20T13:58:16Z</time></trkpt><trkpt lat="43.641827160656874" lon="12.327057011046508"><ele>450.33333333333337</ele><time>2026-04-20T13:58:17Z</time></trkpt><trkpt lat="43.64169214835024" lon="12.326855466517367"><ele>453.0</ele><time>2026-04-20T13:58:18Z</time></trkpt><trkpt lat="43.64154984745471" lon="12.326661136387695"><ele>453.0</ele><time>2026-04-20T13:58:19Z</time></trkpt><trkpt lat="43.641414965219084" lon="12.32647344931113"><ele>453.0</ele><time>2026-04-20T13:58:20Z</time></trkpt><trkpt lat="43.64128217697669" lon="12.326294794800047"><ele>453.0</ele><time>2026-04-20T13:58:21Z</time></trkpt><trkpt lat="43.641162094867774" lon="12.326108829644085"><ele>454.66666666666663</ele><time>2026-04-20T13:58:22Z</time></trkpt><trkpt lat="43.64101518965771" lon="12.325959441024647"><ele>456.3333333333333</ele><time>2026-04-20T13:58:23Z</time></trkpt><trkpt lat="43.640876850401526" lon="12.32580007271537"><ele>458.0</ele><time>2026-04-20T13:58:24Z</time></trkpt><trkpt lat="43.64073418215302" lon="12.325660356724002"><ele>459.3333333333333</ele><time>2026-04-20T13:58:25Z</time></trkpt><trkpt lat="43.640583262073314" lon="12.325522524861928"><ele>460.66666666666663</ele><time>2026-04-20T13:58:26Z</time></trkpt><trkpt lat="43.640435650415924" lon="12.32537869301424"><ele>462.0</ele><time>2026-04-20T13:58:27Z</time></trkpt><trkpt lat="43.640311868662444" lon="12.325210101820765"><ele>461.0</ele><time>2026-04-20T13:58:28Z</time></trkpt><trkpt lat="43.64017911293977" lon="12.32504723333068"><ele>460.0</ele><time>2026-04-20T13:58:28.999Z</time></trkpt><trkpt lat="43.64004004361402" lon="12.324902017266472"><ele>459.0</ele><time>2026-04-20T13:58:29.999Z</time></trkpt><trkpt lat="43.639918893324534" lon="12.324745848089933"><ele>460.0</ele><time>2026-04-20T13:58:30.999Z</time></trkpt><trkpt lat="43.63980768468198" lon="12.324600330196246"><ele>461.0</ele><time>2026-04-20T13:58:31.999Z</time></trkpt><trkpt lat="43.639711294714694" lon="12.32447891964463"><ele>462.0</ele><time>2026-04-20T13:58:32.999Z</time></trkpt><trkpt lat="43.63961145157374" lon="12.324364036039144"><ele>463.0</ele><time>2026-04-20T13:58:33.999Z</time></trkpt><trkpt lat="43.63952047605987" lon="12.324259287000357"><ele>462.59999999999997</ele><time>2026-04-20T13:58:34.999Z</time></trkpt><trkpt lat="43.639434543351314" lon="12.324161195978096"><ele>462.19999999999993</ele><time>2026-04-20T13:58:35.999Z</time></trkpt><trkpt lat="43.63935634817301" lon="12.324056837350021"><ele>461.8</ele><time>2026-04-20T13:58:36.999Z</time></trkpt><trkpt lat="43.63929894050907" lon="12.323932920512346"><ele>461.4</ele><time>2026-04-20T13:58:37.999Z</time></trkpt><trkpt lat="43.63921841395426" lon="12.323833493179059"><ele>461.0</ele><time>2026-04-20T13:58:38.999Z</time></trkpt><trkpt lat="43.63915035839208" lon="12.323730166842399"><ele>461.0</ele><time>2026-04-20T13:58:39.999Z</time></trkpt><trkpt lat="43.63909741608651" lon="12.323623025748613"><ele>461.0</ele><time>2026-04-20T13:58:40.999Z</time></trkpt><trkpt lat="43.63905471512093" lon="12.323505735387112"><ele>461.0</ele><time>2026-04-20T13:58:41.999Z</time></trkpt><trkpt lat="43.63901005237423" lon="12.323392484677719"><ele>461.0</ele><time>2026-04-20T13:58:42.999Z</time></trkpt><trkpt lat="43.63896116636512" lon="12.32329437554572"><ele>461.0</ele><time>2026-04-20T13:58:43.999Z</time></trkpt><trkpt lat="43.6389047191488" lon="12.323208704196846"><ele>461.0</ele><time>2026-04-20T13:58:44.999Z</time></trkpt><trkpt lat="43.638856152172856" lon="12.32306650530775"><ele>461.0</ele><time>2026-04-20T13:58:45.999Z</time></trkpt><trkpt lat="43.63879402261916" lon="12.322951767773732"><ele>461.0</ele><time>2026-04-20T13:58:46.999Z</time></trkpt><trkpt lat="43.63872316918313" lon="12.322846144693937"><ele>461.0</ele><time>2026-04-20T13:58:47.999Z</time></trkpt><trkpt lat="43.6386480429947" lon="12.322742937197058"><ele>461.0</ele><time>2026-04-20T13:58:48.999Z</time></trkpt><trkpt lat="43.638566559109165" lon="12.322642959667832"><ele>460.99999999999994</ele><time>2026-04-20T13:58:49.999Z</time></trkpt><trkpt lat="43.638482959940035" lon="12.322544850539598"><ele>461.0</ele><time>2026-04-20T13:58:50.999Z</time></trkpt><trkpt lat="43.6383947077894" lon="12.322469592648085"><ele>461.0</ele><time>2026-04-20T13:58:51.999Z</time></trkpt><trkpt lat="43.638329840644865" lon="12.322394928243265"><ele>461.0</ele><time>2026-04-20T13:58:52.999Z</time></trkpt><trkpt lat="43.638269785931065" lon="12.32232469078719"><ele>460.99999999999994</ele><time>2026-04-20T13:58:53.999Z</time></trkpt><trkpt lat="43.638217917960155" lon="12.32225750005795"><ele>461.0</ele><time>2026-04-20T13:58:54.999Z</time></trkpt><trkpt lat="43.63817062391912" lon="12.32219843337784"><ele>461.0</ele><time>2026-04-20T13:58:55.999Z</time></trkpt><trkpt lat="43.63808546500229" lon="12.322086215395732"><ele>461.0</ele><time>2026-04-20T13:58:58Z</time></trkpt><trkpt lat="43.63801448861662" lon="12.321988856385623"><ele>461.0</ele><time>2026-04-20T13:59:00Z</time></trkpt><trkpt lat="43.63795205693349" lon="12.321882455805317"><ele>461.0</ele><time>2026-04-20T13:59:02Z</time></trkpt><trkpt lat="43.637900529429" lon="12.321805928778666"><ele>461.0</ele><time>2026-04-20T13:59:03Z</time></trkpt><trkpt lat="43.63783364203546" lon="12.3217163034634"><ele>460.25</ele><time>2026-04-20T13:59:04Z</time></trkpt><trkpt lat="43.63777435328412" lon="12.321614612245352"><ele>459.5</ele><time>2026-04-20T13:59:05Z</time></trkpt><trkpt lat="43.63769297733964" lon="12.321512073298424"><ele>458.75</ele><time>2026-04-20T13:59:06Z</time></trkpt><trkpt lat="43.63760052360557" lon="12.32139557550972"><ele>458.0</ele><time>2026-04-20T13:59:07Z</time></trkpt><trkpt lat="43.63749553512071" lon="12.321296860174678"><ele>459.5</ele><time>2026-04-20T13:59:08Z</time></trkpt><trkpt lat="43.63740212203192" lon="12.321162829353725"><ele>461.0</ele><time>2026-04-20T13:59:09Z</time></trkpt><trkpt lat="43.637282602294796" lon="12.321052821651111"><ele>462.5</ele><time>2026-04-20T13:59:10Z</time></trkpt><trkpt lat="43.637149036277975" lon="12.320980919515984"><ele>464.0</ele><time>2026-04-20T13:59:11Z</time></trkpt><trkpt lat="43.6370208240503" lon="12.320908154740076"><ele>464.25</ele><time>2026-04-20T13:59:12Z</time></trkpt><trkpt lat="43.63690171976363" lon="12.320835672070226"><ele>464.5</ele><time>2026-04-20T13:59:13Z</time></trkpt><trkpt lat="43.63680472520835" lon="12.320752659977101"><ele>464.75</ele><time>2026-04-20T13:59:14Z</time></trkpt><trkpt lat="43.63672556709092" lon="12.32064855421249"><ele>465.0</ele><time>2026-04-20T13:59:15Z</time></trkpt><trkpt lat="43.63665749726715" lon="12.320510159768887"><ele>465.0</ele><time>2026-04-20T13:59:16Z</time></trkpt><trkpt lat="43.63660012363093" lon="12.320352769413992"><ele>465.0</ele><time>2026-04-20T13:59:17Z</time></trkpt><trkpt lat="43.63653686231527" lon="12.320193250707256"><ele>465.0</ele><time>2026-04-20T13:59:18Z</time></trkpt><trkpt lat="43.63646940143733" lon="12.320030129354198"><ele>465.0</ele><time>2026-04-20T13:59:19Z</time></trkpt><trkpt lat="43.636368412026705" lon="12.319897466702177"><ele>465.0</ele><time>2026-04-20T13:59:20Z</time></trkpt><trkpt lat="43.636242781458435" lon="12.319797410965917"><ele>465.0</ele><time>2026-04-20T13:59:21Z</time></trkpt><trkpt lat="43.63610191261507" lon="12.319745155894742"><ele>465.0</ele><time>2026-04-20T13:59:22Z</time></trkpt><trkpt lat="43.63597451621621" lon="12.319660558996306"><ele>465.0</ele><time>2026-04-20T13:59:23Z</time></trkpt><trkpt lat="43.635866904458844" lon="12.319555382854029"><ele>465.0</ele><time>2026-04-20T13:59:24Z</time></trkpt><trkpt lat="43.635789972518985" lon="12.319422794198067"><ele>465.0</ele><time>2026-04-20T13:59:25Z</time></trkpt><trkpt lat="43.63573007353755" lon="12.319269117800546"><ele>465.0</ele><time>2026-04-20T13:59:26Z</time></trkpt><trkpt lat="43.635684300989126" lon="12.319098226752685"><ele>465.0</ele><time>2026-04-20T13:59:27Z</time></trkpt><trkpt lat="43.63564649979789" lon="12.318918160337253"><ele>466.5</ele><time>2026-04-20T13:59:28Z</time></trkpt><trkpt lat="43.6356161407308" lon="12.318734307028306"><ele>468.0</ele><time>2026-04-20T13:59:29Z</time></trkpt><trkpt lat="43.63559442783428" lon="12.318542326050187"><ele>469.5</ele><time>2026-04-20T13:59:30Z</time></trkpt><trkpt lat="43.63558767801421" lon="12.31834291392643"><ele>471.0</ele><time>2026-04-20T13:59:31Z</time></trkpt><trkpt lat="43.63559635795852" lon="12.318148606110235"><ele>474.0</ele><time>2026-04-20T13:59:32Z</time></trkpt><trkpt lat="43.63560463745478" lon="12.31795969452591"><ele>477.0</ele><time>2026-04-20T13:59:33Z</time></trkpt><trkpt lat="43.63562660379151" lon="12.31779011835164"><ele>480.0</ele><time>2026-04-20T13:59:34Z</time></trkpt><trkpt lat="43.63561487626456" lon="12.317647859643074"><ele>483.0</ele><time>2026-04-20T13:59:35Z</time></trkpt><trkpt lat="43.63553796025828" lon="12.317511703764705"><ele>483.0</ele><time>2026-04-20T13:59:36Z</time></trkpt><trkpt lat="43.63544615826142" lon="12.317385485154205"><ele>483.0</ele><time>2026-04-20T13:59:37Z</time></trkpt><trkpt lat="43.63534635361776" lon="12.317253205933673"><ele>483.0</ele><time>2026-04-20T13:59:38Z</time></trkpt><trkpt lat="43.63525424117992" lon="12.317128971938333"><ele>483.0</ele><time>2026-04-20T13:59:39Z</time></trkpt><trkpt lat="43.63516272204681" lon="12.31700396883168"><ele>484.0</ele><time>2026-04-20T13:59:40Z</time></trkpt><trkpt lat="43.63508905007557" lon="12.316891756013364"><ele>484.99999999999994</ele><time>2026-04-20T13:59:41Z</time></trkpt><trkpt lat="43.63503648018764" lon="12.316774096106373"><ele>485.99999999999994</ele><time>2026-04-20T13:59:42Z</time></trkpt><trkpt lat="43.63501624815514" lon="12.316626712670946"><ele>487.0</ele><time>2026-04-20T13:59:43Z</time></trkpt><trkpt lat="43.63499772013849" lon="12.316462815839827"><ele>488.0</ele><time>2026-04-20T13:59:44Z</time></trkpt><trkpt lat="43.634970095082934" lon="12.316286204574311"><ele>488.0</ele><time>2026-04-20T13:59:45Z</time></trkpt><trkpt lat="43.63492757702106" lon="12.316103684322215"><ele>488.0</ele><time>2026-04-20T13:59:46Z</time></trkpt><trkpt lat="43.63486503582713" lon="12.315919709061642"><ele>488.0</ele><time>2026-04-20T13:59:47Z</time></trkpt><trkpt lat="43.63479826019307" lon="12.31573427312147"><ele>488.0</ele><time>2026-04-20T13:59:48Z</time></trkpt><trkpt lat="43.63473248534668" lon="12.315552234220895"><ele>493.5</ele><time>2026-04-20T13:59:49Z</time></trkpt><trkpt lat="43.63466830083934" lon="12.315374977250558"><ele>499.0</ele><time>2026-04-20T13:59:50Z</time></trkpt><trkpt lat="43.634605221335114" lon="12.315190473728787"><ele>504.5</ele><time>2026-04-20T13:59:51Z</time></trkpt><trkpt lat="43.63454222180136" lon="12.315001855662628"><ele>510.0</ele><time>2026-04-20T13:59:52Z</time></trkpt><trkpt lat="43.63448075963351" lon="12.314817621921225"><ele>505.75</ele><time>2026-04-20T13:59:53Z</time></trkpt><trkpt lat="43.63442177190864" lon="12.314638935767597"><ele>501.5</ele><time>2026-04-20T13:59:54Z</time></trkpt><trkpt lat="43.63436459333582" lon="12.314462004006415"><ele>497.25</ele><time>2026-04-20T13:59:55Z</time></trkpt><trkpt lat="43.634308993877845" lon="12.314285713003258"><ele>493.0</ele><time>2026-04-20T13:59:56Z</time></trkpt><trkpt lat="43.63425431664778" lon="12.314108012014238"><ele>493.0</ele><time>2026-04-20T13:59:57Z</time></trkpt><trkpt lat="43.63420493186261" lon="12.313927910926907"><ele>493.0</ele><time>2026-04-20T13:59:58Z</time></trkpt><trkpt lat="43.63415444942205" lon="12.313736870499078"><ele>493.0</ele><time>2026-04-20T13:59:59Z</time></trkpt><trkpt lat="43.634089806885406" lon="12.313554268159384"><ele>493.0</ele><time>2026-04-20T14:00:00Z</time></trkpt><trkpt lat="43.63401184556929" lon="12.313376518853126"><ele>496.0</ele><time>2026-04-20T14:00:01Z</time></trkpt><trkpt lat="43.633927452727875" lon="12.313200405552344"><ele>499.0</ele><time>2026-04-20T14:00:02Z</time></trkpt><trkpt lat="43.633838168678906" lon="12.3130319643221"><ele>502.0</ele><time>2026-04-20T14:00:03Z</time></trkpt><trkpt lat="43.633746118271375" lon="12.312872689247332"><ele>501.0</ele><time>2026-04-20T14:00:04Z</time></trkpt><trkpt lat="43.633659372683745" lon="12.312713714038562"><ele>500.0</ele><time>2026-04-20T14:00:05Z</time></trkpt><trkpt lat="43.63357916713926" lon="12.312547343718572"><ele>499.0</ele><time>2026-04-20T14:00:06Z</time></trkpt><trkpt lat="43.633497982753276" lon="12.312379399642511"><ele>498.0</ele><time>2026-04-20T14:00:07Z</time></trkpt><trkpt lat="43.63340540709007" lon="12.312210880770023"><ele>498.0</ele><time>2026-04-20T14:00:08Z</time></trkpt><trkpt lat="43.63329280094915" lon="12.31206025819943"><ele>498.0</ele><time>2026-04-20T14:00:09Z</time></trkpt><trkpt lat="43.63317365633478" lon="12.311914499994753"><ele>498.0</ele><time>2026-04-20T14:00:10Z</time></trkpt><trkpt lat="43.6330599447548" lon="12.311773529073955"><ele>498.0</ele><time>2026-04-20T14:00:11Z</time></trkpt><trkpt lat="43.6329541201565" lon="12.311636678054539"><ele>498.0</ele><time>2026-04-20T14:00:12Z</time></trkpt><trkpt lat="43.632853295027566" lon="12.311506292598022"><ele>498.0</ele><time>2026-04-20T14:00:13Z</time></trkpt><trkpt lat="43.63275246879711" lon="12.311375905549907"><ele>498.0</ele><time>2026-04-20T14:00:14Z</time></trkpt><trkpt lat="43.63265018627256" lon="12.311256809956935"><ele>496.75</ele><time>2026-04-20T14:00:15Z</time></trkpt><trkpt lat="43.63257376868143" lon="12.311107578934214"><ele>495.5</ele><time>2026-04-20T14:00:16Z</time></trkpt><trkpt lat="43.632501214626785" lon="12.310948098424815"><ele>494.25</ele><time>2026-04-20T14:00:17Z</time></trkpt><trkpt lat="43.63244504712001" lon="12.310765170370901"><ele>493.0</ele><time>2026-04-20T14:00:18Z</time></trkpt><trkpt lat="43.63238947099058" lon="12.310565337435033"><ele>493.0</ele><time>2026-04-20T14:00:19Z</time></trkpt><trkpt lat="43.63233671690371" lon="12.31036139901387"><ele>493.0</ele><time>2026-04-20T14:00:20Z</time></trkpt><trkpt lat="43.63228601318235" lon="12.310158888427535"><ele>493.0</ele><time>2026-04-20T14:00:21Z</time></trkpt><trkpt lat="43.63222040986642" lon="12.30995581408629"><ele>496.33333333333337</ele><time>2026-04-20T14:00:22Z</time></trkpt><trkpt lat="43.6321721034568" lon="12.30974156477275"><ele>499.66666666666663</ele><time>2026-04-20T14:00:23Z</time></trkpt><trkpt lat="43.632132860960034" lon="12.309521823506914"><ele>503.0</ele><time>2026-04-20T14:00:24Z</time></trkpt><trkpt lat="43.63208530542141" lon="12.309308915748517"><ele>503.0</ele><time>2026-04-20T14:00:25Z</time></trkpt><trkpt lat="43.63205786663" lon="12.3090805538076"><ele>503.0</ele><time>2026-04-20T14:00:26Z</time></trkpt><trkpt lat="43.63199436744493" lon="12.308872082704282"><ele>503.0</ele><time>2026-04-20T14:00:27Z</time></trkpt><trkpt lat="43.631906134613196" lon="12.308688716091467"><ele>498.0</ele><time>2026-04-20T14:00:28Z</time></trkpt><trkpt lat="43.63179224988934" lon="12.308538114384667"><ele>493.0</ele><time>2026-04-20T14:00:29Z</time></trkpt><trkpt lat="43.63166506992767" lon="12.308407387013366"><ele>488.0</ele><time>2026-04-20T14:00:30Z</time></trkpt><trkpt lat="43.63153238225412" lon="12.308291226163659"><ele>488.0</ele><time>2026-04-20T14:00:31Z</time></trkpt><trkpt lat="43.63140574510869" lon="12.308165697180042"><ele>488.0</ele><time>2026-04-20T14:00:32Z</time></trkpt><trkpt lat="43.63129106314713" lon="12.308022763230664"><ele>488.0</ele><time>2026-04-20T14:00:33Z</time></trkpt><trkpt lat="43.63118730000399" lon="12.307857806280742"><ele>487.0</ele><time>2026-04-20T14:00:34Z</time></trkpt><trkpt lat="43.63107664449987" lon="12.307682512093256"><ele>486.0</ele><time>2026-04-20T14:00:35Z</time></trkpt><trkpt lat="43.630949692642915" lon="12.307524019372378"><ele>485.0</ele><time>2026-04-20T14:00:36Z</time></trkpt><trkpt lat="43.63083448400183" lon="12.307354974218612"><ele>490.0</ele><time>2026-04-20T14:00:37Z</time></trkpt><trkpt lat="43.63068695460227" lon="12.307243873336494"><ele>495.0</ele><time>2026-04-20T14:00:38Z</time></trkpt><trkpt lat="43.63053759740879" lon="12.307162754977618"><ele>500.0</ele><time>2026-04-20T14:00:39Z</time></trkpt><trkpt lat="43.63038136754834" lon="12.30707268191341"><ele>495.3333333333333</ele><time>2026-04-20T14:00:40Z</time></trkpt><trkpt lat="43.63022944940597" lon="12.306977019765172"><ele>490.66666666666663</ele><time>2026-04-20T14:00:41Z</time></trkpt><trkpt lat="43.63009286045208" lon="12.306834413209234"><ele>486.0</ele><time>2026-04-20T14:00:42Z</time></trkpt><trkpt lat="43.62995940291008" lon="12.30669723077117"><ele>486.0</ele><time>2026-04-20T14:00:43Z</time></trkpt><trkpt lat="43.629826863295634" lon="12.306548837641591"><ele>486.0</ele><time>2026-04-20T14:00:44Z</time></trkpt><trkpt lat="43.62968776374818" lon="12.306401612630983"><ele>486.0</ele><time>2026-04-20T14:00:45Z</time></trkpt><trkpt lat="43.62958735650882" lon="12.306199192089002"><ele>487.66666666666663</ele><time>2026-04-20T14:00:46Z</time></trkpt><trkpt lat="43.62948534092962" lon="12.305997580022746"><ele>489.3333333333333</ele><time>2026-04-20T14:00:47Z</time></trkpt><trkpt lat="43.62938419139953" lon="12.30578866195955"><ele>491.0</ele><time>2026-04-20T14:00:48Z</time></trkpt><trkpt lat="43.62928565479218" lon="12.30558418416357"><ele>490.66666666666663</ele><time>2026-04-20T14:00:49Z</time></trkpt><trkpt lat="43.62918436714743" lon="12.305373997961269"><ele>490.33333333333337</ele><time>2026-04-20T14:00:50Z</time></trkpt><trkpt lat="43.62908327395032" lon="12.30516636672845"><ele>490.0</ele><time>2026-04-20T14:00:51Z</time></trkpt><trkpt lat="43.62898115745705" lon="12.304957073656682"><ele>490.0</ele><time>2026-04-20T14:00:52Z</time></trkpt><trkpt lat="43.62887783568999" lon="12.304746994933428"><ele>490.0</ele><time>2026-04-20T14:00:53Z</time></trkpt><trkpt lat="43.628757705635344" lon="12.304548425506466"><ele>490.0</ele><time>2026-04-20T14:00:54Z</time></trkpt><trkpt lat="43.62865136881684" lon="12.304341125199153"><ele>490.33333333333337</ele><time>2026-04-20T14:00:55Z</time></trkpt><trkpt lat="43.628561652926955" lon="12.304124920603776"><ele>490.66666666666663</ele><time>2026-04-20T14:00:56Z</time></trkpt><trkpt lat="43.62844445364529" lon="12.303946276000433"><ele>491.0</ele><time>2026-04-20T14:00:57Z</time></trkpt><trkpt lat="43.62833774952351" lon="12.303786269846114"><ele>496.0</ele><time>2026-04-20T14:00:58Z</time></trkpt><trkpt lat="43.62821274839265" lon="12.303674438555507"><ele>501.0</ele><time>2026-04-20T14:00:59Z</time></trkpt><trkpt lat="43.628090182385414" lon="12.303559014516368"><ele>506.0</ele><time>2026-04-20T14:01:00Z</time></trkpt><trkpt lat="43.627975826038806" lon="12.303434887039744"><ele>511.0</ele><time>2026-04-20T14:01:01Z</time></trkpt><trkpt lat="43.62789923984255" lon="12.303289803860933"><ele>511.0</ele><time>2026-04-20T14:01:02Z</time></trkpt><trkpt lat="43.627843998667565" lon="12.303102260071293"><ele>511.0</ele><time>2026-04-20T14:01:03Z</time></trkpt><trkpt lat="43.62775989736386" lon="12.302915556946711"><ele>511.0</ele><time>2026-04-20T14:01:04Z</time></trkpt><trkpt lat="43.627631132414024" lon="12.302751141967502"><ele>511.33333333333337</ele><time>2026-04-20T14:01:05Z</time></trkpt><trkpt lat="43.62748385641851" lon="12.302591818562938"><ele>511.66666666666663</ele><time>2026-04-20T14:01:06Z</time></trkpt><trkpt lat="43.62732482350339" lon="12.30243730179511"><ele>512.0</ele><time>2026-04-20T14:01:07Z</time></trkpt><trkpt lat="43.62717162376033" lon="12.302282566781209"><ele>512.0</ele><time>2026-04-20T14:01:08Z</time></trkpt><trkpt lat="43.62703617816467" lon="12.302107539927002"><ele>512.0</ele><time>2026-04-20T14:01:09Z</time></trkpt><trkpt lat="43.62691030730198" lon="12.301935491732317"><ele>512.0</ele><time>2026-04-20T14:01:10Z</time></trkpt><trkpt lat="43.62679811511362" lon="12.301739058914988"><ele>512.0</ele><time>2026-04-20T14:01:11Z</time></trkpt><trkpt lat="43.626690608178535" lon="12.301528380855547"><ele>512.0</ele><time>2026-04-20T14:01:12Z</time></trkpt><trkpt lat="43.626580836214885" lon="12.301315636024073"><ele>512.0</ele><time>2026-04-20T14:01:13Z</time></trkpt><trkpt lat="43.62647183431289" lon="12.301103626941421"><ele>512.6666666666666</ele><time>2026-04-20T14:01:14Z</time></trkpt><trkpt lat="43.62636316786709" lon="12.300890675652733"><ele>513.3333333333334</ele><time>2026-04-20T14:01:15Z</time></trkpt><trkpt lat="43.62625636646098" lon="12.300681378946997"><ele>514.0</ele><time>2026-04-20T14:01:16Z</time></trkpt><trkpt lat="43.62613172837321" lon="12.300493191617738"><ele>514.0</ele><time>2026-04-20T14:01:17Z</time></trkpt><trkpt lat="43.62600556829856" lon="12.300306551711433"><ele>514.0</ele><time>2026-04-20T14:01:18Z</time></trkpt><trkpt lat="43.62586642561018" lon="12.300142595034684"><ele>514.0</ele><time>2026-04-20T14:01:19Z</time></trkpt><trkpt lat="43.62572293154396" lon="12.29998320717297"><ele>514.0</ele><time>2026-04-20T14:01:20Z</time></trkpt><trkpt lat="43.62560077766166" lon="12.29980375503715"><ele>514.0</ele><time>2026-04-20T14:01:21Z</time></trkpt><trkpt lat="43.62546732211729" lon="12.299637350625531"><ele>514.0</ele><time>2026-04-20T14:01:22Z</time></trkpt><trkpt lat="43.6253146166475" lon="12.299492340571108"><ele>514.3333333333334</ele><time>2026-04-20T14:01:23Z</time></trkpt><trkpt lat="43.625157687017165" lon="12.299349103821156"><ele>514.6666666666666</ele><time>2026-04-20T14:01:24Z</time></trkpt><trkpt lat="43.62500707307804" lon="12.299203305358196"><ele>515.0</ele><time>2026-04-20T14:01:25Z</time></trkpt><trkpt lat="43.624840454896386" lon="12.29908509594982"><ele>515.0</ele><time>2026-04-20T14:01:26Z</time></trkpt><trkpt lat="43.62465848065966" lon="12.299008868528768"><ele>515.0</ele><time>2026-04-20T14:01:27Z</time></trkpt><trkpt lat="43.62448209215829" lon="12.298913591233907"><ele>515.0</ele><time>2026-04-20T14:01:28Z</time></trkpt><trkpt lat="43.62431107972241" lon="12.298851552580263"><ele>515.0</ele><time>2026-04-20T14:01:29Z</time></trkpt><trkpt lat="43.62414602018243" lon="12.29881924569113"><ele>515.0</ele><time>2026-04-20T14:01:30Z</time></trkpt><trkpt lat="43.6240009663744" lon="12.298769239521922"><ele>515.0</ele><time>2026-04-20T14:01:31Z</time></trkpt><trkpt lat="43.62386969613261" lon="12.298705320475376"><ele>515.0</ele><time>2026-04-20T14:01:32Z</time></trkpt><trkpt lat="43.62376777984798" lon="12.298599515476582"><ele>515.0</ele><time>2026-04-20T14:01:33Z</time></trkpt><trkpt lat="43.623718084467455" lon="12.298438988713665"><ele>515.0</ele><time>2026-04-20T14:01:34Z</time></trkpt><trkpt lat="43.62367849848698" lon="12.298272219553278"><ele>515.0</ele><time>2026-04-20T14:01:35Z</time></trkpt><trkpt lat="43.62363968895276" lon="12.298079601107935"><ele>515.25</ele><time>2026-04-20T14:01:36Z</time></trkpt><trkpt lat="43.623598924775685" lon="12.29788926957268"><ele>515.5</ele><time>2026-04-20T14:01:37Z</time></trkpt><trkpt lat="43.6235407227019" lon="12.297714658069296"><ele>515.75</ele><time>2026-04-20T14:01:38Z</time></trkpt><trkpt lat="43.623497474192135" lon="12.297528382888853"><ele>516.0</ele><time>2026-04-20T14:01:39Z</time></trkpt><trkpt lat="43.623399697562476" lon="12.297376796655673"><ele>519.0</ele><time>2026-04-20T14:01:40Z</time></trkpt><trkpt lat="43.62329918980811" lon="12.297228479202495"><ele>522.0</ele><time>2026-04-20T14:01:41Z</time></trkpt><trkpt lat="43.623173145052945" lon="12.29710311387432"><ele>525.0</ele><time>2026-04-20T14:01:42Z</time></trkpt><trkpt lat="43.623030312336056" lon="12.29700182902469"><ele>525.0</ele><time>2026-04-20T14:01:43Z</time></trkpt><trkpt lat="43.62287685834552" lon="12.296917152193542"><ele>525.0</ele><time>2026-04-20T14:01:44Z</time></trkpt><trkpt lat="43.62271433489423" lon="12.296840457532205"><ele>525.0</ele><time>2026-04-20T14:01:45Z</time></trkpt><trkpt lat="43.622557505737795" lon="12.296774500361504"><ele>525.5</ele><time>2026-04-20T14:01:46Z</time></trkpt><trkpt lat="43.62241271201973" lon="12.296702276935731"><ele>526.0</ele><time>2026-04-20T14:01:47Z</time></trkpt><trkpt lat="43.62229971105618" lon="12.296588475200013"><ele>526.5</ele><time>2026-04-20T14:01:48Z</time></trkpt><trkpt lat="43.6222047898642" lon="12.296446813876488"><ele>527.0</ele><time>2026-04-20T14:01:49Z</time></trkpt><trkpt lat="43.62212820543193" lon="12.296271929742632"><ele>527.0</ele><time>2026-04-20T14:01:50Z</time></trkpt><trkpt lat="43.62203664950992" lon="12.296092471208288"><ele>527.0</ele><time>2026-04-20T14:01:51Z</time></trkpt><trkpt lat="43.62193442711661" lon="12.295938491285783"><ele>527.0</ele><time>2026-04-20T14:01:52Z</time></trkpt><trkpt lat="43.621809328724275" lon="12.29579488018416"><ele>525.6666666666666</ele><time>2026-04-20T14:01:53Z</time></trkpt><trkpt lat="43.62169032226246" lon="12.295646761144942"><ele>524.3333333333334</ele><time>2026-04-20T14:01:54Z</time></trkpt><trkpt lat="43.621543726221304" lon="12.295520102698744"><ele>523.0</ele><time>2026-04-20T14:01:55Z</time></trkpt><trkpt lat="43.62140644236664" lon="12.295372223961104"><ele>526.0</ele><time>2026-04-20T14:01:56Z</time></trkpt><trkpt lat="43.621282553319354" lon="12.295203589165741"><ele>529.0</ele><time>2026-04-20T14:01:57Z</time></trkpt><trkpt lat="43.62115928473074" lon="12.295045033775386"><ele>532.0</ele><time>2026-04-20T14:01:58Z</time></trkpt><trkpt lat="43.621057126916085" lon="12.294865942127995"><ele>533.0</ele><time>2026-04-20T14:01:59Z</time></trkpt><trkpt lat="43.62097315949651" lon="12.29467238962013"><ele>534.0</ele><time>2026-04-20T14:02:00Z</time></trkpt><trkpt lat="43.62092681920718" lon="12.294486770123354"><ele>535.0</ele><time>2026-04-20T14:02:01Z</time></trkpt><trkpt lat="43.62090612195008" lon="12.294288436131234"><ele>535.0</ele><time>2026-04-20T14:02:02Z</time></trkpt><trkpt lat="43.62087598376516" lon="12.294081822718967"><ele>535.0</ele><time>2026-04-20T14:02:03Z</time></trkpt><trkpt lat="43.62080930823658" lon="12.293897469873238"><ele>535.0</ele><time>2026-04-20T14:02:04Z</time></trkpt><trkpt lat="43.62069711716641" lon="12.293778642323858"><ele>535.0</ele><time>2026-04-20T14:02:05Z</time></trkpt><trkpt lat="43.62056074264244" lon="12.293679731116875"><ele>536.0</ele><time>2026-04-20T14:02:06Z</time></trkpt><trkpt lat="43.62040966684449" lon="12.293601053383055"><ele>537.0</ele><time>2026-04-20T14:02:07Z</time></trkpt><trkpt lat="43.62025181040849" lon="12.293519622148057"><ele>538.0</ele><time>2026-04-20T14:02:08Z</time></trkpt><trkpt lat="43.62010986171388" lon="12.29340361975175"><ele>538.0</ele><time>2026-04-20T14:02:09Z</time></trkpt><trkpt lat="43.61995523122406" lon="12.293338001058364"><ele>538.0</ele><time>2026-04-20T14:02:10Z</time></trkpt><trkpt lat="43.61979982867147" lon="12.293279205169625"><ele>538.0</ele><time>2026-04-20T14:02:11Z</time></trkpt><trkpt lat="43.619632068136" lon="12.293277039081454"><ele>537.6666666666667</ele><time>2026-04-20T14:02:12Z</time></trkpt><trkpt lat="43.619455714372734" lon="12.293266084049147"><ele>537.3333333333334</ele><time>2026-04-20T14:02:13Z</time></trkpt><trkpt lat="43.619286117915955" lon="12.293243842137061"><ele>537.0</ele><time>2026-04-20T14:02:14Z</time></trkpt><trkpt lat="43.619102470586704" lon="12.293218953993076"><ele>537.0</ele><time>2026-04-20T14:02:15Z</time></trkpt><trkpt lat="43.61891136707346" lon="12.293194903277655"><ele>537.0</ele><time>2026-04-20T14:02:16Z</time></trkpt><trkpt lat="43.61871746221055" lon="12.293181204126826"><ele>537.0</ele><time>2026-04-20T14:02:17Z</time></trkpt><trkpt lat="43.61853556864758" lon="12.293195256787067"><ele>537.3333333333334</ele><time>2026-04-20T14:02:18Z</time></trkpt><trkpt lat="43.61836710503735" lon="12.293222580416264"><ele>537.6666666666667</ele><time>2026-04-20T14:02:19Z</time></trkpt><trkpt lat="43.6182257430394" lon="12.29327556257366"><ele>538.0</ele><time>2026-04-20T14:02:20Z</time></trkpt><trkpt lat="43.61809721955095" lon="12.293330554680765"><ele>538.0</ele><time>2026-04-20T14:02:21Z</time></trkpt><trkpt lat="43.6179767738085" lon="12.293360889665404"><ele>538.0</ele><time>2026-04-20T14:02:22Z</time></trkpt><trkpt lat="43.61786175997935" lon="12.293353027594835"><ele>538.0</ele><time>2026-04-20T14:02:23Z</time></trkpt><trkpt lat="43.61777729559505" lon="12.29325989843944"><ele>538.0</ele><time>2026-04-20T14:02:24Z</time></trkpt><trkpt lat="43.61771426344614" lon="12.293160661377625"><ele>538.0</ele><time>2026-04-20T14:02:25Z</time></trkpt><trkpt lat="43.617653336225246" lon="12.293054586949207"><ele>540.1999999999999</ele><time>2026-04-20T14:02:26Z</time></trkpt><trkpt lat="43.617588782616565" lon="12.292944136486396"><ele>542.4</ele><time>2026-04-20T14:02:27Z</time></trkpt><trkpt lat="43.61752718157024" lon="12.29284330326214"><ele>544.5999999999999</ele><time>2026-04-20T14:02:28Z</time></trkpt><trkpt lat="43.61747014326006" lon="12.292758834980877"><ele>546.8</ele><time>2026-04-20T14:02:29Z</time></trkpt><trkpt lat="43.61742183353835" lon="12.292691372587878"><ele>549.0</ele><time>2026-04-20T14:02:30Z</time></trkpt><trkpt lat="43.617258134350365" lon="12.292743932370078"><ele>549.0</ele><time>2026-04-20T14:02:32Z</time></trkpt><trkpt lat="43.61717465129727" lon="12.292810377262256"><ele>549.0</ele><time>2026-04-20T14:02:33Z</time></trkpt><trkpt lat="43.61708045623924" lon="12.292888270526344"><ele>549.0</ele><time>2026-04-20T14:02:34Z</time></trkpt><trkpt lat="43.616966392671166" lon="12.292961367503118"><ele>549.0</ele><time>2026-04-20T14:02:35Z</time></trkpt><trkpt lat="43.61685203335283" lon="12.293049408639135"><ele>549.0</ele><time>2026-04-20T14:02:36Z</time></trkpt><trkpt lat="43.61673218570608" lon="12.293115759705822"><ele>549.0</ele><time>2026-04-20T14:02:37Z</time></trkpt><trkpt lat="43.616600332525586" lon="12.293112888256642"><ele>549.0</ele><time>2026-04-20T14:02:38Z</time></trkpt><trkpt lat="43.61646191658643" lon="12.2931251942806"><ele>549.0</ele><time>2026-04-20T14:02:39Z</time></trkpt><trkpt lat="43.61631591815642" lon="12.293111619959477"><ele>549.0</ele><time>2026-04-20T14:02:40Z</time></trkpt><trkpt lat="43.6161736937482" lon="12.293092477201357"><ele>549.0</ele><time>2026-04-20T14:02:41.001Z</time></trkpt><trkpt lat="43.616048307368686" lon="12.293145613903697"><ele>549.0</ele><time>2026-04-20T14:02:42.001Z</time></trkpt><trkpt lat="43.615932545607414" lon="12.293148217032849"><ele>549.0</ele><time>2026-04-20T14:02:43.001Z</time></trkpt><trkpt lat="43.615846475434935" lon="12.293070001297465"><ele>548.0</ele><time>2026-04-20T14:02:44.001Z</time></trkpt><trkpt lat="43.615787727383996" lon="12.292976998810815"><ele>547.0</ele><time>2026-04-20T14:02:45.001Z</time></trkpt><trkpt lat="43.61574475987528" lon="12.292853377058822"><ele>546.0</ele><time>2026-04-20T14:02:46.001Z</time></trkpt><trkpt lat="43.6156866220583" lon="12.29271929275034"><ele>545.0</ele><time>2026-04-20T14:02:47.001Z</time></trkpt><trkpt lat="43.61557623598713" lon="12.292613099605179"><ele>544.0</ele><time>2026-04-20T14:02:48.001Z</time></trkpt><trkpt lat="43.61547448450431" lon="12.292494469839687"><ele>544.0</ele><time>2026-04-20T14:02:49.001Z</time></trkpt><trkpt lat="43.615361029573144" lon="12.292404999642898"><ele>544.0</ele><time>2026-04-20T14:02:50Z</time></trkpt><trkpt lat="43.61524310167659" lon="12.29235839579689"><ele>544.0</ele><time>2026-04-20T14:02:51Z</time></trkpt><trkpt lat="43.61511257275314" lon="12.292351312098255"><ele>544.0</ele><time>2026-04-20T14:02:52Z</time></trkpt><trkpt lat="43.614972045416714" lon="12.292360108143372"><ele>547.0</ele><time>2026-04-20T14:02:53Z</time></trkpt><trkpt lat="43.614838672285266" lon="12.292374885468934"><ele>550.0</ele><time>2026-04-20T14:02:54Z</time></trkpt><trkpt lat="43.61472052158199" lon="12.292410778998317"><ele>553.0</ele><time>2026-04-20T14:02:55Z</time></trkpt><trkpt lat="43.614608251943686" lon="12.292484167269432"><ele>556.0</ele><time>2026-04-20T14:02:56Z</time></trkpt><trkpt lat="43.61450551201239" lon="12.292595184447327"><ele>555.75</ele><time>2026-04-20T14:02:57Z</time></trkpt><trkpt lat="43.61441770255301" lon="12.292738917895342"><ele>555.5</ele><time>2026-04-20T14:02:58Z</time></trkpt><trkpt lat="43.61434241107865" lon="12.292902501895957"><ele>555.25</ele><time>2026-04-20T14:02:59Z</time></trkpt><trkpt lat="43.61426630853676" lon="12.293081490278366"><ele>555.0</ele><time>2026-04-20T14:03:00Z</time></trkpt><trkpt lat="43.61419607413663" lon="12.293255839031273"><ele>558.0</ele><time>2026-04-20T14:03:01Z</time></trkpt><trkpt lat="43.61413053945758" lon="12.293413256585806"><ele>561.0</ele><time>2026-04-20T14:03:02Z</time></trkpt><trkpt lat="43.61407514259347" lon="12.293537770178713"><ele>564.0</ele><time>2026-04-20T14:03:03Z</time></trkpt><trkpt lat="43.614014297757855" lon="12.293638252370261"><ele>567.0</ele><time>2026-04-20T14:03:05Z</time></trkpt><trkpt lat="43.614147425299805" lon="12.293754004086344"><ele>567.0</ele><time>2026-04-20T14:03:08Z</time></trkpt><trkpt lat="43.61421730017759" lon="12.293763218009845"><ele>567.0</ele><time>2026-04-20T14:03:09Z</time></trkpt><trkpt lat="43.61430422733203" lon="12.293764295857113"><ele>567.0</ele><time>2026-04-20T14:03:10Z</time></trkpt><trkpt lat="43.614394716078664" lon="12.29375524534254"><ele>567.0</ele><time>2026-04-20T14:03:11.001Z</time></trkpt><trkpt lat="43.614487335437396" lon="12.293783166998935"><ele>567.0</ele><time>2026-04-20T14:03:12.001Z</time></trkpt><trkpt lat="43.614572891433845" lon="12.293805160985535"><ele>567.0</ele><time>2026-04-20T14:03:13.001Z</time></trkpt><trkpt lat="43.61465142506291" lon="12.293823806029454"><ele>567.3333333333334</ele><time>2026-04-20T14:03:14.001Z</time></trkpt><trkpt lat="43.61471628958155" lon="12.293877644381329"><ele>567.6666666666666</ele><time>2026-04-20T14:03:15.001Z</time></trkpt><trkpt lat="43.61475292914097" lon="12.293988884070682"><ele>568.0</ele><time>2026-04-20T14:03:17.001Z</time></trkpt><trkpt lat="43.61473020329609" lon="12.294087100730072"><ele>568.3333333333333</ele><time>2026-04-20T14:03:19.001Z</time></trkpt><trkpt lat="43.61463489976168" lon="12.294180453204044"><ele>568.6666666666666</ele><time>2026-04-20T14:03:21.001Z</time></trkpt><trkpt lat="43.6145702211723" lon="12.29417484587162"><ele>569.0</ele><time>2026-04-20T14:03:22.001Z</time></trkpt><trkpt lat="43.61448536696039" lon="12.294240942510964"><ele>571.8</ele><time>2026-04-20T14:03:24.001Z</time></trkpt><trkpt lat="43.614464939432594" lon="12.294324848376517"><ele>574.5999999999999</ele><time>2026-04-20T14:03:25.001Z</time></trkpt><trkpt lat="43.614397865953045" lon="12.294466015034832"><ele>577.4</ele><time>2026-04-20T14:03:27.001Z</time></trkpt><trkpt lat="43.6143356473621" lon="12.294534217181562"><ele>580.1999999999999</ele><time>2026-04-20T14:03:28.001Z</time></trkpt><trkpt lat="43.6142469100377" lon="12.2945724810036"><ele>583.0</ele><time>2026-04-20T14:03:29.001Z</time></trkpt><trkpt lat="43.614158557020396" lon="12.294650737164236"><ele>583.0</ele><time>2026-04-20T14:03:30.001Z</time></trkpt><trkpt lat="43.614049322195" lon="12.294720666213717"><ele>583.0</ele><time>2026-04-20T14:03:31.001Z</time></trkpt><trkpt lat="43.61393429142735" lon="12.294786335479538"><ele>583.0</ele><time>2026-04-20T14:03:32.001Z</time></trkpt><trkpt lat="43.61382619757882" lon="12.294856444407145"><ele>583.0</ele><time>2026-04-20T14:03:33.001Z</time></trkpt><trkpt lat="43.61370906467955" lon="12.294933178334222"><ele>586.75</ele><time>2026-04-20T14:03:34.001Z</time></trkpt><trkpt lat="43.61359127435531" lon="12.2950097403497"><ele>590.5</ele><time>2026-04-20T14:03:35.001Z</time></trkpt><trkpt lat="43.61348084869688" lon="12.295077531113613"><ele>594.25</ele><time>2026-04-20T14:03:36.001Z</time></trkpt><trkpt lat="43.61336681362325" lon="12.295060335806564"><ele>598.0</ele><time>2026-04-20T14:03:37.001Z</time></trkpt><trkpt lat="43.613248066049806" lon="12.295069761389916"><ele>598.0</ele><time>2026-04-20T14:03:38.001Z</time></trkpt><trkpt lat="43.61314396920181" lon="12.29507802396647"><ele>598.0</ele><time>2026-04-20T14:03:39.001Z</time></trkpt><trkpt lat="43.613047343145546" lon="12.2950982956902"><ele>598.0</ele><time>2026-04-20T14:03:40.001Z</time></trkpt><trkpt lat="43.612950582863036" lon="12.295108905070384"><ele>598.0</ele><time>2026-04-20T14:03:41.001Z</time></trkpt><trkpt lat="43.612888090939855" lon="12.295156790156915"><ele>598.0</ele><time>2026-04-20T14:03:42.001Z</time></trkpt><trkpt lat="43.61285127987976" lon="12.295229350456978"><ele>598.0</ele><time>2026-04-20T14:03:43.001Z</time></trkpt><trkpt lat="43.6128506178391" lon="12.295343182247198"><ele>598.0</ele><time>2026-04-20T14:03:44.001Z</time></trkpt><trkpt lat="43.61289794269087" lon="12.295453824374214"><ele>598.0</ele><time>2026-04-20T14:03:45.001Z</time></trkpt><trkpt lat="43.61298150664354" lon="12.295515638841012"><ele>598.0</ele><time>2026-04-20T14:03:46.001Z</time></trkpt><trkpt lat="43.61309173810535" lon="12.29550094237114"><ele>598.0</ele><time>2026-04-20T14:03:47.001Z</time></trkpt><trkpt lat="43.6132085257528" lon="12.295504131003424"><ele>598.0</ele><time>2026-04-20T14:03:48.001Z</time></trkpt><trkpt lat="43.613319171025864" lon="12.295510332802664"><ele>598.0</ele><time>2026-04-20T14:03:49.001Z</time></trkpt><trkpt lat="43.613387383859305" lon="12.29553997818586"><ele>598.0</ele><time>2026-04-20T14:03:50.001Z</time></trkpt><trkpt lat="43.613443379131986" lon="12.29560731865879"><ele>598.0</ele><time>2026-04-20T14:03:51.001Z</time></trkpt><trkpt lat="43.6134781916714" lon="12.295705885811607"><ele>598.0</ele><time>2026-04-20T14:03:52.001Z</time></trkpt><trkpt lat="43.61346563761053" lon="12.29582236555589"><ele>598.0</ele><time>2026-04-20T14:03:53.001Z</time></trkpt><trkpt lat="43.61345985176797" lon="12.295923568519775"><ele>598.0</ele><time>2026-04-20T14:03:54.001Z</time></trkpt><trkpt lat="43.613411809277444" lon="12.296010332556925"><ele>602.0</ele><time>2026-04-20T14:03:55.001Z</time></trkpt><trkpt lat="43.61332344806451" lon="12.296078837317872"><ele>606.0</ele><time>2026-04-20T14:03:56.001Z</time></trkpt><trkpt lat="43.61321827667476" lon="12.296116860611262"><ele>610.0</ele><time>2026-04-20T14:03:57.001Z</time></trkpt><trkpt lat="43.6131032886237" lon="12.296088522220815"><ele>614.0</ele><time>2026-04-20T14:03:58.001Z</time></trkpt><trkpt lat="43.61299054300669" lon="12.296087357978774"><ele>618.0</ele><time>2026-04-20T14:03:59.001Z</time></trkpt><trkpt lat="43.612863867647164" lon="12.296118234462913"><ele>615.5</ele><time>2026-04-20T14:04:00.001Z</time></trkpt><trkpt lat="43.61275734606997" lon="12.296152575338168"><ele>613.0</ele><time>2026-04-20T14:04:01.001Z</time></trkpt><trkpt lat="43.612644285329736" lon="12.296237680572801"><ele>610.5</ele><time>2026-04-20T14:04:02.001Z</time></trkpt><trkpt lat="43.61254165807998" lon="12.296332926429884"><ele>608.0</ele><time>2026-04-20T14:04:03.001Z</time></trkpt><trkpt lat="43.612421504766516" lon="12.29644992304261"><ele>616.3333333333333</ele><time>2026-04-20T14:04:04.001Z</time></trkpt><trkpt lat="43.612290932523486" lon="12.29657389417004"><ele>624.6666666666666</ele><time>2026-04-20T14:04:05.001Z</time></trkpt><trkpt lat="43.61215773918113" lon="12.29669660853451"><ele>633.0</ele><time>2026-04-20T14:04:06.001Z</time></trkpt><trkpt lat="43.61203661823602" lon="12.296798200199275"><ele>634.4</ele><time>2026-04-20T14:04:07.001Z</time></trkpt><trkpt lat="43.61192990193212" lon="12.296882389865184"><ele>635.8</ele><time>2026-04-20T14:04:08.001Z</time></trkpt><trkpt lat="43.611858192172235" lon="12.29694613152178"><ele>637.2</ele><time>2026-04-20T14:04:09.001Z</time></trkpt><trkpt lat="43.611815778421324" lon="12.297015405842222"><ele>638.6</ele><time>2026-04-20T14:04:10.001Z</time></trkpt><trkpt lat="43.61179977723038" lon="12.297101876767833"><ele>640.0</ele><time>2026-04-20T14:04:11.001Z</time></trkpt><trkpt lat="43.61185992805334" lon="12.297254973487998"><ele>640.0</ele><time>2026-04-20T14:04:13.001Z</time></trkpt><trkpt lat="43.611924704685514" lon="12.297266513761654"><ele>640.0</ele><time>2026-04-20T14:04:14.001Z</time></trkpt><trkpt lat="43.61205150606062" lon="12.297269435526797"><ele>640.0</ele><time>2026-04-20T14:04:15.001Z</time></trkpt><trkpt lat="43.612161011421655" lon="12.297250346341592"><ele>640.0</ele><time>2026-04-20T14:04:16.001Z</time></trkpt><trkpt lat="43.612302821592316" lon="12.297221501791483"><ele>640.0</ele><time>2026-04-20T14:04:17.001Z</time></trkpt><trkpt lat="43.61246220975764" lon="12.297189009610312"><ele>639.5</ele><time>2026-04-20T14:04:18.001Z</time></trkpt><trkpt lat="43.61259676530543" lon="12.297163009952735"><ele>639.0</ele><time>2026-04-20T14:04:19.001Z</time></trkpt><trkpt lat="43.61273559701679" lon="12.297137736643366"><ele>638.5</ele><time>2026-04-20T14:04:20.001Z</time></trkpt><trkpt lat="43.61285723309647" lon="12.297120114656797"><ele>638.0</ele><time>2026-04-20T14:04:21.001Z</time></trkpt><trkpt lat="43.612952876640286" lon="12.297112010411704"><ele>638.0</ele><time>2026-04-20T14:04:22.001Z</time></trkpt><trkpt lat="43.61303336672422" lon="12.297107469110554"><ele>638.0</ele><time>2026-04-20T14:04:23.001Z</time></trkpt><trkpt lat="43.613100551866" lon="12.297108207704841"><ele>638.0</ele><time>2026-04-20T14:04:24.001Z</time></trkpt><trkpt lat="43.61318462310923" lon="12.297144652983517"><ele>638.0</ele><time>2026-04-20T14:04:26.001Z</time></trkpt><trkpt lat="43.61325030658194" lon="12.297202197936851"><ele>638.0</ele><time>2026-04-20T14:04:28.001Z</time></trkpt><trkpt lat="43.613310797295604" lon="12.297287188133122"><ele>638.0</ele><time>2026-04-20T14:04:52.001Z</time></trkpt><trkpt lat="43.613306170625386" lon="12.297433093356462"><ele>641.0</ele><time>2026-04-20T14:04:54.001Z</time></trkpt><trkpt lat="43.61321593542879" lon="12.29757255997115"><ele>644.0</ele><time>2026-04-20T14:04:56.001Z</time></trkpt><trkpt lat="43.613154322646274" lon="12.297615167424725"><ele>647.0</ele><time>2026-04-20T14:04:57.001Z</time></trkpt><trkpt lat="43.61308928865336" lon="12.297604914836134"><ele>650.0</ele><time>2026-04-20T14:04:58.001Z</time></trkpt><trkpt lat="43.61296576912199" lon="12.29758267768208"><ele>653.0</ele><time>2026-04-20T14:05:00.001Z</time></trkpt><trkpt lat="43.61289807703288" lon="12.297579979368162"><ele>653.5999999999999</ele><time>2026-04-20T14:05:01.001Z</time></trkpt><trkpt lat="43.612812738884614" lon="12.297581184396448"><ele>654.1999999999999</ele><time>2026-04-20T14:05:02.001Z</time></trkpt><trkpt lat="43.61272971377015" lon="12.297616212954747"><ele>654.8</ele><time>2026-04-20T14:05:03.001Z</time></trkpt><trkpt lat="43.612640158419666" lon="12.297630698848069"><ele>655.4</ele><time>2026-04-20T14:05:05.001Z</time></trkpt><trkpt lat="43.612574040451214" lon="12.2977009643833"><ele>656.0</ele><time>2026-04-20T14:05:07.001Z</time></trkpt><trkpt lat="43.61258844958481" lon="12.297872019500431"><ele>656.0</ele><time>2026-04-20T14:05:09.001Z</time></trkpt><trkpt lat="43.61265811286956" lon="12.297999859059876"><ele>656.0</ele><time>2026-04-20T14:05:11.001Z</time></trkpt><trkpt lat="43.61270025345711" lon="12.298076788515663"><ele>656.0</ele><time>2026-04-20T14:05:12.001Z</time></trkpt><trkpt lat="43.61274111393535" lon="12.29815449454398"><ele>656.0</ele><time>2026-04-20T14:05:13.001Z</time></trkpt><trkpt lat="43.61278216146881" lon="12.298232064251335"><ele>656.0</ele><time>2026-04-20T14:05:14.001Z</time></trkpt><trkpt lat="43.61282487314758" lon="12.29831417945666"><ele>656.0</ele><time>2026-04-20T14:05:15.001Z</time></trkpt><trkpt lat="43.61286592066945" lon="12.298383788515249"><ele>657.0</ele><time>2026-04-20T14:05:16.001Z</time></trkpt><trkpt lat="43.61290218373716" lon="12.298465763492143"><ele>658.0</ele><time>2026-04-20T14:05:17.001Z</time></trkpt><trkpt lat="43.612940895371416" lon="12.298547452151888"><ele>659.0</ele><time>2026-04-20T14:05:18.001Z</time></trkpt><trkpt lat="43.61300480805528" lon="12.298697720937769"><ele>660.0</ele><time>2026-04-20T14:05:20.001Z</time></trkpt><trkpt lat="43.61303239684864" lon="12.298801760431797"><ele>661.0</ele><time>2026-04-20T14:05:21.001Z</time></trkpt><trkpt lat="43.61303434988997" lon="12.298938409557985"><ele>662.0</ele><time>2026-04-20T14:05:22.001Z</time></trkpt><trkpt lat="43.613008032367006" lon="12.299095960664811"><ele>664.75</ele><time>2026-04-20T14:05:23.001Z</time></trkpt><trkpt lat="43.61301976874555" lon="12.299263283504327"><ele>667.5</ele><time>2026-04-20T14:05:24.001Z</time></trkpt><trkpt lat="43.61302825243167" lon="12.299406247883809"><ele>670.25</ele><time>2026-04-20T14:05:25.001Z</time></trkpt><trkpt lat="43.61306231596473" lon="12.299555353271629"><ele>673.0</ele><time>2026-04-20T14:05:26.001Z</time></trkpt><trkpt lat="43.61311418451327" lon="12.299696390541376"><ele>675.0</ele><time>2026-04-20T14:05:27.001Z</time></trkpt><trkpt lat="43.613166565461356" lon="12.299823107820952"><ele>677.0</ele><time>2026-04-20T14:05:28.001Z</time></trkpt><trkpt lat="43.61327165883263" lon="12.29989358988963"><ele>679.0</ele><time>2026-04-20T14:05:29.001Z</time></trkpt><trkpt lat="43.6133791157386" lon="12.299918384089741"><ele>681.0</ele><time>2026-04-20T14:05:30.001Z</time></trkpt><trkpt lat="43.613470307927535" lon="12.29995314178554"><ele>683.0</ele><time>2026-04-20T14:05:31.001Z</time></trkpt><trkpt lat="43.61351558428042" lon="12.30003850392021"><ele>683.0</ele><time>2026-04-20T14:05:32.001Z</time></trkpt><trkpt lat="43.61353926237914" lon="12.300181803984465"><ele>683.0</ele><time>2026-04-20T14:05:34.001Z</time></trkpt><trkpt lat="43.61356192314655" lon="12.300372309818613"><ele>683.0</ele><time>2026-04-20T14:05:36.001Z</time></trkpt><trkpt lat="43.61358500402075" lon="12.300505136740352"><ele>683.0</ele><time>2026-04-20T14:05:37.001Z</time></trkpt><trkpt lat="43.613627763041634" lon="12.300657270664404"><ele>679.75</ele><time>2026-04-20T14:05:38.001Z</time></trkpt><trkpt lat="43.6136797215631" lon="12.300809599982612"><ele>676.5</ele><time>2026-04-20T14:05:39.001Z</time></trkpt><trkpt lat="43.613733813647904" lon="12.30095990059061"><ele>673.25</ele><time>2026-04-20T14:05:40.001Z</time></trkpt><trkpt lat="43.61376815699688" lon="12.301108253315459"><ele>670.0</ele><time>2026-04-20T14:05:41.001Z</time></trkpt><trkpt lat="43.613774420484376" lon="12.301245363756786"><ele>670.0</ele><time>2026-04-20T14:05:42.001Z</time></trkpt><trkpt lat="43.61374994943483" lon="12.301378792646856"><ele>670.0</ele><time>2026-04-20T14:05:43.001Z</time></trkpt><trkpt lat="43.61368653318631" lon="12.301524562631535"><ele>670.0</ele><time>2026-04-20T14:05:44.001Z</time></trkpt><trkpt lat="43.61366197341716" lon="12.301700206260957"><ele>670.0</ele><time>2026-04-20T14:05:45.001Z</time></trkpt><trkpt lat="43.613626661771846" lon="12.301887600475672"><ele>678.5</ele><time>2026-04-20T14:05:46.001Z</time></trkpt><trkpt lat="43.61360794431257" lon="12.302088024643032"><ele>687.0</ele><time>2026-04-20T14:05:47.001Z</time></trkpt><trkpt lat="43.6135810573409" lon="12.302284897725054"><ele>695.5</ele><time>2026-04-20T14:05:48.001Z</time></trkpt><trkpt lat="43.613554077208704" lon="12.302472139385953"><ele>704.0</ele><time>2026-04-20T14:05:49.001Z</time></trkpt><trkpt lat="43.61353487609484" lon="12.302647521251266"><ele>704.0</ele><time>2026-04-20T14:05:50.001Z</time></trkpt><trkpt lat="43.61351688178519" lon="12.302790034869645"><ele>704.0</ele><time>2026-04-20T14:05:51.001Z</time></trkpt><trkpt lat="43.61349220753682" lon="12.302918018306665"><ele>704.0</ele><time>2026-04-20T14:05:52.001Z</time></trkpt><trkpt lat="43.613449452510714" lon="12.302998430640267"><ele>704.0</ele><time>2026-04-20T14:05:53.001Z</time></trkpt><trkpt lat="43.613387774387505" lon="12.303029799260157"><ele>704.0</ele><time>2026-04-20T14:05:54.001Z</time></trkpt><trkpt lat="43.6133117576243" lon="12.303017376535049"><ele>704.0</ele><time>2026-04-20T14:05:55.001Z</time></trkpt><trkpt lat="43.61323542105996" lon="12.302953602239386"><ele>704.0</ele><time>2026-04-20T14:05:56.001Z</time></trkpt><trkpt lat="43.61314929363175" lon="12.302894329182108"><ele>704.0</ele><time>2026-04-20T14:05:57.001Z</time></trkpt><trkpt lat="43.61309065427957" lon="12.302823900454323"><ele>704.0</ele><time>2026-04-20T14:05:58.001Z</time></trkpt><trkpt lat="43.61305937988147" lon="12.302718329412462"><ele>704.0</ele><time>2026-04-20T14:05:59.001Z</time></trkpt><trkpt lat="43.61310862905595" lon="12.302608022607595"><ele>704.0</ele><time>2026-04-20T14:06:00.001Z</time></trkpt><trkpt lat="43.61312310914336" lon="12.302462167251365"><ele>704.0</ele><time>2026-04-20T14:06:01.001Z</time></trkpt><trkpt lat="43.61313839173787" lon="12.302301430648829"><ele>704.0</ele><time>2026-04-20T14:06:02.001Z</time></trkpt><trkpt lat="43.61315264599469" lon="12.30214200309856"><ele>704.0</ele><time>2026-04-20T14:06:03.001Z</time></trkpt><trkpt lat="43.61316031827167" lon="12.302021065965208"><ele>704.0</ele><time>2026-04-20T14:06:04.001Z</time></trkpt><trkpt lat="43.613155256653684" lon="12.301916811201094"><ele>704.0</ele><time>2026-04-20T14:06:05.001Z</time></trkpt><trkpt lat="43.61308927937497" lon="12.301800647918887"><ele>704.0</ele><time>2026-04-20T14:06:06.001Z</time></trkpt><trkpt lat="43.61300139108026" lon="12.301723999918407"><ele>704.0</ele><time>2026-04-20T14:06:07.001Z</time></trkpt><trkpt lat="43.61290732127404" lon="12.30162322984424"><ele>704.0</ele><time>2026-04-20T14:06:08.001Z</time></trkpt><trkpt lat="43.61280458757805" lon="12.301521681076084"><ele>704.0</ele><time>2026-04-20T14:06:09.001Z</time></trkpt><trkpt lat="43.612714005274434" lon="12.30144034135758"><ele>704.6</ele><time>2026-04-20T14:06:10.001Z</time></trkpt><trkpt lat="43.61263084569066" lon="12.301380865662836"><ele>705.2</ele><time>2026-04-20T14:06:11.001Z</time></trkpt><trkpt lat="43.6125460575575" lon="12.301346320867811"><ele>705.8000000000001</ele><time>2026-04-20T14:06:12.001Z</time></trkpt><trkpt lat="43.61245225153286" lon="12.301361417879578"><ele>706.4000000000001</ele><time>2026-04-20T14:06:13.001Z</time></trkpt><trkpt lat="43.61234952643565" lon="12.301456097822749"><ele>707.0</ele><time>2026-04-20T14:06:14.001Z</time></trkpt><trkpt lat="43.612228371567255" lon="12.30149710089363"><ele>707.0</ele><time>2026-04-20T14:06:15.001Z</time></trkpt><trkpt lat="43.61211468713033" lon="12.301468241497826"><ele>707.0</ele><time>2026-04-20T14:06:16.001Z</time></trkpt><trkpt lat="43.612018227444125" lon="12.301409522029799"><ele>707.0</ele><time>2026-04-20T14:06:17.001Z</time></trkpt><trkpt lat="43.61195259779594" lon="12.301360474037798"><ele>707.0</ele><time>2026-04-20T14:06:18.001Z</time></trkpt><trkpt lat="43.61190023138083" lon="12.301307802556279"><ele>707.0</ele><time>2026-04-20T14:06:19.001Z</time></trkpt><trkpt lat="43.61189102939977" lon="12.301209578064647"><ele>707.0</ele><time>2026-04-20T14:06:20.001Z</time></trkpt><trkpt lat="43.61191995020373" lon="12.301096384077782"><ele>711.0</ele><time>2026-04-20T14:06:21.001Z</time></trkpt><trkpt lat="43.61197553163162" lon="12.300964038051097"><ele>715.0</ele><time>2026-04-20T14:06:22.001Z</time></trkpt><trkpt lat="43.61197731540055" lon="12.300852672180058"><ele>719.0</ele><time>2026-04-20T14:06:23.001Z</time></trkpt><trkpt lat="43.61192537707575" lon="12.300730697596828"><ele>723.0</ele><time>2026-04-20T14:06:24.001Z</time></trkpt><trkpt lat="43.61175968834137" lon="12.300697085738232"><ele>723.0</ele><time>2026-04-20T14:06:26.001Z</time></trkpt><trkpt lat="43.61166480315552" lon="12.300785978291255"><ele>723.0</ele><time>2026-04-20T14:06:27.001Z</time></trkpt><trkpt lat="43.611557376666326" lon="12.30087132253986"><ele>723.0</ele><time>2026-04-20T14:06:28.001Z</time></trkpt><trkpt lat="43.61144567666864" lon="12.30096269196538"><ele>723.0</ele><time>2026-04-20T14:06:29.001Z</time></trkpt><trkpt lat="43.61132616536765" lon="12.301053505855178"><ele>723.0</ele><time>2026-04-20T14:06:30.001Z</time></trkpt><trkpt lat="43.61119380954093" lon="12.30116787644585"><ele>723.0</ele><time>2026-04-20T14:06:31.001Z</time></trkpt><trkpt lat="43.61106171660012" lon="12.30129599007872"><ele>723.0</ele><time>2026-04-20T14:06:32.001Z</time></trkpt><trkpt lat="43.61093887461893" lon="12.301392853645106"><ele>726.5999999999999</ele><time>2026-04-20T14:06:33.001Z</time></trkpt><trkpt lat="43.61083268673686" lon="12.301446416512201"><ele>730.1999999999999</ele><time>2026-04-20T14:06:34.001Z</time></trkpt><trkpt lat="43.6107392403173" lon="12.301504180656307"><ele>733.8</ele><time>2026-04-20T14:06:35.001Z</time></trkpt><trkpt lat="43.610668853243666" lon="12.301591831553617"><ele>737.4</ele><time>2026-04-20T14:06:36.001Z</time></trkpt><trkpt lat="43.610618415485156" lon="12.301708261034108"><ele>741.0</ele><time>2026-04-20T14:06:37.001Z</time></trkpt><trkpt lat="43.610581684838586" lon="12.301852840601184"><ele>741.0</ele><time>2026-04-20T14:06:38.001Z</time></trkpt><trkpt lat="43.61053728092398" lon="12.302027822594066"><ele>741.0</ele><time>2026-04-20T14:06:39.001Z</time></trkpt><trkpt lat="43.61049729938945" lon="12.302198728772467"><ele>741.0</ele><time>2026-04-20T14:06:40.001Z</time></trkpt><trkpt lat="43.61047482158659" lon="12.302343766389185"><ele>741.0</ele><time>2026-04-20T14:06:41.001Z</time></trkpt><trkpt lat="43.61048201863316" lon="12.30247278004497"><ele>743.4</ele><time>2026-04-20T14:06:42.001Z</time></trkpt><trkpt lat="43.61052543410746" lon="12.302585725906434"><ele>745.8</ele><time>2026-04-20T14:06:43.001Z</time></trkpt><trkpt lat="43.61056684565162" lon="12.302736712805372"><ele>748.1999999999999</ele><time>2026-04-20T14:06:44.001Z</time></trkpt><trkpt lat="43.61057070575681" lon="12.302874395068999"><ele>750.5999999999999</ele><time>2026-04-20T14:06:45.001Z</time></trkpt><trkpt lat="43.61048978572294" lon="12.302983208453709"><ele>753.0</ele><time>2026-04-20T14:06:46.001Z</time></trkpt><trkpt lat="43.61044354066816" lon="12.303131409609453"><ele>755.2</ele><time>2026-04-20T14:06:47.001Z</time></trkpt><trkpt lat="43.61043243702561" lon="12.303276820558679"><ele>757.4</ele><time>2026-04-20T14:06:48.001Z</time></trkpt><trkpt lat="43.610461409791576" lon="12.303445313677514"><ele>759.6</ele><time>2026-04-20T14:06:49.001Z</time></trkpt><trkpt lat="43.61047194776151" lon="12.303589951990773"><ele>761.8000000000001</ele><time>2026-04-20T14:06:50.001Z</time></trkpt><trkpt lat="43.61044300962939" lon="12.303703345946072"><ele>764.0</ele><time>2026-04-20T14:06:51.001Z</time></trkpt><trkpt lat="43.61035353588378" lon="12.30377597545339"><ele>763.25</ele><time>2026-04-20T14:06:52.001Z</time></trkpt><trkpt lat="43.61028953300755" lon="12.303853456275917"><ele>762.5</ele><time>2026-04-20T14:06:53Z</time></trkpt><trkpt lat="43.61021273906131" lon="12.30397802776332"><ele>761.75</ele><time>2026-04-20T14:06:54Z</time></trkpt><trkpt lat="43.610183697439865" lon="12.304161913528409"><ele>761.0</ele><time>2026-04-20T14:06:55Z</time></trkpt><trkpt lat="43.61014242426572" lon="12.304319788524737"><ele>761.0</ele><time>2026-04-20T14:06:56Z</time></trkpt><trkpt lat="43.61009997519613" lon="12.304451476526355"><ele>761.0</ele><time>2026-04-20T14:06:57Z</time></trkpt><trkpt lat="43.609969544031365" lon="12.304578639246186"><ele>761.0</ele><time>2026-04-20T14:06:58Z</time></trkpt><trkpt lat="43.60988055041126" lon="12.304700309912008"><ele>761.0</ele><time>2026-04-20T14:06:59Z</time></trkpt><trkpt lat="43.609818748149195" lon="12.30479495363305"><ele>765.0</ele><time>2026-04-20T14:07:00Z</time></trkpt><trkpt lat="43.609752167957495" lon="12.304896914256048"><ele>769.0</ele><time>2026-04-20T14:07:01Z</time></trkpt><trkpt lat="43.60975174910366" lon="12.305106663401164"><ele>773.0</ele><time>2026-04-20T14:07:02Z</time></trkpt><trkpt lat="43.60972067216687" lon="12.305261512088867"><ele>777.0</ele><time>2026-04-20T14:07:03Z</time></trkpt><trkpt lat="43.60966746871211" lon="12.305351906646475"><ele>777.0</ele><time>2026-04-20T14:07:04Z</time></trkpt><trkpt lat="43.60957986203894" lon="12.305431043825095"><ele>777.0</ele><time>2026-04-20T14:07:05Z</time></trkpt><trkpt lat="43.60947607360064" lon="12.305481624575604"><ele>777.0</ele><time>2026-04-20T14:07:06Z</time></trkpt><trkpt lat="43.609359122679805" lon="12.305498524217365"><ele>777.0</ele><time>2026-04-20T14:07:07Z</time></trkpt><trkpt lat="43.60922662482561" lon="12.305493091641196"><ele>776.6</ele><time>2026-04-20T14:07:08Z</time></trkpt><trkpt lat="43.60912423933717" lon="12.305492179587871"><ele>776.2</ele><time>2026-04-20T14:07:09Z</time></trkpt><trkpt lat="43.60904316259532" lon="12.305535409372409"><ele>775.8</ele><time>2026-04-20T14:07:10Z</time></trkpt><trkpt lat="43.60898555553409" lon="12.305628500762495"><ele>775.4</ele><time>2026-04-20T14:07:11Z</time></trkpt><trkpt lat="43.60896430576338" lon="12.305758209283484"><ele>775.0</ele><time>2026-04-20T14:07:12Z</time></trkpt><trkpt lat="43.608977553855944" lon="12.305906970520091"><ele>778.0</ele><time>2026-04-20T14:07:13Z</time></trkpt><trkpt lat="43.6090324127397" lon="12.30603884907763"><ele>781.0</ele><time>2026-04-20T14:07:14Z</time></trkpt><trkpt lat="43.609116316408894" lon="12.30613356160337"><ele>784.0</ele><time>2026-04-20T14:07:15Z</time></trkpt><trkpt lat="43.609227932568814" lon="12.306172092188898"><ele>787.0</ele><time>2026-04-20T14:07:16Z</time></trkpt><trkpt lat="43.609362381923674" lon="12.306173739227534"><ele>787.0</ele><time>2026-04-20T14:07:17Z</time></trkpt><trkpt lat="43.609487675393275" lon="12.306172369519143"><ele>787.0</ele><time>2026-04-20T14:07:18Z</time></trkpt><trkpt lat="43.60961284043968" lon="12.306218276955319"><ele>787.0</ele><time>2026-04-20T14:07:19Z</time></trkpt><trkpt lat="43.60973664190544" lon="12.306301770535022"><ele>787.0</ele><time>2026-04-20T14:07:20Z</time></trkpt><trkpt lat="43.60983539653427" lon="12.306392410761811"><ele>789.5</ele><time>2026-04-20T14:07:21Z</time></trkpt><trkpt lat="43.609909685811225" lon="12.30651583837575"><ele>792.0</ele><time>2026-04-20T14:07:22Z</time></trkpt><trkpt lat="43.609969279002584" lon="12.306679480362128"><ele>794.5</ele><time>2026-04-20T14:07:23Z</time></trkpt><trkpt lat="43.610022105096206" lon="12.306871759936316"><ele>797.0</ele><time>2026-04-20T14:07:24Z</time></trkpt><trkpt lat="43.61008014394571" lon="12.307073025111643"><ele>799.25</ele><time>2026-04-20T14:07:25Z</time></trkpt><trkpt lat="43.61011873232163" lon="12.307276362846881"><ele>801.5</ele><time>2026-04-20T14:07:26Z</time></trkpt><trkpt lat="43.610145314464006" lon="12.307453112137127"><ele>803.75</ele><time>2026-04-20T14:07:27Z</time></trkpt><trkpt lat="43.61016065332214" lon="12.307583774626549"><ele>806.0</ele><time>2026-04-20T14:07:28Z</time></trkpt><trkpt lat="43.61021001386055" lon="12.307684780577258"><ele>806.0</ele><time>2026-04-20T14:07:29Z</time></trkpt><trkpt lat="43.61030190376209" lon="12.307731314726663"><ele>806.0</ele><time>2026-04-20T14:07:30Z</time></trkpt><trkpt lat="43.610390314136566" lon="12.30774054346444"><ele>806.0</ele><time>2026-04-20T14:07:31Z</time></trkpt><trkpt lat="43.610496610321995" lon="12.30770097090877"><ele>806.0</ele><time>2026-04-20T14:07:32Z</time></trkpt><trkpt lat="43.61059388752441" lon="12.30764918269622"><ele>806.0</ele><time>2026-04-20T14:07:33Z</time></trkpt><trkpt lat="43.610678000257415" lon="12.307744283307194"><ele>805.5</ele><time>2026-04-20T14:07:35Z</time></trkpt><trkpt lat="43.61070816468389" lon="12.307860864132907"><ele>805.0</ele><time>2026-04-20T14:07:36Z</time></trkpt><trkpt lat="43.61071949001166" lon="12.308015914898567"><ele>804.5</ele><time>2026-04-20T14:07:37Z</time></trkpt><trkpt lat="43.61071839137709" lon="12.308221427858554"><ele>804.0</ele><time>2026-04-20T14:07:38Z</time></trkpt><trkpt lat="43.61070777269135" lon="12.308439108664414"><ele>804.0</ele><time>2026-04-20T14:07:39Z</time></trkpt><trkpt lat="43.61072891175141" lon="12.308665074544272"><ele>804.0</ele><time>2026-04-20T14:07:40Z</time></trkpt><trkpt lat="43.610783793048554" lon="12.308909313050238"><ele>804.0</ele><time>2026-04-20T14:07:41Z</time></trkpt><trkpt lat="43.610807067221415" lon="12.309097328666804"><ele>806.0</ele><time>2026-04-20T14:07:42Z</time></trkpt><trkpt lat="43.61077562258419" lon="12.309260843450538"><ele>808.0</ele><time>2026-04-20T14:07:43Z</time></trkpt><trkpt lat="43.61074681031282" lon="12.30944738342773"><ele>810.0</ele><time>2026-04-20T14:07:44Z</time></trkpt><trkpt lat="43.61073552292482" lon="12.309660718199899"><ele>812.0</ele><time>2026-04-20T14:07:45Z</time></trkpt><trkpt lat="43.610732349451624" lon="12.309831633777042"><ele>814.75</ele><time>2026-04-20T14:07:46Z</time></trkpt><trkpt lat="43.61077359093787" lon="12.30997785872114"><ele>817.5</ele><time>2026-04-20T14:07:47Z</time></trkpt><trkpt lat="43.61085536804137" lon="12.310115541496693"><ele>820.25</ele><time>2026-04-20T14:07:48Z</time></trkpt><trkpt lat="43.61097321165134" lon="12.310266758175034"><ele>823.0</ele><time>2026-04-20T14:07:49Z</time></trkpt><trkpt lat="43.611079556933085" lon="12.310409229557992"><ele>823.0</ele><time>2026-04-20T14:07:50Z</time></trkpt><trkpt lat="43.611137959797134" lon="12.3104997462776"><ele>823.0</ele><time>2026-04-20T14:07:51Z</time></trkpt><trkpt lat="43.6111394652326" lon="12.310621274891101"><ele>823.0</ele><time>2026-04-20T14:07:53Z</time></trkpt><trkpt lat="43.61100284761516" lon="12.310598613033862"><ele>823.0</ele><time>2026-04-20T14:07:55Z</time></trkpt><trkpt lat="43.61092467098618" lon="12.31056824322808"><ele>823.0</ele><time>2026-04-20T14:07:56Z</time></trkpt><trkpt lat="43.610826969681504" lon="12.31054238592675"><ele>823.0</ele><time>2026-04-20T14:07:57Z</time></trkpt><trkpt lat="43.610730163956426" lon="12.310491322840313"><ele>823.0</ele><time>2026-04-20T14:07:58Z</time></trkpt><trkpt lat="43.61064359111979" lon="12.310442535246247"><ele>823.0</ele><time>2026-04-20T14:07:59Z</time></trkpt><trkpt lat="43.610579690237145" lon="12.31033465739001"><ele>823.0</ele><time>2026-04-20T14:08:00Z</time></trkpt><trkpt lat="43.61050926643162" lon="12.310208633840727"><ele>823.0</ele><time>2026-04-20T14:08:01Z</time></trkpt><trkpt lat="43.61044716109684" lon="12.310131432359615"><ele>823.0</ele><time>2026-04-20T14:08:02Z</time></trkpt><trkpt lat="43.61037480157905" lon="12.310131428992264"><ele>823.0</ele><time>2026-04-20T14:08:03Z</time></trkpt><trkpt lat="43.61029043616382" lon="12.310169282682681"><ele>823.0</ele><time>2026-04-20T14:08:04Z</time></trkpt><trkpt lat="43.610188978087336" lon="12.310238682868595"><ele>823.0</ele><time>2026-04-20T14:08:05Z</time></trkpt><trkpt lat="43.61006760139718" lon="12.310326424332512"><ele>823.0</ele><time>2026-04-20T14:08:06Z</time></trkpt><trkpt lat="43.60993441890081" lon="12.310396119670107"><ele>824.75</ele><time>2026-04-20T14:08:07Z</time></trkpt><trkpt lat="43.60979035760622" lon="12.310453245322337"><ele>826.5</ele><time>2026-04-20T14:08:08Z</time></trkpt><trkpt lat="43.609662092825516" lon="12.310522111305307"><ele>828.25</ele><time>2026-04-20T14:08:09Z</time></trkpt><trkpt lat="43.609556636840836" lon="12.310564591101292"><ele>830.0</ele><time>2026-04-20T14:08:10Z</time></trkpt><trkpt lat="43.60943465677186" lon="12.310513940275332"><ele>830.5</ele><time>2026-04-20T14:08:11Z</time></trkpt><trkpt lat="43.60930714626605" lon="12.310523234283103"><ele>831.0</ele><time>2026-04-20T14:08:12Z</time></trkpt><trkpt lat="43.609190379145716" lon="12.310537276836147"><ele>831.5</ele><time>2026-04-20T14:08:13Z</time></trkpt><trkpt lat="43.60906769837631" lon="12.310583503576977"><ele>832.0</ele><time>2026-04-20T14:08:14Z</time></trkpt><trkpt lat="43.60893823831024" lon="12.310660663567617"><ele>837.6666666666666</ele><time>2026-04-20T14:08:15Z</time></trkpt><trkpt lat="43.60881527502434" lon="12.310750441853045"><ele>843.3333333333333</ele><time>2026-04-20T14:08:16Z</time></trkpt><trkpt lat="43.60868633090654" lon="12.310860558929736"><ele>849.0</ele><time>2026-04-20T14:08:17Z</time></trkpt><trkpt lat="43.6085497928462" lon="12.310973611451267"><ele>849.3333333333333</ele><time>2026-04-20T14:08:18Z</time></trkpt><trkpt lat="43.60840631249856" lon="12.311060795401712"><ele>849.6666666666666</ele><time>2026-04-20T14:08:19Z</time></trkpt><trkpt lat="43.60824889950412" lon="12.311088184791512"><ele>850.0</ele><time>2026-04-20T14:08:20Z</time></trkpt><trkpt lat="43.608084246223186" lon="12.311164191565833"><ele>850.0</ele><time>2026-04-20T14:08:21Z</time></trkpt><trkpt lat="43.607923417964585" lon="12.311217331403345"><ele>850.0</ele><time>2026-04-20T14:08:22Z</time></trkpt><trkpt lat="43.607770458038445" lon="12.311273231369716"><ele>850.0</ele><time>2026-04-20T14:08:23Z</time></trkpt><trkpt lat="43.60763291644751" lon="12.311323402112071"><ele>851.25</ele><time>2026-04-20T14:08:24Z</time></trkpt><trkpt lat="43.607514030787215" lon="12.311366550470062"><ele>852.5</ele><time>2026-04-20T14:08:25Z</time></trkpt><trkpt lat="43.607419613472146" lon="12.311422640909731"><ele>853.75</ele><time>2026-04-20T14:08:26Z</time></trkpt><trkpt lat="43.607333178601124" lon="12.311515365712108"><ele>855.0</ele><time>2026-04-20T14:08:27Z</time></trkpt><trkpt lat="43.60727044042649" lon="12.311661953634157"><ele>857.75</ele><time>2026-04-20T14:08:28Z</time></trkpt><trkpt lat="43.607220852210006" lon="12.311806950780124"><ele>860.5</ele><time>2026-04-20T14:08:29Z</time></trkpt><trkpt lat="43.607168663968885" lon="12.311951367726337"><ele>863.25</ele><time>2026-04-20T14:08:30Z</time></trkpt><trkpt lat="43.6071134173315" lon="12.31210986851637"><ele>866.0</ele><time>2026-04-20T14:08:31Z</time></trkpt><trkpt lat="43.60705869604103" lon="12.312276482970978"><ele>867.0</ele><time>2026-04-20T14:08:32Z</time></trkpt><trkpt lat="43.60700096567263" lon="12.312438595952505"><ele>867.9999999999999</ele><time>2026-04-20T14:08:33Z</time></trkpt><trkpt lat="43.606957717396384" lon="12.312566359940007"><ele>868.9999999999999</ele><time>2026-04-20T14:08:34Z</time></trkpt><trkpt lat="43.606940910869845" lon="12.312669974998675"><ele>870.0</ele><time>2026-04-20T14:08:35Z</time></trkpt><trkpt lat="43.606924268549996" lon="12.312759083601456"><ele>871.0</ele><time>2026-04-20T14:08:36Z</time></trkpt><trkpt lat="43.60698232277319" lon="12.312824918913794"><ele>871.0</ele><time>2026-04-20T14:08:37Z</time></trkpt><trkpt lat="43.6070751236812" lon="12.312857062164712"><ele>870.9999999999999</ele><time>2026-04-20T14:08:39Z</time></trkpt><trkpt lat="43.60714984635733" lon="12.312886316343397"><ele>870.9999999999999</ele><time>2026-04-20T14:08:40Z</time></trkpt><trkpt lat="43.60724424985819" lon="12.312925917538056"><ele>871.0</ele><time>2026-04-20T14:08:41Z</time></trkpt><trkpt lat="43.60734920752277" lon="12.312970854588325"><ele>871.0</ele><time>2026-04-20T14:08:42Z</time></trkpt><trkpt lat="43.60745011164886" lon="12.313026569795127"><ele>871.1666666666666</ele><time>2026-04-20T14:08:43Z</time></trkpt><trkpt lat="43.60752758664983" lon="12.313073297769233"><ele>871.3333333333333</ele><time>2026-04-20T14:08:44Z</time></trkpt><trkpt lat="43.60758845889592" lon="12.313118221423835"><ele>871.5</ele><time>2026-04-20T14:08:45Z</time></trkpt><trkpt lat="43.60767295702685" lon="12.313209222304174"><ele>871.6666666666667</ele><time>2026-04-20T14:08:47Z</time></trkpt><trkpt lat="43.607713618882" lon="12.313296512232208"><ele>871.8333333333334</ele><time>2026-04-20T14:08:48Z</time></trkpt><trkpt lat="43.607756829783916" lon="12.31340776366286"><ele>872.0</ele><time>2026-04-20T14:08:49Z</time></trkpt><trkpt lat="43.60779152853014" lon="12.31351121708346"><ele>872.0000000000001</ele><time>2026-04-20T14:08:50Z</time></trkpt><trkpt lat="43.60780594585821" lon="12.313620573006018"><ele>872.0</ele><time>2026-04-20T14:08:51Z</time></trkpt><trkpt lat="43.60780135470701" lon="12.313731442030917"><ele>872.0</ele><time>2026-04-20T14:08:52Z</time></trkpt><trkpt lat="43.60779963320789" lon="12.313836730746822"><ele>872.0</ele><time>2026-04-20T14:08:53Z</time></trkpt><trkpt lat="43.607818945904484" lon="12.313928206096108"><ele>872.0000000000001</ele><time>2026-04-20T14:08:54Z</time></trkpt><trkpt lat="43.607869342364836" lon="12.314002261398684"><ele>872.0</ele><time>2026-04-20T14:08:55Z</time></trkpt><trkpt lat="43.60793521363731" lon="12.314059047673462"><ele>873.8333333333334</ele><time>2026-04-20T14:08:56Z</time></trkpt><trkpt lat="43.60800564608194" lon="12.314124271330812"><ele>875.6666666666667</ele><time>2026-04-20T14:08:57.001Z</time></trkpt><trkpt lat="43.60806088912376" lon="12.314198948896703"><ele>877.5</ele><time>2026-04-20T14:08:58.001Z</time></trkpt><trkpt lat="43.60809933200736" lon="12.314289857433549"><ele>879.3333333333333</ele><time>2026-04-20T14:08:59Z</time></trkpt><trkpt lat="43.60811181923657" lon="12.314392880473848"><ele>881.1666666666666</ele><time>2026-04-20T14:09:00Z</time></trkpt><trkpt lat="43.60809326712518" lon="12.314502005133155"><ele>883.0</ele><time>2026-04-20T14:09:01Z</time></trkpt><trkpt lat="43.608048699497424" lon="12.314614248570397"><ele>883.0</ele><time>2026-04-20T14:09:02Z</time></trkpt><trkpt lat="43.608003718537745" lon="12.314731068883981"><ele>883.0</ele><time>2026-04-20T14:09:03Z</time></trkpt><trkpt lat="43.607967084179656" lon="12.314837524320307"><ele>883.0</ele><time>2026-04-20T14:09:04Z</time></trkpt><trkpt lat="43.60792575224316" lon="12.314961182061912"><ele>883.0</ele><time>2026-04-20T14:09:05.999Z</time></trkpt><trkpt lat="43.607855350518506" lon="12.31490121793293"><ele>883.0</ele><time>2026-04-20T14:09:08.999Z</time></trkpt><trkpt lat="43.60792245756142" lon="12.314774256171107"><ele>882.9999999999999</ele><time>2026-04-20T14:09:10.999Z</time></trkpt><trkpt lat="43.60795397228959" lon="12.31464473120229"><ele>883.0</ele><time>2026-04-20T14:09:11.999Z</time></trkpt><trkpt lat="43.60797176980943" lon="12.314521464162443"><ele>883.0</ele><time>2026-04-20T14:09:12.999Z</time></trkpt><trkpt lat="43.607970048726635" lon="12.3144121661423"><ele>883.0</ele><time>2026-04-20T14:09:13.999Z</time></trkpt><trkpt lat="43.6079576628119" lon="12.3143081319697"><ele>882.9999999999999</ele><time>2026-04-20T14:09:14.999Z</time></trkpt><trkpt lat="43.60790494815787" lon="12.314224966604982"><ele>883.0</ele><time>2026-04-20T14:09:15.999Z</time></trkpt><trkpt lat="43.60778808248513" lon="12.31420850227102"><ele>880.8</ele><time>2026-04-20T14:09:16.999Z</time></trkpt><trkpt lat="43.607681882082815" lon="12.314166774621524"><ele>878.5999999999999</ele><time>2026-04-20T14:09:17.999Z</time></trkpt><trkpt lat="43.607606219408396" lon="12.314111220617296"><ele>876.4000000000001</ele><time>2026-04-20T14:09:18.999Z</time></trkpt><trkpt lat="43.60759133091915" lon="12.31399225579591"><ele>874.2</ele><time>2026-04-20T14:09:19.999Z</time></trkpt><trkpt lat="43.60755728075141" lon="12.313879860740105"><ele>872.0</ele><time>2026-04-20T14:09:20.999Z</time></trkpt><trkpt lat="43.607512061713194" lon="12.31379222071267"><ele>872.0</ele><time>2026-04-20T14:09:21.999Z</time></trkpt><trkpt lat="43.60744146567131" lon="12.313746014350329"><ele>872.0</ele><time>2026-04-20T14:09:22.999Z</time></trkpt><trkpt lat="43.60731245001153" lon="12.313834706945594"><ele>872.0</ele><time>2026-04-20T14:09:23.999Z</time></trkpt><trkpt lat="43.60718676270041" lon="12.313908896554972"><ele>872.0</ele><time>2026-04-20T14:09:24.999Z</time></trkpt><trkpt lat="43.6070766092263" lon="12.313921975294015"><ele>866.8</ele><time>2026-04-20T14:09:25.999Z</time></trkpt><trkpt lat="43.606962093279876" lon="12.313957354769386"><ele>861.6</ele><time>2026-04-20T14:09:26.999Z</time></trkpt><trkpt lat="43.60686168850293" lon="12.314031539752822"><ele>856.4</ele><time>2026-04-20T14:09:27.999Z</time></trkpt><trkpt lat="43.606785713253174" lon="12.314121510665023"><ele>851.1999999999999</ele><time>2026-04-20T14:09:28.999Z</time></trkpt><trkpt lat="43.60670968277819" lon="12.314152879284766"><ele>846.0</ele><time>2026-04-20T14:09:29.999Z</time></trkpt><trkpt lat="43.60660462741933" lon="12.314103661840978"><ele>846.0</ele><time>2026-04-20T14:09:31.999Z</time></trkpt><trkpt lat="43.606565155045" lon="12.31401947781309"><ele>846.0</ele><time>2026-04-20T14:09:32.999Z</time></trkpt><trkpt lat="43.60650184673588" lon="12.313973052329567"><ele>846.0</ele><time>2026-04-20T14:09:33.999Z</time></trkpt><trkpt lat="43.60641244634444" lon="12.313951861981074"><ele>846.0</ele><time>2026-04-20T14:09:34.999Z</time></trkpt><trkpt lat="43.6063161915478" lon="12.314035960106244"><ele>846.0</ele><time>2026-04-20T14:09:35.999Z</time></trkpt><trkpt lat="43.60624369960048" lon="12.314168245524565"><ele>846.0</ele><time>2026-04-20T14:09:36.999Z</time></trkpt><trkpt lat="43.60620118271911" lon="12.314286169168323"><ele>846.0</ele><time>2026-04-20T14:09:37.999Z</time></trkpt><trkpt lat="43.60610115400901" lon="12.31426837064087"><ele>846.0</ele><time>2026-04-20T14:09:38.999Z</time></trkpt><trkpt lat="43.60602538179585" lon="12.314302783307095"><ele>846.0</ele><time>2026-04-20T14:09:39.999Z</time></trkpt><trkpt lat="43.605956919140134" lon="12.314341586233729"><ele>846.0</ele><time>2026-04-20T14:09:40.999Z</time></trkpt><trkpt lat="43.60589563697726" lon="12.314434271501295"><ele>846.0</ele><time>2026-04-20T14:09:41.999Z</time></trkpt><trkpt lat="43.605900563553405" lon="12.314597463058478"><ele>842.5</ele><time>2026-04-20T14:09:42.999Z</time></trkpt><trkpt lat="43.6058963302544" lon="12.314775093937214"><ele>839.0</ele><time>2026-04-20T14:09:43.999Z</time></trkpt><trkpt lat="43.60588832144" lon="12.314956551498433"><ele>835.5</ele><time>2026-04-20T14:09:44.999Z</time></trkpt><trkpt lat="43.60587270559922" lon="12.315115914575578"><ele>832.0</ele><time>2026-04-20T14:09:45.999Z</time></trkpt><trkpt lat="43.60585138608745" lon="12.315267297658881"><ele>832.0</ele><time>2026-04-20T14:09:46.999Z</time></trkpt><trkpt lat="43.60582614126694" lon="12.315420327440966"><ele>832.0</ele><time>2026-04-20T14:09:47.999Z</time></trkpt><trkpt lat="43.6057882461487" lon="12.31555932187515"><ele>832.0</ele><time>2026-04-20T14:09:48.999Z</time></trkpt><trkpt lat="43.60574176852538" lon="12.315689993325186"><ele>832.0</ele><time>2026-04-20T14:09:49.999Z</time></trkpt><trkpt lat="43.60569684898834" lon="12.31578383658442"><ele>832.0</ele><time>2026-04-20T14:09:50.999Z</time></trkpt><trkpt lat="43.60563393953178" lon="12.31587058607229"><ele>828.1666666666666</ele><time>2026-04-20T14:09:52Z</time></trkpt><trkpt lat="43.60556855458801" lon="12.315941365055874"><ele>824.3333333333333</ele><time>2026-04-20T14:09:53Z</time></trkpt><trkpt lat="43.60550915219145" lon="12.315981047532192"><ele>820.5</ele><time>2026-04-20T14:09:54Z</time></trkpt><trkpt lat="43.60544394182228" lon="12.315983223376024"><ele>816.6666666666667</ele><time>2026-04-20T14:09:55Z</time></trkpt><trkpt lat="43.6053541047743" lon="12.315891501266583"><ele>812.8333333333334</ele><time>2026-04-20T14:09:57Z</time></trkpt><trkpt lat="43.605353705782264" lon="12.315791438745665"><ele>809.0</ele><time>2026-04-20T14:09:58Z</time></trkpt><trkpt lat="43.60533828444883" lon="12.315678572994106"><ele>813.4000000000001</ele><time>2026-04-20T14:09:59Z</time></trkpt><trkpt lat="43.60530478070154" lon="12.315533569658555"><ele>817.8</ele><time>2026-04-20T14:10:00Z</time></trkpt><trkpt lat="43.60524352450521" lon="12.315424741139218"><ele>822.2</ele><time>2026-04-20T14:10:01Z</time></trkpt><trkpt lat="43.605183078565624" lon="12.315338582913988"><ele>826.5999999999999</ele><time>2026-04-20T14:10:02Z</time></trkpt><trkpt lat="43.60510071620779" lon="12.31527133339599"><ele>831.0</ele><time>2026-04-20T14:10:03Z</time></trkpt><trkpt lat="43.60500484648079" lon="12.315255873602412"><ele>831.0</ele><time>2026-04-20T14:10:04Z</time></trkpt><trkpt lat="43.60490603342999" lon="12.3152691638071"><ele>831.0</ele><time>2026-04-20T14:10:05Z</time></trkpt><trkpt lat="43.60480325954609" lon="12.31533189753838"><ele>831.0</ele><time>2026-04-20T14:10:06Z</time></trkpt><trkpt lat="43.6047156629153" lon="12.315405969027815"><ele>831.0</ele><time>2026-04-20T14:10:07Z</time></trkpt><trkpt lat="43.60464111595339" lon="12.315441816831976"><ele>831.0</ele><time>2026-04-20T14:10:08Z</time></trkpt><trkpt lat="43.60457409842616" lon="12.315403570835237"><ele>829.4</ele><time>2026-04-20T14:10:09Z</time></trkpt><trkpt lat="43.604475807528985" lon="12.315267873352783"><ele>827.8</ele><time>2026-04-20T14:10:11Z</time></trkpt><trkpt lat="43.604418866312415" lon="12.315219290508619"><ele>826.1999999999999</ele><time>2026-04-20T14:10:12Z</time></trkpt><trkpt lat="43.60430443209758" lon="12.315242346424947"><ele>824.5999999999999</ele><time>2026-04-20T14:10:14Z</time></trkpt><trkpt lat="43.60425270931809" lon="12.315320511651539"><ele>823.0</ele><time>2026-04-20T14:10:15Z</time></trkpt><trkpt lat="43.60421273799053" lon="12.3154363822551"><ele>823.0</ele><time>2026-04-20T14:10:16Z</time></trkpt><trkpt lat="43.60416195554375" lon="12.31557006719183"><ele>823.0</ele><time>2026-04-20T14:10:17Z</time></trkpt><trkpt lat="43.604116827733115" lon="12.315708562514283"><ele>823.0</ele><time>2026-04-20T14:10:18Z</time></trkpt><trkpt lat="43.60408014082228" lon="12.315821950171866"><ele>823.0</ele><time>2026-04-20T14:10:19Z</time></trkpt><trkpt lat="43.60404706590581" lon="12.315924174245428"><ele>823.0</ele><time>2026-04-20T14:10:20Z</time></trkpt><trkpt lat="43.604019030115445" lon="12.316022654571604"><ele>819.4</ele><time>2026-04-20T14:10:21Z</time></trkpt><trkpt lat="43.60400939522263" lon="12.316145232908074"><ele>815.8</ele><time>2026-04-20T14:10:23Z</time></trkpt><trkpt lat="43.604075955859706" lon="12.316160372961738"><ele>812.2</ele><time>2026-04-20T14:10:24Z</time></trkpt><trkpt lat="43.60417957731998" lon="12.316069778958624"><ele>808.6</ele><time>2026-04-20T14:10:26Z</time></trkpt><trkpt lat="43.604241117403156" lon="12.315970728777492"><ele>805.0</ele><time>2026-04-20T14:10:27Z</time></trkpt><trkpt lat="43.60431578739917" lon="12.31588918268752"><ele>804.9999999999999</ele><time>2026-04-20T14:10:28Z</time></trkpt><trkpt lat="43.60444617825996" lon="12.315861392651204"><ele>805.0</ele><time>2026-04-20T14:10:30Z</time></trkpt><trkpt lat="43.60451998795461" lon="12.315834459295381"><ele>805.0</ele><time>2026-04-20T14:10:31Z</time></trkpt><trkpt lat="43.604580001543546" lon="12.315933664708373"><ele>805.0</ele><time>2026-04-20T14:10:32Z</time></trkpt><trkpt lat="43.60464153544871" lon="12.315956738620807"><ele>804.9999999999999</ele><time>2026-04-20T14:10:33Z</time></trkpt><trkpt lat="43.6046830449223" lon="12.3160296664846"><ele>805.0</ele><time>2026-04-20T14:10:35Z</time></trkpt><trkpt lat="43.60461198023547" lon="12.316090576580795"><ele>805.0</ele><time>2026-04-20T14:10:37Z</time></trkpt><trkpt lat="43.60455635970241" lon="12.316033127502482"><ele>805.0</ele><time>2026-04-20T14:10:38Z</time></trkpt><trkpt lat="43.604477336652245" lon="12.316013365125022"><ele>805.0</ele><time>2026-04-20T14:10:39Z</time></trkpt><trkpt lat="43.60440191571667" lon="12.316064798297326"><ele>805.0</ele><time>2026-04-20T14:10:40Z</time></trkpt><trkpt lat="43.604355554837774" lon="12.316168399281395"><ele>805.0</ele><time>2026-04-20T14:10:41Z</time></trkpt><trkpt lat="43.60435869096575" lon="12.316351021988028"><ele>803.25</ele><time>2026-04-20T14:10:42Z</time></trkpt><trkpt lat="43.60436178169514" lon="12.316536389480195"><ele>801.5</ele><time>2026-04-20T14:10:43Z</time></trkpt><trkpt lat="43.60434261782238" lon="12.316722240475656"><ele>799.75</ele><time>2026-04-20T14:10:44Z</time></trkpt><trkpt lat="43.6043639059992" lon="12.316872060522618"><ele>798.0</ele><time>2026-04-20T14:10:45Z</time></trkpt><trkpt lat="43.60437319629314" lon="12.317004248320652"><ele>798.0</ele><time>2026-04-20T14:10:46Z</time></trkpt><trkpt lat="43.60437041607201" lon="12.3171443398882"><ele>798.0</ele><time>2026-04-20T14:10:47Z</time></trkpt><trkpt lat="43.60439054612701" lon="12.31728280863387"><ele>798.0</ele><time>2026-04-20T14:10:48Z</time></trkpt><trkpt lat="43.60443148559638" lon="12.317423262288616"><ele>798.0</ele><time>2026-04-20T14:10:49Z</time></trkpt><trkpt lat="43.60447666501379" lon="12.317548758987506"><ele>798.0</ele><time>2026-04-20T14:10:50Z</time></trkpt><trkpt lat="43.60451889722247" lon="12.317679742187018"><ele>793.5</ele><time>2026-04-20T14:10:51Z</time></trkpt><trkpt lat="43.604555402839345" lon="12.317821584556683"><ele>789.0</ele><time>2026-04-20T14:10:52Z</time></trkpt><trkpt lat="43.60461080773388" lon="12.317983473460695"><ele>784.5</ele><time>2026-04-20T14:10:53Z</time></trkpt><trkpt lat="43.604684058008125" lon="12.318128960203737"><ele>780.0</ele><time>2026-04-20T14:10:54Z</time></trkpt><trkpt lat="43.604762943033" lon="12.318247232556223"><ele>778.0</ele><time>2026-04-20T14:10:55Z</time></trkpt><trkpt lat="43.604835808380706" lon="12.318365977068702"><ele>776.0</ele><time>2026-04-20T14:10:56Z</time></trkpt><trkpt lat="43.60489341562199" lon="12.318454442000567"><ele>774.0</ele><time>2026-04-20T14:10:57Z</time></trkpt><trkpt lat="43.60491045846258" lon="12.318561103686104"><ele>772.0</ele><time>2026-04-20T14:10:58Z</time></trkpt><trkpt lat="43.604916995795406" lon="12.318651166621892"><ele>770.0</ele><time>2026-04-20T14:10:59Z</time></trkpt><trkpt lat="43.60490034514649" lon="12.318746741730186"><ele>768.0</ele><time>2026-04-20T14:11:00Z</time></trkpt><trkpt lat="43.60487917797329" lon="12.318846937845645"><ele>766.3333333333334</ele><time>2026-04-20T14:11:01Z</time></trkpt><trkpt lat="43.604833799358715" lon="12.318941622006433"><ele>764.6666666666666</ele><time>2026-04-20T14:11:02Z</time></trkpt><trkpt lat="43.604783024865064" lon="12.319019343468847"><ele>763.0</ele><time>2026-04-20T14:11:03Z</time></trkpt><trkpt lat="43.60471114883329" lon="12.319048956496651"><ele>761.3333333333333</ele><time>2026-04-20T14:11:04Z</time></trkpt><trkpt lat="43.60463089978474" lon="12.319072870465941"><ele>759.6666666666666</ele><time>2026-04-20T14:11:05Z</time></trkpt><trkpt lat="43.60457034051568" lon="12.31910989770852"><ele>758.0</ele><time>2026-04-20T14:11:06Z</time></trkpt><trkpt lat="43.604532845213754" lon="12.319262251576822"><ele>758.0</ele><time>2026-04-20T14:11:08Z</time></trkpt><trkpt lat="43.6046227566985" lon="12.31931489274093"><ele>758.0</ele><time>2026-04-20T14:11:09Z</time></trkpt><trkpt lat="43.60476575476744" lon="12.319253302165842"><ele>758.0</ele><time>2026-04-20T14:11:11Z</time></trkpt><trkpt lat="43.60485892596184" lon="12.31919855224074"><ele>758.0</ele><time>2026-04-20T14:11:12Z</time></trkpt><trkpt lat="43.60493159945964" lon="12.319086698416285"><ele>758.0</ele><time>2026-04-20T14:11:13Z</time></trkpt><trkpt lat="43.604983658170184" lon="12.319030721464234"><ele>758.0</ele><time>2026-04-20T14:11:14Z</time></trkpt><trkpt lat="43.60506011582415" lon="12.318937733428397"><ele>758.0</ele><time>2026-04-20T14:11:16Z</time></trkpt><trkpt lat="43.60513621637174" lon="12.318948752366703"><ele>758.0</ele><time>2026-04-20T14:11:18Z</time></trkpt><trkpt lat="43.60509043359439" lon="12.319104682530421"><ele>758.0</ele><time>2026-04-20T14:11:20Z</time></trkpt><trkpt lat="43.60506090372938" lon="12.31923296914197"><ele>758.0</ele><time>2026-04-20T14:11:21Z</time></trkpt><trkpt lat="43.605003984404014" lon="12.319347924338444"><ele>758.0</ele><time>2026-04-20T14:11:22Z</time></trkpt><trkpt lat="43.60498788467523" lon="12.31945713569196"><ele>758.0</ele><time>2026-04-20T14:11:23Z</time></trkpt><trkpt lat="43.60502824381755" lon="12.319632219572691"><ele>758.0</ele><time>2026-04-20T14:11:25Z</time></trkpt><trkpt lat="43.6050809030366" lon="12.319793035390227"><ele>758.0</ele><time>2026-04-20T14:11:26Z</time></trkpt><trkpt lat="43.605124361998215" lon="12.319919552158108"><ele>757.8</ele><time>2026-04-20T14:11:27Z</time></trkpt><trkpt lat="43.60515497370945" lon="12.320055554908835"><ele>757.5999999999999</ele><time>2026-04-20T14:11:28Z</time></trkpt><trkpt lat="43.60520120485413" lon="12.320177020706662"><ele>757.4000000000001</ele><time>2026-04-20T14:11:29Z</time></trkpt><trkpt lat="43.605218647162864" lon="12.320297906441853"><ele>757.2</ele><time>2026-04-20T14:11:30Z</time></trkpt><trkpt lat="43.60525281825324" lon="12.320405997807008"><ele>757.0</ele><time>2026-04-20T14:11:31Z</time></trkpt><trkpt lat="43.605310734081804" lon="12.320500163968545"><ele>754.4000000000001</ele><time>2026-04-20T14:11:32Z</time></trkpt><trkpt lat="43.60536790820902" lon="12.320584949402681"><ele>751.8000000000001</ele><time>2026-04-20T14:11:33Z</time></trkpt><trkpt lat="43.60544145503969" lon="12.32064599126256"><ele>749.2</ele><time>2026-04-20T14:11:34Z</time></trkpt><trkpt lat="43.6055242329811" lon="12.320716794306412"><ele>746.6</ele><time>2026-04-20T14:11:35Z</time></trkpt><trkpt lat="43.605608510957204" lon="12.320798372369056"><ele>744.0</ele><time>2026-04-20T14:11:36Z</time></trkpt><trkpt lat="43.60569286713976" lon="12.320884635984218"><ele>744.0</ele><time>2026-04-20T14:11:37Z</time></trkpt><trkpt lat="43.60576406259515" lon="12.320962703266412"><ele>744.0</ele><time>2026-04-20T14:11:38Z</time></trkpt><trkpt lat="43.60582230976184" lon="12.321051269884403"><ele>744.0</ele><time>2026-04-20T14:11:39Z</time></trkpt><trkpt lat="43.60587456636217" lon="12.321148848639305"><ele>744.0</ele><time>2026-04-20T14:11:40Z</time></trkpt><trkpt lat="43.60591840985319" lon="12.321294442279305"><ele>744.0</ele><time>2026-04-20T14:11:41Z</time></trkpt><trkpt lat="43.605980278505264" lon="12.321426727456346"><ele>743.8000000000001</ele><time>2026-04-20T14:11:42Z</time></trkpt><trkpt lat="43.6060176639357" lon="12.321571668479132"><ele>743.6</ele><time>2026-04-20T14:11:43Z</time></trkpt><trkpt lat="43.60606680507888" lon="12.321702999269226"><ele>743.4</ele><time>2026-04-20T14:11:44Z</time></trkpt><trkpt lat="43.606129631327136" lon="12.321808586981845"><ele>743.2</ele><time>2026-04-20T14:11:45Z</time></trkpt><trkpt lat="43.606194144574296" lon="12.32192475250521"><ele>743.0</ele><time>2026-04-20T14:11:46Z</time></trkpt><trkpt lat="43.60624878389911" lon="12.32200928880726"><ele>742.4</ele><time>2026-04-20T14:11:47Z</time></trkpt><trkpt lat="43.606293373323766" lon="12.322123720241255"><ele>741.8</ele><time>2026-04-20T14:11:48Z</time></trkpt><trkpt lat="43.60632691969665" lon="12.322268709335457"><ele>741.2</ele><time>2026-04-20T14:11:49Z</time></trkpt><trkpt lat="43.60637295257106" lon="12.322425806424755"><ele>740.6</ele><time>2026-04-20T14:11:50Z</time></trkpt><trkpt lat="43.6063941200801" lon="12.322586934977872"><ele>740.0</ele><time>2026-04-20T14:11:51Z</time></trkpt><trkpt lat="43.60640586448592" lon="12.322754611832734"><ele>736.8</ele><time>2026-04-20T14:11:52Z</time></trkpt><trkpt lat="43.60645159978757" lon="12.322884763060499"><ele>733.6</ele><time>2026-04-20T14:11:53Z</time></trkpt><trkpt lat="43.60649983052679" lon="12.322993121147762"><ele>730.4000000000001</ele><time>2026-04-20T14:11:54Z</time></trkpt><trkpt lat="43.60657816917473" lon="12.323083689092549"><ele>727.2</ele><time>2026-04-20T14:11:55Z</time></trkpt><trkpt lat="43.606661618658386" lon="12.323167082059776"><ele>724.0</ele><time>2026-04-20T14:11:56Z</time></trkpt><trkpt lat="43.60671769738529" lon="12.323236170433677"><ele>723.6</ele><time>2026-04-20T14:11:57Z</time></trkpt><trkpt lat="43.60675177103249" lon="12.323319893987758"><ele>723.2</ele><time>2026-04-20T14:11:58Z</time></trkpt><trkpt lat="43.60674854677652" lon="12.323424811753668"><ele>722.8000000000001</ele><time>2026-04-20T14:11:59Z</time></trkpt><trkpt lat="43.60672383082371" lon="12.323558276730635"><ele>722.4000000000001</ele><time>2026-04-20T14:12:00Z</time></trkpt><trkpt lat="43.60671676099469" lon="12.32369993660784"><ele>722.0</ele><time>2026-04-20T14:12:01Z</time></trkpt><trkpt lat="43.60674690501082" lon="12.323840098010141"><ele>720.8</ele><time>2026-04-20T14:12:02Z</time></trkpt><trkpt lat="43.60684827974048" lon="12.323936326803675"><ele>719.6</ele><time>2026-04-20T14:12:03Z</time></trkpt><trkpt lat="43.60694149935348" lon="12.324050853946058"><ele>718.4</ele><time>2026-04-20T14:12:04Z</time></trkpt><trkpt lat="43.6070207562588" lon="12.32414122197515"><ele>717.1999999999999</ele><time>2026-04-20T14:12:05Z</time></trkpt><trkpt lat="43.60708766534677" lon="12.324219820506995"><ele>716.0</ele><time>2026-04-20T14:12:06Z</time></trkpt><trkpt lat="43.60718527400458" lon="12.324261449308155"><ele>716.0</ele><time>2026-04-20T14:12:07Z</time></trkpt><trkpt lat="43.607292836" lon="12.324253917755968"><ele>716.0</ele><time>2026-04-20T14:12:08Z</time></trkpt><trkpt lat="43.60740862157058" lon="12.324250657095638"><ele>716.0</ele><time>2026-04-20T14:12:09Z</time></trkpt><trkpt lat="43.60752298340293" lon="12.32424428899875"><ele>716.0</ele><time>2026-04-20T14:12:10Z</time></trkpt><trkpt lat="43.60764003234075" lon="12.324250565738268"><ele>716.0</ele><time>2026-04-20T14:12:11Z</time></trkpt><trkpt lat="43.60776371835798" lon="12.324281529273394"><ele>716.0</ele><time>2026-04-20T14:12:12Z</time></trkpt><trkpt lat="43.60789255788585" lon="12.32431050999226"><ele>716.0</ele><time>2026-04-20T14:12:13Z</time></trkpt><trkpt lat="43.6080037281327" lon="12.324361532098557"><ele>716.0</ele><time>2026-04-20T14:12:14Z</time></trkpt><trkpt lat="43.608093870475564" lon="12.324450608159518"><ele>717.75</ele><time>2026-04-20T14:12:15Z</time></trkpt><trkpt lat="43.60818452144163" lon="12.324559105953725"><ele>719.5</ele><time>2026-04-20T14:12:16Z</time></trkpt><trkpt lat="43.60828127924353" lon="12.324632323760783"><ele>721.25</ele><time>2026-04-20T14:12:17Z</time></trkpt><trkpt lat="43.6083903526438" lon="12.324676052418758"><ele>723.0</ele><time>2026-04-20T14:12:18Z</time></trkpt><trkpt lat="43.60849948311496" lon="12.324717993103027"><ele>723.0</ele><time>2026-04-20T14:12:19Z</time></trkpt><trkpt lat="43.60860749690186" lon="12.324679905325064"><ele>723.0</ele><time>2026-04-20T14:12:20Z</time></trkpt><trkpt lat="43.60870517402116" lon="12.324636013037985"><ele>723.0</ele><time>2026-04-20T14:12:21Z</time></trkpt><trkpt lat="43.60880667239711" lon="12.32458408706996"><ele>723.0</ele><time>2026-04-20T14:12:22Z</time></trkpt><trkpt lat="43.60889689185401" lon="12.3245545093199"><ele>723.0</ele><time>2026-04-20T14:12:23Z</time></trkpt><trkpt lat="43.60899192454121" lon="12.324547749650645"><ele>723.0</ele><time>2026-04-20T14:12:24Z</time></trkpt><trkpt lat="43.60909462391202" lon="12.324569495752959"><ele>723.0</ele><time>2026-04-20T14:12:25Z</time></trkpt><trkpt lat="43.60921139158283" lon="12.324643577495314"><ele>723.0</ele><time>2026-04-20T14:12:26Z</time></trkpt><trkpt lat="43.609347633487424" lon="12.324711365549307"><ele>723.0</ele><time>2026-04-20T14:12:27Z</time></trkpt><trkpt lat="43.60949314251901" lon="12.32475429873022"><ele>718.0</ele><time>2026-04-20T14:12:28Z</time></trkpt><trkpt lat="43.60963327175088" lon="12.324780063758961"><ele>713.0</ele><time>2026-04-20T14:12:29Z</time></trkpt><trkpt lat="43.609764254113166" lon="12.324782969393986"><ele>708.0</ele><time>2026-04-20T14:12:30Z</time></trkpt><trkpt lat="43.60988483358059" lon="12.324774963631373"><ele>703.0</ele><time>2026-04-20T14:12:31Z</time></trkpt><trkpt lat="43.609990327933644" lon="12.324743038311832"><ele>707.2</ele><time>2026-04-20T14:12:32Z</time></trkpt><trkpt lat="43.61009576413601" lon="12.324683814463379"><ele>711.4</ele><time>2026-04-20T14:12:33Z</time></trkpt><trkpt lat="43.61019554899995" lon="12.324628789049141"><ele>715.6</ele><time>2026-04-20T14:12:34Z</time></trkpt><trkpt lat="43.61028519402121" lon="12.324601863226027"><ele>719.8000000000001</ele><time>2026-04-20T14:12:35Z</time></trkpt><trkpt lat="43.610357918031525" lon="12.32462611437132"><ele>724.0</ele><time>2026-04-20T14:12:36Z</time></trkpt><trkpt lat="43.61042340471069" lon="12.324781251949707"><ele>724.0</ele><time>2026-04-20T14:12:38Z</time></trkpt><trkpt lat="43.6104564258336" lon="12.324922216608218"><ele>724.0</ele><time>2026-04-20T14:12:39Z</time></trkpt><trkpt lat="43.61049729299572" lon="12.325070797816128"><ele>724.0</ele><time>2026-04-20T14:12:40Z</time></trkpt><trkpt lat="43.61055890238306" lon="12.325208682387936"><ele>724.0</ele><time>2026-04-20T14:12:41Z</time></trkpt><trkpt lat="43.6106287028302" lon="12.325352742883204"><ele>724.0</ele><time>2026-04-20T14:12:42Z</time></trkpt><trkpt lat="43.610678805665344" lon="12.325453554631705"><ele>724.0</ele><time>2026-04-20T14:12:43Z</time></trkpt><trkpt lat="43.61073087273494" lon="12.32556674425687"><ele>724.0</ele><time>2026-04-20T14:12:44Z</time></trkpt><trkpt lat="43.610792108897996" lon="12.325663081050116"><ele>724.0</ele><time>2026-04-20T14:12:45Z</time></trkpt><trkpt lat="43.61085961771033" lon="12.32574498946189"><ele>724.0</ele><time>2026-04-20T14:12:46Z</time></trkpt><trkpt lat="43.61090944635639" lon="12.325844235216923"><ele>721.6666666666667</ele><time>2026-04-20T14:12:47Z</time></trkpt><trkpt lat="43.61096060302357" lon="12.325928193558905"><ele>719.3333333333334</ele><time>2026-04-20T14:12:48Z</time></trkpt><trkpt lat="43.61099880665553" lon="12.326008452925176"><ele>717.0</ele><time>2026-04-20T14:12:49Z</time></trkpt><trkpt lat="43.61108107076688" lon="12.32610783118661"><ele>714.6666666666666</ele><time>2026-04-20T14:12:51Z</time></trkpt><trkpt lat="43.61119742347621" lon="12.326067024386564"><ele>712.3333333333333</ele><time>2026-04-20T14:12:53Z</time></trkpt><trkpt lat="43.61124996616187" lon="12.32601036297362"><ele>710.0</ele><time>2026-04-20T14:12:54Z</time></trkpt><trkpt lat="43.61130557786437" lon="12.32594544854265"><ele>710.0</ele><time>2026-04-20T14:12:55Z</time></trkpt><trkpt lat="43.611364454112156" lon="12.325870510295019"><ele>710.0</ele><time>2026-04-20T14:12:56Z</time></trkpt><trkpt lat="43.61141483822117" lon="12.325804850592323"><ele>710.0</ele><time>2026-04-20T14:12:57Z</time></trkpt><trkpt lat="43.61146610280496" lon="12.325734521647885"><ele>710.0</ele><time>2026-04-20T14:12:58Z</time></trkpt><trkpt lat="43.61151849275736" lon="12.32565616447675"><ele>710.0</ele><time>2026-04-20T14:12:59Z</time></trkpt><trkpt lat="43.61156620556721" lon="12.325585906883461"><ele>710.0</ele><time>2026-04-20T14:13:00Z</time></trkpt><trkpt lat="43.611657292115865" lon="12.325485977070894"><ele>713.4</ele><time>2026-04-20T14:13:02Z</time></trkpt><trkpt lat="43.61177559577736" lon="12.325437383051227"><ele>716.8</ele><time>2026-04-20T14:13:04Z</time></trkpt><trkpt lat="43.611848423453374" lon="12.325454811971362"><ele>720.2</ele><time>2026-04-20T14:13:05Z</time></trkpt><trkpt lat="43.611920686173725" lon="12.325514275650235"><ele>723.6</ele><time>2026-04-20T14:13:06Z</time></trkpt><trkpt lat="43.61199168761914" lon="12.325603006297333"><ele>727.0</ele><time>2026-04-20T14:13:07Z</time></trkpt><trkpt lat="43.61207688016485" lon="12.32569824195684"><ele>727.0</ele><time>2026-04-20T14:13:08Z</time></trkpt><trkpt lat="43.612180603843846" lon="12.325794768091486"><ele>727.0</ele><time>2026-04-20T14:13:09.001Z</time></trkpt><trkpt lat="43.61227138339749" lon="12.325879248311868"><ele>727.0</ele><time>2026-04-20T14:13:10.001Z</time></trkpt><trkpt lat="43.61224703454496" lon="12.32614646907414"><ele>727.0</ele><time>2026-04-20T14:13:11.001Z</time></trkpt><trkpt lat="43.61229620808262" lon="12.326245508746027"><ele>727.0</ele><time>2026-04-20T14:13:12.001Z</time></trkpt><trkpt lat="43.61235435404414" lon="12.326321105512832"><ele>727.0</ele><time>2026-04-20T14:13:13.001Z</time></trkpt><trkpt lat="43.612423686045375" lon="12.326373749160144"><ele>727.0</ele><time>2026-04-20T14:13:14.001Z</time></trkpt><trkpt lat="43.612499633600756" lon="12.326405634778672"><ele>727.0</ele><time>2026-04-20T14:13:15.001Z</time></trkpt><trkpt lat="43.61258633492811" lon="12.326421588022523"><ele>727.0</ele><time>2026-04-20T14:13:16.001Z</time></trkpt><trkpt lat="43.61268704890841" lon="12.326437556994128"><ele>727.0</ele><time>2026-04-20T14:13:17.001Z</time></trkpt><trkpt lat="43.61278675967716" lon="12.326475902543828"><ele>724.75</ele><time>2026-04-20T14:13:18.001Z</time></trkpt><trkpt lat="43.61288577795054" lon="12.326554240395394"><ele>722.5</ele><time>2026-04-20T14:13:19.001Z</time></trkpt><trkpt lat="43.61298076143426" lon="12.326638739636616"><ele>720.25</ele><time>2026-04-20T14:13:20.001Z</time></trkpt><trkpt lat="43.61309011112354" lon="12.326704546429355"><ele>718.0</ele><time>2026-04-20T14:13:21.001Z</time></trkpt><trkpt lat="43.613213667620045" lon="12.32674907953586"><ele>718.0</ele><time>2026-04-20T14:13:22.001Z</time></trkpt><trkpt lat="43.61332536825589" lon="12.3268070492849"><ele>718.0</ele><time>2026-04-20T14:13:23Z</time></trkpt><trkpt lat="43.61341260940579" lon="12.3268749410159"><ele>718.0</ele><time>2026-04-20T14:13:24Z</time></trkpt><trkpt lat="43.61347972470381" lon="12.326954103034813"><ele>718.0</ele><time>2026-04-20T14:13:25Z</time></trkpt><trkpt lat="43.61353204276197" lon="12.327046647056774"><ele>718.0</ele><time>2026-04-20T14:13:26Z</time></trkpt><trkpt lat="43.613582608499684" lon="12.327110949092223"><ele>715.5999999999999</ele><time>2026-04-20T14:13:27Z</time></trkpt><trkpt lat="43.61368935448805" lon="12.327102120616711"><ele>713.1999999999999</ele><time>2026-04-20T14:13:29Z</time></trkpt><trkpt lat="43.61373676503392" lon="12.327031908439208"><ele>710.8</ele><time>2026-04-20T14:13:30Z</time></trkpt><trkpt lat="43.61379151863042" lon="12.326929533594583"><ele>708.4</ele><time>2026-04-20T14:13:31Z</time></trkpt><trkpt lat="43.61385383228302" lon="12.326804401672602"><ele>706.0</ele><time>2026-04-20T14:13:32Z</time></trkpt><trkpt lat="43.613921483827795" lon="12.326663604786757"><ele>706.0</ele><time>2026-04-20T14:13:33Z</time></trkpt><trkpt lat="43.61398503768569" lon="12.326522811180196"><ele>706.0</ele><time>2026-04-20T14:13:34Z</time></trkpt><trkpt lat="43.61404244005884" lon="12.326370028469245"><ele>706.0</ele><time>2026-04-20T14:13:35Z</time></trkpt><trkpt lat="43.61410125845464" lon="12.326213410391727"><ele>706.0</ele><time>2026-04-20T14:13:36Z</time></trkpt><trkpt lat="43.61416351712352" lon="12.32605769956233"><ele>708.75</ele><time>2026-04-20T14:13:37Z</time></trkpt><trkpt lat="43.61422661384036" lon="12.325891800779111"><ele>711.5</ele><time>2026-04-20T14:13:38Z</time></trkpt><trkpt lat="43.6142943289424" lon="12.325718698318264"><ele>714.25</ele><time>2026-04-20T14:13:39Z</time></trkpt><trkpt lat="43.6143702343263" lon="12.325538969980135"><ele>717.0</ele><time>2026-04-20T14:13:40Z</time></trkpt><trkpt lat="43.61444819454289" lon="12.325366554085921"><ele>711.0</ele><time>2026-04-20T14:13:41Z</time></trkpt><trkpt lat="43.61452812451146" lon="12.325200578345928"><ele>705.0</ele><time>2026-04-20T14:13:42Z</time></trkpt><trkpt lat="43.61460415623757" lon="12.325034107471698"><ele>699.0</ele><time>2026-04-20T14:13:43Z</time></trkpt><trkpt lat="43.614671045502966" lon="12.32488346658493"><ele>693.0</ele><time>2026-04-20T14:13:44Z</time></trkpt><trkpt lat="43.6147321596462" lon="12.324740244957596"><ele>694.8</ele><time>2026-04-20T14:13:45Z</time></trkpt><trkpt lat="43.61478243642248" lon="12.324609716476266"><ele>696.5999999999999</ele><time>2026-04-20T14:13:46Z</time></trkpt><trkpt lat="43.61481709423438" lon="12.324477824444376"><ele>698.4000000000001</ele><time>2026-04-20T14:13:47Z</time></trkpt><trkpt lat="43.61483597891512" lon="12.324342143582856"><ele>700.2</ele><time>2026-04-20T14:13:48Z</time></trkpt><trkpt lat="43.614849350344485" lon="12.324189981010809"><ele>702.0</ele><time>2026-04-20T14:13:49Z</time></trkpt><trkpt lat="43.61484911629257" lon="12.324031449236559"><ele>704.0</ele><time>2026-04-20T14:13:50Z</time></trkpt><trkpt lat="43.61483762684662" lon="12.323870366214445"><ele>706.0</ele><time>2026-04-20T14:13:51Z</time></trkpt><trkpt lat="43.614815310852975" lon="12.323719928731526"><ele>708.0</ele><time>2026-04-20T14:13:52Z</time></trkpt><trkpt lat="43.61477155514528" lon="12.323563704415827"><ele>710.0</ele><time>2026-04-20T14:13:53Z</time></trkpt><trkpt lat="43.61473289736737" lon="12.32339542451755"><ele>710.0</ele><time>2026-04-20T14:13:54Z</time></trkpt><trkpt lat="43.61470387718926" lon="12.323215643086158"><ele>710.0</ele><time>2026-04-20T14:13:55Z</time></trkpt><trkpt lat="43.61468116465673" lon="12.32303603349553"><ele>710.0</ele><time>2026-04-20T14:13:56Z</time></trkpt><trkpt lat="43.614667124675584" lon="12.322878601132603"><ele>710.0</ele><time>2026-04-20T14:13:57Z</time></trkpt><trkpt lat="43.61465395945547" lon="12.322736156072482"><ele>712.4</ele><time>2026-04-20T14:13:58Z</time></trkpt><trkpt lat="43.61464183273997" lon="12.322624465350854"><ele>714.8</ele><time>2026-04-20T14:13:59Z</time></trkpt><trkpt lat="43.61465531033194" lon="12.322528566292348"><ele>717.2</ele><time>2026-04-20T14:14:00Z</time></trkpt><trkpt lat="43.61469581652078" lon="12.322461490754147"><ele>719.6</ele><time>2026-04-20T14:14:01Z</time></trkpt><trkpt lat="43.614805255175526" lon="12.322469040711542"><ele>722.0</ele><time>2026-04-20T14:14:03Z</time></trkpt><trkpt lat="43.61488471835168" lon="12.322609672783516"><ele>722.0</ele><time>2026-04-20T14:14:05Z</time></trkpt><trkpt lat="43.61493334213098" lon="12.322713206315006"><ele>722.0</ele><time>2026-04-20T14:14:06Z</time></trkpt><trkpt lat="43.61499737371737" lon="12.322835214589732"><ele>722.0</ele><time>2026-04-20T14:14:07Z</time></trkpt><trkpt lat="43.61507935263993" lon="12.322976803603936"><ele>722.0</ele><time>2026-04-20T14:14:08Z</time></trkpt><trkpt lat="43.615144142072175" lon="12.323070290420112"><ele>722.0</ele><time>2026-04-20T14:14:09Z</time></trkpt><trkpt lat="43.61525099796441" lon="12.323154777850363"><ele>719.5</ele><time>2026-04-20T14:14:11Z</time></trkpt><trkpt lat="43.615368717026776" lon="12.323288400336162"><ele>717.0</ele><time>2026-04-20T14:14:12Z</time></trkpt><trkpt lat="43.61546457904762" lon="12.323326179473947"><ele>714.5</ele><time>2026-04-20T14:14:13Z</time></trkpt><trkpt lat="43.61553533672852" lon="12.323326420532176"><ele>712.0</ele><time>2026-04-20T14:14:14Z</time></trkpt><trkpt lat="43.61567247313084" lon="12.323237859499672"><ele>712.0</ele><time>2026-04-20T14:14:16Z</time></trkpt><trkpt lat="43.61575340968725" lon="12.323161815314155"><ele>712.0</ele><time>2026-04-20T14:14:17Z</time></trkpt><trkpt lat="43.615849147075394" lon="12.323060614010437"><ele>712.0</ele><time>2026-04-20T14:14:18Z</time></trkpt><trkpt lat="43.615967737628516" lon="12.32299200984097"><ele>712.0</ele><time>2026-04-20T14:14:19Z</time></trkpt><trkpt lat="43.61608791160415" lon="12.322975295876857"><ele>716.0</ele><time>2026-04-20T14:14:20Z</time></trkpt><trkpt lat="43.61619650214623" lon="12.322986325990454"><ele>720.0</ele><time>2026-04-20T14:14:21Z</time></trkpt><trkpt lat="43.61629474564165" lon="12.323017745024067"><ele>724.0</ele><time>2026-04-20T14:14:22Z</time></trkpt><trkpt lat="43.61637294136406" lon="12.323082595883315"><ele>728.0</ele><time>2026-04-20T14:14:23Z</time></trkpt><trkpt lat="43.61646562673959" lon="12.323184036090286"><ele>732.0</ele><time>2026-04-20T14:14:24Z</time></trkpt><trkpt lat="43.61653704290524" lon="12.323257081810324"><ele>732.0</ele><time>2026-04-20T14:14:25Z</time></trkpt><trkpt lat="43.616606387501804" lon="12.323288244771557"><ele>732.0</ele><time>2026-04-20T14:14:26.001Z</time></trkpt><trkpt lat="43.616669406016115" lon="12.323304173500153"><ele>732.0</ele><time>2026-04-20T14:14:27.001Z</time></trkpt><trkpt lat="43.61674231328482" lon="12.323385537236495"><ele>732.0</ele><time>2026-04-20T14:14:29.001Z</time></trkpt><trkpt lat="43.61668576063655" lon="12.323540954516991"><ele>732.0</ele><time>2026-04-20T14:14:31.001Z</time></trkpt><trkpt lat="43.616622776500286" lon="12.323642950977263"><ele>732.0</ele><time>2026-04-20T14:14:32.001Z</time></trkpt><trkpt lat="43.616576260378906" lon="12.323750994076208"><ele>732.0</ele><time>2026-04-20T14:14:33.001Z</time></trkpt><trkpt lat="43.616550416639285" lon="12.323898641017854"><ele>732.0</ele><time>2026-04-20T14:14:34.001Z</time></trkpt><trkpt lat="43.61655650029312" lon="12.324068458102158"><ele>732.0</ele><time>2026-04-20T14:14:35.001Z</time></trkpt><trkpt lat="43.61657118484674" lon="12.324212810171948"><ele>732.0</ele><time>2026-04-20T14:14:36.001Z</time></trkpt><trkpt lat="43.616599812045486" lon="12.324348225403575"><ele>732.2</ele><time>2026-04-20T14:14:37.001Z</time></trkpt><trkpt lat="43.61663722364896" lon="12.324477035221825"><ele>732.4000000000001</ele><time>2026-04-20T14:14:38.001Z</time></trkpt><trkpt lat="43.616689749830215" lon="12.324554020703019"><ele>732.5999999999999</ele><time>2026-04-20T14:14:39.001Z</time></trkpt><trkpt lat="43.61675616194442" lon="12.324626442516625"><ele>732.8</ele><time>2026-04-20T14:14:40.001Z</time></trkpt><trkpt lat="43.61683225803528" lon="12.324709596526846"><ele>733.0</ele><time>2026-04-20T14:14:41.001Z</time></trkpt><trkpt lat="43.616900506047976" lon="12.32482801081692"><ele>732.2</ele><time>2026-04-20T14:14:42.001Z</time></trkpt><trkpt lat="43.616949829825174" lon="12.324963077522918"><ele>731.4</ele><time>2026-04-20T14:14:43.001Z</time></trkpt><trkpt lat="43.616976185513074" lon="12.325109695429463"><ele>730.6</ele><time>2026-04-20T14:14:44.001Z</time></trkpt><trkpt lat="43.61698578336827" lon="12.325239725339127"><ele>729.8000000000001</ele><time>2026-04-20T14:14:45.001Z</time></trkpt><trkpt lat="43.61700491878537" lon="12.325332775620126"><ele>729.0</ele><time>2026-04-20T14:14:46.001Z</time></trkpt><trkpt lat="43.617066036441635" lon="12.325392387063903"><ele>729.2</ele><time>2026-04-20T14:14:47.001Z</time></trkpt><trkpt lat="43.6171657569466" lon="12.32546880518434"><ele>729.4000000000001</ele><time>2026-04-20T14:14:48.001Z</time></trkpt><trkpt lat="43.617259576552975" lon="12.325580927443104"><ele>729.6</ele><time>2026-04-20T14:14:49.001Z</time></trkpt><trkpt lat="43.61734450705812" lon="12.325653480395912"><ele>729.8</ele><time>2026-04-20T14:14:50.001Z</time></trkpt><trkpt lat="43.61740629542026" lon="12.325684530828632"><ele>730.0</ele><time>2026-04-20T14:14:51.001Z</time></trkpt><trkpt lat="43.6175271278926" lon="12.325665844845934"><ele>730.0</ele><time>2026-04-20T14:14:53.001Z</time></trkpt><trkpt lat="43.61759209239533" lon="12.325610348087869"><ele>730.0</ele><time>2026-04-20T14:14:54.001Z</time></trkpt><trkpt lat="43.61762913222327" lon="12.32550439702015"><ele>730.0</ele><time>2026-04-20T14:14:55.001Z</time></trkpt><trkpt lat="43.61765211404681" lon="12.325419186165679"><ele>730.0</ele><time>2026-04-20T14:14:56.001Z</time></trkpt><trkpt lat="43.61775020247501" lon="12.325333517238448"><ele>730.0</ele><time>2026-04-20T14:14:58.001Z</time></trkpt><trkpt lat="43.617882733601434" lon="12.32534590107879"><ele>731.6</ele><time>2026-04-20T14:15:00.001Z</time></trkpt><trkpt lat="43.61797321488945" lon="12.325397287386636"><ele>733.2</ele><time>2026-04-20T14:15:01.001Z</time></trkpt><trkpt lat="43.61806595160885" lon="12.325475610024753"><ele>734.8</ele><time>2026-04-20T14:15:02.001Z</time></trkpt><trkpt lat="43.61813893849694" lon="12.325568239415679"><ele>736.4</ele><time>2026-04-20T14:15:03.001Z</time></trkpt><trkpt lat="43.618184947116006" lon="12.325688435621085"><ele>738.0</ele><time>2026-04-20T14:15:04.001Z</time></trkpt><trkpt lat="43.61821725833571" lon="12.325834839937906"><ele>738.0</ele><time>2026-04-20T14:15:05.001Z</time></trkpt><trkpt lat="43.618243890572565" lon="12.325981216464754"><ele>738.0</ele><time>2026-04-20T14:15:06.001Z</time></trkpt><trkpt lat="43.61828156392815" lon="12.326082660956498"><ele>738.0</ele><time>2026-04-20T14:15:07.001Z</time></trkpt><trkpt lat="43.61833382297629" lon="12.326136633238999"><ele>738.0</ele><time>2026-04-20T14:15:08.001Z</time></trkpt><trkpt lat="43.61847891709618" lon="12.3261231724819"><ele>738.0</ele><time>2026-04-20T14:15:10.001Z</time></trkpt><trkpt lat="43.61858631955341" lon="12.326045391896807"><ele>741.0</ele><time>2026-04-20T14:15:11.001Z</time></trkpt><trkpt lat="43.618694396567925" lon="12.325965347938276"><ele>744.0</ele><time>2026-04-20T14:15:12.001Z</time></trkpt><trkpt lat="43.61880885709938" lon="12.325922368029131"><ele>747.0</ele><time>2026-04-20T14:15:13.001Z</time></trkpt><trkpt lat="43.618919445089176" lon="12.325882119232771"><ele>750.0</ele><time>2026-04-20T14:15:14.001Z</time></trkpt><trkpt lat="43.619035753917316" lon="12.325874855832911"><ele>750.0</ele><time>2026-04-20T14:15:16.001Z</time></trkpt><trkpt lat="43.61909616689" lon="12.325984119076537"><ele>750.0</ele><time>2026-04-20T14:15:18.001Z</time></trkpt><trkpt lat="43.61910431579102" lon="12.326072952289362"><ele>750.0</ele><time>2026-04-20T14:15:19.001Z</time></trkpt><trkpt lat="43.619083445152285" lon="12.326161778321751"><ele>750.0</ele><time>2026-04-20T14:15:20.001Z</time></trkpt><trkpt lat="43.61907825150451" lon="12.326253178880338"><ele>750.0</ele><time>2026-04-20T14:15:21.001Z</time></trkpt><trkpt lat="43.6190914494989" lon="12.326354132277148"><ele>750.0</ele><time>2026-04-20T14:15:22.001Z</time></trkpt><trkpt lat="43.61908495912591" lon="12.32647103393808"><ele>748.0</ele><time>2026-04-20T14:15:23.001Z</time></trkpt><trkpt lat="43.61909179764675" lon="12.326622639609571"><ele>746.0</ele><time>2026-04-20T14:15:24.001Z</time></trkpt><trkpt lat="43.61910082815045" lon="12.326789248163843"><ele>744.0</ele><time>2026-04-20T14:15:25.001Z</time></trkpt><trkpt lat="43.61910629911068" lon="12.326977849879054"><ele>742.0</ele><time>2026-04-20T14:15:26.001Z</time></trkpt><trkpt lat="43.619101329483094" lon="12.327170582509206"><ele>739.8</ele><time>2026-04-20T14:15:27.001Z</time></trkpt><trkpt lat="43.619087381238884" lon="12.32733396788701"><ele>737.6</ele><time>2026-04-20T14:15:28.001Z</time></trkpt><trkpt lat="43.61906860959613" lon="12.327466469047692"><ele>735.4</ele><time>2026-04-20T14:15:29.001Z</time></trkpt><trkpt lat="43.6190606151824" lon="12.327557621145342"><ele>733.1999999999999</ele><time>2026-04-20T14:15:30.001Z</time></trkpt><trkpt lat="43.61910032464523" lon="12.327675377233787"><ele>731.0</ele><time>2026-04-20T14:15:32.001Z</time></trkpt><trkpt lat="43.619181004657364" lon="12.32771752563799"><ele>731.0</ele><time>2026-04-20T14:15:33.001Z</time></trkpt><trkpt lat="43.61929760830081" lon="12.32765411818327"><ele>731.0</ele><time>2026-04-20T14:15:34.001Z</time></trkpt><trkpt lat="43.619385932348806" lon="12.327521212271662"><ele>731.0</ele><time>2026-04-20T14:15:35.001Z</time></trkpt><trkpt lat="43.619450527977925" lon="12.32741373157891"><ele>731.0</ele><time>2026-04-20T14:15:36.001Z</time></trkpt><trkpt lat="43.61950716233283" lon="12.327339723173822"><ele>731.0</ele><time>2026-04-20T14:15:37Z</time></trkpt><trkpt lat="43.61957196062583" lon="12.327280674605245"><ele>732.8</ele><time>2026-04-20T14:15:38Z</time></trkpt><trkpt lat="43.61964655594663" lon="12.32728743070206"><ele>734.5999999999999</ele><time>2026-04-20T14:15:39Z</time></trkpt><trkpt lat="43.61975080517596" lon="12.327264833332794"><ele>736.4</ele><time>2026-04-20T14:15:40Z</time></trkpt><trkpt lat="43.61987706653484" lon="12.327263416299534"><ele>738.2</ele><time>2026-04-20T14:15:41Z</time></trkpt><trkpt lat="43.620007244446434" lon="12.327262238322714"><ele>740.0</ele><time>2026-04-20T14:15:42Z</time></trkpt><trkpt lat="43.62013437880011" lon="12.327286593174216"><ele>740.0</ele><time>2026-04-20T14:15:43Z</time></trkpt><trkpt lat="43.62025832120329" lon="12.327351356196202"><ele>740.0</ele><time>2026-04-20T14:15:44Z</time></trkpt><trkpt lat="43.62037867663633" lon="12.327450516973112"><ele>740.0</ele><time>2026-04-20T14:15:45Z</time></trkpt><trkpt lat="43.6204935487021" lon="12.327559882380152"><ele>740.0</ele><time>2026-04-20T14:15:46Z</time></trkpt><trkpt lat="43.620589453388064" lon="12.32768025590438"><ele>742.5</ele><time>2026-04-20T14:15:47Z</time></trkpt><trkpt lat="43.62066546549855" lon="12.327820044005524"><ele>745.0</ele><time>2026-04-20T14:15:48Z</time></trkpt><trkpt lat="43.62072044931751" lon="12.32798432222217"><ele>747.5</ele><time>2026-04-20T14:15:49Z</time></trkpt><trkpt lat="43.62076757821561" lon="12.32816101134233"><ele>750.0</ele><time>2026-04-20T14:15:50Z</time></trkpt><trkpt lat="43.62079613445001" lon="12.328321390258314"><ele>750.0</ele><time>2026-04-20T14:15:51Z</time></trkpt><trkpt lat="43.620822747486855" lon="12.328459546212029"><ele>750.0</ele><time>2026-04-20T14:15:52Z</time></trkpt><trkpt lat="43.620833743644994" lon="12.328582387013585"><ele>750.0</ele><time>2026-04-20T14:15:53Z</time></trkpt><trkpt lat="43.62082681758543" lon="12.328687968264035"><ele>750.0</ele><time>2026-04-20T14:15:54Z</time></trkpt><trkpt lat="43.62079409311987" lon="12.328773485333118"><ele>750.0</ele><time>2026-04-20T14:15:55Z</time></trkpt><trkpt lat="43.620730041503826" lon="12.328820038787471"><ele>750.0</ele><time>2026-04-20T14:15:56Z</time></trkpt><trkpt lat="43.620629448144804" lon="12.32877863220925"><ele>750.0</ele><time>2026-04-20T14:15:57Z</time></trkpt><trkpt lat="43.62053313690286" lon="12.328810941624157"><ele>750.0</ele><time>2026-04-20T14:15:58Z</time></trkpt><trkpt lat="43.62047211658858" lon="12.328867757323263"><ele>750.0</ele><time>2026-04-20T14:15:59Z</time></trkpt><trkpt lat="43.62046051473117" lon="12.32899162436749"><ele>750.0</ele><time>2026-04-20T14:16:00Z</time></trkpt><trkpt lat="43.62045841695915" lon="12.329108673545436"><ele>750.0</ele><time>2026-04-20T14:16:01Z</time></trkpt><trkpt lat="43.620477446888174" lon="12.329259736032657"><ele>750.25</ele><time>2026-04-20T14:16:02Z</time></trkpt><trkpt lat="43.620506707328566" lon="12.329420227902927"><ele>750.5</ele><time>2026-04-20T14:16:03Z</time></trkpt><trkpt lat="43.620521747806144" lon="12.32956471626914"><ele>750.75</ele><time>2026-04-20T14:16:04Z</time></trkpt><trkpt lat="43.62047468413417" lon="12.329695713110157"><ele>751.0</ele><time>2026-04-20T14:16:05Z</time></trkpt><trkpt lat="43.62042723935919" lon="12.32985203412786"><ele>752.75</ele><time>2026-04-20T14:16:06Z</time></trkpt><trkpt lat="43.620388209760925" lon="12.330045915306513"><ele>754.5</ele><time>2026-04-20T14:16:07Z</time></trkpt><trkpt lat="43.62035120563316" lon="12.330214942568462"><ele>756.25</ele><time>2026-04-20T14:16:08Z</time></trkpt><trkpt lat="43.62032269182182" lon="12.330325421405043"><ele>758.0</ele><time>2026-04-20T14:16:09Z</time></trkpt><trkpt lat="43.62022917894014" lon="12.330371957125191"><ele>754.5</ele><time>2026-04-20T14:16:11Z</time></trkpt><trkpt lat="43.62014962569894" lon="12.330248126429671"><ele>751.0</ele><time>2026-04-20T14:16:13Z</time></trkpt><trkpt lat="43.62005585179971" lon="12.330156471085829"><ele>747.5</ele><time>2026-04-20T14:16:14Z</time></trkpt><trkpt lat="43.61993858402299" lon="12.330026621568644"><ele>744.0</ele><time>2026-04-20T14:16:15Z</time></trkpt><trkpt lat="43.619815891493836" lon="12.329930419917632"><ele>744.0</ele><time>2026-04-20T14:16:16Z</time></trkpt><trkpt lat="43.6197011561828" lon="12.32985214830319"><ele>744.0</ele><time>2026-04-20T14:16:17Z</time></trkpt><trkpt lat="43.619572610242315" lon="12.32979865172881"><ele>744.0</ele><time>2026-04-20T14:16:18Z</time></trkpt><trkpt lat="43.61946031048317" lon="12.32974044170386"><ele>744.0</ele><time>2026-04-20T14:16:19Z</time></trkpt><trkpt lat="43.61935615328035" lon="12.32970140062508"><ele>743.0</ele><time>2026-04-20T14:16:20Z</time></trkpt><trkpt lat="43.619257819199724" lon="12.329706068581272"><ele>742.0</ele><time>2026-04-20T14:16:21Z</time></trkpt><trkpt lat="43.61916072913628" lon="12.329748270765444"><ele>741.0</ele><time>2026-04-20T14:16:22Z</time></trkpt><trkpt lat="43.61906254739334" lon="12.32980684882519"><ele>740.0</ele><time>2026-04-20T14:16:23Z</time></trkpt><trkpt lat="43.618996565752454" lon="12.329871623632327"><ele>739.0</ele><time>2026-04-20T14:16:24Z</time></trkpt><trkpt lat="43.61895466795194" lon="12.329948112560038"><ele>739.0</ele><time>2026-04-20T14:16:25Z</time></trkpt><trkpt lat="43.618947025235755" lon="12.330035296152838"><ele>739.0</ele><time>2026-04-20T14:16:26Z</time></trkpt><trkpt lat="43.61894527226521" lon="12.330160582855642"><ele>739.0</ele><time>2026-04-20T14:16:27Z</time></trkpt><trkpt lat="43.61893348095912" lon="12.330325860078808"><ele>739.0</ele><time>2026-04-20T14:16:28Z</time></trkpt><trkpt lat="43.61889069783909" lon="12.33047182377842"><ele>739.0</ele><time>2026-04-20T14:16:29Z</time></trkpt><trkpt lat="43.61879910317844" lon="12.33056722481566"><ele>741.3333333333334</ele><time>2026-04-20T14:16:30Z</time></trkpt><trkpt lat="43.618753956227884" lon="12.33067625559649"><ele>743.6666666666667</ele><time>2026-04-20T14:16:31Z</time></trkpt><trkpt lat="43.61871775485327" lon="12.33075436068902"><ele>746.0</ele><time>2026-04-20T14:16:32Z</time></trkpt><trkpt lat="43.61872139893766" lon="12.330847865629991"><ele>748.3333333333334</ele><time>2026-04-20T14:16:33Z</time></trkpt><trkpt lat="43.618755487620085" lon="12.33095875791263"><ele>750.6666666666666</ele><time>2026-04-20T14:16:34Z</time></trkpt><trkpt lat="43.618754409791045" lon="12.331069916753357"><ele>753.0</ele><time>2026-04-20T14:16:35Z</time></trkpt><trkpt lat="43.618701681179886" lon="12.331119227263173"><ele>750.25</ele><time>2026-04-20T14:16:36Z</time></trkpt><trkpt lat="43.61857173457852" lon="12.331117084030831"><ele>747.5</ele><time>2026-04-20T14:16:38Z</time></trkpt><trkpt lat="43.61847579763389" lon="12.331086229057815"><ele>744.75</ele><time>2026-04-20T14:16:39Z</time></trkpt><trkpt lat="43.618349225099834" lon="12.331035873417278"><ele>742.0</ele><time>2026-04-20T14:16:40Z</time></trkpt><trkpt lat="43.61822375231724" lon="12.3309772216695"><ele>742.0</ele><time>2026-04-20T14:16:41Z</time></trkpt><trkpt lat="43.618089539834145" lon="12.3309113796146"><ele>742.0</ele><time>2026-04-20T14:16:42Z</time></trkpt><trkpt lat="43.617947701716275" lon="12.33084109460001"><ele>742.0</ele><time>2026-04-20T14:16:43Z</time></trkpt><trkpt lat="43.61780140865674" lon="12.330761466788083"><ele>741.75</ele><time>2026-04-20T14:16:44Z</time></trkpt><trkpt lat="43.61766524499911" lon="12.330663923989317"><ele>741.5</ele><time>2026-04-20T14:16:45Z</time></trkpt><trkpt lat="43.61754383918655" lon="12.33057454277975"><ele>741.25</ele><time>2026-04-20T14:16:46Z</time></trkpt><trkpt lat="43.61743607456964" lon="12.330499379224575"><ele>741.0</ele><time>2026-04-20T14:16:47Z</time></trkpt><trkpt lat="43.61733632788506" lon="12.330448417722819"><ele>741.0</ele><time>2026-04-20T14:16:48Z</time></trkpt><trkpt lat="43.617243409294495" lon="12.330434410834098"><ele>741.0</ele><time>2026-04-20T14:16:49Z</time></trkpt><trkpt lat="43.617174026452155" lon="12.330443371159546"><ele>741.0</ele><time>2026-04-20T14:16:50Z</time></trkpt><trkpt lat="43.61707291479446" lon="12.330558170755783"><ele>741.0</ele><time>2026-04-20T14:16:52Z</time></trkpt><trkpt lat="43.61708160573652" lon="12.330708512854375"><ele>741.0</ele><time>2026-04-20T14:16:53Z</time></trkpt><trkpt lat="43.61708207924838" lon="12.330865312281917"><ele>741.0</ele><time>2026-04-20T14:16:54Z</time></trkpt><trkpt lat="43.617068715736096" lon="12.331011400559836"><ele>741.0</ele><time>2026-04-20T14:16:55Z</time></trkpt><trkpt lat="43.61705410355413" lon="12.331118112389795"><ele>741.0</ele><time>2026-04-20T14:16:56Z</time></trkpt><trkpt lat="43.617060882163194" lon="12.331211000601096"><ele>741.0</ele><time>2026-04-20T14:16:57Z</time></trkpt><trkpt lat="43.61710836102996" lon="12.331287077172947"><ele>741.0</ele><time>2026-04-20T14:16:58Z</time></trkpt><trkpt lat="43.617184556382895" lon="12.331350381007965"><ele>741.0</ele><time>2026-04-20T14:16:59Z</time></trkpt><trkpt lat="43.61726948271717" lon="12.331399124834322"><ele>741.0</ele><time>2026-04-20T14:17:00Z</time></trkpt><trkpt lat="43.61736154547359" lon="12.33144817004946"><ele>741.0</ele><time>2026-04-20T14:17:01Z</time></trkpt><trkpt lat="43.617450684515724" lon="12.331502126283437"><ele>741.0</ele><time>2026-04-20T14:17:02Z</time></trkpt><trkpt lat="43.61753769450744" lon="12.331597994128616"><ele>741.0</ele><time>2026-04-20T14:17:03Z</time></trkpt><trkpt lat="43.61760979740598" lon="12.331725258830305"><ele>741.0</ele><time>2026-04-20T14:17:04Z</time></trkpt><trkpt lat="43.617656507773376" lon="12.331867567251845"><ele>741.0</ele><time>2026-04-20T14:17:05Z</time></trkpt><trkpt lat="43.6176842618633" lon="12.332014834132325"><ele>741.0</ele><time>2026-04-20T14:17:06Z</time></trkpt><trkpt lat="43.61767103931229" lon="12.332168206322889"><ele>741.0</ele><time>2026-04-20T14:17:07Z</time></trkpt><trkpt lat="43.61769953370852" lon="12.332327997124915"><ele>741.0</ele><time>2026-04-20T14:17:08Z</time></trkpt><trkpt lat="43.61773450287934" lon="12.33248656912153"><ele>740.0</ele><time>2026-04-20T14:17:09Z</time></trkpt><trkpt lat="43.6177872498897" lon="12.33265797264088"><ele>739.0</ele><time>2026-04-20T14:17:10Z</time></trkpt><trkpt lat="43.61781627192109" lon="12.332814854092124"><ele>738.0</ele><time>2026-04-20T14:17:11Z</time></trkpt><trkpt lat="43.61783096429183" lon="12.332911621339422"><ele>737.0</ele><time>2026-04-20T14:17:12Z</time></trkpt><trkpt lat="43.617916405096445" lon="12.332996628416018"><ele>736.0</ele><time>2026-04-20T14:17:14.001Z</time></trkpt><trkpt lat="43.618028025517866" lon="12.332930649946883"><ele>741.75</ele><time>2026-04-20T14:17:15.001Z</time></trkpt><trkpt lat="43.61814068731848" lon="12.332886796222414"><ele>747.5</ele><time>2026-04-20T14:17:16.001Z</time></trkpt><trkpt lat="43.61825837840059" lon="12.332892348493468"><ele>753.25</ele><time>2026-04-20T14:17:17.001Z</time></trkpt><trkpt lat="43.61837473326299" lon="12.332944274475185"><ele>759.0</ele><time>2026-04-20T14:17:18.001Z</time></trkpt><trkpt lat="43.618492916669474" lon="12.333025949324423"><ele>756.6666666666666</ele><time>2026-04-20T14:17:19.001Z</time></trkpt><trkpt lat="43.61862561041299" lon="12.333117701825593"><ele>754.3333333333333</ele><time>2026-04-20T14:17:20.001Z</time></trkpt><trkpt lat="43.618766324178246" lon="12.333185287181498"><ele>752.0</ele><time>2026-04-20T14:17:21.001Z</time></trkpt><trkpt lat="43.618911383816254" lon="12.33326439574594"><ele>752.0</ele><time>2026-04-20T14:17:22.001Z</time></trkpt><trkpt lat="43.61904773602057" lon="12.33336191786575"><ele>752.0</ele><time>2026-04-20T14:17:23.001Z</time></trkpt><trkpt lat="43.619159753656895" lon="12.333465215069372"><ele>752.0</ele><time>2026-04-20T14:17:24.001Z</time></trkpt><trkpt lat="43.61924291645735" lon="12.33358373374125"><ele>752.0</ele><time>2026-04-20T14:17:25.001Z</time></trkpt><trkpt lat="43.6192835137803" lon="12.333705171407052"><ele>752.0</ele><time>2026-04-20T14:17:26.001Z</time></trkpt><trkpt lat="43.61930566767056" lon="12.333828120241613"><ele>752.0</ele><time>2026-04-20T14:17:27.001Z</time></trkpt><trkpt lat="43.61930633514285" lon="12.333945883858194"><ele>752.0</ele><time>2026-04-20T14:17:28.001Z</time></trkpt><trkpt lat="43.61929219985935" lon="12.334073381581536"><ele>752.0</ele><time>2026-04-20T14:17:29.001Z</time></trkpt><trkpt lat="43.61928398576024" lon="12.334221678254247"><ele>752.0</ele><time>2026-04-20T14:17:30.001Z</time></trkpt><trkpt lat="43.6192735521628" lon="12.334350408232774"><ele>751.2</ele><time>2026-04-20T14:17:31.001Z</time></trkpt><trkpt lat="43.61925702092311" lon="12.334494849349566"><ele>750.4000000000001</ele><time>2026-04-20T14:17:32.001Z</time></trkpt><trkpt lat="43.619243050444766" lon="12.334639937730957"><ele>749.5999999999999</ele><time>2026-04-20T14:17:33.001Z</time></trkpt><trkpt lat="43.61921976697826" lon="12.334770980749624"><ele>748.8</ele><time>2026-04-20T14:17:34.001Z</time></trkpt><trkpt lat="43.61921389717569" lon="12.334889951388812"><ele>748.0</ele><time>2026-04-20T14:17:35.001Z</time></trkpt><trkpt lat="43.61920816724843" lon="12.33498481973401"><ele>748.0</ele><time>2026-04-20T14:17:36.001Z</time></trkpt><trkpt lat="43.619204467918095" lon="12.335110891917113"><ele>748.0</ele><time>2026-04-20T14:17:38.001Z</time></trkpt><trkpt lat="43.6191414341104" lon="12.335174187830216"><ele>748.0</ele><time>2026-04-20T14:17:39.001Z</time></trkpt><trkpt lat="43.61907414299733" lon="12.335305651990724"><ele>748.0</ele><time>2026-04-20T14:17:41.001Z</time></trkpt><trkpt lat="43.61901539464015" lon="12.335448521140265"><ele>748.0</ele><time>2026-04-20T14:17:43.001Z</time></trkpt><trkpt lat="43.61898232991205" lon="12.335529458080446"><ele>749.0</ele><time>2026-04-20T14:17:44.001Z</time></trkpt><trkpt lat="43.61894849631152" lon="12.335615883268487"><ele>750.0</ele><time>2026-04-20T14:17:45.001Z</time></trkpt><trkpt lat="43.61891912718424" lon="12.335710164866365"><ele>751.0</ele><time>2026-04-20T14:17:46.001Z</time></trkpt><trkpt lat="43.618894419001904" lon="12.335809199770656"><ele>752.0</ele><time>2026-04-20T14:17:47.001Z</time></trkpt><trkpt lat="43.61886733712054" lon="12.335919811259807"><ele>753.0</ele><time>2026-04-20T14:17:48.001Z</time></trkpt><trkpt lat="43.61883390016471" lon="12.336040583324667"><ele>754.0</ele><time>2026-04-20T14:17:49.001Z</time></trkpt><trkpt lat="43.61879845471306" lon="12.336156648765442"><ele>754.0</ele><time>2026-04-20T14:17:50.001Z</time></trkpt><trkpt lat="43.61875711579206" lon="12.336266869367206"><ele>754.0</ele><time>2026-04-20T14:17:51.001Z</time></trkpt><trkpt lat="43.61871158883688" lon="12.336369283743833"><ele>754.0</ele><time>2026-04-20T14:17:52.001Z</time></trkpt><trkpt lat="43.618664087723545" lon="12.336474765446253"><ele>754.0</ele><time>2026-04-20T14:17:53.001Z</time></trkpt><trkpt lat="43.61861801283657" lon="12.33657098203318"><ele>754.0</ele><time>2026-04-20T14:17:54.001Z</time></trkpt><trkpt lat="43.6185766993597" lon="12.33665532161041"><ele>754.0</ele><time>2026-04-20T14:17:55Z</time></trkpt><trkpt lat="43.6185290509712" lon="12.336745410637661"><ele>754.1666666666667</ele><time>2026-04-20T14:17:56Z</time></trkpt><trkpt lat="43.61847583778891" lon="12.336831233515737"><ele>754.3333333333334</ele><time>2026-04-20T14:17:57Z</time></trkpt><trkpt lat="43.61839964236414" lon="12.336905247869833"><ele>754.5</ele><time>2026-04-20T14:17:58Z</time></trkpt><trkpt lat="43.618347664693054" lon="12.336994180039945"><ele>754.6666666666666</ele><time>2026-04-20T14:17:59Z</time></trkpt><trkpt lat="43.61827089817363" lon="12.337052181519471"><ele>754.8333333333333</ele><time>2026-04-20T14:18:00Z</time></trkpt><trkpt lat="43.618218493026504" lon="12.337140849376036"><ele>755.0</ele><time>2026-04-20T14:18:01Z</time></trkpt><trkpt lat="43.61815691043044" lon="12.337205345865414"><ele>756.0</ele><time>2026-04-20T14:18:02Z</time></trkpt><trkpt lat="43.618093267881555" lon="12.337282408630564"><ele>757.0</ele><time>2026-04-20T14:18:03Z</time></trkpt><trkpt lat="43.61804197425866" lon="12.337361031418265"><ele>758.0</ele><time>2026-04-20T14:18:04Z</time></trkpt><trkpt lat="43.617998565020336" lon="12.337459455157068"><ele>759.0</ele><time>2026-04-20T14:18:05Z</time></trkpt><trkpt lat="43.61795913749433" lon="12.337571707118862"><ele>760.0</ele><time>2026-04-20T14:18:06Z</time></trkpt><trkpt lat="43.61791896636702" lon="12.337691487362669"><ele>761.0</ele><time>2026-04-20T14:18:07Z</time></trkpt><trkpt lat="43.617898958451676" lon="12.33780071657816"><ele>761.0</ele><time>2026-04-20T14:18:08Z</time></trkpt><trkpt lat="43.617874431461345" lon="12.337905406796267"><ele>761.0</ele><time>2026-04-20T14:18:09Z</time></trkpt><trkpt lat="43.61784605412229" lon="12.338010577599286"><ele>761.0</ele><time>2026-04-20T14:18:10Z</time></trkpt><trkpt lat="43.61781077149843" lon="12.338130256100039"><ele>761.0</ele><time>2026-04-20T14:18:11Z</time></trkpt><trkpt lat="43.617776419121455" lon="12.338260096580242"><ele>761.0</ele><time>2026-04-20T14:18:12Z</time></trkpt><trkpt lat="43.6177371135059" lon="12.338406068443627"><ele>760.0</ele><time>2026-04-20T14:18:13Z</time></trkpt><trkpt lat="43.617698639433556" lon="12.338559230255933"><ele>759.0</ele><time>2026-04-20T14:18:14Z</time></trkpt><trkpt lat="43.617660424399624" lon="12.338716611870979"><ele>758.0</ele><time>2026-04-20T14:18:15Z</time></trkpt><trkpt lat="43.617625215043596" lon="12.338869264548425"><ele>757.0</ele><time>2026-04-20T14:18:16Z</time></trkpt><trkpt lat="43.61758898403036" lon="12.339023912950282"><ele>755.0</ele><time>2026-04-20T14:18:17Z</time></trkpt><trkpt lat="43.61754966496757" lon="12.33918190721997"><ele>753.0</ele><time>2026-04-20T14:18:18Z</time></trkpt><trkpt lat="43.617506182284735" lon="12.339344175053691"><ele>751.0</ele><time>2026-04-20T14:18:19Z</time></trkpt><trkpt lat="43.617468033234935" lon="12.339504256229933"><ele>749.0</ele><time>2026-04-20T14:18:20Z</time></trkpt><trkpt lat="43.61741536879399" lon="12.339645285466457"><ele>746.8000000000001</ele><time>2026-04-20T14:18:21Z</time></trkpt><trkpt lat="43.617393693442715" lon="12.339809646962674"><ele>744.6</ele><time>2026-04-20T14:18:22Z</time></trkpt><trkpt lat="43.61737056298887" lon="12.339950760512943"><ele>742.4</ele><time>2026-04-20T14:18:23Z</time></trkpt><trkpt lat="43.617362868626444" lon="12.340102863512204"><ele>740.2</ele><time>2026-04-20T14:18:24Z</time></trkpt><trkpt lat="43.61735944165291" lon="12.340246725489536"><ele>738.0</ele><time>2026-04-20T14:18:25Z</time></trkpt><trkpt lat="43.61734852511788" lon="12.340387420037231"><ele>738.0</ele><time>2026-04-20T14:18:26Z</time></trkpt><trkpt lat="43.61732441569751" lon="12.340521414170224"><ele>738.0</ele><time>2026-04-20T14:18:27Z</time></trkpt><trkpt lat="43.61728081459461" lon="12.340642260585275"><ele>738.0</ele><time>2026-04-20T14:18:28Z</time></trkpt><trkpt lat="43.61719793553839" lon="12.340735447358965"><ele>738.0</ele><time>2026-04-20T14:18:29Z</time></trkpt><trkpt lat="43.61712759740348" lon="12.340851725058279"><ele>738.0</ele><time>2026-04-20T14:18:30Z</time></trkpt><trkpt lat="43.61708710479855" lon="12.340999600034126"><ele>735.25</ele><time>2026-04-20T14:18:31Z</time></trkpt><trkpt lat="43.61705935970948" lon="12.341140965856901"><ele>732.5</ele><time>2026-04-20T14:18:32Z</time></trkpt><trkpt lat="43.617073948386675" lon="12.341290365173744"><ele>729.75</ele><time>2026-04-20T14:18:33Z</time></trkpt><trkpt lat="43.61711350055244" lon="12.341458723854958"><ele>727.0</ele><time>2026-04-20T14:18:34Z</time></trkpt><trkpt lat="43.61715286241736" lon="12.341635406162716"><ele>726.0</ele><time>2026-04-20T14:18:35Z</time></trkpt><trkpt lat="43.61718956521856" lon="12.341800521718044"><ele>725.0</ele><time>2026-04-20T14:18:36Z</time></trkpt><trkpt lat="43.61720606550055" lon="12.341961964055702"><ele>724.0</ele><time>2026-04-20T14:18:37Z</time></trkpt><trkpt lat="43.61724736279761" lon="12.342106069584743"><ele>723.0</ele><time>2026-04-20T14:18:38Z</time></trkpt><trkpt lat="43.61727757349822" lon="12.342242707735092"><ele>722.8333333333334</ele><time>2026-04-20T14:18:39Z</time></trkpt><trkpt lat="43.61730116260573" lon="12.342375463555776"><ele>722.6666666666666</ele><time>2026-04-20T14:18:40Z</time></trkpt><trkpt lat="43.61732198072702" lon="12.342492415618693"><ele>722.5</ele><time>2026-04-20T14:18:41Z</time></trkpt><trkpt lat="43.6173377380293" lon="12.342601996220527"><ele>722.3333333333333</ele><time>2026-04-20T14:18:42Z</time></trkpt><trkpt lat="43.61734578322153" lon="12.342709166450376"><ele>722.1666666666666</ele><time>2026-04-20T14:18:43Z</time></trkpt><trkpt lat="43.617335356468736" lon="12.342814409395997"><ele>722.0</ele><time>2026-04-20T14:18:44Z</time></trkpt><trkpt lat="43.617302547169174" lon="12.342920908935328"><ele>722.0</ele><time>2026-04-20T14:18:45Z</time></trkpt><trkpt lat="43.61725727536182" lon="12.343043105670384"><ele>722.0</ele><time>2026-04-20T14:18:46Z</time></trkpt><trkpt lat="43.61719412988628" lon="12.343182716820522"><ele>722.0</ele><time>2026-04-20T14:18:47Z</time></trkpt><trkpt lat="43.61711478889703" lon="12.343319353398579"><ele>722.0</ele><time>2026-04-20T14:18:48Z</time></trkpt><trkpt lat="43.61703532865083" lon="12.34343547837344"><ele>722.8</ele><time>2026-04-20T14:18:49Z</time></trkpt><trkpt lat="43.61694573183857" lon="12.343529749005475"><ele>723.6</ele><time>2026-04-20T14:18:50Z</time></trkpt><trkpt lat="43.616866285643574" lon="12.343621933329068"><ele>724.4</ele><time>2026-04-20T14:18:51Z</time></trkpt><trkpt lat="43.616789334710475" lon="12.343711561117386"><ele>725.1999999999999</ele><time>2026-04-20T14:18:52Z</time></trkpt><trkpt lat="43.616706719926924" lon="12.343805067717728"><ele>726.0</ele><time>2026-04-20T14:18:53Z</time></trkpt><trkpt lat="43.616612802967865" lon="12.343890881093639"><ele>721.5999999999999</ele><time>2026-04-20T14:18:54Z</time></trkpt><trkpt lat="43.61651746740162" lon="12.343961260833845"><ele>717.2</ele><time>2026-04-20T14:18:55Z</time></trkpt><trkpt lat="43.616435407977875" lon="12.344025650865694"><ele>712.8</ele><time>2026-04-20T14:18:56Z</time></trkpt><trkpt lat="43.616364024094636" lon="12.344102209926296"><ele>708.4000000000001</ele><time>2026-04-20T14:18:57Z</time></trkpt><trkpt lat="43.616297602030414" lon="12.344188670271524"><ele>704.0</ele><time>2026-04-20T14:18:58Z</time></trkpt><trkpt lat="43.6162342010938" lon="12.34426081916255"><ele>704.0</ele><time>2026-04-20T14:18:59Z</time></trkpt><trkpt lat="43.61617046209143" lon="12.344329694392929"><ele>704.0</ele><time>2026-04-20T14:19:00Z</time></trkpt><trkpt lat="43.616062684725144" lon="12.344357663065734"><ele>704.0</ele><time>2026-04-20T14:19:02Z</time></trkpt><trkpt lat="43.61599280838359" lon="12.344204437466127"><ele>704.0</ele><time>2026-04-20T14:19:04Z</time></trkpt><trkpt lat="43.6159197097785" lon="12.344104586556893"><ele>704.0</ele><time>2026-04-20T14:19:05Z</time></trkpt><trkpt lat="43.61583675602067" lon="12.343991273594328"><ele>704.2</ele><time>2026-04-20T14:19:06Z</time></trkpt><trkpt lat="43.615748284263425" lon="12.343881139825596"><ele>704.4000000000001</ele><time>2026-04-20T14:19:07Z</time></trkpt><trkpt lat="43.61566603398955" lon="12.343788969195732"><ele>704.6</ele><time>2026-04-20T14:19:08Z</time></trkpt><trkpt lat="43.61558386071405" lon="12.34371416911635"><ele>704.8</ele><time>2026-04-20T14:19:09Z</time></trkpt><trkpt lat="43.61550882263164" lon="12.343665219440442"><ele>705.0</ele><time>2026-04-20T14:19:10Z</time></trkpt><trkpt lat="43.61542961884628" lon="12.343648325116627"><ele>704.0</ele><time>2026-04-20T14:19:11Z</time></trkpt><trkpt lat="43.615353469705134" lon="12.343708572964706"><ele>703.0</ele><time>2026-04-20T14:19:12Z</time></trkpt><trkpt lat="43.61528713223113" lon="12.343798792709022"><ele>702.0</ele><time>2026-04-20T14:19:13Z</time></trkpt><trkpt lat="43.6152053959903" lon="12.343923531079144"><ele>701.0</ele><time>2026-04-20T14:19:14Z</time></trkpt><trkpt lat="43.61512182570565" lon="12.344058194604482"><ele>700.0</ele><time>2026-04-20T14:19:15Z</time></trkpt><trkpt lat="43.6150424697102" lon="12.34419268884905"><ele>700.0</ele><time>2026-04-20T14:19:16Z</time></trkpt><trkpt lat="43.6149535548411" lon="12.34432706402776"><ele>700.0</ele><time>2026-04-20T14:19:17Z</time></trkpt><trkpt lat="43.614860839030904" lon="12.344455175269719"><ele>700.0</ele><time>2026-04-20T14:19:18Z</time></trkpt><trkpt lat="43.61477040040093" lon="12.34457699829208"><ele>700.0</ele><time>2026-04-20T14:19:19Z</time></trkpt><trkpt lat="43.61467716613239" lon="12.344680866651478"><ele>697.6</ele><time>2026-04-20T14:19:20Z</time></trkpt><trkpt lat="43.61458682782387" lon="12.344783599602279"><ele>695.2</ele><time>2026-04-20T14:19:21Z</time></trkpt><trkpt lat="43.6145020487744" lon="12.344883048123885"><ele>692.8</ele><time>2026-04-20T14:19:22Z</time></trkpt><trkpt lat="43.61442852932635" lon="12.344975433785313"><ele>690.4</ele><time>2026-04-20T14:19:23Z</time></trkpt><trkpt lat="43.61435136692988" lon="12.345051798424887"><ele>688.0</ele><time>2026-04-20T14:19:24Z</time></trkpt><trkpt lat="43.61428051530535" lon="12.345074537396501"><ele>688.0</ele><time>2026-04-20T14:19:25Z</time></trkpt><trkpt lat="43.61421587518722" lon="12.345103333281498"><ele>688.0</ele><time>2026-04-20T14:19:26Z</time></trkpt><trkpt lat="43.61414596934797" lon="12.345040318707325"><ele>688.0</ele><time>2026-04-20T14:19:27.001Z</time></trkpt><trkpt lat="43.6140778294794" lon="12.344950523066066"><ele>688.0</ele><time>2026-04-20T14:19:28.001Z</time></trkpt><trkpt lat="43.613970670286626" lon="12.34485629563025"><ele>688.0</ele><time>2026-04-20T14:19:29.001Z</time></trkpt><trkpt lat="43.6138639923133" lon="12.3447504825349"><ele>688.75</ele><time>2026-04-20T14:19:30.001Z</time></trkpt><trkpt lat="43.613767770054174" lon="12.34461638172878"><ele>689.5</ele><time>2026-04-20T14:19:31.001Z</time></trkpt><trkpt lat="43.613675961321825" lon="12.344487413198832"><ele>690.25</ele><time>2026-04-20T14:19:32.001Z</time></trkpt><trkpt lat="43.613596968617195" lon="12.344376439566886"><ele>691.0</ele><time>2026-04-20T14:19:33.001Z</time></trkpt><trkpt lat="43.6135209617424" lon="12.344267812886027"><ele>691.0</ele><time>2026-04-20T14:19:34.001Z</time></trkpt><trkpt lat="43.61341221280289" lon="12.344198981508736"><ele>691.0</ele><time>2026-04-20T14:19:35Z</time></trkpt><trkpt lat="43.61331338206393" lon="12.344127907585085"><ele>691.0</ele><time>2026-04-20T14:19:36Z</time></trkpt><trkpt lat="43.613215488773875" lon="12.344060915423466"><ele>691.0</ele><time>2026-04-20T14:19:37Z</time></trkpt><trkpt lat="43.613095794023" lon="12.344036119941066"><ele>691.0</ele><time>2026-04-20T14:19:38Z</time></trkpt><trkpt lat="43.61296604061075" lon="12.343993900965275"><ele>691.0</ele><time>2026-04-20T14:19:39Z</time></trkpt><trkpt lat="43.61284916268838" lon="12.343941412789565"><ele>691.0</ele><time>2026-04-20T14:19:40Z</time></trkpt><trkpt lat="43.61273374421612" lon="12.343930485546483"><ele>691.0</ele><time>2026-04-20T14:19:41Z</time></trkpt><trkpt lat="43.61261250532078" lon="12.34393717672823"><ele>693.1999999999999</ele><time>2026-04-20T14:19:42Z</time></trkpt><trkpt lat="43.61250254387552" lon="12.343962149313967"><ele>695.4</ele><time>2026-04-20T14:19:43Z</time></trkpt><trkpt lat="43.61241171458987" lon="12.343979061375666"><ele>697.6</ele><time>2026-04-20T14:19:44Z</time></trkpt><trkpt lat="43.61234850074284" lon="12.344000104539228"><ele>699.8</ele><time>2026-04-20T14:19:45Z</time></trkpt><trkpt lat="43.6122776427799" lon="12.343907955356807"><ele>702.0</ele><time>2026-04-20T14:19:47Z</time></trkpt><trkpt lat="43.61222810508352" lon="12.343714975085437"><ele>702.0</ele><time>2026-04-20T14:19:49Z</time></trkpt><trkpt lat="43.61217324794972" lon="12.343577997135842"><ele>702.0</ele><time>2026-04-20T14:19:50Z</time></trkpt><trkpt lat="43.61209119118405" lon="12.343448043832835"><ele>702.0</ele><time>2026-04-20T14:19:51Z</time></trkpt><trkpt lat="43.61202764647188" lon="12.343314117402256"><ele>702.0</ele><time>2026-04-20T14:19:52Z</time></trkpt><trkpt lat="43.61197604687907" lon="12.34319712279084"><ele>697.0</ele><time>2026-04-20T14:19:53Z</time></trkpt><trkpt lat="43.611908245284354" lon="12.343087517307522"><ele>692.0</ele><time>2026-04-20T14:19:54Z</time></trkpt><trkpt lat="43.61182620107427" lon="12.343004486341279"><ele>687.0</ele><time>2026-04-20T14:19:55Z</time></trkpt><trkpt lat="43.61173809055847" lon="12.342939016414414"><ele>682.0</ele><time>2026-04-20T14:19:56Z</time></trkpt><trkpt lat="43.61163168852859" lon="12.342913431877102"><ele>677.0</ele><time>2026-04-20T14:19:57Z</time></trkpt><trkpt lat="43.61153119834604" lon="12.342910666868427"><ele>677.0</ele><time>2026-04-20T14:19:58Z</time></trkpt><trkpt lat="43.611412708982" lon="12.342938547756997"><ele>677.0</ele><time>2026-04-20T14:19:59Z</time></trkpt><trkpt lat="43.61131612833487" lon="12.34296780406675"><ele>677.0</ele><time>2026-04-20T14:20:00Z</time></trkpt><trkpt lat="43.61123446785668" lon="12.342987286421955"><ele>677.0</ele><time>2026-04-20T14:20:01Z</time></trkpt><trkpt lat="43.61117165550793" lon="12.343006340572032"><ele>677.0</ele><time>2026-04-20T14:20:02Z</time></trkpt><trkpt lat="43.611111032664894" lon="12.34286609355581"><ele>677.0</ele><time>2026-04-20T14:20:04Z</time></trkpt><trkpt lat="43.61114209504227" lon="12.342723628754099"><ele>677.0</ele><time>2026-04-20T14:20:05Z</time></trkpt><trkpt lat="43.61117347585227" lon="12.342588389220412"><ele>677.0</ele><time>2026-04-20T14:20:06Z</time></trkpt><trkpt lat="43.61122465598269" lon="12.342451404181302"><ele>677.0</ele><time>2026-04-20T14:20:07Z</time></trkpt><trkpt lat="43.611282200671944" lon="12.342342440161378"><ele>677.0</ele><time>2026-04-20T14:20:08Z</time></trkpt><trkpt lat="43.61137051092231" lon="12.342248561873113"><ele>673.25</ele><time>2026-04-20T14:20:09Z</time></trkpt><trkpt lat="43.61147565598569" lon="12.342152757768694"><ele>669.5</ele><time>2026-04-20T14:20:10Z</time></trkpt><trkpt lat="43.611563677790095" lon="12.342036932414777"><ele>665.75</ele><time>2026-04-20T14:20:11Z</time></trkpt><trkpt lat="43.61163660324005" lon="12.341920939488775"><ele>662.0</ele><time>2026-04-20T14:20:12Z</time></trkpt><trkpt lat="43.61169937207764" lon="12.341806380996326"><ele>662.0</ele><time>2026-04-20T14:20:13Z</time></trkpt><trkpt lat="43.61175692603265" lon="12.341670328023813"><ele>662.0</ele><time>2026-04-20T14:20:14Z</time></trkpt><trkpt lat="43.61179022588964" lon="12.34151833437636"><ele>662.0</ele><time>2026-04-20T14:20:15Z</time></trkpt><trkpt lat="43.61184518804575" lon="12.341397064741894"><ele>662.0</ele><time>2026-04-20T14:20:16Z</time></trkpt><trkpt lat="43.61189395676374" lon="12.341269632899577"><ele>662.0</ele><time>2026-04-20T14:20:17Z</time></trkpt><trkpt lat="43.61192149731436" lon="12.341126464560073"><ele>664.6</ele><time>2026-04-20T14:20:18Z</time></trkpt><trkpt lat="43.61188775630708" lon="12.340969073083867"><ele>667.2</ele><time>2026-04-20T14:20:19Z</time></trkpt><trkpt lat="43.61189354743796" lon="12.340835128906804"><ele>669.8</ele><time>2026-04-20T14:20:20Z</time></trkpt><trkpt lat="43.61191240281768" lon="12.340690708477362"><ele>672.4</ele><time>2026-04-20T14:20:21Z</time></trkpt><trkpt lat="43.611954778433294" lon="12.340572222081253"><ele>675.0</ele><time>2026-04-20T14:20:22Z</time></trkpt><trkpt lat="43.6120192046476" lon="12.340451546248746"><ele>675.0</ele><time>2026-04-20T14:20:23Z</time></trkpt><trkpt lat="43.6120663952292" lon="12.340315615804833"><ele>675.0</ele><time>2026-04-20T14:20:24Z</time></trkpt><trkpt lat="43.61208248432046" lon="12.340182828843712"><ele>675.0</ele><time>2026-04-20T14:20:25Z</time></trkpt><trkpt lat="43.612033245279605" lon="12.340025749614409"><ele>675.0</ele><time>2026-04-20T14:20:26Z</time></trkpt><trkpt lat="43.61195044297035" lon="12.339913121740492"><ele>675.0</ele><time>2026-04-20T14:20:27Z</time></trkpt><trkpt lat="43.61189834450429" lon="12.339761327574594"><ele>667.8</ele><time>2026-04-20T14:20:28Z</time></trkpt><trkpt lat="43.61183386863614" lon="12.33961627811472"><ele>660.6</ele><time>2026-04-20T14:20:29Z</time></trkpt><trkpt lat="43.61179438572293" lon="12.339482824615775"><ele>653.4</ele><time>2026-04-20T14:20:30Z</time></trkpt><trkpt lat="43.61177380347974" lon="12.339360057610032"><ele>646.2</ele><time>2026-04-20T14:20:31Z</time></trkpt><trkpt lat="43.61178976767491" lon="12.33923258532844"><ele>639.0</ele><time>2026-04-20T14:20:32Z</time></trkpt><trkpt lat="43.611817749287624" lon="12.33908256856545"><ele>639.0</ele><time>2026-04-20T14:20:33Z</time></trkpt><trkpt lat="43.61181236668248" lon="12.338958030383054"><ele>639.0</ele><time>2026-04-20T14:20:34Z</time></trkpt><trkpt lat="43.61175668565351" lon="12.3388315344596"><ele>639.0</ele><time>2026-04-20T14:20:35Z</time></trkpt><trkpt lat="43.61165666230421" lon="12.338742041976312"><ele>639.0</ele><time>2026-04-20T14:20:36Z</time></trkpt><trkpt lat="43.61155565112794" lon="12.338616222703395"><ele>639.25</ele><time>2026-04-20T14:20:37Z</time></trkpt><trkpt lat="43.61146312658393" lon="12.338472028955593"><ele>639.5</ele><time>2026-04-20T14:20:38Z</time></trkpt><trkpt lat="43.61137516882018" lon="12.338309942882642"><ele>639.75</ele><time>2026-04-20T14:20:39Z</time></trkpt><trkpt lat="43.61130486454987" lon="12.33816840448743"><ele>640.0</ele><time>2026-04-20T14:20:40Z</time></trkpt><trkpt lat="43.61125491834065" lon="12.338066709476355"><ele>639.2</ele><time>2026-04-20T14:20:41Z</time></trkpt><trkpt lat="43.61121982705441" lon="12.337949820675288"><ele>638.4</ele><time>2026-04-20T14:20:43Z</time></trkpt><trkpt lat="43.61129646279585" lon="12.3378354007588"><ele>637.6</ele><time>2026-04-20T14:20:45Z</time></trkpt><trkpt lat="43.61137544701494" lon="12.337797400773242"><ele>636.8</ele><time>2026-04-20T14:20:46Z</time></trkpt><trkpt lat="43.61148137588227" lon="12.337807750336692"><ele>636.0</ele><time>2026-04-20T14:20:47Z</time></trkpt><trkpt lat="43.61156331122754" lon="12.337676245211872"><ele>636.0</ele><time>2026-04-20T14:20:49Z</time></trkpt><trkpt lat="43.61154163579412" lon="12.337530290268319"><ele>636.0</ele><time>2026-04-20T14:20:50Z</time></trkpt><trkpt lat="43.61153714931839" lon="12.337371775896285"><ele>636.0</ele><time>2026-04-20T14:20:51Z</time></trkpt><trkpt lat="43.6115531407854" lon="12.337249235120112"><ele>636.0</ele><time>2026-04-20T14:20:52Z</time></trkpt><trkpt lat="43.611608261027655" lon="12.33713787212157"><ele>636.0</ele><time>2026-04-20T14:20:53Z</time></trkpt><trkpt lat="43.61165504861088" lon="12.33703734841059"><ele>634.5</ele><time>2026-04-20T14:20:54Z</time></trkpt><trkpt lat="43.611701833027745" lon="12.336912337085225"><ele>633.0</ele><time>2026-04-20T14:20:55Z</time></trkpt><trkpt lat="43.611714917452446" lon="12.336756869206143"><ele>631.5</ele><time>2026-04-20T14:20:56Z</time></trkpt><trkpt lat="43.61170894248122" lon="12.3365738659472"><ele>630.0</ele><time>2026-04-20T14:20:57Z</time></trkpt><trkpt lat="43.611674945408545" lon="12.33637822088382"><ele>628.4</ele><time>2026-04-20T14:20:58Z</time></trkpt><trkpt lat="43.611663860216645" lon="12.336218263806407"><ele>626.8</ele><time>2026-04-20T14:20:59Z</time></trkpt><trkpt lat="43.61167486502496" lon="12.33607755820613"><ele>625.2</ele><time>2026-04-20T14:21:00Z</time></trkpt><trkpt lat="43.61172771212877" lon="12.335968450339989"><ele>623.6</ele><time>2026-04-20T14:21:01Z</time></trkpt><trkpt lat="43.61180048612628" lon="12.335833639876846"><ele>622.0</ele><time>2026-04-20T14:21:02Z</time></trkpt><trkpt lat="43.61186575246078" lon="12.335676443379803"><ele>622.0</ele><time>2026-04-20T14:21:03Z</time></trkpt><trkpt lat="43.61193575785149" lon="12.3355338834341"><ele>622.0</ele><time>2026-04-20T14:21:04Z</time></trkpt><trkpt lat="43.61199617685287" lon="12.335413994832447"><ele>622.0</ele><time>2026-04-20T14:21:05Z</time></trkpt><trkpt lat="43.61204351641357" lon="12.335313998216295"><ele>622.0</ele><time>2026-04-20T14:21:06Z</time></trkpt><trkpt lat="43.612084748632576" lon="12.33520690974423"><ele>622.0</ele><time>2026-04-20T14:21:07Z</time></trkpt><trkpt lat="43.61210125286868" lon="12.335117360915161"><ele>622.0</ele><time>2026-04-20T14:21:08Z</time></trkpt><trkpt lat="43.61208439448721" lon="12.334995625008265"><ele>622.0</ele><time>2026-04-20T14:21:09Z</time></trkpt><trkpt lat="43.61203259199035" lon="12.334893362475094"><ele>622.0</ele><time>2026-04-20T14:21:10Z</time></trkpt><trkpt lat="43.611938690885594" lon="12.334865861825572"><ele>622.0</ele><time>2026-04-20T14:21:11Z</time></trkpt><trkpt lat="43.6118379293669" lon="12.334899989113632"><ele>622.0</ele><time>2026-04-20T14:21:12Z</time></trkpt><trkpt lat="43.611735871796334" lon="12.335046261190946"><ele>622.0</ele><time>2026-04-20T14:21:13Z</time></trkpt><trkpt lat="43.611641351790055" lon="12.335169571578998"><ele>622.0</ele><time>2026-04-20T14:21:14Z</time></trkpt><trkpt lat="43.61153329938635" lon="12.335303190557857"><ele>622.0</ele><time>2026-04-20T14:21:15Z</time></trkpt><trkpt lat="43.61143523734193" lon="12.33541615133161"><ele>622.0</ele><time>2026-04-20T14:21:16Z</time></trkpt><trkpt lat="43.6113464391646" lon="12.335517786803585"><ele>622.0</ele><time>2026-04-20T14:21:17Z</time></trkpt><trkpt lat="43.6112995552163" lon="12.3356694231848"><ele>622.0</ele><time>2026-04-20T14:21:18Z</time></trkpt><trkpt lat="43.611238871031155" lon="12.335807457127038"><ele>622.0</ele><time>2026-04-20T14:21:19Z</time></trkpt><trkpt lat="43.611189924012066" lon="12.335977623363569"><ele>622.0</ele><time>2026-04-20T14:21:20Z</time></trkpt><trkpt lat="43.611140320903885" lon="12.33616058652406"><ele>622.6</ele><time>2026-04-20T14:21:21Z</time></trkpt><trkpt lat="43.61108367086871" lon="12.336326214027366"><ele>623.2</ele><time>2026-04-20T14:21:22Z</time></trkpt><trkpt lat="43.61103075292612" lon="12.336462605735367"><ele>623.8</ele><time>2026-04-20T14:21:23Z</time></trkpt><trkpt lat="43.61098211856526" lon="12.336560194553968"><ele>624.4</ele><time>2026-04-20T14:21:24Z</time></trkpt><trkpt lat="43.61092773093867" lon="12.336632461442475"><ele>625.0</ele><time>2026-04-20T14:21:25Z</time></trkpt><trkpt lat="43.61085006686618" lon="12.336671387539418"><ele>623.4</ele><time>2026-04-20T14:21:26Z</time></trkpt><trkpt lat="43.61076552200022" lon="12.336698314511999"><ele>621.8</ele><time>2026-04-20T14:21:27Z</time></trkpt><trkpt lat="43.61067853659331" lon="12.336755974629506"><ele>620.2</ele><time>2026-04-20T14:21:28Z</time></trkpt><trkpt lat="43.61061715154076" lon="12.336839673604768"><ele>618.6</ele><time>2026-04-20T14:21:29Z</time></trkpt><trkpt lat="43.61059270542373" lon="12.336959780729511"><ele>617.0</ele><time>2026-04-20T14:21:30Z</time></trkpt><trkpt lat="43.61056630261601" lon="12.337118294765753"><ele>616.25</ele><time>2026-04-20T14:21:31Z</time></trkpt><trkpt lat="43.61053540097632" lon="12.337294291840767"><ele>615.5</ele><time>2026-04-20T14:21:32Z</time></trkpt><trkpt lat="43.61050677609162" lon="12.3374676153399"><ele>614.75</ele><time>2026-04-20T14:21:33.001Z</time></trkpt><trkpt lat="43.61047878053304" lon="12.337631013213668"><ele>614.0</ele><time>2026-04-20T14:21:34.001Z</time></trkpt><trkpt lat="43.610462696224985" lon="12.337805670336914"><ele>614.0</ele><time>2026-04-20T14:21:35.001Z</time></trkpt><trkpt lat="43.610461822481405" lon="12.337981167675087"><ele>614.0</ele><time>2026-04-20T14:21:36.001Z</time></trkpt><trkpt lat="43.610454032871814" lon="12.33816582039357"><ele>614.0</ele><time>2026-04-20T14:21:37.001Z</time></trkpt><trkpt lat="43.61041638832939" lon="12.338327733635237"><ele>614.0</ele><time>2026-04-20T14:21:38.001Z</time></trkpt><trkpt lat="43.61038260933559" lon="12.33848884784933"><ele>614.2</ele><time>2026-04-20T14:21:39.001Z</time></trkpt><trkpt lat="43.61033841731609" lon="12.33860496860336"><ele>614.4</ele><time>2026-04-20T14:21:40Z</time></trkpt><trkpt lat="43.610287195691136" lon="12.338694293785347"><ele>614.6</ele><time>2026-04-20T14:21:41Z</time></trkpt><trkpt lat="43.610237063406785" lon="12.338768231475"><ele>614.8</ele><time>2026-04-20T14:21:42Z</time></trkpt><trkpt lat="43.61016119387079" lon="12.338848682186972"><ele>615.0</ele><time>2026-04-20T14:21:43Z</time></trkpt><trkpt lat="43.610077550233164" lon="12.338942179089145"><ele>613.0</ele><time>2026-04-20T14:21:44Z</time></trkpt><trkpt lat="43.60997906251296" lon="12.339038252566757"><ele>611.0</ele><time>2026-04-20T14:21:45Z</time></trkpt><trkpt lat="43.60986486779407" lon="12.339129148496419"><ele>609.0</ele><time>2026-04-20T14:21:46Z</time></trkpt><trkpt lat="43.60978106181759" lon="12.339249641660091"><ele>607.0</ele><time>2026-04-20T14:21:47Z</time></trkpt><trkpt lat="43.609690185101954" lon="12.33935747280577"><ele>607.0</ele><time>2026-04-20T14:21:48Z</time></trkpt><trkpt lat="43.60963313453933" lon="12.339516225662129"><ele>607.0</ele><time>2026-04-20T14:21:49Z</time></trkpt><trkpt lat="43.60957811521696" lon="12.339684711389443"><ele>607.0</ele><time>2026-04-20T14:21:50Z</time></trkpt><trkpt lat="43.60951465310008" lon="12.339834552301111"><ele>607.0</ele><time>2026-04-20T14:21:51Z</time></trkpt><trkpt lat="43.60944358721887" lon="12.339959195914087"><ele>605.8000000000001</ele><time>2026-04-20T14:21:52Z</time></trkpt><trkpt lat="43.60936010576386" lon="12.340058633933173"><ele>604.6</ele><time>2026-04-20T14:21:53Z</time></trkpt><trkpt lat="43.60927736550236" lon="12.340139704311166"><ele>603.4000000000001</ele><time>2026-04-20T14:21:54Z</time></trkpt><trkpt lat="43.609202317545645" lon="12.340185698043404"><ele>602.2</ele><time>2026-04-20T14:21:55Z</time></trkpt><trkpt lat="43.60912270127715" lon="12.340201073612244"><ele>601.0</ele><time>2026-04-20T14:21:56Z</time></trkpt><trkpt lat="43.60906720549414" lon="12.340119784653862"><ele>601.0</ele><time>2026-04-20T14:21:57Z</time></trkpt><trkpt lat="43.60903337680889" lon="12.340034920306858"><ele>601.0</ele><time>2026-04-20T14:21:58Z</time></trkpt><trkpt lat="43.608965225186786" lon="12.339916269909391"><ele>601.0</ele><time>2026-04-20T14:21:59Z</time></trkpt><trkpt lat="43.608879536035424" lon="12.339772489683298"><ele>601.0</ele><time>2026-04-20T14:22:00Z</time></trkpt><trkpt lat="43.60876559972165" lon="12.339645266196458"><ele>604.75</ele><time>2026-04-20T14:22:01Z</time></trkpt><trkpt lat="43.60864679269258" lon="12.33955397909483"><ele>608.5</ele><time>2026-04-20T14:22:02Z</time></trkpt><trkpt lat="43.60853062876087" lon="12.339490796502568"><ele>612.25</ele><time>2026-04-20T14:22:03Z</time></trkpt><trkpt lat="43.60841225503" lon="12.3394529841683"><ele>616.0</ele><time>2026-04-20T14:22:04Z</time></trkpt><trkpt lat="43.60829123911142" lon="12.339436490209222"><ele>616.0</ele><time>2026-04-20T14:22:05Z</time></trkpt><trkpt lat="43.60816681312268" lon="12.339469305502247"><ele>616.0</ele><time>2026-04-20T14:22:06Z</time></trkpt><trkpt lat="43.60804073200522" lon="12.33948337785886"><ele>616.0</ele><time>2026-04-20T14:22:07Z</time></trkpt><trkpt lat="43.607923769369776" lon="12.339456780213672"><ele>616.0</ele><time>2026-04-20T14:22:08Z</time></trkpt><trkpt lat="43.60781198650657" lon="12.339433294433386"><ele>612.0</ele><time>2026-04-20T14:22:09Z</time></trkpt><trkpt lat="43.60768964632402" lon="12.339389794621647"><ele>608.0</ele><time>2026-04-20T14:22:10Z</time></trkpt><trkpt lat="43.60755974831791" lon="12.339348339706017"><ele>604.0</ele><time>2026-04-20T14:22:11Z</time></trkpt><trkpt lat="43.60743180238519" lon="12.33930056032018"><ele>600.0</ele><time>2026-04-20T14:22:12Z</time></trkpt><trkpt lat="43.607316448990126" lon="12.339270382718391"><ele>600.0</ele><time>2026-04-20T14:22:13Z</time></trkpt><trkpt lat="43.60720966321146" lon="12.339234115743633"><ele>600.0</ele><time>2026-04-20T14:22:14Z</time></trkpt><trkpt lat="43.607104993963404" lon="12.339212594837072"><ele>600.0</ele><time>2026-04-20T14:22:15Z</time></trkpt><trkpt lat="43.607023496608534" lon="12.339171946494776"><ele>600.0</ele><time>2026-04-20T14:22:16Z</time></trkpt><trkpt lat="43.606945221161304" lon="12.339145772146141"><ele>600.0</ele><time>2026-04-20T14:22:17Z</time></trkpt><trkpt lat="43.60687520638784" lon="12.339144807864384"><ele>600.0</ele><time>2026-04-20T14:22:18Z</time></trkpt><trkpt lat="43.60679410403627" lon="12.33924064399061"><ele>600.0</ele><time>2026-04-20T14:22:20Z</time></trkpt><trkpt lat="43.606827828606264" lon="12.339451502433926"><ele>600.0</ele><time>2026-04-20T14:22:22Z</time></trkpt><trkpt lat="43.606893847683104" lon="12.339582867955341"><ele>600.0</ele><time>2026-04-20T14:22:23Z</time></trkpt><trkpt lat="43.60700116986788" lon="12.339704257502289"><ele>598.0</ele><time>2026-04-20T14:22:24Z</time></trkpt><trkpt lat="43.6070900934773" lon="12.339839685683712"><ele>596.0</ele><time>2026-04-20T14:22:25Z</time></trkpt><trkpt lat="43.60717372336328" lon="12.339958320353594"><ele>594.0</ele><time>2026-04-20T14:22:26Z</time></trkpt><trkpt lat="43.607230222053374" lon="12.340068365839587"><ele>592.0</ele><time>2026-04-20T14:22:27Z</time></trkpt><trkpt lat="43.607269817628165" lon="12.34018238150282"><ele>590.0</ele><time>2026-04-20T14:22:28Z</time></trkpt><trkpt lat="43.60730124255819" lon="12.340308610072535"><ele>590.0</ele><time>2026-04-20T14:22:29Z</time></trkpt><trkpt lat="43.607286363728704" lon="12.34046377486491"><ele>590.0</ele><time>2026-04-20T14:22:30Z</time></trkpt><trkpt lat="43.60724935448999" lon="12.340635595944937"><ele>590.0</ele><time>2026-04-20T14:22:31Z</time></trkpt><trkpt lat="43.60721934644861" lon="12.34082186532762"><ele>590.0</ele><time>2026-04-20T14:22:32Z</time></trkpt><trkpt lat="43.60719936909732" lon="12.341009590929135"><ele>589.75</ele><time>2026-04-20T14:22:33Z</time></trkpt><trkpt lat="43.60718991839476" lon="12.341200984186758"><ele>589.5</ele><time>2026-04-20T14:22:34Z</time></trkpt><trkpt lat="43.60717629272252" lon="12.341396375395105"><ele>589.25</ele><time>2026-04-20T14:22:35Z</time></trkpt><trkpt lat="43.607147539993456" lon="12.341565233745692"><ele>589.0</ele><time>2026-04-20T14:22:36Z</time></trkpt><trkpt lat="43.607111729543455" lon="12.341698111208212"><ele>588.8</ele><time>2026-04-20T14:22:37Z</time></trkpt><trkpt lat="43.60705714641366" lon="12.341816286534376"><ele>588.5999999999999</ele><time>2026-04-20T14:22:38Z</time></trkpt><trkpt lat="43.60698033917997" lon="12.341929953713052"><ele>588.4</ele><time>2026-04-20T14:22:39Z</time></trkpt><trkpt lat="43.606894337003595" lon="12.342032806569666"><ele>588.1999999999999</ele><time>2026-04-20T14:22:40Z</time></trkpt><trkpt lat="43.6068008650571" lon="12.342116385452426"><ele>588.0</ele><time>2026-04-20T14:22:41Z</time></trkpt><trkpt lat="43.606705905715266" lon="12.34217179705536"><ele>590.8</ele><time>2026-04-20T14:22:42Z</time></trkpt><trkpt lat="43.60660527810302" lon="12.342183152838144"><ele>593.5999999999999</ele><time>2026-04-20T14:22:43Z</time></trkpt><trkpt lat="43.60653718427114" lon="12.342250556015914"><ele>596.4000000000001</ele><time>2026-04-20T14:22:44Z</time></trkpt><trkpt lat="43.606489366237106" lon="12.342323435005712"><ele>599.2</ele><time>2026-04-20T14:22:45Z</time></trkpt><trkpt lat="43.60648682292915" lon="12.342512807802732"><ele>602.0</ele><time>2026-04-20T14:22:47Z</time></trkpt><trkpt lat="43.606541297674156" lon="12.342649805896437"><ele>602.0</ele><time>2026-04-20T14:22:48Z</time></trkpt><trkpt lat="43.60665311334123" lon="12.342766048891697"><ele>602.0</ele><time>2026-04-20T14:22:49Z</time></trkpt><trkpt lat="43.60676001771171" lon="12.342893491244052"><ele>602.0</ele><time>2026-04-20T14:22:50Z</time></trkpt><trkpt lat="43.606858106052016" lon="12.34301591260873"><ele>602.0</ele><time>2026-04-20T14:22:51Z</time></trkpt><trkpt lat="43.60693574447676" lon="12.343172851939519"><ele>598.4</ele><time>2026-04-20T14:22:52Z</time></trkpt><trkpt lat="43.60702948166829" lon="12.343311342189457"><ele>594.8000000000001</ele><time>2026-04-20T14:22:53Z</time></trkpt><trkpt lat="43.60708580143224" lon="12.343462864351233"><ele>591.2</ele><time>2026-04-20T14:22:54Z</time></trkpt><trkpt lat="43.60711995459795" lon="12.343582400302399"><ele>587.6</ele><time>2026-04-20T14:22:55Z</time></trkpt><trkpt lat="43.607127216291246" lon="12.343688055060543"><ele>584.0</ele><time>2026-04-20T14:22:56Z</time></trkpt><trkpt lat="43.60710032382935" lon="12.343797441059998"><ele>582.6</ele><time>2026-04-20T14:22:57Z</time></trkpt><trkpt lat="43.60705531837457" lon="12.343934779035585"><ele>581.2</ele><time>2026-04-20T14:22:58Z</time></trkpt><trkpt lat="43.60698239946683" lon="12.344067849865253"><ele>579.8000000000001</ele><time>2026-04-20T14:22:59Z</time></trkpt><trkpt lat="43.60690450987131" lon="12.344152370826873"><ele>578.4</ele><time>2026-04-20T14:23:00Z</time></trkpt><trkpt lat="43.606805615289325" lon="12.344167923400239"><ele>577.0</ele><time>2026-04-20T14:23:01Z</time></trkpt><trkpt lat="43.60668812619266" lon="12.344183259118548"><ele>585.0</ele><time>2026-04-20T14:23:02Z</time></trkpt><trkpt lat="43.60655033778727" lon="12.344229606649058"><ele>593.0</ele><time>2026-04-20T14:23:03Z</time></trkpt><trkpt lat="43.60641264082604" lon="12.344318195471802"><ele>601.0</ele><time>2026-04-20T14:23:04Z</time></trkpt><trkpt lat="43.606264337263376" lon="12.344411335143617"><ele>603.0</ele><time>2026-04-20T14:23:05Z</time></trkpt><trkpt lat="43.60611024469857" lon="12.344538268853867"><ele>605.0</ele><time>2026-04-20T14:23:06Z</time></trkpt><trkpt lat="43.605955705306805" lon="12.34462995803894"><ele>607.0</ele><time>2026-04-20T14:23:07Z</time></trkpt><trkpt lat="43.605819552421664" lon="12.344765107111378"><ele>607.0</ele><time>2026-04-20T14:23:08Z</time></trkpt><trkpt lat="43.60567273672023" lon="12.344868537529686"><ele>607.0</ele><time>2026-04-20T14:23:09Z</time></trkpt><trkpt lat="43.60554312310473" lon="12.344977240023526"><ele>607.0</ele><time>2026-04-20T14:23:10Z</time></trkpt><trkpt lat="43.60543112693956" lon="12.345075334896922"><ele>607.0</ele><time>2026-04-20T14:23:11Z</time></trkpt><trkpt lat="43.60533977544727" lon="12.345150768804723"><ele>609.0</ele><time>2026-04-20T14:23:12Z</time></trkpt><trkpt lat="43.60526432235053" lon="12.345200526274885"><ele>611.0</ele><time>2026-04-20T14:23:13Z</time></trkpt><trkpt lat="43.60521501896214" lon="12.345258823550225"><ele>613.0</ele><time>2026-04-20T14:23:14Z</time></trkpt><trkpt lat="43.60520086430695" lon="12.34539741973322"><ele>615.0</ele><time>2026-04-20T14:23:16Z</time></trkpt><trkpt lat="43.60529091927637" lon="12.345538546944145"><ele>617.0</ele><time>2026-04-20T14:23:18Z</time></trkpt><trkpt lat="43.60537815141737" lon="12.345618505161053"><ele>617.0</ele><time>2026-04-20T14:23:19Z</time></trkpt><trkpt lat="43.60546863544806" lon="12.345696182831217"><ele>617.0</ele><time>2026-04-20T14:23:20Z</time></trkpt><trkpt lat="43.60556516250843" lon="12.34576966788286"><ele>617.0</ele><time>2026-04-20T14:23:21Z</time></trkpt><trkpt lat="43.60567278671498" lon="12.345817656640069"><ele>617.0</ele><time>2026-04-20T14:23:22Z</time></trkpt><trkpt lat="43.6057953143629" lon="12.345831490227843"><ele>617.0</ele><time>2026-04-20T14:23:23Z</time></trkpt><trkpt lat="43.6059318627033" lon="12.345834547325541"><ele>617.0</ele><time>2026-04-20T14:23:24Z</time></trkpt><trkpt lat="43.60606238119397" lon="12.345908276812608"><ele>617.0</ele><time>2026-04-20T14:23:25Z</time></trkpt><trkpt lat="43.60619830806848" lon="12.345964033895287"><ele>617.0</ele><time>2026-04-20T14:23:26Z</time></trkpt><trkpt lat="43.60635182593415" lon="12.346004235891334"><ele>617.2</ele><time>2026-04-20T14:23:27Z</time></trkpt><trkpt lat="43.60649417101676" lon="12.346074085133973"><ele>617.4000000000001</ele><time>2026-04-20T14:23:28Z</time></trkpt><trkpt lat="43.60661544484165" lon="12.346129647177655"><ele>617.5999999999999</ele><time>2026-04-20T14:23:29Z</time></trkpt><trkpt lat="43.60669769245978" lon="12.346204862583567"><ele>617.8</ele><time>2026-04-20T14:23:30Z</time></trkpt><trkpt lat="43.6067514784805" lon="12.34625480529383"><ele>618.0</ele><time>2026-04-20T14:23:31Z</time></trkpt><trkpt lat="43.606806202738284" lon="12.346434630280315"><ele>618.0</ele><time>2026-04-20T14:23:33Z</time></trkpt><trkpt lat="43.60682096838534" lon="12.34659160684943"><ele>618.0</ele><time>2026-04-20T14:23:34Z</time></trkpt><trkpt lat="43.60684528493454" lon="12.346738480858118"><ele>618.0</ele><time>2026-04-20T14:23:35Z</time></trkpt><trkpt lat="43.60689164416697" lon="12.346846169773348"><ele>618.0</ele><time>2026-04-20T14:23:36Z</time></trkpt><trkpt lat="43.606968965991406" lon="12.346910339189993"><ele>618.0</ele><time>2026-04-20T14:23:37Z</time></trkpt><trkpt lat="43.60707647191493" lon="12.34695594964204"><ele>615.0</ele><time>2026-04-20T14:23:38Z</time></trkpt><trkpt lat="43.607153142009885" lon="12.347028340795987"><ele>612.0</ele><time>2026-04-20T14:23:39.001Z</time></trkpt><trkpt lat="43.60721443197653" lon="12.347080255708235"><ele>609.0</ele><time>2026-04-20T14:23:40.001Z</time></trkpt><trkpt lat="43.60723166364327" lon="12.347175227899598"><ele>606.0</ele><time>2026-04-20T14:23:41.001Z</time></trkpt><trkpt lat="43.6072207425626" lon="12.347279893313809"><ele>603.0</ele><time>2026-04-20T14:23:42.001Z</time></trkpt><trkpt lat="43.60718472576219" lon="12.347372060671633"><ele>600.0</ele><time>2026-04-20T14:23:43.001Z</time></trkpt><trkpt lat="43.607120910461575" lon="12.34746166289972"><ele>599.25</ele><time>2026-04-20T14:23:44.001Z</time></trkpt><trkpt lat="43.6070306316542" lon="12.347545206510578"><ele>598.5</ele><time>2026-04-20T14:23:45.001Z</time></trkpt><trkpt lat="43.60691615415995" lon="12.347616129334128"><ele>597.75</ele><time>2026-04-20T14:23:46.001Z</time></trkpt><trkpt lat="43.606805914907966" lon="12.347663228129242"><ele>597.0</ele><time>2026-04-20T14:23:47.001Z</time></trkpt><trkpt lat="43.60670701819993" lon="12.347699215815055"><ele>603.0</ele><time>2026-04-20T14:23:48.001Z</time></trkpt><trkpt lat="43.606597924808284" lon="12.347676168131583"><ele>609.0</ele><time>2026-04-20T14:23:49.001Z</time></trkpt><trkpt lat="43.60648749685931" lon="12.347697453512609"><ele>615.0</ele><time>2026-04-20T14:23:50.001Z</time></trkpt><trkpt lat="43.60635861107474" lon="12.347710001505371"><ele>621.0</ele><time>2026-04-20T14:23:51.001Z</time></trkpt><trkpt lat="43.60622621592629" lon="12.347741803125079"><ele>624.75</ele><time>2026-04-20T14:23:52.001Z</time></trkpt><trkpt lat="43.60608721274132" lon="12.347800559284432"><ele>628.5</ele><time>2026-04-20T14:23:53Z</time></trkpt><trkpt lat="43.605936718781074" lon="12.347817445172744"><ele>632.25</ele><time>2026-04-20T14:23:54Z</time></trkpt><trkpt lat="43.60580800423885" lon="12.347859537200788"><ele>636.0</ele><time>2026-04-20T14:23:55Z</time></trkpt><trkpt lat="43.60569549983313" lon="12.347933280463627"><ele>636.0</ele><time>2026-04-20T14:23:56Z</time></trkpt><trkpt lat="43.605577505105096" lon="12.348028461477877"><ele>636.0</ele><time>2026-04-20T14:23:57Z</time></trkpt><trkpt lat="43.60546214048088" lon="12.348166024470048"><ele>636.0</ele><time>2026-04-20T14:23:58Z</time></trkpt><trkpt lat="43.6053337439839" lon="12.348291087450141"><ele>636.0</ele><time>2026-04-20T14:23:59Z</time></trkpt><trkpt lat="43.6052019465242" lon="12.348389690403714"><ele>634.3333333333334</ele><time>2026-04-20T14:24:00Z</time></trkpt><trkpt lat="43.6050622543789" lon="12.34847040886852"><ele>632.6666666666667</ele><time>2026-04-20T14:24:01Z</time></trkpt><trkpt lat="43.6049175506909" lon="12.348549715202227"><ele>631.0</ele><time>2026-04-20T14:24:02Z</time></trkpt><trkpt lat="43.60478828321445" lon="12.348649974345832"><ele>631.0</ele><time>2026-04-20T14:24:03Z</time></trkpt><trkpt lat="43.60465519263422" lon="12.348724236799761"><ele>631.0</ele><time>2026-04-20T14:24:04Z</time></trkpt><trkpt lat="43.604525899256004" lon="12.348811700449273"><ele>631.0</ele><time>2026-04-20T14:24:05Z</time></trkpt><trkpt lat="43.60439508817999" lon="12.348900190781796"><ele>631.0</ele><time>2026-04-20T14:24:06Z</time></trkpt><trkpt lat="43.604368967545284" lon="12.349295200821738"><ele>632.5</ele><time>2026-04-20T14:24:07Z</time></trkpt><trkpt lat="43.60426485398486" lon="12.34947380444966"><ele>634.0</ele><time>2026-04-20T14:24:08Z</time></trkpt><trkpt lat="43.60416633581239" lon="12.349641751374275"><ele>635.5</ele><time>2026-04-20T14:24:09Z</time></trkpt><trkpt lat="43.604081177170066" lon="12.349765057282616"><ele>637.0</ele><time>2026-04-20T14:24:10Z</time></trkpt><trkpt lat="43.603998922723704" lon="12.349855435654275"><ele>632.8000000000001</ele><time>2026-04-20T14:24:11Z</time></trkpt><trkpt lat="43.60391358393851" lon="12.349905615272451"><ele>628.6</ele><time>2026-04-20T14:24:12Z</time></trkpt><trkpt lat="43.60383428689206" lon="12.349924715801938"><ele>624.4000000000001</ele><time>2026-04-20T14:24:13Z</time></trkpt><trkpt lat="43.603754104799435" lon="12.349908075308521"><ele>620.2</ele><time>2026-04-20T14:24:14Z</time></trkpt><trkpt lat="43.603666965074616" lon="12.349861727196163"><ele>616.0</ele><time>2026-04-20T14:24:15Z</time></trkpt><trkpt lat="43.6035721281766" lon="12.349780729770636"><ele>619.5</ele><time>2026-04-20T14:24:16Z</time></trkpt><trkpt lat="43.60347022930783" lon="12.34966147986326"><ele>623.0</ele><time>2026-04-20T14:24:17Z</time></trkpt><trkpt lat="43.60336214490037" lon="12.349525086807699"><ele>626.5</ele><time>2026-04-20T14:24:18Z</time></trkpt><trkpt lat="43.603241840838685" lon="12.34937261903915"><ele>630.0</ele><time>2026-04-20T14:24:19Z</time></trkpt><trkpt lat="43.603108571931166" lon="12.349285019626626"><ele>630.0</ele><time>2026-04-20T14:24:20Z</time></trkpt><trkpt lat="43.6029872621254" lon="12.34920533062224"><ele>630.0</ele><time>2026-04-20T14:24:21Z</time></trkpt><trkpt lat="43.60286921052834" lon="12.349135577483171"><ele>630.0</ele><time>2026-04-20T14:24:22Z</time></trkpt><trkpt lat="43.602758978950355" lon="12.349068578279038"><ele>630.0</ele><time>2026-04-20T14:24:23Z</time></trkpt><trkpt lat="43.60264424062689" lon="12.349028163887125"><ele>631.2</ele><time>2026-04-20T14:24:24Z</time></trkpt><trkpt lat="43.60253440530806" lon="12.349012234704777"><ele>632.4</ele><time>2026-04-20T14:24:25Z</time></trkpt><trkpt lat="43.60243179121104" lon="12.348953369729683"><ele>633.6</ele><time>2026-04-20T14:24:26Z</time></trkpt><trkpt lat="43.602347179215485" lon="12.348892660124614"><ele>634.8</ele><time>2026-04-20T14:24:27Z</time></trkpt><trkpt lat="43.6023022365574" lon="12.348780508115878"><ele>636.0</ele><time>2026-04-20T14:24:28Z</time></trkpt><trkpt lat="43.60222637502528" lon="12.348641517442577"><ele>636.0</ele><time>2026-04-20T14:24:29Z</time></trkpt><trkpt lat="43.60214337643306" lon="12.348527132110142"><ele>636.0</ele><time>2026-04-20T14:24:30Z</time></trkpt><trkpt lat="43.60205290880598" lon="12.348462730096253"><ele>636.0</ele><time>2026-04-20T14:24:31Z</time></trkpt><trkpt lat="43.60196474753047" lon="12.348449937602641"><ele>636.0</ele><time>2026-04-20T14:24:32Z</time></trkpt><trkpt lat="43.601876146928646" lon="12.348453982767353"><ele>636.0</ele><time>2026-04-20T14:24:33Z</time></trkpt><trkpt lat="43.60177182475711" lon="12.3485061587052"><ele>633.0</ele><time>2026-04-20T14:24:34Z</time></trkpt><trkpt lat="43.601674787767294" lon="12.348560077579425"><ele>630.0</ele><time>2026-04-20T14:24:35Z</time></trkpt><trkpt lat="43.601578177980024" lon="12.348570791697476"><ele>627.0</ele><time>2026-04-20T14:24:36Z</time></trkpt><trkpt lat="43.60150367972372" lon="12.34849003594585"><ele>624.0</ele><time>2026-04-20T14:24:37Z</time></trkpt><trkpt lat="43.6014009325306" lon="12.34838590225461"><ele>621.0</ele><time>2026-04-20T14:24:38Z</time></trkpt><trkpt lat="43.601242067937804" lon="12.348293992797759"><ele>620.6</ele><time>2026-04-20T14:24:39Z</time></trkpt><trkpt lat="43.6010982052861" lon="12.348282227138581"><ele>620.2</ele><time>2026-04-20T14:24:40Z</time></trkpt><trkpt lat="43.600998349847316" lon="12.348301065755235"><ele>619.8</ele><time>2026-04-20T14:24:41Z</time></trkpt><trkpt lat="43.60091081231725" lon="12.348304852509068"><ele>619.4</ele><time>2026-04-20T14:24:42Z</time></trkpt><trkpt lat="43.60083807138793" lon="12.34833634357979"><ele>619.0</ele><time>2026-04-20T14:24:43Z</time></trkpt><trkpt lat="43.600776110772784" lon="12.348373360630465"><ele>619.0</ele><time>2026-04-20T14:24:44Z</time></trkpt><trkpt lat="43.60074841531174" lon="12.348480108632561"><ele>619.0</ele><time>2026-04-20T14:24:45Z</time></trkpt><trkpt lat="43.600808283401264" lon="12.348637151269616"><ele>619.0</ele><time>2026-04-20T14:24:46Z</time></trkpt><trkpt lat="43.600851894968194" lon="12.348790431552688"><ele>619.0</ele><time>2026-04-20T14:24:47Z</time></trkpt><trkpt lat="43.60089969099288" lon="12.348940025808163"><ele>619.0</ele><time>2026-04-20T14:24:48Z</time></trkpt><trkpt lat="43.60090490586473" lon="12.349108880696576"><ele>619.75</ele><time>2026-04-20T14:24:49Z</time></trkpt><trkpt lat="43.60095145568336" lon="12.349255958786395"><ele>620.5</ele><time>2026-04-20T14:24:50Z</time></trkpt><trkpt lat="43.60104612470791" lon="12.349371109214768"><ele>621.25</ele><time>2026-04-20T14:24:51Z</time></trkpt><trkpt lat="43.60115107882402" lon="12.349455418308771"><ele>622.0</ele><time>2026-04-20T14:24:52Z</time></trkpt><trkpt lat="43.60125960933862" lon="12.349552759468768"><ele>618.4</ele><time>2026-04-20T14:24:53Z</time></trkpt><trkpt lat="43.60133191413352" lon="12.349655771996272"><ele>614.8000000000001</ele><time>2026-04-20T14:24:54Z</time></trkpt><trkpt lat="43.601388004566964" lon="12.349752277930804"><ele>611.2</ele><time>2026-04-20T14:24:55Z</time></trkpt><trkpt lat="43.60141142543103" lon="12.349859112218423"><ele>607.6</ele><time>2026-04-20T14:24:56Z</time></trkpt><trkpt lat="43.60142344577441" lon="12.349990305863777"><ele>604.0</ele><time>2026-04-20T14:24:57Z</time></trkpt><trkpt lat="43.601410831586385" lon="12.350137047511796"><ele>603.75</ele><time>2026-04-20T14:24:58Z</time></trkpt><trkpt lat="43.601379139243086" lon="12.350301288236654"><ele>603.5</ele><time>2026-04-20T14:24:59Z</time></trkpt><trkpt lat="43.60135139398186" lon="12.350470488893269"><ele>603.25</ele><time>2026-04-20T14:25:00Z</time></trkpt><trkpt lat="43.60132306089595" lon="12.350652236072904"><ele>603.0</ele><time>2026-04-20T14:25:01Z</time></trkpt><trkpt lat="43.60129506516533" lon="12.350814278519445"><ele>603.0</ele><time>2026-04-20T14:25:02Z</time></trkpt><trkpt lat="43.60125827070563" lon="12.350943736225403"><ele>603.0</ele><time>2026-04-20T14:25:03Z</time></trkpt><trkpt lat="43.6012072824778" lon="12.351037669611223"><ele>603.0</ele><time>2026-04-20T14:25:04Z</time></trkpt><trkpt lat="43.601131773471195" lon="12.351114274253012"><ele>603.0</ele><time>2026-04-20T14:25:05Z</time></trkpt><trkpt lat="43.60104615318939" lon="12.351184142181578"><ele>603.0</ele><time>2026-04-20T14:25:06Z</time></trkpt><trkpt lat="43.60092498002477" lon="12.351264076948913"><ele>604.0</ele><time>2026-04-20T14:25:07Z</time></trkpt><trkpt lat="43.60079233398615" lon="12.351332566072651"><ele>605.0</ele><time>2026-04-20T14:25:08Z</time></trkpt><trkpt lat="43.60064885698733" lon="12.351407653123788"><ele>606.0</ele><time>2026-04-20T14:25:09Z</time></trkpt><trkpt lat="43.60050408393721" lon="12.351506482738278"><ele>606.0</ele><time>2026-04-20T14:25:10Z</time></trkpt><trkpt lat="43.60035882799629" lon="12.351602060986469"><ele>606.0</ele><time>2026-04-20T14:25:11Z</time></trkpt><trkpt lat="43.60021753427504" lon="12.351690921039847"><ele>606.0</ele><time>2026-04-20T14:25:12Z</time></trkpt><trkpt lat="43.600091152991645" lon="12.351770665691113"><ele>609.4</ele><time>2026-04-20T14:25:13Z</time></trkpt><trkpt lat="43.599979719069445" lon="12.351815931108446"><ele>612.8</ele><time>2026-04-20T14:25:14Z</time></trkpt><trkpt lat="43.599871644270756" lon="12.351805003364113"><ele>616.1999999999999</ele><time>2026-04-20T14:25:15Z</time></trkpt><trkpt lat="43.59976359678151" lon="12.351817864441806"><ele>619.6</ele><time>2026-04-20T14:25:16Z</time></trkpt><trkpt lat="43.59966978994687" lon="12.351860987079345"><ele>623.0</ele><time>2026-04-20T14:25:17Z</time></trkpt><trkpt lat="43.59959594642603" lon="12.351968566419979"><ele>623.0</ele><time>2026-04-20T14:25:18Z</time></trkpt><trkpt lat="43.59954699170891" lon="12.352081983162096"><ele>623.0</ele><time>2026-04-20T14:25:19Z</time></trkpt><trkpt lat="43.59950198778023" lon="12.352217565307736"><ele>623.0</ele><time>2026-04-20T14:25:20Z</time></trkpt><trkpt lat="43.59947785696639" lon="12.352360149786431"><ele>623.0</ele><time>2026-04-20T14:25:21Z</time></trkpt><trkpt lat="43.59947673858716" lon="12.352490620489132"><ele>623.0</ele><time>2026-04-20T14:25:22Z</time></trkpt><trkpt lat="43.59945161590111" lon="12.352599348390989"><ele>623.4</ele><time>2026-04-20T14:25:23Z</time></trkpt><trkpt lat="43.599398408843804" lon="12.352705711376823"><ele>623.8</ele><time>2026-04-20T14:25:24Z</time></trkpt><trkpt lat="43.59931916485618" lon="12.352799941337512"><ele>624.2</ele><time>2026-04-20T14:25:25Z</time></trkpt><trkpt lat="43.59921721672815" lon="12.35285852100886"><ele>624.6</ele><time>2026-04-20T14:25:26Z</time></trkpt><trkpt lat="43.59911468096742" lon="12.35293796134724"><ele>625.0</ele><time>2026-04-20T14:25:27Z</time></trkpt><trkpt lat="43.59901706250013" lon="12.353016267879925"><ele>621.6</ele><time>2026-04-20T14:25:28Z</time></trkpt><trkpt lat="43.598933178088096" lon="12.353096860466055"><ele>618.2</ele><time>2026-04-20T14:25:29Z</time></trkpt><trkpt lat="43.598858819321585" lon="12.353183028708855"><ele>614.8</ele><time>2026-04-20T14:25:30Z</time></trkpt><trkpt lat="43.59882374746243" lon="12.353303441288574"><ele>611.4</ele><time>2026-04-20T14:25:31Z</time></trkpt><trkpt lat="43.59880555651028" lon="12.353434632148222"><ele>608.0</ele><time>2026-04-20T14:25:32Z</time></trkpt><trkpt lat="43.598771780508876" lon="12.353565017681563"><ele>608.0</ele><time>2026-04-20T14:25:33Z</time></trkpt><trkpt lat="43.598693392210144" lon="12.35364383502132"><ele>608.0</ele><time>2026-04-20T14:25:34Z</time></trkpt><trkpt lat="43.59861078249469" lon="12.353734634850023"><ele>608.0</ele><time>2026-04-20T14:25:35Z</time></trkpt><trkpt lat="43.59851810769463" lon="12.353838605511493"><ele>608.0</ele><time>2026-04-20T14:25:36Z</time></trkpt><trkpt lat="43.59845630971217" lon="12.353934389258738"><ele>608.0</ele><time>2026-04-20T14:25:37Z</time></trkpt><trkpt lat="43.59838331227135" lon="12.353993714925465"><ele>607.0</ele><time>2026-04-20T14:25:38Z</time></trkpt><trkpt lat="43.598295420034496" lon="12.354009774959735"><ele>606.0</ele><time>2026-04-20T14:25:39Z</time></trkpt><trkpt lat="43.59820508680575" lon="12.354006068792588"><ele>605.0</ele><time>2026-04-20T14:25:40Z</time></trkpt><trkpt lat="43.5981344281608" lon="12.353986577457379"><ele>604.0</ele><time>2026-04-20T14:25:41Z</time></trkpt><trkpt lat="43.598062120410376" lon="12.353971283071445"><ele>603.0</ele><time>2026-04-20T14:25:42Z</time></trkpt><trkpt lat="43.5979668088702" lon="12.35388653626774"><ele>602.0</ele><time>2026-04-20T14:25:43Z</time></trkpt><trkpt lat="43.5978669955687" lon="12.353753836764037"><ele>605.25</ele><time>2026-04-20T14:25:44.001Z</time></trkpt><trkpt lat="43.597727755585176" lon="12.353676782737969"><ele>608.5</ele><time>2026-04-20T14:25:45.001Z</time></trkpt><trkpt lat="43.597589678283384" lon="12.353627073497172"><ele>611.75</ele><time>2026-04-20T14:25:46.001Z</time></trkpt><trkpt lat="43.59745430880237" lon="12.353594130435873"><ele>615.0</ele><time>2026-04-20T14:25:47.001Z</time></trkpt><trkpt lat="43.59733881843246" lon="12.35361673473161"><ele>615.0</ele><time>2026-04-20T14:25:48.001Z</time></trkpt><trkpt lat="43.59724066491984" lon="12.353565343620712"><ele>615.0</ele><time>2026-04-20T14:25:49.001Z</time></trkpt><trkpt lat="43.597159414462375" lon="12.353502011910669"><ele>615.0</ele><time>2026-04-20T14:25:50.001Z</time></trkpt><trkpt lat="43.597066645961" lon="12.35341211545585"><ele>615.0</ele><time>2026-04-20T14:25:51.001Z</time></trkpt><trkpt lat="43.59694447980567" lon="12.35335914430696"><ele>615.0</ele><time>2026-04-20T14:25:52.001Z</time></trkpt><trkpt lat="43.596820990379264" lon="12.3533325845445"><ele>612.5</ele><time>2026-04-20T14:25:53.001Z</time></trkpt><trkpt lat="43.596693474503084" lon="12.353300804620726"><ele>610.0</ele><time>2026-04-20T14:25:54Z</time></trkpt><trkpt lat="43.59655266349143" lon="12.353265711238409"><ele>607.5</ele><time>2026-04-20T14:25:55Z</time></trkpt><trkpt lat="43.59640845193617" lon="12.353229770362582"><ele>605.0</ele><time>2026-04-20T14:25:56Z</time></trkpt><trkpt lat="43.59625347397077" lon="12.353314307622837"><ele>602.5</ele><time>2026-04-20T14:25:57Z</time></trkpt><trkpt lat="43.59611011862499" lon="12.35328340510515"><ele>600.0</ele><time>2026-04-20T14:25:58Z</time></trkpt><trkpt lat="43.59596588878305" lon="12.353252172073812"><ele>597.5</ele><time>2026-04-20T14:25:59Z</time></trkpt><trkpt lat="43.59582311013918" lon="12.35322522439104"><ele>595.0</ele><time>2026-04-20T14:26:00Z</time></trkpt><trkpt lat="43.59568567640172" lon="12.353200181339895"><ele>595.0</ele><time>2026-04-20T14:26:01Z</time></trkpt><trkpt lat="43.59555248354193" lon="12.353174011806866"><ele>595.0</ele><time>2026-04-20T14:26:02Z</time></trkpt><trkpt lat="43.5954102978732" lon="12.353157379653783"><ele>595.0</ele><time>2026-04-20T14:26:03Z</time></trkpt><trkpt lat="43.595281179252474" lon="12.353128174887448"><ele>595.0</ele><time>2026-04-20T14:26:04Z</time></trkpt><trkpt lat="43.595152307832066" lon="12.353097764288247"><ele>593.0</ele><time>2026-04-20T14:26:05Z</time></trkpt><trkpt lat="43.59502282563401" lon="12.353053718987756"><ele>591.0</ele><time>2026-04-20T14:26:06Z</time></trkpt><trkpt lat="43.59489119456867" lon="12.353025049543513"><ele>589.0</ele><time>2026-04-20T14:26:07Z</time></trkpt><trkpt lat="43.594756058613754" lon="12.353013453534947"><ele>587.0</ele><time>2026-04-20T14:26:08Z</time></trkpt><trkpt lat="43.59463090726232" lon="12.353016875659888"><ele>588.0</ele><time>2026-04-20T14:26:09Z</time></trkpt><trkpt lat="43.59452407161441" lon="12.353019445566003"><ele>589.0</ele><time>2026-04-20T14:26:10Z</time></trkpt><trkpt lat="43.59441681935861" lon="12.353027748659825"><ele>590.0</ele><time>2026-04-20T14:26:11Z</time></trkpt><trkpt lat="43.594324669104346" lon="12.353034027287842"><ele>591.0</ele><time>2026-04-20T14:26:12Z</time></trkpt><trkpt lat="43.59421513842499" lon="12.353019072387914"><ele>592.0</ele><time>2026-04-20T14:26:13Z</time></trkpt><trkpt lat="43.59409594078485" lon="12.352960220866578"><ele>592.0</ele><time>2026-04-20T14:26:14Z</time></trkpt><trkpt lat="43.59396037497487" lon="12.352877838369139"><ele>592.0</ele><time>2026-04-20T14:26:15Z</time></trkpt><trkpt lat="43.59384616776939" lon="12.352797840546874"><ele>592.0</ele><time>2026-04-20T14:26:16Z</time></trkpt><trkpt lat="43.59375568190387" lon="12.352714315755465"><ele>592.0</ele><time>2026-04-20T14:26:17Z</time></trkpt><trkpt lat="43.59367560830305" lon="12.352600004438308"><ele>590.25</ele><time>2026-04-20T14:26:18Z</time></trkpt><trkpt lat="43.59358279438367" lon="12.352468509808975"><ele>588.5</ele><time>2026-04-20T14:26:19Z</time></trkpt><trkpt lat="43.59348255950545" lon="12.352331960558402"><ele>586.75</ele><time>2026-04-20T14:26:20Z</time></trkpt><trkpt lat="43.59336698873118" lon="12.352197617672392"><ele>585.0</ele><time>2026-04-20T14:26:21Z</time></trkpt><trkpt lat="43.59324293810227" lon="12.352081268913475"><ele>585.0</ele><time>2026-04-20T14:26:22Z</time></trkpt><trkpt lat="43.59311780453246" lon="12.351996165358983"><ele>585.0</ele><time>2026-04-20T14:26:23Z</time></trkpt><trkpt lat="43.592997040382315" lon="12.35193919279114"><ele>585.0</ele><time>2026-04-20T14:26:24Z</time></trkpt><trkpt lat="43.592879886083736" lon="12.351913823480048"><ele>585.0</ele><time>2026-04-20T14:26:25Z</time></trkpt><trkpt lat="43.59277491585254" lon="12.351887625327866"><ele>585.0</ele><time>2026-04-20T14:26:26Z</time></trkpt><trkpt lat="43.59268797329687" lon="12.35183606260712"><ele>585.0</ele><time>2026-04-20T14:26:27Z</time></trkpt><trkpt lat="43.59262617432244" lon="12.351755026154661"><ele>585.0</ele><time>2026-04-20T14:26:28Z</time></trkpt><trkpt lat="43.59259385278274" lon="12.35163232495957"><ele>585.0</ele><time>2026-04-20T14:26:29Z</time></trkpt><trkpt lat="43.59259232236938" lon="12.351507036792716"><ele>585.0</ele><time>2026-04-20T14:26:30Z</time></trkpt><trkpt lat="43.5926017357453" lon="12.351341333617908"><ele>585.0</ele><time>2026-04-20T14:26:31Z</time></trkpt><trkpt lat="43.59259916065198" lon="12.351184904809312"><ele>585.0</ele><time>2026-04-20T14:26:32Z</time></trkpt><trkpt lat="43.59259497097108" lon="12.351039125339003"><ele>585.0</ele><time>2026-04-20T14:26:33Z</time></trkpt><trkpt lat="43.59258232026553" lon="12.3509150801001"><ele>585.0</ele><time>2026-04-20T14:26:34Z</time></trkpt><trkpt lat="43.592548573576806" lon="12.350821234011162"><ele>585.0</ele><time>2026-04-20T14:26:36Z</time></trkpt><trkpt lat="43.592467881633425" lon="12.350816383012162"><ele>585.0</ele><time>2026-04-20T14:26:38Z</time></trkpt><trkpt lat="43.592342598866516" lon="12.350829370176687"><ele>585.0</ele><time>2026-04-20T14:26:40Z</time></trkpt><trkpt lat="43.592238688149926" lon="12.350858206280115"><ele>585.0</ele><time>2026-04-20T14:26:42Z</time></trkpt><trkpt lat="43.59213867981794" lon="12.350836536029512"><ele>585.0</ele><time>2026-04-20T14:26:44Z</time></trkpt><trkpt lat="43.592036636404785" lon="12.350749304793723"><ele>585.6</ele><time>2026-04-20T14:26:46Z</time></trkpt><trkpt lat="43.5919787973703" lon="12.350691173084643"><ele>586.2</ele><time>2026-04-20T14:26:47Z</time></trkpt><trkpt lat="43.591913264845786" lon="12.350615756230624"><ele>586.8</ele><time>2026-04-20T14:26:48Z</time></trkpt><trkpt lat="43.591843895732275" lon="12.350522264585898"><ele>587.4</ele><time>2026-04-20T14:26:49Z</time></trkpt><trkpt lat="43.59177306403783" lon="12.350408855227553"><ele>588.0</ele><time>2026-04-20T14:26:50Z</time></trkpt><trkpt lat="43.59169454753944" lon="12.350287206242154"><ele>590.25</ele><time>2026-04-20T14:26:51Z</time></trkpt><trkpt lat="43.59160707212425" lon="12.350171810141184"><ele>592.5</ele><time>2026-04-20T14:26:52Z</time></trkpt><trkpt lat="43.591519470825126" lon="12.350069854891258"><ele>594.75</ele><time>2026-04-20T14:26:53Z</time></trkpt><trkpt lat="43.591424216205645" lon="12.349992362130864"><ele>597.0</ele><time>2026-04-20T14:26:54Z</time></trkpt><trkpt lat="43.59131526719567" lon="12.349926741841271"><ele>597.0</ele><time>2026-04-20T14:26:55Z</time></trkpt><trkpt lat="43.591214180291445" lon="12.349880818082458"><ele>597.0</ele><time>2026-04-20T14:26:56Z</time></trkpt><trkpt lat="43.591120911460514" lon="12.34985117175061"><ele>597.0</ele><time>2026-04-20T14:26:57Z</time></trkpt><trkpt lat="43.591034522200715" lon="12.349825635272326"><ele>597.0</ele><time>2026-04-20T14:26:58Z</time></trkpt><trkpt lat="43.590971686359055" lon="12.349777976114828"><ele>597.0</ele><time>2026-04-20T14:26:59Z</time></trkpt><trkpt lat="43.59091278581934" lon="12.349689820205334"><ele>597.0</ele><time>2026-04-20T14:27:00Z</time></trkpt><trkpt lat="43.590844535205775" lon="12.34960313205211"><ele>602.75</ele><time>2026-04-20T14:27:01Z</time></trkpt><trkpt lat="43.59073124600163" lon="12.349527283067172"><ele>608.5</ele><time>2026-04-20T14:27:02Z</time></trkpt><trkpt lat="43.59063386772863" lon="12.349448600664223"><ele>614.25</ele><time>2026-04-20T14:27:03Z</time></trkpt><trkpt lat="43.590553566116434" lon="12.349354253821295"><ele>620.0</ele><time>2026-04-20T14:27:04Z</time></trkpt><trkpt lat="43.590475292938535" lon="12.34924967956232"><ele>620.0</ele><time>2026-04-20T14:27:05Z</time></trkpt><trkpt lat="43.590394609311446" lon="12.349128371636642"><ele>620.0</ele><time>2026-04-20T14:27:06Z</time></trkpt><trkpt lat="43.59031327069569" lon="12.348998590807067"><ele>620.0</ele><time>2026-04-20T14:27:07Z</time></trkpt><trkpt lat="43.590231879770506" lon="12.348856380517736"><ele>620.0</ele><time>2026-04-20T14:27:08Z</time></trkpt><trkpt lat="43.59014101784345" lon="12.34871518174114"><ele>620.75</ele><time>2026-04-20T14:27:09Z</time></trkpt><trkpt lat="43.59004504349789" lon="12.348582815608456"><ele>621.5</ele><time>2026-04-20T14:27:10Z</time></trkpt><trkpt lat="43.589952436514494" lon="12.348466808531105"><ele>622.25</ele><time>2026-04-20T14:27:11Z</time></trkpt><trkpt lat="43.58985992755709" lon="12.348361324289499"><ele>623.0</ele><time>2026-04-20T14:27:12Z</time></trkpt><trkpt lat="43.58976828091959" lon="12.348261817431839"><ele>623.0</ele><time>2026-04-20T14:27:13Z</time></trkpt><trkpt lat="43.58966201711717" lon="12.348188365773316"><ele>623.0</ele><time>2026-04-20T14:27:14Z</time></trkpt><trkpt lat="43.5895518759142" lon="12.348140258337931"><ele>623.0</ele><time>2026-04-20T14:27:15Z</time></trkpt><trkpt lat="43.589473999395864" lon="12.348102322896121"><ele>623.0</ele><time>2026-04-20T14:27:16Z</time></trkpt><trkpt lat="43.58941921224875" lon="12.348045072666485"><ele>623.0</ele><time>2026-04-20T14:27:17Z</time></trkpt><trkpt lat="43.58937646578435" lon="12.347964032216177"><ele>624.6</ele><time>2026-04-20T14:27:18Z</time></trkpt><trkpt lat="43.589328530069885" lon="12.34788373516242"><ele>626.1999999999999</ele><time>2026-04-20T14:27:19Z</time></trkpt><trkpt lat="43.58925349377677" lon="12.347810958345983"><ele>627.8</ele><time>2026-04-20T14:27:20Z</time></trkpt><trkpt lat="43.58915298443479" lon="12.347747894661321"><ele>629.4</ele><time>2026-04-20T14:27:21Z</time></trkpt><trkpt lat="43.58904696194991" lon="12.347712122303045"><ele>631.0</ele><time>2026-04-20T14:27:22Z</time></trkpt><trkpt lat="43.588929616007874" lon="12.347710120566664"><ele>631.0</ele><time>2026-04-20T14:27:23Z</time></trkpt><trkpt lat="43.588806256658465" lon="12.347723579175483"><ele>631.0</ele><time>2026-04-20T14:27:24Z</time></trkpt><trkpt lat="43.588697843059975" lon="12.347709806862863"><ele>631.0</ele><time>2026-04-20T14:27:25Z</time></trkpt><trkpt lat="43.58859587318539" lon="12.347660349991596"><ele>631.0</ele><time>2026-04-20T14:27:26Z</time></trkpt><trkpt lat="43.588493396013924" lon="12.347583054893136"><ele>629.75</ele><time>2026-04-20T14:27:27Z</time></trkpt><trkpt lat="43.58837500289126" lon="12.347501259012063"><ele>628.5</ele><time>2026-04-20T14:27:28Z</time></trkpt><trkpt lat="43.58824938130607" lon="12.347418891246583"><ele>627.25</ele><time>2026-04-20T14:27:29Z</time></trkpt><trkpt lat="43.58811497212888" lon="12.347358527844886"><ele>626.0</ele><time>2026-04-20T14:27:30Z</time></trkpt><trkpt lat="43.588003347858574" lon="12.347320288626513"><ele>626.0</ele><time>2026-04-20T14:27:31Z</time></trkpt><trkpt lat="43.587919570844335" lon="12.347278908176373"><ele>626.0</ele><time>2026-04-20T14:27:32Z</time></trkpt><trkpt lat="43.58784016068965" lon="12.347216778375929"><ele>626.0</ele><time>2026-04-20T14:27:33Z</time></trkpt><trkpt lat="43.58775403909119" lon="12.347119011042745"><ele>626.0</ele><time>2026-04-20T14:27:34Z</time></trkpt><trkpt lat="43.58763679068463" lon="12.3470054634213"><ele>626.0</ele><time>2026-04-20T14:27:35Z</time></trkpt><trkpt lat="43.587529138348266" lon="12.346948621973489"><ele>629.2</ele><time>2026-04-20T14:27:36Z</time></trkpt><trkpt lat="43.5874354434028" lon="12.346945553208792"><ele>632.4000000000001</ele><time>2026-04-20T14:27:37Z</time></trkpt><trkpt lat="43.58732860714087" lon="12.346954606711357"><ele>635.6</ele><time>2026-04-20T14:27:38Z</time></trkpt><trkpt lat="43.58723316379808" lon="12.346954936426341"><ele>638.8000000000001</ele><time>2026-04-20T14:27:39Z</time></trkpt><trkpt lat="43.587157342109734" lon="12.346907470234488"><ele>642.0</ele><time>2026-04-20T14:27:40Z</time></trkpt><trkpt lat="43.58709563249657" lon="12.34677215882589"><ele>642.0</ele><time>2026-04-20T14:27:42Z</time></trkpt><trkpt lat="43.587097126606736" lon="12.34666561328681"><ele>642.0</ele><time>2026-04-20T14:27:43Z</time></trkpt><trkpt lat="43.58710902522791" lon="12.346542107201566"><ele>642.0</ele><time>2026-04-20T14:27:44Z</time></trkpt><trkpt lat="43.587119815158246" lon="12.346412617016151"><ele>642.0</ele><time>2026-04-20T14:27:45Z</time></trkpt><trkpt lat="43.58712498967515" lon="12.346264222353806"><ele>642.0</ele><time>2026-04-20T14:27:46Z</time></trkpt><trkpt lat="43.587127789883255" lon="12.346093787409204"><ele>646.0</ele><time>2026-04-20T14:27:47Z</time></trkpt><trkpt lat="43.587120136563804" lon="12.345918644386487"><ele>650.0</ele><time>2026-04-20T14:27:48Z</time></trkpt><trkpt lat="43.58710794003818" lon="12.345756272802694"><ele>654.0</ele><time>2026-04-20T14:27:49Z</time></trkpt><trkpt lat="43.587083476756064" lon="12.345592334459374"><ele>658.0</ele><time>2026-04-20T14:27:50.001Z</time></trkpt><trkpt lat="43.58705065807364" lon="12.345426515598799"><ele>658.8333333333334</ele><time>2026-04-20T14:27:51.001Z</time></trkpt><trkpt lat="43.58702774311892" lon="12.345273512068074"><ele>659.6666666666667</ele><time>2026-04-20T14:27:52.001Z</time></trkpt><trkpt lat="43.58702011792263" lon="12.345146260239664"><ele>660.5</ele><time>2026-04-20T14:27:53.001Z</time></trkpt><trkpt lat="43.58699263929953" lon="12.345052646401484"><ele>661.3333333333334</ele><time>2026-04-20T14:27:54.001Z</time></trkpt><trkpt lat="43.58692468243972" lon="12.345025860440941"><ele>662.1666666666666</ele><time>2026-04-20T14:27:55.001Z</time></trkpt><trkpt lat="43.58683228404413" lon="12.345039255092514"><ele>663.0</ele><time>2026-04-20T14:27:56.001Z</time></trkpt><trkpt lat="43.58675063437754" lon="12.345078548108091"><ele>663.0</ele><time>2026-04-20T14:27:57.001Z</time></trkpt><trkpt lat="43.58668957456553" lon="12.345172886862315"><ele>663.0</ele><time>2026-04-20T14:27:58.001Z</time></trkpt><trkpt lat="43.58664400394171" lon="12.34531517512477"><ele>663.0</ele><time>2026-04-20T14:27:59.001Z</time></trkpt><trkpt lat="43.58659977145624" lon="12.345463612439994"><ele>663.0</ele><time>2026-04-20T14:28:00.001Z</time></trkpt><trkpt lat="43.586519502354975" lon="12.345592461555684"><ele>663.0</ele><time>2026-04-20T14:28:01.001Z</time></trkpt><trkpt lat="43.586408949445335" lon="12.345761454437545"><ele>662.75</ele><time>2026-04-20T14:28:03.001Z</time></trkpt><trkpt lat="43.58629170840142" lon="12.345882438973009"><ele>662.5</ele><time>2026-04-20T14:28:04.001Z</time></trkpt><trkpt lat="43.58618649019231" lon="12.346009247746677"><ele>662.25</ele><time>2026-04-20T14:28:05.001Z</time></trkpt><trkpt lat="43.58612301152499" lon="12.34613699101614"><ele>662.0</ele><time>2026-04-20T14:28:06.001Z</time></trkpt><trkpt lat="43.586077704489306" lon="12.346249402932948"><ele>662.0</ele><time>2026-04-20T14:28:07.001Z</time></trkpt><trkpt lat="43.58602752477956" lon="12.346318534224473"><ele>662.0</ele><time>2026-04-20T14:28:08.001Z</time></trkpt><trkpt lat="43.58595446474005" lon="12.346323437754524"><ele>662.0</ele><time>2026-04-20T14:28:09.001Z</time></trkpt><trkpt lat="43.585881669832126" lon="12.346276357292366"><ele>662.0</ele><time>2026-04-20T14:28:10.001Z</time></trkpt><trkpt lat="43.585790539961735" lon="12.346194150591021"><ele>662.0</ele><time>2026-04-20T14:28:11.001Z</time></trkpt><trkpt lat="43.58568013540639" lon="12.346107773892905"><ele>662.0</ele><time>2026-04-20T14:28:12.001Z</time></trkpt><trkpt lat="43.58557934944701" lon="12.346024569259106"><ele>662.0</ele><time>2026-04-20T14:28:13.001Z</time></trkpt><trkpt lat="43.585469292767016" lon="12.345996315114864"><ele>662.0</ele><time>2026-04-20T14:28:14.001Z</time></trkpt><trkpt lat="43.58536127722967" lon="12.345985517614047"><ele>662.0</ele><time>2026-04-20T14:28:15.001Z</time></trkpt><trkpt lat="43.585262433691675" lon="12.345988887937251"><ele>662.0</ele><time>2026-04-20T14:28:16.001Z</time></trkpt><trkpt lat="43.58518412897089" lon="12.345987581926284"><ele>661.1666666666666</ele><time>2026-04-20T14:28:17.001Z</time></trkpt><trkpt lat="43.5851145378584" lon="12.345954983146276"><ele>660.3333333333333</ele><time>2026-04-20T14:28:18.001Z</time></trkpt><trkpt lat="43.585064601238585" lon="12.345895170371318"><ele>659.5</ele><time>2026-04-20T14:28:19.001Z</time></trkpt><trkpt lat="43.5850243569749" lon="12.345815626641343"><ele>658.6666666666666</ele><time>2026-04-20T14:28:20.001Z</time></trkpt><trkpt lat="43.584994244035016" lon="12.345711120848687"><ele>657.8333333333334</ele><time>2026-04-20T14:28:21.001Z</time></trkpt><trkpt lat="43.584959041092304" lon="12.345530192901698"><ele>657.0</ele><time>2026-04-20T14:28:22.001Z</time></trkpt><trkpt lat="43.58489126663294" lon="12.345367302370205"><ele>659.4000000000001</ele><time>2026-04-20T14:28:23.001Z</time></trkpt><trkpt lat="43.58480478079351" lon="12.345235294392259"><ele>661.8000000000001</ele><time>2026-04-20T14:28:24Z</time></trkpt><trkpt lat="43.58472400174244" lon="12.345112475767335"><ele>664.2</ele><time>2026-04-20T14:28:25Z</time></trkpt><trkpt lat="43.58468149610347" lon="12.345015109081606"><ele>666.6</ele><time>2026-04-20T14:28:26Z</time></trkpt><trkpt lat="43.58462961211004" lon="12.344952111077653"><ele>669.0</ele><time>2026-04-20T14:28:27Z</time></trkpt><trkpt lat="43.58455524050055" lon="12.344940772811276"><ele>669.25</ele><time>2026-04-20T14:28:28Z</time></trkpt><trkpt lat="43.58445797504472" lon="12.344980200076762"><ele>669.5</ele><time>2026-04-20T14:28:29Z</time></trkpt><trkpt lat="43.58434347538878" lon="12.345063135944116"><ele>669.75</ele><time>2026-04-20T14:28:30Z</time></trkpt><trkpt lat="43.584240603480474" lon="12.345158799413145"><ele>670.0</ele><time>2026-04-20T14:28:31Z</time></trkpt><trkpt lat="43.58415857204978" lon="12.34523780400584"><ele>670.0</ele><time>2026-04-20T14:28:32Z</time></trkpt><trkpt lat="43.58409007655037" lon="12.345278690688714"><ele>670.0</ele><time>2026-04-20T14:28:33Z</time></trkpt><trkpt lat="43.58402646558758" lon="12.345242089732405"><ele>670.0</ele><time>2026-04-20T14:28:34Z</time></trkpt><trkpt lat="43.58395671805024" lon="12.345193859417975"><ele>670.0</ele><time>2026-04-20T14:28:35Z</time></trkpt><trkpt lat="43.5838725225558" lon="12.34514041678137"><ele>670.0</ele><time>2026-04-20T14:28:36Z</time></trkpt><trkpt lat="43.58378107083352" lon="12.345032792827743"><ele>670.0</ele><time>2026-04-20T14:28:37Z</time></trkpt><trkpt lat="43.58368949628912" lon="12.34492692385193"><ele>668.75</ele><time>2026-04-20T14:28:38Z</time></trkpt><trkpt lat="43.58357356833524" lon="12.344841806131088"><ele>667.5</ele><time>2026-04-20T14:28:39Z</time></trkpt><trkpt lat="43.58346707929949" lon="12.344765085848753"><ele>666.25</ele><time>2026-04-20T14:28:40Z</time></trkpt><trkpt lat="43.58338266485484" lon="12.344665959374154"><ele>665.0</ele><time>2026-04-20T14:28:41Z</time></trkpt><trkpt lat="43.583308368809156" lon="12.344528906860274"><ele>669.0</ele><time>2026-04-20T14:28:42Z</time></trkpt><trkpt lat="43.583223993957326" lon="12.344395007917061"><ele>673.0</ele><time>2026-04-20T14:28:43Z</time></trkpt><trkpt lat="43.58314097409269" lon="12.344294039614713"><ele>677.0</ele><time>2026-04-20T14:28:44Z</time></trkpt><trkpt lat="43.583031075156" lon="12.344229228092853"><ele>681.0</ele><time>2026-04-20T14:28:45Z</time></trkpt><trkpt lat="43.58290754293565" lon="12.344179573734127"><ele>680.8333333333334</ele><time>2026-04-20T14:28:46Z</time></trkpt><trkpt lat="43.582790727531936" lon="12.344126202251346"><ele>680.6666666666666</ele><time>2026-04-20T14:28:47Z</time></trkpt><trkpt lat="43.58270290274769" lon="12.34406239516581"><ele>680.5</ele><time>2026-04-20T14:28:48Z</time></trkpt><trkpt lat="43.58263792927769" lon="12.344032500144753"><ele>680.3333333333333</ele><time>2026-04-20T14:28:49Z</time></trkpt><trkpt lat="43.582575994909135" lon="12.344065001548312"><ele>680.1666666666666</ele><time>2026-04-20T14:28:50Z</time></trkpt><trkpt lat="43.58252048914863" lon="12.34414873598978"><ele>680.0</ele><time>2026-04-20T14:28:51Z</time></trkpt><trkpt lat="43.582477996776504" lon="12.34427286202257"><ele>680.0</ele><time>2026-04-20T14:28:52Z</time></trkpt><trkpt lat="43.582435932696036" lon="12.344417133418736"><ele>680.0</ele><time>2026-04-20T14:28:53Z</time></trkpt><trkpt lat="43.58238391800205" lon="12.344515494389913"><ele>680.0</ele><time>2026-04-20T14:28:54Z</time></trkpt><trkpt lat="43.58231878394577" lon="12.344581341186514"><ele>680.0</ele><time>2026-04-20T14:28:55Z</time></trkpt><trkpt lat="43.58224174354399" lon="12.344608897334172"><ele>680.0</ele><time>2026-04-20T14:28:56Z</time></trkpt><trkpt lat="43.58217729936195" lon="12.344591348673553"><ele>680.0</ele><time>2026-04-20T14:28:57Z</time></trkpt><trkpt lat="43.58209142195665" lon="12.344530250239048"><ele>680.8333333333333</ele><time>2026-04-20T14:28:59Z</time></trkpt><trkpt lat="43.582011192307" lon="12.344475090336218"><ele>681.6666666666666</ele><time>2026-04-20T14:29:01Z</time></trkpt><trkpt lat="43.58195057060197" lon="12.344427536969572"><ele>682.5</ele><time>2026-04-20T14:29:02Z</time></trkpt><trkpt lat="43.58187351828484" lon="12.344379677537727"><ele>683.3333333333334</ele><time>2026-04-20T14:29:03Z</time></trkpt><trkpt lat="43.58178538618738" lon="12.34433415268114"><ele>684.1666666666667</ele><time>2026-04-20T14:29:04Z</time></trkpt><trkpt lat="43.58169947015564" lon="12.344312047158905"><ele>685.0</ele><time>2026-04-20T14:29:05Z</time></trkpt><trkpt lat="43.58161251063401" lon="12.344328012171186"><ele>685.0</ele><time>2026-04-20T14:29:06Z</time></trkpt><trkpt lat="43.58153580811702" lon="12.344355916308995"><ele>685.0</ele><time>2026-04-20T14:29:07Z</time></trkpt><trkpt lat="43.58147254157846" lon="12.344393959169478"><ele>685.0</ele><time>2026-04-20T14:29:08Z</time></trkpt><trkpt lat="43.58136199511472" lon="12.344438093088632"><ele>685.0</ele><time>2026-04-20T14:29:10Z</time></trkpt><trkpt lat="43.58126451225288" lon="12.344391748547052"><ele>685.0</ele><time>2026-04-20T14:29:12Z</time></trkpt><trkpt lat="43.58121592199373" lon="12.344264094610137"><ele>685.0</ele><time>2026-04-20T14:29:14Z</time></trkpt><trkpt lat="43.58119182417448" lon="12.34416336413561"><ele>685.0</ele><time>2026-04-20T14:29:15Z</time></trkpt><trkpt lat="43.58118394336249" lon="12.344047050702732"><ele>685.0</ele><time>2026-04-20T14:29:16Z</time></trkpt><trkpt lat="43.58117545736708" lon="12.343923383057628"><ele>685.0</ele><time>2026-04-20T14:29:17Z</time></trkpt><trkpt lat="43.58115001433533" lon="12.34381554787254"><ele>685.0</ele><time>2026-04-20T14:29:18Z</time></trkpt><trkpt lat="43.58109613599854" lon="12.343731969458334"><ele>685.0</ele><time>2026-04-20T14:29:19Z</time></trkpt><trkpt lat="43.58101382389774" lon="12.343665276831764"><ele>683.6</ele><time>2026-04-20T14:29:20Z</time></trkpt><trkpt lat="43.58091883286489" lon="12.343631082908184"><ele>682.2</ele><time>2026-04-20T14:29:21Z</time></trkpt><trkpt lat="43.580809650566366" lon="12.343630219178975"><ele>680.8</ele><time>2026-04-20T14:29:22Z</time></trkpt><trkpt lat="43.58070724083494" lon="12.343644738820755"><ele>679.4</ele><time>2026-04-20T14:29:23Z</time></trkpt><trkpt lat="43.58061459773793" lon="12.343656014809236"><ele>678.0</ele><time>2026-04-20T14:29:24Z</time></trkpt><trkpt lat="43.58051798238513" lon="12.343644676421386"><ele>678.0</ele><time>2026-04-20T14:29:25Z</time></trkpt><trkpt lat="43.580414888813344" lon="12.343592750895903"><ele>678.0</ele><time>2026-04-20T14:29:26Z</time></trkpt><trkpt lat="43.58031112565309" lon="12.343525109790711"><ele>678.0</ele><time>2026-04-20T14:29:27Z</time></trkpt><trkpt lat="43.58021396907483" lon="12.343468230686227"><ele>678.0</ele><time>2026-04-20T14:29:28Z</time></trkpt><trkpt lat="43.58012768745825" lon="12.34341531064246"><ele>678.0</ele><time>2026-04-20T14:29:29Z</time></trkpt><trkpt lat="43.580053991154024" lon="12.343352934873481"><ele>678.4</ele><time>2026-04-20T14:29:30Z</time></trkpt><trkpt lat="43.57998528684549" lon="12.343271394514762"><ele>678.8</ele><time>2026-04-20T14:29:31Z</time></trkpt><trkpt lat="43.57992362812128" lon="12.343171596253889"><ele>679.2</ele><time>2026-04-20T14:29:32Z</time></trkpt><trkpt lat="43.57986047383354" lon="12.343045782769513"><ele>679.6</ele><time>2026-04-20T14:29:33Z</time></trkpt><trkpt lat="43.57979298500459" lon="12.342920336827845"><ele>680.0</ele><time>2026-04-20T14:29:34Z</time></trkpt><trkpt lat="43.57972188071982" lon="12.342807123361078"><ele>680.0</ele><time>2026-04-20T14:29:35Z</time></trkpt><trkpt lat="43.579655124890834" lon="12.342709147434837"><ele>680.0</ele><time>2026-04-20T14:29:36Z</time></trkpt><trkpt lat="43.579597343687944" lon="12.342594841344766"><ele>680.0</ele><time>2026-04-20T14:29:37Z</time></trkpt><trkpt lat="43.579546871666665" lon="12.342451935440447"><ele>680.0</ele><time>2026-04-20T14:29:38Z</time></trkpt><trkpt lat="43.57950283720099" lon="12.342296932379897"><ele>680.0</ele><time>2026-04-20T14:29:39Z</time></trkpt><trkpt lat="43.57946291323671" lon="12.34214877961095"><ele>677.2</ele><time>2026-04-20T14:29:40Z</time></trkpt><trkpt lat="43.57941878751219" lon="12.342016932654655"><ele>674.4</ele><time>2026-04-20T14:29:41Z</time></trkpt><trkpt lat="43.57937864584649" lon="12.341888179044206"><ele>671.5999999999999</ele><time>2026-04-20T14:29:42Z</time></trkpt><trkpt lat="43.579359771929944" lon="12.341761868413148"><ele>668.8</ele><time>2026-04-20T14:29:43Z</time></trkpt><trkpt lat="43.57935613111206" lon="12.341638673010126"><ele>666.0</ele><time>2026-04-20T14:29:44Z</time></trkpt><trkpt lat="43.57934010143612" lon="12.341547305510803"><ele>666.0</ele><time>2026-04-20T14:29:45Z</time></trkpt><trkpt lat="43.57923826658237" lon="12.341511344570623"><ele>666.0</ele><time>2026-04-20T14:29:47Z</time></trkpt><trkpt lat="43.57918054944666" lon="12.341571626817284"><ele>666.0</ele><time>2026-04-20T14:29:48Z</time></trkpt><trkpt lat="43.57912668684692" lon="12.341669159436918"><ele>666.0</ele><time>2026-04-20T14:29:49Z</time></trkpt><trkpt lat="43.57906393898167" lon="12.3418049393097"><ele>666.0</ele><time>2026-04-20T14:29:50Z</time></trkpt><trkpt lat="43.579021372304865" lon="12.341895121187594"><ele>666.0</ele><time>2026-04-20T14:29:51Z</time></trkpt><trkpt lat="43.57896588055869" lon="12.341945182489692"><ele>666.0</ele><time>2026-04-20T14:29:52Z</time></trkpt><trkpt lat="43.57889339966255" lon="12.341949009667672"><ele>666.0</ele><time>2026-04-20T14:29:53Z</time></trkpt><trkpt lat="43.57880388325146" lon="12.341925312021585"><ele>666.0</ele><time>2026-04-20T14:29:54Z</time></trkpt><trkpt lat="43.57869535344145" lon="12.341864456854214"><ele>666.0</ele><time>2026-04-20T14:29:55Z</time></trkpt><trkpt lat="43.57857707343378" lon="12.341796857341519"><ele>667.25</ele><time>2026-04-20T14:29:56.001Z</time></trkpt><trkpt lat="43.57844597677148" lon="12.34174048529017"><ele>668.5</ele><time>2026-04-20T14:29:57.001Z</time></trkpt><trkpt lat="43.578323413212324" lon="12.34169937799611"><ele>669.75</ele><time>2026-04-20T14:29:58.001Z</time></trkpt><trkpt lat="43.57819660102778" lon="12.341688087104645"><ele>671.0</ele><time>2026-04-20T14:29:59.001Z</time></trkpt><trkpt lat="43.57805889507063" lon="12.341715583516468"><ele>671.0</ele><time>2026-04-20T14:30:00.001Z</time></trkpt><trkpt lat="43.57792228612387" lon="12.34175797584728"><ele>671.0</ele><time>2026-04-20T14:30:01.001Z</time></trkpt><trkpt lat="43.57779224718296" lon="12.341800088078378"><ele>671.0</ele><time>2026-04-20T14:30:02.001Z</time></trkpt><trkpt lat="43.577673090635464" lon="12.341829620935341"><ele>671.0</ele><time>2026-04-20T14:30:03.001Z</time></trkpt><trkpt lat="43.57757437863696" lon="12.3418527252354"><ele>671.0</ele><time>2026-04-20T14:30:04.001Z</time></trkpt><trkpt lat="43.57749579637794" lon="12.341892912743159"><ele>671.0</ele><time>2026-04-20T14:30:05.001Z</time></trkpt><trkpt lat="43.57744848130851" lon="12.341963928248596"><ele>671.0</ele><time>2026-04-20T14:30:06.001Z</time></trkpt><trkpt lat="43.57742591332662" lon="12.342056528962656"><ele>671.0</ele><time>2026-04-20T14:30:07.001Z</time></trkpt><trkpt lat="43.57743648543822" lon="12.342165298693148"><ele>671.0</ele><time>2026-04-20T14:30:08.001Z</time></trkpt><trkpt lat="43.57747203737587" lon="12.342280476464047"><ele>671.0</ele><time>2026-04-20T14:30:09.001Z</time></trkpt><trkpt lat="43.57753163100752" lon="12.342383654828128"><ele>671.0</ele><time>2026-04-20T14:30:10.001Z</time></trkpt><trkpt lat="43.57762836823925" lon="12.3424405994"><ele>671.0</ele><time>2026-04-20T14:30:11.001Z</time></trkpt><trkpt lat="43.57772881767794" lon="12.34246719218505"><ele>671.0</ele><time>2026-04-20T14:30:12.001Z</time></trkpt><trkpt lat="43.577830308594734" lon="12.342465132369096"><ele>671.0</ele><time>2026-04-20T14:30:13.001Z</time></trkpt><trkpt lat="43.577914800352644" lon="12.342488579559152"><ele>671.0</ele><time>2026-04-20T14:30:14.001Z</time></trkpt><trkpt lat="43.577987153776746" lon="12.34254879909323"><ele>668.4</ele><time>2026-04-20T14:30:15.001Z</time></trkpt><trkpt lat="43.57806856586273" lon="12.342639024965706"><ele>665.8</ele><time>2026-04-20T14:30:16.001Z</time></trkpt><trkpt lat="43.5781523267175" lon="12.34273617957912"><ele>663.1999999999999</ele><time>2026-04-20T14:30:17.001Z</time></trkpt><trkpt lat="43.57822102962274" lon="12.342814813405194"><ele>660.5999999999999</ele><time>2026-04-20T14:30:18.001Z</time></trkpt><trkpt lat="43.57827460124631" lon="12.34290377418298"><ele>658.0</ele><time>2026-04-20T14:30:19.001Z</time></trkpt><trkpt lat="43.578329261813295" lon="12.343016451410568"><ele>661.4</ele><time>2026-04-20T14:30:20.001Z</time></trkpt><trkpt lat="43.5783915566483" lon="12.343141633232797"><ele>664.8</ele><time>2026-04-20T14:30:21.001Z</time></trkpt><trkpt lat="43.57846853543198" lon="12.343258022121113"><ele>668.2</ele><time>2026-04-20T14:30:22.001Z</time></trkpt><trkpt lat="43.57856472218252" lon="12.343363519784289"><ele>671.6</ele><time>2026-04-20T14:30:23.001Z</time></trkpt><trkpt lat="43.57863093452692" lon="12.343465020597577"><ele>675.0</ele><time>2026-04-20T14:30:24.001Z</time></trkpt><trkpt lat="43.57866398971971" lon="12.34355858349973"><ele>675.0</ele><time>2026-04-20T14:30:25.001Z</time></trkpt><trkpt lat="43.57866829049343" lon="12.343657516084853"><ele>675.0</ele><time>2026-04-20T14:30:26.001Z</time></trkpt><trkpt lat="43.578649657993275" lon="12.343778474085385"><ele>675.0</ele><time>2026-04-20T14:30:27.001Z</time></trkpt><trkpt lat="43.57862355668654" lon="12.34393188213389"><ele>675.0</ele><time>2026-04-20T14:30:28.001Z</time></trkpt><trkpt lat="43.57858400457378" lon="12.344081295598105"><ele>675.0</ele><time>2026-04-20T14:30:29.001Z</time></trkpt><trkpt lat="43.5785374655799" lon="12.344192607096677"><ele>677.2</ele><time>2026-04-20T14:30:30.001Z</time></trkpt><trkpt lat="43.57855948245479" lon="12.34429485041733"><ele>679.4</ele><time>2026-04-20T14:30:31.001Z</time></trkpt><trkpt lat="43.57860629530551" lon="12.344387373121972"><ele>681.5999999999999</ele><time>2026-04-20T14:30:32.001Z</time></trkpt><trkpt lat="43.578697690705" lon="12.34442915583321"><ele>683.8</ele><time>2026-04-20T14:30:33.001Z</time></trkpt><trkpt lat="43.57878613491336" lon="12.344466443378819"><ele>686.0</ele><time>2026-04-20T14:30:34.001Z</time></trkpt><trkpt lat="43.57889110079128" lon="12.344466459253745"><ele>682.1999999999999</ele><time>2026-04-20T14:30:35.001Z</time></trkpt><trkpt lat="43.578974922472284" lon="12.344528634387837"><ele>678.4</ele><time>2026-04-20T14:30:36.001Z</time></trkpt><trkpt lat="43.5790528712106" lon="12.344644586959815"><ele>674.6</ele><time>2026-04-20T14:30:37.001Z</time></trkpt><trkpt lat="43.579112022575664" lon="12.344791712777477"><ele>670.8</ele><time>2026-04-20T14:30:38.001Z</time></trkpt><trkpt lat="43.57914027016063" lon="12.34492771274964"><ele>667.0</ele><time>2026-04-20T14:30:39.001Z</time></trkpt><trkpt lat="43.579156788639395" lon="12.34506212151896"><ele>667.0</ele><time>2026-04-20T14:30:40.001Z</time></trkpt><trkpt lat="43.57914935170523" lon="12.345175437114532"><ele>667.0</ele><time>2026-04-20T14:30:41.001Z</time></trkpt><trkpt lat="43.57911465903487" lon="12.34527567290588"><ele>667.0</ele><time>2026-04-20T14:30:42.001Z</time></trkpt><trkpt lat="43.57906440502406" lon="12.345402031352405"><ele>667.0</ele><time>2026-04-20T14:30:43.001Z</time></trkpt><trkpt lat="43.57900483139808" lon="12.345560238283896"><ele>667.0</ele><time>2026-04-20T14:30:44.001Z</time></trkpt><trkpt lat="43.57895640536147" lon="12.345697663693478"><ele>668.0</ele><time>2026-04-20T14:30:45.001Z</time></trkpt><trkpt lat="43.57892424314751" lon="12.34582614525476"><ele>669.0</ele><time>2026-04-20T14:30:46.001Z</time></trkpt><trkpt lat="43.578932379246865" lon="12.345954395953962"><ele>670.0</ele><time>2026-04-20T14:30:47.001Z</time></trkpt><trkpt lat="43.57898557759475" lon="12.34608314518968"><ele>671.0</ele><time>2026-04-20T14:30:48.001Z</time></trkpt><trkpt lat="43.57906652756502" lon="12.346172542916024"><ele>672.0</ele><time>2026-04-20T14:30:49.001Z</time></trkpt><trkpt lat="43.579145942095394" lon="12.34620896747567"><ele>672.0</ele><time>2026-04-20T14:30:50.001Z</time></trkpt><trkpt lat="43.57918974662455" lon="12.34629453717249"><ele>672.0</ele><time>2026-04-20T14:30:52.001Z</time></trkpt><trkpt lat="43.579156442283164" lon="12.346406221973469"><ele>672.0</ele><time>2026-04-20T14:30:55.001Z</time></trkpt><trkpt lat="43.579146205122576" lon="12.346495760492372"><ele>672.0</ele><time>2026-04-20T14:30:56.001Z</time></trkpt><trkpt lat="43.57913653378696" lon="12.346599851405303"><ele>672.0</ele><time>2026-04-20T14:30:57.001Z</time></trkpt><trkpt lat="43.57914179370812" lon="12.346711150713725"><ele>672.0</ele><time>2026-04-20T14:30:58.001Z</time></trkpt><trkpt lat="43.579158287111134" lon="12.346832140388791"><ele>673.1666666666666</ele><time>2026-04-20T14:30:59.001Z</time></trkpt><trkpt lat="43.579168753039426" lon="12.346953745589193"><ele>674.3333333333334</ele><time>2026-04-20T14:31:00.001Z</time></trkpt><trkpt lat="43.579173590216215" lon="12.347074286884393"><ele>675.5</ele><time>2026-04-20T14:31:01.001Z</time></trkpt><trkpt lat="43.57916876783666" lon="12.347182306383733"><ele>676.6666666666667</ele><time>2026-04-20T14:31:02.001Z</time></trkpt><trkpt lat="43.57914742215462" lon="12.347292010403942"><ele>677.8333333333334</ele><time>2026-04-20T14:31:03.001Z</time></trkpt><trkpt lat="43.579108105383206" lon="12.347389993737306"><ele>679.0</ele><time>2026-04-20T14:31:04.001Z</time></trkpt><trkpt lat="43.57905356877998" lon="12.347474759621024"><ele>680.5</ele><time>2026-04-20T14:31:05Z</time></trkpt><trkpt lat="43.57899604870228" lon="12.347562743847071"><ele>682.0</ele><time>2026-04-20T14:31:06Z</time></trkpt><trkpt lat="43.578948972017045" lon="12.347651424178999"><ele>683.5</ele><time>2026-04-20T14:31:07Z</time></trkpt><trkpt lat="43.578896936212594" lon="12.34773312990281"><ele>685.0</ele><time>2026-04-20T14:31:08Z</time></trkpt><trkpt lat="43.5788214949934" lon="12.347812133484526"><ele>686.5</ele><time>2026-04-20T14:31:09Z</time></trkpt><trkpt lat="43.57872862710702" lon="12.347893397915266"><ele>688.0</ele><time>2026-04-20T14:31:10Z</time></trkpt><trkpt lat="43.57863990088525" lon="12.347975461498521"><ele>682.2</ele><time>2026-04-20T14:31:11Z</time></trkpt><trkpt lat="43.5785495462667" lon="12.348052342491762"><ele>676.4</ele><time>2026-04-20T14:31:12Z</time></trkpt><trkpt lat="43.57846683251575" lon="12.348087415543995"><ele>670.6</ele><time>2026-04-20T14:31:13Z</time></trkpt><trkpt lat="43.57839027118448" lon="12.348162260980175"><ele>664.8000000000001</ele><time>2026-04-20T14:31:14Z</time></trkpt><trkpt lat="43.578319755406255" lon="12.348253127948317"><ele>659.0</ele><time>2026-04-20T14:31:15Z</time></trkpt><trkpt lat="43.578260147915906" lon="12.348359103915781"><ele>659.0</ele><time>2026-04-20T14:31:16Z</time></trkpt><trkpt lat="43.578213339235305" lon="12.34846363761935"><ele>659.0</ele><time>2026-04-20T14:31:17Z</time></trkpt><trkpt lat="43.578150269151536" lon="12.348541436668652"><ele>659.0</ele><time>2026-04-20T14:31:18Z</time></trkpt><trkpt lat="43.57807064222036" lon="12.348581349229283"><ele>659.0</ele><time>2026-04-20T14:31:19Z</time></trkpt><trkpt lat="43.577991022213865" lon="12.348572580955654"><ele>659.0</ele><time>2026-04-20T14:31:20Z</time></trkpt><trkpt lat="43.5778957750879" lon="12.348548666228199"><ele>659.0</ele><time>2026-04-20T14:31:21Z</time></trkpt><trkpt lat="43.57780443689754" lon="12.348522874411492"><ele>659.0</ele><time>2026-04-20T14:31:22Z</time></trkpt><trkpt lat="43.577720649645336" lon="12.348524514105625"><ele>659.0</ele><time>2026-04-20T14:31:23Z</time></trkpt><trkpt lat="43.57764639368971" lon="12.348551166607304"><ele>659.0</ele><time>2026-04-20T14:31:24Z</time></trkpt><trkpt lat="43.57757881685358" lon="12.348597407518099"><ele>659.0</ele><time>2026-04-20T14:31:25Z</time></trkpt><trkpt lat="43.577528049885835" lon="12.348664406515116"><ele>659.0</ele><time>2026-04-20T14:31:26Z</time></trkpt><trkpt lat="43.577491576779806" lon="12.348774741376937"><ele>659.0</ele><time>2026-04-20T14:31:27Z</time></trkpt><trkpt lat="43.57748780787886" lon="12.34887876032709"><ele>659.0</ele><time>2026-04-20T14:31:28Z</time></trkpt><trkpt lat="43.577498661763656" lon="12.34897032250699"><ele>659.0</ele><time>2026-04-20T14:31:29Z</time></trkpt><trkpt lat="43.57750194687072" lon="12.349064764036832"><ele>659.0</ele><time>2026-04-20T14:31:30Z</time></trkpt><trkpt lat="43.57749873767772" lon="12.349174749005657"><ele>659.0</ele><time>2026-04-20T14:31:31Z</time></trkpt><trkpt lat="43.577484779737524" lon="12.349288206982932"><ele>659.0</ele><time>2026-04-20T14:31:32Z</time></trkpt><trkpt lat="43.577450248629496" lon="12.349396418573857"><ele>659.0</ele><time>2026-04-20T14:31:33Z</time></trkpt><trkpt lat="43.57739495589119" lon="12.349509435271719"><ele>659.0</ele><time>2026-04-20T14:31:34Z</time></trkpt><trkpt lat="43.57732379765787" lon="12.349625270275183"><ele>659.0</ele><time>2026-04-20T14:31:35Z</time></trkpt><trkpt lat="43.577253273525905" lon="12.349743597063098"><ele>659.0</ele><time>2026-04-20T14:31:36Z</time></trkpt><trkpt lat="43.57718410674745" lon="12.349858289710665"><ele>659.0</ele><time>2026-04-20T14:31:37Z</time></trkpt><trkpt lat="43.57712216601743" lon="12.349966197487836"><ele>659.0</ele><time>2026-04-20T14:31:38Z</time></trkpt><trkpt lat="43.577068138939964" lon="12.350066716982775"><ele>659.4000000000001</ele><time>2026-04-20T14:31:39Z</time></trkpt><trkpt lat="43.57701675515477" lon="12.350155912038455"><ele>659.8</ele><time>2026-04-20T14:31:40Z</time></trkpt><trkpt lat="43.576948142727424" lon="12.35025569516397"><ele>660.2</ele><time>2026-04-20T14:31:41Z</time></trkpt><trkpt lat="43.57686830049523" lon="12.35033450070403"><ele>660.5999999999999</ele><time>2026-04-20T14:31:42Z</time></trkpt><trkpt lat="43.576807693541824" lon="12.350372363134914"><ele>661.0</ele><time>2026-04-20T14:31:43Z</time></trkpt><trkpt lat="43.576712557218755" lon="12.35042959559532"><ele>661.0</ele><time>2026-04-20T14:31:45Z</time></trkpt><trkpt lat="43.576760636858" lon="12.350343891450207"><ele>661.0</ele><time>2026-04-20T14:33:02Z</time></trkpt><trkpt lat="43.576718658242534" lon="12.350273189825096"><ele>661.0</ele><time>2026-04-20T14:33:04Z</time></trkpt><trkpt lat="43.57661729801126" lon="12.350290571626703"><ele>661.0</ele><time>2026-04-20T14:33:06Z</time></trkpt><trkpt lat="43.5765519522304" lon="12.35032490774907"><ele>661.0</ele><time>2026-04-20T14:33:07Z</time></trkpt><trkpt lat="43.57647909227227" lon="12.350357501796768"><ele>661.0</ele><time>2026-04-20T14:33:08Z</time></trkpt><trkpt lat="43.576399593269045" lon="12.350381802037404"><ele>661.0</ele><time>2026-04-20T14:33:09Z</time></trkpt><trkpt lat="43.57633566710856" lon="12.350416183103233"><ele>661.0</ele><time>2026-04-20T14:33:10Z</time></trkpt><trkpt lat="43.576272687016" lon="12.350472187468746"><ele>661.0</ele><time>2026-04-20T14:33:11Z</time></trkpt><trkpt lat="43.576214066849175" lon="12.350543321822753"><ele>661.0</ele><time>2026-04-20T14:33:12Z</time></trkpt><trkpt lat="43.57616414055764" lon="12.350596526899928"><ele>661.0</ele><time>2026-04-20T14:33:13Z</time></trkpt><trkpt lat="43.5760933959589" lon="12.350636465204877"><ele>661.0</ele><time>2026-04-20T14:33:14Z</time></trkpt><trkpt lat="43.57602275495836" lon="12.350664740019374"><ele>661.0</ele><time>2026-04-20T14:33:15Z</time></trkpt><trkpt lat="43.57594173441835" lon="12.35069546470476"><ele>660.0</ele><time>2026-04-20T14:33:16Z</time></trkpt><trkpt lat="43.575846225009656" lon="12.35072980942872"><ele>659.0</ele><time>2026-04-20T14:33:17Z</time></trkpt><trkpt lat="43.5757366818898" lon="12.350755445758958"><ele>658.0</ele><time>2026-04-20T14:33:18Z</time></trkpt><trkpt lat="43.57562846150063" lon="12.350773690923885"><ele>657.0</ele><time>2026-04-20T14:33:19Z</time></trkpt><trkpt lat="43.57551722727531" lon="12.350783509232825"><ele>656.0</ele><time>2026-04-20T14:33:20Z</time></trkpt><trkpt lat="43.57541067577879" lon="12.350796944981631"><ele>660.0</ele><time>2026-04-20T14:33:21Z</time></trkpt><trkpt lat="43.57531126735812" lon="12.350836895476586"><ele>664.0</ele><time>2026-04-20T14:33:22Z</time></trkpt><trkpt lat="43.57521535454494" lon="12.350888117654103"><ele>668.0</ele><time>2026-04-20T14:33:23Z</time></trkpt><trkpt lat="43.57512575886356" lon="12.35093204728108"><ele>672.0</ele><time>2026-04-20T14:33:24Z</time></trkpt><trkpt lat="43.575048033136795" lon="12.350949529976697"><ele>676.0</ele><time>2026-04-20T14:33:25Z</time></trkpt><trkpt lat="43.57497430664332" lon="12.350938789546376"><ele>676.0</ele><time>2026-04-20T14:33:26Z</time></trkpt><trkpt lat="43.574898931076014" lon="12.350916742938042"><ele>676.0</ele><time>2026-04-20T14:33:27Z</time></trkpt><trkpt lat="43.5748069608554" lon="12.350863358629418"><ele>676.0</ele><time>2026-04-20T14:33:28Z</time></trkpt><trkpt lat="43.57471145516515" lon="12.350813829457655"><ele>676.0</ele><time>2026-04-20T14:33:29Z</time></trkpt><trkpt lat="43.574647803481966" lon="12.350784563199353"><ele>676.0</ele><time>2026-04-20T14:33:30Z</time></trkpt><trkpt lat="43.57455855964857" lon="12.350812716421045"><ele>676.0</ele><time>2026-04-20T14:33:32Z</time></trkpt><trkpt lat="43.57454225678411" lon="12.350965860798347"><ele>676.0</ele><time>2026-04-20T14:33:58Z</time></trkpt><trkpt lat="43.574537373979375" lon="12.351127754066628"><ele>676.0</ele><time>2026-04-20T14:34:00Z</time></trkpt><trkpt lat="43.5745392897045" lon="12.351226831970452"><ele>676.0</ele><time>2026-04-20T14:34:01Z</time></trkpt><trkpt lat="43.5745465339805" lon="12.351329820389095"><ele>676.0</ele><time>2026-04-20T14:34:02Z</time></trkpt><trkpt lat="43.57454838995426" lon="12.351418341605884"><ele>676.0</ele><time>2026-04-20T14:34:03Z</time></trkpt><trkpt lat="43.574502024454254" lon="12.3515279581317"><ele>676.0</ele><time>2026-04-20T14:34:05Z</time></trkpt><trkpt lat="43.57439749937041" lon="12.351520212707529"><ele>674.4</ele><time>2026-04-20T14:34:07Z</time></trkpt><trkpt lat="43.574292933389565" lon="12.351450436699038"><ele>672.8</ele><time>2026-04-20T14:34:09Z</time></trkpt><trkpt lat="43.57424262400348" lon="12.35138454827113"><ele>671.1999999999999</ele><time>2026-04-20T14:34:10Z</time></trkpt><trkpt lat="43.57417264300412" lon="12.351318309427517"><ele>669.5999999999999</ele><time>2026-04-20T14:34:11Z</time></trkpt><trkpt lat="43.57410409128737" lon="12.351257811617433"><ele>668.0</ele><time>2026-04-20T14:34:12Z</time></trkpt><trkpt lat="43.57399491410134" lon="12.351260660759904"><ele>668.0</ele><time>2026-04-20T14:34:14Z</time></trkpt><trkpt lat="43.573864595531425" lon="12.351328395752045"><ele>668.0</ele><time>2026-04-20T14:34:16Z</time></trkpt><trkpt lat="43.57380835566979" lon="12.351398427367403"><ele>668.0</ele><time>2026-04-20T14:34:17Z</time></trkpt><trkpt lat="43.573767584652" lon="12.351485960315753"><ele>668.0</ele><time>2026-04-20T14:34:18Z</time></trkpt><trkpt lat="43.573727609781606" lon="12.35156887347939"><ele>668.0</ele><time>2026-04-20T14:34:19Z</time></trkpt><trkpt lat="43.57367124463081" lon="12.35162689520694"><ele>668.0</ele><time>2026-04-20T14:34:20Z</time></trkpt><trkpt lat="43.573607839712935" lon="12.35166622797576"><ele>669.5</ele><time>2026-04-20T14:34:21Z</time></trkpt><trkpt lat="43.573543432457605" lon="12.35167955496824"><ele>671.0</ele><time>2026-04-20T14:34:22Z</time></trkpt><trkpt lat="43.57347767099152" lon="12.351675734841017"><ele>672.5</ele><time>2026-04-20T14:34:23Z</time></trkpt><trkpt lat="43.5733821670406" lon="12.35159821250904"><ele>674.0</ele><time>2026-04-20T14:34:25Z</time></trkpt><trkpt lat="43.57331636281317" lon="12.351553748790028"><ele>675.5</ele><time>2026-04-20T14:34:26Z</time></trkpt><trkpt lat="43.57324732883736" lon="12.351503897582502"><ele>677.0</ele><time>2026-04-20T14:34:27Z</time></trkpt><trkpt lat="43.57317898250735" lon="12.351453977031671"><ele>677.0</ele><time>2026-04-20T14:34:28Z</time></trkpt><trkpt lat="43.57311903681509" lon="12.351406352409601"><ele>677.0</ele><time>2026-04-20T14:34:29Z</time></trkpt><trkpt lat="43.57306107304192" lon="12.351336160757421"><ele>677.0</ele><time>2026-04-20T14:34:30Z</time></trkpt><trkpt lat="43.57300821608871" lon="12.351276237301217"><ele>677.0</ele><time>2026-04-20T14:34:31Z</time></trkpt><trkpt lat="43.572897340561504" lon="12.351208540361826"><ele>677.0</ele><time>2026-04-20T14:34:33Z</time></trkpt><trkpt lat="43.572824256832156" lon="12.351190973062153"><ele>677.0</ele><time>2026-04-20T14:34:34Z</time></trkpt><trkpt lat="43.57274668399975" lon="12.351188678979488"><ele>681.0</ele><time>2026-04-20T14:34:35Z</time></trkpt><trkpt lat="43.572678395108404" lon="12.35121054840403"><ele>685.0</ele><time>2026-04-20T14:34:36Z</time></trkpt><trkpt lat="43.57260510272737" lon="12.351260728434724"><ele>689.0</ele><time>2026-04-20T14:34:37Z</time></trkpt><trkpt lat="43.572529372611406" lon="12.351318600438203"><ele>693.0</ele><time>2026-04-20T14:34:38Z</time></trkpt><trkpt lat="43.572457899154784" lon="12.351333725154335"><ele>697.0</ele><time>2026-04-20T14:34:39Z</time></trkpt><trkpt lat="43.57236258779208" lon="12.351250978671963"><ele>701.0</ele><time>2026-04-20T14:34:41Z</time></trkpt><trkpt lat="43.57233325663867" lon="12.351173032907118"><ele>701.0</ele><time>2026-04-20T14:34:42Z</time></trkpt><trkpt lat="43.572316493659144" lon="12.35107455650786"><ele>701.0</ele><time>2026-04-20T14:34:43Z</time></trkpt><trkpt lat="43.572306625438266" lon="12.350928694613062"><ele>701.0</ele><time>2026-04-20T14:34:44Z</time></trkpt><trkpt lat="43.57228971322612" lon="12.350772227949031"><ele>701.0</ele><time>2026-04-20T14:34:45Z</time></trkpt><trkpt lat="43.5722637665806" lon="12.350618803217564"><ele>701.0</ele><time>2026-04-20T14:34:46Z</time></trkpt><trkpt lat="43.57223445372687" lon="12.350503425905949"><ele>703.3333333333333</ele><time>2026-04-20T14:34:47Z</time></trkpt><trkpt lat="43.57219395892795" lon="12.350414761092752"><ele>705.6666666666666</ele><time>2026-04-20T14:34:48Z</time></trkpt><trkpt lat="43.57213369005913" lon="12.350349374536275"><ele>708.0</ele><time>2026-04-20T14:34:49Z</time></trkpt><trkpt lat="43.57204826234485" lon="12.350283088829553"><ele>710.3333333333334</ele><time>2026-04-20T14:34:50Z</time></trkpt><trkpt lat="43.571951802480804" lon="12.350225436821802"><ele>712.6666666666667</ele><time>2026-04-20T14:34:51Z</time></trkpt><trkpt lat="43.57187751264049" lon="12.350192953879233"><ele>715.0</ele><time>2026-04-20T14:34:52Z</time></trkpt><trkpt lat="43.57176608446692" lon="12.350215159619168"><ele>715.0</ele><time>2026-04-20T14:34:54Z</time></trkpt><trkpt lat="43.57170345493489" lon="12.350356535701481"><ele>715.0</ele><time>2026-04-20T14:34:56Z</time></trkpt><trkpt lat="43.57168792513706" lon="12.350453190009194"><ele>715.0</ele><time>2026-04-20T14:34:57Z</time></trkpt><trkpt lat="43.571662697270064" lon="12.350548621991264"><ele>715.0</ele><time>2026-04-20T14:34:58Z</time></trkpt><trkpt lat="43.57163682075708" lon="12.350634871677752"><ele>715.0</ele><time>2026-04-20T14:34:59Z</time></trkpt><trkpt lat="43.571601425693316" lon="12.350720503389844"><ele>715.0</ele><time>2026-04-20T14:35:00Z</time></trkpt><trkpt lat="43.57154889115072" lon="12.350794919768788"><ele>714.2</ele><time>2026-04-20T14:35:01Z</time></trkpt><trkpt lat="43.571482980838184" lon="12.350837906759597"><ele>713.4</ele><time>2026-04-20T14:35:02Z</time></trkpt><trkpt lat="43.571374309171965" lon="12.350790689250221"><ele>712.5999999999999</ele><time>2026-04-20T14:35:04Z</time></trkpt><trkpt lat="43.571281642420225" lon="12.350647412712334"><ele>711.8</ele><time>2026-04-20T14:35:06Z</time></trkpt><trkpt lat="43.57122831824243" lon="12.350552244383291"><ele>711.0</ele><time>2026-04-20T14:35:07Z</time></trkpt><trkpt lat="43.57117630573431" lon="12.350452496352636"><ele>711.0</ele><time>2026-04-20T14:35:08Z</time></trkpt><trkpt lat="43.57112414460151" lon="12.350347018248758"><ele>711.0</ele><time>2026-04-20T14:35:09Z</time></trkpt><trkpt lat="43.57107058364988" lon="12.350245260696068"><ele>711.0</ele><time>2026-04-20T14:35:10Z</time></trkpt><trkpt lat="43.57099646391631" lon="12.350145604389592"><ele>711.0</ele><time>2026-04-20T14:35:11Z</time></trkpt><trkpt lat="43.57091482974322" lon="12.350054425020426"><ele>711.0</ele><time>2026-04-20T14:35:12Z</time></trkpt><trkpt lat="43.5708287825452" lon="12.349971185363172"><ele>711.0</ele><time>2026-04-20T14:35:13Z</time></trkpt><trkpt lat="43.570768357088916" lon="12.349885244746261"><ele>711.0</ele><time>2026-04-20T14:35:14Z</time></trkpt><trkpt lat="43.57073318644507" lon="12.349784208958432"><ele>711.0</ele><time>2026-04-20T14:35:15Z</time></trkpt><trkpt lat="43.57073645784387" lon="12.349681223522415"><ele>711.0</ele><time>2026-04-20T14:35:16Z</time></trkpt><trkpt lat="43.570760006476846" lon="12.349571816518148"><ele>711.0</ele><time>2026-04-20T14:35:17Z</time></trkpt><trkpt lat="43.57080316305738" lon="12.349449982148487"><ele>711.0</ele><time>2026-04-20T14:35:18Z</time></trkpt><trkpt lat="43.57084961491685" lon="12.349339796287385"><ele>713.0</ele><time>2026-04-20T14:35:19Z</time></trkpt><trkpt lat="43.57086568686964" lon="12.349226369163329"><ele>715.0</ele><time>2026-04-20T14:35:20Z</time></trkpt><trkpt lat="43.570857185646446" lon="12.349129839119101"><ele>717.0</ele><time>2026-04-20T14:35:21Z</time></trkpt><trkpt lat="43.57084041522021" lon="12.349039496720051"><ele>719.0</ele><time>2026-04-20T14:35:22Z</time></trkpt><trkpt lat="43.570813776557735" lon="12.348955103844242"><ele>721.0</ele><time>2026-04-20T14:35:23Z</time></trkpt><trkpt lat="43.570782661186534" lon="12.348859625871562"><ele>723.0</ele><time>2026-04-20T14:35:24Z</time></trkpt><trkpt lat="43.5707495287785" lon="12.348770467543996"><ele>725.0</ele><time>2026-04-20T14:35:25Z</time></trkpt><trkpt lat="43.570696421720946" lon="12.348711918965103"><ele>726.1666666666666</ele><time>2026-04-20T14:35:26Z</time></trkpt><trkpt lat="43.57061219321749" lon="12.348662641408726"><ele>727.3333333333333</ele><time>2026-04-20T14:35:27Z</time></trkpt><trkpt lat="43.57052384500951" lon="12.348631949252004"><ele>728.5</ele><time>2026-04-20T14:35:28Z</time></trkpt><trkpt lat="43.570431220675175" lon="12.34859593715686"><ele>729.6666666666666</ele><time>2026-04-20T14:35:29Z</time></trkpt><trkpt lat="43.570340764153485" lon="12.348567299777605"><ele>730.8333333333334</ele><time>2026-04-20T14:35:30Z</time></trkpt><trkpt lat="43.57026821190648" lon="12.348548587266034"><ele>732.0</ele><time>2026-04-20T14:35:31Z</time></trkpt><trkpt lat="43.57019374556569" lon="12.34855991643664"><ele>732.0</ele><time>2026-04-20T14:35:31.999Z</time></trkpt><trkpt lat="43.57011745563353" lon="12.348583404828396"><ele>732.0</ele><time>2026-04-20T14:35:32.999Z</time></trkpt><trkpt lat="43.570053184554176" lon="12.348616734276094"><ele>732.0</ele><time>2026-04-20T14:35:33.999Z</time></trkpt><trkpt lat="43.56997389595754" lon="12.348635225365479"><ele>732.0</ele><time>2026-04-20T14:35:34.999Z</time></trkpt><trkpt lat="43.5698921521367" lon="12.348634389432386"><ele>732.0</ele><time>2026-04-20T14:35:35.999Z</time></trkpt><trkpt lat="43.56981992105484" lon="12.348600275792032"><ele>732.0</ele><time>2026-04-20T14:35:36.999Z</time></trkpt><trkpt lat="43.56976277685093" lon="12.348539493256503"><ele>732.0</ele><time>2026-04-20T14:35:37.999Z</time></trkpt><trkpt lat="43.569720095358136" lon="12.348366653089807"><ele>732.0</ele><time>2026-04-20T14:35:39.999Z</time></trkpt><trkpt lat="43.5697439647145" lon="12.348268505467292"><ele>732.0</ele><time>2026-04-20T14:35:40.999Z</time></trkpt><trkpt lat="43.569774481756085" lon="12.348151489506591"><ele>732.0</ele><time>2026-04-20T14:35:41.999Z</time></trkpt><trkpt lat="43.56981024805876" lon="12.3480453049428"><ele>732.0</ele><time>2026-04-20T14:35:42.999Z</time></trkpt><trkpt lat="43.56981412802605" lon="12.347939173240556"><ele>733.2857142857143</ele><time>2026-04-20T14:35:43.999Z</time></trkpt><trkpt lat="43.569805704582095" lon="12.347836115684865"><ele>734.5714285714287</ele><time>2026-04-20T14:35:44.999Z</time></trkpt><trkpt lat="43.56980587377135" lon="12.347736584540487"><ele>735.8571428571429</ele><time>2026-04-20T14:35:45.999Z</time></trkpt><trkpt lat="43.569823371245604" lon="12.347651316103967"><ele>737.1428571428571</ele><time>2026-04-20T14:35:46.999Z</time></trkpt><trkpt lat="43.569854584587844" lon="12.347557102209773"><ele>738.4285714285714</ele><time>2026-04-20T14:35:47.999Z</time></trkpt><trkpt lat="43.569892289032765" lon="12.347463646334257"><ele>739.7142857142857</ele><time>2026-04-20T14:35:48.999Z</time></trkpt><trkpt lat="43.56995385886875" lon="12.347382072264473"><ele>741.0</ele><time>2026-04-20T14:35:49.999Z</time></trkpt><trkpt lat="43.57001784583282" lon="12.347293377645343"><ele>740.6666666666666</ele><time>2026-04-20T14:35:50.999Z</time></trkpt><trkpt lat="43.57006567374772" lon="12.347207479655308"><ele>740.3333333333334</ele><time>2026-04-20T14:35:51.999Z</time></trkpt><trkpt lat="43.570088157414325" lon="12.347114799849264"><ele>740.0</ele><time>2026-04-20T14:35:52.999Z</time></trkpt><trkpt lat="43.57009637060392" lon="12.347002379486769"><ele>739.6666666666667</ele><time>2026-04-20T14:35:53.999Z</time></trkpt><trkpt lat="43.57009098785757" lon="12.346887325139448"><ele>739.3333333333334</ele><time>2026-04-20T14:35:54.999Z</time></trkpt><trkpt lat="43.57008179193848" lon="12.346784149628384"><ele>739.0</ele><time>2026-04-20T14:35:55.999Z</time></trkpt><trkpt lat="43.57005998736661" lon="12.346679684646418"><ele>739.0</ele><time>2026-04-20T14:35:56.999Z</time></trkpt><trkpt lat="43.5700178883296" lon="12.346575029797469"><ele>739.0</ele><time>2026-04-20T14:35:57.999Z</time></trkpt><trkpt lat="43.569956874643694" lon="12.346482399650274"><ele>739.0</ele><time>2026-04-20T14:35:58.999Z</time></trkpt><trkpt lat="43.56988345917264" lon="12.346387541270916"><ele>739.0</ele><time>2026-04-20T14:35:59.999Z</time></trkpt><trkpt lat="43.56980756388082" lon="12.346300784768166"><ele>739.0</ele><time>2026-04-20T14:36:00.999Z</time></trkpt><trkpt lat="43.569744026770316" lon="12.34620705810295"><ele>741.3333333333334</ele><time>2026-04-20T14:36:01.999Z</time></trkpt><trkpt lat="43.56970235640753" lon="12.346112325821842"><ele>743.6666666666667</ele><time>2026-04-20T14:36:02.999Z</time></trkpt><trkpt lat="43.56968172935585" lon="12.346007780050941"><ele>746.0</ele><time>2026-04-20T14:36:03.999Z</time></trkpt><trkpt lat="43.56968193105079" lon="12.345889787994903"><ele>748.3333333333334</ele><time>2026-04-20T14:36:04.999Z</time></trkpt><trkpt lat="43.56969150954273" lon="12.345772817186036"><ele>750.6666666666666</ele><time>2026-04-20T14:36:05.999Z</time></trkpt><trkpt lat="43.569698201358676" lon="12.345644592921348"><ele>753.0</ele><time>2026-04-20T14:36:06.999Z</time></trkpt><trkpt lat="43.569701455589914" lon="12.345506691652123"><ele>756.8</ele><time>2026-04-20T14:36:07.999Z</time></trkpt><trkpt lat="43.569701802897576" lon="12.345368793317581"><ele>760.5999999999999</ele><time>2026-04-20T14:36:08.999Z</time></trkpt><trkpt lat="43.569685002838455" lon="12.345237537118528"><ele>764.4000000000001</ele><time>2026-04-20T14:36:09.999Z</time></trkpt><trkpt lat="43.56964804797148" lon="12.345115180442585"><ele>768.2</ele><time>2026-04-20T14:36:10.999Z</time></trkpt><trkpt lat="43.569604262119725" lon="12.345002126743086"><ele>772.0</ele><time>2026-04-20T14:36:11.999Z</time></trkpt><trkpt lat="43.56954490667336" lon="12.344897275217832"><ele>769.4000000000001</ele><time>2026-04-20T14:36:12.999Z</time></trkpt><trkpt lat="43.5694708533292" lon="12.344801109166472"><ele>766.8000000000001</ele><time>2026-04-20T14:36:14Z</time></trkpt><trkpt lat="43.569387438865014" lon="12.344717244651763"><ele>764.2</ele><time>2026-04-20T14:36:15Z</time></trkpt><trkpt lat="43.569304298193984" lon="12.344657359129226"><ele>761.6</ele><time>2026-04-20T14:36:16Z</time></trkpt><trkpt lat="43.569215810158454" lon="12.344624378977562"><ele>759.0</ele><time>2026-04-20T14:36:17Z</time></trkpt><trkpt lat="43.56913986639181" lon="12.344603703243614"><ele>759.0</ele><time>2026-04-20T14:36:18Z</time></trkpt><trkpt lat="43.5690767921579" lon="12.344568030929834"><ele>759.0</ele><time>2026-04-20T14:36:19Z</time></trkpt><trkpt lat="43.56901636117511" lon="12.344490464107198"><ele>759.0</ele><time>2026-04-20T14:36:20Z</time></trkpt><trkpt lat="43.56896205670555" lon="12.344393024898148"><ele>759.0</ele><time>2026-04-20T14:36:21Z</time></trkpt><trkpt lat="43.568896363443905" lon="12.344298781603328"><ele>759.0</ele><time>2026-04-20T14:36:22Z</time></trkpt><trkpt lat="43.568809665996916" lon="12.344235806382425"><ele>759.0</ele><time>2026-04-20T14:36:23Z</time></trkpt><trkpt lat="43.56870958753726" lon="12.344183733981177"><ele>758.4000000000001</ele><time>2026-04-20T14:36:24Z</time></trkpt><trkpt lat="43.56861773410994" lon="12.344143363331238"><ele>757.8</ele><time>2026-04-20T14:36:25Z</time></trkpt><trkpt lat="43.56852220878727" lon="12.34413265318545"><ele>757.2</ele><time>2026-04-20T14:36:26Z</time></trkpt><trkpt lat="43.568409913746585" lon="12.34413841057582"><ele>756.5999999999999</ele><time>2026-04-20T14:36:27Z</time></trkpt><trkpt lat="43.56830074614559" lon="12.344134628430211"><ele>756.0</ele><time>2026-04-20T14:36:28Z</time></trkpt><trkpt lat="43.56820844551656" lon="12.344111588895665"><ele>756.0</ele><time>2026-04-20T14:36:29Z</time></trkpt><trkpt lat="43.56811711791828" lon="12.344057964341685"><ele>756.0</ele><time>2026-04-20T14:36:30Z</time></trkpt><trkpt lat="43.56803411370965" lon="12.343987544563518"><ele>756.0</ele><time>2026-04-20T14:36:31Z</time></trkpt><trkpt lat="43.567947890983824" lon="12.343901638946503"><ele>756.0</ele><time>2026-04-20T14:36:32Z</time></trkpt><trkpt lat="43.56787175256988" lon="12.34380708299925"><ele>756.0</ele><time>2026-04-20T14:36:33Z</time></trkpt><trkpt lat="43.567811666915716" lon="12.343717351710243"><ele>758.3333333333334</ele><time>2026-04-20T14:36:34Z</time></trkpt><trkpt lat="43.56775962144784" lon="12.343655601546567"><ele>760.6666666666667</ele><time>2026-04-20T14:36:35Z</time></trkpt><trkpt lat="43.56764463448344" lon="12.343658786420534"><ele>763.0</ele><time>2026-04-20T14:36:37Z</time></trkpt><trkpt lat="43.567595205908646" lon="12.343735302719697"><ele>765.3333333333334</ele><time>2026-04-20T14:36:38Z</time></trkpt><trkpt lat="43.56755865397635" lon="12.343832995576303"><ele>767.6666666666667</ele><time>2026-04-20T14:36:39Z</time></trkpt><trkpt lat="43.567547041410435" lon="12.343939776963"><ele>770.0</ele><time>2026-04-20T14:36:40Z</time></trkpt><trkpt lat="43.56756714699628" lon="12.344038277454649"><ele>770.0000000000001</ele><time>2026-04-20T14:36:41Z</time></trkpt><trkpt lat="43.56761061789214" lon="12.34413580791939"><ele>770.0</ele><time>2026-04-20T14:36:42Z</time></trkpt><trkpt lat="43.567661062604834" lon="12.344229883733519"><ele>770.0</ele><time>2026-04-20T14:36:43Z</time></trkpt><trkpt lat="43.567702175008215" lon="12.344331774223797"><ele>770.0</ele><time>2026-04-20T14:36:44Z</time></trkpt><trkpt lat="43.56773471577097" lon="12.34443512482504"><ele>770.0000000000001</ele><time>2026-04-20T14:36:45Z</time></trkpt><trkpt lat="43.5677785893914" lon="12.344554400711859"><ele>770.0</ele><time>2026-04-20T14:36:46Z</time></trkpt><trkpt lat="43.56782665033677" lon="12.344659797506205"><ele>767.8333333333334</ele><time>2026-04-20T14:36:47Z</time></trkpt><trkpt lat="43.5678854482422" lon="12.34476061818922"><ele>765.6666666666667</ele><time>2026-04-20T14:36:48Z</time></trkpt><trkpt lat="43.56794427772253" lon="12.344850927042753"><ele>763.5</ele><time>2026-04-20T14:36:49Z</time></trkpt><trkpt lat="43.56798681320176" lon="12.3449451941883"><ele>761.3333333333334</ele><time>2026-04-20T14:36:50Z</time></trkpt><trkpt lat="43.56800415299276" lon="12.34504581128735"><ele>759.1666666666667</ele><time>2026-04-20T14:36:51Z</time></trkpt><trkpt lat="43.56802849009395" lon="12.345176862943042"><ele>757.0</ele><time>2026-04-20T14:36:52Z</time></trkpt><trkpt lat="43.56805429337733" lon="12.345316033020687"><ele>757.0</ele><time>2026-04-20T14:36:53Z</time></trkpt><trkpt lat="43.56807460653269" lon="12.3454559291112"><ele>757.0</ele><time>2026-04-20T14:36:54Z</time></trkpt><trkpt lat="43.56807529965394" lon="12.345600431403003"><ele>757.0</ele><time>2026-04-20T14:36:55Z</time></trkpt><trkpt lat="43.56806318888297" lon="12.345766252238949"><ele>757.0</ele><time>2026-04-20T14:36:56Z</time></trkpt><trkpt lat="43.568056816217364" lon="12.345936170098227"><ele>757.6</ele><time>2026-04-20T14:36:57Z</time></trkpt><trkpt lat="43.5680530321755" lon="12.346086704282722"><ele>758.2</ele><time>2026-04-20T14:36:58Z</time></trkpt><trkpt lat="43.56803728614661" lon="12.346211268825407"><ele>758.8</ele><time>2026-04-20T14:36:59Z</time></trkpt><trkpt lat="43.568011959314305" lon="12.346327991193753"><ele>759.4</ele><time>2026-04-20T14:37:00Z</time></trkpt><trkpt lat="43.56798542904465" lon="12.346455539328353"><ele>760.0</ele><time>2026-04-20T14:37:01Z</time></trkpt><trkpt lat="43.567966650670115" lon="12.346570689443404"><ele>761.2</ele><time>2026-04-20T14:37:02Z</time></trkpt><trkpt lat="43.56793788602587" lon="12.346700841328973"><ele>762.4</ele><time>2026-04-20T14:37:03Z</time></trkpt><trkpt lat="43.56789676648923" lon="12.346825081439263"><ele>763.5999999999999</ele><time>2026-04-20T14:37:04Z</time></trkpt><trkpt lat="43.567849406828415" lon="12.346910188093485"><ele>764.8</ele><time>2026-04-20T14:37:05Z</time></trkpt><trkpt lat="43.56779155892683" lon="12.346968852162748"><ele>766.0</ele><time>2026-04-20T14:37:06Z</time></trkpt><trkpt lat="43.567675588862365" lon="12.346974984485755"><ele>766.0</ele><time>2026-04-20T14:37:08Z</time></trkpt><trkpt lat="43.5676098255633" lon="12.346926705117783"><ele>766.0</ele><time>2026-04-20T14:37:09Z</time></trkpt><trkpt lat="43.5675421421007" lon="12.346857851076804"><ele>766.0</ele><time>2026-04-20T14:37:10Z</time></trkpt><trkpt lat="43.56747106073745" lon="12.34677306861874"><ele>766.0</ele><time>2026-04-20T14:37:11Z</time></trkpt><trkpt lat="43.56740621230877" lon="12.346690220085902"><ele>766.0</ele><time>2026-04-20T14:37:12Z</time></trkpt><trkpt lat="43.56733668579306" lon="12.34661395388782"><ele>766.0</ele><time>2026-04-20T14:37:13Z</time></trkpt><trkpt lat="43.567257355352794" lon="12.346550930463783"><ele>766.0</ele><time>2026-04-20T14:37:14Z</time></trkpt><trkpt lat="43.56717747782413" lon="12.346509333409369"><ele>766.0</ele><time>2026-04-20T14:37:15Z</time></trkpt><trkpt lat="43.567101367097266" lon="12.346484346142288"><ele>766.0</ele><time>2026-04-20T14:37:16Z</time></trkpt><trkpt lat="43.567015541723535" lon="12.346474679021545"><ele>766.0</ele><time>2026-04-20T14:37:17Z</time></trkpt><trkpt lat="43.56693226384751" lon="12.346504677953149"><ele>766.0</ele><time>2026-04-20T14:37:18Z</time></trkpt><trkpt lat="43.56685046066715" lon="12.346522466544984"><ele>766.0</ele><time>2026-04-20T14:37:19Z</time></trkpt><trkpt lat="43.56677747454011" lon="12.346497452808103"><ele>764.0</ele><time>2026-04-20T14:37:20Z</time></trkpt><trkpt lat="43.56669067942807" lon="12.34644558013934"><ele>762.0</ele><time>2026-04-20T14:37:21Z</time></trkpt><trkpt lat="43.56661409043873" lon="12.34633357930949"><ele>760.0</ele><time>2026-04-20T14:37:22Z</time></trkpt><trkpt lat="43.56652831049929" lon="12.346263132431124"><ele>758.0</ele><time>2026-04-20T14:37:23Z</time></trkpt><trkpt lat="43.566469481595256" lon="12.346177451248735"><ele>756.0</ele><time>2026-04-20T14:37:24Z</time></trkpt><trkpt lat="43.56643721052324" lon="12.346082104390401"><ele>760.0</ele><time>2026-04-20T14:37:25Z</time></trkpt><trkpt lat="43.56639997546783" lon="12.34597999589319"><ele>764.0</ele><time>2026-04-20T14:37:26Z</time></trkpt><trkpt lat="43.566377234223154" lon="12.345829025566443"><ele>768.0</ele><time>2026-04-20T14:37:27Z</time></trkpt><trkpt lat="43.566355977572115" lon="12.34569134962718"><ele>772.0</ele><time>2026-04-20T14:37:28Z</time></trkpt><trkpt lat="43.566333385467445" lon="12.345556693985317"><ele>776.0</ele><time>2026-04-20T14:37:29Z</time></trkpt><trkpt lat="43.56630193033616" lon="12.345434729315322"><ele>776.3333333333334</ele><time>2026-04-20T14:37:30Z</time></trkpt><trkpt lat="43.56625829625832" lon="12.345347068234236"><ele>776.6666666666667</ele><time>2026-04-20T14:37:31Z</time></trkpt><trkpt lat="43.56619504863369" lon="12.345261140628581"><ele>777.0</ele><time>2026-04-20T14:37:32Z</time></trkpt><trkpt lat="43.56611590507019" lon="12.345216319544699"><ele>777.3333333333333</ele><time>2026-04-20T14:37:33Z</time></trkpt><trkpt lat="43.566028525455515" lon="12.34521722629343"><ele>777.6666666666666</ele><time>2026-04-20T14:37:34Z</time></trkpt><trkpt lat="43.565937042615424" lon="12.345210662650354"><ele>778.0</ele><time>2026-04-20T14:37:35Z</time></trkpt><trkpt lat="43.565835004055316" lon="12.345218936406576"><ele>777.9999999999999</ele><time>2026-04-20T14:37:36Z</time></trkpt><trkpt lat="43.56575284989479" lon="12.345216070743783"><ele>778.0</ele><time>2026-04-20T14:37:37Z</time></trkpt><trkpt lat="43.56568424632575" lon="12.345186071082136"><ele>778.0</ele><time>2026-04-20T14:37:38Z</time></trkpt><trkpt lat="43.565600489110984" lon="12.34512218453816"><ele>778.0</ele><time>2026-04-20T14:37:39Z</time></trkpt><trkpt lat="43.5655169763971" lon="12.345103407580389"><ele>777.9999999999999</ele><time>2026-04-20T14:37:40Z</time></trkpt><trkpt lat="43.56542674259179" lon="12.345128895641706"><ele>778.0</ele><time>2026-04-20T14:37:41Z</time></trkpt><trkpt lat="43.56534120236214" lon="12.345164254129406"><ele>775.8333333333333</ele><time>2026-04-20T14:37:42Z</time></trkpt><trkpt lat="43.5652771807139" lon="12.34514900240607"><ele>773.6666666666666</ele><time>2026-04-20T14:37:43Z</time></trkpt><trkpt lat="43.56518095734582" lon="12.345027659857957"><ele>771.5</ele><time>2026-04-20T14:37:45Z</time></trkpt><trkpt lat="43.56515812423735" lon="12.344942072274042"><ele>769.3333333333333</ele><time>2026-04-20T14:37:46Z</time></trkpt><trkpt lat="43.56515650838227" lon="12.34482872858988"><ele>767.1666666666666</ele><time>2026-04-20T14:37:47Z</time></trkpt><trkpt lat="43.56515762281113" lon="12.344725370746968"><ele>765.0</ele><time>2026-04-20T14:37:48Z</time></trkpt><trkpt lat="43.565159895270874" lon="12.344601252123462"><ele>769.5</ele><time>2026-04-20T14:37:49Z</time></trkpt><trkpt lat="43.56514052964696" lon="12.344510236446572"><ele>774.0</ele><time>2026-04-20T14:37:50Z</time></trkpt><trkpt lat="43.56510463976842" lon="12.344390652034619"><ele>778.5</ele><time>2026-04-20T14:37:51Z</time></trkpt><trkpt lat="43.56504201532939" lon="12.344325637256553"><ele>783.0</ele><time>2026-04-20T14:37:52Z</time></trkpt><trkpt lat="43.5649690690058" lon="12.344270801290577"><ele>787.5</ele><time>2026-04-20T14:37:53Z</time></trkpt><trkpt lat="43.56489431631279" lon="12.34423248876241"><ele>792.0</ele><time>2026-04-20T14:37:54Z</time></trkpt><trkpt lat="43.56480722897533" lon="12.344179333607135"><ele>792.0</ele><time>2026-04-20T14:37:55Z</time></trkpt><trkpt lat="43.56468968412461" lon="12.344103147850849"><ele>792.0</ele><time>2026-04-20T14:37:56Z</time></trkpt><trkpt lat="43.56460410867186" lon="12.34404187863256"><ele>792.0</ele><time>2026-04-20T14:37:57Z</time></trkpt><trkpt lat="43.56453897152999" lon="12.34396835837537"><ele>792.0</ele><time>2026-04-20T14:37:58Z</time></trkpt><trkpt lat="43.56447958454513" lon="12.343923040559185"><ele>792.0</ele><time>2026-04-20T14:37:59Z</time></trkpt><trkpt lat="43.564416099733975" lon="12.34391933037155"><ele>792.0</ele><time>2026-04-20T14:38:00Z</time></trkpt><trkpt lat="43.56430450201953" lon="12.343999310518793"><ele>789.6666666666666</ele><time>2026-04-20T14:38:02Z</time></trkpt><trkpt lat="43.56425198220973" lon="12.344093668895592"><ele>787.3333333333333</ele><time>2026-04-20T14:38:03Z</time></trkpt><trkpt lat="43.56421099888429" lon="12.344188442572923"><ele>785.0</ele><time>2026-04-20T14:38:04Z</time></trkpt><trkpt lat="43.56417638456506" lon="12.344269031665522"><ele>782.6666666666666</ele><time>2026-04-20T14:38:05Z</time></trkpt><trkpt lat="43.56412679960907" lon="12.344347317437657"><ele>780.3333333333333</ele><time>2026-04-20T14:38:06Z</time></trkpt><trkpt lat="43.56406477718336" lon="12.344432220997216"><ele>778.0</ele><time>2026-04-20T14:38:07Z</time></trkpt><trkpt lat="43.56397920253651" lon="12.344465584705308"><ele>777.9999999999999</ele><time>2026-04-20T14:38:08.999Z</time></trkpt><trkpt lat="43.563924105377396" lon="12.344360009872663"><ele>778.0</ele><time>2026-04-20T14:39:11Z</time></trkpt><trkpt lat="43.56393158307784" lon="12.344259742679332"><ele>778.0</ele><time>2026-04-20T14:39:12Z</time></trkpt><trkpt lat="43.563941896253134" lon="12.344158894004995"><ele>778.0</ele><time>2026-04-20T14:39:13Z</time></trkpt><trkpt lat="43.5639625290947" lon="12.34405971162413"><ele>777.9999999999999</ele><time>2026-04-20T14:39:14Z</time></trkpt><trkpt lat="43.56398369946813" lon="12.343964947400634"><ele>778.0</ele><time>2026-04-20T14:39:15Z</time></trkpt><trkpt lat="43.56400142293593" lon="12.343849328448519"><ele>780.4999999999999</ele><time>2026-04-20T14:39:16Z</time></trkpt><trkpt lat="43.56400983794171" lon="12.343720626549592"><ele>783.0</ele><time>2026-04-20T14:39:17Z</time></trkpt><trkpt lat="43.56401045035621" lon="12.343616477979005"><ele>785.5</ele><time>2026-04-20T14:39:18Z</time></trkpt><trkpt lat="43.564008372414165" lon="12.343505948581802"><ele>788.0</ele><time>2026-04-20T14:39:19Z</time></trkpt><trkpt lat="43.56399314840935" lon="12.343421033737608"><ele>790.4999999999999</ele><time>2026-04-20T14:39:20Z</time></trkpt><trkpt lat="43.56395572395612" lon="12.343335957838073"><ele>793.0</ele><time>2026-04-20T14:39:21Z</time></trkpt><trkpt lat="43.56390657186886" lon="12.343244209082336"><ele>793.0</ele><time>2026-04-20T14:39:22Z</time></trkpt><trkpt lat="43.56385035404615" lon="12.343180426872681"><ele>793.0</ele><time>2026-04-20T14:39:23Z</time></trkpt><trkpt lat="43.56371752145346" lon="12.343081973203825"><ele>793.0</ele><time>2026-04-20T14:39:25Z</time></trkpt><trkpt lat="43.563656129820416" lon="12.343045029282742"><ele>793.0</ele><time>2026-04-20T14:39:26Z</time></trkpt><trkpt lat="43.56358006295142" lon="12.342921686008767"><ele>793.0</ele><time>2026-04-20T14:39:28Z</time></trkpt><trkpt lat="43.56357907000196" lon="12.342831255267203"><ele>788.2</ele><time>2026-04-20T14:39:29Z</time></trkpt><trkpt lat="43.56358906041962" lon="12.342708432368456"><ele>783.4</ele><time>2026-04-20T14:39:30Z</time></trkpt><trkpt lat="43.563599377957885" lon="12.342578210269142"><ele>778.6</ele><time>2026-04-20T14:39:31Z</time></trkpt><trkpt lat="43.56360514942789" lon="12.342438521090477"><ele>773.8000000000001</ele><time>2026-04-20T14:39:32Z</time></trkpt><trkpt lat="43.56360290521004" lon="12.342308182151141"><ele>769.0</ele><time>2026-04-20T14:39:33Z</time></trkpt><trkpt lat="43.56358668725966" lon="12.342201930249534"><ele>768.9999999999999</ele><time>2026-04-20T14:39:34Z</time></trkpt><trkpt lat="43.563574653343245" lon="12.34210474360515"><ele>769.0</ele><time>2026-04-20T14:39:35Z</time></trkpt><trkpt lat="43.56355794854096" lon="12.342006552183966"><ele>769.0</ele><time>2026-04-20T14:39:36Z</time></trkpt><trkpt lat="43.56353352837775" lon="12.341903018172495"><ele>769.0</ele><time>2026-04-20T14:39:37Z</time></trkpt><trkpt lat="43.563491003826" lon="12.341804096694316"><ele>768.9999999999999</ele><time>2026-04-20T14:39:38Z</time></trkpt><trkpt lat="43.56343133838054" lon="12.34170239879037"><ele>769.0</ele><time>2026-04-20T14:39:39Z</time></trkpt><trkpt lat="43.563369845288726" lon="12.3416210798304"><ele>769.0</ele><time>2026-04-20T14:39:40Z</time></trkpt><trkpt lat="43.56334644812926" lon="12.34146967042148"><ele>769.0</ele><time>2026-04-20T14:39:42Z</time></trkpt><trkpt lat="43.56338189980933" lon="12.34137622573814"><ele>769.0</ele><time>2026-04-20T14:39:43Z</time></trkpt><trkpt lat="43.56343108281968" lon="12.341252219986455"><ele>769.0</ele><time>2026-04-20T14:39:44Z</time></trkpt><trkpt lat="43.563472700023326" lon="12.341116025420098"><ele>769.0</ele><time>2026-04-20T14:39:45Z</time></trkpt><trkpt lat="43.56348780717825" lon="12.340975481944174"><ele>769.1666666666666</ele><time>2026-04-20T14:39:46Z</time></trkpt><trkpt lat="43.56348102913877" lon="12.340850655241923"><ele>769.3333333333333</ele><time>2026-04-20T14:39:47Z</time></trkpt><trkpt lat="43.56346312414997" lon="12.34071903157101"><ele>769.5</ele><time>2026-04-20T14:39:48Z</time></trkpt><trkpt lat="43.56343192823587" lon="12.34060844498395"><ele>769.6666666666667</ele><time>2026-04-20T14:39:49Z</time></trkpt><trkpt lat="43.56340006668483" lon="12.34051717781561"><ele>769.8333333333334</ele><time>2026-04-20T14:39:50Z</time></trkpt><trkpt lat="43.563371234886034" lon="12.34043303411517"><ele>770.0</ele><time>2026-04-20T14:39:51Z</time></trkpt><trkpt lat="43.563272957739436" lon="12.34029706664583"><ele>771.8</ele><time>2026-04-20T14:39:53Z</time></trkpt><trkpt lat="43.5632162581105" lon="12.340192029239104"><ele>773.6</ele><time>2026-04-20T14:39:54Z</time></trkpt><trkpt lat="43.56318044223467" lon="12.340071285829971"><ele>775.4000000000001</ele><time>2026-04-20T14:39:55Z</time></trkpt><trkpt lat="43.563155193163" lon="12.339935265365188"><ele>777.2</ele><time>2026-04-20T14:39:56Z</time></trkpt><trkpt lat="43.56311749209196" lon="12.339848735131607"><ele>779.0</ele><time>2026-04-20T14:39:57Z</time></trkpt><trkpt lat="43.56305247714015" lon="12.339771483837652"><ele>780.0</ele><time>2026-04-20T14:39:58Z</time></trkpt><trkpt lat="43.5629726484999" lon="12.33970894953092"><ele>781.0</ele><time>2026-04-20T14:39:59Z</time></trkpt><trkpt lat="43.5628859310871" lon="12.339628914009706"><ele>782.0</ele><time>2026-04-20T14:40:00Z</time></trkpt><trkpt lat="43.5628240992012" lon="12.339543060686424"><ele>783.0</ele><time>2026-04-20T14:40:01Z</time></trkpt><trkpt lat="43.56276280383764" lon="12.339434319789735"><ele>784.0</ele><time>2026-04-20T14:40:02Z</time></trkpt><trkpt lat="43.56270916828521" lon="12.339322919492304"><ele>783.9999999999999</ele><time>2026-04-20T14:40:03Z</time></trkpt><trkpt lat="43.56266535289573" lon="12.339221112565987"><ele>784.0</ele><time>2026-04-20T14:40:04Z</time></trkpt><trkpt lat="43.56262972168268" lon="12.33909625065243"><ele>784.0</ele><time>2026-04-20T14:40:05Z</time></trkpt><trkpt lat="43.56259717315759" lon="12.338997470354906"><ele>784.0</ele><time>2026-04-20T14:40:06Z</time></trkpt><trkpt lat="43.562558994709704" lon="12.338896672884772"><ele>783.9999999999999</ele><time>2026-04-20T14:40:07Z</time></trkpt><trkpt lat="43.56251553898161" lon="12.338820268443657"><ele>784.0</ele><time>2026-04-20T14:40:08Z</time></trkpt><trkpt lat="43.562411764136876" lon="12.338793689354585"><ele>784.0</ele><time>2026-04-20T14:40:10Z</time></trkpt><trkpt lat="43.56232683126596" lon="12.33889842877948"><ele>784.0</ele><time>2026-04-20T14:40:12Z</time></trkpt><trkpt lat="43.56230855322573" lon="12.338991947014339"><ele>784.0</ele><time>2026-04-20T14:40:13Z</time></trkpt><trkpt lat="43.56230738741572" lon="12.339104162798838"><ele>784.0</ele><time>2026-04-20T14:40:14Z</time></trkpt><trkpt lat="43.56230799206155" lon="12.339258837069059"><ele>784.0</ele><time>2026-04-20T14:40:15Z</time></trkpt><trkpt lat="43.56229898814684" lon="12.339420959132422"><ele>783.9999999999999</ele><time>2026-04-20T14:40:16Z</time></trkpt><trkpt lat="43.562285138577174" lon="12.339523957972196"><ele>784.0</ele><time>2026-04-20T14:40:17Z</time></trkpt><trkpt lat="43.562269788045064" lon="12.339633760774698"><ele>784.0</ele><time>2026-04-20T14:40:19Z</time></trkpt><trkpt lat="43.562235826709305" lon="12.339753915219939"><ele>784.0</ele><time>2026-04-20T14:40:21Z</time></trkpt><trkpt lat="43.56224938972457" lon="12.339852710097786"><ele>783.9999999999999</ele><time>2026-04-20T14:40:22Z</time></trkpt><trkpt lat="43.56227700446788" lon="12.339970676407043"><ele>784.0</ele><time>2026-04-20T14:40:23Z</time></trkpt><trkpt lat="43.562317378730064" lon="12.340081537121362"><ele>782.3333333333333</ele><time>2026-04-20T14:40:23.999Z</time></trkpt><trkpt lat="43.56236072271799" lon="12.34019529026128"><ele>780.6666666666666</ele><time>2026-04-20T14:40:24.999Z</time></trkpt><trkpt lat="43.562380607638026" lon="12.340339312373384"><ele>779.0</ele><time>2026-04-20T14:40:25.999Z</time></trkpt><trkpt lat="43.56238358288919" lon="12.340439749462746"><ele>777.3333333333333</ele><time>2026-04-20T14:40:26.999Z</time></trkpt><trkpt lat="43.56236700503012" lon="12.340529404913758"><ele>775.6666666666666</ele><time>2026-04-20T14:40:27.999Z</time></trkpt><trkpt lat="43.562276865322204" lon="12.340601396352275"><ele>774.0</ele><time>2026-04-20T14:40:29.999Z</time></trkpt><trkpt lat="43.56221270885482" lon="12.340627257448451"><ele>773.2</ele><time>2026-04-20T14:40:31.999Z</time></trkpt><trkpt lat="43.562131842860055" lon="12.340685748954987"><ele>772.4000000000001</ele><time>2026-04-20T14:40:33.999Z</time></trkpt><trkpt lat="43.56205825955006" lon="12.34082841595531"><ele>771.6</ele><time>2026-04-20T14:40:36Z</time></trkpt><trkpt lat="43.56202448746048" lon="12.340936927673027"><ele>770.8</ele><time>2026-04-20T14:40:37Z</time></trkpt><trkpt lat="43.56199143399677" lon="12.341027604991968"><ele>770.0</ele><time>2026-04-20T14:40:38Z</time></trkpt><trkpt lat="43.56195579333485" lon="12.34113890909884"><ele>772.0</ele><time>2026-04-20T14:40:39Z</time></trkpt><trkpt lat="43.56193384408639" lon="12.341248715719965"><ele>774.0</ele><time>2026-04-20T14:40:40Z</time></trkpt><trkpt lat="43.56188566532325" lon="12.341391847006697"><ele>776.0</ele><time>2026-04-20T14:40:42Z</time></trkpt><trkpt lat="43.56183998887922" lon="12.341479860778398"><ele>778.0</ele><time>2026-04-20T14:40:43Z</time></trkpt><trkpt lat="43.56179156817828" lon="12.341577024199477"><ele>780.0</ele><time>2026-04-20T14:40:44Z</time></trkpt><trkpt lat="43.56173546666829" lon="12.341680642513003"><ele>780.0</ele><time>2026-04-20T14:40:45Z</time></trkpt><trkpt lat="43.561639562789885" lon="12.341755923413814"><ele>780.0</ele><time>2026-04-20T14:40:47Z</time></trkpt><trkpt lat="43.5615371106788" lon="12.341745305050338"><ele>780.0</ele><time>2026-04-20T14:40:49Z</time></trkpt><trkpt lat="43.56146115368452" lon="12.34167311782276"><ele>780.0</ele><time>2026-04-20T14:40:51Z</time></trkpt><trkpt lat="43.56140167119198" lon="12.341530554107415"><ele>780.0</ele><time>2026-04-20T14:40:53Z</time></trkpt><trkpt lat="43.56139258270918" lon="12.341435006906721"><ele>783.1666666666666</ele><time>2026-04-20T14:40:54Z</time></trkpt><trkpt lat="43.56138388727312" lon="12.34132280988697"><ele>786.3333333333333</ele><time>2026-04-20T14:40:55Z</time></trkpt><trkpt lat="43.56137590274546" lon="12.34121604132035"><ele>789.5</ele><time>2026-04-20T14:40:56Z</time></trkpt><trkpt lat="43.56136509820646" lon="12.34111972807975"><ele>792.6666666666666</ele><time>2026-04-20T14:40:57Z</time></trkpt><trkpt lat="43.56128631019803" lon="12.341008854281876"><ele>795.8333333333333</ele><time>2026-04-20T14:40:59Z</time></trkpt><trkpt lat="43.56120960514473" lon="12.340999263505715"><ele>799.0</ele><time>2026-04-20T14:41:00Z</time></trkpt><trkpt lat="43.56112301999252" lon="12.341001194399986"><ele>800.1666666666666</ele><time>2026-04-20T14:41:01Z</time></trkpt><trkpt lat="43.561035842942744" lon="12.341011836731838"><ele>801.3333333333333</ele><time>2026-04-20T14:41:02Z</time></trkpt><trkpt lat="43.560947493114675" lon="12.341020758725739"><ele>802.5</ele><time>2026-04-20T14:41:03Z</time></trkpt><trkpt lat="43.56085601788846" lon="12.341022013085375"><ele>803.6666666666667</ele><time>2026-04-20T14:41:04Z</time></trkpt><trkpt lat="43.56077130994339" lon="12.341031032608207"><ele>804.8333333333334</ele><time>2026-04-20T14:41:05Z</time></trkpt><trkpt lat="43.56068981876792" lon="12.34104509126559"><ele>806.0</ele><time>2026-04-20T14:41:06Z</time></trkpt><trkpt lat="43.56058001992063" lon="12.341059379723998"><ele>806.0000000000001</ele><time>2026-04-20T14:41:08Z</time></trkpt><trkpt lat="43.56051636468039" lon="12.341052344094827"><ele>806.0</ele><time>2026-04-20T14:41:09Z</time></trkpt><trkpt lat="43.56043820473363" lon="12.341064119462658"><ele>806.0</ele><time>2026-04-20T14:41:10Z</time></trkpt><trkpt lat="43.56035306677099" lon="12.341071083498894"><ele>806.0</ele><time>2026-04-20T14:41:11Z</time></trkpt><trkpt lat="43.56027043621285" lon="12.34107441495563"><ele>806.0000000000001</ele><time>2026-04-20T14:41:12Z</time></trkpt><trkpt lat="43.560186068392404" lon="12.341073187524701"><ele>806.0</ele><time>2026-04-20T14:41:13Z</time></trkpt><trkpt lat="43.560105403350825" lon="12.341079040171346"><ele>805.7142857142858</ele><time>2026-04-20T14:41:14Z</time></trkpt><trkpt lat="43.56003764178207" lon="12.341078816228187"><ele>805.4285714285713</ele><time>2026-04-20T14:41:15Z</time></trkpt><trkpt lat="43.55996543288061" lon="12.341081650357218"><ele>805.1428571428571</ele><time>2026-04-20T14:41:16Z</time></trkpt><trkpt lat="43.559894752717064" lon="12.341062336449289"><ele>804.8571428571429</ele><time>2026-04-20T14:41:17Z</time></trkpt><trkpt lat="43.559831986205545" lon="12.341021097111675"><ele>804.5714285714287</ele><time>2026-04-20T14:41:18Z</time></trkpt><trkpt lat="43.55978402617178" lon="12.34094969431786"><ele>804.2857142857142</ele><time>2026-04-20T14:41:19Z</time></trkpt><trkpt lat="43.55975391303731" lon="12.340842572026474"><ele>804.0</ele><time>2026-04-20T14:41:20Z</time></trkpt><trkpt lat="43.55972442193066" lon="12.340745056981204"><ele>804.0</ele><time>2026-04-20T14:41:21Z</time></trkpt><trkpt lat="43.55969562972253" lon="12.340642515402072"><ele>804.0</ele><time>2026-04-20T14:41:22Z</time></trkpt><trkpt lat="43.55967841050575" lon="12.340545058491635"><ele>804.0</ele><time>2026-04-20T14:41:23Z</time></trkpt><trkpt lat="43.55971295545251" lon="12.340385860809057"><ele>804.0</ele><time>2026-04-20T14:41:25Z</time></trkpt><trkpt lat="43.55976671145382" lon="12.340305369071602"><ele>804.0</ele><time>2026-04-20T14:41:26Z</time></trkpt><trkpt lat="43.55983143555133" lon="12.340211921476849"><ele>804.0</ele><time>2026-04-20T14:41:27Z</time></trkpt><trkpt lat="43.55990453277311" lon="12.340107256186638"><ele>804.6666666666666</ele><time>2026-04-20T14:41:28Z</time></trkpt><trkpt lat="43.55997721512536" lon="12.340005250340099"><ele>805.3333333333333</ele><time>2026-04-20T14:41:29Z</time></trkpt><trkpt lat="43.56003541998437" lon="12.339923862372462"><ele>806.0</ele><time>2026-04-20T14:41:30Z</time></trkpt><trkpt lat="43.560072424209636" lon="12.339843735956068"><ele>806.6666666666666</ele><time>2026-04-20T14:41:31Z</time></trkpt><trkpt lat="43.56010177781788" lon="12.339757496477613"><ele>807.3333333333333</ele><time>2026-04-20T14:41:32Z</time></trkpt><trkpt lat="43.560123305593336" lon="12.339672061375103"><ele>808.0</ele><time>2026-04-20T14:41:33Z</time></trkpt><trkpt lat="43.560106808411675" lon="12.33952999323815"><ele>808.5714285714286</ele><time>2026-04-20T14:41:35Z</time></trkpt><trkpt lat="43.560065772163156" lon="12.33945009111338"><ele>809.1428571428571</ele><time>2026-04-20T14:41:36Z</time></trkpt><trkpt lat="43.56002623297335" lon="12.339378344484912"><ele>809.7142857142858</ele><time>2026-04-20T14:41:37Z</time></trkpt><trkpt lat="43.55997953152084" lon="12.339315483425136"><ele>810.2857142857142</ele><time>2026-04-20T14:41:38Z</time></trkpt><trkpt lat="43.559915820868994" lon="12.339257683145703"><ele>810.8571428571429</ele><time>2026-04-20T14:41:39Z</time></trkpt><trkpt lat="43.55985132025371" lon="12.339230328455741"><ele>811.4285714285714</ele><time>2026-04-20T14:41:40Z</time></trkpt><trkpt lat="43.55975440507005" lon="12.339233377490313"><ele>812.0</ele><time>2026-04-20T14:41:42Z</time></trkpt><trkpt lat="43.55968929501467" lon="12.339255978719862"><ele>812.0000000000001</ele><time>2026-04-20T14:41:44Z</time></trkpt><trkpt lat="43.559575416324904" lon="12.339274663006538"><ele>812.0</ele><time>2026-04-20T14:41:47Z</time></trkpt><trkpt lat="43.55949698987688" lon="12.339270653415573"><ele>812.0</ele><time>2026-04-20T14:41:48Z</time></trkpt><trkpt lat="43.55941303040137" lon="12.339249401568926"><ele>812.0</ele><time>2026-04-20T14:41:49Z</time></trkpt><trkpt lat="43.559338089245834" lon="12.339217516307786"><ele>812.0000000000001</ele><time>2026-04-20T14:41:50Z</time></trkpt><trkpt lat="43.55925661611283" lon="12.339190518530362"><ele>812.0</ele><time>2026-04-20T14:41:51Z</time></trkpt><trkpt lat="43.55917525590146" lon="12.339169546393956"><ele>812.2</ele><time>2026-04-20T14:41:52Z</time></trkpt><trkpt lat="43.55909887030023" lon="12.339180679638494"><ele>812.4000000000001</ele><time>2026-04-20T14:41:53Z</time></trkpt><trkpt lat="43.559027685877325" lon="12.339206211487568"><ele>812.5999999999999</ele><time>2026-04-20T14:41:54Z</time></trkpt><trkpt lat="43.55891299226717" lon="12.339210478690086"><ele>812.8</ele><time>2026-04-20T14:41:56Z</time></trkpt><trkpt lat="43.55878988671939" lon="12.339164512244151"><ele>813.0</ele><time>2026-04-20T14:41:58Z</time></trkpt><trkpt lat="43.55869455812152" lon="12.339113264592918"><ele>813.0</ele><time>2026-04-20T14:42:00Z</time></trkpt><trkpt lat="43.55860218230375" lon="12.339125188412133"><ele>813.0</ele><time>2026-04-20T14:42:02Z</time></trkpt><trkpt lat="43.55854729657795" lon="12.339180174306328"><ele>813.0</ele><time>2026-04-20T14:42:03Z</time></trkpt><trkpt lat="43.55848836015278" lon="12.339241838309851"><ele>813.0</ele><time>2026-04-20T14:42:04Z</time></trkpt><trkpt lat="43.55844175946499" lon="12.339318686028037"><ele>813.0</ele><time>2026-04-20T14:42:05Z</time></trkpt><trkpt lat="43.558405071239946" lon="12.339418273704366"><ele>813.0</ele><time>2026-04-20T14:42:06Z</time></trkpt><trkpt lat="43.558374583159555" lon="12.339517498381412"><ele>813.0</ele><time>2026-04-20T14:42:07Z</time></trkpt><trkpt lat="43.558336865163895" lon="12.339619629191006"><ele>813.0</ele><time>2026-04-20T14:42:08Z</time></trkpt><trkpt lat="43.5583039538803" lon="12.339713843462777"><ele>813.0</ele><time>2026-04-20T14:42:09Z</time></trkpt><trkpt lat="43.55825880555552" lon="12.339802844289618"><ele>813.0</ele><time>2026-04-20T14:42:10Z</time></trkpt><trkpt lat="43.55821194793993" lon="12.339867998911119"><ele>813.0</ele><time>2026-04-20T14:42:11Z</time></trkpt><trkpt lat="43.558154385373996" lon="12.339921521664833"><ele>813.0</ele><time>2026-04-20T14:42:12Z</time></trkpt><trkpt lat="43.55803819319304" lon="12.339987200237832"><ele>810.8</ele><time>2026-04-20T14:42:14Z</time></trkpt><trkpt lat="43.55790281324109" lon="12.340025065903461"><ele>808.5999999999999</ele><time>2026-04-20T14:42:16Z</time></trkpt><trkpt lat="43.55781214406219" lon="12.34004743905627"><ele>806.4000000000001</ele><time>2026-04-20T14:42:17Z</time></trkpt><trkpt lat="43.557731675741856" lon="12.340086821912845"><ele>804.2</ele><time>2026-04-20T14:42:18Z</time></trkpt><trkpt lat="43.55764609588443" lon="12.340143317712515"><ele>802.0</ele><time>2026-04-20T14:42:19Z</time></trkpt><trkpt lat="43.557576623416644" lon="12.340189067278466"><ele>801.9999999999999</ele><time>2026-04-20T14:42:20Z</time></trkpt><trkpt lat="43.55749986981001" lon="12.340217379366546"><ele>802.0</ele><time>2026-04-20T14:42:21Z</time></trkpt><trkpt lat="43.55743308893535" lon="12.340219642750599"><ele>802.0</ele><time>2026-04-20T14:42:22Z</time></trkpt><trkpt lat="43.55732978898929" lon="12.34012423454918"><ele>802.0</ele><time>2026-04-20T14:42:24Z</time></trkpt><trkpt lat="43.55730087619121" lon="12.340037523022994"><ele>801.9999999999999</ele><time>2026-04-20T14:42:25Z</time></trkpt><trkpt lat="43.55728733185365" lon="12.339925803477165"><ele>802.0</ele><time>2026-04-20T14:42:26Z</time></trkpt><trkpt lat="43.557283394849435" lon="12.339816982999512"><ele>802.4999999999999</ele><time>2026-04-20T14:42:27Z</time></trkpt><trkpt lat="43.5572718807229" lon="12.339703729891346"><ele>803.0</ele><time>2026-04-20T14:42:28Z</time></trkpt><trkpt lat="43.55723211904673" lon="12.339628526616437"><ele>803.5</ele><time>2026-04-20T14:42:29Z</time></trkpt><trkpt lat="43.55716594744308" lon="12.339573180439242"><ele>804.0</ele><time>2026-04-20T14:42:30Z</time></trkpt><trkpt lat="43.557075273475846" lon="12.33953124333993"><ele>804.4999999999999</ele><time>2026-04-20T14:42:31Z</time></trkpt><trkpt lat="43.556981863230305" lon="12.339508488530248"><ele>805.0</ele><time>2026-04-20T14:42:32Z</time></trkpt><trkpt lat="43.55688767749694" lon="12.339493980064615"><ele>804.9999999999999</ele><time>2026-04-20T14:42:33Z</time></trkpt><trkpt lat="43.55679716255235" lon="12.339465511866601"><ele>805.0</ele><time>2026-04-20T14:42:34Z</time></trkpt><trkpt lat="43.55671921523784" lon="12.339446966400764"><ele>805.0</ele><time>2026-04-20T14:42:35Z</time></trkpt><trkpt lat="43.55664376773744" lon="12.339439393295354"><ele>805.0</ele><time>2026-04-20T14:42:36Z</time></trkpt><trkpt lat="43.55655510899506" lon="12.339439971225213"><ele>804.9999999999999</ele><time>2026-04-20T14:42:37Z</time></trkpt><trkpt lat="43.55644455769306" lon="12.339431172279925"><ele>805.0</ele><time>2026-04-20T14:42:38Z</time></trkpt><trkpt lat="43.55634226478046" lon="12.339410082168502"><ele>804.9999999999999</ele><time>2026-04-20T14:42:39Z</time></trkpt><trkpt lat="43.556257685855826" lon="12.339371149393806"><ele>805.0</ele><time>2026-04-20T14:42:40Z</time></trkpt><trkpt lat="43.55619275652447" lon="12.339308031123931"><ele>805.0</ele><time>2026-04-20T14:42:41Z</time></trkpt><trkpt lat="43.55614967638788" lon="12.339220003264849"><ele>805.0</ele><time>2026-04-20T14:42:42Z</time></trkpt><trkpt lat="43.55614753821562" lon="12.339130118679753"><ele>804.9999999999999</ele><time>2026-04-20T14:42:43Z</time></trkpt><trkpt lat="43.55617033176142" lon="12.339036465937383"><ele>805.0</ele><time>2026-04-20T14:42:44Z</time></trkpt><trkpt lat="43.55622940048528" lon="12.338943607708597"><ele>804.8</ele><time>2026-04-20T14:42:45Z</time></trkpt><trkpt lat="43.556306411145506" lon="12.338869441770665"><ele>804.6</ele><time>2026-04-20T14:42:46Z</time></trkpt><trkpt lat="43.55640298753899" lon="12.33878479929001"><ele>804.4000000000001</ele><time>2026-04-20T14:42:47Z</time></trkpt><trkpt lat="43.5564918582626" lon="12.338701866545989"><ele>804.2</ele><time>2026-04-20T14:42:48Z</time></trkpt><trkpt lat="43.55659446815204" lon="12.338615066121461"><ele>804.0</ele><time>2026-04-20T14:42:49Z</time></trkpt><trkpt lat="43.5566935775032" lon="12.338538657836914"><ele>804.0</ele><time>2026-04-20T14:42:50Z</time></trkpt><trkpt lat="43.556790731830716" lon="12.338457890519116"><ele>804.0</ele><time>2026-04-20T14:42:51Z</time></trkpt><trkpt lat="43.55689069710008" lon="12.338403488321953"><ele>804.0</ele><time>2026-04-20T14:42:52Z</time></trkpt><trkpt lat="43.55698485804261" lon="12.338352680337547"><ele>804.0</ele><time>2026-04-20T14:42:53Z</time></trkpt><trkpt lat="43.55707158404745" lon="12.33828082134814"><ele>804.0</ele><time>2026-04-20T14:42:54Z</time></trkpt><trkpt lat="43.55714567844658" lon="12.33819057046514"><ele>809.8000000000001</ele><time>2026-04-20T14:42:55Z</time></trkpt><trkpt lat="43.55719269557262" lon="12.338091100970114"><ele>815.6</ele><time>2026-04-20T14:42:56Z</time></trkpt><trkpt lat="43.55721065409075" lon="12.33798281260779"><ele>821.4</ele><time>2026-04-20T14:42:57Z</time></trkpt><trkpt lat="43.55721435970011" lon="12.337851142253331"><ele>827.2</ele><time>2026-04-20T14:42:58Z</time></trkpt><trkpt lat="43.55720530943706" lon="12.33771655404164"><ele>833.0</ele><time>2026-04-20T14:42:59Z</time></trkpt><trkpt lat="43.55719354666052" lon="12.337578614500142"><ele>833.0</ele><time>2026-04-20T14:43:00Z</time></trkpt><trkpt lat="43.55716966375833" lon="12.337436124376467"><ele>833.0</ele><time>2026-04-20T14:43:01Z</time></trkpt><trkpt lat="43.557135195326985" lon="12.337304681797592"><ele>833.0</ele><time>2026-04-20T14:43:02Z</time></trkpt><trkpt lat="43.55709477456827" lon="12.337183083112533"><ele>833.0</ele><time>2026-04-20T14:43:03Z</time></trkpt><trkpt lat="43.55703272385077" lon="12.337090209960998"><ele>833.0</ele><time>2026-04-20T14:43:04Z</time></trkpt><trkpt lat="43.55695733118482" lon="12.33701462145849"><ele>828.5999999999999</ele><time>2026-04-20T14:43:05Z</time></trkpt><trkpt lat="43.55688667564128" lon="12.336933678661655"><ele>824.1999999999999</ele><time>2026-04-20T14:43:06Z</time></trkpt><trkpt lat="43.55683556266047" lon="12.336876808278076"><ele>819.8</ele><time>2026-04-20T14:43:07Z</time></trkpt><trkpt lat="43.55677045828281" lon="12.336759922166488"><ele>815.4</ele><time>2026-04-20T14:43:09Z</time></trkpt><trkpt lat="43.556734677099264" lon="12.336631402455563"><ele>811.0</ele><time>2026-04-20T14:43:11Z</time></trkpt><trkpt lat="43.55675044876478" lon="12.336437696950648"><ele>811.4999999999999</ele><time>2026-04-20T14:43:13Z</time></trkpt><trkpt lat="43.55676835992271" lon="12.336316929540859"><ele>812.0</ele><time>2026-04-20T14:43:14Z</time></trkpt><trkpt lat="43.55677398259458" lon="12.33619431777284"><ele>812.5</ele><time>2026-04-20T14:43:15Z</time></trkpt><trkpt lat="43.55678132817434" lon="12.336057279456517"><ele>813.0</ele><time>2026-04-20T14:43:16Z</time></trkpt><trkpt lat="43.55678161732146" lon="12.335939255527675"><ele>813.4999999999999</ele><time>2026-04-20T14:43:17Z</time></trkpt><trkpt lat="43.556776454490006" lon="12.335830320606721"><ele>814.0</ele><time>2026-04-20T14:43:18Z</time></trkpt><trkpt lat="43.556757707085616" lon="12.335720114802392"><ele>813.9999999999999</ele><time>2026-04-20T14:43:19Z</time></trkpt><trkpt lat="43.55672888289651" lon="12.335632136099026"><ele>814.0</ele><time>2026-04-20T14:43:20Z</time></trkpt><trkpt lat="43.556687973588446" lon="12.33555633736599"><ele>814.0</ele><time>2026-04-20T14:43:21Z</time></trkpt><trkpt lat="43.55664119449009" lon="12.335493315530325"><ele>814.0</ele><time>2026-04-20T14:43:22Z</time></trkpt><trkpt lat="43.5565430578052" lon="12.335424684355642"><ele>813.9999999999999</ele><time>2026-04-20T14:43:24Z</time></trkpt><trkpt lat="43.556427767043445" lon="12.335350557846553"><ele>814.0</ele><time>2026-04-20T14:43:26Z</time></trkpt><trkpt lat="43.55635535964337" lon="12.33530402994164"><ele>812.4999999999999</ele><time>2026-04-20T14:43:27Z</time></trkpt><trkpt lat="43.55627018928897" lon="12.335252059537877"><ele>811.0</ele><time>2026-04-20T14:43:28Z</time></trkpt><trkpt lat="43.556190573521256" lon="12.33520199291952"><ele>809.5</ele><time>2026-04-20T14:43:29Z</time></trkpt><trkpt lat="43.55611513762684" lon="12.335150035493085"><ele>808.0</ele><time>2026-04-20T14:43:30Z</time></trkpt><trkpt lat="43.55603528041505" lon="12.335079926564699"><ele>806.4999999999999</ele><time>2026-04-20T14:43:31Z</time></trkpt><trkpt lat="43.55597785229845" lon="12.334985536856452"><ele>805.0</ele><time>2026-04-20T14:43:32Z</time></trkpt><trkpt lat="43.55593772054992" lon="12.334851821143028"><ele>804.9999999999999</ele><time>2026-04-20T14:43:33Z</time></trkpt><trkpt lat="43.55590436212054" lon="12.334736791303612"><ele>805.0</ele><time>2026-04-20T14:43:34Z</time></trkpt><trkpt lat="43.5558858123003" lon="12.334649738371407"><ele>805.0</ele><time>2026-04-20T14:43:35Z</time></trkpt><trkpt lat="43.55590096142129" lon="12.334560114415797"><ele>805.0</ele><time>2026-04-20T14:43:36Z</time></trkpt><trkpt lat="43.55594714080096" lon="12.334476952225971"><ele>804.9999999999999</ele><time>2026-04-20T14:43:37Z</time></trkpt><trkpt lat="43.55602291776344" lon="12.334395415670919"><ele>805.0</ele><time>2026-04-20T14:43:38Z</time></trkpt><trkpt lat="43.55610541626588" lon="12.334284616068894"><ele>804.4999999999999</ele><time>2026-04-20T14:43:39Z</time></trkpt><trkpt lat="43.556156699309135" lon="12.334174461750624"><ele>804.0</ele><time>2026-04-20T14:43:40Z</time></trkpt><trkpt lat="43.556200508847965" lon="12.334058302058931"><ele>803.5</ele><time>2026-04-20T14:43:41Z</time></trkpt><trkpt lat="43.55625217150769" lon="12.333970810831753"><ele>803.0</ele><time>2026-04-20T14:43:42Z</time></trkpt><trkpt lat="43.556313362540784" lon="12.333918940023398"><ele>802.4999999999999</ele><time>2026-04-20T14:43:43Z</time></trkpt><trkpt lat="43.5563819448657" lon="12.33390671649284"><ele>802.0</ele><time>2026-04-20T14:43:44Z</time></trkpt><trkpt lat="43.556448544533964" lon="12.333924230462534"><ele>804.9999999999999</ele><time>2026-04-20T14:43:45Z</time></trkpt><trkpt lat="43.556511924943955" lon="12.333963663659182"><ele>808.0</ele><time>2026-04-20T14:43:46Z</time></trkpt><trkpt lat="43.55658321061547" lon="12.334014574427325"><ele>811.0</ele><time>2026-04-20T14:43:47Z</time></trkpt><trkpt lat="43.55666103734942" lon="12.33405062744787"><ele>814.0</ele><time>2026-04-20T14:43:48Z</time></trkpt><trkpt lat="43.55674148647542" lon="12.334072939350326"><ele>816.9999999999999</ele><time>2026-04-20T14:43:49Z</time></trkpt><trkpt lat="43.556812256403866" lon="12.33406935598847"><ele>820.0</ele><time>2026-04-20T14:43:50Z</time></trkpt><trkpt lat="43.556876689377226" lon="12.334042720039688"><ele>819.9999999999999</ele><time>2026-04-20T14:43:51Z</time></trkpt><trkpt lat="43.55695789039431" lon="12.333916310654313"><ele>820.0</ele><time>2026-04-20T14:43:53Z</time></trkpt><trkpt lat="43.556971588014775" lon="12.333819744981287"><ele>820.0</ele><time>2026-04-20T14:43:54Z</time></trkpt><trkpt lat="43.55696361676876" lon="12.333726820691815"><ele>820.0</ele><time>2026-04-20T14:43:55Z</time></trkpt><trkpt lat="43.55695658552796" lon="12.333617796297437"><ele>819.9999999999999</ele><time>2026-04-20T14:43:56Z</time></trkpt><trkpt lat="43.55695678452204" lon="12.333510863097588"><ele>820.0</ele><time>2026-04-20T14:43:57Z</time></trkpt><trkpt lat="43.5569825353025" lon="12.333416876526334"><ele>818.4</ele><time>2026-04-20T14:43:58Z</time></trkpt><trkpt lat="43.55705923036515" lon="12.333332782044167"><ele>816.8</ele><time>2026-04-20T14:43:59Z</time></trkpt><trkpt lat="43.55715121997991" lon="12.333296069721362"><ele>815.2</ele><time>2026-04-20T14:44:00Z</time></trkpt><trkpt lat="43.55724974326794" lon="12.333281752272619"><ele>813.6</ele><time>2026-04-20T14:44:01Z</time></trkpt><trkpt lat="43.55735724853763" lon="12.333280234127319"><ele>812.0</ele><time>2026-04-20T14:44:02Z</time></trkpt><trkpt lat="43.55745848355376" lon="12.33324768754105"><ele>812.0</ele><time>2026-04-20T14:44:03Z</time></trkpt><trkpt lat="43.55756150047692" lon="12.333177345605908"><ele>812.0</ele><time>2026-04-20T14:44:04Z</time></trkpt><trkpt lat="43.557665081786965" lon="12.333101706879757"><ele>812.0</ele><time>2026-04-20T14:44:05Z</time></trkpt><trkpt lat="43.55775412489697" lon="12.33304396232856"><ele>812.0</ele><time>2026-04-20T14:44:06Z</time></trkpt><trkpt lat="43.557839268437945" lon="12.333006793203428"><ele>812.0</ele><time>2026-04-20T14:44:07Z</time></trkpt><trkpt lat="43.55792092789791" lon="12.333005746571134"><ele>812.0000000000001</ele><time>2026-04-20T14:44:08Z</time></trkpt><trkpt lat="43.55800868844446" lon="12.33304242533273"><ele>812.0</ele><time>2026-04-20T14:44:09Z</time></trkpt><trkpt lat="43.55809218479766" lon="12.333068225814115"><ele>812.0</ele><time>2026-04-20T14:44:10Z</time></trkpt><trkpt lat="43.55819531852881" lon="12.333085972039981"><ele>812.0</ele><time>2026-04-20T14:44:11Z</time></trkpt><trkpt lat="43.55826498148952" lon="12.333075741628656"><ele>812.0000000000001</ele><time>2026-04-20T14:44:12Z</time></trkpt><trkpt lat="43.55832569399563" lon="12.333033853907988"><ele>812.0</ele><time>2026-04-20T14:44:13Z</time></trkpt><trkpt lat="43.55836493994735" lon="12.332951286102526"><ele>812.0</ele><time>2026-04-20T14:44:15Z</time></trkpt><trkpt lat="43.55837556270744" lon="12.332829225246023"><ele>812.0</ele><time>2026-04-20T14:44:17Z</time></trkpt><trkpt lat="43.55830507860054" lon="12.33269846253366"><ele>812.0</ele><time>2026-04-20T14:44:19Z</time></trkpt><trkpt lat="43.55823289573589" lon="12.332629558047929"><ele>812.0</ele><time>2026-04-20T14:44:20Z</time></trkpt><trkpt lat="43.55815224019227" lon="12.332562599029863"><ele>812.0</ele><time>2026-04-20T14:44:21Z</time></trkpt><trkpt lat="43.55805728511773" lon="12.332476713493485"><ele>812.0</ele><time>2026-04-20T14:44:22Z</time></trkpt><trkpt lat="43.55796498213877" lon="12.33238790990108"><ele>812.0</ele><time>2026-04-20T14:44:23Z</time></trkpt><trkpt lat="43.55790823372106" lon="12.332315846475373"><ele>812.0</ele><time>2026-04-20T14:44:24Z</time></trkpt><trkpt lat="43.55789270356653" lon="12.332144245529085"><ele>812.0</ele><time>2026-04-20T14:44:26Z</time></trkpt><trkpt lat="43.55791978399375" lon="12.332031596147718"><ele>812.0</ele><time>2026-04-20T14:44:27Z</time></trkpt><trkpt lat="43.55795764372683" lon="12.331899218412836"><ele>814.2</ele><time>2026-04-20T14:44:28Z</time></trkpt><trkpt lat="43.55797866586728" lon="12.331758497387838"><ele>816.4000000000001</ele><time>2026-04-20T14:44:29Z</time></trkpt><trkpt lat="43.5579209918366" lon="12.331580760633194"><ele>818.5999999999999</ele><time>2026-04-20T14:44:31Z</time></trkpt><trkpt lat="43.55791330544169" lon="12.331432484599924"><ele>820.8</ele><time>2026-04-20T14:44:32Z</time></trkpt><trkpt lat="43.557936742319335" lon="12.33132786874452"><ele>823.0</ele><time>2026-04-20T14:44:33Z</time></trkpt><trkpt lat="43.5580018244606" lon="12.331240966368881"><ele>823.0</ele><time>2026-04-20T14:44:34Z</time></trkpt><trkpt lat="43.558092119837404" lon="12.331159848853925"><ele>823.0</ele><time>2026-04-20T14:44:35Z</time></trkpt><trkpt lat="43.5581912206341" lon="12.331075733570795"><ele>823.0</ele><time>2026-04-20T14:44:36Z</time></trkpt><trkpt lat="43.558274486390125" lon="12.331002548126495"><ele>823.0</ele><time>2026-04-20T14:44:37Z</time></trkpt><trkpt lat="43.558318428347754" lon="12.330854468529958"><ele>823.0</ele><time>2026-04-20T14:44:39Z</time></trkpt><trkpt lat="43.55828975316369" lon="12.33077048727542"><ele>822.9999999999999</ele><time>2026-04-20T14:44:40Z</time></trkpt><trkpt lat="43.558237723367455" lon="12.330695496467436"><ele>823.0</ele><time>2026-04-20T14:44:41Z</time></trkpt><trkpt lat="43.55816187286181" lon="12.33064891518686"><ele>823.0</ele><time>2026-04-20T14:44:42Z</time></trkpt><trkpt lat="43.55807216720751" lon="12.330643106064539"><ele>823.0</ele><time>2026-04-20T14:44:43Z</time></trkpt><trkpt lat="43.55797742641868" lon="12.330651896643857"><ele>822.9999999999999</ele><time>2026-04-20T14:44:44Z</time></trkpt><trkpt lat="43.55791076286197" lon="12.330626122352168"><ele>823.0</ele><time>2026-04-20T14:44:45Z</time></trkpt><trkpt lat="43.55783289160681" lon="12.330536117018726"><ele>825.4</ele><time>2026-04-20T14:44:46Z</time></trkpt><trkpt lat="43.557759294730715" lon="12.330450146864814"><ele>827.8</ele><time>2026-04-20T14:44:47Z</time></trkpt><trkpt lat="43.55766930613208" lon="12.330415467246558"><ele>830.2</ele><time>2026-04-20T14:44:48Z</time></trkpt><trkpt lat="43.557576326379994" lon="12.330426800557436"><ele>832.6</ele><time>2026-04-20T14:44:49Z</time></trkpt><trkpt lat="43.55747588977077" lon="12.330452436777152"><ele>835.0</ele><time>2026-04-20T14:44:50Z</time></trkpt><trkpt lat="43.557377676275955" lon="12.33048431013161"><ele>835.0</ele><time>2026-04-20T14:44:51Z</time></trkpt><trkpt lat="43.55730435116824" lon="12.330524357701922"><ele>835.0</ele><time>2026-04-20T14:44:52Z</time></trkpt><trkpt lat="43.557249693256225" lon="12.330577423053366"><ele>835.0</ele><time>2026-04-20T14:44:53Z</time></trkpt><trkpt lat="43.5571626051953" lon="12.330733717645167"><ele>835.0</ele><time>2026-04-20T14:44:55Z</time></trkpt><trkpt lat="43.55712566143833" lon="12.330849258049335"><ele>835.0</ele><time>2026-04-20T14:44:56Z</time></trkpt><trkpt lat="43.55709818700246" lon="12.330979472206453"><ele>834.8333333333333</ele><time>2026-04-20T14:44:57Z</time></trkpt><trkpt lat="43.55708639894518" lon="12.331115977126888"><ele>834.6666666666666</ele><time>2026-04-20T14:44:58Z</time></trkpt><trkpt lat="43.55708374009165" lon="12.3312365306343"><ele>834.5</ele><time>2026-04-20T14:44:59Z</time></trkpt><trkpt lat="43.557061550471204" lon="12.331319087907252"><ele>834.3333333333333</ele><time>2026-04-20T14:45:00Z</time></trkpt><trkpt lat="43.55700400602039" lon="12.331368829084429"><ele>834.1666666666666</ele><time>2026-04-20T14:45:01Z</time></trkpt><trkpt lat="43.556926679890545" lon="12.331408499886024"><ele>834.0</ele><time>2026-04-20T14:45:02Z</time></trkpt><trkpt lat="43.55683645205393" lon="12.331453490118154"><ele>830.5</ele><time>2026-04-20T14:45:03Z</time></trkpt><trkpt lat="43.55674201916528" lon="12.331511601796079"><ele>827.0</ele><time>2026-04-20T14:45:04Z</time></trkpt><trkpt lat="43.55666188110483" lon="12.33158297345328"><ele>823.5</ele><time>2026-04-20T14:45:05Z</time></trkpt><trkpt lat="43.55657358230274" lon="12.331643760482807"><ele>820.0</ele><time>2026-04-20T14:45:06Z</time></trkpt><trkpt lat="43.5565016280442" lon="12.331683977211403"><ele>816.5</ele><time>2026-04-20T14:45:07Z</time></trkpt><trkpt lat="43.556428906961166" lon="12.331689283888446"><ele>813.0</ele><time>2026-04-20T14:45:08Z</time></trkpt><trkpt lat="43.5563415245429" lon="12.331680182861367"><ele>813.0</ele><time>2026-04-20T14:45:09Z</time></trkpt><trkpt lat="43.556258238991695" lon="12.331647357782554"><ele>813.0</ele><time>2026-04-20T14:45:10Z</time></trkpt><trkpt lat="43.55616794020838" lon="12.331619184648488"><ele>813.0</ele><time>2026-04-20T14:45:11Z</time></trkpt><trkpt lat="43.55607839577292" lon="12.33160529522676"><ele>813.0</ele><time>2026-04-20T14:45:12Z</time></trkpt><trkpt lat="43.556004642331175" lon="12.331603874338919"><ele>813.0</ele><time>2026-04-20T14:45:13Z</time></trkpt><trkpt lat="43.55592455624257" lon="12.331601283785588"><ele>813.0</ele><time>2026-04-20T14:45:14Z</time></trkpt><trkpt lat="43.555857721904445" lon="12.331599042873489"><ele>813.1666666666666</ele><time>2026-04-20T14:45:15Z</time></trkpt><trkpt lat="43.555770948631235" lon="12.33160536023169"><ele>813.3333333333333</ele><time>2026-04-20T14:45:16Z</time></trkpt><trkpt lat="43.55569201125437" lon="12.33161738030169"><ele>813.5</ele><time>2026-04-20T14:45:17Z</time></trkpt><trkpt lat="43.55561919853877" lon="12.331617454684444"><ele>813.6666666666666</ele><time>2026-04-20T14:45:18Z</time></trkpt><trkpt lat="43.555538067252044" lon="12.331579913373197"><ele>813.8333333333333</ele><time>2026-04-20T14:45:19Z</time></trkpt><trkpt lat="43.555474445406716" lon="12.331524581884278"><ele>814.0</ele><time>2026-04-20T14:45:20Z</time></trkpt><trkpt lat="43.55543575159692" lon="12.331438474347367"><ele>815.1666666666666</ele><time>2026-04-20T14:45:21Z</time></trkpt><trkpt lat="43.5554242918645" lon="12.331337621221001"><ele>816.3333333333333</ele><time>2026-04-20T14:45:22Z</time></trkpt><trkpt lat="43.555432487982735" lon="12.331220128706551"><ele>817.5</ele><time>2026-04-20T14:45:23Z</time></trkpt><trkpt lat="43.555468981997294" lon="12.331112470501926"><ele>818.6666666666667</ele><time>2026-04-20T14:45:24Z</time></trkpt><trkpt lat="43.55552833951352" lon="12.331023672906328"><ele>819.8333333333334</ele><time>2026-04-20T14:45:25Z</time></trkpt><trkpt lat="43.55560162336995" lon="12.330952922823071"><ele>821.0</ele><time>2026-04-20T14:45:26Z</time></trkpt><trkpt lat="43.55567643175569" lon="12.330878531553289"><ele>821.0</ele><time>2026-04-20T14:45:27Z</time></trkpt><trkpt lat="43.555749505596204" lon="12.330793091367324"><ele>821.0</ele><time>2026-04-20T14:45:28Z</time></trkpt><trkpt lat="43.555827175863655" lon="12.330705371574533"><ele>821.0</ele><time>2026-04-20T14:45:29Z</time></trkpt><trkpt lat="43.5559046979915" lon="12.330613780438904"><ele>821.0</ele><time>2026-04-20T14:45:30Z</time></trkpt><trkpt lat="43.55597146303019" lon="12.330517614312775"><ele>821.0</ele><time>2026-04-20T14:45:31Z</time></trkpt><trkpt lat="43.556048175125945" lon="12.330421293879464"><ele>819.4</ele><time>2026-04-20T14:45:32Z</time></trkpt><trkpt lat="43.55611466531307" lon="12.330340329533168"><ele>817.8</ele><time>2026-04-20T14:45:33Z</time></trkpt><trkpt lat="43.55617829004997" lon="12.330243544635701"><ele>816.1999999999999</ele><time>2026-04-20T14:45:34Z</time></trkpt><trkpt lat="43.55622562915286" lon="12.330133595628215"><ele>814.5999999999999</ele><time>2026-04-20T14:45:35Z</time></trkpt><trkpt lat="43.55628536764427" lon="12.330023844614567"><ele>813.0</ele><time>2026-04-20T14:45:36Z</time></trkpt><trkpt lat="43.556350751800935" lon="12.32991070796399"><ele>817.8</ele><time>2026-04-20T14:45:37Z</time></trkpt><trkpt lat="43.5564111469179" lon="12.329798522274027"><ele>822.5999999999999</ele><time>2026-04-20T14:45:38Z</time></trkpt><trkpt lat="43.556447437697656" lon="12.32967832492908"><ele>827.4000000000001</ele><time>2026-04-20T14:45:39Z</time></trkpt><trkpt lat="43.55648222077032" lon="12.329551558804772"><ele>832.2</ele><time>2026-04-20T14:45:40Z</time></trkpt><trkpt lat="43.55651653557068" lon="12.329407213406071"><ele>837.0</ele><time>2026-04-20T14:45:41Z</time></trkpt><trkpt lat="43.55654099390682" lon="12.329267785653924"><ele>837.75</ele><time>2026-04-20T14:45:42Z</time></trkpt><trkpt lat="43.556560542926434" lon="12.329114096678495"><ele>838.5</ele><time>2026-04-20T14:45:43Z</time></trkpt><trkpt lat="43.55658158334876" lon="12.328951817426725"><ele>839.25</ele><time>2026-04-20T14:45:44Z</time></trkpt><trkpt lat="43.556590966123274" lon="12.32878144221669"><ele>840.0</ele><time>2026-04-20T14:45:45Z</time></trkpt><trkpt lat="43.556610861682074" lon="12.328620250558753"><ele>840.0</ele><time>2026-04-20T14:45:46Z</time></trkpt><trkpt lat="43.556644679577836" lon="12.328465170254562"><ele>840.0</ele><time>2026-04-20T14:45:47Z</time></trkpt><trkpt lat="43.556685669995105" lon="12.3283135322295"><ele>840.0</ele><time>2026-04-20T14:45:48Z</time></trkpt><trkpt lat="43.55671925584712" lon="12.328138956166773"><ele>840.0</ele><time>2026-04-20T14:45:49Z</time></trkpt><trkpt lat="43.55675018530943" lon="12.327989757664502"><ele>840.0</ele><time>2026-04-20T14:45:50Z</time></trkpt><trkpt lat="43.55677010320053" lon="12.327845943697682"><ele>840.0</ele><time>2026-04-20T14:45:51Z</time></trkpt><trkpt lat="43.55677692772108" lon="12.327741047300663"><ele>840.0</ele><time>2026-04-20T14:45:52Z</time></trkpt><trkpt lat="43.556799000561774" lon="12.3276349366109"><ele>840.0</ele><time>2026-04-20T14:45:53Z</time></trkpt><trkpt lat="43.556848844694066" lon="12.327539608935272"><ele>840.0</ele><time>2026-04-20T14:45:54Z</time></trkpt><trkpt lat="43.55690673014745" lon="12.32743500454478"><ele>840.0</ele><time>2026-04-20T14:45:55Z</time></trkpt><trkpt lat="43.556969482548084" lon="12.327355872921972"><ele>843.1666666666666</ele><time>2026-04-20T14:45:56Z</time></trkpt><trkpt lat="43.55703961488553" lon="12.32728883410594"><ele>846.3333333333333</ele><time>2026-04-20T14:45:57Z</time></trkpt><trkpt lat="43.5570830102671" lon="12.327210296457089"><ele>849.5</ele><time>2026-04-20T14:45:58Z</time></trkpt><trkpt lat="43.557101745139164" lon="12.32711065879622"><ele>852.6666666666666</ele><time>2026-04-20T14:45:59Z</time></trkpt><trkpt lat="43.55709622565039" lon="12.32700642654167"><ele>855.8333333333333</ele><time>2026-04-20T14:46:00Z</time></trkpt><trkpt lat="43.55706855781711" lon="12.326902722710658"><ele>859.0</ele><time>2026-04-20T14:46:01Z</time></trkpt><trkpt lat="43.557016230987166" lon="12.32682029163846"><ele>859.0</ele><time>2026-04-20T14:46:02Z</time></trkpt><trkpt lat="43.55693073269344" lon="12.326776598192968"><ele>859.0000000000001</ele><time>2026-04-20T14:46:03Z</time></trkpt><trkpt lat="43.55683994891339" lon="12.326750411794126"><ele>859.0000000000001</ele><time>2026-04-20T14:46:04Z</time></trkpt><trkpt lat="43.55674235411299" lon="12.326724354124721"><ele>859.0</ele><time>2026-04-20T14:46:05Z</time></trkpt><trkpt lat="43.55665150335518" lon="12.326700350141964"><ele>859.0</ele><time>2026-04-20T14:46:06Z</time></trkpt><trkpt lat="43.55655338036038" lon="12.326682221781214"><ele>859.0</ele><time>2026-04-20T14:46:07Z</time></trkpt><trkpt lat="43.55645891984825" lon="12.326659617728247"><ele>859.0000000000001</ele><time>2026-04-20T14:46:08Z</time></trkpt><trkpt lat="43.556370867578565" lon="12.32666799873621"><ele>859.0000000000001</ele><time>2026-04-20T14:46:09Z</time></trkpt><trkpt lat="43.55630416064765" lon="12.326728942838935"><ele>859.0</ele><time>2026-04-20T14:46:10Z</time></trkpt><trkpt lat="43.556242843942385" lon="12.326839471566002"><ele>859.0</ele><time>2026-04-20T14:46:11Z</time></trkpt><trkpt lat="43.55619081480212" lon="12.326938527238015"><ele>859.4999999999999</ele><time>2026-04-20T14:46:12Z</time></trkpt><trkpt lat="43.556126759479376" lon="12.327039015982717"><ele>860.0</ele><time>2026-04-20T14:46:13Z</time></trkpt><trkpt lat="43.55606388659883" lon="12.327149659586553"><ele>860.5</ele><time>2026-04-20T14:46:14Z</time></trkpt><trkpt lat="43.55600224069622" lon="12.327249712504042"><ele>861.0</ele><time>2026-04-20T14:46:15Z</time></trkpt><trkpt lat="43.555950952718845" lon="12.327325599866034"><ele>861.4999999999999</ele><time>2026-04-20T14:46:16Z</time></trkpt><trkpt lat="43.555897065098144" lon="12.327378362310657"><ele>862.0</ele><time>2026-04-20T14:46:17Z</time></trkpt><trkpt lat="43.555829218894615" lon="12.327451476318469"><ele>860.1666666666666</ele><time>2026-04-20T14:46:18Z</time></trkpt><trkpt lat="43.55575550189384" lon="12.327523042540978"><ele>858.3333333333333</ele><time>2026-04-20T14:46:19Z</time></trkpt><trkpt lat="43.55567902217561" lon="12.327588007805684"><ele>856.5</ele><time>2026-04-20T14:46:20Z</time></trkpt><trkpt lat="43.555613335895515" lon="12.32762466434266"><ele>854.6666666666667</ele><time>2026-04-20T14:46:21Z</time></trkpt><trkpt lat="43.555510377099615" lon="12.327562762366696"><ele>852.8333333333334</ele><time>2026-04-20T14:46:23Z</time></trkpt><trkpt lat="43.55549096600618" lon="12.327476523280245"><ele>851.0</ele><time>2026-04-20T14:46:24Z</time></trkpt><trkpt lat="43.55548858239201" lon="12.32738148279941"><ele>851.0000000000001</ele><time>2026-04-20T14:46:25Z</time></trkpt><trkpt lat="43.55551490763142" lon="12.327271504786268"><ele>851.0</ele><time>2026-04-20T14:46:26Z</time></trkpt><trkpt lat="43.55555950320703" lon="12.327154463893876"><ele>851.0</ele><time>2026-04-20T14:46:27Z</time></trkpt><trkpt lat="43.55559728674629" lon="12.32702890996372"><ele>851.0</ele><time>2026-04-20T14:46:28Z</time></trkpt><trkpt lat="43.555638566008106" lon="12.326912804557384"><ele>851.0000000000001</ele><time>2026-04-20T14:46:29Z</time></trkpt><trkpt lat="43.555682643263964" lon="12.326841663562975"><ele>851.0</ele><time>2026-04-20T14:46:30Z</time></trkpt><trkpt lat="43.55574863569267" lon="12.32681714749959"><ele>852.5714285714286</ele><time>2026-04-20T14:46:31Z</time></trkpt><trkpt lat="43.555821378956246" lon="12.326844753189965"><ele>854.1428571428571</ele><time>2026-04-20T14:46:32Z</time></trkpt><trkpt lat="43.555895606323325" lon="12.326873447846895"><ele>855.7142857142858</ele><time>2026-04-20T14:46:33Z</time></trkpt><trkpt lat="43.55595803807948" lon="12.326835635436003"><ele>857.2857142857142</ele><time>2026-04-20T14:46:34Z</time></trkpt><trkpt lat="43.55599823967426" lon="12.32675456345601"><ele>858.8571428571428</ele><time>2026-04-20T14:46:35Z</time></trkpt><trkpt lat="43.556017069666524" lon="12.326666489952231"><ele>860.4285714285714</ele><time>2026-04-20T14:46:36Z</time></trkpt><trkpt lat="43.55604540919635" lon="12.326547422459615"><ele>862.0</ele><time>2026-04-20T14:46:37Z</time></trkpt><trkpt lat="43.55608000368497" lon="12.326427199686405"><ele>863.8</ele><time>2026-04-20T14:46:38Z</time></trkpt><trkpt lat="43.55611325325478" lon="12.326300855304817"><ele>865.6</ele><time>2026-04-20T14:46:39Z</time></trkpt><trkpt lat="43.55614407040984" lon="12.326200204984731"><ele>867.3999999999999</ele><time>2026-04-20T14:46:40Z</time></trkpt><trkpt lat="43.5561656965443" lon="12.326112155662775"><ele>869.1999999999999</ele><time>2026-04-20T14:46:41Z</time></trkpt><trkpt lat="43.556123316856244" lon="12.325946096975212"><ele>871.0</ele><time>2026-04-20T14:46:43Z</time></trkpt><trkpt lat="43.55608257717556" lon="12.325841125907429"><ele>871.0</ele><time>2026-04-20T14:46:44Z</time></trkpt><trkpt lat="43.55602842724912" lon="12.325737009436828"><ele>870.9999999999999</ele><time>2026-04-20T14:46:45Z</time></trkpt><trkpt lat="43.5559733842707" lon="12.325642422391615"><ele>870.9999999999999</ele><time>2026-04-20T14:46:46Z</time></trkpt><trkpt lat="43.55590927484264" lon="12.325549356397728"><ele>871.0</ele><time>2026-04-20T14:46:47Z</time></trkpt><trkpt lat="43.55586259168504" lon="12.325453118697466"><ele>871.0</ele><time>2026-04-20T14:46:48Z</time></trkpt><trkpt lat="43.55582116562554" lon="12.325330085325067"><ele>872.5999999999999</ele><time>2026-04-20T14:46:49Z</time></trkpt><trkpt lat="43.55578512661623" lon="12.325186654079657"><ele>874.1999999999999</ele><time>2026-04-20T14:46:50Z</time></trkpt><trkpt lat="43.55574672149671" lon="12.3250822818029"><ele>875.8000000000001</ele><time>2026-04-20T14:46:51Z</time></trkpt><trkpt lat="43.555678111815716" lon="12.325022794847222"><ele>877.4000000000001</ele><time>2026-04-20T14:46:52Z</time></trkpt><trkpt lat="43.55558893467814" lon="12.324957351570776"><ele>879.0</ele><time>2026-04-20T14:46:53Z</time></trkpt><trkpt lat="43.555503756681816" lon="12.324912442272655"><ele>879.0</ele><time>2026-04-20T14:46:54Z</time></trkpt><trkpt lat="43.55542657360868" lon="12.32489496251873"><ele>879.0</ele><time>2026-04-20T14:46:55Z</time></trkpt><trkpt lat="43.555366039286746" lon="12.324867897265044"><ele>879.0</ele><time>2026-04-20T14:46:56Z</time></trkpt><trkpt lat="43.55530760836094" lon="12.324819360665114"><ele>879.0</ele><time>2026-04-20T14:46:57Z</time></trkpt><trkpt lat="43.555271733368414" lon="12.324739948335067"><ele>879.0</ele><time>2026-04-20T14:46:58Z</time></trkpt><trkpt lat="43.555248869316145" lon="12.324637694893143"><ele>879.0</ele><time>2026-04-20T14:46:59Z</time></trkpt><trkpt lat="43.55523238635037" lon="12.324511736629013"><ele>879.0</ele><time>2026-04-20T14:47:00Z</time></trkpt><trkpt lat="43.55524026463542" lon="12.324379068136224"><ele>877.0</ele><time>2026-04-20T14:47:01Z</time></trkpt><trkpt lat="43.55530872263067" lon="12.324241831243114"><ele>875.0000000000001</ele><time>2026-04-20T14:47:03Z</time></trkpt><trkpt lat="43.55538758049195" lon="12.324218429310099"><ele>873.0000000000001</ele><time>2026-04-20T14:47:04Z</time></trkpt><trkpt lat="43.55547609420227" lon="12.324212331640796"><ele>871.0</ele><time>2026-04-20T14:47:05Z</time></trkpt><trkpt lat="43.55559260129653" lon="12.324202431469793"><ele>869.0</ele><time>2026-04-20T14:47:06Z</time></trkpt><trkpt lat="43.55570503870314" lon="12.3241542597433"><ele>869.0000000000001</ele><time>2026-04-20T14:47:07Z</time></trkpt><trkpt lat="43.555796441557256" lon="12.324112792951786"><ele>869.0</ele><time>2026-04-20T14:47:08Z</time></trkpt><trkpt lat="43.5558853948802" lon="12.324070026396278"><ele>869.0</ele><time>2026-04-20T14:47:09Z</time></trkpt><trkpt lat="43.55597510448452" lon="12.324035230562618"><ele>869.0</ele><time>2026-04-20T14:47:10Z</time></trkpt><trkpt lat="43.556047649404576" lon="12.324015666443456"><ele>869.0000000000001</ele><time>2026-04-20T14:47:11Z</time></trkpt><trkpt lat="43.556123181446324" lon="12.32400432240005"><ele>869.0</ele><time>2026-04-20T14:47:12Z</time></trkpt><trkpt lat="43.55622625382492" lon="12.323914269923698"><ele>868.1666666666667</ele><time>2026-04-20T14:47:14Z</time></trkpt><trkpt lat="43.556254638777325" lon="12.323824204731922"><ele>867.3333333333334</ele><time>2026-04-20T14:47:15Z</time></trkpt><trkpt lat="43.55625002995252" lon="12.323712835133284"><ele>866.5</ele><time>2026-04-20T14:47:16Z</time></trkpt><trkpt lat="43.55621345497266" lon="12.323613371649493"><ele>865.6666666666667</ele><time>2026-04-20T14:47:17Z</time></trkpt><trkpt lat="43.55615302213091" lon="12.323530434748001"><ele>864.8333333333334</ele><time>2026-04-20T14:47:18Z</time></trkpt><trkpt lat="43.55607177921717" lon="12.323470672384927"><ele>864.0</ele><time>2026-04-20T14:47:19Z</time></trkpt><trkpt lat="43.556010179875564" lon="12.323387550250462"><ele>864.0</ele><time>2026-04-20T14:47:20Z</time></trkpt><trkpt lat="43.555970147088075" lon="12.323292684605525"><ele>864.0</ele><time>2026-04-20T14:47:21Z</time></trkpt><trkpt lat="43.555971663804186" lon="12.323183171360453"><ele>864.0</ele><time>2026-04-20T14:47:22Z</time></trkpt><trkpt lat="43.556015284623264" lon="12.32310891169658"><ele>864.0</ele><time>2026-04-20T14:47:23Z</time></trkpt><trkpt lat="43.55608614652154" lon="12.323053226872112"><ele>864.0</ele><time>2026-04-20T14:47:24Z</time></trkpt><trkpt lat="43.55617548498831" lon="12.322996478900585"><ele>864.0</ele><time>2026-04-20T14:47:25Z</time></trkpt><trkpt lat="43.55629072816039" lon="12.322944274860035"><ele>867.8000000000001</ele><time>2026-04-20T14:47:26Z</time></trkpt><trkpt lat="43.556413852913224" lon="12.322880794797854"><ele>871.6000000000001</ele><time>2026-04-20T14:47:27Z</time></trkpt><trkpt lat="43.556514803855144" lon="12.32282001977072"><ele>875.4</ele><time>2026-04-20T14:47:28Z</time></trkpt><trkpt lat="43.556585493879105" lon="12.322759582389699"><ele>879.2</ele><time>2026-04-20T14:47:29Z</time></trkpt><trkpt lat="43.556627130064" lon="12.32260953461469"><ele>883.0</ele><time>2026-04-20T14:47:31Z</time></trkpt><trkpt lat="43.55660224650779" lon="12.32250155227815"><ele>883.0</ele><time>2026-04-20T14:47:32Z</time></trkpt><trkpt lat="43.55656137697957" lon="12.32238358390753"><ele>883.0</ele><time>2026-04-20T14:47:33Z</time></trkpt><trkpt lat="43.55649554137949" lon="12.322251975144058"><ele>883.0</ele><time>2026-04-20T14:47:34Z</time></trkpt><trkpt lat="43.5564359383202" lon="12.322136169941237"><ele>883.0</ele><time>2026-04-20T14:47:35Z</time></trkpt><trkpt lat="43.5563591396365" lon="12.322060045182313"><ele>883.0</ele><time>2026-04-20T14:47:36Z</time></trkpt><trkpt lat="43.55627564879467" lon="12.32201033561612"><ele>881.5999999999999</ele><time>2026-04-20T14:47:37Z</time></trkpt><trkpt lat="43.556180938308096" lon="12.321964765052593"><ele>880.1999999999999</ele><time>2026-04-20T14:47:38Z</time></trkpt><trkpt lat="43.55608691993576" lon="12.3219464005545"><ele>878.8</ele><time>2026-04-20T14:47:39Z</time></trkpt><trkpt lat="43.556010871137275" lon="12.32191286011096"><ele>877.4</ele><time>2026-04-20T14:47:40Z</time></trkpt><trkpt lat="43.55594715223205" lon="12.321837968240645"><ele>876.0</ele><time>2026-04-20T14:47:41Z</time></trkpt><trkpt lat="43.55588645274733" lon="12.321713667902378"><ele>876.0</ele><time>2026-04-20T14:47:42Z</time></trkpt><trkpt lat="43.555820312568606" lon="12.321585395109866"><ele>875.9999999999999</ele><time>2026-04-20T14:47:43Z</time></trkpt><trkpt lat="43.5557738997858" lon="12.321493575789606"><ele>875.9999999999999</ele><time>2026-04-20T14:47:44Z</time></trkpt><trkpt lat="43.555754508743775" lon="12.321404970836879"><ele>876.0</ele><time>2026-04-20T14:47:45Z</time></trkpt><trkpt lat="43.55576182769541" lon="12.321277029902479"><ele>876.0</ele><time>2026-04-20T14:47:46Z</time></trkpt><trkpt lat="43.55579873339061" lon="12.321147696024276"><ele>876.25</ele><time>2026-04-20T14:47:47Z</time></trkpt><trkpt lat="43.55585042205821" lon="12.321016647734469"><ele>876.5</ele><time>2026-04-20T14:47:48Z</time></trkpt><trkpt lat="43.555916550738004" lon="12.320866620478379"><ele>876.75</ele><time>2026-04-20T14:47:49Z</time></trkpt><trkpt lat="43.55599381421468" lon="12.320735746955053"><ele>877.0</ele><time>2026-04-20T14:47:50Z</time></trkpt><trkpt lat="43.55607552930003" lon="12.32063690733798"><ele>879.0</ele><time>2026-04-20T14:47:51Z</time></trkpt><trkpt lat="43.55617569690807" lon="12.32054905280904"><ele>881.0</ele><time>2026-04-20T14:47:52Z</time></trkpt><trkpt lat="43.55628921595621" lon="12.320472071319479"><ele>883.0</ele><time>2026-04-20T14:47:53Z</time></trkpt><trkpt lat="43.55641049982377" lon="12.320371123791645"><ele>885.0</ele><time>2026-04-20T14:47:54Z</time></trkpt><trkpt lat="43.55651924666249" lon="12.320251497941667"><ele>885.0</ele><time>2026-04-20T14:47:55Z</time></trkpt><trkpt lat="43.5566309372995" lon="12.320106868154788"><ele>885.0</ele><time>2026-04-20T14:47:56Z</time></trkpt><trkpt lat="43.556734404947576" lon="12.319972118450805"><ele>885.0</ele><time>2026-04-20T14:47:57Z</time></trkpt><trkpt lat="43.556822918419684" lon="12.319860633202584"><ele>885.0</ele><time>2026-04-20T14:47:58Z</time></trkpt><trkpt lat="43.556905914793745" lon="12.319751410164363"><ele>885.25</ele><time>2026-04-20T14:47:59Z</time></trkpt><trkpt lat="43.557011251056494" lon="12.319650633965125"><ele>885.5</ele><time>2026-04-20T14:48:00Z</time></trkpt><trkpt lat="43.557117581607706" lon="12.319550504083207"><ele>885.75</ele><time>2026-04-20T14:48:01Z</time></trkpt><trkpt lat="43.557219212019426" lon="12.319448189833496"><ele>886.0</ele><time>2026-04-20T14:48:02Z</time></trkpt><trkpt lat="43.55730783837848" lon="12.319352119985451"><ele>886.0</ele><time>2026-04-20T14:48:03Z</time></trkpt><trkpt lat="43.55738818620429" lon="12.319253492603817"><ele>885.9999999999999</ele><time>2026-04-20T14:48:04Z</time></trkpt><trkpt lat="43.557467907862886" lon="12.319168170818497"><ele>885.9999999999999</ele><time>2026-04-20T14:48:05Z</time></trkpt><trkpt lat="43.55755189330292" lon="12.319096121001184"><ele>886.0</ele><time>2026-04-20T14:48:06Z</time></trkpt><trkpt lat="43.557660903635" lon="12.31902696718968"><ele>886.0</ele><time>2026-04-20T14:48:07Z</time></trkpt><trkpt lat="43.55776808739475" lon="12.318980390308612"><ele>886.8</ele><time>2026-04-20T14:48:08Z</time></trkpt><trkpt lat="43.55787786508061" lon="12.318957131137388"><ele>887.5999999999999</ele><time>2026-04-20T14:48:09Z</time></trkpt><trkpt lat="43.557999382404944" lon="12.318955331989283"><ele>888.4</ele><time>2026-04-20T14:48:10Z</time></trkpt><trkpt lat="43.55811316855006" lon="12.31896283869089"><ele>889.2</ele><time>2026-04-20T14:48:11Z</time></trkpt><trkpt lat="43.558197553743014" lon="12.318949986744789"><ele>890.0</ele><time>2026-04-20T14:48:12Z</time></trkpt><trkpt lat="43.55826986123195" lon="12.318804617998493"><ele>890.8333333333334</ele><time>2026-04-20T14:48:14Z</time></trkpt><trkpt lat="43.558263822600495" lon="12.318702763721964"><ele>891.6666666666667</ele><time>2026-04-20T14:48:15Z</time></trkpt><trkpt lat="43.55823360728609" lon="12.31860703792451"><ele>892.5</ele><time>2026-04-20T14:48:16Z</time></trkpt><trkpt lat="43.55817011659666" lon="12.318510808380983"><ele>893.3333333333333</ele><time>2026-04-20T14:48:17Z</time></trkpt><trkpt lat="43.558111114174594" lon="12.318420866446079"><ele>894.1666666666666</ele><time>2026-04-20T14:48:18Z</time></trkpt><trkpt lat="43.55805801536954" lon="12.318355692407481"><ele>895.0</ele><time>2026-04-20T14:48:19Z</time></trkpt><trkpt lat="43.55796778430397" lon="12.31823944324108"><ele>895.0</ele><time>2026-04-20T14:48:21Z</time></trkpt><trkpt lat="43.55790456464275" lon="12.318134027614178"><ele>895.0</ele><time>2026-04-20T14:48:22Z</time></trkpt><trkpt lat="43.55785368591036" lon="12.31804616862747"><ele>895.0</ele><time>2026-04-20T14:48:23Z</time></trkpt><trkpt lat="43.55776172709723" lon="12.317962555779507"><ele>895.0</ele><time>2026-04-20T14:48:24Z</time></trkpt><trkpt lat="43.55766128333263" lon="12.317926992601821"><ele>895.0</ele><time>2026-04-20T14:48:25Z</time></trkpt><trkpt lat="43.5575592828868" lon="12.31789623900177"><ele>895.3333333333333</ele><time>2026-04-20T14:48:26Z</time></trkpt><trkpt lat="43.55746333965547" lon="12.317840869055791"><ele>895.6666666666666</ele><time>2026-04-20T14:48:27Z</time></trkpt><trkpt lat="43.55739836113489" lon="12.317749650931855"><ele>896.0</ele><time>2026-04-20T14:48:28Z</time></trkpt><trkpt lat="43.55734512313733" lon="12.317658516909935"><ele>896.3333333333333</ele><time>2026-04-20T14:48:29Z</time></trkpt><trkpt lat="43.557321973190305" lon="12.31756668245231"><ele>896.6666666666666</ele><time>2026-04-20T14:48:30Z</time></trkpt><trkpt lat="43.557321055602365" lon="12.317466160981937"><ele>897.0</ele><time>2026-04-20T14:48:31Z</time></trkpt><trkpt lat="43.5573610631127" lon="12.317371430716202"><ele>897.0</ele><time>2026-04-20T14:48:32Z</time></trkpt><trkpt lat="43.55741428227538" lon="12.317281216500016"><ele>897.0</ele><time>2026-04-20T14:48:33Z</time></trkpt><trkpt lat="43.55749133378928" lon="12.317155332769"><ele>897.0</ele><time>2026-04-20T14:48:34Z</time></trkpt><trkpt lat="43.55756743308558" lon="12.31704032488077"><ele>897.0</ele><time>2026-04-20T14:48:35Z</time></trkpt><trkpt lat="43.5576425430733" lon="12.316936926166381"><ele>897.0</ele><time>2026-04-20T14:48:36Z</time></trkpt><trkpt lat="43.55774195221665" lon="12.316891860015842"><ele>898.6</ele><time>2026-04-20T14:48:37Z</time></trkpt><trkpt lat="43.557829781627355" lon="12.31681335578051"><ele>900.2</ele><time>2026-04-20T14:48:38Z</time></trkpt><trkpt lat="43.55791558141126" lon="12.31672861723933"><ele>901.8</ele><time>2026-04-20T14:48:39Z</time></trkpt><trkpt lat="43.558013864475726" lon="12.316656229079955"><ele>903.4</ele><time>2026-04-20T14:48:40Z</time></trkpt><trkpt lat="43.55811224628402" lon="12.316561711491909"><ele>905.0</ele><time>2026-04-20T14:48:41Z</time></trkpt><trkpt lat="43.558193310603706" lon="12.316438790311691"><ele>902.0</ele><time>2026-04-20T14:48:42Z</time></trkpt><trkpt lat="43.558262212813645" lon="12.316303294556894"><ele>899.0</ele><time>2026-04-20T14:48:43Z</time></trkpt><trkpt lat="43.55833961745621" lon="12.31618698356962"><ele>896.0</ele><time>2026-04-20T14:48:44Z</time></trkpt><trkpt lat="43.558403923981935" lon="12.316076990132661"><ele>893.0</ele><time>2026-04-20T14:48:45Z</time></trkpt><trkpt lat="43.558455314060325" lon="12.315988500255969"><ele>890.0</ele><time>2026-04-20T14:48:46Z</time></trkpt><trkpt lat="43.55850348950955" lon="12.315914177505762"><ele>890.0000000000001</ele><time>2026-04-20T14:48:47Z</time></trkpt><trkpt lat="43.55855442828318" lon="12.315856204142479"><ele>890.0</ele><time>2026-04-20T14:48:48Z</time></trkpt><trkpt lat="43.558623486420736" lon="12.315830557626544"><ele>890.0</ele><time>2026-04-20T14:48:49Z</time></trkpt><trkpt lat="43.55869864925208" lon="12.315858716635985"><ele>890.0</ele><time>2026-04-20T14:48:50Z</time></trkpt><trkpt lat="43.55876660738475" lon="12.315925091376972"><ele>890.0000000000001</ele><time>2026-04-20T14:48:51Z</time></trkpt><trkpt lat="43.55886914786291" lon="12.31597319443462"><ele>890.0</ele><time>2026-04-20T14:48:52Z</time></trkpt><trkpt lat="43.55894436664834" lon="12.316008724199614"><ele>890.0</ele><time>2026-04-20T14:48:53Z</time></trkpt><trkpt lat="43.55904182908506" lon="12.316054642799307"><ele>890.0</ele><time>2026-04-20T14:48:54Z</time></trkpt><trkpt lat="43.55914400763018" lon="12.316088933514733"><ele>890.0</ele><time>2026-04-20T14:48:55Z</time></trkpt><trkpt lat="43.55924033962384" lon="12.316110655661882"><ele>890.0</ele><time>2026-04-20T14:48:56Z</time></trkpt><trkpt lat="43.55933798513879" lon="12.316125065732525"><ele>890.0</ele><time>2026-04-20T14:48:57Z</time></trkpt><trkpt lat="43.55942907204091" lon="12.316119997354418"><ele>890.0000000000001</ele><time>2026-04-20T14:48:58Z</time></trkpt><trkpt lat="43.55950870959769" lon="12.316097860682142"><ele>890.0</ele><time>2026-04-20T14:48:59Z</time></trkpt><trkpt lat="43.55957072831466" lon="12.316024464388763"><ele>890.0</ele><time>2026-04-20T14:49:00Z</time></trkpt><trkpt lat="43.55962106150775" lon="12.315944305226271"><ele>890.0</ele><time>2026-04-20T14:49:01Z</time></trkpt><trkpt lat="43.559654404721414" lon="12.315828661388634"><ele>890.0000000000001</ele><time>2026-04-20T14:49:02Z</time></trkpt><trkpt lat="43.559685673155045" lon="12.315696063294112"><ele>890.0</ele><time>2026-04-20T14:49:03Z</time></trkpt><trkpt lat="43.55965642636256" lon="12.315534445237285"><ele>891.3333333333334</ele><time>2026-04-20T14:49:04Z</time></trkpt><trkpt lat="43.55964468970004" lon="12.315394128954729"><ele>892.6666666666667</ele><time>2026-04-20T14:49:05Z</time></trkpt><trkpt lat="43.55963934881894" lon="12.315248789135437"><ele>894.0</ele><time>2026-04-20T14:49:06Z</time></trkpt><trkpt lat="43.559656599479645" lon="12.315155360076842"><ele>895.3333333333333</ele><time>2026-04-20T14:49:07Z</time></trkpt><trkpt lat="43.55969677332724" lon="12.315087723954107"><ele>896.6666666666666</ele><time>2026-04-20T14:49:08Z</time></trkpt><trkpt lat="43.5597504051653" lon="12.315001551349926"><ele>898.0</ele><time>2026-04-20T14:49:09Z</time></trkpt><trkpt lat="43.559811737761855" lon="12.314882060481942"><ele>898.0</ele><time>2026-04-20T14:49:10Z</time></trkpt><trkpt lat="43.55989335483717" lon="12.314771471447976"><ele>898.0</ele><time>2026-04-20T14:49:11Z</time></trkpt><trkpt lat="43.5599669765419" lon="12.3146344155001"><ele>898.0</ele><time>2026-04-20T14:49:12Z</time></trkpt><trkpt lat="43.56003349509539" lon="12.314453809430004"><ele>898.0</ele><time>2026-04-20T14:49:13Z</time></trkpt><trkpt lat="43.5600858592355" lon="12.31426201249712"><ele>898.0</ele><time>2026-04-20T14:49:14Z</time></trkpt><trkpt lat="43.560163787064646" lon="12.314128292286236"><ele>898.0</ele><time>2026-04-20T14:49:15Z</time></trkpt><trkpt lat="43.56022696420329" lon="12.314019299688162"><ele>898.0</ele><time>2026-04-20T14:49:16Z</time></trkpt><trkpt lat="43.56028626602897" lon="12.313927519270662"><ele>898.0</ele><time>2026-04-20T14:49:17Z</time></trkpt><trkpt lat="43.5603320530693" lon="12.313848623478822"><ele>898.0</ele><time>2026-04-20T14:49:18Z</time></trkpt><trkpt lat="43.56039186996201" lon="12.31378426837005"><ele>897.9999999999999</ele><time>2026-04-20T14:54:02.999Z</time></trkpt><trkpt lat="43.56045268094114" lon="12.313720106648868"><ele>898.0</ele><time>2026-04-20T14:57:07Z</time></trkpt><trkpt lat="43.56054487253289" lon="12.313631617120697"><ele>898.0</ele><time>2026-04-20T14:57:09Z</time></trkpt><trkpt lat="43.560599003908656" lon="12.313579995957555"><ele>898.0</ele><time>2026-04-20T14:57:10Z</time></trkpt><trkpt lat="43.560657991750176" lon="12.313519137632301"><ele>897.9999999999999</ele><time>2026-04-20T14:57:11Z</time></trkpt><trkpt lat="43.56072413990853" lon="12.313446187664281"><ele>898.0</ele><time>2026-04-20T14:57:12Z</time></trkpt><trkpt lat="43.56078326952121" lon="12.313375042079473"><ele>897.9999999999999</ele><time>2026-04-20T14:57:13Z</time></trkpt><trkpt lat="43.5608516920764" lon="12.313292635053124"><ele>898.0</ele><time>2026-04-20T14:57:14Z</time></trkpt><trkpt lat="43.56091317727499" lon="12.313215596865426"><ele>898.0</ele><time>2026-04-20T14:57:15Z</time></trkpt><trkpt lat="43.56096508166517" lon="12.313131228858126"><ele>898.0</ele><time>2026-04-20T14:57:16Z</time></trkpt><trkpt lat="43.56103739394522" lon="12.313047406048643"><ele>897.9999999999999</ele><time>2026-04-20T14:57:17Z</time></trkpt><trkpt lat="43.56108349905457" lon="12.312953957451924"><ele>898.0</ele><time>2026-04-20T14:57:18Z</time></trkpt><trkpt lat="43.56112913205498" lon="12.31286167776793"><ele>897.1666666666666</ele><time>2026-04-20T14:57:19Z</time></trkpt><trkpt lat="43.561160407562475" lon="12.312753938245566"><ele>896.3333333333333</ele><time>2026-04-20T14:57:20Z</time></trkpt><trkpt lat="43.56117024732116" lon="12.31262724012241"><ele>895.5</ele><time>2026-04-20T14:57:21Z</time></trkpt><trkpt lat="43.56117707742847" lon="12.312537476782865"><ele>894.6666666666667</ele><time>2026-04-20T14:57:22Z</time></trkpt><trkpt lat="43.56120079632885" lon="12.312429928652898"><ele>893.8333333333334</ele><time>2026-04-20T14:57:23Z</time></trkpt><trkpt lat="43.5612281548432" lon="12.312307620071596"><ele>893.0</ele><time>2026-04-20T14:57:24Z</time></trkpt><trkpt lat="43.56128071228559" lon="12.312184110019759"><ele>896.8</ele><time>2026-04-20T14:57:25Z</time></trkpt><trkpt lat="43.56134741873761" lon="12.312074373720245"><ele>900.5999999999999</ele><time>2026-04-20T14:57:26Z</time></trkpt><trkpt lat="43.56139929030207" lon="12.31195556322831"><ele>904.4000000000001</ele><time>2026-04-20T14:57:27Z</time></trkpt><trkpt lat="43.561451571526625" lon="12.311823000000057"><ele>908.2</ele><time>2026-04-20T14:57:28Z</time></trkpt><trkpt lat="43.56149776242391" lon="12.311701598932467"><ele>912.0</ele><time>2026-04-20T14:57:29Z</time></trkpt><trkpt lat="43.561545443924565" lon="12.31157633473482"><ele>912.0</ele><time>2026-04-20T14:57:30Z</time></trkpt><trkpt lat="43.56159289042162" lon="12.311450364740827"><ele>912.0</ele><time>2026-04-20T14:57:31Z</time></trkpt><trkpt lat="43.561645885512995" lon="12.311309485846925"><ele>912.0</ele><time>2026-04-20T14:57:32Z</time></trkpt><trkpt lat="43.561697367773256" lon="12.311167365133564"><ele>912.0</ele><time>2026-04-20T14:57:33Z</time></trkpt><trkpt lat="43.561732589272495" lon="12.311025601694515"><ele>912.0</ele><time>2026-04-20T14:57:34Z</time></trkpt><trkpt lat="43.56178426720816" lon="12.310906238991256"><ele>912.2</ele><time>2026-04-20T14:57:35Z</time></trkpt><trkpt lat="43.561831769701065" lon="12.310791185363193"><ele>912.4000000000001</ele><time>2026-04-20T14:57:36Z</time></trkpt><trkpt lat="43.56188498545044" lon="12.310700332245963"><ele>912.5999999999999</ele><time>2026-04-20T14:57:37Z</time></trkpt><trkpt lat="43.56195211306221" lon="12.310610926375913"><ele>912.8</ele><time>2026-04-20T14:57:38Z</time></trkpt><trkpt lat="43.56203597245653" lon="12.310546008200703"><ele>913.0</ele><time>2026-04-20T14:57:39Z</time></trkpt><trkpt lat="43.5621348693858" lon="12.31049509983992"><ele>912.4</ele><time>2026-04-20T14:57:40Z</time></trkpt><trkpt lat="43.562244408158826" lon="12.310454031392823"><ele>911.8</ele><time>2026-04-20T14:57:41Z</time></trkpt><trkpt lat="43.56234856855972" lon="12.310396900977258"><ele>911.2</ele><time>2026-04-20T14:57:42Z</time></trkpt><trkpt lat="43.562441412155614" lon="12.310330310298493"><ele>910.6</ele><time>2026-04-20T14:57:43Z</time></trkpt><trkpt lat="43.562532824325565" lon="12.310286023799412"><ele>910.0</ele><time>2026-04-20T14:57:44Z</time></trkpt><trkpt lat="43.562606407039695" lon="12.310179875458111"><ele>910.0</ele><time>2026-04-20T14:57:45Z</time></trkpt><trkpt lat="43.56268152422477" lon="12.310094106871274"><ele>910.0</ele><time>2026-04-20T14:57:46Z</time></trkpt><trkpt lat="43.56272766031194" lon="12.309995098686942"><ele>910.0</ele><time>2026-04-20T14:57:47Z</time></trkpt><trkpt lat="43.56275252164231" lon="12.309876429177779"><ele>910.0</ele><time>2026-04-20T14:57:48Z</time></trkpt><trkpt lat="43.56273009082695" lon="12.309738947784627"><ele>910.0</ele><time>2026-04-20T14:57:49Z</time></trkpt><trkpt lat="43.56271041661476" lon="12.309613649381644"><ele>908.1666666666666</ele><time>2026-04-20T14:57:50Z</time></trkpt><trkpt lat="43.562672562517875" lon="12.30951514856015"><ele>906.3333333333333</ele><time>2026-04-20T14:57:51Z</time></trkpt><trkpt lat="43.56266250030008" lon="12.309424209640229"><ele>904.5</ele><time>2026-04-20T14:57:52Z</time></trkpt><trkpt lat="43.562655070576334" lon="12.30932418684019"><ele>902.6666666666667</ele><time>2026-04-20T14:57:53Z</time></trkpt><trkpt lat="43.56272905615776" lon="12.309253368355472"><ele>900.8333333333334</ele><time>2026-04-20T14:57:54Z</time></trkpt><trkpt lat="43.5627828541304" lon="12.309148522235134"><ele>899.0</ele><time>2026-04-20T14:57:55Z</time></trkpt><trkpt lat="43.562851126652454" lon="12.30901080107409"><ele>906.4000000000001</ele><time>2026-04-20T14:57:56Z</time></trkpt><trkpt lat="43.56291633065194" lon="12.30887416273292"><ele>913.8000000000001</ele><time>2026-04-20T14:57:57Z</time></trkpt><trkpt lat="43.56297507124139" lon="12.308747234626887"><ele>921.1999999999999</ele><time>2026-04-20T14:57:58Z</time></trkpt><trkpt lat="43.563018134529734" lon="12.308627470708899"><ele>928.5999999999999</ele><time>2026-04-20T14:57:59Z</time></trkpt><trkpt lat="43.56304594448135" lon="12.308492479155426"><ele>936.0</ele><time>2026-04-20T14:58:00Z</time></trkpt><trkpt lat="43.56306181433793" lon="12.30837616810923"><ele>936.0</ele><time>2026-04-20T14:58:01Z</time></trkpt><trkpt lat="43.56306875424071" lon="12.308271829092607"><ele>935.9999999999999</ele><time>2026-04-20T14:58:02Z</time></trkpt><trkpt lat="43.56305897807125" lon="12.308116381593308"><ele>935.9999999999999</ele><time>2026-04-20T14:58:03Z</time></trkpt><trkpt lat="43.563041971233496" lon="12.30795332984777"><ele>936.0</ele><time>2026-04-20T14:58:04Z</time></trkpt><trkpt lat="43.56302529692907" lon="12.30782714583247"><ele>936.0</ele><time>2026-04-20T14:58:05Z</time></trkpt><trkpt lat="43.56301124324174" lon="12.307722268522806"><ele>936.0</ele><time>2026-04-20T14:58:06Z</time></trkpt><trkpt lat="43.56298526220447" lon="12.30762342615774"><ele>936.0</ele><time>2026-04-20T14:58:07Z</time></trkpt><trkpt lat="43.56292691771615" lon="12.307519548442517"><ele>936.0</ele><time>2026-04-20T14:58:08Z</time></trkpt><trkpt lat="43.56285848586929" lon="12.30742363704421"><ele>936.0</ele><time>2026-04-20T14:58:09Z</time></trkpt><trkpt lat="43.56280640056168" lon="12.307362992459227"><ele>936.0</ele><time>2026-04-20T14:58:10Z</time></trkpt><trkpt lat="43.562779788034554" lon="12.307242875900398"><ele>936.0</ele><time>2026-04-20T14:58:12Z</time></trkpt><trkpt lat="43.562829123050754" lon="12.307038193941677"><ele>935.8333333333334</ele><time>2026-04-20T14:58:14Z</time></trkpt><trkpt lat="43.562849613995844" lon="12.306903915636953"><ele>935.6666666666667</ele><time>2026-04-20T14:58:15Z</time></trkpt><trkpt lat="43.56286558704042" lon="12.306779379948438"><ele>935.5</ele><time>2026-04-20T14:58:16Z</time></trkpt><trkpt lat="43.562869902377685" lon="12.306681398509616"><ele>935.3333333333334</ele><time>2026-04-20T14:58:17Z</time></trkpt><trkpt lat="43.56286213749235" lon="12.3065910920364"><ele>935.1666666666667</ele><time>2026-04-20T14:58:18Z</time></trkpt><trkpt lat="43.56278389486341" lon="12.306503164524576"><ele>935.0</ele><time>2026-04-20T14:58:19Z</time></trkpt><trkpt lat="43.562751995226" lon="12.30638655707506"><ele>930.1666666666667</ele><time>2026-04-20T14:58:20Z</time></trkpt><trkpt lat="43.56270870997116" lon="12.306261549639533"><ele>925.3333333333334</ele><time>2026-04-20T14:58:21Z</time></trkpt><trkpt lat="43.562689053376026" lon="12.306149855013336"><ele>920.5</ele><time>2026-04-20T14:58:22Z</time></trkpt><trkpt lat="43.562680895876696" lon="12.306041116223058"><ele>915.6666666666667</ele><time>2026-04-20T14:58:23Z</time></trkpt><trkpt lat="43.56268054873417" lon="12.305935776726827"><ele>910.8333333333334</ele><time>2026-04-20T14:58:24Z</time></trkpt><trkpt lat="43.56268851207002" lon="12.305809032431917"><ele>906.0</ele><time>2026-04-20T14:58:25Z</time></trkpt><trkpt lat="43.562705125921966" lon="12.305680290870308"><ele>906.4</ele><time>2026-04-20T14:58:26Z</time></trkpt><trkpt lat="43.56270579124162" lon="12.305557768858078"><ele>906.8</ele><time>2026-04-20T14:58:27Z</time></trkpt><trkpt lat="43.56270485642318" lon="12.305459365435391"><ele>907.1999999999999</ele><time>2026-04-20T14:58:28Z</time></trkpt><trkpt lat="43.562686449404694" lon="12.305352075715168"><ele>907.5999999999999</ele><time>2026-04-20T14:58:29Z</time></trkpt><trkpt lat="43.56263164095967" lon="12.305227803258497"><ele>908.0</ele><time>2026-04-20T14:58:30Z</time></trkpt><trkpt lat="43.562538447422945" lon="12.30511463216088"><ele>908.0</ele><time>2026-04-20T14:58:31Z</time></trkpt><trkpt lat="43.56243561793844" lon="12.305022128716685"><ele>908.0</ele><time>2026-04-20T14:58:32Z</time></trkpt><trkpt lat="43.562327100521436" lon="12.304932336089808"><ele>908.0</ele><time>2026-04-20T14:58:33Z</time></trkpt><trkpt lat="43.562210219864184" lon="12.304870590173255"><ele>908.0</ele><time>2026-04-20T14:58:34Z</time></trkpt><trkpt lat="43.56211248756239" lon="12.30481638280521"><ele>908.0</ele><time>2026-04-20T14:58:35Z</time></trkpt><trkpt lat="43.562033382961324" lon="12.304759299343278"><ele>908.0</ele><time>2026-04-20T14:58:36Z</time></trkpt><trkpt lat="43.56197100524888" lon="12.30470939724607"><ele>908.0</ele><time>2026-04-20T14:58:37Z</time></trkpt><trkpt lat="43.56189576479728" lon="12.304611743630423"><ele>908.0</ele><time>2026-04-20T14:58:39Z</time></trkpt><trkpt lat="43.56184976094659" lon="12.304497593243427"><ele>908.0</ele><time>2026-04-20T14:58:40Z</time></trkpt><trkpt lat="43.561804018568665" lon="12.30436446681491"><ele>906.8</ele><time>2026-04-20T14:58:41Z</time></trkpt><trkpt lat="43.56178234986637" lon="12.304236936345047"><ele>905.5999999999999</ele><time>2026-04-20T14:58:42Z</time></trkpt><trkpt lat="43.56174744437698" lon="12.304146255779006"><ele>904.4000000000001</ele><time>2026-04-20T14:58:43Z</time></trkpt><trkpt lat="43.56169412992836" lon="12.30403887288433"><ele>903.2</ele><time>2026-04-20T14:58:44Z</time></trkpt><trkpt lat="43.56163941084841" lon="12.303927956058901"><ele>902.0</ele><time>2026-04-20T14:58:45Z</time></trkpt><trkpt lat="43.56155512752822" lon="12.303819635797364"><ele>901.2</ele><time>2026-04-20T14:58:46Z</time></trkpt><trkpt lat="43.56147026472853" lon="12.303714225088976"><ele>900.4000000000001</ele><time>2026-04-20T14:58:47Z</time></trkpt><trkpt lat="43.56138814814166" lon="12.303609474819904"><ele>899.5999999999999</ele><time>2026-04-20T14:58:48Z</time></trkpt><trkpt lat="43.56131318111903" lon="12.303504009816953"><ele>898.8</ele><time>2026-04-20T14:58:49Z</time></trkpt><trkpt lat="43.56124803542251" lon="12.303390681219083"><ele>898.0</ele><time>2026-04-20T14:58:50Z</time></trkpt><trkpt lat="43.561181336492744" lon="12.303266182038163"><ele>898.0</ele><time>2026-04-20T14:58:51Z</time></trkpt><trkpt lat="43.56112288546227" lon="12.303154119387079"><ele>898.0</ele><time>2026-04-20T14:58:52Z</time></trkpt><trkpt lat="43.56106806308871" lon="12.30304901361624"><ele>898.0</ele><time>2026-04-20T14:58:53Z</time></trkpt><trkpt lat="43.561008888457515" lon="12.302938978767033"><ele>898.0</ele><time>2026-04-20T14:58:54Z</time></trkpt><trkpt lat="43.56094964565867" lon="12.302832449860547"><ele>898.0</ele><time>2026-04-20T14:58:55Z</time></trkpt><trkpt lat="43.56085986639916" lon="12.302722135615687"><ele>898.0</ele><time>2026-04-20T14:58:56Z</time></trkpt><trkpt lat="43.560764165372625" lon="12.302624033688344"><ele>898.0</ele><time>2026-04-20T14:58:57Z</time></trkpt><trkpt lat="43.56066159402273" lon="12.302518863709826"><ele>898.0</ele><time>2026-04-20T14:58:58Z</time></trkpt><trkpt lat="43.56055781344654" lon="12.302409370455493"><ele>898.0</ele><time>2026-04-20T14:58:59Z</time></trkpt><trkpt lat="43.56046603187499" lon="12.30230827117854"><ele>898.2</ele><time>2026-04-20T14:59:00Z</time></trkpt><trkpt lat="43.56038751134812" lon="12.302204264106432"><ele>898.4</ele><time>2026-04-20T14:59:01Z</time></trkpt><trkpt lat="43.56031538781213" lon="12.302090595572263"><ele>898.6000000000001</ele><time>2026-04-20T14:59:02Z</time></trkpt><trkpt lat="43.56025176550894" lon="12.301977164942478"><ele>898.8000000000001</ele><time>2026-04-20T14:59:03Z</time></trkpt><trkpt lat="43.56019617191706" lon="12.30187936950058"><ele>899.0</ele><time>2026-04-20T14:59:04Z</time></trkpt><trkpt lat="43.56014517306468" lon="12.301791185191062"><ele>899.0</ele><time>2026-04-20T14:59:05Z</time></trkpt><trkpt lat="43.56009492787491" lon="12.301702436644328"><ele>899.0000000000001</ele><time>2026-04-20T14:59:06Z</time></trkpt><trkpt lat="43.56003633868254" lon="12.301597060726264"><ele>899.0000000000001</ele><time>2026-04-20T14:59:07Z</time></trkpt><trkpt lat="43.55997976093643" lon="12.30149530235818"><ele>899.0</ele><time>2026-04-20T14:59:08Z</time></trkpt><trkpt lat="43.55992474328677" lon="12.30139503203155"><ele>899.0</ele><time>2026-04-20T14:59:09Z</time></trkpt><trkpt lat="43.559862870078106" lon="12.301278171994966"><ele>898.1666666666667</ele><time>2026-04-20T14:59:10Z</time></trkpt><trkpt lat="43.55980446046051" lon="12.301166056984602"><ele>897.3333333333334</ele><time>2026-04-20T14:59:11Z</time></trkpt><trkpt lat="43.55975155805199" lon="12.301076212097431"><ele>896.5</ele><time>2026-04-20T14:59:12Z</time></trkpt><trkpt lat="43.55968663529296" lon="12.300991859590097"><ele>895.6666666666667</ele><time>2026-04-20T14:59:13Z</time></trkpt><trkpt lat="43.559609446850665" lon="12.300943056730405"><ele>894.8333333333334</ele><time>2026-04-20T14:59:14Z</time></trkpt><trkpt lat="43.55955960634008" lon="12.300841844556114"><ele>894.0</ele><time>2026-04-20T14:59:15Z</time></trkpt><trkpt lat="43.55950598418035" lon="12.300748571218165"><ele>894.0</ele><time>2026-04-20T14:59:16Z</time></trkpt><trkpt lat="43.55945655679427" lon="12.300652818873496"><ele>894.0</ele><time>2026-04-20T14:59:17Z</time></trkpt><trkpt lat="43.55941348841941" lon="12.300548106127897"><ele>894.0</ele><time>2026-04-20T14:59:18.001Z</time></trkpt><trkpt lat="43.5593802695757" lon="12.300439579729609"><ele>894.0</ele><time>2026-04-20T14:59:19.001Z</time></trkpt><trkpt lat="43.55935213126374" lon="12.3003205563837"><ele>894.0</ele><time>2026-04-20T14:59:20.001Z</time></trkpt><trkpt lat="43.559325041391624" lon="12.300204498270684"><ele>894.0</ele><time>2026-04-20T14:59:21.001Z</time></trkpt><trkpt lat="43.559296278884084" lon="12.300090115367057"><ele>894.5</ele><time>2026-04-20T14:59:22.001Z</time></trkpt><trkpt lat="43.55926604601436" lon="12.299984698413434"><ele>895.0</ele><time>2026-04-20T14:59:23.001Z</time></trkpt><trkpt lat="43.559204055025724" lon="12.299886708427119"><ele>895.5</ele><time>2026-04-20T14:59:25.001Z</time></trkpt><trkpt lat="43.55908970727807" lon="12.299944929600999"><ele>896.0</ele><time>2026-04-20T14:59:27.001Z</time></trkpt><trkpt lat="43.55907893656624" lon="12.300040993691448"><ele>896.5</ele><time>2026-04-20T14:59:28.001Z</time></trkpt><trkpt lat="43.559081885077724" lon="12.300130915355439"><ele>897.0</ele><time>2026-04-20T14:59:29.001Z</time></trkpt><trkpt lat="43.55908003252933" lon="12.300295240368927"><ele>897.0</ele><time>2026-04-20T14:59:31.001Z</time></trkpt><trkpt lat="43.55904977655979" lon="12.300387178321799"><ele>897.0</ele><time>2026-04-20T14:59:32.001Z</time></trkpt><trkpt lat="43.559020338428596" lon="12.300553006914367"><ele>897.0</ele><time>2026-04-20T14:59:34Z</time></trkpt><trkpt lat="43.558994059428294" lon="12.300653508614557"><ele>897.0</ele><time>2026-04-20T14:59:35Z</time></trkpt><trkpt lat="43.5589638763125" lon="12.300745020919422"><ele>897.0</ele><time>2026-04-20T14:59:36Z</time></trkpt><trkpt lat="43.55892536922102" lon="12.300815800462654"><ele>897.0</ele><time>2026-04-20T14:59:37Z</time></trkpt><trkpt lat="43.558876868816384" lon="12.300887015566365"><ele>896.5</ele><time>2026-04-20T14:59:38Z</time></trkpt><trkpt lat="43.55879934896955" lon="12.300916938867951"><ele>896.0</ele><time>2026-04-20T14:59:39Z</time></trkpt><trkpt lat="43.558716099856504" lon="12.30092522889781"><ele>895.5</ele><time>2026-04-20T14:59:40Z</time></trkpt><trkpt lat="43.558635991668815" lon="12.300925252558665"><ele>895.0</ele><time>2026-04-20T14:59:41Z</time></trkpt><trkpt lat="43.55854739930112" lon="12.300895200998369"><ele>894.5</ele><time>2026-04-20T14:59:42Z</time></trkpt><trkpt lat="43.55847640436648" lon="12.300886197368483"><ele>894.0</ele><time>2026-04-20T14:59:43Z</time></trkpt><trkpt lat="43.558379867864346" lon="12.300870677021766"><ele>890.0</ele><time>2026-04-20T14:59:44Z</time></trkpt><trkpt lat="43.558284442072335" lon="12.300854689491219"><ele>886.0</ele><time>2026-04-20T14:59:45Z</time></trkpt><trkpt lat="43.558161606407225" lon="12.300833755641195"><ele>882.0</ele><time>2026-04-20T14:59:46Z</time></trkpt><trkpt lat="43.55803048180569" lon="12.300813482286356"><ele>878.0</ele><time>2026-04-20T14:59:47Z</time></trkpt><trkpt lat="43.557903428189164" lon="12.30079373859201"><ele>875.8</ele><time>2026-04-20T14:59:48Z</time></trkpt><trkpt lat="43.55778561475655" lon="12.300792709554937"><ele>873.5999999999999</ele><time>2026-04-20T14:59:49Z</time></trkpt><trkpt lat="43.55768001413689" lon="12.30074193293135"><ele>871.4000000000001</ele><time>2026-04-20T14:59:50Z</time></trkpt><trkpt lat="43.55758656871487" lon="12.30070527606837"><ele>869.2</ele><time>2026-04-20T14:59:51Z</time></trkpt><trkpt lat="43.557485135463736" lon="12.300657138983764"><ele>867.0</ele><time>2026-04-20T14:59:52Z</time></trkpt><trkpt lat="43.55737765598628" lon="12.300593697008514"><ele>865.75</ele><time>2026-04-20T14:59:53Z</time></trkpt><trkpt lat="43.557265813767025" lon="12.300523348480967"><ele>864.5</ele><time>2026-04-20T14:59:54Z</time></trkpt><trkpt lat="43.55714339011243" lon="12.300444988482827"><ele>863.25</ele><time>2026-04-20T14:59:55Z</time></trkpt><trkpt lat="43.557041435392975" lon="12.300379035982152"><ele>862.0</ele><time>2026-04-20T14:59:56Z</time></trkpt><trkpt lat="43.55694009224135" lon="12.300313479090423"><ele>862.0</ele><time>2026-04-20T14:59:57Z</time></trkpt><trkpt lat="43.55683441172261" lon="12.300247582487248"><ele>862.0</ele><time>2026-04-20T14:59:58Z</time></trkpt><trkpt lat="43.55672372612555" lon="12.30017919070913"><ele>862.0</ele><time>2026-04-20T14:59:59Z</time></trkpt><trkpt lat="43.556616312078496" lon="12.30011315652578"><ele>862.0</ele><time>2026-04-20T15:00:00Z</time></trkpt><trkpt lat="43.55651333570956" lon="12.300054643469474"><ele>862.0</ele><time>2026-04-20T15:00:01Z</time></trkpt><trkpt lat="43.5564228619146" lon="12.300014873617004"><ele>862.0</ele><time>2026-04-20T15:00:02Z</time></trkpt><trkpt lat="43.55631270890796" lon="12.299997804639407"><ele>862.0</ele><time>2026-04-20T15:00:03Z</time></trkpt><trkpt lat="43.55620396017921" lon="12.300003012371812"><ele>862.0</ele><time>2026-04-20T15:00:04Z</time></trkpt><trkpt lat="43.55609874390963" lon="12.30000273346075"><ele>862.0</ele><time>2026-04-20T15:00:05Z</time></trkpt><trkpt lat="43.555975992729444" lon="12.299993063610398"><ele>861.0</ele><time>2026-04-20T15:00:06Z</time></trkpt><trkpt lat="43.55585979589815" lon="12.299969028845476"><ele>860.0</ele><time>2026-04-20T15:00:07Z</time></trkpt><trkpt lat="43.55573848624607" lon="12.299928857276937"><ele>859.0</ele><time>2026-04-20T15:00:08Z</time></trkpt><trkpt lat="43.55561813110975" lon="12.299872408666914"><ele>858.0</ele><time>2026-04-20T15:00:09Z</time></trkpt><trkpt lat="43.55550410522274" lon="12.299800880789137"><ele>855.75</ele><time>2026-04-20T15:00:10Z</time></trkpt><trkpt lat="43.555385763435915" lon="12.29971792785076"><ele>853.5</ele><time>2026-04-20T15:00:11Z</time></trkpt><trkpt lat="43.55525860047385" lon="12.299656501744007"><ele>851.25</ele><time>2026-04-20T15:00:12Z</time></trkpt><trkpt lat="43.555131711245295" lon="12.29960802648218"><ele>849.0</ele><time>2026-04-20T15:00:13Z</time></trkpt><trkpt lat="43.555011591231796" lon="12.299559758541745"><ele>849.0</ele><time>2026-04-20T15:00:14Z</time></trkpt><trkpt lat="43.5548926092753" lon="12.29950822069684"><ele>849.0</ele><time>2026-04-20T15:00:15Z</time></trkpt><trkpt lat="43.554802198359496" lon="12.299459720150704"><ele>849.0</ele><time>2026-04-20T15:00:16Z</time></trkpt><trkpt lat="43.55471651680682" lon="12.299406045317202"><ele>849.0</ele><time>2026-04-20T15:00:17Z</time></trkpt><trkpt lat="43.554627537544505" lon="12.299354468148472"><ele>849.0</ele><time>2026-04-20T15:00:18Z</time></trkpt><trkpt lat="43.5545532800948" lon="12.299325369160165"><ele>849.1666666666666</ele><time>2026-04-20T15:00:19Z</time></trkpt><trkpt lat="43.55446687252887" lon="12.299304020351816"><ele>849.3333333333333</ele><time>2026-04-20T15:00:20Z</time></trkpt><trkpt lat="43.55439857656947" lon="12.299286360577648"><ele>849.5</ele><time>2026-04-20T15:00:21Z</time></trkpt><trkpt lat="43.554324625445254" lon="12.299265039677612"><ele>849.6666666666666</ele><time>2026-04-20T15:00:22Z</time></trkpt><trkpt lat="43.55425438119586" lon="12.29924478750837"><ele>849.8333333333333</ele><time>2026-04-20T15:00:23Z</time></trkpt><trkpt lat="43.55417793036616" lon="12.299222671814782"><ele>850.0</ele><time>2026-04-20T15:00:24Z</time></trkpt><trkpt lat="43.55403632773525" lon="12.29920603047955"><ele>850.0</ele><time>2026-04-20T15:00:26Z</time></trkpt><trkpt lat="43.55395308358847" lon="12.299187388620831"><ele>850.0</ele><time>2026-04-20T15:00:27Z</time></trkpt><trkpt lat="43.55387670955273" lon="12.299176301948187"><ele>850.0</ele><time>2026-04-20T15:00:28Z</time></trkpt><trkpt lat="43.55381196574859" lon="12.299162724262882"><ele>850.0</ele><time>2026-04-20T15:00:29Z</time></trkpt><trkpt lat="43.55374947221852" lon="12.299142106173628"><ele>850.0</ele><time>2026-04-20T15:00:30Z</time></trkpt><trkpt lat="43.553683288333815" lon="12.299124297378398"><ele>850.0</ele><time>2026-04-20T15:00:31Z</time></trkpt><trkpt lat="43.5536049028661" lon="12.299110647508046"><ele>850.0</ele><time>2026-04-20T15:00:32Z</time></trkpt><trkpt lat="43.553526511507684" lon="12.299109318611725"><ele>848.2</ele><time>2026-04-20T15:00:33Z</time></trkpt><trkpt lat="43.55345964762859" lon="12.299077493744388"><ele>846.4</ele><time>2026-04-20T15:00:34Z</time></trkpt><trkpt lat="43.5533912553588" lon="12.299062959242608"><ele>844.5999999999999</ele><time>2026-04-20T15:00:35Z</time></trkpt><trkpt lat="43.55326954957839" lon="12.299032496358375"><ele>842.8</ele><time>2026-04-20T15:00:37Z</time></trkpt><trkpt lat="43.553144936215205" lon="12.298999601403846"><ele>841.0</ele><time>2026-04-20T15:00:39Z</time></trkpt><trkpt lat="43.5530673541725" lon="12.29897818957342"><ele>841.0</ele><time>2026-04-20T15:00:40Z</time></trkpt><trkpt lat="43.55299758540193" lon="12.298958934124173"><ele>841.0</ele><time>2026-04-20T15:00:41Z</time></trkpt><trkpt lat="43.55293223686944" lon="12.298942330399276"><ele>841.0</ele><time>2026-04-20T15:00:42Z</time></trkpt><trkpt lat="43.552855966520426" lon="12.298929048549144"><ele>841.0</ele><time>2026-04-20T15:00:43Z</time></trkpt><trkpt lat="43.55277660794627" lon="12.298919917012023"><ele>841.0</ele><time>2026-04-20T15:00:44Z</time></trkpt><trkpt lat="43.552701474092494" lon="12.298911944661565"><ele>841.0</ele><time>2026-04-20T15:00:45Z</time></trkpt><trkpt lat="43.5526235689887" lon="12.298904346925585"><ele>841.0</ele><time>2026-04-20T15:00:46Z</time></trkpt><trkpt lat="43.55254931270039" lon="12.298897105042712"><ele>838.4999999999999</ele><time>2026-04-20T15:00:47Z</time></trkpt><trkpt lat="43.552480266510166" lon="12.298894508620482"><ele>836.0</ele><time>2026-04-20T15:00:48Z</time></trkpt><trkpt lat="43.552365231304584" lon="12.298901778971016"><ele>833.5</ele><time>2026-04-20T15:00:50Z</time></trkpt><trkpt lat="43.55230646767028" lon="12.298935547027956"><ele>831.0</ele><time>2026-04-20T15:00:51Z</time></trkpt><trkpt lat="43.55225672939291" lon="12.298994204785084"><ele>828.4999999999999</ele><time>2026-04-20T15:00:52Z</time></trkpt><trkpt lat="43.552146610378635" lon="12.299026065734127"><ele>826.0</ele><time>2026-04-20T15:00:54Z</time></trkpt><trkpt lat="43.552040218023194" lon="12.299071674327582"><ele>821.8</ele><time>2026-04-20T15:00:56Z</time></trkpt><trkpt lat="43.5519414881336" lon="12.29906835845315"><ele>817.5999999999999</ele><time>2026-04-20T15:00:58Z</time></trkpt><trkpt lat="43.55184823024138" lon="12.299008228291482"><ele>813.4</ele><time>2026-04-20T15:01:00Z</time></trkpt><trkpt lat="43.55175663807585" lon="12.298907569423683"><ele>809.2</ele><time>2026-04-20T15:01:02Z</time></trkpt><trkpt lat="43.55166632109372" lon="12.298779164740326"><ele>805.0</ele><time>2026-04-20T15:01:04Z</time></trkpt><trkpt lat="43.55161240372075" lon="12.2987003537747"><ele>804.9999999999999</ele><time>2026-04-20T15:01:05Z</time></trkpt><trkpt lat="43.55155687596876" lon="12.298620395462937"><ele>805.0</ele><time>2026-04-20T15:01:06Z</time></trkpt><trkpt lat="43.551504277842625" lon="12.298544655720216"><ele>805.0</ele><time>2026-04-20T15:01:07Z</time></trkpt><trkpt lat="43.55144719103341" lon="12.298458572898326"><ele>805.0</ele><time>2026-04-20T15:01:08Z</time></trkpt><trkpt lat="43.551388976043775" lon="12.298367309801732"><ele>804.9999999999999</ele><time>2026-04-20T15:01:09Z</time></trkpt><trkpt lat="43.55133345799894" lon="12.298275359276099"><ele>805.0</ele><time>2026-04-20T15:01:10Z</time></trkpt><trkpt lat="43.551280989551145" lon="12.298188459561237"><ele>805.0</ele><time>2026-04-20T15:01:11Z</time></trkpt><trkpt lat="43.55123267149667" lon="12.298108433865687"><ele>805.0</ele><time>2026-04-20T15:01:12Z</time></trkpt><trkpt lat="43.55118683464838" lon="12.298032517591697"><ele>805.0</ele><time>2026-04-20T15:01:13Z</time></trkpt><trkpt lat="43.551141594512714" lon="12.297957589601298"><ele>805.0</ele><time>2026-04-20T15:01:14Z</time></trkpt><trkpt lat="43.55109487158273" lon="12.297881427795144"><ele>805.0</ele><time>2026-04-20T15:01:15Z</time></trkpt><trkpt lat="43.55105079990108" lon="12.297810006033329"><ele>805.0</ele><time>2026-04-20T15:01:16Z</time></trkpt><trkpt lat="43.55100759450143" lon="12.297739988151985"><ele>805.0</ele><time>2026-04-20T15:01:17Z</time></trkpt><trkpt lat="43.550964598177366" lon="12.297670309085971"><ele>802.7142857142857</ele><time>2026-04-20T15:01:18Z</time></trkpt><trkpt lat="43.55091486933428" lon="12.29758971943174"><ele>800.4285714285714</ele><time>2026-04-20T15:01:19Z</time></trkpt><trkpt lat="43.55086862525388" lon="12.297513951413244"><ele>798.1428571428571</ele><time>2026-04-20T15:01:20Z</time></trkpt><trkpt lat="43.55082365861751" lon="12.297440075985367"><ele>795.8571428571429</ele><time>2026-04-20T15:01:21Z</time></trkpt><trkpt lat="43.5507786313303" lon="12.297366100919223"><ele>793.5714285714286</ele><time>2026-04-20T15:01:22Z</time></trkpt><trkpt lat="43.550731640328245" lon="12.297288899668265"><ele>791.2857142857142</ele><time>2026-04-20T15:01:23Z</time></trkpt><trkpt lat="43.55069040856044" lon="12.297222402045472"><ele>789.0</ele><time>2026-04-20T15:01:24.001Z</time></trkpt><trkpt lat="43.55064527384996" lon="12.297150837472481"><ele>786.6666666666666</ele><time>2026-04-20T15:01:25.001Z</time></trkpt><trkpt lat="43.55059977427926" lon="12.297079032294155"><ele>784.3333333333333</ele><time>2026-04-20T15:01:26.001Z</time></trkpt><trkpt lat="43.55055581179527" lon="12.297011152994944"><ele>782.0</ele><time>2026-04-20T15:01:27.001Z</time></trkpt><trkpt lat="43.55047609791666" lon="12.296888949136186"><ele>779.6666666666666</ele><time>2026-04-20T15:01:29.001Z</time></trkpt><trkpt lat="43.550397242154965" lon="12.296771273761232"><ele>777.3333333333333</ele><time>2026-04-20T15:01:31.001Z</time></trkpt><trkpt lat="43.55035221028194" lon="12.296704073318375"><ele>775.0</ele><time>2026-04-20T15:01:32.001Z</time></trkpt><trkpt lat="43.55030895953704" lon="12.296639530826358"><ele>773.4</ele><time>2026-04-20T15:01:33.001Z</time></trkpt><trkpt lat="43.550266018054856" lon="12.296575995912528"><ele>771.8</ele><time>2026-04-20T15:01:34.001Z</time></trkpt><trkpt lat="43.550188962456566" lon="12.296464257273676"><ele>770.2</ele><time>2026-04-20T15:01:36.001Z</time></trkpt><trkpt lat="43.550102226379686" lon="12.29635180272675"><ele>768.6</ele><time>2026-04-20T15:01:38Z</time></trkpt><trkpt lat="43.55004808853999" lon="12.296298407613595"><ele>767.0</ele><time>2026-04-20T15:01:39Z</time></trkpt><trkpt lat="43.5499297655732" lon="12.296242039150485"><ele>767.0</ele><time>2026-04-20T15:01:41Z</time></trkpt><trkpt lat="43.54981087777643" lon="12.296285244597057"><ele>767.0</ele><time>2026-04-20T15:01:43Z</time></trkpt><trkpt lat="43.54977061710521" lon="12.296426660707239"><ele>767.0</ele><time>2026-04-20T15:01:45Z</time></trkpt><trkpt lat="43.54981217363061" lon="12.296534391401705"><ele>767.0</ele><time>2026-04-20T15:01:47Z</time></trkpt><trkpt lat="43.54985020280132" lon="12.29660683357947"><ele>767.0</ele><time>2026-04-20T15:01:48Z</time></trkpt><trkpt lat="43.549912626968" lon="12.296715183595653"><ele>767.0</ele><time>2026-04-20T15:01:50Z</time></trkpt><trkpt lat="43.549930423906005" lon="12.296833979000072"><ele>767.0</ele><time>2026-04-20T15:01:52Z</time></trkpt><trkpt lat="43.54992941130173" lon="12.296945481343997"><ele>767.0</ele><time>2026-04-20T15:01:54Z</time></trkpt><trkpt lat="43.549915765197056" lon="12.297049597657413"><ele>767.0</ele><time>2026-04-20T15:01:56Z</time></trkpt><trkpt lat="43.549900564214575" lon="12.297174164019989"><ele>767.0</ele><time>2026-04-20T15:01:58Z</time></trkpt><trkpt lat="43.549883033192266" lon="12.297322026804936"><ele>767.0</ele><time>2026-04-20T15:02:00Z</time></trkpt><trkpt lat="43.549874933080574" lon="12.297436303849105"><ele>765.4000000000001</ele><time>2026-04-20T15:02:02Z</time></trkpt><trkpt lat="43.549867150189684" lon="12.297583659272208"><ele>763.8000000000001</ele><time>2026-04-20T15:02:04Z</time></trkpt><trkpt lat="43.54986879216377" lon="12.297724379334737"><ele>762.2</ele><time>2026-04-20T15:02:06Z</time></trkpt><trkpt lat="43.549891965461384" lon="12.297871857583328"><ele>760.6</ele><time>2026-04-20T15:02:08Z</time></trkpt><trkpt lat="43.54992843339984" lon="12.297956123119237"><ele>759.0</ele><time>2026-04-20T15:02:09Z</time></trkpt><trkpt lat="43.54997101957254" lon="12.298089087549446"><ele>757.0</ele><time>2026-04-20T15:02:11Z</time></trkpt><trkpt lat="43.54996230999779" lon="12.298212770461012"><ele>755.0</ele><time>2026-04-20T15:02:13Z</time></trkpt><trkpt lat="43.54994985429098" lon="12.298301080308526"><ele>753.0</ele><time>2026-04-20T15:02:14Z</time></trkpt><trkpt lat="43.54994043516246" lon="12.298396305924374"><ele>751.0</ele><time>2026-04-20T15:02:15Z</time></trkpt><trkpt lat="43.54994511870432" lon="12.298567783092793"><ele>749.0</ele><time>2026-04-20T15:02:17Z</time></trkpt><trkpt lat="43.549991891339175" lon="12.298737660037895"><ele>749.0</ele><time>2026-04-20T15:02:19Z</time></trkpt><trkpt lat="43.55001604828003" lon="12.298822885454937"><ele>749.0</ele><time>2026-04-20T15:02:20Z</time></trkpt><trkpt lat="43.55008224733978" lon="12.298956336706333"><ele>749.0</ele><time>2026-04-20T15:02:22Z</time></trkpt><trkpt lat="43.55012218398631" lon="12.299089584124687"><ele>749.0</ele><time>2026-04-20T15:02:24Z</time></trkpt><trkpt lat="43.5501163886543" lon="12.299268197633632"><ele>749.0</ele><time>2026-04-20T15:02:26Z</time></trkpt><trkpt lat="43.55009667956636" lon="12.299354530440908"><ele>746.75</ele><time>2026-04-20T15:02:27Z</time></trkpt><trkpt lat="43.55005725003008" lon="12.29952312400354"><ele>744.5</ele><time>2026-04-20T15:02:29Z</time></trkpt><trkpt lat="43.55002110000451" lon="12.299611732591146"><ele>742.25</ele><time>2026-04-20T15:02:31Z</time></trkpt><trkpt lat="43.54989478645784" lon="12.299666850741412"><ele>740.0</ele><time>2026-04-20T15:02:34Z</time></trkpt><trkpt lat="43.54978074508687" lon="12.299713775247247"><ele>738.5</ele><time>2026-04-20T15:02:36Z</time></trkpt><trkpt lat="43.54970882857604" lon="12.29985497504501"><ele>737.0</ele><time>2026-04-20T15:02:38Z</time></trkpt><trkpt lat="43.54970875074283" lon="12.29995101787795"><ele>735.5</ele><time>2026-04-20T15:02:39Z</time></trkpt><trkpt lat="43.54973722255722" lon="12.300050127687005"><ele>734.0</ele><time>2026-04-20T15:02:40Z</time></trkpt><trkpt lat="43.54978574494617" lon="12.300132038490071"><ele>732.5</ele><time>2026-04-20T15:02:41Z</time></trkpt><trkpt lat="43.5498410923127" lon="12.300203661179628"><ele>731.0</ele><time>2026-04-20T15:02:42Z</time></trkpt><trkpt lat="43.54989892639261" lon="12.300273955909956"><ele>731.0</ele><time>2026-04-20T15:02:43Z</time></trkpt><trkpt lat="43.54997420572258" lon="12.300362859381304"><ele>731.0</ele><time>2026-04-20T15:02:44Z</time></trkpt><trkpt lat="43.55003699152757" lon="12.30043218219594"><ele>731.0</ele><time>2026-04-20T15:02:45Z</time></trkpt><trkpt lat="43.550121109061244" lon="12.300498015782662"><ele>731.0</ele><time>2026-04-20T15:02:46Z</time></trkpt><trkpt lat="43.550183026961776" lon="12.300572315350934"><ele>731.0</ele><time>2026-04-20T15:02:47Z</time></trkpt><trkpt lat="43.55024811854013" lon="12.300629116977873"><ele>731.0</ele><time>2026-04-20T15:02:48Z</time></trkpt><trkpt lat="43.5503092389715" lon="12.30068121544872"><ele>729.5</ele><time>2026-04-20T15:02:49Z</time></trkpt><trkpt lat="43.55038302705005" lon="12.300716767734775"><ele>728.0</ele><time>2026-04-20T15:02:50Z</time></trkpt><trkpt lat="43.550455448102824" lon="12.300744699886826"><ele>726.5</ele><time>2026-04-20T15:02:51Z</time></trkpt><trkpt lat="43.55053294354487" lon="12.30074813529814"><ele>725.0</ele><time>2026-04-20T15:02:52Z</time></trkpt><trkpt lat="43.55060046053246" lon="12.300765691785909"><ele>723.5</ele><time>2026-04-20T15:02:53Z</time></trkpt><trkpt lat="43.55070993048058" lon="12.300743614510324"><ele>722.0</ele><time>2026-04-20T15:02:55Z</time></trkpt><trkpt lat="43.55080089229282" lon="12.300805854446407"><ele>722.0</ele><time>2026-04-20T15:02:57Z</time></trkpt><trkpt lat="43.55090015428021" lon="12.300884208648743"><ele>722.0</ele><time>2026-04-20T15:02:59Z</time></trkpt><trkpt lat="43.55100305140525" lon="12.300955845688211"><ele>722.0</ele><time>2026-04-20T15:03:01Z</time></trkpt><trkpt lat="43.551075294231694" lon="12.301082773286344"><ele>722.0</ele><time>2026-04-20T15:03:03Z</time></trkpt><trkpt lat="43.55113243908705" lon="12.301222921065003"><ele>722.0</ele><time>2026-04-20T15:03:05Z</time></trkpt><trkpt lat="43.551163042328746" lon="12.301309172703885"><ele>722.0</ele><time>2026-04-20T15:03:06Z</time></trkpt><trkpt lat="43.551189226715636" lon="12.301453596669596"><ele>722.0</ele><time>2026-04-20T15:03:08Z</time></trkpt><trkpt lat="43.551099637915975" lon="12.301551739637041"><ele>722.0</ele><time>2026-04-20T15:03:10Z</time></trkpt><trkpt lat="43.551012372523246" lon="12.301649171296013"><ele>722.0</ele><time>2026-04-20T15:03:12Z</time></trkpt><trkpt lat="43.550911322686005" lon="12.301784199791536"><ele>718.2857142857143</ele><time>2026-04-20T15:03:14Z</time></trkpt><trkpt lat="43.55086713958214" lon="12.301859080888757"><ele>714.5714285714286</ele><time>2026-04-20T15:03:15Z</time></trkpt><trkpt lat="43.55082075761486" lon="12.301923931452144"><ele>710.8571428571429</ele><time>2026-04-20T15:03:16Z</time></trkpt><trkpt lat="43.55076968386123" lon="12.301988597556106"><ele>707.1428571428571</ele><time>2026-04-20T15:03:17Z</time></trkpt><trkpt lat="43.550724855774334" lon="12.302064382101113"><ele>703.4285714285714</ele><time>2026-04-20T15:03:18Z</time></trkpt><trkpt lat="43.55067242378603" lon="12.302130748860097"><ele>699.7142857142857</ele><time>2026-04-20T15:03:19Z</time></trkpt><trkpt lat="43.55061937615792" lon="12.302198539321559"><ele>696.0</ele><time>2026-04-20T15:03:20Z</time></trkpt><trkpt lat="43.55052152452534" lon="12.302302162929294"><ele>694.5</ele><time>2026-04-20T15:03:22Z</time></trkpt><trkpt lat="43.55041680589473" lon="12.302396986865135"><ele>693.0</ele><time>2026-04-20T15:03:24Z</time></trkpt><trkpt lat="43.55032500203552" lon="12.30250842700948"><ele>691.5</ele><time>2026-04-20T15:03:26Z</time></trkpt><trkpt lat="43.5502446059172" lon="12.302616096185789"><ele>690.0</ele><time>2026-04-20T15:03:28Z</time></trkpt><trkpt lat="43.550166549509576" lon="12.302681636465817"><ele>685.6</ele><time>2026-04-20T15:03:30.001Z</time></trkpt><trkpt lat="43.55007782999807" lon="12.30271662407186"><ele>681.2</ele><time>2026-04-20T15:03:32.001Z</time></trkpt><trkpt lat="43.549980157422304" lon="12.30276785474327"><ele>676.8</ele><time>2026-04-20T15:03:34.001Z</time></trkpt><trkpt lat="43.54987034506205" lon="12.30279029944514"><ele>672.4</ele><time>2026-04-20T15:03:36.001Z</time></trkpt><trkpt lat="43.54977203412779" lon="12.302858399771859"><ele>668.0</ele><time>2026-04-20T15:03:38.001Z</time></trkpt><trkpt lat="43.54967469082698" lon="12.302971696495202"><ele>668.0</ele><time>2026-04-20T15:03:40.001Z</time></trkpt><trkpt lat="43.54962985054218" lon="12.303042636102782"><ele>668.0</ele><time>2026-04-20T15:03:41.001Z</time></trkpt><trkpt lat="43.54958417666531" lon="12.303107290507697"><ele>668.0</ele><time>2026-04-20T15:03:42.001Z</time></trkpt><trkpt lat="43.549488977805076" lon="12.303205387234396"><ele>668.0</ele><time>2026-04-20T15:03:44.001Z</time></trkpt><trkpt lat="43.54944592634055" lon="12.303271106229035"><ele>668.0</ele><time>2026-04-20T15:03:45Z</time></trkpt><trkpt lat="43.54938688147444" lon="12.303419393309483"><ele>668.0</ele><time>2026-04-20T15:03:47Z</time></trkpt><trkpt lat="43.54931674598891" lon="12.303529725367822"><ele>663.2</ele><time>2026-04-20T15:03:49Z</time></trkpt><trkpt lat="43.549248249978774" lon="12.303650320225529"><ele>658.4</ele><time>2026-04-20T15:03:51Z</time></trkpt><trkpt lat="43.549149250792404" lon="12.303651224196173"><ele>653.6</ele><time>2026-04-20T15:03:53Z</time></trkpt><trkpt lat="43.549097184778546" lon="12.303572674492266"><ele>648.8000000000001</ele><time>2026-04-20T15:03:55Z</time></trkpt><trkpt lat="43.54910140239656" lon="12.303460428004744"><ele>644.0</ele><time>2026-04-20T15:03:57Z</time></trkpt><trkpt lat="43.54908917369049" lon="12.303314664844427"><ele>644.0</ele><time>2026-04-20T15:03:59Z</time></trkpt><trkpt lat="43.54910139365403" lon="12.303216324010334"><ele>644.0</ele><time>2026-04-20T15:04:00Z</time></trkpt><trkpt lat="43.549136472026866" lon="12.303093106693579"><ele>644.0</ele><time>2026-04-20T15:04:01Z</time></trkpt><trkpt lat="43.54915795077629" lon="12.302991655562625"><ele>644.0</ele><time>2026-04-20T15:04:02Z</time></trkpt><trkpt lat="43.54918341200941" lon="12.30290241829919"><ele>644.0</ele><time>2026-04-20T15:04:03Z</time></trkpt><trkpt lat="43.549229589098005" lon="12.302801510253824"><ele>644.0</ele><time>2026-04-20T15:04:04Z</time></trkpt><trkpt lat="43.54927532093176" lon="12.302694883709156"><ele>643.6</ele><time>2026-04-20T15:04:05Z</time></trkpt><trkpt lat="43.54933054656276" lon="12.302576958678095"><ele>643.2</ele><time>2026-04-20T15:04:06Z</time></trkpt><trkpt lat="43.5493820593591" lon="12.30243686127394"><ele>642.8000000000001</ele><time>2026-04-20T15:04:07Z</time></trkpt><trkpt lat="43.54940562201353" lon="12.302335375104288"><ele>642.4000000000001</ele><time>2026-04-20T15:04:08Z</time></trkpt><trkpt lat="43.54942291890641" lon="12.30221378499738"><ele>642.0</ele><time>2026-04-20T15:04:09Z</time></trkpt><trkpt lat="43.54942075738643" lon="12.302110997544098"><ele>644.0</ele><time>2026-04-20T15:04:10Z</time></trkpt><trkpt lat="43.54935047374138" lon="12.301957833873923"><ele>646.0</ele><time>2026-04-20T15:04:12Z</time></trkpt><trkpt lat="43.54924354863211" lon="12.301883588679123"><ele>648.0</ele><time>2026-04-20T15:04:14Z</time></trkpt><trkpt lat="43.54914297604067" lon="12.301878958340788"><ele>650.0</ele><time>2026-04-20T15:04:15Z</time></trkpt><trkpt lat="43.549039566511965" lon="12.30187289533651"><ele>650.0</ele><time>2026-04-20T15:04:16Z</time></trkpt><trkpt lat="43.5489513004245" lon="12.301853748364932"><ele>650.0</ele><time>2026-04-20T15:04:17Z</time></trkpt><trkpt lat="43.5488628043022" lon="12.301850753443397"><ele>650.0</ele><time>2026-04-20T15:04:18Z</time></trkpt><trkpt lat="43.54876449707204" lon="12.301840471431516"><ele>650.0</ele><time>2026-04-20T15:04:19Z</time></trkpt><trkpt lat="43.548659784996104" lon="12.30183077339185"><ele>650.0</ele><time>2026-04-20T15:04:20Z</time></trkpt><trkpt lat="43.548559176326975" lon="12.301819311929505"><ele>647.0</ele><time>2026-04-20T15:04:21Z</time></trkpt><trkpt lat="43.54846131643517" lon="12.301805560430044"><ele>644.0</ele><time>2026-04-20T15:04:22Z</time></trkpt><trkpt lat="43.54837598393581" lon="12.30178498806151"><ele>641.0</ele><time>2026-04-20T15:04:23Z</time></trkpt><trkpt lat="43.54829894873321" lon="12.30177536879357"><ele>638.0</ele><time>2026-04-20T15:04:24Z</time></trkpt><trkpt lat="43.548215021813554" lon="12.301755692915858"><ele>635.0</ele><time>2026-04-20T15:04:25Z</time></trkpt><trkpt lat="43.548108016991556" lon="12.301715427468345"><ele>635.0</ele><time>2026-04-20T15:04:27Z</time></trkpt><trkpt lat="43.54799496296572" lon="12.301693230657206"><ele>635.0</ele><time>2026-04-20T15:04:29Z</time></trkpt><trkpt lat="43.547897017055334" lon="12.301667026943937"><ele>635.0</ele><time>2026-04-20T15:04:30Z</time></trkpt><trkpt lat="43.54783455916872" lon="12.301593613635292"><ele>635.0</ele><time>2026-04-20T15:04:32Z</time></trkpt><trkpt lat="43.547766064206755" lon="12.301471399002487"><ele>635.0</ele><time>2026-04-20T15:04:34Z</time></trkpt><trkpt lat="43.54772200589856" lon="12.301327259613123"><ele>631.5</ele><time>2026-04-20T15:04:36Z</time></trkpt><trkpt lat="43.54770513531769" lon="12.301167125869247"><ele>628.0</ele><time>2026-04-20T15:04:38Z</time></trkpt><trkpt lat="43.54768509968534" lon="12.301078306707627"><ele>624.5</ele><time>2026-04-20T15:04:39Z</time></trkpt><trkpt lat="43.54763855651881" lon="12.301009387327737"><ele>621.0</ele><time>2026-04-20T15:04:40Z</time></trkpt><trkpt lat="43.54756224436413" lon="12.300863307113266"><ele>617.5</ele><time>2026-04-20T15:04:42Z</time></trkpt><trkpt lat="43.547515967238766" lon="12.300802882218429"><ele>614.0</ele><time>2026-04-20T15:04:43Z</time></trkpt><trkpt lat="43.54743574777375" lon="12.300681673337584"><ele>615.0</ele><time>2026-04-20T15:04:45Z</time></trkpt><trkpt lat="43.54736293769261" lon="12.300554736540697"><ele>616.0</ele><time>2026-04-20T15:04:47Z</time></trkpt><trkpt lat="43.54733912259126" lon="12.30046635246644"><ele>617.0</ele><time>2026-04-20T15:04:48Z</time></trkpt><trkpt lat="43.547315623161644" lon="12.30038015054567"><ele>618.0</ele><time>2026-04-20T15:04:49Z</time></trkpt><trkpt lat="43.54729719337009" lon="12.300291444893233"><ele>619.0</ele><time>2026-04-20T15:04:50Z</time></trkpt><trkpt lat="43.54728196514382" lon="12.30018903488551"><ele>620.0</ele><time>2026-04-20T15:04:51Z</time></trkpt><trkpt lat="43.54725480000819" lon="12.300056810932151"><ele>620.0</ele><time>2026-04-20T15:04:52Z</time></trkpt><trkpt lat="43.54723212366091" lon="12.299957511285113"><ele>620.0</ele><time>2026-04-20T15:04:53Z</time></trkpt><trkpt lat="43.54719355814022" lon="12.29986943648833"><ele>620.0</ele><time>2026-04-20T15:04:54Z</time></trkpt><trkpt lat="43.547125215791056" lon="12.299703681526644"><ele>620.0</ele><time>2026-04-20T15:04:56Z</time></trkpt><trkpt lat="43.54707777280937" lon="12.299645300524075"><ele>620.0</ele><time>2026-04-20T15:04:57Z</time></trkpt><trkpt lat="43.547018165022976" lon="12.299595188736106"><ele>620.0</ele><time>2026-04-20T15:04:58Z</time></trkpt><trkpt lat="43.546944419489456" lon="12.299547127790767"><ele>616.2</ele><time>2026-04-20T15:04:59Z</time></trkpt><trkpt lat="43.54687946940291" lon="12.299498090062153"><ele>612.4</ele><time>2026-04-20T15:05:00Z</time></trkpt><trkpt lat="43.54680228038253" lon="12.29944729612397"><ele>608.6</ele><time>2026-04-20T15:05:01Z</time></trkpt><trkpt lat="43.54666403692228" lon="12.299341248622019"><ele>604.8</ele><time>2026-04-20T15:05:03Z</time></trkpt><trkpt lat="43.54658998009609" lon="12.299261353372064"><ele>601.0</ele><time>2026-04-20T15:05:04Z</time></trkpt><trkpt lat="43.54652041104164" lon="12.299188614118817"><ele>601.0</ele><time>2026-04-20T15:05:07Z</time></trkpt><trkpt lat="43.546431221248014" lon="12.29907812555577"><ele>601.0</ele><time>2026-04-20T15:05:09Z</time></trkpt><trkpt lat="43.54638127775253" lon="12.298990921409258"><ele>601.0</ele><time>2026-04-20T15:05:10Z</time></trkpt><trkpt lat="43.54632039261731" lon="12.298911392512192"><ele>601.0</ele><time>2026-04-20T15:05:11Z</time></trkpt><trkpt lat="43.54626399218947" lon="12.298824617607147"><ele>601.0</ele><time>2026-04-20T15:05:12Z</time></trkpt><trkpt lat="43.546225931149756" lon="12.298746538284714"><ele>601.0</ele><time>2026-04-20T15:05:13Z</time></trkpt><trkpt lat="43.54618130563141" lon="12.298652831345596"><ele>600.1666666666667</ele><time>2026-04-20T15:05:14Z</time></trkpt><trkpt lat="43.54612744678364" lon="12.298562786205478"><ele>599.3333333333334</ele><time>2026-04-20T15:05:15Z</time></trkpt><trkpt lat="43.54607612410812" lon="12.298450816403603"><ele>598.5</ele><time>2026-04-20T15:05:16Z</time></trkpt><trkpt lat="43.54601190230047" lon="12.298348674282268"><ele>597.6666666666666</ele><time>2026-04-20T15:05:17Z</time></trkpt><trkpt lat="43.54595327197762" lon="12.298256716535334"><ele>596.8333333333333</ele><time>2026-04-20T15:05:18Z</time></trkpt><trkpt lat="43.54589667021267" lon="12.298180520164072"><ele>596.0</ele><time>2026-04-20T15:05:19Z</time></trkpt><trkpt lat="43.545823485268514" lon="12.29811272038049"><ele>599.3333333333333</ele><time>2026-04-20T15:05:20Z</time></trkpt><trkpt lat="43.545752874571974" lon="12.298040209134685"><ele>602.6666666666666</ele><time>2026-04-20T15:05:21Z</time></trkpt><trkpt lat="43.545687106272126" lon="12.297980024761634"><ele>606.0</ele><time>2026-04-20T15:05:22Z</time></trkpt><trkpt lat="43.54561947380447" lon="12.297938355228565"><ele>609.3333333333334</ele><time>2026-04-20T15:05:23Z</time></trkpt><trkpt lat="43.54554443192188" lon="12.297909165082409"><ele>612.6666666666667</ele><time>2026-04-20T15:05:24Z</time></trkpt><trkpt lat="43.54546868814326" lon="12.297880561270716"><ele>616.0</ele><time>2026-04-20T15:05:25Z</time></trkpt><trkpt lat="43.54539912101873" lon="12.297879399071745"><ele>611.6666666666667</ele><time>2026-04-20T15:05:26Z</time></trkpt><trkpt lat="43.54533281907493" lon="12.297902208438304"><ele>607.3333333333334</ele><time>2026-04-20T15:05:27Z</time></trkpt><trkpt lat="43.545250400135885" lon="12.297936723816001"><ele>603.0</ele><time>2026-04-20T15:05:28Z</time></trkpt><trkpt lat="43.54517767217029" lon="12.297994569329834"><ele>598.6666666666666</ele><time>2026-04-20T15:05:29Z</time></trkpt><trkpt lat="43.54510219508623" lon="12.297985122720839"><ele>594.3333333333333</ele><time>2026-04-20T15:05:30Z</time></trkpt><trkpt lat="43.54500149562697" lon="12.297990286864149"><ele>590.0</ele><time>2026-04-20T15:05:31Z</time></trkpt><trkpt lat="43.54494678654474" lon="12.297935210436123"><ele>590.0</ele><time>2026-04-20T15:05:32Z</time></trkpt><trkpt lat="43.54489179318586" lon="12.297859687859399"><ele>590.0</ele><time>2026-04-20T15:05:33Z</time></trkpt><trkpt lat="43.54484329726888" lon="12.297777466441353"><ele>590.0</ele><time>2026-04-20T15:05:34Z</time></trkpt><trkpt lat="43.54479169091363" lon="12.29766974556106"><ele>590.0</ele><time>2026-04-20T15:05:35Z</time></trkpt><trkpt lat="43.5447628826775" lon="12.297545552646609"><ele>590.0</ele><time>2026-04-20T15:05:36.001Z</time></trkpt><trkpt lat="43.54473020596459" lon="12.297395730622322"><ele>590.0</ele><time>2026-04-20T15:05:37.001Z</time></trkpt><trkpt lat="43.54468754448616" lon="12.29727110053177"><ele>590.0</ele><time>2026-04-20T15:05:38.001Z</time></trkpt><trkpt lat="43.54463112780711" lon="12.297177716742642"><ele>590.0</ele><time>2026-04-20T15:05:39.001Z</time></trkpt><trkpt lat="43.54460097612699" lon="12.297077578163098"><ele>590.0</ele><time>2026-04-20T15:05:40.001Z</time></trkpt><trkpt lat="43.54454435500611" lon="12.29699614747582"><ele>590.0</ele><time>2026-04-20T15:05:41.001Z</time></trkpt><trkpt lat="43.544465140466215" lon="12.296924831147976"><ele>590.0</ele><time>2026-04-20T15:05:42.001Z</time></trkpt><trkpt lat="43.54436871284829" lon="12.29684898065377"><ele>589.3333333333333</ele><time>2026-04-20T15:05:43.001Z</time></trkpt><trkpt lat="43.5442936938841" lon="12.296741805669194"><ele>588.6666666666666</ele><time>2026-04-20T15:05:44.001Z</time></trkpt><trkpt lat="43.54423275725741" lon="12.296643807807861"><ele>588.0</ele><time>2026-04-20T15:05:45.001Z</time></trkpt><trkpt lat="43.54419809060637" lon="12.296559245404392"><ele>587.3333333333334</ele><time>2026-04-20T15:05:46.001Z</time></trkpt><trkpt lat="43.544172455559284" lon="12.296479502474263"><ele>586.6666666666667</ele><time>2026-04-20T15:05:47.001Z</time></trkpt><trkpt lat="43.544152467287525" lon="12.296380973128356"><ele>586.0</ele><time>2026-04-20T15:05:48.001Z</time></trkpt><trkpt lat="43.54412644990074" lon="12.296258064227823"><ele>586.0</ele><time>2026-04-20T15:05:49.001Z</time></trkpt><trkpt lat="43.54410374510172" lon="12.296115021113966"><ele>586.0</ele><time>2026-04-20T15:05:50.001Z</time></trkpt><trkpt lat="43.544079766521534" lon="12.295975142582622"><ele>586.0</ele><time>2026-04-20T15:05:51Z</time></trkpt><trkpt lat="43.54404963664717" lon="12.295831790945785"><ele>586.0</ele><time>2026-04-20T15:05:52Z</time></trkpt><trkpt lat="43.54399793513336" lon="12.29571668535465"><ele>586.0</ele><time>2026-04-20T15:05:53Z</time></trkpt><trkpt lat="43.54394551377198" lon="12.295613726944547"><ele>586.8</ele><time>2026-04-20T15:05:54Z</time></trkpt><trkpt lat="43.54387693635902" lon="12.295509983576038"><ele>587.6</ele><time>2026-04-20T15:05:55Z</time></trkpt><trkpt lat="43.54379176316311" lon="12.295431386333703"><ele>588.4</ele><time>2026-04-20T15:05:56Z</time></trkpt><trkpt lat="43.54372419400824" lon="12.295350236510052"><ele>589.2</ele><time>2026-04-20T15:05:57Z</time></trkpt><trkpt lat="43.54366567772955" lon="12.295269169127543"><ele>590.0</ele><time>2026-04-20T15:05:58Z</time></trkpt><trkpt lat="43.54361151770842" lon="12.295190210404654"><ele>586.3333333333333</ele><time>2026-04-20T15:05:59Z</time></trkpt><trkpt lat="43.54360001674833" lon="12.295104207810999"><ele>582.6666666666666</ele><time>2026-04-20T15:06:00Z</time></trkpt><trkpt lat="43.543574749666114" lon="12.29502025426523"><ele>579.0</ele><time>2026-04-20T15:06:01Z</time></trkpt><trkpt lat="43.54355894103767" lon="12.294909548830912"><ele>575.3333333333334</ele><time>2026-04-20T15:06:02Z</time></trkpt><trkpt lat="43.54354984028322" lon="12.294715741013178"><ele>571.6666666666667</ele><time>2026-04-20T15:06:04Z</time></trkpt><trkpt lat="43.543547911409895" lon="12.294624646068169"><ele>568.0</ele><time>2026-04-20T15:06:05Z</time></trkpt><trkpt lat="43.54355003186588" lon="12.294512908393123"><ele>566.8</ele><time>2026-04-20T15:06:06Z</time></trkpt><trkpt lat="43.54355995822464" lon="12.294380825606009"><ele>565.5999999999999</ele><time>2026-04-20T15:06:07Z</time></trkpt><trkpt lat="43.543559008359" lon="12.294238279737868"><ele>564.4000000000001</ele><time>2026-04-20T15:06:08Z</time></trkpt><trkpt lat="43.543555389620394" lon="12.294092643784863"><ele>563.2</ele><time>2026-04-20T15:06:09Z</time></trkpt><trkpt lat="43.543536408569324" lon="12.29397023707867"><ele>562.0</ele><time>2026-04-20T15:06:10Z</time></trkpt><trkpt lat="43.543531138150584" lon="12.293852934283159"><ele>564.1666666666667</ele><time>2026-04-20T15:06:11Z</time></trkpt><trkpt lat="43.54347317289525" lon="12.293782727699176"><ele>566.3333333333334</ele><time>2026-04-20T15:06:12Z</time></trkpt><trkpt lat="43.54341172108366" lon="12.293725692519834"><ele>568.5</ele><time>2026-04-20T15:06:13Z</time></trkpt><trkpt lat="43.54335209189649" lon="12.29369165826397"><ele>570.6666666666666</ele><time>2026-04-20T15:06:14Z</time></trkpt><trkpt lat="43.54328516379286" lon="12.293638436015497"><ele>572.8333333333333</ele><time>2026-04-20T15:06:15Z</time></trkpt><trkpt lat="43.543161663971574" lon="12.293645028478728"><ele>575.0</ele><time>2026-04-20T15:06:16Z</time></trkpt><trkpt lat="43.54304621817627" lon="12.293609289446184"><ele>575.0</ele><time>2026-04-20T15:06:17Z</time></trkpt><trkpt lat="43.542923494858634" lon="12.293588782709564"><ele>575.0</ele><time>2026-04-20T15:06:18Z</time></trkpt><trkpt lat="43.542818329413144" lon="12.293546711886348"><ele>575.0</ele><time>2026-04-20T15:06:19Z</time></trkpt><trkpt lat="43.54273276531619" lon="12.293488522868289"><ele>575.0</ele><time>2026-04-20T15:06:20Z</time></trkpt><trkpt lat="43.542641077730366" lon="12.293411840091624"><ele>575.0</ele><time>2026-04-20T15:06:21Z</time></trkpt><trkpt lat="43.542550659013514" lon="12.293325013909957"><ele>574.0</ele><time>2026-04-20T15:06:22Z</time></trkpt><trkpt lat="43.542480262201806" lon="12.293224766669637"><ele>573.0</ele><time>2026-04-20T15:06:23Z</time></trkpt><trkpt lat="43.542415896213214" lon="12.293125772043672"><ele>572.0</ele><time>2026-04-20T15:06:24Z</time></trkpt><trkpt lat="43.542358552998415" lon="12.293029784665654"><ele>571.0</ele><time>2026-04-20T15:06:25Z</time></trkpt><trkpt lat="43.542331545771965" lon="12.292922301259988"><ele>570.0</ele><time>2026-04-20T15:06:26Z</time></trkpt><trkpt lat="43.54228053186306" lon="12.292835095280386"><ele>570.0</ele><time>2026-04-20T15:06:27Z</time></trkpt><trkpt lat="43.542257490949076" lon="12.292714219450383"><ele>570.0</ele><time>2026-04-20T15:06:28Z</time></trkpt><trkpt lat="43.54219896244573" lon="12.292645523679147"><ele>570.0</ele><time>2026-04-20T15:06:29Z</time></trkpt><trkpt lat="43.54214162023569" lon="12.292574588799306"><ele>570.0</ele><time>2026-04-20T15:06:30Z</time></trkpt><trkpt lat="43.542076784641836" lon="12.292493874008464"><ele>570.0</ele><time>2026-04-20T15:06:31Z</time></trkpt><trkpt lat="43.54200892424601" lon="12.292441433287886"><ele>570.0</ele><time>2026-04-20T15:06:32Z</time></trkpt><trkpt lat="43.54192482046623" lon="12.292390276939757"><ele>567.6666666666666</ele><time>2026-04-20T15:06:33Z</time></trkpt><trkpt lat="43.54184048534446" lon="12.292338549340657"><ele>565.3333333333334</ele><time>2026-04-20T15:06:34Z</time></trkpt><trkpt lat="43.541759507885786" lon="12.292278342928226"><ele>563.0</ele><time>2026-04-20T15:06:35Z</time></trkpt><trkpt lat="43.541678965920376" lon="12.292216444708371"><ele>560.6666666666667</ele><time>2026-04-20T15:06:36Z</time></trkpt><trkpt lat="43.54160269115807" lon="12.292184224765995"><ele>558.3333333333334</ele><time>2026-04-20T15:06:37Z</time></trkpt><trkpt lat="43.5415593908486" lon="12.292114835479556"><ele>556.0</ele><time>2026-04-20T15:06:38Z</time></trkpt><trkpt lat="43.54148787896152" lon="12.291950780705736"><ele>556.0</ele><time>2026-04-20T15:06:40Z</time></trkpt><trkpt lat="43.54146491706082" lon="12.291810056097809"><ele>556.0</ele><time>2026-04-20T15:06:41Z</time></trkpt><trkpt lat="43.541428840796144" lon="12.291651764139305"><ele>556.0</ele><time>2026-04-20T15:06:42Z</time></trkpt><trkpt lat="43.54141927895938" lon="12.291506215193468"><ele>556.0</ele><time>2026-04-20T15:06:43Z</time></trkpt><trkpt lat="43.54139592793309" lon="12.291378430075454"><ele>556.0</ele><time>2026-04-20T15:06:44Z</time></trkpt><trkpt lat="43.54136699772245" lon="12.291266702441721"><ele>554.1666666666667</ele><time>2026-04-20T15:06:45Z</time></trkpt><trkpt lat="43.54133050441734" lon="12.291195048754522"><ele>552.3333333333334</ele><time>2026-04-20T15:06:46Z</time></trkpt><trkpt lat="43.54126394433198" lon="12.291121698309452"><ele>550.5</ele><time>2026-04-20T15:06:47Z</time></trkpt><trkpt lat="43.541206294325285" lon="12.291070879204947"><ele>548.6666666666666</ele><time>2026-04-20T15:06:48Z</time></trkpt><trkpt lat="43.54113945134373" lon="12.291034446533079"><ele>546.8333333333333</ele><time>2026-04-20T15:06:49Z</time></trkpt><trkpt lat="43.54106689443749" lon="12.29103073353093"><ele>545.0</ele><time>2026-04-20T15:06:50Z</time></trkpt><trkpt lat="43.5409699841918" lon="12.291041427933363"><ele>545.0</ele><time>2026-04-20T15:06:51Z</time></trkpt><trkpt lat="43.540890500411585" lon="12.291006829600432"><ele>545.0</ele><time>2026-04-20T15:06:52Z</time></trkpt><trkpt lat="43.540800494764696" lon="12.290989722433366"><ele>545.0</ele><time>2026-04-20T15:06:53Z</time></trkpt><trkpt lat="43.5407299306574" lon="12.29096803846574"><ele>545.0</ele><time>2026-04-20T15:06:54Z</time></trkpt><trkpt lat="43.54065980254241" lon="12.29093438019791"><ele>545.0</ele><time>2026-04-20T15:06:55Z</time></trkpt><trkpt lat="43.54055245772035" lon="12.290884250689526"><ele>545.0</ele><time>2026-04-20T15:06:56Z</time></trkpt><trkpt lat="43.54046309319627" lon="12.290859013896995"><ele>542.3333333333333</ele><time>2026-04-20T15:06:57Z</time></trkpt><trkpt lat="43.540380060319606" lon="12.290859633580373"><ele>539.6666666666666</ele><time>2026-04-20T15:06:58Z</time></trkpt><trkpt lat="43.54031362628736" lon="12.290872753054419"><ele>537.0</ele><time>2026-04-20T15:06:59Z</time></trkpt><trkpt lat="43.54024958989344" lon="12.290891137047835"><ele>534.3333333333334</ele><time>2026-04-20T15:07:00Z</time></trkpt><trkpt lat="43.54015700151987" lon="12.290944620257685"><ele>531.6666666666667</ele><time>2026-04-20T15:07:01Z</time></trkpt><trkpt lat="43.540085092637675" lon="12.291035463368122"><ele>529.0</ele><time>2026-04-20T15:07:02Z</time></trkpt><trkpt lat="43.54004354265877" lon="12.291151959538487"><ele>529.0</ele><time>2026-04-20T15:07:03Z</time></trkpt><trkpt lat="43.53999907443706" lon="12.29123479557566"><ele>529.0</ele><time>2026-04-20T15:07:04Z</time></trkpt><trkpt lat="43.53989595740837" lon="12.291330204170789"><ele>529.0</ele><time>2026-04-20T15:07:06Z</time></trkpt><trkpt lat="43.53983400522988" lon="12.291350542871285"><ele>529.0</ele><time>2026-04-20T15:07:07Z</time></trkpt><trkpt lat="43.539730192034305" lon="12.29125421976882"><ele>529.0</ele><time>2026-04-20T15:07:09Z</time></trkpt><trkpt lat="43.53966866078815" lon="12.291182959567081"><ele>529.0</ele><time>2026-04-20T15:07:10Z</time></trkpt><trkpt lat="43.53961345942738" lon="12.291086666494571"><ele>529.0</ele><time>2026-04-20T15:07:11Z</time></trkpt><trkpt lat="43.53958365269787" lon="12.291007648926454"><ele>529.0</ele><time>2026-04-20T15:07:12Z</time></trkpt><trkpt lat="43.53955687563077" lon="12.290850044969407"><ele>529.0</ele><time>2026-04-20T15:07:14Z</time></trkpt><trkpt lat="43.539570742033646" lon="12.290754842765896"><ele>529.0</ele><time>2026-04-20T15:07:15Z</time></trkpt><trkpt lat="43.53958587592126" lon="12.290645859779168"><ele>529.0</ele><time>2026-04-20T15:07:16Z</time></trkpt><trkpt lat="43.53958262796682" lon="12.290529252871504"><ele>531.4</ele><time>2026-04-20T15:07:17Z</time></trkpt><trkpt lat="43.53956324220606" lon="12.290399704493625"><ele>533.8</ele><time>2026-04-20T15:07:18Z</time></trkpt><trkpt lat="43.539520069281245" lon="12.290256778016214"><ele>536.2</ele><time>2026-04-20T15:07:19Z</time></trkpt><trkpt lat="43.5394690056532" lon="12.290134651521399"><ele>538.6</ele><time>2026-04-20T15:07:20Z</time></trkpt><trkpt lat="43.53942142951358" lon="12.29004279264487"><ele>541.0</ele><time>2026-04-20T15:07:21Z</time></trkpt><trkpt lat="43.539371509352925" lon="12.28995896511868"><ele>537.8333333333334</ele><time>2026-04-20T15:07:22Z</time></trkpt><trkpt lat="43.53930531751492" lon="12.28987263654023"><ele>534.6666666666667</ele><time>2026-04-20T15:07:23Z</time></trkpt><trkpt lat="43.539237337537585" lon="12.289788478150271"><ele>531.5</ele><time>2026-04-20T15:07:24Z</time></trkpt><trkpt lat="43.539176190402564" lon="12.289709969040855"><ele>528.3333333333334</ele><time>2026-04-20T15:07:25Z</time></trkpt><trkpt lat="43.53911595781464" lon="12.289615272511346"><ele>525.1666666666666</ele><time>2026-04-20T15:07:26Z</time></trkpt><trkpt lat="43.5390740756442" lon="12.289513484876547"><ele>522.0</ele><time>2026-04-20T15:07:27Z</time></trkpt><trkpt lat="43.539047884387784" lon="12.289411621989448"><ele>522.0</ele><time>2026-04-20T15:07:28Z</time></trkpt><trkpt lat="43.53902448222337" lon="12.289294966178929"><ele>522.0</ele><time>2026-04-20T15:07:29Z</time></trkpt><trkpt lat="43.538994339610795" lon="12.28917774470947"><ele>522.0</ele><time>2026-04-20T15:07:30Z</time></trkpt><trkpt lat="43.538963774978996" lon="12.289045272153983"><ele>522.0</ele><time>2026-04-20T15:07:31Z</time></trkpt><trkpt lat="43.53892518529177" lon="12.288914151992218"><ele>522.0</ele><time>2026-04-20T15:07:32Z</time></trkpt><trkpt lat="43.53888312392566" lon="12.288806345584657"><ele>520.3333333333334</ele><time>2026-04-20T15:07:33Z</time></trkpt><trkpt lat="43.53884055742739" lon="12.288719321236938"><ele>518.6666666666666</ele><time>2026-04-20T15:07:34Z</time></trkpt><trkpt lat="43.53878792901373" lon="12.288645211505191"><ele>517.0</ele><time>2026-04-20T15:07:35Z</time></trkpt><trkpt lat="43.53871620743575" lon="12.288585373688067"><ele>515.3333333333333</ele><time>2026-04-20T15:07:36Z</time></trkpt><trkpt lat="43.53863828464963" lon="12.28857123693196"><ele>513.6666666666666</ele><time>2026-04-20T15:07:37Z</time></trkpt><trkpt lat="43.53855362042592" lon="12.288534459417365"><ele>512.0</ele><time>2026-04-20T15:07:38Z</time></trkpt><trkpt lat="43.53847782444151" lon="12.288486167660995"><ele>511.99999999999994</ele><time>2026-04-20T15:07:39Z</time></trkpt><trkpt lat="43.538397903638135" lon="12.288441475366715"><ele>512.0</ele><time>2026-04-20T15:07:40Z</time></trkpt><trkpt lat="43.538339207256215" lon="12.28838342206395"><ele>512.0</ele><time>2026-04-20T15:07:41Z</time></trkpt><trkpt lat="43.538265879805515" lon="12.288318596980599"><ele>512.0</ele><time>2026-04-20T15:07:42Z</time></trkpt><trkpt lat="43.538207761795476" lon="12.288207503036165"><ele>511.99999999999994</ele><time>2026-04-20T15:07:43Z</time></trkpt><trkpt lat="43.53813814697628" lon="12.288113346723213"><ele>512.0</ele><time>2026-04-20T15:07:44Z</time></trkpt><trkpt lat="43.5380750532207" lon="12.28801302649015"><ele>510.3333333333333</ele><time>2026-04-20T15:07:45Z</time></trkpt><trkpt lat="43.5380102086564" lon="12.287927710673147"><ele>508.66666666666663</ele><time>2026-04-20T15:07:46Z</time></trkpt><trkpt lat="43.537942244318245" lon="12.287847781356819"><ele>507.0</ele><time>2026-04-20T15:07:47Z</time></trkpt><trkpt lat="43.537891220713945" lon="12.28776016436079"><ele>505.33333333333337</ele><time>2026-04-20T15:07:48Z</time></trkpt><trkpt lat="43.53783914373115" lon="12.287684980515081"><ele>503.6666666666667</ele><time>2026-04-20T15:07:49Z</time></trkpt><trkpt lat="43.53780225015775" lon="12.287602720512405"><ele>502.0</ele><time>2026-04-20T15:07:50Z</time></trkpt><trkpt lat="43.53776704782108" lon="12.287529898446806"><ele>502.0</ele><time>2026-04-20T15:07:51Z</time></trkpt><trkpt lat="43.537725912043996" lon="12.287454314346908"><ele>502.00000000000006</ele><time>2026-04-20T15:07:52Z</time></trkpt><trkpt lat="43.537671598611496" lon="12.287323781821438"><ele>502.00000000000006</ele><time>2026-04-20T15:07:53Z</time></trkpt><trkpt lat="43.537593609188704" lon="12.287219617496337"><ele>502.0</ele><time>2026-04-20T15:07:54Z</time></trkpt><trkpt lat="43.53754489753104" lon="12.287083464575026"><ele>502.0</ele><time>2026-04-20T15:07:55Z</time></trkpt><trkpt lat="43.53747360637049" lon="12.286954229618736"><ele>503.0</ele><time>2026-04-20T15:07:56Z</time></trkpt><trkpt lat="43.537407279380766" lon="12.286850197462067"><ele>504.00000000000006</ele><time>2026-04-20T15:07:57Z</time></trkpt><trkpt lat="43.537336424531844" lon="12.286756296718384"><ele>505.00000000000006</ele><time>2026-04-20T15:07:58Z</time></trkpt><trkpt lat="43.5372736858246" lon="12.286681429577474"><ele>506.0</ele><time>2026-04-20T15:07:59Z</time></trkpt><trkpt lat="43.537186882716604" lon="12.28660181298573"><ele>507.0</ele><time>2026-04-20T15:08:00Z</time></trkpt><trkpt lat="43.537115531974656" lon="12.286524314805627"><ele>506.6666666666667</ele><time>2026-04-20T15:08:01Z</time></trkpt><trkpt lat="43.53704269859143" lon="12.286441408643752"><ele>506.33333333333337</ele><time>2026-04-20T15:08:02Z</time></trkpt><trkpt lat="43.536971436242816" lon="12.286380363984046"><ele>506.0</ele><time>2026-04-20T15:08:03Z</time></trkpt><trkpt lat="43.53690823630062" lon="12.286313272003614"><ele>505.6666666666667</ele><time>2026-04-20T15:08:04Z</time></trkpt><trkpt lat="43.536872430285825" lon="12.286197855185312"><ele>505.33333333333337</ele><time>2026-04-20T15:08:05Z</time></trkpt><trkpt lat="43.53686037123059" lon="12.28606772046759"><ele>505.0</ele><time>2026-04-20T15:08:06Z</time></trkpt><trkpt lat="43.5368244782867" lon="12.285921277200911"><ele>503.0</ele><time>2026-04-20T15:08:07Z</time></trkpt><trkpt lat="43.53678666665508" lon="12.28578551834153"><ele>501.0</ele><time>2026-04-20T15:08:08Z</time></trkpt><trkpt lat="43.53674407431534" lon="12.285664039520807"><ele>499.0</ele><time>2026-04-20T15:08:09Z</time></trkpt><trkpt lat="43.53669217312537" lon="12.285553543721793"><ele>497.0</ele><time>2026-04-20T15:08:10Z</time></trkpt><trkpt lat="43.53664792358631" lon="12.285458560253945"><ele>495.0</ele><time>2026-04-20T15:08:11Z</time></trkpt><trkpt lat="43.53661721484047" lon="12.285345253563568"><ele>494.6</ele><time>2026-04-20T15:08:12Z</time></trkpt><trkpt lat="43.536552139846066" lon="12.285243068607553"><ele>494.2</ele><time>2026-04-20T15:08:13Z</time></trkpt><trkpt lat="43.53648860341619" lon="12.285140982098214"><ele>493.79999999999995</ele><time>2026-04-20T15:08:14Z</time></trkpt><trkpt lat="43.53641588332159" lon="12.285013094923315"><ele>493.4</ele><time>2026-04-20T15:08:15Z</time></trkpt><trkpt lat="43.53633720423801" lon="12.284871426110104"><ele>493.0</ele><time>2026-04-20T15:08:16Z</time></trkpt><trkpt lat="43.536256833017674" lon="12.284749432449441"><ele>491.79999999999995</ele><time>2026-04-20T15:08:17Z</time></trkpt><trkpt lat="43.53618457828748" lon="12.284648574447054"><ele>490.59999999999997</ele><time>2026-04-20T15:08:18Z</time></trkpt><trkpt lat="43.5361151037183" lon="12.284547300193172"><ele>489.40000000000003</ele><time>2026-04-20T15:08:19Z</time></trkpt><trkpt lat="43.536050315267694" lon="12.284436078597938"><ele>488.20000000000005</ele><time>2026-04-20T15:08:20Z</time></trkpt><trkpt lat="43.53598953997259" lon="12.284311574339831"><ele>487.0</ele><time>2026-04-20T15:08:21Z</time></trkpt><trkpt lat="43.5359289290248" lon="12.284188186293958"><ele>487.00000000000006</ele><time>2026-04-20T15:08:22Z</time></trkpt><trkpt lat="43.53587676013395" lon="12.284073431752326"><ele>487.0</ele><time>2026-04-20T15:08:23Z</time></trkpt><trkpt lat="43.535831867148254" lon="12.283975411409493"><ele>487.0</ele><time>2026-04-20T15:08:24Z</time></trkpt><trkpt lat="43.535787761723476" lon="12.28388236166991"><ele>487.0</ele><time>2026-04-20T15:08:25Z</time></trkpt><trkpt lat="43.535746376332796" lon="12.283796350157436"><ele>487.00000000000006</ele><time>2026-04-20T15:08:26Z</time></trkpt><trkpt lat="43.535727296072615" lon="12.283706194482836"><ele>487.0</ele><time>2026-04-20T15:08:27Z</time></trkpt><trkpt lat="43.53569536530862" lon="12.28361167026741"><ele>486.83333333333337</ele><time>2026-04-20T15:08:28Z</time></trkpt><trkpt lat="43.5356590722639" lon="12.283498549877454"><ele>486.6666666666667</ele><time>2026-04-20T15:08:29Z</time></trkpt><trkpt lat="43.53562781013018" lon="12.28338822267385"><ele>486.5</ele><time>2026-04-20T15:08:30Z</time></trkpt><trkpt lat="43.53559765247297" lon="12.283263605693826"><ele>486.33333333333337</ele><time>2026-04-20T15:08:31Z</time></trkpt><trkpt lat="43.53555763781563" lon="12.283152486662102"><ele>486.1666666666667</ele><time>2026-04-20T15:08:32Z</time></trkpt><trkpt lat="43.5355367901147" lon="12.283040795333473"><ele>486.0</ele><time>2026-04-20T15:08:33Z</time></trkpt><trkpt lat="43.535509583156866" lon="12.282924613913762"><ele>487.0</ele><time>2026-04-20T15:08:34Z</time></trkpt><trkpt lat="43.535483927288055" lon="12.282806282346806"><ele>488.0</ele><time>2026-04-20T15:08:35Z</time></trkpt><trkpt lat="43.53544921322136" lon="12.28269055287079"><ele>489.0</ele><time>2026-04-20T15:08:36Z</time></trkpt><trkpt lat="43.53538758685418" lon="12.282583194467568"><ele>490.0</ele><time>2026-04-20T15:08:37Z</time></trkpt><trkpt lat="43.53530489652368" lon="12.282499854909446"><ele>491.0</ele><time>2026-04-20T15:08:38Z</time></trkpt><trkpt lat="43.5352076415406" lon="12.282428610267823"><ele>488.8</ele><time>2026-04-20T15:08:39Z</time></trkpt><trkpt lat="43.535103043963936" lon="12.282354323714326"><ele>486.6</ele><time>2026-04-20T15:08:40Z</time></trkpt><trkpt lat="43.53500571954054" lon="12.282275526187847"><ele>484.4</ele><time>2026-04-20T15:08:41Z</time></trkpt><trkpt lat="43.53492851590091" lon="12.282186989127426"><ele>482.2</ele><time>2026-04-20T15:08:42Z</time></trkpt><trkpt lat="43.53487209992419" lon="12.282093058293494"><ele>480.0</ele><time>2026-04-20T15:08:43Z</time></trkpt><trkpt lat="43.53483310920825" lon="12.281996368542604"><ele>480.0</ele><time>2026-04-20T15:08:44Z</time></trkpt><trkpt lat="43.5348066987012" lon="12.281884967617058"><ele>480.0</ele><time>2026-04-20T15:08:45Z</time></trkpt><trkpt lat="43.53478644674045" lon="12.281745410804213"><ele>480.0</ele><time>2026-04-20T15:08:46Z</time></trkpt><trkpt lat="43.534765023135805" lon="12.281601154855753"><ele>480.0</ele><time>2026-04-20T15:08:47Z</time></trkpt><trkpt lat="43.53474919033477" lon="12.281461929321793"><ele>480.0</ele><time>2026-04-20T15:08:48Z</time></trkpt><trkpt lat="43.53473840560317" lon="12.281318617542368"><ele>480.8333333333333</ele><time>2026-04-20T15:08:49Z</time></trkpt><trkpt lat="43.53473949395653" lon="12.281189971694035"><ele>481.66666666666663</ele><time>2026-04-20T15:08:50Z</time></trkpt><trkpt lat="43.534735289012396" lon="12.281078830928998"><ele>482.5</ele><time>2026-04-20T15:08:51Z</time></trkpt><trkpt lat="43.5347105784316" lon="12.280975064311848"><ele>483.3333333333333</ele><time>2026-04-20T15:08:52Z</time></trkpt><trkpt lat="43.5346648040364" lon="12.280897506085251"><ele>484.16666666666663</ele><time>2026-04-20T15:08:53Z</time></trkpt><trkpt lat="43.53457968976524" lon="12.280824326966302"><ele>485.0</ele><time>2026-04-20T15:08:54Z</time></trkpt><trkpt lat="43.534488063222575" lon="12.280767400132444"><ele>482.0</ele><time>2026-04-20T15:08:55Z</time></trkpt><trkpt lat="43.53439409314238" lon="12.280750330301363"><ele>479.0</ele><time>2026-04-20T15:08:56Z</time></trkpt><trkpt lat="43.53431071069222" lon="12.28071361008984"><ele>476.0</ele><time>2026-04-20T15:08:57Z</time></trkpt><trkpt lat="43.53424059552295" lon="12.280652368757345"><ele>473.0</ele><time>2026-04-20T15:08:58Z</time></trkpt><trkpt lat="43.53417952423847" lon="12.280562744510965"><ele>470.0</ele><time>2026-04-20T15:08:59Z</time></trkpt><trkpt lat="43.534126752348406" lon="12.280435458234676"><ele>470.0</ele><time>2026-04-20T15:09:00Z</time></trkpt><trkpt lat="43.53406785362969" lon="12.280303775952577"><ele>470.0</ele><time>2026-04-20T15:09:01Z</time></trkpt><trkpt lat="43.53400132956082" lon="12.280178679605664"><ele>470.0</ele><time>2026-04-20T15:09:02Z</time></trkpt><trkpt lat="43.53392616303178" lon="12.280066893330368"><ele>470.0</ele><time>2026-04-20T15:09:03Z</time></trkpt><trkpt lat="43.5338566970604" lon="12.279962790266444"><ele>470.0</ele><time>2026-04-20T15:09:04Z</time></trkpt><trkpt lat="43.53378027465116" lon="12.279888632086081"><ele>470.0</ele><time>2026-04-20T15:09:05Z</time></trkpt><trkpt lat="43.53370447191164" lon="12.279833245545518"><ele>470.0</ele><time>2026-04-20T15:09:06Z</time></trkpt><trkpt lat="43.53361414372665" lon="12.279796337347808"><ele>470.0</ele><time>2026-04-20T15:09:08Z</time></trkpt><trkpt lat="43.53351731986998" lon="12.27978432353471"><ele>470.0</ele><time>2026-04-20T15:09:10Z</time></trkpt><trkpt lat="43.5334044480197" lon="12.279777739990871"><ele>470.0</ele><time>2026-04-20T15:09:12Z</time></trkpt><trkpt lat="43.53334639693283" lon="12.2797169344257"><ele>470.0</ele><time>2026-04-20T15:09:14Z</time></trkpt><trkpt lat="43.53334927122837" lon="12.27958935823465"><ele>470.0</ele><time>2026-04-20T15:09:16Z</time></trkpt><trkpt lat="43.53339219886605" lon="12.279475765983754"><ele>470.0</ele><time>2026-04-20T15:09:18Z</time></trkpt><trkpt lat="43.53343421111263" lon="12.27931059363616"><ele>470.0</ele><time>2026-04-20T15:09:20Z</time></trkpt><trkpt lat="43.53346219206328" lon="12.279216434297304"><ele>470.0</ele><time>2026-04-20T15:09:21Z</time></trkpt><trkpt lat="43.53348369896033" lon="12.279113579488389"><ele>469.99999999999994</ele><time>2026-04-20T15:09:22Z</time></trkpt><trkpt lat="43.533485077304775" lon="12.279003518259804"><ele>470.0</ele><time>2026-04-20T15:09:23Z</time></trkpt><trkpt lat="43.533450225738775" lon="12.278902550478147"><ele>470.0</ele><time>2026-04-20T15:09:24Z</time></trkpt><trkpt lat="43.533387979171245" lon="12.278828792852105"><ele>470.0</ele><time>2026-04-20T15:09:25Z</time></trkpt><trkpt lat="43.53332955291676" lon="12.278793624812542"><ele>469.99999999999994</ele><time>2026-04-20T15:09:26Z</time></trkpt><trkpt lat="43.53325722395956" lon="12.278760259015037"><ele>470.0</ele><time>2026-04-20T15:09:28Z</time></trkpt><trkpt lat="43.533285761193625" lon="12.278853062000964"><ele>470.0</ele><time>2026-04-20T15:09:34Z</time></trkpt><trkpt lat="43.53339968486466" lon="12.278877803672165"><ele>470.0</ele><time>2026-04-20T15:09:36Z</time></trkpt><trkpt lat="43.533471747119364" lon="12.278985228928306"><ele>470.0</ele><time>2026-04-20T15:09:38Z</time></trkpt><trkpt lat="43.533474120520594" lon="12.279155666814814"><ele>470.0</ele><time>2026-04-20T15:09:40Z</time></trkpt><trkpt lat="43.5334519431653" lon="12.279241678196406"><ele>470.0</ele><time>2026-04-20T15:09:41Z</time></trkpt><trkpt lat="43.53341698358529" lon="12.279315984370534"><ele>469.99999999999994</ele><time>2026-04-20T15:09:42Z</time></trkpt><trkpt lat="43.53332890286728" lon="12.27938160792686"><ele>470.0</ele><time>2026-04-20T15:09:44Z</time></trkpt><trkpt lat="43.53321622333305" lon="12.279368560715035"><ele>470.0</ele><time>2026-04-20T15:09:46Z</time></trkpt><trkpt lat="43.53315181524967" lon="12.279339485961971"><ele>470.0</ele><time>2026-04-20T15:09:47Z</time></trkpt><trkpt lat="43.53307871734006" lon="12.279301279354085"><ele>469.99999999999994</ele><time>2026-04-20T15:09:48Z</time></trkpt><trkpt lat="43.533005671421826" lon="12.279269573688898"><ele>470.0</ele><time>2026-04-20T15:09:49Z</time></trkpt><trkpt lat="43.53293397249868" lon="12.27924108196797"><ele>468.16666666666663</ele><time>2026-04-20T15:09:50Z</time></trkpt><trkpt lat="43.532869611296526" lon="12.279212980864155"><ele>466.3333333333333</ele><time>2026-04-20T15:09:51Z</time></trkpt><trkpt lat="43.532753532875766" lon="12.27918819218152"><ele>464.5</ele><time>2026-04-20T15:09:53Z</time></trkpt><trkpt lat="43.532684799815044" lon="12.279192290911903"><ele>462.66666666666663</ele><time>2026-04-20T15:09:54Z</time></trkpt><trkpt lat="43.53261870738222" lon="12.279222214485696"><ele>460.8333333333333</ele><time>2026-04-20T15:09:55Z</time></trkpt><trkpt lat="43.532554279102484" lon="12.279282593863634"><ele>459.0</ele><time>2026-04-20T15:09:56Z</time></trkpt><trkpt lat="43.53248283586908" lon="12.27933139726748"><ele>459.0</ele><time>2026-04-20T15:09:57Z</time></trkpt><trkpt lat="43.53240489157236" lon="12.279368642633886"><ele>459.0</ele><time>2026-04-20T15:09:58Z</time></trkpt><trkpt lat="43.532327054344066" lon="12.279382951004521"><ele>459.0</ele><time>2026-04-20T15:09:59Z</time></trkpt><trkpt lat="43.53224338837961" lon="12.279374213546246"><ele>459.0</ele><time>2026-04-20T15:10:00Z</time></trkpt><trkpt lat="43.532173630043594" lon="12.279345744176041"><ele>459.0</ele><time>2026-04-20T15:10:01Z</time></trkpt><trkpt lat="43.532112295379676" lon="12.279300630997275"><ele>459.0</ele><time>2026-04-20T15:10:02Z</time></trkpt><trkpt lat="43.53203071516878" lon="12.279174931224773"><ele>460.0</ele><time>2026-04-20T15:10:04Z</time></trkpt><trkpt lat="43.53199818060863" lon="12.279100263406898"><ele>461.0</ele><time>2026-04-20T15:10:05Z</time></trkpt><trkpt lat="43.53191290621759" lon="12.278984780056572"><ele>462.0</ele><time>2026-04-20T15:10:07Z</time></trkpt><trkpt lat="43.53185695091772" lon="12.278939690020088"><ele>463.0</ele><time>2026-04-20T15:10:08Z</time></trkpt><trkpt lat="43.5318031911348" lon="12.27889224868609"><ele>464.0</ele><time>2026-04-20T15:10:09Z</time></trkpt><trkpt lat="43.53174937440587" lon="12.27883156941651"><ele>465.0</ele><time>2026-04-20T15:10:10Z</time></trkpt><trkpt lat="43.53170151566988" lon="12.278756384641264"><ele>465.0</ele><time>2026-04-20T15:10:11Z</time></trkpt><trkpt lat="43.53165920630034" lon="12.278668923574967"><ele>465.0</ele><time>2026-04-20T15:10:12Z</time></trkpt><trkpt lat="43.531616800738895" lon="12.278588500197225"><ele>465.0</ele><time>2026-04-20T15:10:13Z</time></trkpt><trkpt lat="43.53157022129364" lon="12.278511603206606"><ele>465.0</ele><time>2026-04-20T15:10:14Z</time></trkpt><trkpt lat="43.531523968295176" lon="12.278412962728138"><ele>465.0</ele><time>2026-04-20T15:10:15Z</time></trkpt><trkpt lat="43.531475508256406" lon="12.278310203755352"><ele>465.0</ele><time>2026-04-20T15:10:16Z</time></trkpt><trkpt lat="43.53143659369734" lon="12.278218648741614"><ele>465.0</ele><time>2026-04-20T15:10:17Z</time></trkpt><trkpt lat="43.531394214859624" lon="12.278152041104288"><ele>465.0</ele><time>2026-04-20T15:10:18Z</time></trkpt><trkpt lat="43.53133535446108" lon="12.278114011774806"><ele>465.0</ele><time>2026-04-20T15:10:19Z</time></trkpt><trkpt lat="43.53125893319192" lon="12.278110510402794"><ele>465.0</ele><time>2026-04-20T15:10:20Z</time></trkpt><trkpt lat="43.53117651677238" lon="12.278122480684512"><ele>465.0</ele><time>2026-04-20T15:10:21Z</time></trkpt><trkpt lat="43.53108985147026" lon="12.278170592376764"><ele>465.0</ele><time>2026-04-20T15:10:22Z</time></trkpt><trkpt lat="43.531000222861145" lon="12.278203173838522"><ele>472.0</ele><time>2026-04-20T15:10:23Z</time></trkpt><trkpt lat="43.53090957766736" lon="12.278242584833153"><ele>479.0</ele><time>2026-04-20T15:10:24Z</time></trkpt><trkpt lat="43.53081314034153" lon="12.278270640779967"><ele>486.0</ele><time>2026-04-20T15:10:25Z</time></trkpt><trkpt lat="43.530713833818474" lon="12.278289167713796"><ele>493.0</ele><time>2026-04-20T15:10:26Z</time></trkpt><trkpt lat="43.53061947285045" lon="12.278295127884393"><ele>500.0</ele><time>2026-04-20T15:10:27Z</time></trkpt><trkpt lat="43.53055399725124" lon="12.278318064349698"><ele>499.99999999999994</ele><time>2026-04-20T15:10:28Z</time></trkpt><trkpt lat="43.53048012325368" lon="12.278372065042022"><ele>500.0</ele><time>2026-04-20T15:10:29Z</time></trkpt><trkpt lat="43.5304273874238" lon="12.278439022354439"><ele>500.0</ele><time>2026-04-20T15:10:30Z</time></trkpt><trkpt lat="43.53033979502903" lon="12.278451576091479"><ele>500.0</ele><time>2026-04-20T15:10:32Z</time></trkpt><trkpt lat="43.530295632610645" lon="12.278329343478495"><ele>499.99999999999994</ele><time>2026-04-20T15:10:34Z</time></trkpt><trkpt lat="43.530300258289955" lon="12.278230756543016"><ele>500.0</ele><time>2026-04-20T15:10:35Z</time></trkpt><trkpt lat="43.53031423224439" lon="12.278116057646763"><ele>504.6</ele><time>2026-04-20T15:10:36Z</time></trkpt><trkpt lat="43.53030370155982" lon="12.278004968978001"><ele>509.2</ele><time>2026-04-20T15:10:37Z</time></trkpt><trkpt lat="43.530266155919854" lon="12.277927115886733"><ele>513.8</ele><time>2026-04-20T15:10:38Z</time></trkpt><trkpt lat="43.53014389225584" lon="12.277918692924171"><ele>518.4</ele><time>2026-04-20T15:10:40Z</time></trkpt><trkpt lat="43.530062075545224" lon="12.278003856306189"><ele>523.0</ele><time>2026-04-20T15:10:42Z</time></trkpt><trkpt lat="43.53000418748428" lon="12.278083480793489"><ele>521.0</ele><time>2026-04-20T15:10:43Z</time></trkpt><trkpt lat="43.529938601061964" lon="12.27816807399714"><ele>519.0</ele><time>2026-04-20T15:10:44Z</time></trkpt><trkpt lat="43.52986676647686" lon="12.278250865030943"><ele>517.0</ele><time>2026-04-20T15:10:45Z</time></trkpt><trkpt lat="43.529775850836515" lon="12.278337401494372"><ele>515.0</ele><time>2026-04-20T15:10:46Z</time></trkpt><trkpt lat="43.52968694647657" lon="12.278414403407742"><ele>513.0</ele><time>2026-04-20T15:10:47Z</time></trkpt><trkpt lat="43.5296029627941" lon="12.278492691459782"><ele>515.8</ele><time>2026-04-20T15:10:48Z</time></trkpt><trkpt lat="43.52952081240161" lon="12.278561178426918"><ele>518.5999999999999</ele><time>2026-04-20T15:10:49Z</time></trkpt><trkpt lat="43.529442732501856" lon="12.278593318748829"><ele>521.4000000000001</ele><time>2026-04-20T15:10:50Z</time></trkpt><trkpt lat="43.52935504543563" lon="12.278580471922215"><ele>524.2</ele><time>2026-04-20T15:10:51Z</time></trkpt><trkpt lat="43.52926415204684" lon="12.278550994792585"><ele>527.0</ele><time>2026-04-20T15:10:52Z</time></trkpt><trkpt lat="43.529172424122606" lon="12.278523707032418"><ele>527.0</ele><time>2026-04-20T15:10:53Z</time></trkpt><trkpt lat="43.529086249614124" lon="12.278498865977467"><ele>527.0</ele><time>2026-04-20T15:10:54Z</time></trkpt><trkpt lat="43.529011090369096" lon="12.278482427811005"><ele>527.0</ele><time>2026-04-20T15:10:55Z</time></trkpt><trkpt lat="43.528947690744225" lon="12.278461577969022"><ele>527.0</ele><time>2026-04-20T15:10:56Z</time></trkpt><trkpt lat="43.52885727557563" lon="12.278472941770653"><ele>527.0</ele><time>2026-04-20T15:10:58Z</time></trkpt><trkpt lat="43.528799186023534" lon="12.278535769431295"><ele>527.0</ele><time>2026-04-20T15:11:02Z</time></trkpt><trkpt lat="43.5287719939355" lon="12.278651190011747"><ele>527.0</ele><time>2026-04-20T15:11:04Z</time></trkpt><trkpt lat="43.52874983683634" lon="12.278764936133133"><ele>527.0</ele><time>2026-04-20T15:11:05Z</time></trkpt><trkpt lat="43.5287174856339" lon="12.278891276087036"><ele>527.0</ele><time>2026-04-20T15:11:06Z</time></trkpt><trkpt lat="43.528689667484876" lon="12.279030282068653"><ele>527.0</ele><time>2026-04-20T15:11:07Z</time></trkpt><trkpt lat="43.52866014197867" lon="12.279163334964634"><ele>527.0</ele><time>2026-04-20T15:11:08Z</time></trkpt><trkpt lat="43.52862498604361" lon="12.279274325327316"><ele>525.0</ele><time>2026-04-20T15:11:09Z</time></trkpt><trkpt lat="43.52857872715432" lon="12.279387963155846"><ele>523.0</ele><time>2026-04-20T15:11:10Z</time></trkpt><trkpt lat="43.52851606372816" lon="12.279502730741923"><ele>521.0</ele><time>2026-04-20T15:11:11Z</time></trkpt><trkpt lat="43.52844746703684" lon="12.279605128163793"><ele>519.0</ele><time>2026-04-20T15:11:12Z</time></trkpt><trkpt lat="43.52836897706441" lon="12.279678405484557"><ele>517.0</ele><time>2026-04-20T15:11:13Z</time></trkpt><trkpt lat="43.528302976911895" lon="12.279696932115115"><ele>517.0</ele><time>2026-04-20T15:11:14Z</time></trkpt><trkpt lat="43.52821016960302" lon="12.279709534276352"><ele>517.0</ele><time>2026-04-20T15:11:15Z</time></trkpt><trkpt lat="43.52810707998594" lon="12.279678098607857"><ele>517.0</ele><time>2026-04-20T15:11:16Z</time></trkpt><trkpt lat="43.52799981996327" lon="12.279700445684165"><ele>517.0</ele><time>2026-04-20T15:11:17Z</time></trkpt><trkpt lat="43.5279060877318" lon="12.279708944415558"><ele>517.0</ele><time>2026-04-20T15:11:18Z</time></trkpt><trkpt lat="43.5278247564921" lon="12.27972737999978"><ele>517.6666666666667</ele><time>2026-04-20T15:11:19Z</time></trkpt><trkpt lat="43.52774152713988" lon="12.279749241072771"><ele>518.3333333333334</ele><time>2026-04-20T15:11:20Z</time></trkpt><trkpt lat="43.52767305274172" lon="12.279785579495217"><ele>519.0</ele><time>2026-04-20T15:11:21Z</time></trkpt><trkpt lat="43.527608981056815" lon="12.27980842627528"><ele>519.6666666666666</ele><time>2026-04-20T15:11:22Z</time></trkpt><trkpt lat="43.52750108293649" lon="12.279856444806187"><ele>520.3333333333333</ele><time>2026-04-20T15:11:24Z</time></trkpt><trkpt lat="43.52740692530249" lon="12.27989437634336"><ele>521.0</ele><time>2026-04-20T15:11:26Z</time></trkpt><trkpt lat="43.5274325746509" lon="12.279989999298278"><ele>521.0</ele><time>2026-04-20T15:11:32Z</time></trkpt><trkpt lat="43.5275537274751" lon="12.279996035343565"><ele>521.0</ele><time>2026-04-20T15:11:34Z</time></trkpt><trkpt lat="43.52767656357474" lon="12.280027559910469"><ele>521.0</ele><time>2026-04-20T15:11:36Z</time></trkpt><trkpt lat="43.527743847748" lon="12.2800559964695"><ele>521.0</ele><time>2026-04-20T15:11:37Z</time></trkpt><trkpt lat="43.52781378534159" lon="12.280079143512376"><ele>521.0</ele><time>2026-04-20T15:11:38Z</time></trkpt><trkpt lat="43.52788202775537" lon="12.280118419061525"><ele>522.2</ele><time>2026-04-20T15:11:39Z</time></trkpt><trkpt lat="43.527972499655846" lon="12.280209651824256"><ele>523.4000000000001</ele><time>2026-04-20T15:11:41Z</time></trkpt><trkpt lat="43.528064561347016" lon="12.280320700726087"><ele>524.6</ele><time>2026-04-20T15:11:43Z</time></trkpt><trkpt lat="43.528107195365585" lon="12.280393902984388"><ele>525.8000000000001</ele><time>2026-04-20T15:11:44Z</time></trkpt><trkpt lat="43.528149980951646" lon="12.280482289683647"><ele>527.0</ele><time>2026-04-20T15:11:45Z</time></trkpt><trkpt lat="43.528208771501134" lon="12.280579689479884"><ele>528.3333333333333</ele><time>2026-04-20T15:11:46Z</time></trkpt><trkpt lat="43.52827232248438" lon="12.280666342097192"><ele>529.6666666666666</ele><time>2026-04-20T15:11:47Z</time></trkpt><trkpt lat="43.528336113393024" lon="12.280754985687757"><ele>531.0</ele><time>2026-04-20T15:11:48Z</time></trkpt><trkpt lat="43.52840645826523" lon="12.280817519754981"><ele>532.3333333333334</ele><time>2026-04-20T15:11:49Z</time></trkpt><trkpt lat="43.528494064154216" lon="12.280845932071474"><ele>533.6666666666667</ele><time>2026-04-20T15:11:50Z</time></trkpt><trkpt lat="43.528578077849616" lon="12.280870475495838"><ele>535.0</ele><time>2026-04-20T15:11:51Z</time></trkpt><trkpt lat="43.52863973859881" lon="12.280892745443284"><ele>535.0</ele><time>2026-04-20T15:11:52Z</time></trkpt><trkpt lat="43.52871436443745" lon="12.281021232224704"><ele>535.0</ele><time>2026-04-20T15:11:54Z</time></trkpt><trkpt lat="43.52872891689857" lon="12.281130441385933"><ele>535.0</ele><time>2026-04-20T15:11:55Z</time></trkpt><trkpt lat="43.528748640021945" lon="12.281270459132037"><ele>535.0</ele><time>2026-04-20T15:11:56Z</time></trkpt><trkpt lat="43.52876693789922" lon="12.281421015371716"><ele>535.0</ele><time>2026-04-20T15:11:57Z</time></trkpt><trkpt lat="43.52878393275333" lon="12.281576060693984"><ele>536.4285714285714</ele><time>2026-04-20T15:11:58Z</time></trkpt><trkpt lat="43.528790457914624" lon="12.281666760373849"><ele>537.8571428571429</ele><time>2026-04-20T15:12:00Z</time></trkpt><trkpt lat="43.528780907210226" lon="12.281755264229998"><ele>539.2857142857143</ele><time>2026-04-20T15:12:01Z</time></trkpt><trkpt lat="43.528773735089686" lon="12.281849851432826"><ele>540.7142857142858</ele><time>2026-04-20T15:12:02Z</time></trkpt><trkpt lat="43.528760381194914" lon="12.281962152752396"><ele>542.1428571428572</ele><time>2026-04-20T15:12:03Z</time></trkpt><trkpt lat="43.52873581689723" lon="12.282080830757298"><ele>543.5714285714286</ele><time>2026-04-20T15:12:04Z</time></trkpt><trkpt lat="43.52871355475037" lon="12.28218132677423"><ele>545.0</ele><time>2026-04-20T15:12:05Z</time></trkpt><trkpt lat="43.5287133698863" lon="12.282292994352032"><ele>547.4</ele><time>2026-04-20T15:12:06Z</time></trkpt><trkpt lat="43.52873197643017" lon="12.282395314487415"><ele>549.8</ele><time>2026-04-20T15:12:07Z</time></trkpt><trkpt lat="43.528767969686044" lon="12.282482000094042"><ele>552.2</ele><time>2026-04-20T15:12:08Z</time></trkpt><trkpt lat="43.52879777508398" lon="12.282646470592253"><ele>554.6</ele><time>2026-04-20T15:12:10Z</time></trkpt><trkpt lat="43.52877041608014" lon="12.282799439427775"><ele>557.0</ele><time>2026-04-20T15:12:12Z</time></trkpt><trkpt lat="43.52865523789107" lon="12.282811829690909"><ele>557.0</ele><time>2026-04-20T15:12:14Z</time></trkpt><trkpt lat="43.52857607937249" lon="12.282816874009068"><ele>557.0</ele><time>2026-04-20T15:12:15Z</time></trkpt><trkpt lat="43.5284886017158" lon="12.282816333632866"><ele>557.0</ele><time>2026-04-20T15:12:16Z</time></trkpt><trkpt lat="43.52838309126112" lon="12.282824500470662"><ele>557.0</ele><time>2026-04-20T15:12:17Z</time></trkpt><trkpt lat="43.528281952915755" lon="12.282835538257189"><ele>557.0</ele><time>2026-04-20T15:12:18Z</time></trkpt><trkpt lat="43.52818501863529" lon="12.282846465543045"><ele>557.0</ele><time>2026-04-20T15:12:19Z</time></trkpt><trkpt lat="43.52809361336844" lon="12.282864991656501"><ele>557.0</ele><time>2026-04-20T15:12:20Z</time></trkpt><trkpt lat="43.5280149518823" lon="12.282892642003814"><ele>557.0</ele><time>2026-04-20T15:12:21Z</time></trkpt><trkpt lat="43.52794317884572" lon="12.282916282543695"><ele>557.0</ele><time>2026-04-20T15:12:22Z</time></trkpt><trkpt lat="43.52786168880698" lon="12.28293932353616"><ele>557.0</ele><time>2026-04-20T15:12:23Z</time></trkpt><trkpt lat="43.527769729084156" lon="12.282986642502435"><ele>557.0</ele><time>2026-04-20T15:12:24Z</time></trkpt><trkpt lat="43.52769172672945" lon="12.283027746317"><ele>555.5</ele><time>2026-04-20T15:12:25Z</time></trkpt><trkpt lat="43.527614302734214" lon="12.283049014650246"><ele>554.0</ele><time>2026-04-20T15:12:26Z</time></trkpt><trkpt lat="43.52754488080533" lon="12.283043433963575"><ele>552.5</ele><time>2026-04-20T15:12:27Z</time></trkpt><trkpt lat="43.52745955114232" lon="12.283020273107658"><ele>551.0</ele><time>2026-04-20T15:12:28Z</time></trkpt><trkpt lat="43.52739545215935" lon="12.282999977785456"><ele>549.5</ele><time>2026-04-20T15:12:29Z</time></trkpt><trkpt lat="43.52733549021322" lon="12.282969254843517"><ele>548.0</ele><time>2026-04-20T15:12:30Z</time></trkpt><trkpt lat="43.52720595275352" lon="12.283034985335018"><ele>550.8</ele><time>2026-04-20T15:12:32Z</time></trkpt><trkpt lat="43.52718318977103" lon="12.283150011382968"><ele>553.5999999999999</ele><time>2026-04-20T15:12:33Z</time></trkpt><trkpt lat="43.52714180830793" lon="12.283259908014246"><ele>556.4000000000001</ele><time>2026-04-20T15:12:34Z</time></trkpt><trkpt lat="43.52708457462126" lon="12.283361895694528"><ele>559.2</ele><time>2026-04-20T15:12:35Z</time></trkpt><trkpt lat="43.52700989502798" lon="12.283433568675777"><ele>562.0</ele><time>2026-04-20T15:12:36Z</time></trkpt><trkpt lat="43.526917152401666" lon="12.28348269640559"><ele>562.0</ele><time>2026-04-20T15:12:37Z</time></trkpt><trkpt lat="43.5268199376955" lon="12.28350780706047"><ele>562.0</ele><time>2026-04-20T15:12:38Z</time></trkpt><trkpt lat="43.52671749790358" lon="12.283460158158492"><ele>562.0</ele><time>2026-04-20T15:12:39Z</time></trkpt><trkpt lat="43.52663658009387" lon="12.283497283857868"><ele>562.0</ele><time>2026-04-20T15:12:40Z</time></trkpt><trkpt lat="43.52653647546102" lon="12.283582979364878"><ele>562.0</ele><time>2026-04-20T15:12:42Z</time></trkpt><trkpt lat="43.52647382078178" lon="12.283648376800638"><ele>562.0</ele><time>2026-04-20T15:12:43Z</time></trkpt><trkpt lat="43.526394119011854" lon="12.283703258527895"><ele>562.0</ele><time>2026-04-20T15:12:44Z</time></trkpt><trkpt lat="43.52632210196103" lon="12.28373821231941"><ele>562.0</ele><time>2026-04-20T15:12:45Z</time></trkpt><trkpt lat="43.526242730260755" lon="12.283701343127525"><ele>562.0</ele><time>2026-04-20T15:12:46Z</time></trkpt><trkpt lat="43.526162411835756" lon="12.283687907122697"><ele>562.0</ele><time>2026-04-20T15:12:47Z</time></trkpt><trkpt lat="43.5260538456659" lon="12.283686352009273"><ele>562.0</ele><time>2026-04-20T15:12:48Z</time></trkpt><trkpt lat="43.52595360025726" lon="12.283660317022557"><ele>561.8000000000001</ele><time>2026-04-20T15:12:49Z</time></trkpt><trkpt lat="43.52586447403481" lon="12.28369925608511"><ele>561.6</ele><time>2026-04-20T15:12:50Z</time></trkpt><trkpt lat="43.52576929726091" lon="12.283729079984848"><ele>561.4000000000001</ele><time>2026-04-20T15:12:51Z</time></trkpt><trkpt lat="43.5256614706941" lon="12.283763071332821"><ele>561.2</ele><time>2026-04-20T15:12:52Z</time></trkpt><trkpt lat="43.525571402368676" lon="12.283787071271659"><ele>561.0</ele><time>2026-04-20T15:12:53Z</time></trkpt><trkpt lat="43.525490859368574" lon="12.283765342104228"><ele>561.0</ele><time>2026-04-20T15:12:54Z</time></trkpt><trkpt lat="43.525420994010325" lon="12.283785649951179"><ele>561.0</ele><time>2026-04-20T15:12:55Z</time></trkpt><trkpt lat="43.525311191502084" lon="12.283853618287726"><ele>561.0</ele><time>2026-04-20T15:12:57Z</time></trkpt><trkpt lat="43.52523333325016" lon="12.283877078306187"><ele>561.0</ele><time>2026-04-20T15:12:58Z</time></trkpt><trkpt lat="43.525150940495216" lon="12.283906144856022"><ele>561.0</ele><time>2026-04-20T15:12:59Z</time></trkpt><trkpt lat="43.52507809984097" lon="12.28393310511879"><ele>561.0</ele><time>2026-04-20T15:13:00Z</time></trkpt><trkpt lat="43.524983445218176" lon="12.283978686421895"><ele>564.2</ele><time>2026-04-20T15:13:02Z</time></trkpt><trkpt lat="43.52493238657145" lon="12.284125072096792"><ele>567.4000000000001</ele><time>2026-04-20T15:13:04Z</time></trkpt><trkpt lat="43.524904984939866" lon="12.28427491657758"><ele>570.6</ele><time>2026-04-20T15:13:06Z</time></trkpt><trkpt lat="43.52484955983977" lon="12.284422484110173"><ele>573.8000000000001</ele><time>2026-04-20T15:13:08Z</time></trkpt><trkpt lat="43.524820056887606" lon="12.284501797446588"><ele>577.0</ele><time>2026-04-20T15:13:09Z</time></trkpt><trkpt lat="43.52478396991138" lon="12.28457501575527"><ele>577.0</ele><time>2026-04-20T15:13:10Z</time></trkpt><trkpt lat="43.52473408562277" lon="12.284643903358626"><ele>577.0</ele><time>2026-04-20T15:13:11Z</time></trkpt><trkpt lat="43.52466649886327" lon="12.284667969984463"><ele>577.0</ele><time>2026-04-20T15:13:12Z</time></trkpt><trkpt lat="43.524595639155145" lon="12.284722026524387"><ele>577.0</ele><time>2026-04-20T15:13:13Z</time></trkpt><trkpt lat="43.524509852279834" lon="12.284808229227316"><ele>577.0</ele><time>2026-04-20T15:13:14Z</time></trkpt><trkpt lat="43.52442323787261" lon="12.284879833299707"><ele>577.0</ele><time>2026-04-20T15:13:15Z</time></trkpt><trkpt lat="43.52433464471858" lon="12.28491769424624"><ele>574.8333333333334</ele><time>2026-04-20T15:13:16Z</time></trkpt><trkpt lat="43.52426063819353" lon="12.284968949933187"><ele>572.6666666666667</ele><time>2026-04-20T15:13:17Z</time></trkpt><trkpt lat="43.524195014756806" lon="12.285032131477877"><ele>570.5</ele><time>2026-04-20T15:13:18Z</time></trkpt><trkpt lat="43.52412799262871" lon="12.285068338950731"><ele>568.3333333333334</ele><time>2026-04-20T15:13:19Z</time></trkpt><trkpt lat="43.52405518262253" lon="12.285101861323058"><ele>566.1666666666666</ele><time>2026-04-20T15:13:20Z</time></trkpt><trkpt lat="43.52397997478214" lon="12.285116732774597"><ele>564.0</ele><time>2026-04-20T15:13:21Z</time></trkpt><trkpt lat="43.523908978312136" lon="12.285091517023046"><ele>564.0</ele><time>2026-04-20T15:13:22Z</time></trkpt><trkpt lat="43.523808744365624" lon="12.284984239663883"><ele>564.0</ele><time>2026-04-20T15:13:24Z</time></trkpt><trkpt lat="43.52374906683869" lon="12.284920706821746"><ele>564.0</ele><time>2026-04-20T15:13:25Z</time></trkpt><trkpt lat="43.52369229661373" lon="12.28485685120844"><ele>564.0</ele><time>2026-04-20T15:13:26Z</time></trkpt><trkpt lat="43.52363486783683" lon="12.284792254840683"><ele>564.0</ele><time>2026-04-20T15:13:27Z</time></trkpt><trkpt lat="43.52357566847017" lon="12.28472566837446"><ele>564.0</ele><time>2026-04-20T15:13:28Z</time></trkpt><trkpt lat="43.52350222757692" lon="12.284648125323136"><ele>562.4</ele><time>2026-04-20T15:13:29Z</time></trkpt><trkpt lat="43.52342459473633" lon="12.284566583947251"><ele>560.8</ele><time>2026-04-20T15:13:30Z</time></trkpt><trkpt lat="43.52334768880389" lon="12.284485806216107"><ele>559.2</ele><time>2026-04-20T15:13:31Z</time></trkpt><trkpt lat="43.5232740943344" lon="12.284410409670505"><ele>557.6</ele><time>2026-04-20T15:13:32Z</time></trkpt><trkpt lat="43.523189763512406" lon="12.28435151804447"><ele>556.0</ele><time>2026-04-20T15:13:33Z</time></trkpt><trkpt lat="43.523119512747364" lon="12.284282624028183"><ele>556.0</ele><time>2026-04-20T15:13:34Z</time></trkpt><trkpt lat="43.52305670794078" lon="12.284192866103133"><ele>556.0</ele><time>2026-04-20T15:13:35Z</time></trkpt><trkpt lat="43.52298498992736" lon="12.284117480811554"><ele>556.0</ele><time>2026-04-20T15:13:36Z</time></trkpt><trkpt lat="43.52291277121837" lon="12.284040496554573"><ele>556.0</ele><time>2026-04-20T15:13:37Z</time></trkpt><trkpt lat="43.52284191155684" lon="12.283964960987888"><ele>556.0</ele><time>2026-04-20T15:13:38Z</time></trkpt><trkpt lat="43.52277185256281" lon="12.283890278934035"><ele>556.2</ele><time>2026-04-20T15:13:39Z</time></trkpt><trkpt lat="43.52269404475714" lon="12.283807336852151"><ele>556.4000000000001</ele><time>2026-04-20T15:13:40Z</time></trkpt><trkpt lat="43.52261676680144" lon="12.283724959549911"><ele>556.6</ele><time>2026-04-20T15:13:41Z</time></trkpt><trkpt lat="43.52254040609714" lon="12.283643559961021"><ele>556.8000000000001</ele><time>2026-04-20T15:13:42Z</time></trkpt><trkpt lat="43.52246548213296" lon="12.28356369197903"><ele>557.0</ele><time>2026-04-20T15:13:43Z</time></trkpt><trkpt lat="43.52239056888113" lon="12.28348383537392"><ele>557.0</ele><time>2026-04-20T15:13:44Z</time></trkpt><trkpt lat="43.52231260927779" lon="12.283402698262394"><ele>557.0</ele><time>2026-04-20T15:13:45Z</time></trkpt><trkpt lat="43.52223645158972" lon="12.283323717645967"><ele>557.0</ele><time>2026-04-20T15:13:46Z</time></trkpt><trkpt lat="43.52216817451873" lon="12.283252909814191"><ele>557.0</ele><time>2026-04-20T15:13:47Z</time></trkpt><trkpt lat="43.522106269786676" lon="12.283187378926318"><ele>557.0</ele><time>2026-04-20T15:13:48Z</time></trkpt><trkpt lat="43.5220439079003" lon="12.283117788607289"><ele>557.0</ele><time>2026-04-20T15:13:49Z</time></trkpt><trkpt lat="43.52198837272678" lon="12.283053209114948"><ele>556.8333333333333</ele><time>2026-04-20T15:13:50Z</time></trkpt><trkpt lat="43.52193115581343" lon="12.282986254329142"><ele>556.6666666666666</ele><time>2026-04-20T15:13:51Z</time></trkpt><trkpt lat="43.52187513578224" lon="12.282920272378114"><ele>556.5</ele><time>2026-04-20T15:13:52Z</time></trkpt><trkpt lat="43.521783883131164" lon="12.282812792627093"><ele>556.3333333333334</ele><time>2026-04-20T15:13:54Z</time></trkpt><trkpt lat="43.521700571796096" lon="12.282714666289674"><ele>556.1666666666667</ele><time>2026-04-20T15:13:56Z</time></trkpt><trkpt lat="43.52165216655301" lon="12.282655674318883"><ele>556.0</ele><time>2026-04-20T15:13:57Z</time></trkpt><trkpt lat="43.52160047887872" lon="12.28259177955565"><ele>556.0</ele><time>2026-04-20T15:13:58Z</time></trkpt><trkpt lat="43.52155136617148" lon="12.28253106791085"><ele>556.0</ele><time>2026-04-20T15:13:59Z</time></trkpt><trkpt lat="43.52149851014482" lon="12.282467553997042"><ele>556.0</ele><time>2026-04-20T15:14:00Z</time></trkpt><trkpt lat="43.52144288566171" lon="12.28240235549855"><ele>556.0</ele><time>2026-04-20T15:14:01Z</time></trkpt><trkpt lat="43.521386176131436" lon="12.282338165343884"><ele>556.0</ele><time>2026-04-20T15:14:02Z</time></trkpt><trkpt lat="43.521328203647066" lon="12.282274706067085"><ele>556.0</ele><time>2026-04-20T15:14:03Z</time></trkpt><trkpt lat="43.52126839347507" lon="12.282210982977007"><ele>556.0</ele><time>2026-04-20T15:14:04Z</time></trkpt><trkpt lat="43.52120670855419" lon="12.28215112373971"><ele>555.5714285714286</ele><time>2026-04-20T15:14:05Z</time></trkpt><trkpt lat="43.521132487620434" lon="12.282107639457706"><ele>555.1428571428571</ele><time>2026-04-20T15:14:06Z</time></trkpt><trkpt lat="43.52106856852875" lon="12.282047520152517"><ele>554.7142857142858</ele><time>2026-04-20T15:14:07Z</time></trkpt><trkpt lat="43.52100779445105" lon="12.281978412512858"><ele>554.2857142857142</ele><time>2026-04-20T15:14:08Z</time></trkpt><trkpt lat="43.520941773071264" lon="12.281945406667672"><ele>553.8571428571429</ele><time>2026-04-20T15:14:09Z</time></trkpt><trkpt lat="43.520890115790394" lon="12.281875062498983"><ele>553.4285714285714</ele><time>2026-04-20T15:14:10Z</time></trkpt><trkpt lat="43.520837296472834" lon="12.281824456951842"><ele>553.0</ele><time>2026-04-20T15:14:11Z</time></trkpt><trkpt lat="43.520784333628946" lon="12.281774165258886"><ele>553.0</ele><time>2026-04-20T15:14:12Z</time></trkpt><trkpt lat="43.52072853901887" lon="12.281719055907795"><ele>553.0</ele><time>2026-04-20T15:14:13Z</time></trkpt><trkpt lat="43.52066929393884" lon="12.281659564129091"><ele>553.0</ele><time>2026-04-20T15:14:14Z</time></trkpt><trkpt lat="43.52060810514565" lon="12.281592198741977"><ele>553.0</ele><time>2026-04-20T15:14:15Z</time></trkpt><trkpt lat="43.52054379303795" lon="12.281544419306538"><ele>553.0</ele><time>2026-04-20T15:14:16Z</time></trkpt><trkpt lat="43.520494940606554" lon="12.281461996503193"><ele>553.0</ele><time>2026-04-20T15:14:17Z</time></trkpt><trkpt lat="43.520432246118645" lon="12.281402644428944"><ele>553.0</ele><time>2026-04-20T15:14:18Z</time></trkpt><trkpt lat="43.5203570722241" lon="12.281374945373491"><ele>552.5</ele><time>2026-04-20T15:14:19Z</time></trkpt><trkpt lat="43.52030447244757" lon="12.281295097377457"><ele>552.0</ele><time>2026-04-20T15:14:20Z</time></trkpt><trkpt lat="43.52024953984598" lon="12.281228286846211"><ele>551.5</ele><time>2026-04-20T15:14:21Z</time></trkpt><trkpt lat="43.52019677643839" lon="12.281152161422273"><ele>551.0</ele><time>2026-04-20T15:14:22Z</time></trkpt><trkpt lat="43.52014884815505" lon="12.281073664617608"><ele>550.5</ele><time>2026-04-20T15:14:23Z</time></trkpt><trkpt lat="43.52009922887066" lon="12.28099775553865"><ele>550.0</ele><time>2026-04-20T15:14:24Z</time></trkpt><trkpt lat="43.520045322355465" lon="12.280929156516107"><ele>550.0</ele><time>2026-04-20T15:14:25Z</time></trkpt><trkpt lat="43.5199816828027" lon="12.280874131360422"><ele>550.0</ele><time>2026-04-20T15:14:26Z</time></trkpt><trkpt lat="43.5199090693599" lon="12.280857451908584"><ele>550.0</ele><time>2026-04-20T15:14:27Z</time></trkpt><trkpt lat="43.519842367749675" lon="12.280837150942949"><ele>550.0</ele><time>2026-04-20T15:14:28Z</time></trkpt><trkpt lat="43.51976583762034" lon="12.280820689026093"><ele>550.0</ele><time>2026-04-20T15:14:29Z</time></trkpt><trkpt lat="43.51968648548235" lon="12.280779789232556"><ele>550.0</ele><time>2026-04-20T15:14:30Z</time></trkpt><trkpt lat="43.519602560398994" lon="12.280759710592664"><ele>547.2</ele><time>2026-04-20T15:14:31Z</time></trkpt><trkpt lat="43.51952334630356" lon="12.280764548752986"><ele>544.4</ele><time>2026-04-20T15:14:32Z</time></trkpt><trkpt lat="43.51940861196008" lon="12.280743107956736"><ele>541.6</ele><time>2026-04-20T15:14:34Z</time></trkpt><trkpt lat="43.5193045724768" lon="12.28071866450257"><ele>538.8</ele><time>2026-04-20T15:14:36Z</time></trkpt><trkpt lat="43.51923776249302" lon="12.28069648277833"><ele>536.0</ele><time>2026-04-20T15:14:39Z</time></trkpt><trkpt lat="43.519448461742385" lon="12.280746547294722"><ele>536.0</ele><time>2026-04-20T15:15:08Z</time></trkpt><trkpt lat="43.51951105310854" lon="12.280759502383289"><ele>536.0</ele><time>2026-04-20T15:15:09Z</time></trkpt><trkpt lat="43.51958158349181" lon="12.280776169292068"><ele>536.0</ele><time>2026-04-20T15:15:10Z</time></trkpt><trkpt lat="43.519649439685445" lon="12.280792083089086"><ele>536.0</ele><time>2026-04-20T15:15:11Z</time></trkpt><trkpt lat="43.51971809377257" lon="12.280802328434879"><ele>536.0</ele><time>2026-04-20T15:15:12Z</time></trkpt><trkpt lat="43.519785255881544" lon="12.280825956943353"><ele>536.0</ele><time>2026-04-20T15:15:13Z</time></trkpt><trkpt lat="43.519857617387714" lon="12.280853028382882"><ele>536.0</ele><time>2026-04-20T15:15:14Z</time></trkpt><trkpt lat="43.51992874119068" lon="12.280884540384504"><ele>538.3333333333333</ele><time>2026-04-20T15:15:15Z</time></trkpt><trkpt lat="43.51999983459159" lon="12.280935401801129"><ele>540.6666666666666</ele><time>2026-04-20T15:15:16Z</time></trkpt><trkpt lat="43.52006498367122" lon="12.281009651056399"><ele>543.0</ele><time>2026-04-20T15:15:17Z</time></trkpt><trkpt lat="43.52012413475509" lon="12.281091602734138"><ele>545.3333333333334</ele><time>2026-04-20T15:15:18Z</time></trkpt><trkpt lat="43.52017835640585" lon="12.281176671977631"><ele>547.6666666666667</ele><time>2026-04-20T15:15:19Z</time></trkpt><trkpt lat="43.52023529080599" lon="12.28125475576696"><ele>550.0</ele><time>2026-04-20T15:15:20Z</time></trkpt><trkpt lat="43.52029239552293" lon="12.281324709860744"><ele>550.0</ele><time>2026-04-20T15:15:21Z</time></trkpt><trkpt lat="43.520350592613944" lon="12.281377756274855"><ele>550.0</ele><time>2026-04-20T15:15:22Z</time></trkpt><trkpt lat="43.52042026758091" lon="12.281434029627963"><ele>550.0</ele><time>2026-04-20T15:15:23Z</time></trkpt><trkpt lat="43.520494894632776" lon="12.281496811418782"><ele>550.0</ele><time>2026-04-20T15:15:24Z</time></trkpt><trkpt lat="43.520570868947196" lon="12.281575500082324"><ele>550.0</ele><time>2026-04-20T15:15:25Z</time></trkpt><trkpt lat="43.52064277731647" lon="12.281657232116224"><ele>550.0</ele><time>2026-04-20T15:15:26Z</time></trkpt><trkpt lat="43.52072268731115" lon="12.281745854461716"><ele>550.6</ele><time>2026-04-20T15:15:27Z</time></trkpt><trkpt lat="43.520792863571664" lon="12.281826704813557"><ele>551.2</ele><time>2026-04-20T15:15:28Z</time></trkpt><trkpt lat="43.520875739845344" lon="12.281897621888769"><ele>551.8</ele><time>2026-04-20T15:15:29Z</time></trkpt><trkpt lat="43.5209591628265" lon="12.281965324272077"><ele>552.4</ele><time>2026-04-20T15:15:30Z</time></trkpt><trkpt lat="43.52104462421751" lon="12.282029873543177"><ele>553.0</ele><time>2026-04-20T15:15:31Z</time></trkpt><trkpt lat="43.5211324779733" lon="12.282106778237498"><ele>553.0</ele><time>2026-04-20T15:15:32Z</time></trkpt><trkpt lat="43.52121980199997" lon="12.282192920305372"><ele>553.0</ele><time>2026-04-20T15:15:33Z</time></trkpt><trkpt lat="43.52130722765519" lon="12.2822867724658"><ele>553.0</ele><time>2026-04-20T15:15:34Z</time></trkpt><trkpt lat="43.52139381844597" lon="12.282386876795561"><ele>553.0</ele><time>2026-04-20T15:15:35Z</time></trkpt><trkpt lat="43.52147831411724" lon="12.2824935766814"><ele>553.0</ele><time>2026-04-20T15:15:36Z</time></trkpt><trkpt lat="43.52156283264546" lon="12.282594383441783"><ele>553.6</ele><time>2026-04-20T15:15:37Z</time></trkpt><trkpt lat="43.52163560267652" lon="12.282682893317954"><ele>554.1999999999999</ele><time>2026-04-20T15:15:38Z</time></trkpt><trkpt lat="43.52170820565091" lon="12.28276576094049"><ele>554.8</ele><time>2026-04-20T15:15:39Z</time></trkpt><trkpt lat="43.52177753692235" lon="12.282851964406609"><ele>555.4</ele><time>2026-04-20T15:15:40Z</time></trkpt><trkpt lat="43.52186132932772" lon="12.282949418299584"><ele>556.0</ele><time>2026-04-20T15:15:41Z</time></trkpt><trkpt lat="43.5219426130513" lon="12.283043569559565"><ele>556.25</ele><time>2026-04-20T15:15:42Z</time></trkpt><trkpt lat="43.522037473712984" lon="12.283142384179563"><ele>556.5</ele><time>2026-04-20T15:15:43Z</time></trkpt><trkpt lat="43.522130024378654" lon="12.283248835837382"><ele>556.75</ele><time>2026-04-20T15:15:44Z</time></trkpt><trkpt lat="43.52221838360428" lon="12.283362309179319"><ele>557.0</ele><time>2026-04-20T15:15:45Z</time></trkpt><trkpt lat="43.522314052944054" lon="12.283449515281017"><ele>557.0</ele><time>2026-04-20T15:15:46Z</time></trkpt><trkpt lat="43.52240232683802" lon="12.283534319726405"><ele>557.0</ele><time>2026-04-20T15:15:47Z</time></trkpt><trkpt lat="43.52249933975728" lon="12.283631453072319"><ele>557.0</ele><time>2026-04-20T15:15:48Z</time></trkpt><trkpt lat="43.522592201771744" lon="12.28374300529522"><ele>557.0</ele><time>2026-04-20T15:15:49Z</time></trkpt><trkpt lat="43.522693524430856" lon="12.28385007034216"><ele>556.75</ele><time>2026-04-20T15:15:50Z</time></trkpt><trkpt lat="43.5227993753429" lon="12.283962200598317"><ele>556.5</ele><time>2026-04-20T15:15:51Z</time></trkpt><trkpt lat="43.52290806477277" lon="12.284075913125822"><ele>556.25</ele><time>2026-04-20T15:15:52Z</time></trkpt><trkpt lat="43.52301456396144" lon="12.284190322392485"><ele>556.0</ele><time>2026-04-20T15:15:53Z</time></trkpt><trkpt lat="43.5231277003948" lon="12.284296686821847"><ele>556.0</ele><time>2026-04-20T15:15:54Z</time></trkpt><trkpt lat="43.52323391048177" lon="12.28440360733871"><ele>556.0</ele><time>2026-04-20T15:15:55Z</time></trkpt><trkpt lat="43.52331839876133" lon="12.284512610542244"><ele>556.0</ele><time>2026-04-20T15:15:56Z</time></trkpt><trkpt lat="43.523398685782084" lon="12.28459696724093"><ele>556.0</ele><time>2026-04-20T15:15:57Z</time></trkpt><trkpt lat="43.523465148382314" lon="12.28466677592667"><ele>556.0</ele><time>2026-04-20T15:15:58Z</time></trkpt><trkpt lat="43.52353001066456" lon="12.284717091820191"><ele>556.0</ele><time>2026-04-20T15:15:59Z</time></trkpt><trkpt lat="43.52358197697202" lon="12.284805886559454"><ele>556.0</ele><time>2026-04-20T15:16:01Z</time></trkpt><trkpt lat="43.5234468015712" lon="12.285034553218292"><ele>556.0</ele><time>2026-04-20T15:16:14Z</time></trkpt><trkpt lat="43.523382273115025" lon="12.285134979880132"><ele>556.0</ele><time>2026-04-20T15:16:16Z</time></trkpt><trkpt lat="43.523274689069694" lon="12.285193867235753"><ele>556.0</ele><time>2026-04-20T15:16:18Z</time></trkpt><trkpt lat="43.52315124674444" lon="12.285177669217472"><ele>556.0</ele><time>2026-04-20T15:16:20Z</time></trkpt><trkpt lat="43.523087814824265" lon="12.285164093554725"><ele>556.0</ele><time>2026-04-20T15:16:21Z</time></trkpt><trkpt lat="43.523019463029556" lon="12.285148311124962"><ele>556.0</ele><time>2026-04-20T15:16:22Z</time></trkpt><trkpt lat="43.52295474428026" lon="12.285136445950387"><ele>556.0</ele><time>2026-04-20T15:16:23Z</time></trkpt><trkpt lat="43.52288986999911" lon="12.285131522109058"><ele>556.0</ele><time>2026-04-20T15:16:24Z</time></trkpt><trkpt lat="43.52277268613843" lon="12.285136102113334"><ele>554.6</ele><time>2026-04-20T15:16:26Z</time></trkpt><trkpt lat="43.522664762578046" lon="12.285187309021309"><ele>553.2</ele><time>2026-04-20T15:16:28Z</time></trkpt><trkpt lat="43.52256736057243" lon="12.285279736581119"><ele>551.8</ele><time>2026-04-20T15:16:30Z</time></trkpt><trkpt lat="43.522513370654" lon="12.28533263882959"><ele>550.4</ele><time>2026-04-20T15:16:31Z</time></trkpt><trkpt lat="43.522453440284856" lon="12.28539719847689"><ele>549.0</ele><time>2026-04-20T15:16:32Z</time></trkpt><trkpt lat="43.52238451103685" lon="12.285451974830439"><ele>549.0</ele><time>2026-04-20T15:16:33Z</time></trkpt><trkpt lat="43.52231674971707" lon="12.285510708293836"><ele>549.0</ele><time>2026-04-20T15:16:34Z</time></trkpt><trkpt lat="43.52223868085145" lon="12.28555425729684"><ele>549.0</ele><time>2026-04-20T15:16:35Z</time></trkpt><trkpt lat="43.52215981124427" lon="12.285595604458743"><ele>549.0</ele><time>2026-04-20T15:16:36Z</time></trkpt><trkpt lat="43.52207568783964" lon="12.285630239791233"><ele>549.0</ele><time>2026-04-20T15:16:37Z</time></trkpt><trkpt lat="43.52198977216279" lon="12.285668073541222"><ele>549.0</ele><time>2026-04-20T15:16:38Z</time></trkpt><trkpt lat="43.5219065338302" lon="12.285707377371306"><ele>546.5</ele><time>2026-04-20T15:16:39Z</time></trkpt><trkpt lat="43.521822962637664" lon="12.285757805691093"><ele>544.0</ele><time>2026-04-20T15:16:40Z</time></trkpt><trkpt lat="43.52174426168524" lon="12.285818688860736"><ele>541.5</ele><time>2026-04-20T15:16:41Z</time></trkpt><trkpt lat="43.52167033400257" lon="12.285886335861147"><ele>539.0</ele><time>2026-04-20T15:16:42Z</time></trkpt><trkpt lat="43.52160376768264" lon="12.285964670747367"><ele>536.5</ele><time>2026-04-20T15:16:43Z</time></trkpt><trkpt lat="43.521538267330264" lon="12.286046173597589"><ele>534.0</ele><time>2026-04-20T15:16:44Z</time></trkpt><trkpt lat="43.52146868067066" lon="12.286125894268206"><ele>534.0</ele><time>2026-04-20T15:16:45Z</time></trkpt><trkpt lat="43.52140772307394" lon="12.286195099151643"><ele>534.0</ele><time>2026-04-20T15:16:46Z</time></trkpt><trkpt lat="43.52134942894687" lon="12.286253309677493"><ele>534.0</ele><time>2026-04-20T15:16:47Z</time></trkpt><trkpt lat="43.521248397350384" lon="12.28634632667257"><ele>534.0</ele><time>2026-04-20T15:16:49Z</time></trkpt><trkpt lat="43.52116018902875" lon="12.286441019971152"><ele>534.0</ele><time>2026-04-20T15:16:51Z</time></trkpt><trkpt lat="43.52110559765841" lon="12.286505781311915"><ele>532.3333333333334</ele><time>2026-04-20T15:16:52Z</time></trkpt><trkpt lat="43.52104255934794" lon="12.28658149071737"><ele>530.6666666666666</ele><time>2026-04-20T15:16:53Z</time></trkpt><trkpt lat="43.52098250657244" lon="12.286662264221539"><ele>529.0</ele><time>2026-04-20T15:16:54Z</time></trkpt><trkpt lat="43.520919421171826" lon="12.286735145725435"><ele>527.3333333333333</ele><time>2026-04-20T15:16:55Z</time></trkpt><trkpt lat="43.52086358792957" lon="12.286804608812648"><ele>525.6666666666666</ele><time>2026-04-20T15:16:56Z</time></trkpt><trkpt lat="43.52081258496787" lon="12.286870768363034"><ele>524.0</ele><time>2026-04-20T15:16:57Z</time></trkpt><trkpt lat="43.520864152315866" lon="12.287114129471073"><ele>524.0</ele><time>2026-04-20T15:16:58Z</time></trkpt><trkpt lat="43.520810067035995" lon="12.287170996737595"><ele>524.0</ele><time>2026-04-20T15:16:59Z</time></trkpt><trkpt lat="43.52074868029139" lon="12.28722759614503"><ele>524.0</ele><time>2026-04-20T15:17:00Z</time></trkpt><trkpt lat="43.520648244328946" lon="12.287321889729041"><ele>524.0</ele><time>2026-04-20T15:17:02Z</time></trkpt><trkpt lat="43.520586778530884" lon="12.287367134979398"><ele>524.0</ele><time>2026-04-20T15:17:03Z</time></trkpt><trkpt lat="43.520495745715614" lon="12.287437441266762"><ele>524.0</ele><time>2026-04-20T15:17:05Z</time></trkpt><trkpt lat="43.520471809321386" lon="12.287641605420438"><ele>523.1666666666666</ele><time>2026-04-20T15:17:07Z</time></trkpt><trkpt lat="43.52044294973269" lon="12.287721024480735"><ele>522.3333333333333</ele><time>2026-04-20T15:17:07.999Z</time></trkpt><trkpt lat="43.52040060871287" lon="12.287801133147799"><ele>521.5</ele><time>2026-04-20T15:17:08.999Z</time></trkpt><trkpt lat="43.52034598011285" lon="12.287895691293963"><ele>520.6666666666666</ele><time>2026-04-20T15:17:09.999Z</time></trkpt><trkpt lat="43.52028236088697" lon="12.287991317167215"><ele>519.8333333333334</ele><time>2026-04-20T15:17:10.999Z</time></trkpt><trkpt lat="43.52021364205958" lon="12.288082636110406"><ele>519.0</ele><time>2026-04-20T15:17:11.999Z</time></trkpt><trkpt lat="43.5201481853806" lon="12.288160037698281"><ele>516.5</ele><time>2026-04-20T15:17:12.999Z</time></trkpt><trkpt lat="43.520080601473076" lon="12.288229140589328"><ele>514.0</ele><time>2026-04-20T15:17:13.999Z</time></trkpt><trkpt lat="43.52001158852124" lon="12.288288096392844"><ele>511.5</ele><time>2026-04-20T15:17:14.999Z</time></trkpt><trkpt lat="43.51994373470151" lon="12.28833999356808"><ele>509.0</ele><time>2026-04-20T15:17:15.999Z</time></trkpt><trkpt lat="43.51987363742377" lon="12.288386616666381"><ele>506.5</ele><time>2026-04-20T15:17:16.999Z</time></trkpt><trkpt lat="43.51979491820998" lon="12.288421950181384"><ele>504.0</ele><time>2026-04-20T15:17:17.999Z</time></trkpt><trkpt lat="43.519715595577146" lon="12.288448034566997"><ele>504.0</ele><time>2026-04-20T15:17:18.999Z</time></trkpt><trkpt lat="43.51962754140243" lon="12.288464514059111"><ele>504.0</ele><time>2026-04-20T15:17:19.999Z</time></trkpt><trkpt lat="43.51953677072562" lon="12.288475335809867"><ele>504.0</ele><time>2026-04-20T15:17:20.999Z</time></trkpt><trkpt lat="43.51944015151506" lon="12.288481630641014"><ele>504.0</ele><time>2026-04-20T15:17:21.999Z</time></trkpt><trkpt lat="43.519345700473565" lon="12.288485815919856"><ele>504.0</ele><time>2026-04-20T15:17:22.999Z</time></trkpt><trkpt lat="43.5192490982558" lon="12.28847723076881"><ele>503.6666666666667</ele><time>2026-04-20T15:17:23.999Z</time></trkpt><trkpt lat="43.51916172944063" lon="12.288468673822498"><ele>503.33333333333337</ele><time>2026-04-20T15:17:24.999Z</time></trkpt><trkpt lat="43.519084028517554" lon="12.288465484496095"><ele>503.0</ele><time>2026-04-20T15:17:25.999Z</time></trkpt><trkpt lat="43.51900451271662" lon="12.288467328195939"><ele>502.6666666666667</ele><time>2026-04-20T15:17:26.999Z</time></trkpt><trkpt lat="43.51892855289017" lon="12.288477791171053"><ele>502.33333333333337</ele><time>2026-04-20T15:17:27.999Z</time></trkpt><trkpt lat="43.51883836990095" lon="12.288499030734929"><ele>502.0</ele><time>2026-04-20T15:17:28.999Z</time></trkpt><trkpt lat="43.51874180524108" lon="12.288537760110845"><ele>501.0</ele><time>2026-04-20T15:17:29.999Z</time></trkpt><trkpt lat="43.51863141902979" lon="12.288583552248685"><ele>500.00000000000006</ele><time>2026-04-20T15:17:30.999Z</time></trkpt><trkpt lat="43.51852987566091" lon="12.288627574324437"><ele>499.00000000000006</ele><time>2026-04-20T15:17:31.999Z</time></trkpt><trkpt lat="43.518431896778424" lon="12.288670431541426"><ele>498.0</ele><time>2026-04-20T15:17:32.999Z</time></trkpt><trkpt lat="43.51833402171003" lon="12.288706061527849"><ele>497.0</ele><time>2026-04-20T15:17:33.999Z</time></trkpt><trkpt lat="43.51824068026443" lon="12.288731799913855"><ele>496.99999999999994</ele><time>2026-04-20T15:17:34.999Z</time></trkpt><trkpt lat="43.518150114686385" lon="12.288751547904655"><ele>497.0</ele><time>2026-04-20T15:17:35.999Z</time></trkpt><trkpt lat="43.518063247382706" lon="12.288770466017622"><ele>497.0</ele><time>2026-04-20T15:17:36.999Z</time></trkpt><trkpt lat="43.517976349723824" lon="12.288780279449377"><ele>497.0</ele><time>2026-04-20T15:17:37.999Z</time></trkpt><trkpt lat="43.517899823459864" lon="12.288802729158348"><ele>496.99999999999994</ele><time>2026-04-20T15:17:38.999Z</time></trkpt><trkpt lat="43.51782466747507" lon="12.288809353556415"><ele>497.0</ele><time>2026-04-20T15:17:39.999Z</time></trkpt><trkpt lat="43.517754196005725" lon="12.288812601963455"><ele>496.40000000000003</ele><time>2026-04-20T15:17:40.999Z</time></trkpt><trkpt lat="43.51768974352973" lon="12.288812757837697"><ele>495.80000000000007</ele><time>2026-04-20T15:17:41.999Z</time></trkpt><trkpt lat="43.5175666936948" lon="12.288806199267082"><ele>495.2</ele><time>2026-04-20T15:17:43.999Z</time></trkpt><trkpt lat="43.517495151243885" lon="12.288804193166298"><ele>494.6</ele><time>2026-04-20T15:17:44.999Z</time></trkpt><trkpt lat="43.517387614384866" lon="12.288775686210366"><ele>494.0</ele><time>2026-04-20T15:17:46.999Z</time></trkpt><trkpt lat="43.51725819456047" lon="12.2887768398221"><ele>494.0</ele><time>2026-04-20T15:17:48.999Z</time></trkpt><trkpt lat="43.5171733603199" lon="12.28874827365921"><ele>494.0</ele><time>2026-04-20T15:17:49.999Z</time></trkpt><trkpt lat="43.51706544604076" lon="12.288724388347717"><ele>494.0</ele><time>2026-04-20T15:17:50.999Z</time></trkpt><trkpt lat="43.51695131440383" lon="12.288697983909188"><ele>494.0</ele><time>2026-04-20T15:17:51.999Z</time></trkpt><trkpt lat="43.51684870189045" lon="12.28866783347746"><ele>494.0</ele><time>2026-04-20T15:17:52.999Z</time></trkpt><trkpt lat="43.5167564321999" lon="12.288646576631498"><ele>493.49999999999994</ele><time>2026-04-20T15:17:53.999Z</time></trkpt><trkpt lat="43.51666672765522" lon="12.28862127156316"><ele>493.0</ele><time>2026-04-20T15:17:54.999Z</time></trkpt><trkpt lat="43.516575339339944" lon="12.288610211288534"><ele>492.5</ele><time>2026-04-20T15:17:55.999Z</time></trkpt><trkpt lat="43.516494248584934" lon="12.288591648709543"><ele>492.0</ele><time>2026-04-20T15:17:56.999Z</time></trkpt><trkpt lat="43.51640413109342" lon="12.288612301908776"><ele>491.49999999999994</ele><time>2026-04-20T15:17:57.999Z</time></trkpt><trkpt lat="43.51634479361889" lon="12.288643456251714"><ele>491.0</ele><time>2026-04-20T15:17:58.999Z</time></trkpt><trkpt lat="43.516279789826484" lon="12.288754950240056"><ele>491.0</ele><time>2026-04-20T15:18:00.999Z</time></trkpt><trkpt lat="43.51627160132957" lon="12.288897915702957"><ele>491.0</ele><time>2026-04-20T15:18:02.999Z</time></trkpt><trkpt lat="43.51632965585624" lon="12.288978237089447"><ele>491.0</ele><time>2026-04-20T15:18:03.999Z</time></trkpt><trkpt lat="43.516373673712444" lon="12.289082131761926"><ele>491.0</ele><time>2026-04-20T15:18:04.999Z</time></trkpt><trkpt lat="43.51641318297285" lon="12.289190914290344"><ele>491.0</ele><time>2026-04-20T15:18:05.999Z</time></trkpt><trkpt lat="43.51643053751769" lon="12.289310589506107"><ele>490.99999999999994</ele><time>2026-04-20T15:18:06.999Z</time></trkpt><trkpt lat="43.51645610640457" lon="12.289408539114119"><ele>491.0</ele><time>2026-04-20T15:18:07.999Z</time></trkpt><trkpt lat="43.51647399418901" lon="12.289509304768602"><ele>491.0</ele><time>2026-04-20T15:18:08.999Z</time></trkpt><trkpt lat="43.516494528524696" lon="12.289604991673864"><ele>491.0</ele><time>2026-04-20T15:18:09.999Z</time></trkpt><trkpt lat="43.51650849719464" lon="12.289697535531658"><ele>490.99999999999994</ele><time>2026-04-20T15:18:10.999Z</time></trkpt><trkpt lat="43.516467186221576" lon="12.289828034654235"><ele>491.0</ele><time>2026-04-20T15:18:12.999Z</time></trkpt><trkpt lat="43.516407948998854" lon="12.28989563316781"><ele>487.8</ele><time>2026-04-20T15:18:13.999Z</time></trkpt><trkpt lat="43.51633046688937" lon="12.28996278021538"><ele>484.6</ele><time>2026-04-20T15:18:14.999Z</time></trkpt><trkpt lat="43.51622376481358" lon="12.290028942724156"><ele>481.4</ele><time>2026-04-20T15:18:15.999Z</time></trkpt><trkpt lat="43.51611622368793" lon="12.290096534080833"><ele>478.2</ele><time>2026-04-20T15:18:16.999Z</time></trkpt><trkpt lat="43.51601500553916" lon="12.290152377819563"><ele>475.0</ele><time>2026-04-20T15:18:17.999Z</time></trkpt><trkpt lat="43.515918461710235" lon="12.290198559636103"><ele>474.6</ele><time>2026-04-20T15:18:18.999Z</time></trkpt><trkpt lat="43.51583582164352" lon="12.290249900318276"><ele>474.2</ele><time>2026-04-20T15:18:19.999Z</time></trkpt><trkpt lat="43.515762377810404" lon="12.290308143692437"><ele>473.79999999999995</ele><time>2026-04-20T15:18:20.999Z</time></trkpt><trkpt lat="43.515660818127564" lon="12.290373022756203"><ele>473.4</ele><time>2026-04-20T15:18:22.999Z</time></trkpt><trkpt lat="43.515581426386866" lon="12.290263143234101"><ele>473.0</ele><time>2026-04-20T15:18:24.999Z</time></trkpt><trkpt lat="43.515580853634546" lon="12.29008817375089"><ele>472.99999999999994</ele><time>2026-04-20T15:18:26.999Z</time></trkpt><trkpt lat="43.515579293011456" lon="12.28997052667408"><ele>473.0</ele><time>2026-04-20T15:18:27.999Z</time></trkpt><trkpt lat="43.51557782965694" lon="12.289854245977732"><ele>473.0</ele><time>2026-04-20T15:18:28.999Z</time></trkpt><trkpt lat="43.515563922164965" lon="12.289742008399866"><ele>473.0</ele><time>2026-04-20T15:18:29.999Z</time></trkpt><trkpt lat="43.515571664736505" lon="12.289653857833668"><ele>472.99999999999994</ele><time>2026-04-20T15:18:30.999Z</time></trkpt><trkpt lat="43.51554166604991" lon="12.28952595636917"><ele>473.0</ele><time>2026-04-20T15:18:32.999Z</time></trkpt><trkpt lat="43.51541587530136" lon="12.289491722042621"><ele>471.3333333333333</ele><time>2026-04-20T15:18:34.999Z</time></trkpt><trkpt lat="43.51534519049927" lon="12.289513192443785"><ele>469.66666666666663</ele><time>2026-04-20T15:18:35.999Z</time></trkpt><trkpt lat="43.515258277796555" lon="12.289504468002384"><ele>468.0</ele><time>2026-04-20T15:18:36.999Z</time></trkpt><trkpt lat="43.51516374374436" lon="12.289513171410398"><ele>466.33333333333337</ele><time>2026-04-20T15:18:37.999Z</time></trkpt><trkpt lat="43.51506729593534" lon="12.28952120490077"><ele>464.6666666666667</ele><time>2026-04-20T15:18:38.999Z</time></trkpt><trkpt lat="43.51497546421781" lon="12.289526596614175"><ele>463.0</ele><time>2026-04-20T15:18:39.999Z</time></trkpt><trkpt lat="43.51489014631221" lon="12.289526794726946"><ele>463.0</ele><time>2026-04-20T15:18:40.999Z</time></trkpt><trkpt lat="43.51481007249381" lon="12.289541596816669"><ele>462.99999999999994</ele><time>2026-04-20T15:18:41.999Z</time></trkpt><trkpt lat="43.5147388758536" lon="12.289499206016275"><ele>463.0</ele><time>2026-04-20T15:18:42.999Z</time></trkpt><trkpt lat="43.51467000433935" lon="12.289470845329864"><ele>463.0</ele><time>2026-04-20T15:18:43.999Z</time></trkpt><trkpt lat="43.51461210982881" lon="12.289420152682176"><ele>462.99999999999994</ele><time>2026-04-20T15:18:44.999Z</time></trkpt><trkpt lat="43.514545769879746" lon="12.289372219974432"><ele>463.0</ele><time>2026-04-20T15:18:45.999Z</time></trkpt><trkpt lat="43.514474974393515" lon="12.289340703554862"><ele>463.0</ele><time>2026-04-20T15:18:46.999Z</time></trkpt><trkpt lat="43.51439583075339" lon="12.289338327985245"><ele>461.59999999999997</ele><time>2026-04-20T15:18:47.999Z</time></trkpt><trkpt lat="43.5143093371014" lon="12.28934864113539"><ele>460.19999999999993</ele><time>2026-04-20T15:18:48.999Z</time></trkpt><trkpt lat="43.514225558694434" lon="12.289350021791753"><ele>458.8</ele><time>2026-04-20T15:18:49.999Z</time></trkpt><trkpt lat="43.51412713593263" lon="12.289344025927665"><ele>457.4</ele><time>2026-04-20T15:18:50.999Z</time></trkpt><trkpt lat="43.514034107744024" lon="12.289336915536865"><ele>456.0</ele><time>2026-04-20T15:18:51.999Z</time></trkpt><trkpt lat="43.5139469352485" lon="12.289330364644034"><ele>456.0</ele><time>2026-04-20T15:18:52.999Z</time></trkpt><trkpt lat="43.51386287327559" lon="12.28932404755066"><ele>455.99999999999994</ele><time>2026-04-20T15:18:53.999Z</time></trkpt><trkpt lat="43.513785920837044" lon="12.289319994762383"><ele>456.0</ele><time>2026-04-20T15:18:54.999Z</time></trkpt><trkpt lat="43.513713415961064" lon="12.289317183135646"><ele>456.0</ele><time>2026-04-20T15:18:55.999Z</time></trkpt><trkpt lat="43.51364156102268" lon="12.289314396703807"><ele>455.99999999999994</ele><time>2026-04-20T15:18:56.999Z</time></trkpt><trkpt lat="43.51357351438412" lon="12.289316262659892"><ele>456.0</ele><time>2026-04-20T15:18:57.999Z</time></trkpt><trkpt lat="43.51349960909921" lon="12.289332688893925"><ele>456.0</ele><time>2026-04-20T15:18:58.999Z</time></trkpt><trkpt lat="43.51342581937919" lon="12.28936725390326"><ele>455.1666666666667</ele><time>2026-04-20T15:18:59.999Z</time></trkpt><trkpt lat="43.513354335269526" lon="12.289434498561425"><ele>454.33333333333337</ele><time>2026-04-20T15:19:00.999Z</time></trkpt><trkpt lat="43.51329196400482" lon="12.289528062875647"><ele>453.5</ele><time>2026-04-20T15:19:01.999Z</time></trkpt><trkpt lat="43.51326812389808" lon="12.28967201995516"><ele>452.6666666666667</ele><time>2026-04-20T15:19:02.999Z</time></trkpt><trkpt lat="43.513236792419995" lon="12.289772871413987"><ele>451.83333333333337</ele><time>2026-04-20T15:19:03.999Z</time></trkpt><trkpt lat="43.51320235768909" lon="12.28985664635083"><ele>451.0</ele><time>2026-04-20T15:19:04.999Z</time></trkpt><trkpt lat="43.51314676359339" lon="12.289992834589432"><ele>450.83333333333337</ele><time>2026-04-20T15:19:06.999Z</time></trkpt><trkpt lat="43.513101343576814" lon="12.290071522945315"><ele>450.6666666666667</ele><time>2026-04-20T15:19:07.999Z</time></trkpt><trkpt lat="43.51304903775216" lon="12.290136459629133"><ele>450.5</ele><time>2026-04-20T15:19:08.999Z</time></trkpt><trkpt lat="43.512982471501125" lon="12.290187524383635"><ele>450.33333333333337</ele><time>2026-04-20T15:19:09.999Z</time></trkpt><trkpt lat="43.51289159227599" lon="12.290222233950736"><ele>450.1666666666667</ele><time>2026-04-20T15:19:10.999Z</time></trkpt><trkpt lat="43.512792464451415" lon="12.290241833682451"><ele>450.0</ele><time>2026-04-20T15:19:11.999Z</time></trkpt><trkpt lat="43.51267538980198" lon="12.290264422917547"><ele>450.0</ele><time>2026-04-20T15:19:12.999Z</time></trkpt><trkpt lat="43.51255553802254" lon="12.290285430833226"><ele>450.0</ele><time>2026-04-20T15:19:13.999Z</time></trkpt><trkpt lat="43.51242794409417" lon="12.290319518196318"><ele>450.0</ele><time>2026-04-20T15:19:14.999Z</time></trkpt><trkpt lat="43.51231463337787" lon="12.290369582685688"><ele>450.0</ele><time>2026-04-20T15:19:15.999Z</time></trkpt><trkpt lat="43.51222394380967" lon="12.290448425656331"><ele>450.0</ele><time>2026-04-20T15:19:16.999Z</time></trkpt><trkpt lat="43.51212496755144" lon="12.290521043733586"><ele>450.0</ele><time>2026-04-20T15:19:17.999Z</time></trkpt><trkpt lat="43.51202611864396" lon="12.290608013670441"><ele>450.0</ele><time>2026-04-20T15:19:18.999Z</time></trkpt><trkpt lat="43.51192040173697" lon="12.290694375941975"><ele>450.0</ele><time>2026-04-20T15:19:19.999Z</time></trkpt><trkpt lat="43.511813323894984" lon="12.29078499065106"><ele>446.25</ele><time>2026-04-20T15:19:20.999Z</time></trkpt><trkpt lat="43.51170102418166" lon="12.290868651468854"><ele>442.5</ele><time>2026-04-20T15:19:21.999Z</time></trkpt><trkpt lat="43.51159627701115" lon="12.290957823910391"><ele>438.75</ele><time>2026-04-20T15:19:22.999Z</time></trkpt><trkpt lat="43.511480368146245" lon="12.29101522226212"><ele>435.0</ele><time>2026-04-20T15:19:23.999Z</time></trkpt><trkpt lat="43.511367028217315" lon="12.291070770363213"><ele>435.0</ele><time>2026-04-20T15:19:24.999Z</time></trkpt><trkpt lat="43.51126276603364" lon="12.291109935838039"><ele>435.0</ele><time>2026-04-20T15:19:25.999Z</time></trkpt><trkpt lat="43.511159403937576" lon="12.291131871468432"><ele>435.0</ele><time>2026-04-20T15:19:26.999Z</time></trkpt><trkpt lat="43.51106568807073" lon="12.291141084113333"><ele>435.0</ele><time>2026-04-20T15:19:27.999Z</time></trkpt><trkpt lat="43.51096007666374" lon="12.291173084994432"><ele>435.0</ele><time>2026-04-20T15:19:28.999Z</time></trkpt><trkpt lat="43.5108466487345" lon="12.291176738760248"><ele>434.5</ele><time>2026-04-20T15:19:29.999Z</time></trkpt><trkpt lat="43.51073094182146" lon="12.291186959884532"><ele>434.0</ele><time>2026-04-20T15:19:30.999Z</time></trkpt><trkpt lat="43.51061067243303" lon="12.291181358543827"><ele>433.5</ele><time>2026-04-20T15:19:31.999Z</time></trkpt><trkpt lat="43.510494864493836" lon="12.291191765760697"><ele>433.0</ele><time>2026-04-20T15:19:32.999Z</time></trkpt><trkpt lat="43.51038669630021" lon="12.291198118029056"><ele>432.0</ele><time>2026-04-20T15:19:33.999Z</time></trkpt><trkpt lat="43.5102826393248" lon="12.29120207927412"><ele>430.99999999999994</ele><time>2026-04-20T15:19:34.999Z</time></trkpt><trkpt lat="43.51018395506497" lon="12.291227411981598"><ele>429.99999999999994</ele><time>2026-04-20T15:19:35.999Z</time></trkpt><trkpt lat="43.510086449484845" lon="12.2912389806367"><ele>429.0</ele><time>2026-04-20T15:19:36.999Z</time></trkpt><trkpt lat="43.50998588554162" lon="12.291270872678696"><ele>428.0</ele><time>2026-04-20T15:19:37.999Z</time></trkpt><trkpt lat="43.50987949657927" lon="12.291325906471151"><ele>428.0</ele><time>2026-04-20T15:19:38.999Z</time></trkpt><trkpt lat="43.50976649906731" lon="12.291396708150538"><ele>428.0</ele><time>2026-04-20T15:19:39.999Z</time></trkpt><trkpt lat="43.50964301175344" lon="12.291465895223945"><ele>428.0</ele><time>2026-04-20T15:19:40.999Z</time></trkpt><trkpt lat="43.50951668587874" lon="12.291512901655624"><ele>428.0</ele><time>2026-04-20T15:19:41.999Z</time></trkpt><trkpt lat="43.5093940595817" lon="12.291551913505423"><ele>430.79999999999995</ele><time>2026-04-20T15:19:42.999Z</time></trkpt><trkpt lat="43.50928079020081" lon="12.291571037455803"><ele>433.59999999999997</ele><time>2026-04-20T15:19:43.999Z</time></trkpt><trkpt lat="43.50917780360413" lon="12.291571706214866"><ele>436.40000000000003</ele><time>2026-04-20T15:19:44.999Z</time></trkpt><trkpt lat="43.50908060444373" lon="12.291551800800017"><ele>439.20000000000005</ele><time>2026-04-20T15:19:45.999Z</time></trkpt><trkpt lat="43.508978053654026" lon="12.2915303146142"><ele>442.0</ele><time>2026-04-20T15:19:46.999Z</time></trkpt><trkpt lat="43.508872773645486" lon="12.291499310988396"><ele>442.00000000000006</ele><time>2026-04-20T15:19:47.999Z</time></trkpt><trkpt lat="43.508780284599396" lon="12.291468928324301"><ele>442.0</ele><time>2026-04-20T15:19:48.999Z</time></trkpt><trkpt lat="43.50869621585803" lon="12.291442299026686"><ele>442.0</ele><time>2026-04-20T15:19:49.999Z</time></trkpt><trkpt lat="43.50861227623807" lon="12.291440188426499"><ele>442.0</ele><time>2026-04-20T15:19:50.999Z</time></trkpt><trkpt lat="43.5085350709843" lon="12.29142619164158"><ele>442.00000000000006</ele><time>2026-04-20T15:19:51.999Z</time></trkpt><trkpt lat="43.50843664740367" lon="12.291411052131426"><ele>442.0</ele><time>2026-04-20T15:19:53.999Z</time></trkpt><trkpt lat="43.50838598332293" lon="12.291676236600729"><ele>440.50000000000006</ele><time>2026-04-20T15:19:54.999Z</time></trkpt><trkpt lat="43.50835692021019" lon="12.291779378443136"><ele>439.0</ele><time>2026-04-20T15:19:55.999Z</time></trkpt><trkpt lat="43.508328673143595" lon="12.291900532147674"><ele>437.5</ele><time>2026-04-20T15:19:56.999Z</time></trkpt><trkpt lat="43.508302437015566" lon="12.292032772646676"><ele>436.0</ele><time>2026-04-20T15:19:57.999Z</time></trkpt><trkpt lat="43.50827549408901" lon="12.292150368906471"><ele>434.50000000000006</ele><time>2026-04-20T15:19:58.999Z</time></trkpt><trkpt lat="43.50825043913255" lon="12.292259156543702"><ele>433.0</ele><time>2026-04-20T15:19:59.999Z</time></trkpt><trkpt lat="43.50822343100545" lon="12.29234483359868"><ele>433.0</ele><time>2026-04-20T15:20:00.999Z</time></trkpt><trkpt lat="43.50816876712526" lon="12.292438655474996"><ele>432.99999999999994</ele><time>2026-04-20T15:20:02.999Z</time></trkpt><trkpt lat="43.50813372156127" lon="12.292511072943066"><ele>432.99999999999994</ele><time>2026-04-20T15:20:04.999Z</time></trkpt><trkpt lat="43.50814416579027" lon="12.292620989770587"><ele>433.0</ele><time>2026-04-20T15:20:06.999Z</time></trkpt><trkpt lat="43.50819891783257" lon="12.292790693004362"><ele>433.0</ele><time>2026-04-20T15:20:08.999Z</time></trkpt><trkpt lat="43.50824466942386" lon="12.292891742027377"><ele>433.0</ele><time>2026-04-20T15:20:09.999Z</time></trkpt><trkpt lat="43.50829511339888" lon="12.293011054867831"><ele>432.99999999999994</ele><time>2026-04-20T15:20:10.999Z</time></trkpt><trkpt lat="43.50834641416576" lon="12.293132296456859"><ele>432.99999999999994</ele><time>2026-04-20T15:20:11.999Z</time></trkpt><trkpt lat="43.50839507954631" lon="12.293268076881665"><ele>433.0</ele><time>2026-04-20T15:20:12.999Z</time></trkpt><trkpt lat="43.5084426675893" lon="12.293415255146645"><ele>433.0</ele><time>2026-04-20T15:20:13.999Z</time></trkpt><trkpt lat="43.5084895035415" lon="12.2935672096795"><ele>432.4</ele><time>2026-04-20T15:20:14.999Z</time></trkpt><trkpt lat="43.50853763548095" lon="12.293704902771362"><ele>431.79999999999995</ele><time>2026-04-20T15:20:15.999Z</time></trkpt><trkpt lat="43.508593950156616" lon="12.293837112992646"><ele>431.2</ele><time>2026-04-20T15:20:16.999Z</time></trkpt><trkpt lat="43.5086597969457" lon="12.29395950764398"><ele>430.6</ele><time>2026-04-20T15:20:18Z</time></trkpt><trkpt lat="43.50873906990097" lon="12.29407489722519"><ele>430.0</ele><time>2026-04-20T15:20:19Z</time></trkpt><trkpt lat="43.50881966304603" lon="12.294169563748982"><ele>432.8</ele><time>2026-04-20T15:20:20Z</time></trkpt><trkpt lat="43.50890483357604" lon="12.294272782107182"><ele>435.6</ele><time>2026-04-20T15:20:21Z</time></trkpt><trkpt lat="43.50898248379025" lon="12.294371564186513"><ele>438.4</ele><time>2026-04-20T15:20:22Z</time></trkpt><trkpt lat="43.50904623239148" lon="12.294460842316939"><ele>441.2</ele><time>2026-04-20T15:20:23Z</time></trkpt><trkpt lat="43.50909956204202" lon="12.294542653337276"><ele>444.0</ele><time>2026-04-20T15:20:24Z</time></trkpt><trkpt lat="43.50915843432344" lon="12.294636311973449"><ele>444.0</ele><time>2026-04-20T15:20:25Z</time></trkpt><trkpt lat="43.50921230403514" lon="12.294716517245345"><ele>444.0</ele><time>2026-04-20T15:20:26Z</time></trkpt><trkpt lat="43.509254480627284" lon="12.294787046652761"><ele>444.0</ele><time>2026-04-20T15:20:27Z</time></trkpt><trkpt lat="43.509284137567924" lon="12.294882720711936"><ele>444.0</ele><time>2026-04-20T15:20:28Z</time></trkpt><trkpt lat="43.50929529566487" lon="12.294994789402"><ele>444.0</ele><time>2026-04-20T15:20:29Z</time></trkpt><trkpt lat="43.5092929861286" lon="12.295131129728677"><ele>444.0</ele><time>2026-04-20T15:20:30Z</time></trkpt><trkpt lat="43.50928438580347" lon="12.295286450396201"><ele>441.25</ele><time>2026-04-20T15:20:31Z</time></trkpt><trkpt lat="43.50927580106744" lon="12.295438927934272"><ele>438.5</ele><time>2026-04-20T15:20:32Z</time></trkpt><trkpt lat="43.509269669339936" lon="12.29558830355535"><ele>435.75</ele><time>2026-04-20T15:20:33Z</time></trkpt><trkpt lat="43.50925115690662" lon="12.295746909441366"><ele>433.0</ele><time>2026-04-20T15:20:34Z</time></trkpt><trkpt lat="43.50921322298928" lon="12.295903630009247"><ele>432.59999999999997</ele><time>2026-04-20T15:20:35Z</time></trkpt><trkpt lat="43.50916057563652" lon="12.296050343614658"><ele>432.19999999999993</ele><time>2026-04-20T15:20:36Z</time></trkpt><trkpt lat="43.509103886264484" lon="12.29617570947204"><ele>431.8</ele><time>2026-04-20T15:20:37Z</time></trkpt><trkpt lat="43.50905438792938" lon="12.296277800062631"><ele>431.4</ele><time>2026-04-20T15:20:38Z</time></trkpt><trkpt lat="43.50898846553695" lon="12.29635432435063"><ele>431.0</ele><time>2026-04-20T15:20:39Z</time></trkpt><trkpt lat="43.50891141295403" lon="12.296417222134448"><ele>431.20000000000005</ele><time>2026-04-20T15:20:40Z</time></trkpt><trkpt lat="43.50881730811694" lon="12.296465163500933"><ele>431.40000000000003</ele><time>2026-04-20T15:20:41Z</time></trkpt><trkpt lat="43.50872457690077" lon="12.296484371019197"><ele>431.6</ele><time>2026-04-20T15:20:42Z</time></trkpt><trkpt lat="43.50862185795091" lon="12.296505412330198"><ele>431.8</ele><time>2026-04-20T15:20:43Z</time></trkpt><trkpt lat="43.508527083391414" lon="12.296552372849646"><ele>432.0</ele><time>2026-04-20T15:20:44Z</time></trkpt><trkpt lat="43.508439945422104" lon="12.29662581436153"><ele>433.75</ele><time>2026-04-20T15:20:45Z</time></trkpt><trkpt lat="43.508354169872874" lon="12.296728798849989"><ele>435.5</ele><time>2026-04-20T15:20:46Z</time></trkpt><trkpt lat="43.50827239518342" lon="12.29683474722508"><ele>437.25</ele><time>2026-04-20T15:20:47Z</time></trkpt><trkpt lat="43.50817830005413" lon="12.296945184267702"><ele>439.0</ele><time>2026-04-20T15:20:48Z</time></trkpt><trkpt lat="43.50808084493547" lon="12.297050256725832"><ele>439.0</ele><time>2026-04-20T15:20:49Z</time></trkpt><trkpt lat="43.50798439824736" lon="12.297149069648407"><ele>439.0</ele><time>2026-04-20T15:20:50Z</time></trkpt><trkpt lat="43.507898558472064" lon="12.297246189989112"><ele>439.0</ele><time>2026-04-20T15:20:51Z</time></trkpt><trkpt lat="43.50783518149367" lon="12.297338109679671"><ele>439.0</ele><time>2026-04-20T15:20:52Z</time></trkpt><trkpt lat="43.50779685566088" lon="12.297441376908965"><ele>439.0</ele><time>2026-04-20T15:20:53Z</time></trkpt><trkpt lat="43.50776716690824" lon="12.29756474992494"><ele>441.2</ele><time>2026-04-20T15:20:54Z</time></trkpt><trkpt lat="43.507758510317665" lon="12.297705031227231"><ele>443.4</ele><time>2026-04-20T15:20:55Z</time></trkpt><trkpt lat="43.50776552441543" lon="12.2978488697216"><ele>445.6</ele><time>2026-04-20T15:20:56Z</time></trkpt><trkpt lat="43.507765601458644" lon="12.297985727079672"><ele>447.8</ele><time>2026-04-20T15:20:57Z</time></trkpt><trkpt lat="43.50774468221617" lon="12.298128491802139"><ele>450.0</ele><time>2026-04-20T15:20:58Z</time></trkpt><trkpt lat="43.507702879166615" lon="12.298265338041075"><ele>451.0</ele><time>2026-04-20T15:20:59Z</time></trkpt><trkpt lat="43.507654695146734" lon="12.298393665509892"><ele>452.0</ele><time>2026-04-20T15:21:00Z</time></trkpt><trkpt lat="43.50759175305719" lon="12.298519712416809"><ele>453.0</ele><time>2026-04-20T15:21:01Z</time></trkpt><trkpt lat="43.50751322420555" lon="12.298627789743234"><ele>454.0</ele><time>2026-04-20T15:21:02Z</time></trkpt><trkpt lat="43.50743416054751" lon="12.298731306600002"><ele>455.0</ele><time>2026-04-20T15:21:03Z</time></trkpt><trkpt lat="43.507354570162995" lon="12.298828689126301"><ele>454.99999999999994</ele><time>2026-04-20T15:21:04Z</time></trkpt><trkpt lat="43.507294174360126" lon="12.298912683032762"><ele>455.0</ele><time>2026-04-20T15:21:05Z</time></trkpt><trkpt lat="43.50726494432441" lon="12.298990467410539"><ele>455.0</ele><time>2026-04-20T15:21:06Z</time></trkpt><trkpt lat="43.507254945593914" lon="12.299098359494584"><ele>455.0</ele><time>2026-04-20T15:21:07Z</time></trkpt><trkpt lat="43.50727775008864" lon="12.299213088344437"><ele>454.99999999999994</ele><time>2026-04-20T15:21:08Z</time></trkpt><trkpt lat="43.50731060214255" lon="12.29933852509639"><ele>455.0</ele><time>2026-04-20T15:21:09Z</time></trkpt><trkpt lat="43.507342282677065" lon="12.299451381079164"><ele>456.16666666666663</ele><time>2026-04-20T15:21:10Z</time></trkpt><trkpt lat="43.50738054640978" lon="12.299563139031573"><ele>457.3333333333333</ele><time>2026-04-20T15:21:11Z</time></trkpt><trkpt lat="43.50743230401699" lon="12.299632603509547"><ele>458.5</ele><time>2026-04-20T15:21:12Z</time></trkpt><trkpt lat="43.507499615291756" lon="12.29964655299243"><ele>459.66666666666663</ele><time>2026-04-20T15:21:13Z</time></trkpt><trkpt lat="43.50756908574531" lon="12.299620429297866"><ele>460.8333333333333</ele><time>2026-04-20T15:21:14Z</time></trkpt><trkpt lat="43.507633694146264" lon="12.29955530923752"><ele>462.0</ele><time>2026-04-20T15:21:15Z</time></trkpt><trkpt lat="43.50770165886142" lon="12.29946766671902"><ele>462.0</ele><time>2026-04-20T15:21:16Z</time></trkpt><trkpt lat="43.50776842557406" lon="12.299364539574915"><ele>462.0</ele><time>2026-04-20T15:21:17Z</time></trkpt><trkpt lat="43.50782664087334" lon="12.299274048972999"><ele>462.0</ele><time>2026-04-20T15:21:18Z</time></trkpt><trkpt lat="43.50788227007927" lon="12.299215985385189"><ele>462.0</ele><time>2026-04-20T15:21:19Z</time></trkpt><trkpt lat="43.50798966943492" lon="12.299233130721099"><ele>462.0</ele><time>2026-04-20T15:21:21Z</time></trkpt><trkpt lat="43.50803075980723" lon="12.29930153699663"><ele>462.0</ele><time>2026-04-20T15:21:22Z</time></trkpt><trkpt lat="43.50806041030373" lon="12.299405395610513"><ele>463.6</ele><time>2026-04-20T15:21:23Z</time></trkpt><trkpt lat="43.50809846346698" lon="12.299520566316026"><ele>465.20000000000005</ele><time>2026-04-20T15:21:24Z</time></trkpt><trkpt lat="43.5081460724706" lon="12.2996586670459"><ele>466.8</ele><time>2026-04-20T15:21:25Z</time></trkpt><trkpt lat="43.50819592071794" lon="12.299793294197885"><ele>468.4</ele><time>2026-04-20T15:21:26Z</time></trkpt><trkpt lat="43.508256420604056" lon="12.299925239564887"><ele>470.0</ele><time>2026-04-20T15:21:27Z</time></trkpt><trkpt lat="43.50831829825061" lon="12.300062359110745"><ele>470.6</ele><time>2026-04-20T15:21:28Z</time></trkpt><trkpt lat="43.508387387393185" lon="12.30020103087376"><ele>471.2</ele><time>2026-04-20T15:21:29Z</time></trkpt><trkpt lat="43.50844923344817" lon="12.300329956204532"><ele>471.79999999999995</ele><time>2026-04-20T15:21:30Z</time></trkpt><trkpt lat="43.50850189040732" lon="12.300433212949862"><ele>472.4</ele><time>2026-04-20T15:21:31Z</time></trkpt><trkpt lat="43.50854060352008" lon="12.300520652431059"><ele>473.0</ele><time>2026-04-20T15:21:32Z</time></trkpt><trkpt lat="43.50856598247092" lon="12.300639062646757"><ele>474.0</ele><time>2026-04-20T15:21:33Z</time></trkpt><trkpt lat="43.508554483365586" lon="12.300781927796075"><ele>474.99999999999994</ele><time>2026-04-20T15:21:34Z</time></trkpt><trkpt lat="43.508533132024915" lon="12.300912060707082"><ele>475.99999999999994</ele><time>2026-04-20T15:21:35Z</time></trkpt><trkpt lat="43.508520420646704" lon="12.301042921907007"><ele>477.0</ele><time>2026-04-20T15:21:36Z</time></trkpt><trkpt lat="43.50849514413261" lon="12.301144919783148"><ele>478.0</ele><time>2026-04-20T15:21:37Z</time></trkpt><trkpt lat="43.508412296452256" lon="12.301248245409548"><ele>478.00000000000006</ele><time>2026-04-20T15:21:39Z</time></trkpt><trkpt lat="43.50828458063551" lon="12.301196140773786"><ele>478.0</ele><time>2026-04-20T15:21:41Z</time></trkpt><trkpt lat="43.508207115487124" lon="12.301138134972696"><ele>478.0</ele><time>2026-04-20T15:21:42Z</time></trkpt><trkpt lat="43.5081350618429" lon="12.3011174717075"><ele>478.0</ele><time>2026-04-20T15:21:43Z</time></trkpt><trkpt lat="43.50807318328157" lon="12.301150801935464"><ele>478.00000000000006</ele><time>2026-04-20T15:21:44Z</time></trkpt><trkpt lat="43.50803698537901" lon="12.301229846899524"><ele>478.0</ele><time>2026-04-20T15:21:45Z</time></trkpt><trkpt lat="43.50804208625322" lon="12.30132607419044"><ele>479.79999999999995</ele><time>2026-04-20T15:21:46Z</time></trkpt><trkpt lat="43.508079227534694" lon="12.301435558404199"><ele>481.59999999999997</ele><time>2026-04-20T15:21:47Z</time></trkpt><trkpt lat="43.508139407407654" lon="12.301525324535822"><ele>483.40000000000003</ele><time>2026-04-20T15:21:48Z</time></trkpt><trkpt lat="43.508202200821614" lon="12.301640917911984"><ele>485.20000000000005</ele><time>2026-04-20T15:21:49Z</time></trkpt><trkpt lat="43.508252503578085" lon="12.301758992780123"><ele>487.0</ele><time>2026-04-20T15:21:50Z</time></trkpt><trkpt lat="43.50829091199622" lon="12.301859861317489"><ele>487.00000000000006</ele><time>2026-04-20T15:21:50.999Z</time></trkpt><trkpt lat="43.508321680782714" lon="12.301944547682846"><ele>487.0</ele><time>2026-04-20T15:21:51.999Z</time></trkpt><trkpt lat="43.50833851774409" lon="12.302029352294841"><ele>487.0</ele><time>2026-04-20T15:21:52.999Z</time></trkpt><trkpt lat="43.508329119334434" lon="12.302125295436666"><ele>487.0</ele><time>2026-04-20T15:21:53.999Z</time></trkpt><trkpt lat="43.50828500260728" lon="12.302213155171922"><ele>487.00000000000006</ele><time>2026-04-20T15:21:54.999Z</time></trkpt><trkpt lat="43.50821008949791" lon="12.302271632598"><ele>487.0</ele><time>2026-04-20T15:21:55.999Z</time></trkpt><trkpt lat="43.50811030012148" lon="12.302295262722728"><ele>487.40000000000003</ele><time>2026-04-20T15:21:56.999Z</time></trkpt><trkpt lat="43.50800697405613" lon="12.302297812836583"><ele>487.80000000000007</ele><time>2026-04-20T15:21:57.999Z</time></trkpt><trkpt lat="43.507901102206816" lon="12.302316300309181"><ele>488.2</ele><time>2026-04-20T15:21:58.999Z</time></trkpt><trkpt lat="43.50778966333544" lon="12.302342814531848"><ele>488.6</ele><time>2026-04-20T15:21:59.999Z</time></trkpt><trkpt lat="43.50767076047318" lon="12.302372998593519"><ele>489.0</ele><time>2026-04-20T15:22:00.999Z</time></trkpt><trkpt lat="43.507563300129796" lon="12.302403207722346"><ele>491.0</ele><time>2026-04-20T15:22:01.999Z</time></trkpt><trkpt lat="43.50745170916335" lon="12.30245815725042"><ele>493.0</ele><time>2026-04-20T15:22:02.999Z</time></trkpt><trkpt lat="43.50734313435705" lon="12.302486712893911"><ele>495.0</ele><time>2026-04-20T15:22:03.999Z</time></trkpt><trkpt lat="43.50724238690171" lon="12.302526148357341"><ele>497.0</ele><time>2026-04-20T15:22:04.999Z</time></trkpt><trkpt lat="43.50712804827278" lon="12.302551175179538"><ele>498.8</ele><time>2026-04-20T15:22:05.999Z</time></trkpt><trkpt lat="43.507015651721964" lon="12.302541423825751"><ele>500.6</ele><time>2026-04-20T15:22:06.999Z</time></trkpt><trkpt lat="43.506920178676566" lon="12.302543607567076"><ele>502.40000000000003</ele><time>2026-04-20T15:22:07.999Z</time></trkpt><trkpt lat="43.50683495738225" lon="12.302461943466412"><ele>504.20000000000005</ele><time>2026-04-20T15:22:08.999Z</time></trkpt><trkpt lat="43.50676812562479" lon="12.302377792181124"><ele>506.0</ele><time>2026-04-20T15:22:09.999Z</time></trkpt><trkpt lat="43.506704512505415" lon="12.30229242725251"><ele>505.99999999999994</ele><time>2026-04-20T15:22:10.999Z</time></trkpt><trkpt lat="43.506633916498664" lon="12.302199746342534"><ele>506.0</ele><time>2026-04-20T15:22:11.999Z</time></trkpt><trkpt lat="43.506552731503405" lon="12.30213287043315"><ele>506.0</ele><time>2026-04-20T15:22:12.999Z</time></trkpt><trkpt lat="43.506482593563604" lon="12.302099386451653"><ele>506.0</ele><time>2026-04-20T15:22:13.999Z</time></trkpt><trkpt lat="43.50640028143935" lon="12.302162638751227"><ele>505.99999999999994</ele><time>2026-04-20T15:22:14.999Z</time></trkpt><trkpt lat="43.50632882625497" lon="12.30222419739763"><ele>506.0</ele><time>2026-04-20T15:22:15.999Z</time></trkpt><trkpt lat="43.50626575919947" lon="12.30230069122934"><ele>507.6</ele><time>2026-04-20T15:22:16.999Z</time></trkpt><trkpt lat="43.506199255171204" lon="12.302396677642744"><ele>509.20000000000005</ele><time>2026-04-20T15:22:17.999Z</time></trkpt><trkpt lat="43.50613258253762" lon="12.302505580340844"><ele>510.79999999999995</ele><time>2026-04-20T15:22:18.999Z</time></trkpt><trkpt lat="43.50606431789805" lon="12.302616999513768"><ele>512.4</ele><time>2026-04-20T15:22:19.999Z</time></trkpt><trkpt lat="43.50599557927647" lon="12.302705403922163"><ele>514.0</ele><time>2026-04-20T15:22:20.999Z</time></trkpt><trkpt lat="43.50594344797451" lon="12.302754399976326"><ele>514.0</ele><time>2026-04-20T15:22:21.999Z</time></trkpt><trkpt lat="43.505865506008384" lon="12.302780234661927"><ele>514.0</ele><time>2026-04-20T15:22:22.999Z</time></trkpt><trkpt lat="43.50578713578319" lon="12.302710651014579"><ele>514.0</ele><time>2026-04-20T15:22:24Z</time></trkpt><trkpt lat="43.5057111647268" lon="12.302637577568433"><ele>514.0</ele><time>2026-04-20T15:22:25Z</time></trkpt><trkpt lat="43.5056086158858" lon="12.302557363565617"><ele>514.0</ele><time>2026-04-20T15:22:26Z</time></trkpt><trkpt lat="43.50551034691129" lon="12.302482776582346"><ele>514.0</ele><time>2026-04-20T15:22:27Z</time></trkpt><trkpt lat="43.505423222614596" lon="12.30242596458832"><ele>514.0</ele><time>2026-04-20T15:22:28Z</time></trkpt><trkpt lat="43.50532980268872" lon="12.302418622791649"><ele>514.0</ele><time>2026-04-20T15:22:29Z</time></trkpt><trkpt lat="43.505242151888744" lon="12.302418622374626"><ele>514.0</ele><time>2026-04-20T15:22:30Z</time></trkpt><trkpt lat="43.50514750002561" lon="12.302456231456025"><ele>514.0</ele><time>2026-04-20T15:22:31Z</time></trkpt><trkpt lat="43.50505399397111" lon="12.302525930422798"><ele>516.25</ele><time>2026-04-20T15:22:32Z</time></trkpt><trkpt lat="43.50495869262251" lon="12.302589305646064"><ele>518.5</ele><time>2026-04-20T15:22:33Z</time></trkpt><trkpt lat="43.50484750653774" lon="12.302653848136023"><ele>520.75</ele><time>2026-04-20T15:22:34Z</time></trkpt><trkpt lat="43.50473214146042" lon="12.302725041912774"><ele>523.0</ele><time>2026-04-20T15:22:35Z</time></trkpt><trkpt lat="43.50462377849238" lon="12.302787082001204"><ele>524.5</ele><time>2026-04-20T15:22:36Z</time></trkpt><trkpt lat="43.50453200918645" lon="12.302831564856854"><ele>526.0</ele><time>2026-04-20T15:22:37Z</time></trkpt><trkpt lat="43.50445196113358" lon="12.302859407256996"><ele>527.5</ele><time>2026-04-20T15:22:38Z</time></trkpt><trkpt lat="43.504366182744775" lon="12.302853979309836"><ele>529.0</ele><time>2026-04-20T15:22:39Z</time></trkpt><trkpt lat="43.50430286897833" lon="12.302782821177948"><ele>530.5</ele><time>2026-04-20T15:22:40Z</time></trkpt><trkpt lat="43.504250804375985" lon="12.302707769334877"><ele>532.0</ele><time>2026-04-20T15:22:41Z</time></trkpt><trkpt lat="43.504215066827086" lon="12.30259257206152"><ele>532.0</ele><time>2026-04-20T15:22:42Z</time></trkpt><trkpt lat="43.50415626612544" lon="12.302453671114744"><ele>532.0</ele><time>2026-04-20T15:22:43Z</time></trkpt><trkpt lat="43.504091117926585" lon="12.302303486815736"><ele>532.0</ele><time>2026-04-20T15:22:44Z</time></trkpt><trkpt lat="43.50402994312479" lon="12.302181319443735"><ele>532.0</ele><time>2026-04-20T15:22:45Z</time></trkpt><trkpt lat="43.50397396813126" lon="12.302104431913591"><ele>532.0</ele><time>2026-04-20T15:22:46Z</time></trkpt><trkpt lat="43.50391633305147" lon="12.302059302174152"><ele>532.0</ele><time>2026-04-20T15:22:47Z</time></trkpt><trkpt lat="43.50379859336545" lon="12.302074690743249"><ele>532.0</ele><time>2026-04-20T15:22:49Z</time></trkpt><trkpt lat="43.50377019664575" lon="12.3021782862799"><ele>532.0</ele><time>2026-04-20T15:22:50Z</time></trkpt><trkpt lat="43.50378371448721" lon="12.302337734115149"><ele>532.0</ele><time>2026-04-20T15:22:52Z</time></trkpt><trkpt lat="43.503791256156866" lon="12.302459686949451"><ele>532.0</ele><time>2026-04-20T15:22:53Z</time></trkpt><trkpt lat="43.503784740116004" lon="12.302604600856816"><ele>532.0</ele><time>2026-04-20T15:22:54Z</time></trkpt><trkpt lat="43.5037625940793" lon="12.302739468920613"><ele>532.0</ele><time>2026-04-20T15:22:55Z</time></trkpt><trkpt lat="43.50373140800685" lon="12.302875871451183"><ele>532.0</ele><time>2026-04-20T15:22:56Z</time></trkpt><trkpt lat="43.503662763924105" lon="12.303002959428138"><ele>532.0</ele><time>2026-04-20T15:22:57Z</time></trkpt><trkpt lat="43.50359657714072" lon="12.303136736652132"><ele>532.0</ele><time>2026-04-20T15:22:58Z</time></trkpt><trkpt lat="43.503536110184925" lon="12.303281506151444"><ele>536.0</ele><time>2026-04-20T15:22:59Z</time></trkpt><trkpt lat="43.50346041476576" lon="12.303434545768683"><ele>540.0</ele><time>2026-04-20T15:23:00Z</time></trkpt><trkpt lat="43.503382806466384" lon="12.30358071176131"><ele>544.0</ele><time>2026-04-20T15:23:01Z</time></trkpt><trkpt lat="43.50331838647953" lon="12.303713063319218"><ele>548.0</ele><time>2026-04-20T15:23:02Z</time></trkpt><trkpt lat="43.50327214093736" lon="12.303830716736512"><ele>546.1999999999999</ele><time>2026-04-20T15:23:03Z</time></trkpt><trkpt lat="43.50325145110205" lon="12.303936839680274"><ele>544.4</ele><time>2026-04-20T15:23:04Z</time></trkpt><trkpt lat="43.50324597559284" lon="12.30402982232036"><ele>542.5999999999999</ele><time>2026-04-20T15:23:05Z</time></trkpt><trkpt lat="43.50324507006101" lon="12.304160677601493"><ele>540.8</ele><time>2026-04-20T15:23:07Z</time></trkpt><trkpt lat="43.5033036551831" lon="12.304204149902032"><ele>539.0</ele><time>2026-04-20T15:23:08Z</time></trkpt><trkpt lat="43.50341006700702" lon="12.304341273360237"><ele>539.0</ele><time>2026-04-20T15:23:10Z</time></trkpt><trkpt lat="43.503481346271755" lon="12.304426619976427"><ele>539.0</ele><time>2026-04-20T15:23:11Z</time></trkpt><trkpt lat="43.5035598939896" lon="12.304515110681397"><ele>539.0</ele><time>2026-04-20T15:23:12Z</time></trkpt><trkpt lat="43.50364031659694" lon="12.304623181460359"><ele>539.0</ele><time>2026-04-20T15:23:13Z</time></trkpt><trkpt lat="43.50371659473775" lon="12.304755274478026"><ele>539.0</ele><time>2026-04-20T15:23:14Z</time></trkpt><trkpt lat="43.50377418188089" lon="12.304894861792567"><ele>539.75</ele><time>2026-04-20T15:23:15Z</time></trkpt><trkpt lat="43.50381581640311" lon="12.305046594907015"><ele>540.5</ele><time>2026-04-20T15:23:16Z</time></trkpt><trkpt lat="43.50384561435366" lon="12.305204876509656"><ele>541.25</ele><time>2026-04-20T15:23:17Z</time></trkpt><trkpt lat="43.50386570525533" lon="12.305368341215942"><ele>542.0</ele><time>2026-04-20T15:23:18Z</time></trkpt><trkpt lat="43.5038784377459" lon="12.30553382054913"><ele>542.0</ele><time>2026-04-20T15:23:19Z</time></trkpt><trkpt lat="43.50389926563386" lon="12.30569360497068"><ele>542.0</ele><time>2026-04-20T15:23:20Z</time></trkpt><trkpt lat="43.50392169928692" lon="12.305857166067389"><ele>542.0</ele><time>2026-04-20T15:23:21Z</time></trkpt><trkpt lat="43.5039421071958" lon="12.306023661180381"><ele>542.0</ele><time>2026-04-20T15:23:22Z</time></trkpt><trkpt lat="43.503957385462634" lon="12.306192557777454"><ele>542.0</ele><time>2026-04-20T15:23:23Z</time></trkpt><trkpt lat="43.50397050774026" lon="12.306362535228873"><ele>542.0</ele><time>2026-04-20T15:23:24Z</time></trkpt><trkpt lat="43.50398211367246" lon="12.30652834113172"><ele>542.0</ele><time>2026-04-20T15:23:25Z</time></trkpt><trkpt lat="43.50399355444036" lon="12.306691675894688"><ele>542.0</ele><time>2026-04-20T15:23:26Z</time></trkpt><trkpt lat="43.50400460704647" lon="12.306850093338385"><ele>543.25</ele><time>2026-04-20T15:23:27Z</time></trkpt><trkpt lat="43.50401833771185" lon="12.307004470443752"><ele>544.5</ele><time>2026-04-20T15:23:28Z</time></trkpt><trkpt lat="43.50404081720655" lon="12.307156514827332"><ele>545.75</ele><time>2026-04-20T15:23:29Z</time></trkpt><trkpt lat="43.50407677437095" lon="12.307303933470308"><ele>547.0</ele><time>2026-04-20T15:23:30Z</time></trkpt><trkpt lat="43.50412991053566" lon="12.307443098817613"><ele>548.25</ele><time>2026-04-20T15:23:31Z</time></trkpt><trkpt lat="43.504199576805235" lon="12.30757088393617"><ele>549.5</ele><time>2026-04-20T15:23:32Z</time></trkpt><trkpt lat="43.50428290416806" lon="12.307688927906455"><ele>550.75</ele><time>2026-04-20T15:23:33Z</time></trkpt><trkpt lat="43.50437312781904" lon="12.307801892137515"><ele>552.0</ele><time>2026-04-20T15:23:34Z</time></trkpt><trkpt lat="43.50446756720535" lon="12.307910783826381"><ele>552.0</ele><time>2026-04-20T15:23:35Z</time></trkpt><trkpt lat="43.504565269088815" lon="12.30802537344426"><ele>552.0</ele><time>2026-04-20T15:23:36Z</time></trkpt><trkpt lat="43.504671963635346" lon="12.308152716429364"><ele>552.0</ele><time>2026-04-20T15:23:37Z</time></trkpt><trkpt lat="43.50478133782532" lon="12.308288841463096"><ele>552.0</ele><time>2026-04-20T15:23:38Z</time></trkpt><trkpt lat="43.50489351807246" lon="12.30842913199894"><ele>554.3333333333334</ele><time>2026-04-20T15:23:39Z</time></trkpt><trkpt lat="43.50500348479489" lon="12.308563503805896"><ele>556.6666666666667</ele><time>2026-04-20T15:23:40Z</time></trkpt><trkpt lat="43.505117457161795" lon="12.308699902082491"><ele>559.0</ele><time>2026-04-20T15:23:41Z</time></trkpt><trkpt lat="43.505234094451836" lon="12.308839055085052"><ele>559.6666666666667</ele><time>2026-04-20T15:23:42Z</time></trkpt><trkpt lat="43.505352345120365" lon="12.308980836905116"><ele>560.3333333333334</ele><time>2026-04-20T15:23:43Z</time></trkpt><trkpt lat="43.505463843093025" lon="12.309138764116371"><ele>561.0</ele><time>2026-04-20T15:23:44Z</time></trkpt><trkpt lat="43.50555395772132" lon="12.309314366770861"><ele>561.0</ele><time>2026-04-20T15:23:45Z</time></trkpt><trkpt lat="43.50558609620469" lon="12.309528220318528"><ele>561.0</ele><time>2026-04-20T15:23:46Z</time></trkpt><trkpt lat="43.50559070056694" lon="12.30974360221825"><ele>561.0</ele><time>2026-04-20T15:23:47Z</time></trkpt><trkpt lat="43.50557691767129" lon="12.309964367945303"><ele>563.3333333333334</ele><time>2026-04-20T15:23:48Z</time></trkpt><trkpt lat="43.50559258956402" lon="12.310190723330349"><ele>565.6666666666667</ele><time>2026-04-20T15:23:49Z</time></trkpt><trkpt lat="43.50565538031288" lon="12.310417640137612"><ele>568.0</ele><time>2026-04-20T15:23:50Z</time></trkpt><trkpt lat="43.5057587597343" lon="12.31062269738947"><ele>568.0</ele><time>2026-04-20T15:23:51Z</time></trkpt><trkpt lat="43.505874335498525" lon="12.310814873709097"><ele>568.0</ele><time>2026-04-20T15:23:52Z</time></trkpt><trkpt lat="43.505987333591804" lon="12.310999517781768"><ele>568.0</ele><time>2026-04-20T15:23:53Z</time></trkpt><trkpt lat="43.506094687852624" lon="12.311205101195673"><ele>568.3333333333334</ele><time>2026-04-20T15:23:54Z</time></trkpt><trkpt lat="43.50617924025796" lon="12.31142758823674"><ele>568.6666666666666</ele><time>2026-04-20T15:23:55Z</time></trkpt><trkpt lat="43.506231997862145" lon="12.311662400134777"><ele>569.0</ele><time>2026-04-20T15:23:56Z</time></trkpt><trkpt lat="43.50627014254381" lon="12.311906841913185"><ele>571.0</ele><time>2026-04-20T15:23:57Z</time></trkpt><trkpt lat="43.50633213520925" lon="12.312150445242217"><ele>573.0</ele><time>2026-04-20T15:23:58Z</time></trkpt><trkpt lat="43.5064184027317" lon="12.312375434925661"><ele>575.0</ele><time>2026-04-20T15:23:59Z</time></trkpt><trkpt lat="43.506535307124665" lon="12.312591852298372"><ele>575.0</ele><time>2026-04-20T15:24:00Z</time></trkpt><trkpt lat="43.50666855036796" lon="12.312793703178144"><ele>575.0</ele><time>2026-04-20T15:24:01Z</time></trkpt><trkpt lat="43.5068026037548" lon="12.31300191544477"><ele>575.0</ele><time>2026-04-20T15:24:02Z</time></trkpt><trkpt lat="43.50692569361165" lon="12.31321505803847"><ele>573.3333333333333</ele><time>2026-04-20T15:24:03Z</time></trkpt><trkpt lat="43.50702839020344" lon="12.313450574384177"><ele>571.6666666666666</ele><time>2026-04-20T15:24:04Z</time></trkpt><trkpt lat="43.50710008158183" lon="12.313710149136957"><ele>570.0</ele><time>2026-04-20T15:24:05Z</time></trkpt><trkpt lat="43.507130058853726" lon="12.313984361363287"><ele>574.3333333333334</ele><time>2026-04-20T15:24:06Z</time></trkpt><trkpt lat="43.507134439942455" lon="12.31426054533805"><ele>578.6666666666667</ele><time>2026-04-20T15:24:07Z</time></trkpt><trkpt lat="43.5071362748202" lon="12.314540628625707"><ele>583.0</ele><time>2026-04-20T15:24:08Z</time></trkpt><trkpt lat="43.50714765430833" lon="12.314822183560068"><ele>584.6666666666667</ele><time>2026-04-20T15:24:09Z</time></trkpt><trkpt lat="43.50715217875747" lon="12.315097626222649"><ele>586.3333333333334</ele><time>2026-04-20T15:24:10Z</time></trkpt><trkpt lat="43.50714156848832" lon="12.3153648302414"><ele>588.0</ele><time>2026-04-20T15:24:11Z</time></trkpt><trkpt lat="43.507120560696706" lon="12.315621400357584"><ele>588.5</ele><time>2026-04-20T15:24:12Z</time></trkpt><trkpt lat="43.50709488591487" lon="12.315841905778889"><ele>589.0</ele><time>2026-04-20T15:24:13Z</time></trkpt><trkpt lat="43.50708761014086" lon="12.316044887015517"><ele>589.5</ele><time>2026-04-20T15:24:14Z</time></trkpt><trkpt lat="43.50713675698147" lon="12.316217477324834"><ele>590.0</ele><time>2026-04-20T15:24:15Z</time></trkpt><trkpt lat="43.50723896171449" lon="12.316372690668128"><ele>590.6666666666666</ele><time>2026-04-20T15:24:16Z</time></trkpt><trkpt lat="43.507362929437804" lon="12.316536007272138"><ele>591.3333333333334</ele><time>2026-04-20T15:24:17Z</time></trkpt><trkpt lat="43.50746291364824" lon="12.316740662784389"><ele>592.0</ele><time>2026-04-20T15:24:18Z</time></trkpt><trkpt lat="43.50752593733769" lon="12.31698634397453"><ele>592.0</ele><time>2026-04-20T15:24:19Z</time></trkpt><trkpt lat="43.50755165224387" lon="12.317223671287923"><ele>592.0</ele><time>2026-04-20T15:24:20Z</time></trkpt><trkpt lat="43.507539548993606" lon="12.317415437567721"><ele>592.0</ele><time>2026-04-20T15:24:21Z</time></trkpt><trkpt lat="43.507484295900994" lon="12.317563017876317"><ele>592.0</ele><time>2026-04-20T15:24:22Z</time></trkpt><trkpt lat="43.5073809003689" lon="12.31766855746409"><ele>592.0</ele><time>2026-04-20T15:24:23Z</time></trkpt><trkpt lat="43.50724633203641" lon="12.317729630996952"><ele>592.0</ele><time>2026-04-20T15:24:24Z</time></trkpt><trkpt lat="43.50709481338739" lon="12.31773834437528"><ele>592.0</ele><time>2026-04-20T15:24:25Z</time></trkpt><trkpt lat="43.506954355230505" lon="12.31766709690624"><ele>592.0</ele><time>2026-04-20T15:24:26Z</time></trkpt><trkpt lat="43.506820032007035" lon="12.317566319206517"><ele>592.0</ele><time>2026-04-20T15:24:27Z</time></trkpt><trkpt lat="43.506674371190016" lon="12.317490166076265"><ele>592.0</ele><time>2026-04-20T15:24:28Z</time></trkpt><trkpt lat="43.506530011976224" lon="12.317434988678512"><ele>592.0</ele><time>2026-04-20T15:24:29Z</time></trkpt><trkpt lat="43.50637212548336" lon="12.317451478930035"><ele>592.0</ele><time>2026-04-20T15:24:30Z</time></trkpt><trkpt lat="43.50622002463075" lon="12.317529443714935"><ele>592.0</ele><time>2026-04-20T15:24:31Z</time></trkpt><trkpt lat="43.50608688902732" lon="12.317657038755566"><ele>592.0</ele><time>2026-04-20T15:24:32Z</time></trkpt><trkpt lat="43.505989510295706" lon="12.317822958274878"><ele>592.0</ele><time>2026-04-20T15:24:33Z</time></trkpt><trkpt lat="43.50592512728446" lon="12.31800912724045"><ele>592.0</ele><time>2026-04-20T15:24:34Z</time></trkpt><trkpt lat="43.50588327677613" lon="12.318182753884104"><ele>592.0</ele><time>2026-04-20T15:24:35Z</time></trkpt><trkpt lat="43.505820464473466" lon="12.318313584933907"><ele>592.0</ele><time>2026-04-20T15:24:36Z</time></trkpt><trkpt lat="43.5057191866259" lon="12.318374532051719"><ele>595.5</ele><time>2026-04-20T15:24:37Z</time></trkpt><trkpt lat="43.50559863144573" lon="12.318330844671458"><ele>599.0</ele><time>2026-04-20T15:24:38Z</time></trkpt><trkpt lat="43.5054682141783" lon="12.318320114491884"><ele>602.5</ele><time>2026-04-20T15:24:39Z</time></trkpt><trkpt lat="43.505346337212345" lon="12.318282095846183"><ele>606.0</ele><time>2026-04-20T15:24:40Z</time></trkpt><trkpt lat="43.505234604820465" lon="12.3182618382257"><ele>606.0</ele><time>2026-04-20T15:24:41Z</time></trkpt><trkpt lat="43.505138723243704" lon="12.31825931487042"><ele>606.0</ele><time>2026-04-20T15:24:42Z</time></trkpt><trkpt lat="43.505049797942675" lon="12.318268641855685"><ele>606.0</ele><time>2026-04-20T15:24:43Z</time></trkpt><trkpt lat="43.50496611373107" lon="12.318308487241097"><ele>606.0</ele><time>2026-04-20T15:24:44Z</time></trkpt><trkpt lat="43.50489657625239" lon="12.31838671044412"><ele>606.0</ele><time>2026-04-20T15:24:45Z</time></trkpt><trkpt lat="43.50483900914662" lon="12.31849541925337"><ele>606.0</ele><time>2026-04-20T15:24:46Z</time></trkpt><trkpt lat="43.50480018550639" lon="12.318616247624727"><ele>606.0</ele><time>2026-04-20T15:24:47Z</time></trkpt><trkpt lat="43.50478569556504" lon="12.318751790323121"><ele>606.0</ele><time>2026-04-20T15:24:48Z</time></trkpt><trkpt lat="43.50477314389339" lon="12.318887573504647"><ele>606.0</ele><time>2026-04-20T15:24:49Z</time></trkpt><trkpt lat="43.50476768577807" lon="12.31903371970953"><ele>606.0</ele><time>2026-04-20T15:24:50Z</time></trkpt><trkpt lat="43.50476234172026" lon="12.319195025008517"><ele>608.0</ele><time>2026-04-20T15:24:51Z</time></trkpt><trkpt lat="43.50475413990012" lon="12.319359099523842"><ele>610.0</ele><time>2026-04-20T15:24:52Z</time></trkpt><trkpt lat="43.504752248432645" lon="12.31952945369691"><ele>612.0</ele><time>2026-04-20T15:24:53Z</time></trkpt><trkpt lat="43.504777462796824" lon="12.319691805810706"><ele>614.0</ele><time>2026-04-20T15:24:54Z</time></trkpt><trkpt lat="43.504826994493975" lon="12.319847018189192"><ele>614.25</ele><time>2026-04-20T15:24:55Z</time></trkpt><trkpt lat="43.504892535562725" lon="12.319990793700292"><ele>614.5</ele><time>2026-04-20T15:24:56Z</time></trkpt><trkpt lat="43.50496385151753" lon="12.320128052913972"><ele>614.75</ele><time>2026-04-20T15:24:57Z</time></trkpt><trkpt lat="43.50502922992047" lon="12.320276528351346"><ele>615.0</ele><time>2026-04-20T15:24:58Z</time></trkpt><trkpt lat="43.50507627830182" lon="12.320442712076199"><ele>615.25</ele><time>2026-04-20T15:24:59Z</time></trkpt><trkpt lat="43.505093097736534" lon="12.320632541170282"><ele>615.5</ele><time>2026-04-20T15:25:00Z</time></trkpt><trkpt lat="43.50509972808072" lon="12.320830459600161"><ele>615.75</ele><time>2026-04-20T15:25:01Z</time></trkpt><trkpt lat="43.505116511977484" lon="12.321012393422464"><ele>616.0</ele><time>2026-04-20T15:25:02Z</time></trkpt><trkpt lat="43.50515503166704" lon="12.321185602839925"><ele>616.0</ele><time>2026-04-20T15:25:03Z</time></trkpt><trkpt lat="43.50521730552752" lon="12.321343920748156"><ele>616.0</ele><time>2026-04-20T15:25:04Z</time></trkpt><trkpt lat="43.505302065140185" lon="12.321481885296743"><ele>616.0</ele><time>2026-04-20T15:25:05Z</time></trkpt><trkpt lat="43.50540320462483" lon="12.321605165321925"><ele>616.0</ele><time>2026-04-20T15:25:06Z</time></trkpt><trkpt lat="43.50552215005911" lon="12.321724335409913"><ele>619.6666666666667</ele><time>2026-04-20T15:25:07Z</time></trkpt><trkpt lat="43.505672296523045" lon="12.321837033390128"><ele>623.3333333333334</ele><time>2026-04-20T15:25:08Z</time></trkpt><trkpt lat="43.50583394901112" lon="12.321974875185026"><ele>627.0</ele><time>2026-04-20T15:25:09Z</time></trkpt><trkpt lat="43.50601563789458" lon="12.322103137189538"><ele>627.3333333333334</ele><time>2026-04-20T15:25:10Z</time></trkpt><trkpt lat="43.506208272493296" lon="12.322239126201895"><ele>627.6666666666667</ele><time>2026-04-20T15:25:11Z</time></trkpt><trkpt lat="43.50640225229212" lon="12.322376064850776"><ele>628.0</ele><time>2026-04-20T15:25:12Z</time></trkpt><trkpt lat="43.50659193127333" lon="12.322495327844239"><ele>628.0</ele><time>2026-04-20T15:25:13Z</time></trkpt><trkpt lat="43.50676860701191" lon="12.322646576668902"><ele>628.0</ele><time>2026-04-20T15:25:14Z</time></trkpt><trkpt lat="43.506928799955325" lon="12.322812661254208"><ele>628.0</ele><time>2026-04-20T15:25:15Z</time></trkpt><trkpt lat="43.507073358321044" lon="12.323009399649491"><ele>630.6666666666667</ele><time>2026-04-20T15:25:16Z</time></trkpt><trkpt lat="43.50720643974531" lon="12.323230910161154"><ele>633.3333333333334</ele><time>2026-04-20T15:25:17Z</time></trkpt><trkpt lat="43.507336192179224" lon="12.323459587112653"><ele>636.0</ele><time>2026-04-20T15:25:18Z</time></trkpt><trkpt lat="43.5074657540102" lon="12.323688208164421"><ele>632.6666666666666</ele><time>2026-04-20T15:25:19Z</time></trkpt><trkpt lat="43.507602403878955" lon="12.323907516803578"><ele>629.3333333333333</ele><time>2026-04-20T15:25:20Z</time></trkpt><trkpt lat="43.507748469783216" lon="12.324102782842175"><ele>626.0</ele><time>2026-04-20T15:25:21Z</time></trkpt><trkpt lat="43.507909790271285" lon="12.324282502408982"><ele>632.6666666666666</ele><time>2026-04-20T15:25:22Z</time></trkpt><trkpt lat="43.508089255358065" lon="12.32442622380178"><ele>639.3333333333334</ele><time>2026-04-20T15:25:23Z</time></trkpt><trkpt lat="43.508273703473975" lon="12.324545297456389"><ele>646.0</ele><time>2026-04-20T15:25:24Z</time></trkpt><trkpt lat="43.50846124110974" lon="12.324656799115765"><ele>646.6666666666667</ele><time>2026-04-20T15:25:25Z</time></trkpt><trkpt lat="43.50864386313407" lon="12.324783403436568"><ele>647.3333333333334</ele><time>2026-04-20T15:25:26Z</time></trkpt><trkpt lat="43.50881100005815" lon="12.324938925032784"><ele>648.0</ele><time>2026-04-20T15:25:27Z</time></trkpt><trkpt lat="43.50896184043609" lon="12.32512480812006"><ele>648.0</ele><time>2026-04-20T15:25:28Z</time></trkpt><trkpt lat="43.509090213577906" lon="12.32533028810243"><ele>648.0</ele><time>2026-04-20T15:25:29Z</time></trkpt><trkpt lat="43.50920051546675" lon="12.32552925928488"><ele>648.0</ele><time>2026-04-20T15:25:30Z</time></trkpt><trkpt lat="43.50932642961088" lon="12.325672350565602"><ele>648.6666666666666</ele><time>2026-04-20T15:25:31Z</time></trkpt><trkpt lat="43.509488961161765" lon="12.325765662289273"><ele>649.3333333333333</ele><time>2026-04-20T15:25:32Z</time></trkpt><trkpt lat="43.50967405223008" lon="12.32581101837816"><ele>650.0</ele><time>2026-04-20T15:25:33Z</time></trkpt><trkpt lat="43.509865447279154" lon="12.325823784445902"><ele>650.0</ele><time>2026-04-20T15:25:34Z</time></trkpt><trkpt lat="43.510047689126495" lon="12.325810576292278"><ele>650.0</ele><time>2026-04-20T15:25:35Z</time></trkpt><trkpt lat="43.51021473277791" lon="12.325802987414761"><ele>650.0</ele><time>2026-04-20T15:25:36Z</time></trkpt><trkpt lat="43.51036162184214" lon="12.325821201412257"><ele>651.0</ele><time>2026-04-20T15:25:37Z</time></trkpt><trkpt lat="43.510487056922244" lon="12.325889629424351"><ele>652.0</ele><time>2026-04-20T15:25:38Z</time></trkpt><trkpt lat="43.510578912342076" lon="12.326010778355766"><ele>653.0</ele><time>2026-04-20T15:25:39Z</time></trkpt><trkpt lat="43.510620296489805" lon="12.326173664479876"><ele>654.0</ele><time>2026-04-20T15:25:40Z</time></trkpt><trkpt lat="43.51060402882177" lon="12.3263466604542"><ele>655.3333333333334</ele><time>2026-04-20T15:25:41Z</time></trkpt><trkpt lat="43.510536180652295" lon="12.326520949188454"><ele>656.6666666666667</ele><time>2026-04-20T15:25:42Z</time></trkpt><trkpt lat="43.51044246280698" lon="12.326688461118067"><ele>658.0</ele><time>2026-04-20T15:25:43Z</time></trkpt><trkpt lat="43.510328668056395" lon="12.326867781029767"><ele>658.3333333333334</ele><time>2026-04-20T15:25:44Z</time></trkpt><trkpt lat="43.510214915463365" lon="12.327065316264266"><ele>658.6666666666666</ele><time>2026-04-20T15:25:45Z</time></trkpt><trkpt lat="43.51010328281079" lon="12.327264456040187"><ele>659.0</ele><time>2026-04-20T15:25:46Z</time></trkpt><trkpt lat="43.50998202803569" lon="12.32742559963588"><ele>659.0</ele><time>2026-04-20T15:25:47Z</time></trkpt><trkpt lat="43.509845128753085" lon="12.327521958792117"><ele>659.0</ele><time>2026-04-20T15:25:48Z</time></trkpt><trkpt lat="43.509684077446934" lon="12.327555767566848"><ele>659.0</ele><time>2026-04-20T15:25:49Z</time></trkpt><trkpt lat="43.50950474279448" lon="12.32756035953972"><ele>657.0</ele><time>2026-04-20T15:25:50Z</time></trkpt><trkpt lat="43.5093197221069" lon="12.32757573727041"><ele>655.0</ele><time>2026-04-20T15:25:51Z</time></trkpt><trkpt lat="43.50913203987174" lon="12.327603146229688"><ele>653.0</ele><time>2026-04-20T15:25:52Z</time></trkpt><trkpt lat="43.508970820974376" lon="12.327647136726801"><ele>653.0</ele><time>2026-04-20T15:25:53Z</time></trkpt><trkpt lat="43.50883691128485" lon="12.32773027950763"><ele>653.0</ele><time>2026-04-20T15:25:54Z</time></trkpt><trkpt lat="43.50874169694604" lon="12.327853296066914"><ele>653.0</ele><time>2026-04-20T15:25:55Z</time></trkpt><trkpt lat="43.50866925659018" lon="12.328023278789585"><ele>653.0</ele><time>2026-04-20T15:25:56Z</time></trkpt><trkpt lat="43.50865676669615" lon="12.328275278925553"><ele>653.6666666666666</ele><time>2026-04-20T15:25:57Z</time></trkpt><trkpt lat="43.508652060083584" lon="12.32850990848622"><ele>654.3333333333334</ele><time>2026-04-20T15:25:58Z</time></trkpt><trkpt lat="43.50872505438946" lon="12.328744697674098"><ele>655.0</ele><time>2026-04-20T15:25:59Z</time></trkpt><trkpt lat="43.508791665123624" lon="12.328968892500564"><ele>658.6666666666667</ele><time>2026-04-20T15:26:00Z</time></trkpt><trkpt lat="43.50889737339584" lon="12.329151895581402"><ele>662.3333333333334</ele><time>2026-04-20T15:26:01Z</time></trkpt><trkpt lat="43.50902535908007" lon="12.329285491613291"><ele>666.0</ele><time>2026-04-20T15:26:02Z</time></trkpt><trkpt lat="43.50916836316498" lon="12.329336701726024"><ele>666.0</ele><time>2026-04-20T15:26:03Z</time></trkpt><trkpt lat="43.509312859058824" lon="12.329351333089535"><ele>666.0</ele><time>2026-04-20T15:26:04Z</time></trkpt><trkpt lat="43.509456476227435" lon="12.329289407575665"><ele>666.0</ele><time>2026-04-20T15:26:05Z</time></trkpt><trkpt lat="43.50962523065635" lon="12.32918019622295"><ele>666.0</ele><time>2026-04-20T15:26:06Z</time></trkpt><trkpt lat="43.50978510197766" lon="12.32905563268216"><ele>666.0</ele><time>2026-04-20T15:26:07Z</time></trkpt><trkpt lat="43.50995388610085" lon="12.328891009839605"><ele>666.0</ele><time>2026-04-20T15:26:08Z</time></trkpt><trkpt lat="43.51011573985728" lon="12.32874082895406"><ele>666.0</ele><time>2026-04-20T15:26:09Z</time></trkpt><trkpt lat="43.51027679375435" lon="12.328598146233565"><ele>666.0</ele><time>2026-04-20T15:26:10Z</time></trkpt><trkpt lat="43.51044261109832" lon="12.328484771043932"><ele>666.0</ele><time>2026-04-20T15:26:11Z</time></trkpt><trkpt lat="43.510603216816186" lon="12.328433580966635"><ele>665.3333333333334</ele><time>2026-04-20T15:26:12Z</time></trkpt><trkpt lat="43.51076238094034" lon="12.32845478810503"><ele>664.6666666666667</ele><time>2026-04-20T15:26:13Z</time></trkpt><trkpt lat="43.51094773431343" lon="12.328520998419547"><ele>664.0</ele><time>2026-04-20T15:26:14Z</time></trkpt><trkpt lat="43.51111978504183" lon="12.328600033035368"><ele>668.3333333333334</ele><time>2026-04-20T15:26:15Z</time></trkpt><trkpt lat="43.51131163592556" lon="12.328662609634982"><ele>672.6666666666666</ele><time>2026-04-20T15:26:16Z</time></trkpt><trkpt lat="43.51152272159363" lon="12.32871741443846"><ele>677.0</ele><time>2026-04-20T15:26:17Z</time></trkpt><trkpt lat="43.51174715575221" lon="12.328772778980921"><ele>677.0</ele><time>2026-04-20T15:26:18Z</time></trkpt><trkpt lat="43.51194472081117" lon="12.32883143775912"><ele>677.0</ele><time>2026-04-20T15:26:19Z</time></trkpt><trkpt lat="43.512122849628945" lon="12.328881382525774"><ele>677.0</ele><time>2026-04-20T15:26:20Z</time></trkpt><trkpt lat="43.512276748105116" lon="12.328922896598646"><ele>675.5</ele><time>2026-04-20T15:26:21Z</time></trkpt><trkpt lat="43.512406778808014" lon="12.328991812204801"><ele>674.0</ele><time>2026-04-20T15:26:22Z</time></trkpt><trkpt lat="43.51249355048795" lon="12.329111513625891"><ele>672.5</ele><time>2026-04-20T15:26:23Z</time></trkpt><trkpt lat="43.51257599036635" lon="12.329267035552661"><ele>671.0</ele><time>2026-04-20T15:26:24Z</time></trkpt><trkpt lat="43.51260831878225" lon="12.329443180513195"><ele>671.0</ele><time>2026-04-20T15:26:25Z</time></trkpt><trkpt lat="43.51261572227163" lon="12.329631913287507"><ele>671.0</ele><time>2026-04-20T15:26:26Z</time></trkpt><trkpt lat="43.512597859715726" lon="12.329834927296126"><ele>671.0</ele><time>2026-04-20T15:26:27Z</time></trkpt><trkpt lat="43.51259225628395" lon="12.330029036505742"><ele>671.0</ele><time>2026-04-20T15:26:28Z</time></trkpt><trkpt lat="43.51259060727211" lon="12.330216032349645"><ele>668.75</ele><time>2026-04-20T15:26:29Z</time></trkpt><trkpt lat="43.51263721792459" lon="12.330367553587537"><ele>666.5</ele><time>2026-04-20T15:26:30Z</time></trkpt><trkpt lat="43.51273206407544" lon="12.330470160607028"><ele>664.25</ele><time>2026-04-20T15:26:31Z</time></trkpt><trkpt lat="43.51285479471234" lon="12.330506131095946"><ele>662.0</ele><time>2026-04-20T15:26:32Z</time></trkpt><trkpt lat="43.51300109417406" lon="12.330493811883464"><ele>669.3333333333333</ele><time>2026-04-20T15:26:33Z</time></trkpt><trkpt lat="43.51316077222077" lon="12.330486400242242"><ele>676.6666666666666</ele><time>2026-04-20T15:26:34Z</time></trkpt><trkpt lat="43.51332173874587" lon="12.33050233602531"><ele>684.0</ele><time>2026-04-20T15:26:35Z</time></trkpt><trkpt lat="43.513459981259466" lon="12.330538371081943"><ele>680.25</ele><time>2026-04-20T15:26:36Z</time></trkpt><trkpt lat="43.513573927303675" lon="12.330632528662525"><ele>676.5</ele><time>2026-04-20T15:26:37Z</time></trkpt><trkpt lat="43.513655810977475" lon="12.330783368734824"><ele>672.75</ele><time>2026-04-20T15:26:38Z</time></trkpt><trkpt lat="43.51370215852708" lon="12.330981592053691"><ele>669.0</ele><time>2026-04-20T15:26:39Z</time></trkpt><trkpt lat="43.513697316853715" lon="12.331196828178724"><ele>669.0</ele><time>2026-04-20T15:26:40Z</time></trkpt><trkpt lat="43.51370365327051" lon="12.331387607833511"><ele>669.0</ele><time>2026-04-20T15:26:41Z</time></trkpt><trkpt lat="43.51372715319378" lon="12.331544435128531"><ele>669.0</ele><time>2026-04-20T15:26:42Z</time></trkpt><trkpt lat="43.513807071040404" lon="12.331654910419653"><ele>669.0</ele><time>2026-04-20T15:26:43Z</time></trkpt><trkpt lat="43.513925887225454" lon="12.331702651082992"><ele>670.5</ele><time>2026-04-20T15:26:44Z</time></trkpt><trkpt lat="43.51406650132676" lon="12.331693762038388"><ele>672.0</ele><time>2026-04-20T15:26:45Z</time></trkpt><trkpt lat="43.514215574462355" lon="12.331646450877487"><ele>673.5</ele><time>2026-04-20T15:26:46Z</time></trkpt><trkpt lat="43.51435736400154" lon="12.331566715533706"><ele>675.0</ele><time>2026-04-20T15:26:47Z</time></trkpt><trkpt lat="43.51448029216036" lon="12.331467939871175"><ele>678.5</ele><time>2026-04-20T15:26:48Z</time></trkpt><trkpt lat="43.51459946005579" lon="12.33140915971327"><ele>682.0</ele><time>2026-04-20T15:26:49Z</time></trkpt><trkpt lat="43.51471414128528" lon="12.331364793732945"><ele>685.5</ele><time>2026-04-20T15:26:50Z</time></trkpt><trkpt lat="43.51483891219534" lon="12.331387696307269"><ele>689.0</ele><time>2026-04-20T15:26:51Z</time></trkpt><trkpt lat="43.514975737821366" lon="12.331461227218817"><ele>689.0</ele><time>2026-04-20T15:26:52Z</time></trkpt><trkpt lat="43.51507618602253" lon="12.331644915925356"><ele>689.0</ele><time>2026-04-20T15:26:53Z</time></trkpt><trkpt lat="43.51518472321897" lon="12.331841175525476"><ele>689.0</ele><time>2026-04-20T15:26:54Z</time></trkpt><trkpt lat="43.51528332582057" lon="12.33207160455544"><ele>693.3333333333333</ele><time>2026-04-20T15:26:55Z</time></trkpt><trkpt lat="43.515399961205176" lon="12.332286470970574"><ele>697.6666666666666</ele><time>2026-04-20T15:26:56Z</time></trkpt><trkpt lat="43.51551952380208" lon="12.332484185288957"><ele>702.0</ele><time>2026-04-20T15:26:57Z</time></trkpt><trkpt lat="43.51562888666317" lon="12.332649058205373"><ele>702.0</ele><time>2026-04-20T15:26:58Z</time></trkpt><trkpt lat="43.5157354231382" lon="12.332784124870942"><ele>702.0</ele><time>2026-04-20T15:26:59Z</time></trkpt><trkpt lat="43.51580481559339" lon="12.332932496572722"><ele>702.0</ele><time>2026-04-20T15:27:00Z</time></trkpt><trkpt lat="43.51581827465229" lon="12.333099253253973"><ele>702.0</ele><time>2026-04-20T15:27:01Z</time></trkpt><trkpt lat="43.51577801761726" lon="12.333263355417156"><ele>699.25</ele><time>2026-04-20T15:27:02Z</time></trkpt><trkpt lat="43.51568868639095" lon="12.33339685529189"><ele>696.5</ele><time>2026-04-20T15:27:03Z</time></trkpt><trkpt lat="43.515565443691656" lon="12.333486857580025"><ele>693.75</ele><time>2026-04-20T15:27:04Z</time></trkpt><trkpt lat="43.515433683698184" lon="12.3335655070749"><ele>691.0</ele><time>2026-04-20T15:27:05Z</time></trkpt><trkpt lat="43.51534212230604" lon="12.333681518038436"><ele>684.25</ele><time>2026-04-20T15:27:06Z</time></trkpt><trkpt lat="43.51528845833369" lon="12.333827482769077"><ele>677.5</ele><time>2026-04-20T15:27:07Z</time></trkpt><trkpt lat="43.51527730372444" lon="12.33399085165783"><ele>670.75</ele><time>2026-04-20T15:27:08Z</time></trkpt><trkpt lat="43.515311873424444" lon="12.334159609103823"><ele>664.0</ele><time>2026-04-20T15:27:09Z</time></trkpt><trkpt lat="43.51539489882062" lon="12.33429909435078"><ele>670.5</ele><time>2026-04-20T15:27:10Z</time></trkpt><trkpt lat="43.51552348687731" lon="12.334387875005255"><ele>677.0</ele><time>2026-04-20T15:27:11Z</time></trkpt><trkpt lat="43.515671879423735" lon="12.334431613845103"><ele>683.5</ele><time>2026-04-20T15:27:12Z</time></trkpt><trkpt lat="43.51580972360255" lon="12.33446286168162"><ele>690.0</ele><time>2026-04-20T15:27:13Z</time></trkpt><trkpt lat="43.515945252425325" lon="12.334500998314352"><ele>690.0</ele><time>2026-04-20T15:27:14Z</time></trkpt><trkpt lat="43.5160817520574" lon="12.334540009359248"><ele>690.0</ele><time>2026-04-20T15:27:15Z</time></trkpt><trkpt lat="43.516220218057065" lon="12.334582092525967"><ele>690.0</ele><time>2026-04-20T15:27:16Z</time></trkpt><trkpt lat="43.51636257885658" lon="12.334626896216133"><ele>690.0</ele><time>2026-04-20T15:27:17Z</time></trkpt><trkpt lat="43.51650968318307" lon="12.334668583906378"><ele>686.6666666666666</ele><time>2026-04-20T15:27:18Z</time></trkpt><trkpt lat="43.5166626868061" lon="12.334708327671338"><ele>683.3333333333333</ele><time>2026-04-20T15:27:19Z</time></trkpt><trkpt lat="43.516818965842596" lon="12.334758095285034"><ele>680.0</ele><time>2026-04-20T15:27:20Z</time></trkpt><trkpt lat="43.51698725929501" lon="12.33482302585158"><ele>684.3333333333333</ele><time>2026-04-20T15:27:21Z</time></trkpt><trkpt lat="43.51716020421157" lon="12.334895333928797"><ele>688.6666666666666</ele><time>2026-04-20T15:27:22Z</time></trkpt><trkpt lat="43.5173302199537" lon="12.33497042657559"><ele>693.0</ele><time>2026-04-20T15:27:23Z</time></trkpt><trkpt lat="43.51749632904081" lon="12.335052426714222"><ele>693.0</ele><time>2026-04-20T15:27:24Z</time></trkpt><trkpt lat="43.51764468221794" lon="12.335124076836593"><ele>693.0</ele><time>2026-04-20T15:27:25Z</time></trkpt><trkpt lat="43.51776488212401" lon="12.335230234873839"><ele>693.0</ele><time>2026-04-20T15:27:26Z</time></trkpt><trkpt lat="43.517876280196674" lon="12.33533745895346"><ele>693.0</ele><time>2026-04-20T15:27:27Z</time></trkpt><trkpt lat="43.51794442046923" lon="12.335508620821294"><ele>696.3333333333334</ele><time>2026-04-20T15:27:28Z</time></trkpt><trkpt lat="43.51798306231372" lon="12.335710022424179"><ele>699.6666666666667</ele><time>2026-04-20T15:27:29Z</time></trkpt><trkpt lat="43.517995424044145" lon="12.335928377844436"><ele>703.0</ele><time>2026-04-20T15:27:30Z</time></trkpt><trkpt lat="43.51798204140458" lon="12.33615855795741"><ele>704.6666666666667</ele><time>2026-04-20T15:27:31Z</time></trkpt><trkpt lat="43.517938898685394" lon="12.336398292730747"><ele>706.3333333333334</ele><time>2026-04-20T15:27:32Z</time></trkpt><trkpt lat="43.51786799822068" lon="12.336618718502697"><ele>708.0</ele><time>2026-04-20T15:27:33Z</time></trkpt><trkpt lat="43.517756989388765" lon="12.336821449566326"><ele>707.3333333333334</ele><time>2026-04-20T15:27:34Z</time></trkpt><trkpt lat="43.517618538094034" lon="12.336986487248275"><ele>706.6666666666667</ele><time>2026-04-20T15:27:35Z</time></trkpt><trkpt lat="43.51746242916083" lon="12.337135323249464"><ele>706.0</ele><time>2026-04-20T15:27:36Z</time></trkpt><trkpt lat="43.517307730612735" lon="12.337288535476608"><ele>706.0</ele><time>2026-04-20T15:27:37Z</time></trkpt><trkpt lat="43.517165742862" lon="12.337453370314638"><ele>706.0</ele><time>2026-04-20T15:27:38Z</time></trkpt><trkpt lat="43.517015956391184" lon="12.337618222898774"><ele>706.0</ele><time>2026-04-20T15:27:39Z</time></trkpt><trkpt lat="43.51685867887526" lon="12.33776513605937"><ele>706.0</ele><time>2026-04-20T15:27:40Z</time></trkpt><trkpt lat="43.51669484952498" lon="12.337887222262992"><ele>706.0</ele><time>2026-04-20T15:27:41Z</time></trkpt><trkpt lat="43.51652213894536" lon="12.337995673487976"><ele>706.0</ele><time>2026-04-20T15:27:42Z</time></trkpt><trkpt lat="43.51635072471639" lon="12.338107062685973"><ele>702.0</ele><time>2026-04-20T15:27:43Z</time></trkpt><trkpt lat="43.51618163215965" lon="12.338225836863783"><ele>698.0</ele><time>2026-04-20T15:27:44Z</time></trkpt><trkpt lat="43.51602443021222" lon="12.338339095641002"><ele>694.0</ele><time>2026-04-20T15:27:45Z</time></trkpt><trkpt lat="43.515887887166045" lon="12.338441912352733"><ele>694.0</ele><time>2026-04-20T15:27:46Z</time></trkpt><trkpt lat="43.51576518775708" lon="12.338537316046088"><ele>694.0</ele><time>2026-04-20T15:27:47Z</time></trkpt><trkpt lat="43.515663922120346" lon="12.338654982440856"><ele>694.0</ele><time>2026-04-20T15:27:48Z</time></trkpt><trkpt lat="43.51559225275151" lon="12.338807861557177"><ele>694.0</ele><time>2026-04-20T15:27:49Z</time></trkpt><trkpt lat="43.51555227564906" lon="12.338990595135385"><ele>695.75</ele><time>2026-04-20T15:27:50Z</time></trkpt><trkpt lat="43.51555490509324" lon="12.339186840879528"><ele>697.5</ele><time>2026-04-20T15:27:51Z</time></trkpt><trkpt lat="43.515607575319635" lon="12.339367169548632"><ele>699.25</ele><time>2026-04-20T15:27:52Z</time></trkpt><trkpt lat="43.51569980693103" lon="12.339514784537014"><ele>701.0</ele><time>2026-04-20T15:27:53Z</time></trkpt><trkpt lat="43.5158204208346" lon="12.33962164396158"><ele>701.0</ele><time>2026-04-20T15:27:54Z</time></trkpt><trkpt lat="43.515957999386" lon="12.339699462529495"><ele>701.0</ele><time>2026-04-20T15:27:55Z</time></trkpt><trkpt lat="43.51610324916093" lon="12.339774515335424"><ele>701.0</ele><time>2026-04-20T15:27:56Z</time></trkpt><trkpt lat="43.51625553119305" lon="12.33985185142301"><ele>703.0</ele><time>2026-04-20T15:27:57Z</time></trkpt><trkpt lat="43.5164136158553" lon="12.339926884501603"><ele>705.0</ele><time>2026-04-20T15:27:58Z</time></trkpt><trkpt lat="43.51657430675956" lon="12.340011405410664"><ele>707.0</ele><time>2026-04-20T15:27:59Z</time></trkpt><trkpt lat="43.51673473037672" lon="12.340106154900162"><ele>707.0</ele><time>2026-04-20T15:28:00Z</time></trkpt><trkpt lat="43.5168946022827" lon="12.340199863429907"><ele>707.0</ele><time>2026-04-20T15:28:01Z</time></trkpt><trkpt lat="43.517051975514725" lon="12.340277794185573"><ele>707.0</ele><time>2026-04-20T15:28:02Z</time></trkpt><trkpt lat="43.51721248394812" lon="12.340324803808794"><ele>712.0</ele><time>2026-04-20T15:28:03Z</time></trkpt><trkpt lat="43.51738227959626" lon="12.340332707497502"><ele>717.0</ele><time>2026-04-20T15:28:04Z</time></trkpt><trkpt lat="43.517552493013774" lon="12.340311584768157"><ele>722.0</ele><time>2026-04-20T15:28:05Z</time></trkpt><trkpt lat="43.5177296828792" lon="12.340289759804715"><ele>725.0</ele><time>2026-04-20T15:28:06Z</time></trkpt><trkpt lat="43.51790590021448" lon="12.34028801311925"><ele>728.0</ele><time>2026-04-20T15:28:07Z</time></trkpt><trkpt lat="43.51808408001731" lon="12.340321094380544"><ele>731.0</ele><time>2026-04-20T15:28:08Z</time></trkpt><trkpt lat="43.51825913869634" lon="12.34038630883185"><ele>731.0</ele><time>2026-04-20T15:28:09Z</time></trkpt><trkpt lat="43.51842948239929" lon="12.340486906787982"><ele>731.0</ele><time>2026-04-20T15:28:10Z</time></trkpt><trkpt lat="43.518592528673054" lon="12.34060836818268"><ele>731.0</ele><time>2026-04-20T15:28:11Z</time></trkpt><trkpt lat="43.51874197045711" lon="12.340731990522748"><ele>727.75</ele><time>2026-04-20T15:28:12Z</time></trkpt><trkpt lat="43.51886826902171" lon="12.340861962908363"><ele>724.5</ele><time>2026-04-20T15:28:13Z</time></trkpt><trkpt lat="43.51896199462932" lon="12.341018289518681"><ele>721.25</ele><time>2026-04-20T15:28:14Z</time></trkpt><trkpt lat="43.5190110591887" lon="12.341200613167354"><ele>718.0</ele><time>2026-04-20T15:28:15Z</time></trkpt><trkpt lat="43.519009781339754" lon="12.341390072230428"><ele>716.6666666666667</ele><time>2026-04-20T15:28:16Z</time></trkpt><trkpt lat="43.51896160999204" lon="12.341571522098578"><ele>715.3333333333334</ele><time>2026-04-20T15:28:17Z</time></trkpt><trkpt lat="43.51887583654463" lon="12.341737461825211"><ele>714.0</ele><time>2026-04-20T15:28:18Z</time></trkpt><trkpt lat="43.51875917172051" lon="12.341892112301954"><ele>707.0</ele><time>2026-04-20T15:28:19Z</time></trkpt><trkpt lat="43.518637068176446" lon="12.342038947077057"><ele>700.0</ele><time>2026-04-20T15:28:20Z</time></trkpt><trkpt lat="43.518536925547124" lon="12.342190278867164"><ele>693.0</ele><time>2026-04-20T15:28:21Z</time></trkpt><trkpt lat="43.518479597800194" lon="12.342369371616137"><ele>693.0</ele><time>2026-04-20T15:28:22Z</time></trkpt><trkpt lat="43.51846481685924" lon="12.342581495437313"><ele>693.0</ele><time>2026-04-20T15:28:23Z</time></trkpt><trkpt lat="43.518488279285634" lon="12.342793805611489"><ele>693.0</ele><time>2026-04-20T15:28:24Z</time></trkpt><trkpt lat="43.518538275378766" lon="12.343001605811073"><ele>693.5</ele><time>2026-04-20T15:28:25Z</time></trkpt><trkpt lat="43.51861439852108" lon="12.34317634922611"><ele>694.0</ele><time>2026-04-20T15:28:26Z</time></trkpt><trkpt lat="43.518688694340725" lon="12.343320386453529"><ele>694.5</ele><time>2026-04-20T15:28:27Z</time></trkpt><trkpt lat="43.51871912130292" lon="12.343479885848497"><ele>695.0</ele><time>2026-04-20T15:28:28Z</time></trkpt><trkpt lat="43.51869641500501" lon="12.343668404301155"><ele>695.0</ele><time>2026-04-20T15:28:29Z</time></trkpt><trkpt lat="43.51863568252643" lon="12.343855676792309"><ele>695.0</ele><time>2026-04-20T15:28:30Z</time></trkpt><trkpt lat="43.5185662726921" lon="12.34403502841338"><ele>695.0</ele><time>2026-04-20T15:28:31Z</time></trkpt><trkpt lat="43.51852415295998" lon="12.344232074150367"><ele>695.0</ele><time>2026-04-20T15:28:32Z</time></trkpt><trkpt lat="43.51853126024042" lon="12.3444467168897"><ele>694.3333333333333</ele><time>2026-04-20T15:28:33Z</time></trkpt><trkpt lat="43.51857013105698" lon="12.34467277531385"><ele>693.6666666666666</ele><time>2026-04-20T15:28:34Z</time></trkpt><trkpt lat="43.51862502730752" lon="12.344897182237819"><ele>693.0</ele><time>2026-04-20T15:28:35Z</time></trkpt><trkpt lat="43.51869584087533" lon="12.345117234021036"><ele>703.6666666666666</ele><time>2026-04-20T15:28:36Z</time></trkpt><trkpt lat="43.51877615774024" lon="12.34533426561471"><ele>714.3333333333333</ele><time>2026-04-20T15:28:37Z</time></trkpt><trkpt lat="43.518857701494426" lon="12.345521088122293"><ele>725.0</ele><time>2026-04-20T15:28:38Z</time></trkpt><trkpt lat="43.51893390788063" lon="12.345689414251071"><ele>725.0</ele><time>2026-04-20T15:28:39Z</time></trkpt><trkpt lat="43.5189965362126" lon="12.345852136440186"><ele>725.0</ele><time>2026-04-20T15:28:40Z</time></trkpt><trkpt lat="43.519031362995584" lon="12.346014155160795"><ele>725.0</ele><time>2026-04-20T15:28:41.001Z</time></trkpt><trkpt lat="43.51902842594819" lon="12.346177593943702"><ele>725.0</ele><time>2026-04-20T15:28:42.001Z</time></trkpt><trkpt lat="43.51897561806927" lon="12.346326334953467"><ele>725.5</ele><time>2026-04-20T15:28:43.001Z</time></trkpt><trkpt lat="43.51887337287985" lon="12.34644386955216"><ele>726.0</ele><time>2026-04-20T15:28:44.001Z</time></trkpt><trkpt lat="43.518738790213455" lon="12.346534382784407"><ele>726.5</ele><time>2026-04-20T15:28:45.001Z</time></trkpt><trkpt lat="43.51859373546387" lon="12.346629933564047"><ele>727.0</ele><time>2026-04-20T15:28:46.001Z</time></trkpt><trkpt lat="43.51845230283243" lon="12.346750670769296"><ele>719.0</ele><time>2026-04-20T15:28:47.001Z</time></trkpt><trkpt lat="43.51830114058594" lon="12.346883410516003"><ele>711.0</ele><time>2026-04-20T15:28:48.001Z</time></trkpt><trkpt lat="43.51817195240061" lon="12.347000053876727"><ele>703.0</ele><time>2026-04-20T15:28:49.001Z</time></trkpt><trkpt lat="43.51805364025447" lon="12.347109789922055"><ele>702.25</ele><time>2026-04-20T15:28:50.001Z</time></trkpt><trkpt lat="43.51794265379117" lon="12.34722715736877"><ele>701.5</ele><time>2026-04-20T15:28:51.001Z</time></trkpt><trkpt lat="43.517863452959396" lon="12.347367245428668"><ele>700.75</ele><time>2026-04-20T15:28:52.001Z</time></trkpt><trkpt lat="43.517825356483826" lon="12.347540113369936"><ele>700.0</ele><time>2026-04-20T15:28:53.001Z</time></trkpt><trkpt lat="43.51781325509238" lon="12.347731230100992"><ele>700.0</ele><time>2026-04-20T15:28:54.001Z</time></trkpt><trkpt lat="43.51778061766971" lon="12.347926551829687"><ele>700.0</ele><time>2026-04-20T15:28:55.001Z</time></trkpt><trkpt lat="43.51771816389058" lon="12.348123121831488"><ele>700.0</ele><time>2026-04-20T15:28:56.001Z</time></trkpt><trkpt lat="43.51763528557675" lon="12.34828943061206"><ele>700.0</ele><time>2026-04-20T15:28:57.001Z</time></trkpt><trkpt lat="43.517531142495066" lon="12.348428778495308"><ele>704.25</ele><time>2026-04-20T15:28:58.001Z</time></trkpt><trkpt lat="43.5174134524158" lon="12.348534872591596"><ele>708.5</ele><time>2026-04-20T15:28:59.001Z</time></trkpt><trkpt lat="43.5172861771091" lon="12.348609699154323"><ele>712.75</ele><time>2026-04-20T15:29:00Z</time></trkpt><trkpt lat="43.517162819027604" lon="12.348644251561561"><ele>717.0</ele><time>2026-04-20T15:29:01Z</time></trkpt><trkpt lat="43.51704426488914" lon="12.348620424274136"><ele>719.5</ele><time>2026-04-20T15:29:02Z</time></trkpt><trkpt lat="43.51692912332763" lon="12.348535725124735"><ele>722.0</ele><time>2026-04-20T15:29:03Z</time></trkpt><trkpt lat="43.51682657049869" lon="12.348399654159172"><ele>724.5</ele><time>2026-04-20T15:29:04Z</time></trkpt><trkpt lat="43.516736513059655" lon="12.348224174112797"><ele>727.0</ele><time>2026-04-20T15:29:05Z</time></trkpt><trkpt lat="43.51666136081531" lon="12.348031349132151"><ele>724.25</ele><time>2026-04-20T15:29:06Z</time></trkpt><trkpt lat="43.51658013611593" lon="12.347874617839015"><ele>721.5</ele><time>2026-04-20T15:29:07Z</time></trkpt><trkpt lat="43.51647704084843" lon="12.347762439669507"><ele>718.75</ele><time>2026-04-20T15:29:08Z</time></trkpt><trkpt lat="43.51635912196802" lon="12.347709722815555"><ele>716.0</ele><time>2026-04-20T15:29:09Z</time></trkpt><trkpt lat="43.51623106537285" lon="12.347692178886087"><ele>716.0</ele><time>2026-04-20T15:29:10Z</time></trkpt><trkpt lat="43.51609459797734" lon="12.347687902336299"><ele>716.0</ele><time>2026-04-20T15:29:11Z</time></trkpt><trkpt lat="43.515950534268065" lon="12.34767928828222"><ele>716.0</ele><time>2026-04-20T15:29:12Z</time></trkpt><trkpt lat="43.515800615723016" lon="12.347665232217373"><ele>716.0</ele><time>2026-04-20T15:29:13Z</time></trkpt><trkpt lat="43.515642655888385" lon="12.34764784450042"><ele>716.0</ele><time>2026-04-20T15:29:14Z</time></trkpt><trkpt lat="43.51547557349149" lon="12.347624624317938"><ele>716.0</ele><time>2026-04-20T15:29:15Z</time></trkpt><trkpt lat="43.51530884617087" lon="12.347580321478985"><ele>716.0</ele><time>2026-04-20T15:29:16Z</time></trkpt><trkpt lat="43.51515291901255" lon="12.347518114311377"><ele>717.6666666666666</ele><time>2026-04-20T15:29:17Z</time></trkpt><trkpt lat="43.5150051347878" lon="12.347469461823733"><ele>719.3333333333334</ele><time>2026-04-20T15:29:18Z</time></trkpt><trkpt lat="43.514844343276735" lon="12.347461813256912"><ele>721.0</ele><time>2026-04-20T15:29:19Z</time></trkpt><trkpt lat="43.51467555552214" lon="12.347489839701558"><ele>720.25</ele><time>2026-04-20T15:29:20Z</time></trkpt><trkpt lat="43.51451091457257" lon="12.347519839174218"><ele>719.5</ele><time>2026-04-20T15:29:21Z</time></trkpt><trkpt lat="43.514368314210756" lon="12.347548176559993"><ele>718.75</ele><time>2026-04-20T15:29:22Z</time></trkpt><trkpt lat="43.514244123370304" lon="12.347570539500138"><ele>718.0</ele><time>2026-04-20T15:29:23Z</time></trkpt><trkpt lat="43.514132390759414" lon="12.347615339396933"><ele>718.0</ele><time>2026-04-20T15:29:24Z</time></trkpt><trkpt lat="43.51404820680946" lon="12.347712055304813"><ele>718.0</ele><time>2026-04-20T15:29:25Z</time></trkpt><trkpt lat="43.514008877469394" lon="12.347847836615983"><ele>718.0</ele><time>2026-04-20T15:29:26Z</time></trkpt><trkpt lat="43.51401727174373" lon="12.34800528006937"><ele>718.0</ele><time>2026-04-20T15:29:27Z</time></trkpt><trkpt lat="43.51405816387467" lon="12.348177185564307"><ele>719.25</ele><time>2026-04-20T15:29:28Z</time></trkpt><trkpt lat="43.514093151517834" lon="12.348360082184591"><ele>720.5</ele><time>2026-04-20T15:29:29Z</time></trkpt><trkpt lat="43.514106575738275" lon="12.34855870244604"><ele>721.75</ele><time>2026-04-20T15:29:30Z</time></trkpt><trkpt lat="43.514093320076356" lon="12.34877111030947"><ele>723.0</ele><time>2026-04-20T15:29:31Z</time></trkpt><trkpt lat="43.51406713460978" lon="12.348992252377865"><ele>723.6666666666666</ele><time>2026-04-20T15:29:32Z</time></trkpt><trkpt lat="43.51405846773243" lon="12.349214622480588"><ele>724.3333333333333</ele><time>2026-04-20T15:29:33Z</time></trkpt><trkpt lat="43.5140751671431" lon="12.349421241474992"><ele>725.0</ele><time>2026-04-20T15:29:34Z</time></trkpt><trkpt lat="43.514100309733045" lon="12.349614370182913"><ele>727.75</ele><time>2026-04-20T15:29:35Z</time></trkpt><trkpt lat="43.51410920672671" lon="12.349792564626783"><ele>730.5</ele><time>2026-04-20T15:29:36Z</time></trkpt><trkpt lat="43.51407624023904" lon="12.349949798744364"><ele>733.25</ele><time>2026-04-20T15:29:37Z</time></trkpt><trkpt lat="43.514001852143615" lon="12.350074719099196"><ele>736.0</ele><time>2026-04-20T15:29:38Z</time></trkpt><trkpt lat="43.513899928825836" lon="12.350155677494655"><ele>736.0</ele><time>2026-04-20T15:29:39Z</time></trkpt><trkpt lat="43.513775802149326" lon="12.350191529298927"><ele>736.0</ele><time>2026-04-20T15:29:40Z</time></trkpt><trkpt lat="43.51363564695202" lon="12.350190388801309"><ele>736.0</ele><time>2026-04-20T15:29:41Z</time></trkpt><trkpt lat="43.51349603526747" lon="12.350161226762873"><ele>736.0</ele><time>2026-04-20T15:29:42Z</time></trkpt><trkpt lat="43.51334942540095" lon="12.350137879132529"><ele>733.0</ele><time>2026-04-20T15:29:43Z</time></trkpt><trkpt lat="43.513195047852264" lon="12.350120570190382"><ele>730.0</ele><time>2026-04-20T15:29:44Z</time></trkpt><trkpt lat="43.51303105535346" lon="12.350094979779065"><ele>727.0</ele><time>2026-04-20T15:29:45Z</time></trkpt><trkpt lat="43.512866169979965" lon="12.350034437242298"><ele>727.0</ele><time>2026-04-20T15:29:46Z</time></trkpt><trkpt lat="43.512730139648006" lon="12.349884687728334"><ele>727.0</ele><time>2026-04-20T15:29:47Z</time></trkpt><trkpt lat="43.51260621494431" lon="12.349724655635326"><ele>727.0</ele><time>2026-04-20T15:29:48Z</time></trkpt><trkpt lat="43.51248262574083" lon="12.34954326077782"><ele>721.6666666666667</ele><time>2026-04-20T15:29:49Z</time></trkpt><trkpt lat="43.51236457831527" lon="12.349368421125645"><ele>716.3333333333334</ele><time>2026-04-20T15:29:50Z</time></trkpt><trkpt lat="43.51222381190519" lon="12.349240236672454"><ele>711.0</ele><time>2026-04-20T15:29:51Z</time></trkpt><trkpt lat="43.5120931704611" lon="12.34911508906382"><ele>711.25</ele><time>2026-04-20T15:29:52Z</time></trkpt><trkpt lat="43.51197949631764" lon="12.348979138155029"><ele>711.5</ele><time>2026-04-20T15:29:53Z</time></trkpt><trkpt lat="43.511854560329546" lon="12.348887752332299"><ele>711.75</ele><time>2026-04-20T15:29:54Z</time></trkpt><trkpt lat="43.511753740724004" lon="12.348806412349042"><ele>712.0</ele><time>2026-04-20T15:29:55Z</time></trkpt><trkpt lat="43.51167830988306" lon="12.348748565461237"><ele>712.0</ele><time>2026-04-20T15:29:56Z</time></trkpt><trkpt lat="43.51159370512969" lon="12.348830014272561"><ele>712.0</ele><time>2026-04-20T15:29:57Z</time></trkpt><trkpt lat="43.511553241274704" lon="12.348934621583714"><ele>712.0</ele><time>2026-04-20T15:29:58Z</time></trkpt><trkpt lat="43.5115497810264" lon="12.349064144033541"><ele>712.0</ele><time>2026-04-20T15:29:59Z</time></trkpt><trkpt lat="43.51156753024359" lon="12.34920780464885"><ele>712.0</ele><time>2026-04-20T15:30:00Z</time></trkpt><trkpt lat="43.511604179530586" lon="12.34935486659658"><ele>712.75</ele><time>2026-04-20T15:30:01Z</time></trkpt><trkpt lat="43.511664166799456" lon="12.34949689130962"><ele>713.5</ele><time>2026-04-20T15:30:02Z</time></trkpt><trkpt lat="43.511740266847575" lon="12.349647500905467"><ele>714.25</ele><time>2026-04-20T15:30:03Z</time></trkpt><trkpt lat="43.51182402517721" lon="12.349807181987046"><ele>715.0</ele><time>2026-04-20T15:30:04Z</time></trkpt><trkpt lat="43.5119220497579" lon="12.349961716733787"><ele>715.0</ele><time>2026-04-20T15:30:05Z</time></trkpt><trkpt lat="43.512016345112286" lon="12.350109879569677"><ele>715.0</ele><time>2026-04-20T15:30:06Z</time></trkpt><trkpt lat="43.51208785345104" lon="12.350282148289763"><ele>715.0</ele><time>2026-04-20T15:30:07Z</time></trkpt><trkpt lat="43.51213566483872" lon="12.350473626504215"><ele>715.0</ele><time>2026-04-20T15:30:08Z</time></trkpt><trkpt lat="43.5121508187653" lon="12.350682754667245"><ele>723.0</ele><time>2026-04-20T15:30:09Z</time></trkpt><trkpt lat="43.51214054204803" lon="12.350899675868682"><ele>731.0</ele><time>2026-04-20T15:30:10Z</time></trkpt><trkpt lat="43.51212414521071" lon="12.351110579175568"><ele>739.0</ele><time>2026-04-20T15:30:11Z</time></trkpt><trkpt lat="43.51211550774483" lon="12.351303492868597"><ele>738.5</ele><time>2026-04-20T15:30:12Z</time></trkpt><trkpt lat="43.512121357127185" lon="12.351485921372092"><ele>738.0</ele><time>2026-04-20T15:30:13Z</time></trkpt><trkpt lat="43.51215734824126" lon="12.351654956437377"><ele>737.5</ele><time>2026-04-20T15:30:14Z</time></trkpt><trkpt lat="43.51223856604479" lon="12.351809337045536"><ele>737.0</ele><time>2026-04-20T15:30:15Z</time></trkpt><trkpt lat="43.51235453915069" lon="12.351947099736257"><ele>737.0</ele><time>2026-04-20T15:30:16Z</time></trkpt><trkpt lat="43.51248273700647" lon="12.352081990656208"><ele>737.0</ele><time>2026-04-20T15:30:17Z</time></trkpt><trkpt lat="43.51260969279717" lon="12.352228371706644"><ele>737.0</ele><time>2026-04-20T15:30:18Z</time></trkpt><trkpt lat="43.5127246376502" lon="12.352403384708028"><ele>736.3333333333333</ele><time>2026-04-20T15:30:19Z</time></trkpt><trkpt lat="43.51281301684312" lon="12.352609648372864"><ele>735.6666666666666</ele><time>2026-04-20T15:30:20Z</time></trkpt><trkpt lat="43.512877296530995" lon="12.352832874280839"><ele>735.0</ele><time>2026-04-20T15:30:21Z</time></trkpt><trkpt lat="43.51294095446586" lon="12.353040974178466"><ele>735.0</ele><time>2026-04-20T15:30:22Z</time></trkpt><trkpt lat="43.51303884954899" lon="12.353216201430246"><ele>735.0</ele><time>2026-04-20T15:30:23Z</time></trkpt><trkpt lat="43.51318091728971" lon="12.35335109188437"><ele>735.0</ele><time>2026-04-20T15:30:24Z</time></trkpt><trkpt lat="43.51334278957202" lon="12.353444575825577"><ele>735.0</ele><time>2026-04-20T15:30:25Z</time></trkpt><trkpt lat="43.51351317663746" lon="12.353520009695524"><ele>735.0</ele><time>2026-04-20T15:30:26Z</time></trkpt><trkpt lat="43.51368900575255" lon="12.35357664174172"><ele>735.0</ele><time>2026-04-20T15:30:27Z</time></trkpt><trkpt lat="43.51387005033072" lon="12.35360345363599"><ele>740.0</ele><time>2026-04-20T15:30:28Z</time></trkpt><trkpt lat="43.51405611425219" lon="12.353616842588169"><ele>745.0</ele><time>2026-04-20T15:30:29Z</time></trkpt><trkpt lat="43.51424427839358" lon="12.353628169763903"><ele>750.0</ele><time>2026-04-20T15:30:30Z</time></trkpt><trkpt lat="43.51442355013851" lon="12.353642506065613"><ele>748.6666666666666</ele><time>2026-04-20T15:30:31Z</time></trkpt><trkpt lat="43.514588286483246" lon="12.353640302499933"><ele>747.3333333333333</ele><time>2026-04-20T15:30:32Z</time></trkpt><trkpt lat="43.51474354569042" lon="12.353601469333501"><ele>746.0</ele><time>2026-04-20T15:30:33Z</time></trkpt><trkpt lat="43.51489611247883" lon="12.353514672618697"><ele>746.0</ele><time>2026-04-20T15:30:34Z</time></trkpt><trkpt lat="43.51505312041324" lon="12.353396059000518"><ele>746.0</ele><time>2026-04-20T15:30:35Z</time></trkpt><trkpt lat="43.515213095864766" lon="12.353309938950781"><ele>746.0</ele><time>2026-04-20T15:30:36Z</time></trkpt><trkpt lat="43.51537016935116" lon="12.353227311789736"><ele>745.75</ele><time>2026-04-20T15:30:37Z</time></trkpt><trkpt lat="43.51551798814276" lon="12.353150842628125"><ele>745.5</ele><time>2026-04-20T15:30:38Z</time></trkpt><trkpt lat="43.51566410344723" lon="12.353128954624781"><ele>745.25</ele><time>2026-04-20T15:30:39Z</time></trkpt><trkpt lat="43.515799632247486" lon="12.353160205306931"><ele>745.0</ele><time>2026-04-20T15:30:40Z</time></trkpt><trkpt lat="43.51591853533401" lon="12.353247241010783"><ele>745.0</ele><time>2026-04-20T15:30:41Z</time></trkpt><trkpt lat="43.5160140153019" lon="12.35338404806621"><ele>745.0</ele><time>2026-04-20T15:30:42Z</time></trkpt><trkpt lat="43.5160724911267" lon="12.35355073694688"><ele>745.0</ele><time>2026-04-20T15:30:43Z</time></trkpt><trkpt lat="43.51609694963402" lon="12.353733349854668"><ele>745.0</ele><time>2026-04-20T15:30:44Z</time></trkpt><trkpt lat="43.516078847249815" lon="12.353935077886465"><ele>740.3333333333334</ele><time>2026-04-20T15:30:45Z</time></trkpt><trkpt lat="43.51603679851997" lon="12.35413594419639"><ele>735.6666666666666</ele><time>2026-04-20T15:30:46Z</time></trkpt><trkpt lat="43.515986298653615" lon="12.354341575059308"><ele>731.0</ele><time>2026-04-20T15:30:47.001Z</time></trkpt><trkpt lat="43.51596676984868" lon="12.354565307305458"><ele>729.0</ele><time>2026-04-20T15:30:48.001Z</time></trkpt><trkpt lat="43.51599144835638" lon="12.354796103512038"><ele>727.0</ele><time>2026-04-20T15:30:49.001Z</time></trkpt><trkpt lat="43.516011816309195" lon="12.355028793091387"><ele>725.0</ele><time>2026-04-20T15:30:50.001Z</time></trkpt><trkpt lat="43.51599023754921" lon="12.355243725505051"><ele>725.0</ele><time>2026-04-20T15:30:51.001Z</time></trkpt><trkpt lat="43.515936712686184" lon="12.355452791121927"><ele>725.0</ele><time>2026-04-20T15:30:52.001Z</time></trkpt><trkpt lat="43.5158446820352" lon="12.355640257622484"><ele>725.0</ele><time>2026-04-20T15:30:53.001Z</time></trkpt><trkpt lat="43.515738398232585" lon="12.355803058508958"><ele>726.25</ele><time>2026-04-20T15:30:54.001Z</time></trkpt><trkpt lat="43.51565489832148" lon="12.355962791438388"><ele>727.5</ele><time>2026-04-20T15:30:55.001Z</time></trkpt><trkpt lat="43.51559460929314" lon="12.356121096188264"><ele>728.75</ele><time>2026-04-20T15:30:56.001Z</time></trkpt><trkpt lat="43.51556667815406" lon="12.356302398255515"><ele>730.0</ele><time>2026-04-20T15:30:57.001Z</time></trkpt><trkpt lat="43.51557454120594" lon="12.356502601567643"><ele>731.0</ele><time>2026-04-20T15:30:58.001Z</time></trkpt><trkpt lat="43.51561201058182" lon="12.356711620072936"><ele>732.0</ele><time>2026-04-20T15:30:59.001Z</time></trkpt><trkpt lat="43.51565295525043" lon="12.356901286634258"><ele>733.0</ele><time>2026-04-20T15:31:00.001Z</time></trkpt><trkpt lat="43.51569715675519" lon="12.357066767929664"><ele>734.0</ele><time>2026-04-20T15:31:01.001Z</time></trkpt><trkpt lat="43.51575826676901" lon="12.35719157237025"><ele>734.4000000000001</ele><time>2026-04-20T15:31:02.001Z</time></trkpt><trkpt lat="43.51581512641285" lon="12.357275375437142"><ele>734.8</ele><time>2026-04-20T15:31:03.001Z</time></trkpt><trkpt lat="43.515768820881455" lon="12.357482495558264"><ele>735.2</ele><time>2026-04-20T15:31:06.001Z</time></trkpt><trkpt lat="43.51571390357534" lon="12.357569792602414"><ele>735.5999999999999</ele><time>2026-04-20T15:31:07.001Z</time></trkpt><trkpt lat="43.5156503583529" lon="12.357680069035831"><ele>736.0</ele><time>2026-04-20T15:31:08.001Z</time></trkpt><trkpt lat="43.51558688275431" lon="12.357794892256459"><ele>736.0</ele><time>2026-04-20T15:31:09.001Z</time></trkpt><trkpt lat="43.51551860228256" lon="12.357917464297964"><ele>736.0</ele><time>2026-04-20T15:31:10.001Z</time></trkpt><trkpt lat="43.515462771682145" lon="12.358044081613642"><ele>736.0</ele><time>2026-04-20T15:31:11.001Z</time></trkpt><trkpt lat="43.51543111907829" lon="12.358177586172946"><ele>736.0</ele><time>2026-04-20T15:31:12.001Z</time></trkpt><trkpt lat="43.51542067807705" lon="12.35832509624469"><ele>736.0</ele><time>2026-04-20T15:31:13.001Z</time></trkpt><trkpt lat="43.51542630979992" lon="12.358475447336144"><ele>738.5999999999999</ele><time>2026-04-20T15:31:14.001Z</time></trkpt><trkpt lat="43.515428774870074" lon="12.35862931853739"><ele>741.2</ele><time>2026-04-20T15:31:15.001Z</time></trkpt><trkpt lat="43.515421700512164" lon="12.358775089476167"><ele>743.8</ele><time>2026-04-20T15:31:16Z</time></trkpt><trkpt lat="43.515436728787776" lon="12.358914525564742"><ele>746.4000000000001</ele><time>2026-04-20T15:31:17Z</time></trkpt><trkpt lat="43.515479815191824" lon="12.359059449631356"><ele>749.0</ele><time>2026-04-20T15:31:18Z</time></trkpt><trkpt lat="43.51554659675569" lon="12.359202672167495"><ele>751.25</ele><time>2026-04-20T15:31:19Z</time></trkpt><trkpt lat="43.5156226620331" lon="12.359346739397225"><ele>753.5</ele><time>2026-04-20T15:31:20Z</time></trkpt><trkpt lat="43.515701096139345" lon="12.35949933394877"><ele>755.75</ele><time>2026-04-20T15:31:21Z</time></trkpt><trkpt lat="43.51576924276254" lon="12.359654612177776"><ele>758.0</ele><time>2026-04-20T15:31:22Z</time></trkpt><trkpt lat="43.5158475543177" lon="12.359800660476717"><ele>758.5</ele><time>2026-04-20T15:31:23Z</time></trkpt><trkpt lat="43.51592629031052" lon="12.359937491499823"><ele>759.0</ele><time>2026-04-20T15:31:24Z</time></trkpt><trkpt lat="43.516018435864396" lon="12.360072866341067"><ele>759.5</ele><time>2026-04-20T15:31:25Z</time></trkpt><trkpt lat="43.516099624225376" lon="12.360176124568799"><ele>760.0</ele><time>2026-04-20T15:31:26Z</time></trkpt><trkpt lat="43.516179102375524" lon="12.360252495058115"><ele>760.6</ele><time>2026-04-20T15:31:27Z</time></trkpt><trkpt lat="43.516251877962596" lon="12.360352383795936"><ele>761.2</ele><time>2026-04-20T15:31:28Z</time></trkpt><trkpt lat="43.516309528892" lon="12.36048189188831"><ele>761.8</ele><time>2026-04-20T15:31:29Z</time></trkpt><trkpt lat="43.516346419381215" lon="12.36063257799014"><ele>762.4</ele><time>2026-04-20T15:31:30Z</time></trkpt><trkpt lat="43.51637883786989" lon="12.360792221824376"><ele>763.0</ele><time>2026-04-20T15:31:31Z</time></trkpt><trkpt lat="43.51641438108266" lon="12.360956936750245"><ele>765.0</ele><time>2026-04-20T15:31:32Z</time></trkpt><trkpt lat="43.51644704263938" lon="12.361115365521302"><ele>767.0</ele><time>2026-04-20T15:31:33Z</time></trkpt><trkpt lat="43.51643244672331" lon="12.361270223850305"><ele>769.0</ele><time>2026-04-20T15:31:34Z</time></trkpt><trkpt lat="43.5164297326398" lon="12.361424039499532"><ele>771.0</ele><time>2026-04-20T15:31:35Z</time></trkpt><trkpt lat="43.516401143454594" lon="12.36159150983496"><ele>772.4</ele><time>2026-04-20T15:31:36Z</time></trkpt><trkpt lat="43.51637428494545" lon="12.361754414063352"><ele>773.8</ele><time>2026-04-20T15:31:37Z</time></trkpt><trkpt lat="43.51633458092192" lon="12.361907317414687"><ele>775.1999999999999</ele><time>2026-04-20T15:31:38Z</time></trkpt><trkpt lat="43.51628086620538" lon="12.362037504149983"><ele>776.5999999999999</ele><time>2026-04-20T15:31:39Z</time></trkpt><trkpt lat="43.51623653198686" lon="12.362159105259506"><ele>778.0</ele><time>2026-04-20T15:31:40Z</time></trkpt><trkpt lat="43.51619996579804" lon="12.362276570182896"><ele>779.4999999999999</ele><time>2026-04-20T15:31:41Z</time></trkpt><trkpt lat="43.51619224357921" lon="12.362377448401757"><ele>781.0</ele><time>2026-04-20T15:31:42Z</time></trkpt><trkpt lat="43.51620167356765" lon="12.36249170498491"><ele>782.5</ele><time>2026-04-20T15:31:43Z</time></trkpt><trkpt lat="43.51624157563532" lon="12.362595348259232"><ele>784.0</ele><time>2026-04-20T15:31:44Z</time></trkpt><trkpt lat="43.5163039091886" lon="12.36268236544705"><ele>785.4999999999999</ele><time>2026-04-20T15:31:45Z</time></trkpt><trkpt lat="43.51638213975002" lon="12.362759482005512"><ele>787.0</ele><time>2026-04-20T15:31:46Z</time></trkpt><trkpt lat="43.516458655126954" lon="12.362844686758166"><ele>787.0</ele><time>2026-04-20T15:31:47Z</time></trkpt><trkpt lat="43.516523906625736" lon="12.362953465753769"><ele>787.0</ele><time>2026-04-20T15:31:48Z</time></trkpt><trkpt lat="43.51657489518725" lon="12.363079819001557"><ele>787.0</ele><time>2026-04-20T15:31:49Z</time></trkpt><trkpt lat="43.516612122242186" lon="12.363208425016277"><ele>787.0</ele><time>2026-04-20T15:31:50Z</time></trkpt><trkpt lat="43.516629895228554" lon="12.363355961543872"><ele>787.0</ele><time>2026-04-20T15:31:51Z</time></trkpt><trkpt lat="43.5166445067805" lon="12.363505873207627"><ele>786.75</ele><time>2026-04-20T15:31:52Z</time></trkpt><trkpt lat="43.516658712914186" lon="12.363672295936857"><ele>786.5</ele><time>2026-04-20T15:31:53Z</time></trkpt><trkpt lat="43.51665777467211" lon="12.363843005532898"><ele>786.25</ele><time>2026-04-20T15:31:54Z</time></trkpt><trkpt lat="43.5166516214136" lon="12.364017325637299"><ele>786.0</ele><time>2026-04-20T15:31:55Z</time></trkpt><trkpt lat="43.51664327626621" lon="12.364187567885166"><ele>786.0</ele><time>2026-04-20T15:31:56Z</time></trkpt><trkpt lat="43.516620377904054" lon="12.364343208274585"><ele>786.0</ele><time>2026-04-20T15:31:57Z</time></trkpt><trkpt lat="43.51655945819306" lon="12.364465923677367"><ele>786.0</ele><time>2026-04-20T15:31:58Z</time></trkpt><trkpt lat="43.51649704885043" lon="12.364553284444899"><ele>786.0</ele><time>2026-04-20T15:31:59Z</time></trkpt><trkpt lat="43.51643743018989" lon="12.364630289570378"><ele>786.0</ele><time>2026-04-20T15:32:00Z</time></trkpt><trkpt lat="43.51636363107713" lon="12.364703946680931"><ele>787.1999999999999</ele><time>2026-04-20T15:32:01Z</time></trkpt><trkpt lat="43.51626668505369" lon="12.364731662310119"><ele>788.4</ele><time>2026-04-20T15:32:02Z</time></trkpt><trkpt lat="43.51615512638206" lon="12.3647536022623"><ele>789.6</ele><time>2026-04-20T15:32:03Z</time></trkpt><trkpt lat="43.51604437690059" lon="12.364768311342766"><ele>790.8</ele><time>2026-04-20T15:32:04Z</time></trkpt><trkpt lat="43.51595356669587" lon="12.364788549696314"><ele>792.0</ele><time>2026-04-20T15:32:05Z</time></trkpt><trkpt lat="43.5158920756031" lon="12.364820479519782"><ele>787.4000000000001</ele><time>2026-04-20T15:32:06Z</time></trkpt><trkpt lat="43.515815373698366" lon="12.364974798007403"><ele>782.8000000000001</ele><time>2026-04-20T15:32:08Z</time></trkpt><trkpt lat="43.51578757333363" lon="12.365107132991996"><ele>778.2</ele><time>2026-04-20T15:32:09Z</time></trkpt><trkpt lat="43.51577258550238" lon="12.36523755879812"><ele>773.6</ele><time>2026-04-20T15:32:10Z</time></trkpt><trkpt lat="43.51577177867358" lon="12.3653356079192"><ele>769.0</ele><time>2026-04-20T15:32:11Z</time></trkpt><trkpt lat="43.51579941747388" lon="12.365469196266552"><ele>769.0</ele><time>2026-04-20T15:32:13Z</time></trkpt><trkpt lat="43.515848358108784" lon="12.36553395394119"><ele>769.0</ele><time>2026-04-20T15:32:14Z</time></trkpt><trkpt lat="43.51591844025592" lon="12.365618196035758"><ele>769.0</ele><time>2026-04-20T15:32:15Z</time></trkpt><trkpt lat="43.51600222554257" lon="12.365722018589551"><ele>769.0</ele><time>2026-04-20T15:32:16Z</time></trkpt><trkpt lat="43.516074218328875" lon="12.3658495271947"><ele>769.0</ele><time>2026-04-20T15:32:17Z</time></trkpt><trkpt lat="43.51613701497517" lon="12.365996809898942"><ele>769.0</ele><time>2026-04-20T15:32:18Z</time></trkpt><trkpt lat="43.51618877669864" lon="12.366154990436442"><ele>769.0</ele><time>2026-04-20T15:32:19Z</time></trkpt><trkpt lat="43.51622734030562" lon="12.366297627789217"><ele>769.0</ele><time>2026-04-20T15:32:20Z</time></trkpt><trkpt lat="43.51624994008925" lon="12.366438526008517"><ele>769.0</ele><time>2026-04-20T15:32:21Z</time></trkpt><trkpt lat="43.51625667950092" lon="12.366584158334861"><ele>769.0</ele><time>2026-04-20T15:32:22Z</time></trkpt><trkpt lat="43.51624199012556" lon="12.366735410269568"><ele>768.8000000000001</ele><time>2026-04-20T15:32:23Z</time></trkpt><trkpt lat="43.5162181880796" lon="12.36688170821907"><ele>768.6</ele><time>2026-04-20T15:32:24Z</time></trkpt><trkpt lat="43.51620933493415" lon="12.367021940591"><ele>768.4</ele><time>2026-04-20T15:32:25Z</time></trkpt><trkpt lat="43.51619145411009" lon="12.36716369978253"><ele>768.2</ele><time>2026-04-20T15:32:26Z</time></trkpt><trkpt lat="43.51616855217805" lon="12.367308477912763"><ele>768.0</ele><time>2026-04-20T15:32:27Z</time></trkpt><trkpt lat="43.51612912130543" lon="12.367455051841201"><ele>768.0</ele><time>2026-04-20T15:32:28Z</time></trkpt><trkpt lat="43.51608076162547" lon="12.367583325287788"><ele>768.0</ele><time>2026-04-20T15:32:29Z</time></trkpt><trkpt lat="43.51602358347599" lon="12.367696423161854"><ele>768.0</ele><time>2026-04-20T15:32:30Z</time></trkpt><trkpt lat="43.51596246624822" lon="12.367793064729018"><ele>768.0</ele><time>2026-04-20T15:32:31Z</time></trkpt><trkpt lat="43.515895495580736" lon="12.367884761788687"><ele>768.0</ele><time>2026-04-20T15:32:32Z</time></trkpt><trkpt lat="43.5158243672933" lon="12.367968611566567"><ele>769.5999999999999</ele><time>2026-04-20T15:32:33Z</time></trkpt><trkpt lat="43.51574338997307" lon="12.368062540729845"><ele>771.1999999999999</ele><time>2026-04-20T15:32:34Z</time></trkpt><trkpt lat="43.51566565519181" lon="12.36815244784907"><ele>772.8</ele><time>2026-04-20T15:32:35Z</time></trkpt><trkpt lat="43.51558737180206" lon="12.368244598795712"><ele>774.4</ele><time>2026-04-20T15:32:36Z</time></trkpt><trkpt lat="43.51551492913141" lon="12.368323848684176"><ele>776.0</ele><time>2026-04-20T15:32:37Z</time></trkpt><trkpt lat="43.51543347578727" lon="12.368398600891275"><ele>772.8333333333334</ele><time>2026-04-20T15:32:38Z</time></trkpt><trkpt lat="43.5153551073612" lon="12.368466534459861"><ele>769.6666666666667</ele><time>2026-04-20T15:32:39Z</time></trkpt><trkpt lat="43.51527852738013" lon="12.368534573213957"><ele>766.5</ele><time>2026-04-20T15:32:40Z</time></trkpt><trkpt lat="43.51519073757046" lon="12.368577155873975"><ele>763.3333333333334</ele><time>2026-04-20T15:32:41Z</time></trkpt><trkpt lat="43.51514140070607" lon="12.36867304358121"><ele>760.1666666666667</ele><time>2026-04-20T15:32:42Z</time></trkpt><trkpt lat="43.5151055601003" lon="12.368748829490057"><ele>757.0</ele><time>2026-04-20T15:32:43Z</time></trkpt><trkpt lat="43.515088002765545" lon="12.368932469299597"><ele>757.0</ele><time>2026-04-20T15:32:45Z</time></trkpt><trkpt lat="43.51508234722679" lon="12.369063948605017"><ele>757.0</ele><time>2026-04-20T15:32:46Z</time></trkpt><trkpt lat="43.51507890971269" lon="12.369200035878192"><ele>757.0</ele><time>2026-04-20T15:32:47Z</time></trkpt><trkpt lat="43.51507148032358" lon="12.369332037431336"><ele>757.0</ele><time>2026-04-20T15:32:48Z</time></trkpt><trkpt lat="43.515055114233654" lon="12.369449056877206"><ele>757.0</ele><time>2026-04-20T15:32:49Z</time></trkpt><trkpt lat="43.51501808605445" lon="12.369546656043262"><ele>757.0</ele><time>2026-04-20T15:32:50Z</time></trkpt><trkpt lat="43.51496593911597" lon="12.369623819952164"><ele>757.0</ele><time>2026-04-20T15:32:51Z</time></trkpt><trkpt lat="43.51489785282052" lon="12.369681874770329"><ele>757.0</ele><time>2026-04-20T15:32:52.001Z</time></trkpt><trkpt lat="43.51480600447233" lon="12.369678455102061"><ele>757.0</ele><time>2026-04-20T15:32:53.001Z</time></trkpt><trkpt lat="43.51471381199982" lon="12.369654798768828"><ele>757.0</ele><time>2026-04-20T15:32:54.001Z</time></trkpt><trkpt lat="43.51462029384015" lon="12.369650340886045"><ele>757.0</ele><time>2026-04-20T15:32:55.001Z</time></trkpt><trkpt lat="43.514512022647274" lon="12.369652255312232"><ele>756.2</ele><time>2026-04-20T15:32:56.001Z</time></trkpt><trkpt lat="43.514402422941515" lon="12.369672206244314"><ele>755.4000000000001</ele><time>2026-04-20T15:32:57.001Z</time></trkpt><trkpt lat="43.514303104052836" lon="12.369683362486978"><ele>754.5999999999999</ele><time>2026-04-20T15:32:58.001Z</time></trkpt><trkpt lat="43.51422203941442" lon="12.369722312447848"><ele>753.8</ele><time>2026-04-20T15:32:59.001Z</time></trkpt><trkpt lat="43.514138870974506" lon="12.369789211111229"><ele>753.0</ele><time>2026-04-20T15:33:00.001Z</time></trkpt><trkpt lat="43.514058812776995" lon="12.369886543967585"><ele>755.75</ele><time>2026-04-20T15:33:01.001Z</time></trkpt><trkpt lat="43.513980206263085" lon="12.369998151387492"><ele>758.5</ele><time>2026-04-20T15:33:02.001Z</time></trkpt><trkpt lat="43.513906387825884" lon="12.370125349896934"><ele>761.25</ele><time>2026-04-20T15:33:03.001Z</time></trkpt><trkpt lat="43.5138335257292" lon="12.370261051538451"><ele>764.0</ele><time>2026-04-20T15:33:04.001Z</time></trkpt><trkpt lat="43.51377864454196" lon="12.370410101860788"><ele>762.25</ele><time>2026-04-20T15:33:05.001Z</time></trkpt><trkpt lat="43.513753004494426" lon="12.37056915503899"><ele>760.5</ele><time>2026-04-20T15:33:06.001Z</time></trkpt><trkpt lat="43.513754675812" lon="12.370726785218148"><ele>758.75</ele><time>2026-04-20T15:33:07.001Z</time></trkpt><trkpt lat="43.51377809823977" lon="12.370879049632812"><ele>757.0</ele><time>2026-04-20T15:33:08.001Z</time></trkpt><trkpt lat="43.51381387603125" lon="12.37101655402469"><ele>757.0</ele><time>2026-04-20T15:33:09.001Z</time></trkpt><trkpt lat="43.51385547979288" lon="12.371131340538916"><ele>757.0</ele><time>2026-04-20T15:33:10.001Z</time></trkpt><trkpt lat="43.51387399542386" lon="12.371229543713499"><ele>757.0</ele><time>2026-04-20T15:33:11.001Z</time></trkpt><trkpt lat="43.513860880566575" lon="12.371320761206967"><ele>757.0</ele><time>2026-04-20T15:33:12Z</time></trkpt><trkpt lat="43.51381781235894" lon="12.371416503463932"><ele>757.0</ele><time>2026-04-20T15:33:13Z</time></trkpt><trkpt lat="43.51377081169398" lon="12.371527428701924"><ele>757.0</ele><time>2026-04-20T15:33:14Z</time></trkpt><trkpt lat="43.513739862032686" lon="12.371653072491634"><ele>757.0</ele><time>2026-04-20T15:33:15Z</time></trkpt><trkpt lat="43.51374334998226" lon="12.371776729135302"><ele>757.0</ele><time>2026-04-20T15:33:16Z</time></trkpt><trkpt lat="43.51377977008295" lon="12.371901444405877"><ele>757.0</ele><time>2026-04-20T15:33:17Z</time></trkpt><trkpt lat="43.513843158500954" lon="12.372011933527862"><ele>757.0</ele><time>2026-04-20T15:33:18Z</time></trkpt><trkpt lat="43.51388819933456" lon="12.372107915367465"><ele>757.0</ele><time>2026-04-20T15:33:19Z</time></trkpt><trkpt lat="43.51388987779172" lon="12.372258697812667"><ele>757.0</ele><time>2026-04-20T15:33:21Z</time></trkpt><trkpt lat="43.51377200339217" lon="12.372312914064851"><ele>757.0</ele><time>2026-04-20T15:33:23Z</time></trkpt><trkpt lat="43.51368925214011" lon="12.372334471735876"><ele>757.0</ele><time>2026-04-20T15:33:24Z</time></trkpt><trkpt lat="43.51359722877681" lon="12.37237719966457"><ele>757.0</ele><time>2026-04-20T15:33:25Z</time></trkpt><trkpt lat="43.513491304945916" lon="12.372416155271488"><ele>757.0</ele><time>2026-04-20T15:33:26Z</time></trkpt><trkpt lat="43.51338307546768" lon="12.37246879675709"><ele>758.8</ele><time>2026-04-20T15:33:27Z</time></trkpt><trkpt lat="43.513274737748546" lon="12.37251249164913"><ele>760.6</ele><time>2026-04-20T15:33:28Z</time></trkpt><trkpt lat="43.513182141574006" lon="12.372552240843902"><ele>762.4</ele><time>2026-04-20T15:33:29Z</time></trkpt><trkpt lat="43.513091640238386" lon="12.372608828292162"><ele>764.1999999999999</ele><time>2026-04-20T15:33:30Z</time></trkpt><trkpt lat="43.513025252371584" lon="12.372682901227044"><ele>766.0</ele><time>2026-04-20T15:33:31Z</time></trkpt><trkpt lat="43.51298307513059" lon="12.37280045253644"><ele>766.0</ele><time>2026-04-20T15:33:32Z</time></trkpt><trkpt lat="43.512950293313246" lon="12.372914847106419"><ele>766.0</ele><time>2026-04-20T15:33:33Z</time></trkpt><trkpt lat="43.51292518180595" lon="12.3730411151445"><ele>766.0</ele><time>2026-04-20T15:33:34Z</time></trkpt><trkpt lat="43.512911327245014" lon="12.373142511043302"><ele>766.0</ele><time>2026-04-20T15:33:35Z</time></trkpt><trkpt lat="43.512885936510884" lon="12.37323490213934"><ele>766.0</ele><time>2026-04-20T15:33:36Z</time></trkpt><trkpt lat="43.51285473524579" lon="12.373312922589172"><ele>766.0</ele><time>2026-04-20T15:33:37Z</time></trkpt><trkpt lat="43.51274607263216" lon="12.373358393243823"><ele>764.8</ele><time>2026-04-20T15:33:39Z</time></trkpt><trkpt lat="43.51269519194426" lon="12.373267569754681"><ele>763.5999999999999</ele><time>2026-04-20T15:33:40Z</time></trkpt><trkpt lat="43.51263458735567" lon="12.37317421910419"><ele>762.4</ele><time>2026-04-20T15:33:41Z</time></trkpt><trkpt lat="43.512559066679806" lon="12.373083541438012"><ele>761.2</ele><time>2026-04-20T15:33:42Z</time></trkpt><trkpt lat="43.512481093245874" lon="12.372996884863644"><ele>760.0</ele><time>2026-04-20T15:33:43Z</time></trkpt><trkpt lat="43.512388863059876" lon="12.372917390828391"><ele>760.0</ele><time>2026-04-20T15:33:44Z</time></trkpt><trkpt lat="43.512299995033736" lon="12.372851490029788"><ele>760.0</ele><time>2026-04-20T15:33:45Z</time></trkpt><trkpt lat="43.51221161523497" lon="12.372790483583861"><ele>760.0</ele><time>2026-04-20T15:33:46Z</time></trkpt><trkpt lat="43.51213556536057" lon="12.372741943787332"><ele>760.0</ele><time>2026-04-20T15:33:47Z</time></trkpt><trkpt lat="43.512050751087344" lon="12.372690974408496"><ele>760.0</ele><time>2026-04-20T15:33:48Z</time></trkpt><trkpt lat="43.511959375690765" lon="12.37264772560958"><ele>756.3333333333334</ele><time>2026-04-20T15:33:49Z</time></trkpt><trkpt lat="43.511870969308255" lon="12.37261460654791"><ele>752.6666666666667</ele><time>2026-04-20T15:33:50Z</time></trkpt><trkpt lat="43.51178483338524" lon="12.372584295604742"><ele>749.0</ele><time>2026-04-20T15:33:51Z</time></trkpt><trkpt lat="43.51170407749391" lon="12.372526717477891"><ele>745.3333333333334</ele><time>2026-04-20T15:33:52Z</time></trkpt><trkpt lat="43.51162774240937" lon="12.372466694620968"><ele>741.6666666666666</ele><time>2026-04-20T15:33:53Z</time></trkpt><trkpt lat="43.51155752906015" lon="12.372406591001727"><ele>738.0</ele><time>2026-04-20T15:33:54Z</time></trkpt><trkpt lat="43.51148842085135" lon="12.372342177997508"><ele>738.0</ele><time>2026-04-20T15:33:55Z</time></trkpt><trkpt lat="43.51141969423559" lon="12.372278246917782"><ele>738.0</ele><time>2026-04-20T15:33:56Z</time></trkpt><trkpt lat="43.51133881717359" lon="12.372228416518649"><ele>738.0</ele><time>2026-04-20T15:33:57Z</time></trkpt><trkpt lat="43.511279775078386" lon="12.372148092332571"><ele>738.0</ele><time>2026-04-20T15:33:58Z</time></trkpt><trkpt lat="43.51120794059695" lon="12.37211454043935"><ele>738.0</ele><time>2026-04-20T15:33:59Z</time></trkpt><trkpt lat="43.51111546195102" lon="12.372111623918542"><ele>738.0</ele><time>2026-04-20T15:34:00Z</time></trkpt><trkpt lat="43.51102307213678" lon="12.372130529638294"><ele>738.4</ele><time>2026-04-20T15:34:01Z</time></trkpt><trkpt lat="43.5109104901689" lon="12.372152180900278"><ele>738.8</ele><time>2026-04-20T15:34:02Z</time></trkpt><trkpt lat="43.51081176317726" lon="12.372175555256241"><ele>739.2</ele><time>2026-04-20T15:34:03Z</time></trkpt><trkpt lat="43.51071127462417" lon="12.372209496908308"><ele>739.6</ele><time>2026-04-20T15:34:04Z</time></trkpt><trkpt lat="43.51062539510792" lon="12.372251626830856"><ele>740.0</ele><time>2026-04-20T15:34:05Z</time></trkpt><trkpt lat="43.51053664756564" lon="12.372323786266287"><ele>739.8</ele><time>2026-04-20T15:34:06Z</time></trkpt><trkpt lat="43.510402659417466" lon="12.372412420936136"><ele>739.6</ele><time>2026-04-20T15:34:08Z</time></trkpt><trkpt lat="43.51030496851596" lon="12.37243937363841"><ele>739.4000000000001</ele><time>2026-04-20T15:34:09Z</time></trkpt><trkpt lat="43.510212820233534" lon="12.372442923927343"><ele>739.2</ele><time>2026-04-20T15:34:10Z</time></trkpt><trkpt lat="43.51010811611214" lon="12.372432183785426"><ele>739.0</ele><time>2026-04-20T15:34:11Z</time></trkpt><trkpt lat="43.510011390732906" lon="12.372428223925963"><ele>739.0</ele><time>2026-04-20T15:34:12Z</time></trkpt><trkpt lat="43.50991922170687" lon="12.37242432422804"><ele>739.0</ele><time>2026-04-20T15:34:13Z</time></trkpt><trkpt lat="43.509828283390306" lon="12.372394250491022"><ele>739.0</ele><time>2026-04-20T15:34:14Z</time></trkpt><trkpt lat="43.50975463921774" lon="12.372315670273112"><ele>739.0</ele><time>2026-04-20T15:34:15Z</time></trkpt><trkpt lat="43.50967325325642" lon="12.37222992635924"><ele>739.0</ele><time>2026-04-20T15:34:16Z</time></trkpt><trkpt lat="43.50960380762852" lon="12.372123987090609"><ele>736.6666666666667</ele><time>2026-04-20T15:34:17Z</time></trkpt><trkpt lat="43.50955692355061" lon="12.372013183387173"><ele>734.3333333333334</ele><time>2026-04-20T15:34:18Z</time></trkpt><trkpt lat="43.50949573762608" lon="12.371932200285713"><ele>732.0</ele><time>2026-04-20T15:34:19Z</time></trkpt><trkpt lat="43.50942283659119" lon="12.37190001970312"><ele>729.6666666666666</ele><time>2026-04-20T15:34:20Z</time></trkpt><trkpt lat="43.509341729372046" lon="12.371934155471918"><ele>727.3333333333333</ele><time>2026-04-20T15:34:21Z</time></trkpt><trkpt lat="43.50926149088222" lon="12.371911972455232"><ele>725.0</ele><time>2026-04-20T15:34:22Z</time></trkpt><trkpt lat="43.50918439248768" lon="12.371873570100707"><ele>725.0</ele><time>2026-04-20T15:34:23Z</time></trkpt><trkpt lat="43.50914998486809" lon="12.371769693121708"><ele>725.0</ele><time>2026-04-20T15:34:24Z</time></trkpt><trkpt lat="43.50905549913775" lon="12.371675204183687"><ele>725.0</ele><time>2026-04-20T15:34:26Z</time></trkpt><trkpt lat="43.508943717887476" lon="12.371699987526695"><ele>725.0</ele><time>2026-04-20T15:34:28Z</time></trkpt><trkpt lat="43.50889253228666" lon="12.371837640572602"><ele>725.0</ele><time>2026-04-20T15:34:30Z</time></trkpt><trkpt lat="43.508859963084916" lon="12.371970028125617"><ele>725.0</ele><time>2026-04-20T15:34:32Z</time></trkpt><trkpt lat="43.50883084517315" lon="12.372131929206597"><ele>725.0</ele><time>2026-04-20T15:34:34Z</time></trkpt><trkpt lat="43.508835893082264" lon="12.372220377944128"><ele>725.0</ele><time>2026-04-20T15:34:35Z</time></trkpt><trkpt lat="43.50883432597694" lon="12.372360904832751"><ele>725.0</ele><time>2026-04-20T15:34:37Z</time></trkpt><trkpt lat="43.508898929130766" lon="12.372506819883956"><ele>725.0</ele><time>2026-04-20T15:34:39Z</time></trkpt><trkpt lat="43.50893465388393" lon="12.372592374492028"><ele>726.6666666666666</ele><time>2026-04-20T15:34:40Z</time></trkpt><trkpt lat="43.50896103366152" lon="12.37267980620468"><ele>728.3333333333333</ele><time>2026-04-20T15:34:41Z</time></trkpt><trkpt lat="43.508986623897435" lon="12.372790439778093"><ele>730.0</ele><time>2026-04-20T15:34:42Z</time></trkpt><trkpt lat="43.50897251485642" lon="12.372903773038407"><ele>731.6666666666666</ele><time>2026-04-20T15:34:43Z</time></trkpt><trkpt lat="43.50895485869171" lon="12.373008374619525"><ele>733.3333333333334</ele><time>2026-04-20T15:34:44Z</time></trkpt><trkpt lat="43.50892100477366" lon="12.37311358704004"><ele>735.0</ele><time>2026-04-20T15:34:45Z</time></trkpt><trkpt lat="43.508849312219844" lon="12.373178395779723"><ele>736.8</ele><time>2026-04-20T15:34:46Z</time></trkpt><trkpt lat="43.50877531548867" lon="12.373261337064696"><ele>738.6</ele><time>2026-04-20T15:34:47Z</time></trkpt><trkpt lat="43.50870401791658" lon="12.373341895490984"><ele>740.4000000000001</ele><time>2026-04-20T15:34:48Z</time></trkpt><trkpt lat="43.50863424094806" lon="12.373419246100156"><ele>742.2</ele><time>2026-04-20T15:34:49Z</time></trkpt><trkpt lat="43.5085775104535" lon="12.373519291646595"><ele>744.0</ele><time>2026-04-20T15:34:50Z</time></trkpt><trkpt lat="43.50852645331339" lon="12.373614878992756"><ele>742.8333333333334</ele><time>2026-04-20T15:34:51Z</time></trkpt><trkpt lat="43.50848888204163" lon="12.373724618134126"><ele>741.6666666666666</ele><time>2026-04-20T15:34:52Z</time></trkpt><trkpt lat="43.5084449773203" lon="12.373837978795974"><ele>740.5</ele><time>2026-04-20T15:34:53Z</time></trkpt><trkpt lat="43.50839436783991" lon="12.373932225634306"><ele>739.3333333333333</ele><time>2026-04-20T15:34:54Z</time></trkpt><trkpt lat="43.50835814812832" lon="12.374009323357434"><ele>738.1666666666666</ele><time>2026-04-20T15:34:55Z</time></trkpt><trkpt lat="43.50831801755686" lon="12.37408005503199"><ele>737.0</ele><time>2026-04-20T15:34:56Z</time></trkpt><trkpt lat="43.50823928090466" lon="12.37418863320232"><ele>737.0</ele><time>2026-04-20T15:34:58Z</time></trkpt><trkpt lat="43.508175850275144" lon="12.374302911518946"><ele>737.0</ele><time>2026-04-20T15:35:00Z</time></trkpt><trkpt lat="43.50812799587044" lon="12.374390184054747"><ele>737.0</ele><time>2026-04-20T15:35:02Z</time></trkpt><trkpt lat="43.50810973930565" lon="12.37449813255905"><ele>737.0</ele><time>2026-04-20T15:35:04Z</time></trkpt><trkpt lat="43.508103450146585" lon="12.37460066435755"><ele>737.0</ele><time>2026-04-20T15:35:06Z</time></trkpt><trkpt lat="43.50811955199536" lon="12.374717702373346"><ele>733.0</ele><time>2026-04-20T15:35:09Z</time></trkpt></trkseg><trkseg><trkpt lat="43.38316065244183" lon="12.564462614362343"><ele>618.0</ele><time>2026-04-21T11:24:32.999Z</time></trkpt><trkpt lat="43.383088293088456" lon="12.564483850424523"><ele>618.0</ele><time>2026-04-21T11:24:56.999Z</time></trkpt><trkpt lat="43.382799854360066" lon="12.56464862974557"><ele>618.0</ele><time>2026-04-21T11:25:09.073Z</time></trkpt><trkpt lat="43.383123785731115" lon="12.564499161145251"><ele>618.0</ele><time>2026-04-21T11:25:46.922Z</time></trkpt><trkpt lat="43.38320652612946" lon="12.564598628558254"><ele>618.0</ele><time>2026-04-21T11:26:01.024Z</time></trkpt><trkpt lat="43.383168875073984" lon="12.564461963449421"><ele>618.0</ele><time>2026-04-21T11:28:06.999Z</time></trkpt><trkpt lat="43.383204703420475" lon="12.564366536440831"><ele>618.0</ele><time>2026-04-21T11:28:23.999Z</time></trkpt><trkpt lat="43.38328103828395" lon="12.564301228041908"><ele>618.0</ele><time>2026-04-21T11:28:25.999Z</time></trkpt><trkpt lat="43.38320553392898" lon="12.564331006292171"><ele>618.0</ele><time>2026-04-21T11:28:35Z</time></trkpt><trkpt lat="43.383139422503916" lon="12.564432681076454"><ele>618.0</ele><time>2026-04-21T11:28:41Z</time></trkpt><trkpt lat="43.38322039529529" lon="12.564451409429767"><ele>618.0</ele><time>2026-04-21T11:29:18Z</time></trkpt><trkpt lat="43.38331100143234" lon="12.564485564608752"><ele>618.0</ele><time>2026-04-21T11:29:35Z</time></trkpt><trkpt lat="43.38328195168091" lon="12.564566180220893"><ele>618.0</ele><time>2026-04-21T11:29:42Z</time></trkpt><trkpt lat="43.38323449873085" lon="12.564626416157472"><ele>618.0</ele><time>2026-04-21T11:29:50Z</time></trkpt><trkpt lat="43.383319922950626" lon="12.564688127679217"><ele>618.0</ele><time>2026-04-21T11:32:17Z</time></trkpt><trkpt lat="43.38341309288258" lon="12.56468321325127"><ele>618.0</ele><time>2026-04-21T11:32:19Z</time></trkpt><trkpt lat="43.383480925715126" lon="12.564638523795772"><ele>618.0</ele><time>2026-04-21T11:32:22Z</time></trkpt><trkpt lat="43.3834842013156" lon="12.56450976327261"><ele>618.0</ele><time>2026-04-21T11:32:25Z</time></trkpt><trkpt lat="43.38345251091191" lon="12.564407316444965"><ele>618.0</ele><time>2026-04-21T11:32:26Z</time></trkpt><trkpt lat="43.38339403807303" lon="12.564300971006094"><ele>618.0</ele><time>2026-04-21T11:32:27Z</time></trkpt><trkpt lat="43.38330883577073" lon="12.564180531574861"><ele>618.0</ele><time>2026-04-21T11:32:28Z</time></trkpt><trkpt lat="43.38321844176067" lon="12.56404929702831"><ele>618.0</ele><time>2026-04-21T11:32:29Z</time></trkpt><trkpt lat="43.383138360115254" lon="12.563929069222931"><ele>618.0</ele><time>2026-04-21T11:32:30Z</time></trkpt><trkpt lat="43.38305950363882" lon="12.563815734508124"><ele>618.0</ele><time>2026-04-21T11:32:31Z</time></trkpt><trkpt lat="43.38297455118279" lon="12.563695704368723"><ele>613.25</ele><time>2026-04-21T11:32:32Z</time></trkpt><trkpt lat="43.382875456352075" lon="12.563567494396283"><ele>608.5</ele><time>2026-04-21T11:32:33Z</time></trkpt><trkpt lat="43.382763437573885" lon="12.563444238728817"><ele>603.75</ele><time>2026-04-21T11:32:34Z</time></trkpt><trkpt lat="43.3826338152199" lon="12.563335079530917"><ele>599.0</ele><time>2026-04-21T11:32:35Z</time></trkpt><trkpt lat="43.38249525942862" lon="12.563232798371047"><ele>599.0</ele><time>2026-04-21T11:32:36Z</time></trkpt><trkpt lat="43.38234447069192" lon="12.563144214402673"><ele>599.0</ele><time>2026-04-21T11:32:37Z</time></trkpt><trkpt lat="43.382181061842786" lon="12.563067155571195"><ele>599.0</ele><time>2026-04-21T11:32:38Z</time></trkpt><trkpt lat="43.3820101639506" lon="12.563013648619611"><ele>593.6666666666666</ele><time>2026-04-21T11:32:39Z</time></trkpt><trkpt lat="43.38183441303548" lon="12.56297918662976"><ele>588.3333333333334</ele><time>2026-04-21T11:32:40Z</time></trkpt><trkpt lat="43.38164628964766" lon="12.562946204785232"><ele>583.0</ele><time>2026-04-21T11:32:41Z</time></trkpt><trkpt lat="43.38145872381814" lon="12.56291867056627"><ele>584.3333333333334</ele><time>2026-04-21T11:32:42Z</time></trkpt><trkpt lat="43.38128055368497" lon="12.562860563671562"><ele>585.6666666666666</ele><time>2026-04-21T11:32:43Z</time></trkpt><trkpt lat="43.381105069445205" lon="12.562825240310723"><ele>587.0</ele><time>2026-04-21T11:32:44Z</time></trkpt><trkpt lat="43.380930397730545" lon="12.562805088318996"><ele>587.0</ele><time>2026-04-21T11:32:45Z</time></trkpt><trkpt lat="43.38076281741226" lon="12.562756694864706"><ele>587.0</ele><time>2026-04-21T11:32:46Z</time></trkpt><trkpt lat="43.3805985714838" lon="12.562696382493643"><ele>587.0</ele><time>2026-04-21T11:32:47Z</time></trkpt><trkpt lat="43.38043699284582" lon="12.562620502585242"><ele>582.3333333333333</ele><time>2026-04-21T11:32:48Z</time></trkpt><trkpt lat="43.38028258028993" lon="12.562528501054908"><ele>577.6666666666666</ele><time>2026-04-21T11:32:49Z</time></trkpt><trkpt lat="43.38013644045853" lon="12.562421299996192"><ele>573.0</ele><time>2026-04-21T11:32:50Z</time></trkpt><trkpt lat="43.379995759594614" lon="12.562314405143958"><ele>573.0</ele><time>2026-04-21T11:32:51Z</time></trkpt><trkpt lat="43.379856077562074" lon="12.56220781815604"><ele>573.0</ele><time>2026-04-21T11:32:52Z</time></trkpt><trkpt lat="43.37971029354614" lon="12.562102045315562"><ele>573.0</ele><time>2026-04-21T11:32:53Z</time></trkpt><trkpt lat="43.37956252739084" lon="12.561997762149305"><ele>577.0</ele><time>2026-04-21T11:32:54Z</time></trkpt><trkpt lat="43.37941920232686" lon="12.561888645510226"><ele>581.0</ele><time>2026-04-21T11:32:55Z</time></trkpt><trkpt lat="43.379275640473644" lon="12.561765596577091"><ele>585.0</ele><time>2026-04-21T11:32:56Z</time></trkpt><trkpt lat="43.379135497404654" lon="12.561629811808123"><ele>585.0</ele><time>2026-04-21T11:32:57Z</time></trkpt><trkpt lat="43.37899024094518" lon="12.561502398662224"><ele>585.0</ele><time>2026-04-21T11:32:58Z</time></trkpt><trkpt lat="43.37884814808365" lon="12.561365570994612"><ele>585.0</ele><time>2026-04-21T11:32:59Z</time></trkpt><trkpt lat="43.37872091574426" lon="12.561198887031777"><ele>585.0</ele><time>2026-04-21T11:33:00Z</time></trkpt><trkpt lat="43.37858430247975" lon="12.561045865246532"><ele>585.0</ele><time>2026-04-21T11:33:01Z</time></trkpt><trkpt lat="43.37844606668295" lon="12.560900895416882"><ele>585.0</ele><time>2026-04-21T11:33:02Z</time></trkpt><trkpt lat="43.37830804975653" lon="12.560767527099243"><ele>585.0</ele><time>2026-04-21T11:33:03Z</time></trkpt><trkpt lat="43.37816664894333" lon="12.560644664284434"><ele>585.0</ele><time>2026-04-21T11:33:04Z</time></trkpt><trkpt lat="43.3780130497234" lon="12.560543450872853"><ele>585.0</ele><time>2026-04-21T11:33:05Z</time></trkpt><trkpt lat="43.37784619223549" lon="12.560493717943984"><ele>589.0</ele><time>2026-04-21T11:33:06Z</time></trkpt><trkpt lat="43.37767956460572" lon="12.560432594063228"><ele>593.0</ele><time>2026-04-21T11:33:07Z</time></trkpt><trkpt lat="43.3775058693278" lon="12.560382517691297"><ele>597.0</ele><time>2026-04-21T11:33:08Z</time></trkpt><trkpt lat="43.377330915969296" lon="12.560321778654478"><ele>588.3333333333334</ele><time>2026-04-21T11:33:09Z</time></trkpt><trkpt lat="43.37715337949044" lon="12.560245744168158"><ele>579.6666666666667</ele><time>2026-04-21T11:33:10Z</time></trkpt><trkpt lat="43.376977276670054" lon="12.560163933892253"><ele>571.0</ele><time>2026-04-21T11:33:11Z</time></trkpt><trkpt lat="43.37679721046293" lon="12.560078252962507"><ele>571.0</ele><time>2026-04-21T11:33:12Z</time></trkpt><trkpt lat="43.376616485802636" lon="12.559978702883583"><ele>571.0</ele><time>2026-04-21T11:33:13Z</time></trkpt><trkpt lat="43.37643682366314" lon="12.559865494319478"><ele>571.0</ele><time>2026-04-21T11:33:14Z</time></trkpt><trkpt lat="43.37625522082327" lon="12.55974742990436"><ele>576.0</ele><time>2026-04-21T11:33:15Z</time></trkpt><trkpt lat="43.37607042225469" lon="12.559627575131115"><ele>581.0</ele><time>2026-04-21T11:33:16Z</time></trkpt><trkpt lat="43.3758947769753" lon="12.559483874594017"><ele>586.0</ele><time>2026-04-21T11:33:17Z</time></trkpt><trkpt lat="43.37571442457406" lon="12.559373423449333"><ele>586.0</ele><time>2026-04-21T11:33:18Z</time></trkpt><trkpt lat="43.37553193158703" lon="12.559276312201053"><ele>586.0</ele><time>2026-04-21T11:33:19Z</time></trkpt><trkpt lat="43.375349384651024" lon="12.55919159771534"><ele>586.0</ele><time>2026-04-21T11:33:20Z</time></trkpt><trkpt lat="43.37516338710465" lon="12.55912980405035"><ele>580.3333333333334</ele><time>2026-04-21T11:33:21Z</time></trkpt><trkpt lat="43.37497778340841" lon="12.559102048810235"><ele>574.6666666666666</ele><time>2026-04-21T11:33:22Z</time></trkpt><trkpt lat="43.37479837709778" lon="12.559053496753725"><ele>569.0</ele><time>2026-04-21T11:33:23Z</time></trkpt><trkpt lat="43.374621541439616" lon="12.558985538747669"><ele>575.3333333333333</ele><time>2026-04-21T11:33:24Z</time></trkpt><trkpt lat="43.374453215114976" lon="12.558896753823172"><ele>581.6666666666666</ele><time>2026-04-21T11:33:25Z</time></trkpt><trkpt lat="43.37429931672335" lon="12.558786454106244"><ele>588.0</ele><time>2026-04-21T11:33:26Z</time></trkpt><trkpt lat="43.37411952534432" lon="12.558697619438368"><ele>588.0</ele><time>2026-04-21T11:33:27Z</time></trkpt><trkpt lat="43.37395370211731" lon="12.558597144267138"><ele>588.0</ele><time>2026-04-21T11:33:28Z</time></trkpt><trkpt lat="43.37378440497164" lon="12.558496775728775"><ele>588.0</ele><time>2026-04-21T11:33:29Z</time></trkpt><trkpt lat="43.373612640644566" lon="12.558403808303058"><ele>578.3333333333334</ele><time>2026-04-21T11:33:30Z</time></trkpt><trkpt lat="43.37343275378682" lon="12.558329809007972"><ele>568.6666666666667</ele><time>2026-04-21T11:33:31Z</time></trkpt><trkpt lat="43.373246600755685" lon="12.558262247219306"><ele>559.0</ele><time>2026-04-21T11:33:32Z</time></trkpt><trkpt lat="43.37305618808549" lon="12.558194086687925"><ele>551.6666666666667</ele><time>2026-04-21T11:33:33Z</time></trkpt><trkpt lat="43.37286823575264" lon="12.558103192722914"><ele>544.3333333333334</ele><time>2026-04-21T11:33:34Z</time></trkpt><trkpt lat="43.372676358254765" lon="12.55803450588633"><ele>537.0</ele><time>2026-04-21T11:33:35Z</time></trkpt><trkpt lat="43.372487158093534" lon="12.557970861621664"><ele>537.0</ele><time>2026-04-21T11:33:36Z</time></trkpt><trkpt lat="43.37230052035906" lon="12.55792196091553"><ele>537.0</ele><time>2026-04-21T11:33:37Z</time></trkpt><trkpt lat="43.37211677697822" lon="12.55791602119436"><ele>537.0</ele><time>2026-04-21T11:33:38Z</time></trkpt><trkpt lat="43.371939145704005" lon="12.55796108639828"><ele>532.3333333333334</ele><time>2026-04-21T11:33:39Z</time></trkpt><trkpt lat="43.37176890440983" lon="12.557991049587757"><ele>527.6666666666667</ele><time>2026-04-21T11:33:40Z</time></trkpt><trkpt lat="43.37159828930923" lon="12.55800696532914"><ele>523.0</ele><time>2026-04-21T11:33:41Z</time></trkpt><trkpt lat="43.371427863396576" lon="12.55801254101342"><ele>520.6666666666667</ele><time>2026-04-21T11:33:42Z</time></trkpt><trkpt lat="43.37125362322908" lon="12.5579922514678"><ele>518.3333333333334</ele><time>2026-04-21T11:33:43Z</time></trkpt><trkpt lat="43.37107886634081" lon="12.5579543494884"><ele>516.0</ele><time>2026-04-21T11:33:44Z</time></trkpt><trkpt lat="43.37090210704439" lon="12.55790919990383"><ele>534.6666666666666</ele><time>2026-04-21T11:33:45Z</time></trkpt><trkpt lat="43.37072387264975" lon="12.557863008605807"><ele>553.3333333333333</ele><time>2026-04-21T11:33:46Z</time></trkpt><trkpt lat="43.37054331982512" lon="12.557824450647903"><ele>572.0</ele><time>2026-04-21T11:33:47Z</time></trkpt><trkpt lat="43.37035941383898" lon="12.557812662520725"><ele>573.0</ele><time>2026-04-21T11:33:48Z</time></trkpt><trkpt lat="43.3701722327835" lon="12.557822980483174"><ele>574.0</ele><time>2026-04-21T11:33:49Z</time></trkpt><trkpt lat="43.36999316642442" lon="12.557852042658473"><ele>575.0</ele><time>2026-04-21T11:33:50Z</time></trkpt><trkpt lat="43.369823370816874" lon="12.55789722456175"><ele>559.3333333333333</ele><time>2026-04-21T11:33:51Z</time></trkpt><trkpt lat="43.369657765644014" lon="12.55794367810596"><ele>543.6666666666666</ele><time>2026-04-21T11:33:52Z</time></trkpt><trkpt lat="43.36949196307964" lon="12.557975024039568"><ele>528.0</ele><time>2026-04-21T11:33:53Z</time></trkpt><trkpt lat="43.36933109843397" lon="12.55798145128583"><ele>528.0</ele><time>2026-04-21T11:33:54Z</time></trkpt><trkpt lat="43.369172208591365" lon="12.557967689700655"><ele>528.0</ele><time>2026-04-21T11:33:55Z</time></trkpt><trkpt lat="43.36901896841559" lon="12.557935934042911"><ele>528.0</ele><time>2026-04-21T11:33:56Z</time></trkpt><trkpt lat="43.36886291429994" lon="12.557891786444626"><ele>539.0</ele><time>2026-04-21T11:33:57Z</time></trkpt><trkpt lat="43.368702302518535" lon="12.55785029039455"><ele>550.0</ele><time>2026-04-21T11:33:58Z</time></trkpt><trkpt lat="43.368528531714965" lon="12.55782031279388"><ele>561.0</ele><time>2026-04-21T11:33:59Z</time></trkpt><trkpt lat="43.36834907736602" lon="12.55778747695598"><ele>561.0</ele><time>2026-04-21T11:34:00Z</time></trkpt><trkpt lat="43.36816490580596" lon="12.557823118395046"><ele>561.0</ele><time>2026-04-21T11:34:01Z</time></trkpt><trkpt lat="43.36797784297971" lon="12.557863192270633"><ele>561.0</ele><time>2026-04-21T11:34:02Z</time></trkpt><trkpt lat="43.367790321146465" lon="12.55792143526275"><ele>545.0</ele><time>2026-04-21T11:34:03Z</time></trkpt><trkpt lat="43.36759884951173" lon="12.557983491352255"><ele>529.0</ele><time>2026-04-21T11:34:04Z</time></trkpt><trkpt lat="43.36741041537577" lon="12.558042165693056"><ele>513.0</ele><time>2026-04-21T11:34:05Z</time></trkpt><trkpt lat="43.36723131401199" lon="12.558091435707901"><ele>513.6666666666666</ele><time>2026-04-21T11:34:06Z</time></trkpt><trkpt lat="43.36705390230989" lon="12.558126802958522"><ele>514.3333333333333</ele><time>2026-04-21T11:34:07Z</time></trkpt><trkpt lat="43.36688193211513" lon="12.55814109641664"><ele>515.0</ele><time>2026-04-21T11:34:08Z</time></trkpt><trkpt lat="43.36671808273617" lon="12.55812450835643"><ele>515.0</ele><time>2026-04-21T11:34:09Z</time></trkpt><trkpt lat="43.36655826437289" lon="12.55808492809832"><ele>515.0</ele><time>2026-04-21T11:34:10Z</time></trkpt><trkpt lat="43.36639340272411" lon="12.558013101106328"><ele>515.0</ele><time>2026-04-21T11:34:11Z</time></trkpt><trkpt lat="43.3662263825759" lon="12.557915278032812"><ele>516.3333333333333</ele><time>2026-04-21T11:34:12Z</time></trkpt><trkpt lat="43.366060084830465" lon="12.557801258650183"><ele>517.6666666666666</ele><time>2026-04-21T11:34:13Z</time></trkpt><trkpt lat="43.36589313040019" lon="12.557671344111673"><ele>519.0</ele><time>2026-04-21T11:34:14Z</time></trkpt><trkpt lat="43.36573349992407" lon="12.557508314333639"><ele>519.0</ele><time>2026-04-21T11:34:15Z</time></trkpt><trkpt lat="43.36555572096655" lon="12.557366260310799"><ele>519.0</ele><time>2026-04-21T11:34:16Z</time></trkpt><trkpt lat="43.365369188012934" lon="12.5572343998612"><ele>519.0</ele><time>2026-04-21T11:34:17Z</time></trkpt><trkpt lat="43.36520662512383" lon="12.557050334243455"><ele>515.6666666666666</ele><time>2026-04-21T11:34:18Z</time></trkpt><trkpt lat="43.36508622310044" lon="12.5568186928016"><ele>512.3333333333333</ele><time>2026-04-21T11:34:19Z</time></trkpt><trkpt lat="43.36495114999582" lon="12.556602945716433"><ele>509.0</ele><time>2026-04-21T11:34:20Z</time></trkpt><trkpt lat="43.364788403515924" lon="12.556449821062289"><ele>504.0</ele><time>2026-04-21T11:34:21Z</time></trkpt><trkpt lat="43.364632080114056" lon="12.556315130626174"><ele>499.0</ele><time>2026-04-21T11:34:22Z</time></trkpt><trkpt lat="43.36448280626126" lon="12.556192137197954"><ele>494.0</ele><time>2026-04-21T11:34:23Z</time></trkpt><trkpt lat="43.36436585925921" lon="12.556039426129198"><ele>494.0</ele><time>2026-04-21T11:34:24Z</time></trkpt><trkpt lat="43.36426838054413" lon="12.555868537426798"><ele>494.0</ele><time>2026-04-21T11:34:25Z</time></trkpt><trkpt lat="43.36418663350734" lon="12.555686843348436"><ele>494.0</ele><time>2026-04-21T11:34:26Z</time></trkpt><trkpt lat="43.36410486106708" lon="12.555513250908396"><ele>495.66666666666663</ele><time>2026-04-21T11:34:27Z</time></trkpt><trkpt lat="43.36402403905557" lon="12.555318257137078"><ele>497.33333333333337</ele><time>2026-04-21T11:34:28Z</time></trkpt><trkpt lat="43.363940566153765" lon="12.555133342288283"><ele>499.0</ele><time>2026-04-21T11:34:29Z</time></trkpt><trkpt lat="43.36387043731479" lon="12.554949645916913"><ele>494.0</ele><time>2026-04-21T11:34:30Z</time></trkpt><trkpt lat="43.36374981809929" lon="12.55482131751803"><ele>489.0</ele><time>2026-04-21T11:34:31Z</time></trkpt><trkpt lat="43.36362803808871" lon="12.554698572837864"><ele>484.0</ele><time>2026-04-21T11:34:32Z</time></trkpt><trkpt lat="43.36349116069147" lon="12.55458771020276"><ele>483.33333333333337</ele><time>2026-04-21T11:34:32.999Z</time></trkpt><trkpt lat="43.36334726692542" lon="12.554473688416879"><ele>482.66666666666663</ele><time>2026-04-21T11:34:33.999Z</time></trkpt><trkpt lat="43.36319797716362" lon="12.554361579165494"><ele>482.0</ele><time>2026-04-21T11:34:34.999Z</time></trkpt><trkpt lat="43.36304389653497" lon="12.5542491342483"><ele>481.3333333333333</ele><time>2026-04-21T11:34:35.999Z</time></trkpt><trkpt lat="43.36289429876277" lon="12.55413217028033"><ele>480.66666666666663</ele><time>2026-04-21T11:34:36.999Z</time></trkpt><trkpt lat="43.36275225908094" lon="12.554023096384926"><ele>480.0</ele><time>2026-04-21T11:34:37.999Z</time></trkpt><trkpt lat="43.362621994697676" lon="12.553926239849643"><ele>480.0</ele><time>2026-04-21T11:34:38.999Z</time></trkpt><trkpt lat="43.362501809222294" lon="12.553835733905542"><ele>480.0</ele><time>2026-04-21T11:34:39.999Z</time></trkpt><trkpt lat="43.362390909914076" lon="12.553744956438765"><ele>480.0</ele><time>2026-04-21T11:34:40.999Z</time></trkpt><trkpt lat="43.362293476762915" lon="12.553663109326164"><ele>480.0</ele><time>2026-04-21T11:34:41.999Z</time></trkpt><trkpt lat="43.36222316477384" lon="12.553588345948887"><ele>479.3333333333333</ele><time>2026-04-21T11:34:42.999Z</time></trkpt><trkpt lat="43.36217012303789" lon="12.553505609748973"><ele>478.66666666666663</ele><time>2026-04-21T11:34:44Z</time></trkpt><trkpt lat="43.36213574714337" lon="12.553419644564537"><ele>478.0</ele><time>2026-04-21T11:34:45Z</time></trkpt><trkpt lat="43.36209842450913" lon="12.553316969559896"><ele>477.3333333333333</ele><time>2026-04-21T11:34:46Z</time></trkpt><trkpt lat="43.362053132299124" lon="12.55319838142564"><ele>476.66666666666663</ele><time>2026-04-21T11:34:47Z</time></trkpt><trkpt lat="43.36199997183268" lon="12.553077858927972"><ele>476.0</ele><time>2026-04-21T11:34:48Z</time></trkpt><trkpt lat="43.3619417123527" lon="12.552951836319984"><ele>475.75</ele><time>2026-04-21T11:34:49Z</time></trkpt><trkpt lat="43.36189012048749" lon="12.552812549361528"><ele>475.5</ele><time>2026-04-21T11:34:50Z</time></trkpt><trkpt lat="43.361866821317406" lon="12.552660196725226"><ele>475.25</ele><time>2026-04-21T11:34:51Z</time></trkpt><trkpt lat="43.361876249182735" lon="12.552503762619995"><ele>475.0</ele><time>2026-04-21T11:34:52Z</time></trkpt><trkpt lat="43.36190374858113" lon="12.552341839236284"><ele>475.0</ele><time>2026-04-21T11:34:53Z</time></trkpt><trkpt lat="43.361943053130624" lon="12.552170929443315"><ele>475.0</ele><time>2026-04-21T11:34:54Z</time></trkpt><trkpt lat="43.361985224227524" lon="12.551992541794018"><ele>475.0</ele><time>2026-04-21T11:34:55Z</time></trkpt><trkpt lat="43.36202650998663" lon="12.551804982850728"><ele>475.0</ele><time>2026-04-21T11:34:56Z</time></trkpt><trkpt lat="43.36206610977073" lon="12.551628356077444"><ele>474.75</ele><time>2026-04-21T11:34:57Z</time></trkpt><trkpt lat="43.36210437310799" lon="12.551462243015456"><ele>474.5</ele><time>2026-04-21T11:34:58Z</time></trkpt><trkpt lat="43.3621388752827" lon="12.551298119860641"><ele>474.25</ele><time>2026-04-21T11:34:59Z</time></trkpt><trkpt lat="43.36217239716911" lon="12.551134683852931"><ele>474.0</ele><time>2026-04-21T11:35:00Z</time></trkpt><trkpt lat="43.36220636758619" lon="12.550966370106535"><ele>473.75</ele><time>2026-04-21T11:35:01Z</time></trkpt><trkpt lat="43.36224182752528" lon="12.550797416973973"><ele>473.5</ele><time>2026-04-21T11:35:02Z</time></trkpt><trkpt lat="43.3622789158724" lon="12.550623769444684"><ele>473.25</ele><time>2026-04-21T11:35:03Z</time></trkpt><trkpt lat="43.36231823365342" lon="12.550446700044674"><ele>473.0</ele><time>2026-04-21T11:35:04Z</time></trkpt><trkpt lat="43.36235857096538" lon="12.550264902451103"><ele>472.75</ele><time>2026-04-21T11:35:05Z</time></trkpt><trkpt lat="43.36239983461751" lon="12.55007735752456"><ele>472.5</ele><time>2026-04-21T11:35:06Z</time></trkpt><trkpt lat="43.362444417166756" lon="12.549888042924032"><ele>472.25</ele><time>2026-04-21T11:35:07Z</time></trkpt><trkpt lat="43.362487153652765" lon="12.549705633613787"><ele>472.0</ele><time>2026-04-21T11:35:08Z</time></trkpt><trkpt lat="43.36252744741201" lon="12.549526213528468"><ele>471.5</ele><time>2026-04-21T11:35:09Z</time></trkpt><trkpt lat="43.36256775350633" lon="12.549356990150855"><ele>471.0</ele><time>2026-04-21T11:35:10Z</time></trkpt><trkpt lat="43.36260602181914" lon="12.549198989224708"><ele>470.5</ele><time>2026-04-21T11:35:11Z</time></trkpt><trkpt lat="43.36264213503657" lon="12.549051206473903"><ele>470.0</ele><time>2026-04-21T11:35:12Z</time></trkpt><trkpt lat="43.362677854793304" lon="12.548911548691544"><ele>470.0</ele><time>2026-04-21T11:35:13Z</time></trkpt><trkpt lat="43.362711797539916" lon="12.548770585479055"><ele>470.0</ele><time>2026-04-21T11:35:14Z</time></trkpt><trkpt lat="43.36274862812904" lon="12.548620543389577"><ele>470.0</ele><time>2026-04-21T11:35:15Z</time></trkpt><trkpt lat="43.36278784189823" lon="12.548465445149425"><ele>470.0</ele><time>2026-04-21T11:35:16Z</time></trkpt><trkpt lat="43.36282799271267" lon="12.548306363161203"><ele>469.6</ele><time>2026-04-21T11:35:17Z</time></trkpt><trkpt lat="43.36286247920272" lon="12.548155951523464"><ele>469.2</ele><time>2026-04-21T11:35:18Z</time></trkpt><trkpt lat="43.362895575035004" lon="12.548014438938987"><ele>468.79999999999995</ele><time>2026-04-21T11:35:19Z</time></trkpt><trkpt lat="43.36292965516714" lon="12.547870918400164"><ele>468.4</ele><time>2026-04-21T11:35:20Z</time></trkpt><trkpt lat="43.3629632840285" lon="12.54772542516765"><ele>468.0</ele><time>2026-04-21T11:35:21Z</time></trkpt><trkpt lat="43.36300029872523" lon="12.547575740405362"><ele>470.75</ele><time>2026-04-21T11:35:22Z</time></trkpt><trkpt lat="43.36303763127228" lon="12.547417109137285"><ele>473.5</ele><time>2026-04-21T11:35:23Z</time></trkpt><trkpt lat="43.36307458382629" lon="12.54725243805899"><ele>476.25</ele><time>2026-04-21T11:35:24Z</time></trkpt><trkpt lat="43.363114318892016" lon="12.547087662535985"><ele>479.0</ele><time>2026-04-21T11:35:25Z</time></trkpt><trkpt lat="43.36314843040917" lon="12.546922510544151"><ele>479.5</ele><time>2026-04-21T11:35:26Z</time></trkpt><trkpt lat="43.36318382439637" lon="12.546769073130656"><ele>480.0</ele><time>2026-04-21T11:35:27Z</time></trkpt><trkpt lat="43.36322544602068" lon="12.546617012362855"><ele>480.5</ele><time>2026-04-21T11:35:28Z</time></trkpt><trkpt lat="43.36326603916127" lon="12.546461394719703"><ele>481.0</ele><time>2026-04-21T11:35:29Z</time></trkpt><trkpt lat="43.36330484857097" lon="12.546299441712838"><ele>479.25</ele><time>2026-04-21T11:35:30Z</time></trkpt><trkpt lat="43.36334543030052" lon="12.546130633532654"><ele>477.5</ele><time>2026-04-21T11:35:31Z</time></trkpt><trkpt lat="43.3633855961807" lon="12.545952359253166"><ele>475.75</ele><time>2026-04-21T11:35:32Z</time></trkpt><trkpt lat="43.3634425707866" lon="12.545774871383212"><ele>474.0</ele><time>2026-04-21T11:35:33Z</time></trkpt><trkpt lat="43.36348760709057" lon="12.54558642149325"><ele>474.0</ele><time>2026-04-21T11:35:34Z</time></trkpt><trkpt lat="43.36353302041478" lon="12.545396393948876"><ele>474.0</ele><time>2026-04-21T11:35:35Z</time></trkpt><trkpt lat="43.36357672406883" lon="12.545213520337327"><ele>474.0</ele><time>2026-04-21T11:35:36Z</time></trkpt><trkpt lat="43.363602027478656" lon="12.545036506467545"><ele>474.0</ele><time>2026-04-21T11:35:37Z</time></trkpt><trkpt lat="43.36365755949576" lon="12.544875868842466"><ele>473.25</ele><time>2026-04-21T11:35:38Z</time></trkpt><trkpt lat="43.36369709492532" lon="12.544710776782473"><ele>472.5</ele><time>2026-04-21T11:35:39Z</time></trkpt><trkpt lat="43.36372284799854" lon="12.544540903981503"><ele>471.75</ele><time>2026-04-21T11:35:40Z</time></trkpt><trkpt lat="43.36376172074847" lon="12.544374963245646"><ele>471.0</ele><time>2026-04-21T11:35:41Z</time></trkpt><trkpt lat="43.363805078398414" lon="12.54420674016859"><ele>470.0</ele><time>2026-04-21T11:35:42Z</time></trkpt><trkpt lat="43.36384356120844" lon="12.544034590318619"><ele>469.0</ele><time>2026-04-21T11:35:43Z</time></trkpt><trkpt lat="43.36389731430582" lon="12.543868505190082"><ele>468.0</ele><time>2026-04-21T11:35:44Z</time></trkpt><trkpt lat="43.36393963436238" lon="12.543690105180621"><ele>467.0</ele><time>2026-04-21T11:35:45Z</time></trkpt><trkpt lat="43.36397891774395" lon="12.54352450622678"><ele>470.25</ele><time>2026-04-21T11:35:46Z</time></trkpt><trkpt lat="43.36400125269983" lon="12.543363143849199"><ele>473.5</ele><time>2026-04-21T11:35:47Z</time></trkpt><trkpt lat="43.36404017722687" lon="12.543217440950182"><ele>476.75</ele><time>2026-04-21T11:35:48Z</time></trkpt><trkpt lat="43.36407999322825" lon="12.54306962425089"><ele>480.0</ele><time>2026-04-21T11:35:49Z</time></trkpt><trkpt lat="43.364108323818904" lon="12.542928597721083"><ele>479.33333333333337</ele><time>2026-04-21T11:35:50Z</time></trkpt><trkpt lat="43.36416469333908" lon="12.542762106549716"><ele>478.6666666666667</ele><time>2026-04-21T11:35:51Z</time></trkpt><trkpt lat="43.36422070020329" lon="12.54256435455311"><ele>478.0</ele><time>2026-04-21T11:35:52Z</time></trkpt><trkpt lat="43.364279013668494" lon="12.542342927990399"><ele>478.0</ele><time>2026-04-21T11:35:53Z</time></trkpt><trkpt lat="43.364333486062655" lon="12.542120495317475"><ele>478.0</ele><time>2026-04-21T11:35:54Z</time></trkpt><trkpt lat="43.364388731909905" lon="12.54189490426048"><ele>478.0</ele><time>2026-04-21T11:35:55Z</time></trkpt><trkpt lat="43.364443553211736" lon="12.541670442023213"><ele>476.6666666666667</ele><time>2026-04-21T11:35:56Z</time></trkpt><trkpt lat="43.364499654434375" lon="12.541440621637037"><ele>475.33333333333337</ele><time>2026-04-21T11:35:57Z</time></trkpt><trkpt lat="43.36454327811436" lon="12.541206064301974"><ele>474.0</ele><time>2026-04-21T11:35:58Z</time></trkpt><trkpt lat="43.36459650040412" lon="12.541002009600144"><ele>474.75</ele><time>2026-04-21T11:35:59Z</time></trkpt><trkpt lat="43.36464395429215" lon="12.540814056693247"><ele>475.5</ele><time>2026-04-21T11:36:00Z</time></trkpt><trkpt lat="43.364689237702464" lon="12.54062960865561"><ele>476.25</ele><time>2026-04-21T11:36:01Z</time></trkpt><trkpt lat="43.36473241394688" lon="12.54045024246334"><ele>477.0</ele><time>2026-04-21T11:36:02Z</time></trkpt><trkpt lat="43.364769798037415" lon="12.540262080551742"><ele>477.33333333333337</ele><time>2026-04-21T11:36:03Z</time></trkpt><trkpt lat="43.36479153165783" lon="12.540057763855552"><ele>477.6666666666667</ele><time>2026-04-21T11:36:04Z</time></trkpt><trkpt lat="43.36479746753665" lon="12.539847474796574"><ele>478.0</ele><time>2026-04-21T11:36:05Z</time></trkpt><trkpt lat="43.36479497189762" lon="12.539631766087988"><ele>477.33333333333337</ele><time>2026-04-21T11:36:06Z</time></trkpt><trkpt lat="43.36478757931152" lon="12.53941050452225"><ele>476.66666666666663</ele><time>2026-04-21T11:36:07Z</time></trkpt><trkpt lat="43.36478246641581" lon="12.539179085496947"><ele>476.0</ele><time>2026-04-21T11:36:08Z</time></trkpt><trkpt lat="43.36477596148516" lon="12.538943727013583"><ele>475.3333333333333</ele><time>2026-04-21T11:36:09Z</time></trkpt><trkpt lat="43.36477098947693" lon="12.538702851076737"><ele>474.66666666666663</ele><time>2026-04-21T11:36:10Z</time></trkpt><trkpt lat="43.364768144055645" lon="12.538464415212202"><ele>474.0</ele><time>2026-04-21T11:36:11Z</time></trkpt><trkpt lat="43.36477122319143" lon="12.538226222275073"><ele>474.0</ele><time>2026-04-21T11:36:12Z</time></trkpt><trkpt lat="43.36478481083506" lon="12.537984101291933"><ele>474.0</ele><time>2026-04-21T11:36:13Z</time></trkpt><trkpt lat="43.36481471911049" lon="12.537736442294756"><ele>474.0</ele><time>2026-04-21T11:36:14Z</time></trkpt><trkpt lat="43.36485005132695" lon="12.537493495154887"><ele>473.33333333333337</ele><time>2026-04-21T11:36:15Z</time></trkpt><trkpt lat="43.36489460649903" lon="12.537248783081083"><ele>472.6666666666667</ele><time>2026-04-21T11:36:16Z</time></trkpt><trkpt lat="43.36494651320941" lon="12.536999062201264"><ele>472.0</ele><time>2026-04-21T11:36:17Z</time></trkpt><trkpt lat="43.365005770288015" lon="12.536752407672985"><ele>471.6666666666667</ele><time>2026-04-21T11:36:18Z</time></trkpt><trkpt lat="43.365068137723426" lon="12.536507518430382"><ele>471.33333333333337</ele><time>2026-04-21T11:36:19Z</time></trkpt><trkpt lat="43.365131468744735" lon="12.536263502254851"><ele>471.0</ele><time>2026-04-21T11:36:20Z</time></trkpt><trkpt lat="43.365191980847435" lon="12.536044149098721"><ele>470.66666666666663</ele><time>2026-04-21T11:36:21Z</time></trkpt><trkpt lat="43.365256672530975" lon="12.5358259437995"><ele>470.3333333333333</ele><time>2026-04-21T11:36:22Z</time></trkpt><trkpt lat="43.365340684748716" lon="12.535641526553164"><ele>470.0</ele><time>2026-04-21T11:36:23Z</time></trkpt><trkpt lat="43.36542615761084" lon="12.535480520953007"><ele>468.0</ele><time>2026-04-21T11:36:24Z</time></trkpt><trkpt lat="43.36553402325236" lon="12.53532653501694"><ele>466.0</ele><time>2026-04-21T11:36:25Z</time></trkpt><trkpt lat="43.36567936696876" lon="12.535208707475908"><ele>464.0</ele><time>2026-04-21T11:36:26Z</time></trkpt><trkpt lat="43.36583229364661" lon="12.535104160573464"><ele>464.0</ele><time>2026-04-21T11:36:27Z</time></trkpt><trkpt lat="43.36598943078299" lon="12.535007479103333"><ele>464.0</ele><time>2026-04-21T11:36:28Z</time></trkpt><trkpt lat="43.36615192173455" lon="12.53489746248583"><ele>464.0</ele><time>2026-04-21T11:36:29Z</time></trkpt><trkpt lat="43.36630490928883" lon="12.534782205774123"><ele>464.66666666666663</ele><time>2026-04-21T11:36:30Z</time></trkpt><trkpt lat="43.36646219575683" lon="12.534657234180738"><ele>465.33333333333337</ele><time>2026-04-21T11:36:31Z</time></trkpt><trkpt lat="43.36660889679472" lon="12.534517794580065"><ele>466.0</ele><time>2026-04-21T11:36:32Z</time></trkpt><trkpt lat="43.36675254227957" lon="12.53435744597341"><ele>463.0</ele><time>2026-04-21T11:36:33Z</time></trkpt><trkpt lat="43.36688376361131" lon="12.534181800832823"><ele>460.0</ele><time>2026-04-21T11:36:34Z</time></trkpt><trkpt lat="43.36700678103268" lon="12.533999106016479"><ele>457.0</ele><time>2026-04-21T11:36:35Z</time></trkpt><trkpt lat="43.36713649957262" lon="12.533821988217943"><ele>458.0</ele><time>2026-04-21T11:36:36Z</time></trkpt><trkpt lat="43.36725684130081" lon="12.533655922088935"><ele>459.0</ele><time>2026-04-21T11:36:37Z</time></trkpt><trkpt lat="43.36737356460112" lon="12.533498472587508"><ele>460.0</ele><time>2026-04-21T11:36:38Z</time></trkpt><trkpt lat="43.36748303778372" lon="12.53335019703419"><ele>460.0</ele><time>2026-04-21T11:36:39Z</time></trkpt><trkpt lat="43.36759399208348" lon="12.533198090960942"><ele>460.0</ele><time>2026-04-21T11:36:40Z</time></trkpt><trkpt lat="43.3677052104982" lon="12.53304662995747"><ele>460.0</ele><time>2026-04-21T11:36:41Z</time></trkpt><trkpt lat="43.36781988499171" lon="12.532899382331179"><ele>460.0</ele><time>2026-04-21T11:36:42Z</time></trkpt><trkpt lat="43.36793458775125" lon="12.532745641727551"><ele>460.0</ele><time>2026-04-21T11:36:43Z</time></trkpt><trkpt lat="43.36804842715954" lon="12.532589036823895"><ele>460.0</ele><time>2026-04-21T11:36:44Z</time></trkpt><trkpt lat="43.368164142678324" lon="12.532434077954779"><ele>460.0</ele><time>2026-04-21T11:36:45Z</time></trkpt><trkpt lat="43.36827772791611" lon="12.532277955228556"><ele>460.0</ele><time>2026-04-21T11:36:46Z</time></trkpt><trkpt lat="43.36839289703038" lon="12.532119413280899"><ele>460.0</ele><time>2026-04-21T11:36:47Z</time></trkpt><trkpt lat="43.36850672861956" lon="12.531960766859793"><ele>459.6666666666667</ele><time>2026-04-21T11:36:48Z</time></trkpt><trkpt lat="43.36862442622656" lon="12.531803729207269"><ele>459.33333333333337</ele><time>2026-04-21T11:36:49Z</time></trkpt><trkpt lat="43.36874311442827" lon="12.531648575583295"><ele>459.0</ele><time>2026-04-21T11:36:50Z</time></trkpt><trkpt lat="43.36886224906974" lon="12.531493808307346"><ele>459.0</ele><time>2026-04-21T11:36:51Z</time></trkpt><trkpt lat="43.36898020756263" lon="12.531337058347145"><ele>459.0</ele><time>2026-04-21T11:36:52Z</time></trkpt><trkpt lat="43.3691015179945" lon="12.531177878548036"><ele>459.0</ele><time>2026-04-21T11:36:53Z</time></trkpt><trkpt lat="43.36922018801634" lon="12.531016519486958"><ele>455.33333333333337</ele><time>2026-04-21T11:36:54Z</time></trkpt><trkpt lat="43.369332506911654" lon="12.530850990209753"><ele>451.6666666666667</ele><time>2026-04-21T11:36:55Z</time></trkpt><trkpt lat="43.36944164522686" lon="12.530680451710904"><ele>448.0</ele><time>2026-04-21T11:36:56Z</time></trkpt><trkpt lat="43.369548628164985" lon="12.530504483741652"><ele>449.6666666666667</ele><time>2026-04-21T11:36:57Z</time></trkpt><trkpt lat="43.369651262038346" lon="12.530323290026065"><ele>451.33333333333337</ele><time>2026-04-21T11:36:58Z</time></trkpt><trkpt lat="43.369754815957485" lon="12.53013607070047"><ele>453.0</ele><time>2026-04-21T11:36:59Z</time></trkpt><trkpt lat="43.36985832130759" lon="12.529951020278594"><ele>453.0</ele><time>2026-04-21T11:37:00Z</time></trkpt><trkpt lat="43.3699625108309" lon="12.529766941999707"><ele>453.0</ele><time>2026-04-21T11:37:01Z</time></trkpt><trkpt lat="43.37006740354311" lon="12.529581905351186"><ele>453.0</ele><time>2026-04-21T11:37:02Z</time></trkpt><trkpt lat="43.37017139703973" lon="12.529397539040612"><ele>449.0</ele><time>2026-04-21T11:37:03Z</time></trkpt><trkpt lat="43.370272600112585" lon="12.529213720342433"><ele>445.0</ele><time>2026-04-21T11:37:04Z</time></trkpt><trkpt lat="43.370369178326435" lon="12.529038513023064"><ele>441.0</ele><time>2026-04-21T11:37:05Z</time></trkpt><trkpt lat="43.3704660792545" lon="12.528877632932776"><ele>443.25</ele><time>2026-04-21T11:37:06Z</time></trkpt><trkpt lat="43.37055722593226" lon="12.528722834357517"><ele>445.5</ele><time>2026-04-21T11:37:07Z</time></trkpt><trkpt lat="43.37064360347472" lon="12.52857193104501"><ele>447.75</ele><time>2026-04-21T11:37:08Z</time></trkpt><trkpt lat="43.37072782748079" lon="12.528420728820407"><ele>450.0</ele><time>2026-04-21T11:37:09Z</time></trkpt><trkpt lat="43.3708076993083" lon="12.528268719781718"><ele>450.0</ele><time>2026-04-21T11:37:10Z</time></trkpt><trkpt lat="43.37089039054509" lon="12.528118540153079"><ele>450.0</ele><time>2026-04-21T11:37:11Z</time></trkpt><trkpt lat="43.370971334968104" lon="12.527966120736737"><ele>450.0</ele><time>2026-04-21T11:37:12Z</time></trkpt><trkpt lat="43.371045482136495" lon="12.527808157332164"><ele>450.0</ele><time>2026-04-21T11:37:13Z</time></trkpt><trkpt lat="43.37111394881836" lon="12.527642218493172"><ele>448.5</ele><time>2026-04-21T11:37:14Z</time></trkpt><trkpt lat="43.37117819891485" lon="12.527470055037348"><ele>447.0</ele><time>2026-04-21T11:37:15Z</time></trkpt><trkpt lat="43.37123317169141" lon="12.52729231970475"><ele>445.5</ele><time>2026-04-21T11:37:16Z</time></trkpt><trkpt lat="43.37127779561963" lon="12.52710381139426"><ele>444.0</ele><time>2026-04-21T11:37:17Z</time></trkpt><trkpt lat="43.37130929584502" lon="12.526910966970405"><ele>443.0</ele><time>2026-04-21T11:37:18Z</time></trkpt><trkpt lat="43.37132692922952" lon="12.5267108400341"><ele>442.0</ele><time>2026-04-21T11:37:19Z</time></trkpt><trkpt lat="43.37133777251247" lon="12.52650699688397"><ele>441.0</ele><time>2026-04-21T11:37:20Z</time></trkpt><trkpt lat="43.3713459521519" lon="12.526301007657608"><ele>440.0</ele><time>2026-04-21T11:37:21Z</time></trkpt><trkpt lat="43.371352793357524" lon="12.526091128530487"><ele>442.66666666666663</ele><time>2026-04-21T11:37:22Z</time></trkpt><trkpt lat="43.37136152700492" lon="12.525882188446152"><ele>445.33333333333337</ele><time>2026-04-21T11:37:23Z</time></trkpt><trkpt lat="43.3713696507354" lon="12.525672255775813"><ele>448.0</ele><time>2026-04-21T11:37:24Z</time></trkpt><trkpt lat="43.371376778112214" lon="12.525461279171845"><ele>447.6666666666667</ele><time>2026-04-21T11:37:25Z</time></trkpt><trkpt lat="43.37138206560646" lon="12.52524897386878"><ele>447.33333333333337</ele><time>2026-04-21T11:37:26Z</time></trkpt><trkpt lat="43.37138359847811" lon="12.525030653089841"><ele>447.0</ele><time>2026-04-21T11:37:27Z</time></trkpt><trkpt lat="43.37138625519814" lon="12.52481494462068"><ele>447.0</ele><time>2026-04-21T11:37:28Z</time></trkpt><trkpt lat="43.371393854242875" lon="12.524592733332272"><ele>447.0</ele><time>2026-04-21T11:37:29Z</time></trkpt><trkpt lat="43.37141028570558" lon="12.52437372342275"><ele>447.0</ele><time>2026-04-21T11:37:30Z</time></trkpt><trkpt lat="43.371451166963745" lon="12.524155838686246"><ele>447.0</ele><time>2026-04-21T11:37:31Z</time></trkpt><trkpt lat="43.371508633641625" lon="12.523940173396683"><ele>447.0</ele><time>2026-04-21T11:37:32Z</time></trkpt><trkpt lat="43.37158016115298" lon="12.523738635234718"><ele>447.0</ele><time>2026-04-21T11:37:33Z</time></trkpt><trkpt lat="43.37165728249781" lon="12.523537462963386"><ele>446.33333333333337</ele><time>2026-04-21T11:37:34Z</time></trkpt><trkpt lat="43.37173377121718" lon="12.523325420379562"><ele>445.6666666666667</ele><time>2026-04-21T11:37:35Z</time></trkpt><trkpt lat="43.3718087164451" lon="12.523113984148601"><ele>445.0</ele><time>2026-04-21T11:37:36Z</time></trkpt><trkpt lat="43.37188360380739" lon="12.522899498365184"><ele>443.0</ele><time>2026-04-21T11:37:37Z</time></trkpt><trkpt lat="43.37196574259439" lon="12.522686830198847"><ele>441.0</ele><time>2026-04-21T11:37:38Z</time></trkpt><trkpt lat="43.37207305805934" lon="12.52249445367948"><ele>439.0</ele><time>2026-04-21T11:37:39Z</time></trkpt><trkpt lat="43.37216722262378" lon="12.522287695527526"><ele>438.6666666666667</ele><time>2026-04-21T11:37:40Z</time></trkpt><trkpt lat="43.372286025176656" lon="12.522109060797126"><ele>438.33333333333337</ele><time>2026-04-21T11:37:41Z</time></trkpt><trkpt lat="43.37241354003361" lon="12.521938565016004"><ele>438.0</ele><time>2026-04-21T11:37:42Z</time></trkpt><trkpt lat="43.372544545641" lon="12.521770572078976"><ele>438.0</ele><time>2026-04-21T11:37:43Z</time></trkpt><trkpt lat="43.37267230687534" lon="12.521600219000117"><ele>438.0</ele><time>2026-04-21T11:37:44Z</time></trkpt><trkpt lat="43.37280181817915" lon="12.521430593101462"><ele>438.0</ele><time>2026-04-21T11:37:45Z</time></trkpt><trkpt lat="43.37293065120946" lon="12.521260313565227"><ele>437.66666666666663</ele><time>2026-04-21T11:37:46Z</time></trkpt><trkpt lat="43.37305926119041" lon="12.52108779786586"><ele>437.3333333333333</ele><time>2026-04-21T11:37:47Z</time></trkpt><trkpt lat="43.37318572017672" lon="12.520911194710475"><ele>437.0</ele><time>2026-04-21T11:37:48Z</time></trkpt><trkpt lat="43.37331876625075" lon="12.52073707256694"><ele>437.0</ele><time>2026-04-21T11:37:49Z</time></trkpt><trkpt lat="43.37344757148831" lon="12.520564846987387"><ele>437.0</ele><time>2026-04-21T11:37:50Z</time></trkpt><trkpt lat="43.37357766572221" lon="12.52038977181713"><ele>437.0</ele><time>2026-04-21T11:37:51Z</time></trkpt><trkpt lat="43.37370892281378" lon="12.52021446312741"><ele>435.66666666666663</ele><time>2026-04-21T11:37:52Z</time></trkpt><trkpt lat="43.3738381805887" lon="12.520042345735051"><ele>434.33333333333337</ele><time>2026-04-21T11:37:53Z</time></trkpt><trkpt lat="43.3739678209864" lon="12.51987114808219"><ele>433.0</ele><time>2026-04-21T11:37:54Z</time></trkpt><trkpt lat="43.374097647269785" lon="12.519698707328875"><ele>431.0</ele><time>2026-04-21T11:37:55Z</time></trkpt><trkpt lat="43.374227829873725" lon="12.519525997784719"><ele>429.0</ele><time>2026-04-21T11:37:56Z</time></trkpt><trkpt lat="43.37436286787768" lon="12.519353382109335"><ele>427.0</ele><time>2026-04-21T11:37:57Z</time></trkpt><trkpt lat="43.37449149676649" lon="12.51918483265258"><ele>427.0</ele><time>2026-04-21T11:37:58Z</time></trkpt><trkpt lat="43.37461035992318" lon="12.5190235517262"><ele>427.0</ele><time>2026-04-21T11:37:59Z</time></trkpt><trkpt lat="43.3747203030306" lon="12.518877788836182"><ele>427.0</ele><time>2026-04-21T11:38:00Z</time></trkpt><trkpt lat="43.37481673214966" lon="12.518754775004657"><ele>426.6</ele><time>2026-04-21T11:38:01Z</time></trkpt><trkpt lat="43.37489325318264" lon="12.518656130742427"><ele>426.20000000000005</ele><time>2026-04-21T11:38:02Z</time></trkpt><trkpt lat="43.37495008843756" lon="12.518578434799858"><ele>425.8</ele><time>2026-04-21T11:38:03Z</time></trkpt><trkpt lat="43.375010040998596" lon="12.518510648584176"><ele>425.4</ele><time>2026-04-21T11:38:05Z</time></trkpt><trkpt lat="43.37485673050973" lon="12.518572455849782"><ele>425.0</ele><time>2026-04-21T11:38:09Z</time></trkpt><trkpt lat="43.374840354037836" lon="12.518658642995636"><ele>425.5</ele><time>2026-04-21T11:38:10Z</time></trkpt><trkpt lat="43.37478165973983" lon="12.518760504974745"><ele>426.0</ele><time>2026-04-21T11:38:11Z</time></trkpt><trkpt lat="43.374709890159934" lon="12.518862590877253"><ele>426.5</ele><time>2026-04-21T11:38:12Z</time></trkpt><trkpt lat="43.37461602363568" lon="12.518983969515757"><ele>427.0</ele><time>2026-04-21T11:38:13Z</time></trkpt><trkpt lat="43.37451769060344" lon="12.519108117936662"><ele>427.0</ele><time>2026-04-21T11:38:14Z</time></trkpt><trkpt lat="43.37441771611407" lon="12.51924172686915"><ele>427.0</ele><time>2026-04-21T11:38:15Z</time></trkpt><trkpt lat="43.3743169166153" lon="12.519378704789574"><ele>427.0</ele><time>2026-04-21T11:38:16Z</time></trkpt><trkpt lat="43.374214003020406" lon="12.519516670414303"><ele>427.0</ele><time>2026-04-21T11:38:17Z</time></trkpt><trkpt lat="43.37411912373879" lon="12.519640916688301"><ele>426.6666666666667</ele><time>2026-04-21T11:38:18Z</time></trkpt><trkpt lat="43.37404944454247" lon="12.519733995369602"><ele>426.33333333333337</ele><time>2026-04-21T11:38:19Z</time></trkpt><trkpt lat="43.37399674461629" lon="12.51980630027238"><ele>426.0</ele><time>2026-04-21T11:38:20Z</time></trkpt><trkpt lat="43.37391868113523" lon="12.519813363261598"><ele>425.66666666666663</ele><time>2026-04-21T11:38:22Z</time></trkpt><trkpt lat="43.37383332773594" lon="12.519720720974632"><ele>425.3333333333333</ele><time>2026-04-21T11:38:24Z</time></trkpt><trkpt lat="43.37377597009807" lon="12.519636980149123"><ele>425.0</ele><time>2026-04-21T11:38:25Z</time></trkpt><trkpt lat="43.37370016299314" lon="12.519550351436939"><ele>425.0</ele><time>2026-04-21T11:38:26Z</time></trkpt><trkpt lat="43.373612122831254" lon="12.519462804781325"><ele>425.0</ele><time>2026-04-21T11:38:27Z</time></trkpt><trkpt lat="43.37353171271769" lon="12.519373021759044"><ele>425.0</ele><time>2026-04-21T11:38:28Z</time></trkpt><trkpt lat="43.37346089355144" lon="12.51928265912004"><ele>425.0</ele><time>2026-04-21T11:38:29Z</time></trkpt><trkpt lat="43.37340958623874" lon="12.519157650940679"><ele>425.0</ele><time>2026-04-21T11:38:30Z</time></trkpt><trkpt lat="43.37333927150678" lon="12.519061622066584"><ele>425.0</ele><time>2026-04-21T11:38:31Z</time></trkpt><trkpt lat="43.373267002528785" lon="12.518963968404911"><ele>425.0</ele><time>2026-04-21T11:38:32Z</time></trkpt><trkpt lat="43.373190638107374" lon="12.518863958399534"><ele>425.0</ele><time>2026-04-21T11:38:33Z</time></trkpt><trkpt lat="43.37311392908629" lon="12.518763855760156"><ele>425.0</ele><time>2026-04-21T11:38:34Z</time></trkpt><trkpt lat="43.37303915683537" lon="12.518668699696864"><ele>425.0</ele><time>2026-04-21T11:38:35Z</time></trkpt><trkpt lat="43.372956544193705" lon="12.518563833924551"><ele>423.8</ele><time>2026-04-21T11:38:36Z</time></trkpt><trkpt lat="43.37287880761642" lon="12.518467006262195"><ele>422.6</ele><time>2026-04-21T11:38:37Z</time></trkpt><trkpt lat="43.372800680527504" lon="12.518369692176863"><ele>421.4</ele><time>2026-04-21T11:38:38Z</time></trkpt><trkpt lat="43.37272518541035" lon="12.518275656444642"><ele>420.2</ele><time>2026-04-21T11:38:39Z</time></trkpt><trkpt lat="43.372643425079815" lon="12.518173816820278"><ele>419.0</ele><time>2026-04-21T11:38:40Z</time></trkpt><trkpt lat="43.37256240114377" lon="12.518073387495411"><ele>419.0</ele><time>2026-04-21T11:38:41Z</time></trkpt><trkpt lat="43.37247377810829" lon="12.517966360562863"><ele>419.0</ele><time>2026-04-21T11:38:42Z</time></trkpt><trkpt lat="43.37238995720178" lon="12.51786653092682"><ele>419.0</ele><time>2026-04-21T11:38:43Z</time></trkpt><trkpt lat="43.37232259276252" lon="12.51778646550739"><ele>419.0</ele><time>2026-04-21T11:38:44Z</time></trkpt><trkpt lat="43.372268300355266" lon="12.517722398047471"><ele>419.0</ele><time>2026-04-21T11:38:45Z</time></trkpt><trkpt lat="43.372213302164766" lon="12.517657599546885"><ele>417.79999999999995</ele><time>2026-04-21T11:38:46Z</time></trkpt><trkpt lat="43.372145850320685" lon="12.517575333438144"><ele>416.59999999999997</ele><time>2026-04-21T11:38:47Z</time></trkpt><trkpt lat="43.37208726595327" lon="12.517500819351316"><ele>415.4</ele><time>2026-04-21T11:38:48Z</time></trkpt><trkpt lat="43.372029273995864" lon="12.517424741159434"><ele>414.2</ele><time>2026-04-21T11:38:49Z</time></trkpt><trkpt lat="43.371951785585146" lon="12.517321374829944"><ele>413.0</ele><time>2026-04-21T11:38:51Z</time></trkpt><trkpt lat="43.37205377473588" lon="12.517131755859483"><ele>412.49999999999994</ele><time>2026-04-21T11:38:55Z</time></trkpt><trkpt lat="43.37212195835258" lon="12.517053707468785"><ele>412.0</ele><time>2026-04-21T11:38:57Z</time></trkpt><trkpt lat="43.37218473673453" lon="12.51698614178477"><ele>411.5</ele><time>2026-04-21T11:38:59Z</time></trkpt><trkpt lat="43.37224316837603" lon="12.516937846910826"><ele>411.0</ele><time>2026-04-21T11:39:00Z</time></trkpt><trkpt lat="43.37231437812231" lon="12.51688077231197"><ele>410.49999999999994</ele><time>2026-04-21T11:39:01Z</time></trkpt><trkpt lat="43.372375408137025" lon="12.516836631435828"><ele>410.0</ele><time>2026-04-21T11:39:02Z</time></trkpt><trkpt lat="43.37246053392951" lon="12.51677425472891"><ele>409.8</ele><time>2026-04-21T11:39:04Z</time></trkpt><trkpt lat="43.37245761683316" lon="12.516573570822644"><ele>409.6</ele><time>2026-04-21T11:39:08Z</time></trkpt><trkpt lat="43.37240135331219" lon="12.516494195001027"><ele>409.4</ele><time>2026-04-21T11:39:09Z</time></trkpt><trkpt lat="43.372344482566255" lon="12.516412350963538"><ele>409.2</ele><time>2026-04-21T11:39:10Z</time></trkpt><trkpt lat="43.372291075511335" lon="12.516334937993992"><ele>409.0</ele><time>2026-04-21T11:39:11Z</time></trkpt><trkpt lat="43.37223299534864" lon="12.516249862365786"><ele>408.2</ele><time>2026-04-21T11:39:12Z</time></trkpt><trkpt lat="43.37216690775152" lon="12.516151771561036"><ele>407.4</ele><time>2026-04-21T11:39:13Z</time></trkpt><trkpt lat="43.37209979694546" lon="12.516052161937408"><ele>406.6</ele><time>2026-04-21T11:39:14Z</time></trkpt><trkpt lat="43.372038194346594" lon="12.515960727903778"><ele>405.8</ele><time>2026-04-21T11:39:15Z</time></trkpt><trkpt lat="43.3719809274564" lon="12.515875729229704"><ele>405.0</ele><time>2026-04-21T11:39:16Z</time></trkpt><trkpt lat="43.371921635870116" lon="12.515787725361655"><ele>405.0</ele><time>2026-04-21T11:39:17Z</time></trkpt><trkpt lat="43.371870393970134" lon="12.515711669275735"><ele>405.0</ele><time>2026-04-21T11:39:18Z</time></trkpt><trkpt lat="43.37181911803773" lon="12.515635562689797"><ele>405.0</ele><time>2026-04-21T11:39:19Z</time></trkpt><trkpt lat="43.37176672899114" lon="12.515558681993014"><ele>405.0</ele><time>2026-04-21T11:39:20Z</time></trkpt><trkpt lat="43.37171396577049" lon="12.515481348018557"><ele>405.0</ele><time>2026-04-21T11:39:21Z</time></trkpt><trkpt lat="43.3716618499983" lon="12.515404962989685"><ele>405.0</ele><time>2026-04-21T11:39:22Z</time></trkpt><trkpt lat="43.37160647041695" lon="12.515323794278872"><ele>404.8333333333333</ele><time>2026-04-21T11:39:23Z</time></trkpt><trkpt lat="43.37155466672498" lon="12.515247866646256"><ele>404.66666666666663</ele><time>2026-04-21T11:39:24Z</time></trkpt><trkpt lat="43.371500589036934" lon="12.515168606083725"><ele>404.5</ele><time>2026-04-21T11:39:25Z</time></trkpt><trkpt lat="43.37144628586266" lon="12.515089015019592"><ele>404.3333333333333</ele><time>2026-04-21T11:39:26Z</time></trkpt><trkpt lat="43.371396232805346" lon="12.515017347439839"><ele>404.16666666666663</ele><time>2026-04-21T11:39:27Z</time></trkpt><trkpt lat="43.37134558231155" lon="12.514944969194344"><ele>404.0</ele><time>2026-04-21T11:39:28Z</time></trkpt><trkpt lat="43.37129445699964" lon="12.514871912451337"><ele>403.99999999999994</ele><time>2026-04-21T11:39:29Z</time></trkpt><trkpt lat="43.371242704006086" lon="12.51479965909315"><ele>404.0</ele><time>2026-04-21T11:39:30Z</time></trkpt><trkpt lat="43.37119205145133" lon="12.514731183504912"><ele>404.0</ele><time>2026-04-21T11:39:31Z</time></trkpt><trkpt lat="43.37113755253879" lon="12.514657508494697"><ele>404.0</ele><time>2026-04-21T11:39:32Z</time></trkpt><trkpt lat="43.371077601093965" lon="12.51458269609081"><ele>403.99999999999994</ele><time>2026-04-21T11:39:33Z</time></trkpt><trkpt lat="43.37100459095103" lon="12.51450914107733"><ele>404.0</ele><time>2026-04-21T11:39:34Z</time></trkpt><trkpt lat="43.370921517331496" lon="12.514471016079497"><ele>403.79999999999995</ele><time>2026-04-21T11:39:35Z</time></trkpt><trkpt lat="43.370839599046775" lon="12.514416886942373"><ele>403.59999999999997</ele><time>2026-04-21T11:39:36Z</time></trkpt><trkpt lat="43.370752610219235" lon="12.514341723679864"><ele>403.4</ele><time>2026-04-21T11:39:37Z</time></trkpt><trkpt lat="43.3706600383039" lon="12.514276924101157"><ele>403.2</ele><time>2026-04-21T11:39:38Z</time></trkpt><trkpt lat="43.370574932343864" lon="12.514207906193384"><ele>403.0</ele><time>2026-04-21T11:39:39Z</time></trkpt><trkpt lat="43.37049314630281" lon="12.514140662875274"><ele>403.00000000000006</ele><time>2026-04-21T11:39:40Z</time></trkpt><trkpt lat="43.37041333102764" lon="12.51407778549677"><ele>403.0</ele><time>2026-04-21T11:39:41Z</time></trkpt><trkpt lat="43.37033292343482" lon="12.514023648745713"><ele>403.0</ele><time>2026-04-21T11:39:42Z</time></trkpt><trkpt lat="43.37025491461072" lon="12.513975804008565"><ele>403.0</ele><time>2026-04-21T11:39:43Z</time></trkpt><trkpt lat="43.37017963513814" lon="12.51392916232024"><ele>403.00000000000006</ele><time>2026-04-21T11:39:44Z</time></trkpt><trkpt lat="43.37010321709768" lon="12.513879204157666"><ele>403.0</ele><time>2026-04-21T11:39:45Z</time></trkpt><trkpt lat="43.37002308924543" lon="12.513822548840917"><ele>403.0</ele><time>2026-04-21T11:39:46Z</time></trkpt><trkpt lat="43.36993860732637" lon="12.513744119071179"><ele>403.0</ele><time>2026-04-21T11:39:47Z</time></trkpt><trkpt lat="43.36984755869343" lon="12.513644550741299"><ele>403.0</ele><time>2026-04-21T11:39:48Z</time></trkpt><trkpt lat="43.369761485876666" lon="12.513536195696258"><ele>403.0</ele><time>2026-04-21T11:39:49Z</time></trkpt><trkpt lat="43.369675531312026" lon="12.513423043812544"><ele>402.79999999999995</ele><time>2026-04-21T11:39:50Z</time></trkpt><trkpt lat="43.36958580179093" lon="12.513317265510407"><ele>402.6</ele><time>2026-04-21T11:39:51Z</time></trkpt><trkpt lat="43.36950957283466" lon="12.51321475703323"><ele>402.4</ele><time>2026-04-21T11:39:52Z</time></trkpt><trkpt lat="43.36944019798042" lon="12.513113026756162"><ele>402.20000000000005</ele><time>2026-04-21T11:39:53Z</time></trkpt><trkpt lat="43.36937463589372" lon="12.513009250937431"><ele>402.0</ele><time>2026-04-21T11:39:54Z</time></trkpt><trkpt lat="43.369322599390465" lon="12.51291730087035"><ele>402.0</ele><time>2026-04-21T11:39:55Z</time></trkpt><trkpt lat="43.369266554909025" lon="12.512795948392768"><ele>402.0</ele><time>2026-04-21T11:39:57Z</time></trkpt><trkpt lat="43.36908522053263" lon="12.512890458861039"><ele>402.0</ele><time>2026-04-21T11:39:59Z</time></trkpt><trkpt lat="43.368983851315264" lon="12.512960419985061"><ele>402.0</ele><time>2026-04-21T11:40:00Z</time></trkpt><trkpt lat="43.368888117294496" lon="12.513032220365256"><ele>402.20000000000005</ele><time>2026-04-21T11:40:01Z</time></trkpt><trkpt lat="43.36878944553155" lon="12.513116851989556"><ele>402.4</ele><time>2026-04-21T11:40:02Z</time></trkpt><trkpt lat="43.368701982259694" lon="12.513215593674154"><ele>402.6</ele><time>2026-04-21T11:40:03Z</time></trkpt><trkpt lat="43.36864046555707" lon="12.513331099045025"><ele>402.79999999999995</ele><time>2026-04-21T11:40:04Z</time></trkpt><trkpt lat="43.36856181887145" lon="12.513418456736732"><ele>403.0</ele><time>2026-04-21T11:40:05Z</time></trkpt><trkpt lat="43.368487304078094" lon="12.513525476252347"><ele>403.0</ele><time>2026-04-21T11:40:06Z</time></trkpt><trkpt lat="43.368406950922946" lon="12.513646867640489"><ele>403.0</ele><time>2026-04-21T11:40:07Z</time></trkpt><trkpt lat="43.368332289278776" lon="12.513774418671524"><ele>403.0</ele><time>2026-04-21T11:40:08Z</time></trkpt><trkpt lat="43.368266904583244" lon="12.513896806948575"><ele>403.0</ele><time>2026-04-21T11:40:09Z</time></trkpt><trkpt lat="43.36820082220479" lon="12.514022878306678"><ele>403.25</ele><time>2026-04-21T11:40:10Z</time></trkpt><trkpt lat="43.3681358438894" lon="12.514149759478572"><ele>403.5</ele><time>2026-04-21T11:40:11Z</time></trkpt><trkpt lat="43.36806887053548" lon="12.514282677984507"><ele>403.75</ele><time>2026-04-21T11:40:12Z</time></trkpt><trkpt lat="43.36800285880408" lon="12.514413023214251"><ele>404.0</ele><time>2026-04-21T11:40:13Z</time></trkpt><trkpt lat="43.3679347013043" lon="12.514546648162927"><ele>404.0</ele><time>2026-04-21T11:40:14Z</time></trkpt><trkpt lat="43.367866033863784" lon="12.514681272991954"><ele>404.0</ele><time>2026-04-21T11:40:15Z</time></trkpt><trkpt lat="43.3677980368325" lon="12.51481458332764"><ele>404.0</ele><time>2026-04-21T11:40:16Z</time></trkpt><trkpt lat="43.36772897294611" lon="12.51494998532137"><ele>404.0</ele><time>2026-04-21T11:40:17Z</time></trkpt><trkpt lat="43.367662868438394" lon="12.515079585325328"><ele>404.0</ele><time>2026-04-21T11:40:18Z</time></trkpt><trkpt lat="43.36759728731862" lon="12.515208159292408"><ele>404.0</ele><time>2026-04-21T11:40:19Z</time></trkpt><trkpt lat="43.36753165333129" lon="12.515341424416908"><ele>404.0</ele><time>2026-04-21T11:40:20Z</time></trkpt><trkpt lat="43.36746688928201" lon="12.515476600730238"><ele>404.0</ele><time>2026-04-21T11:40:21Z</time></trkpt><trkpt lat="43.36740239353038" lon="12.515613689274998"><ele>404.25</ele><time>2026-04-21T11:40:22Z</time></trkpt><trkpt lat="43.36733822483515" lon="12.515749805690797"><ele>404.5</ele><time>2026-04-21T11:40:23Z</time></trkpt><trkpt lat="43.367272491748075" lon="12.515886234109505"><ele>404.75</ele><time>2026-04-21T11:40:24Z</time></trkpt><trkpt lat="43.367206391523965" lon="12.516020913265384"><ele>405.0</ele><time>2026-04-21T11:40:25Z</time></trkpt><trkpt lat="43.36714362424172" lon="12.516144754129492"><ele>405.6</ele><time>2026-04-21T11:40:26Z</time></trkpt><trkpt lat="43.36708074042884" lon="12.516267296943266"><ele>406.2</ele><time>2026-04-21T11:40:27Z</time></trkpt><trkpt lat="43.36702856067927" lon="12.516405298802361"><ele>406.79999999999995</ele><time>2026-04-21T11:40:28Z</time></trkpt><trkpt lat="43.36696663741476" lon="12.516528458453275"><ele>407.4</ele><time>2026-04-21T11:40:29Z</time></trkpt><trkpt lat="43.366901043281175" lon="12.516655458828513"><ele>408.0</ele><time>2026-04-21T11:40:30Z</time></trkpt><trkpt lat="43.36683694606068" lon="12.51679300924851"><ele>408.0</ele><time>2026-04-21T11:40:31Z</time></trkpt><trkpt lat="43.3667709309344" lon="12.516923180314581"><ele>408.0</ele><time>2026-04-21T11:40:32Z</time></trkpt><trkpt lat="43.36671320777264" lon="12.517028439382972"><ele>408.0</ele><time>2026-04-21T11:40:33Z</time></trkpt><trkpt lat="43.36665934729038" lon="12.51712856722449"><ele>408.0</ele><time>2026-04-21T11:40:34Z</time></trkpt><trkpt lat="43.366604806388295" lon="12.517213470540797"><ele>408.0</ele><time>2026-04-21T11:40:35Z</time></trkpt><trkpt lat="43.366576495671204" lon="12.517312821670078"><ele>408.0</ele><time>2026-04-21T11:40:36Z</time></trkpt><trkpt lat="43.36653480320482" lon="12.517430921116333"><ele>408.0</ele><time>2026-04-21T11:40:38Z</time></trkpt><trkpt lat="43.366614548665346" lon="12.517223489585893"><ele>408.0</ele><time>2026-04-21T11:40:47Z</time></trkpt><trkpt lat="43.36665282373377" lon="12.517135361614988"><ele>408.0</ele><time>2026-04-21T11:40:48Z</time></trkpt><trkpt lat="43.366707162301154" lon="12.5170413328992"><ele>408.0</ele><time>2026-04-21T11:40:49Z</time></trkpt><trkpt lat="43.36676033177661" lon="12.516941562490915"><ele>408.0</ele><time>2026-04-21T11:40:50Z</time></trkpt><trkpt lat="43.36682166697114" lon="12.516810032477945"><ele>408.0</ele><time>2026-04-21T11:40:51Z</time></trkpt><trkpt lat="43.36689092526873" lon="12.516665981897113"><ele>408.0</ele><time>2026-04-21T11:40:52Z</time></trkpt><trkpt lat="43.36695759597424" lon="12.516525680367229"><ele>408.0</ele><time>2026-04-21T11:40:53Z</time></trkpt><trkpt lat="43.36702930753133" lon="12.516375126516053"><ele>407.5</ele><time>2026-04-21T11:40:54Z</time></trkpt><trkpt lat="43.36710047620925" lon="12.516231149698305"><ele>407.0</ele><time>2026-04-21T11:40:55Z</time></trkpt><trkpt lat="43.367177395248255" lon="12.516105798160943"><ele>406.5</ele><time>2026-04-21T11:40:56Z</time></trkpt><trkpt lat="43.36724948624841" lon="12.515971116855502"><ele>406.0</ele><time>2026-04-21T11:40:57Z</time></trkpt><trkpt lat="43.367317522399546" lon="12.515823697546631"><ele>406.0</ele><time>2026-04-21T11:40:58Z</time></trkpt><trkpt lat="43.36738646657986" lon="12.51567780473848"><ele>406.0</ele><time>2026-04-21T11:40:59Z</time></trkpt><trkpt lat="43.36745695861148" lon="12.515534197563918"><ele>406.0</ele><time>2026-04-21T11:41:00Z</time></trkpt><trkpt lat="43.36752973463962" lon="12.515384035742885"><ele>406.0</ele><time>2026-04-21T11:41:01Z</time></trkpt><trkpt lat="43.36760825276369" lon="12.51523607398804"><ele>405.5</ele><time>2026-04-21T11:41:02Z</time></trkpt><trkpt lat="43.3676887953822" lon="12.515084828856503"><ele>405.0</ele><time>2026-04-21T11:41:03Z</time></trkpt><trkpt lat="43.367771702457176" lon="12.51493030919167"><ele>404.5</ele><time>2026-04-21T11:41:04Z</time></trkpt><trkpt lat="43.36784882457466" lon="12.514771975106047"><ele>404.0</ele><time>2026-04-21T11:41:05Z</time></trkpt><trkpt lat="43.367920249999294" lon="12.514612895949604"><ele>404.0</ele><time>2026-04-21T11:41:06Z</time></trkpt><trkpt lat="43.3679918531518" lon="12.514458327127311"><ele>404.0</ele><time>2026-04-21T11:41:07Z</time></trkpt><trkpt lat="43.36806614788501" lon="12.514321385442935"><ele>404.0</ele><time>2026-04-21T11:41:08Z</time></trkpt><trkpt lat="43.36813971462312" lon="12.514189188276712"><ele>404.0</ele><time>2026-04-21T11:41:09Z</time></trkpt><trkpt lat="43.36821211313634" lon="12.51404540326127"><ele>404.0</ele><time>2026-04-21T11:41:10Z</time></trkpt><trkpt lat="43.36828787823864" lon="12.51389636533543"><ele>404.0</ele><time>2026-04-21T11:41:11Z</time></trkpt><trkpt lat="43.36836992289601" lon="12.513746175838309"><ele>404.0</ele><time>2026-04-21T11:41:12Z</time></trkpt><trkpt lat="43.3684611638505" lon="12.513607689463859"><ele>404.0</ele><time>2026-04-21T11:41:13Z</time></trkpt><trkpt lat="43.36854203482616" lon="12.513475696972844"><ele>403.79999999999995</ele><time>2026-04-21T11:41:14Z</time></trkpt><trkpt lat="43.36861531663761" lon="12.513362082795366"><ele>403.59999999999997</ele><time>2026-04-21T11:41:15Z</time></trkpt><trkpt lat="43.368681581054695" lon="12.51326617171393"><ele>403.4</ele><time>2026-04-21T11:41:16Z</time></trkpt><trkpt lat="43.36875012626459" lon="12.513185804891446"><ele>403.2</ele><time>2026-04-21T11:41:17Z</time></trkpt><trkpt lat="43.36882739442494" lon="12.513112294003442"><ele>403.0</ele><time>2026-04-21T11:41:18Z</time></trkpt><trkpt lat="43.36891375015325" lon="12.513042502908451"><ele>402.79999999999995</ele><time>2026-04-21T11:41:19Z</time></trkpt><trkpt lat="43.36900469150681" lon="12.512976076108322"><ele>402.6</ele><time>2026-04-21T11:41:20Z</time></trkpt><trkpt lat="43.369083544049495" lon="12.51291726696663"><ele>402.4</ele><time>2026-04-21T11:41:21Z</time></trkpt><trkpt lat="43.369146627416086" lon="12.512880506118828"><ele>402.20000000000005</ele><time>2026-04-21T11:41:22Z</time></trkpt><trkpt lat="43.369225973322656" lon="12.512851784646053"><ele>402.0</ele><time>2026-04-21T11:41:24Z</time></trkpt><trkpt lat="43.36923014118253" lon="12.51260459713571"><ele>401.8</ele><time>2026-04-21T11:41:27Z</time></trkpt><trkpt lat="43.36921219757968" lon="12.512510915421728"><ele>401.6</ele><time>2026-04-21T11:41:28Z</time></trkpt><trkpt lat="43.36917568646359" lon="12.512413010157895"><ele>401.40000000000003</ele><time>2026-04-21T11:41:29Z</time></trkpt><trkpt lat="43.369122940002214" lon="12.512314775854517"><ele>401.20000000000005</ele><time>2026-04-21T11:41:30Z</time></trkpt><trkpt lat="43.36906030576835" lon="12.51221175183446"><ele>401.0</ele><time>2026-04-21T11:41:31Z</time></trkpt><trkpt lat="43.368991722404026" lon="12.512071624397631"><ele>401.0</ele><time>2026-04-21T11:41:32Z</time></trkpt><trkpt lat="43.36891268533077" lon="12.5119475582377"><ele>401.0</ele><time>2026-04-21T11:41:33Z</time></trkpt><trkpt lat="43.3688325458173" lon="12.511819034188008"><ele>401.0</ele><time>2026-04-21T11:41:34Z</time></trkpt><trkpt lat="43.36875952982061" lon="12.511701934532882"><ele>401.0</ele><time>2026-04-21T11:41:35Z</time></trkpt><trkpt lat="43.36868992828753" lon="12.511590310876487"><ele>401.6</ele><time>2026-04-21T11:41:36Z</time></trkpt><trkpt lat="43.36863021336127" lon="12.511494542890901"><ele>402.20000000000005</ele><time>2026-04-21T11:41:37Z</time></trkpt><trkpt lat="43.36858166470949" lon="12.511416682840466"><ele>402.79999999999995</ele><time>2026-04-21T11:41:38Z</time></trkpt><trkpt lat="43.36851759378291" lon="12.511313928860572"><ele>403.4</ele><time>2026-04-21T11:41:40Z</time></trkpt><trkpt lat="43.36837966639582" lon="12.511464831017229"><ele>404.0</ele><time>2026-04-21T11:41:44Z</time></trkpt><trkpt lat="43.368425564779834" lon="12.511628848886405"><ele>404.0</ele><time>2026-04-21T11:41:46Z</time></trkpt><trkpt lat="43.368495279588394" lon="12.511735924890294"><ele>404.0</ele><time>2026-04-21T11:41:47Z</time></trkpt><trkpt lat="43.3685687189048" lon="12.511855083844207"><ele>404.0</ele><time>2026-04-21T11:41:48Z</time></trkpt><trkpt lat="43.36863983696406" lon="12.51196991496849"><ele>404.0</ele><time>2026-04-21T11:41:49Z</time></trkpt><trkpt lat="43.36870228405904" lon="12.512068497077093"><ele>404.0</ele><time>2026-04-21T11:41:50Z</time></trkpt><trkpt lat="43.36875386736869" lon="12.512149272101174"><ele>403.66666666666663</ele><time>2026-04-21T11:41:51Z</time></trkpt><trkpt lat="43.36882229034106" lon="12.512254375962366"><ele>403.3333333333333</ele><time>2026-04-21T11:41:53Z</time></trkpt><trkpt lat="43.368789123527534" lon="12.512366375781047"><ele>403.0</ele><time>2026-04-21T11:41:56Z</time></trkpt><trkpt lat="43.368749995261346" lon="12.512445614381143"><ele>402.66666666666663</ele><time>2026-04-21T11:41:57Z</time></trkpt><trkpt lat="43.36870147980573" lon="12.512534136562515"><ele>402.3333333333333</ele><time>2026-04-21T11:41:58Z</time></trkpt><trkpt lat="43.368651017462554" lon="12.512622338662643"><ele>402.0</ele><time>2026-04-21T11:41:59Z</time></trkpt><trkpt lat="43.36860366751094" lon="12.512733328712326"><ele>402.0</ele><time>2026-04-21T11:42:00Z</time></trkpt><trkpt lat="43.36854985383682" lon="12.512828625622722"><ele>402.0</ele><time>2026-04-21T11:42:01Z</time></trkpt><trkpt lat="43.368476092114236" lon="12.51293296021972"><ele>402.0</ele><time>2026-04-21T11:42:02Z</time></trkpt><trkpt lat="43.36840957010384" lon="12.513051841574589"><ele>402.0</ele><time>2026-04-21T11:42:03Z</time></trkpt><trkpt lat="43.368343623672885" lon="12.513169694406137"><ele>402.0</ele><time>2026-04-21T11:42:04Z</time></trkpt><trkpt lat="43.368278917955095" lon="12.513281687503829"><ele>402.25</ele><time>2026-04-21T11:42:05Z</time></trkpt><trkpt lat="43.36820553354752" lon="12.513399802046258"><ele>402.5</ele><time>2026-04-21T11:42:06Z</time></trkpt><trkpt lat="43.3681257094573" lon="12.513530608948466"><ele>402.75</ele><time>2026-04-21T11:42:07Z</time></trkpt><trkpt lat="43.36803498349776" lon="12.513692847723474"><ele>403.0</ele><time>2026-04-21T11:42:08Z</time></trkpt><trkpt lat="43.36793233289234" lon="12.513868119413305"><ele>402.25</ele><time>2026-04-21T11:42:09Z</time></trkpt><trkpt lat="43.367875187984076" lon="12.514077565699994"><ele>401.5</ele><time>2026-04-21T11:42:10Z</time></trkpt><trkpt lat="43.36778340952568" lon="12.514215207231395"><ele>400.75</ele><time>2026-04-21T11:42:11Z</time></trkpt><trkpt lat="43.36771074657628" lon="12.514349215764348"><ele>400.0</ele><time>2026-04-21T11:42:12Z</time></trkpt><trkpt lat="43.36763380278844" lon="12.51449129695593"><ele>401.0</ele><time>2026-04-21T11:42:13Z</time></trkpt><trkpt lat="43.36756343863047" lon="12.514652530194887"><ele>402.0</ele><time>2026-04-21T11:42:14Z</time></trkpt><trkpt lat="43.36747919003947" lon="12.514809995529284"><ele>403.0</ele><time>2026-04-21T11:42:15Z</time></trkpt><trkpt lat="43.367391248586465" lon="12.51497444554856"><ele>404.0</ele><time>2026-04-21T11:42:16Z</time></trkpt><trkpt lat="43.36730211787252" lon="12.515137608118177"><ele>404.0</ele><time>2026-04-21T11:42:17Z</time></trkpt><trkpt lat="43.367220172073885" lon="12.515278894711905"><ele>404.0</ele><time>2026-04-21T11:42:18Z</time></trkpt><trkpt lat="43.36716324125498" lon="12.515416165804062"><ele>404.0</ele><time>2026-04-21T11:42:19Z</time></trkpt><trkpt lat="43.36710061882773" lon="12.515549226114631"><ele>404.0</ele><time>2026-04-21T11:42:20Z</time></trkpt><trkpt lat="43.367037589633156" lon="12.515685621617388"><ele>404.2</ele><time>2026-04-21T11:42:21Z</time></trkpt><trkpt lat="43.366972264934525" lon="12.515822757802953"><ele>404.4</ele><time>2026-04-21T11:42:22Z</time></trkpt><trkpt lat="43.36691033257122" lon="12.515939672156815"><ele>404.6</ele><time>2026-04-21T11:42:23Z</time></trkpt><trkpt lat="43.3668538622343" lon="12.516037072318108"><ele>404.8</ele><time>2026-04-21T11:42:24Z</time></trkpt><trkpt lat="43.36679362619918" lon="12.516127010616486"><ele>405.0</ele><time>2026-04-21T11:42:25Z</time></trkpt><trkpt lat="43.36672723076773" lon="12.516228228416574"><ele>405.5</ele><time>2026-04-21T11:42:26Z</time></trkpt><trkpt lat="43.3666795096138" lon="12.516328455308777"><ele>406.0</ele><time>2026-04-21T11:42:27Z</time></trkpt><trkpt lat="43.366634237208444" lon="12.516442205770295"><ele>406.5</ele><time>2026-04-21T11:42:28Z</time></trkpt><trkpt lat="43.366587777087794" lon="12.516562069252545"><ele>407.0</ele><time>2026-04-21T11:42:29Z</time></trkpt><trkpt lat="43.3665469919648" lon="12.516660071244447"><ele>407.5</ele><time>2026-04-21T11:42:30Z</time></trkpt><trkpt lat="43.36651145964142" lon="12.516749131442513"><ele>408.0</ele><time>2026-04-21T11:42:31Z</time></trkpt><trkpt lat="43.36644348640906" lon="12.516880353500849"><ele>408.0</ele><time>2026-04-21T11:42:33Z</time></trkpt><trkpt lat="43.366383157674846" lon="12.516988915589327"><ele>408.0</ele><time>2026-04-21T11:42:35Z</time></trkpt><trkpt lat="43.366322296235836" lon="12.517036103281402"><ele>408.0</ele><time>2026-04-21T11:42:37Z</time></trkpt><trkpt lat="43.36626707365302" lon="12.516869835845302"><ele>408.0</ele><time>2026-04-21T11:42:39Z</time></trkpt><trkpt lat="43.366210468357764" lon="12.516784213475502"><ele>408.0</ele><time>2026-04-21T11:42:40Z</time></trkpt><trkpt lat="43.36615044199758" lon="12.516707791285938"><ele>408.1666666666667</ele><time>2026-04-21T11:42:41Z</time></trkpt><trkpt lat="43.366089148099604" lon="12.516642225385882"><ele>408.33333333333337</ele><time>2026-04-21T11:42:42Z</time></trkpt><trkpt lat="43.366036103005776" lon="12.516585997554035"><ele>408.5</ele><time>2026-04-21T11:42:43Z</time></trkpt><trkpt lat="43.36599342394887" lon="12.516516807950469"><ele>408.6666666666667</ele><time>2026-04-21T11:42:45Z</time></trkpt><trkpt lat="43.365977443638094" lon="12.516363840392147"><ele>408.83333333333337</ele><time>2026-04-21T11:42:47Z</time></trkpt><trkpt lat="43.36597294842241" lon="12.516226638553674"><ele>409.0</ele><time>2026-04-21T11:42:48Z</time></trkpt><trkpt lat="43.36596199784099" lon="12.516120653956726"><ele>408.6</ele><time>2026-04-21T11:42:49Z</time></trkpt><trkpt lat="43.365923892268555" lon="12.51603215030292"><ele>408.2</ele><time>2026-04-21T11:42:50Z</time></trkpt><trkpt lat="43.365846317975105" lon="12.515944764969898"><ele>407.8</ele><time>2026-04-21T11:42:51Z</time></trkpt><trkpt lat="43.36575518373543" lon="12.515860102008343"><ele>407.40000000000003</ele><time>2026-04-21T11:42:52Z</time></trkpt><trkpt lat="43.36566733610909" lon="12.51576443037255"><ele>407.0</ele><time>2026-04-21T11:42:53Z</time></trkpt><trkpt lat="43.36559094114822" lon="12.515663626759292"><ele>407.0</ele><time>2026-04-21T11:42:54Z</time></trkpt><trkpt lat="43.36552984758093" lon="12.51555535080028"><ele>407.0</ele><time>2026-04-21T11:42:55Z</time></trkpt><trkpt lat="43.365484283187406" lon="12.515424420899954"><ele>407.0</ele><time>2026-04-21T11:42:56Z</time></trkpt><trkpt lat="43.36545791049783" lon="12.515311213121526"><ele>407.0</ele><time>2026-04-21T11:42:57Z</time></trkpt><trkpt lat="43.365435132812635" lon="12.515223191921603"><ele>407.0</ele><time>2026-04-21T11:42:58Z</time></trkpt><trkpt lat="43.365404302221314" lon="12.515104051655635"><ele>406.6</ele><time>2026-04-21T11:43:00Z</time></trkpt><trkpt lat="43.365319727474514" lon="12.515080608968045"><ele>406.20000000000005</ele><time>2026-04-21T11:43:01Z</time></trkpt><trkpt lat="43.36522733559967" lon="12.51498728907471"><ele>405.8</ele><time>2026-04-21T11:43:03Z</time></trkpt><trkpt lat="43.36514545209729" lon="12.514900575781773"><ele>405.4</ele><time>2026-04-21T11:43:05Z</time></trkpt><trkpt lat="43.36508566694812" lon="12.514842330555366"><ele>405.0</ele><time>2026-04-21T11:43:07.001Z</time></trkpt><trkpt lat="43.36498703731153" lon="12.514745217311525"><ele>405.0</ele><time>2026-04-21T11:43:09.001Z</time></trkpt><trkpt lat="43.36492733659736" lon="12.514683828109796"><ele>405.0</ele><time>2026-04-21T11:43:10.001Z</time></trkpt><trkpt lat="43.3648651509963" lon="12.514618884630085"><ele>405.0</ele><time>2026-04-21T11:43:11.001Z</time></trkpt><trkpt lat="43.36480322933415" lon="12.514554216859235"><ele>405.0</ele><time>2026-04-21T11:43:12.001Z</time></trkpt><trkpt lat="43.364741343209026" lon="12.514489586531399"><ele>405.0</ele><time>2026-04-21T11:43:13.001Z</time></trkpt><trkpt lat="43.36468971323271" lon="12.514435667027366"><ele>405.0</ele><time>2026-04-21T11:43:14.001Z</time></trkpt><trkpt lat="43.36460928417617" lon="12.514353642086352"><ele>405.4</ele><time>2026-04-21T11:43:16.001Z</time></trkpt><trkpt lat="43.36451264787935" lon="12.514256628872767"><ele>405.8</ele><time>2026-04-21T11:43:18.001Z</time></trkpt><trkpt lat="43.36444899441107" lon="12.514195771123239"><ele>406.20000000000005</ele><time>2026-04-21T11:43:19.001Z</time></trkpt><trkpt lat="43.36439299702232" lon="12.514146742823623"><ele>406.6</ele><time>2026-04-21T11:43:20.001Z</time></trkpt><trkpt lat="43.36429438552834" lon="12.514085981692428"><ele>407.0</ele><time>2026-04-21T11:43:22.001Z</time></trkpt><trkpt lat="43.36417721379418" lon="12.514071902677438"><ele>407.0</ele><time>2026-04-21T11:43:24.001Z</time></trkpt><trkpt lat="43.36411424681898" lon="12.514061988361679"><ele>407.0</ele><time>2026-04-21T11:43:25.001Z</time></trkpt><trkpt lat="43.364009255490096" lon="12.514045298859324"><ele>407.0</ele><time>2026-04-21T11:43:27.001Z</time></trkpt><trkpt lat="43.363933011666155" lon="12.513955047916312"><ele>407.0</ele><time>2026-04-21T11:43:29.001Z</time></trkpt><trkpt lat="43.36385364653788" lon="12.51385771749979"><ele>407.0</ele><time>2026-04-21T11:43:31.001Z</time></trkpt><trkpt lat="43.36377539472365" lon="12.513788207708929"><ele>406.8333333333333</ele><time>2026-04-21T11:43:33.001Z</time></trkpt><trkpt lat="43.36370337946173" lon="12.513687074241796"><ele>406.66666666666663</ele><time>2026-04-21T11:43:35.001Z</time></trkpt><trkpt lat="43.363663367966254" lon="12.513617946918034"><ele>406.5</ele><time>2026-04-21T11:43:36.001Z</time></trkpt><trkpt lat="43.36361337411006" lon="12.513553644070447"><ele>406.33333333333337</ele><time>2026-04-21T11:43:37.001Z</time></trkpt><trkpt lat="43.36353927542867" lon="12.513484460054666"><ele>406.1666666666667</ele><time>2026-04-21T11:43:38.001Z</time></trkpt><trkpt lat="43.36345566009029" lon="12.513394828398102"><ele>406.0</ele><time>2026-04-21T11:43:39.001Z</time></trkpt><trkpt lat="43.36337007677551" lon="12.513301741432302"><ele>406.00000000000006</ele><time>2026-04-21T11:43:40.001Z</time></trkpt><trkpt lat="43.36329844883068" lon="12.513223562199352"><ele>406.0</ele><time>2026-04-21T11:43:41.001Z</time></trkpt><trkpt lat="43.363242963094066" lon="12.513153822431676"><ele>406.0</ele><time>2026-04-21T11:43:42.001Z</time></trkpt><trkpt lat="43.363184447254206" lon="12.513095821601269"><ele>406.0</ele><time>2026-04-21T11:43:43.001Z</time></trkpt><trkpt lat="43.36313377652347" lon="12.512999866191283"><ele>406.00000000000006</ele><time>2026-04-21T11:43:44.001Z</time></trkpt><trkpt lat="43.36306852892403" lon="12.512939681802017"><ele>406.0</ele><time>2026-04-21T11:43:45.001Z</time></trkpt><trkpt lat="43.36298557809017" lon="12.512826233106496"><ele>406.00000000000006</ele><time>2026-04-21T11:43:47.001Z</time></trkpt><trkpt lat="43.36298800945944" lon="12.512716553456725"><ele>406.0</ele><time>2026-04-21T11:43:49.001Z</time></trkpt><trkpt lat="43.36304672401651" lon="12.512572902808081"><ele>406.0</ele><time>2026-04-21T11:43:51.001Z</time></trkpt><trkpt lat="43.36307745380941" lon="12.512488981099999"><ele>406.0</ele><time>2026-04-21T11:43:52.001Z</time></trkpt><trkpt lat="43.36312236658882" lon="12.512417049078616"><ele>406.00000000000006</ele><time>2026-04-21T11:43:53.001Z</time></trkpt><trkpt lat="43.36318537431834" lon="12.512309545263225"><ele>406.0</ele><time>2026-04-21T11:43:55.001Z</time></trkpt><trkpt lat="43.363266533948334" lon="12.512217231230563"><ele>406.0</ele><time>2026-04-21T11:43:57.001Z</time></trkpt><trkpt lat="43.36337026429083" lon="12.512143903390285"><ele>406.0</ele><time>2026-04-21T11:43:59.001Z</time></trkpt><trkpt lat="43.36346897586748" lon="12.512049014703484"><ele>406.0</ele><time>2026-04-21T11:44:01.001Z</time></trkpt><trkpt lat="43.36355438305768" lon="12.511932668150257"><ele>406.0</ele><time>2026-04-21T11:44:03.001Z</time></trkpt><trkpt lat="43.36362896480692" lon="12.511791381656666"><ele>406.1666666666667</ele><time>2026-04-21T11:44:05.001Z</time></trkpt><trkpt lat="43.36364403046026" lon="12.511694514161515"><ele>406.33333333333337</ele><time>2026-04-21T11:44:06.001Z</time></trkpt><trkpt lat="43.36362508759058" lon="12.51160433627717"><ele>406.5</ele><time>2026-04-21T11:44:07.001Z</time></trkpt><trkpt lat="43.36357191436865" lon="12.511521952702779"><ele>406.66666666666663</ele><time>2026-04-21T11:44:08.001Z</time></trkpt><trkpt lat="43.36349710777292" lon="12.511444560622431"><ele>406.8333333333333</ele><time>2026-04-21T11:44:09.001Z</time></trkpt><trkpt lat="43.36342890381705" lon="12.511358105043302"><ele>407.0</ele><time>2026-04-21T11:44:10.001Z</time></trkpt><trkpt lat="43.36335548173518" lon="12.511258297466233"><ele>407.28571428571433</ele><time>2026-04-21T11:44:11.001Z</time></trkpt><trkpt lat="43.36330815040233" lon="12.511177121377491"><ele>407.57142857142856</ele><time>2026-04-21T11:44:12.001Z</time></trkpt><trkpt lat="43.36327218864365" lon="12.511085951702649"><ele>407.8571428571429</ele><time>2026-04-21T11:44:13.001Z</time></trkpt><trkpt lat="43.3632511306371" lon="12.510996701565887"><ele>408.14285714285717</ele><time>2026-04-21T11:44:14.001Z</time></trkpt><trkpt lat="43.3632493381446" lon="12.510902572202907"><ele>408.42857142857144</ele><time>2026-04-21T11:44:15.001Z</time></trkpt><trkpt lat="43.363254354366596" lon="12.510800233000406"><ele>408.7142857142857</ele><time>2026-04-21T11:44:16.001Z</time></trkpt><trkpt lat="43.36327192962854" lon="12.51070090353444"><ele>409.0</ele><time>2026-04-21T11:44:17.001Z</time></trkpt><trkpt lat="43.36330304394395" lon="12.510591098247287"><ele>409.0</ele><time>2026-04-21T11:44:18.001Z</time></trkpt><trkpt lat="43.363331333965185" lon="12.510470104893917"><ele>409.0</ele><time>2026-04-21T11:44:19.001Z</time></trkpt><trkpt lat="43.36337916350219" lon="12.510349499146104"><ele>409.0</ele><time>2026-04-21T11:44:20Z</time></trkpt><trkpt lat="43.36343880783544" lon="12.510232507067634"><ele>409.0</ele><time>2026-04-21T11:44:21Z</time></trkpt><trkpt lat="43.36348758083861" lon="12.510114162030446"><ele>409.0</ele><time>2026-04-21T11:44:22Z</time></trkpt><trkpt lat="43.36353726131938" lon="12.509995515090022"><ele>408.4</ele><time>2026-04-21T11:44:23Z</time></trkpt><trkpt lat="43.363592467383235" lon="12.509866135079168"><ele>407.79999999999995</ele><time>2026-04-21T11:44:24Z</time></trkpt><trkpt lat="43.36364534105391" lon="12.509742844575792"><ele>407.20000000000005</ele><time>2026-04-21T11:44:25Z</time></trkpt><trkpt lat="43.363695548620385" lon="12.509625770830977"><ele>406.6</ele><time>2026-04-21T11:44:26Z</time></trkpt><trkpt lat="43.3637383775865" lon="12.509503375671471"><ele>406.0</ele><time>2026-04-21T11:44:27Z</time></trkpt><trkpt lat="43.363785947662116" lon="12.509383816642883"><ele>405.8</ele><time>2026-04-21T11:44:28Z</time></trkpt><trkpt lat="43.36381866853895" lon="12.509283442691265"><ele>405.6</ele><time>2026-04-21T11:44:29Z</time></trkpt><trkpt lat="43.36386456845397" lon="12.509139110644501"><ele>405.4</ele><time>2026-04-21T11:44:31Z</time></trkpt><trkpt lat="43.36386619587354" lon="12.508981563729527"><ele>405.2</ele><time>2026-04-21T11:44:33Z</time></trkpt><trkpt lat="43.36387949214845" lon="12.50885871348721"><ele>405.0</ele><time>2026-04-21T11:44:35Z</time></trkpt><trkpt lat="43.36388086285247" lon="12.508679728299244"><ele>404.8</ele><time>2026-04-21T11:44:37Z</time></trkpt><trkpt lat="43.36386890690926" lon="12.508576064049738"><ele>404.6</ele><time>2026-04-21T11:44:38Z</time></trkpt><trkpt lat="43.363874429695606" lon="12.508454646016839"><ele>404.4</ele><time>2026-04-21T11:44:39Z</time></trkpt><trkpt lat="43.36387960962378" lon="12.50832650463867"><ele>404.2</ele><time>2026-04-21T11:44:40Z</time></trkpt><trkpt lat="43.363882497196876" lon="12.508190958861569"><ele>404.0</ele><time>2026-04-21T11:44:41Z</time></trkpt><trkpt lat="43.36387826309851" lon="12.508044319291383"><ele>404.0</ele><time>2026-04-21T11:44:42Z</time></trkpt><trkpt lat="43.36388745149645" lon="12.50789555264025"><ele>404.0</ele><time>2026-04-21T11:44:43Z</time></trkpt><trkpt lat="43.36385718506202" lon="12.507739189182585"><ele>404.0</ele><time>2026-04-21T11:44:44Z</time></trkpt><trkpt lat="43.36384429491012" lon="12.507600203245753"><ele>404.0</ele><time>2026-04-21T11:44:45Z</time></trkpt><trkpt lat="43.36383926007692" lon="12.507476159834008"><ele>404.0</ele><time>2026-04-21T11:44:46Z</time></trkpt><trkpt lat="43.36386327513861" lon="12.507353149606026"><ele>403.99999999999994</ele><time>2026-04-21T11:44:47Z</time></trkpt><trkpt lat="43.363892884832" lon="12.507222210473538"><ele>404.0</ele><time>2026-04-21T11:44:48Z</time></trkpt><trkpt lat="43.363934887070165" lon="12.50709894002031"><ele>404.0</ele><time>2026-04-21T11:44:49Z</time></trkpt><trkpt lat="43.36396470735282" lon="12.506985053818534"><ele>404.0</ele><time>2026-04-21T11:44:50Z</time></trkpt><trkpt lat="43.364012715819335" lon="12.506908745478261"><ele>403.99999999999994</ele><time>2026-04-21T11:44:51Z</time></trkpt><trkpt lat="43.36408762834469" lon="12.50684628867969"><ele>404.0</ele><time>2026-04-21T11:44:52Z</time></trkpt><trkpt lat="43.36416619677124" lon="12.506788443726997"><ele>403.8333333333333</ele><time>2026-04-21T11:44:53Z</time></trkpt><trkpt lat="43.3642243078372" lon="12.50675266938871"><ele>403.66666666666663</ele><time>2026-04-21T11:44:54Z</time></trkpt><trkpt lat="43.364307138000314" lon="12.506716418837957"><ele>403.5</ele><time>2026-04-21T11:44:56Z</time></trkpt><trkpt lat="43.36440550188519" lon="12.506648245765513"><ele>403.33333333333337</ele><time>2026-04-21T11:44:58Z</time></trkpt><trkpt lat="43.36449157114821" lon="12.506614057552015"><ele>403.1666666666667</ele><time>2026-04-21T11:45:00Z</time></trkpt><trkpt lat="43.36455299661485" lon="12.506545463902974"><ele>403.0</ele><time>2026-04-21T11:45:02Z</time></trkpt><trkpt lat="43.36461276241477" lon="12.50650518577401"><ele>403.0</ele><time>2026-04-21T11:45:03Z</time></trkpt><trkpt lat="43.36472625560928" lon="12.506395559441634"><ele>403.0</ele><time>2026-04-21T11:45:05Z</time></trkpt><trkpt lat="43.36478753188506" lon="12.506317656811953"><ele>403.0</ele><time>2026-04-21T11:45:06Z</time></trkpt><trkpt lat="43.364859293912204" lon="12.506259536841128"><ele>403.0</ele><time>2026-04-21T11:45:07Z</time></trkpt><trkpt lat="43.364931130921896" lon="12.50617749163017"><ele>403.0</ele><time>2026-04-21T11:45:08Z</time></trkpt><trkpt lat="43.365012820743004" lon="12.5061091996976"><ele>403.0</ele><time>2026-04-21T11:45:09Z</time></trkpt><trkpt lat="43.36509488122148" lon="12.506029373452995"><ele>403.0</ele><time>2026-04-21T11:45:10Z</time></trkpt><trkpt lat="43.365177528283546" lon="12.505958820496303"><ele>403.0</ele><time>2026-04-21T11:45:11Z</time></trkpt><trkpt lat="43.36523750703092" lon="12.505879709362452"><ele>403.0</ele><time>2026-04-21T11:45:12.001Z</time></trkpt><trkpt lat="43.36530800854228" lon="12.505788834902711"><ele>403.0</ele><time>2026-04-21T11:45:13.001Z</time></trkpt><trkpt lat="43.36538814498966" lon="12.505700709695596"><ele>403.0</ele><time>2026-04-21T11:45:14.001Z</time></trkpt><trkpt lat="43.36547093144213" lon="12.505597153995478"><ele>403.0</ele><time>2026-04-21T11:45:15.001Z</time></trkpt><trkpt lat="43.36556414708651" lon="12.505503287185629"><ele>403.0</ele><time>2026-04-21T11:45:16.001Z</time></trkpt><trkpt lat="43.36565499207077" lon="12.505395454952335"><ele>403.0</ele><time>2026-04-21T11:45:17.001Z</time></trkpt><trkpt lat="43.36574472726744" lon="12.505288939992383"><ele>403.2</ele><time>2026-04-21T11:45:18.001Z</time></trkpt><trkpt lat="43.36582198882346" lon="12.505165404593027"><ele>403.4</ele><time>2026-04-21T11:45:19.001Z</time></trkpt><trkpt lat="43.365903400338816" lon="12.50506224672034"><ele>403.59999999999997</ele><time>2026-04-21T11:45:20.001Z</time></trkpt><trkpt lat="43.36597753762398" lon="12.504974775564424"><ele>403.79999999999995</ele><time>2026-04-21T11:45:21.001Z</time></trkpt><trkpt lat="43.366055392119776" lon="12.504893734341811"><ele>404.0</ele><time>2026-04-21T11:45:22.001Z</time></trkpt><trkpt lat="43.366132774035016" lon="12.504798948071926"><ele>404.0</ele><time>2026-04-21T11:45:23.001Z</time></trkpt><trkpt lat="43.36620835466654" lon="12.504693016623156"><ele>404.0</ele><time>2026-04-21T11:45:24.001Z</time></trkpt><trkpt lat="43.36630185221536" lon="12.504585295614323"><ele>404.0</ele><time>2026-04-21T11:45:25.001Z</time></trkpt><trkpt lat="43.366408189517614" lon="12.504486560817325"><ele>404.0</ele><time>2026-04-21T11:45:26.001Z</time></trkpt><trkpt lat="43.366497988638834" lon="12.504350910619081"><ele>403.79999999999995</ele><time>2026-04-21T11:45:27.001Z</time></trkpt><trkpt lat="43.36659049261185" lon="12.504239109120608"><ele>403.59999999999997</ele><time>2026-04-21T11:45:28.001Z</time></trkpt><trkpt lat="43.366676331336315" lon="12.504140932859075"><ele>403.4</ele><time>2026-04-21T11:45:29.001Z</time></trkpt><trkpt lat="43.366748489501006" lon="12.504050054171037"><ele>403.2</ele><time>2026-04-21T11:45:30.001Z</time></trkpt><trkpt lat="43.36682311900229" lon="12.503973630022243"><ele>403.0</ele><time>2026-04-21T11:45:31.001Z</time></trkpt><trkpt lat="43.366888053964566" lon="12.503893437466786"><ele>403.0</ele><time>2026-04-21T11:45:32.001Z</time></trkpt><trkpt lat="43.366942626247706" lon="12.503811886721438"><ele>403.0</ele><time>2026-04-21T11:45:33.001Z</time></trkpt><trkpt lat="43.3669911928243" lon="12.50371463027535"><ele>403.0</ele><time>2026-04-21T11:45:34.001Z</time></trkpt><trkpt lat="43.36702366137157" lon="12.50359830652307"><ele>403.0</ele><time>2026-04-21T11:45:35.001Z</time></trkpt><trkpt lat="43.36702452276621" lon="12.50347335793008"><ele>403.0</ele><time>2026-04-21T11:45:36.001Z</time></trkpt><trkpt lat="43.367029383532" lon="12.503329248832138"><ele>403.0</ele><time>2026-04-21T11:45:37.001Z</time></trkpt><trkpt lat="43.36701499763659" lon="12.503166863255165"><ele>403.0</ele><time>2026-04-21T11:45:38.001Z</time></trkpt><trkpt lat="43.36700384521868" lon="12.503007412673318"><ele>403.0</ele><time>2026-04-21T11:45:39.001Z</time></trkpt><trkpt lat="43.366995779628105" lon="12.502863438701903"><ele>403.0</ele><time>2026-04-21T11:45:40.001Z</time></trkpt><trkpt lat="43.36698405979084" lon="12.50274144190683"><ele>403.0</ele><time>2026-04-21T11:45:41.001Z</time></trkpt><trkpt lat="43.36697244810356" lon="12.50263462300132"><ele>402.83333333333337</ele><time>2026-04-21T11:45:42.001Z</time></trkpt><trkpt lat="43.36697461242325" lon="12.50252478874553"><ele>402.6666666666667</ele><time>2026-04-21T11:45:43.001Z</time></trkpt><trkpt lat="43.36695259968287" lon="12.502395529439834"><ele>402.5</ele><time>2026-04-21T11:45:44.001Z</time></trkpt><trkpt lat="43.36688836149239" lon="12.502272962046456"><ele>402.33333333333337</ele><time>2026-04-21T11:45:45.001Z</time></trkpt><trkpt lat="43.366852334726254" lon="12.502183806806157"><ele>402.1666666666667</ele><time>2026-04-21T11:45:46.001Z</time></trkpt><trkpt lat="43.366819232380465" lon="12.50209314175417"><ele>402.0</ele><time>2026-04-21T11:45:47.001Z</time></trkpt><trkpt lat="43.366772596058915" lon="12.502031819998068"><ele>401.40000000000003</ele><time>2026-04-21T11:45:48.001Z</time></trkpt><trkpt lat="43.36673292240468" lon="12.501917804003595"><ele>400.8</ele><time>2026-04-21T11:45:49.001Z</time></trkpt><trkpt lat="43.366669340852816" lon="12.501795442427788"><ele>400.2</ele><time>2026-04-21T11:45:50.001Z</time></trkpt><trkpt lat="43.36660579775924" lon="12.501673756508378"><ele>399.6</ele><time>2026-04-21T11:45:51.001Z</time></trkpt><trkpt lat="43.366539201333644" lon="12.5015460588217"><ele>399.0</ele><time>2026-04-21T11:45:52.001Z</time></trkpt><trkpt lat="43.36647607759591" lon="12.50142388773518"><ele>399.0</ele><time>2026-04-21T11:45:53.001Z</time></trkpt><trkpt lat="43.36640936199776" lon="12.50129203163606"><ele>399.0</ele><time>2026-04-21T11:45:54.001Z</time></trkpt><trkpt lat="43.36634094724916" lon="12.501153510291836"><ele>399.0</ele><time>2026-04-21T11:45:55.001Z</time></trkpt><trkpt lat="43.36627126784938" lon="12.501010449421253"><ele>399.0</ele><time>2026-04-21T11:45:56.001Z</time></trkpt><trkpt lat="43.3661997020815" lon="12.500863515631199"><ele>398.75</ele><time>2026-04-21T11:45:57.001Z</time></trkpt><trkpt lat="43.366127359269065" lon="12.50071279522842"><ele>398.5</ele><time>2026-04-21T11:45:58.001Z</time></trkpt><trkpt lat="43.36605495505614" lon="12.50055962669072"><ele>398.25</ele><time>2026-04-21T11:45:59.001Z</time></trkpt><trkpt lat="43.36598604963549" lon="12.500413859830365"><ele>398.0</ele><time>2026-04-21T11:46:00.001Z</time></trkpt><trkpt lat="43.36592608338511" lon="12.500278650161981"><ele>398.0</ele><time>2026-04-21T11:46:01.001Z</time></trkpt><trkpt lat="43.365865610096435" lon="12.500143675212726"><ele>398.0</ele><time>2026-04-21T11:46:02.001Z</time></trkpt><trkpt lat="43.36580198286253" lon="12.500030934870349"><ele>398.0</ele><time>2026-04-21T11:46:03.001Z</time></trkpt><trkpt lat="43.36573440314414" lon="12.499937454620273"><ele>398.0</ele><time>2026-04-21T11:46:04.001Z</time></trkpt><trkpt lat="43.36565650591735" lon="12.499870415073618"><ele>398.0</ele><time>2026-04-21T11:46:05.001Z</time></trkpt><trkpt lat="43.365590749887865" lon="12.499759596771845"><ele>399.0</ele><time>2026-04-21T11:46:06.001Z</time></trkpt><trkpt lat="43.3655028411475" lon="12.49965932625159"><ele>400.0</ele><time>2026-04-21T11:46:07.001Z</time></trkpt><trkpt lat="43.36539589394976" lon="12.499561409365727"><ele>401.0</ele><time>2026-04-21T11:46:08.001Z</time></trkpt><trkpt lat="43.36527499764544" lon="12.499479396899353"><ele>402.0</ele><time>2026-04-21T11:46:09.001Z</time></trkpt><trkpt lat="43.36514879111225" lon="12.499412078364998"><ele>402.0</ele><time>2026-04-21T11:46:10.001Z</time></trkpt><trkpt lat="43.365019418435544" lon="12.499343754691383"><ele>402.0</ele><time>2026-04-21T11:46:11.001Z</time></trkpt><trkpt lat="43.36488932900024" lon="12.49926759328648"><ele>402.0</ele><time>2026-04-21T11:46:12.001Z</time></trkpt><trkpt lat="43.36476893285185" lon="12.499175555191558"><ele>402.0</ele><time>2026-04-21T11:46:13.001Z</time></trkpt><trkpt lat="43.364669901297944" lon="12.499086225999703"><ele>402.5</ele><time>2026-04-21T11:46:14.001Z</time></trkpt><trkpt lat="43.364563177083596" lon="12.498964019192366"><ele>403.0</ele><time>2026-04-21T11:46:15.001Z</time></trkpt><trkpt lat="43.36445607558513" lon="12.498837773609237"><ele>403.5</ele><time>2026-04-21T11:46:16.001Z</time></trkpt><trkpt lat="43.364356955130425" lon="12.498717196975372"><ele>404.0</ele><time>2026-04-21T11:46:17.001Z</time></trkpt><trkpt lat="43.36427292526803" lon="12.498607168985707"><ele>404.5</ele><time>2026-04-21T11:46:18.001Z</time></trkpt><trkpt lat="43.36419499390372" lon="12.498496462413096"><ele>405.0</ele><time>2026-04-21T11:46:19.001Z</time></trkpt><trkpt lat="43.36412063904817" lon="12.49836745122237"><ele>405.5</ele><time>2026-04-21T11:46:20.001Z</time></trkpt><trkpt lat="43.36405487088176" lon="12.498231512010884"><ele>406.0</ele><time>2026-04-21T11:46:21.001Z</time></trkpt><trkpt lat="43.364005244112164" lon="12.498113458063289"><ele>406.0</ele><time>2026-04-21T11:46:22.001Z</time></trkpt><trkpt lat="43.36395171145778" lon="12.498009423179719"><ele>406.0</ele><time>2026-04-21T11:46:23.001Z</time></trkpt><trkpt lat="43.36390279536771" lon="12.497906905455807"><ele>406.0</ele><time>2026-04-21T11:46:24.001Z</time></trkpt><trkpt lat="43.36384326582155" lon="12.497777408846877"><ele>406.0</ele><time>2026-04-21T11:46:25.001Z</time></trkpt><trkpt lat="43.363757269715244" lon="12.497664546949927"><ele>406.0</ele><time>2026-04-21T11:46:26.001Z</time></trkpt><trkpt lat="43.36367828629085" lon="12.497561590551644"><ele>405.6666666666667</ele><time>2026-04-21T11:46:27.001Z</time></trkpt><trkpt lat="43.3636055343815" lon="12.497464793437189"><ele>405.33333333333337</ele><time>2026-04-21T11:46:28.001Z</time></trkpt><trkpt lat="43.36353831108833" lon="12.4973666170339"><ele>405.0</ele><time>2026-04-21T11:46:29.001Z</time></trkpt><trkpt lat="43.36349728194794" lon="12.497263009606778"><ele>404.66666666666663</ele><time>2026-04-21T11:46:30.001Z</time></trkpt><trkpt lat="43.36347285484275" lon="12.497158095702186"><ele>404.3333333333333</ele><time>2026-04-21T11:46:31.001Z</time></trkpt><trkpt lat="43.363466325010876" lon="12.497065546386256"><ele>404.0</ele><time>2026-04-21T11:46:32Z</time></trkpt><trkpt lat="43.36343869871212" lon="12.496964250584547"><ele>403.99999999999994</ele><time>2026-04-21T11:46:33Z</time></trkpt><trkpt lat="43.363401057283625" lon="12.496851530994993"><ele>404.0</ele><time>2026-04-21T11:46:35Z</time></trkpt><trkpt lat="43.36339116165631" lon="12.496757129500516"><ele>404.0</ele><time>2026-04-21T11:46:37Z</time></trkpt><trkpt lat="43.36338266682736" lon="12.496651998921216"><ele>404.0</ele><time>2026-04-21T11:46:38Z</time></trkpt><trkpt lat="43.36332886519593" lon="12.496554800321631"><ele>403.99999999999994</ele><time>2026-04-21T11:46:39Z</time></trkpt><trkpt lat="43.36325687871582" lon="12.496483091677897"><ele>404.0</ele><time>2026-04-21T11:46:40Z</time></trkpt><trkpt lat="43.36319499995373" lon="12.496356362963787"><ele>403.75</ele><time>2026-04-21T11:46:41Z</time></trkpt><trkpt lat="43.3631205423898" lon="12.496216514549845"><ele>403.5</ele><time>2026-04-21T11:46:42Z</time></trkpt><trkpt lat="43.36304558548533" lon="12.496065342613607"><ele>403.25</ele><time>2026-04-21T11:46:43Z</time></trkpt><trkpt lat="43.362983675379624" lon="12.495927340926267"><ele>403.0</ele><time>2026-04-21T11:46:44Z</time></trkpt><trkpt lat="43.36294358137923" lon="12.495804422355215"><ele>404.4</ele><time>2026-04-21T11:46:45Z</time></trkpt><trkpt lat="43.362917983741625" lon="12.495690405968167"><ele>405.79999999999995</ele><time>2026-04-21T11:46:46Z</time></trkpt><trkpt lat="43.362913903189835" lon="12.495578810856635"><ele>407.2</ele><time>2026-04-21T11:46:47Z</time></trkpt><trkpt lat="43.362938962533185" lon="12.495436874341399"><ele>408.6</ele><time>2026-04-21T11:46:48Z</time></trkpt><trkpt lat="43.36297273013431" lon="12.495279469779565"><ele>410.0</ele><time>2026-04-21T11:46:49Z</time></trkpt><trkpt lat="43.36299297177616" lon="12.495110939676023"><ele>410.5</ele><time>2026-04-21T11:46:50Z</time></trkpt><trkpt lat="43.36300688313722" lon="12.494928344101238"><ele>411.0</ele><time>2026-04-21T11:46:51Z</time></trkpt><trkpt lat="43.36301282451464" lon="12.49472985445095"><ele>411.5</ele><time>2026-04-21T11:46:52Z</time></trkpt><trkpt lat="43.36303999355433" lon="12.494515536771992"><ele>412.0</ele><time>2026-04-21T11:46:53Z</time></trkpt><trkpt lat="43.36309388990576" lon="12.494302020710965"><ele>410.33333333333337</ele><time>2026-04-21T11:46:54Z</time></trkpt><trkpt lat="43.36313567342147" lon="12.494086275579786"><ele>408.66666666666663</ele><time>2026-04-21T11:46:55Z</time></trkpt><trkpt lat="43.36317852391552" lon="12.493872880150901"><ele>407.0</ele><time>2026-04-21T11:46:56Z</time></trkpt><trkpt lat="43.36320568063015" lon="12.493656199487033"><ele>411.0</ele><time>2026-04-21T11:46:57Z</time></trkpt><trkpt lat="43.36325549693933" lon="12.493450208881733"><ele>415.0</ele><time>2026-04-21T11:46:58Z</time></trkpt><trkpt lat="43.36333080988567" lon="12.493276286398796"><ele>419.0</ele><time>2026-04-21T11:46:59Z</time></trkpt><trkpt lat="43.36339710160324" lon="12.49307977793746"><ele>419.0</ele><time>2026-04-21T11:47:00Z</time></trkpt><trkpt lat="43.363498878407974" lon="12.492931178263762"><ele>419.0</ele><time>2026-04-21T11:47:01Z</time></trkpt><trkpt lat="43.3636007793238" lon="12.492767363746218"><ele>419.0</ele><time>2026-04-21T11:47:01.999Z</time></trkpt><trkpt lat="43.36367994856917" lon="12.49259460996452"><ele>422.0</ele><time>2026-04-21T11:47:02.999Z</time></trkpt><trkpt lat="43.36371749098745" lon="12.492446244553825"><ele>425.0</ele><time>2026-04-21T11:47:03.999Z</time></trkpt><trkpt lat="43.36374930030076" lon="12.492340877706797"><ele>428.0</ele><time>2026-04-21T11:47:04.999Z</time></trkpt><trkpt lat="43.36375260404127" lon="12.492250205568764"><ele>431.0</ele><time>2026-04-21T11:47:05.999Z</time></trkpt><trkpt lat="43.36367888501346" lon="12.492109112836156"><ele>434.0</ele><time>2026-04-21T11:47:07.999Z</time></trkpt><trkpt lat="43.36358096696341" lon="12.492137778411411"><ele>434.0</ele><time>2026-04-21T11:47:08.999Z</time></trkpt><trkpt lat="43.36350449294486" lon="12.492266493299306"><ele>434.0</ele><time>2026-04-21T11:47:09.999Z</time></trkpt><trkpt lat="43.36342509397074" lon="12.492375422952394"><ele>434.0</ele><time>2026-04-21T11:47:10.999Z</time></trkpt><trkpt lat="43.363323475859076" lon="12.492466180311542"><ele>434.0</ele><time>2026-04-21T11:47:11.999Z</time></trkpt><trkpt lat="43.36316887604701" lon="12.492515445817732"><ele>438.66666666666663</ele><time>2026-04-21T11:47:12.999Z</time></trkpt><trkpt lat="43.363001546376694" lon="12.492590924921908"><ele>443.33333333333337</ele><time>2026-04-21T11:47:13.999Z</time></trkpt><trkpt lat="43.36286772564089" lon="12.492675224760674"><ele>448.0</ele><time>2026-04-21T11:47:14.999Z</time></trkpt><trkpt lat="43.362720099071794" lon="12.492791870368665"><ele>448.0</ele><time>2026-04-21T11:47:15.999Z</time></trkpt><trkpt lat="43.362562338086605" lon="12.49291223926881"><ele>448.0</ele><time>2026-04-21T11:47:16.999Z</time></trkpt><trkpt lat="43.362418436598645" lon="12.49304442534731"><ele>448.0</ele><time>2026-04-21T11:47:18Z</time></trkpt><trkpt lat="43.362282484436115" lon="12.493190654985137"><ele>448.5</ele><time>2026-04-21T11:47:19Z</time></trkpt><trkpt lat="43.36217364467343" lon="12.493319583318819"><ele>449.0</ele><time>2026-04-21T11:47:20Z</time></trkpt><trkpt lat="43.36209403269455" lon="12.49345143438596"><ele>449.5</ele><time>2026-04-21T11:47:21Z</time></trkpt><trkpt lat="43.36205253860607" lon="12.493588215441585"><ele>450.0</ele><time>2026-04-21T11:47:22Z</time></trkpt><trkpt lat="43.36202394527937" lon="12.493717239433808"><ele>450.0</ele><time>2026-04-21T11:47:23Z</time></trkpt><trkpt lat="43.36197333483931" lon="12.493784844511538"><ele>450.0</ele><time>2026-04-21T11:47:24Z</time></trkpt><trkpt lat="43.36189500729493" lon="12.493783441079664"><ele>450.0</ele><time>2026-04-21T11:47:25Z</time></trkpt><trkpt lat="43.361820098706666" lon="12.493789513936422"><ele>450.0</ele><time>2026-04-21T11:47:26Z</time></trkpt><trkpt lat="43.361764064806195" lon="12.493700943739388"><ele>450.0</ele><time>2026-04-21T11:47:27Z</time></trkpt><trkpt lat="43.36171738752644" lon="12.493635411578982"><ele>450.0</ele><time>2026-04-21T11:47:28Z</time></trkpt><trkpt lat="43.36174155054109" lon="12.493523669213625"><ele>450.0</ele><time>2026-04-21T11:47:29Z</time></trkpt><trkpt lat="43.36178004661444" lon="12.493422125248333"><ele>450.0</ele><time>2026-04-21T11:47:30Z</time></trkpt><trkpt lat="43.361805223791215" lon="12.493269767798141"><ele>450.0</ele><time>2026-04-21T11:47:31Z</time></trkpt><trkpt lat="43.361819865815356" lon="12.493098955176135"><ele>450.0</ele><time>2026-04-21T11:47:32Z</time></trkpt><trkpt lat="43.36182322745405" lon="12.492919349365184"><ele>452.25</ele><time>2026-04-21T11:47:33Z</time></trkpt><trkpt lat="43.361816406393345" lon="12.492734052037266"><ele>454.5</ele><time>2026-04-21T11:47:34Z</time></trkpt><trkpt lat="43.361815445959444" lon="12.49255639944398"><ele>456.75</ele><time>2026-04-21T11:47:35Z</time></trkpt><trkpt lat="43.361876371600346" lon="12.492385458051245"><ele>459.0</ele><time>2026-04-21T11:47:36Z</time></trkpt><trkpt lat="43.361937319226946" lon="12.49221936288062"><ele>461.0</ele><time>2026-04-21T11:47:37Z</time></trkpt><trkpt lat="43.361985662272204" lon="12.492050756583582"><ele>463.0</ele><time>2026-04-21T11:47:38Z</time></trkpt><trkpt lat="43.36204970524335" lon="12.491904649560425"><ele>465.0</ele><time>2026-04-21T11:47:39Z</time></trkpt><trkpt lat="43.36210028934998" lon="12.49176419421472"><ele>467.0</ele><time>2026-04-21T11:47:39.999Z</time></trkpt><trkpt lat="43.3621280560776" lon="12.491628978439657"><ele>467.0</ele><time>2026-04-21T11:47:40.999Z</time></trkpt><trkpt lat="43.36214872455722" lon="12.491482628464347"><ele>467.00000000000006</ele><time>2026-04-21T11:47:41.999Z</time></trkpt><trkpt lat="43.36213864137124" lon="12.491318079453407"><ele>467.00000000000006</ele><time>2026-04-21T11:47:42.999Z</time></trkpt><trkpt lat="43.3621078478295" lon="12.49116637061745"><ele>467.0</ele><time>2026-04-21T11:47:43.999Z</time></trkpt><trkpt lat="43.36208394547927" lon="12.491047822205658"><ele>467.0</ele><time>2026-04-21T11:47:44.999Z</time></trkpt><trkpt lat="43.362051671021824" lon="12.490924536857223"><ele>468.75</ele><time>2026-04-21T11:47:45.999Z</time></trkpt><trkpt lat="43.362047356705844" lon="12.490782806938974"><ele>470.5</ele><time>2026-04-21T11:47:46.999Z</time></trkpt><trkpt lat="43.36204512053082" lon="12.490628516077454"><ele>472.25</ele><time>2026-04-21T11:47:47.999Z</time></trkpt><trkpt lat="43.36203322409358" lon="12.490467611670978"><ele>474.0</ele><time>2026-04-21T11:47:48.999Z</time></trkpt><trkpt lat="43.362024435767275" lon="12.490298391380477"><ele>476.25</ele><time>2026-04-21T11:47:49.999Z</time></trkpt><trkpt lat="43.36199861518397" lon="12.490135238196782"><ele>478.5</ele><time>2026-04-21T11:47:50.999Z</time></trkpt><trkpt lat="43.361997431442646" lon="12.489982203216096"><ele>480.75</ele><time>2026-04-21T11:47:51.999Z</time></trkpt><trkpt lat="43.36203988926395" lon="12.489840721665942"><ele>483.0</ele><time>2026-04-21T11:47:52.999Z</time></trkpt><trkpt lat="43.36210362224435" lon="12.489713571707652"><ele>483.0</ele><time>2026-04-21T11:47:53.999Z</time></trkpt><trkpt lat="43.36219333399142" lon="12.48961805285845"><ele>482.99999999999994</ele><time>2026-04-21T11:47:54.999Z</time></trkpt><trkpt lat="43.36229272791871" lon="12.489529900452677"><ele>482.99999999999994</ele><time>2026-04-21T11:47:55.999Z</time></trkpt><trkpt lat="43.36236457193709" lon="12.489410515355171"><ele>483.0</ele><time>2026-04-21T11:47:56.999Z</time></trkpt><trkpt lat="43.36243166747836" lon="12.489321802628112"><ele>483.0</ele><time>2026-04-21T11:47:57.999Z</time></trkpt><trkpt lat="43.36243562638668" lon="12.489189208397748"><ele>484.2</ele><time>2026-04-21T11:47:58.999Z</time></trkpt><trkpt lat="43.362437386755985" lon="12.489034563674467"><ele>485.4</ele><time>2026-04-21T11:47:59.999Z</time></trkpt><trkpt lat="43.362445503736915" lon="12.48887972419548"><ele>486.59999999999997</ele><time>2026-04-21T11:48:00.998Z</time></trkpt><trkpt lat="43.362424279085" lon="12.488747103400915"><ele>487.79999999999995</ele><time>2026-04-21T11:48:01.998Z</time></trkpt><trkpt lat="43.362394920438184" lon="12.48865525130942"><ele>489.0</ele><time>2026-04-21T11:48:02.998Z</time></trkpt><trkpt lat="43.36232799207133" lon="12.488593449561714"><ele>492.75</ele><time>2026-04-21T11:48:03.998Z</time></trkpt><trkpt lat="43.362232712412414" lon="12.488603138265542"><ele>496.5</ele><time>2026-04-21T11:48:04.998Z</time></trkpt><trkpt lat="43.36212767977024" lon="12.488660584591909"><ele>500.25</ele><time>2026-04-21T11:48:05.998Z</time></trkpt><trkpt lat="43.36199808478555" lon="12.488671483149377"><ele>504.0</ele><time>2026-04-21T11:48:06.998Z</time></trkpt><trkpt lat="43.36187779313473" lon="12.488648218687075"><ele>506.5</ele><time>2026-04-21T11:48:07.998Z</time></trkpt><trkpt lat="43.36178967999273" lon="12.488546379329803"><ele>509.0</ele><time>2026-04-21T11:48:08.998Z</time></trkpt><trkpt lat="43.36169090816564" lon="12.488451684540912"><ele>511.5</ele><time>2026-04-21T11:48:09.998Z</time></trkpt><trkpt lat="43.36159454250014" lon="12.488348160322733"><ele>514.0</ele><time>2026-04-21T11:48:10.998Z</time></trkpt><trkpt lat="43.361525847778964" lon="12.488249817096522"><ele>514.0</ele><time>2026-04-21T11:48:11.998Z</time></trkpt><trkpt lat="43.36149396989639" lon="12.488144539107509"><ele>514.0</ele><time>2026-04-21T11:48:12.998Z</time></trkpt><trkpt lat="43.361516459530144" lon="12.48802599579255"><ele>514.0</ele><time>2026-04-21T11:48:13.998Z</time></trkpt><trkpt lat="43.36152646820112" lon="12.48787353599824"><ele>514.0</ele><time>2026-04-21T11:48:14.998Z</time></trkpt><trkpt lat="43.36152673320942" lon="12.487717375572757"><ele>514.0</ele><time>2026-04-21T11:48:15.998Z</time></trkpt><trkpt lat="43.36149633403926" lon="12.487574731574792"><ele>516.25</ele><time>2026-04-21T11:48:16.998Z</time></trkpt><trkpt lat="43.361450934189364" lon="12.487430621206142"><ele>518.5</ele><time>2026-04-21T11:48:17.998Z</time></trkpt><trkpt lat="43.36141519641998" lon="12.487272262478125"><ele>520.75</ele><time>2026-04-21T11:48:18.998Z</time></trkpt><trkpt lat="43.36137990975162" lon="12.487101175001685"><ele>523.0</ele><time>2026-04-21T11:48:19.998Z</time></trkpt><trkpt lat="43.36135243241028" lon="12.486921080350278"><ele>523.0</ele><time>2026-04-21T11:48:20.998Z</time></trkpt><trkpt lat="43.36131701517665" lon="12.486726413710434"><ele>523.0</ele><time>2026-04-21T11:48:21.998Z</time></trkpt><trkpt lat="43.36126573046266" lon="12.486536359970474"><ele>523.0</ele><time>2026-04-21T11:48:22.998Z</time></trkpt><trkpt lat="43.36122672527343" lon="12.486347875695353"><ele>523.0</ele><time>2026-04-21T11:48:23.998Z</time></trkpt><trkpt lat="43.36119684633993" lon="12.486162265076935"><ele>527.0</ele><time>2026-04-21T11:48:24.998Z</time></trkpt><trkpt lat="43.36117660336489" lon="12.485984637053503"><ele>531.0</ele><time>2026-04-21T11:48:25.998Z</time></trkpt><trkpt lat="43.36117455025543" lon="12.485809239813234"><ele>535.0</ele><time>2026-04-21T11:48:26.998Z</time></trkpt><trkpt lat="43.361188627829016" lon="12.48561965524605"><ele>539.0</ele><time>2026-04-21T11:48:27.998Z</time></trkpt><trkpt lat="43.36119913735344" lon="12.485418244271278"><ele>542.6666666666666</ele><time>2026-04-21T11:48:28.998Z</time></trkpt><trkpt lat="43.36120007293539" lon="12.485210304432634"><ele>546.3333333333334</ele><time>2026-04-21T11:48:29.998Z</time></trkpt><trkpt lat="43.36118464158418" lon="12.485008361567791"><ele>550.0</ele><time>2026-04-21T11:48:30.998Z</time></trkpt><trkpt lat="43.361159824992036" lon="12.484803836447695"><ele>550.0</ele><time>2026-04-21T11:48:31.998Z</time></trkpt><trkpt lat="43.36114114195262" lon="12.484601065113509"><ele>550.0</ele><time>2026-04-21T11:48:32.998Z</time></trkpt><trkpt lat="43.3611434538308" lon="12.484408168877863"><ele>550.0</ele><time>2026-04-21T11:48:33.998Z</time></trkpt><trkpt lat="43.36117897419285" lon="12.484221711150814"><ele>550.0</ele><time>2026-04-21T11:48:34.998Z</time></trkpt><trkpt lat="43.36123534286331" lon="12.48404011015235"><ele>554.3333333333334</ele><time>2026-04-21T11:48:35.998Z</time></trkpt><trkpt lat="43.36129449298758" lon="12.483845745930388"><ele>558.6666666666666</ele><time>2026-04-21T11:48:36.998Z</time></trkpt><trkpt lat="43.361348857868734" lon="12.483653055173992"><ele>563.0</ele><time>2026-04-21T11:48:37.998Z</time></trkpt><trkpt lat="43.36140476711178" lon="12.483460427204855"><ele>563.0</ele><time>2026-04-21T11:48:38.998Z</time></trkpt><trkpt lat="43.36146163071388" lon="12.483282445239677"><ele>563.0</ele><time>2026-04-21T11:48:39.998Z</time></trkpt><trkpt lat="43.361519216981" lon="12.483100205811409"><ele>563.0</ele><time>2026-04-21T11:48:40.998Z</time></trkpt><trkpt lat="43.361565313113445" lon="12.48293240226478"><ele>563.0</ele><time>2026-04-21T11:48:41.998Z</time></trkpt><trkpt lat="43.36159910330893" lon="12.482748224350201"><ele>565.75</ele><time>2026-04-21T11:48:42.998Z</time></trkpt><trkpt lat="43.36162454291704" lon="12.482563121838245"><ele>568.5</ele><time>2026-04-21T11:48:43.998Z</time></trkpt><trkpt lat="43.361648137512866" lon="12.482359654245881"><ele>571.25</ele><time>2026-04-21T11:48:44.998Z</time></trkpt><trkpt lat="43.36165111304335" lon="12.482155715240665"><ele>574.0</ele><time>2026-04-21T11:48:45.998Z</time></trkpt><trkpt lat="43.36167068905699" lon="12.481955983373231"><ele>575.5</ele><time>2026-04-21T11:48:46.998Z</time></trkpt><trkpt lat="43.361688239713736" lon="12.481756188737437"><ele>577.0</ele><time>2026-04-21T11:48:47.998Z</time></trkpt><trkpt lat="43.36169695365106" lon="12.481558471291684"><ele>578.5</ele><time>2026-04-21T11:48:48.998Z</time></trkpt><trkpt lat="43.36169480942246" lon="12.481350963653732"><ele>580.0</ele><time>2026-04-21T11:48:49.998Z</time></trkpt><trkpt lat="43.361712034783245" lon="12.481167528681171"><ele>580.0</ele><time>2026-04-21T11:48:50.998Z</time></trkpt><trkpt lat="43.36172312641575" lon="12.481014898660224"><ele>580.0</ele><time>2026-04-21T11:48:51.998Z</time></trkpt><trkpt lat="43.361756826153844" lon="12.480913248298949"><ele>580.0</ele><time>2026-04-21T11:48:52.998Z</time></trkpt><trkpt lat="43.361785396742256" lon="12.48082683198032"><ele>580.0</ele><time>2026-04-21T11:48:53.998Z</time></trkpt><trkpt lat="43.36186001671831" lon="12.48079511899622"><ele>580.0</ele><time>2026-04-21T11:48:54.998Z</time></trkpt><trkpt lat="43.361950238178686" lon="12.480783639418368"><ele>580.0</ele><time>2026-04-21T11:48:55.998Z</time></trkpt><trkpt lat="43.362047758024616" lon="12.480828824643865"><ele>580.0</ele><time>2026-04-21T11:48:56.998Z</time></trkpt><trkpt lat="43.36216407233259" lon="12.480828780874205"><ele>580.0</ele><time>2026-04-21T11:48:57.998Z</time></trkpt><trkpt lat="43.36229453990663" lon="12.48084666297006"><ele>580.0</ele><time>2026-04-21T11:48:58.998Z</time></trkpt><trkpt lat="43.3624267100679" lon="12.480849591171472"><ele>580.0</ele><time>2026-04-21T11:48:59.998Z</time></trkpt><trkpt lat="43.36256104680637" lon="12.480846924438106"><ele>580.4</ele><time>2026-04-21T11:49:00.998Z</time></trkpt><trkpt lat="43.362667478283036" lon="12.480849600889943"><ele>580.8</ele><time>2026-04-21T11:49:01.998Z</time></trkpt><trkpt lat="43.3627539498211" lon="12.480785905542387"><ele>581.2</ele><time>2026-04-21T11:49:02.998Z</time></trkpt><trkpt lat="43.362834776766555" lon="12.48073743146866"><ele>581.6</ele><time>2026-04-21T11:49:03.998Z</time></trkpt><trkpt lat="43.362886803635156" lon="12.4806054082798"><ele>582.0</ele><time>2026-04-21T11:49:04.998Z</time></trkpt><trkpt lat="43.36296480206161" lon="12.480469106625614"><ele>584.25</ele><time>2026-04-21T11:49:05.998Z</time></trkpt><trkpt lat="43.363091367369165" lon="12.480392480257592"><ele>586.5</ele><time>2026-04-21T11:49:06.998Z</time></trkpt><trkpt lat="43.36322678275621" lon="12.480308694410477"><ele>588.75</ele><time>2026-04-21T11:49:07.998Z</time></trkpt><trkpt lat="43.3633724011012" lon="12.480225876573394"><ele>591.0</ele><time>2026-04-21T11:49:08.998Z</time></trkpt><trkpt lat="43.36351001341766" lon="12.480144846882007"><ele>591.0</ele><time>2026-04-21T11:49:09.998Z</time></trkpt><trkpt lat="43.36362852996261" lon="12.480061790543719"><ele>591.0</ele><time>2026-04-21T11:49:10.998Z</time></trkpt><trkpt lat="43.36372193801863" lon="12.479966819943598"><ele>591.0</ele><time>2026-04-21T11:49:11.998Z</time></trkpt><trkpt lat="43.36380027968222" lon="12.479837749751951"><ele>591.0</ele><time>2026-04-21T11:49:12.998Z</time></trkpt><trkpt lat="43.36387996397968" lon="12.479694267445582"><ele>592.75</ele><time>2026-04-21T11:49:13.998Z</time></trkpt><trkpt lat="43.36395971353066" lon="12.479543385904744"><ele>594.5</ele><time>2026-04-21T11:49:14.998Z</time></trkpt><trkpt lat="43.36403875521786" lon="12.479396146715088"><ele>596.25</ele><time>2026-04-21T11:49:15.998Z</time></trkpt><trkpt lat="43.364107864866675" lon="12.47926230102166"><ele>598.0</ele><time>2026-04-21T11:49:16.998Z</time></trkpt><trkpt lat="43.364152733828135" lon="12.479141982979886"><ele>598.0</ele><time>2026-04-21T11:49:17.998Z</time></trkpt><trkpt lat="43.36417111097184" lon="12.479029936503764"><ele>598.0</ele><time>2026-04-21T11:49:18.998Z</time></trkpt><trkpt lat="43.3640993284109" lon="12.47890478863834"><ele>598.0</ele><time>2026-04-21T11:49:19.998Z</time></trkpt><trkpt lat="43.36406301905728" lon="12.478759119296086"><ele>598.0</ele><time>2026-04-21T11:49:20.998Z</time></trkpt><trkpt lat="43.36400937624606" lon="12.478604075686299"><ele>598.0</ele><time>2026-04-21T11:49:21.998Z</time></trkpt><trkpt lat="43.3639474634063" lon="12.478446500871636"><ele>598.0</ele><time>2026-04-21T11:49:22.999Z</time></trkpt><trkpt lat="43.36387041427484" lon="12.478293784064805"><ele>598.0</ele><time>2026-04-21T11:49:23.999Z</time></trkpt><trkpt lat="43.36374842983073" lon="12.478186722152088"><ele>598.0</ele><time>2026-04-21T11:49:24.999Z</time></trkpt><trkpt lat="43.36361635967009" lon="12.478087503564307"><ele>598.0</ele><time>2026-04-21T11:49:25.999Z</time></trkpt><trkpt lat="43.36347901529128" lon="12.478002044952627"><ele>598.3333333333334</ele><time>2026-04-21T11:49:26.999Z</time></trkpt><trkpt lat="43.36334241785381" lon="12.477900520266385"><ele>598.6666666666666</ele><time>2026-04-21T11:49:27.999Z</time></trkpt><trkpt lat="43.36319962279098" lon="12.477814074286373"><ele>599.0</ele><time>2026-04-21T11:49:28.999Z</time></trkpt><trkpt lat="43.363053369925545" lon="12.477725748229888"><ele>602.0</ele><time>2026-04-21T11:49:29.999Z</time></trkpt><trkpt lat="43.36289657769611" lon="12.477628825542082"><ele>605.0</ele><time>2026-04-21T11:49:30.999Z</time></trkpt><trkpt lat="43.36273854076274" lon="12.477530906272206"><ele>608.0</ele><time>2026-04-21T11:49:31.999Z</time></trkpt><trkpt lat="43.36257683406595" lon="12.477430713197336"><ele>608.0</ele><time>2026-04-21T11:49:32.999Z</time></trkpt><trkpt lat="43.36241427261718" lon="12.477329989929466"><ele>608.0</ele><time>2026-04-21T11:49:33.999Z</time></trkpt><trkpt lat="43.36225111058996" lon="12.477264778741603"><ele>608.0</ele><time>2026-04-21T11:49:34.999Z</time></trkpt><trkpt lat="43.36209137962785" lon="12.477186941514047"><ele>609.3333333333333</ele><time>2026-04-21T11:49:35.999Z</time></trkpt><trkpt lat="43.36193373781634" lon="12.477121388145282"><ele>610.6666666666666</ele><time>2026-04-21T11:49:37Z</time></trkpt><trkpt lat="43.3617680494433" lon="12.477058261909614"><ele>612.0</ele><time>2026-04-21T11:49:38Z</time></trkpt><trkpt lat="43.361611459927445" lon="12.477001228966405"><ele>612.0</ele><time>2026-04-21T11:49:39Z</time></trkpt><trkpt lat="43.36137256267424" lon="12.476835785540692"><ele>612.0</ele><time>2026-04-21T11:49:41Z</time></trkpt><trkpt lat="43.36128618769171" lon="12.476695337275038"><ele>612.0</ele><time>2026-04-21T11:49:42Z</time></trkpt><trkpt lat="43.36118007289681" lon="12.476561287202944"><ele>616.0</ele><time>2026-04-21T11:49:43Z</time></trkpt><trkpt lat="43.361052466122935" lon="12.476446766355519"><ele>620.0</ele><time>2026-04-21T11:49:44Z</time></trkpt><trkpt lat="43.36093050902443" lon="12.47633388703037"><ele>624.0</ele><time>2026-04-21T11:49:45Z</time></trkpt><trkpt lat="43.36079294032335" lon="12.476237393159732"><ele>624.0</ele><time>2026-04-21T11:49:46Z</time></trkpt><trkpt lat="43.36064893537456" lon="12.476141067812494"><ele>624.0</ele><time>2026-04-21T11:49:47Z</time></trkpt><trkpt lat="43.360510987454596" lon="12.476047805987054"><ele>624.0</ele><time>2026-04-21T11:49:48Z</time></trkpt><trkpt lat="43.36041987075607" lon="12.475929486794572"><ele>624.0</ele><time>2026-04-21T11:49:49Z</time></trkpt><trkpt lat="43.36036281058876" lon="12.475805719161922"><ele>626.75</ele><time>2026-04-21T11:49:50Z</time></trkpt><trkpt lat="43.36032990700482" lon="12.475664112818588"><ele>629.5</ele><time>2026-04-21T11:49:51Z</time></trkpt><trkpt lat="43.36027645699923" lon="12.475500974812975"><ele>632.25</ele><time>2026-04-21T11:49:52Z</time></trkpt><trkpt lat="43.360208155334675" lon="12.475336450787083"><ele>635.0</ele><time>2026-04-21T11:49:53Z</time></trkpt><trkpt lat="43.36010657339887" lon="12.475202241739188"><ele>635.5</ele><time>2026-04-21T11:49:54Z</time></trkpt><trkpt lat="43.36003988210829" lon="12.475052059787243"><ele>636.0</ele><time>2026-04-21T11:49:55Z</time></trkpt><trkpt lat="43.35998373258163" lon="12.474901479820403"><ele>636.5</ele><time>2026-04-21T11:49:56Z</time></trkpt><trkpt lat="43.359950995382725" lon="12.474735292297474"><ele>637.0</ele><time>2026-04-21T11:49:57Z</time></trkpt><trkpt lat="43.359912802361606" lon="12.474567088156295"><ele>639.25</ele><time>2026-04-21T11:49:58Z</time></trkpt><trkpt lat="43.359877021719925" lon="12.474404382966016"><ele>641.5</ele><time>2026-04-21T11:49:59Z</time></trkpt><trkpt lat="43.35984620530712" lon="12.474248552736636"><ele>643.75</ele><time>2026-04-21T11:50:00Z</time></trkpt><trkpt lat="43.35981984870702" lon="12.474096187281424"><ele>646.0</ele><time>2026-04-21T11:50:01Z</time></trkpt><trkpt lat="43.35980511631937" lon="12.473955095889606"><ele>646.0</ele><time>2026-04-21T11:50:02Z</time></trkpt><trkpt lat="43.359771727852774" lon="12.473833739561966"><ele>646.0</ele><time>2026-04-21T11:50:03Z</time></trkpt><trkpt lat="43.359765260197236" lon="12.473731233185902"><ele>646.0</ele><time>2026-04-21T11:50:04Z</time></trkpt><trkpt lat="43.359714964243416" lon="12.473652758848566"><ele>646.0</ele><time>2026-04-21T11:50:05Z</time></trkpt><trkpt lat="43.359612770825365" lon="12.47362556995802"><ele>646.0</ele><time>2026-04-21T11:50:06Z</time></trkpt><trkpt lat="43.35952508123411" lon="12.473601493541327"><ele>646.0</ele><time>2026-04-21T11:50:07Z</time></trkpt><trkpt lat="43.359417922132074" lon="12.47359387279466"><ele>647.0</ele><time>2026-04-21T11:50:08Z</time></trkpt><trkpt lat="43.35929916508583" lon="12.473609222237899"><ele>648.0</ele><time>2026-04-21T11:50:09Z</time></trkpt><trkpt lat="43.35917130779048" lon="12.473633165556407"><ele>649.0</ele><time>2026-04-21T11:50:10Z</time></trkpt><trkpt lat="43.35904349367767" lon="12.473646038134252"><ele>650.0</ele><time>2026-04-21T11:50:11Z</time></trkpt><trkpt lat="43.358903392611936" lon="12.47365639135007"><ele>651.75</ele><time>2026-04-21T11:50:12Z</time></trkpt><trkpt lat="43.35876168726672" lon="12.473653685794542"><ele>653.5</ele><time>2026-04-21T11:50:13Z</time></trkpt><trkpt lat="43.3586130274078" lon="12.473651089388198"><ele>655.25</ele><time>2026-04-21T11:50:14Z</time></trkpt><trkpt lat="43.3584545404532" lon="12.473652922218326"><ele>657.0</ele><time>2026-04-21T11:50:15Z</time></trkpt><trkpt lat="43.35829664370031" lon="12.473651220313716"><ele>657.0</ele><time>2026-04-21T11:50:16Z</time></trkpt><trkpt lat="43.35812708517404" lon="12.473655925116066"><ele>657.0</ele><time>2026-04-21T11:50:17Z</time></trkpt><trkpt lat="43.357958221694304" lon="12.473652976021175"><ele>657.0</ele><time>2026-04-21T11:50:18Z</time></trkpt><trkpt lat="43.357798400965564" lon="12.473654047470648"><ele>657.75</ele><time>2026-04-21T11:50:19Z</time></trkpt><trkpt lat="43.35765786744109" lon="12.47364657801649"><ele>658.5</ele><time>2026-04-21T11:50:20Z</time></trkpt><trkpt lat="43.35752831261295" lon="12.47361972913108"><ele>659.25</ele><time>2026-04-21T11:50:21Z</time></trkpt><trkpt lat="43.357403695224114" lon="12.473576770017779"><ele>660.0</ele><time>2026-04-21T11:50:22Z</time></trkpt><trkpt lat="43.35726852711421" lon="12.473517529584438"><ele>658.3333333333334</ele><time>2026-04-21T11:50:23Z</time></trkpt><trkpt lat="43.357126651751344" lon="12.473452569980646"><ele>656.6666666666667</ele><time>2026-04-21T11:50:24Z</time></trkpt><trkpt lat="43.35697906074592" lon="12.473373706692305"><ele>655.0</ele><time>2026-04-21T11:50:25Z</time></trkpt><trkpt lat="43.35682708524253" lon="12.473281492166151"><ele>655.0</ele><time>2026-04-21T11:50:26Z</time></trkpt><trkpt lat="43.35667006593476" lon="12.473187709951445"><ele>655.0</ele><time>2026-04-21T11:50:27Z</time></trkpt><trkpt lat="43.35651281804855" lon="12.473093363690364"><ele>655.0</ele><time>2026-04-21T11:50:28Z</time></trkpt><trkpt lat="43.356364466247484" lon="12.47300602020921"><ele>655.25</ele><time>2026-04-21T11:50:29Z</time></trkpt><trkpt lat="43.35621905340034" lon="12.472926372678357"><ele>655.5</ele><time>2026-04-21T11:50:30Z</time></trkpt><trkpt lat="43.35608611461525" lon="12.472855254352181"><ele>655.75</ele><time>2026-04-21T11:50:31Z</time></trkpt><trkpt lat="43.35596296641975" lon="12.472774037836167"><ele>656.0</ele><time>2026-04-21T11:50:32Z</time></trkpt><trkpt lat="43.355849865329205" lon="12.47273104679342"><ele>656.0</ele><time>2026-04-21T11:50:33Z</time></trkpt><trkpt lat="43.35573056512132" lon="12.472772540154574"><ele>656.0</ele><time>2026-04-21T11:50:34Z</time></trkpt><trkpt lat="43.35561408665662" lon="12.472806745917223"><ele>656.0</ele><time>2026-04-21T11:50:35Z</time></trkpt><trkpt lat="43.35548467857918" lon="12.472854306683992"><ele>656.0</ele><time>2026-04-21T11:50:36Z</time></trkpt><trkpt lat="43.35522378709154" lon="12.472953569455655"><ele>650.5</ele><time>2026-04-21T11:50:38Z</time></trkpt><trkpt lat="43.35509817405676" lon="12.473006646831111"><ele>645.0</ele><time>2026-04-21T11:50:39Z</time></trkpt><trkpt lat="43.35497359196968" lon="12.473055694562236"><ele>639.5</ele><time>2026-04-21T11:50:40Z</time></trkpt><trkpt lat="43.35484860265731" lon="12.473086701368464"><ele>634.0</ele><time>2026-04-21T11:50:41Z</time></trkpt><trkpt lat="43.35472451536273" lon="12.473098195118025"><ele>631.25</ele><time>2026-04-21T11:50:42Z</time></trkpt><trkpt lat="43.354603381421775" lon="12.473084674106959"><ele>628.5</ele><time>2026-04-21T11:50:43Z</time></trkpt><trkpt lat="43.35448126631011" lon="12.473053740965351"><ele>625.75</ele><time>2026-04-21T11:50:44Z</time></trkpt><trkpt lat="43.35435785533123" lon="12.473021780039765"><ele>623.0</ele><time>2026-04-21T11:50:45Z</time></trkpt><trkpt lat="43.354223999734515" lon="12.473025577060872"><ele>623.0</ele><time>2026-04-21T11:50:46Z</time></trkpt><trkpt lat="43.35408726763882" lon="12.473051374920088"><ele>623.0</ele><time>2026-04-21T11:50:47Z</time></trkpt><trkpt lat="43.35395033392215" lon="12.47308598100035"><ele>623.0</ele><time>2026-04-21T11:50:48Z</time></trkpt><trkpt lat="43.35381002592674" lon="12.4731203213334"><ele>623.0</ele><time>2026-04-21T11:50:49Z</time></trkpt><trkpt lat="43.35366908743073" lon="12.47314854171399"><ele>620.75</ele><time>2026-04-21T11:50:50Z</time></trkpt><trkpt lat="43.35352719419923" lon="12.473190067199825"><ele>618.5</ele><time>2026-04-21T11:50:51Z</time></trkpt><trkpt lat="43.35340404937699" lon="12.47327149414422"><ele>616.25</ele><time>2026-04-21T11:50:51.999Z</time></trkpt><trkpt lat="43.35328589396502" lon="12.473344868567294"><ele>614.0</ele><time>2026-04-21T11:50:52.999Z</time></trkpt><trkpt lat="43.353175072311345" lon="12.47343079051483"><ele>614.0</ele><time>2026-04-21T11:50:53.999Z</time></trkpt><trkpt lat="43.35305667586513" lon="12.473529711462726"><ele>614.0</ele><time>2026-04-21T11:50:54.999Z</time></trkpt><trkpt lat="43.35293059015931" lon="12.473624346592453"><ele>614.0</ele><time>2026-04-21T11:50:55.999Z</time></trkpt><trkpt lat="43.35280031371578" lon="12.473720730054362"><ele>614.0</ele><time>2026-04-21T11:50:56.999Z</time></trkpt><trkpt lat="43.35266488477578" lon="12.473823904009649"><ele>616.0</ele><time>2026-04-21T11:50:57.999Z</time></trkpt><trkpt lat="43.352531964066806" lon="12.473916867132099"><ele>618.0</ele><time>2026-04-21T11:50:58.999Z</time></trkpt><trkpt lat="43.35239531924677" lon="12.474038961022973"><ele>620.0</ele><time>2026-04-21T11:50:59.999Z</time></trkpt><trkpt lat="43.352254034401" lon="12.474120057395403"><ele>621.75</ele><time>2026-04-21T11:51:00.999Z</time></trkpt><trkpt lat="43.35213040400083" lon="12.474212082663925"><ele>623.5</ele><time>2026-04-21T11:51:01.999Z</time></trkpt><trkpt lat="43.351998190041385" lon="12.474306091819754"><ele>625.25</ele><time>2026-04-21T11:51:02.999Z</time></trkpt><trkpt lat="43.35187413224234" lon="12.474393036105505"><ele>627.0</ele><time>2026-04-21T11:51:03.999Z</time></trkpt><trkpt lat="43.35175828528996" lon="12.474474219130663"><ele>627.0</ele><time>2026-04-21T11:51:04.999Z</time></trkpt><trkpt lat="43.351643485715904" lon="12.47455458935116"><ele>627.0</ele><time>2026-04-21T11:51:05.999Z</time></trkpt><trkpt lat="43.35152629454936" lon="12.474637246888072"><ele>627.0</ele><time>2026-04-21T11:51:06.999Z</time></trkpt><trkpt lat="43.35140769260934" lon="12.47472521532201"><ele>627.0</ele><time>2026-04-21T11:51:07.999Z</time></trkpt><trkpt lat="43.351286748126284" lon="12.474819269038013"><ele>627.3333333333334</ele><time>2026-04-21T11:51:08.999Z</time></trkpt><trkpt lat="43.35116389650831" lon="12.474940729629198"><ele>627.6666666666667</ele><time>2026-04-21T11:51:09.999Z</time></trkpt><trkpt lat="43.351066492416734" lon="12.475101089659393"><ele>628.0</ele><time>2026-04-21T11:51:10.999Z</time></trkpt><trkpt lat="43.35097187109841" lon="12.475264232810993"><ele>628.0</ele><time>2026-04-21T11:51:11.999Z</time></trkpt><trkpt lat="43.35089082243954" lon="12.475411471205822"><ele>628.0</ele><time>2026-04-21T11:51:12.999Z</time></trkpt><trkpt lat="43.35080621068298" lon="12.475522700799685"><ele>628.0</ele><time>2026-04-21T11:51:13.999Z</time></trkpt><trkpt lat="43.3507298169249" lon="12.475631904500998"><ele>628.0</ele><time>2026-04-21T11:51:14.999Z</time></trkpt><trkpt lat="43.35065492259608" lon="12.475714342740902"><ele>628.1999999999999</ele><time>2026-04-21T11:51:15.999Z</time></trkpt><trkpt lat="43.350579016702355" lon="12.47573592056139"><ele>628.4</ele><time>2026-04-21T11:51:16.999Z</time></trkpt><trkpt lat="43.35049448931643" lon="12.475742409923972"><ele>628.5999999999999</ele><time>2026-04-21T11:51:17.999Z</time></trkpt><trkpt lat="43.35040286487916" lon="12.475708461019451"><ele>628.8</ele><time>2026-04-21T11:51:18.999Z</time></trkpt><trkpt lat="43.35031042345388" lon="12.475664817437472"><ele>629.0</ele><time>2026-04-21T11:51:19.999Z</time></trkpt><trkpt lat="43.35019975839902" lon="12.475610840279197"><ele>631.0</ele><time>2026-04-21T11:51:20.999Z</time></trkpt><trkpt lat="43.350086047448265" lon="12.475547292157353"><ele>633.0</ele><time>2026-04-21T11:51:21.999Z</time></trkpt><trkpt lat="43.349974678215936" lon="12.475507217640542"><ele>635.0</ele><time>2026-04-21T11:51:22.999Z</time></trkpt><trkpt lat="43.34987972887109" lon="12.47550092445082"><ele>637.0</ele><time>2026-04-21T11:51:23.999Z</time></trkpt><trkpt lat="43.34979257784459" lon="12.475543630246648"><ele>639.0</ele><time>2026-04-21T11:51:24.999Z</time></trkpt><trkpt lat="43.34972104555433" lon="12.475633855908487"><ele>638.4</ele><time>2026-04-21T11:51:25.999Z</time></trkpt><trkpt lat="43.34962404156202" lon="12.475685167457035"><ele>637.8</ele><time>2026-04-21T11:51:26.999Z</time></trkpt><trkpt lat="43.34952382016598" lon="12.475757043676856"><ele>637.2</ele><time>2026-04-21T11:51:28Z</time></trkpt><trkpt lat="43.34942207163524" lon="12.475791097190708"><ele>636.6</ele><time>2026-04-21T11:51:29Z</time></trkpt><trkpt lat="43.34931990758226" lon="12.475794883794688"><ele>636.0</ele><time>2026-04-21T11:51:30Z</time></trkpt><trkpt lat="43.34921946668264" lon="12.475772079866475"><ele>636.0</ele><time>2026-04-21T11:51:31Z</time></trkpt><trkpt lat="43.349124089730395" lon="12.475712626721148"><ele>636.0</ele><time>2026-04-21T11:51:32Z</time></trkpt><trkpt lat="43.349018289139885" lon="12.475636921137351"><ele>636.0</ele><time>2026-04-21T11:51:33Z</time></trkpt><trkpt lat="43.34891452764057" lon="12.475550710259789"><ele>636.0</ele><time>2026-04-21T11:51:34Z</time></trkpt><trkpt lat="43.34880973040555" lon="12.475485545521739"><ele>635.0</ele><time>2026-04-21T11:51:35Z</time></trkpt><trkpt lat="43.34870887072422" lon="12.475439191127869"><ele>634.0</ele><time>2026-04-21T11:51:36Z</time></trkpt><trkpt lat="43.34860150074594" lon="12.475444737548171"><ele>633.0</ele><time>2026-04-21T11:51:37Z</time></trkpt><trkpt lat="43.348511768038996" lon="12.475440413792173"><ele>632.0</ele><time>2026-04-21T11:51:38Z</time></trkpt><trkpt lat="43.34842610263521" lon="12.47547105093866"><ele>631.0</ele><time>2026-04-21T11:51:39Z</time></trkpt><trkpt lat="43.348334609285125" lon="12.475507024536872"><ele>631.0</ele><time>2026-04-21T11:51:40Z</time></trkpt><trkpt lat="43.34824091709633" lon="12.475574072707248"><ele>631.0</ele><time>2026-04-21T11:51:41Z</time></trkpt><trkpt lat="43.348144054495776" lon="12.4756725305897"><ele>631.0</ele><time>2026-04-21T11:51:42Z</time></trkpt><trkpt lat="43.3480252899363" lon="12.47577156396047"><ele>631.0</ele><time>2026-04-21T11:51:43Z</time></trkpt><trkpt lat="43.34790868949046" lon="12.475879356890713"><ele>629.5</ele><time>2026-04-21T11:51:44Z</time></trkpt><trkpt lat="43.34780134464202" lon="12.475983964591002"><ele>628.0</ele><time>2026-04-21T11:51:45Z</time></trkpt><trkpt lat="43.347692205668494" lon="12.476092268742033"><ele>626.5</ele><time>2026-04-21T11:51:46Z</time></trkpt><trkpt lat="43.34756924513424" lon="12.476178617484404"><ele>625.0</ele><time>2026-04-21T11:51:47Z</time></trkpt><trkpt lat="43.347448151775026" lon="12.476271393229432"><ele>625.0</ele><time>2026-04-21T11:51:48Z</time></trkpt><trkpt lat="43.34732426221244" lon="12.47635494432059"><ele>625.0</ele><time>2026-04-21T11:51:49Z</time></trkpt><trkpt lat="43.34719469691069" lon="12.476441782422127"><ele>625.0</ele><time>2026-04-21T11:51:50Z</time></trkpt><trkpt lat="43.347067319098336" lon="12.476533062981446"><ele>625.0</ele><time>2026-04-21T11:51:51Z</time></trkpt><trkpt lat="43.34695006055302" lon="12.47661951963658"><ele>625.0</ele><time>2026-04-21T11:51:52Z</time></trkpt><trkpt lat="43.346833690567145" lon="12.47670931412687"><ele>625.0</ele><time>2026-04-21T11:51:53Z</time></trkpt><trkpt lat="43.34673055821769" lon="12.476799934188518"><ele>625.0</ele><time>2026-04-21T11:51:54Z</time></trkpt><trkpt lat="43.34665428453102" lon="12.476915157513998"><ele>625.0</ele><time>2026-04-21T11:51:55Z</time></trkpt><trkpt lat="43.346581528617406" lon="12.476997080892533"><ele>625.0</ele><time>2026-04-21T11:51:56Z</time></trkpt><trkpt lat="43.34653614146832" lon="12.47708150850299"><ele>625.0</ele><time>2026-04-21T11:51:57Z</time></trkpt><trkpt lat="43.346512537471575" lon="12.477191716387631"><ele>625.0</ele><time>2026-04-21T11:51:58Z</time></trkpt><trkpt lat="43.34650152470927" lon="12.477338876047796"><ele>625.0</ele><time>2026-04-21T11:51:59Z</time></trkpt><trkpt lat="43.346510981417005" lon="12.477521849712256"><ele>625.0</ele><time>2026-04-21T11:52:00Z</time></trkpt><trkpt lat="43.34651488293712" lon="12.477717612494972"><ele>625.75</ele><time>2026-04-21T11:52:01Z</time></trkpt><trkpt lat="43.346511901736974" lon="12.47791602172444"><ele>626.5</ele><time>2026-04-21T11:52:02Z</time></trkpt><trkpt lat="43.34650475305715" lon="12.478095172430447"><ele>627.25</ele><time>2026-04-21T11:52:03Z</time></trkpt><trkpt lat="43.34649569413988" lon="12.47825448052068"><ele>628.0</ele><time>2026-04-21T11:52:04Z</time></trkpt><trkpt lat="43.346494571430675" lon="12.47841588640949"><ele>628.0</ele><time>2026-04-21T11:52:05Z</time></trkpt><trkpt lat="43.34649742530093" lon="12.478593615416862"><ele>628.0</ele><time>2026-04-21T11:52:06Z</time></trkpt><trkpt lat="43.346493968185506" lon="12.478787237962234"><ele>628.0</ele><time>2026-04-21T11:52:07Z</time></trkpt><trkpt lat="43.346462520866154" lon="12.478971387291027"><ele>628.0</ele><time>2026-04-21T11:52:08Z</time></trkpt><trkpt lat="43.34641263314807" lon="12.47918411698776"><ele>627.0</ele><time>2026-04-21T11:52:09Z</time></trkpt><trkpt lat="43.34633748004068" lon="12.479381215743327"><ele>626.0</ele><time>2026-04-21T11:52:10Z</time></trkpt><trkpt lat="43.34629551994161" lon="12.479591741904686"><ele>625.0</ele><time>2026-04-21T11:52:11Z</time></trkpt><trkpt lat="43.34623371397952" lon="12.479806245739772"><ele>625.0</ele><time>2026-04-21T11:52:12Z</time></trkpt><trkpt lat="43.346182346269806" lon="12.480027890297091"><ele>625.0</ele><time>2026-04-21T11:52:13Z</time></trkpt><trkpt lat="43.3461354128265" lon="12.480237936555381"><ele>625.0</ele><time>2026-04-21T11:52:14Z</time></trkpt><trkpt lat="43.346094490204834" lon="12.480438634835958"><ele>626.5</ele><time>2026-04-21T11:52:15Z</time></trkpt><trkpt lat="43.34605929830315" lon="12.480611225504504"><ele>628.0</ele><time>2026-04-21T11:52:16Z</time></trkpt><trkpt lat="43.3460212996881" lon="12.480780421152666"><ele>629.5</ele><time>2026-04-21T11:52:17Z</time></trkpt><trkpt lat="43.345979302908844" lon="12.480935923033192"><ele>631.0</ele><time>2026-04-21T11:52:18Z</time></trkpt><trkpt lat="43.34593057928798" lon="12.481074817070109"><ele>631.0</ele><time>2026-04-21T11:52:19Z</time></trkpt><trkpt lat="43.34587069682134" lon="12.48120396018257"><ele>631.0</ele><time>2026-04-21T11:52:20Z</time></trkpt><trkpt lat="43.34581112412616" lon="12.481312013281928"><ele>631.0</ele><time>2026-04-21T11:52:21Z</time></trkpt><trkpt lat="43.34573893867411" lon="12.481419419449947"><ele>631.0</ele><time>2026-04-21T11:52:22Z</time></trkpt><trkpt lat="43.34567425884202" lon="12.48151493602067"><ele>631.0</ele><time>2026-04-21T11:52:23Z</time></trkpt><trkpt lat="43.34561861705572" lon="12.481606617557755"><ele>631.4</ele><time>2026-04-21T11:52:24Z</time></trkpt><trkpt lat="43.345552973580894" lon="12.481717374804703"><ele>631.8</ele><time>2026-04-21T11:52:25Z</time></trkpt><trkpt lat="43.345481423027856" lon="12.481843773876143"><ele>632.1999999999999</ele><time>2026-04-21T11:52:26Z</time></trkpt><trkpt lat="43.345385618003235" lon="12.481927746442942"><ele>632.6</ele><time>2026-04-21T11:52:27Z</time></trkpt><trkpt lat="43.3452960291121" lon="12.482007611446504"><ele>633.0</ele><time>2026-04-21T11:52:28Z</time></trkpt><trkpt lat="43.345208083535056" lon="12.482070215948557"><ele>636.5</ele><time>2026-04-21T11:52:29Z</time></trkpt><trkpt lat="43.345107388067554" lon="12.482103476998681"><ele>640.0</ele><time>2026-04-21T11:52:30Z</time></trkpt><trkpt lat="43.344979047714816" lon="12.48214134526704"><ele>643.5</ele><time>2026-04-21T11:52:31Z</time></trkpt><trkpt lat="43.34485708468551" lon="12.48217723971225"><ele>647.0</ele><time>2026-04-21T11:52:32Z</time></trkpt><trkpt lat="43.34473310393057" lon="12.482227084637323"><ele>649.2</ele><time>2026-04-21T11:52:33Z</time></trkpt><trkpt lat="43.34462930732579" lon="12.48227514080364"><ele>651.4000000000001</ele><time>2026-04-21T11:52:34Z</time></trkpt><trkpt lat="43.34453605137922" lon="12.482331129387886"><ele>653.5999999999999</ele><time>2026-04-21T11:52:35Z</time></trkpt><trkpt lat="43.34444498235419" lon="12.48241753761227"><ele>655.8</ele><time>2026-04-21T11:52:36Z</time></trkpt><trkpt lat="43.344362468994134" lon="12.482536087588457"><ele>658.0</ele><time>2026-04-21T11:52:37Z</time></trkpt><trkpt lat="43.34425888319234" lon="12.482604927568252"><ele>658.0</ele><time>2026-04-21T11:52:38Z</time></trkpt><trkpt lat="43.344162785107464" lon="12.482671212646972"><ele>658.0</ele><time>2026-04-21T11:52:39Z</time></trkpt><trkpt lat="43.3440718600517" lon="12.482718755668504"><ele>658.0</ele><time>2026-04-21T11:52:40Z</time></trkpt><trkpt lat="43.34399938092527" lon="12.482748257930353"><ele>658.0</ele><time>2026-04-21T11:52:41Z</time></trkpt><trkpt lat="43.34393821927654" lon="12.48277361832818"><ele>658.0</ele><time>2026-04-21T11:52:41.999Z</time></trkpt><trkpt lat="43.34381277487452" lon="12.482797328792309"><ele>660.0</ele><time>2026-04-21T11:52:43.999Z</time></trkpt><trkpt lat="43.343685092785975" lon="12.482782471429433"><ele>662.0</ele><time>2026-04-21T11:52:45.999Z</time></trkpt><trkpt lat="43.34359993422216" lon="12.482758359884373"><ele>664.0</ele><time>2026-04-21T11:52:46.999Z</time></trkpt><trkpt lat="43.34350574987762" lon="12.482713675710922"><ele>666.0</ele><time>2026-04-21T11:52:47.999Z</time></trkpt><trkpt lat="43.343395440432786" lon="12.482688148262215"><ele>668.0</ele><time>2026-04-21T11:52:48.999Z</time></trkpt><trkpt lat="43.343311519068685" lon="12.482652271980195"><ele>668.0</ele><time>2026-04-21T11:52:49.999Z</time></trkpt><trkpt lat="43.34323985153097" lon="12.482664467730617"><ele>668.0</ele><time>2026-04-21T11:52:50.999Z</time></trkpt><trkpt lat="43.34315395883371" lon="12.482657377950694"><ele>668.0</ele><time>2026-04-21T11:52:51.999Z</time></trkpt><trkpt lat="43.3430315652067" lon="12.48266868782494"><ele>668.0</ele><time>2026-04-21T11:52:52.999Z</time></trkpt><trkpt lat="43.34292008835882" lon="12.482667258769506"><ele>668.0</ele><time>2026-04-21T11:52:53.999Z</time></trkpt><trkpt lat="43.342827900825725" lon="12.482636112944073"><ele>670.0</ele><time>2026-04-21T11:52:54.999Z</time></trkpt><trkpt lat="43.342739527315814" lon="12.482606458319994"><ele>672.0</ele><time>2026-04-21T11:52:55.999Z</time></trkpt><trkpt lat="43.34259904406032" lon="12.48260716052347"><ele>674.0</ele><time>2026-04-21T11:52:57.999Z</time></trkpt><trkpt lat="43.3424997139576" lon="12.482674977760572"><ele>676.0</ele><time>2026-04-21T11:52:59.999Z</time></trkpt><trkpt lat="43.34245348396904" lon="12.482747665512724"><ele>678.0</ele><time>2026-04-21T11:53:00.999Z</time></trkpt><trkpt lat="43.34242518917391" lon="12.48283039902403"><ele>679.4</ele><time>2026-04-21T11:53:01.999Z</time></trkpt><trkpt lat="43.34237167094975" lon="12.482945242318904"><ele>680.8</ele><time>2026-04-21T11:53:03.999Z</time></trkpt><trkpt lat="43.34242291784699" lon="12.48311012998279"><ele>682.2</ele><time>2026-04-21T11:53:04.999Z</time></trkpt><trkpt lat="43.342402035586524" lon="12.483249926738711"><ele>683.6</ele><time>2026-04-21T11:53:05.999Z</time></trkpt><trkpt lat="43.34237141877141" lon="12.483376532241323"><ele>685.0</ele><time>2026-04-21T11:53:06.999Z</time></trkpt><trkpt lat="43.34232640980573" lon="12.48349769293452"><ele>685.0</ele><time>2026-04-21T11:53:07.999Z</time></trkpt><trkpt lat="43.34226906572534" lon="12.48361225466071"><ele>685.0</ele><time>2026-04-21T11:53:08.999Z</time></trkpt><trkpt lat="43.34219871098567" lon="12.483729059209454"><ele>685.0</ele><time>2026-04-21T11:53:09.999Z</time></trkpt><trkpt lat="43.3421273037983" lon="12.483842192565005"><ele>685.0</ele><time>2026-04-21T11:53:10.999Z</time></trkpt><trkpt lat="43.342054538618235" lon="12.483941084020898"><ele>685.0</ele><time>2026-04-21T11:53:11.999Z</time></trkpt><trkpt lat="43.34196987913259" lon="12.484006193470904"><ele>682.25</ele><time>2026-04-21T11:53:12.999Z</time></trkpt><trkpt lat="43.34187856457796" lon="12.484078920763272"><ele>679.5</ele><time>2026-04-21T11:53:13.999Z</time></trkpt><trkpt lat="43.341777070933624" lon="12.48413427650683"><ele>676.75</ele><time>2026-04-21T11:53:14.999Z</time></trkpt><trkpt lat="43.34155755696363" lon="12.484227485166276"><ele>674.0</ele><time>2026-04-21T11:53:16.999Z</time></trkpt><trkpt lat="43.34142353549559" lon="12.48423233972966"><ele>672.0</ele><time>2026-04-21T11:53:17.999Z</time></trkpt><trkpt lat="43.34131779961152" lon="12.484251011486698"><ele>670.0</ele><time>2026-04-21T11:53:18.999Z</time></trkpt><trkpt lat="43.34109806375869" lon="12.484318032696017"><ele>668.0</ele><time>2026-04-21T11:53:20.999Z</time></trkpt><trkpt lat="43.34095675506676" lon="12.484412592145754"><ele>668.0</ele><time>2026-04-21T11:53:21.999Z</time></trkpt><trkpt lat="43.340895681595114" lon="12.484438063518146"><ele>668.0</ele><time>2026-04-21T11:53:22.999Z</time></trkpt><trkpt lat="43.34083043656421" lon="12.484432988978872"><ele>668.0</ele><time>2026-04-21T11:53:23.999Z</time></trkpt><trkpt lat="43.340760785620944" lon="12.484446949088175"><ele>668.0</ele><time>2026-04-21T11:53:24.999Z</time></trkpt><trkpt lat="43.34067322280478" lon="12.484466577736086"><ele>668.0</ele><time>2026-04-21T11:53:25.999Z</time></trkpt><trkpt lat="43.34050138948348" lon="12.484532713445763"><ele>667.2</ele><time>2026-04-21T11:53:27.999Z</time></trkpt><trkpt lat="43.34037236402503" lon="12.48460464705188"><ele>666.4</ele><time>2026-04-21T11:53:28.999Z</time></trkpt><trkpt lat="43.34028085217592" lon="12.484670846601817"><ele>665.6</ele><time>2026-04-21T11:53:29.999Z</time></trkpt><trkpt lat="43.34019817337448" lon="12.484690819050051"><ele>664.8000000000001</ele><time>2026-04-21T11:53:30.999Z</time></trkpt><trkpt lat="43.3401193868706" lon="12.484705810171631"><ele>664.0</ele><time>2026-04-21T11:53:31.999Z</time></trkpt><trkpt lat="43.34002669001593" lon="12.4847121788812"><ele>664.0</ele><time>2026-04-21T11:53:32.999Z</time></trkpt><trkpt lat="43.339929514428704" lon="12.484696524832158"><ele>664.0</ele><time>2026-04-21T11:53:34Z</time></trkpt><trkpt lat="43.339827552071114" lon="12.484681652626973"><ele>664.0</ele><time>2026-04-21T11:53:35Z</time></trkpt><trkpt lat="43.339717684045894" lon="12.484701905921206"><ele>664.0</ele><time>2026-04-21T11:53:36Z</time></trkpt><trkpt lat="43.33960818883204" lon="12.48474807728998"><ele>664.0</ele><time>2026-04-21T11:53:37Z</time></trkpt><trkpt lat="43.33949971886279" lon="12.484755640070738"><ele>665.0</ele><time>2026-04-21T11:53:38Z</time></trkpt><trkpt lat="43.33941052365125" lon="12.484800831684833"><ele>666.0</ele><time>2026-04-21T11:53:39Z</time></trkpt><trkpt lat="43.33935669030794" lon="12.484880952991766"><ele>667.0</ele><time>2026-04-21T11:53:40Z</time></trkpt><trkpt lat="43.33930177221632" lon="12.48495242062617"><ele>668.0</ele><time>2026-04-21T11:53:41Z</time></trkpt><trkpt lat="43.339219482683205" lon="12.485041913430203"><ele>669.0</ele><time>2026-04-21T11:53:42Z</time></trkpt><trkpt lat="43.33913699252365" lon="12.485148682969728"><ele>669.0</ele><time>2026-04-21T11:53:43Z</time></trkpt><trkpt lat="43.339052380278915" lon="12.485255596608912"><ele>669.0</ele><time>2026-04-21T11:53:44Z</time></trkpt><trkpt lat="43.33896421910648" lon="12.485361629041288"><ele>669.0</ele><time>2026-04-21T11:53:45Z</time></trkpt><trkpt lat="43.338878602179044" lon="12.485459779234482"><ele>669.0</ele><time>2026-04-21T11:53:46Z</time></trkpt><trkpt lat="43.33879905854843" lon="12.485548615037033"><ele>669.0</ele><time>2026-04-21T11:53:47Z</time></trkpt><trkpt lat="43.33871697685596" lon="12.485609388861503"><ele>669.4000000000001</ele><time>2026-04-21T11:53:48Z</time></trkpt><trkpt lat="43.338642724321495" lon="12.485650851432677"><ele>669.8</ele><time>2026-04-21T11:53:49Z</time></trkpt><trkpt lat="43.338561627647024" lon="12.485696043934034"><ele>670.2</ele><time>2026-04-21T11:53:50Z</time></trkpt><trkpt lat="43.33846747886017" lon="12.485748490900015"><ele>670.5999999999999</ele><time>2026-04-21T11:53:51Z</time></trkpt><trkpt lat="43.33836925937512" lon="12.485803971742804"><ele>671.0</ele><time>2026-04-21T11:53:52Z</time></trkpt><trkpt lat="43.33826259818114" lon="12.485871034392707"><ele>671.0</ele><time>2026-04-21T11:53:53Z</time></trkpt><trkpt lat="43.33815768082133" lon="12.485938815667952"><ele>671.0</ele><time>2026-04-21T11:53:54Z</time></trkpt><trkpt lat="43.33807342481912" lon="12.485993743238152"><ele>671.0</ele><time>2026-04-21T11:53:55Z</time></trkpt><trkpt lat="43.33799559000995" lon="12.486028453921925"><ele>671.0</ele><time>2026-04-21T11:53:56Z</time></trkpt><trkpt lat="43.33790766788443" lon="12.486035022430745"><ele>671.0</ele><time>2026-04-21T11:53:57Z</time></trkpt><trkpt lat="43.33780550208672" lon="12.486072506387549"><ele>671.0</ele><time>2026-04-21T11:53:58Z</time></trkpt><trkpt lat="43.33771652943056" lon="12.486142940487658"><ele>671.0</ele><time>2026-04-21T11:53:59Z</time></trkpt><trkpt lat="43.33761203735383" lon="12.486201862055767"><ele>671.0</ele><time>2026-04-21T11:54:00Z</time></trkpt><trkpt lat="43.33754583461266" lon="12.486300753259208"><ele>671.0</ele><time>2026-04-21T11:54:01Z</time></trkpt><trkpt lat="43.33746660986168" lon="12.486411563423577"><ele>671.0</ele><time>2026-04-21T11:54:02Z</time></trkpt><trkpt lat="43.337404044599666" lon="12.486541062858237"><ele>671.0</ele><time>2026-04-21T11:54:04Z</time></trkpt><trkpt lat="43.33734736089225" lon="12.486662386084992"><ele>671.0</ele><time>2026-04-21T11:54:05Z</time></trkpt><trkpt lat="43.337327790494314" lon="12.486759359347507"><ele>671.0</ele><time>2026-04-21T11:54:06Z</time></trkpt><trkpt lat="43.337213848168105" lon="12.486844038535608"><ele>671.0</ele><time>2026-04-21T11:54:08Z</time></trkpt><trkpt lat="43.33712041577796" lon="12.486922681479548"><ele>671.0</ele><time>2026-04-21T11:54:09Z</time></trkpt><trkpt lat="43.33702548222468" lon="12.48699865748164"><ele>670.1999999999999</ele><time>2026-04-21T11:54:10Z</time></trkpt><trkpt lat="43.33694156402753" lon="12.487064177796666"><ele>669.4</ele><time>2026-04-21T11:54:11Z</time></trkpt><trkpt lat="43.33685216630675" lon="12.487121941144771"><ele>668.6</ele><time>2026-04-21T11:54:12Z</time></trkpt><trkpt lat="43.33676427041562" lon="12.487159602685347"><ele>667.8</ele><time>2026-04-21T11:54:13Z</time></trkpt><trkpt lat="43.33667072143868" lon="12.487170508009399"><ele>667.0</ele><time>2026-04-21T11:54:14Z</time></trkpt><trkpt lat="43.336566609993845" lon="12.48716057723005"><ele>667.0</ele><time>2026-04-21T11:54:15Z</time></trkpt><trkpt lat="43.33644739629033" lon="12.487139082131392"><ele>667.0</ele><time>2026-04-21T11:54:16Z</time></trkpt><trkpt lat="43.336319145694446" lon="12.487113190284964"><ele>667.0</ele><time>2026-04-21T11:54:17Z</time></trkpt><trkpt lat="43.33619287795356" lon="12.487086884937936"><ele>667.0</ele><time>2026-04-21T11:54:18Z</time></trkpt><trkpt lat="43.33606935738648" lon="12.487070972783641"><ele>667.4000000000001</ele><time>2026-04-21T11:54:18.999Z</time></trkpt><trkpt lat="43.33596980678254" lon="12.487068249009434"><ele>667.8000000000001</ele><time>2026-04-21T11:54:19.999Z</time></trkpt><trkpt lat="43.33589734150891" lon="12.487075162538256"><ele>668.2</ele><time>2026-04-21T11:54:20.999Z</time></trkpt><trkpt lat="43.33577990356479" lon="12.487105208373709"><ele>668.6</ele><time>2026-04-21T11:54:22.999Z</time></trkpt><trkpt lat="43.33570304576085" lon="12.487155885993456"><ele>669.0</ele><time>2026-04-21T11:54:23.999Z</time></trkpt><trkpt lat="43.33560188869367" lon="12.487175722332333"><ele>669.6</ele><time>2026-04-21T11:54:24.999Z</time></trkpt><trkpt lat="43.33551189320196" lon="12.48720297266274"><ele>670.2</ele><time>2026-04-21T11:54:25.999Z</time></trkpt><trkpt lat="43.33541924891526" lon="12.487219323002053"><ele>670.8000000000001</ele><time>2026-04-21T11:54:26.999Z</time></trkpt><trkpt lat="43.33531967993246" lon="12.48721936435619"><ele>671.4000000000001</ele><time>2026-04-21T11:54:27.999Z</time></trkpt><trkpt lat="43.33520597423666" lon="12.487202771721355"><ele>672.0</ele><time>2026-04-21T11:54:28.999Z</time></trkpt><trkpt lat="43.33509980826668" lon="12.487188044595985"><ele>672.0</ele><time>2026-04-21T11:54:29.999Z</time></trkpt><trkpt lat="43.33499842382953" lon="12.48719167216244"><ele>672.0</ele><time>2026-04-21T11:54:30.999Z</time></trkpt><trkpt lat="43.334910201067665" lon="12.487231525854257"><ele>672.0</ele><time>2026-04-21T11:54:31.999Z</time></trkpt><trkpt lat="43.33482292076844" lon="12.487264052064779"><ele>672.0</ele><time>2026-04-21T11:54:32.999Z</time></trkpt><trkpt lat="43.3347346923402" lon="12.48731581306747"><ele>672.0</ele><time>2026-04-21T11:54:33.999Z</time></trkpt><trkpt lat="43.33463862788764" lon="12.487386271178774"><ele>669.2</ele><time>2026-04-21T11:54:34.999Z</time></trkpt><trkpt lat="43.33454688214701" lon="12.487477516128921"><ele>666.4000000000001</ele><time>2026-04-21T11:54:35.999Z</time></trkpt><trkpt lat="43.334446691349655" lon="12.48753963091413"><ele>663.5999999999999</ele><time>2026-04-21T11:54:36.999Z</time></trkpt><trkpt lat="43.334365001894774" lon="12.487598021479586"><ele>660.8</ele><time>2026-04-21T11:54:37.999Z</time></trkpt><trkpt lat="43.33427746175762" lon="12.487615894513151"><ele>658.0</ele><time>2026-04-21T11:54:38.999Z</time></trkpt><trkpt lat="43.33421989151036" lon="12.487651711683615"><ele>658.0</ele><time>2026-04-21T11:54:39.999Z</time></trkpt><trkpt lat="43.33412520417958" lon="12.487694047302035"><ele>658.0</ele><time>2026-04-21T11:54:41.999Z</time></trkpt><trkpt lat="43.334111738818834" lon="12.487804625819553"><ele>658.0</ele><time>2026-04-21T11:54:43.999Z</time></trkpt><trkpt lat="43.334086682623834" lon="12.487961434547216"><ele>658.0</ele><time>2026-04-21T11:54:45.999Z</time></trkpt><trkpt lat="43.33406934730238" lon="12.488059925014824"><ele>658.0</ele><time>2026-04-21T11:54:46.999Z</time></trkpt><trkpt lat="43.33406148882231" lon="12.488168369143834"><ele>658.4</ele><time>2026-04-21T11:54:47.999Z</time></trkpt><trkpt lat="43.33406235931656" lon="12.48829349208108"><ele>658.8</ele><time>2026-04-21T11:54:48.999Z</time></trkpt><trkpt lat="43.334035083944315" lon="12.488421053257857"><ele>659.2</ele><time>2026-04-21T11:54:49.999Z</time></trkpt><trkpt lat="43.334022111601584" lon="12.488543369287042"><ele>659.6</ele><time>2026-04-21T11:54:50.999Z</time></trkpt><trkpt lat="43.33401013437207" lon="12.488666426587923"><ele>660.0</ele><time>2026-04-21T11:54:51.999Z</time></trkpt><trkpt lat="43.33401455280158" lon="12.488806278581903"><ele>660.0</ele><time>2026-04-21T11:54:52.999Z</time></trkpt><trkpt lat="43.334009300526354" lon="12.488938619747161"><ele>660.0</ele><time>2026-04-21T11:54:53.999Z</time></trkpt><trkpt lat="43.33401041654405" lon="12.489068131074129"><ele>660.0</ele><time>2026-04-21T11:54:54.999Z</time></trkpt><trkpt lat="43.33398577335685" lon="12.48918218133958"><ele>660.0</ele><time>2026-04-21T11:54:55.999Z</time></trkpt><trkpt lat="43.33397939482392" lon="12.489304913021725"><ele>660.0</ele><time>2026-04-21T11:54:56.999Z</time></trkpt><trkpt lat="43.33394225351968" lon="12.489387793518388"><ele>660.0</ele><time>2026-04-21T11:54:57.999Z</time></trkpt><trkpt lat="43.33391514459925" lon="12.489477754403124"><ele>657.0</ele><time>2026-04-21T11:54:58.999Z</time></trkpt><trkpt lat="43.333879670661965" lon="12.489572638117501"><ele>654.0</ele><time>2026-04-21T11:54:59.999Z</time></trkpt><trkpt lat="43.3338351302264" lon="12.489686074553887"><ele>651.0</ele><time>2026-04-21T11:55:00.999Z</time></trkpt><trkpt lat="43.33378701701747" lon="12.48980861016874"><ele>648.0</ele><time>2026-04-21T11:55:01.999Z</time></trkpt><trkpt lat="43.33373820706185" lon="12.489925446010085"><ele>645.0</ele><time>2026-04-21T11:55:02.999Z</time></trkpt><trkpt lat="43.33368939440664" lon="12.490046548323875"><ele>643.8</ele><time>2026-04-21T11:55:03.999Z</time></trkpt><trkpt lat="43.33363919528253" lon="12.490185988690222"><ele>642.6</ele><time>2026-04-21T11:55:04.999Z</time></trkpt><trkpt lat="43.33359894983082" lon="12.49031103160547"><ele>641.4</ele><time>2026-04-21T11:55:05.999Z</time></trkpt><trkpt lat="43.33357849662084" lon="12.490428677882493"><ele>640.2</ele><time>2026-04-21T11:55:06.999Z</time></trkpt><trkpt lat="43.33355161732279" lon="12.490516085499975"><ele>639.0</ele><time>2026-04-21T11:55:07.999Z</time></trkpt><trkpt lat="43.3335474562345" lon="12.49069464468605"><ele>638.4</ele><time>2026-04-21T11:55:09.999Z</time></trkpt><trkpt lat="43.333558363831095" lon="12.490812832454518"><ele>637.8</ele><time>2026-04-21T11:55:10.999Z</time></trkpt><trkpt lat="43.333558737414286" lon="12.4909760094134"><ele>637.2</ele><time>2026-04-21T11:55:11.999Z</time></trkpt><trkpt lat="43.333564503082314" lon="12.49114574039406"><ele>636.6</ele><time>2026-04-21T11:55:12.999Z</time></trkpt><trkpt lat="43.33356406037638" lon="12.491301846372673"><ele>636.0</ele><time>2026-04-21T11:55:13.999Z</time></trkpt><trkpt lat="43.33354844691992" lon="12.491476006672633"><ele>636.0</ele><time>2026-04-21T11:55:14.999Z</time></trkpt><trkpt lat="43.33354519414964" lon="12.491647152657443"><ele>636.0</ele><time>2026-04-21T11:55:15.999Z</time></trkpt><trkpt lat="43.33355084151329" lon="12.491827037863272"><ele>636.0</ele><time>2026-04-21T11:55:16.999Z</time></trkpt><trkpt lat="43.33352597246015" lon="12.491999815153697"><ele>636.0</ele><time>2026-04-21T11:55:17.999Z</time></trkpt><trkpt lat="43.33350848003724" lon="12.492164990523284"><ele>636.0</ele><time>2026-04-21T11:55:18.999Z</time></trkpt><trkpt lat="43.333502353291834" lon="12.492308020319035"><ele>636.0</ele><time>2026-04-21T11:55:19.999Z</time></trkpt><trkpt lat="43.333484867821674" lon="12.492433496114938"><ele>636.0</ele><time>2026-04-21T11:55:20.999Z</time></trkpt><trkpt lat="43.333457278524484" lon="12.49256585244884"><ele>636.0</ele><time>2026-04-21T11:55:21.999Z</time></trkpt><trkpt lat="43.333445081585225" lon="12.492691586354843"><ele>636.0</ele><time>2026-04-21T11:55:22.999Z</time></trkpt><trkpt lat="43.33341618942796" lon="12.492831048866096"><ele>635.8333333333334</ele><time>2026-04-21T11:55:23.999Z</time></trkpt><trkpt lat="43.33338648017587" lon="12.492943546753828"><ele>635.6666666666666</ele><time>2026-04-21T11:55:24.999Z</time></trkpt><trkpt lat="43.333387866929066" lon="12.493050878788722"><ele>635.5</ele><time>2026-04-21T11:55:25.999Z</time></trkpt><trkpt lat="43.333350435593076" lon="12.493161604251114"><ele>635.3333333333333</ele><time>2026-04-21T11:55:27.999Z</time></trkpt><trkpt lat="43.333264712774586" lon="12.493108276821427"><ele>635.1666666666666</ele><time>2026-04-21T11:55:29.999Z</time></trkpt><trkpt lat="43.33320161825478" lon="12.493063653603503"><ele>635.0</ele><time>2026-04-21T11:55:30.999Z</time></trkpt><trkpt lat="43.33311804044712" lon="12.493003949865086"><ele>632.0</ele><time>2026-04-21T11:55:31.999Z</time></trkpt><trkpt lat="43.3330201630927" lon="12.492932481481308"><ele>629.0</ele><time>2026-04-21T11:55:32.999Z</time></trkpt><trkpt lat="43.33293121106295" lon="12.492867530153555"><ele>626.0</ele><time>2026-04-21T11:55:33.999Z</time></trkpt><trkpt lat="43.33284697060248" lon="12.492804228969497"><ele>623.0</ele><time>2026-04-21T11:55:34.999Z</time></trkpt><trkpt lat="43.33275511235861" lon="12.492735113978142"><ele>620.0</ele><time>2026-04-21T11:55:35.999Z</time></trkpt><trkpt lat="43.33266375641413" lon="12.492666829923659"><ele>619.6</ele><time>2026-04-21T11:55:36.999Z</time></trkpt><trkpt lat="43.33257231231398" lon="12.492602401482864"><ele>619.2</ele><time>2026-04-21T11:55:37.999Z</time></trkpt><trkpt lat="43.332482376417815" lon="12.492542085221013"><ele>618.8</ele><time>2026-04-21T11:55:39Z</time></trkpt><trkpt lat="43.3324005902219" lon="12.49248710054705"><ele>618.4</ele><time>2026-04-21T11:55:40Z</time></trkpt><trkpt lat="43.33230364313977" lon="12.492448584318605"><ele>618.0</ele><time>2026-04-21T11:55:41Z</time></trkpt><trkpt lat="43.332209572238845" lon="12.492398919842412"><ele>617.0</ele><time>2026-04-21T11:55:42Z</time></trkpt><trkpt lat="43.33212375470831" lon="12.49235147355985"><ele>616.0</ele><time>2026-04-21T11:55:43Z</time></trkpt><trkpt lat="43.33201303922395" lon="12.492358534861793"><ele>615.0</ele><time>2026-04-21T11:55:44Z</time></trkpt><trkpt lat="43.331917415387345" lon="12.492424887732126"><ele>614.0</ele><time>2026-04-21T11:55:45Z</time></trkpt><trkpt lat="43.331833682824865" lon="12.492480706386562"><ele>613.0</ele><time>2026-04-21T11:55:46Z</time></trkpt><trkpt lat="43.33175786606081" lon="12.492565775841529"><ele>613.0</ele><time>2026-04-21T11:55:47Z</time></trkpt><trkpt lat="43.33166016669867" lon="12.492628340125332"><ele>613.0</ele><time>2026-04-21T11:55:48Z</time></trkpt><trkpt lat="43.33156173499295" lon="12.492700140384962"><ele>613.0</ele><time>2026-04-21T11:55:49Z</time></trkpt><trkpt lat="43.33144996740606" lon="12.492725276400536"><ele>613.0</ele><time>2026-04-21T11:55:50Z</time></trkpt><trkpt lat="43.33133068883845" lon="12.492707791322262"><ele>613.1999999999999</ele><time>2026-04-21T11:55:51Z</time></trkpt><trkpt lat="43.33121782026726" lon="12.49270257938812"><ele>613.4</ele><time>2026-04-21T11:55:52Z</time></trkpt><trkpt lat="43.331110472085804" lon="12.492677598078336"><ele>613.5999999999999</ele><time>2026-04-21T11:55:53Z</time></trkpt><trkpt lat="43.33100275727454" lon="12.492634389972194"><ele>613.8</ele><time>2026-04-21T11:55:54Z</time></trkpt><trkpt lat="43.33090737809158" lon="12.49258369995121"><ele>614.0</ele><time>2026-04-21T11:55:55Z</time></trkpt><trkpt lat="43.3308089637907" lon="12.492528980423677"><ele>614.0</ele><time>2026-04-21T11:55:56Z</time></trkpt><trkpt lat="43.330699976428946" lon="12.492472377107482"><ele>614.0</ele><time>2026-04-21T11:55:57Z</time></trkpt><trkpt lat="43.33058371011874" lon="12.49241199372748"><ele>614.0</ele><time>2026-04-21T11:55:58Z</time></trkpt><trkpt lat="43.33045471179262" lon="12.492363356574762"><ele>614.0</ele><time>2026-04-21T11:55:59Z</time></trkpt><trkpt lat="43.330316424751935" lon="12.492340488659881"><ele>613.8</ele><time>2026-04-21T11:56:00Z</time></trkpt><trkpt lat="43.33018785680522" lon="12.492333674092109"><ele>613.5999999999999</ele><time>2026-04-21T11:56:01Z</time></trkpt><trkpt lat="43.33007110285481" lon="12.492325946845828"><ele>613.4</ele><time>2026-04-21T11:56:02Z</time></trkpt><trkpt lat="43.32997012504267" lon="12.492313114796831"><ele>613.1999999999999</ele><time>2026-04-21T11:56:03Z</time></trkpt><trkpt lat="43.32988872246128" lon="12.492309172521816"><ele>613.0</ele><time>2026-04-21T11:56:04Z</time></trkpt><trkpt lat="43.32983690337234" lon="12.49224867081563"><ele>613.0</ele><time>2026-04-21T11:56:05Z</time></trkpt><trkpt lat="43.329819937875264" lon="12.492153310479956"><ele>613.0</ele><time>2026-04-21T11:56:06Z</time></trkpt><trkpt lat="43.329845009607034" lon="12.492012057000725"><ele>613.0</ele><time>2026-04-21T11:56:07Z</time></trkpt><trkpt lat="43.329829707098014" lon="12.491870352680849"><ele>613.0</ele><time>2026-04-21T11:56:08Z</time></trkpt><trkpt lat="43.329800082292785" lon="12.491728796607362"><ele>613.0</ele><time>2026-04-21T11:56:09Z</time></trkpt><trkpt lat="43.32973113461752" lon="12.491600151256025"><ele>615.6</ele><time>2026-04-21T11:56:10Z</time></trkpt><trkpt lat="43.32965310025528" lon="12.491510310742752"><ele>618.1999999999999</ele><time>2026-04-21T11:56:11Z</time></trkpt><trkpt lat="43.329568103577614" lon="12.491447154191022"><ele>620.8</ele><time>2026-04-21T11:56:12Z</time></trkpt><trkpt lat="43.32946716119458" lon="12.491441923891037"><ele>623.4</ele><time>2026-04-21T11:56:13Z</time></trkpt><trkpt lat="43.32935827506365" lon="12.491466682972971"><ele>626.0</ele><time>2026-04-21T11:56:14Z</time></trkpt><trkpt lat="43.32924220897233" lon="12.491505968874575"><ele>626.0</ele><time>2026-04-21T11:56:15Z</time></trkpt><trkpt lat="43.329113066915035" lon="12.491569201786657"><ele>626.0</ele><time>2026-04-21T11:56:16Z</time></trkpt><trkpt lat="43.32898695924831" lon="12.491657183175231"><ele>626.0</ele><time>2026-04-21T11:56:17Z</time></trkpt><trkpt lat="43.3288605530528" lon="12.491763811463935"><ele>626.0</ele><time>2026-04-21T11:56:18Z</time></trkpt><trkpt lat="43.32873897867937" lon="12.491867384525982"><ele>626.8</ele><time>2026-04-21T11:56:19Z</time></trkpt><trkpt lat="43.32863034579676" lon="12.491952967628391"><ele>627.6</ele><time>2026-04-21T11:56:20Z</time></trkpt><trkpt lat="43.32853207135627" lon="12.49201697297695"><ele>628.4</ele><time>2026-04-21T11:56:21Z</time></trkpt><trkpt lat="43.32844354207608" lon="12.492057843493761"><ele>629.2</ele><time>2026-04-21T11:56:22Z</time></trkpt><trkpt lat="43.32834746343324" lon="12.492101705711294"><ele>630.0</ele><time>2026-04-21T11:56:23Z</time></trkpt><trkpt lat="43.328237626878824" lon="12.492172419158132"><ele>630.0</ele><time>2026-04-21T11:56:24Z</time></trkpt><trkpt lat="43.32811346143625" lon="12.492255292326577"><ele>630.0</ele><time>2026-04-21T11:56:25Z</time></trkpt><trkpt lat="43.3279867044514" lon="12.492332557059193"><ele>630.0</ele><time>2026-04-21T11:56:26Z</time></trkpt><trkpt lat="43.32786286370657" lon="12.4924064122184"><ele>630.0</ele><time>2026-04-21T11:56:27Z</time></trkpt><trkpt lat="43.32775306584065" lon="12.492467394296701"><ele>630.0</ele><time>2026-04-21T11:56:28Z</time></trkpt><trkpt lat="43.32765762784235" lon="12.492522361462878"><ele>630.0</ele><time>2026-04-21T11:56:29Z</time></trkpt><trkpt lat="43.32756422805325" lon="12.492586766164322"><ele>630.0</ele><time>2026-04-21T11:56:30Z</time></trkpt><trkpt lat="43.327459330868344" lon="12.492658337138081"><ele>630.0</ele><time>2026-04-21T11:56:31Z</time></trkpt><trkpt lat="43.327345247817085" lon="12.492733189366099"><ele>630.25</ele><time>2026-04-21T11:56:32Z</time></trkpt><trkpt lat="43.32721887540819" lon="12.49282099295948"><ele>630.5</ele><time>2026-04-21T11:56:33Z</time></trkpt><trkpt lat="43.32709669604837" lon="12.492916132869832"><ele>630.75</ele><time>2026-04-21T11:56:34Z</time></trkpt><trkpt lat="43.326987103876114" lon="12.493002657850544"><ele>631.0</ele><time>2026-04-21T11:56:35Z</time></trkpt><trkpt lat="43.326879388671465" lon="12.493090443315232"><ele>629.0</ele><time>2026-04-21T11:56:36Z</time></trkpt><trkpt lat="43.32677692281614" lon="12.49315439247391"><ele>627.0</ele><time>2026-04-21T11:56:37Z</time></trkpt><trkpt lat="43.3266751580551" lon="12.493194081189328"><ele>625.0</ele><time>2026-04-21T11:56:38Z</time></trkpt><trkpt lat="43.32656272948905" lon="12.493183850257626"><ele>623.0</ele><time>2026-04-21T11:56:39Z</time></trkpt><trkpt lat="43.326444882944216" lon="12.493170538501808"><ele>621.0</ele><time>2026-04-21T11:56:40Z</time></trkpt><trkpt lat="43.32631794548764" lon="12.493174943476554"><ele>619.3333333333334</ele><time>2026-04-21T11:56:41Z</time></trkpt><trkpt lat="43.32618377127321" lon="12.493121175410485"><ele>617.6666666666667</ele><time>2026-04-21T11:56:42Z</time></trkpt><trkpt lat="43.32602760952666" lon="12.493124587807399"><ele>616.0</ele><time>2026-04-21T11:56:43Z</time></trkpt><trkpt lat="43.32586876803389" lon="12.493165474338017"><ele>616.0</ele><time>2026-04-21T11:56:43.999Z</time></trkpt><trkpt lat="43.32569114037663" lon="12.493183094256304"><ele>616.0</ele><time>2026-04-21T11:56:44.999Z</time></trkpt><trkpt lat="43.325505331764475" lon="12.49318877149772"><ele>616.0</ele><time>2026-04-21T11:56:45.999Z</time></trkpt><trkpt lat="43.325316374443354" lon="12.493212964735475"><ele>616.6666666666667</ele><time>2026-04-21T11:56:46.999Z</time></trkpt><trkpt lat="43.32514211423114" lon="12.493237674664027"><ele>617.3333333333334</ele><time>2026-04-21T11:56:47.999Z</time></trkpt><trkpt lat="43.32499710885236" lon="12.493260198851171"><ele>618.0</ele><time>2026-04-21T11:56:48.999Z</time></trkpt><trkpt lat="43.32486135693112" lon="12.493281285673627"><ele>618.0</ele><time>2026-04-21T11:56:49.999Z</time></trkpt><trkpt lat="43.32475070401561" lon="12.493325226867242"><ele>618.0</ele><time>2026-04-21T11:56:50.999Z</time></trkpt><trkpt lat="43.324657179251005" lon="12.493370949192489"><ele>618.0</ele><time>2026-04-21T11:56:51.999Z</time></trkpt><trkpt lat="43.32456154102585" lon="12.493436620339711"><ele>618.0</ele><time>2026-04-21T11:56:52.999Z</time></trkpt><trkpt lat="43.32447115581245" lon="12.493547514569363"><ele>618.0</ele><time>2026-04-21T11:56:53.999Z</time></trkpt><trkpt lat="43.324375832992146" lon="12.49369353079731"><ele>618.0</ele><time>2026-04-21T11:56:54.999Z</time></trkpt><trkpt lat="43.32426493073121" lon="12.493832613405118"><ele>618.0</ele><time>2026-04-21T11:56:55.999Z</time></trkpt><trkpt lat="43.32414725108298" lon="12.49396214549148"><ele>618.0</ele><time>2026-04-21T11:56:56.999Z</time></trkpt><trkpt lat="43.32401609314988" lon="12.494075111850456"><ele>616.3333333333334</ele><time>2026-04-21T11:56:57.999Z</time></trkpt><trkpt lat="43.32387753294162" lon="12.49417154087526"><ele>614.6666666666667</ele><time>2026-04-21T11:56:58.999Z</time></trkpt><trkpt lat="43.32373073658699" lon="12.494263368953826"><ele>613.0</ele><time>2026-04-21T11:56:59.999Z</time></trkpt><trkpt lat="43.32358260779284" lon="12.49433977854402"><ele>613.0</ele><time>2026-04-21T11:57:00.999Z</time></trkpt><trkpt lat="43.32342837259291" lon="12.494404612003308"><ele>613.0</ele><time>2026-04-21T11:57:01.999Z</time></trkpt><trkpt lat="43.32326774286038" lon="12.494476721076934"><ele>613.0</ele><time>2026-04-21T11:57:02.999Z</time></trkpt><trkpt lat="43.323111033631804" lon="12.49455584611811"><ele>613.3333333333334</ele><time>2026-04-21T11:57:03.999Z</time></trkpt><trkpt lat="43.32295779703631" lon="12.494657017163126"><ele>613.6666666666666</ele><time>2026-04-21T11:57:04.999Z</time></trkpt><trkpt lat="43.322806572846574" lon="12.494782302944488"><ele>614.0</ele><time>2026-04-21T11:57:05.999Z</time></trkpt><trkpt lat="43.32265593407064" lon="12.494915444908854"><ele>614.0</ele><time>2026-04-21T11:57:06.999Z</time></trkpt><trkpt lat="43.322503000664035" lon="12.495052092716987"><ele>614.0</ele><time>2026-04-21T11:57:07.999Z</time></trkpt><trkpt lat="43.3223492885635" lon="12.495199482195297"><ele>614.0</ele><time>2026-04-21T11:57:08.999Z</time></trkpt><trkpt lat="43.322198425563066" lon="12.495323320898752"><ele>615.0</ele><time>2026-04-21T11:57:09.999Z</time></trkpt><trkpt lat="43.32204266491633" lon="12.495443582382334"><ele>616.0</ele><time>2026-04-21T11:57:10.999Z</time></trkpt><trkpt lat="43.32190053341983" lon="12.4955511865513"><ele>617.0</ele><time>2026-04-21T11:57:11.999Z</time></trkpt><trkpt lat="43.32178126678335" lon="12.495639881671762"><ele>617.0</ele><time>2026-04-21T11:57:12.999Z</time></trkpt><trkpt lat="43.3216721072282" lon="12.495698061867248"><ele>617.0</ele><time>2026-04-21T11:57:13.999Z</time></trkpt><trkpt lat="43.32157659647554" lon="12.495716784423642"><ele>617.0</ele><time>2026-04-21T11:57:14.999Z</time></trkpt><trkpt lat="43.321480250305065" lon="12.495683076195405"><ele>617.0</ele><time>2026-04-21T11:57:15.999Z</time></trkpt><trkpt lat="43.32137506252945" lon="12.49563153872449"><ele>617.0</ele><time>2026-04-21T11:57:16.999Z</time></trkpt><trkpt lat="43.32126068391462" lon="12.495541647748434"><ele>618.5</ele><time>2026-04-21T11:57:17.999Z</time></trkpt><trkpt lat="43.321122030610155" lon="12.495501818848636"><ele>620.0</ele><time>2026-04-21T11:57:18.999Z</time></trkpt><trkpt lat="43.320972364531585" lon="12.495436606186573"><ele>621.5</ele><time>2026-04-21T11:57:19.999Z</time></trkpt><trkpt lat="43.3208263654499" lon="12.495410432444478"><ele>623.0</ele><time>2026-04-21T11:57:20.999Z</time></trkpt><trkpt lat="43.32066886000739" lon="12.495412660082096"><ele>624.6666666666666</ele><time>2026-04-21T11:57:21.999Z</time></trkpt><trkpt lat="43.32050616862556" lon="12.49544083271345"><ele>626.3333333333334</ele><time>2026-04-21T11:57:22.999Z</time></trkpt><trkpt lat="43.320353750849115" lon="12.495480888236953"><ele>628.0</ele><time>2026-04-21T11:57:23.999Z</time></trkpt><trkpt lat="43.320184181902796" lon="12.495491922261367"><ele>628.0</ele><time>2026-04-21T11:57:24.999Z</time></trkpt><trkpt lat="43.32003046205846" lon="12.495535946834146"><ele>628.0</ele><time>2026-04-21T11:57:25.999Z</time></trkpt><trkpt lat="43.31987678347543" lon="12.49555852028625"><ele>628.0</ele><time>2026-04-21T11:57:26.999Z</time></trkpt><trkpt lat="43.31971853819055" lon="12.495547536355758"><ele>629.0</ele><time>2026-04-21T11:57:27.999Z</time></trkpt><trkpt lat="43.31954712587725" lon="12.495560387516218"><ele>630.0</ele><time>2026-04-21T11:57:28.999Z</time></trkpt><trkpt lat="43.319384926132344" lon="12.495600211949046"><ele>631.0</ele><time>2026-04-21T11:57:29.999Z</time></trkpt><trkpt lat="43.31922067451367" lon="12.495618899680798"><ele>631.0</ele><time>2026-04-21T11:57:30.999Z</time></trkpt><trkpt lat="43.31906200048174" lon="12.495661254700748"><ele>631.0</ele><time>2026-04-21T11:57:31.999Z</time></trkpt><trkpt lat="43.31889601383368" lon="12.495724390550604"><ele>631.0</ele><time>2026-04-21T11:57:32.999Z</time></trkpt><trkpt lat="43.318737906177084" lon="12.495803665171483"><ele>634.6666666666667</ele><time>2026-04-21T11:57:33.999Z</time></trkpt><trkpt lat="43.318568274838064" lon="12.495894396849689"><ele>638.3333333333334</ele><time>2026-04-21T11:57:34.999Z</time></trkpt><trkpt lat="43.31841767136515" lon="12.495986334670787"><ele>642.0</ele><time>2026-04-21T11:57:35.999Z</time></trkpt><trkpt lat="43.318273055712126" lon="12.496075530829186"><ele>642.0</ele><time>2026-04-21T11:57:36.999Z</time></trkpt><trkpt lat="43.318156112838565" lon="12.49615550450555"><ele>642.0</ele><time>2026-04-21T11:57:37.999Z</time></trkpt><trkpt lat="43.318056810210905" lon="12.496203322984343"><ele>642.0</ele><time>2026-04-21T11:57:38.999Z</time></trkpt><trkpt lat="43.31795433641325" lon="12.496206048453947"><ele>642.0</ele><time>2026-04-21T11:57:39.999Z</time></trkpt><trkpt lat="43.31784299455062" lon="12.496170170419289"><ele>646.0</ele><time>2026-04-21T11:57:40.999Z</time></trkpt><trkpt lat="43.317743639658325" lon="12.4960590788229"><ele>650.0</ele><time>2026-04-21T11:57:41.999Z</time></trkpt><trkpt lat="43.317644253936216" lon="12.495935859376186"><ele>654.0</ele><time>2026-04-21T11:57:42.999Z</time></trkpt><trkpt lat="43.317543688721855" lon="12.495809029972467"><ele>658.0</ele><time>2026-04-21T11:57:43.999Z</time></trkpt><trkpt lat="43.31743107461887" lon="12.495693137514087"><ele>658.0</ele><time>2026-04-21T11:57:45Z</time></trkpt><trkpt lat="43.317345693252655" lon="12.49558774694581"><ele>658.0</ele><time>2026-04-21T11:57:46Z</time></trkpt><trkpt lat="43.317279145167426" lon="12.495490193142471"><ele>658.0</ele><time>2026-04-21T11:57:47Z</time></trkpt><trkpt lat="43.31715820881987" lon="12.495460945306936"><ele>658.0</ele><time>2026-04-21T11:57:48Z</time></trkpt><trkpt lat="43.317040275093966" lon="12.495423987813565"><ele>660.0</ele><time>2026-04-21T11:57:49Z</time></trkpt><trkpt lat="43.316917205681506" lon="12.495401811204463"><ele>662.0</ele><time>2026-04-21T11:57:50Z</time></trkpt><trkpt lat="43.31677894165974" lon="12.495371627430766"><ele>664.0</ele><time>2026-04-21T11:57:51Z</time></trkpt><trkpt lat="43.31663388044213" lon="12.495307228134584"><ele>666.0</ele><time>2026-04-21T11:57:52Z</time></trkpt><trkpt lat="43.31650233337587" lon="12.495281617532285"><ele>666.4</ele><time>2026-04-21T11:57:53Z</time></trkpt><trkpt lat="43.316389206191616" lon="12.495294059900104"><ele>666.8</ele><time>2026-04-21T11:57:54Z</time></trkpt><trkpt lat="43.316310097797256" lon="12.495307397720001"><ele>667.1999999999999</ele><time>2026-04-21T11:57:55Z</time></trkpt><trkpt lat="43.316246519161005" lon="12.495308795481936"><ele>667.5999999999999</ele><time>2026-04-21T11:57:56Z</time></trkpt><trkpt lat="43.31615910066699" lon="12.495503408312407"><ele>668.0</ele><time>2026-04-21T11:57:58Z</time></trkpt><trkpt lat="43.316102375266" lon="12.49563572209726"><ele>668.0</ele><time>2026-04-21T11:57:59Z</time></trkpt><trkpt lat="43.316042648987604" lon="12.495777088625248"><ele>668.0</ele><time>2026-04-21T11:58:00Z</time></trkpt><trkpt lat="43.31598700749326" lon="12.495903169827375"><ele>668.0</ele><time>2026-04-21T11:58:01Z</time></trkpt><trkpt lat="43.31596253223817" lon="12.49602684969418"><ele>668.0</ele><time>2026-04-21T11:58:02Z</time></trkpt><trkpt lat="43.31596441631447" lon="12.496171252909846"><ele>668.0</ele><time>2026-04-21T11:58:03Z</time></trkpt><trkpt lat="43.315993780735084" lon="12.496343578711938"><ele>669.8</ele><time>2026-04-21T11:58:04Z</time></trkpt><trkpt lat="43.3160205884768" lon="12.496516228932173"><ele>671.5999999999999</ele><time>2026-04-21T11:58:05Z</time></trkpt><trkpt lat="43.31602987083389" lon="12.496650881727541"><ele>673.4000000000001</ele><time>2026-04-21T11:58:06Z</time></trkpt><trkpt lat="43.3160147483798" lon="12.496771708565046"><ele>675.2</ele><time>2026-04-21T11:58:07Z</time></trkpt><trkpt lat="43.31595989077808" lon="12.49685135773036"><ele>677.0</ele><time>2026-04-21T11:58:08Z</time></trkpt><trkpt lat="43.31588648729643" lon="12.496841461677558"><ele>677.0</ele><time>2026-04-21T11:58:09Z</time></trkpt><trkpt lat="43.315799852949155" lon="12.496905273377857"><ele>677.0</ele><time>2026-04-21T11:58:10Z</time></trkpt><trkpt lat="43.31569727113273" lon="12.496962064200188"><ele>677.0</ele><time>2026-04-21T11:58:11Z</time></trkpt><trkpt lat="43.31561131940449" lon="12.497062087457595"><ele>677.0</ele><time>2026-04-21T11:58:12Z</time></trkpt><trkpt lat="43.31553129878014" lon="12.497193031305182"><ele>677.0</ele><time>2026-04-21T11:58:13Z</time></trkpt><trkpt lat="43.315456416559975" lon="12.497339675160436"><ele>679.25</ele><time>2026-04-21T11:58:14Z</time></trkpt><trkpt lat="43.3153878560513" lon="12.49750098149296"><ele>681.5</ele><time>2026-04-21T11:58:15Z</time></trkpt><trkpt lat="43.315314219980515" lon="12.497658777362213"><ele>683.75</ele><time>2026-04-21T11:58:16Z</time></trkpt><trkpt lat="43.3152243418587" lon="12.497786558119827"><ele>686.0</ele><time>2026-04-21T11:58:17Z</time></trkpt><trkpt lat="43.31510553834697" lon="12.497834744375613"><ele>686.0</ele><time>2026-04-21T11:58:18Z</time></trkpt><trkpt lat="43.314999909060376" lon="12.49785186301911"><ele>686.0</ele><time>2026-04-21T11:58:19Z</time></trkpt><trkpt lat="43.31489477784429" lon="12.497824557601673"><ele>686.0</ele><time>2026-04-21T11:58:20Z</time></trkpt><trkpt lat="43.31477172773124" lon="12.497796722308587"><ele>686.0</ele><time>2026-04-21T11:58:21Z</time></trkpt><trkpt lat="43.31464281174841" lon="12.49776938396623"><ele>686.75</ele><time>2026-04-21T11:58:22Z</time></trkpt><trkpt lat="43.314526236552766" lon="12.497754098302556"><ele>687.5</ele><time>2026-04-21T11:58:23Z</time></trkpt><trkpt lat="43.31440370370752" lon="12.497759294191114"><ele>688.25</ele><time>2026-04-21T11:58:24Z</time></trkpt><trkpt lat="43.31428204661711" lon="12.497788264216746"><ele>689.0</ele><time>2026-04-21T11:58:25Z</time></trkpt><trkpt lat="43.31418050138924" lon="12.4978460897471"><ele>690.1666666666666</ele><time>2026-04-21T11:58:26Z</time></trkpt><trkpt lat="43.314110669783844" lon="12.497919310954453"><ele>691.3333333333333</ele><time>2026-04-21T11:58:27Z</time></trkpt><trkpt lat="43.31407351604861" lon="12.498028248049598"><ele>692.5</ele><time>2026-04-21T11:58:28Z</time></trkpt><trkpt lat="43.31405820791405" lon="12.49812796483516"><ele>693.6666666666666</ele><time>2026-04-21T11:58:29Z</time></trkpt><trkpt lat="43.314063832585425" lon="12.498240647571869"><ele>694.8333333333334</ele><time>2026-04-21T11:58:30Z</time></trkpt><trkpt lat="43.31407596683012" lon="12.498386195665885"><ele>696.0</ele><time>2026-04-21T11:58:31Z</time></trkpt><trkpt lat="43.314102249930656" lon="12.498551750366769"><ele>696.0</ele><time>2026-04-21T11:58:32Z</time></trkpt><trkpt lat="43.31411462468621" lon="12.498722791071499"><ele>696.0</ele><time>2026-04-21T11:58:33Z</time></trkpt><trkpt lat="43.314122023989825" lon="12.498912500320554"><ele>696.0</ele><time>2026-04-21T11:58:34Z</time></trkpt><trkpt lat="43.31412189437054" lon="12.499105748219582"><ele>696.0</ele><time>2026-04-21T11:58:35Z</time></trkpt><trkpt lat="43.31411452576097" lon="12.499298311413485"><ele>696.25</ele><time>2026-04-21T11:58:36Z</time></trkpt><trkpt lat="43.314111345723134" lon="12.49945948056519"><ele>696.5</ele><time>2026-04-21T11:58:37Z</time></trkpt><trkpt lat="43.31414117267268" lon="12.499609699565744"><ele>696.75</ele><time>2026-04-21T11:58:38Z</time></trkpt><trkpt lat="43.314207097251256" lon="12.499753720791135"><ele>697.0</ele><time>2026-04-21T11:58:39Z</time></trkpt><trkpt lat="43.31428442842012" lon="12.499867601461931"><ele>697.4000000000001</ele><time>2026-04-21T11:58:40Z</time></trkpt><trkpt lat="43.314317783308475" lon="12.499973448553867"><ele>697.8000000000001</ele><time>2026-04-21T11:58:41Z</time></trkpt><trkpt lat="43.31430859874484" lon="12.500098965479273"><ele>698.2</ele><time>2026-04-21T11:58:42Z</time></trkpt><trkpt lat="43.31424360943257" lon="12.500197881223954"><ele>698.6</ele><time>2026-04-21T11:58:43Z</time></trkpt><trkpt lat="43.31419462962821" lon="12.500353775440763"><ele>699.0</ele><time>2026-04-21T11:58:44Z</time></trkpt><trkpt lat="43.314125314289825" lon="12.500504480536812"><ele>700.5</ele><time>2026-04-21T11:58:45Z</time></trkpt><trkpt lat="43.314076073617606" lon="12.500673617936116"><ele>702.0</ele><time>2026-04-21T11:58:46Z</time></trkpt><trkpt lat="43.314051796600204" lon="12.50084702718039"><ele>703.5</ele><time>2026-04-21T11:58:47Z</time></trkpt><trkpt lat="43.314052743981065" lon="12.501030994568625"><ele>705.0</ele><time>2026-04-21T11:58:48Z</time></trkpt><trkpt lat="43.31406735678698" lon="12.501235297776333"><ele>706.5</ele><time>2026-04-21T11:58:49Z</time></trkpt><trkpt lat="43.31406878108379" lon="12.501436656802777"><ele>708.0</ele><time>2026-04-21T11:58:50Z</time></trkpt><trkpt lat="43.31405692063876" lon="12.501642827829212"><ele>709.5</ele><time>2026-04-21T11:58:51Z</time></trkpt><trkpt lat="43.3140335300593" lon="12.501821375290575"><ele>711.0</ele><time>2026-04-21T11:58:52Z</time></trkpt><trkpt lat="43.314021956981776" lon="12.501968115945083"><ele>711.5</ele><time>2026-04-21T11:58:52.999Z</time></trkpt><trkpt lat="43.31402780246233" lon="12.502108888451861"><ele>712.0</ele><time>2026-04-21T11:58:53.999Z</time></trkpt><trkpt lat="43.31405682023129" lon="12.502256436398822"><ele>712.5</ele><time>2026-04-21T11:58:54.999Z</time></trkpt><trkpt lat="43.31409978559373" lon="12.502427203669102"><ele>713.0</ele><time>2026-04-21T11:58:55.999Z</time></trkpt><trkpt lat="43.314138371714066" lon="12.502607506535913"><ele>713.0</ele><time>2026-04-21T11:58:56.999Z</time></trkpt><trkpt lat="43.314172909384546" lon="12.502802087985526"><ele>713.0</ele><time>2026-04-21T11:58:57.999Z</time></trkpt><trkpt lat="43.31419671854219" lon="12.50300957923056"><ele>713.0</ele><time>2026-04-21T11:58:58.999Z</time></trkpt><trkpt lat="43.3142203739631" lon="12.503223081354404"><ele>712.6666666666666</ele><time>2026-04-21T11:58:59.999Z</time></trkpt><trkpt lat="43.31424614012319" lon="12.503446184164416"><ele>712.3333333333334</ele><time>2026-04-21T11:59:00.999Z</time></trkpt><trkpt lat="43.3142733942471" lon="12.50367695253714"><ele>712.0</ele><time>2026-04-21T11:59:01.999Z</time></trkpt><trkpt lat="43.314300678084706" lon="12.503898207265037"><ele>712.0</ele><time>2026-04-21T11:59:02.999Z</time></trkpt><trkpt lat="43.31432550489201" lon="12.504130319813466"><ele>712.0</ele><time>2026-04-21T11:59:03.999Z</time></trkpt><trkpt lat="43.31435204328562" lon="12.504352606516143"><ele>712.0</ele><time>2026-04-21T11:59:04.999Z</time></trkpt><trkpt lat="43.31437763162304" lon="12.50455594949448"><ele>713.6666666666667</ele><time>2026-04-21T11:59:05.999Z</time></trkpt><trkpt lat="43.31439619056536" lon="12.504754637789338"><ele>715.3333333333334</ele><time>2026-04-21T11:59:06.999Z</time></trkpt><trkpt lat="43.314376074364034" lon="12.504938619504367"><ele>717.0</ele><time>2026-04-21T11:59:07.999Z</time></trkpt><trkpt lat="43.31427433660378" lon="12.505317227629556"><ele>717.75</ele><time>2026-04-21T11:59:09.999Z</time></trkpt><trkpt lat="43.31422745608378" lon="12.505522283604467"><ele>718.5</ele><time>2026-04-21T11:59:10.999Z</time></trkpt><trkpt lat="43.31420341117345" lon="12.50571671315266"><ele>719.25</ele><time>2026-04-21T11:59:11.999Z</time></trkpt><trkpt lat="43.31418832461292" lon="12.505912296396849"><ele>720.0</ele><time>2026-04-21T11:59:12.999Z</time></trkpt><trkpt lat="43.31417611132485" lon="12.506071514101087"><ele>720.0</ele><time>2026-04-21T11:59:13.999Z</time></trkpt><trkpt lat="43.31413969223898" lon="12.506199370565529"><ele>720.0</ele><time>2026-04-21T11:59:14.999Z</time></trkpt><trkpt lat="43.314119902786246" lon="12.506295811820484"><ele>720.0</ele><time>2026-04-21T11:59:15.999Z</time></trkpt><trkpt lat="43.314070134908846" lon="12.50638542813092"><ele>720.0</ele><time>2026-04-21T11:59:16.999Z</time></trkpt><trkpt lat="43.31402666677518" lon="12.506487713669435"><ele>720.0</ele><time>2026-04-21T11:59:17.999Z</time></trkpt><trkpt lat="43.31401590899189" lon="12.506614565645492"><ele>720.0</ele><time>2026-04-21T11:59:18.999Z</time></trkpt><trkpt lat="43.31402690094701" lon="12.506758219505164"><ele>720.8333333333334</ele><time>2026-04-21T11:59:19.999Z</time></trkpt><trkpt lat="43.31403488309227" lon="12.506896382290968"><ele>721.6666666666666</ele><time>2026-04-21T11:59:20.999Z</time></trkpt><trkpt lat="43.31402879659041" lon="12.507047026154382"><ele>722.5</ele><time>2026-04-21T11:59:21.999Z</time></trkpt><trkpt lat="43.313995817669344" lon="12.507158833150505"><ele>723.3333333333333</ele><time>2026-04-21T11:59:22.999Z</time></trkpt><trkpt lat="43.313988399938474" lon="12.507251680395347"><ele>724.1666666666666</ele><time>2026-04-21T11:59:23.999Z</time></trkpt><trkpt lat="43.313921705824775" lon="12.507311303037213"><ele>725.0</ele><time>2026-04-21T11:59:25.999Z</time></trkpt><trkpt lat="43.31385357005515" lon="12.507294480660462"><ele>728.0</ele><time>2026-04-21T11:59:27.999Z</time></trkpt><trkpt lat="43.313828902550085" lon="12.507160966590897"><ele>731.0</ele><time>2026-04-21T11:59:28.999Z</time></trkpt><trkpt lat="43.3137598626568" lon="12.507065515621674"><ele>734.0</ele><time>2026-04-21T11:59:29.999Z</time></trkpt><trkpt lat="43.31359625699662" lon="12.506846226147532"><ele>737.0</ele><time>2026-04-21T11:59:31.999Z</time></trkpt><trkpt lat="43.31348900798852" lon="12.506732310305445"><ele>737.0</ele><time>2026-04-21T11:59:32.999Z</time></trkpt><trkpt lat="43.31336776673251" lon="12.506640155480493"><ele>737.0</ele><time>2026-04-21T11:59:33.999Z</time></trkpt><trkpt lat="43.31322203852048" lon="12.50655681727672"><ele>737.0</ele><time>2026-04-21T11:59:34.999Z</time></trkpt><trkpt lat="43.31308365061609" lon="12.506461508310425"><ele>738.6666666666666</ele><time>2026-04-21T11:59:35.999Z</time></trkpt><trkpt lat="43.312945439348724" lon="12.506332235988175"><ele>740.3333333333334</ele><time>2026-04-21T11:59:36.999Z</time></trkpt><trkpt lat="43.312820498646516" lon="12.506186133804906"><ele>742.0</ele><time>2026-04-21T11:59:37.999Z</time></trkpt><trkpt lat="43.31269229879784" lon="12.50602981614279"><ele>742.0</ele><time>2026-04-21T11:59:38.999Z</time></trkpt><trkpt lat="43.31255337285943" lon="12.505890804275724"><ele>742.0</ele><time>2026-04-21T11:59:39.999Z</time></trkpt><trkpt lat="43.31239451377831" lon="12.505779559189172"><ele>742.0</ele><time>2026-04-21T11:59:40.999Z</time></trkpt><trkpt lat="43.31223072042346" lon="12.505674535955446"><ele>743.6666666666667</ele><time>2026-04-21T11:59:41.999Z</time></trkpt><trkpt lat="43.31207555118601" lon="12.505554940049374"><ele>745.3333333333334</ele><time>2026-04-21T11:59:42.999Z</time></trkpt><trkpt lat="43.311934602448865" lon="12.505400496708544"><ele>747.0</ele><time>2026-04-21T11:59:43.999Z</time></trkpt><trkpt lat="43.31182633868797" lon="12.505238296763073"><ele>747.0</ele><time>2026-04-21T11:59:44.999Z</time></trkpt><trkpt lat="43.31170858163532" lon="12.505169216926932"><ele>747.0</ele><time>2026-04-21T11:59:45.999Z</time></trkpt><trkpt lat="43.311610419025676" lon="12.505135348740602"><ele>747.0</ele><time>2026-04-21T11:59:46.999Z</time></trkpt><trkpt lat="43.31152060581045" lon="12.505155029121592"><ele>747.0</ele><time>2026-04-21T11:59:47.999Z</time></trkpt><trkpt lat="43.31141471573511" lon="12.505213142751867"><ele>747.0</ele><time>2026-04-21T11:59:48.999Z</time></trkpt><trkpt lat="43.31129198667978" lon="12.505285768504187"><ele>748.0</ele><time>2026-04-21T11:59:49.999Z</time></trkpt><trkpt lat="43.311154951221795" lon="12.505350082873248"><ele>749.0</ele><time>2026-04-21T11:59:51Z</time></trkpt><trkpt lat="43.31101530726911" lon="12.50540728215699"><ele>750.0</ele><time>2026-04-21T11:59:52Z</time></trkpt><trkpt lat="43.31087554195397" lon="12.50544605364297"><ele>751.0</ele><time>2026-04-21T11:59:53Z</time></trkpt><trkpt lat="43.31073049324797" lon="12.505465014687179"><ele>751.0</ele><time>2026-04-21T11:59:54Z</time></trkpt><trkpt lat="43.31059294160835" lon="12.505415472538147"><ele>751.0</ele><time>2026-04-21T11:59:55Z</time></trkpt><trkpt lat="43.31045414338573" lon="12.505395899693086"><ele>751.0</ele><time>2026-04-21T11:59:56Z</time></trkpt><trkpt lat="43.31030937141329" lon="12.50536210826503"><ele>751.0</ele><time>2026-04-21T11:59:57Z</time></trkpt><trkpt lat="43.310152234093444" lon="12.505341858450643"><ele>748.3333333333334</ele><time>2026-04-21T11:59:58Z</time></trkpt><trkpt lat="43.309991438753364" lon="12.50534931285271"><ele>745.6666666666666</ele><time>2026-04-21T11:59:59Z</time></trkpt><trkpt lat="43.30982668011581" lon="12.505374122837337"><ele>743.0</ele><time>2026-04-21T12:00:00Z</time></trkpt><trkpt lat="43.309657196439154" lon="12.505410100717835"><ele>746.3333333333333</ele><time>2026-04-21T12:00:01Z</time></trkpt><trkpt lat="43.309489578518225" lon="12.505441916263807"><ele>749.6666666666666</ele><time>2026-04-21T12:00:02Z</time></trkpt><trkpt lat="43.30932661920081" lon="12.505476434350308"><ele>753.0</ele><time>2026-04-21T12:00:03Z</time></trkpt><trkpt lat="43.30916345537747" lon="12.505512727484469"><ele>753.0</ele><time>2026-04-21T12:00:04Z</time></trkpt><trkpt lat="43.30900898636231" lon="12.505553106583537"><ele>753.0</ele><time>2026-04-21T12:00:05Z</time></trkpt><trkpt lat="43.30886390769834" lon="12.505598114340193"><ele>753.0</ele><time>2026-04-21T12:00:06Z</time></trkpt><trkpt lat="43.30873322930673" lon="12.505614812934049"><ele>753.0</ele><time>2026-04-21T12:00:07Z</time></trkpt><trkpt lat="43.30861297217927" lon="12.50556684974469"><ele>750.75</ele><time>2026-04-21T12:00:08Z</time></trkpt><trkpt lat="43.30853257597199" lon="12.505419646967239"><ele>748.5</ele><time>2026-04-21T12:00:09Z</time></trkpt><trkpt lat="43.308449636675675" lon="12.505283411934927"><ele>746.25</ele><time>2026-04-21T12:00:10Z</time></trkpt><trkpt lat="43.30838340400805" lon="12.505120758468218"><ele>744.0</ele><time>2026-04-21T12:00:11Z</time></trkpt><trkpt lat="43.30831159987714" lon="12.504957038244404"><ele>743.75</ele><time>2026-04-21T12:00:12Z</time></trkpt><trkpt lat="43.3082305363495" lon="12.504833611316867"><ele>743.5</ele><time>2026-04-21T12:00:13Z</time></trkpt><trkpt lat="43.308143294638874" lon="12.504738009588067"><ele>743.25</ele><time>2026-04-21T12:00:14Z</time></trkpt><trkpt lat="43.30802952288985" lon="12.504663902313574"><ele>743.0</ele><time>2026-04-21T12:00:15Z</time></trkpt><trkpt lat="43.30789824185261" lon="12.504603139121569"><ele>745.6666666666666</ele><time>2026-04-21T12:00:16Z</time></trkpt><trkpt lat="43.30775063367096" lon="12.504562431670813"><ele>748.3333333333334</ele><time>2026-04-21T12:00:17Z</time></trkpt><trkpt lat="43.30759763917216" lon="12.504553365074296"><ele>751.0</ele><time>2026-04-21T12:00:18Z</time></trkpt><trkpt lat="43.30744388113834" lon="12.504579635847994"><ele>751.0</ele><time>2026-04-21T12:00:19Z</time></trkpt><trkpt lat="43.307285275686446" lon="12.50463502866084"><ele>751.0</ele><time>2026-04-21T12:00:20Z</time></trkpt><trkpt lat="43.307140994821104" lon="12.504698764619945"><ele>751.0</ele><time>2026-04-21T12:00:21Z</time></trkpt><trkpt lat="43.30701089688083" lon="12.504760375798917"><ele>746.75</ele><time>2026-04-21T12:00:22Z</time></trkpt><trkpt lat="43.3069155155972" lon="12.504839930428284"><ele>742.5</ele><time>2026-04-21T12:00:23Z</time></trkpt><trkpt lat="43.30684909192688" lon="12.504936259611098"><ele>738.25</ele><time>2026-04-21T12:00:24Z</time></trkpt><trkpt lat="43.30680071249829" lon="12.505070800398927"><ele>734.0</ele><time>2026-04-21T12:00:25Z</time></trkpt><trkpt lat="43.306748397838085" lon="12.505246133394744"><ele>739.0</ele><time>2026-04-21T12:00:26Z</time></trkpt><trkpt lat="43.30667915837071" lon="12.505431312376887"><ele>744.0</ele><time>2026-04-21T12:00:27Z</time></trkpt><trkpt lat="43.30659183480596" lon="12.505605198152558"><ele>749.0</ele><time>2026-04-21T12:00:28Z</time></trkpt><trkpt lat="43.30649617690975" lon="12.505762557548469"><ele>747.0</ele><time>2026-04-21T12:00:29Z</time></trkpt><trkpt lat="43.30638683846752" lon="12.505915143807988"><ele>745.0</ele><time>2026-04-21T12:00:30Z</time></trkpt><trkpt lat="43.30627830543397" lon="12.5060630604316"><ele>743.0</ele><time>2026-04-21T12:00:31Z</time></trkpt><trkpt lat="43.30617504013796" lon="12.506182984801828"><ele>741.0</ele><time>2026-04-21T12:00:32Z</time></trkpt><trkpt lat="43.30607401520217" lon="12.50626837194542"><ele>741.0</ele><time>2026-04-21T12:00:33Z</time></trkpt><trkpt lat="43.30597199438807" lon="12.506300564681288"><ele>741.0</ele><time>2026-04-21T12:00:34Z</time></trkpt><trkpt lat="43.3058726364893" lon="12.506295099531592"><ele>741.0</ele><time>2026-04-21T12:00:35Z</time></trkpt><trkpt lat="43.30577774578505" lon="12.506198698552357"><ele>741.0</ele><time>2026-04-21T12:00:36Z</time></trkpt><trkpt lat="43.30566317440564" lon="12.506126129228926"><ele>741.0</ele><time>2026-04-21T12:00:37Z</time></trkpt><trkpt lat="43.30553051751312" lon="12.506047033332818"><ele>740.25</ele><time>2026-04-21T12:00:38Z</time></trkpt><trkpt lat="43.305395906189354" lon="12.505954543740193"><ele>739.5</ele><time>2026-04-21T12:00:39Z</time></trkpt><trkpt lat="43.305259020551304" lon="12.50587228153313"><ele>738.75</ele><time>2026-04-21T12:00:40Z</time></trkpt><trkpt lat="43.305123836617796" lon="12.505784705363403"><ele>738.0</ele><time>2026-04-21T12:00:41Z</time></trkpt><trkpt lat="43.304998636842996" lon="12.505702169495212"><ele>738.0</ele><time>2026-04-21T12:00:42Z</time></trkpt><trkpt lat="43.30488938950749" lon="12.5056342144887"><ele>738.0</ele><time>2026-04-21T12:00:43Z</time></trkpt><trkpt lat="43.30477837385519" lon="12.505592422797362"><ele>738.0</ele><time>2026-04-21T12:00:44Z</time></trkpt><trkpt lat="43.30466500759326" lon="12.50558755162414"><ele>738.0</ele><time>2026-04-21T12:00:45Z</time></trkpt><trkpt lat="43.30454688123257" lon="12.505619006026192"><ele>737.25</ele><time>2026-04-21T12:00:46Z</time></trkpt><trkpt lat="43.30442785056532" lon="12.505686969300626"><ele>736.5</ele><time>2026-04-21T12:00:47Z</time></trkpt><trkpt lat="43.30430719332573" lon="12.505775071985685"><ele>735.75</ele><time>2026-04-21T12:00:48Z</time></trkpt><trkpt lat="43.304180315963" lon="12.505878175782378"><ele>735.0</ele><time>2026-04-21T12:00:49Z</time></trkpt><trkpt lat="43.30404612421802" lon="12.50597368620724"><ele>734.5</ele><time>2026-04-21T12:00:50Z</time></trkpt><trkpt lat="43.30391111171675" lon="12.506070749535816"><ele>734.0</ele><time>2026-04-21T12:00:51Z</time></trkpt><trkpt lat="43.30377593293013" lon="12.506157285145383"><ele>733.5</ele><time>2026-04-21T12:00:52Z</time></trkpt><trkpt lat="43.30365149004749" lon="12.506227264567656"><ele>733.0</ele><time>2026-04-21T12:00:53Z</time></trkpt><trkpt lat="43.30353379005458" lon="12.506260513795361"><ele>732.5</ele><time>2026-04-21T12:00:54Z</time></trkpt><trkpt lat="43.303411487128336" lon="12.50621357288835"><ele>732.0</ele><time>2026-04-21T12:00:55Z</time></trkpt><trkpt lat="43.303307510107366" lon="12.50613766887157"><ele>731.5</ele><time>2026-04-21T12:00:56Z</time></trkpt><trkpt lat="43.30320563406844" lon="12.506062450141401"><ele>731.0</ele><time>2026-04-21T12:00:57Z</time></trkpt><trkpt lat="43.30311236985455" lon="12.505991013572116"><ele>732.4</ele><time>2026-04-21T12:00:58Z</time></trkpt><trkpt lat="43.303008656137955" lon="12.505975343090324"><ele>733.8</ele><time>2026-04-21T12:00:59Z</time></trkpt><trkpt lat="43.30290604966903" lon="12.505989068329685"><ele>735.1999999999999</ele><time>2026-04-21T12:00:59.999Z</time></trkpt><trkpt lat="43.30279477837854" lon="12.506043986476605"><ele>736.5999999999999</ele><time>2026-04-21T12:01:00.999Z</time></trkpt><trkpt lat="43.30268658063032" lon="12.506122059726886"><ele>738.0</ele><time>2026-04-21T12:01:01.999Z</time></trkpt><trkpt lat="43.30254839112298" lon="12.506172062983206"><ele>738.0</ele><time>2026-04-21T12:01:02.999Z</time></trkpt><trkpt lat="43.30239820612527" lon="12.506156154928767"><ele>738.0</ele><time>2026-04-21T12:01:03.999Z</time></trkpt><trkpt lat="43.30224864338484" lon="12.50614087536928"><ele>738.0</ele><time>2026-04-21T12:01:04.999Z</time></trkpt><trkpt lat="43.30209224899999" lon="12.506132543144584"><ele>738.0</ele><time>2026-04-21T12:01:05.999Z</time></trkpt><trkpt lat="43.30194055939372" lon="12.506052760985522"><ele>738.0</ele><time>2026-04-21T12:01:06.999Z</time></trkpt><trkpt lat="43.3018033284897" lon="12.505970883296433"><ele>738.0</ele><time>2026-04-21T12:01:07.999Z</time></trkpt><trkpt lat="43.30167512441661" lon="12.50592579048525"><ele>738.0</ele><time>2026-04-21T12:01:08.999Z</time></trkpt><trkpt lat="43.30156443630557" lon="12.50589013086341"><ele>738.0</ele><time>2026-04-21T12:01:09.999Z</time></trkpt><trkpt lat="43.30145947895379" lon="12.505919592591962"><ele>738.0</ele><time>2026-04-21T12:01:10.999Z</time></trkpt><trkpt lat="43.30135689603584" lon="12.506014148397867"><ele>738.0</ele><time>2026-04-21T12:01:11.999Z</time></trkpt><trkpt lat="43.301264296000554" lon="12.506124551663909"><ele>738.0</ele><time>2026-04-21T12:01:12.999Z</time></trkpt><trkpt lat="43.30118115542993" lon="12.506184630295952"><ele>738.0</ele><time>2026-04-21T12:01:13.999Z</time></trkpt><trkpt lat="43.30109264821163" lon="12.506148756799194"><ele>737.5</ele><time>2026-04-21T12:01:14.999Z</time></trkpt><trkpt lat="43.30101258079542" lon="12.50606895555728"><ele>737.0</ele><time>2026-04-21T12:01:15.999Z</time></trkpt><trkpt lat="43.300926765302705" lon="12.505974232536143"><ele>736.5</ele><time>2026-04-21T12:01:16.999Z</time></trkpt><trkpt lat="43.30082829252287" lon="12.505846886116943"><ele>736.0</ele><time>2026-04-21T12:01:17.999Z</time></trkpt><trkpt lat="43.30071120157224" lon="12.505730763712563"><ele>736.0</ele><time>2026-04-21T12:01:18.999Z</time></trkpt><trkpt lat="43.30058677546441" lon="12.505599548041033"><ele>736.0</ele><time>2026-04-21T12:01:19.999Z</time></trkpt><trkpt lat="43.30043865399375" lon="12.505498590214556"><ele>736.0</ele><time>2026-04-21T12:01:20.999Z</time></trkpt><trkpt lat="43.30027598344558" lon="12.5054165872791"><ele>736.3333333333334</ele><time>2026-04-21T12:01:21.999Z</time></trkpt><trkpt lat="43.30010862606146" lon="12.505335555092032"><ele>736.6666666666666</ele><time>2026-04-21T12:01:22.999Z</time></trkpt><trkpt lat="43.29994326507554" lon="12.505251782185818"><ele>737.0</ele><time>2026-04-21T12:01:23.999Z</time></trkpt><trkpt lat="43.29977228669125" lon="12.505156835089656"><ele>738.6666666666666</ele><time>2026-04-21T12:01:24.999Z</time></trkpt><trkpt lat="43.29959390009753" lon="12.505054953919663"><ele>740.3333333333334</ele><time>2026-04-21T12:01:25.999Z</time></trkpt><trkpt lat="43.29941208020817" lon="12.504942069496908"><ele>742.0</ele><time>2026-04-21T12:01:26.999Z</time></trkpt><trkpt lat="43.29923916425741" lon="12.504860260413606"><ele>742.0</ele><time>2026-04-21T12:01:27.999Z</time></trkpt><trkpt lat="43.29907817932726" lon="12.504780891080458"><ele>742.0</ele><time>2026-04-21T12:01:28.999Z</time></trkpt><trkpt lat="43.2989137628503" lon="12.504692385382764"><ele>742.0</ele><time>2026-04-21T12:01:29.999Z</time></trkpt><trkpt lat="43.29873468638289" lon="12.504595336887448"><ele>741.0</ele><time>2026-04-21T12:01:30.999Z</time></trkpt><trkpt lat="43.29857244986478" lon="12.504492721366955"><ele>740.0</ele><time>2026-04-21T12:01:31.999Z</time></trkpt><trkpt lat="43.29841319907128" lon="12.504397991052722"><ele>739.0</ele><time>2026-04-21T12:01:32.999Z</time></trkpt><trkpt lat="43.29825152328567" lon="12.504282209684721"><ele>739.0</ele><time>2026-04-21T12:01:33.999Z</time></trkpt><trkpt lat="43.298110795633775" lon="12.504225880546048"><ele>739.0</ele><time>2026-04-21T12:01:34.999Z</time></trkpt><trkpt lat="43.29794996296145" lon="12.504211879398902"><ele>739.0</ele><time>2026-04-21T12:01:35.999Z</time></trkpt><trkpt lat="43.297841021671566" lon="12.504235681298702"><ele>739.0</ele><time>2026-04-21T12:01:36.999Z</time></trkpt><trkpt lat="43.297697481160405" lon="12.504254006643775"><ele>741.75</ele><time>2026-04-21T12:01:37.999Z</time></trkpt><trkpt lat="43.297555448143534" lon="12.504261798368974"><ele>744.5</ele><time>2026-04-21T12:01:38.999Z</time></trkpt><trkpt lat="43.29741573099235" lon="12.50422395085754"><ele>747.25</ele><time>2026-04-21T12:01:39.999Z</time></trkpt><trkpt lat="43.29726482955196" lon="12.504160799444678"><ele>750.0</ele><time>2026-04-21T12:01:40.999Z</time></trkpt><trkpt lat="43.297100624524695" lon="12.504097441317558"><ele>756.3333333333333</ele><time>2026-04-21T12:01:41.999Z</time></trkpt><trkpt lat="43.29694372746452" lon="12.503988906062068"><ele>762.6666666666666</ele><time>2026-04-21T12:01:42.999Z</time></trkpt><trkpt lat="43.29679111362276" lon="12.503893048006407"><ele>769.0</ele><time>2026-04-21T12:01:43.999Z</time></trkpt><trkpt lat="43.2966699527658" lon="12.503793802119134"><ele>770.25</ele><time>2026-04-21T12:01:44.999Z</time></trkpt><trkpt lat="43.296588602730736" lon="12.503677618477449"><ele>771.5</ele><time>2026-04-21T12:01:45.999Z</time></trkpt><trkpt lat="43.29650327907263" lon="12.50355114812282"><ele>772.75</ele><time>2026-04-21T12:01:46.999Z</time></trkpt><trkpt lat="43.29639764441309" lon="12.503426469590156"><ele>774.0</ele><time>2026-04-21T12:01:47.999Z</time></trkpt><trkpt lat="43.296271502367205" lon="12.503330256540806"><ele>774.0</ele><time>2026-04-21T12:01:48.999Z</time></trkpt><trkpt lat="43.296138201091345" lon="12.503250274092167"><ele>774.0</ele><time>2026-04-21T12:01:49.999Z</time></trkpt><trkpt lat="43.29602785766966" lon="12.503130533274986"><ele>774.0</ele><time>2026-04-21T12:01:50.999Z</time></trkpt><trkpt lat="43.29597685273076" lon="12.502934267995"><ele>774.0</ele><time>2026-04-21T12:01:51.999Z</time></trkpt><trkpt lat="43.29588203280555" lon="12.502783220696248"><ele>770.3333333333334</ele><time>2026-04-21T12:01:52.999Z</time></trkpt><trkpt lat="43.295771640205" lon="12.502644141270993"><ele>766.6666666666667</ele><time>2026-04-21T12:01:53.999Z</time></trkpt><trkpt lat="43.295633226008526" lon="12.502511994168085"><ele>763.0</ele><time>2026-04-21T12:01:54.999Z</time></trkpt><trkpt lat="43.29548902748447" lon="12.502393260893129"><ele>763.0</ele><time>2026-04-21T12:01:55.999Z</time></trkpt><trkpt lat="43.29533661490495" lon="12.502273309479083"><ele>763.0</ele><time>2026-04-21T12:01:57Z</time></trkpt><trkpt lat="43.2951796258272" lon="12.502163519876705"><ele>763.0</ele><time>2026-04-21T12:01:58Z</time></trkpt><trkpt lat="43.29501416994355" lon="12.502072678136596"><ele>762.75</ele><time>2026-04-21T12:01:59Z</time></trkpt><trkpt lat="43.29485759767803" lon="12.501986106392062"><ele>762.5</ele><time>2026-04-21T12:02:00Z</time></trkpt><trkpt lat="43.29472372146826" lon="12.501913375907431"><ele>762.25</ele><time>2026-04-21T12:02:01Z</time></trkpt><trkpt lat="43.294614438030756" lon="12.501828987323936"><ele>762.0</ele><time>2026-04-21T12:02:02Z</time></trkpt><trkpt lat="43.29455144240111" lon="12.501685686635808"><ele>762.0</ele><time>2026-04-21T12:02:03Z</time></trkpt><trkpt lat="43.29450975412044" lon="12.501563869790782"><ele>762.0</ele><time>2026-04-21T12:02:04Z</time></trkpt><trkpt lat="43.2944308669321" lon="12.50143481642496"><ele>762.0</ele><time>2026-04-21T12:02:05Z</time></trkpt><trkpt lat="43.29434816295991" lon="12.501321451622198"><ele>762.0</ele><time>2026-04-21T12:02:06Z</time></trkpt><trkpt lat="43.29417994895376" lon="12.501340021747348"><ele>762.0</ele><time>2026-04-21T12:02:07Z</time></trkpt><trkpt lat="43.29405438437579" lon="12.501325057642605"><ele>762.0</ele><time>2026-04-21T12:02:08Z</time></trkpt><trkpt lat="43.29394853094405" lon="12.501271203642503"><ele>762.0</ele><time>2026-04-21T12:02:09Z</time></trkpt><trkpt lat="43.29386261719578" lon="12.50116117103115"><ele>762.0</ele><time>2026-04-21T12:02:10Z</time></trkpt><trkpt lat="43.29377095611603" lon="12.501009601585624"><ele>764.3333333333333</ele><time>2026-04-21T12:02:11Z</time></trkpt><trkpt lat="43.293654425393456" lon="12.500871096023934"><ele>766.6666666666666</ele><time>2026-04-21T12:02:12Z</time></trkpt><trkpt lat="43.29351974515592" lon="12.500742566826817"><ele>769.0</ele><time>2026-04-21T12:02:13Z</time></trkpt><trkpt lat="43.29338630688862" lon="12.500608627139334"><ele>769.0</ele><time>2026-04-21T12:02:14Z</time></trkpt><trkpt lat="43.29328348804656" lon="12.500478580461593"><ele>769.0</ele><time>2026-04-21T12:02:15Z</time></trkpt><trkpt lat="43.29323155272063" lon="12.500337184295615"><ele>769.0</ele><time>2026-04-21T12:02:16Z</time></trkpt><trkpt lat="43.293191279533374" lon="12.500180608398377"><ele>769.0</ele><time>2026-04-21T12:02:17Z</time></trkpt><trkpt lat="43.2931452450417" lon="12.499988873813539"><ele>774.3333333333333</ele><time>2026-04-21T12:02:18Z</time></trkpt><trkpt lat="43.29310451104301" lon="12.499781343914059"><ele>779.6666666666667</ele><time>2026-04-21T12:02:19Z</time></trkpt><trkpt lat="43.29306739397991" lon="12.499561451967699"><ele>785.0</ele><time>2026-04-21T12:02:20Z</time></trkpt><trkpt lat="43.29301853546923" lon="12.499377689361078"><ele>787.4</ele><time>2026-04-21T12:02:21Z</time></trkpt><trkpt lat="43.29298185204816" lon="12.499232451589368"><ele>789.8</ele><time>2026-04-21T12:02:22Z</time></trkpt><trkpt lat="43.292920708717205" lon="12.499147672006146"><ele>792.2</ele><time>2026-04-21T12:02:23Z</time></trkpt><trkpt lat="43.292843683118654" lon="12.499132407681614"><ele>794.6</ele><time>2026-04-21T12:02:24Z</time></trkpt><trkpt lat="43.29276312436234" lon="12.499161672978676"><ele>797.0</ele><time>2026-04-21T12:02:25Z</time></trkpt><trkpt lat="43.292679215229875" lon="12.499242825070079"><ele>797.0</ele><time>2026-04-21T12:02:26Z</time></trkpt><trkpt lat="43.29259044012706" lon="12.49937934590478"><ele>797.0</ele><time>2026-04-21T12:02:27Z</time></trkpt><trkpt lat="43.29250514072524" lon="12.499494504110132"><ele>797.0</ele><time>2026-04-21T12:02:28Z</time></trkpt><trkpt lat="43.29242064239956" lon="12.49953677128099"><ele>797.0</ele><time>2026-04-21T12:02:29Z</time></trkpt><trkpt lat="43.29233266497828" lon="12.499520514465296"><ele>797.0</ele><time>2026-04-21T12:02:30Z</time></trkpt><trkpt lat="43.29226206969862" lon="12.49945971578719"><ele>793.25</ele><time>2026-04-21T12:02:31Z</time></trkpt><trkpt lat="43.2922271979609" lon="12.499321429111854"><ele>789.5</ele><time>2026-04-21T12:02:32Z</time></trkpt><trkpt lat="43.29215644305425" lon="12.499192782799556"><ele>785.75</ele><time>2026-04-21T12:02:33Z</time></trkpt><trkpt lat="43.29206930662781" lon="12.499059404429726"><ele>782.0</ele><time>2026-04-21T12:02:34Z</time></trkpt><trkpt lat="43.291985885577034" lon="12.498903871635768"><ele>787.3333333333334</ele><time>2026-04-21T12:02:35Z</time></trkpt><trkpt lat="43.29189993585264" lon="12.498740557270192"><ele>792.6666666666667</ele><time>2026-04-21T12:02:36Z</time></trkpt><trkpt lat="43.291845012379" lon="12.498549196900969"><ele>798.0</ele><time>2026-04-21T12:02:37Z</time></trkpt><trkpt lat="43.29180061559767" lon="12.498347189973613"><ele>798.0</ele><time>2026-04-21T12:02:38Z</time></trkpt><trkpt lat="43.29175148605813" lon="12.498140458705423"><ele>798.0</ele><time>2026-04-21T12:02:39Z</time></trkpt><trkpt lat="43.291687758438364" lon="12.497945089083728"><ele>798.0</ele><time>2026-04-21T12:02:40Z</time></trkpt><trkpt lat="43.29163827237318" lon="12.497743137854021"><ele>799.75</ele><time>2026-04-21T12:02:41Z</time></trkpt><trkpt lat="43.29162870890536" lon="12.49754830075128"><ele>801.5</ele><time>2026-04-21T12:02:42Z</time></trkpt><trkpt lat="43.29159946819466" lon="12.497370702289544"><ele>803.25</ele><time>2026-04-21T12:02:43Z</time></trkpt><trkpt lat="43.291551447799996" lon="12.497201166839654"><ele>805.0</ele><time>2026-04-21T12:02:44Z</time></trkpt><trkpt lat="43.29149143090509" lon="12.497035705383148"><ele>807.0</ele><time>2026-04-21T12:02:45Z</time></trkpt><trkpt lat="43.29146556474605" lon="12.496875627242378"><ele>809.0</ele><time>2026-04-21T12:02:46Z</time></trkpt><trkpt lat="43.291483337617976" lon="12.496748324965274"><ele>811.0</ele><time>2026-04-21T12:02:47Z</time></trkpt><trkpt lat="43.29153794562658" lon="12.49662395767534"><ele>813.0</ele><time>2026-04-21T12:02:48Z</time></trkpt><trkpt lat="43.291567214449586" lon="12.496423853979143"><ele>814.25</ele><time>2026-04-21T12:02:49Z</time></trkpt><trkpt lat="43.29152383787907" lon="12.496217431152575"><ele>815.5</ele><time>2026-04-21T12:02:50Z</time></trkpt><trkpt lat="43.29147417460859" lon="12.496040248076111"><ele>816.75</ele><time>2026-04-21T12:02:51Z</time></trkpt><trkpt lat="43.291441132199125" lon="12.495891250025469"><ele>818.0</ele><time>2026-04-21T12:02:52Z</time></trkpt><trkpt lat="43.291383224687245" lon="12.495783309825004"><ele>818.0</ele><time>2026-04-21T12:02:53Z</time></trkpt><trkpt lat="43.291299649373215" lon="12.495727666162383"><ele>818.0</ele><time>2026-04-21T12:02:54Z</time></trkpt><trkpt lat="43.29118920835527" lon="12.495772130258134"><ele>818.0</ele><time>2026-04-21T12:02:55Z</time></trkpt><trkpt lat="43.29106465065343" lon="12.495799049671424"><ele>818.0</ele><time>2026-04-21T12:02:56Z</time></trkpt><trkpt lat="43.29093724277915" lon="12.495836290791187"><ele>818.0</ele><time>2026-04-21T12:02:57Z</time></trkpt><trkpt lat="43.29082119240097" lon="12.49585440720767"><ele>818.0</ele><time>2026-04-21T12:02:58Z</time></trkpt><trkpt lat="43.2907259904474" lon="12.495836698032345"><ele>818.0</ele><time>2026-04-21T12:02:59Z</time></trkpt><trkpt lat="43.2906534509008" lon="12.495733867103892"><ele>818.0</ele><time>2026-04-21T12:03:00Z</time></trkpt><trkpt lat="43.290566647474854" lon="12.495594726496336"><ele>823.0</ele><time>2026-04-21T12:03:01Z</time></trkpt><trkpt lat="43.290449597898245" lon="12.495460105298463"><ele>828.0</ele><time>2026-04-21T12:03:02Z</time></trkpt><trkpt lat="43.290333788792644" lon="12.495307075877797"><ele>833.0</ele><time>2026-04-21T12:03:03Z</time></trkpt><trkpt lat="43.29020024367063" lon="12.495180769335734"><ele>833.6666666666667</ele><time>2026-04-21T12:03:04Z</time></trkpt><trkpt lat="43.29005508336398" lon="12.495072286987417"><ele>834.3333333333333</ele><time>2026-04-21T12:03:05Z</time></trkpt><trkpt lat="43.28990880285392" lon="12.494985551645726"><ele>835.0</ele><time>2026-04-21T12:03:06Z</time></trkpt><trkpt lat="43.289792795979885" lon="12.494907085983217"><ele>832.2</ele><time>2026-04-21T12:03:07Z</time></trkpt><trkpt lat="43.28970463458995" lon="12.494809232408528"><ele>829.4</ele><time>2026-04-21T12:03:07.999Z</time></trkpt><trkpt lat="43.28967391531986" lon="12.494684651484219"><ele>826.5999999999999</ele><time>2026-04-21T12:03:08.999Z</time></trkpt><trkpt lat="43.28965825580296" lon="12.49459662267787"><ele>823.8</ele><time>2026-04-21T12:03:09.999Z</time></trkpt><trkpt lat="43.289728993055995" lon="12.494507964733746"><ele>821.0</ele><time>2026-04-21T12:03:10.999Z</time></trkpt><trkpt lat="43.2897494696611" lon="12.494368041065092"><ele>817.6666666666667</ele><time>2026-04-21T12:03:11.999Z</time></trkpt><trkpt lat="43.28973782466902" lon="12.494174567000448"><ele>814.3333333333333</ele><time>2026-04-21T12:03:12.999Z</time></trkpt><trkpt lat="43.289738375885634" lon="12.493965066790375"><ele>811.0</ele><time>2026-04-21T12:03:13.999Z</time></trkpt><trkpt lat="43.28978488017772" lon="12.49376026065046"><ele>819.0</ele><time>2026-04-21T12:03:14.999Z</time></trkpt><trkpt lat="43.289831015684655" lon="12.49354874550409"><ele>827.0</ele><time>2026-04-21T12:03:15.999Z</time></trkpt><trkpt lat="43.28986084179948" lon="12.493368681946444"><ele>835.0</ele><time>2026-04-21T12:03:16.999Z</time></trkpt><trkpt lat="43.289861368650605" lon="12.493197564643738"><ele>843.0</ele><time>2026-04-21T12:03:17.999Z</time></trkpt><trkpt lat="43.28982109427325" lon="12.49304219139131"><ele>843.5999999999999</ele><time>2026-04-21T12:03:18.999Z</time></trkpt><trkpt lat="43.289731295496466" lon="12.492922494603366"><ele>844.1999999999999</ele><time>2026-04-21T12:03:19.999Z</time></trkpt><trkpt lat="43.289668488952415" lon="12.4928115831271"><ele>844.8</ele><time>2026-04-21T12:03:20.999Z</time></trkpt><trkpt lat="43.28969074334509" lon="12.492698047939593"><ele>845.4</ele><time>2026-04-21T12:03:21.999Z</time></trkpt><trkpt lat="43.28973121494018" lon="12.492599339853395"><ele>846.0</ele><time>2026-04-21T12:03:22.999Z</time></trkpt><trkpt lat="43.289801425078046" lon="12.492496268166088"><ele>846.0</ele><time>2026-04-21T12:03:23.999Z</time></trkpt><trkpt lat="43.28989266239908" lon="12.49234865357341"><ele>846.0</ele><time>2026-04-21T12:03:24.999Z</time></trkpt><trkpt lat="43.28992538490545" lon="12.492169143156541"><ele>846.0</ele><time>2026-04-21T12:03:25.999Z</time></trkpt><trkpt lat="43.2899559459731" lon="12.49198394368309"><ele>846.0</ele><time>2026-04-21T12:03:26.999Z</time></trkpt><trkpt lat="43.28999377460206" lon="12.491826007869344"><ele>845.0</ele><time>2026-04-21T12:03:27.999Z</time></trkpt><trkpt lat="43.29005631204596" lon="12.491714065536584"><ele>844.0</ele><time>2026-04-21T12:03:28.999Z</time></trkpt><trkpt lat="43.290140800465274" lon="12.491607597833871"><ele>843.0</ele><time>2026-04-21T12:03:29.999Z</time></trkpt><trkpt lat="43.29022264969331" lon="12.491488572585016"><ele>842.0</ele><time>2026-04-21T12:03:30.999Z</time></trkpt><trkpt lat="43.290277105065954" lon="12.49136736945807"><ele>841.0</ele><time>2026-04-21T12:03:31.999Z</time></trkpt><trkpt lat="43.290293814333985" lon="12.491225839527758"><ele>840.4</ele><time>2026-04-21T12:03:32.999Z</time></trkpt><trkpt lat="43.290284593142474" lon="12.491113424677012"><ele>839.8</ele><time>2026-04-21T12:03:33.999Z</time></trkpt><trkpt lat="43.29023708015534" lon="12.49101753882213"><ele>839.1999999999999</ele><time>2026-04-21T12:03:34.999Z</time></trkpt><trkpt lat="43.29014288666401" lon="12.49094598916227"><ele>838.5999999999999</ele><time>2026-04-21T12:03:35.999Z</time></trkpt><trkpt lat="43.29001698738957" lon="12.490884547614751"><ele>838.0</ele><time>2026-04-21T12:03:36.999Z</time></trkpt><trkpt lat="43.28993225944224" lon="12.490770581256305"><ele>838.0</ele><time>2026-04-21T12:03:37.999Z</time></trkpt><trkpt lat="43.289850819500344" lon="12.490647812545339"><ele>838.0</ele><time>2026-04-21T12:03:38.999Z</time></trkpt><trkpt lat="43.28977614341056" lon="12.490528888755499"><ele>838.0</ele><time>2026-04-21T12:03:39.999Z</time></trkpt><trkpt lat="43.28973259612593" lon="12.490431680531874"><ele>838.0</ele><time>2026-04-21T12:03:40.999Z</time></trkpt><trkpt lat="43.289718451418715" lon="12.490340342854198"><ele>838.0</ele><time>2026-04-21T12:03:41.999Z</time></trkpt><trkpt lat="43.289692514871945" lon="12.490228243866687"><ele>837.1666666666666</ele><time>2026-04-21T12:03:43.999Z</time></trkpt><trkpt lat="43.28963388838848" lon="12.490185482786622"><ele>836.3333333333333</ele><time>2026-04-21T12:03:44.999Z</time></trkpt><trkpt lat="43.289568583768826" lon="12.490145395659566"><ele>835.5</ele><time>2026-04-21T12:03:45.999Z</time></trkpt><trkpt lat="43.28948130238668" lon="12.49011253597481"><ele>834.6666666666667</ele><time>2026-04-21T12:03:46.999Z</time></trkpt><trkpt lat="43.289384282348415" lon="12.490103897567879"><ele>833.8333333333334</ele><time>2026-04-21T12:03:47.999Z</time></trkpt><trkpt lat="43.28928444485164" lon="12.490071401065377"><ele>833.0</ele><time>2026-04-21T12:03:48.999Z</time></trkpt><trkpt lat="43.28916672067059" lon="12.490047928635047"><ele>833.0</ele><time>2026-04-21T12:03:49.999Z</time></trkpt><trkpt lat="43.289036880377694" lon="12.490045035225073"><ele>833.0</ele><time>2026-04-21T12:03:50.999Z</time></trkpt><trkpt lat="43.28889711053851" lon="12.490064395054663"><ele>833.0</ele><time>2026-04-21T12:03:51.999Z</time></trkpt><trkpt lat="43.288745034507535" lon="12.490081546545063"><ele>833.0</ele><time>2026-04-21T12:03:52.999Z</time></trkpt><trkpt lat="43.28861251114425" lon="12.49002468813129"><ele>833.0</ele><time>2026-04-21T12:03:53.999Z</time></trkpt><trkpt lat="43.288486891024945" lon="12.489962706644842"><ele>833.0</ele><time>2026-04-21T12:03:54.999Z</time></trkpt><trkpt lat="43.28835111779711" lon="12.489979055641646"><ele>833.0</ele><time>2026-04-21T12:03:55.999Z</time></trkpt><trkpt lat="43.28821080341811" lon="12.489997566141785"><ele>833.0</ele><time>2026-04-21T12:03:56.999Z</time></trkpt><trkpt lat="43.28806068732275" lon="12.490055295280406"><ele>835.0</ele><time>2026-04-21T12:03:57.999Z</time></trkpt><trkpt lat="43.28791658494567" lon="12.490089597201976"><ele>837.0</ele><time>2026-04-21T12:03:58.999Z</time></trkpt><trkpt lat="43.28778674717131" lon="12.490045657847098"><ele>839.0</ele><time>2026-04-21T12:03:59.999Z</time></trkpt><trkpt lat="43.287606479169185" lon="12.489897963194503"><ele>839.0</ele><time>2026-04-21T12:04:01.999Z</time></trkpt><trkpt lat="43.28751488748092" lon="12.489812489779524"><ele>839.0</ele><time>2026-04-21T12:04:03Z</time></trkpt><trkpt lat="43.28744323400673" lon="12.489675794546248"><ele>839.0</ele><time>2026-04-21T12:04:04Z</time></trkpt><trkpt lat="43.287382597286175" lon="12.489554802394725"><ele>839.0</ele><time>2026-04-21T12:04:05Z</time></trkpt><trkpt lat="43.28730783796513" lon="12.489481191798589"><ele>839.0</ele><time>2026-04-21T12:04:06Z</time></trkpt><trkpt lat="43.287214455934645" lon="12.489445694238704"><ele>838.4000000000001</ele><time>2026-04-21T12:04:07Z</time></trkpt><trkpt lat="43.28710709030947" lon="12.489378441139115"><ele>837.8</ele><time>2026-04-21T12:04:08Z</time></trkpt><trkpt lat="43.287014796587265" lon="12.489281741199646"><ele>837.2</ele><time>2026-04-21T12:04:09Z</time></trkpt><trkpt lat="43.286971755092495" lon="12.489146738181065"><ele>836.5999999999999</ele><time>2026-04-21T12:04:10Z</time></trkpt><trkpt lat="43.28697303842419" lon="12.489018672518982"><ele>836.0</ele><time>2026-04-21T12:04:11Z</time></trkpt><trkpt lat="43.287001862218055" lon="12.488897230249504"><ele>835.0</ele><time>2026-04-21T12:04:12Z</time></trkpt><trkpt lat="43.28701006441477" lon="12.4887558524818"><ele>834.0</ele><time>2026-04-21T12:04:13Z</time></trkpt><trkpt lat="43.286993813333474" lon="12.488637559004871"><ele>833.0</ele><time>2026-04-21T12:04:14Z</time></trkpt><trkpt lat="43.28696237728728" lon="12.488532206058027"><ele>832.0</ele><time>2026-04-21T12:04:15Z</time></trkpt><trkpt lat="43.286922156823124" lon="12.488420778935295"><ele>831.0</ele><time>2026-04-21T12:04:16Z</time></trkpt><trkpt lat="43.28683277697443" lon="12.488342981065761"><ele>831.0</ele><time>2026-04-21T12:04:17Z</time></trkpt><trkpt lat="43.286715551685276" lon="12.488314565724998"><ele>831.0</ele><time>2026-04-21T12:04:18Z</time></trkpt><trkpt lat="43.286580201809244" lon="12.488281127943903"><ele>831.0</ele><time>2026-04-21T12:04:19Z</time></trkpt><trkpt lat="43.28642316029293" lon="12.488245313520226"><ele>831.0</ele><time>2026-04-21T12:04:20Z</time></trkpt><trkpt lat="43.286254247747614" lon="12.488210616444293"><ele>829.3333333333333</ele><time>2026-04-21T12:04:21Z</time></trkpt><trkpt lat="43.286094256147784" lon="12.488192660831105"><ele>827.6666666666666</ele><time>2026-04-21T12:04:22Z</time></trkpt><trkpt lat="43.285932247591624" lon="12.488167935146578"><ele>826.0</ele><time>2026-04-21T12:04:23Z</time></trkpt><trkpt lat="43.28578624792416" lon="12.488134618967134"><ele>826.0</ele><time>2026-04-21T12:04:24Z</time></trkpt><trkpt lat="43.28567336045649" lon="12.488074488425164"><ele>826.0</ele><time>2026-04-21T12:04:25Z</time></trkpt><trkpt lat="43.285581856912636" lon="12.487974876836525"><ele>826.0</ele><time>2026-04-21T12:04:26Z</time></trkpt><trkpt lat="43.2855177979165" lon="12.487843044759677"><ele>826.0</ele><time>2026-04-21T12:04:27Z</time></trkpt><trkpt lat="43.285471016721324" lon="12.487705796085944"><ele>822.0</ele><time>2026-04-21T12:04:28Z</time></trkpt><trkpt lat="43.28541047465192" lon="12.487597936424288"><ele>818.0</ele><time>2026-04-21T12:04:29Z</time></trkpt><trkpt lat="43.28531598197363" lon="12.487508740797407"><ele>814.0</ele><time>2026-04-21T12:04:30Z</time></trkpt><trkpt lat="43.2852065196567" lon="12.48742732508232"><ele>810.0</ele><time>2026-04-21T12:04:31Z</time></trkpt><trkpt lat="43.28509643116417" lon="12.487305947204483"><ele>810.0</ele><time>2026-04-21T12:04:32Z</time></trkpt><trkpt lat="43.28496842857656" lon="12.487201115334338"><ele>810.0</ele><time>2026-04-21T12:04:33Z</time></trkpt><trkpt lat="43.284839293001546" lon="12.48710240988631"><ele>810.0</ele><time>2026-04-21T12:04:34Z</time></trkpt><trkpt lat="43.28469663151534" lon="12.487016042774293"><ele>809.3333333333333</ele><time>2026-04-21T12:04:35Z</time></trkpt><trkpt lat="43.284537604908515" lon="12.486969220756732"><ele>808.6666666666666</ele><time>2026-04-21T12:04:36Z</time></trkpt><trkpt lat="43.28438229934973" lon="12.486925261193953"><ele>808.0</ele><time>2026-04-21T12:04:37Z</time></trkpt><trkpt lat="43.2842351134306" lon="12.48687092378448"><ele>808.0</ele><time>2026-04-21T12:04:38Z</time></trkpt><trkpt lat="43.28409723681896" lon="12.486810524100447"><ele>808.0</ele><time>2026-04-21T12:04:39Z</time></trkpt><trkpt lat="43.28397348411604" lon="12.48674183324977"><ele>808.0</ele><time>2026-04-21T12:04:40Z</time></trkpt><trkpt lat="43.2838484973344" lon="12.486656192766647"><ele>808.0</ele><time>2026-04-21T12:04:41Z</time></trkpt><trkpt lat="43.283719173015356" lon="12.48656591707087"><ele>806.0</ele><time>2026-04-21T12:04:42Z</time></trkpt><trkpt lat="43.283578428499325" lon="12.486483222450682"><ele>804.0</ele><time>2026-04-21T12:04:43Z</time></trkpt><trkpt lat="43.283438535093886" lon="12.4864136388491"><ele>802.0</ele><time>2026-04-21T12:04:44Z</time></trkpt><trkpt lat="43.28331000166925" lon="12.486348134167608"><ele>800.0</ele><time>2026-04-21T12:04:45Z</time></trkpt><trkpt lat="43.28319626916742" lon="12.486279891370087"><ele>798.6666666666667</ele><time>2026-04-21T12:04:46Z</time></trkpt><trkpt lat="43.28309982918138" lon="12.48621175942923"><ele>797.3333333333334</ele><time>2026-04-21T12:04:47Z</time></trkpt><trkpt lat="43.28302813476716" lon="12.486140340190767"><ele>796.0</ele><time>2026-04-21T12:04:48Z</time></trkpt><trkpt lat="43.28300793619513" lon="12.486056566424866"><ele>794.6666666666667</ele><time>2026-04-21T12:04:49Z</time></trkpt><trkpt lat="43.2830315872641" lon="12.485919222041408"><ele>793.3333333333334</ele><time>2026-04-21T12:04:51Z</time></trkpt><trkpt lat="43.28308247284088" lon="12.485848872637613"><ele>792.0</ele><time>2026-04-21T12:04:52Z</time></trkpt><trkpt lat="43.283150872780546" lon="12.48575396686414"><ele>792.0</ele><time>2026-04-21T12:04:53Z</time></trkpt><trkpt lat="43.28321722343773" lon="12.485629304694633"><ele>792.0</ele><time>2026-04-21T12:04:54Z</time></trkpt><trkpt lat="43.283273552798015" lon="12.48547674136125"><ele>792.0</ele><time>2026-04-21T12:04:55Z</time></trkpt><trkpt lat="43.283280618267945" lon="12.485276673489835"><ele>792.0</ele><time>2026-04-21T12:04:56Z</time></trkpt><trkpt lat="43.283267496440345" lon="12.48508199405282"><ele>789.25</ele><time>2026-04-21T12:04:57Z</time></trkpt><trkpt lat="43.28325193370566" lon="12.484877236162685"><ele>786.5</ele><time>2026-04-21T12:04:58Z</time></trkpt><trkpt lat="43.283233030979865" lon="12.484673661544663"><ele>783.75</ele><time>2026-04-21T12:04:59Z</time></trkpt><trkpt lat="43.283233035845335" lon="12.48448094324251"><ele>781.0</ele><time>2026-04-21T12:05:00Z</time></trkpt><trkpt lat="43.28327901628553" lon="12.484312814339159"><ele>779.0</ele><time>2026-04-21T12:05:01Z</time></trkpt><trkpt lat="43.28333824701778" lon="12.48415168187452"><ele>777.0</ele><time>2026-04-21T12:05:02Z</time></trkpt><trkpt lat="43.283402177781355" lon="12.484006886724027"><ele>775.0</ele><time>2026-04-21T12:05:03Z</time></trkpt><trkpt lat="43.28347084803414" lon="12.4838788467862"><ele>773.0</ele><time>2026-04-21T12:05:04Z</time></trkpt><trkpt lat="43.28352157985301" lon="12.48374247957117"><ele>771.8333333333334</ele><time>2026-04-21T12:05:05Z</time></trkpt><trkpt lat="43.283532752937326" lon="12.483602800313653"><ele>770.6666666666667</ele><time>2026-04-21T12:05:06Z</time></trkpt><trkpt lat="43.283506089567396" lon="12.483488452962611"><ele>769.5</ele><time>2026-04-21T12:05:07Z</time></trkpt><trkpt lat="43.28346075466341" lon="12.483408714037518"><ele>768.3333333333334</ele><time>2026-04-21T12:05:08Z</time></trkpt><trkpt lat="43.28340912693649" lon="12.483331377543482"><ele>767.1666666666667</ele><time>2026-04-21T12:05:09Z</time></trkpt><trkpt lat="43.28333485758989" lon="12.483222117440791"><ele>766.0</ele><time>2026-04-21T12:05:10Z</time></trkpt><trkpt lat="43.28325944547073" lon="12.48312400902675"><ele>766.0</ele><time>2026-04-21T12:05:11Z</time></trkpt><trkpt lat="43.28318049283877" lon="12.48303439441469"><ele>766.0</ele><time>2026-04-21T12:05:12Z</time></trkpt><trkpt lat="43.283086703406504" lon="12.482962130956253"><ele>766.0</ele><time>2026-04-21T12:05:13Z</time></trkpt><trkpt lat="43.282974166574505" lon="12.482937366980345"><ele>766.0</ele><time>2026-04-21T12:05:14Z</time></trkpt><trkpt lat="43.28286029290481" lon="12.482932099200811"><ele>766.0</ele><time>2026-04-21T12:05:15Z</time></trkpt><trkpt lat="43.28274458441401" lon="12.48295660118884"><ele>762.75</ele><time>2026-04-21T12:05:16Z</time></trkpt><trkpt lat="43.282625760420835" lon="12.482935561042794"><ele>759.5</ele><time>2026-04-21T12:05:17Z</time></trkpt><trkpt lat="43.28250495811611" lon="12.482907388257319"><ele>756.25</ele><time>2026-04-21T12:05:18Z</time></trkpt><trkpt lat="43.28238725363701" lon="12.48290050991463"><ele>753.0</ele><time>2026-04-21T12:05:19Z</time></trkpt><trkpt lat="43.282288601928755" lon="12.482932763513135"><ele>749.0</ele><time>2026-04-21T12:05:19.999Z</time></trkpt><trkpt lat="43.28221613347336" lon="12.482957588067071"><ele>745.0</ele><time>2026-04-21T12:05:20.999Z</time></trkpt><trkpt lat="43.28215437522643" lon="12.483032412725272"><ele>741.0</ele><time>2026-04-21T12:05:21.999Z</time></trkpt><trkpt lat="43.28213046551113" lon="12.483154320595565"><ele>737.0</ele><time>2026-04-21T12:05:22.999Z</time></trkpt><trkpt lat="43.28213189890519" lon="12.483294621526156"><ele>733.0</ele><time>2026-04-21T12:05:23.999Z</time></trkpt><trkpt lat="43.282159219920786" lon="12.483444587514132"><ele>733.0</ele><time>2026-04-21T12:05:24.999Z</time></trkpt><trkpt lat="43.28221110641523" lon="12.483585400395151"><ele>733.0</ele><time>2026-04-21T12:05:25.999Z</time></trkpt><trkpt lat="43.28226973866063" lon="12.48371969854154"><ele>733.0</ele><time>2026-04-21T12:05:26.999Z</time></trkpt><trkpt lat="43.28232052936022" lon="12.483857310342263"><ele>733.0</ele><time>2026-04-21T12:05:27.999Z</time></trkpt><trkpt lat="43.2823459847526" lon="12.483989540115443"><ele>733.0</ele><time>2026-04-21T12:05:28.999Z</time></trkpt><trkpt lat="43.282341781130185" lon="12.484101946976587"><ele>736.6666666666667</ele><time>2026-04-21T12:05:29.999Z</time></trkpt><trkpt lat="43.28230395414473" lon="12.484186863564634"><ele>740.3333333333334</ele><time>2026-04-21T12:05:30.999Z</time></trkpt><trkpt lat="43.28223848465299" lon="12.484218868980623"><ele>744.0</ele><time>2026-04-21T12:05:31.999Z</time></trkpt><trkpt lat="43.2821649401583" lon="12.484213045587365"><ele>747.6666666666666</ele><time>2026-04-21T12:05:32.999Z</time></trkpt><trkpt lat="43.28209008039944" lon="12.484157438906818"><ele>751.3333333333333</ele><time>2026-04-21T12:05:33.999Z</time></trkpt><trkpt lat="43.28198927415507" lon="12.484064468955717"><ele>755.0</ele><time>2026-04-21T12:05:34.999Z</time></trkpt><trkpt lat="43.28188713025873" lon="12.483923297618853"><ele>755.0</ele><time>2026-04-21T12:05:35.999Z</time></trkpt><trkpt lat="43.28178017209025" lon="12.483767706091202"><ele>755.0</ele><time>2026-04-21T12:05:36.999Z</time></trkpt><trkpt lat="43.28167545922119" lon="12.48361158647794"><ele>755.0</ele><time>2026-04-21T12:05:37.999Z</time></trkpt><trkpt lat="43.28156489176754" lon="12.483458669201532"><ele>749.5</ele><time>2026-04-21T12:05:38.999Z</time></trkpt><trkpt lat="43.28145182269466" lon="12.483321752952385"><ele>744.0</ele><time>2026-04-21T12:05:39.999Z</time></trkpt><trkpt lat="43.28133715289253" lon="12.483195278503796"><ele>738.5</ele><time>2026-04-21T12:05:40.999Z</time></trkpt><trkpt lat="43.28122198927469" lon="12.483081098664156"><ele>733.0</ele><time>2026-04-21T12:05:41.999Z</time></trkpt><trkpt lat="43.281104123761885" lon="12.482978848179268"><ele>727.0</ele><time>2026-04-21T12:05:42.999Z</time></trkpt><trkpt lat="43.28098190940535" lon="12.482894773327647"><ele>721.0</ele><time>2026-04-21T12:05:43.999Z</time></trkpt><trkpt lat="43.28084630691075" lon="12.482843516431569"><ele>715.0</ele><time>2026-04-21T12:05:44.999Z</time></trkpt><trkpt lat="43.28071188918124" lon="12.482824928949933"><ele>709.0</ele><time>2026-04-21T12:05:45.999Z</time></trkpt><trkpt lat="43.28057795546123" lon="12.482776817980872"><ele>709.0</ele><time>2026-04-21T12:05:46.999Z</time></trkpt><trkpt lat="43.28045726563659" lon="12.482702923247073"><ele>709.0</ele><time>2026-04-21T12:05:47.999Z</time></trkpt><trkpt lat="43.28032673108918" lon="12.48261949154184"><ele>709.0</ele><time>2026-04-21T12:05:48.999Z</time></trkpt><trkpt lat="43.28019916233746" lon="12.48253507018193"><ele>709.0</ele><time>2026-04-21T12:05:49.999Z</time></trkpt><trkpt lat="43.280071037925865" lon="12.482439245396854"><ele>709.0</ele><time>2026-04-21T12:05:50.999Z</time></trkpt><trkpt lat="43.279955684791425" lon="12.482335992681106"><ele>709.0</ele><time>2026-04-21T12:05:51.999Z</time></trkpt><trkpt lat="43.27985844609393" lon="12.482237485171327"><ele>709.0</ele><time>2026-04-21T12:05:52.999Z</time></trkpt><trkpt lat="43.27980068159035" lon="12.4821372541581"><ele>709.0</ele><time>2026-04-21T12:05:53.999Z</time></trkpt><trkpt lat="43.279742642365704" lon="12.481890171352616"><ele>707.75</ele><time>2026-04-21T12:05:55.999Z</time></trkpt><trkpt lat="43.279715381590414" lon="12.481749097359973"><ele>706.5</ele><time>2026-04-21T12:05:56.999Z</time></trkpt><trkpt lat="43.27967371718424" lon="12.481603644415163"><ele>705.25</ele><time>2026-04-21T12:05:57.999Z</time></trkpt><trkpt lat="43.279617050693666" lon="12.481453163397056"><ele>704.0</ele><time>2026-04-21T12:05:58.999Z</time></trkpt><trkpt lat="43.27954745686105" lon="12.481289235607756"><ele>701.0</ele><time>2026-04-21T12:05:59.999Z</time></trkpt><trkpt lat="43.27946562449491" lon="12.481121504131467"><ele>698.0</ele><time>2026-04-21T12:06:00.999Z</time></trkpt><trkpt lat="43.27937291379021" lon="12.480951772609902"><ele>695.0</ele><time>2026-04-21T12:06:01.999Z</time></trkpt><trkpt lat="43.27926845744294" lon="12.480774760399315"><ele>695.0</ele><time>2026-04-21T12:06:02.999Z</time></trkpt><trkpt lat="43.27915846682554" lon="12.480585640789611"><ele>695.0</ele><time>2026-04-21T12:06:03.999Z</time></trkpt><trkpt lat="43.27904564045193" lon="12.48038262930767"><ele>695.0</ele><time>2026-04-21T12:06:04.999Z</time></trkpt><trkpt lat="43.27892234271932" lon="12.480182284117026"><ele>692.6666666666666</ele><time>2026-04-21T12:06:05.999Z</time></trkpt><trkpt lat="43.278787804812374" lon="12.4799793315317"><ele>690.3333333333334</ele><time>2026-04-21T12:06:06.999Z</time></trkpt><trkpt lat="43.27864013996868" lon="12.479792914905177"><ele>688.0</ele><time>2026-04-21T12:06:07.999Z</time></trkpt><trkpt lat="43.2785053237061" lon="12.47957445814582"><ele>688.0</ele><time>2026-04-21T12:06:09Z</time></trkpt><trkpt lat="43.2783442615976" lon="12.479367708286537"><ele>688.0</ele><time>2026-04-21T12:06:10Z</time></trkpt><trkpt lat="43.27816921499157" lon="12.479148617384508"><ele>683.5</ele><time>2026-04-21T12:06:11Z</time></trkpt><trkpt lat="43.277994429200774" lon="12.478929003947256"><ele>679.0</ele><time>2026-04-21T12:06:12Z</time></trkpt><trkpt lat="43.277823357185525" lon="12.47870012813568"><ele>678.5</ele><time>2026-04-21T12:06:13Z</time></trkpt><trkpt lat="43.277651919579135" lon="12.478449878811062"><ele>678.0</ele><time>2026-04-21T12:06:14Z</time></trkpt><trkpt lat="43.27749244920932" lon="12.47819136742348"><ele>677.5</ele><time>2026-04-21T12:06:15Z</time></trkpt><trkpt lat="43.27733906042974" lon="12.477929678995189"><ele>677.0</ele><time>2026-04-21T12:06:16Z</time></trkpt><trkpt lat="43.27718721960809" lon="12.47766594862107"><ele>677.0</ele><time>2026-04-21T12:06:17Z</time></trkpt><trkpt lat="43.27704045982966" lon="12.47740620569392"><ele>677.0</ele><time>2026-04-21T12:06:18Z</time></trkpt><trkpt lat="43.2768887871604" lon="12.47713776584067"><ele>677.0</ele><time>2026-04-21T12:06:19Z</time></trkpt><trkpt lat="43.276739149643525" lon="12.476870260203533"><ele>677.0</ele><time>2026-04-21T12:06:20Z</time></trkpt><trkpt lat="43.27659316073472" lon="12.476608251041283"><ele>677.0</ele><time>2026-04-21T12:06:21Z</time></trkpt><trkpt lat="43.27645100292915" lon="12.476346646072615"><ele>677.0</ele><time>2026-04-21T12:06:22Z</time></trkpt><trkpt lat="43.27631572521637" lon="12.476091100826945"><ele>679.3333333333333</ele><time>2026-04-21T12:06:23Z</time></trkpt><trkpt lat="43.27618860448478" lon="12.47584783607545"><ele>681.6666666666666</ele><time>2026-04-21T12:06:24Z</time></trkpt><trkpt lat="43.276059172337725" lon="12.47560183383363"><ele>684.0</ele><time>2026-04-21T12:06:25Z</time></trkpt><trkpt lat="43.27593172503844" lon="12.47536258284245"><ele>684.6666666666666</ele><time>2026-04-21T12:06:26Z</time></trkpt><trkpt lat="43.27580431966235" lon="12.475124186942226"><ele>685.3333333333333</ele><time>2026-04-21T12:06:27Z</time></trkpt><trkpt lat="43.27567253251281" lon="12.474884740716744"><ele>686.0</ele><time>2026-04-21T12:06:28Z</time></trkpt><trkpt lat="43.27555693000752" lon="12.474691657764687"><ele>686.0</ele><time>2026-04-21T12:06:29Z</time></trkpt><trkpt lat="43.27544207043802" lon="12.474511082229949"><ele>686.0</ele><time>2026-04-21T12:06:30Z</time></trkpt><trkpt lat="43.275310692201174" lon="12.474311740870986"><ele>686.0</ele><time>2026-04-21T12:06:31Z</time></trkpt><trkpt lat="43.27517678363859" lon="12.474107551610969"><ele>686.0</ele><time>2026-04-21T12:06:32Z</time></trkpt><trkpt lat="43.27504006992175" lon="12.473898716090707"><ele>686.0</ele><time>2026-04-21T12:06:33Z</time></trkpt><trkpt lat="43.27490486690796" lon="12.473691411182404"><ele>686.0</ele><time>2026-04-21T12:06:34Z</time></trkpt><trkpt lat="43.27477723795798" lon="12.473488667288539"><ele>686.0</ele><time>2026-04-21T12:06:35Z</time></trkpt><trkpt lat="43.274653882857706" lon="12.473278083516831"><ele>686.0</ele><time>2026-04-21T12:06:36Z</time></trkpt><trkpt lat="43.27455643058192" lon="12.473109041890861"><ele>686.0</ele><time>2026-04-21T12:06:37Z</time></trkpt><trkpt lat="43.27444840219023" lon="12.472928614827135"><ele>687.3333333333333</ele><time>2026-04-21T12:06:38Z</time></trkpt><trkpt lat="43.274337308366555" lon="12.472746940087816"><ele>688.6666666666666</ele><time>2026-04-21T12:06:39Z</time></trkpt><trkpt lat="43.274216756081785" lon="12.472553985332533"><ele>690.0</ele><time>2026-04-21T12:06:40Z</time></trkpt><trkpt lat="43.2740906759901" lon="12.472361694677154"><ele>690.0</ele><time>2026-04-21T12:06:41Z</time></trkpt><trkpt lat="43.273958808277186" lon="12.472166972836968"><ele>690.0</ele><time>2026-04-21T12:06:42Z</time></trkpt><trkpt lat="43.27383288895423" lon="12.471994178196915"><ele>690.0</ele><time>2026-04-21T12:06:43Z</time></trkpt><trkpt lat="43.27371269449697" lon="12.471842736247373"><ele>688.6666666666666</ele><time>2026-04-21T12:06:44Z</time></trkpt><trkpt lat="43.27359623044251" lon="12.471686204599742"><ele>687.3333333333333</ele><time>2026-04-21T12:06:45Z</time></trkpt><trkpt lat="43.27347421526161" lon="12.47152098306043"><ele>686.0</ele><time>2026-04-21T12:06:46Z</time></trkpt><trkpt lat="43.27334826048341" lon="12.471364404617187"><ele>685.5999999999999</ele><time>2026-04-21T12:06:47Z</time></trkpt><trkpt lat="43.273230588451746" lon="12.471249484378987"><ele>685.2</ele><time>2026-04-21T12:06:48Z</time></trkpt><trkpt lat="43.273129685283934" lon="12.471180354941675"><ele>684.8</ele><time>2026-04-21T12:06:49Z</time></trkpt><trkpt lat="43.273055231137185" lon="12.471151193023134"><ele>684.4000000000001</ele><time>2026-04-21T12:06:50Z</time></trkpt><trkpt lat="43.272960319109416" lon="12.471109128539299"><ele>684.0</ele><time>2026-04-21T12:06:52Z</time></trkpt><trkpt lat="43.272789285767516" lon="12.47125506879201"><ele>684.0</ele><time>2026-04-21T12:06:54Z</time></trkpt><trkpt lat="43.27268420156771" lon="12.47126158978987"><ele>684.0</ele><time>2026-04-21T12:06:55Z</time></trkpt><trkpt lat="43.27255615350458" lon="12.471255304809716"><ele>684.0</ele><time>2026-04-21T12:06:56Z</time></trkpt><trkpt lat="43.272401718082705" lon="12.471248845278772"><ele>684.0</ele><time>2026-04-21T12:06:57Z</time></trkpt><trkpt lat="43.272233436125376" lon="12.471248044054754"><ele>681.0</ele><time>2026-04-21T12:06:58Z</time></trkpt><trkpt lat="43.27206063027712" lon="12.471252843479668"><ele>678.0</ele><time>2026-04-21T12:06:59Z</time></trkpt><trkpt lat="43.27187823995714" lon="12.471253733853843"><ele>675.0</ele><time>2026-04-21T12:07:00Z</time></trkpt><trkpt lat="43.271687424280785" lon="12.471254312822747"><ele>675.0</ele><time>2026-04-21T12:07:01Z</time></trkpt><trkpt lat="43.27149461601654" lon="12.471242816983239"><ele>675.0</ele><time>2026-04-21T12:07:02Z</time></trkpt><trkpt lat="43.27129987619673" lon="12.471227924010815"><ele>675.0</ele><time>2026-04-21T12:07:03Z</time></trkpt><trkpt lat="43.27111000021058" lon="12.471205590836894"><ele>674.0</ele><time>2026-04-21T12:07:04Z</time></trkpt><trkpt lat="43.270933845625116" lon="12.471188745995908"><ele>673.0</ele><time>2026-04-21T12:07:05Z</time></trkpt><trkpt lat="43.27075929300277" lon="12.471173881563402"><ele>672.0</ele><time>2026-04-21T12:07:06Z</time></trkpt><trkpt lat="43.27057720743168" lon="12.471143477297865"><ele>675.0</ele><time>2026-04-21T12:07:07Z</time></trkpt><trkpt lat="43.27039176865814" lon="12.471101738239108"><ele>678.0</ele><time>2026-04-21T12:07:08Z</time></trkpt><trkpt lat="43.2702043886773" lon="12.47104062959438"><ele>681.0</ele><time>2026-04-21T12:07:09Z</time></trkpt><trkpt lat="43.27001083227694" lon="12.470955435564225"><ele>681.0</ele><time>2026-04-21T12:07:10Z</time></trkpt><trkpt lat="43.269827112375296" lon="12.470869208778593"><ele>681.0</ele><time>2026-04-21T12:07:11Z</time></trkpt><trkpt lat="43.26966433843895" lon="12.470786818363985"><ele>681.0</ele><time>2026-04-21T12:07:12Z</time></trkpt><trkpt lat="43.26951952654029" lon="12.470712315920062"><ele>681.0</ele><time>2026-04-21T12:07:13Z</time></trkpt><trkpt lat="43.26941071263612" lon="12.470634417406416"><ele>681.0</ele><time>2026-04-21T12:07:14Z</time></trkpt><trkpt lat="43.26931642418678" lon="12.47052847026529"><ele>681.0</ele><time>2026-04-21T12:07:15Z</time></trkpt><trkpt lat="43.269205676383294" lon="12.470376367431104"><ele>681.0</ele><time>2026-04-21T12:07:16Z</time></trkpt><trkpt lat="43.269086622683" lon="12.470208802014216"><ele>682.0</ele><time>2026-04-21T12:07:17Z</time></trkpt><trkpt lat="43.26896919002619" lon="12.470060560720055"><ele>683.0</ele><time>2026-04-21T12:07:18Z</time></trkpt><trkpt lat="43.268860639594976" lon="12.469929221443731"><ele>684.0</ele><time>2026-04-21T12:07:19Z</time></trkpt><trkpt lat="43.26877151885526" lon="12.469773033718194"><ele>685.0</ele><time>2026-04-21T12:07:20Z</time></trkpt><trkpt lat="43.26869773021582" lon="12.469580732832238"><ele>689.6666666666667</ele><time>2026-04-21T12:07:21Z</time></trkpt><trkpt lat="43.26863710381514" lon="12.469369708923175"><ele>694.3333333333334</ele><time>2026-04-21T12:07:22Z</time></trkpt><trkpt lat="43.268547751690996" lon="12.469145079968504"><ele>699.0</ele><time>2026-04-21T12:07:23Z</time></trkpt><trkpt lat="43.268449665253485" lon="12.468920524149151"><ele>698.0</ele><time>2026-04-21T12:07:24Z</time></trkpt><trkpt lat="43.26837102475004" lon="12.468704684092636"><ele>697.0</ele><time>2026-04-21T12:07:25Z</time></trkpt><trkpt lat="43.26832212884256" lon="12.468515706680185"><ele>696.0</ele><time>2026-04-21T12:07:26Z</time></trkpt><trkpt lat="43.26827052249075" lon="12.46833834342649"><ele>696.0</ele><time>2026-04-21T12:07:27Z</time></trkpt><trkpt lat="43.26819714186271" lon="12.468183774706972"><ele>696.0</ele><time>2026-04-21T12:07:28Z</time></trkpt><trkpt lat="43.2681023932457" lon="12.468042136945025"><ele>696.0</ele><time>2026-04-21T12:07:29Z</time></trkpt><trkpt lat="43.267980294295015" lon="12.467898331478496"><ele>696.0</ele><time>2026-04-21T12:07:30Z</time></trkpt><trkpt lat="43.26785210535001" lon="12.467739619627004"><ele>698.25</ele><time>2026-04-21T12:07:30.999Z</time></trkpt><trkpt lat="43.267755145588175" lon="12.467580746279316"><ele>700.5</ele><time>2026-04-21T12:07:31.999Z</time></trkpt><trkpt lat="43.26768370896719" lon="12.467406308356084"><ele>702.75</ele><time>2026-04-21T12:07:32.999Z</time></trkpt><trkpt lat="43.26764063673238" lon="12.467238293021468"><ele>705.0</ele><time>2026-04-21T12:07:33.999Z</time></trkpt><trkpt lat="43.267595960264856" lon="12.467022413554185"><ele>706.3333333333334</ele><time>2026-04-21T12:07:34.999Z</time></trkpt><trkpt lat="43.26755228893585" lon="12.466782186903348"><ele>707.6666666666667</ele><time>2026-04-21T12:07:35.999Z</time></trkpt><trkpt lat="43.26750676876448" lon="12.4665425569648"><ele>709.0</ele><time>2026-04-21T12:07:36.999Z</time></trkpt><trkpt lat="43.2674604394927" lon="12.466341781269762"><ele>707.0</ele><time>2026-04-21T12:07:37.999Z</time></trkpt><trkpt lat="43.26740985944385" lon="12.46615184402014"><ele>705.0</ele><time>2026-04-21T12:07:38.999Z</time></trkpt><trkpt lat="43.267355385056035" lon="12.465965227229791"><ele>703.0</ele><time>2026-04-21T12:07:39.999Z</time></trkpt><trkpt lat="43.267316089128336" lon="12.465762896249311"><ele>701.0</ele><time>2026-04-21T12:07:40.999Z</time></trkpt><trkpt lat="43.267295021394446" lon="12.465546753192978"><ele>700.0</ele><time>2026-04-21T12:07:41.999Z</time></trkpt><trkpt lat="43.26729215924265" lon="12.465341613960478"><ele>699.0</ele><time>2026-04-21T12:07:42.999Z</time></trkpt><trkpt lat="43.26729682320719" lon="12.465151669187355"><ele>698.0</ele><time>2026-04-21T12:07:43.999Z</time></trkpt><trkpt lat="43.267298722534626" lon="12.464974767194626"><ele>697.0</ele><time>2026-04-21T12:07:44.999Z</time></trkpt><trkpt lat="43.267285414665146" lon="12.464801162010204"><ele>698.5</ele><time>2026-04-21T12:07:45.999Z</time></trkpt><trkpt lat="43.26725852971407" lon="12.464627810258234"><ele>700.0</ele><time>2026-04-21T12:07:46.999Z</time></trkpt><trkpt lat="43.267217310414885" lon="12.464453659638693"><ele>701.5</ele><time>2026-04-21T12:07:47.999Z</time></trkpt><trkpt lat="43.26717273127579" lon="12.464261265963724"><ele>703.0</ele><time>2026-04-21T12:07:48.999Z</time></trkpt><trkpt lat="43.26714211382894" lon="12.464056748445667"><ele>700.0</ele><time>2026-04-21T12:07:49.999Z</time></trkpt><trkpt lat="43.267178061343714" lon="12.463851203567385"><ele>697.0</ele><time>2026-04-21T12:07:50.999Z</time></trkpt><trkpt lat="43.26718101662517" lon="12.463661337742877"><ele>694.0</ele><time>2026-04-21T12:07:51.999Z</time></trkpt><trkpt lat="43.267182420679944" lon="12.463470549813259"><ele>691.0</ele><time>2026-04-21T12:07:52.999Z</time></trkpt><trkpt lat="43.267167102022505" lon="12.463301213122648"><ele>689.75</ele><time>2026-04-21T12:07:53.999Z</time></trkpt><trkpt lat="43.26713141427288" lon="12.463134792107317"><ele>688.5</ele><time>2026-04-21T12:07:54.999Z</time></trkpt><trkpt lat="43.26707077406847" lon="12.462979415935138"><ele>687.25</ele><time>2026-04-21T12:07:55.999Z</time></trkpt><trkpt lat="43.266986704269534" lon="12.462821201042836"><ele>686.0</ele><time>2026-04-21T12:07:56.999Z</time></trkpt><trkpt lat="43.266893673888525" lon="12.462646984112295"><ele>684.0</ele><time>2026-04-21T12:07:57.999Z</time></trkpt><trkpt lat="43.26679167197805" lon="12.462467700237733"><ele>682.0</ele><time>2026-04-21T12:07:58.999Z</time></trkpt><trkpt lat="43.266684784595284" lon="12.462276073242856"><ele>680.0</ele><time>2026-04-21T12:07:59.999Z</time></trkpt><trkpt lat="43.26658552983206" lon="12.462077352259879"><ele>675.3333333333333</ele><time>2026-04-21T12:08:00.999Z</time></trkpt><trkpt lat="43.26649025947132" lon="12.461875252894037"><ele>670.6666666666666</ele><time>2026-04-21T12:08:01.999Z</time></trkpt><trkpt lat="43.26639767017456" lon="12.461673566798577"><ele>666.0</ele><time>2026-04-21T12:08:02.999Z</time></trkpt><trkpt lat="43.266301663534264" lon="12.461457873214037"><ele>664.0</ele><time>2026-04-21T12:08:03.999Z</time></trkpt><trkpt lat="43.266224327284775" lon="12.461249463548823"><ele>662.0</ele><time>2026-04-21T12:08:04.999Z</time></trkpt><trkpt lat="43.26616709902219" lon="12.46103720896187"><ele>660.0</ele><time>2026-04-21T12:08:05.999Z</time></trkpt><trkpt lat="43.266111216915114" lon="12.46082279328289"><ele>660.0</ele><time>2026-04-21T12:08:06.999Z</time></trkpt><trkpt lat="43.26605437535596" lon="12.46060497735507"><ele>660.0</ele><time>2026-04-21T12:08:07.999Z</time></trkpt><trkpt lat="43.26599163420228" lon="12.46039159511769"><ele>660.0</ele><time>2026-04-21T12:08:08.999Z</time></trkpt><trkpt lat="43.265925678806" lon="12.460192526728148"><ele>660.5</ele><time>2026-04-21T12:08:09.999Z</time></trkpt><trkpt lat="43.2658375343885" lon="12.460028089873758"><ele>661.0</ele><time>2026-04-21T12:08:10.999Z</time></trkpt><trkpt lat="43.265731675667794" lon="12.459896586238767"><ele>661.5</ele><time>2026-04-21T12:08:11.999Z</time></trkpt><trkpt lat="43.26563022555829" lon="12.459777581883502"><ele>662.0</ele><time>2026-04-21T12:08:12.999Z</time></trkpt><trkpt lat="43.265524697059476" lon="12.459660464624962"><ele>662.5</ele><time>2026-04-21T12:08:13.999Z</time></trkpt><trkpt lat="43.26541801173526" lon="12.459535411296557"><ele>663.0</ele><time>2026-04-21T12:08:15Z</time></trkpt><trkpt lat="43.265313243370244" lon="12.459392746201024"><ele>663.5</ele><time>2026-04-21T12:08:16Z</time></trkpt><trkpt lat="43.26520503076076" lon="12.45924163737475"><ele>664.0</ele><time>2026-04-21T12:08:17Z</time></trkpt><trkpt lat="43.26508533590068" lon="12.459092171474538"><ele>664.0</ele><time>2026-04-21T12:08:18Z</time></trkpt><trkpt lat="43.2649496837455" lon="12.458957824531286"><ele>664.0</ele><time>2026-04-21T12:08:19Z</time></trkpt><trkpt lat="43.26480568586466" lon="12.458825075374973"><ele>664.0</ele><time>2026-04-21T12:08:20Z</time></trkpt><trkpt lat="43.26466202661179" lon="12.458677182563244"><ele>662.6666666666667</ele><time>2026-04-21T12:08:21Z</time></trkpt><trkpt lat="43.264508022861214" lon="12.458534946347937"><ele>661.3333333333334</ele><time>2026-04-21T12:08:22Z</time></trkpt><trkpt lat="43.2643608302097" lon="12.458384432817674"><ele>660.0</ele><time>2026-04-21T12:08:23Z</time></trkpt><trkpt lat="43.26421294918632" lon="12.458220957130502"><ele>660.0</ele><time>2026-04-21T12:08:24Z</time></trkpt><trkpt lat="43.26404579736006" lon="12.458106466189188"><ele>660.0</ele><time>2026-04-21T12:08:25Z</time></trkpt><trkpt lat="43.26389318245344" lon="12.45800002581893"><ele>660.0</ele><time>2026-04-21T12:08:26Z</time></trkpt><trkpt lat="43.26374590299158" lon="12.457908015307739"><ele>658.3333333333334</ele><time>2026-04-21T12:08:27Z</time></trkpt><trkpt lat="43.26363405364337" lon="12.457762523854585"><ele>656.6666666666667</ele><time>2026-04-21T12:08:28Z</time></trkpt><trkpt lat="43.26350588264834" lon="12.4576227441717"><ele>655.0</ele><time>2026-04-21T12:08:29Z</time></trkpt><trkpt lat="43.26337431625894" lon="12.45749308889893"><ele>655.0</ele><time>2026-04-21T12:08:30Z</time></trkpt><trkpt lat="43.2632228482768" lon="12.45738081771904"><ele>655.0</ele><time>2026-04-21T12:08:31Z</time></trkpt><trkpt lat="43.26306482599434" lon="12.457269370179027"><ele>655.0</ele><time>2026-04-21T12:08:32Z</time></trkpt><trkpt lat="43.262880363612396" lon="12.45718100795941"><ele>652.3333333333334</ele><time>2026-04-21T12:08:33Z</time></trkpt><trkpt lat="43.26270171498455" lon="12.457092760896437"><ele>649.6666666666666</ele><time>2026-04-21T12:08:34Z</time></trkpt><trkpt lat="43.26253350013441" lon="12.457032349123038"><ele>647.0</ele><time>2026-04-21T12:08:35Z</time></trkpt><trkpt lat="43.26237690114534" lon="12.456963307833867"><ele>646.6666666666666</ele><time>2026-04-21T12:08:36Z</time></trkpt><trkpt lat="43.262215641464444" lon="12.45693935786964"><ele>646.3333333333334</ele><time>2026-04-21T12:08:37Z</time></trkpt><trkpt lat="43.26206872489962" lon="12.45688907513474"><ele>646.0</ele><time>2026-04-21T12:08:38Z</time></trkpt><trkpt lat="43.261929304165086" lon="12.456820768204688"><ele>646.0</ele><time>2026-04-21T12:08:39Z</time></trkpt><trkpt lat="43.2617933720384" lon="12.456726468367567"><ele>646.0</ele><time>2026-04-21T12:08:40Z</time></trkpt><trkpt lat="43.26166120886478" lon="12.45661990985308"><ele>646.0</ele><time>2026-04-21T12:08:41Z</time></trkpt><trkpt lat="43.26152657912045" lon="12.456521883461642"><ele>643.5</ele><time>2026-04-21T12:08:42Z</time></trkpt><trkpt lat="43.26139103151835" lon="12.45642900827063"><ele>641.0</ele><time>2026-04-21T12:08:43Z</time></trkpt><trkpt lat="43.26125479508442" lon="12.456348417623502"><ele>638.5</ele><time>2026-04-21T12:08:44Z</time></trkpt><trkpt lat="43.26111496898461" lon="12.456285345230413"><ele>636.0</ele><time>2026-04-21T12:08:45Z</time></trkpt><trkpt lat="43.26097593042899" lon="12.456250879121754"><ele>636.0</ele><time>2026-04-21T12:08:46Z</time></trkpt><trkpt lat="43.26083663568657" lon="12.456243529894971"><ele>636.0</ele><time>2026-04-21T12:08:47Z</time></trkpt><trkpt lat="43.2606955440931" lon="12.456264460987406"><ele>636.0</ele><time>2026-04-21T12:08:48Z</time></trkpt><trkpt lat="43.260547298932885" lon="12.45628834267304"><ele>636.0</ele><time>2026-04-21T12:08:49Z</time></trkpt><trkpt lat="43.26039420108903" lon="12.456289123515988"><ele>639.3333333333334</ele><time>2026-04-21T12:08:50Z</time></trkpt><trkpt lat="43.260233686183405" lon="12.456278320770288"><ele>642.6666666666667</ele><time>2026-04-21T12:08:51Z</time></trkpt><trkpt lat="43.26006738715258" lon="12.456241258621686"><ele>646.0</ele><time>2026-04-21T12:08:52Z</time></trkpt><trkpt lat="43.25989523396761" lon="12.45625320394824"><ele>645.3333333333334</ele><time>2026-04-21T12:08:53Z</time></trkpt><trkpt lat="43.259728686869494" lon="12.456245857692126"><ele>644.6666666666666</ele><time>2026-04-21T12:08:54Z</time></trkpt><trkpt lat="43.25956079186001" lon="12.4562379552194"><ele>644.0</ele><time>2026-04-21T12:08:55Z</time></trkpt><trkpt lat="43.259399405635904" lon="12.456218920907578"><ele>644.0</ele><time>2026-04-21T12:08:56Z</time></trkpt><trkpt lat="43.25924508324145" lon="12.45619191031552"><ele>644.0</ele><time>2026-04-21T12:08:57Z</time></trkpt><trkpt lat="43.25909383066905" lon="12.456162698529733"><ele>644.0</ele><time>2026-04-21T12:08:58Z</time></trkpt><trkpt lat="43.25895231146115" lon="12.456137698001868"><ele>640.0</ele><time>2026-04-21T12:08:59Z</time></trkpt><trkpt lat="43.25881559966443" lon="12.456111193079403"><ele>636.0</ele><time>2026-04-21T12:09:00Z</time></trkpt><trkpt lat="43.258689259577295" lon="12.456070910199276"><ele>632.0</ele><time>2026-04-21T12:09:01Z</time></trkpt><trkpt lat="43.25858077496711" lon="12.455982304920626"><ele>628.0</ele><time>2026-04-21T12:09:02Z</time></trkpt><trkpt lat="43.25846488834063" lon="12.455906039359407"><ele>628.0</ele><time>2026-04-21T12:09:03Z</time></trkpt><trkpt lat="43.2583426765791" lon="12.455845419662161"><ele>628.0</ele><time>2026-04-21T12:09:04Z</time></trkpt><trkpt lat="43.25821651512252" lon="12.455787758084247"><ele>628.0</ele><time>2026-04-21T12:09:05Z</time></trkpt><trkpt lat="43.25808903712594" lon="12.455758365675795"><ele>628.0</ele><time>2026-04-21T12:09:06Z</time></trkpt><trkpt lat="43.25796550696035" lon="12.455743938194306"><ele>624.0</ele><time>2026-04-21T12:09:07Z</time></trkpt><trkpt lat="43.257843404561015" lon="12.45572089825298"><ele>620.0</ele><time>2026-04-21T12:09:08Z</time></trkpt><trkpt lat="43.257731351535895" lon="12.455687627384"><ele>616.0</ele><time>2026-04-21T12:09:09Z</time></trkpt><trkpt lat="43.257640302966024" lon="12.45560940223542"><ele>612.0</ele><time>2026-04-21T12:09:10Z</time></trkpt><trkpt lat="43.25757494627497" lon="12.455504838398465"><ele>608.0</ele><time>2026-04-21T12:09:11Z</time></trkpt><trkpt lat="43.25753288518829" lon="12.455381229477974"><ele>607.75</ele><time>2026-04-21T12:09:12Z</time></trkpt><trkpt lat="43.25751331070977" lon="12.45525121536826"><ele>607.5</ele><time>2026-04-21T12:09:13Z</time></trkpt><trkpt lat="43.257513451027805" lon="12.45508783712975"><ele>607.25</ele><time>2026-04-21T12:09:14Z</time></trkpt><trkpt lat="43.25754505529274" lon="12.454920907184754"><ele>607.0</ele><time>2026-04-21T12:09:15Z</time></trkpt><trkpt lat="43.257567206337924" lon="12.454741165191237"><ele>605.0</ele><time>2026-04-21T12:09:16Z</time></trkpt><trkpt lat="43.25755482378647" lon="12.454564406024607"><ele>603.0</ele><time>2026-04-21T12:09:17Z</time></trkpt><trkpt lat="43.25752392291322" lon="12.45439898332126"><ele>601.0</ele><time>2026-04-21T12:09:18Z</time></trkpt><trkpt lat="43.257476762871256" lon="12.454223151387707"><ele>599.0</ele><time>2026-04-21T12:09:19Z</time></trkpt><trkpt lat="43.25740662539049" lon="12.454054886185185"><ele>599.0</ele><time>2026-04-21T12:09:20Z</time></trkpt><trkpt lat="43.25732205805116" lon="12.453893108058526"><ele>599.0</ele><time>2026-04-21T12:09:21Z</time></trkpt><trkpt lat="43.25721983454425" lon="12.453729809899903"><ele>599.0</ele><time>2026-04-21T12:09:22Z</time></trkpt><trkpt lat="43.25710751549503" lon="12.453562820106024"><ele>592.6666666666666</ele><time>2026-04-21T12:09:23Z</time></trkpt><trkpt lat="43.256972076429946" lon="12.453411267455968"><ele>586.3333333333334</ele><time>2026-04-21T12:09:24Z</time></trkpt><trkpt lat="43.25683967448855" lon="12.453245344082166"><ele>580.0</ele><time>2026-04-21T12:09:25Z</time></trkpt><trkpt lat="43.25669926064758" lon="12.453080337070372"><ele>576.3333333333334</ele><time>2026-04-21T12:09:26Z</time></trkpt><trkpt lat="43.256555561181884" lon="12.452906990590405"><ele>572.6666666666666</ele><time>2026-04-21T12:09:27Z</time></trkpt><trkpt lat="43.25641531611738" lon="12.452735911420007"><ele>569.0</ele><time>2026-04-21T12:09:28Z</time></trkpt><trkpt lat="43.25627567556183" lon="12.452570100545715"><ele>569.0</ele><time>2026-04-21T12:09:29Z</time></trkpt><trkpt lat="43.2561504773763" lon="12.452386669924227"><ele>569.0</ele><time>2026-04-21T12:09:30Z</time></trkpt><trkpt lat="43.256012280698535" lon="12.452203926142035"><ele>569.0</ele><time>2026-04-21T12:09:31Z</time></trkpt><trkpt lat="43.25588613240915" lon="12.452006227791227"><ele>568.6666666666666</ele><time>2026-04-21T12:09:32Z</time></trkpt><trkpt lat="43.255758453915405" lon="12.451807407505145"><ele>568.3333333333334</ele><time>2026-04-21T12:09:33Z</time></trkpt><trkpt lat="43.25563324777561" lon="12.451601777110895"><ele>568.0</ele><time>2026-04-21T12:09:34Z</time></trkpt><trkpt lat="43.25551093678613" lon="12.451388803652224"><ele>573.6666666666667</ele><time>2026-04-21T12:09:35Z</time></trkpt><trkpt lat="43.25539255581084" lon="12.451174513340508"><ele>579.3333333333334</ele><time>2026-04-21T12:09:36Z</time></trkpt><trkpt lat="43.255282946918534" lon="12.450955935097506"><ele>585.0</ele><time>2026-04-21T12:09:37Z</time></trkpt><trkpt lat="43.25520008265696" lon="12.45072466290842"><ele>585.0</ele><time>2026-04-21T12:09:38Z</time></trkpt><trkpt lat="43.25514309664257" lon="12.45048813005008"><ele>585.0</ele><time>2026-04-21T12:09:39Z</time></trkpt><trkpt lat="43.25512103016444" lon="12.450262766240556"><ele>585.0</ele><time>2026-04-21T12:09:40Z</time></trkpt><trkpt lat="43.25512478666883" lon="12.450023824616368"><ele>584.3333333333334</ele><time>2026-04-21T12:09:41Z</time></trkpt><trkpt lat="43.25513670831009" lon="12.449781973396707"><ele>583.6666666666667</ele><time>2026-04-21T12:09:42Z</time></trkpt><trkpt lat="43.25514464391987" lon="12.449542970790228"><ele>583.0</ele><time>2026-04-21T12:09:43Z</time></trkpt><trkpt lat="43.25513993857777" lon="12.449316990119103"><ele>581.8</ele><time>2026-04-21T12:09:44Z</time></trkpt><trkpt lat="43.25512596472905" lon="12.44911028631455"><ele>580.5999999999999</ele><time>2026-04-21T12:09:45Z</time></trkpt><trkpt lat="43.255088896587985" lon="12.44894783951288"><ele>579.4000000000001</ele><time>2026-04-21T12:09:46Z</time></trkpt><trkpt lat="43.25505672800672" lon="12.448832922783344"><ele>578.2</ele><time>2026-04-21T12:09:46.999Z</time></trkpt><trkpt lat="43.255004483885514" lon="12.448777252506119"><ele>577.0</ele><time>2026-04-21T12:09:47.999Z</time></trkpt><trkpt lat="43.254933152053724" lon="12.448760681613065"><ele>575.25</ele><time>2026-04-21T12:09:48.999Z</time></trkpt><trkpt lat="43.254845172471406" lon="12.448779414770556"><ele>573.5</ele><time>2026-04-21T12:09:49.999Z</time></trkpt><trkpt lat="43.2547389321891" lon="12.44883224880188"><ele>571.75</ele><time>2026-04-21T12:09:50.999Z</time></trkpt><trkpt lat="43.25461168285979" lon="12.448905717368527"><ele>570.0</ele><time>2026-04-21T12:09:51.999Z</time></trkpt><trkpt lat="43.25445957237794" lon="12.448957950672762"><ele>570.0</ele><time>2026-04-21T12:09:52.999Z</time></trkpt><trkpt lat="43.25429109416071" lon="12.448938840115922"><ele>570.0</ele><time>2026-04-21T12:09:53.999Z</time></trkpt><trkpt lat="43.25412100293546" lon="12.448897583046879"><ele>570.0</ele><time>2026-04-21T12:09:54.999Z</time></trkpt><trkpt lat="43.25396149931424" lon="12.448842193711101"><ele>563.3333333333334</ele><time>2026-04-21T12:09:55.999Z</time></trkpt><trkpt lat="43.25381925719467" lon="12.448759662855835"><ele>556.6666666666667</ele><time>2026-04-21T12:09:56.999Z</time></trkpt><trkpt lat="43.253676165332905" lon="12.448650491444868"><ele>550.0</ele><time>2026-04-21T12:09:57.999Z</time></trkpt><trkpt lat="43.253522313266" lon="12.448531874092001"><ele>550.0</ele><time>2026-04-21T12:09:58.999Z</time></trkpt><trkpt lat="43.25336435951834" lon="12.448406126736744"><ele>550.0</ele><time>2026-04-21T12:09:59.999Z</time></trkpt><trkpt lat="43.253204966416156" lon="12.448271413194147"><ele>550.0</ele><time>2026-04-21T12:10:00.999Z</time></trkpt><trkpt lat="43.2530435899625" lon="12.448130149577766"><ele>549.6666666666667</ele><time>2026-04-21T12:10:01.999Z</time></trkpt><trkpt lat="43.25287940720741" lon="12.44798138060943"><ele>549.3333333333334</ele><time>2026-04-21T12:10:02.999Z</time></trkpt><trkpt lat="43.252716045623146" lon="12.447834553611036"><ele>549.0</ele><time>2026-04-21T12:10:03.999Z</time></trkpt><trkpt lat="43.25254906062221" lon="12.447711656336548"><ele>549.0</ele><time>2026-04-21T12:10:04.999Z</time></trkpt><trkpt lat="43.2523890741932" lon="12.447568060288635"><ele>549.0</ele><time>2026-04-21T12:10:05.999Z</time></trkpt><trkpt lat="43.25224077093264" lon="12.447402660070155"><ele>549.0</ele><time>2026-04-21T12:10:06.999Z</time></trkpt><trkpt lat="43.252079329198395" lon="12.447259294559442"><ele>548.6666666666666</ele><time>2026-04-21T12:10:07.999Z</time></trkpt><trkpt lat="43.251917175810426" lon="12.447124257964846"><ele>548.3333333333333</ele><time>2026-04-21T12:10:08.999Z</time></trkpt><trkpt lat="43.25176965837649" lon="12.446989457336533"><ele>548.0</ele><time>2026-04-21T12:10:09.999Z</time></trkpt><trkpt lat="43.25164262105545" lon="12.446837401526517"><ele>548.0</ele><time>2026-04-21T12:10:10.999Z</time></trkpt><trkpt lat="43.25152601813991" lon="12.446655478665813"><ele>548.0</ele><time>2026-04-21T12:10:11.999Z</time></trkpt><trkpt lat="43.25141167410455" lon="12.44645323597718"><ele>548.0</ele><time>2026-04-21T12:10:12.999Z</time></trkpt><trkpt lat="43.251285473256885" lon="12.446251882459896"><ele>548.6666666666666</ele><time>2026-04-21T12:10:13.999Z</time></trkpt><trkpt lat="43.25114648819727" lon="12.446062126312182"><ele>549.3333333333334</ele><time>2026-04-21T12:10:14.999Z</time></trkpt><trkpt lat="43.251023202510446" lon="12.445844421193287"><ele>550.0</ele><time>2026-04-21T12:10:15.999Z</time></trkpt><trkpt lat="43.25086059578242" lon="12.445665174185223"><ele>550.0</ele><time>2026-04-21T12:10:16.999Z</time></trkpt><trkpt lat="43.25070328772079" lon="12.445485725547057"><ele>550.0</ele><time>2026-04-21T12:10:17.999Z</time></trkpt><trkpt lat="43.250549592226356" lon="12.445325632400177"><ele>550.0</ele><time>2026-04-21T12:10:18.999Z</time></trkpt><trkpt lat="43.25041974957856" lon="12.445153515327668"><ele>550.0</ele><time>2026-04-21T12:10:19.999Z</time></trkpt><trkpt lat="43.25031228974258" lon="12.444989090245306"><ele>550.0</ele><time>2026-04-21T12:10:21Z</time></trkpt><trkpt lat="43.25022189205402" lon="12.444805250174003"><ele>550.0</ele><time>2026-04-21T12:10:22Z</time></trkpt><trkpt lat="43.2501343515816" lon="12.44461024230255"><ele>551.0</ele><time>2026-04-21T12:10:23Z</time></trkpt><trkpt lat="43.25002769311218" lon="12.44440695075432"><ele>552.0</ele><time>2026-04-21T12:10:24Z</time></trkpt><trkpt lat="43.24988538361332" lon="12.444249175595838"><ele>553.0</ele><time>2026-04-21T12:10:25Z</time></trkpt><trkpt lat="43.2497338223985" lon="12.444103518381725"><ele>553.0</ele><time>2026-04-21T12:10:26Z</time></trkpt><trkpt lat="43.24956239270233" lon="12.443990839389768"><ele>553.0</ele><time>2026-04-21T12:10:27Z</time></trkpt><trkpt lat="43.249382350143186" lon="12.443908904401237"><ele>553.0</ele><time>2026-04-21T12:10:28Z</time></trkpt><trkpt lat="43.24920527143721" lon="12.443795307383644"><ele>554.0</ele><time>2026-04-21T12:10:29Z</time></trkpt><trkpt lat="43.24903529669925" lon="12.443673865452507"><ele>555.0</ele><time>2026-04-21T12:10:30Z</time></trkpt><trkpt lat="43.248867583191476" lon="12.443564305728948"><ele>556.0</ele><time>2026-04-21T12:10:31Z</time></trkpt><trkpt lat="43.248720147947395" lon="12.44345381633252"><ele>556.0</ele><time>2026-04-21T12:10:32Z</time></trkpt><trkpt lat="43.24856522091536" lon="12.443380402784596"><ele>556.0</ele><time>2026-04-21T12:10:33Z</time></trkpt><trkpt lat="43.248410985813386" lon="12.443361595803427"><ele>556.0</ele><time>2026-04-21T12:10:34Z</time></trkpt><trkpt lat="43.2482447618732" lon="12.443381993627204"><ele>555.6666666666667</ele><time>2026-04-21T12:10:35Z</time></trkpt><trkpt lat="43.24807140478254" lon="12.443420569786657"><ele>555.3333333333334</ele><time>2026-04-21T12:10:36Z</time></trkpt><trkpt lat="43.247893991391535" lon="12.44347169006461"><ele>555.0</ele><time>2026-04-21T12:10:37Z</time></trkpt><trkpt lat="43.24771736664628" lon="12.443542764302528"><ele>555.0</ele><time>2026-04-21T12:10:38Z</time></trkpt><trkpt lat="43.247544845066344" lon="12.44363993456333"><ele>555.0</ele><time>2026-04-21T12:10:39Z</time></trkpt><trkpt lat="43.247395521434036" lon="12.44373272415872"><ele>555.0</ele><time>2026-04-21T12:10:40Z</time></trkpt><trkpt lat="43.247248155782" lon="12.44379865686722"><ele>554.0</ele><time>2026-04-21T12:10:41Z</time></trkpt><trkpt lat="43.24711699289836" lon="12.44382839134064"><ele>553.0</ele><time>2026-04-21T12:10:42Z</time></trkpt><trkpt lat="43.246987353582945" lon="12.443820000338832"><ele>552.0</ele><time>2026-04-21T12:10:43Z</time></trkpt><trkpt lat="43.24688300897328" lon="12.443870707603061"><ele>551.0</ele><time>2026-04-21T12:10:44Z</time></trkpt><trkpt lat="43.24679096267713" lon="12.443940756457309"><ele>551.0</ele><time>2026-04-21T12:10:45Z</time></trkpt><trkpt lat="43.24672282297709" lon="12.444066017194269"><ele>551.0</ele><time>2026-04-21T12:10:46Z</time></trkpt><trkpt lat="43.24666549331021" lon="12.44421727147977"><ele>551.0</ele><time>2026-04-21T12:10:47Z</time></trkpt><trkpt lat="43.246607513555794" lon="12.444389764624928"><ele>551.0</ele><time>2026-04-21T12:10:48Z</time></trkpt><trkpt lat="43.24655765760856" lon="12.444586217654745"><ele>547.6666666666666</ele><time>2026-04-21T12:10:49Z</time></trkpt><trkpt lat="43.24651734239216" lon="12.444800476257203"><ele>544.3333333333334</ele><time>2026-04-21T12:10:50Z</time></trkpt><trkpt lat="43.246489935486174" lon="12.445018310518023"><ele>541.0</ele><time>2026-04-21T12:10:51Z</time></trkpt><trkpt lat="43.246468646169966" lon="12.445231243121192"><ele>541.0</ele><time>2026-04-21T12:10:52Z</time></trkpt><trkpt lat="43.24646462499783" lon="12.445428426523305"><ele>541.0</ele><time>2026-04-21T12:10:53Z</time></trkpt><trkpt lat="43.2464678743472" lon="12.445602150245449"><ele>541.0</ele><time>2026-04-21T12:10:54Z</time></trkpt><trkpt lat="43.246473836445524" lon="12.445740384721299"><ele>541.0</ele><time>2026-04-21T12:10:55Z</time></trkpt><trkpt lat="43.24647382386159" lon="12.44586019627228"><ele>540.2</ele><time>2026-04-21T12:10:56Z</time></trkpt><trkpt lat="43.24644117236303" lon="12.445957634335219"><ele>539.4000000000001</ele><time>2026-04-21T12:10:57Z</time></trkpt><trkpt lat="43.24637416526562" lon="12.44602986733908"><ele>538.6</ele><time>2026-04-21T12:10:58Z</time></trkpt><trkpt lat="43.24626952211914" lon="12.4460351705461"><ele>537.8000000000001</ele><time>2026-04-21T12:10:59Z</time></trkpt><trkpt lat="43.2461429976566" lon="12.446101536223287"><ele>537.0</ele><time>2026-04-21T12:11:00Z</time></trkpt><trkpt lat="43.24599457079587" lon="12.446152627776824"><ele>537.0</ele><time>2026-04-21T12:11:01Z</time></trkpt><trkpt lat="43.24585008038232" lon="12.446210174082998"><ele>537.0</ele><time>2026-04-21T12:11:02Z</time></trkpt><trkpt lat="43.24572166365444" lon="12.446258489509459"><ele>537.0</ele><time>2026-04-21T12:11:03Z</time></trkpt><trkpt lat="43.24561721524518" lon="12.44629292999262"><ele>537.0</ele><time>2026-04-21T12:11:04Z</time></trkpt><trkpt lat="43.245536219096834" lon="12.44633148815786"><ele>530.8000000000001</ele><time>2026-04-21T12:11:05Z</time></trkpt><trkpt lat="43.245479231859655" lon="12.446398846364236"><ele>524.6</ele><time>2026-04-21T12:11:06Z</time></trkpt><trkpt lat="43.2454507285495" lon="12.446493795459961"><ele>518.4000000000001</ele><time>2026-04-21T12:11:07Z</time></trkpt><trkpt lat="43.24545848895202" lon="12.44661183250609"><ele>512.2</ele><time>2026-04-21T12:11:08Z</time></trkpt><trkpt lat="43.245474092056945" lon="12.446754623270095"><ele>506.0</ele><time>2026-04-21T12:11:09Z</time></trkpt><trkpt lat="43.24549175993546" lon="12.44693388536733"><ele>506.0</ele><time>2026-04-21T12:11:10Z</time></trkpt><trkpt lat="43.24549801136498" lon="12.447126671914619"><ele>506.0</ele><time>2026-04-21T12:11:11Z</time></trkpt><trkpt lat="43.24550169308029" lon="12.44733214958015"><ele>506.0</ele><time>2026-04-21T12:11:12Z</time></trkpt><trkpt lat="43.245507811264574" lon="12.447533268199933"><ele>506.0</ele><time>2026-04-21T12:11:13Z</time></trkpt><trkpt lat="43.24551187182156" lon="12.447707701559382"><ele>504.0</ele><time>2026-04-21T12:11:14Z</time></trkpt><trkpt lat="43.245512475697026" lon="12.447855426223777"><ele>502.0</ele><time>2026-04-21T12:11:15Z</time></trkpt><trkpt lat="43.24549721681535" lon="12.447986333257075"><ele>500.0</ele><time>2026-04-21T12:11:16Z</time></trkpt><trkpt lat="43.24546094143624" lon="12.448102909403149"><ele>498.0</ele><time>2026-04-21T12:11:17Z</time></trkpt><trkpt lat="43.24540064026757" lon="12.448189698624056"><ele>496.0</ele><time>2026-04-21T12:11:18Z</time></trkpt><trkpt lat="43.24531221963942" lon="12.448217463960354"><ele>495.4</ele><time>2026-04-21T12:11:19Z</time></trkpt><trkpt lat="43.2452289595662" lon="12.448240387770449"><ele>494.8</ele><time>2026-04-21T12:11:20Z</time></trkpt><trkpt lat="43.24513121145699" lon="12.448268816965593"><ele>494.19999999999993</ele><time>2026-04-21T12:11:21Z</time></trkpt><trkpt lat="43.24503914956486" lon="12.44821463210369"><ele>493.59999999999997</ele><time>2026-04-21T12:11:22Z</time></trkpt><trkpt lat="43.24497350659877" lon="12.448128218731846"><ele>493.0</ele><time>2026-04-21T12:11:23Z</time></trkpt><trkpt lat="43.24492601597803" lon="12.448037169950767"><ele>493.59999999999997</ele><time>2026-04-21T12:11:24Z</time></trkpt><trkpt lat="43.24491681631612" lon="12.44792690252569"><ele>494.19999999999993</ele><time>2026-04-21T12:11:25Z</time></trkpt><trkpt lat="43.24493351864022" lon="12.44778331882428"><ele>494.8</ele><time>2026-04-21T12:11:26Z</time></trkpt><trkpt lat="43.2449445115255" lon="12.44761306930135"><ele>495.4</ele><time>2026-04-21T12:11:27Z</time></trkpt><trkpt lat="43.24495759570092" lon="12.447437631612543"><ele>496.0</ele><time>2026-04-21T12:11:28Z</time></trkpt><trkpt lat="43.24495945073372" lon="12.44727507726499"><ele>495.8</ele><time>2026-04-21T12:11:29Z</time></trkpt><trkpt lat="43.24493369015066" lon="12.447123589189713"><ele>495.6</ele><time>2026-04-21T12:11:30Z</time></trkpt><trkpt lat="43.24489183441209" lon="12.44699254724859"><ele>495.4</ele><time>2026-04-21T12:11:31Z</time></trkpt><trkpt lat="43.244829420712236" lon="12.446887909363138"><ele>495.2</ele><time>2026-04-21T12:11:32Z</time></trkpt><trkpt lat="43.24474392066677" lon="12.446812697200578"><ele>495.0</ele><time>2026-04-21T12:11:33Z</time></trkpt><trkpt lat="43.24464111429503" lon="12.44676376316938"><ele>495.0</ele><time>2026-04-21T12:11:34Z</time></trkpt><trkpt lat="43.24452368824323" lon="12.446727570134524"><ele>495.0</ele><time>2026-04-21T12:11:35Z</time></trkpt><trkpt lat="43.24439279095653" lon="12.446718811361203"><ele>495.0</ele><time>2026-04-21T12:11:36Z</time></trkpt><trkpt lat="43.244251186037005" lon="12.446723610130999"><ele>495.0</ele><time>2026-04-21T12:11:37Z</time></trkpt><trkpt lat="43.24410320552325" lon="12.446691992396282"><ele>490.0</ele><time>2026-04-21T12:11:38Z</time></trkpt><trkpt lat="43.2439532218656" lon="12.446671031961761"><ele>485.0</ele><time>2026-04-21T12:11:39Z</time></trkpt><trkpt lat="43.24380603424825" lon="12.446645843080494"><ele>480.0</ele><time>2026-04-21T12:11:40Z</time></trkpt><trkpt lat="43.24365201655029" lon="12.44663015312572"><ele>480.0</ele><time>2026-04-21T12:11:41Z</time></trkpt><trkpt lat="43.243507236511775" lon="12.446586253445604"><ele>480.0</ele><time>2026-04-21T12:11:42Z</time></trkpt><trkpt lat="43.243362616283314" lon="12.446549187836126"><ele>480.0</ele><time>2026-04-21T12:11:43Z</time></trkpt><trkpt lat="43.243221658619504" lon="12.446522116975974"><ele>480.0</ele><time>2026-04-21T12:11:44Z</time></trkpt><trkpt lat="43.24308823063444" lon="12.446497737848478"><ele>476.75</ele><time>2026-04-21T12:11:45Z</time></trkpt><trkpt lat="43.24295748069435" lon="12.44649290333064"><ele>473.5</ele><time>2026-04-21T12:11:46Z</time></trkpt><trkpt lat="43.242826748236176" lon="12.446520544084384"><ele>470.25</ele><time>2026-04-21T12:11:47Z</time></trkpt><trkpt lat="43.24269824306678" lon="12.446575718863679"><ele>467.0</ele><time>2026-04-21T12:11:48Z</time></trkpt><trkpt lat="43.242579246277" lon="12.446626013964982"><ele>466.99999999999994</ele><time>2026-04-21T12:11:49Z</time></trkpt><trkpt lat="43.24247303668101" lon="12.44660687886034"><ele>467.0</ele><time>2026-04-21T12:11:50Z</time></trkpt><trkpt lat="43.242389947045844" lon="12.446569718113983"><ele>467.0</ele><time>2026-04-21T12:11:51Z</time></trkpt><trkpt lat="43.242339113503995" lon="12.446495084179663"><ele>467.0</ele><time>2026-04-21T12:11:52Z</time></trkpt><trkpt lat="43.24230968830452" lon="12.446404209252792"><ele>466.99999999999994</ele><time>2026-04-21T12:11:53Z</time></trkpt><trkpt lat="43.24230163466204" lon="12.446286568043565"><ele>467.0</ele><time>2026-04-21T12:11:54Z</time></trkpt><trkpt lat="43.24231571482466" lon="12.44612549962047"><ele>467.25</ele><time>2026-04-21T12:11:54.999Z</time></trkpt><trkpt lat="43.242325862380156" lon="12.445948827370595"><ele>467.5</ele><time>2026-04-21T12:11:55.999Z</time></trkpt><trkpt lat="43.242300779308536" lon="12.445735797421857"><ele>467.75</ele><time>2026-04-21T12:11:56.999Z</time></trkpt><trkpt lat="43.24226236843446" lon="12.445524822492539"><ele>468.0</ele><time>2026-04-21T12:11:57.999Z</time></trkpt><trkpt lat="43.24222285587936" lon="12.445329375218131"><ele>463.0</ele><time>2026-04-21T12:11:58.999Z</time></trkpt><trkpt lat="43.242185280573324" lon="12.445160556871123"><ele>458.0</ele><time>2026-04-21T12:11:59.999Z</time></trkpt><trkpt lat="43.24214140960961" lon="12.44500766536112"><ele>453.0</ele><time>2026-04-21T12:12:00.999Z</time></trkpt><trkpt lat="43.24206724219238" lon="12.444882482419976"><ele>448.0</ele><time>2026-04-21T12:12:01.999Z</time></trkpt><trkpt lat="43.24195706455107" lon="12.444802989357443"><ele>448.0</ele><time>2026-04-21T12:12:02.999Z</time></trkpt><trkpt lat="43.24182355011072" lon="12.444780618662085"><ele>448.0</ele><time>2026-04-21T12:12:03.999Z</time></trkpt><trkpt lat="43.24167069622888" lon="12.444747990180705"><ele>448.0</ele><time>2026-04-21T12:12:04.999Z</time></trkpt><trkpt lat="43.24150724840351" lon="12.444680263912778"><ele>445.0</ele><time>2026-04-21T12:12:05.999Z</time></trkpt><trkpt lat="43.241348036875024" lon="12.444601277150861"><ele>442.0</ele><time>2026-04-21T12:12:06.999Z</time></trkpt><trkpt lat="43.2411957141591" lon="12.444544058302224"><ele>439.0</ele><time>2026-04-21T12:12:07.999Z</time></trkpt><trkpt lat="43.24106726982679" lon="12.444470537856427"><ele>439.0</ele><time>2026-04-21T12:12:08.999Z</time></trkpt><trkpt lat="43.24097174017018" lon="12.444363822635397"><ele>439.0</ele><time>2026-04-21T12:12:09.999Z</time></trkpt><trkpt lat="43.24089949951134" lon="12.444262159148902"><ele>439.0</ele><time>2026-04-21T12:12:10.999Z</time></trkpt><trkpt lat="43.24084947346077" lon="12.444145005130693"><ele>439.0</ele><time>2026-04-21T12:12:11.999Z</time></trkpt><trkpt lat="43.24083963892381" lon="12.444024101526665"><ele>439.0</ele><time>2026-04-21T12:12:12.999Z</time></trkpt><trkpt lat="43.24084472100578" lon="12.443878154420915"><ele>437.25</ele><time>2026-04-21T12:12:13.999Z</time></trkpt><trkpt lat="43.24086837988318" lon="12.443695413764114"><ele>435.5</ele><time>2026-04-21T12:12:14.999Z</time></trkpt><trkpt lat="43.24090294074154" lon="12.44348931406678"><ele>433.75</ele><time>2026-04-21T12:12:15.999Z</time></trkpt><trkpt lat="43.240948443679805" lon="12.443284352042081"><ele>432.0</ele><time>2026-04-21T12:12:16.999Z</time></trkpt><trkpt lat="43.24099869022798" lon="12.443109976228723"><ele>431.25</ele><time>2026-04-21T12:12:17.999Z</time></trkpt><trkpt lat="43.241041828533646" lon="12.442953841337554"><ele>430.5</ele><time>2026-04-21T12:12:18.999Z</time></trkpt><trkpt lat="43.241049870308856" lon="12.44278251247726"><ele>429.75</ele><time>2026-04-21T12:12:19.999Z</time></trkpt><trkpt lat="43.24099199396161" lon="12.442625126907974"><ele>429.0</ele><time>2026-04-21T12:12:20.999Z</time></trkpt><trkpt lat="43.24090430394883" lon="12.442502906376841"><ele>429.0</ele><time>2026-04-21T12:12:21.999Z</time></trkpt><trkpt lat="43.24079739447536" lon="12.44237982383847"><ele>429.0</ele><time>2026-04-21T12:12:22.999Z</time></trkpt><trkpt lat="43.24067217597049" lon="12.442264445970368"><ele>429.0</ele><time>2026-04-21T12:12:23.999Z</time></trkpt><trkpt lat="43.24053342376603" lon="12.442159372711995"><ele>429.0</ele><time>2026-04-21T12:12:24.999Z</time></trkpt><trkpt lat="43.24039647051765" lon="12.44206209081194"><ele>423.25</ele><time>2026-04-21T12:12:25.999Z</time></trkpt><trkpt lat="43.24026827960114" lon="12.441970919544469"><ele>417.5</ele><time>2026-04-21T12:12:27Z</time></trkpt><trkpt lat="43.24016664826278" lon="12.441896426298955"><ele>411.75</ele><time>2026-04-21T12:12:28Z</time></trkpt><trkpt lat="43.24007747082879" lon="12.441682050021447"><ele>406.0</ele><time>2026-04-21T12:12:30Z</time></trkpt><trkpt lat="43.24003918185169" lon="12.44152487232879"><ele>406.0</ele><time>2026-04-21T12:12:31Z</time></trkpt><trkpt lat="43.240003008176764" lon="12.441346890127361"><ele>406.0</ele><time>2026-04-21T12:12:32Z</time></trkpt><trkpt lat="43.23998129392405" lon="12.441173099686422"><ele>406.0</ele><time>2026-04-21T12:12:33Z</time></trkpt><trkpt lat="43.2399795716503" lon="12.441003435469973"><ele>406.0</ele><time>2026-04-21T12:12:34Z</time></trkpt><trkpt lat="43.24000273672819" lon="12.440841001421376"><ele>404.25</ele><time>2026-04-21T12:12:35Z</time></trkpt><trkpt lat="43.24004715612238" lon="12.440695273716683"><ele>402.5</ele><time>2026-04-21T12:12:36Z</time></trkpt><trkpt lat="43.240118564037786" lon="12.440581135258505"><ele>400.75</ele><time>2026-04-21T12:12:37Z</time></trkpt><trkpt lat="43.24021218185888" lon="12.440477578176655"><ele>399.0</ele><time>2026-04-21T12:12:38Z</time></trkpt><trkpt lat="43.24030498870282" lon="12.440366330638547"><ele>396.2</ele><time>2026-04-21T12:12:39Z</time></trkpt><trkpt lat="43.24038141473924" lon="12.440259156491077"><ele>393.4</ele><time>2026-04-21T12:12:40Z</time></trkpt><trkpt lat="43.240432677619786" lon="12.440126746997235"><ele>390.6</ele><time>2026-04-21T12:12:41Z</time></trkpt><trkpt lat="43.24044491589209" lon="12.439992700203508"><ele>387.8</ele><time>2026-04-21T12:12:42Z</time></trkpt><trkpt lat="43.24038587485078" lon="12.439852209070258"><ele>385.0</ele><time>2026-04-21T12:12:43Z</time></trkpt><trkpt lat="43.2403017788338" lon="12.439744857330377"><ele>383.25</ele><time>2026-04-21T12:12:44Z</time></trkpt><trkpt lat="43.240217448999836" lon="12.439611141103205"><ele>381.5</ele><time>2026-04-21T12:12:45Z</time></trkpt><trkpt lat="43.24016429721256" lon="12.439429295425938"><ele>379.75</ele><time>2026-04-21T12:12:46Z</time></trkpt><trkpt lat="43.240135040999625" lon="12.439265499244469"><ele>378.0</ele><time>2026-04-21T12:12:47Z</time></trkpt><trkpt lat="43.24014631027033" lon="12.439102778365571"><ele>378.0</ele><time>2026-04-21T12:12:48Z</time></trkpt><trkpt lat="43.24017423993166" lon="12.438950046209229"><ele>378.0</ele><time>2026-04-21T12:12:49Z</time></trkpt><trkpt lat="43.24022320673816" lon="12.438780790023342"><ele>378.0</ele><time>2026-04-21T12:12:50Z</time></trkpt><trkpt lat="43.24028261366541" lon="12.438614809068998"><ele>378.0</ele><time>2026-04-21T12:12:51Z</time></trkpt><trkpt lat="43.24034589742147" lon="12.438460338274583"><ele>376.0</ele><time>2026-04-21T12:12:52Z</time></trkpt><trkpt lat="43.240404487281666" lon="12.438312694825745"><ele>374.0</ele><time>2026-04-21T12:12:53Z</time></trkpt><trkpt lat="43.24045872766259" lon="12.43815015402452"><ele>372.0</ele><time>2026-04-21T12:12:54Z</time></trkpt><trkpt lat="43.240480687143176" lon="12.43799057771862"><ele>370.0</ele><time>2026-04-21T12:12:55Z</time></trkpt><trkpt lat="43.24045832570911" lon="12.43782820149138"><ele>368.75</ele><time>2026-04-21T12:12:56Z</time></trkpt><trkpt lat="43.24040260200254" lon="12.437675691647962"><ele>367.5</ele><time>2026-04-21T12:12:57Z</time></trkpt><trkpt lat="43.24031255246333" lon="12.437552198281915"><ele>366.25</ele><time>2026-04-21T12:12:58Z</time></trkpt><trkpt lat="43.24019942779721" lon="12.437473351690382"><ele>365.0</ele><time>2026-04-21T12:12:59Z</time></trkpt><trkpt lat="43.24010089107761" lon="12.437424104123954"><ele>365.0</ele><time>2026-04-21T12:13:00Z</time></trkpt><trkpt lat="43.24000653795517" lon="12.437439776735777"><ele>365.0</ele><time>2026-04-21T12:13:01Z</time></trkpt><trkpt lat="43.23993324489552" lon="12.437483718052539"><ele>365.0</ele><time>2026-04-21T12:13:03Z</time></trkpt><trkpt lat="43.239879267598916" lon="12.43757183542034"><ele>365.0</ele><time>2026-04-21T12:13:11Z</time></trkpt><trkpt lat="43.23982457602966" lon="12.437662145315116"><ele>365.0</ele><time>2026-04-21T12:13:12Z</time></trkpt><trkpt lat="43.239764871896575" lon="12.43776388240251"><ele>365.0</ele><time>2026-04-21T12:13:13Z</time></trkpt><trkpt lat="43.2397061784943" lon="12.437857805419908"><ele>363.2</ele><time>2026-04-21T12:13:14Z</time></trkpt><trkpt lat="43.2396363040156" lon="12.437926719546645"><ele>361.4</ele><time>2026-04-21T12:13:15Z</time></trkpt><trkpt lat="43.23956006355987" lon="12.437963252153695"><ele>359.6</ele><time>2026-04-21T12:13:16Z</time></trkpt><trkpt lat="43.239478426385396" lon="12.437953139930242"><ele>357.8</ele><time>2026-04-21T12:13:17Z</time></trkpt><trkpt lat="43.23936842985876" lon="12.43790819281149"><ele>356.0</ele><time>2026-04-21T12:13:18Z</time></trkpt><trkpt lat="43.239249959434176" lon="12.437852761362892"><ele>356.0</ele><time>2026-04-21T12:13:19Z</time></trkpt><trkpt lat="43.239112512332625" lon="12.43779516829483"><ele>356.0</ele><time>2026-04-21T12:13:20Z</time></trkpt><trkpt lat="43.238968757056355" lon="12.437709596433157"><ele>356.0</ele><time>2026-04-21T12:13:21Z</time></trkpt><trkpt lat="43.238817889110834" lon="12.437644745675357"><ele>353.33333333333337</ele><time>2026-04-21T12:13:22Z</time></trkpt><trkpt lat="43.238664643106894" lon="12.43758292947261"><ele>350.6666666666667</ele><time>2026-04-21T12:13:23Z</time></trkpt><trkpt lat="43.23850107258939" lon="12.437537017319015"><ele>348.0</ele><time>2026-04-21T12:13:24Z</time></trkpt><trkpt lat="43.23834549438232" lon="12.437472393021546"><ele>348.0</ele><time>2026-04-21T12:13:25Z</time></trkpt><trkpt lat="43.23818960419009" lon="12.437413921348003"><ele>348.0</ele><time>2026-04-21T12:13:26Z</time></trkpt><trkpt lat="43.238033040010315" lon="12.437357622882084"><ele>348.0</ele><time>2026-04-21T12:13:27Z</time></trkpt><trkpt lat="43.237880158008686" lon="12.437295156673779"><ele>344.0</ele><time>2026-04-21T12:13:28Z</time></trkpt><trkpt lat="43.23773644478794" lon="12.437217589098088"><ele>340.0</ele><time>2026-04-21T12:13:29Z</time></trkpt><trkpt lat="43.2375996432756" lon="12.437114424827847"><ele>336.0</ele><time>2026-04-21T12:13:30Z</time></trkpt><trkpt lat="43.237478638561264" lon="12.436972914652367"><ele>335.6666666666667</ele><time>2026-04-21T12:13:31Z</time></trkpt><trkpt lat="43.23733300788767" lon="12.436857879466302"><ele>335.33333333333337</ele><time>2026-04-21T12:13:32Z</time></trkpt><trkpt lat="43.23719170652168" lon="12.436721181816818"><ele>335.0</ele><time>2026-04-21T12:13:33Z</time></trkpt><trkpt lat="43.237043631461844" lon="12.436584359798566"><ele>332.6666666666667</ele><time>2026-04-21T12:13:34Z</time></trkpt><trkpt lat="43.23688844304221" lon="12.436436635456632"><ele>330.3333333333333</ele><time>2026-04-21T12:13:35Z</time></trkpt><trkpt lat="43.23675206078537" lon="12.436281628317865"><ele>328.0</ele><time>2026-04-21T12:13:36Z</time></trkpt><trkpt lat="43.23660682994964" lon="12.436143688452528"><ele>326.3333333333333</ele><time>2026-04-21T12:13:37Z</time></trkpt><trkpt lat="43.236466559371344" lon="12.43601486018353"><ele>324.6666666666667</ele><time>2026-04-21T12:13:38Z</time></trkpt><trkpt lat="43.236320189653334" lon="12.435878820619788"><ele>323.0</ele><time>2026-04-21T12:13:39Z</time></trkpt><trkpt lat="43.23617896575804" lon="12.435768217622872"><ele>323.0</ele><time>2026-04-21T12:13:40Z</time></trkpt><trkpt lat="43.23606836683534" lon="12.435629371797098"><ele>323.0</ele><time>2026-04-21T12:13:41Z</time></trkpt><trkpt lat="43.235866711361304" lon="12.435326367099176"><ele>323.0</ele><time>2026-04-21T12:13:43Z</time></trkpt><trkpt lat="43.23577363048724" lon="12.435149515489066"><ele>321.75</ele><time>2026-04-21T12:13:44Z</time></trkpt><trkpt lat="43.235680352576125" lon="12.434968561802203"><ele>320.5</ele><time>2026-04-21T12:13:45Z</time></trkpt><trkpt lat="43.23559632219821" lon="12.43481897325914"><ele>319.25</ele><time>2026-04-21T12:13:46Z</time></trkpt><trkpt lat="43.23550405540358" lon="12.43469727694441"><ele>318.0</ele><time>2026-04-21T12:13:47Z</time></trkpt><trkpt lat="43.235399341261505" lon="12.434615461630438"><ele>316.25</ele><time>2026-04-21T12:13:48Z</time></trkpt><trkpt lat="43.235292032829264" lon="12.434525867599262"><ele>314.5</ele><time>2026-04-21T12:13:49Z</time></trkpt><trkpt lat="43.235174105786264" lon="12.434456434116578"><ele>312.75</ele><time>2026-04-21T12:13:50Z</time></trkpt><trkpt lat="43.23504566096303" lon="12.434398533777733"><ele>311.0</ele><time>2026-04-21T12:13:51Z</time></trkpt><trkpt lat="43.2349126174288" lon="12.434337992163476"><ele>310.5</ele><time>2026-04-21T12:13:52Z</time></trkpt><trkpt lat="43.234782227939704" lon="12.43428046725072"><ele>310.0</ele><time>2026-04-21T12:13:53Z</time></trkpt><trkpt lat="43.234659542316436" lon="12.43421483834473"><ele>309.5</ele><time>2026-04-21T12:13:54Z</time></trkpt><trkpt lat="43.23454623899041" lon="12.434151020270857"><ele>309.0</ele><time>2026-04-21T12:13:55Z</time></trkpt><trkpt lat="43.23443129889962" lon="12.434084451079405"><ele>309.0</ele><time>2026-04-21T12:13:56Z</time></trkpt><trkpt lat="43.23432575264181" lon="12.434015236934906"><ele>309.0</ele><time>2026-04-21T12:13:57Z</time></trkpt><trkpt lat="43.23422344713986" lon="12.433930615580406"><ele>309.0</ele><time>2026-04-21T12:13:58Z</time></trkpt><trkpt lat="43.234120689157464" lon="12.43383445690122"><ele>309.0</ele><time>2026-04-21T12:13:59Z</time></trkpt><trkpt lat="43.23401428657637" lon="12.433706704668504"><ele>307.25</ele><time>2026-04-21T12:14:00Z</time></trkpt><trkpt lat="43.233895437498035" lon="12.433592313533612"><ele>305.5</ele><time>2026-04-21T12:14:01Z</time></trkpt><trkpt lat="43.233779377151635" lon="12.433479364351943"><ele>303.75</ele><time>2026-04-21T12:14:02Z</time></trkpt><trkpt lat="43.23365074103355" lon="12.433369826963505"><ele>302.0</ele><time>2026-04-21T12:14:03Z</time></trkpt><trkpt lat="43.23351972770924" lon="12.433250331852495"><ele>302.0</ele><time>2026-04-21T12:14:04Z</time></trkpt><trkpt lat="43.23340024229711" lon="12.433118550473221"><ele>302.0</ele><time>2026-04-21T12:14:04.999Z</time></trkpt><trkpt lat="43.23329604366492" lon="12.432956235840889"><ele>302.0</ele><time>2026-04-21T12:14:05.999Z</time></trkpt><trkpt lat="43.233190146763455" lon="12.432795905952808"><ele>300.33333333333337</ele><time>2026-04-21T12:14:06.999Z</time></trkpt><trkpt lat="43.23308867774003" lon="12.432627173160421"><ele>298.6666666666667</ele><time>2026-04-21T12:14:07.999Z</time></trkpt><trkpt lat="43.23298406782854" lon="12.432445824267303"><ele>297.0</ele><time>2026-04-21T12:14:08.999Z</time></trkpt><trkpt lat="43.23287730484426" lon="12.432260742832074"><ele>296.3333333333333</ele><time>2026-04-21T12:14:09.999Z</time></trkpt><trkpt lat="43.23276722989882" lon="12.432069500513487"><ele>295.66666666666663</ele><time>2026-04-21T12:14:10.999Z</time></trkpt><trkpt lat="43.23265855154937" lon="12.431880267775911"><ele>295.0</ele><time>2026-04-21T12:14:11.999Z</time></trkpt><trkpt lat="43.23254934971429" lon="12.431690123541294"><ele>295.0</ele><time>2026-04-21T12:14:12.999Z</time></trkpt><trkpt lat="43.2324395624005" lon="12.431498959862187"><ele>295.0</ele><time>2026-04-21T12:14:13.999Z</time></trkpt><trkpt lat="43.232342251327644" lon="12.431329520067122"><ele>295.0</ele><time>2026-04-21T12:14:14.999Z</time></trkpt><trkpt lat="43.23222584617473" lon="12.431126832972817"><ele>293.0</ele><time>2026-04-21T12:14:15.999Z</time></trkpt><trkpt lat="43.23210853448487" lon="12.430936171906728"><ele>291.0</ele><time>2026-04-21T12:14:16.999Z</time></trkpt><trkpt lat="43.23198855220933" lon="12.4307404095095"><ele>289.0</ele><time>2026-04-21T12:14:17.999Z</time></trkpt><trkpt lat="43.231865746981846" lon="12.4305418079648"><ele>288.3333333333333</ele><time>2026-04-21T12:14:18.999Z</time></trkpt><trkpt lat="43.23173983058545" lon="12.430347676365486"><ele>287.6666666666667</ele><time>2026-04-21T12:14:19.999Z</time></trkpt><trkpt lat="43.231614213031165" lon="12.430154005538215"><ele>287.0</ele><time>2026-04-21T12:14:20.999Z</time></trkpt><trkpt lat="43.231485192571796" lon="12.42995508957615"><ele>286.33333333333337</ele><time>2026-04-21T12:14:21.999Z</time></trkpt><trkpt lat="43.23135750764129" lon="12.429761553043356"><ele>285.6666666666667</ele><time>2026-04-21T12:14:22.999Z</time></trkpt><trkpt lat="43.23123655593283" lon="12.429578752639076"><ele>285.0</ele><time>2026-04-21T12:14:23.999Z</time></trkpt><trkpt lat="43.23111783141911" lon="12.429393996760385"><ele>285.0</ele><time>2026-04-21T12:14:24.999Z</time></trkpt><trkpt lat="43.231018783862694" lon="12.429201002134665"><ele>285.0</ele><time>2026-04-21T12:14:25.999Z</time></trkpt><trkpt lat="43.230941106562675" lon="12.428986783863675"><ele>285.0</ele><time>2026-04-21T12:14:26.999Z</time></trkpt><trkpt lat="43.23087785194404" lon="12.428759697467438"><ele>284.3333333333333</ele><time>2026-04-21T12:14:27.999Z</time></trkpt><trkpt lat="43.23081495114114" lon="12.428520370183364"><ele>283.66666666666663</ele><time>2026-04-21T12:14:28.999Z</time></trkpt><trkpt lat="43.23075515402109" lon="12.428291453413166"><ele>283.0</ele><time>2026-04-21T12:14:29.999Z</time></trkpt><trkpt lat="43.23069779877862" lon="12.428071884958516"><ele>282.25</ele><time>2026-04-21T12:14:30.999Z</time></trkpt><trkpt lat="43.2306483428914" lon="12.427879397368207"><ele>281.5</ele><time>2026-04-21T12:14:31.999Z</time></trkpt><trkpt lat="43.23060548491843" lon="12.427700369419622"><ele>280.75</ele><time>2026-04-21T12:14:33Z</time></trkpt><trkpt lat="43.23058382410263" lon="12.427530246929079"><ele>280.0</ele><time>2026-04-21T12:14:34Z</time></trkpt><trkpt lat="43.230582924149545" lon="12.42736723346686"><ele>279.75</ele><time>2026-04-21T12:14:35Z</time></trkpt><trkpt lat="43.23058711527253" lon="12.42718882900146"><ele>279.5</ele><time>2026-04-21T12:14:36Z</time></trkpt><trkpt lat="43.23065480320416" lon="12.42702070256692"><ele>279.25</ele><time>2026-04-21T12:14:37Z</time></trkpt><trkpt lat="43.23071946843664" lon="12.426851532603868"><ele>279.0</ele><time>2026-04-21T12:14:38Z</time></trkpt><trkpt lat="43.230776581661004" lon="12.426671500837816"><ele>278.6666666666667</ele><time>2026-04-21T12:14:39Z</time></trkpt><trkpt lat="43.2308507220437" lon="12.426496309566312"><ele>278.33333333333337</ele><time>2026-04-21T12:14:40Z</time></trkpt><trkpt lat="43.230944417969525" lon="12.426324168097011"><ele>278.0</ele><time>2026-04-21T12:14:41Z</time></trkpt><trkpt lat="43.23102628842186" lon="12.426135510698225"><ele>277.0</ele><time>2026-04-21T12:14:42Z</time></trkpt><trkpt lat="43.23110855468059" lon="12.42593724501298"><ele>276.0</ele><time>2026-04-21T12:14:43Z</time></trkpt><trkpt lat="43.23118974125117" lon="12.425719582932349"><ele>275.0</ele><time>2026-04-21T12:14:44Z</time></trkpt><trkpt lat="43.23128470428122" lon="12.425502609139224"><ele>274.0</ele><time>2026-04-21T12:14:45Z</time></trkpt><trkpt lat="43.23137786983235" lon="12.425277825051936"><ele>273.0</ele><time>2026-04-21T12:14:46Z</time></trkpt><trkpt lat="43.23147646559938" lon="12.42505150453463"><ele>272.0</ele><time>2026-04-21T12:14:47Z</time></trkpt><trkpt lat="43.231578255423436" lon="12.424819390136959"><ele>267.6666666666667</ele><time>2026-04-21T12:14:48Z</time></trkpt><trkpt lat="43.23168365466988" lon="12.424581852592416"><ele>263.3333333333333</ele><time>2026-04-21T12:14:49Z</time></trkpt><trkpt lat="43.231789334097456" lon="12.424337472302971"><ele>259.0</ele><time>2026-04-21T12:14:50Z</time></trkpt><trkpt lat="43.23190712124004" lon="12.42409738901404"><ele>259.0</ele><time>2026-04-21T12:14:51Z</time></trkpt><trkpt lat="43.232012444343525" lon="12.423852531723705"><ele>259.0</ele><time>2026-04-21T12:14:52Z</time></trkpt><trkpt lat="43.232115225958836" lon="12.42361514734198"><ele>259.0</ele><time>2026-04-21T12:14:53Z</time></trkpt><trkpt lat="43.232296621765805" lon="12.423186565918835"><ele>260.66666666666663</ele><time>2026-04-21T12:14:55Z</time></trkpt><trkpt lat="43.232371219049035" lon="12.422989736417394"><ele>262.3333333333333</ele><time>2026-04-21T12:14:56Z</time></trkpt><trkpt lat="43.23245827536694" lon="12.422818785804253"><ele>264.0</ele><time>2026-04-21T12:14:57Z</time></trkpt><trkpt lat="43.23254427691617" lon="12.42266280307168"><ele>264.25</ele><time>2026-04-21T12:14:58Z</time></trkpt><trkpt lat="43.232635519613325" lon="12.422513065149705"><ele>264.5</ele><time>2026-04-21T12:14:59Z</time></trkpt><trkpt lat="43.232737189074015" lon="12.42236277330497"><ele>264.75</ele><time>2026-04-21T12:15:00Z</time></trkpt><trkpt lat="43.23284383401151" lon="12.422219313716926"><ele>265.0</ele><time>2026-04-21T12:15:01Z</time></trkpt><trkpt lat="43.232946696565634" lon="12.422079622645802"><ele>265.2</ele><time>2026-04-21T12:15:02Z</time></trkpt><trkpt lat="43.23302528027619" lon="12.421959714309317"><ele>265.4</ele><time>2026-04-21T12:15:03Z</time></trkpt><trkpt lat="43.2331114100618" lon="12.421873307801956"><ele>265.6</ele><time>2026-04-21T12:15:04Z</time></trkpt><trkpt lat="43.23316499403634" lon="12.421774353059176"><ele>265.8</ele><time>2026-04-21T12:15:05Z</time></trkpt><trkpt lat="43.233227497199174" lon="12.421722432366204"><ele>266.0</ele><time>2026-04-21T12:15:06Z</time></trkpt><trkpt lat="43.23328595268573" lon="12.421665717410889"><ele>266.8</ele><time>2026-04-21T12:15:07Z</time></trkpt><trkpt lat="43.23332986644877" lon="12.421603226020077"><ele>267.6</ele><time>2026-04-21T12:15:08Z</time></trkpt><trkpt lat="43.233471193414275" lon="12.421707311249538"><ele>268.4</ele><time>2026-04-21T12:15:09Z</time></trkpt><trkpt lat="43.233558168741325" lon="12.42177440616822"><ele>269.2</ele><time>2026-04-21T12:15:10Z</time></trkpt><trkpt lat="43.233642673241135" lon="12.421867108947287"><ele>270.0</ele><time>2026-04-21T12:15:11Z</time></trkpt><trkpt lat="43.23373230367444" lon="12.42198817730528"><ele>270.0</ele><time>2026-04-21T12:15:12Z</time></trkpt><trkpt lat="43.233824598502565" lon="12.422108471730384"><ele>270.0</ele><time>2026-04-21T12:15:13Z</time></trkpt><trkpt lat="43.23391661586431" lon="12.422233867402221"><ele>270.0</ele><time>2026-04-21T12:15:14Z</time></trkpt><trkpt lat="43.234015856627494" lon="12.422367150679632"><ele>270.0</ele><time>2026-04-21T12:15:15Z</time></trkpt><trkpt lat="43.234123307346586" lon="12.422500146965834"><ele>270.3333333333333</ele><time>2026-04-21T12:15:16Z</time></trkpt><trkpt lat="43.23423379501627" lon="12.422639226558235"><ele>270.66666666666663</ele><time>2026-04-21T12:15:17Z</time></trkpt><trkpt lat="43.23435012008167" lon="12.422782400883033"><ele>271.0</ele><time>2026-04-21T12:15:18Z</time></trkpt><trkpt lat="43.23446227892831" lon="12.422931570242735"><ele>273.3333333333333</ele><time>2026-04-21T12:15:19Z</time></trkpt><trkpt lat="43.234576486830235" lon="12.423083730154145"><ele>275.6666666666667</ele><time>2026-04-21T12:15:20Z</time></trkpt><trkpt lat="43.23469538237614" lon="12.423238746361166"><ele>278.0</ele><time>2026-04-21T12:15:21Z</time></trkpt><trkpt lat="43.23481301787711" lon="12.423390118248392"><ele>278.33333333333337</ele><time>2026-04-21T12:15:22Z</time></trkpt><trkpt lat="43.23492996191585" lon="12.42354111447587"><ele>278.6666666666667</ele><time>2026-04-21T12:15:23Z</time></trkpt><trkpt lat="43.23505455449948" lon="12.42367988725976"><ele>279.0</ele><time>2026-04-21T12:15:24Z</time></trkpt><trkpt lat="43.235189045785965" lon="12.423822480394803"><ele>281.0</ele><time>2026-04-21T12:15:25Z</time></trkpt><trkpt lat="43.235332598326806" lon="12.4239570944307"><ele>283.0</ele><time>2026-04-21T12:15:26Z</time></trkpt><trkpt lat="43.23548312728636" lon="12.424078817685052"><ele>285.0</ele><time>2026-04-21T12:15:27Z</time></trkpt><trkpt lat="43.235630820358" lon="12.424212179716804"><ele>284.6666666666667</ele><time>2026-04-21T12:15:28Z</time></trkpt><trkpt lat="43.23577257326828" lon="12.424340239548592"><ele>284.33333333333337</ele><time>2026-04-21T12:15:29Z</time></trkpt><trkpt lat="43.23590631553546" lon="12.424458575617063"><ele>284.0</ele><time>2026-04-21T12:15:30Z</time></trkpt><trkpt lat="43.23603561045509" lon="12.424574555349311"><ele>285.5</ele><time>2026-04-21T12:15:31Z</time></trkpt><trkpt lat="43.23616040616437" lon="12.42467958081883"><ele>287.0</ele><time>2026-04-21T12:15:32Z</time></trkpt><trkpt lat="43.23628212297129" lon="12.42478128934341"><ele>288.5</ele><time>2026-04-21T12:15:33Z</time></trkpt><trkpt lat="43.23640290243078" lon="12.42487958728171"><ele>290.0</ele><time>2026-04-21T12:15:34Z</time></trkpt><trkpt lat="43.23652942634332" lon="12.424975038263536"><ele>292.33333333333337</ele><time>2026-04-21T12:15:35Z</time></trkpt><trkpt lat="43.23666933079271" lon="12.425057378917696"><ele>294.6666666666667</ele><time>2026-04-21T12:15:36Z</time></trkpt><trkpt lat="43.23681453306747" lon="12.425151239251903"><ele>297.0</ele><time>2026-04-21T12:15:37Z</time></trkpt><trkpt lat="43.23695948673064" lon="12.425246453041641"><ele>297.0</ele><time>2026-04-21T12:15:38Z</time></trkpt><trkpt lat="43.23710300941772" lon="12.425349930430968"><ele>297.0</ele><time>2026-04-21T12:15:39Z</time></trkpt><trkpt lat="43.23724663155023" lon="12.425442670083582"><ele>297.0</ele><time>2026-04-21T12:15:40Z</time></trkpt><trkpt lat="43.237386994881504" lon="12.425535054146565"><ele>299.25</ele><time>2026-04-21T12:15:41Z</time></trkpt><trkpt lat="43.2375264295631" lon="12.425632569411057"><ele>301.5</ele><time>2026-04-21T12:15:42Z</time></trkpt><trkpt lat="43.237648241191536" lon="12.425754398494156"><ele>303.75</ele><time>2026-04-21T12:15:43Z</time></trkpt><trkpt lat="43.23776455308628" lon="12.425851644623455"><ele>306.0</ele><time>2026-04-21T12:15:44Z</time></trkpt><trkpt lat="43.23787512827654" lon="12.425940423828543"><ele>306.0</ele><time>2026-04-21T12:15:45Z</time></trkpt><trkpt lat="43.23797156028908" lon="12.426072383516207"><ele>306.0</ele><time>2026-04-21T12:15:46Z</time></trkpt><trkpt lat="43.23806972120907" lon="12.42621217929345"><ele>306.0</ele><time>2026-04-21T12:15:47Z</time></trkpt><trkpt lat="43.23816888167807" lon="12.426362804895927"><ele>306.0</ele><time>2026-04-21T12:15:48Z</time></trkpt><trkpt lat="43.238268209542184" lon="12.426511658371957"><ele>308.25</ele><time>2026-04-21T12:15:49Z</time></trkpt><trkpt lat="43.23836724974543" lon="12.426659139291777"><ele>310.5</ele><time>2026-04-21T12:15:50Z</time></trkpt><trkpt lat="43.23846215280005" lon="12.42681142265764"><ele>312.75</ele><time>2026-04-21T12:15:51Z</time></trkpt><trkpt lat="43.23855293954891" lon="12.426958106898134"><ele>315.0</ele><time>2026-04-21T12:15:52Z</time></trkpt><trkpt lat="43.238627115217895" lon="12.427092241518148"><ele>315.25</ele><time>2026-04-21T12:15:53Z</time></trkpt><trkpt lat="43.238697051731485" lon="12.427214800436811"><ele>315.5</ele><time>2026-04-21T12:15:54Z</time></trkpt><trkpt lat="43.23877161671156" lon="12.427346236910545"><ele>315.75</ele><time>2026-04-21T12:15:55Z</time></trkpt><trkpt lat="43.238850592072275" lon="12.427466099401371"><ele>316.0</ele><time>2026-04-21T12:15:56Z</time></trkpt><trkpt lat="43.238920380385174" lon="12.42756094778086"><ele>317.3333333333333</ele><time>2026-04-21T12:15:57Z</time></trkpt><trkpt lat="43.2389923227976" lon="12.427600473133735"><ele>318.66666666666663</ele><time>2026-04-21T12:15:58Z</time></trkpt><trkpt lat="43.23905288658751" lon="12.427629647032822"><ele>320.0</ele><time>2026-04-21T12:15:59Z</time></trkpt><trkpt lat="43.2391328291565" lon="12.427683764108181"><ele>321.3333333333333</ele><time>2026-04-21T12:16:01Z</time></trkpt><trkpt lat="43.23924780740388" lon="12.427700974585179"><ele>322.6666666666667</ele><time>2026-04-21T12:16:03Z</time></trkpt><trkpt lat="43.239314187456365" lon="12.427728976879953"><ele>324.0</ele><time>2026-04-21T12:16:04Z</time></trkpt><trkpt lat="43.23938167753171" lon="12.427756272273536"><ele>324.0</ele><time>2026-04-21T12:16:05Z</time></trkpt><trkpt lat="43.239476934117214" lon="12.427787731322518"><ele>324.0</ele><time>2026-04-21T12:16:07Z</time></trkpt><trkpt lat="43.23955358339407" lon="12.427632829013222"><ele>324.0</ele><time>2026-04-21T12:16:09Z</time></trkpt><trkpt lat="43.239541020600264" lon="12.427513240875134"><ele>324.0</ele><time>2026-04-21T12:16:10Z</time></trkpt><trkpt lat="43.23957425958096" lon="12.427396910525776"><ele>324.0</ele><time>2026-04-21T12:16:11Z</time></trkpt><trkpt lat="43.23960267792906" lon="12.427297233161786"><ele>324.0</ele><time>2026-04-21T12:16:12Z</time></trkpt><trkpt lat="43.23963820304626" lon="12.427201986763928"><ele>324.0</ele><time>2026-04-21T12:16:13Z</time></trkpt><trkpt lat="43.23968059886601" lon="12.427095996242777"><ele>324.0</ele><time>2026-04-21T12:16:13.999Z</time></trkpt><trkpt lat="43.239734937706416" lon="12.42696679027754"><ele>324.0</ele><time>2026-04-21T12:16:14.999Z</time></trkpt><trkpt lat="43.23979652665952" lon="12.426835494363836"><ele>324.0</ele><time>2026-04-21T12:16:15.999Z</time></trkpt><trkpt lat="43.239861006497556" lon="12.426709507137682"><ele>324.5</ele><time>2026-04-21T12:16:16.999Z</time></trkpt><trkpt lat="43.23992445734431" lon="12.42658879201029"><ele>325.0</ele><time>2026-04-21T12:16:17.999Z</time></trkpt><trkpt lat="43.23998756411642" lon="12.42647651356351"><ele>325.5</ele><time>2026-04-21T12:16:18.999Z</time></trkpt><trkpt lat="43.24006596859446" lon="12.426344972384344"><ele>326.0</ele><time>2026-04-21T12:16:19.999Z</time></trkpt><trkpt lat="43.24014745843831" lon="12.426224457608914"><ele>323.25</ele><time>2026-04-21T12:16:20.999Z</time></trkpt><trkpt lat="43.240220173327394" lon="12.42609559123251"><ele>320.5</ele><time>2026-04-21T12:16:21.999Z</time></trkpt><trkpt lat="43.24028699099896" lon="12.425986613073519"><ele>317.75</ele><time>2026-04-21T12:16:22.999Z</time></trkpt><trkpt lat="43.240344393952576" lon="12.425854058069682"><ele>315.0</ele><time>2026-04-21T12:16:23.999Z</time></trkpt><trkpt lat="43.240389094950814" lon="12.425697516541039"><ele>315.0</ele><time>2026-04-21T12:16:24.998Z</time></trkpt><trkpt lat="43.240437970133605" lon="12.425548658027658"><ele>315.0</ele><time>2026-04-21T12:16:25.998Z</time></trkpt><trkpt lat="43.24050429448809" lon="12.4254168582784"><ele>315.0</ele><time>2026-04-21T12:16:26.998Z</time></trkpt><trkpt lat="43.240567764095545" lon="12.425258482753518"><ele>315.0</ele><time>2026-04-21T12:16:27.998Z</time></trkpt><trkpt lat="43.240610811726015" lon="12.425101183591458"><ele>315.0</ele><time>2026-04-21T12:16:28.998Z</time></trkpt><trkpt lat="43.24066551903547" lon="12.424947940663264"><ele>315.0</ele><time>2026-04-21T12:16:29.998Z</time></trkpt><trkpt lat="43.240712474584036" lon="12.424781196959202"><ele>315.0</ele><time>2026-04-21T12:16:30.998Z</time></trkpt><trkpt lat="43.24075764088021" lon="12.424606186100815"><ele>315.0</ele><time>2026-04-21T12:16:31.998Z</time></trkpt><trkpt lat="43.240806814876166" lon="12.424430653758316"><ele>315.0</ele><time>2026-04-21T12:16:32.998Z</time></trkpt><trkpt lat="43.24084849078806" lon="12.424258942379764"><ele>315.0</ele><time>2026-04-21T12:16:33.998Z</time></trkpt><trkpt lat="43.2408856065638" lon="12.424120269751207"><ele>315.0</ele><time>2026-04-21T12:16:34.998Z</time></trkpt><trkpt lat="43.24091969659119" lon="12.423991702751271"><ele>315.0</ele><time>2026-04-21T12:16:35.998Z</time></trkpt><trkpt lat="43.24096472365236" lon="12.423879120567863"><ele>315.0</ele><time>2026-04-21T12:16:36.998Z</time></trkpt><trkpt lat="43.24099494084613" lon="12.423783096738092"><ele>313.25</ele><time>2026-04-21T12:16:37.998Z</time></trkpt><trkpt lat="43.24103302049565" lon="12.423676590105956"><ele>311.5</ele><time>2026-04-21T12:16:38.999Z</time></trkpt><trkpt lat="43.241090587099336" lon="12.42352975198482"><ele>309.75</ele><time>2026-04-21T12:16:39.999Z</time></trkpt><trkpt lat="43.241131337159324" lon="12.423351339536293"><ele>308.0</ele><time>2026-04-21T12:16:40.999Z</time></trkpt><trkpt lat="43.241190196940835" lon="12.423175489008647"><ele>308.0</ele><time>2026-04-21T12:16:41.999Z</time></trkpt><trkpt lat="43.24124008013071" lon="12.423002558038526"><ele>308.0</ele><time>2026-04-21T12:16:42.999Z</time></trkpt><trkpt lat="43.24130089564307" lon="12.42284028832942"><ele>308.0</ele><time>2026-04-21T12:16:43.999Z</time></trkpt><trkpt lat="43.24135136857809" lon="12.42267487347126"><ele>308.0</ele><time>2026-04-21T12:16:44.999Z</time></trkpt><trkpt lat="43.24139898697781" lon="12.422534505496849"><ele>307.0</ele><time>2026-04-21T12:16:45.999Z</time></trkpt><trkpt lat="43.2414188251148" lon="12.422393170623756"><ele>306.0</ele><time>2026-04-21T12:16:46.999Z</time></trkpt><trkpt lat="43.24141375123631" lon="12.422291153892573"><ele>305.0</ele><time>2026-04-21T12:16:47.999Z</time></trkpt><trkpt lat="43.24134983455564" lon="12.422213023051142"><ele>304.0</ele><time>2026-04-21T12:16:48.999Z</time></trkpt><trkpt lat="43.241310259480755" lon="12.422118205464201"><ele>303.0</ele><time>2026-04-21T12:16:49.999Z</time></trkpt><trkpt lat="43.24125916369043" lon="12.42198736965765"><ele>303.0</ele><time>2026-04-21T12:16:50.999Z</time></trkpt><trkpt lat="43.2411851813842" lon="12.42184059362908"><ele>303.0</ele><time>2026-04-21T12:16:51.999Z</time></trkpt><trkpt lat="43.24110825041575" lon="12.421698195314898"><ele>303.0</ele><time>2026-04-21T12:16:52.999Z</time></trkpt><trkpt lat="43.241023147998824" lon="12.421544953267034"><ele>303.0</ele><time>2026-04-21T12:16:53.999Z</time></trkpt><trkpt lat="43.240951644904136" lon="12.421419249744213"><ele>303.6666666666667</ele><time>2026-04-21T12:16:54.999Z</time></trkpt><trkpt lat="43.240903641684284" lon="12.421309739319593"><ele>304.3333333333333</ele><time>2026-04-21T12:16:55.999Z</time></trkpt><trkpt lat="43.24087884581665" lon="12.42121923246899"><ele>305.0</ele><time>2026-04-21T12:16:56.999Z</time></trkpt><trkpt lat="43.24086927607548" lon="12.421124247860435"><ele>305.66666666666663</ele><time>2026-04-21T12:16:57.999Z</time></trkpt><trkpt lat="43.24086147366023" lon="12.42094530598654"><ele>306.3333333333333</ele><time>2026-04-21T12:16:59.999Z</time></trkpt><trkpt lat="43.24085501239258" lon="12.420834821661122"><ele>307.0</ele><time>2026-04-21T12:17:00.999Z</time></trkpt><trkpt lat="43.24083369685276" lon="12.420710717994229"><ele>307.0</ele><time>2026-04-21T12:17:01.999Z</time></trkpt><trkpt lat="43.24082509603247" lon="12.42056640849144"><ele>307.0</ele><time>2026-04-21T12:17:02.999Z</time></trkpt><trkpt lat="43.240813593715394" lon="12.420410219655999"><ele>307.0</ele><time>2026-04-21T12:17:03.999Z</time></trkpt><trkpt lat="43.24080515044032" lon="12.42025464465743"><ele>307.0</ele><time>2026-04-21T12:17:04.999Z</time></trkpt><trkpt lat="43.240795616585075" lon="12.420102532184613"><ele>307.0</ele><time>2026-04-21T12:17:05.999Z</time></trkpt><trkpt lat="43.240803612023036" lon="12.419967907668243"><ele>306.6</ele><time>2026-04-21T12:17:06.999Z</time></trkpt><trkpt lat="43.24080165530245" lon="12.419858410630745"><ele>306.2</ele><time>2026-04-21T12:17:07.999Z</time></trkpt><trkpt lat="43.240790230646205" lon="12.419749220709313"><ele>305.8</ele><time>2026-04-21T12:17:08.999Z</time></trkpt><trkpt lat="43.24080366206416" lon="12.419622091720553"><ele>305.4</ele><time>2026-04-21T12:17:09.999Z</time></trkpt><trkpt lat="43.24082520294903" lon="12.419473510029114"><ele>305.0</ele><time>2026-04-21T12:17:10.999Z</time></trkpt><trkpt lat="43.24087134749544" lon="12.419328892052343"><ele>303.5</ele><time>2026-04-21T12:17:11.999Z</time></trkpt><trkpt lat="43.240896193121465" lon="12.419170703946783"><ele>302.0</ele><time>2026-04-21T12:17:12.999Z</time></trkpt><trkpt lat="43.24095712944886" lon="12.419037978079588"><ele>300.5</ele><time>2026-04-21T12:17:13.999Z</time></trkpt><trkpt lat="43.241006350628254" lon="12.418908663848198"><ele>299.0</ele><time>2026-04-21T12:17:14.999Z</time></trkpt><trkpt lat="43.241047754102716" lon="12.418763089945353"><ele>297.4</ele><time>2026-04-21T12:17:15.999Z</time></trkpt><trkpt lat="43.24110908207489" lon="12.418616926729465"><ele>295.79999999999995</ele><time>2026-04-21T12:17:16.999Z</time></trkpt><trkpt lat="43.241168357865305" lon="12.418476076736015"><ele>294.20000000000005</ele><time>2026-04-21T12:17:17.999Z</time></trkpt><trkpt lat="43.24122175770364" lon="12.418351018895372"><ele>292.6</ele><time>2026-04-21T12:17:18.999Z</time></trkpt><trkpt lat="43.24127717415015" lon="12.418247294943724"><ele>291.0</ele><time>2026-04-21T12:17:19.999Z</time></trkpt><trkpt lat="43.24135443784003" lon="12.418179651567355"><ele>291.0</ele><time>2026-04-21T12:17:20.999Z</time></trkpt><trkpt lat="43.241431960326366" lon="12.41811466501831"><ele>291.0</ele><time>2026-04-21T12:17:21.999Z</time></trkpt><trkpt lat="43.24149743508817" lon="12.418035272610176"><ele>291.0</ele><time>2026-04-21T12:17:22.999Z</time></trkpt><trkpt lat="43.24156305333699" lon="12.417991440976282"><ele>291.0</ele><time>2026-04-21T12:17:23.999Z</time></trkpt><trkpt lat="43.241607141562476" lon="12.417897526667995"><ele>291.0</ele><time>2026-04-21T12:17:24.999Z</time></trkpt><trkpt lat="43.24160425128716" lon="12.417771814272657"><ele>291.0</ele><time>2026-04-21T12:17:25.999Z</time></trkpt><trkpt lat="43.241584528243905" lon="12.417615514055266"><ele>289.75</ele><time>2026-04-21T12:17:26.999Z</time></trkpt><trkpt lat="43.24156406762154" lon="12.417446765174423"><ele>288.5</ele><time>2026-04-21T12:17:27.999Z</time></trkpt><trkpt lat="43.24154881300061" lon="12.417287833284025"><ele>287.25</ele><time>2026-04-21T12:17:28.999Z</time></trkpt><trkpt lat="43.24153501391307" lon="12.417126316134981"><ele>286.0</ele><time>2026-04-21T12:17:29.999Z</time></trkpt><trkpt lat="43.24152366904185" lon="12.416971974323582"><ele>286.0</ele><time>2026-04-21T12:17:30.999Z</time></trkpt><trkpt lat="43.24151398606782" lon="12.416822074424761"><ele>286.0</ele><time>2026-04-21T12:17:31.999Z</time></trkpt><trkpt lat="43.24150747509858" lon="12.416681645728795"><ele>286.0</ele><time>2026-04-21T12:17:32.999Z</time></trkpt><trkpt lat="43.24151312468319" lon="12.416561879032628"><ele>286.0</ele><time>2026-04-21T12:17:33.999Z</time></trkpt><trkpt lat="43.24152318148813" lon="12.41646490649867"><ele>286.0</ele><time>2026-04-21T12:17:34.999Z</time></trkpt><trkpt lat="43.24146584656067" lon="12.416346705684443"><ele>286.0</ele><time>2026-04-21T12:17:36.999Z</time></trkpt><trkpt lat="43.24154981627854" lon="12.416342179962662"><ele>286.0</ele><time>2026-04-21T12:17:37.999Z</time></trkpt><trkpt lat="43.24144129985468" lon="12.416298896954679"><ele>286.0</ele><time>2026-04-21T12:17:38.999Z</time></trkpt><trkpt lat="43.24160580930406" lon="12.416265690180394"><ele>286.0</ele><time>2026-04-21T12:17:40.999Z</time></trkpt><trkpt lat="43.24164230392377" lon="12.416192265873269"><ele>286.0</ele><time>2026-04-21T12:17:42.999Z</time></trkpt><trkpt lat="43.24168986394317" lon="12.416113307571772"><ele>285.5</ele><time>2026-04-21T12:17:45.999Z</time></trkpt><trkpt lat="43.24174971204563" lon="12.415988213437483"><ele>285.0</ele><time>2026-04-21T12:18:41.998Z</time></trkpt><trkpt lat="43.24177943644794" lon="12.41586631142179"><ele>284.5</ele><time>2026-04-21T12:18:43.998Z</time></trkpt><trkpt lat="43.24177691714221" lon="12.415771409604226"><ele>284.0</ele><time>2026-04-21T12:18:44.999Z</time></trkpt><trkpt lat="43.24176633518374" lon="12.415669693733602"><ele>283.5</ele><time>2026-04-21T12:18:45.999Z</time></trkpt><trkpt lat="43.241760706894624" lon="12.41557348883308"><ele>283.0</ele><time>2026-04-21T12:18:46.999Z</time></trkpt><trkpt lat="43.24174738980289" lon="12.415474283317298"><ele>281.2</ele><time>2026-04-21T12:18:47.999Z</time></trkpt><trkpt lat="43.24172523132704" lon="12.415362398275208"><ele>279.4</ele><time>2026-04-21T12:18:48.999Z</time></trkpt><trkpt lat="43.24169641911309" lon="12.415229305027225"><ele>277.59999999999997</ele><time>2026-04-21T12:18:49.999Z</time></trkpt><trkpt lat="43.24166312790024" lon="12.415074928373386"><ele>275.8</ele><time>2026-04-21T12:18:50.999Z</time></trkpt><trkpt lat="43.24164694323571" lon="12.414929241771452"><ele>274.0</ele><time>2026-04-21T12:18:51.999Z</time></trkpt><trkpt lat="43.24161467372905" lon="12.414783759488886"><ele>272.8</ele><time>2026-04-21T12:18:52.999Z</time></trkpt><trkpt lat="43.24158422438953" lon="12.414646483186804"><ele>271.59999999999997</ele><time>2026-04-21T12:18:53.999Z</time></trkpt><trkpt lat="43.2415544536016" lon="12.414511945514507"><ele>270.4</ele><time>2026-04-21T12:18:54.999Z</time></trkpt><trkpt lat="43.24150811985222" lon="12.414375255446"><ele>269.2</ele><time>2026-04-21T12:18:55.999Z</time></trkpt><trkpt lat="43.24147959096835" lon="12.414238655220107"><ele>268.0</ele><time>2026-04-21T12:18:56.999Z</time></trkpt><trkpt lat="43.24145817958943" lon="12.41409489139903"><ele>268.0</ele><time>2026-04-21T12:18:57.999Z</time></trkpt><trkpt lat="43.24143552481829" lon="12.413964712288074"><ele>268.0</ele><time>2026-04-21T12:18:58.999Z</time></trkpt><trkpt lat="43.241426318208354" lon="12.413819770330546"><ele>268.0</ele><time>2026-04-21T12:18:59.999Z</time></trkpt><trkpt lat="43.241414833862926" lon="12.413686030972059"><ele>268.0</ele><time>2026-04-21T12:19:00.999Z</time></trkpt><trkpt lat="43.24140618902515" lon="12.413545701787168"><ele>268.0</ele><time>2026-04-21T12:19:01.999Z</time></trkpt><trkpt lat="43.241396196173795" lon="12.413419761461604"><ele>266.0</ele><time>2026-04-21T12:19:02.999Z</time></trkpt><trkpt lat="43.2413980037717" lon="12.41327393196569"><ele>264.0</ele><time>2026-04-21T12:19:03.999Z</time></trkpt><trkpt lat="43.2413900652222" lon="12.41314410018195"><ele>262.0</ele><time>2026-04-21T12:19:04.999Z</time></trkpt><trkpt lat="43.24137985881724" lon="12.413006227611953"><ele>260.0</ele><time>2026-04-21T12:19:05.999Z</time></trkpt><trkpt lat="43.24138613087273" lon="12.41287743657734"><ele>258.0</ele><time>2026-04-21T12:19:06.999Z</time></trkpt><trkpt lat="43.241421161050354" lon="12.4127655236951"><ele>257.1666666666667</ele><time>2026-04-21T12:19:07.999Z</time></trkpt><trkpt lat="43.24144852177432" lon="12.412650510611147"><ele>256.3333333333333</ele><time>2026-04-21T12:19:08.999Z</time></trkpt><trkpt lat="43.24148030530483" lon="12.412529117459732"><ele>255.5</ele><time>2026-04-21T12:19:09.999Z</time></trkpt><trkpt lat="43.24150577293639" lon="12.41241488924276"><ele>254.66666666666666</ele><time>2026-04-21T12:19:10.999Z</time></trkpt><trkpt lat="43.24152884246876" lon="12.412289979225651"><ele>253.83333333333331</ele><time>2026-04-21T12:19:11.999Z</time></trkpt><trkpt lat="43.24152062667301" lon="12.412173116253799"><ele>253.0</ele><time>2026-04-21T12:19:12.999Z</time></trkpt><trkpt lat="43.24151203044112" lon="12.41206287134203"><ele>252.2</ele><time>2026-04-21T12:19:13.999Z</time></trkpt><trkpt lat="43.241454166188404" lon="12.411937798611437"><ele>251.4</ele><time>2026-04-21T12:19:14.999Z</time></trkpt><trkpt lat="43.24142500938849" lon="12.411791818433699"><ele>250.59999999999997</ele><time>2026-04-21T12:19:15.999Z</time></trkpt><trkpt lat="43.241389172960425" lon="12.411647618973277"><ele>249.79999999999998</ele><time>2026-04-21T12:19:16.999Z</time></trkpt><trkpt lat="43.24134738158641" lon="12.411506802521155"><ele>249.0</ele><time>2026-04-21T12:19:17.999Z</time></trkpt><trkpt lat="43.24131747544192" lon="12.411357517183596"><ele>249.0</ele><time>2026-04-21T12:19:18.999Z</time></trkpt><trkpt lat="43.24129149971601" lon="12.41120933887645"><ele>248.99999999999997</ele><time>2026-04-21T12:19:19.999Z</time></trkpt><trkpt lat="43.24126317092555" lon="12.411067893381704"><ele>248.99999999999997</ele><time>2026-04-21T12:19:20.999Z</time></trkpt><trkpt lat="43.241239785835106" lon="12.41093667563605"><ele>249.0</ele><time>2026-04-21T12:19:21.999Z</time></trkpt><trkpt lat="43.241207905920234" lon="12.410821507362623"><ele>249.0</ele><time>2026-04-21T12:19:22.999Z</time></trkpt><trkpt lat="43.24118237540384" lon="12.410702555160874"><ele>249.0</ele><time>2026-04-21T12:19:23.999Z</time></trkpt><trkpt lat="43.241037970282875" lon="12.410615879356143"><ele>248.99999999999997</ele><time>2026-04-21T12:19:25.999Z</time></trkpt><trkpt lat="43.24092507511663" lon="12.410638801100045"><ele>248.99999999999997</ele><time>2026-04-21T12:19:27.999Z</time></trkpt><trkpt lat="43.24085743435103" lon="12.410655347835037"><ele>249.0</ele><time>2026-04-21T12:19:28.999Z</time></trkpt><trkpt lat="43.24077441218822" lon="12.410653548981788"><ele>249.0</ele><time>2026-04-21T12:19:29.999Z</time></trkpt><trkpt lat="43.24068276413409" lon="12.410611959355894"><ele>248.2</ele><time>2026-04-21T12:19:30.999Z</time></trkpt><trkpt lat="43.2405826720415" lon="12.410571468964639"><ele>247.39999999999998</ele><time>2026-04-21T12:19:31.999Z</time></trkpt><trkpt lat="43.24047473954353" lon="12.410523519663863"><ele>246.6</ele><time>2026-04-21T12:19:32.999Z</time></trkpt><trkpt lat="43.24036586092034" lon="12.410486720443803"><ele>245.8</ele><time>2026-04-21T12:19:33.999Z</time></trkpt><trkpt lat="43.240279301924694" lon="12.410404905390292"><ele>245.0</ele><time>2026-04-21T12:19:34.999Z</time></trkpt><trkpt lat="43.24019146867579" lon="12.410347636673453"><ele>245.00000000000003</ele><time>2026-04-21T12:19:35.999Z</time></trkpt><trkpt lat="43.24011385195247" lon="12.410320632789434"><ele>245.0</ele><time>2026-04-21T12:19:36.999Z</time></trkpt><trkpt lat="43.24004930386355" lon="12.410276253069545"><ele>245.0</ele><time>2026-04-21T12:19:37.999Z</time></trkpt><trkpt lat="43.23996658278441" lon="12.410246270138083"><ele>245.0</ele><time>2026-04-21T12:19:38.999Z</time></trkpt><trkpt lat="43.23988707570736" lon="12.410210344076637"><ele>245.00000000000003</ele><time>2026-04-21T12:19:39.999Z</time></trkpt><trkpt lat="43.23981948243351" lon="12.410206593530132"><ele>245.0</ele><time>2026-04-21T12:19:40.999Z</time></trkpt><trkpt lat="43.239626048367626" lon="12.41022226621316"><ele>245.00000000000003</ele><time>2026-04-21T12:23:34Z</time></trkpt><trkpt lat="43.239544251269386" lon="12.410199027507975"><ele>245.0</ele><time>2026-04-21T12:23:35Z</time></trkpt><trkpt lat="43.2394687519011" lon="12.410174747400662"><ele>245.0</ele><time>2026-04-21T12:23:36Z</time></trkpt><trkpt lat="43.239358182199396" lon="12.41011333695232"><ele>245.0</ele><time>2026-04-21T12:23:38Z</time></trkpt><trkpt lat="43.23930517891081" lon="12.410061404441675"><ele>245.00000000000003</ele><time>2026-04-21T12:23:39Z</time></trkpt><trkpt lat="43.2392513142695" lon="12.409998850239171"><ele>245.0</ele><time>2026-04-21T12:23:40Z</time></trkpt><trkpt lat="43.239202888556186" lon="12.409896492051985"><ele>245.00000000000003</ele><time>2026-04-21T12:23:41Z</time></trkpt><trkpt lat="43.23912898463667" lon="12.40981751526484"><ele>245.0</ele><time>2026-04-21T12:23:42Z</time></trkpt><trkpt lat="43.23906939551995" lon="12.409730308280588"><ele>245.0</ele><time>2026-04-21T12:23:43Z</time></trkpt><trkpt lat="43.23901658589329" lon="12.409651050587863"><ele>245.0</ele><time>2026-04-21T12:23:44Z</time></trkpt><trkpt lat="43.2389653529719" lon="12.409575907082552"><ele>245.00000000000003</ele><time>2026-04-21T12:23:45Z</time></trkpt><trkpt lat="43.23890958393566" lon="12.409489485479247"><ele>245.0</ele><time>2026-04-21T12:23:46Z</time></trkpt><trkpt lat="43.238851687547644" lon="12.409409114427168"><ele>244.33333333333334</ele><time>2026-04-21T12:23:47Z</time></trkpt><trkpt lat="43.23879311908689" lon="12.40932522647042"><ele>243.66666666666669</ele><time>2026-04-21T12:23:48Z</time></trkpt><trkpt lat="43.23874242389771" lon="12.409237982271716"><ele>243.0</ele><time>2026-04-21T12:23:49Z</time></trkpt><trkpt lat="43.23867703424132" lon="12.409145184542599"><ele>242.33333333333331</ele><time>2026-04-21T12:23:50Z</time></trkpt><trkpt lat="43.238633515869246" lon="12.409065876315877"><ele>241.66666666666666</ele><time>2026-04-21T12:23:51Z</time></trkpt><trkpt lat="43.23857502294573" lon="12.40897662196146"><ele>241.0</ele><time>2026-04-21T12:23:51.999Z</time></trkpt><trkpt lat="43.23852264004006" lon="12.408893592206471"><ele>241.0</ele><time>2026-04-21T12:23:52.999Z</time></trkpt><trkpt lat="43.23847884885164" lon="12.4087970734431"><ele>241.00000000000003</ele><time>2026-04-21T12:23:53.999Z</time></trkpt><trkpt lat="43.23843881780737" lon="12.40870244416479"><ele>241.0</ele><time>2026-04-21T12:23:54.999Z</time></trkpt><trkpt lat="43.2384029758632" lon="12.408617628050381"><ele>241.0</ele><time>2026-04-21T12:23:55.999Z</time></trkpt><trkpt lat="43.23836727811428" lon="12.408527592226262"><ele>241.00000000000003</ele><time>2026-04-21T12:23:56.999Z</time></trkpt><trkpt lat="43.23833506124802" lon="12.408438626772556"><ele>241.0</ele><time>2026-04-21T12:23:57.999Z</time></trkpt><trkpt lat="43.23830026187126" lon="12.408357691695183"><ele>241.0</ele><time>2026-04-21T12:23:58.999Z</time></trkpt><trkpt lat="43.23826427474149" lon="12.408275374329442"><ele>240.99999999999997</ele><time>2026-04-21T12:23:59.999Z</time></trkpt><trkpt lat="43.23822970299049" lon="12.408198631162573"><ele>241.0</ele><time>2026-04-21T12:24:00.999Z</time></trkpt><trkpt lat="43.23819725712609" lon="12.408119439194126"><ele>241.0</ele><time>2026-04-21T12:24:01.999Z</time></trkpt><trkpt lat="43.23814044483113" lon="12.407986334431932"><ele>241.0</ele><time>2026-04-21T12:24:03.999Z</time></trkpt><trkpt lat="43.23811540089048" lon="12.407877150359377"><ele>240.99999999999997</ele><time>2026-04-21T12:24:05.999Z</time></trkpt><trkpt lat="43.23808352560963" lon="12.40779536923787"><ele>241.0</ele><time>2026-04-21T12:24:07.999Z</time></trkpt><trkpt lat="43.23804666169147" lon="12.40770078890852"><ele>240.33333333333331</ele><time>2026-04-21T12:24:09.999Z</time></trkpt><trkpt lat="43.23799083459586" lon="12.407557555514204"><ele>239.66666666666666</ele><time>2026-04-21T12:29:43Z</time></trkpt><trkpt lat="43.2379574301645" lon="12.407471851081127"><ele>239.0</ele><time>2026-04-21T12:29:44Z</time></trkpt><trkpt lat="43.237923460811054" lon="12.407384697250178"><ele>238.33333333333331</ele><time>2026-04-21T12:29:45Z</time></trkpt><trkpt lat="43.237889945544936" lon="12.407298708453567"><ele>237.66666666666666</ele><time>2026-04-21T12:29:46Z</time></trkpt><trkpt lat="43.237858544146064" lon="12.407218143112516"><ele>237.0</ele><time>2026-04-21T12:29:47Z</time></trkpt><trkpt lat="43.23779843376665" lon="12.407098940186733"><ele>236.66666666666666</ele><time>2026-04-21T12:29:49Z</time></trkpt><trkpt lat="43.23778559467534" lon="12.406996712090452"><ele>236.33333333333331</ele><time>2026-04-21T12:29:52Z</time></trkpt><trkpt lat="43.23786876616462" lon="12.40688546236075"><ele>236.0</ele><time>2026-04-21T12:29:55Z</time></trkpt><trkpt lat="43.2379326560825" lon="12.406852753861758"><ele>235.66666666666666</ele><time>2026-04-21T12:29:56Z</time></trkpt><trkpt lat="43.23799356852482" lon="12.406806552740491"><ele>235.33333333333331</ele><time>2026-04-21T12:29:57Z</time></trkpt><trkpt lat="43.23805715304349" lon="12.40676173169835"><ele>235.0</ele><time>2026-04-21T12:29:58Z</time></trkpt><trkpt lat="43.23813285619327" lon="12.406709233162385"><ele>234.6</ele><time>2026-04-21T12:29:59Z</time></trkpt><trkpt lat="43.23821300640841" lon="12.406645605694713"><ele>234.2</ele><time>2026-04-21T12:30:00Z</time></trkpt><trkpt lat="43.23830139722461" lon="12.406578736318432"><ele>233.8</ele><time>2026-04-21T12:30:01Z</time></trkpt><trkpt lat="43.2383976869401" lon="12.40650891984727"><ele>233.4</ele><time>2026-04-21T12:30:02Z</time></trkpt><trkpt lat="43.23850213351967" lon="12.406433664383174"><ele>233.0</ele><time>2026-04-21T12:30:03Z</time></trkpt><trkpt lat="43.23861352574596" lon="12.406355191235688"><ele>232.75</ele><time>2026-04-21T12:30:04Z</time></trkpt><trkpt lat="43.238730942596625" lon="12.40627578949495"><ele>232.5</ele><time>2026-04-21T12:30:05Z</time></trkpt><trkpt lat="43.23885712908347" lon="12.40619178494436"><ele>232.25</ele><time>2026-04-21T12:30:06Z</time></trkpt><trkpt lat="43.23898740480713" lon="12.406114726097956"><ele>232.0</ele><time>2026-04-21T12:30:07Z</time></trkpt><trkpt lat="43.23913151877355" lon="12.406043219301349"><ele>232.66666666666666</ele><time>2026-04-21T12:30:08Z</time></trkpt><trkpt lat="43.2392810766013" lon="12.405983170432014"><ele>233.33333333333331</ele><time>2026-04-21T12:30:09Z</time></trkpt><trkpt lat="43.23943397686583" lon="12.405938698242538"><ele>234.0</ele><time>2026-04-21T12:30:10Z</time></trkpt><trkpt lat="43.23958455153568" lon="12.405902952541997"><ele>234.0</ele><time>2026-04-21T12:30:11Z</time></trkpt><trkpt lat="43.23974531907283" lon="12.405887498994383"><ele>234.0</ele><time>2026-04-21T12:30:12Z</time></trkpt><trkpt lat="43.239908000700815" lon="12.405890459553145"><ele>234.0</ele><time>2026-04-21T12:30:13Z</time></trkpt><trkpt lat="43.24007904657873" lon="12.40590630422829"><ele>233.66666666666669</ele><time>2026-04-21T12:30:14Z</time></trkpt><trkpt lat="43.240244768605145" lon="12.405936802851402"><ele>233.33333333333334</ele><time>2026-04-21T12:30:15Z</time></trkpt><trkpt lat="43.24041118923599" lon="12.405979842644689"><ele>233.0</ele><time>2026-04-21T12:30:16Z</time></trkpt><trkpt lat="43.24057069804779" lon="12.406037794695784"><ele>233.0</ele><time>2026-04-21T12:30:17Z</time></trkpt><trkpt lat="43.2407363111166" lon="12.406103491378902"><ele>233.0</ele><time>2026-04-21T12:30:18Z</time></trkpt><trkpt lat="43.240905117280455" lon="12.406169895791184"><ele>233.0</ele><time>2026-04-21T12:30:19Z</time></trkpt><trkpt lat="43.24107313119556" lon="12.406226938541444"><ele>233.0</ele><time>2026-04-21T12:30:20Z</time></trkpt><trkpt lat="43.241242827384774" lon="12.406289042696638"><ele>233.0</ele><time>2026-04-21T12:30:21Z</time></trkpt><trkpt lat="43.24141341039304" lon="12.406350935521202"><ele>233.0</ele><time>2026-04-21T12:30:22Z</time></trkpt><trkpt lat="43.241577883173186" lon="12.406391959158862"><ele>233.33333333333334</ele><time>2026-04-21T12:30:23Z</time></trkpt><trkpt lat="43.24174030185703" lon="12.406420680007312"><ele>233.66666666666669</ele><time>2026-04-21T12:30:24Z</time></trkpt><trkpt lat="43.24190307064456" lon="12.406395739635819"><ele>234.0</ele><time>2026-04-21T12:30:25Z</time></trkpt><trkpt lat="43.242068783958864" lon="12.406334046737372"><ele>234.0</ele><time>2026-04-21T12:30:26Z</time></trkpt><trkpt lat="43.242227435999546" lon="12.406241499748008"><ele>234.0</ele><time>2026-04-21T12:30:27Z</time></trkpt><trkpt lat="43.24238116343326" lon="12.406135744429344"><ele>234.0</ele><time>2026-04-21T12:30:28Z</time></trkpt><trkpt lat="43.242540234017184" lon="12.406031460645535"><ele>234.0</ele><time>2026-04-21T12:30:29Z</time></trkpt><trkpt lat="43.2427051051258" lon="12.405929150923221"><ele>234.0</ele><time>2026-04-21T12:30:30Z</time></trkpt><trkpt lat="43.24287335228304" lon="12.40582276097105"><ele>234.0</ele><time>2026-04-21T12:30:31Z</time></trkpt><trkpt lat="43.243046344926114" lon="12.40571836839643"><ele>235.0</ele><time>2026-04-21T12:30:32Z</time></trkpt><trkpt lat="43.24321712065312" lon="12.405613151846719"><ele>236.0</ele><time>2026-04-21T12:30:33Z</time></trkpt><trkpt lat="43.24338539589064" lon="12.405533258413058"><ele>237.0</ele><time>2026-04-21T12:30:33.999Z</time></trkpt><trkpt lat="43.24356192320448" lon="12.405424659407384"><ele>237.0</ele><time>2026-04-21T12:30:34.999Z</time></trkpt><trkpt lat="43.24372674040639" lon="12.40529987827246"><ele>237.0</ele><time>2026-04-21T12:30:35.999Z</time></trkpt><trkpt lat="43.24389477853829" lon="12.405195498460468"><ele>237.0</ele><time>2026-04-21T12:30:36.999Z</time></trkpt><trkpt lat="43.24406828016571" lon="12.405110840613274"><ele>237.33333333333331</ele><time>2026-04-21T12:30:37.999Z</time></trkpt><trkpt lat="43.244232378164924" lon="12.405006735115231"><ele>237.66666666666666</ele><time>2026-04-21T12:30:38.999Z</time></trkpt><trkpt lat="43.24439603230598" lon="12.404889109747714"><ele>238.0</ele><time>2026-04-21T12:30:39.999Z</time></trkpt><trkpt lat="43.244556746091675" lon="12.404745038975571"><ele>237.66666666666666</ele><time>2026-04-21T12:30:40.999Z</time></trkpt><trkpt lat="43.24471071803761" lon="12.404582314184616"><ele>237.33333333333331</ele><time>2026-04-21T12:30:41.999Z</time></trkpt><trkpt lat="43.24486102817061" lon="12.404409023658951"><ele>237.0</ele><time>2026-04-21T12:30:42.999Z</time></trkpt><trkpt lat="43.245006810337294" lon="12.404221153522034"><ele>237.0</ele><time>2026-04-21T12:30:43.999Z</time></trkpt><trkpt lat="43.24514382947406" lon="12.40402357138316"><ele>237.0</ele><time>2026-04-21T12:30:44.999Z</time></trkpt><trkpt lat="43.245275421519544" lon="12.40381411348491"><ele>237.0</ele><time>2026-04-21T12:30:45.999Z</time></trkpt><trkpt lat="43.24537722611408" lon="12.403582838319116"><ele>235.66666666666669</ele><time>2026-04-21T12:30:46.999Z</time></trkpt><trkpt lat="43.245492489832465" lon="12.403374550902194"><ele>234.33333333333334</ele><time>2026-04-21T12:30:47.999Z</time></trkpt><trkpt lat="43.245591335933604" lon="12.403150129786049"><ele>233.0</ele><time>2026-04-21T12:30:48.999Z</time></trkpt><trkpt lat="43.245689060329354" lon="12.402922600495717"><ele>233.0</ele><time>2026-04-21T12:30:49.999Z</time></trkpt><trkpt lat="43.24577429385954" lon="12.40268027671441"><ele>233.0</ele><time>2026-04-21T12:30:50.999Z</time></trkpt><trkpt lat="43.245875301525416" lon="12.402462125441499"><ele>233.0</ele><time>2026-04-21T12:30:51.999Z</time></trkpt><trkpt lat="43.246000575887926" lon="12.402278593963226"><ele>233.0</ele><time>2026-04-21T12:30:52.999Z</time></trkpt><trkpt lat="43.246123556188785" lon="12.402131729727"><ele>233.0</ele><time>2026-04-21T12:30:53.999Z</time></trkpt><trkpt lat="43.246251563365064" lon="12.402034118309148"><ele>233.0</ele><time>2026-04-21T12:30:54.999Z</time></trkpt><trkpt lat="43.24638255626534" lon="12.40197175125134"><ele>233.0</ele><time>2026-04-21T12:30:55.999Z</time></trkpt><trkpt lat="43.24652320939584" lon="12.40193309287346"><ele>233.0</ele><time>2026-04-21T12:30:56.999Z</time></trkpt><trkpt lat="43.24667695634809" lon="12.401908851367907"><ele>233.0</ele><time>2026-04-21T12:30:57.999Z</time></trkpt><trkpt lat="43.24683536200679" lon="12.401893635429994"><ele>233.0</ele><time>2026-04-21T12:30:58.999Z</time></trkpt><trkpt lat="43.246990720313136" lon="12.401878533968908"><ele>233.0</ele><time>2026-04-21T12:30:59.999Z</time></trkpt><trkpt lat="43.24715304955121" lon="12.401861845806605"><ele>233.0</ele><time>2026-04-21T12:31:00.999Z</time></trkpt><trkpt lat="43.2473198113099" lon="12.40184231246047"><ele>233.0</ele><time>2026-04-21T12:31:01.999Z</time></trkpt><trkpt lat="43.247494758308385" lon="12.40182182032505"><ele>233.0</ele><time>2026-04-21T12:31:02.999Z</time></trkpt><trkpt lat="43.24767196506" lon="12.401802543554433"><ele>233.0</ele><time>2026-04-21T12:31:03.999Z</time></trkpt><trkpt lat="43.24784589405242" lon="12.401783950790453"><ele>233.0</ele><time>2026-04-21T12:31:04.999Z</time></trkpt><trkpt lat="43.24801517109503" lon="12.401765857342914"><ele>234.5</ele><time>2026-04-21T12:31:05.999Z</time></trkpt><trkpt lat="43.24818283188957" lon="12.401729289762086"><ele>236.0</ele><time>2026-04-21T12:31:06.999Z</time></trkpt><trkpt lat="43.24852479005955" lon="12.401691928207628"><ele>236.0</ele><time>2026-04-21T12:31:08.999Z</time></trkpt><trkpt lat="43.248696719565054" lon="12.401672075033193"><ele>236.0</ele><time>2026-04-21T12:31:09.999Z</time></trkpt><trkpt lat="43.24886836468913" lon="12.401652292460943"><ele>236.0</ele><time>2026-04-21T12:31:10.999Z</time></trkpt><trkpt lat="43.24904344739529" lon="12.40163626731697"><ele>236.33333333333334</ele><time>2026-04-21T12:31:11.999Z</time></trkpt><trkpt lat="43.24921818605783" lon="12.40161898924504"><ele>236.66666666666669</ele><time>2026-04-21T12:31:12.999Z</time></trkpt><trkpt lat="43.24939220704308" lon="12.401600238179954"><ele>237.0</ele><time>2026-04-21T12:31:13.999Z</time></trkpt><trkpt lat="43.24956987580915" lon="12.401585348710983"><ele>237.0</ele><time>2026-04-21T12:31:14.999Z</time></trkpt><trkpt lat="43.24974252847889" lon="12.401566194466787"><ele>237.0</ele><time>2026-04-21T12:31:15.999Z</time></trkpt><trkpt lat="43.24991341694686" lon="12.401547098390722"><ele>237.0</ele><time>2026-04-21T12:31:16.999Z</time></trkpt><trkpt lat="43.25008394190056" lon="12.401528734309512"><ele>237.0</ele><time>2026-04-21T12:31:17.999Z</time></trkpt><trkpt lat="43.25025088733906" lon="12.401508980549524"><ele>237.0</ele><time>2026-04-21T12:31:18.999Z</time></trkpt><trkpt lat="43.250410160199905" lon="12.401503444274411"><ele>237.0</ele><time>2026-04-21T12:31:19.999Z</time></trkpt><trkpt lat="43.25055721919683" lon="12.40147221654686"><ele>236.75</ele><time>2026-04-21T12:31:21Z</time></trkpt><trkpt lat="43.250699779486176" lon="12.401422799061907"><ele>236.5</ele><time>2026-04-21T12:31:22Z</time></trkpt><trkpt lat="43.25083229223053" lon="12.401338903707384"><ele>236.25</ele><time>2026-04-21T12:31:23Z</time></trkpt><trkpt lat="43.250966779272396" lon="12.401262229551692"><ele>236.0</ele><time>2026-04-21T12:31:24Z</time></trkpt><trkpt lat="43.25110972119051" lon="12.401207666080966"><ele>236.33333333333334</ele><time>2026-04-21T12:31:25Z</time></trkpt><trkpt lat="43.25125314297082" lon="12.401129726663116"><ele>236.66666666666669</ele><time>2026-04-21T12:31:26Z</time></trkpt><trkpt lat="43.25139086916115" lon="12.401037059865562"><ele>237.0</ele><time>2026-04-21T12:31:27Z</time></trkpt><trkpt lat="43.25168246814747" lon="12.400883479856263"><ele>237.0</ele><time>2026-04-21T12:31:29Z</time></trkpt><trkpt lat="43.25182700944956" lon="12.400798395502832"><ele>237.0</ele><time>2026-04-21T12:31:30Z</time></trkpt><trkpt lat="43.2519808858095" lon="12.40071584207904"><ele>237.0</ele><time>2026-04-21T12:31:31Z</time></trkpt><trkpt lat="43.252132611205845" lon="12.400636302698654"><ele>237.0</ele><time>2026-04-21T12:31:32Z</time></trkpt><trkpt lat="43.25228824483461" lon="12.4005548930322"><ele>237.0</ele><time>2026-04-21T12:31:33Z</time></trkpt><trkpt lat="43.252445703790116" lon="12.400469101018688"><ele>237.0</ele><time>2026-04-21T12:31:34Z</time></trkpt><trkpt lat="43.2526025812215" lon="12.40038003811414"><ele>237.33333333333331</ele><time>2026-04-21T12:31:35Z</time></trkpt><trkpt lat="43.252769012541734" lon="12.400307859921973"><ele>237.66666666666666</ele><time>2026-04-21T12:31:36Z</time></trkpt><trkpt lat="43.2529285388889" lon="12.400221664984729"><ele>238.0</ele><time>2026-04-21T12:31:37Z</time></trkpt><trkpt lat="43.25309706430691" lon="12.4001329048742"><ele>239.0</ele><time>2026-04-21T12:31:38Z</time></trkpt><trkpt lat="43.2532507039287" lon="12.400051603049599"><ele>240.0</ele><time>2026-04-21T12:31:39Z</time></trkpt><trkpt lat="43.253398767856865" lon="12.399948111910074"><ele>241.0</ele><time>2026-04-21T12:31:40Z</time></trkpt><trkpt lat="43.253540615917636" lon="12.399896128338433"><ele>241.0</ele><time>2026-04-21T12:31:41Z</time></trkpt><trkpt lat="43.25367012439486" lon="12.399826673854498"><ele>241.0</ele><time>2026-04-21T12:31:42Z</time></trkpt><trkpt lat="43.25379461185973" lon="12.399759981030885"><ele>241.0</ele><time>2026-04-21T12:31:43Z</time></trkpt><trkpt lat="43.253917656192534" lon="12.399695261762337"><ele>241.0</ele><time>2026-04-21T12:31:44Z</time></trkpt><trkpt lat="43.25404000959612" lon="12.399631321536654"><ele>240.8</ele><time>2026-04-21T12:31:45Z</time></trkpt><trkpt lat="43.25415297447836" lon="12.399571127811576"><ele>240.60000000000002</ele><time>2026-04-21T12:31:46Z</time></trkpt><trkpt lat="43.25425400733607" lon="12.399516954874244"><ele>240.4</ele><time>2026-04-21T12:31:47Z</time></trkpt><trkpt lat="43.25435117361647" lon="12.399464580901235"><ele>240.2</ele><time>2026-04-21T12:31:48Z</time></trkpt><trkpt lat="43.25443351922343" lon="12.399420120185166"><ele>240.0</ele><time>2026-04-21T12:31:49Z</time></trkpt><trkpt lat="43.254494358421226" lon="12.399296384785186"><ele>240.0</ele><time>2026-04-21T12:31:51Z</time></trkpt><trkpt lat="43.2544386236127" lon="12.399191297747048"><ele>240.0</ele><time>2026-04-21T12:31:54Z</time></trkpt><trkpt lat="43.25446871817789" lon="12.399108958645414"><ele>240.0</ele><time>2026-04-21T12:31:56Z</time></trkpt><trkpt lat="43.25455870811506" lon="12.39895841872523"><ele>240.0</ele><time>2026-04-21T12:31:58Z</time></trkpt><trkpt lat="43.25460939154065" lon="12.398877486063599"><ele>240.0</ele><time>2026-04-21T12:31:59Z</time></trkpt><trkpt lat="43.25466011025169" lon="12.398769482697906"><ele>240.0</ele><time>2026-04-21T12:32:00Z</time></trkpt><trkpt lat="43.254737296300945" lon="12.398657692464882"><ele>240.0</ele><time>2026-04-21T12:32:01Z</time></trkpt><trkpt lat="43.25480567731368" lon="12.398541986530633"><ele>240.0</ele><time>2026-04-21T12:32:02Z</time></trkpt><trkpt lat="43.25488914965502" lon="12.398422645211578"><ele>240.0</ele><time>2026-04-21T12:32:03Z</time></trkpt><trkpt lat="43.25497468340461" lon="12.398296845381934"><ele>240.0</ele><time>2026-04-21T12:32:04Z</time></trkpt><trkpt lat="43.255073736189274" lon="12.398186491909867"><ele>240.0</ele><time>2026-04-21T12:32:05Z</time></trkpt><trkpt lat="43.255156109715905" lon="12.398050122406952"><ele>240.0</ele><time>2026-04-21T12:32:06Z</time></trkpt><trkpt lat="43.255251514097196" lon="12.39793195131886"><ele>240.0</ele><time>2026-04-21T12:32:07Z</time></trkpt><trkpt lat="43.25534437064885" lon="12.397808690302067"><ele>240.25</ele><time>2026-04-21T12:32:08Z</time></trkpt><trkpt lat="43.25543294560518" lon="12.397684468853583"><ele>240.5</ele><time>2026-04-21T12:32:09Z</time></trkpt><trkpt lat="43.25551745929408" lon="12.397559756692894"><ele>240.75</ele><time>2026-04-21T12:32:10Z</time></trkpt><trkpt lat="43.25560715927689" lon="12.39743206180942"><ele>241.0</ele><time>2026-04-21T12:32:11Z</time></trkpt><trkpt lat="43.25571358542262" lon="12.397328515937048"><ele>241.0</ele><time>2026-04-21T12:32:12Z</time></trkpt><trkpt lat="43.25580734832758" lon="12.397224713389438"><ele>241.0</ele><time>2026-04-21T12:32:13Z</time></trkpt><trkpt lat="43.25591343060697" lon="12.397119581163592"><ele>241.0</ele><time>2026-04-21T12:32:14Z</time></trkpt><trkpt lat="43.25601934714002" lon="12.39700317267684"><ele>241.0</ele><time>2026-04-21T12:32:15Z</time></trkpt><trkpt lat="43.25613651804506" lon="12.396897260478346"><ele>241.0</ele><time>2026-04-21T12:32:16Z</time></trkpt><trkpt lat="43.25625891806226" lon="12.396794239854845"><ele>241.0</ele><time>2026-04-21T12:32:17Z</time></trkpt><trkpt lat="43.25638262220282" lon="12.396681499167935"><ele>241.0</ele><time>2026-04-21T12:32:18Z</time></trkpt><trkpt lat="43.25651503607434" lon="12.396576574658717"><ele>241.0</ele><time>2026-04-21T12:32:19Z</time></trkpt><trkpt lat="43.256645910502435" lon="12.396465085992144"><ele>241.0</ele><time>2026-04-21T12:32:20Z</time></trkpt><trkpt lat="43.256778464650175" lon="12.396349959343167"><ele>241.0</ele><time>2026-04-21T12:32:21Z</time></trkpt><trkpt lat="43.25690691297442" lon="12.39623838186852"><ele>241.0</ele><time>2026-04-21T12:32:22Z</time></trkpt><trkpt lat="43.25703521484515" lon="12.396129718364653"><ele>240.33333333333331</ele><time>2026-04-21T12:32:23Z</time></trkpt><trkpt lat="43.25715745552741" lon="12.396024286294452"><ele>239.66666666666669</ele><time>2026-04-21T12:32:24Z</time></trkpt><trkpt lat="43.257280114575494" lon="12.39589132769245"><ele>239.0</ele><time>2026-04-21T12:32:25Z</time></trkpt><trkpt lat="43.25738667434698" lon="12.395737463080899"><ele>239.0</ele><time>2026-04-21T12:32:26Z</time></trkpt><trkpt lat="43.25748102704785" lon="12.39556196709422"><ele>239.0</ele><time>2026-04-21T12:32:27Z</time></trkpt><trkpt lat="43.25756337218782" lon="12.39537708395456"><ele>239.0</ele><time>2026-04-21T12:32:28Z</time></trkpt><trkpt lat="43.257635120134005" lon="12.395183374706678"><ele>238.33333333333334</ele><time>2026-04-21T12:32:29Z</time></trkpt><trkpt lat="43.257711430417665" lon="12.394992677620206"><ele>237.66666666666669</ele><time>2026-04-21T12:32:30Z</time></trkpt><trkpt lat="43.257793152851036" lon="12.39480348477832"><ele>237.0</ele><time>2026-04-21T12:32:31Z</time></trkpt><trkpt lat="43.25786562425788" lon="12.394610159316668"><ele>236.0</ele><time>2026-04-21T12:32:32Z</time></trkpt><trkpt lat="43.257935338458665" lon="12.394416329958446"><ele>235.0</ele><time>2026-04-21T12:32:33Z</time></trkpt><trkpt lat="43.25799327718919" lon="12.394217569605235"><ele>234.0</ele><time>2026-04-21T12:32:33.999Z</time></trkpt><trkpt lat="43.25803440810688" lon="12.393999777435067"><ele>233.25</ele><time>2026-04-21T12:32:34.999Z</time></trkpt><trkpt lat="43.258081134568904" lon="12.393795950363966"><ele>232.5</ele><time>2026-04-21T12:32:35.999Z</time></trkpt><trkpt lat="43.25813017335743" lon="12.39360803985326"><ele>231.75</ele><time>2026-04-21T12:32:36.999Z</time></trkpt><trkpt lat="43.25818221341849" lon="12.39344475621164"><ele>231.0</ele><time>2026-04-21T12:32:37.999Z</time></trkpt><trkpt lat="43.25826575531737" lon="12.393324633029675"><ele>231.0</ele><time>2026-04-21T12:32:38.999Z</time></trkpt><trkpt lat="43.258347705344555" lon="12.393224005575888"><ele>231.0</ele><time>2026-04-21T12:32:39.999Z</time></trkpt><trkpt lat="43.25844860720299" lon="12.393142822024314"><ele>231.0</ele><time>2026-04-21T12:32:40.999Z</time></trkpt><trkpt lat="43.25856662464505" lon="12.393108201733678"><ele>231.0</ele><time>2026-04-21T12:32:41.999Z</time></trkpt><trkpt lat="43.25869642075777" lon="12.393080422207161"><ele>231.0</ele><time>2026-04-21T12:32:42.999Z</time></trkpt><trkpt lat="43.25883184854744" lon="12.393044729449654"><ele>231.0</ele><time>2026-04-21T12:32:43.999Z</time></trkpt><trkpt lat="43.25897343506936" lon="12.393018632736146"><ele>231.0</ele><time>2026-04-21T12:32:44.999Z</time></trkpt><trkpt lat="43.259120533096144" lon="12.392994502726767"><ele>231.0</ele><time>2026-04-21T12:32:45.999Z</time></trkpt><trkpt lat="43.259268464217136" lon="12.392968003714355"><ele>233.33333333333331</ele><time>2026-04-21T12:32:46.999Z</time></trkpt><trkpt lat="43.25941679364197" lon="12.392950317622587"><ele>235.66666666666666</ele><time>2026-04-21T12:32:47.999Z</time></trkpt><trkpt lat="43.25957228514145" lon="12.392911931539205"><ele>238.0</ele><time>2026-04-21T12:32:48.999Z</time></trkpt><trkpt lat="43.25972585394587" lon="12.392875267583316"><ele>237.66666666666666</ele><time>2026-04-21T12:32:49.999Z</time></trkpt><trkpt lat="43.259887607505114" lon="12.39285316077616"><ele>237.33333333333331</ele><time>2026-04-21T12:32:50.999Z</time></trkpt><trkpt lat="43.26005068358106" lon="12.392823491348766"><ele>237.0</ele><time>2026-04-21T12:32:51.999Z</time></trkpt><trkpt lat="43.26020791467308" lon="12.392791099035497"><ele>237.0</ele><time>2026-04-21T12:32:52.999Z</time></trkpt><trkpt lat="43.260363744612484" lon="12.392766252444664"><ele>237.0</ele><time>2026-04-21T12:32:53.999Z</time></trkpt><trkpt lat="43.26051948290734" lon="12.392732519258514"><ele>237.0</ele><time>2026-04-21T12:32:54.999Z</time></trkpt><trkpt lat="43.260660070186226" lon="12.39271071386724"><ele>237.75</ele><time>2026-04-21T12:32:55.999Z</time></trkpt><trkpt lat="43.2607850797039" lon="12.392682936855685"><ele>238.5</ele><time>2026-04-21T12:32:56.999Z</time></trkpt><trkpt lat="43.26090115051934" lon="12.392665633670015"><ele>239.25</ele><time>2026-04-21T12:32:57.999Z</time></trkpt><trkpt lat="43.261015633592706" lon="12.392638982276287"><ele>240.0</ele><time>2026-04-21T12:32:58.999Z</time></trkpt><trkpt lat="43.26113361033786" lon="12.392630902586603"><ele>240.0</ele><time>2026-04-21T12:32:59.999Z</time></trkpt><trkpt lat="43.261244386671876" lon="12.392597287316812"><ele>240.0</ele><time>2026-04-21T12:33:00.999Z</time></trkpt><trkpt lat="43.26136103192752" lon="12.392562923979094"><ele>240.0</ele><time>2026-04-21T12:33:01.999Z</time></trkpt><trkpt lat="43.26146840263458" lon="12.392523501150011"><ele>240.0</ele><time>2026-04-21T12:33:02.999Z</time></trkpt><trkpt lat="43.26157264779799" lon="12.392463076935485"><ele>240.75</ele><time>2026-04-21T12:33:03.999Z</time></trkpt><trkpt lat="43.261686277102235" lon="12.392449263855564"><ele>241.5</ele><time>2026-04-21T12:33:04.999Z</time></trkpt><trkpt lat="43.26179523907679" lon="12.392392300214489"><ele>242.25</ele><time>2026-04-21T12:33:05.999Z</time></trkpt><trkpt lat="43.26190971519438" lon="12.39236625935039"><ele>243.0</ele><time>2026-04-21T12:33:06.999Z</time></trkpt><trkpt lat="43.26202543460616" lon="12.392338504265288"><ele>243.0</ele><time>2026-04-21T12:33:07.999Z</time></trkpt><trkpt lat="43.2621435495955" lon="12.392309146944754"><ele>243.0</ele><time>2026-04-21T12:33:08.999Z</time></trkpt><trkpt lat="43.26226519063822" lon="12.392310447850013"><ele>243.0</ele><time>2026-04-21T12:33:09.999Z</time></trkpt><trkpt lat="43.26238430187333" lon="12.392281920974161"><ele>243.0</ele><time>2026-04-21T12:33:10.999Z</time></trkpt><trkpt lat="43.262497230495114" lon="12.392258327063027"><ele>243.4</ele><time>2026-04-21T12:33:11.999Z</time></trkpt><trkpt lat="43.26260873196437" lon="12.392238630755068"><ele>243.8</ele><time>2026-04-21T12:33:12.999Z</time></trkpt><trkpt lat="43.262719753537255" lon="12.39222400159997"><ele>244.2</ele><time>2026-04-21T12:33:13.999Z</time></trkpt><trkpt lat="43.262809563154626" lon="12.39220394017773"><ele>244.6</ele><time>2026-04-21T12:33:14.999Z</time></trkpt><trkpt lat="43.262900537302556" lon="12.392156441773656"><ele>245.0</ele><time>2026-04-21T12:33:15.999Z</time></trkpt><trkpt lat="43.26299008519646" lon="12.392107765529525"><ele>245.0</ele><time>2026-04-21T12:33:16.999Z</time></trkpt><trkpt lat="43.26308361124703" lon="12.392057402431659"><ele>245.0</ele><time>2026-04-21T12:33:17.999Z</time></trkpt><trkpt lat="43.26317986825414" lon="12.392003036264573"><ele>245.0</ele><time>2026-04-21T12:33:18.999Z</time></trkpt><trkpt lat="43.2632757184268" lon="12.391939880423376"><ele>245.0</ele><time>2026-04-21T12:33:19.999Z</time></trkpt><trkpt lat="43.26336106101919" lon="12.39187507457523"><ele>245.0</ele><time>2026-04-21T12:33:20.999Z</time></trkpt><trkpt lat="43.263438008280836" lon="12.391817413754099"><ele>245.2</ele><time>2026-04-21T12:33:21.999Z</time></trkpt><trkpt lat="43.26351322235083" lon="12.391761051938587"><ele>245.4</ele><time>2026-04-21T12:33:22.999Z</time></trkpt><trkpt lat="43.2636040508078" lon="12.39169207367531"><ele>245.60000000000002</ele><time>2026-04-21T12:33:23.999Z</time></trkpt><trkpt lat="43.26368878931741" lon="12.391625990681309"><ele>245.8</ele><time>2026-04-21T12:33:24.999Z</time></trkpt><trkpt lat="43.263779374332486" lon="12.391547683596245"><ele>246.0</ele><time>2026-04-21T12:33:25.999Z</time></trkpt><trkpt lat="43.2638641773167" lon="12.391470907707742"><ele>246.0</ele><time>2026-04-21T12:33:27Z</time></trkpt><trkpt lat="43.263942960893864" lon="12.391397949902894"><ele>246.00000000000003</ele><time>2026-04-21T12:33:28Z</time></trkpt><trkpt lat="43.26402493588729" lon="12.391322036487306"><ele>246.00000000000003</ele><time>2026-04-21T12:33:29Z</time></trkpt><trkpt lat="43.2641157104988" lon="12.391239538768422"><ele>246.0</ele><time>2026-04-21T12:33:30Z</time></trkpt><trkpt lat="43.26421095884587" lon="12.39115410200104"><ele>246.0</ele><time>2026-04-21T12:33:31Z</time></trkpt><trkpt lat="43.264310626008324" lon="12.391058357234385"><ele>246.25</ele><time>2026-04-21T12:33:32Z</time></trkpt><trkpt lat="43.264399895883884" lon="12.39094310496702"><ele>246.5</ele><time>2026-04-21T12:33:33Z</time></trkpt><trkpt lat="43.264499191952225" lon="12.390867648049062"><ele>246.75</ele><time>2026-04-21T12:33:34Z</time></trkpt><trkpt lat="43.264599827299755" lon="12.390732666999307"><ele>247.0</ele><time>2026-04-21T12:33:35Z</time></trkpt><trkpt lat="43.264699091564985" lon="12.390629766342272"><ele>247.0</ele><time>2026-04-21T12:33:36Z</time></trkpt><trkpt lat="43.26477249312813" lon="12.390528403772038"><ele>247.0</ele><time>2026-04-21T12:33:37Z</time></trkpt><trkpt lat="43.26483856938389" lon="12.390425707831723"><ele>247.0</ele><time>2026-04-21T12:33:38Z</time></trkpt><trkpt lat="43.26490191865349" lon="12.390313113881927"><ele>247.0</ele><time>2026-04-21T12:33:39Z</time></trkpt><trkpt lat="43.264946784085765" lon="12.390197540368023"><ele>247.0</ele><time>2026-04-21T12:33:40Z</time></trkpt><trkpt lat="43.26499761173041" lon="12.390100632935932"><ele>246.99999999999997</ele><time>2026-04-21T12:33:41Z</time></trkpt><trkpt lat="43.26503519718244" lon="12.390020355940933"><ele>247.0</ele><time>2026-04-21T12:33:42Z</time></trkpt><trkpt lat="43.265066623507096" lon="12.389937277192756"><ele>247.0</ele><time>2026-04-21T12:33:43Z</time></trkpt><trkpt lat="43.26506032762448" lon="12.3898011977997"><ele>247.0</ele><time>2026-04-21T12:33:45Z</time></trkpt><trkpt lat="43.264981296943446" lon="12.389714520844608"><ele>246.99999999999997</ele><time>2026-04-21T12:33:47Z</time></trkpt><trkpt lat="43.26492532278613" lon="12.389674137749333"><ele>247.0</ele><time>2026-04-21T12:33:48Z</time></trkpt><trkpt lat="43.264858982037296" lon="12.389597769280018"><ele>246.39999999999998</ele><time>2026-04-21T12:33:49Z</time></trkpt><trkpt lat="43.264799458147785" lon="12.389501848254435"><ele>245.79999999999998</ele><time>2026-04-21T12:33:50Z</time></trkpt><trkpt lat="43.264738105867295" lon="12.389389625632228"><ele>245.2</ele><time>2026-04-21T12:33:51Z</time></trkpt><trkpt lat="43.264672639960054" lon="12.389270492109947"><ele>244.6</ele><time>2026-04-21T12:33:52Z</time></trkpt><trkpt lat="43.26459925139378" lon="12.389139822281907"><ele>244.0</ele><time>2026-04-21T12:33:53Z</time></trkpt><trkpt lat="43.26453448226148" lon="12.389011415863976"><ele>243.5</ele><time>2026-04-21T12:33:54Z</time></trkpt><trkpt lat="43.26445541618607" lon="12.388879249677258"><ele>243.0</ele><time>2026-04-21T12:33:55Z</time></trkpt><trkpt lat="43.26437690728773" lon="12.388741016283372"><ele>242.5</ele><time>2026-04-21T12:33:56Z</time></trkpt><trkpt lat="43.26429821578403" lon="12.388597678870644"><ele>242.0</ele><time>2026-04-21T12:33:57Z</time></trkpt><trkpt lat="43.26421584419585" lon="12.388460260773233"><ele>241.25</ele><time>2026-04-21T12:33:58Z</time></trkpt><trkpt lat="43.26414037138898" lon="12.388327676370949"><ele>240.5</ele><time>2026-04-21T12:33:59Z</time></trkpt><trkpt lat="43.264061561974" lon="12.388183447921493"><ele>239.75</ele><time>2026-04-21T12:34:00Z</time></trkpt><trkpt lat="43.26398132930447" lon="12.388024700721083"><ele>239.0</ele><time>2026-04-21T12:34:01Z</time></trkpt><trkpt lat="43.2639002475944" lon="12.387855785973912"><ele>237.33333333333334</ele><time>2026-04-21T12:34:02Z</time></trkpt><trkpt lat="43.26381513488245" lon="12.387685834804694"><ele>235.66666666666669</ele><time>2026-04-21T12:34:03Z</time></trkpt><trkpt lat="43.263727458964695" lon="12.38750491056714"><ele>234.0</ele><time>2026-04-21T12:34:04Z</time></trkpt><trkpt lat="43.263639635097825" lon="12.387325058473584"><ele>233.66666666666669</ele><time>2026-04-21T12:34:05Z</time></trkpt><trkpt lat="43.26354950919343" lon="12.387141216550312"><ele>233.33333333333334</ele><time>2026-04-21T12:34:06Z</time></trkpt><trkpt lat="43.26345965960498" lon="12.386960877265581"><ele>233.0</ele><time>2026-04-21T12:34:07Z</time></trkpt><trkpt lat="43.263399763729076" lon="12.386792447778836"><ele>233.0</ele><time>2026-04-21T12:34:08Z</time></trkpt><trkpt lat="43.26332744267697" lon="12.386619085492498"><ele>233.0</ele><time>2026-04-21T12:34:09Z</time></trkpt><trkpt lat="43.26321322079945" lon="12.386411110482246"><ele>233.0</ele><time>2026-04-21T12:34:10Z</time></trkpt><trkpt lat="43.2631297137762" lon="12.386236261758619"><ele>233.33333333333334</ele><time>2026-04-21T12:34:11Z</time></trkpt><trkpt lat="43.26304301998775" lon="12.38606177667388"><ele>233.66666666666669</ele><time>2026-04-21T12:34:12Z</time></trkpt><trkpt lat="43.262959936768674" lon="12.38588833835229"><ele>234.0</ele><time>2026-04-21T12:34:13Z</time></trkpt><trkpt lat="43.262877357150494" lon="12.385714440437322"><ele>234.0</ele><time>2026-04-21T12:34:14Z</time></trkpt><trkpt lat="43.26279913414473" lon="12.385536682282737"><ele>234.0</ele><time>2026-04-21T12:34:15Z</time></trkpt><trkpt lat="43.26271886095996" lon="12.38535604197577"><ele>234.0</ele><time>2026-04-21T12:34:16Z</time></trkpt><trkpt lat="43.262637331367564" lon="12.385175839951676"><ele>233.66666666666669</ele><time>2026-04-21T12:34:17Z</time></trkpt><trkpt lat="43.26255151497874" lon="12.38499226566264"><ele>233.33333333333334</ele><time>2026-04-21T12:34:18Z</time></trkpt><trkpt lat="43.262461337265265" lon="12.384793899192182"><ele>233.0</ele><time>2026-04-21T12:34:19Z</time></trkpt><trkpt lat="43.262374420874366" lon="12.384592529068582"><ele>232.66666666666669</ele><time>2026-04-21T12:34:20Z</time></trkpt><trkpt lat="43.262284670577074" lon="12.384380785509018"><ele>232.33333333333331</ele><time>2026-04-21T12:34:21Z</time></trkpt><trkpt lat="43.262189671495484" lon="12.384171489239467"><ele>232.0</ele><time>2026-04-21T12:34:22Z</time></trkpt><trkpt lat="43.26208435309528" lon="12.383972274707668"><ele>230.33333333333331</ele><time>2026-04-21T12:34:23Z</time></trkpt><trkpt lat="43.26197116625363" lon="12.383785006592676"><ele>228.66666666666669</ele><time>2026-04-21T12:34:24Z</time></trkpt><trkpt lat="43.261849192655724" lon="12.383614908825122"><ele>227.0</ele><time>2026-04-21T12:34:25Z</time></trkpt><trkpt lat="43.26171658487252" lon="12.383452997144683"><ele>227.0</ele><time>2026-04-21T12:34:26Z</time></trkpt><trkpt lat="43.26158073522262" lon="12.38330142071537"><ele>227.0</ele><time>2026-04-21T12:34:27Z</time></trkpt><trkpt lat="43.261443655726495" lon="12.383146939116857"><ele>227.0</ele><time>2026-04-21T12:34:28Z</time></trkpt><trkpt lat="43.261306891968225" lon="12.382988852428792"><ele>226.0</ele><time>2026-04-21T12:34:29Z</time></trkpt><trkpt lat="43.261166907808324" lon="12.382819223784379"><ele>225.0</ele><time>2026-04-21T12:34:30Z</time></trkpt><trkpt lat="43.26102560965631" lon="12.382655255430686"><ele>224.0</ele><time>2026-04-21T12:34:31Z</time></trkpt><trkpt lat="43.260884397795046" lon="12.382489438412467"><ele>224.0</ele><time>2026-04-21T12:34:32Z</time></trkpt><trkpt lat="43.260741730801364" lon="12.382330566260253"><ele>224.0</ele><time>2026-04-21T12:34:33Z</time></trkpt><trkpt lat="43.26059798385127" lon="12.382173991172811"><ele>224.0</ele><time>2026-04-21T12:34:34Z</time></trkpt><trkpt lat="43.2604484985339" lon="12.382035410831078"><ele>224.0</ele><time>2026-04-21T12:34:35Z</time></trkpt><trkpt lat="43.26029067282947" lon="12.38191051569699"><ele>224.0</ele><time>2026-04-21T12:34:36Z</time></trkpt><trkpt lat="43.260129780022936" lon="12.381814284305085"><ele>224.0</ele><time>2026-04-21T12:34:37Z</time></trkpt><trkpt lat="43.25996207336467" lon="12.381721313739991"><ele>224.0</ele><time>2026-04-21T12:34:38Z</time></trkpt><trkpt lat="43.25978475136197" lon="12.381620499411357"><ele>224.0</ele><time>2026-04-21T12:34:39Z</time></trkpt><trkpt lat="43.25960920507775" lon="12.381522598667125"><ele>224.0</ele><time>2026-04-21T12:34:40Z</time></trkpt><trkpt lat="43.259435572616866" lon="12.381430586602821"><ele>224.66666666666669</ele><time>2026-04-21T12:34:41Z</time></trkpt><trkpt lat="43.25926055062737" lon="12.381332729603344"><ele>225.33333333333331</ele><time>2026-04-21T12:34:42Z</time></trkpt><trkpt lat="43.259085706714" lon="12.381233537662888"><ele>226.0</ele><time>2026-04-21T12:34:43Z</time></trkpt><trkpt lat="43.258917897666784" lon="12.381146114023501"><ele>226.0</ele><time>2026-04-21T12:34:44Z</time></trkpt><trkpt lat="43.25874719546007" lon="12.381062349621436"><ele>226.0</ele><time>2026-04-21T12:34:45Z</time></trkpt><trkpt lat="43.25857104884894" lon="12.380988045276487"><ele>226.0</ele><time>2026-04-21T12:34:46Z</time></trkpt><trkpt lat="43.25838547448772" lon="12.380945502773029"><ele>226.0</ele><time>2026-04-21T12:34:47Z</time></trkpt><trkpt lat="43.258196618417166" lon="12.380941007229403"><ele>226.0</ele><time>2026-04-21T12:34:48Z</time></trkpt><trkpt lat="43.25800800310219" lon="12.380957625365864"><ele>226.0</ele><time>2026-04-21T12:34:49Z</time></trkpt><trkpt lat="43.25782367901547" lon="12.381002578471158"><ele>226.0</ele><time>2026-04-21T12:34:50Z</time></trkpt><trkpt lat="43.25764227047654" lon="12.38105146200829"><ele>226.0</ele><time>2026-04-21T12:34:51Z</time></trkpt><trkpt lat="43.257463780684375" lon="12.381111939573248"><ele>226.0</ele><time>2026-04-21T12:34:52Z</time></trkpt><trkpt lat="43.25728163089143" lon="12.38118690724106"><ele>226.0</ele><time>2026-04-21T12:34:52.999Z</time></trkpt><trkpt lat="43.257095091236366" lon="12.381262729225618"><ele>226.0</ele><time>2026-04-21T12:34:53.999Z</time></trkpt><trkpt lat="43.25690668734179" lon="12.381337027999823"><ele>226.0</ele><time>2026-04-21T12:34:54.999Z</time></trkpt><trkpt lat="43.25671447330408" lon="12.381414980468277"><ele>226.0</ele><time>2026-04-21T12:34:55.999Z</time></trkpt><trkpt lat="43.25652702818231" lon="12.381493942874394"><ele>226.0</ele><time>2026-04-21T12:34:56.999Z</time></trkpt><trkpt lat="43.2563247775583" lon="12.381577536256893"><ele>226.0</ele><time>2026-04-21T12:34:57.999Z</time></trkpt><trkpt lat="43.25612058097792" lon="12.381667622094234"><ele>226.0</ele><time>2026-04-21T12:34:58.999Z</time></trkpt><trkpt lat="43.25591947859056" lon="12.381753763524737"><ele>226.0</ele><time>2026-04-21T12:34:59.999Z</time></trkpt><trkpt lat="43.25571416909581" lon="12.381845511723352"><ele>226.0</ele><time>2026-04-21T12:35:00.999Z</time></trkpt><trkpt lat="43.25550939743399" lon="12.381937592593847"><ele>226.33333333333331</ele><time>2026-04-21T12:35:01.999Z</time></trkpt><trkpt lat="43.25532286472279" lon="12.382013669169938"><ele>226.66666666666669</ele><time>2026-04-21T12:35:02.999Z</time></trkpt><trkpt lat="43.25515924811736" lon="12.382082708500986"><ele>227.0</ele><time>2026-04-21T12:35:03.999Z</time></trkpt><trkpt lat="43.25501724270499" lon="12.382134155703387"><ele>227.0</ele><time>2026-04-21T12:35:04.999Z</time></trkpt><trkpt lat="43.254905009567544" lon="12.382176440777487"><ele>227.0</ele><time>2026-04-21T12:35:05.999Z</time></trkpt><trkpt lat="43.25479976769074" lon="12.382202323553333"><ele>227.0</ele><time>2026-04-21T12:35:06.999Z</time></trkpt><trkpt lat="43.25468929862795" lon="12.382228258306677"><ele>227.0</ele><time>2026-04-21T12:35:07.999Z</time></trkpt><trkpt lat="43.254559893679534" lon="12.382252361471155"><ele>226.66666666666669</ele><time>2026-04-21T12:35:08.999Z</time></trkpt><trkpt lat="43.25441338216884" lon="12.382261630974794"><ele>226.33333333333331</ele><time>2026-04-21T12:35:09.999Z</time></trkpt><trkpt lat="43.25425661143504" lon="12.382257538117576"><ele>226.0</ele><time>2026-04-21T12:35:10.999Z</time></trkpt><trkpt lat="43.25409198285744" lon="12.382235302920227"><ele>227.33333333333331</ele><time>2026-04-21T12:35:11.999Z</time></trkpt><trkpt lat="43.253912237958914" lon="12.382219317234078"><ele>228.66666666666669</ele><time>2026-04-21T12:35:12.999Z</time></trkpt><trkpt lat="43.25372555904969" lon="12.382210527247615"><ele>230.0</ele><time>2026-04-21T12:35:13.999Z</time></trkpt><trkpt lat="43.25353021500697" lon="12.382205668104818"><ele>230.0</ele><time>2026-04-21T12:35:14.999Z</time></trkpt><trkpt lat="43.253337048231344" lon="12.382192449608866"><ele>230.0</ele><time>2026-04-21T12:35:15.999Z</time></trkpt><trkpt lat="43.253137827823366" lon="12.382183356529167"><ele>230.0</ele><time>2026-04-21T12:35:16.999Z</time></trkpt><trkpt lat="43.25293633562687" lon="12.382172937480933"><ele>229.33333333333334</ele><time>2026-04-21T12:35:17.999Z</time></trkpt><trkpt lat="43.252734667857474" lon="12.382160206712445"><ele>228.66666666666669</ele><time>2026-04-21T12:35:18.999Z</time></trkpt><trkpt lat="43.2525249523698" lon="12.382147992341107"><ele>228.0</ele><time>2026-04-21T12:35:19.999Z</time></trkpt><trkpt lat="43.25231744749924" lon="12.382135310971062"><ele>228.33333333333331</ele><time>2026-04-21T12:35:20.999Z</time></trkpt><trkpt lat="43.25210895592388" lon="12.38212231140867"><ele>228.66666666666666</ele><time>2026-04-21T12:35:21.999Z</time></trkpt><trkpt lat="43.25189957523241" lon="12.382111410424471"><ele>229.0</ele><time>2026-04-21T12:35:22.999Z</time></trkpt><trkpt lat="43.251690717997946" lon="12.382102377393995"><ele>229.0</ele><time>2026-04-21T12:35:23.999Z</time></trkpt><trkpt lat="43.25148260942285" lon="12.382097785614523"><ele>229.0</ele><time>2026-04-21T12:35:24.999Z</time></trkpt><trkpt lat="43.25126916538873" lon="12.382080720856159"><ele>229.0</ele><time>2026-04-21T12:35:25.999Z</time></trkpt><trkpt lat="43.25105788153519" lon="12.382058079100677"><ele>230.0</ele><time>2026-04-21T12:35:26.999Z</time></trkpt><trkpt lat="43.25084700895356" lon="12.382029354841984"><ele>231.0</ele><time>2026-04-21T12:35:27.999Z</time></trkpt><trkpt lat="43.25063768535462" lon="12.381992055547205"><ele>232.0</ele><time>2026-04-21T12:35:28.999Z</time></trkpt><trkpt lat="43.25043555269612" lon="12.38191642139174"><ele>233.0</ele><time>2026-04-21T12:35:29.999Z</time></trkpt><trkpt lat="43.25023937297941" lon="12.381819843486172"><ele>234.0</ele><time>2026-04-21T12:35:30.999Z</time></trkpt><trkpt lat="43.2500460520627" lon="12.38170558577608"><ele>235.0</ele><time>2026-04-21T12:35:31.999Z</time></trkpt><trkpt lat="43.2498534821522" lon="12.381574347990965"><ele>236.33333333333331</ele><time>2026-04-21T12:35:33Z</time></trkpt><trkpt lat="43.24969390642344" lon="12.381392806451894"><ele>237.66666666666669</ele><time>2026-04-21T12:35:34Z</time></trkpt><trkpt lat="43.249534016105756" lon="12.381209292796127"><ele>239.0</ele><time>2026-04-21T12:35:35Z</time></trkpt><trkpt lat="43.24937808726438" lon="12.381024883897178"><ele>239.0</ele><time>2026-04-21T12:35:36Z</time></trkpt><trkpt lat="43.249243212498236" lon="12.380800432832237"><ele>239.0</ele><time>2026-04-21T12:35:37Z</time></trkpt><trkpt lat="43.24912254396819" lon="12.380566694739064"><ele>239.0</ele><time>2026-04-21T12:35:38Z</time></trkpt><trkpt lat="43.249037804519865" lon="12.380306592429477"><ele>240.0</ele><time>2026-04-21T12:35:39Z</time></trkpt><trkpt lat="43.24895581727492" lon="12.380041104681107"><ele>241.0</ele><time>2026-04-21T12:35:40Z</time></trkpt><trkpt lat="43.248882622740446" lon="12.379775224597932"><ele>242.0</ele><time>2026-04-21T12:35:41Z</time></trkpt><trkpt lat="43.24879817943982" lon="12.379510564323047"><ele>242.0</ele><time>2026-04-21T12:35:42Z</time></trkpt><trkpt lat="43.248726299748746" lon="12.37924126772788"><ele>242.0</ele><time>2026-04-21T12:35:43Z</time></trkpt><trkpt lat="43.24865083930385" lon="12.378963424655364"><ele>242.0</ele><time>2026-04-21T12:35:44Z</time></trkpt><trkpt lat="43.24857564747994" lon="12.37869147335032"><ele>240.66666666666669</ele><time>2026-04-21T12:35:45Z</time></trkpt><trkpt lat="43.24849980870821" lon="12.37841693093544"><ele>239.33333333333331</ele><time>2026-04-21T12:35:46Z</time></trkpt><trkpt lat="43.248424743115464" lon="12.37813827041475"><ele>238.0</ele><time>2026-04-21T12:35:47Z</time></trkpt><trkpt lat="43.248349215000324" lon="12.377861105003623"><ele>238.33333333333331</ele><time>2026-04-21T12:35:48Z</time></trkpt><trkpt lat="43.24827131187504" lon="12.377579587681915"><ele>238.66666666666669</ele><time>2026-04-21T12:35:49Z</time></trkpt><trkpt lat="43.24819104021205" lon="12.377296814313478"><ele>239.0</ele><time>2026-04-21T12:35:50Z</time></trkpt><trkpt lat="43.2481104215546" lon="12.377015408740064"><ele>239.0</ele><time>2026-04-21T12:35:51Z</time></trkpt><trkpt lat="43.24803499798382" lon="12.376735833809928"><ele>239.0</ele><time>2026-04-21T12:35:52Z</time></trkpt><trkpt lat="43.24797262002557" lon="12.37644263218667"><ele>239.0</ele><time>2026-04-21T12:35:53Z</time></trkpt><trkpt lat="43.247950777675484" lon="12.376148130982866"><ele>239.0</ele><time>2026-04-21T12:35:54Z</time></trkpt><trkpt lat="43.247938389581165" lon="12.375847676405888"><ele>239.0</ele><time>2026-04-21T12:35:55Z</time></trkpt><trkpt lat="43.24793338919957" lon="12.375552515974348"><ele>239.0</ele><time>2026-04-21T12:35:56Z</time></trkpt><trkpt lat="43.2479168999319" lon="12.375250443965227"><ele>239.0</ele><time>2026-04-21T12:35:57Z</time></trkpt><trkpt lat="43.247916460271334" lon="12.37494917573412"><ele>239.0</ele><time>2026-04-21T12:35:58Z</time></trkpt><trkpt lat="43.24791184111279" lon="12.374643814203115"><ele>239.0</ele><time>2026-04-21T12:35:59Z</time></trkpt><trkpt lat="43.24790588780768" lon="12.374341093430722"><ele>239.0</ele><time>2026-04-21T12:36:00Z</time></trkpt><trkpt lat="43.24790020213846" lon="12.37403340732911"><ele>239.0</ele><time>2026-04-21T12:36:01Z</time></trkpt><trkpt lat="43.24789554665124" lon="12.373726551040996"><ele>239.0</ele><time>2026-04-21T12:36:02Z</time></trkpt><trkpt lat="43.247894911047005" lon="12.37341736289745"><ele>239.5</ele><time>2026-04-21T12:36:03Z</time></trkpt><trkpt lat="43.247895023348555" lon="12.373107674062453"><ele>240.0</ele><time>2026-04-21T12:36:04Z</time></trkpt><trkpt lat="43.24789266431854" lon="12.37279526244206"><ele>241.5</ele><time>2026-04-21T12:36:05Z</time></trkpt><trkpt lat="43.24788756667809" lon="12.37248039176035"><ele>243.0</ele><time>2026-04-21T12:36:06Z</time></trkpt><trkpt lat="43.247884490587644" lon="12.372163577637155"><ele>243.0</ele><time>2026-04-21T12:36:07Z</time></trkpt><trkpt lat="43.24788313968431" lon="12.37184311659757"><ele>243.0</ele><time>2026-04-21T12:36:08Z</time></trkpt><trkpt lat="43.24788085722155" lon="12.371527002674393"><ele>245.5</ele><time>2026-04-21T12:36:09Z</time></trkpt><trkpt lat="43.24787811004451" lon="12.371209082942904"><ele>248.0</ele><time>2026-04-21T12:36:10Z</time></trkpt><trkpt lat="43.2478739061174" lon="12.370892242204583"><ele>248.0</ele><time>2026-04-21T12:36:11Z</time></trkpt><trkpt lat="43.24787054715064" lon="12.370573417134901"><ele>248.0</ele><time>2026-04-21T12:36:12Z</time></trkpt><trkpt lat="43.247870786347995" lon="12.370258169155592"><ele>252.5</ele><time>2026-04-21T12:36:13Z</time></trkpt><trkpt lat="43.247869092264516" lon="12.369946156187746"><ele>257.0</ele><time>2026-04-21T12:36:14Z</time></trkpt><trkpt lat="43.247869738048706" lon="12.36963892482147"><ele>260.33333333333337</ele><time>2026-04-21T12:36:15Z</time></trkpt><trkpt lat="43.247879031551534" lon="12.369340639183871"><ele>263.6666666666667</ele><time>2026-04-21T12:36:16Z</time></trkpt><trkpt lat="43.24791016820244" lon="12.36906538484529"><ele>267.0</ele><time>2026-04-21T12:36:17Z</time></trkpt><trkpt lat="43.247965015315245" lon="12.368799500726805"><ele>268.3333333333333</ele><time>2026-04-21T12:36:18Z</time></trkpt><trkpt lat="43.248031504804985" lon="12.368539683731429"><ele>269.66666666666663</ele><time>2026-04-21T12:36:19Z</time></trkpt><trkpt lat="43.24814172772538" lon="12.36828339513438"><ele>271.0</ele><time>2026-04-21T12:36:20Z</time></trkpt><trkpt lat="43.24822668542304" lon="12.368015397627861"><ele>258.5</ele><time>2026-04-21T12:36:21Z</time></trkpt><trkpt lat="43.24830829100203" lon="12.367686910988771"><ele>246.0</ele><time>2026-04-21T12:36:22Z</time></trkpt><trkpt lat="43.24834027657255" lon="12.367390761373528"><ele>248.33333333333331</ele><time>2026-04-21T12:36:23Z</time></trkpt><trkpt lat="43.24838530292285" lon="12.367091920793364"><ele>250.66666666666666</ele><time>2026-04-21T12:36:24Z</time></trkpt><trkpt lat="43.248415040514715" lon="12.366794158165542"><ele>253.0</ele><time>2026-04-21T12:36:25Z</time></trkpt><trkpt lat="43.24841452651894" lon="12.366490301712187"><ele>252.33333333333331</ele><time>2026-04-21T12:36:26Z</time></trkpt><trkpt lat="43.248402744243066" lon="12.366200363956201"><ele>251.66666666666669</ele><time>2026-04-21T12:36:27Z</time></trkpt><trkpt lat="43.248388876797684" lon="12.36593658503819"><ele>251.0</ele><time>2026-04-21T12:36:28Z</time></trkpt><trkpt lat="43.248372079916635" lon="12.365701809383618"><ele>249.75</ele><time>2026-04-21T12:36:29Z</time></trkpt><trkpt lat="43.248347203781194" lon="12.36549288423675"><ele>248.5</ele><time>2026-04-21T12:36:30Z</time></trkpt><trkpt lat="43.248296773816584" lon="12.36532059024064"><ele>247.25</ele><time>2026-04-21T12:36:31Z</time></trkpt><trkpt lat="43.24822505154583" lon="12.365193245389762"><ele>246.0</ele><time>2026-04-21T12:36:32Z</time></trkpt><trkpt lat="43.248136684238375" lon="12.365105673004901"><ele>248.75</ele><time>2026-04-21T12:36:33Z</time></trkpt><trkpt lat="43.24802809803364" lon="12.365038575972367"><ele>251.5</ele><time>2026-04-21T12:36:34Z</time></trkpt><trkpt lat="43.24791484573784" lon="12.36495489933135"><ele>254.25</ele><time>2026-04-21T12:36:35Z</time></trkpt><trkpt lat="43.247795765618115" lon="12.364841858356524"><ele>257.0</ele><time>2026-04-21T12:36:36Z</time></trkpt><trkpt lat="43.247680843176134" lon="12.364695733746093"><ele>257.0</ele><time>2026-04-21T12:36:37Z</time></trkpt><trkpt lat="43.24758004202806" lon="12.364528345522306"><ele>257.0</ele><time>2026-04-21T12:36:38Z</time></trkpt><trkpt lat="43.247499803093646" lon="12.364338960827004"><ele>257.0</ele><time>2026-04-21T12:36:39Z</time></trkpt><trkpt lat="43.24742801518218" lon="12.364153861454756"><ele>257.0</ele><time>2026-04-21T12:36:40Z</time></trkpt><trkpt lat="43.24735772560892" lon="12.36396832250214"><ele>257.0</ele><time>2026-04-21T12:36:41Z</time></trkpt><trkpt lat="43.247283644691194" lon="12.363780647584248"><ele>257.0</ele><time>2026-04-21T12:36:42Z</time></trkpt><trkpt lat="43.2472045595554" lon="12.363589798923893"><ele>263.0</ele><time>2026-04-21T12:36:43Z</time></trkpt><trkpt lat="43.247122072799975" lon="12.363399492494125"><ele>269.0</ele><time>2026-04-21T12:36:44Z</time></trkpt><trkpt lat="43.24704209021902" lon="12.363206113462168"><ele>275.0</ele><time>2026-04-21T12:36:45Z</time></trkpt><trkpt lat="43.24696672995581" lon="12.363019596267918"><ele>275.0</ele><time>2026-04-21T12:36:46Z</time></trkpt><trkpt lat="43.24690200299836" lon="12.36286318177218"><ele>275.0</ele><time>2026-04-21T12:36:47Z</time></trkpt><trkpt lat="43.24685363882899" lon="12.362723012177433"><ele>275.0</ele><time>2026-04-21T12:36:48Z</time></trkpt><trkpt lat="43.24682159830863" lon="12.362591832057932"><ele>275.0</ele><time>2026-04-21T12:36:49Z</time></trkpt><trkpt lat="43.246806494578266" lon="12.362473335093489"><ele>275.0</ele><time>2026-04-21T12:36:50Z</time></trkpt><trkpt lat="43.24679214715559" lon="12.362383945766787"><ele>275.0</ele><time>2026-04-21T12:36:51Z</time></trkpt><trkpt lat="43.24673841999207" lon="12.362303571518883"><ele>275.0</ele><time>2026-04-21T12:36:53Z</time></trkpt><trkpt lat="43.246674089941756" lon="12.362351884360601"><ele>275.0</ele><time>2026-04-21T12:36:56Z</time></trkpt><trkpt lat="43.24669651651828" lon="12.362498893795232"><ele>275.0</ele><time>2026-04-21T12:36:58Z</time></trkpt><trkpt lat="43.246777479009026" lon="12.362662460230712"><ele>275.0</ele><time>2026-04-21T12:36:59Z</time></trkpt><trkpt lat="43.2468506979559" lon="12.362813618296375"><ele>275.0</ele><time>2026-04-21T12:37:00Z</time></trkpt><trkpt lat="43.24692851093616" lon="12.36298671610373"><ele>275.0</ele><time>2026-04-21T12:37:01Z</time></trkpt><trkpt lat="43.24700865515654" lon="12.363180042493271"><ele>275.0</ele><time>2026-04-21T12:37:02Z</time></trkpt><trkpt lat="43.247086538485384" lon="12.3633861071081"><ele>281.0</ele><time>2026-04-21T12:37:03Z</time></trkpt><trkpt lat="43.24716856505154" lon="12.363600535803583"><ele>287.0</ele><time>2026-04-21T12:37:04Z</time></trkpt><trkpt lat="43.24725539678933" lon="12.363813482872198"><ele>293.0</ele><time>2026-04-21T12:37:05Z</time></trkpt><trkpt lat="43.24734146237218" lon="12.364016939472368"><ele>281.0</ele><time>2026-04-21T12:37:06Z</time></trkpt><trkpt lat="43.247425078942875" lon="12.36421162855565"><ele>269.0</ele><time>2026-04-21T12:37:07Z</time></trkpt><trkpt lat="43.24749263903453" lon="12.36441269359822"><ele>257.0</ele><time>2026-04-21T12:37:08Z</time></trkpt><trkpt lat="43.24759380138538" lon="12.36458931044782"><ele>264.33333333333337</ele><time>2026-04-21T12:37:09Z</time></trkpt><trkpt lat="43.24768906563691" lon="12.364750599079848"><ele>271.6666666666667</ele><time>2026-04-21T12:37:09.999Z</time></trkpt><trkpt lat="43.24779876634516" lon="12.364894566820123"><ele>279.0</ele><time>2026-04-21T12:37:10.999Z</time></trkpt><trkpt lat="43.24792319931022" lon="12.365007105188708"><ele>279.0</ele><time>2026-04-21T12:37:11.999Z</time></trkpt><trkpt lat="43.248049059438245" lon="12.365106916384446"><ele>279.0</ele><time>2026-04-21T12:37:12.999Z</time></trkpt><trkpt lat="43.248151137836146" lon="12.365232962919205"><ele>279.0</ele><time>2026-04-21T12:37:13.999Z</time></trkpt><trkpt lat="43.248239294751585" lon="12.36536227626786"><ele>279.0</ele><time>2026-04-21T12:37:14.999Z</time></trkpt><trkpt lat="43.248313655194316" lon="12.36548948338728"><ele>273.4</ele><time>2026-04-21T12:37:15.999Z</time></trkpt><trkpt lat="43.24832449381531" lon="12.36562957457472"><ele>267.79999999999995</ele><time>2026-04-21T12:37:16.999Z</time></trkpt><trkpt lat="43.24832852832342" lon="12.365722980315958"><ele>262.20000000000005</ele><time>2026-04-21T12:37:17.999Z</time></trkpt><trkpt lat="43.24833584396615" lon="12.365816802167997"><ele>256.6</ele><time>2026-04-21T12:37:19.999Z</time></trkpt><trkpt lat="43.24842257463386" lon="12.36577502399688"><ele>251.0</ele><time>2026-04-21T12:37:22.999Z</time></trkpt><trkpt lat="43.248432139106136" lon="12.365590011708667"><ele>250.0</ele><time>2026-04-21T12:37:24.999Z</time></trkpt><trkpt lat="43.24841472731892" lon="12.365444794956337"><ele>249.00000000000003</ele><time>2026-04-21T12:37:25.999Z</time></trkpt><trkpt lat="43.2483954076518" lon="12.36533851782203"><ele>248.00000000000003</ele><time>2026-04-21T12:37:26.999Z</time></trkpt><trkpt lat="43.24837100988069" lon="12.3652385399969"><ele>247.0</ele><time>2026-04-21T12:37:27.999Z</time></trkpt><trkpt lat="43.24830389589679" lon="12.365070726300642"><ele>246.0</ele><time>2026-04-21T12:37:29.999Z</time></trkpt><trkpt lat="43.248245633939696" lon="12.364989219319284"><ele>246.0</ele><time>2026-04-21T12:37:30.999Z</time></trkpt><trkpt lat="43.2481847289086" lon="12.364920388704942"><ele>246.0</ele><time>2026-04-21T12:37:31.999Z</time></trkpt><trkpt lat="43.24810016929251" lon="12.364817297615723"><ele>246.0</ele><time>2026-04-21T12:37:33.999Z</time></trkpt><trkpt lat="43.24805007992227" lon="12.364759234025229"><ele>246.0</ele><time>2026-04-21T12:37:34.999Z</time></trkpt><trkpt lat="43.24799174967576" lon="12.36469161759229"><ele>246.0</ele><time>2026-04-21T12:37:35.999Z</time></trkpt><trkpt lat="43.24794272588365" lon="12.364629445564823"><ele>246.0</ele><time>2026-04-21T12:37:36.999Z</time></trkpt><trkpt lat="43.24789117179716" lon="12.364555536316695"><ele>247.83333333333334</ele><time>2026-04-21T12:37:37.999Z</time></trkpt><trkpt lat="43.24784307076599" lon="12.364472659736258"><ele>249.66666666666669</ele><time>2026-04-21T12:37:39Z</time></trkpt><trkpt lat="43.247797120743485" lon="12.364388233419842"><ele>251.5</ele><time>2026-04-21T12:37:40Z</time></trkpt><trkpt lat="43.247760542181126" lon="12.364315623814116"><ele>253.33333333333334</ele><time>2026-04-21T12:37:41Z</time></trkpt><trkpt lat="43.247703842730395" lon="12.364189374878118"><ele>255.16666666666669</ele><time>2026-04-21T12:37:43Z</time></trkpt><trkpt lat="43.2476576162052" lon="12.364105739925597"><ele>257.0</ele><time>2026-04-21T12:37:44Z</time></trkpt><trkpt lat="43.247638038773516" lon="12.363992197219595"><ele>256.2</ele><time>2026-04-21T12:37:45Z</time></trkpt><trkpt lat="43.247609069849155" lon="12.36386338211586"><ele>255.39999999999998</ele><time>2026-04-21T12:37:46Z</time></trkpt><trkpt lat="43.247584638922646" lon="12.36373007250336"><ele>254.60000000000002</ele><time>2026-04-21T12:37:47Z</time></trkpt><trkpt lat="43.24756216493672" lon="12.363584451369302"><ele>253.8</ele><time>2026-04-21T12:37:48Z</time></trkpt><trkpt lat="43.247539717243285" lon="12.363436578855616"><ele>253.0</ele><time>2026-04-21T12:37:49Z</time></trkpt><trkpt lat="43.24751379843444" lon="12.363281544630347"><ele>253.0</ele><time>2026-04-21T12:37:50Z</time></trkpt><trkpt lat="43.247470781286125" lon="12.363156256960863"><ele>253.0</ele><time>2026-04-21T12:37:51Z</time></trkpt><trkpt lat="43.24745205267779" lon="12.363019284892815"><ele>253.0</ele><time>2026-04-21T12:37:52Z</time></trkpt><trkpt lat="43.247415095553876" lon="12.362888809372915"><ele>253.0</ele><time>2026-04-21T12:37:53Z</time></trkpt><trkpt lat="43.24737233458287" lon="12.362752323974524"><ele>253.0</ele><time>2026-04-21T12:37:54Z</time></trkpt><trkpt lat="43.247314660002935" lon="12.362630383447167"><ele>254.83333333333331</ele><time>2026-04-21T12:37:55Z</time></trkpt><trkpt lat="43.247278585268646" lon="12.362514724906868"><ele>256.66666666666663</ele><time>2026-04-21T12:37:56Z</time></trkpt><trkpt lat="43.247238433877015" lon="12.362440901971768"><ele>258.5</ele><time>2026-04-21T12:37:57Z</time></trkpt><trkpt lat="43.24718923022527" lon="12.36233989110038"><ele>260.3333333333333</ele><time>2026-04-21T12:37:58Z</time></trkpt><trkpt lat="43.2471372549085" lon="12.362237357204146"><ele>262.1666666666667</ele><time>2026-04-21T12:37:59Z</time></trkpt><trkpt lat="43.24709469053574" lon="12.362142310521502"><ele>264.0</ele><time>2026-04-21T12:38:00Z</time></trkpt><trkpt lat="43.24705044924479" lon="12.362067736352179"><ele>264.0</ele><time>2026-04-21T12:38:01Z</time></trkpt><trkpt lat="43.24698936341733" lon="12.361982916575942"><ele>264.0</ele><time>2026-04-21T12:38:02Z</time></trkpt><trkpt lat="43.24692136252802" lon="12.361894592478192"><ele>264.0</ele><time>2026-04-21T12:38:03Z</time></trkpt><trkpt lat="43.24686129392385" lon="12.361777939776402"><ele>264.0</ele><time>2026-04-21T12:38:04Z</time></trkpt><trkpt lat="43.24680968052863" lon="12.361643617289316"><ele>264.0</ele><time>2026-04-21T12:38:05Z</time></trkpt><trkpt lat="43.24675470143516" lon="12.361489902845213"><ele>262.4</ele><time>2026-04-21T12:38:06Z</time></trkpt><trkpt lat="43.246725585641954" lon="12.361330679126247"><ele>260.79999999999995</ele><time>2026-04-21T12:38:07Z</time></trkpt><trkpt lat="43.24669995353358" lon="12.361182680727973"><ele>259.20000000000005</ele><time>2026-04-21T12:38:08Z</time></trkpt><trkpt lat="43.24669077032551" lon="12.36104820796342"><ele>257.6</ele><time>2026-04-21T12:38:09Z</time></trkpt><trkpt lat="43.246683526472744" lon="12.36090241567767"><ele>256.0</ele><time>2026-04-21T12:38:10Z</time></trkpt><trkpt lat="43.2466797160457" lon="12.360761387754195"><ele>256.0</ele><time>2026-04-21T12:38:11Z</time></trkpt><trkpt lat="43.24666496311747" lon="12.360625907264875"><ele>256.0</ele><time>2026-04-21T12:38:12Z</time></trkpt><trkpt lat="43.24667040179953" lon="12.360477517651942"><ele>256.0</ele><time>2026-04-21T12:38:13Z</time></trkpt><trkpt lat="43.24665992793363" lon="12.360343615389917"><ele>256.0</ele><time>2026-04-21T12:38:14Z</time></trkpt><trkpt lat="43.24664984761268" lon="12.360228301536806"><ele>256.0</ele><time>2026-04-21T12:38:15Z</time></trkpt><trkpt lat="43.2466695078434" lon="12.360115927205113"><ele>255.8</ele><time>2026-04-21T12:38:16Z</time></trkpt><trkpt lat="43.24668634019425" lon="12.359958763194133"><ele>255.60000000000002</ele><time>2026-04-21T12:38:18Z</time></trkpt><trkpt lat="43.246704115506084" lon="12.359850775597046"><ele>255.4</ele><time>2026-04-21T12:38:19Z</time></trkpt><trkpt lat="43.246727523842694" lon="12.359743312422596"><ele>255.2</ele><time>2026-04-21T12:38:20Z</time></trkpt><trkpt lat="43.24676281633176" lon="12.35962396571067"><ele>255.0</ele><time>2026-04-21T12:38:21Z</time></trkpt><trkpt lat="43.24679104469409" lon="12.35952321595024"><ele>254.66666666666666</ele><time>2026-04-21T12:38:22Z</time></trkpt><trkpt lat="43.246813566696915" lon="12.359402778156667"><ele>254.33333333333331</ele><time>2026-04-21T12:38:23Z</time></trkpt><trkpt lat="43.24684340522829" lon="12.359293001094718"><ele>254.0</ele><time>2026-04-21T12:38:24Z</time></trkpt><trkpt lat="43.24687238943586" lon="12.359184273496023"><ele>253.66666666666666</ele><time>2026-04-21T12:38:25Z</time></trkpt><trkpt lat="43.246896383835065" lon="12.359085669616672"><ele>253.33333333333331</ele><time>2026-04-21T12:38:26Z</time></trkpt><trkpt lat="43.24692398516796" lon="12.358984767293983"><ele>253.0</ele><time>2026-04-21T12:38:27Z</time></trkpt><trkpt lat="43.24694993273611" lon="12.358897481901785"><ele>253.60000000000002</ele><time>2026-04-21T12:38:28Z</time></trkpt><trkpt lat="43.24692898034466" lon="12.358762068461981"><ele>254.20000000000002</ele><time>2026-04-21T12:38:30Z</time></trkpt><trkpt lat="43.24686758493787" lon="12.358697256198326"><ele>254.8</ele><time>2026-04-21T12:38:32Z</time></trkpt><trkpt lat="43.246775580600314" lon="12.358655784927175"><ele>255.4</ele><time>2026-04-21T12:38:34Z</time></trkpt><trkpt lat="43.24671089807574" lon="12.35859879134641"><ele>256.0</ele><time>2026-04-21T12:38:43Z</time></trkpt><trkpt lat="43.24661809769521" lon="12.358503305433464"><ele>255.99999999999997</ele><time>2026-04-21T12:38:45Z</time></trkpt><trkpt lat="43.246554686279566" lon="12.358453310972385"><ele>256.0</ele><time>2026-04-21T12:38:46Z</time></trkpt><trkpt lat="43.24648663729246" lon="12.358431552148408"><ele>256.0</ele><time>2026-04-21T12:38:47Z</time></trkpt><trkpt lat="43.24642272957948" lon="12.358373725000273"><ele>256.0</ele><time>2026-04-21T12:38:48Z</time></trkpt><trkpt lat="43.24636532403239" lon="12.358337188481158"><ele>255.99999999999997</ele><time>2026-04-21T12:38:49Z</time></trkpt><trkpt lat="43.24630712015687" lon="12.35828949503704"><ele>256.0</ele><time>2026-04-21T12:38:50Z</time></trkpt><trkpt lat="43.24621242645897" lon="12.358156976342034"><ele>257.3333333333333</ele><time>2026-04-21T12:38:52Z</time></trkpt><trkpt lat="43.24618450214193" lon="12.35807087954459"><ele>258.66666666666663</ele><time>2026-04-21T12:38:53Z</time></trkpt><trkpt lat="43.24614056964647" lon="12.357929753115512"><ele>260.0</ele><time>2026-04-21T12:38:55Z</time></trkpt><trkpt lat="43.2460986537549" lon="12.357761024926784"><ele>261.3333333333333</ele><time>2026-04-21T12:38:57Z</time></trkpt><trkpt lat="43.246080326438964" lon="12.357675742557616"><ele>262.6666666666667</ele><time>2026-04-21T12:38:58Z</time></trkpt><trkpt lat="43.24606214658339" lon="12.357583445253251"><ele>264.0</ele><time>2026-04-21T12:38:59Z</time></trkpt><trkpt lat="43.246076446157694" lon="12.357477864221018"><ele>264.5</ele><time>2026-04-21T12:39:01Z</time></trkpt><trkpt lat="43.24616351364015" lon="12.357390573881949"><ele>265.0</ele><time>2026-04-21T12:39:03Z</time></trkpt><trkpt lat="43.24621831517096" lon="12.35733698917674"><ele>265.5</ele><time>2026-04-21T12:39:04Z</time></trkpt><trkpt lat="43.24627096325318" lon="12.357285205647706"><ele>266.0</ele><time>2026-04-21T12:39:05Z</time></trkpt><trkpt lat="43.246372281926" lon="12.357172194515892"><ele>266.5</ele><time>2026-04-21T12:39:07Z</time></trkpt><trkpt lat="43.2464203442274" lon="12.357105483582762"><ele>267.0</ele><time>2026-04-21T12:39:08Z</time></trkpt><trkpt lat="43.246465052759184" lon="12.357037366707157"><ele>265.5</ele><time>2026-04-21T12:39:09Z</time></trkpt><trkpt lat="43.246516673616476" lon="12.356950301186668"><ele>264.0</ele><time>2026-04-21T12:39:10Z</time></trkpt><trkpt lat="43.24655602320934" lon="12.356878638721495"><ele>262.5</ele><time>2026-04-21T12:39:11Z</time></trkpt><trkpt lat="43.24659254535349" lon="12.35680536452656"><ele>261.0</ele><time>2026-04-21T12:39:12Z</time></trkpt><trkpt lat="43.24663139578167" lon="12.356727418910939"><ele>259.5</ele><time>2026-04-21T12:39:13Z</time></trkpt><trkpt lat="43.24666783746015" lon="12.35665430625075"><ele>258.0</ele><time>2026-04-21T12:39:14Z</time></trkpt><trkpt lat="43.24674472075829" lon="12.35651394005941"><ele>258.0</ele><time>2026-04-21T12:39:16Z</time></trkpt><trkpt lat="43.246795659816826" lon="12.356424050729128"><ele>258.0</ele><time>2026-04-21T12:39:17Z</time></trkpt><trkpt lat="43.246837639937105" lon="12.356352242160192"><ele>258.0</ele><time>2026-04-21T12:39:18Z</time></trkpt><trkpt lat="43.24691149043692" lon="12.356235222210163"><ele>258.0</ele><time>2026-04-21T12:39:20Z</time></trkpt><trkpt lat="43.246989198041476" lon="12.35613632279321"><ele>258.0</ele><time>2026-04-21T12:39:22Z</time></trkpt><trkpt lat="43.247060658024175" lon="12.356075343915062"><ele>257.6</ele><time>2026-04-21T12:39:23.999Z</time></trkpt><trkpt lat="43.24714237972283" lon="12.356022514994386"><ele>257.20000000000005</ele><time>2026-04-21T12:39:25.999Z</time></trkpt><trkpt lat="43.247219243789466" lon="12.355970290134236"><ele>256.8</ele><time>2026-04-21T12:39:27.999Z</time></trkpt><trkpt lat="43.24729725262796" lon="12.355903640746934"><ele>256.40000000000003</ele><time>2026-04-21T12:39:29.999Z</time></trkpt><trkpt lat="43.247364723560935" lon="12.355822335263262"><ele>256.0</ele><time>2026-04-21T12:39:31.999Z</time></trkpt><trkpt lat="43.247458232316575" lon="12.355748658589262"><ele>256.0</ele><time>2026-04-21T12:39:33.999Z</time></trkpt><trkpt lat="43.24755472835072" lon="12.355647122197036"><ele>256.0</ele><time>2026-04-21T12:39:35.999Z</time></trkpt><trkpt lat="43.24760824244302" lon="12.355584779360854"><ele>256.0</ele><time>2026-04-21T12:39:36.999Z</time></trkpt><trkpt lat="43.24769296119486" lon="12.355478201642901"><ele>256.0</ele><time>2026-04-21T12:39:38.999Z</time></trkpt><trkpt lat="43.24777669805427" lon="12.355370480185996"><ele>256.0</ele><time>2026-04-21T12:39:40.999Z</time></trkpt><trkpt lat="43.247837122548546" lon="12.355252051650622"><ele>256.0</ele><time>2026-04-21T12:39:42.999Z</time></trkpt><trkpt lat="43.24788580908368" lon="12.35512694386239"><ele>256.0</ele><time>2026-04-21T12:39:45Z</time></trkpt><trkpt lat="43.24791232759715" lon="12.35504158977935"><ele>256.0</ele><time>2026-04-21T12:39:47Z</time></trkpt><trkpt lat="43.24795121205816" lon="12.354953262971687"><ele>256.0</ele><time>2026-04-21T12:39:49Z</time></trkpt><trkpt lat="43.247979329593846" lon="12.354824386304346"><ele>256.0</ele><time>2026-04-21T12:39:51Z</time></trkpt><trkpt lat="43.24800918182499" lon="12.354672060313392"><ele>257.16666666666663</ele><time>2026-04-21T12:39:53Z</time></trkpt><trkpt lat="43.2480275639865" lon="12.354576465129414"><ele>258.3333333333333</ele><time>2026-04-21T12:39:54Z</time></trkpt><trkpt lat="43.24804576482188" lon="12.354483885887106"><ele>259.5</ele><time>2026-04-21T12:39:55Z</time></trkpt><trkpt lat="43.24806407263877" lon="12.354393812179234"><ele>260.6666666666667</ele><time>2026-04-21T12:39:56Z</time></trkpt><trkpt lat="43.24808374215443" lon="12.354297038986118"><ele>261.83333333333337</ele><time>2026-04-21T12:39:57Z</time></trkpt><trkpt lat="43.24809422585516" lon="12.354187854953665"><ele>263.0</ele><time>2026-04-21T12:39:58Z</time></trkpt><trkpt lat="43.248114241157104" lon="12.354072044660947"><ele>262.5</ele><time>2026-04-21T12:39:59Z</time></trkpt><trkpt lat="43.24815172735781" lon="12.353966073404033"><ele>262.0</ele><time>2026-04-21T12:40:00Z</time></trkpt><trkpt lat="43.24817626846942" lon="12.353851201434365"><ele>261.5</ele><time>2026-04-21T12:40:01Z</time></trkpt><trkpt lat="43.24820523912741" lon="12.353736428993013"><ele>261.0</ele><time>2026-04-21T12:40:02Z</time></trkpt><trkpt lat="43.248232254499676" lon="12.353629882526583"><ele>260.5</ele><time>2026-04-21T12:40:03Z</time></trkpt><trkpt lat="43.24824459962085" lon="12.35350952613376"><ele>260.0</ele><time>2026-04-21T12:40:04Z</time></trkpt><trkpt lat="43.24825899016417" lon="12.353388238250146"><ele>260.0</ele><time>2026-04-21T12:40:05Z</time></trkpt><trkpt lat="43.24826621730162" lon="12.353258933277992"><ele>260.0</ele><time>2026-04-21T12:40:06Z</time></trkpt><trkpt lat="43.24826931996332" lon="12.353130236033714"><ele>260.0</ele><time>2026-04-21T12:40:07Z</time></trkpt><trkpt lat="43.24826446907446" lon="12.35301789796629"><ele>260.0</ele><time>2026-04-21T12:40:08Z</time></trkpt><trkpt lat="43.2482631594259" lon="12.352911109563237"><ele>260.0</ele><time>2026-04-21T12:40:09Z</time></trkpt><trkpt lat="43.24825796294318" lon="12.352813561227094"><ele>260.0</ele><time>2026-04-21T12:40:10Z</time></trkpt><trkpt lat="43.248258090982624" lon="12.352710898512303"><ele>260.4</ele><time>2026-04-21T12:40:11Z</time></trkpt><trkpt lat="43.248269019227" lon="12.352595814092371"><ele>260.8</ele><time>2026-04-21T12:40:12Z</time></trkpt><trkpt lat="43.2482633414954" lon="12.352485796846599"><ele>261.2</ele><time>2026-04-21T12:40:13Z</time></trkpt><trkpt lat="43.24823819615452" lon="12.352387484275823"><ele>261.6</ele><time>2026-04-21T12:40:14Z</time></trkpt><trkpt lat="43.248223234027414" lon="12.352230278183217"><ele>262.0</ele><time>2026-04-21T12:40:16Z</time></trkpt><trkpt lat="43.248178562470315" lon="12.352071340825486"><ele>262.0</ele><time>2026-04-21T12:40:18Z</time></trkpt><trkpt lat="43.248148685789" lon="12.351988219223472"><ele>262.0</ele><time>2026-04-21T12:40:19Z</time></trkpt><trkpt lat="43.24809029990827" lon="12.351848936554745"><ele>262.0</ele><time>2026-04-21T12:40:21Z</time></trkpt><trkpt lat="43.248050538160214" lon="12.351763589043163"><ele>262.0</ele><time>2026-04-21T12:40:22Z</time></trkpt><trkpt lat="43.2480122389011" lon="12.351681380788605"><ele>262.0</ele><time>2026-04-21T12:40:23Z</time></trkpt><trkpt lat="43.247961561760526" lon="12.351603305939026"><ele>262.0</ele><time>2026-04-21T12:40:24Z</time></trkpt><trkpt lat="43.24793550062387" lon="12.351515947327917"><ele>262.6</ele><time>2026-04-21T12:40:25Z</time></trkpt><trkpt lat="43.24785896696019" lon="12.351399650044995"><ele>263.2</ele><time>2026-04-21T12:40:27Z</time></trkpt><trkpt lat="43.24783102413595" lon="12.351270261212502"><ele>263.8</ele><time>2026-04-21T12:40:29Z</time></trkpt><trkpt lat="43.24788920234195" lon="12.351118495496179"><ele>264.4</ele><time>2026-04-21T12:40:33Z</time></trkpt><trkpt lat="43.24796048101127" lon="12.351030104427362"><ele>265.0</ele><time>2026-04-21T12:40:35Z</time></trkpt><trkpt lat="43.248031480150416" lon="12.350984554086311"><ele>264.4</ele><time>2026-04-21T12:40:37Z</time></trkpt><trkpt lat="43.24816893007626" lon="12.350942770020353"><ele>263.8</ele><time>2026-04-21T12:40:39Z</time></trkpt><trkpt lat="43.248252312039675" lon="12.35091331871207"><ele>263.2</ele><time>2026-04-21T12:40:40Z</time></trkpt><trkpt lat="43.248329868925296" lon="12.350862260449878"><ele>262.6</ele><time>2026-04-21T12:40:41Z</time></trkpt><trkpt lat="43.248398662425586" lon="12.350794878873984"><ele>262.0</ele><time>2026-04-21T12:40:42Z</time></trkpt><trkpt lat="43.24846331958201" lon="12.350726425503028"><ele>262.0</ele><time>2026-04-21T12:40:43Z</time></trkpt><trkpt lat="43.24853076505308" lon="12.350655322081547"><ele>262.0</ele><time>2026-04-21T12:40:44Z</time></trkpt><trkpt lat="43.24859526770076" lon="12.350585435889341"><ele>262.0</ele><time>2026-04-21T12:40:45Z</time></trkpt><trkpt lat="43.24864456968416" lon="12.350498655313189"><ele>262.0</ele><time>2026-04-21T12:40:46Z</time></trkpt><trkpt lat="43.24870140366586" lon="12.350414852703922"><ele>262.0</ele><time>2026-04-21T12:40:48Z</time></trkpt><trkpt lat="43.24874470350118" lon="12.35032153135302"><ele>262.0</ele><time>2026-04-21T12:40:50Z</time></trkpt><trkpt lat="43.24882512375731" lon="12.350190549017467"><ele>262.5</ele><time>2026-04-21T12:40:52Z</time></trkpt><trkpt lat="43.24890669038249" lon="12.350166707083824"><ele>263.0</ele><time>2026-04-21T12:40:53Z</time></trkpt><trkpt lat="43.24898880237274" lon="12.350156544054606"><ele>263.5</ele><time>2026-04-21T12:40:54Z</time></trkpt><trkpt lat="43.24908103002698" lon="12.35015600455519"><ele>264.0</ele><time>2026-04-21T12:40:55Z</time></trkpt><trkpt lat="43.2491750804621" lon="12.350163248623954"><ele>264.5</ele><time>2026-04-21T12:40:56Z</time></trkpt><trkpt lat="43.24926870219938" lon="12.350173584235343"><ele>265.0</ele><time>2026-04-21T12:40:57Z</time></trkpt><trkpt lat="43.24935927909012" lon="12.350185548457171"><ele>267.0</ele><time>2026-04-21T12:40:58Z</time></trkpt><trkpt lat="43.24945239137699" lon="12.350203090939226"><ele>269.0</ele><time>2026-04-21T12:40:59Z</time></trkpt><trkpt lat="43.249545421056276" lon="12.35021278480052"><ele>271.0</ele><time>2026-04-21T12:41:00Z</time></trkpt><trkpt lat="43.24962618164294" lon="12.350245422951525"><ele>273.0</ele><time>2026-04-21T12:41:01Z</time></trkpt><trkpt lat="43.24971802765161" lon="12.350247558710137"><ele>275.0</ele><time>2026-04-21T12:41:02Z</time></trkpt><trkpt lat="43.249808135755096" lon="12.350246036945853"><ele>277.0</ele><time>2026-04-21T12:41:03Z</time></trkpt><trkpt lat="43.24988540234758" lon="12.350224891489148"><ele>279.0</ele><time>2026-04-21T12:41:04Z</time></trkpt><trkpt lat="43.24997226517782" lon="12.350207203922901"><ele>281.0</ele><time>2026-04-21T12:41:05Z</time></trkpt><trkpt lat="43.25006215897727" lon="12.350206224513032"><ele>283.0</ele><time>2026-04-21T12:41:06Z</time></trkpt><trkpt lat="43.250140857475664" lon="12.350273421553341"><ele>285.0</ele><time>2026-04-21T12:41:07Z</time></trkpt><trkpt lat="43.250239028326355" lon="12.350312177108808"><ele>285.0</ele><time>2026-04-21T12:41:08Z</time></trkpt><trkpt lat="43.25033299382334" lon="12.350299648191015"><ele>285.0</ele><time>2026-04-21T12:41:09Z</time></trkpt><trkpt lat="43.250409511979015" lon="12.350276105530455"><ele>285.0</ele><time>2026-04-21T12:41:10Z</time></trkpt><trkpt lat="43.25049832943582" lon="12.350239663661833"><ele>285.0</ele><time>2026-04-21T12:41:11Z</time></trkpt><trkpt lat="43.25059360273387" lon="12.350188570993675"><ele>285.0</ele><time>2026-04-21T12:41:12Z</time></trkpt><trkpt lat="43.250685305411814" lon="12.350172246744613"><ele>286.2</ele><time>2026-04-21T12:41:13Z</time></trkpt><trkpt lat="43.25077564496411" lon="12.350186686015524"><ele>287.4</ele><time>2026-04-21T12:41:14Z</time></trkpt><trkpt lat="43.25086947614725" lon="12.350220209055319"><ele>288.6</ele><time>2026-04-21T12:41:15Z</time></trkpt><trkpt lat="43.25096162964044" lon="12.350255732118415"><ele>289.8</ele><time>2026-04-21T12:41:16Z</time></trkpt><trkpt lat="43.25106145940081" lon="12.350300455937864"><ele>291.0</ele><time>2026-04-21T12:41:17Z</time></trkpt><trkpt lat="43.25115641714445" lon="12.350330104992754"><ele>291.0</ele><time>2026-04-21T12:41:18Z</time></trkpt><trkpt lat="43.25125700240471" lon="12.350329997407067"><ele>291.0</ele><time>2026-04-21T12:41:19Z</time></trkpt><trkpt lat="43.25135956525792" lon="12.350309778016452"><ele>291.0</ele><time>2026-04-21T12:41:20Z</time></trkpt><trkpt lat="43.25146521938707" lon="12.350284907968398"><ele>291.0</ele><time>2026-04-21T12:41:21Z</time></trkpt><trkpt lat="43.25157257079242" lon="12.350256397731423"><ele>291.0</ele><time>2026-04-21T12:41:22Z</time></trkpt><trkpt lat="43.251683732379036" lon="12.350231982061155"><ele>293.2</ele><time>2026-04-21T12:41:23Z</time></trkpt><trkpt lat="43.25179023032626" lon="12.350224351448167"><ele>295.40000000000003</ele><time>2026-04-21T12:41:24Z</time></trkpt><trkpt lat="43.251904369001394" lon="12.350215446767141"><ele>297.6</ele><time>2026-04-21T12:41:25Z</time></trkpt><trkpt lat="43.252002569517956" lon="12.350191139032761"><ele>299.8</ele><time>2026-04-21T12:41:26Z</time></trkpt><trkpt lat="43.25206922930051" lon="12.350151495537443"><ele>302.0</ele><time>2026-04-21T12:41:27Z</time></trkpt><trkpt lat="43.252110426454365" lon="12.350083669525892"><ele>302.0</ele><time>2026-04-21T12:41:28Z</time></trkpt><trkpt lat="43.25211763028926" lon="12.349975129049378"><ele>302.0</ele><time>2026-04-21T12:41:29Z</time></trkpt><trkpt lat="43.25210795119809" lon="12.349849752167195"><ele>302.0</ele><time>2026-04-21T12:41:30Z</time></trkpt><trkpt lat="43.25205834142822" lon="12.349733917204643"><ele>302.0</ele><time>2026-04-21T12:41:31Z</time></trkpt><trkpt lat="43.25203161896925" lon="12.349617774097034"><ele>302.0</ele><time>2026-04-21T12:41:32Z</time></trkpt><trkpt lat="43.25201365610425" lon="12.34952729164384"><ele>302.0</ele><time>2026-04-21T12:41:33Z</time></trkpt><trkpt lat="43.25205894055145" lon="12.349392182750194"><ele>302.0</ele><time>2026-04-21T12:41:35Z</time></trkpt><trkpt lat="43.25212900965607" lon="12.349384654514719"><ele>302.0</ele><time>2026-04-21T12:41:36Z</time></trkpt><trkpt lat="43.25220322772414" lon="12.349392745696024"><ele>302.0</ele><time>2026-04-21T12:41:37Z</time></trkpt><trkpt lat="43.25229410058318" lon="12.349397788507803"><ele>302.0</ele><time>2026-04-21T12:41:38Z</time></trkpt><trkpt lat="43.252386054783614" lon="12.349419146082695"><ele>302.0</ele><time>2026-04-21T12:41:38.999Z</time></trkpt><trkpt lat="43.25247800965392" lon="12.349446752419798"><ele>302.0</ele><time>2026-04-21T12:41:39.999Z</time></trkpt><trkpt lat="43.25257409310077" lon="12.349483324598477"><ele>304.83333333333337</ele><time>2026-04-21T12:41:40.999Z</time></trkpt><trkpt lat="43.252657179778495" lon="12.349516317452721"><ele>307.6666666666667</ele><time>2026-04-21T12:41:41.999Z</time></trkpt><trkpt lat="43.252741230773395" lon="12.349549012584617"><ele>310.5</ele><time>2026-04-21T12:41:42.999Z</time></trkpt><trkpt lat="43.25280909129934" lon="12.349552879892334"><ele>313.3333333333333</ele><time>2026-04-21T12:41:43.999Z</time></trkpt><trkpt lat="43.25288494129276" lon="12.349521769917308"><ele>316.16666666666663</ele><time>2026-04-21T12:41:44.999Z</time></trkpt><trkpt lat="43.25296203541051" lon="12.349425700869883"><ele>319.0</ele><time>2026-04-21T12:41:45.999Z</time></trkpt><trkpt lat="43.25302186774555" lon="12.349326212443739"><ele>319.0</ele><time>2026-04-21T12:41:46.999Z</time></trkpt><trkpt lat="43.25308148178768" lon="12.349201059689255"><ele>319.0</ele><time>2026-04-21T12:41:47.999Z</time></trkpt><trkpt lat="43.25312799926734" lon="12.349066601679942"><ele>319.0</ele><time>2026-04-21T12:41:48.999Z</time></trkpt><trkpt lat="43.25316358215395" lon="12.348956235538072"><ele>319.0</ele><time>2026-04-21T12:41:49.999Z</time></trkpt><trkpt lat="43.25320675532786" lon="12.348855876795099"><ele>319.0</ele><time>2026-04-21T12:41:51Z</time></trkpt><trkpt lat="43.253252079417585" lon="12.3487807768148"><ele>320.79999999999995</ele><time>2026-04-21T12:41:52Z</time></trkpt><trkpt lat="43.253307120090035" lon="12.348728309842572"><ele>322.59999999999997</ele><time>2026-04-21T12:41:54Z</time></trkpt><trkpt lat="43.253371080496514" lon="12.348808515783157"><ele>324.4</ele><time>2026-04-21T12:41:55Z</time></trkpt><trkpt lat="43.25343170880211" lon="12.348981272955404"><ele>326.2</ele><time>2026-04-21T12:41:57Z</time></trkpt><trkpt lat="43.25346539726776" lon="12.349084817821655"><ele>328.0</ele><time>2026-04-21T12:41:58Z</time></trkpt><trkpt lat="43.25349776873603" lon="12.349191393831482"><ele>330.66666666666663</ele><time>2026-04-21T12:41:59Z</time></trkpt><trkpt lat="43.25352171602153" lon="12.349290332932226"><ele>333.3333333333333</ele><time>2026-04-21T12:42:00Z</time></trkpt><trkpt lat="43.25356931345711" lon="12.349392460877294"><ele>336.0</ele><time>2026-04-21T12:42:01Z</time></trkpt><trkpt lat="43.253623935179" lon="12.34947772078202"><ele>338.6666666666667</ele><time>2026-04-21T12:42:02Z</time></trkpt><trkpt lat="43.25369113598766" lon="12.34952578004413"><ele>341.33333333333337</ele><time>2026-04-21T12:42:03Z</time></trkpt><trkpt lat="43.253755394870446" lon="12.34958083286132"><ele>344.0</ele><time>2026-04-21T12:42:04Z</time></trkpt><trkpt lat="43.25382594084044" lon="12.349639829578065"><ele>344.0</ele><time>2026-04-21T12:42:05Z</time></trkpt><trkpt lat="43.25389615583553" lon="12.349686639570736"><ele>344.0</ele><time>2026-04-21T12:42:06Z</time></trkpt><trkpt lat="43.253981744692474" lon="12.34970743588163"><ele>344.0</ele><time>2026-04-21T12:42:07Z</time></trkpt><trkpt lat="43.254081184741494" lon="12.349717086997273"><ele>344.0</ele><time>2026-04-21T12:42:08Z</time></trkpt><trkpt lat="43.254190409264986" lon="12.34972975699542"><ele>344.0</ele><time>2026-04-21T12:42:09Z</time></trkpt><trkpt lat="43.25429863365177" lon="12.349748780225582"><ele>347.25</ele><time>2026-04-21T12:42:10Z</time></trkpt><trkpt lat="43.254407312314726" lon="12.349775613954874"><ele>350.5</ele><time>2026-04-21T12:42:11Z</time></trkpt><trkpt lat="43.25451994476456" lon="12.349800000207319"><ele>353.75</ele><time>2026-04-21T12:42:12Z</time></trkpt><trkpt lat="43.25463636295659" lon="12.349823127917501"><ele>357.0</ele><time>2026-04-21T12:42:13Z</time></trkpt><trkpt lat="43.25475752787679" lon="12.349833047496906"><ele>361.25</ele><time>2026-04-21T12:42:14Z</time></trkpt><trkpt lat="43.2548797825268" lon="12.349830841060136"><ele>365.5</ele><time>2026-04-21T12:42:15Z</time></trkpt><trkpt lat="43.254982771657" lon="12.349803475141126"><ele>369.75</ele><time>2026-04-21T12:42:16Z</time></trkpt><trkpt lat="43.2550691867242" lon="12.349757067141642"><ele>374.0</ele><time>2026-04-21T12:42:17Z</time></trkpt><trkpt lat="43.2552559107629" lon="12.34963275833455"><ele>374.0</ele><time>2026-04-21T12:42:19Z</time></trkpt><trkpt lat="43.25534701362039" lon="12.349571390312018"><ele>374.0</ele><time>2026-04-21T12:42:20Z</time></trkpt><trkpt lat="43.25544025770369" lon="12.349529138350137"><ele>374.0</ele><time>2026-04-21T12:42:21Z</time></trkpt><trkpt lat="43.25552462886459" lon="12.349512026612269"><ele>374.0</ele><time>2026-04-21T12:42:22Z</time></trkpt><trkpt lat="43.25561938573138" lon="12.349518634259255"><ele>374.0</ele><time>2026-04-21T12:42:23Z</time></trkpt><trkpt lat="43.25573351948831" lon="12.349534972770705"><ele>377.2</ele><time>2026-04-21T12:42:24Z</time></trkpt><trkpt lat="43.25581642392439" lon="12.349561882241433"><ele>380.4</ele><time>2026-04-21T12:42:25Z</time></trkpt><trkpt lat="43.25591343473412" lon="12.349581125635288"><ele>383.6</ele><time>2026-04-21T12:42:26Z</time></trkpt><trkpt lat="43.25600776885821" lon="12.349614739103348"><ele>386.8</ele><time>2026-04-21T12:42:27Z</time></trkpt><trkpt lat="43.256099415204574" lon="12.34962041422712"><ele>390.0</ele><time>2026-04-21T12:42:28Z</time></trkpt><trkpt lat="43.25618273267184" lon="12.349625573597974"><ele>390.0</ele><time>2026-04-21T12:42:29Z</time></trkpt><trkpt lat="43.25627067468517" lon="12.349639157570277"><ele>390.0</ele><time>2026-04-21T12:42:30Z</time></trkpt><trkpt lat="43.2563423253741" lon="12.34964990696666"><ele>390.0</ele><time>2026-04-21T12:42:31Z</time></trkpt><trkpt lat="43.256428131782755" lon="12.349576955812006"><ele>390.0</ele><time>2026-04-21T12:42:33Z</time></trkpt><trkpt lat="43.25637374447851" lon="12.349410275976856"><ele>390.0</ele><time>2026-04-21T12:42:35Z</time></trkpt><trkpt lat="43.256345720815986" lon="12.349320573411662"><ele>390.0</ele><time>2026-04-21T12:42:36Z</time></trkpt><trkpt lat="43.25633763871457" lon="12.349221927991918"><ele>390.0</ele><time>2026-04-21T12:42:37Z</time></trkpt><trkpt lat="43.25632484913601" lon="12.349116672350416"><ele>390.0</ele><time>2026-04-21T12:42:38Z</time></trkpt><trkpt lat="43.256331701634956" lon="12.349010619619222"><ele>390.0</ele><time>2026-04-21T12:42:39Z</time></trkpt><trkpt lat="43.25634460365208" lon="12.348898956528664"><ele>390.0</ele><time>2026-04-21T12:42:40Z</time></trkpt><trkpt lat="43.256366640188254" lon="12.34877542136531"><ele>390.0</ele><time>2026-04-21T12:42:41Z</time></trkpt><trkpt lat="43.25639664454614" lon="12.34865186263356"><ele>388.5</ele><time>2026-04-21T12:42:42Z</time></trkpt><trkpt lat="43.25642299818103" lon="12.34853843029981"><ele>387.0</ele><time>2026-04-21T12:42:43Z</time></trkpt><trkpt lat="43.25646657668539" lon="12.348421760190938"><ele>385.5</ele><time>2026-04-21T12:42:45Z</time></trkpt><trkpt lat="43.256517577595496" lon="12.348637589153522"><ele>384.0</ele><time>2026-04-21T12:42:51Z</time></trkpt><trkpt lat="43.25649799130328" lon="12.348785524581409"><ele>390.0</ele><time>2026-04-21T12:42:53Z</time></trkpt><trkpt lat="43.256490321082325" lon="12.348932382674105"><ele>396.0</ele><time>2026-04-21T12:42:55Z</time></trkpt><trkpt lat="43.25651669398949" lon="12.34902389280308"><ele>402.0</ele><time>2026-04-21T12:42:57Z</time></trkpt><trkpt lat="43.25659142625878" lon="12.349049505057227"><ele>408.0</ele><time>2026-04-21T12:42:59Z</time></trkpt><trkpt lat="43.25666888677078" lon="12.349066874235247"><ele>414.0</ele><time>2026-04-21T12:43:01Z</time></trkpt><trkpt lat="43.25671151955269" lon="12.34889028415858"><ele>413.4</ele><time>2026-04-21T12:43:04Z</time></trkpt><trkpt lat="43.25672571961626" lon="12.348731888078394"><ele>412.79999999999995</ele><time>2026-04-21T12:43:06Z</time></trkpt><trkpt lat="43.25674530884094" lon="12.348569407966913"><ele>412.20000000000005</ele><time>2026-04-21T12:43:08Z</time></trkpt><trkpt lat="43.25675940291304" lon="12.348476866832362"><ele>411.6</ele><time>2026-04-21T12:43:09Z</time></trkpt><trkpt lat="43.256780331878964" lon="12.348373030315916"><ele>411.0</ele><time>2026-04-21T12:43:10Z</time></trkpt><trkpt lat="43.25681272594676" lon="12.348261609630981"><ele>411.0</ele><time>2026-04-21T12:43:11Z</time></trkpt><trkpt lat="43.25685464913717" lon="12.348147024450606"><ele>411.0</ele><time>2026-04-21T12:43:12Z</time></trkpt><trkpt lat="43.25690333582214" lon="12.348040181312511"><ele>411.0</ele><time>2026-04-21T12:43:13Z</time></trkpt><trkpt lat="43.25696388011032" lon="12.347941028149354"><ele>411.0</ele><time>2026-04-21T12:43:14Z</time></trkpt><trkpt lat="43.257033860447734" lon="12.347848636647178"><ele>411.0</ele><time>2026-04-21T12:43:15Z</time></trkpt><trkpt lat="43.257109154158165" lon="12.347761635146362"><ele>408.6</ele><time>2026-04-21T12:43:16Z</time></trkpt><trkpt lat="43.25718636278368" lon="12.347679477114307"><ele>406.20000000000005</ele><time>2026-04-21T12:43:17Z</time></trkpt><trkpt lat="43.25728009775711" lon="12.347601314360832"><ele>403.79999999999995</ele><time>2026-04-21T12:43:18Z</time></trkpt><trkpt lat="43.257384076435336" lon="12.347518145094373"><ele>401.4</ele><time>2026-04-21T12:43:19Z</time></trkpt><trkpt lat="43.25747990242366" lon="12.347416713238188"><ele>399.0</ele><time>2026-04-21T12:43:20Z</time></trkpt><trkpt lat="43.25756809723068" lon="12.347310291087522"><ele>403.2</ele><time>2026-04-21T12:43:21Z</time></trkpt><trkpt lat="43.25764687474521" lon="12.347206883727962"><ele>407.4</ele><time>2026-04-21T12:43:22Z</time></trkpt><trkpt lat="43.25771476405819" lon="12.34711033033583"><ele>411.6</ele><time>2026-04-21T12:43:23Z</time></trkpt><trkpt lat="43.257771866594105" lon="12.34701734811758"><ele>415.8</ele><time>2026-04-21T12:43:24Z</time></trkpt><trkpt lat="43.257821591749284" lon="12.346898456432365"><ele>420.0</ele><time>2026-04-21T12:43:25Z</time></trkpt><trkpt lat="43.25784160602705" lon="12.34676749826759"><ele>420.0</ele><time>2026-04-21T12:43:26Z</time></trkpt><trkpt lat="43.25783035615424" lon="12.346621395890923"><ele>420.0</ele><time>2026-04-21T12:43:27Z</time></trkpt><trkpt lat="43.25778423259767" lon="12.346495549499092"><ele>420.0</ele><time>2026-04-21T12:43:28Z</time></trkpt><trkpt lat="43.2577683461066" lon="12.346367611738364"><ele>420.0</ele><time>2026-04-21T12:43:29Z</time></trkpt><trkpt lat="43.25777210221136" lon="12.346233121559969"><ele>420.0</ele><time>2026-04-21T12:43:30Z</time></trkpt><trkpt lat="43.25780483244166" lon="12.346121249303165"><ele>420.2</ele><time>2026-04-21T12:43:31Z</time></trkpt><trkpt lat="43.257844417991635" lon="12.345987276131675"><ele>420.4</ele><time>2026-04-21T12:43:32Z</time></trkpt><trkpt lat="43.25788601436116" lon="12.345851581913179"><ele>420.6</ele><time>2026-04-21T12:43:33Z</time></trkpt><trkpt lat="43.257930817720045" lon="12.345713083723235"><ele>420.8</ele><time>2026-04-21T12:43:34Z</time></trkpt><trkpt lat="43.2579747149113" lon="12.345577386814476"><ele>421.0</ele><time>2026-04-21T12:43:35Z</time></trkpt><trkpt lat="43.25801910941554" lon="12.345438387265428"><ele>421.0</ele><time>2026-04-21T12:43:36Z</time></trkpt><trkpt lat="43.25806472715283" lon="12.345294762096437"><ele>421.0</ele><time>2026-04-21T12:43:37Z</time></trkpt><trkpt lat="43.258112617944455" lon="12.3451507805363"><ele>421.0</ele><time>2026-04-21T12:43:38Z</time></trkpt><trkpt lat="43.25816678311218" lon="12.345006237393413"><ele>421.0</ele><time>2026-04-21T12:43:39Z</time></trkpt><trkpt lat="43.25822795593766" lon="12.3448676448435"><ele>428.75</ele><time>2026-04-21T12:43:40Z</time></trkpt><trkpt lat="43.25828671995235" lon="12.344736180750262"><ele>436.5</ele><time>2026-04-21T12:43:41Z</time></trkpt><trkpt lat="43.25834516474108" lon="12.344597391149923"><ele>444.25</ele><time>2026-04-21T12:43:42Z</time></trkpt><trkpt lat="43.25840318038963" lon="12.344449122205052"><ele>452.0</ele><time>2026-04-21T12:43:42.999Z</time></trkpt><trkpt lat="43.258449531698716" lon="12.344282988941863"><ele>452.0</ele><time>2026-04-21T12:43:43.999Z</time></trkpt><trkpt lat="43.25846322706425" lon="12.344111289628845"><ele>452.0</ele><time>2026-04-21T12:43:44.999Z</time></trkpt><trkpt lat="43.258502829387304" lon="12.343952392466537"><ele>452.0</ele><time>2026-04-21T12:43:45.999Z</time></trkpt><trkpt lat="43.2585287948124" lon="12.343792402132108"><ele>452.0</ele><time>2026-04-21T12:43:46.999Z</time></trkpt><trkpt lat="43.258558963830495" lon="12.343638632601678"><ele>451.0</ele><time>2026-04-21T12:43:47.999Z</time></trkpt><trkpt lat="43.25859940025929" lon="12.343498799133535"><ele>450.00000000000006</ele><time>2026-04-21T12:43:48.999Z</time></trkpt><trkpt lat="43.25865067031659" lon="12.343366822371895"><ele>449.00000000000006</ele><time>2026-04-21T12:43:49.999Z</time></trkpt><trkpt lat="43.25870951291361" lon="12.343237291813397"><ele>448.0</ele><time>2026-04-21T12:43:50.999Z</time></trkpt><trkpt lat="43.258774395685954" lon="12.343101283215066"><ele>447.0</ele><time>2026-04-21T12:43:51.999Z</time></trkpt><trkpt lat="43.25884601718837" lon="12.342964587963953"><ele>444.25</ele><time>2026-04-21T12:43:52.999Z</time></trkpt><trkpt lat="43.25891946317182" lon="12.3428262969646"><ele>441.5</ele><time>2026-04-21T12:43:53.999Z</time></trkpt><trkpt lat="43.258997175579765" lon="12.342685465256887"><ele>438.75</ele><time>2026-04-21T12:43:54.999Z</time></trkpt><trkpt lat="43.25907667156661" lon="12.342546315280668"><ele>436.0</ele><time>2026-04-21T12:43:56Z</time></trkpt><trkpt lat="43.259152711525985" lon="12.342395783900189"><ele>443.5</ele><time>2026-04-21T12:43:57Z</time></trkpt><trkpt lat="43.259194628389196" lon="12.342225399586"><ele>451.0</ele><time>2026-04-21T12:43:58Z</time></trkpt><trkpt lat="43.25923622779006" lon="12.342058974385509"><ele>458.5</ele><time>2026-04-21T12:43:59Z</time></trkpt><trkpt lat="43.2592850714019" lon="12.341894198496092"><ele>466.0</ele><time>2026-04-21T12:44:00Z</time></trkpt><trkpt lat="43.259300625030086" lon="12.341712211317766"><ele>466.0</ele><time>2026-04-21T12:44:01Z</time></trkpt><trkpt lat="43.25930279974003" lon="12.341525647866177"><ele>466.0</ele><time>2026-04-21T12:44:02Z</time></trkpt><trkpt lat="43.25930441629276" lon="12.341351252196624"><ele>466.0</ele><time>2026-04-21T12:44:03Z</time></trkpt><trkpt lat="43.25931360235139" lon="12.341198987361967"><ele>466.0</ele><time>2026-04-21T12:44:04Z</time></trkpt><trkpt lat="43.25934046201419" lon="12.341070907508598"><ele>465.20000000000005</ele><time>2026-04-21T12:44:05Z</time></trkpt><trkpt lat="43.259385412528516" lon="12.34095376012929"><ele>464.40000000000003</ele><time>2026-04-21T12:44:06Z</time></trkpt><trkpt lat="43.259451406573746" lon="12.340858558915244"><ele>463.6</ele><time>2026-04-21T12:44:07Z</time></trkpt><trkpt lat="43.25952485496909" lon="12.340771419748256"><ele>462.8</ele><time>2026-04-21T12:44:08Z</time></trkpt><trkpt lat="43.25960065672779" lon="12.34071336090097"><ele>462.0</ele><time>2026-04-21T12:44:09Z</time></trkpt><trkpt lat="43.25968462141948" lon="12.340671843138006"><ele>462.0</ele><time>2026-04-21T12:44:10Z</time></trkpt><trkpt lat="43.25976620745973" lon="12.34065720398633"><ele>462.00000000000006</ele><time>2026-04-21T12:44:11Z</time></trkpt><trkpt lat="43.25986314156478" lon="12.340634283563388"><ele>462.00000000000006</ele><time>2026-04-21T12:44:12Z</time></trkpt><trkpt lat="43.2599739613113" lon="12.340658102060749"><ele>462.0</ele><time>2026-04-21T12:44:13Z</time></trkpt><trkpt lat="43.26009595576326" lon="12.340674924240334"><ele>462.0</ele><time>2026-04-21T12:44:14Z</time></trkpt><trkpt lat="43.2602242736395" lon="12.340673755087161"><ele>467.5</ele><time>2026-04-21T12:44:15Z</time></trkpt><trkpt lat="43.26035563593685" lon="12.340657607588922"><ele>473.0</ele><time>2026-04-21T12:44:16Z</time></trkpt><trkpt lat="43.26048378287206" lon="12.340629415169433"><ele>478.5</ele><time>2026-04-21T12:44:17Z</time></trkpt><trkpt lat="43.26059893270204" lon="12.340599608046775"><ele>484.0</ele><time>2026-04-21T12:44:18Z</time></trkpt><trkpt lat="43.260689640199615" lon="12.340567119132487"><ele>482.79999999999995</ele><time>2026-04-21T12:44:19Z</time></trkpt><trkpt lat="43.26078792430673" lon="12.340534359825805"><ele>481.59999999999997</ele><time>2026-04-21T12:44:20Z</time></trkpt><trkpt lat="43.260867830653275" lon="12.340427975289023"><ele>480.4</ele><time>2026-04-21T12:44:21Z</time></trkpt><trkpt lat="43.26095255033376" lon="12.340325820823145"><ele>479.2</ele><time>2026-04-21T12:44:22Z</time></trkpt><trkpt lat="43.26103184455377" lon="12.340218583750028"><ele>478.0</ele><time>2026-04-21T12:44:23Z</time></trkpt><trkpt lat="43.26110490329716" lon="12.340114633794522"><ele>478.0</ele><time>2026-04-21T12:44:24Z</time></trkpt><trkpt lat="43.26117142444286" lon="12.340044236391218"><ele>477.99999999999994</ele><time>2026-04-21T12:44:25Z</time></trkpt><trkpt lat="43.26125492607403" lon="12.339939837469966"><ele>477.99999999999994</ele><time>2026-04-21T12:44:27Z</time></trkpt><trkpt lat="43.261253131623015" lon="12.339780786810781"><ele>478.0</ele><time>2026-04-21T12:44:28Z</time></trkpt><trkpt lat="43.26123938639168" lon="12.33967965631859"><ele>478.0</ele><time>2026-04-21T12:44:29Z</time></trkpt><trkpt lat="43.2612186685367" lon="12.339547524598984"><ele>478.25</ele><time>2026-04-21T12:44:30Z</time></trkpt><trkpt lat="43.26118891651577" lon="12.339388080096338"><ele>478.5</ele><time>2026-04-21T12:44:31Z</time></trkpt><trkpt lat="43.26115735666995" lon="12.339233558622517"><ele>478.75</ele><time>2026-04-21T12:44:32Z</time></trkpt><trkpt lat="43.26112454996584" lon="12.339072254909729"><ele>479.0</ele><time>2026-04-21T12:44:33Z</time></trkpt><trkpt lat="43.2610941202151" lon="12.338912561109456"><ele>480.0</ele><time>2026-04-21T12:44:34Z</time></trkpt><trkpt lat="43.26106560732865" lon="12.338749887595073"><ele>481.0</ele><time>2026-04-21T12:44:35Z</time></trkpt><trkpt lat="43.261041792605994" lon="12.33858844550712"><ele>482.0</ele><time>2026-04-21T12:44:36Z</time></trkpt><trkpt lat="43.261023538228606" lon="12.338434814023296"><ele>483.0</ele><time>2026-04-21T12:44:37Z</time></trkpt><trkpt lat="43.26100834825443" lon="12.338282225707255"><ele>483.0</ele><time>2026-04-21T12:44:38Z</time></trkpt><trkpt lat="43.26099815987423" lon="12.33814846207651"><ele>483.0</ele><time>2026-04-21T12:44:39Z</time></trkpt><trkpt lat="43.26098845302442" lon="12.338028780153147"><ele>483.0</ele><time>2026-04-21T12:44:40Z</time></trkpt><trkpt lat="43.260974877194684" lon="12.337922906767384"><ele>483.0</ele><time>2026-04-21T12:44:41Z</time></trkpt><trkpt lat="43.26095645036647" lon="12.337824220085858"><ele>483.0</ele><time>2026-04-21T12:44:42Z</time></trkpt><trkpt lat="43.260929711368824" lon="12.337724020758023"><ele>483.0</ele><time>2026-04-21T12:44:43Z</time></trkpt><trkpt lat="43.26088819175529" lon="12.337611200801856"><ele>483.25</ele><time>2026-04-21T12:44:44Z</time></trkpt><trkpt lat="43.26082294806125" lon="12.337488994808076"><ele>483.5</ele><time>2026-04-21T12:44:45Z</time></trkpt><trkpt lat="43.260735140795795" lon="12.337373129272311"><ele>483.75</ele><time>2026-04-21T12:44:46Z</time></trkpt><trkpt lat="43.260640958187956" lon="12.337266902434871"><ele>484.0</ele><time>2026-04-21T12:44:47Z</time></trkpt><trkpt lat="43.26054350155435" lon="12.33715931838922"><ele>484.0</ele><time>2026-04-21T12:44:48Z</time></trkpt><trkpt lat="43.260454943061035" lon="12.337069624382943"><ele>484.0</ele><time>2026-04-21T12:44:49Z</time></trkpt><trkpt lat="43.26034804225725" lon="12.337022501369598"><ele>484.0</ele><time>2026-04-21T12:44:50Z</time></trkpt><trkpt lat="43.26024322915953" lon="12.33697554123278"><ele>484.0</ele><time>2026-04-21T12:44:51Z</time></trkpt><trkpt lat="43.26012170884934" lon="12.336936121111316"><ele>484.0</ele><time>2026-04-21T12:44:52Z</time></trkpt><trkpt lat="43.259996501017206" lon="12.336909332523588"><ele>484.0</ele><time>2026-04-21T12:44:52.999Z</time></trkpt><trkpt lat="43.25986936719983" lon="12.336892519866613"><ele>484.0</ele><time>2026-04-21T12:44:53.999Z</time></trkpt><trkpt lat="43.259748044171886" lon="12.336860618884188"><ele>484.0</ele><time>2026-04-21T12:44:54.999Z</time></trkpt><trkpt lat="43.25962538246808" lon="12.336837743360682"><ele>484.4</ele><time>2026-04-21T12:44:55.999Z</time></trkpt><trkpt lat="43.259514571222184" lon="12.336765508785001"><ele>484.79999999999995</ele><time>2026-04-21T12:44:56.999Z</time></trkpt><trkpt lat="43.25940971043229" lon="12.336726705933462"><ele>485.20000000000005</ele><time>2026-04-21T12:44:57.999Z</time></trkpt><trkpt lat="43.25931518109606" lon="12.336666297720496"><ele>485.6</ele><time>2026-04-21T12:44:58.999Z</time></trkpt><trkpt lat="43.259221523386195" lon="12.336628662710757"><ele>486.0</ele><time>2026-04-21T12:44:59.999Z</time></trkpt><trkpt lat="43.259135398873106" lon="12.336602442504518"><ele>486.0</ele><time>2026-04-21T12:45:00.999Z</time></trkpt><trkpt lat="43.2590654547572" lon="12.336568151112525"><ele>486.0</ele><time>2026-04-21T12:45:01.999Z</time></trkpt><trkpt lat="43.25900999304247" lon="12.336509019114537"><ele>486.0</ele><time>2026-04-21T12:45:02.999Z</time></trkpt><trkpt lat="43.258977607435725" lon="12.336405022445545"><ele>486.0</ele><time>2026-04-21T12:45:03.999Z</time></trkpt><trkpt lat="43.25892420655329" lon="12.336339090097892"><ele>486.0</ele><time>2026-04-21T12:45:04.999Z</time></trkpt><trkpt lat="43.25884017138968" lon="12.336240035676841"><ele>486.0</ele><time>2026-04-21T12:45:06.999Z</time></trkpt><trkpt lat="43.25876782078129" lon="12.336137166769134"><ele>483.71428571428567</ele><time>2026-04-21T12:45:08.999Z</time></trkpt><trkpt lat="43.25877175126779" lon="12.336025573836539"><ele>481.42857142857144</ele><time>2026-04-21T12:45:10.999Z</time></trkpt><trkpt lat="43.25879751308495" lon="12.335944229550163"><ele>479.1428571428571</ele><time>2026-04-21T12:45:11.999Z</time></trkpt><trkpt lat="43.25882568517019" lon="12.335846450987344"><ele>476.85714285714283</ele><time>2026-04-21T12:45:12.999Z</time></trkpt><trkpt lat="43.25885434749751" lon="12.335761095716306"><ele>474.57142857142856</ele><time>2026-04-21T12:45:13.999Z</time></trkpt><trkpt lat="43.25888628087847" lon="12.335674124159743"><ele>472.2857142857143</ele><time>2026-04-21T12:45:14.999Z</time></trkpt><trkpt lat="43.25891882476096" lon="12.33558655073816"><ele>470.0</ele><time>2026-04-21T12:45:15.999Z</time></trkpt><trkpt lat="43.25895736199741" lon="12.335495975800566"><ele>467.66666666666663</ele><time>2026-04-21T12:45:16.999Z</time></trkpt><trkpt lat="43.25899875451369" lon="12.335407642189667"><ele>465.3333333333333</ele><time>2026-04-21T12:45:17.999Z</time></trkpt><trkpt lat="43.25903759897357" lon="12.335328234762056"><ele>463.0</ele><time>2026-04-21T12:45:18.999Z</time></trkpt><trkpt lat="43.25907915688124" lon="12.335250954431514"><ele>460.66666666666663</ele><time>2026-04-21T12:45:19.999Z</time></trkpt><trkpt lat="43.259150988883" lon="12.335131450591305"><ele>458.3333333333333</ele><time>2026-04-21T12:45:21.999Z</time></trkpt><trkpt lat="43.259196904383614" lon="12.335062343376253"><ele>456.0</ele><time>2026-04-21T12:45:22.999Z</time></trkpt><trkpt lat="43.25927909762185" lon="12.334947125821396"><ele>456.0</ele><time>2026-04-21T12:45:24.999Z</time></trkpt><trkpt lat="43.259348855213304" lon="12.33485381822728"><ele>456.0</ele><time>2026-04-21T12:45:26.999Z</time></trkpt><trkpt lat="43.25941501806819" lon="12.334794641597655"><ele>456.0</ele><time>2026-04-21T12:45:28.999Z</time></trkpt><trkpt lat="43.25948685238671" lon="12.334705581898994"><ele>456.0</ele><time>2026-04-21T12:45:30.999Z</time></trkpt><trkpt lat="43.25949056611945" lon="12.334612525334627"><ele>456.0</ele><time>2026-04-21T12:45:31.999Z</time></trkpt><trkpt lat="43.25948985267265" lon="12.33448322307254"><ele>456.0</ele><time>2026-04-21T12:45:33.999Z</time></trkpt><trkpt lat="43.25948462588536" lon="12.334334120509997"><ele>450.5</ele><time>2026-04-21T12:45:35.999Z</time></trkpt><trkpt lat="43.25949912060832" lon="12.334159756253152"><ele>445.0</ele><time>2026-04-21T12:45:37.999Z</time></trkpt><trkpt lat="43.2595503135144" lon="12.334011004921573"><ele>439.5</ele><time>2026-04-21T12:45:39.999Z</time></trkpt><trkpt lat="43.259607275530264" lon="12.333882928043431"><ele>434.0</ele><time>2026-04-21T12:45:41.999Z</time></trkpt><trkpt lat="43.25967531990455" lon="12.33375552505965"><ele>432.8333333333333</ele><time>2026-04-21T12:45:43.999Z</time></trkpt><trkpt lat="43.25974128900936" lon="12.333636389984534"><ele>431.66666666666663</ele><time>2026-04-21T12:45:45.999Z</time></trkpt><trkpt lat="43.259776505897456" lon="12.333550335052607"><ele>430.5</ele><time>2026-04-21T12:45:46.999Z</time></trkpt><trkpt lat="43.25978103856289" lon="12.333444557561178"><ele>429.33333333333337</ele><time>2026-04-21T12:45:47.999Z</time></trkpt><trkpt lat="43.25979665085194" lon="12.333354139172835"><ele>428.1666666666667</ele><time>2026-04-21T12:45:48.999Z</time></trkpt><trkpt lat="43.25978237123374" lon="12.333247350160251"><ele>427.0</ele><time>2026-04-21T12:45:49.999Z</time></trkpt><trkpt lat="43.2597427980917" lon="12.33316258621218"><ele>426.14285714285717</ele><time>2026-04-21T12:45:50.999Z</time></trkpt><trkpt lat="43.25972969380489" lon="12.333073552469026"><ele>425.2857142857143</ele><time>2026-04-21T12:45:51.999Z</time></trkpt><trkpt lat="43.259698035907356" lon="12.332986389477792"><ele>424.42857142857144</ele><time>2026-04-21T12:45:52.999Z</time></trkpt><trkpt lat="43.25966402021869" lon="12.332901044834617"><ele>423.57142857142856</ele><time>2026-04-21T12:45:53.999Z</time></trkpt><trkpt lat="43.259626602567764" lon="12.332819648117216"><ele>422.7142857142857</ele><time>2026-04-21T12:45:54.999Z</time></trkpt><trkpt lat="43.25958645633113" lon="12.332744467189656"><ele>421.8571428571429</ele><time>2026-04-21T12:45:55.999Z</time></trkpt><trkpt lat="43.25952202601519" lon="12.332667228199249"><ele>421.0</ele><time>2026-04-21T12:45:56.999Z</time></trkpt><trkpt lat="43.259451786206164" lon="12.332592235900075"><ele>421.0</ele><time>2026-04-21T12:45:57.999Z</time></trkpt><trkpt lat="43.259364554706735" lon="12.332514162016533"><ele>421.0</ele><time>2026-04-21T12:45:58.999Z</time></trkpt><trkpt lat="43.25927190007537" lon="12.332463743301153"><ele>421.0</ele><time>2026-04-21T12:45:59.999Z</time></trkpt><trkpt lat="43.259175533951336" lon="12.332453956384592"><ele>421.0</ele><time>2026-04-21T12:46:00.999Z</time></trkpt><trkpt lat="43.259088551618504" lon="12.33243859772557"><ele>421.0</ele><time>2026-04-21T12:46:01.999Z</time></trkpt><trkpt lat="43.25900053476629" lon="12.332401492403136"><ele>420.20000000000005</ele><time>2026-04-21T12:46:02.999Z</time></trkpt><trkpt lat="43.25890897392794" lon="12.332376240720915"><ele>419.40000000000003</ele><time>2026-04-21T12:46:03.999Z</time></trkpt><trkpt lat="43.25882082863852" lon="12.332337013406324"><ele>418.6</ele><time>2026-04-21T12:46:04.999Z</time></trkpt><trkpt lat="43.25873166826727" lon="12.332287132653441"><ele>417.8</ele><time>2026-04-21T12:46:05.999Z</time></trkpt><trkpt lat="43.25863918598527" lon="12.33223074835815"><ele>417.0</ele><time>2026-04-21T12:46:06.999Z</time></trkpt><trkpt lat="43.25855038401704" lon="12.332171516366685"><ele>420.6</ele><time>2026-04-21T12:46:07.999Z</time></trkpt><trkpt lat="43.25846401153776" lon="12.33210483018182"><ele>424.20000000000005</ele><time>2026-04-21T12:46:08.999Z</time></trkpt><trkpt lat="43.2584004819882" lon="12.332031334981494"><ele>427.8</ele><time>2026-04-21T12:46:09.999Z</time></trkpt><trkpt lat="43.25834641516725" lon="12.331870525245273"><ele>431.4</ele><time>2026-04-21T12:46:12Z</time></trkpt><trkpt lat="43.25832458157683" lon="12.331761635122406"><ele>435.0</ele><time>2026-04-21T12:46:12.999Z</time></trkpt><trkpt lat="43.25830169185482" lon="12.331632370134592"><ele>435.0</ele><time>2026-04-21T12:46:14Z</time></trkpt><trkpt lat="43.25828719454602" lon="12.331497953479088"><ele>435.0</ele><time>2026-04-21T12:46:15Z</time></trkpt><trkpt lat="43.25826586637652" lon="12.331357021116936"><ele>435.0</ele><time>2026-04-21T12:46:16Z</time></trkpt><trkpt lat="43.2582416934997" lon="12.331246618833969"><ele>435.0</ele><time>2026-04-21T12:46:16.999Z</time></trkpt><trkpt lat="43.258219686248346" lon="12.331158104560771"><ele>435.0</ele><time>2026-04-21T12:46:17.999Z</time></trkpt><trkpt lat="43.25816839317221" lon="12.330988321426386"><ele>435.25</ele><time>2026-04-21T12:46:19.999Z</time></trkpt><trkpt lat="43.25812261168195" lon="12.330864946441917"><ele>435.5</ele><time>2026-04-21T12:46:20.999Z</time></trkpt><trkpt lat="43.258047449257695" lon="12.330725727900836"><ele>435.75</ele><time>2026-04-21T12:46:21.999Z</time></trkpt><trkpt lat="43.257951290115834" lon="12.330633582158658"><ele>436.0</ele><time>2026-04-21T12:46:22.999Z</time></trkpt><trkpt lat="43.25785580003651" lon="12.330534041544581"><ele>436.0</ele><time>2026-04-21T12:46:23.999Z</time></trkpt><trkpt lat="43.257784987649146" lon="12.33041288785867"><ele>436.0</ele><time>2026-04-21T12:46:24.999Z</time></trkpt><trkpt lat="43.25770972720031" lon="12.33029946292466"><ele>436.0</ele><time>2026-04-21T12:46:25.999Z</time></trkpt><trkpt lat="43.257645136932055" lon="12.33018628863566"><ele>436.0</ele><time>2026-04-21T12:46:26.999Z</time></trkpt><trkpt lat="43.25758802879216" lon="12.33007393289693"><ele>436.0</ele><time>2026-04-21T12:46:27.999Z</time></trkpt><trkpt lat="43.25754019929213" lon="12.329984031940127"><ele>436.0</ele><time>2026-04-21T12:46:28.999Z</time></trkpt><trkpt lat="43.25743923674969" lon="12.32985451056028"><ele>436.0</ele><time>2026-04-21T12:46:30.999Z</time></trkpt><trkpt lat="43.25737028860626" lon="12.329767492312753"><ele>436.0</ele><time>2026-04-21T12:46:31.999Z</time></trkpt><trkpt lat="43.25729921013591" lon="12.329688248488837"><ele>436.0</ele><time>2026-04-21T12:46:32.999Z</time></trkpt><trkpt lat="43.25721518727684" lon="12.329609129478376"><ele>436.0</ele><time>2026-04-21T12:46:33.999Z</time></trkpt><trkpt lat="43.257111072150614" lon="12.329534284616765"><ele>435.0</ele><time>2026-04-21T12:46:34.999Z</time></trkpt><trkpt lat="43.25699505802171" lon="12.329469125813993"><ele>434.0</ele><time>2026-04-21T12:46:35.999Z</time></trkpt><trkpt lat="43.256886368015515" lon="12.32940678678728"><ele>433.0</ele><time>2026-04-21T12:46:36.999Z</time></trkpt><trkpt lat="43.256795939659796" lon="12.329320083677482"><ele>432.0</ele><time>2026-04-21T12:46:37.999Z</time></trkpt><trkpt lat="43.256710763611274" lon="12.329253244751671"><ele>432.0</ele><time>2026-04-21T12:46:38.999Z</time></trkpt><trkpt lat="43.25664802290519" lon="12.329165059708583"><ele>432.00000000000006</ele><time>2026-04-21T12:46:39.999Z</time></trkpt><trkpt lat="43.25659367464567" lon="12.329060253998149"><ele>432.00000000000006</ele><time>2026-04-21T12:46:40.999Z</time></trkpt><trkpt lat="43.25654260768656" lon="12.328928492261554"><ele>432.0</ele><time>2026-04-21T12:46:41.999Z</time></trkpt><trkpt lat="43.25649017580755" lon="12.328774103857496"><ele>432.0</ele><time>2026-04-21T12:46:42.999Z</time></trkpt><trkpt lat="43.256437259147354" lon="12.328613265044243"><ele>431.5</ele><time>2026-04-21T12:46:43.999Z</time></trkpt><trkpt lat="43.256385210086435" lon="12.328446282287732"><ele>431.0</ele><time>2026-04-21T12:46:44.999Z</time></trkpt><trkpt lat="43.25633639672222" lon="12.328289315896754"><ele>430.5</ele><time>2026-04-21T12:46:45.999Z</time></trkpt><trkpt lat="43.25629026491504" lon="12.32813905376483"><ele>430.0</ele><time>2026-04-21T12:46:46.999Z</time></trkpt><trkpt lat="43.25625467673198" lon="12.327995669444205"><ele>430.0</ele><time>2026-04-21T12:46:47.999Z</time></trkpt><trkpt lat="43.25623372244165" lon="12.327844675074916"><ele>430.0</ele><time>2026-04-21T12:46:48.999Z</time></trkpt><trkpt lat="43.256220206916865" lon="12.327684846231602"><ele>430.0</ele><time>2026-04-21T12:46:49.999Z</time></trkpt><trkpt lat="43.2562052002544" lon="12.327518922795724"><ele>430.0</ele><time>2026-04-21T12:46:50.999Z</time></trkpt><trkpt lat="43.25617581522345" lon="12.32721445200927"><ele>430.25</ele><time>2026-04-21T12:46:52.999Z</time></trkpt><trkpt lat="43.25615539454286" lon="12.327055706559477"><ele>430.5</ele><time>2026-04-21T12:46:53.999Z</time></trkpt><trkpt lat="43.25612415270431" lon="12.326890152453737"><ele>430.75</ele><time>2026-04-21T12:46:54.999Z</time></trkpt><trkpt lat="43.256081384592896" lon="12.326740436521145"><ele>431.0</ele><time>2026-04-21T12:46:55.999Z</time></trkpt><trkpt lat="43.25600639972426" lon="12.326588188414092"><ele>431.0</ele><time>2026-04-21T12:46:56.999Z</time></trkpt><trkpt lat="43.255955799850355" lon="12.32642863543606"><ele>431.0</ele><time>2026-04-21T12:46:57.999Z</time></trkpt><trkpt lat="43.255885445812375" lon="12.326306309867224"><ele>431.0</ele><time>2026-04-21T12:46:58.999Z</time></trkpt><trkpt lat="43.25583093584709" lon="12.326182457783114"><ele>431.0</ele><time>2026-04-21T12:46:59.999Z</time></trkpt><trkpt lat="43.25579257391333" lon="12.326083020252304"><ele>431.0</ele><time>2026-04-21T12:47:00.999Z</time></trkpt><trkpt lat="43.25575135659436" lon="12.326005211932527"><ele>430.66666666666663</ele><time>2026-04-21T12:47:01.999Z</time></trkpt><trkpt lat="43.25569494109757" lon="12.325919377171395"><ele>430.3333333333333</ele><time>2026-04-21T12:47:03.999Z</time></trkpt><trkpt lat="43.25564446697807" lon="12.325806242241685"><ele>430.0</ele><time>2026-04-21T12:47:05.999Z</time></trkpt><trkpt lat="43.25559124711703" lon="12.325656233195271"><ele>429.66666666666663</ele><time>2026-04-21T12:47:07.999Z</time></trkpt><trkpt lat="43.25557224610854" lon="12.32556763683267"><ele>429.3333333333333</ele><time>2026-04-21T12:47:08.999Z</time></trkpt><trkpt lat="43.25553975911964" lon="12.325477010282384"><ele>429.0</ele><time>2026-04-21T12:47:09.999Z</time></trkpt><trkpt lat="43.255526872028646" lon="12.325377751210342"><ele>429.0</ele><time>2026-04-21T12:47:10.999Z</time></trkpt><trkpt lat="43.25551596745361" lon="12.325217340273364"><ele>429.0</ele><time>2026-04-21T12:47:12.999Z</time></trkpt><trkpt lat="43.25552244195594" lon="12.325129402464093"><ele>429.0</ele><time>2026-04-21T12:47:13.999Z</time></trkpt><trkpt lat="43.25554709957577" lon="12.32504337963441"><ele>429.0</ele><time>2026-04-21T12:47:14.999Z</time></trkpt><trkpt lat="43.255595699587886" lon="12.324904944909385"><ele>429.0</ele><time>2026-04-21T12:47:16.999Z</time></trkpt><trkpt lat="43.255659593714896" lon="12.324777550737164"><ele>426.8333333333333</ele><time>2026-04-21T12:47:18.999Z</time></trkpt><trkpt lat="43.2557136424803" lon="12.324699179589125"><ele>424.66666666666663</ele><time>2026-04-21T12:47:19.999Z</time></trkpt><trkpt lat="43.2557834463353" lon="12.324623083147412"><ele>422.5</ele><time>2026-04-21T12:47:20.999Z</time></trkpt><trkpt lat="43.25583172489392" lon="12.324549317834775"><ele>420.3333333333333</ele><time>2026-04-21T12:47:21.999Z</time></trkpt><trkpt lat="43.25587075969227" lon="12.324474126029866"><ele>418.16666666666663</ele><time>2026-04-21T12:47:22.999Z</time></trkpt><trkpt lat="43.25589726655519" lon="12.32436850816526"><ele>416.0</ele><time>2026-04-21T12:47:23.999Z</time></trkpt><trkpt lat="43.25590587146502" lon="12.32424419100146"><ele>415.99999999999994</ele><time>2026-04-21T12:47:24.999Z</time></trkpt><trkpt lat="43.2559010781184" lon="12.324099129782825"><ele>416.0</ele><time>2026-04-21T12:47:25.999Z</time></trkpt><trkpt lat="43.25588894280398" lon="12.323986352800983"><ele>416.0</ele><time>2026-04-21T12:47:26.999Z</time></trkpt><trkpt lat="43.25587210926613" lon="12.323874023147116"><ele>416.0</ele><time>2026-04-21T12:47:27.999Z</time></trkpt><trkpt lat="43.25585670160028" lon="12.32378878936287"><ele>415.99999999999994</ele><time>2026-04-21T12:47:28.999Z</time></trkpt><trkpt lat="43.255831729621704" lon="12.323692131366085"><ele>416.0</ele><time>2026-04-21T12:47:29.999Z</time></trkpt><trkpt lat="43.25579649234737" lon="12.323617027751236"><ele>416.20000000000005</ele><time>2026-04-21T12:47:30.999Z</time></trkpt><trkpt lat="43.255719816627746" lon="12.32350780864163"><ele>416.40000000000003</ele><time>2026-04-21T12:47:32.999Z</time></trkpt><trkpt lat="43.255690448601214" lon="12.323401811166253"><ele>416.6</ele><time>2026-04-21T12:47:34.999Z</time></trkpt><trkpt lat="43.25569781561612" lon="12.323294206875719"><ele>416.8</ele><time>2026-04-21T12:47:37.999Z</time></trkpt><trkpt lat="43.255605748915634" lon="12.323094875584772"><ele>417.0</ele><time>2026-04-21T12:47:39.999Z</time></trkpt><trkpt lat="43.25554022551064" lon="12.322992752351592"><ele>415.3333333333333</ele><time>2026-04-21T12:47:40.999Z</time></trkpt><trkpt lat="43.25548551280224" lon="12.3228815721566"><ele>413.66666666666663</ele><time>2026-04-21T12:47:41.999Z</time></trkpt><trkpt lat="43.2554434069816" lon="12.322769790834375"><ele>412.0</ele><time>2026-04-21T12:47:42.999Z</time></trkpt><trkpt lat="43.25542269026299" lon="12.322637279777153"><ele>410.3333333333333</ele><time>2026-04-21T12:47:43.999Z</time></trkpt><trkpt lat="43.25541263624002" lon="12.322510033307156"><ele>408.66666666666663</ele><time>2026-04-21T12:47:44.999Z</time></trkpt><trkpt lat="43.255388140699864" lon="12.322427183805791"><ele>407.0</ele><time>2026-04-21T12:47:45.999Z</time></trkpt><trkpt lat="43.25539794960083" lon="12.322304553639725"><ele>407.0</ele><time>2026-04-21T12:47:46.999Z</time></trkpt><trkpt lat="43.25548332942284" lon="12.322164589774292"><ele>407.0</ele><time>2026-04-21T12:47:48.999Z</time></trkpt><trkpt lat="43.25554220412258" lon="12.322088965172284"><ele>407.0</ele><time>2026-04-21T12:47:49.999Z</time></trkpt><trkpt lat="43.25563977744228" lon="12.322036267867986"><ele>407.0</ele><time>2026-04-21T12:47:50.999Z</time></trkpt><trkpt lat="43.255705812238126" lon="12.321930793135566"><ele>407.0</ele><time>2026-04-21T12:47:51.999Z</time></trkpt><trkpt lat="43.255752190855674" lon="12.32184440471692"><ele>409.6</ele><time>2026-04-21T12:47:52.999Z</time></trkpt><trkpt lat="43.25580032717651" lon="12.321751706205609"><ele>412.20000000000005</ele><time>2026-04-21T12:47:54.999Z</time></trkpt><trkpt lat="43.255837154900085" lon="12.321670882300358"><ele>414.8</ele><time>2026-04-21T12:47:55.999Z</time></trkpt><trkpt lat="43.25588218782472" lon="12.32156689592077"><ele>417.4</ele><time>2026-04-21T12:47:56.999Z</time></trkpt><trkpt lat="43.255928205690125" lon="12.321440639286903"><ele>420.0</ele><time>2026-04-21T12:47:57.999Z</time></trkpt><trkpt lat="43.25597123998451" lon="12.321296002799615"><ele>420.0</ele><time>2026-04-21T12:47:58.999Z</time></trkpt><trkpt lat="43.255994564874065" lon="12.320962385365277"><ele>420.0</ele><time>2026-04-21T12:48:00.999Z</time></trkpt><trkpt lat="43.25599887382514" lon="12.320786400397234"><ele>420.0</ele><time>2026-04-21T12:48:01.999Z</time></trkpt><trkpt lat="43.25600283622926" lon="12.32060361125811"><ele>421.25</ele><time>2026-04-21T12:48:02.999Z</time></trkpt><trkpt lat="43.25600734605784" lon="12.320405336696776"><ele>422.5</ele><time>2026-04-21T12:48:03.999Z</time></trkpt><trkpt lat="43.25601371731589" lon="12.320208609304053"><ele>423.75</ele><time>2026-04-21T12:48:04.999Z</time></trkpt><trkpt lat="43.256021249986794" lon="12.320022487038162"><ele>425.0</ele><time>2026-04-21T12:48:05.999Z</time></trkpt><trkpt lat="43.256026268905714" lon="12.319844568060287"><ele>427.2</ele><time>2026-04-21T12:48:06.999Z</time></trkpt><trkpt lat="43.25602873232383" lon="12.319689084448392"><ele>429.4</ele><time>2026-04-21T12:48:08Z</time></trkpt><trkpt lat="43.25603699774015" lon="12.319555093179346"><ele>431.6</ele><time>2026-04-21T12:48:09Z</time></trkpt><trkpt lat="43.25606010814477" lon="12.31943691517647"><ele>433.8</ele><time>2026-04-21T12:48:10Z</time></trkpt><trkpt lat="43.25616805452138" lon="12.319328085151133"><ele>436.0</ele><time>2026-04-21T12:48:12Z</time></trkpt><trkpt lat="43.25625130586168" lon="12.31926653706198"><ele>436.0</ele><time>2026-04-21T12:48:13Z</time></trkpt><trkpt lat="43.25634696455761" lon="12.319196419741154"><ele>436.0</ele><time>2026-04-21T12:48:14Z</time></trkpt><trkpt lat="43.256436570795586" lon="12.319117126938075"><ele>436.0</ele><time>2026-04-21T12:48:15Z</time></trkpt><trkpt lat="43.25650273372632" lon="12.319037625441629"><ele>436.0</ele><time>2026-04-21T12:48:16Z</time></trkpt><trkpt lat="43.25654847057413" lon="12.318960155360969"><ele>436.0</ele><time>2026-04-21T12:48:17Z</time></trkpt><trkpt lat="43.256586415204005" lon="12.318838429655"><ele>437.0</ele><time>2026-04-21T12:48:18Z</time></trkpt><trkpt lat="43.256578598966705" lon="12.318695036284762"><ele>438.0</ele><time>2026-04-21T12:48:19Z</time></trkpt><trkpt lat="43.25659895822516" lon="12.318555681969368"><ele>439.0</ele><time>2026-04-21T12:48:20Z</time></trkpt><trkpt lat="43.25660317028879" lon="12.318404235623962"><ele>440.0</ele><time>2026-04-21T12:48:21Z</time></trkpt><trkpt lat="43.25660018413084" lon="12.31825586933658"><ele>441.0</ele><time>2026-04-21T12:48:22Z</time></trkpt><trkpt lat="43.25659441622364" lon="12.318113790530907"><ele>443.8</ele><time>2026-04-21T12:48:23Z</time></trkpt><trkpt lat="43.25658486663387" lon="12.31797498591811"><ele>446.6</ele><time>2026-04-21T12:48:24Z</time></trkpt><trkpt lat="43.256574002392796" lon="12.317861704498148"><ele>449.4</ele><time>2026-04-21T12:48:25Z</time></trkpt><trkpt lat="43.25656843732047" lon="12.317764027320422"><ele>452.2</ele><time>2026-04-21T12:48:26Z</time></trkpt><trkpt lat="43.25662118527816" lon="12.317673798802911"><ele>455.0</ele><time>2026-04-21T12:48:28Z</time></trkpt><trkpt lat="43.256753827417455" lon="12.31768092175515"><ele>454.99999999999994</ele><time>2026-04-21T12:48:30Z</time></trkpt><trkpt lat="43.25684294752068" lon="12.317687897023797"><ele>455.0</ele><time>2026-04-21T12:48:31Z</time></trkpt><trkpt lat="43.25691640893532" lon="12.317685797567984"><ele>455.0</ele><time>2026-04-21T12:48:32Z</time></trkpt><trkpt lat="43.256996133367224" lon="12.317599878899587"><ele>455.0</ele><time>2026-04-21T12:48:34Z</time></trkpt><trkpt lat="43.256974927012294" lon="12.317489447398561"><ele>454.99999999999994</ele><time>2026-04-21T12:48:34.999Z</time></trkpt><trkpt lat="43.2568876299722" lon="12.317429902157105"><ele>455.0</ele><time>2026-04-21T12:48:35.999Z</time></trkpt><trkpt lat="43.256791280685505" lon="12.317452610527216"><ele>455.0</ele><time>2026-04-21T12:48:36.999Z</time></trkpt><trkpt lat="43.25669666819638" lon="12.31744853545684"><ele>455.0</ele><time>2026-04-21T12:48:37.999Z</time></trkpt><trkpt lat="43.25660192351887" lon="12.31738716179335"><ele>455.0</ele><time>2026-04-21T12:48:38.999Z</time></trkpt><trkpt lat="43.25652320994298" lon="12.317315200097381"><ele>455.0</ele><time>2026-04-21T12:48:39.999Z</time></trkpt><trkpt lat="43.256447912001384" lon="12.317282860360473"><ele>455.0</ele><time>2026-04-21T12:48:40.999Z</time></trkpt><trkpt lat="43.25638252041473" lon="12.317360028267776"><ele>457.4</ele><time>2026-04-21T12:48:41.999Z</time></trkpt><trkpt lat="43.25634273584656" lon="12.317452341654816"><ele>459.8</ele><time>2026-04-21T12:48:42.999Z</time></trkpt><trkpt lat="43.25631279357458" lon="12.31758741994018"><ele>462.20000000000005</ele><time>2026-04-21T12:48:43.999Z</time></trkpt><trkpt lat="43.25626738281761" lon="12.317707647598564"><ele>464.6</ele><time>2026-04-21T12:48:44.999Z</time></trkpt><trkpt lat="43.256218047213714" lon="12.31783356729021"><ele>467.0</ele><time>2026-04-21T12:48:45.999Z</time></trkpt><trkpt lat="43.256125025584616" lon="12.317911053558364"><ele>467.0</ele><time>2026-04-21T12:48:46.999Z</time></trkpt><trkpt lat="43.25604369415047" lon="12.31797646139251"><ele>467.00000000000006</ele><time>2026-04-21T12:48:47.999Z</time></trkpt><trkpt lat="43.255958294747444" lon="12.318028995987243"><ele>467.00000000000006</ele><time>2026-04-21T12:48:48.999Z</time></trkpt><trkpt lat="43.25587625878639" lon="12.318082843914707"><ele>467.0</ele><time>2026-04-21T12:48:49.999Z</time></trkpt><trkpt lat="43.25576979172214" lon="12.318092339014493"><ele>467.0</ele><time>2026-04-21T12:48:50.999Z</time></trkpt><trkpt lat="43.25566867781105" lon="12.318042717947693"><ele>467.0</ele><time>2026-04-21T12:48:51.999Z</time></trkpt><trkpt lat="43.25556786802697" lon="12.31800223020329"><ele>467.00000000000006</ele><time>2026-04-21T12:48:52.999Z</time></trkpt><trkpt lat="43.25547512106459" lon="12.317951158048608"><ele>467.00000000000006</ele><time>2026-04-21T12:48:53.999Z</time></trkpt><trkpt lat="43.255377445572556" lon="12.317884860160131"><ele>467.0</ele><time>2026-04-21T12:48:54.999Z</time></trkpt><trkpt lat="43.2552667943435" lon="12.317826942161448"><ele>467.0</ele><time>2026-04-21T12:48:55.999Z</time></trkpt><trkpt lat="43.25517225068397" lon="12.317745647858466"><ele>466.99999999999994</ele><time>2026-04-21T12:48:56.999Z</time></trkpt><trkpt lat="43.25510011448406" lon="12.317666382492597"><ele>467.0</ele><time>2026-04-21T12:48:57.999Z</time></trkpt><trkpt lat="43.255068563629465" lon="12.317553497421954"><ele>467.0</ele><time>2026-04-21T12:48:58.999Z</time></trkpt><trkpt lat="43.25504918860079" lon="12.317466463218702"><ele>467.0</ele><time>2026-04-21T12:48:59.999Z</time></trkpt><trkpt lat="43.25501976025809" lon="12.317347913765262"><ele>466.99999999999994</ele><time>2026-04-21T12:49:00.999Z</time></trkpt><trkpt lat="43.25500092933657" lon="12.317217341692915"><ele>467.0</ele><time>2026-04-21T12:49:01.999Z</time></trkpt><trkpt lat="43.25497208683584" lon="12.317101117393262"><ele>470.40000000000003</ele><time>2026-04-21T12:49:02.999Z</time></trkpt><trkpt lat="43.25489863323654" lon="12.316986845793329"><ele>473.80000000000007</ele><time>2026-04-21T12:49:03.999Z</time></trkpt><trkpt lat="43.25476596112884" lon="12.316911598881891"><ele>477.2</ele><time>2026-04-21T12:49:04.999Z</time></trkpt><trkpt lat="43.25468770418126" lon="12.316911338209614"><ele>480.6</ele><time>2026-04-21T12:49:05.999Z</time></trkpt><trkpt lat="43.25459177689416" lon="12.316994818367704"><ele>484.0</ele><time>2026-04-21T12:49:06.999Z</time></trkpt><trkpt lat="43.25449808729183" lon="12.317064472216087"><ele>485.6666666666667</ele><time>2026-04-21T12:49:07.999Z</time></trkpt><trkpt lat="43.25441388696767" lon="12.317141688847032"><ele>487.33333333333337</ele><time>2026-04-21T12:49:08.999Z</time></trkpt><trkpt lat="43.25418288665967" lon="12.317222469844657"><ele>489.0</ele><time>2026-04-21T12:49:10.999Z</time></trkpt><trkpt lat="43.25405506391363" lon="12.31725345523193"><ele>489.25</ele><time>2026-04-21T12:49:11.999Z</time></trkpt><trkpt lat="43.25391040490539" lon="12.317287429272747"><ele>489.5</ele><time>2026-04-21T12:49:12.999Z</time></trkpt><trkpt lat="43.25377114224002" lon="12.317322620330701"><ele>489.75</ele><time>2026-04-21T12:49:13.999Z</time></trkpt><trkpt lat="43.253653378154816" lon="12.317381372231578"><ele>490.0</ele><time>2026-04-21T12:49:14.999Z</time></trkpt><trkpt lat="43.25354496674979" lon="12.317452370204284"><ele>490.0</ele><time>2026-04-21T12:49:15.999Z</time></trkpt><trkpt lat="43.25345837025126" lon="12.317569844365687"><ele>490.0</ele><time>2026-04-21T12:49:16.999Z</time></trkpt><trkpt lat="43.253399165099765" lon="12.317709879879416"><ele>490.0</ele><time>2026-04-21T12:49:17.999Z</time></trkpt><trkpt lat="43.25336211543215" lon="12.317875094324984"><ele>490.0</ele><time>2026-04-21T12:49:18.999Z</time></trkpt><trkpt lat="43.25336236729939" lon="12.318038759852662"><ele>488.8</ele><time>2026-04-21T12:49:19.999Z</time></trkpt><trkpt lat="43.25337866452024" lon="12.318215454393737"><ele>487.6</ele><time>2026-04-21T12:49:20.999Z</time></trkpt><trkpt lat="43.253378166388934" lon="12.31835828758003"><ele>486.4</ele><time>2026-04-21T12:49:21.999Z</time></trkpt><trkpt lat="43.25334995786526" lon="12.31847583565461"><ele>485.2</ele><time>2026-04-21T12:49:22.999Z</time></trkpt><trkpt lat="43.25331275756457" lon="12.318560017891079"><ele>484.0</ele><time>2026-04-21T12:49:23.999Z</time></trkpt><trkpt lat="43.25319170531702" lon="12.318599360399057"><ele>484.00000000000006</ele><time>2026-04-21T12:49:25.999Z</time></trkpt><trkpt lat="43.253140191678945" lon="12.318538076164973"><ele>484.0</ele><time>2026-04-21T12:49:26.999Z</time></trkpt><trkpt lat="43.253100328932604" lon="12.318436801610842"><ele>484.0</ele><time>2026-04-21T12:49:28.999Z</time></trkpt><trkpt lat="43.253165832289916" lon="12.318317640046063"><ele>484.0</ele><time>2026-04-21T12:49:31.999Z</time></trkpt><trkpt lat="43.2531931448113" lon="12.31822062384284"><ele>484.00000000000006</ele><time>2026-04-21T12:49:32.999Z</time></trkpt><trkpt lat="43.253219117729024" lon="12.318111958989899"><ele>484.0</ele><time>2026-04-21T12:49:33.999Z</time></trkpt><trkpt lat="43.25322897299805" lon="12.317996998043542"><ele>485.00000000000006</ele><time>2026-04-21T12:49:34.999Z</time></trkpt><trkpt lat="43.25320440364813" lon="12.31789075202062"><ele>486.0</ele><time>2026-04-21T12:49:35.999Z</time></trkpt><trkpt lat="43.253204917487324" lon="12.317764294396387"><ele>487.0</ele><time>2026-04-21T12:49:36.999Z</time></trkpt><trkpt lat="43.25318716086936" lon="12.317640057719588"><ele>488.0</ele><time>2026-04-21T12:49:37.999Z</time></trkpt><trkpt lat="43.25317444332678" lon="12.317521263328649"><ele>489.00000000000006</ele><time>2026-04-21T12:49:38.999Z</time></trkpt><trkpt lat="43.25317329432741" lon="12.317416814106233"><ele>490.0</ele><time>2026-04-21T12:49:39.999Z</time></trkpt><trkpt lat="43.25317778501521" lon="12.317328873607403"><ele>491.6666666666667</ele><time>2026-04-21T12:49:40.999Z</time></trkpt><trkpt lat="43.25320644645257" lon="12.317171672967904"><ele>493.33333333333337</ele><time>2026-04-21T12:49:42.999Z</time></trkpt><trkpt lat="43.25323256624205" lon="12.31707185089736"><ele>495.0</ele><time>2026-04-21T12:49:43.999Z</time></trkpt><trkpt lat="43.25326109841769" lon="12.316984887993966"><ele>496.66666666666663</ele><time>2026-04-21T12:49:44.999Z</time></trkpt><trkpt lat="43.253297924918364" lon="12.31688947913481"><ele>498.3333333333333</ele><time>2026-04-21T12:49:45.999Z</time></trkpt><trkpt lat="43.253324529960615" lon="12.316789235931664"><ele>500.0</ele><time>2026-04-21T12:49:46.999Z</time></trkpt><trkpt lat="43.25337245301149" lon="12.316698658715488"><ele>500.0</ele><time>2026-04-21T12:49:47.999Z</time></trkpt><trkpt lat="43.25343223265636" lon="12.316618475881782"><ele>500.0</ele><time>2026-04-21T12:49:48.999Z</time></trkpt><trkpt lat="43.253485486720585" lon="12.316526576554349"><ele>500.0</ele><time>2026-04-21T12:49:49.999Z</time></trkpt><trkpt lat="43.253550330784776" lon="12.316423945918775"><ele>500.0</ele><time>2026-04-21T12:49:50.999Z</time></trkpt><trkpt lat="43.25362354321044" lon="12.316315756664572"><ele>500.0</ele><time>2026-04-21T12:49:51.999Z</time></trkpt><trkpt lat="43.25369686117438" lon="12.316206939669184"><ele>500.4</ele><time>2026-04-21T12:49:52.999Z</time></trkpt><trkpt lat="43.25377411042694" lon="12.316092076450989"><ele>500.8</ele><time>2026-04-21T12:49:53.999Z</time></trkpt><trkpt lat="43.253860721716386" lon="12.31599120929666"><ele>501.20000000000005</ele><time>2026-04-21T12:49:54.999Z</time></trkpt><trkpt lat="43.253947323113216" lon="12.31591016471656"><ele>501.6</ele><time>2026-04-21T12:49:55.999Z</time></trkpt><trkpt lat="43.25402907489388" lon="12.315844068096727"><ele>502.0</ele><time>2026-04-21T12:49:56.999Z</time></trkpt><trkpt lat="43.25408386437236" lon="12.315800120172346"><ele>503.0</ele><time>2026-04-21T12:49:57.999Z</time></trkpt><trkpt lat="43.254150797316235" lon="12.315746431417619"><ele>504.00000000000006</ele><time>2026-04-21T12:49:59.999Z</time></trkpt><trkpt lat="43.25427533460937" lon="12.315644782300982"><ele>505.00000000000006</ele><time>2026-04-21T12:50:01.999Z</time></trkpt><trkpt lat="43.254353855667205" lon="12.315581732888955"><ele>506.0</ele><time>2026-04-21T12:50:02.999Z</time></trkpt><trkpt lat="43.25444013760696" lon="12.31550568406331"><ele>507.0</ele><time>2026-04-21T12:50:03.999Z</time></trkpt><trkpt lat="43.25451243100511" lon="12.315435680645432"><ele>507.8</ele><time>2026-04-21T12:50:04.999Z</time></trkpt><trkpt lat="43.25459591916912" lon="12.315353226779543"><ele>508.6</ele><time>2026-04-21T12:50:05.999Z</time></trkpt><trkpt lat="43.25468338394919" lon="12.315266845590092"><ele>509.40000000000003</ele><time>2026-04-21T12:50:06.999Z</time></trkpt><trkpt lat="43.25477158030058" lon="12.315179741924032"><ele>510.20000000000005</ele><time>2026-04-21T12:50:07.999Z</time></trkpt><trkpt lat="43.2548668488105" lon="12.315085653690595"><ele>511.0</ele><time>2026-04-21T12:50:08.999Z</time></trkpt><trkpt lat="43.254928267488566" lon="12.315026816564746"><ele>512.5</ele><time>2026-04-21T12:50:09.999Z</time></trkpt><trkpt lat="43.254994539775346" lon="12.31497605769785"><ele>514.0</ele><time>2026-04-21T12:50:10.999Z</time></trkpt><trkpt lat="43.25504461420412" lon="12.31491638345556"><ele>515.5</ele><time>2026-04-21T12:50:11.999Z</time></trkpt><trkpt lat="43.255079695595036" lon="12.314841507697786"><ele>517.0</ele><time>2026-04-21T12:50:13Z</time></trkpt><trkpt lat="43.25509715828623" lon="12.314706390222842"><ele>518.5</ele><time>2026-04-21T12:50:14Z</time></trkpt><trkpt lat="43.25513782001063" lon="12.314564842724963"><ele>520.0</ele><time>2026-04-21T12:50:15Z</time></trkpt><trkpt lat="43.25517194491197" lon="12.314418084989082"><ele>521.0</ele><time>2026-04-21T12:50:16Z</time></trkpt><trkpt lat="43.255209133073464" lon="12.314286863877951"><ele>522.0</ele><time>2026-04-21T12:50:17Z</time></trkpt><trkpt lat="43.255246120618" lon="12.314177829532923"><ele>523.0</ele><time>2026-04-21T12:50:18Z</time></trkpt><trkpt lat="43.25531204980484" lon="12.314111831647194"><ele>524.0</ele><time>2026-04-21T12:50:19Z</time></trkpt><trkpt lat="43.2553494052073" lon="12.314038219078805"><ele>525.0</ele><time>2026-04-21T12:50:20Z</time></trkpt><trkpt lat="43.25535286509094" lon="12.313941340181985"><ele>526.0</ele><time>2026-04-21T12:50:21Z</time></trkpt><trkpt lat="43.25528372144908" lon="12.31386224101333"><ele>528.6666666666667</ele><time>2026-04-21T12:50:22Z</time></trkpt><trkpt lat="43.25524766451419" lon="12.313716740400178"><ele>531.3333333333334</ele><time>2026-04-21T12:50:24Z</time></trkpt><trkpt lat="43.255312189261105" lon="12.313669548880167"><ele>534.0</ele><time>2026-04-21T12:50:26Z</time></trkpt><trkpt lat="43.25537874868581" lon="12.313641051614097"><ele>536.6666666666666</ele><time>2026-04-21T12:50:29Z</time></trkpt><trkpt lat="43.25546706450652" lon="12.313637462827284"><ele>539.3333333333333</ele><time>2026-04-21T12:50:32Z</time></trkpt><trkpt lat="43.25554293614205" lon="12.31363641734729"><ele>542.0</ele><time>2026-04-21T12:50:34Z</time></trkpt><trkpt lat="43.255633728649364" lon="12.313622420438454"><ele>543.8000000000001</ele><time>2026-04-21T12:50:36Z</time></trkpt><trkpt lat="43.25573611738503" lon="12.313592744451887"><ele>545.6</ele><time>2026-04-21T12:50:38Z</time></trkpt><trkpt lat="43.255798793055405" lon="12.313572445215568"><ele>547.4000000000001</ele><time>2026-04-21T12:50:39Z</time></trkpt><trkpt lat="43.255909569263586" lon="12.313507769869396"><ele>549.2</ele><time>2026-04-21T12:50:41Z</time></trkpt><trkpt lat="43.256008846986155" lon="12.313399075700431"><ele>551.0</ele><time>2026-04-21T12:50:43Z</time></trkpt><trkpt lat="43.25605751613587" lon="12.313316812094174"><ele>551.0</ele><time>2026-04-21T12:50:44Z</time></trkpt><trkpt lat="43.25612288058003" lon="12.31327227889601"><ele>551.0</ele><time>2026-04-21T12:50:45Z</time></trkpt><trkpt lat="43.25617443638458" lon="12.313219206728984"><ele>551.0</ele><time>2026-04-21T12:50:46Z</time></trkpt><trkpt lat="43.25625905716591" lon="12.313139003202146"><ele>551.0</ele><time>2026-04-21T12:50:48Z</time></trkpt><trkpt lat="43.25634354325987" lon="12.313094795359904"><ele>551.0</ele><time>2026-04-21T12:50:50Z</time></trkpt><trkpt lat="43.256415640282185" lon="12.3130839301076"><ele>551.0</ele><time>2026-04-21T12:50:52Z</time></trkpt><trkpt lat="43.256471552351854" lon="12.313125208519756"><ele>551.0</ele><time>2026-04-21T12:50:54Z</time></trkpt><trkpt lat="43.256406959984815" lon="12.313084421292386"><ele>551.0</ele><time>2026-04-21T12:51:08.999Z</time></trkpt><trkpt lat="43.25632585804671" lon="12.313073964090151"><ele>551.0</ele><time>2026-04-21T12:51:11.999Z</time></trkpt><trkpt lat="43.25625840348283" lon="12.313118993135767"><ele>551.0</ele><time>2026-04-21T12:51:33.999Z</time></trkpt><trkpt lat="43.256140446049685" lon="12.313239664091679"><ele>551.0</ele><time>2026-04-21T12:51:35.999Z</time></trkpt><trkpt lat="43.25607698307697" lon="12.313311792962704"><ele>551.0</ele><time>2026-04-21T12:51:36.999Z</time></trkpt><trkpt lat="43.256011313237494" lon="12.313386363381026"><ele>551.0</ele><time>2026-04-21T12:51:37.999Z</time></trkpt><trkpt lat="43.25595520840644" lon="12.313444709171474"><ele>551.0</ele><time>2026-04-21T12:51:38.999Z</time></trkpt><trkpt lat="43.255899523259764" lon="12.313500536493647"><ele>551.0</ele><time>2026-04-21T12:51:39.999Z</time></trkpt><trkpt lat="43.25579743562743" lon="12.313565700223961"><ele>551.0</ele><time>2026-04-21T12:51:41.999Z</time></trkpt><trkpt lat="43.25573425728985" lon="12.313575897304553"><ele>551.0</ele><time>2026-04-21T12:51:42.999Z</time></trkpt><trkpt lat="43.25567096242358" lon="12.313597351949612"><ele>549.2</ele><time>2026-04-21T12:51:43.999Z</time></trkpt><trkpt lat="43.25554936639998" lon="12.31361842968154"><ele>547.4000000000001</ele><time>2026-04-21T12:51:45.999Z</time></trkpt><trkpt lat="43.255425377534" lon="12.313624648758653"><ele>545.6</ele><time>2026-04-21T12:51:47.999Z</time></trkpt><trkpt lat="43.25531233121329" lon="12.313668458539608"><ele>543.8000000000001</ele><time>2026-04-21T12:51:49.999Z</time></trkpt><trkpt lat="43.25525239863433" lon="12.313748805446961"><ele>542.0</ele><time>2026-04-21T12:51:51.999Z</time></trkpt><trkpt lat="43.25527182389014" lon="12.313883380188287"><ele>538.8000000000001</ele><time>2026-04-21T12:51:53.999Z</time></trkpt><trkpt lat="43.25530479887214" lon="12.314029729531317"><ele>535.6</ele><time>2026-04-21T12:51:55.999Z</time></trkpt><trkpt lat="43.25525657123654" lon="12.314160440514"><ele>532.4000000000001</ele><time>2026-04-21T12:51:57.999Z</time></trkpt><trkpt lat="43.255182958777404" lon="12.314274639595087"><ele>529.2</ele><time>2026-04-21T12:51:59.999Z</time></trkpt><trkpt lat="43.255146800810635" lon="12.314424227790001"><ele>526.0</ele><time>2026-04-21T12:52:01.999Z</time></trkpt><trkpt lat="43.25510710946523" lon="12.3145856012417"><ele>526.0</ele><time>2026-04-21T12:52:03.999Z</time></trkpt><trkpt lat="43.2550817458487" lon="12.314671625426133"><ele>526.0</ele><time>2026-04-21T12:52:04.999Z</time></trkpt><trkpt lat="43.255038717856465" lon="12.314799528707267"><ele>526.0</ele><time>2026-04-21T12:52:06.999Z</time></trkpt><trkpt lat="43.25501114612428" lon="12.31488088506469"><ele>526.0</ele><time>2026-04-21T12:52:09.999Z</time></trkpt><trkpt lat="43.25515778313075" lon="12.314930363871607"><ele>526.0</ele><time>2026-04-21T12:52:13.999Z</time></trkpt><trkpt lat="43.25526116975128" lon="12.31492172209534"><ele>526.6666666666667</ele><time>2026-04-21T12:52:15.999Z</time></trkpt><trkpt lat="43.25537612246075" lon="12.314875730927598"><ele>527.3333333333334</ele><time>2026-04-21T12:52:17.999Z</time></trkpt><trkpt lat="43.255437310218475" lon="12.314853252937606"><ele>528.0</ele><time>2026-04-21T12:52:19Z</time></trkpt><trkpt lat="43.255504499198274" lon="12.314828649243974"><ele>528.6666666666666</ele><time>2026-04-21T12:52:20Z</time></trkpt><trkpt lat="43.255597909303816" lon="12.314777804664509"><ele>529.3333333333333</ele><time>2026-04-21T12:52:22Z</time></trkpt><trkpt lat="43.2556612361939" lon="12.31473213137298"><ele>530.0</ele><time>2026-04-21T12:52:23Z</time></trkpt><trkpt lat="43.25573070811286" lon="12.314674635904707"><ele>530.0</ele><time>2026-04-21T12:52:24Z</time></trkpt><trkpt lat="43.255788547001785" lon="12.314602640221084"><ele>530.0</ele><time>2026-04-21T12:52:25Z</time></trkpt><trkpt lat="43.255828272526735" lon="12.314531519197923"><ele>530.0</ele><time>2026-04-21T12:52:26Z</time></trkpt><trkpt lat="43.25587925749127" lon="12.314439607904445"><ele>530.0</ele><time>2026-04-21T12:52:27Z</time></trkpt><trkpt lat="43.25592693758141" lon="12.314362468358208"><ele>530.0</ele><time>2026-04-21T12:52:28Z</time></trkpt><trkpt lat="43.25601008744009" lon="12.314290762792764"><ele>530.0</ele><time>2026-04-21T12:52:30Z</time></trkpt><trkpt lat="43.25612569742717" lon="12.314246710946398"><ele>529.9999999999999</ele><time>2026-04-21T12:52:32Z</time></trkpt><trkpt lat="43.25619299252804" lon="12.314220221528512"><ele>530.0</ele><time>2026-04-21T12:52:33Z</time></trkpt><trkpt lat="43.256258437648235" lon="12.314195675054691"><ele>530.0</ele><time>2026-04-21T12:52:34Z</time></trkpt><trkpt lat="43.25632343633544" lon="12.31419308093201"><ele>530.0</ele><time>2026-04-21T12:52:35Z</time></trkpt><trkpt lat="43.256390163914496" lon="12.314217706318015"><ele>530.0</ele><time>2026-04-21T12:52:36Z</time></trkpt><trkpt lat="43.25646986930267" lon="12.31424106085009"><ele>529.9999999999999</ele><time>2026-04-21T12:52:37Z</time></trkpt><trkpt lat="43.25655612832358" lon="12.314248238495201"><ele>530.0</ele><time>2026-04-21T12:52:38Z</time></trkpt><trkpt lat="43.256639250848" lon="12.314287991116073"><ele>530.2</ele><time>2026-04-21T12:52:39Z</time></trkpt><trkpt lat="43.25671269679688" lon="12.3143670948004"><ele>530.4</ele><time>2026-04-21T12:52:40Z</time></trkpt><trkpt lat="43.25680316894002" lon="12.31441719188854"><ele>530.6</ele><time>2026-04-21T12:52:41Z</time></trkpt><trkpt lat="43.25687972014191" lon="12.314492555893288"><ele>530.8</ele><time>2026-04-21T12:52:42Z</time></trkpt><trkpt lat="43.25696403937315" lon="12.314551841372795"><ele>531.0</ele><time>2026-04-21T12:52:43Z</time></trkpt><trkpt lat="43.25706010383883" lon="12.314602160275223"><ele>531.0</ele><time>2026-04-21T12:52:44Z</time></trkpt><trkpt lat="43.25715965557186" lon="12.314649235161312"><ele>531.0</ele><time>2026-04-21T12:52:45Z</time></trkpt><trkpt lat="43.25725926844954" lon="12.314711586611356"><ele>531.0</ele><time>2026-04-21T12:52:46Z</time></trkpt><trkpt lat="43.257369717568935" lon="12.31478433262049"><ele>531.0</ele><time>2026-04-21T12:52:47Z</time></trkpt><trkpt lat="43.257479059816994" lon="12.314857083236278"><ele>528.2</ele><time>2026-04-21T12:52:48Z</time></trkpt><trkpt lat="43.25758388352041" lon="12.31492844885182"><ele>525.4000000000001</ele><time>2026-04-21T12:52:49Z</time></trkpt><trkpt lat="43.257672956847024" lon="12.314989091386531"><ele>522.6</ele><time>2026-04-21T12:52:50Z</time></trkpt><trkpt lat="43.25776555230414" lon="12.315030151134614"><ele>519.8000000000001</ele><time>2026-04-21T12:52:51Z</time></trkpt><trkpt lat="43.25784834936956" lon="12.315093571121988"><ele>517.0</ele><time>2026-04-21T12:52:52Z</time></trkpt><trkpt lat="43.25792982586498" lon="12.315142526656768"><ele>517.0</ele><time>2026-04-21T12:52:53Z</time></trkpt><trkpt lat="43.25799496924087" lon="12.315152491194741"><ele>517.0</ele><time>2026-04-21T12:52:54Z</time></trkpt><trkpt lat="43.258084086069694" lon="12.31517736892845"><ele>517.0</ele><time>2026-04-21T12:52:55Z</time></trkpt><trkpt lat="43.25817639927604" lon="12.315174659653717"><ele>517.0</ele><time>2026-04-21T12:52:56Z</time></trkpt><trkpt lat="43.25826531641199" lon="12.31515812543059"><ele>517.0</ele><time>2026-04-21T12:52:57Z</time></trkpt><trkpt lat="43.25835807272961" lon="12.315123965064242"><ele>517.0</ele><time>2026-04-21T12:52:58Z</time></trkpt><trkpt lat="43.258455336179665" lon="12.315084853174218"><ele>519.4</ele><time>2026-04-21T12:52:59Z</time></trkpt><trkpt lat="43.25855288731038" lon="12.315041463504205"><ele>521.8000000000001</ele><time>2026-04-21T12:53:00Z</time></trkpt><trkpt lat="43.25864803040161" lon="12.314989533723951"><ele>524.2</ele><time>2026-04-21T12:53:01Z</time></trkpt><trkpt lat="43.25873639067938" lon="12.31495738644036"><ele>526.6</ele><time>2026-04-21T12:53:02Z</time></trkpt><trkpt lat="43.25882849987063" lon="12.314946673645142"><ele>529.0</ele><time>2026-04-21T12:53:03Z</time></trkpt><trkpt lat="43.25892548768423" lon="12.31492474496095"><ele>528.6</ele><time>2026-04-21T12:53:04Z</time></trkpt><trkpt lat="43.259020618343044" lon="12.314876500541782"><ele>528.2</ele><time>2026-04-21T12:53:05Z</time></trkpt><trkpt lat="43.25912671508265" lon="12.31483268255546"><ele>527.8000000000001</ele><time>2026-04-21T12:53:06Z</time></trkpt><trkpt lat="43.25923202254766" lon="12.314807501417114"><ele>527.4</ele><time>2026-04-21T12:53:07Z</time></trkpt><trkpt lat="43.25933422291798" lon="12.3147789984795"><ele>527.0</ele><time>2026-04-21T12:53:07.999Z</time></trkpt><trkpt lat="43.25943460371253" lon="12.31476593134194"><ele>527.0</ele><time>2026-04-21T12:53:08.999Z</time></trkpt><trkpt lat="43.2595321197222" lon="12.314753328492536"><ele>527.0</ele><time>2026-04-21T12:53:09.999Z</time></trkpt><trkpt lat="43.259626141520094" lon="12.314742961930328"><ele>527.0</ele><time>2026-04-21T12:53:10.999Z</time></trkpt><trkpt lat="43.25972631981796" lon="12.314737336404681"><ele>527.0</ele><time>2026-04-21T12:53:11.999Z</time></trkpt><trkpt lat="43.25981454180985" lon="12.314734679734784"><ele>527.0</ele><time>2026-04-21T12:53:12.999Z</time></trkpt><trkpt lat="43.25992703066909" lon="12.31472303926455"><ele>532.8000000000001</ele><time>2026-04-21T12:53:13.999Z</time></trkpt><trkpt lat="43.2600316069841" lon="12.314671125784232"><ele>538.6</ele><time>2026-04-21T12:53:14.999Z</time></trkpt><trkpt lat="43.260144286500825" lon="12.314654366985263"><ele>544.4000000000001</ele><time>2026-04-21T12:53:15.999Z</time></trkpt><trkpt lat="43.2602447525689" lon="12.314622626129674"><ele>550.2</ele><time>2026-04-21T12:53:16.999Z</time></trkpt><trkpt lat="43.26034207470391" lon="12.314591880189209"><ele>556.0</ele><time>2026-04-21T12:53:17.999Z</time></trkpt><trkpt lat="43.26045373059279" lon="12.314556604056408"><ele>556.0</ele><time>2026-04-21T12:53:18.999Z</time></trkpt><trkpt lat="43.260565909255234" lon="12.314518333525573"><ele>556.0</ele><time>2026-04-21T12:53:19.999Z</time></trkpt><trkpt lat="43.26067901192842" lon="12.314471105942102"><ele>556.0</ele><time>2026-04-21T12:53:20.999Z</time></trkpt><trkpt lat="43.26079683498185" lon="12.314441967771968"><ele>556.0</ele><time>2026-04-21T12:53:21.999Z</time></trkpt><trkpt lat="43.260923204641394" lon="12.314424428854853"><ele>555.5</ele><time>2026-04-21T12:53:22.999Z</time></trkpt><trkpt lat="43.261041155638345" lon="12.31438933080202"><ele>555.0</ele><time>2026-04-21T12:53:23.999Z</time></trkpt><trkpt lat="43.26115650549116" lon="12.314362280515804"><ele>554.5</ele><time>2026-04-21T12:53:24.999Z</time></trkpt><trkpt lat="43.261273222355" lon="12.314318256135325"><ele>554.0</ele><time>2026-04-21T12:53:25.999Z</time></trkpt><trkpt lat="43.261372654141134" lon="12.31428976297876"><ele>553.8</ele><time>2026-04-21T12:53:26.999Z</time></trkpt><trkpt lat="43.26147769003705" lon="12.314253904478868"><ele>553.5999999999999</ele><time>2026-04-21T12:53:27.999Z</time></trkpt><trkpt lat="43.26157973973391" lon="12.31422455062468"><ele>553.4</ele><time>2026-04-21T12:53:28.999Z</time></trkpt><trkpt lat="43.261694102487596" lon="12.314174509094462"><ele>553.1999999999999</ele><time>2026-04-21T12:53:29.999Z</time></trkpt><trkpt lat="43.26179933568984" lon="12.314164483441356"><ele>553.0</ele><time>2026-04-21T12:53:30.999Z</time></trkpt><trkpt lat="43.26190385597769" lon="12.314147852671995"><ele>553.0</ele><time>2026-04-21T12:53:31.999Z</time></trkpt><trkpt lat="43.262032747539465" lon="12.314134034071065"><ele>553.0</ele><time>2026-04-21T12:53:32.999Z</time></trkpt><trkpt lat="43.26214998405604" lon="12.314133792758586"><ele>553.0</ele><time>2026-04-21T12:53:33.999Z</time></trkpt><trkpt lat="43.26225972394943" lon="12.314132107012504"><ele>553.0</ele><time>2026-04-21T12:53:34.999Z</time></trkpt><trkpt lat="43.262344469009605" lon="12.31413460179221"><ele>553.0</ele><time>2026-04-21T12:53:35.999Z</time></trkpt><trkpt lat="43.262419040466774" lon="12.314151429048186"><ele>553.6666666666667</ele><time>2026-04-21T12:53:36.999Z</time></trkpt><trkpt lat="43.26247760035999" lon="12.31421165237339"><ele>554.3333333333334</ele><time>2026-04-21T12:53:37.999Z</time></trkpt><trkpt lat="43.2625517582178" lon="12.31424770354714"><ele>555.0</ele><time>2026-04-21T12:53:38.999Z</time></trkpt><trkpt lat="43.26261916752784" lon="12.314271296199035"><ele>555.6666666666666</ele><time>2026-04-21T12:53:39.999Z</time></trkpt><trkpt lat="43.26269658348523" lon="12.314267942515238"><ele>556.3333333333333</ele><time>2026-04-21T12:53:40.999Z</time></trkpt><trkpt lat="43.2627914433738" lon="12.314240841448566"><ele>557.0</ele><time>2026-04-21T12:53:41.999Z</time></trkpt><trkpt lat="43.26289313144981" lon="12.314210655047976"><ele>557.0</ele><time>2026-04-21T12:53:42.999Z</time></trkpt><trkpt lat="43.263003633043965" lon="12.314170230943217"><ele>557.0</ele><time>2026-04-21T12:53:43.999Z</time></trkpt><trkpt lat="43.26310768951245" lon="12.314133003768482"><ele>557.0</ele><time>2026-04-21T12:53:44.999Z</time></trkpt><trkpt lat="43.26321610151575" lon="12.314108826629937"><ele>557.0</ele><time>2026-04-21T12:53:45.999Z</time></trkpt><trkpt lat="43.26331124784054" lon="12.314108582532986"><ele>557.0</ele><time>2026-04-21T12:53:46.999Z</time></trkpt><trkpt lat="43.26340007403936" lon="12.314129933867397"><ele>557.6</ele><time>2026-04-21T12:53:47.999Z</time></trkpt><trkpt lat="43.263466352511394" lon="12.314142537337547"><ele>558.2</ele><time>2026-04-21T12:53:48.999Z</time></trkpt><trkpt lat="43.263565017210375" lon="12.3141592036738"><ele>558.8</ele><time>2026-04-21T12:53:50.999Z</time></trkpt><trkpt lat="43.263702180878674" lon="12.31420955713172"><ele>559.4</ele><time>2026-04-21T12:53:52.999Z</time></trkpt><trkpt lat="43.2638258486837" lon="12.314272767389582"><ele>560.0</ele><time>2026-04-21T12:53:53.999Z</time></trkpt><trkpt lat="43.26396731646159" lon="12.314355047578063"><ele>561.75</ele><time>2026-04-21T12:53:54.999Z</time></trkpt><trkpt lat="43.26411120428486" lon="12.314443282928863"><ele>563.5</ele><time>2026-04-21T12:53:55.999Z</time></trkpt><trkpt lat="43.26423461228495" lon="12.314521965881987"><ele>565.25</ele><time>2026-04-21T12:53:56.999Z</time></trkpt><trkpt lat="43.2643324355445" lon="12.3145871165674"><ele>567.0</ele><time>2026-04-21T12:53:57.999Z</time></trkpt><trkpt lat="43.264407287657086" lon="12.314639547604353"><ele>567.0</ele><time>2026-04-21T12:53:58.999Z</time></trkpt><trkpt lat="43.26446733115819" lon="12.314682768869831"><ele>567.0</ele><time>2026-04-21T12:53:59.999Z</time></trkpt><trkpt lat="43.26453847754499" lon="12.314710445610967"><ele>567.0</ele><time>2026-04-21T12:54:00.999Z</time></trkpt><trkpt lat="43.26461244624966" lon="12.314794884337525"><ele>567.0</ele><time>2026-04-21T12:54:01.999Z</time></trkpt><trkpt lat="43.26469144259112" lon="12.314869196040492"><ele>567.0</ele><time>2026-04-21T12:54:02.999Z</time></trkpt><trkpt lat="43.26476042037389" lon="12.314919418362384"><ele>567.0</ele><time>2026-04-21T12:54:03.999Z</time></trkpt><trkpt lat="43.26482497657546" lon="12.314951407658704"><ele>563.6</ele><time>2026-04-21T12:54:04.999Z</time></trkpt><trkpt lat="43.264942827768394" lon="12.314974070597795"><ele>560.2</ele><time>2026-04-21T12:54:06.999Z</time></trkpt><trkpt lat="43.265046167051565" lon="12.315013462918245"><ele>556.8</ele><time>2026-04-21T12:54:08.999Z</time></trkpt><trkpt lat="43.265159318475135" lon="12.315052027474396"><ele>553.4</ele><time>2026-04-21T12:54:10.999Z</time></trkpt><trkpt lat="43.26522806224127" lon="12.31507368801644"><ele>550.0</ele><time>2026-04-21T12:54:11.999Z</time></trkpt><trkpt lat="43.26534420521216" lon="12.315106151520409"><ele>550.0</ele><time>2026-04-21T12:54:13.999Z</time></trkpt><trkpt lat="43.26544687816141" lon="12.31508951430247"><ele>550.0</ele><time>2026-04-21T12:54:15.999Z</time></trkpt><trkpt lat="43.26553674366863" lon="12.31506857646977"><ele>550.0</ele><time>2026-04-21T12:54:18.999Z</time></trkpt><trkpt lat="43.265616870007925" lon="12.315047161476162"><ele>550.0</ele><time>2026-04-21T12:54:20.999Z</time></trkpt><trkpt lat="43.26569164921039" lon="12.315020073954694"><ele>550.0</ele><time>2026-04-21T12:54:22.999Z</time></trkpt><trkpt lat="43.26580582062535" lon="12.314966910809245"><ele>549.4285714285714</ele><time>2026-04-21T12:54:25Z</time></trkpt><trkpt lat="43.26587469578823" lon="12.314939599963324"><ele>548.8571428571429</ele><time>2026-04-21T12:54:26Z</time></trkpt><trkpt lat="43.265942611878906" lon="12.314921743717091"><ele>548.2857142857142</ele><time>2026-04-21T12:54:27Z</time></trkpt><trkpt lat="43.266021455007326" lon="12.314909418643206"><ele>547.7142857142858</ele><time>2026-04-21T12:54:28Z</time></trkpt><trkpt lat="43.266092014392264" lon="12.314901840928268"><ele>547.1428571428571</ele><time>2026-04-21T12:54:29Z</time></trkpt><trkpt lat="43.26617238502134" lon="12.314894877246427"><ele>546.5714285714286</ele><time>2026-04-21T12:54:30Z</time></trkpt><trkpt lat="43.266246263676585" lon="12.314888588369113"><ele>546.0</ele><time>2026-04-21T12:54:31Z</time></trkpt><trkpt lat="43.26634336513822" lon="12.314880563257734"><ele>546.0</ele><time>2026-04-21T12:54:32Z</time></trkpt><trkpt lat="43.26643455172835" lon="12.314875351798973"><ele>546.0</ele><time>2026-04-21T12:54:33Z</time></trkpt><trkpt lat="43.2665252774457" lon="12.314870166674089"><ele>546.0</ele><time>2026-04-21T12:54:34Z</time></trkpt><trkpt lat="43.266625507233364" lon="12.314864438382168"><ele>546.0</ele><time>2026-04-21T12:54:35Z</time></trkpt><trkpt lat="43.2667199788462" lon="12.314838483510325"><ele>546.0</ele><time>2026-04-21T12:54:36Z</time></trkpt><trkpt lat="43.26681537989526" lon="12.314841365222714"><ele>546.0</ele><time>2026-04-21T12:54:37Z</time></trkpt><trkpt lat="43.26692145956754" lon="12.3148362930505"><ele>546.0</ele><time>2026-04-21T12:54:38Z</time></trkpt><trkpt lat="43.2670196318818" lon="12.314836986475083"><ele>546.0</ele><time>2026-04-21T12:54:39Z</time></trkpt><trkpt lat="43.26711739785829" lon="12.31484118448916"><ele>546.0</ele><time>2026-04-21T12:54:40Z</time></trkpt><trkpt lat="43.26720981099657" lon="12.314836692471399"><ele>546.0</ele><time>2026-04-21T12:54:41Z</time></trkpt><trkpt lat="43.267296607806635" lon="12.314838089450651"><ele>546.6666666666666</ele><time>2026-04-21T12:54:42Z</time></trkpt><trkpt lat="43.267372341996555" lon="12.314845760737457"><ele>547.3333333333334</ele><time>2026-04-21T12:54:43Z</time></trkpt><trkpt lat="43.26746462050795" lon="12.314868903976517"><ele>548.0</ele><time>2026-04-21T12:54:45Z</time></trkpt><trkpt lat="43.267589404950506" lon="12.314858478094845"><ele>548.6666666666667</ele><time>2026-04-21T12:54:47Z</time></trkpt><trkpt lat="43.26766289856581" lon="12.314867291835377"><ele>549.3333333333334</ele><time>2026-04-21T12:54:48Z</time></trkpt><trkpt lat="43.267729693634244" lon="12.31486529207968"><ele>550.0</ele><time>2026-04-21T12:54:49Z</time></trkpt><trkpt lat="43.267846093683936" lon="12.314825893071013"><ele>550.0</ele><time>2026-04-21T12:54:51Z</time></trkpt><trkpt lat="43.26795308821736" lon="12.314769284286971"><ele>550.0</ele><time>2026-04-21T12:54:53Z</time></trkpt><trkpt lat="43.26805018121219" lon="12.314650744144787"><ele>550.0</ele><time>2026-04-21T12:54:55Z</time></trkpt><trkpt lat="43.26810645814424" lon="12.314567753041741"><ele>550.0</ele><time>2026-04-21T12:54:56Z</time></trkpt><trkpt lat="43.268167373582635" lon="12.314475956030746"><ele>550.0</ele><time>2026-04-21T12:54:57Z</time></trkpt><trkpt lat="43.26822166957015" lon="12.314401291176994"><ele>551.2</ele><time>2026-04-21T12:54:58Z</time></trkpt><trkpt lat="43.26830923329251" lon="12.314311198311913"><ele>552.4</ele><time>2026-04-21T12:55:00Z</time></trkpt><trkpt lat="43.26838800211648" lon="12.31426973129933"><ele>553.6</ele><time>2026-04-21T12:55:02Z</time></trkpt><trkpt lat="43.26844851420366" lon="12.314232566915091"><ele>554.8</ele><time>2026-04-21T12:55:03Z</time></trkpt><trkpt lat="43.26854271573338" lon="12.314222563857465"><ele>556.0</ele><time>2026-04-21T12:55:04Z</time></trkpt><trkpt lat="43.26863777487165" lon="12.314226758122222"><ele>556.0</ele><time>2026-04-21T12:55:05Z</time></trkpt><trkpt lat="43.26872064015496" lon="12.314219226679883"><ele>556.0</ele><time>2026-04-21T12:55:06Z</time></trkpt><trkpt lat="43.26879434252807" lon="12.314224251790684"><ele>556.0</ele><time>2026-04-21T12:55:07Z</time></trkpt><trkpt lat="43.26886209857538" lon="12.314222385159997"><ele>556.0</ele><time>2026-04-21T12:55:08Z</time></trkpt><trkpt lat="43.26893676825797" lon="12.314205262319424"><ele>556.0</ele><time>2026-04-21T12:55:10Z</time></trkpt><trkpt lat="43.26902782332448" lon="12.31421541901906"><ele>556.0</ele><time>2026-04-21T12:55:12Z</time></trkpt><trkpt lat="43.26915316386322" lon="12.314206571785085"><ele>553.1666666666667</ele><time>2026-04-21T12:55:14Z</time></trkpt><trkpt lat="43.26922985322521" lon="12.314211760544943"><ele>550.3333333333334</ele><time>2026-04-21T12:55:15Z</time></trkpt><trkpt lat="43.269308270427665" lon="12.314210524414168"><ele>547.5</ele><time>2026-04-21T12:55:16Z</time></trkpt><trkpt lat="43.269384998167034" lon="12.314199919301839"><ele>544.6666666666666</ele><time>2026-04-21T12:55:16.999Z</time></trkpt><trkpt lat="43.26946634587511" lon="12.314172995696453"><ele>541.8333333333333</ele><time>2026-04-21T12:55:17.999Z</time></trkpt><trkpt lat="43.269537880506995" lon="12.31412737882899"><ele>539.0</ele><time>2026-04-21T12:55:18.999Z</time></trkpt><trkpt lat="43.26960615163417" lon="12.314069888323168"><ele>539.0</ele><time>2026-04-21T12:55:19.999Z</time></trkpt><trkpt lat="43.26967695808854" lon="12.314004805671065"><ele>539.0</ele><time>2026-04-21T12:55:20.999Z</time></trkpt><trkpt lat="43.26977563102485" lon="12.313986105669546"><ele>539.0</ele><time>2026-04-21T12:55:21.999Z</time></trkpt><trkpt lat="43.269861848097484" lon="12.31392850151518"><ele>539.0</ele><time>2026-04-21T12:55:22.999Z</time></trkpt><trkpt lat="43.269947554371015" lon="12.3138752214476"><ele>539.0</ele><time>2026-04-21T12:55:23.999Z</time></trkpt><trkpt lat="43.27003948417418" lon="12.313827228784485"><ele>539.0</ele><time>2026-04-21T12:55:24.999Z</time></trkpt><trkpt lat="43.270132912473834" lon="12.31377964458473"><ele>539.0</ele><time>2026-04-21T12:55:25.999Z</time></trkpt><trkpt lat="43.270213066650925" lon="12.31373816812806"><ele>539.0</ele><time>2026-04-21T12:55:26.999Z</time></trkpt><trkpt lat="43.270299437063784" lon="12.313683058996276"><ele>539.0</ele><time>2026-04-21T12:55:27.999Z</time></trkpt><trkpt lat="43.270379756843305" lon="12.31361950179342"><ele>539.0</ele><time>2026-04-21T12:55:28.999Z</time></trkpt><trkpt lat="43.27044790470258" lon="12.313539395698994"><ele>539.0</ele><time>2026-04-21T12:55:29.999Z</time></trkpt><trkpt lat="43.270507349502935" lon="12.313440983015537"><ele>539.0</ele><time>2026-04-21T12:55:30.999Z</time></trkpt><trkpt lat="43.27055797537169" lon="12.31334087385379"><ele>539.0</ele><time>2026-04-21T12:55:31.999Z</time></trkpt><trkpt lat="43.27060267389216" lon="12.313249431998276"><ele>539.0</ele><time>2026-04-21T12:55:32.999Z</time></trkpt><trkpt lat="43.27063943457878" lon="12.3131449272803"><ele>539.0</ele><time>2026-04-21T12:55:33.999Z</time></trkpt><trkpt lat="43.27067581363461" lon="12.313048661350242"><ele>539.0</ele><time>2026-04-21T12:55:34.999Z</time></trkpt><trkpt lat="43.27073064188624" lon="12.312904086545132"><ele>538.2</ele><time>2026-04-21T12:55:36.999Z</time></trkpt><trkpt lat="43.2708017797378" lon="12.312862133514969"><ele>537.4</ele><time>2026-04-21T12:55:37.999Z</time></trkpt><trkpt lat="43.27087566219072" lon="12.312801215714263"><ele>536.6</ele><time>2026-04-21T12:55:38.999Z</time></trkpt><trkpt lat="43.27095795974813" lon="12.312734852182928"><ele>535.8</ele><time>2026-04-21T12:55:39.999Z</time></trkpt><trkpt lat="43.2710474302352" lon="12.312662704561696"><ele>535.0</ele><time>2026-04-21T12:55:40.999Z</time></trkpt><trkpt lat="43.27113717127503" lon="12.312595835329182"><ele>535.0</ele><time>2026-04-21T12:55:41.999Z</time></trkpt><trkpt lat="43.27121843901685" lon="12.312539393198168"><ele>535.0</ele><time>2026-04-21T12:55:42.999Z</time></trkpt><trkpt lat="43.27129578113959" lon="12.312492434302312"><ele>535.0</ele><time>2026-04-21T12:55:43.999Z</time></trkpt><trkpt lat="43.27136095522841" lon="12.312453492404716"><ele>535.0</ele><time>2026-04-21T12:55:44.999Z</time></trkpt><trkpt lat="43.271441964814514" lon="12.31239423867032"><ele>535.0</ele><time>2026-04-21T12:55:45.999Z</time></trkpt><trkpt lat="43.271518458473174" lon="12.312324564704225"><ele>535.0</ele><time>2026-04-21T12:55:46.999Z</time></trkpt><trkpt lat="43.27159006059466" lon="12.31224591670175"><ele>535.6</ele><time>2026-04-21T12:55:47.999Z</time></trkpt><trkpt lat="43.27165282451916" lon="12.31216697456868"><ele>536.2</ele><time>2026-04-21T12:55:48.999Z</time></trkpt><trkpt lat="43.27171394891205" lon="12.312087743565252"><ele>536.8</ele><time>2026-04-21T12:55:49.999Z</time></trkpt><trkpt lat="43.271785580784105" lon="12.31199094675573"><ele>537.4</ele><time>2026-04-21T12:55:50.999Z</time></trkpt><trkpt lat="43.27185942908713" lon="12.311889986340944"><ele>538.0</ele><time>2026-04-21T12:55:51.999Z</time></trkpt><trkpt lat="43.271936844600944" lon="12.311784149048052"><ele>538.0</ele><time>2026-04-21T12:55:52.999Z</time></trkpt><trkpt lat="43.27202525363722" lon="12.311666535298658"><ele>538.0</ele><time>2026-04-21T12:55:53.999Z</time></trkpt><trkpt lat="43.272110084945496" lon="12.311556463575565"><ele>538.0</ele><time>2026-04-21T12:55:54.999Z</time></trkpt><trkpt lat="43.27218900930856" lon="12.311467674281092"><ele>538.0</ele><time>2026-04-21T12:55:55.999Z</time></trkpt><trkpt lat="43.27227234797395" lon="12.311390345777465"><ele>538.0</ele><time>2026-04-21T12:55:56.999Z</time></trkpt><trkpt lat="43.27235807016284" lon="12.311330028595236"><ele>534.8</ele><time>2026-04-21T12:55:57.999Z</time></trkpt><trkpt lat="43.27244779909851" lon="12.311275994545237"><ele>531.5999999999999</ele><time>2026-04-21T12:55:58.999Z</time></trkpt><trkpt lat="43.27255074877262" lon="12.311211514688942"><ele>528.4000000000001</ele><time>2026-04-21T12:55:59.999Z</time></trkpt><trkpt lat="43.272651878613985" lon="12.311200359418851"><ele>525.2</ele><time>2026-04-21T12:56:00.999Z</time></trkpt><trkpt lat="43.27275255661307" lon="12.311184728127982"><ele>522.0</ele><time>2026-04-21T12:56:01.999Z</time></trkpt><trkpt lat="43.27282285232682" lon="12.311210962155345"><ele>522.0</ele><time>2026-04-21T12:56:02.999Z</time></trkpt><trkpt lat="43.27290414782327" lon="12.311257427586506"><ele>522.0</ele><time>2026-04-21T12:56:03.999Z</time></trkpt><trkpt lat="43.272996116382046" lon="12.31129334696415"><ele>522.0</ele><time>2026-04-21T12:56:04.999Z</time></trkpt><trkpt lat="43.27308098988015" lon="12.311322374433598"><ele>522.0</ele><time>2026-04-21T12:56:05.999Z</time></trkpt><trkpt lat="43.2731752525873" lon="12.311329177347508"><ele>522.0</ele><time>2026-04-21T12:56:07.999Z</time></trkpt><trkpt lat="43.2732990710232" lon="12.311331809737874"><ele>521.0</ele><time>2026-04-21T12:56:09.999Z</time></trkpt><trkpt lat="43.27340280229901" lon="12.311268730389266"><ele>520.0</ele><time>2026-04-21T12:56:10.999Z</time></trkpt><trkpt lat="43.273517793209784" lon="12.311220461185382"><ele>519.0</ele><time>2026-04-21T12:56:11.999Z</time></trkpt><trkpt lat="43.27360150389979" lon="12.311154337002483"><ele>518.0</ele><time>2026-04-21T12:56:12.999Z</time></trkpt><trkpt lat="43.27365077393292" lon="12.31110018272126"><ele>517.0</ele><time>2026-04-21T12:56:13.999Z</time></trkpt><trkpt lat="43.27368554009427" lon="12.31102766389688"><ele>517.0</ele><time>2026-04-21T12:56:14.999Z</time></trkpt><trkpt lat="43.27372664487127" lon="12.310956634888997"><ele>517.0</ele><time>2026-04-21T12:56:15.999Z</time></trkpt><trkpt lat="43.273733765954034" lon="12.310813861735403"><ele>517.0</ele><time>2026-04-21T12:56:16.999Z</time></trkpt><trkpt lat="43.27377635326809" lon="12.310669632134266"><ele>517.0</ele><time>2026-04-21T12:56:17.999Z</time></trkpt><trkpt lat="43.27382324697602" lon="12.310510818155532"><ele>517.0</ele><time>2026-04-21T12:56:18.999Z</time></trkpt><trkpt lat="43.27387427640557" lon="12.310344080912857"><ele>516.5</ele><time>2026-04-21T12:56:19.999Z</time></trkpt><trkpt lat="43.273916246812355" lon="12.310163189642063"><ele>516.0</ele><time>2026-04-21T12:56:20.999Z</time></trkpt><trkpt lat="43.27397799501571" lon="12.310002068706302"><ele>515.5</ele><time>2026-04-21T12:56:21.999Z</time></trkpt><trkpt lat="43.274039158151574" lon="12.30984273009191"><ele>515.0</ele><time>2026-04-21T12:56:22.999Z</time></trkpt><trkpt lat="43.274101698131716" lon="12.309689734114649"><ele>511.75</ele><time>2026-04-21T12:56:23.999Z</time></trkpt><trkpt lat="43.27417130174504" lon="12.309557529482362"><ele>508.5</ele><time>2026-04-21T12:56:24.999Z</time></trkpt><trkpt lat="43.2742642562179" lon="12.309390757005051"><ele>505.25</ele><time>2026-04-21T12:56:25.999Z</time></trkpt><trkpt lat="43.27435297945164" lon="12.309226778975646"><ele>502.0</ele><time>2026-04-21T12:56:26.999Z</time></trkpt><trkpt lat="43.27445893124559" lon="12.30907881514626"><ele>502.0</ele><time>2026-04-21T12:56:27.999Z</time></trkpt><trkpt lat="43.27455766541721" lon="12.308927229777774"><ele>502.0</ele><time>2026-04-21T12:56:28.999Z</time></trkpt><trkpt lat="43.274656364981844" lon="12.308788766291523"><ele>502.0</ele><time>2026-04-21T12:56:29.999Z</time></trkpt><trkpt lat="43.2747597010944" lon="12.308656893755275"><ele>502.0</ele><time>2026-04-21T12:56:31Z</time></trkpt><trkpt lat="43.274863208991505" lon="12.308533176468151"><ele>504.25</ele><time>2026-04-21T12:56:32Z</time></trkpt><trkpt lat="43.27496750220136" lon="12.308410267054331"><ele>506.5</ele><time>2026-04-21T12:56:33Z</time></trkpt><trkpt lat="43.275066010480025" lon="12.308287974553052"><ele>508.75</ele><time>2026-04-21T12:56:34Z</time></trkpt><trkpt lat="43.27516394317159" lon="12.308166338934297"><ele>511.0</ele><time>2026-04-21T12:56:35Z</time></trkpt><trkpt lat="43.27526322932626" lon="12.308050052011652"><ele>511.0</ele><time>2026-04-21T12:56:36Z</time></trkpt><trkpt lat="43.275371970655364" lon="12.30793648432294"><ele>511.0</ele><time>2026-04-21T12:56:37Z</time></trkpt><trkpt lat="43.27548731841459" lon="12.307829528504785"><ele>511.0</ele><time>2026-04-21T12:56:38Z</time></trkpt><trkpt lat="43.27560794573434" lon="12.307741426885297"><ele>511.0</ele><time>2026-04-21T12:56:39Z</time></trkpt><trkpt lat="43.27573130867975" lon="12.307668751705561"><ele>507.75</ele><time>2026-04-21T12:56:40Z</time></trkpt><trkpt lat="43.27584610314212" lon="12.307593468964857"><ele>504.5</ele><time>2026-04-21T12:56:41Z</time></trkpt><trkpt lat="43.275960204572534" lon="12.307510961344056"><ele>501.25</ele><time>2026-04-21T12:56:42Z</time></trkpt><trkpt lat="43.2760580349593" lon="12.307376363750135"><ele>498.0</ele><time>2026-04-21T12:56:43Z</time></trkpt><trkpt lat="43.27615420992888" lon="12.307242269210262"><ele>498.0</ele><time>2026-04-21T12:56:44Z</time></trkpt><trkpt lat="43.276234882884374" lon="12.307088902029914"><ele>498.0</ele><time>2026-04-21T12:56:45Z</time></trkpt><trkpt lat="43.276307442633815" lon="12.306924741539698"><ele>498.0</ele><time>2026-04-21T12:56:46Z</time></trkpt><trkpt lat="43.27638320296646" lon="12.306755637649637"><ele>498.0</ele><time>2026-04-21T12:56:47Z</time></trkpt><trkpt lat="43.27647197705059" lon="12.306594266149773"><ele>488.33333333333337</ele><time>2026-04-21T12:56:48Z</time></trkpt><trkpt lat="43.27653588366939" lon="12.30641243695695"><ele>478.6666666666667</ele><time>2026-04-21T12:56:49Z</time></trkpt><trkpt lat="43.27661417073117" lon="12.306232526164484"><ele>469.0</ele><time>2026-04-21T12:56:50Z</time></trkpt><trkpt lat="43.27668804705166" lon="12.306049940955797"><ele>469.0</ele><time>2026-04-21T12:56:51Z</time></trkpt><trkpt lat="43.27674935292036" lon="12.305868364370626"><ele>469.0</ele><time>2026-04-21T12:56:52Z</time></trkpt><trkpt lat="43.2768147174901" lon="12.305707892432551"><ele>469.0</ele><time>2026-04-21T12:56:53Z</time></trkpt><trkpt lat="43.27690944312406" lon="12.305585129261189"><ele>469.0</ele><time>2026-04-21T12:56:54Z</time></trkpt><trkpt lat="43.27700944982661" lon="12.305476765086256"><ele>470.25</ele><time>2026-04-21T12:56:55Z</time></trkpt><trkpt lat="43.277114822708604" lon="12.30537101608284"><ele>471.5</ele><time>2026-04-21T12:56:56Z</time></trkpt><trkpt lat="43.27723008596579" lon="12.305276220390828"><ele>472.75</ele><time>2026-04-21T12:56:57Z</time></trkpt><trkpt lat="43.277333495008754" lon="12.30522230761328"><ele>474.0</ele><time>2026-04-21T12:56:58Z</time></trkpt><trkpt lat="43.2774304099331" lon="12.305217394778905"><ele>474.0</ele><time>2026-04-21T12:56:59Z</time></trkpt><trkpt lat="43.277520528298055" lon="12.305232055407348"><ele>474.0</ele><time>2026-04-21T12:57:00Z</time></trkpt><trkpt lat="43.27761443827362" lon="12.305290929590772"><ele>474.0</ele><time>2026-04-21T12:57:01Z</time></trkpt><trkpt lat="43.277721931320826" lon="12.305360388961212"><ele>474.0</ele><time>2026-04-21T12:57:02Z</time></trkpt><trkpt lat="43.277836008390764" lon="12.305435237530329"><ele>474.0</ele><time>2026-04-21T12:57:03Z</time></trkpt><trkpt lat="43.277972913919115" lon="12.30549388266211"><ele>474.0</ele><time>2026-04-21T12:57:04Z</time></trkpt><trkpt lat="43.27808278776976" lon="12.305541701506767"><ele>474.0</ele><time>2026-04-21T12:57:05Z</time></trkpt><trkpt lat="43.27821082603896" lon="12.305576105583006"><ele>474.0</ele><time>2026-04-21T12:57:06Z</time></trkpt><trkpt lat="43.27833520436072" lon="12.305593443522266"><ele>474.0</ele><time>2026-04-21T12:57:07Z</time></trkpt><trkpt lat="43.2784560672456" lon="12.305613120642196"><ele>469.79999999999995</ele><time>2026-04-21T12:57:08Z</time></trkpt><trkpt lat="43.27856886204347" lon="12.305630316920231"><ele>465.59999999999997</ele><time>2026-04-21T12:57:09Z</time></trkpt><trkpt lat="43.27866409892595" lon="12.305637746203761"><ele>461.4</ele><time>2026-04-21T12:57:10Z</time></trkpt><trkpt lat="43.278770376276455" lon="12.305667860683883"><ele>457.2</ele><time>2026-04-21T12:57:12Z</time></trkpt><trkpt lat="43.27885709337963" lon="12.305664122663417"><ele>453.0</ele><time>2026-04-21T12:57:14Z</time></trkpt><trkpt lat="43.27897042838977" lon="12.30563816443554"><ele>452.0</ele><time>2026-04-21T12:57:19Z</time></trkpt><trkpt lat="43.27863385349697" lon="12.30560736307513"><ele>451.0</ele><time>2026-04-21T12:57:20Z</time></trkpt><trkpt lat="43.27854908473125" lon="12.305444160714952"><ele>453.5</ele><time>2026-04-21T12:57:22Z</time></trkpt><trkpt lat="43.278516207019216" lon="12.30532298497227"><ele>456.0</ele><time>2026-04-21T12:57:23Z</time></trkpt><trkpt lat="43.27849833421932" lon="12.305171979923555"><ele>458.5</ele><time>2026-04-21T12:57:24Z</time></trkpt><trkpt lat="43.27847140804435" lon="12.30499804124875"><ele>461.0</ele><time>2026-04-21T12:57:25Z</time></trkpt><trkpt lat="43.278453560751615" lon="12.304826879373499"><ele>461.75</ele><time>2026-04-21T12:57:26Z</time></trkpt><trkpt lat="43.27842666320968" lon="12.304654123416421"><ele>462.5</ele><time>2026-04-21T12:57:27Z</time></trkpt><trkpt lat="43.2783971830417" lon="12.304482907584603"><ele>463.25</ele><time>2026-04-21T12:57:28Z</time></trkpt><trkpt lat="43.27836121151895" lon="12.304299356771084"><ele>464.0</ele><time>2026-04-21T12:57:29Z</time></trkpt><trkpt lat="43.278321888671414" lon="12.304115000902431"><ele>464.0</ele><time>2026-04-21T12:57:30Z</time></trkpt><trkpt lat="43.278272868207374" lon="12.303921852740054"><ele>464.0</ele><time>2026-04-21T12:57:31Z</time></trkpt><trkpt lat="43.27822699209896" lon="12.303732797604047"><ele>464.0</ele><time>2026-04-21T12:57:32Z</time></trkpt><trkpt lat="43.27817605561715" lon="12.303548322813157"><ele>464.0</ele><time>2026-04-21T12:57:33Z</time></trkpt><trkpt lat="43.27812866564471" lon="12.303361666015787"><ele>472.25</ele><time>2026-04-21T12:57:34Z</time></trkpt><trkpt lat="43.27808639068751" lon="12.303171197316432"><ele>480.5</ele><time>2026-04-21T12:57:35Z</time></trkpt><trkpt lat="43.27805203010774" lon="12.302984177638772"><ele>488.75</ele><time>2026-04-21T12:57:36Z</time></trkpt><trkpt lat="43.27805495071051" lon="12.302790651799755"><ele>497.0</ele><time>2026-04-21T12:57:37Z</time></trkpt><trkpt lat="43.27807018250344" lon="12.302602390179816"><ele>494.25</ele><time>2026-04-21T12:57:38Z</time></trkpt><trkpt lat="43.27810492389259" lon="12.302417458162775"><ele>491.5</ele><time>2026-04-21T12:57:39Z</time></trkpt><trkpt lat="43.2781626547267" lon="12.302237827160093"><ele>488.75</ele><time>2026-04-21T12:57:40Z</time></trkpt><trkpt lat="43.278227505263466" lon="12.302057337491458"><ele>486.0</ele><time>2026-04-21T12:57:41Z</time></trkpt><trkpt lat="43.27829626608526" lon="12.301873670099"><ele>486.0</ele><time>2026-04-21T12:57:42Z</time></trkpt><trkpt lat="43.27836584423979" lon="12.301693693525825"><ele>486.0</ele><time>2026-04-21T12:57:43Z</time></trkpt><trkpt lat="43.27843539064794" lon="12.30151433877005"><ele>486.0</ele><time>2026-04-21T12:57:44Z</time></trkpt><trkpt lat="43.27850313657442" lon="12.301343448165776"><ele>486.0</ele><time>2026-04-21T12:57:45Z</time></trkpt><trkpt lat="43.278560370464355" lon="12.30118489320118"><ele>489.75</ele><time>2026-04-21T12:57:45.999Z</time></trkpt><trkpt lat="43.27860524421167" lon="12.30101323803634"><ele>493.5</ele><time>2026-04-21T12:57:46.999Z</time></trkpt><trkpt lat="43.278612090405886" lon="12.300831434031851"><ele>497.25</ele><time>2026-04-21T12:57:47.999Z</time></trkpt><trkpt lat="43.2786302014208" lon="12.30063764713806"><ele>501.0</ele><time>2026-04-21T12:57:48.999Z</time></trkpt><trkpt lat="43.27866429212862" lon="12.300433633368195"><ele>504.33333333333337</ele><time>2026-04-21T12:57:49.999Z</time></trkpt><trkpt lat="43.27870188054494" lon="12.300234970538053"><ele>507.6666666666667</ele><time>2026-04-21T12:57:50.999Z</time></trkpt><trkpt lat="43.27874614701328" lon="12.300031228474888"><ele>511.0</ele><time>2026-04-21T12:57:51.999Z</time></trkpt><trkpt lat="43.27879114395827" lon="12.299822480724243"><ele>508.0</ele><time>2026-04-21T12:57:52.999Z</time></trkpt><trkpt lat="43.278819667550344" lon="12.299617878284753"><ele>505.0</ele><time>2026-04-21T12:57:53.999Z</time></trkpt><trkpt lat="43.27884650166364" lon="12.299442316711055"><ele>502.0</ele><time>2026-04-21T12:57:54.999Z</time></trkpt><trkpt lat="43.27885935487917" lon="12.299281799980326"><ele>499.0</ele><time>2026-04-21T12:57:55.999Z</time></trkpt><trkpt lat="43.27884515575018" lon="12.299144113232561"><ele>499.0</ele><time>2026-04-21T12:57:56.999Z</time></trkpt><trkpt lat="43.278800080884864" lon="12.299039326722154"><ele>499.0</ele><time>2026-04-21T12:57:57.999Z</time></trkpt><trkpt lat="43.27872055450756" lon="12.298972128493784"><ele>499.0</ele><time>2026-04-21T12:57:58.999Z</time></trkpt><trkpt lat="43.27862626505105" lon="12.298941963214006"><ele>499.0</ele><time>2026-04-21T12:57:59.999Z</time></trkpt><trkpt lat="43.278510397900796" lon="12.298929948599806"><ele>499.0</ele><time>2026-04-21T12:58:00.999Z</time></trkpt><trkpt lat="43.27837606844096" lon="12.298939501091128"><ele>499.0</ele><time>2026-04-21T12:58:01.999Z</time></trkpt><trkpt lat="43.27823941168039" lon="12.298938358726224"><ele>499.0</ele><time>2026-04-21T12:58:02.999Z</time></trkpt><trkpt lat="43.27808969157604" lon="12.298921057688052"><ele>499.0</ele><time>2026-04-21T12:58:03.999Z</time></trkpt><trkpt lat="43.2779372480104" lon="12.298888793428244"><ele>499.0</ele><time>2026-04-21T12:58:04.999Z</time></trkpt><trkpt lat="43.277790293908176" lon="12.298849798520019"><ele>494.33333333333337</ele><time>2026-04-21T12:58:05.999Z</time></trkpt><trkpt lat="43.27765180679284" lon="12.29876223121126"><ele>489.66666666666663</ele><time>2026-04-21T12:58:06.999Z</time></trkpt><trkpt lat="43.27750734657629" lon="12.298681586869147"><ele>485.0</ele><time>2026-04-21T12:58:07.999Z</time></trkpt><trkpt lat="43.27736223935705" lon="12.298589667775085"><ele>492.3333333333333</ele><time>2026-04-21T12:58:08.999Z</time></trkpt><trkpt lat="43.27720708020394" lon="12.298528825086972"><ele>499.66666666666663</ele><time>2026-04-21T12:58:09.999Z</time></trkpt><trkpt lat="43.27705241086869" lon="12.298456349719245"><ele>507.0</ele><time>2026-04-21T12:58:10.999Z</time></trkpt><trkpt lat="43.27689110733315" lon="12.298408982028597"><ele>507.0</ele><time>2026-04-21T12:58:11.999Z</time></trkpt><trkpt lat="43.276728046198734" lon="12.29836265284074"><ele>507.0</ele><time>2026-04-21T12:58:12.999Z</time></trkpt><trkpt lat="43.276572037872725" lon="12.298306993034485"><ele>507.0</ele><time>2026-04-21T12:58:13.999Z</time></trkpt><trkpt lat="43.27642925792282" lon="12.298228012190037"><ele>505.25</ele><time>2026-04-21T12:58:14.999Z</time></trkpt><trkpt lat="43.2763253106667" lon="12.298112995272263"><ele>503.5</ele><time>2026-04-21T12:58:15.999Z</time></trkpt><trkpt lat="43.27623544259398" lon="12.297983099696834"><ele>501.75</ele><time>2026-04-21T12:58:16.999Z</time></trkpt><trkpt lat="43.27613656344669" lon="12.29783418474459"><ele>500.0</ele><time>2026-04-21T12:58:17.999Z</time></trkpt><trkpt lat="43.276036643939655" lon="12.297688381332646"><ele>500.0</ele><time>2026-04-21T12:58:18.999Z</time></trkpt><trkpt lat="43.27592361407641" lon="12.297598483856616"><ele>500.0</ele><time>2026-04-21T12:58:19.999Z</time></trkpt><trkpt lat="43.27581844604109" lon="12.297545207102534"><ele>500.0</ele><time>2026-04-21T12:58:20.999Z</time></trkpt><trkpt lat="43.275696238095136" lon="12.297539906786687"><ele>500.0</ele><time>2026-04-21T12:58:21.999Z</time></trkpt><trkpt lat="43.27555754486298" lon="12.297568911761767"><ele>502.25</ele><time>2026-04-21T12:58:22.999Z</time></trkpt><trkpt lat="43.275413543953036" lon="12.297608962650571"><ele>504.5</ele><time>2026-04-21T12:58:23.999Z</time></trkpt><trkpt lat="43.275271354755006" lon="12.297608250289926"><ele>506.75</ele><time>2026-04-21T12:58:24.999Z</time></trkpt><trkpt lat="43.2751263494494" lon="12.29763882911152"><ele>509.0</ele><time>2026-04-21T12:58:25.999Z</time></trkpt><trkpt lat="43.274977578059335" lon="12.297654370594316"><ele>509.0</ele><time>2026-04-21T12:58:26.999Z</time></trkpt><trkpt lat="43.274829040020094" lon="12.297677562981056"><ele>509.0</ele><time>2026-04-21T12:58:27.999Z</time></trkpt><trkpt lat="43.27467754274147" lon="12.297721935917012"><ele>509.0</ele><time>2026-04-21T12:58:28.999Z</time></trkpt><trkpt lat="43.274525060412756" lon="12.29778246001963"><ele>510.75</ele><time>2026-04-21T12:58:29.999Z</time></trkpt><trkpt lat="43.27437246512627" lon="12.297836525466822"><ele>512.5</ele><time>2026-04-21T12:58:30.999Z</time></trkpt><trkpt lat="43.27423658581974" lon="12.297855153969728"><ele>514.25</ele><time>2026-04-21T12:58:31.999Z</time></trkpt><trkpt lat="43.27410047458505" lon="12.297829242353"><ele>516.0</ele><time>2026-04-21T12:58:32.999Z</time></trkpt><trkpt lat="43.27397700663079" lon="12.297791313284705"><ele>519.25</ele><time>2026-04-21T12:58:33.999Z</time></trkpt><trkpt lat="43.27384918200671" lon="12.297723138379158"><ele>522.5</ele><time>2026-04-21T12:58:34.999Z</time></trkpt><trkpt lat="43.27371654922007" lon="12.29763701759102"><ele>525.75</ele><time>2026-04-21T12:58:35.999Z</time></trkpt><trkpt lat="43.2735766211456" lon="12.29753294185561"><ele>529.0</ele><time>2026-04-21T12:58:37Z</time></trkpt><trkpt lat="43.273439271123046" lon="12.297425371767403"><ele>529.0</ele><time>2026-04-21T12:58:38Z</time></trkpt><trkpt lat="43.27329857949345" lon="12.297313134050315"><ele>529.0</ele><time>2026-04-21T12:58:39Z</time></trkpt><trkpt lat="43.273155654722956" lon="12.297194418955852"><ele>529.0</ele><time>2026-04-21T12:58:40Z</time></trkpt><trkpt lat="43.27300971893169" lon="12.297067350861639"><ele>529.0</ele><time>2026-04-21T12:58:41Z</time></trkpt><trkpt lat="43.27286601301559" lon="12.296936406476135"><ele>529.0</ele><time>2026-04-21T12:58:42Z</time></trkpt><trkpt lat="43.27271952859929" lon="12.296801229876097"><ele>529.0</ele><time>2026-04-21T12:58:43Z</time></trkpt><trkpt lat="43.27258282112182" lon="12.296671333105046"><ele>529.0</ele><time>2026-04-21T12:58:44Z</time></trkpt><trkpt lat="43.272458483312946" lon="12.296551296270676"><ele>529.0</ele><time>2026-04-21T12:58:45Z</time></trkpt><trkpt lat="43.27233981895326" lon="12.296436736620516"><ele>529.0</ele><time>2026-04-21T12:58:46Z</time></trkpt><trkpt lat="43.27221579005934" lon="12.296322743233596"><ele>529.0</ele><time>2026-04-21T12:58:47Z</time></trkpt><trkpt lat="43.27207950539018" lon="12.296231075691985"><ele>532.0</ele><time>2026-04-21T12:58:48Z</time></trkpt><trkpt lat="43.27195614492731" lon="12.29610215882441"><ele>535.0</ele><time>2026-04-21T12:58:49Z</time></trkpt><trkpt lat="43.271817420819865" lon="12.29598761218832"><ele>538.0</ele><time>2026-04-21T12:58:50Z</time></trkpt><trkpt lat="43.27168159716003" lon="12.295876673736885"><ele>538.0</ele><time>2026-04-21T12:58:51Z</time></trkpt><trkpt lat="43.27153213116908" lon="12.295772550064223"><ele>538.0</ele><time>2026-04-21T12:58:52Z</time></trkpt><trkpt lat="43.27137304697572" lon="12.29571583468003"><ele>538.0</ele><time>2026-04-21T12:58:53Z</time></trkpt><trkpt lat="43.271213989602636" lon="12.295648981665225"><ele>542.3333333333334</ele><time>2026-04-21T12:58:54Z</time></trkpt><trkpt lat="43.27105196091111" lon="12.295578130884632"><ele>546.6666666666666</ele><time>2026-04-21T12:58:55Z</time></trkpt><trkpt lat="43.27089387334161" lon="12.295494724724097"><ele>551.0</ele><time>2026-04-21T12:58:56Z</time></trkpt><trkpt lat="43.27075354422645" lon="12.295371230303042"><ele>556.6666666666666</ele><time>2026-04-21T12:58:57Z</time></trkpt><trkpt lat="43.27060652599995" lon="12.295242427270724"><ele>562.3333333333334</ele><time>2026-04-21T12:58:58Z</time></trkpt><trkpt lat="43.27046108648845" lon="12.295106295623247"><ele>568.0</ele><time>2026-04-21T12:58:59Z</time></trkpt><trkpt lat="43.27033379299625" lon="12.294954589372736"><ele>568.0</ele><time>2026-04-21T12:59:00Z</time></trkpt><trkpt lat="43.270219293990955" lon="12.294797345875095"><ele>568.0</ele><time>2026-04-21T12:59:01Z</time></trkpt><trkpt lat="43.27011173565476" lon="12.294659522543656"><ele>568.0</ele><time>2026-04-21T12:59:02Z</time></trkpt><trkpt lat="43.26998097739551" lon="12.294562968583028"><ele>567.0</ele><time>2026-04-21T12:59:03Z</time></trkpt><trkpt lat="43.26984208365086" lon="12.294472082738412"><ele>566.0</ele><time>2026-04-21T12:59:04Z</time></trkpt><trkpt lat="43.2696932262057" lon="12.294397052393892"><ele>565.0</ele><time>2026-04-21T12:59:05Z</time></trkpt><trkpt lat="43.26955079987531" lon="12.29432005171586"><ele>565.0</ele><time>2026-04-21T12:59:06Z</time></trkpt><trkpt lat="43.26941900298215" lon="12.294223234776123"><ele>565.0</ele><time>2026-04-21T12:59:07Z</time></trkpt><trkpt lat="43.269297713812364" lon="12.29409445628231"><ele>565.0</ele><time>2026-04-21T12:59:08Z</time></trkpt><trkpt lat="43.269190163169625" lon="12.293929403363999"><ele>565.6666666666667</ele><time>2026-04-21T12:59:09Z</time></trkpt><trkpt lat="43.26909342724663" lon="12.293741133512274"><ele>566.3333333333334</ele><time>2026-04-21T12:59:10Z</time></trkpt><trkpt lat="43.269008096790955" lon="12.29352029216066"><ele>567.0</ele><time>2026-04-21T12:59:11Z</time></trkpt><trkpt lat="43.26890130415157" lon="12.293311492437388"><ele>567.0</ele><time>2026-04-21T12:59:12Z</time></trkpt><trkpt lat="43.26878884708675" lon="12.293095206228411"><ele>567.0</ele><time>2026-04-21T12:59:13Z</time></trkpt><trkpt lat="43.268681464470184" lon="12.292889394381229"><ele>567.0</ele><time>2026-04-21T12:59:14Z</time></trkpt><trkpt lat="43.26857005116203" lon="12.292675857200791"><ele>569.6666666666666</ele><time>2026-04-21T12:59:15Z</time></trkpt><trkpt lat="43.26845825625393" lon="12.292461092244103"><ele>572.3333333333333</ele><time>2026-04-21T12:59:16Z</time></trkpt><trkpt lat="43.26834622382135" lon="12.292245269549992"><ele>575.0</ele><time>2026-04-21T12:59:17Z</time></trkpt><trkpt lat="43.268235823975914" lon="12.292032591940135"><ele>575.6666666666666</ele><time>2026-04-21T12:59:18Z</time></trkpt><trkpt lat="43.26812335950849" lon="12.29181593694242"><ele>576.3333333333334</ele><time>2026-04-21T12:59:19Z</time></trkpt><trkpt lat="43.26801192062811" lon="12.291601257706416"><ele>577.0</ele><time>2026-04-21T12:59:20Z</time></trkpt><trkpt lat="43.2679019365626" lon="12.291388620617644"><ele>578.0</ele><time>2026-04-21T12:59:21Z</time></trkpt><trkpt lat="43.26779630635899" lon="12.291181698889067"><ele>579.0</ele><time>2026-04-21T12:59:22Z</time></trkpt><trkpt lat="43.26769530545123" lon="12.29097527813903"><ele>580.0</ele><time>2026-04-21T12:59:23Z</time></trkpt><trkpt lat="43.26761796336527" lon="12.290757090194898"><ele>582.0</ele><time>2026-04-21T12:59:24Z</time></trkpt><trkpt lat="43.26756498840692" lon="12.290526696683395"><ele>584.0</ele><time>2026-04-21T12:59:25Z</time></trkpt><trkpt lat="43.26751543460343" lon="12.290283493406735"><ele>586.0</ele><time>2026-04-21T12:59:26Z</time></trkpt><trkpt lat="43.2674669284501" lon="12.29004792660378"><ele>586.0</ele><time>2026-04-21T12:59:27Z</time></trkpt><trkpt lat="43.26742079124368" lon="12.289822348814132"><ele>586.0</ele><time>2026-04-21T12:59:28Z</time></trkpt><trkpt lat="43.26737026268463" lon="12.289579005258371"><ele>586.0</ele><time>2026-04-21T12:59:29Z</time></trkpt><trkpt lat="43.26732106897819" lon="12.289375119534183"><ele>586.25</ele><time>2026-04-21T12:59:30Z</time></trkpt><trkpt lat="43.26725941724174" lon="12.289192579641307"><ele>586.5</ele><time>2026-04-21T12:59:31Z</time></trkpt><trkpt lat="43.267162154628224" lon="12.289035616593805"><ele>586.75</ele><time>2026-04-21T12:59:32Z</time></trkpt><trkpt lat="43.26704492201722" lon="12.288905704584089"><ele>587.0</ele><time>2026-04-21T12:59:33Z</time></trkpt><trkpt lat="43.26692760933177" lon="12.288778347231641"><ele>591.0</ele><time>2026-04-21T12:59:34Z</time></trkpt><trkpt lat="43.266803640230826" lon="12.288645452878988"><ele>595.0</ele><time>2026-04-21T12:59:35Z</time></trkpt><trkpt lat="43.26667805577618" lon="12.288507644084849"><ele>599.0</ele><time>2026-04-21T12:59:36Z</time></trkpt><trkpt lat="43.26654977510197" lon="12.288364732346146"><ele>600.25</ele><time>2026-04-21T12:59:37Z</time></trkpt><trkpt lat="43.266424879558784" lon="12.28822335507734"><ele>601.5</ele><time>2026-04-21T12:59:38Z</time></trkpt><trkpt lat="43.266304032923664" lon="12.288117588399192"><ele>602.75</ele><time>2026-04-21T12:59:39Z</time></trkpt><trkpt lat="43.266192025830726" lon="12.288063161192623"><ele>604.0</ele><time>2026-04-21T12:59:40Z</time></trkpt><trkpt lat="43.26609067996091" lon="12.288102321844802"><ele>604.0</ele><time>2026-04-21T12:59:41Z</time></trkpt><trkpt lat="43.266010441479146" lon="12.288154444845048"><ele>604.0</ele><time>2026-04-21T12:59:42Z</time></trkpt><trkpt lat="43.265949042221905" lon="12.288251825921213"><ele>604.0</ele><time>2026-04-21T12:59:43Z</time></trkpt><trkpt lat="43.26591535999702" lon="12.288388677490005"><ele>604.0</ele><time>2026-04-21T12:59:44Z</time></trkpt><trkpt lat="43.26591875647869" lon="12.288549659925685"><ele>604.0</ele><time>2026-04-21T12:59:45Z</time></trkpt><trkpt lat="43.26594359044457" lon="12.288715735953538"><ele>604.0</ele><time>2026-04-21T12:59:46Z</time></trkpt><trkpt lat="43.26597732070656" lon="12.28889057486058"><ele>604.0</ele><time>2026-04-21T12:59:47Z</time></trkpt><trkpt lat="43.26600828641099" lon="12.289073463106087"><ele>604.0</ele><time>2026-04-21T12:59:48Z</time></trkpt><trkpt lat="43.266028596220345" lon="12.289245413720302"><ele>604.0</ele><time>2026-04-21T12:59:49Z</time></trkpt><trkpt lat="43.266026237881256" lon="12.289399406643371"><ele>605.0</ele><time>2026-04-21T12:59:50Z</time></trkpt><trkpt lat="43.26599182293934" lon="12.289530404495732"><ele>606.0</ele><time>2026-04-21T12:59:51Z</time></trkpt><trkpt lat="43.265937381337714" lon="12.289624815523835"><ele>607.0</ele><time>2026-04-21T12:59:52Z</time></trkpt><trkpt lat="43.265865914603346" lon="12.28967357571296"><ele>608.0</ele><time>2026-04-21T12:59:53Z</time></trkpt><trkpt lat="43.265778231636176" lon="12.289661690416443"><ele>609.0</ele><time>2026-04-21T12:59:54Z</time></trkpt><trkpt lat="43.265683311018975" lon="12.289674651246475"><ele>613.0</ele><time>2026-04-21T12:59:55Z</time></trkpt><trkpt lat="43.26557328765874" lon="12.289646121040478"><ele>617.0</ele><time>2026-04-21T12:59:56Z</time></trkpt><trkpt lat="43.26544744194548" lon="12.289628450015321"><ele>621.0</ele><time>2026-04-21T12:59:57Z</time></trkpt><trkpt lat="43.26532047226398" lon="12.289646189879532"><ele>625.0</ele><time>2026-04-21T12:59:58Z</time></trkpt><trkpt lat="43.26521635606048" lon="12.289688454960698"><ele>621.0</ele><time>2026-04-21T12:59:59Z</time></trkpt><trkpt lat="43.26514795070058" lon="12.289773808137179"><ele>617.0</ele><time>2026-04-21T13:00:00Z</time></trkpt><trkpt lat="43.26508193802806" lon="12.289863612780987"><ele>613.0</ele><time>2026-04-21T13:00:01Z</time></trkpt><trkpt lat="43.26499747475957" lon="12.289934759220815"><ele>609.0</ele><time>2026-04-21T13:00:02Z</time></trkpt><trkpt lat="43.26490990699224" lon="12.289945066600021"><ele>605.0</ele><time>2026-04-21T13:00:03Z</time></trkpt><trkpt lat="43.26483525982028" lon="12.289867222740424"><ele>605.5</ele><time>2026-04-21T13:00:04Z</time></trkpt><trkpt lat="43.26475018100183" lon="12.289777633048232"><ele>606.0</ele><time>2026-04-21T13:00:05Z</time></trkpt><trkpt lat="43.264659246812286" lon="12.289671443135893"><ele>606.5</ele><time>2026-04-21T13:00:06Z</time></trkpt><trkpt lat="43.26458687240192" lon="12.28953096529892"><ele>607.0</ele><time>2026-04-21T13:00:06.999Z</time></trkpt><trkpt lat="43.264542125650564" lon="12.289362789680697"><ele>607.0</ele><time>2026-04-21T13:00:07.999Z</time></trkpt><trkpt lat="43.26449471569335" lon="12.289170877611216"><ele>607.0</ele><time>2026-04-21T13:00:08.999Z</time></trkpt><trkpt lat="43.264435915297184" lon="12.288985441409277"><ele>607.0</ele><time>2026-04-21T13:00:09.999Z</time></trkpt><trkpt lat="43.26439383755004" lon="12.288796836531231"><ele>607.0</ele><time>2026-04-21T13:00:10.999Z</time></trkpt><trkpt lat="43.26433669324656" lon="12.288610368123713"><ele>610.0</ele><time>2026-04-21T13:00:11.999Z</time></trkpt><trkpt lat="43.26425902625453" lon="12.28843188388499"><ele>613.0</ele><time>2026-04-21T13:00:12.999Z</time></trkpt><trkpt lat="43.26416584180715" lon="12.288262169803893"><ele>616.0</ele><time>2026-04-21T13:00:13.999Z</time></trkpt><trkpt lat="43.26405587460731" lon="12.28810333297095"><ele>616.6666666666667</ele><time>2026-04-21T13:00:14.999Z</time></trkpt><trkpt lat="43.26393773846772" lon="12.287951587683182"><ele>617.3333333333334</ele><time>2026-04-21T13:00:15.999Z</time></trkpt><trkpt lat="43.26382371760913" lon="12.287797338050721"><ele>618.0</ele><time>2026-04-21T13:00:16.999Z</time></trkpt><trkpt lat="43.263707183429766" lon="12.287635722499907"><ele>618.0</ele><time>2026-04-21T13:00:17.999Z</time></trkpt><trkpt lat="43.26359646032047" lon="12.287481914957498"><ele>618.0</ele><time>2026-04-21T13:00:18.999Z</time></trkpt><trkpt lat="43.26347182236963" lon="12.287328862816482"><ele>618.0</ele><time>2026-04-21T13:00:19.999Z</time></trkpt><trkpt lat="43.26334079289963" lon="12.287215391299489"><ele>620.0</ele><time>2026-04-21T13:00:20.999Z</time></trkpt><trkpt lat="43.26321475913415" lon="12.28711979545997"><ele>622.0</ele><time>2026-04-21T13:00:21.999Z</time></trkpt><trkpt lat="43.26314641787234" lon="12.286991017321652"><ele>624.0</ele><time>2026-04-21T13:00:22.999Z</time></trkpt><trkpt lat="43.263078086690605" lon="12.28684456912795"><ele>626.0</ele><time>2026-04-21T13:00:23.999Z</time></trkpt><trkpt lat="43.26300718402766" lon="12.286679330709784"><ele>626.0</ele><time>2026-04-21T13:00:24.999Z</time></trkpt><trkpt lat="43.26294525239638" lon="12.286519293344183"><ele>626.0</ele><time>2026-04-21T13:00:25.999Z</time></trkpt><trkpt lat="43.26286237408361" lon="12.286366224235511"><ele>626.0</ele><time>2026-04-21T13:00:26.999Z</time></trkpt><trkpt lat="43.26277687285375" lon="12.286233055646218"><ele>626.0</ele><time>2026-04-21T13:00:27.999Z</time></trkpt><trkpt lat="43.26267374987104" lon="12.28612521421706"><ele>627.5</ele><time>2026-04-21T13:00:28.999Z</time></trkpt><trkpt lat="43.26256029263301" lon="12.28603898371561"><ele>629.0</ele><time>2026-04-21T13:00:29.999Z</time></trkpt><trkpt lat="43.262459509363765" lon="12.285941734665716"><ele>630.5</ele><time>2026-04-21T13:00:30.999Z</time></trkpt><trkpt lat="43.26235264909404" lon="12.285882855958894"><ele>632.0</ele><time>2026-04-21T13:00:31.999Z</time></trkpt><trkpt lat="43.26225308254482" lon="12.285804730834695"><ele>632.0</ele><time>2026-04-21T13:00:32.999Z</time></trkpt><trkpt lat="43.262172160807886" lon="12.285714535369133"><ele>632.0</ele><time>2026-04-21T13:00:33.999Z</time></trkpt><trkpt lat="43.26211344114983" lon="12.285589707840412"><ele>632.0</ele><time>2026-04-21T13:00:34.999Z</time></trkpt><trkpt lat="43.26208514756149" lon="12.285428091278959"><ele>632.0</ele><time>2026-04-21T13:00:35.999Z</time></trkpt><trkpt lat="43.26204666227265" lon="12.28525367091943"><ele>633.2</ele><time>2026-04-21T13:00:36.999Z</time></trkpt><trkpt lat="43.262017799053865" lon="12.285081073233975"><ele>634.4000000000001</ele><time>2026-04-21T13:00:37.999Z</time></trkpt><trkpt lat="43.26200558070207" lon="12.284929905526413"><ele>635.5999999999999</ele><time>2026-04-21T13:00:38.999Z</time></trkpt><trkpt lat="43.26201163813013" lon="12.284806466930904"><ele>636.8</ele><time>2026-04-21T13:00:39.999Z</time></trkpt><trkpt lat="43.262062573892145" lon="12.284708137512096"><ele>638.0</ele><time>2026-04-21T13:00:40.999Z</time></trkpt><trkpt lat="43.26214143087173" lon="12.284633081758365"><ele>641.75</ele><time>2026-04-21T13:00:41.999Z</time></trkpt><trkpt lat="43.262236242251646" lon="12.284600015062384"><ele>645.5</ele><time>2026-04-21T13:00:43Z</time></trkpt><trkpt lat="43.26234349987174" lon="12.284597551875661"><ele>649.25</ele><time>2026-04-21T13:00:44Z</time></trkpt><trkpt lat="43.26246668106414" lon="12.284604375856764"><ele>653.0</ele><time>2026-04-21T13:00:45Z</time></trkpt><trkpt lat="43.26259915631885" lon="12.284611094888547"><ele>653.0</ele><time>2026-04-21T13:00:46Z</time></trkpt><trkpt lat="43.26273936059569" lon="12.284611503736713"><ele>653.0</ele><time>2026-04-21T13:00:47Z</time></trkpt><trkpt lat="43.262874858542745" lon="12.28461217064558"><ele>653.0</ele><time>2026-04-21T13:00:48Z</time></trkpt><trkpt lat="43.26299384799831" lon="12.284606513375383"><ele>653.0</ele><time>2026-04-21T13:00:49Z</time></trkpt><trkpt lat="43.26310304940402" lon="12.28456265193824"><ele>651.75</ele><time>2026-04-21T13:00:50Z</time></trkpt><trkpt lat="43.26319635312009" lon="12.28446772698827"><ele>650.5</ele><time>2026-04-21T13:00:51Z</time></trkpt><trkpt lat="43.26326552832691" lon="12.284334400493059"><ele>649.25</ele><time>2026-04-21T13:00:52Z</time></trkpt><trkpt lat="43.26330963950512" lon="12.284182377123704"><ele>648.0</ele><time>2026-04-21T13:00:53Z</time></trkpt><trkpt lat="43.263332126188445" lon="12.28401406330998"><ele>649.25</ele><time>2026-04-21T13:00:54Z</time></trkpt><trkpt lat="43.263351373399765" lon="12.283827444550143"><ele>650.5</ele><time>2026-04-21T13:00:55Z</time></trkpt><trkpt lat="43.263372248923275" lon="12.283634677829468"><ele>651.75</ele><time>2026-04-21T13:00:56Z</time></trkpt><trkpt lat="43.26340100445375" lon="12.283438231947272"><ele>653.0</ele><time>2026-04-21T13:00:57Z</time></trkpt><trkpt lat="43.26344950391484" lon="12.283242797374232"><ele>654.0</ele><time>2026-04-21T13:00:58Z</time></trkpt><trkpt lat="43.26352979299885" lon="12.283060743148496"><ele>655.0</ele><time>2026-04-21T13:00:59Z</time></trkpt><trkpt lat="43.2635919461005" lon="12.282870031102263"><ele>656.0</ele><time>2026-04-21T13:01:00Z</time></trkpt><trkpt lat="43.26366256080364" lon="12.282715313288268"><ele>657.0</ele><time>2026-04-21T13:01:01Z</time></trkpt><trkpt lat="43.26371994866962" lon="12.282558868433888"><ele>657.0</ele><time>2026-04-21T13:01:02Z</time></trkpt><trkpt lat="43.26374692997503" lon="12.282401861724255"><ele>657.0</ele><time>2026-04-21T13:01:03Z</time></trkpt><trkpt lat="43.26373663089258" lon="12.282243239581666"><ele>657.0</ele><time>2026-04-21T13:01:04Z</time></trkpt><trkpt lat="43.26370241927956" lon="12.282084238704348"><ele>657.0</ele><time>2026-04-21T13:01:05Z</time></trkpt><trkpt lat="43.26365878079761" lon="12.281911462054799"><ele>655.6666666666666</ele><time>2026-04-21T13:01:06Z</time></trkpt><trkpt lat="43.26360898255635" lon="12.2817202268109"><ele>654.3333333333333</ele><time>2026-04-21T13:01:07Z</time></trkpt><trkpt lat="43.263557380766784" lon="12.28152053050601"><ele>653.0</ele><time>2026-04-21T13:01:08Z</time></trkpt><trkpt lat="43.26349831209436" lon="12.281314615533317"><ele>651.3333333333333</ele><time>2026-04-21T13:01:09Z</time></trkpt><trkpt lat="43.263437730283655" lon="12.28109750771287"><ele>649.6666666666666</ele><time>2026-04-21T13:01:10Z</time></trkpt><trkpt lat="43.263374865904744" lon="12.280869680667996"><ele>648.0</ele><time>2026-04-21T13:01:11Z</time></trkpt><trkpt lat="43.263318277143" lon="12.280638833660031"><ele>646.0</ele><time>2026-04-21T13:01:12Z</time></trkpt><trkpt lat="43.26327205372848" lon="12.280401009863587"><ele>644.0</ele><time>2026-04-21T13:01:13Z</time></trkpt><trkpt lat="43.2632455272181" lon="12.280158638448285"><ele>642.0</ele><time>2026-04-21T13:01:14Z</time></trkpt><trkpt lat="43.263251758723825" lon="12.27990204344363"><ele>642.3333333333334</ele><time>2026-04-21T13:01:15Z</time></trkpt><trkpt lat="43.2632285614997" lon="12.279637524674113"><ele>642.6666666666667</ele><time>2026-04-21T13:01:16Z</time></trkpt><trkpt lat="43.26321776572915" lon="12.279372443542815"><ele>643.0</ele><time>2026-04-21T13:01:17Z</time></trkpt><trkpt lat="43.2632068203112" lon="12.279102727452587"><ele>642.3333333333334</ele><time>2026-04-21T13:01:18Z</time></trkpt><trkpt lat="43.263194844468394" lon="12.278830517857452"><ele>641.6666666666666</ele><time>2026-04-21T13:01:19Z</time></trkpt><trkpt lat="43.2631853323137" lon="12.27856914269205"><ele>641.0</ele><time>2026-04-21T13:01:20Z</time></trkpt><trkpt lat="43.2631778827409" lon="12.278314918404687"><ele>642.0</ele><time>2026-04-21T13:01:21Z</time></trkpt><trkpt lat="43.26317131812813" lon="12.2780766861668"><ele>643.0</ele><time>2026-04-21T13:01:22Z</time></trkpt><trkpt lat="43.26317157779164" lon="12.277846257075195"><ele>644.0</ele><time>2026-04-21T13:01:23Z</time></trkpt><trkpt lat="43.26319186038412" lon="12.277627408833307"><ele>644.0</ele><time>2026-04-21T13:01:24Z</time></trkpt><trkpt lat="43.26325683629962" lon="12.27743022231016"><ele>644.0</ele><time>2026-04-21T13:01:25Z</time></trkpt><trkpt lat="43.263324853334396" lon="12.277235556360996"><ele>644.0</ele><time>2026-04-21T13:01:26Z</time></trkpt><trkpt lat="43.2634095543546" lon="12.277040226547463"><ele>646.6666666666666</ele><time>2026-04-21T13:01:27Z</time></trkpt><trkpt lat="43.263489029197004" lon="12.27683745886204"><ele>649.3333333333334</ele><time>2026-04-21T13:01:28Z</time></trkpt><trkpt lat="43.26358444314283" lon="12.276647095999065"><ele>652.0</ele><time>2026-04-21T13:01:29Z</time></trkpt><trkpt lat="43.26367843448461" lon="12.276454804970149"><ele>651.75</ele><time>2026-04-21T13:01:30Z</time></trkpt><trkpt lat="43.26376912568844" lon="12.276295641615556"><ele>651.5</ele><time>2026-04-21T13:01:31Z</time></trkpt><trkpt lat="43.26382660857662" lon="12.276144577222844"><ele>651.25</ele><time>2026-04-21T13:01:32Z</time></trkpt><trkpt lat="43.2638373823822" lon="12.275986575397551"><ele>651.0</ele><time>2026-04-21T13:01:33Z</time></trkpt><trkpt lat="43.26384523688166" lon="12.275840519720399"><ele>651.0</ele><time>2026-04-21T13:01:34Z</time></trkpt><trkpt lat="43.26379177226333" lon="12.275685904270304"><ele>651.0</ele><time>2026-04-21T13:01:35Z</time></trkpt><trkpt lat="43.26373384127147" lon="12.275519892251157"><ele>651.0</ele><time>2026-04-21T13:01:36Z</time></trkpt><trkpt lat="43.26366998434672" lon="12.275351536097498"><ele>651.0</ele><time>2026-04-21T13:01:37Z</time></trkpt><trkpt lat="43.26361952711324" lon="12.275167664578223"><ele>647.0</ele><time>2026-04-21T13:01:38Z</time></trkpt><trkpt lat="43.26351655444245" lon="12.275025138786313"><ele>643.0</ele><time>2026-04-21T13:01:39Z</time></trkpt><trkpt lat="43.26342563613372" lon="12.274889102045597"><ele>639.0</ele><time>2026-04-21T13:01:40Z</time></trkpt><trkpt lat="43.26332584242108" lon="12.274787076879852"><ele>635.0</ele><time>2026-04-21T13:01:41Z</time></trkpt><trkpt lat="43.2632194714149" lon="12.274720105685143"><ele>631.75</ele><time>2026-04-21T13:01:42Z</time></trkpt><trkpt lat="43.26310984427871" lon="12.274705093801376"><ele>628.5</ele><time>2026-04-21T13:01:43Z</time></trkpt><trkpt lat="43.262996245051085" lon="12.274719649027377"><ele>625.25</ele><time>2026-04-21T13:01:44Z</time></trkpt><trkpt lat="43.262872038158285" lon="12.274745268880038"><ele>622.0</ele><time>2026-04-21T13:01:45Z</time></trkpt><trkpt lat="43.26273465420606" lon="12.274765415644726"><ele>624.0</ele><time>2026-04-21T13:01:46Z</time></trkpt><trkpt lat="43.26259111151151" lon="12.274778446665463"><ele>626.0</ele><time>2026-04-21T13:01:47Z</time></trkpt><trkpt lat="43.26244552179799" lon="12.27479653883934"><ele>628.0</ele><time>2026-04-21T13:01:48Z</time></trkpt><trkpt lat="43.26229798305406" lon="12.27483907090399"><ele>630.0</ele><time>2026-04-21T13:01:49Z</time></trkpt><trkpt lat="43.262155024080904" lon="12.274908362335143"><ele>630.0</ele><time>2026-04-21T13:01:50Z</time></trkpt><trkpt lat="43.26202695813534" lon="12.274993852078216"><ele>630.0</ele><time>2026-04-21T13:01:51Z</time></trkpt><trkpt lat="43.26190446194257" lon="12.275075623879886"><ele>630.0</ele><time>2026-04-21T13:01:52Z</time></trkpt><trkpt lat="43.26178642184782" lon="12.275141818307821"><ele>630.0</ele><time>2026-04-21T13:01:53Z</time></trkpt><trkpt lat="43.261668487064355" lon="12.275182836681331"><ele>630.0</ele><time>2026-04-21T13:01:54Z</time></trkpt><trkpt lat="43.26155528754583" lon="12.275183344306498"><ele>630.0</ele><time>2026-04-21T13:01:55Z</time></trkpt><trkpt lat="43.26146065531257" lon="12.2751360307951"><ele>630.0</ele><time>2026-04-21T13:01:56Z</time></trkpt><trkpt lat="43.261386261571495" lon="12.275028959243633"><ele>630.0</ele><time>2026-04-21T13:01:57Z</time></trkpt><trkpt lat="43.26131272613845" lon="12.274901230213741"><ele>630.0</ele><time>2026-04-21T13:01:58Z</time></trkpt><trkpt lat="43.26123351541144" lon="12.274745447240523"><ele>629.0</ele><time>2026-04-21T13:01:59Z</time></trkpt><trkpt lat="43.26115772518958" lon="12.274574281087459"><ele>628.0</ele><time>2026-04-21T13:02:00Z</time></trkpt><trkpt lat="43.261080240257954" lon="12.27439504026081"><ele>627.0</ele><time>2026-04-21T13:02:01Z</time></trkpt><trkpt lat="43.26106100627973" lon="12.274187029281247"><ele>627.0</ele><time>2026-04-21T13:02:02Z</time></trkpt><trkpt lat="43.26105281741076" lon="12.273984398910327"><ele>627.0</ele><time>2026-04-21T13:02:03Z</time></trkpt><trkpt lat="43.26105318439961" lon="12.273778176107488"><ele>627.0</ele><time>2026-04-21T13:02:04Z</time></trkpt><trkpt lat="43.261115548238855" lon="12.273574419153094"><ele>627.0</ele><time>2026-04-21T13:02:05Z</time></trkpt><trkpt lat="43.26117007465628" lon="12.273364091007789"><ele>627.0</ele><time>2026-04-21T13:02:06Z</time></trkpt><trkpt lat="43.26121943458084" lon="12.273138975803134"><ele>627.0</ele><time>2026-04-21T13:02:07Z</time></trkpt><trkpt lat="43.26128142235965" lon="12.272942949342678"><ele>626.75</ele><time>2026-04-21T13:02:08Z</time></trkpt><trkpt lat="43.261290364973874" lon="12.272737554812906"><ele>626.5</ele><time>2026-04-21T13:02:09Z</time></trkpt><trkpt lat="43.26129146287996" lon="12.272540782095867"><ele>626.25</ele><time>2026-04-21T13:02:10Z</time></trkpt><trkpt lat="43.26126747569575" lon="12.272337209626622"><ele>626.0</ele><time>2026-04-21T13:02:11Z</time></trkpt><trkpt lat="43.261224522021905" lon="12.27213390185133"><ele>626.0</ele><time>2026-04-21T13:02:12Z</time></trkpt><trkpt lat="43.26118491298728" lon="12.271929841966028"><ele>626.0</ele><time>2026-04-21T13:02:13Z</time></trkpt><trkpt lat="43.26117873272705" lon="12.271728561292104"><ele>626.0</ele><time>2026-04-21T13:02:14Z</time></trkpt><trkpt lat="43.261219687104514" lon="12.271549448099334"><ele>626.0</ele><time>2026-04-21T13:02:15Z</time></trkpt><trkpt lat="43.26124235266715" lon="12.271365791687122"><ele>623.5</ele><time>2026-04-21T13:02:16Z</time></trkpt><trkpt lat="43.26128304091165" lon="12.27117726440694"><ele>621.0</ele><time>2026-04-21T13:02:17Z</time></trkpt><trkpt lat="43.26132119829877" lon="12.270986605135459"><ele>618.5</ele><time>2026-04-21T13:02:18Z</time></trkpt><trkpt lat="43.26134487310386" lon="12.270804897166895"><ele>616.0</ele><time>2026-04-21T13:02:19Z</time></trkpt><trkpt lat="43.26136258964467" lon="12.270632892511816"><ele>614.5</ele><time>2026-04-21T13:02:20Z</time></trkpt><trkpt lat="43.26130545327989" lon="12.270470668507931"><ele>613.0</ele><time>2026-04-21T13:02:21Z</time></trkpt><trkpt lat="43.26124321152416" lon="12.270303303268376"><ele>611.5</ele><time>2026-04-21T13:02:22Z</time></trkpt><trkpt lat="43.26118675284026" lon="12.270130092248529"><ele>610.0</ele><time>2026-04-21T13:02:22.999Z</time></trkpt><trkpt lat="43.2611596503228" lon="12.269930224187878"><ele>608.25</ele><time>2026-04-21T13:02:23.999Z</time></trkpt><trkpt lat="43.2611544886214" lon="12.269738747505038"><ele>606.5</ele><time>2026-04-21T13:02:24.999Z</time></trkpt><trkpt lat="43.26115606805317" lon="12.269559193443056"><ele>604.75</ele><time>2026-04-21T13:02:25.999Z</time></trkpt><trkpt lat="43.26114023555337" lon="12.269398221660285"><ele>603.0</ele><time>2026-04-21T13:02:26.999Z</time></trkpt><trkpt lat="43.26108844293305" lon="12.269267639495917"><ele>603.0</ele><time>2026-04-21T13:02:27.999Z</time></trkpt><trkpt lat="43.26100607869856" lon="12.26916564505435"><ele>603.0</ele><time>2026-04-21T13:02:28.999Z</time></trkpt><trkpt lat="43.26089943450336" lon="12.269096525189118"><ele>603.0</ele><time>2026-04-21T13:02:29.999Z</time></trkpt><trkpt lat="43.260773984954085" lon="12.269066271982174"><ele>603.0</ele><time>2026-04-21T13:02:30.999Z</time></trkpt><trkpt lat="43.26063179359861" lon="12.269071860930872"><ele>602.3333333333334</ele><time>2026-04-21T13:02:31.999Z</time></trkpt><trkpt lat="43.26048197695518" lon="12.269087990954205"><ele>601.6666666666667</ele><time>2026-04-21T13:02:32.999Z</time></trkpt><trkpt lat="43.260329808311795" lon="12.269071892195186"><ele>601.0</ele><time>2026-04-21T13:02:33.999Z</time></trkpt><trkpt lat="43.26017538056749" lon="12.269092518157295"><ele>601.0</ele><time>2026-04-21T13:02:34.999Z</time></trkpt><trkpt lat="43.260018655913214" lon="12.269072232504275"><ele>601.0</ele><time>2026-04-21T13:02:35.999Z</time></trkpt><trkpt lat="43.25986710045277" lon="12.269027600823268"><ele>601.0</ele><time>2026-04-21T13:02:36.999Z</time></trkpt><trkpt lat="43.259734440291254" lon="12.26892972888541"><ele>597.75</ele><time>2026-04-21T13:02:37.999Z</time></trkpt><trkpt lat="43.25959551920647" lon="12.268843527115093"><ele>594.5</ele><time>2026-04-21T13:02:38.999Z</time></trkpt><trkpt lat="43.25944116616224" lon="12.268768396611984"><ele>591.25</ele><time>2026-04-21T13:02:39.999Z</time></trkpt><trkpt lat="43.259327584835845" lon="12.268692229451736"><ele>588.0</ele><time>2026-04-21T13:02:40.999Z</time></trkpt><trkpt lat="43.259178383090976" lon="12.26863861353837"><ele>588.0</ele><time>2026-04-21T13:02:41.999Z</time></trkpt><trkpt lat="43.25902499206507" lon="12.268605863143708"><ele>588.0</ele><time>2026-04-21T13:02:42.999Z</time></trkpt><trkpt lat="43.258867753115815" lon="12.268568766504746"><ele>588.0</ele><time>2026-04-21T13:02:43.999Z</time></trkpt><trkpt lat="43.25870796961098" lon="12.268534606451285"><ele>587.0</ele><time>2026-04-21T13:02:44.999Z</time></trkpt><trkpt lat="43.2585515345197" lon="12.268473196943054"><ele>586.0</ele><time>2026-04-21T13:02:45.999Z</time></trkpt><trkpt lat="43.25839793103945" lon="12.268427839104715"><ele>585.0</ele><time>2026-04-21T13:02:46.999Z</time></trkpt><trkpt lat="43.258244303250244" lon="12.268405085341708"><ele>585.0</ele><time>2026-04-21T13:02:47.999Z</time></trkpt><trkpt lat="43.258099523993614" lon="12.268352775359762"><ele>585.0</ele><time>2026-04-21T13:02:49Z</time></trkpt><trkpt lat="43.257962718780426" lon="12.268292590432166"><ele>585.0</ele><time>2026-04-21T13:02:50Z</time></trkpt><trkpt lat="43.25783197009179" lon="12.268210033777493"><ele>585.0</ele><time>2026-04-21T13:02:51Z</time></trkpt><trkpt lat="43.257718314326866" lon="12.268099685816876"><ele>583.0</ele><time>2026-04-21T13:02:52Z</time></trkpt><trkpt lat="43.25762713159137" lon="12.2679649911143"><ele>581.0</ele><time>2026-04-21T13:02:53Z</time></trkpt><trkpt lat="43.25755208137945" lon="12.267813362460325"><ele>579.0</ele><time>2026-04-21T13:02:54Z</time></trkpt><trkpt lat="43.25747680467564" lon="12.267652267573252"><ele>577.0</ele><time>2026-04-21T13:02:55Z</time></trkpt><trkpt lat="43.257398972547314" lon="12.267485094471295"><ele>577.0</ele><time>2026-04-21T13:02:56Z</time></trkpt><trkpt lat="43.25732706901066" lon="12.267324815233895"><ele>577.0</ele><time>2026-04-21T13:02:57Z</time></trkpt><trkpt lat="43.25723997107941" lon="12.267186392984298"><ele>577.0</ele><time>2026-04-21T13:02:58Z</time></trkpt><trkpt lat="43.257121853641294" lon="12.267091849632545"><ele>577.0</ele><time>2026-04-21T13:02:59Z</time></trkpt><trkpt lat="43.25699685636716" lon="12.266999633572496"><ele>576.5</ele><time>2026-04-21T13:03:00Z</time></trkpt><trkpt lat="43.25686647020735" lon="12.266916387443167"><ele>576.0</ele><time>2026-04-21T13:03:01Z</time></trkpt><trkpt lat="43.25675376908191" lon="12.266831043809487"><ele>575.5</ele><time>2026-04-21T13:03:02Z</time></trkpt><trkpt lat="43.25666339323622" lon="12.266731684049871"><ele>575.0</ele><time>2026-04-21T13:03:03Z</time></trkpt><trkpt lat="43.25660656361193" lon="12.266618174495008"><ele>575.0</ele><time>2026-04-21T13:03:04Z</time></trkpt><trkpt lat="43.25657324357003" lon="12.266466886410383"><ele>575.0</ele><time>2026-04-21T13:03:05Z</time></trkpt><trkpt lat="43.25657866059104" lon="12.266299606691435"><ele>575.0</ele><time>2026-04-21T13:03:06Z</time></trkpt><trkpt lat="43.256609686066575" lon="12.266133172319321"><ele>575.0</ele><time>2026-04-21T13:03:07Z</time></trkpt><trkpt lat="43.25664561781509" lon="12.26595631854554"><ele>574.5</ele><time>2026-04-21T13:03:08Z</time></trkpt><trkpt lat="43.25668388761747" lon="12.26576301883941"><ele>574.0</ele><time>2026-04-21T13:03:09Z</time></trkpt><trkpt lat="43.25672332414195" lon="12.265568152863231"><ele>573.5</ele><time>2026-04-21T13:03:10Z</time></trkpt><trkpt lat="43.25675151626414" lon="12.265370572967731"><ele>573.0</ele><time>2026-04-21T13:03:11Z</time></trkpt><trkpt lat="43.25675460434075" lon="12.265176070705486"><ele>573.0</ele><time>2026-04-21T13:03:12Z</time></trkpt><trkpt lat="43.2567401991872" lon="12.265000031063483"><ele>573.0</ele><time>2026-04-21T13:03:13Z</time></trkpt><trkpt lat="43.256662097769464" lon="12.2648485527169"><ele>573.0</ele><time>2026-04-21T13:03:14Z</time></trkpt><trkpt lat="43.25657027799163" lon="12.264709290587104"><ele>573.0</ele><time>2026-04-21T13:03:15Z</time></trkpt><trkpt lat="43.256459203896966" lon="12.264578777937693"><ele>572.25</ele><time>2026-04-21T13:03:16Z</time></trkpt><trkpt lat="43.2563660480668" lon="12.264417895976198"><ele>571.5</ele><time>2026-04-21T13:03:17Z</time></trkpt><trkpt lat="43.25627382022367" lon="12.264261686101733"><ele>570.75</ele><time>2026-04-21T13:03:18Z</time></trkpt><trkpt lat="43.25619068623211" lon="12.264088240862248"><ele>570.0</ele><time>2026-04-21T13:03:19Z</time></trkpt><trkpt lat="43.25614629965635" lon="12.263879009036286"><ele>573.5</ele><time>2026-04-21T13:03:20Z</time></trkpt><trkpt lat="43.25610409401184" lon="12.263673273372163"><ele>577.0</ele><time>2026-04-21T13:03:21Z</time></trkpt><trkpt lat="43.25604306629241" lon="12.263495174979003"><ele>580.5</ele><time>2026-04-21T13:03:22Z</time></trkpt><trkpt lat="43.25597089752435" lon="12.263333945339582"><ele>584.0</ele><time>2026-04-21T13:03:23Z</time></trkpt><trkpt lat="43.25585897823813" lon="12.263224632180766"><ele>584.0</ele><time>2026-04-21T13:03:24Z</time></trkpt><trkpt lat="43.255720883904104" lon="12.263194016478058"><ele>584.0</ele><time>2026-04-21T13:03:25Z</time></trkpt><trkpt lat="43.25558369863432" lon="12.263174852762576"><ele>584.0</ele><time>2026-04-21T13:03:26Z</time></trkpt><trkpt lat="43.25543828086475" lon="12.26316733086075"><ele>584.0</ele><time>2026-04-21T13:03:27Z</time></trkpt><trkpt lat="43.25529142896943" lon="12.26312216822044"><ele>591.6666666666666</ele><time>2026-04-21T13:03:28Z</time></trkpt><trkpt lat="43.25514128789443" lon="12.26309854156102"><ele>599.3333333333334</ele><time>2026-04-21T13:03:29Z</time></trkpt><trkpt lat="43.25499314068241" lon="12.26302274541837"><ele>607.0</ele><time>2026-04-21T13:03:30Z</time></trkpt><trkpt lat="43.25484927393146" lon="12.262933227814992"><ele>598.25</ele><time>2026-04-21T13:03:31Z</time></trkpt><trkpt lat="43.25471290946261" lon="12.262842857257363"><ele>589.5</ele><time>2026-04-21T13:03:32Z</time></trkpt><trkpt lat="43.25458958199953" lon="12.26275417594681"><ele>580.75</ele><time>2026-04-21T13:03:33Z</time></trkpt><trkpt lat="43.25450291089989" lon="12.262633900977717"><ele>572.0</ele><time>2026-04-21T13:03:34Z</time></trkpt><trkpt lat="43.25442438090142" lon="12.262539216171456"><ele>572.0</ele><time>2026-04-21T13:03:35Z</time></trkpt><trkpt lat="43.25439711465405" lon="12.262403421100247"><ele>572.0</ele><time>2026-04-21T13:03:36Z</time></trkpt><trkpt lat="43.25442682893642" lon="12.262262720089126"><ele>572.0</ele><time>2026-04-21T13:03:37Z</time></trkpt><trkpt lat="43.25443208946466" lon="12.262103783518201"><ele>572.0</ele><time>2026-04-21T13:03:38Z</time></trkpt><trkpt lat="43.25446066727329" lon="12.261932372010236"><ele>572.5</ele><time>2026-04-21T13:03:39Z</time></trkpt><trkpt lat="43.254487161753296" lon="12.261741081817036"><ele>573.0</ele><time>2026-04-21T13:03:40Z</time></trkpt><trkpt lat="43.254511910098444" lon="12.261548648015463"><ele>573.5</ele><time>2026-04-21T13:03:41Z</time></trkpt><trkpt lat="43.25456001214783" lon="12.261361299483367"><ele>574.0</ele><time>2026-04-21T13:03:42Z</time></trkpt><trkpt lat="43.25463943696627" lon="12.261195203161883"><ele>569.3333333333334</ele><time>2026-04-21T13:03:43Z</time></trkpt><trkpt lat="43.254749243451435" lon="12.261065005926813"><ele>564.6666666666666</ele><time>2026-04-21T13:03:44Z</time></trkpt><trkpt lat="43.25485090122294" lon="12.26090071285834"><ele>560.0</ele><time>2026-04-21T13:03:45Z</time></trkpt><trkpt lat="43.25496078358329" lon="12.260760896527577"><ele>568.0</ele><time>2026-04-21T13:03:46Z</time></trkpt><trkpt lat="43.25505679089695" lon="12.260622926815893"><ele>576.0</ele><time>2026-04-21T13:03:47Z</time></trkpt><trkpt lat="43.2551184944321" lon="12.260466937055464"><ele>584.0</ele><time>2026-04-21T13:03:48Z</time></trkpt><trkpt lat="43.25513656180928" lon="12.260296486439112"><ele>592.0</ele><time>2026-04-21T13:03:49Z</time></trkpt><trkpt lat="43.25512437970404" lon="12.260111782977521"><ele>592.0</ele><time>2026-04-21T13:03:50Z</time></trkpt><trkpt lat="43.255100743656484" lon="12.259925670977575"><ele>592.0</ele><time>2026-04-21T13:03:51Z</time></trkpt><trkpt lat="43.2551058778981" lon="12.259761831287715"><ele>592.0</ele><time>2026-04-21T13:03:52Z</time></trkpt><trkpt lat="43.25515787867641" lon="12.259632933283378"><ele>592.0</ele><time>2026-04-21T13:03:53Z</time></trkpt><trkpt lat="43.255241614914006" lon="12.25951817412842"><ele>592.0</ele><time>2026-04-21T13:03:54Z</time></trkpt><trkpt lat="43.25535195141938" lon="12.259416151184887"><ele>592.0</ele><time>2026-04-21T13:03:55Z</time></trkpt><trkpt lat="43.255447386700986" lon="12.259277685184042"><ele>592.0</ele><time>2026-04-21T13:03:56Z</time></trkpt><trkpt lat="43.25555627097913" lon="12.25915761345681"><ele>592.0</ele><time>2026-04-21T13:03:57Z</time></trkpt><trkpt lat="43.25564279013709" lon="12.259025109947213"><ele>597.0</ele><time>2026-04-21T13:03:58Z</time></trkpt><trkpt lat="43.25570163931627" lon="12.258869540922884"><ele>602.0</ele><time>2026-04-21T13:03:59Z</time></trkpt><trkpt lat="43.25571824698684" lon="12.258693465575208"><ele>607.0</ele><time>2026-04-21T13:04:00Z</time></trkpt><trkpt lat="43.25570010371743" lon="12.258531800248635"><ele>612.0</ele><time>2026-04-21T13:04:01Z</time></trkpt><trkpt lat="43.255636001259994" lon="12.258382552607628"><ele>610.0</ele><time>2026-04-21T13:04:02Z</time></trkpt><trkpt lat="43.25555501590753" lon="12.258234422777898"><ele>608.0</ele><time>2026-04-21T13:04:03Z</time></trkpt><trkpt lat="43.25545834662127" lon="12.258087992659371"><ele>606.0</ele><time>2026-04-21T13:04:04Z</time></trkpt><trkpt lat="43.25535464913089" lon="12.257931107225593"><ele>604.0</ele><time>2026-04-21T13:04:05Z</time></trkpt><trkpt lat="43.25525362046739" lon="12.257768158544577"><ele>604.0</ele><time>2026-04-21T13:04:06Z</time></trkpt><trkpt lat="43.255145730885936" lon="12.257589640359829"><ele>604.0</ele><time>2026-04-21T13:04:07Z</time></trkpt><trkpt lat="43.255037373372225" lon="12.257415073651515"><ele>604.0</ele><time>2026-04-21T13:04:08Z</time></trkpt><trkpt lat="43.2549244680405" lon="12.257227138669377"><ele>604.0</ele><time>2026-04-21T13:04:09Z</time></trkpt><trkpt lat="43.25480877466496" lon="12.257043173446338"><ele>604.0</ele><time>2026-04-21T13:04:10Z</time></trkpt><trkpt lat="43.25469048180686" lon="12.2568568820224"><ele>604.0</ele><time>2026-04-21T13:04:11Z</time></trkpt><trkpt lat="43.25457171315887" lon="12.25666533840504"><ele>604.0</ele><time>2026-04-21T13:04:12Z</time></trkpt><trkpt lat="43.25445481646809" lon="12.256477637635571"><ele>604.0</ele><time>2026-04-21T13:04:13Z</time></trkpt><trkpt lat="43.25433676370263" lon="12.2562805599451"><ele>604.0</ele><time>2026-04-21T13:04:14Z</time></trkpt><trkpt lat="43.25421911581445" lon="12.256094180643842"><ele>608.0</ele><time>2026-04-21T13:04:15Z</time></trkpt><trkpt lat="43.25411096233434" lon="12.25589736233247"><ele>612.0</ele><time>2026-04-21T13:04:16Z</time></trkpt><trkpt lat="43.25400411609382" lon="12.255717084925722"><ele>616.0</ele><time>2026-04-21T13:04:17Z</time></trkpt><trkpt lat="43.253901965731465" lon="12.255544511711243"><ele>618.6666666666667</ele><time>2026-04-21T13:04:18Z</time></trkpt><trkpt lat="43.25378501786323" lon="12.255387745737519"><ele>621.3333333333334</ele><time>2026-04-21T13:04:19Z</time></trkpt><trkpt lat="43.253651694126305" lon="12.255253458762496"><ele>624.0</ele><time>2026-04-21T13:04:20Z</time></trkpt><trkpt lat="43.253492450281946" lon="12.255151902024343"><ele>624.0</ele><time>2026-04-21T13:04:21Z</time></trkpt><trkpt lat="43.253325036996976" lon="12.255074856554746"><ele>624.0</ele><time>2026-04-21T13:04:22Z</time></trkpt><trkpt lat="43.25316132391071" lon="12.255024596700768"><ele>624.0</ele><time>2026-04-21T13:04:23Z</time></trkpt><trkpt lat="43.253029614829494" lon="12.25493594022345"><ele>621.0</ele><time>2026-04-21T13:04:24Z</time></trkpt><trkpt lat="43.25291665575266" lon="12.25481081473848"><ele>618.0</ele><time>2026-04-21T13:04:25Z</time></trkpt><trkpt lat="43.25281721804539" lon="12.25464830643631"><ele>615.0</ele><time>2026-04-21T13:04:26Z</time></trkpt><trkpt lat="43.25272785629775" lon="12.254448798703782"><ele>621.0</ele><time>2026-04-21T13:04:27Z</time></trkpt><trkpt lat="43.25261692181324" lon="12.254269155929846"><ele>627.0</ele><time>2026-04-21T13:04:28Z</time></trkpt><trkpt lat="43.25251085800734" lon="12.25409740014104"><ele>633.0</ele><time>2026-04-21T13:04:29Z</time></trkpt><trkpt lat="43.25241113612207" lon="12.253931228869206"><ele>633.0</ele><time>2026-04-21T13:04:30Z</time></trkpt><trkpt lat="43.25231449749133" lon="12.253789639881141"><ele>633.0</ele><time>2026-04-21T13:04:31Z</time></trkpt><trkpt lat="43.2522029076823" lon="12.253718688985897"><ele>633.0</ele><time>2026-04-21T13:04:32Z</time></trkpt><trkpt lat="43.25210305100845" lon="12.253655751641015"><ele>633.0</ele><time>2026-04-21T13:04:33Z</time></trkpt><trkpt lat="43.25200224214271" lon="12.253629632398818"><ele>633.0</ele><time>2026-04-21T13:04:34Z</time></trkpt><trkpt lat="43.251921094606004" lon="12.253585083713281"><ele>633.0</ele><time>2026-04-21T13:04:35Z</time></trkpt><trkpt lat="43.25185039888136" lon="12.253526161078499"><ele>633.0</ele><time>2026-04-21T13:04:36Z</time></trkpt><trkpt lat="43.25178242865579" lon="12.253440931453294"><ele>633.0</ele><time>2026-04-21T13:04:37Z</time></trkpt><trkpt lat="43.25172885952445" lon="12.253317929357387"><ele>633.0</ele><time>2026-04-21T13:04:38Z</time></trkpt><trkpt lat="43.251696746156554" lon="12.253157476678307"><ele>629.0</ele><time>2026-04-21T13:04:39Z</time></trkpt><trkpt lat="43.251640903876094" lon="12.252986313926069"><ele>625.0</ele><time>2026-04-21T13:04:40Z</time></trkpt><trkpt lat="43.25155043608663" lon="12.252837495318534"><ele>621.0</ele><time>2026-04-21T13:04:41Z</time></trkpt><trkpt lat="43.251453943020024" lon="12.25268843499812"><ele>617.0</ele><time>2026-04-21T13:04:42Z</time></trkpt><trkpt lat="43.25136119518243" lon="12.252545943452114"><ele>617.0</ele><time>2026-04-21T13:04:43Z</time></trkpt><trkpt lat="43.251283421339885" lon="12.252411415305438"><ele>617.0</ele><time>2026-04-21T13:04:43.999Z</time></trkpt><trkpt lat="43.25122997730043" lon="12.25225238529574"><ele>617.0</ele><time>2026-04-21T13:04:44.999Z</time></trkpt><trkpt lat="43.25122942277818" lon="12.252072602749191"><ele>617.0</ele><time>2026-04-21T13:04:45.999Z</time></trkpt><trkpt lat="43.25124098019218" lon="12.251908954922088"><ele>620.25</ele><time>2026-04-21T13:04:46.999Z</time></trkpt><trkpt lat="43.25130391517655" lon="12.25177915949757"><ele>623.5</ele><time>2026-04-21T13:04:47.999Z</time></trkpt><trkpt lat="43.25134440174925" lon="12.251627219101392"><ele>626.75</ele><time>2026-04-21T13:04:48.999Z</time></trkpt><trkpt lat="43.25138921598339" lon="12.25147609467969"><ele>630.0</ele><time>2026-04-21T13:04:49.999Z</time></trkpt><trkpt lat="43.251386923152076" lon="12.251320050831236"><ele>632.25</ele><time>2026-04-21T13:04:50.999Z</time></trkpt><trkpt lat="43.25133414705644" lon="12.25118543095823"><ele>634.5</ele><time>2026-04-21T13:04:51.999Z</time></trkpt><trkpt lat="43.25125412196598" lon="12.251058312637404"><ele>636.75</ele><time>2026-04-21T13:04:52.999Z</time></trkpt><trkpt lat="43.251152776834545" lon="12.250933918109357"><ele>639.0</ele><time>2026-04-21T13:04:54Z</time></trkpt><trkpt lat="43.251059350914375" lon="12.250770810595514"><ele>639.0</ele><time>2026-04-21T13:04:55Z</time></trkpt><trkpt lat="43.25094331448501" lon="12.250633067813828"><ele>639.0</ele><time>2026-04-21T13:04:56Z</time></trkpt><trkpt lat="43.25084747600811" lon="12.250488675524226"><ele>639.0</ele><time>2026-04-21T13:04:57Z</time></trkpt><trkpt lat="43.25074117813259" lon="12.250357599123323"><ele>639.0</ele><time>2026-04-21T13:04:58Z</time></trkpt><trkpt lat="43.25060924740676" lon="12.25026019666829"><ele>644.0</ele><time>2026-04-21T13:04:59Z</time></trkpt><trkpt lat="43.25045674488036" lon="12.25020323386647"><ele>649.0</ele><time>2026-04-21T13:05:00Z</time></trkpt><trkpt lat="43.250292011939635" lon="12.250166698258711"><ele>654.0</ele><time>2026-04-21T13:05:01Z</time></trkpt><trkpt lat="43.25012645346592" lon="12.250129884542297"><ele>654.0</ele><time>2026-04-21T13:05:02Z</time></trkpt><trkpt lat="43.24997227589762" lon="12.250093222721867"><ele>654.0</ele><time>2026-04-21T13:05:03Z</time></trkpt><trkpt lat="43.24984526338461" lon="12.250036090125134"><ele>654.0</ele><time>2026-04-21T13:05:04Z</time></trkpt><trkpt lat="43.24973149123181" lon="12.249981387861595"><ele>654.0</ele><time>2026-04-21T13:05:05Z</time></trkpt><trkpt lat="43.249615615563165" lon="12.249908408325728"><ele>656.6666666666666</ele><time>2026-04-21T13:05:06Z</time></trkpt><trkpt lat="43.24952104208335" lon="12.249759394009104"><ele>659.3333333333333</ele><time>2026-04-21T13:05:07Z</time></trkpt><trkpt lat="43.249434360080976" lon="12.249576464456961"><ele>662.0</ele><time>2026-04-21T13:05:08Z</time></trkpt><trkpt lat="43.24935376309443" lon="12.249381163689431"><ele>662.0</ele><time>2026-04-21T13:05:09Z</time></trkpt><trkpt lat="43.249253836003916" lon="12.24920023194334"><ele>662.0</ele><time>2026-04-21T13:05:10Z</time></trkpt><trkpt lat="43.24912564573788" lon="12.249045113617703"><ele>662.0</ele><time>2026-04-21T13:05:11Z</time></trkpt><trkpt lat="43.24897957570574" lon="12.248921180172655"><ele>659.6666666666666</ele><time>2026-04-21T13:05:12Z</time></trkpt><trkpt lat="43.24883306192983" lon="12.248805265650036"><ele>657.3333333333334</ele><time>2026-04-21T13:05:13Z</time></trkpt><trkpt lat="43.248707932691374" lon="12.248677999331095"><ele>655.0</ele><time>2026-04-21T13:05:14Z</time></trkpt><trkpt lat="43.24859671234489" lon="12.248558622831592"><ele>655.0</ele><time>2026-04-21T13:05:15Z</time></trkpt><trkpt lat="43.24849193384454" lon="12.24844708646021"><ele>655.0</ele><time>2026-04-21T13:05:16Z</time></trkpt><trkpt lat="43.24839861087354" lon="12.248335942817642"><ele>655.0</ele><time>2026-04-21T13:05:17Z</time></trkpt><trkpt lat="43.24835193733208" lon="12.248180342007796"><ele>655.0</ele><time>2026-04-21T13:05:18Z</time></trkpt><trkpt lat="43.248315460903115" lon="12.248007377202967"><ele>658.0</ele><time>2026-04-21T13:05:19Z</time></trkpt><trkpt lat="43.24828605852377" lon="12.247811412249302"><ele>661.0</ele><time>2026-04-21T13:05:20Z</time></trkpt><trkpt lat="43.24824091783423" lon="12.247605648322475"><ele>664.0</ele><time>2026-04-21T13:05:21Z</time></trkpt><trkpt lat="43.24823325264806" lon="12.247383756663677"><ele>667.6666666666667</ele><time>2026-04-21T13:05:22Z</time></trkpt><trkpt lat="43.2482078027411" lon="12.247157071224452"><ele>671.3333333333334</ele><time>2026-04-21T13:05:23Z</time></trkpt><trkpt lat="43.248181746208" lon="12.246931436270321"><ele>675.0</ele><time>2026-04-21T13:05:24Z</time></trkpt><trkpt lat="43.24815806614899" lon="12.246737291565298"><ele>675.0</ele><time>2026-04-21T13:05:25Z</time></trkpt><trkpt lat="43.24812962271775" lon="12.246561844972865"><ele>675.0</ele><time>2026-04-21T13:05:26Z</time></trkpt><trkpt lat="43.24808884115065" lon="12.246400352149973"><ele>675.0</ele><time>2026-04-21T13:05:27Z</time></trkpt><trkpt lat="43.24802739472488" lon="12.246270078286315"><ele>675.0</ele><time>2026-04-21T13:05:28Z</time></trkpt><trkpt lat="43.24791854761267" lon="12.246182147357683"><ele>675.75</ele><time>2026-04-21T13:05:29Z</time></trkpt><trkpt lat="43.24779912239091" lon="12.24605728622544"><ele>676.5</ele><time>2026-04-21T13:05:30Z</time></trkpt><trkpt lat="43.24770231539357" lon="12.245977991613573"><ele>677.25</ele><time>2026-04-21T13:05:31Z</time></trkpt><trkpt lat="43.24759414757069" lon="12.245894513017536"><ele>678.0</ele><time>2026-04-21T13:05:32Z</time></trkpt><trkpt lat="43.24745385016413" lon="12.245806924255646"><ele>678.0</ele><time>2026-04-21T13:05:33Z</time></trkpt><trkpt lat="43.24733030494452" lon="12.245759405137365"><ele>678.0</ele><time>2026-04-21T13:05:34Z</time></trkpt><trkpt lat="43.24719464710702" lon="12.24574127083443"><ele>678.0</ele><time>2026-04-21T13:05:35Z</time></trkpt><trkpt lat="43.24707298579477" lon="12.24579536602964"><ele>678.0</ele><time>2026-04-21T13:05:36Z</time></trkpt><trkpt lat="43.24695848822534" lon="12.245895997880066"><ele>677.0</ele><time>2026-04-21T13:05:37Z</time></trkpt><trkpt lat="43.24684258077644" lon="12.245989100237582"><ele>676.0</ele><time>2026-04-21T13:05:38Z</time></trkpt><trkpt lat="43.24672269765217" lon="12.24600906837166"><ele>675.0</ele><time>2026-04-21T13:05:39Z</time></trkpt><trkpt lat="43.24662631581341" lon="12.245977803835418"><ele>674.0</ele><time>2026-04-21T13:05:40Z</time></trkpt><trkpt lat="43.24653830753495" lon="12.24593139205582"><ele>673.0</ele><time>2026-04-21T13:05:41Z</time></trkpt><trkpt lat="43.24645899992306" lon="12.245837951009523"><ele>675.75</ele><time>2026-04-21T13:05:42Z</time></trkpt><trkpt lat="43.24636919145909" lon="12.245715060487438"><ele>678.5</ele><time>2026-04-21T13:05:43Z</time></trkpt><trkpt lat="43.24627318516854" lon="12.245588501118293"><ele>681.25</ele><time>2026-04-21T13:05:44Z</time></trkpt><trkpt lat="43.246174302568996" lon="12.245475775964977"><ele>684.0</ele><time>2026-04-21T13:05:45Z</time></trkpt><trkpt lat="43.246048031314096" lon="12.245416958815014"><ele>684.0</ele><time>2026-04-21T13:05:46Z</time></trkpt><trkpt lat="43.245930906818955" lon="12.2453551677759"><ele>684.0</ele><time>2026-04-21T13:05:47Z</time></trkpt><trkpt lat="43.24581060598214" lon="12.245292160257764"><ele>684.0</ele><time>2026-04-21T13:05:48Z</time></trkpt><trkpt lat="43.24571115086186" lon="12.245170185660184"><ele>684.0</ele><time>2026-04-21T13:05:49Z</time></trkpt><trkpt lat="43.24564181742715" lon="12.245012380720253"><ele>686.25</ele><time>2026-04-21T13:05:50Z</time></trkpt><trkpt lat="43.24555903164463" lon="12.244848563366675"><ele>688.5</ele><time>2026-04-21T13:05:51Z</time></trkpt><trkpt lat="43.245475495239724" lon="12.244680458072867"><ele>690.75</ele><time>2026-04-21T13:05:52Z</time></trkpt><trkpt lat="43.24538482300945" lon="12.244512230280753"><ele>693.0</ele><time>2026-04-21T13:05:53Z</time></trkpt><trkpt lat="43.24527990528523" lon="12.244369946534967"><ele>693.0</ele><time>2026-04-21T13:05:54Z</time></trkpt><trkpt lat="43.24518179745466" lon="12.24424199033468"><ele>693.0</ele><time>2026-04-21T13:05:55Z</time></trkpt><trkpt lat="43.24507122076272" lon="12.244165706888234"><ele>693.0</ele><time>2026-04-21T13:05:56Z</time></trkpt><trkpt lat="43.24494755418096" lon="12.244144905901829"><ele>693.0</ele><time>2026-04-21T13:05:57Z</time></trkpt><trkpt lat="43.24482048459487" lon="12.244180852474795"><ele>694.75</ele><time>2026-04-21T13:05:58Z</time></trkpt><trkpt lat="43.24469819158908" lon="12.244267155780785"><ele>696.5</ele><time>2026-04-21T13:05:59Z</time></trkpt><trkpt lat="43.24459009158919" lon="12.244394900074264"><ele>698.25</ele><time>2026-04-21T13:06:00Z</time></trkpt><trkpt lat="43.244483551761775" lon="12.244556910901442"><ele>700.0</ele><time>2026-04-21T13:06:01Z</time></trkpt><trkpt lat="43.244375381859115" lon="12.244699605804373"><ele>700.0</ele><time>2026-04-21T13:06:02Z</time></trkpt><trkpt lat="43.24426920818184" lon="12.244784297928707"><ele>700.0</ele><time>2026-04-21T13:06:03Z</time></trkpt><trkpt lat="43.244156249968434" lon="12.24481485601272"><ele>700.0</ele><time>2026-04-21T13:06:04Z</time></trkpt><trkpt lat="43.24404100518358" lon="12.244786129757609"><ele>700.0</ele><time>2026-04-21T13:06:05Z</time></trkpt><trkpt lat="43.243930468925846" lon="12.244713621337857"><ele>695.6666666666667</ele><time>2026-04-21T13:06:06Z</time></trkpt><trkpt lat="43.24380048560996" lon="12.244625350424716"><ele>691.3333333333334</ele><time>2026-04-21T13:06:07Z</time></trkpt><trkpt lat="43.24366692701179" lon="12.244510503498002"><ele>687.0</ele><time>2026-04-21T13:06:08Z</time></trkpt><trkpt lat="43.24354488954673" lon="12.244356070146852"><ele>687.0</ele><time>2026-04-21T13:06:09Z</time></trkpt><trkpt lat="43.243434136505655" lon="12.244180166198776"><ele>687.0</ele><time>2026-04-21T13:06:10Z</time></trkpt><trkpt lat="43.243377539819214" lon="12.24395693720013"><ele>687.0</ele><time>2026-04-21T13:06:11Z</time></trkpt><trkpt lat="43.24330353300436" lon="12.243716946339239"><ele>686.6666666666666</ele><time>2026-04-21T13:06:12Z</time></trkpt><trkpt lat="43.24322632985082" lon="12.243475723835012"><ele>686.3333333333333</ele><time>2026-04-21T13:06:13Z</time></trkpt><trkpt lat="43.24313664129351" lon="12.243285920611564"><ele>686.0</ele><time>2026-04-21T13:06:14Z</time></trkpt><trkpt lat="43.24305262333952" lon="12.24313814924888"><ele>691.0</ele><time>2026-04-21T13:06:15Z</time></trkpt><trkpt lat="43.242933959472694" lon="12.243043200661885"><ele>696.0</ele><time>2026-04-21T13:06:16Z</time></trkpt><trkpt lat="43.242793940854405" lon="12.242997800230938"><ele>701.0</ele><time>2026-04-21T13:06:17Z</time></trkpt><trkpt lat="43.242636788736284" lon="12.242972813216715"><ele>706.0</ele><time>2026-04-21T13:06:18Z</time></trkpt><trkpt lat="43.24247566836661" lon="12.242938521270382"><ele>706.0</ele><time>2026-04-21T13:06:19Z</time></trkpt><trkpt lat="43.24233115674404" lon="12.242830374361503"><ele>706.0</ele><time>2026-04-21T13:06:20Z</time></trkpt><trkpt lat="43.24217984757972" lon="12.242683962356788"><ele>706.0</ele><time>2026-04-21T13:06:21Z</time></trkpt><trkpt lat="43.24202618745947" lon="12.242533507731293"><ele>706.3333333333334</ele><time>2026-04-21T13:06:22Z</time></trkpt><trkpt lat="43.24185105357669" lon="12.242384775482037"><ele>706.6666666666666</ele><time>2026-04-21T13:06:23Z</time></trkpt><trkpt lat="43.241694219122934" lon="12.2423068767108"><ele>707.0</ele><time>2026-04-21T13:06:24Z</time></trkpt><trkpt lat="43.24153961362163" lon="12.242283293392036"><ele>704.3333333333333</ele><time>2026-04-21T13:06:25Z</time></trkpt><trkpt lat="43.24138411259903" lon="12.242324698602753"><ele>701.6666666666666</ele><time>2026-04-21T13:06:26Z</time></trkpt><trkpt lat="43.241233318976946" lon="12.242408408722959"><ele>699.0</ele><time>2026-04-21T13:06:27Z</time></trkpt><trkpt lat="43.24108841377107" lon="12.242482563793528"><ele>699.0</ele><time>2026-04-21T13:06:28Z</time></trkpt><trkpt lat="43.240942667675384" lon="12.242471424540076"><ele>699.0</ele><time>2026-04-21T13:06:29Z</time></trkpt><trkpt lat="43.24080014488671" lon="12.242423329376047"><ele>699.0</ele><time>2026-04-21T13:06:30Z</time></trkpt><trkpt lat="43.24066336696404" lon="12.242375599718118"><ele>699.0</ele><time>2026-04-21T13:06:31Z</time></trkpt><trkpt lat="43.24054874811575" lon="12.242343851584657"><ele>697.8000000000001</ele><time>2026-04-21T13:06:32Z</time></trkpt><trkpt lat="43.24046749697772" lon="12.242277034083411"><ele>696.6</ele><time>2026-04-21T13:06:33Z</time></trkpt><trkpt lat="43.240421352210134" lon="12.242084760109686"><ele>695.4</ele><time>2026-04-21T13:06:35Z</time></trkpt><trkpt lat="43.240406541622626" lon="12.2419587057024"><ele>694.2</ele><time>2026-04-21T13:06:36Z</time></trkpt><trkpt lat="43.24041271959976" lon="12.241831492214853"><ele>693.0</ele><time>2026-04-21T13:06:37Z</time></trkpt><trkpt lat="43.240446221458456" lon="12.241683441526972"><ele>693.0</ele><time>2026-04-21T13:06:38Z</time></trkpt><trkpt lat="43.240489758700264" lon="12.241519028488735"><ele>693.0</ele><time>2026-04-21T13:06:39Z</time></trkpt><trkpt lat="43.240537717407335" lon="12.24134267266843"><ele>693.0</ele><time>2026-04-21T13:06:40Z</time></trkpt><trkpt lat="43.240581249325786" lon="12.241146881642969"><ele>693.0</ele><time>2026-04-21T13:06:41Z</time></trkpt><trkpt lat="43.24064037849454" lon="12.240950489133795"><ele>693.3333333333334</ele><time>2026-04-21T13:06:42Z</time></trkpt><trkpt lat="43.240698303597995" lon="12.240750956590873"><ele>693.6666666666667</ele><time>2026-04-21T13:06:43Z</time></trkpt><trkpt lat="43.240756697889275" lon="12.240557661420612"><ele>694.0</ele><time>2026-04-21T13:06:44Z</time></trkpt><trkpt lat="43.24080597059691" lon="12.240371970601029"><ele>690.25</ele><time>2026-04-21T13:06:45Z</time></trkpt><trkpt lat="43.240856803789434" lon="12.24020877638678"><ele>686.5</ele><time>2026-04-21T13:06:46Z</time></trkpt><trkpt lat="43.2409304438203" lon="12.240072526265184"><ele>682.75</ele><time>2026-04-21T13:06:47Z</time></trkpt><trkpt lat="43.2410341800757" lon="12.239963981614963"><ele>679.0</ele><time>2026-04-21T13:06:48Z</time></trkpt><trkpt lat="43.24115863350888" lon="12.23986429937152"><ele>678.3333333333334</ele><time>2026-04-21T13:06:49Z</time></trkpt><trkpt lat="43.241294973838635" lon="12.239757770067342"><ele>677.6666666666666</ele><time>2026-04-21T13:06:50Z</time></trkpt><trkpt lat="43.24143643961746" lon="12.239643472883586"><ele>677.0</ele><time>2026-04-21T13:06:51Z</time></trkpt><trkpt lat="43.241574349334975" lon="12.23952842250617"><ele>677.0</ele><time>2026-04-21T13:06:52Z</time></trkpt><trkpt lat="43.24170709286465" lon="12.239422636142832"><ele>677.0</ele><time>2026-04-21T13:06:53Z</time></trkpt><trkpt lat="43.24183110685704" lon="12.23931669632486"><ele>677.0</ele><time>2026-04-21T13:06:54Z</time></trkpt><trkpt lat="43.24194395085822" lon="12.239219167937616"><ele>677.0</ele><time>2026-04-21T13:06:55Z</time></trkpt><trkpt lat="43.24205531590195" lon="12.239131011311196"><ele>677.0</ele><time>2026-04-21T13:06:56Z</time></trkpt><trkpt lat="43.24217769903828" lon="12.239111208413686"><ele>677.0</ele><time>2026-04-21T13:06:57Z</time></trkpt><trkpt lat="43.24230085937172" lon="12.239088381511246"><ele>677.0</ele><time>2026-04-21T13:06:58Z</time></trkpt><trkpt lat="43.24241632526341" lon="12.239175962444842"><ele>677.0</ele><time>2026-04-21T13:06:59Z</time></trkpt><trkpt lat="43.24254625321003" lon="12.239242572756087"><ele>677.0</ele><time>2026-04-21T13:07:00Z</time></trkpt><trkpt lat="43.242676635577084" lon="12.239306245483741"><ele>677.0</ele><time>2026-04-21T13:07:01Z</time></trkpt><trkpt lat="43.24281142331863" lon="12.23936400803899"><ele>677.0</ele><time>2026-04-21T13:07:02Z</time></trkpt><trkpt lat="43.2429914385594" lon="12.239393732134985"><ele>674.3333333333333</ele><time>2026-04-21T13:07:03Z</time></trkpt><trkpt lat="43.2431558385177" lon="12.239351066407103"><ele>671.6666666666666</ele><time>2026-04-21T13:07:04Z</time></trkpt><trkpt lat="43.243317900257864" lon="12.239314405402729"><ele>669.0</ele><time>2026-04-21T13:07:05Z</time></trkpt><trkpt lat="43.24347927144244" lon="12.239278310001202"><ele>669.0</ele><time>2026-04-21T13:07:06Z</time></trkpt><trkpt lat="43.24363930200309" lon="12.239252225628471"><ele>669.0</ele><time>2026-04-21T13:07:07Z</time></trkpt><trkpt lat="43.243787253690066" lon="12.239233123741155"><ele>669.0</ele><time>2026-04-21T13:07:08Z</time></trkpt><trkpt lat="43.24393645528829" lon="12.239212026417523"><ele>668.0</ele><time>2026-04-21T13:07:09Z</time></trkpt><trkpt lat="43.244074076407365" lon="12.23920006544573"><ele>667.0</ele><time>2026-04-21T13:07:10Z</time></trkpt><trkpt lat="43.244188945086265" lon="12.239233308088629"><ele>666.0</ele><time>2026-04-21T13:07:11Z</time></trkpt><trkpt lat="43.24427162462324" lon="12.239272167015411"><ele>665.0</ele><time>2026-04-21T13:07:12Z</time></trkpt><trkpt lat="43.24434338079339" lon="12.239363336689207"><ele>664.0</ele><time>2026-04-21T13:07:13Z</time></trkpt><trkpt lat="43.24442810105566" lon="12.239456291439895"><ele>664.0</ele><time>2026-04-21T13:07:14Z</time></trkpt><trkpt lat="43.24452038693368" lon="12.239533548917974"><ele>664.0</ele><time>2026-04-21T13:07:15Z</time></trkpt><trkpt lat="43.244626313644915" lon="12.239539306839022"><ele>664.0</ele><time>2026-04-21T13:07:16Z</time></trkpt><trkpt lat="43.24472733911931" lon="12.2394805596529"><ele>664.0</ele><time>2026-04-21T13:07:17Z</time></trkpt><trkpt lat="43.24482077726254" lon="12.239394899308543"><ele>664.0</ele><time>2026-04-21T13:07:18Z</time></trkpt><trkpt lat="43.24490670539511" lon="12.239258187209973"><ele>662.75</ele><time>2026-04-21T13:07:19Z</time></trkpt><trkpt lat="43.24499307297332" lon="12.239131916919431"><ele>661.5</ele><time>2026-04-21T13:07:20Z</time></trkpt><trkpt lat="43.245084036873415" lon="12.23905050888705"><ele>660.25</ele><time>2026-04-21T13:07:21Z</time></trkpt><trkpt lat="43.245186142960996" lon="12.238974726173819"><ele>659.0</ele><time>2026-04-21T13:07:22Z</time></trkpt><trkpt lat="43.245318012261656" lon="12.238999974722658"><ele>658.0</ele><time>2026-04-21T13:07:23Z</time></trkpt><trkpt lat="43.24545395366743" lon="12.2389525098006"><ele>657.0</ele><time>2026-04-21T13:07:24Z</time></trkpt><trkpt lat="43.2455882586437" lon="12.23896318544723"><ele>656.0</ele><time>2026-04-21T13:07:25Z</time></trkpt><trkpt lat="43.24569318955212" lon="12.239049070296604"><ele>655.0</ele><time>2026-04-21T13:07:26Z</time></trkpt><trkpt lat="43.245787546894654" lon="12.23914702868181"><ele>655.0</ele><time>2026-04-21T13:07:27Z</time></trkpt><trkpt lat="43.24588477189949" lon="12.239221388197958"><ele>655.0</ele><time>2026-04-21T13:07:28Z</time></trkpt><trkpt lat="43.245977075073505" lon="12.239277436414437"><ele>655.0</ele><time>2026-04-21T13:07:29Z</time></trkpt><trkpt lat="43.24607008060503" lon="12.239323140982274"><ele>655.0</ele><time>2026-04-21T13:07:30Z</time></trkpt><trkpt lat="43.24618399664666" lon="12.239260037441058"><ele>655.0</ele><time>2026-04-21T13:07:31Z</time></trkpt><trkpt lat="43.24626411995582" lon="12.239106642870674"><ele>651.3333333333334</ele><time>2026-04-21T13:07:32Z</time></trkpt><trkpt lat="43.24633889899842" lon="12.238937587731773"><ele>647.6666666666666</ele><time>2026-04-21T13:07:33Z</time></trkpt><trkpt lat="43.246409545361644" lon="12.238751864534153"><ele>644.0</ele><time>2026-04-21T13:07:34Z</time></trkpt><trkpt lat="43.24651682305009" lon="12.23859010614147"><ele>644.0</ele><time>2026-04-21T13:07:35Z</time></trkpt><trkpt lat="43.24663561811202" lon="12.2384211254749"><ele>644.0</ele><time>2026-04-21T13:07:36Z</time></trkpt><trkpt lat="43.24675632758939" lon="12.23823497220367"><ele>644.0</ele><time>2026-04-21T13:07:37Z</time></trkpt><trkpt lat="43.2468643464193" lon="12.238056936351159"><ele>639.0</ele><time>2026-04-21T13:07:38Z</time></trkpt><trkpt lat="43.24695147695288" lon="12.237869315232539"><ele>634.0</ele><time>2026-04-21T13:07:39Z</time></trkpt><trkpt lat="43.24704552348537" lon="12.237690146734495"><ele>629.0</ele><time>2026-04-21T13:07:40Z</time></trkpt><trkpt lat="43.24712448403416" lon="12.23749353466656"><ele>631.3333333333333</ele><time>2026-04-21T13:07:41Z</time></trkpt><trkpt lat="43.247193598790936" lon="12.237301840341408"><ele>633.6666666666666</ele><time>2026-04-21T13:07:42Z</time></trkpt><trkpt lat="43.24726057823136" lon="12.237117487335457"><ele>636.0</ele><time>2026-04-21T13:07:43Z</time></trkpt><trkpt lat="43.247351331498734" lon="12.236944612590634"><ele>636.0</ele><time>2026-04-21T13:07:44Z</time></trkpt><trkpt lat="43.24742281297229" lon="12.23674364755055"><ele>636.0</ele><time>2026-04-21T13:07:45Z</time></trkpt><trkpt lat="43.247461305204496" lon="12.236523221805617"><ele>636.0</ele><time>2026-04-21T13:07:46Z</time></trkpt><trkpt lat="43.247495478284485" lon="12.236296516842973"><ele>633.75</ele><time>2026-04-21T13:07:47Z</time></trkpt><trkpt lat="43.24752095617149" lon="12.23608296580973"><ele>631.5</ele><time>2026-04-21T13:07:48Z</time></trkpt><trkpt lat="43.24755486084469" lon="12.235889363643027"><ele>629.25</ele><time>2026-04-21T13:07:49Z</time></trkpt><trkpt lat="43.24761733953167" lon="12.235729114355555"><ele>627.0</ele><time>2026-04-21T13:07:50Z</time></trkpt><trkpt lat="43.24773856138543" lon="12.235617255455235"><ele>626.0</ele><time>2026-04-21T13:07:51Z</time></trkpt><trkpt lat="43.247803234525755" lon="12.235465292051568"><ele>625.0</ele><time>2026-04-21T13:07:52Z</time></trkpt><trkpt lat="43.24785792049237" lon="12.235343267318811"><ele>624.0</ele><time>2026-04-21T13:07:53Z</time></trkpt><trkpt lat="43.247873184014" lon="12.23521841220873"><ele>623.0</ele><time>2026-04-21T13:07:54Z</time></trkpt><trkpt lat="43.24785665447983" lon="12.235094630194117"><ele>622.0</ele><time>2026-04-21T13:07:55Z</time></trkpt><trkpt lat="43.247812985962526" lon="12.23498780231933"><ele>622.0</ele><time>2026-04-21T13:07:56Z</time></trkpt><trkpt lat="43.24774227916717" lon="12.234926859679772"><ele>622.0</ele><time>2026-04-21T13:07:57Z</time></trkpt><trkpt lat="43.24765724491838" lon="12.23489269541456"><ele>622.0</ele><time>2026-04-21T13:07:58Z</time></trkpt><trkpt lat="43.24756789023847" lon="12.234872655950465"><ele>622.0</ele><time>2026-04-21T13:07:59Z</time></trkpt><trkpt lat="43.24747201534423" lon="12.234827011955366"><ele>622.0</ele><time>2026-04-21T13:08:00Z</time></trkpt><trkpt lat="43.24739309483487" lon="12.234735876078647"><ele>623.0</ele><time>2026-04-21T13:08:01Z</time></trkpt><trkpt lat="43.24730168194138" lon="12.234655127542291"><ele>624.0</ele><time>2026-04-21T13:08:02Z</time></trkpt><trkpt lat="43.247232439420124" lon="12.23454560149399"><ele>625.0</ele><time>2026-04-21T13:08:03Z</time></trkpt><trkpt lat="43.247169230482825" lon="12.234430038685977"><ele>626.0</ele><time>2026-04-21T13:08:04Z</time></trkpt><trkpt lat="43.24710499822036" lon="12.234311494915179"><ele>627.0</ele><time>2026-04-21T13:08:05Z</time></trkpt><trkpt lat="43.24704638241272" lon="12.234191835602989"><ele>622.6</ele><time>2026-04-21T13:08:06Z</time></trkpt><trkpt lat="43.24699955686865" lon="12.234066533689216"><ele>618.2</ele><time>2026-04-21T13:08:07Z</time></trkpt><trkpt lat="43.246989340807055" lon="12.233937118464983"><ele>613.8</ele><time>2026-04-21T13:08:08Z</time></trkpt><trkpt lat="43.24696917523795" lon="12.233814282423749"><ele>609.4</ele><time>2026-04-21T13:08:09Z</time></trkpt><trkpt lat="43.24696874890724" lon="12.233654447124898"><ele>605.0</ele><time>2026-04-21T13:08:10Z</time></trkpt><trkpt lat="43.24694702507292" lon="12.233470158759376"><ele>605.0</ele><time>2026-04-21T13:08:11Z</time></trkpt><trkpt lat="43.246923942400215" lon="12.233351841594043"><ele>605.0</ele><time>2026-04-21T13:08:12Z</time></trkpt><trkpt lat="43.24688751814319" lon="12.233211595488026"><ele>605.0</ele><time>2026-04-21T13:08:13Z</time></trkpt><trkpt lat="43.246845769342386" lon="12.233078399012472"><ele>605.0</ele><time>2026-04-21T13:08:14Z</time></trkpt><trkpt lat="43.246809839878644" lon="12.232966282521438"><ele>605.0</ele><time>2026-04-21T13:08:15Z</time></trkpt><trkpt lat="43.246762084801134" lon="12.232864651553236"><ele>606.1666666666666</ele><time>2026-04-21T13:08:16Z</time></trkpt><trkpt lat="43.246725566426676" lon="12.232767068644641"><ele>607.3333333333333</ele><time>2026-04-21T13:08:17Z</time></trkpt><trkpt lat="43.24671120509506" lon="12.232673970189492"><ele>608.5</ele><time>2026-04-21T13:08:18Z</time></trkpt><trkpt lat="43.246671767352304" lon="12.232589343995574"><ele>609.6666666666666</ele><time>2026-04-21T13:08:19Z</time></trkpt><trkpt lat="43.24663349545668" lon="12.232480831292076"><ele>610.8333333333334</ele><time>2026-04-21T13:08:21Z</time></trkpt><trkpt lat="43.246675910733295" lon="12.232570152269314"><ele>612.0</ele><time>2026-04-21T13:08:25Z</time></trkpt><trkpt lat="43.24674262509725" lon="12.232769843392177"><ele>612.0</ele><time>2026-04-21T13:08:27Z</time></trkpt><trkpt lat="43.24679388064342" lon="12.232917168251614"><ele>612.0</ele><time>2026-04-21T13:08:28Z</time></trkpt><trkpt lat="43.24684040759163" lon="12.23306166857741"><ele>612.0</ele><time>2026-04-21T13:08:29Z</time></trkpt><trkpt lat="43.24688224357851" lon="12.233197306887396"><ele>612.0</ele><time>2026-04-21T13:08:30Z</time></trkpt><trkpt lat="43.24692402432795" lon="12.233349760676985"><ele>610.25</ele><time>2026-04-21T13:08:31Z</time></trkpt><trkpt lat="43.246948160190485" lon="12.233510760212319"><ele>608.5</ele><time>2026-04-21T13:08:32Z</time></trkpt><trkpt lat="43.24696700117767" lon="12.233686572560755"><ele>606.75</ele><time>2026-04-21T13:08:33Z</time></trkpt><trkpt lat="43.24697413234472" lon="12.233863196207999"><ele>605.0</ele><time>2026-04-21T13:08:34Z</time></trkpt><trkpt lat="43.24698518924708" lon="12.2340299435899"><ele>603.5</ele><time>2026-04-21T13:08:35Z</time></trkpt><trkpt lat="43.24701374050321" lon="12.234196617257657"><ele>602.0</ele><time>2026-04-21T13:08:36Z</time></trkpt><trkpt lat="43.24708135797004" lon="12.234349173780739"><ele>600.5</ele><time>2026-04-21T13:08:37Z</time></trkpt><trkpt lat="43.24716941577314" lon="12.234492522729372"><ele>599.0</ele><time>2026-04-21T13:08:38Z</time></trkpt><trkpt lat="43.2472684109217" lon="12.234638426664857"><ele>604.75</ele><time>2026-04-21T13:08:39Z</time></trkpt><trkpt lat="43.24736120457455" lon="12.234773993345653"><ele>610.5</ele><time>2026-04-21T13:08:40Z</time></trkpt><trkpt lat="43.24745418258558" lon="12.234869676261095"><ele>616.25</ele><time>2026-04-21T13:08:41Z</time></trkpt><trkpt lat="43.24755527495977" lon="12.234925905418496"><ele>622.0</ele><time>2026-04-21T13:08:42Z</time></trkpt><trkpt lat="43.24766478004142" lon="12.234960407409048"><ele>622.0</ele><time>2026-04-21T13:08:43Z</time></trkpt><trkpt lat="43.24776326173559" lon="12.235003757170084"><ele>622.0</ele><time>2026-04-21T13:08:44Z</time></trkpt><trkpt lat="43.24783244831756" lon="12.235073099363007"><ele>622.0</ele><time>2026-04-21T13:08:45Z</time></trkpt><trkpt lat="43.247873218058515" lon="12.235189658477895"><ele>622.0</ele><time>2026-04-21T13:08:46Z</time></trkpt><trkpt lat="43.24784715022539" lon="12.235334845506783"><ele>622.0</ele><time>2026-04-21T13:08:47Z</time></trkpt><trkpt lat="43.247796654348484" lon="12.23545301217343"><ele>622.0</ele><time>2026-04-21T13:08:48Z</time></trkpt><trkpt lat="43.247721108866976" lon="12.235607592315317"><ele>622.0</ele><time>2026-04-21T13:08:49Z</time></trkpt><trkpt lat="43.247634468226934" lon="12.23573285991234"><ele>622.0</ele><time>2026-04-21T13:08:50Z</time></trkpt><trkpt lat="43.247563611113144" lon="12.235833925413363"><ele>622.0</ele><time>2026-04-21T13:08:51Z</time></trkpt><trkpt lat="43.247512994965994" lon="12.235940551610263"><ele>623.0</ele><time>2026-04-21T13:08:52Z</time></trkpt><trkpt lat="43.24749160311367" lon="12.236070303403023"><ele>624.0</ele><time>2026-04-21T13:08:53Z</time></trkpt><trkpt lat="43.24747870422614" lon="12.236215087904139"><ele>625.0</ele><time>2026-04-21T13:08:54Z</time></trkpt><trkpt lat="43.24746871737315" lon="12.236357329233694"><ele>626.0</ele><time>2026-04-21T13:08:55Z</time></trkpt><trkpt lat="43.247454104770696" lon="12.23648949683932"><ele>627.0</ele><time>2026-04-21T13:08:56Z</time></trkpt><trkpt lat="43.24743213424186" lon="12.236598375961009"><ele>627.0</ele><time>2026-04-21T13:08:57Z</time></trkpt><trkpt lat="43.24740077986781" lon="12.236698741001984"><ele>627.0</ele><time>2026-04-21T13:08:59Z</time></trkpt><trkpt lat="43.247514375324414" lon="12.236633053781171"><ele>627.0</ele><time>2026-04-21T13:09:02Z</time></trkpt><trkpt lat="43.24757292105772" lon="12.236512879263367"><ele>627.0</ele><time>2026-04-21T13:09:03Z</time></trkpt><trkpt lat="43.24760591037746" lon="12.23637051710337"><ele>627.0</ele><time>2026-04-21T13:09:04Z</time></trkpt><trkpt lat="43.24763962303544" lon="12.236242318853078"><ele>627.0</ele><time>2026-04-21T13:09:05Z</time></trkpt><trkpt lat="43.24769328772422" lon="12.236126825222298"><ele>627.0</ele><time>2026-04-21T13:09:06Z</time></trkpt><trkpt lat="43.24775762751874" lon="12.23600772822335"><ele>627.0</ele><time>2026-04-21T13:09:07Z</time></trkpt><trkpt lat="43.24783065245542" lon="12.235900966028835"><ele>627.0</ele><time>2026-04-21T13:09:08Z</time></trkpt><trkpt lat="43.247913866342266" lon="12.235806588110652"><ele>627.0</ele><time>2026-04-21T13:09:09Z</time></trkpt><trkpt lat="43.24798159820021" lon="12.235717995796909"><ele>627.0</ele><time>2026-04-21T13:09:10Z</time></trkpt><trkpt lat="43.24804304498017" lon="12.2356614091086"><ele>627.0</ele><time>2026-04-21T13:09:11Z</time></trkpt><trkpt lat="43.24811115893007" lon="12.235644387130284"><ele>627.0</ele><time>2026-04-21T13:09:12Z</time></trkpt><trkpt lat="43.24816834500506" lon="12.235602765440914"><ele>627.0</ele><time>2026-04-21T13:09:13Z</time></trkpt><trkpt lat="43.24827305939214" lon="12.235628770929047"><ele>627.0</ele><time>2026-04-21T13:09:15Z</time></trkpt><trkpt lat="43.24833296394076" lon="12.235657162724355"><ele>627.0</ele><time>2026-04-21T13:09:16Z</time></trkpt><trkpt lat="43.24843923709215" lon="12.235727533694607"><ele>628.8571428571429</ele><time>2026-04-21T13:09:18Z</time></trkpt><trkpt lat="43.24849450655816" lon="12.235789539400653"><ele>630.7142857142857</ele><time>2026-04-21T13:09:19Z</time></trkpt><trkpt lat="43.24854534909192" lon="12.235851960089478"><ele>632.5714285714286</ele><time>2026-04-21T13:09:20Z</time></trkpt><trkpt lat="43.24860016499512" lon="12.23590617102537"><ele>634.4285714285714</ele><time>2026-04-21T13:09:21Z</time></trkpt><trkpt lat="43.24866851744292" lon="12.235971464172634"><ele>636.2857142857143</ele><time>2026-04-21T13:09:23Z</time></trkpt><trkpt lat="43.24874865294758" lon="12.235998666325806"><ele>638.1428571428571</ele><time>2026-04-21T13:09:25Z</time></trkpt><trkpt lat="43.24881895689016" lon="12.23603546951278"><ele>640.0</ele><time>2026-04-21T13:09:26Z</time></trkpt><trkpt lat="43.24888949493389" lon="12.236102309318367"><ele>640.0</ele><time>2026-04-21T13:09:27Z</time></trkpt><trkpt lat="43.24895301527926" lon="12.236188122525899"><ele>640.0</ele><time>2026-04-21T13:09:28Z</time></trkpt><trkpt lat="43.249008313090016" lon="12.236276619683805"><ele>640.0</ele><time>2026-04-21T13:09:29Z</time></trkpt><trkpt lat="43.249063786287216" lon="12.236342466677723"><ele>640.0</ele><time>2026-04-21T13:09:30Z</time></trkpt><trkpt lat="43.24912892145074" lon="12.236372845156751"><ele>640.0</ele><time>2026-04-21T13:09:31Z</time></trkpt><trkpt lat="43.24919962793549" lon="12.236397082237408"><ele>640.0</ele><time>2026-04-21T13:09:32Z</time></trkpt><trkpt lat="43.24928211882704" lon="12.236384844679252"><ele>637.5</ele><time>2026-04-21T13:09:33Z</time></trkpt><trkpt lat="43.24936356550388" lon="12.236339413203336"><ele>635.0</ele><time>2026-04-21T13:09:34Z</time></trkpt><trkpt lat="43.24942650362405" lon="12.236259917445247"><ele>632.5</ele><time>2026-04-21T13:09:35Z</time></trkpt><trkpt lat="43.24946770527291" lon="12.236155090013122"><ele>630.0</ele><time>2026-04-21T13:09:36Z</time></trkpt><trkpt lat="43.24953513914068" lon="12.236095940757469"><ele>627.5</ele><time>2026-04-21T13:09:37Z</time></trkpt><trkpt lat="43.24961608895344" lon="12.236080350907619"><ele>625.0</ele><time>2026-04-21T13:09:38Z</time></trkpt><trkpt lat="43.24968664043416" lon="12.236031632709253"><ele>625.0</ele><time>2026-04-21T13:09:39Z</time></trkpt><trkpt lat="43.249769437323174" lon="12.236015673693052"><ele>625.0</ele><time>2026-04-21T13:09:40Z</time></trkpt><trkpt lat="43.24985056196241" lon="12.235995229998416"><ele>625.0</ele><time>2026-04-21T13:09:41Z</time></trkpt><trkpt lat="43.249933186853525" lon="12.235984823564486"><ele>625.0</ele><time>2026-04-21T13:09:42Z</time></trkpt><trkpt lat="43.25001493343496" lon="12.235997874999128"><ele>625.0</ele><time>2026-04-21T13:09:43Z</time></trkpt><trkpt lat="43.25008901166875" lon="12.23602264961062"><ele>625.0</ele><time>2026-04-21T13:09:44Z</time></trkpt><trkpt lat="43.25016071111337" lon="12.23607017529396"><ele>623.0</ele><time>2026-04-21T13:09:45Z</time></trkpt><trkpt lat="43.250222959894195" lon="12.236148719465856"><ele>621.0</ele><time>2026-04-21T13:09:46Z</time></trkpt><trkpt lat="43.250284598506866" lon="12.236214827085124"><ele>619.0</ele><time>2026-04-21T13:09:47Z</time></trkpt><trkpt lat="43.25036248623815" lon="12.236251402285205"><ele>617.0</ele><time>2026-04-21T13:09:48Z</time></trkpt><trkpt lat="43.25045182672941" lon="12.23623835665881"><ele>615.0</ele><time>2026-04-21T13:09:49Z</time></trkpt><trkpt lat="43.250540105635004" lon="12.23621207783717"><ele>613.0</ele><time>2026-04-21T13:09:50Z</time></trkpt><trkpt lat="43.25063133926986" lon="12.23618793451752"><ele>611.8333333333334</ele><time>2026-04-21T13:09:51Z</time></trkpt><trkpt lat="43.25071599005804" lon="12.236167975788016"><ele>610.6666666666667</ele><time>2026-04-21T13:09:52Z</time></trkpt><trkpt lat="43.25077519772728" lon="12.23613802934464"><ele>609.5</ele><time>2026-04-21T13:09:53Z</time></trkpt><trkpt lat="43.25087661783104" lon="12.236063212787432"><ele>608.3333333333334</ele><time>2026-04-21T13:09:55Z</time></trkpt><trkpt lat="43.250917521451164" lon="12.235978609267915"><ele>607.1666666666666</ele><time>2026-04-21T13:09:56Z</time></trkpt><trkpt lat="43.25095334454863" lon="12.235872854571246"><ele>606.0</ele><time>2026-04-21T13:09:57Z</time></trkpt><trkpt lat="43.2509825385261" lon="12.235767471714052"><ele>606.0</ele><time>2026-04-21T13:09:58Z</time></trkpt><trkpt lat="43.25102815601432" lon="12.235679902959186"><ele>606.0</ele><time>2026-04-21T13:09:59Z</time></trkpt><trkpt lat="43.25108844468495" lon="12.235595071656482"><ele>606.0</ele><time>2026-04-21T13:10:00Z</time></trkpt><trkpt lat="43.25115236994468" lon="12.235519238930655"><ele>606.0</ele><time>2026-04-21T13:10:01Z</time></trkpt><trkpt lat="43.25123365950824" lon="12.235463642155926"><ele>606.0</ele><time>2026-04-21T13:10:02Z</time></trkpt><trkpt lat="43.251331969803026" lon="12.235437585878445"><ele>606.0</ele><time>2026-04-21T13:10:03Z</time></trkpt><trkpt lat="43.25143572841357" lon="12.235399909737959"><ele>602.4</ele><time>2026-04-21T13:10:04Z</time></trkpt><trkpt lat="43.251547005932125" lon="12.235364851152339"><ele>598.8</ele><time>2026-04-21T13:10:05Z</time></trkpt><trkpt lat="43.25165087650612" lon="12.235312643765296"><ele>595.1999999999999</ele><time>2026-04-21T13:10:06Z</time></trkpt><trkpt lat="43.25175080177108" lon="12.23528275168473"><ele>591.6</ele><time>2026-04-21T13:10:07Z</time></trkpt><trkpt lat="43.25185006693318" lon="12.235244268360159"><ele>588.0</ele><time>2026-04-21T13:10:08Z</time></trkpt><trkpt lat="43.2519437527752" lon="12.235198476651858"><ele>588.0</ele><time>2026-04-21T13:10:09Z</time></trkpt><trkpt lat="43.25204090671606" lon="12.235174389240665"><ele>588.0</ele><time>2026-04-21T13:10:10Z</time></trkpt><trkpt lat="43.25213130798473" lon="12.235143759911931"><ele>588.0</ele><time>2026-04-21T13:10:11Z</time></trkpt><trkpt lat="43.25222747181039" lon="12.235100518021499"><ele>588.0</ele><time>2026-04-21T13:10:12Z</time></trkpt><trkpt lat="43.25232933874472" lon="12.23508782634249"><ele>588.0</ele><time>2026-04-21T13:10:13Z</time></trkpt><trkpt lat="43.252430162527425" lon="12.23508306466643"><ele>588.0</ele><time>2026-04-21T13:10:14Z</time></trkpt><trkpt lat="43.25252983159395" lon="12.235096173297336"><ele>588.0</ele><time>2026-04-21T13:10:15Z</time></trkpt><trkpt lat="43.252621530897144" lon="12.235133423978255"><ele>588.0</ele><time>2026-04-21T13:10:16Z</time></trkpt><trkpt lat="43.25268991442306" lon="12.23518244759632"><ele>588.0</ele><time>2026-04-21T13:10:17Z</time></trkpt><trkpt lat="43.25274256138487" lon="12.235244942862172"><ele>588.0</ele><time>2026-04-21T13:10:18Z</time></trkpt><trkpt lat="43.25277699045527" lon="12.235321294354376"><ele>588.0</ele><time>2026-04-21T13:10:19Z</time></trkpt><trkpt lat="43.252796442443035" lon="12.235405536647605"><ele>588.0</ele><time>2026-04-21T13:10:20Z</time></trkpt><trkpt lat="43.25281420224066" lon="12.23549801949278"><ele>588.0</ele><time>2026-04-21T13:10:21Z</time></trkpt><trkpt lat="43.25286074092688" lon="12.235605753033411"><ele>588.0</ele><time>2026-04-21T13:10:22Z</time></trkpt><trkpt lat="43.25291553711989" lon="12.235707215440879"><ele>588.0</ele><time>2026-04-21T13:10:23Z</time></trkpt><trkpt lat="43.25296948587868" lon="12.235782097318369"><ele>588.0</ele><time>2026-04-21T13:10:24Z</time></trkpt><trkpt lat="43.25304216836256" lon="12.235817618284633"><ele>588.0</ele><time>2026-04-21T13:10:26Z</time></trkpt><trkpt lat="43.253131771096335" lon="12.235700614597857"><ele>587.0</ele><time>2026-04-21T13:10:28Z</time></trkpt><trkpt lat="43.25317303304396" lon="12.235573912125627"><ele>586.0</ele><time>2026-04-21T13:10:29Z</time></trkpt><trkpt lat="43.2532030331699" lon="12.235430390131599"><ele>585.0</ele><time>2026-04-21T13:10:30Z</time></trkpt><trkpt lat="43.25323750243695" lon="12.235274290623932"><ele>584.0</ele><time>2026-04-21T13:10:31Z</time></trkpt><trkpt lat="43.25325268981451" lon="12.235132414395153"><ele>583.0</ele><time>2026-04-21T13:10:32Z</time></trkpt><trkpt lat="43.253281901218934" lon="12.235026119439395"><ele>583.0</ele><time>2026-04-21T13:10:33Z</time></trkpt><trkpt lat="43.25331110234469" lon="12.234897061386873"><ele>583.0</ele><time>2026-04-21T13:10:34Z</time></trkpt><trkpt lat="43.25333826392235" lon="12.234788504780818"><ele>583.0</ele><time>2026-04-21T13:10:35Z</time></trkpt><trkpt lat="43.25338602569341" lon="12.234710225900448"><ele>583.0</ele><time>2026-04-21T13:10:36Z</time></trkpt><trkpt lat="43.253453416661806" lon="12.234633630967576"><ele>583.0</ele><time>2026-04-21T13:10:38Z</time></trkpt><trkpt lat="43.25355067652049" lon="12.23473778101818"><ele>583.0</ele><time>2026-04-21T13:10:40Z</time></trkpt><trkpt lat="43.25360453337022" lon="12.234837603922623"><ele>583.0</ele><time>2026-04-21T13:10:41Z</time></trkpt><trkpt lat="43.253646176198565" lon="12.23492148944399"><ele>583.0</ele><time>2026-04-21T13:10:42Z</time></trkpt><trkpt lat="43.25372749856254" lon="12.23497240376773"><ele>583.0</ele><time>2026-04-21T13:10:44Z</time></trkpt><trkpt lat="43.25380559890262" lon="12.23482382340254"><ele>583.0</ele><time>2026-04-21T13:10:46Z</time></trkpt><trkpt lat="43.25383038063538" lon="12.234700985313005"><ele>581.4</ele><time>2026-04-21T13:10:47Z</time></trkpt><trkpt lat="43.25385681323642" lon="12.234574309144932"><ele>579.8</ele><time>2026-04-21T13:10:48Z</time></trkpt><trkpt lat="43.253884431285805" lon="12.234471130589307"><ele>578.2</ele><time>2026-04-21T13:10:49Z</time></trkpt><trkpt lat="43.25398183984225" lon="12.234416027904974"><ele>576.6</ele><time>2026-04-21T13:10:51Z</time></trkpt><trkpt lat="43.25407596796019" lon="12.234360969108046"><ele>575.0</ele><time>2026-04-21T13:10:52Z</time></trkpt><trkpt lat="43.25417403384596" lon="12.234270683258414"><ele>575.0</ele><time>2026-04-21T13:10:53Z</time></trkpt><trkpt lat="43.25429246266231" lon="12.234196546882384"><ele>575.0</ele><time>2026-04-21T13:10:54Z</time></trkpt><trkpt lat="43.25442536268018" lon="12.234135658436069"><ele>575.0</ele><time>2026-04-21T13:10:55Z</time></trkpt><trkpt lat="43.25455303250634" lon="12.234068330362554"><ele>575.0</ele><time>2026-04-21T13:10:56Z</time></trkpt><trkpt lat="43.25466767391972" lon="12.23401063564443"><ele>573.0</ele><time>2026-04-21T13:10:57Z</time></trkpt><trkpt lat="43.25477506542735" lon="12.233956539355667"><ele>571.0</ele><time>2026-04-21T13:10:58Z</time></trkpt><trkpt lat="43.254876249939336" lon="12.233905412452533"><ele>569.0</ele><time>2026-04-21T13:10:59Z</time></trkpt><trkpt lat="43.254975125897076" lon="12.233851315342216"><ele>567.0</ele><time>2026-04-21T13:11:00Z</time></trkpt><trkpt lat="43.25507625768029" lon="12.233792937691572"><ele>565.0</ele><time>2026-04-21T13:11:01Z</time></trkpt><trkpt lat="43.25517369746869" lon="12.233729961370624"><ele>565.0</ele><time>2026-04-21T13:11:02Z</time></trkpt><trkpt lat="43.255278242593974" lon="12.233656883965574"><ele>565.0</ele><time>2026-04-21T13:11:03Z</time></trkpt><trkpt lat="43.25538168610407" lon="12.233581150293011"><ele>565.0</ele><time>2026-04-21T13:11:04Z</time></trkpt><trkpt lat="43.255486611973936" lon="12.233499794468639"><ele>565.0</ele><time>2026-04-21T13:11:05Z</time></trkpt><trkpt lat="43.255592598646494" lon="12.233411691616704"><ele>564.25</ele><time>2026-04-21T13:11:06Z</time></trkpt><trkpt lat="43.255697284095675" lon="12.233319922333827"><ele>563.5</ele><time>2026-04-21T13:11:07Z</time></trkpt><trkpt lat="43.255799526678985" lon="12.233219384720064"><ele>562.75</ele><time>2026-04-21T13:11:08Z</time></trkpt><trkpt lat="43.25589598411258" lon="12.23310586115108"><ele>562.0</ele><time>2026-04-21T13:11:09Z</time></trkpt><trkpt lat="43.255976635792024" lon="12.23297576490356"><ele>559.4</ele><time>2026-04-21T13:11:10Z</time></trkpt><trkpt lat="43.256071795503374" lon="12.232857402004115"><ele>556.8000000000001</ele><time>2026-04-21T13:11:11Z</time></trkpt><trkpt lat="43.256162789747385" lon="12.232743691089322"><ele>554.2</ele><time>2026-04-21T13:11:12Z</time></trkpt><trkpt lat="43.25623758841926" lon="12.23264533125642"><ele>551.6</ele><time>2026-04-21T13:11:13Z</time></trkpt><trkpt lat="43.25629254385816" lon="12.232560225386885"><ele>549.0</ele><time>2026-04-21T13:11:14Z</time></trkpt><trkpt lat="43.256321423565424" lon="12.232468390116832"><ele>549.0</ele><time>2026-04-21T13:11:15Z</time></trkpt><trkpt lat="43.25633784411972" lon="12.232362935568823"><ele>549.0</ele><time>2026-04-21T13:11:16Z</time></trkpt><trkpt lat="43.2563477100791" lon="12.23224323933023"><ele>549.0</ele><time>2026-04-21T13:11:17Z</time></trkpt><trkpt lat="43.256368706140655" lon="12.232119686523616"><ele>549.0</ele><time>2026-04-21T13:11:18Z</time></trkpt><trkpt lat="43.25640992918505" lon="12.2320158581341"><ele>549.0</ele><time>2026-04-21T13:11:19Z</time></trkpt><trkpt lat="43.25648785213668" lon="12.231952256675665"><ele>549.0</ele><time>2026-04-21T13:11:20Z</time></trkpt><trkpt lat="43.25658474993031" lon="12.23191597774163"><ele>547.5</ele><time>2026-04-21T13:11:21Z</time></trkpt><trkpt lat="43.256674966238684" lon="12.23188389808089"><ele>546.0</ele><time>2026-04-21T13:11:22Z</time></trkpt><trkpt lat="43.25676304332648" lon="12.231842322090449"><ele>544.5</ele><time>2026-04-21T13:11:23Z</time></trkpt><trkpt lat="43.2568289244103" lon="12.231796692396122"><ele>543.0</ele><time>2026-04-21T13:11:24Z</time></trkpt><trkpt lat="43.25688061672756" lon="12.231741137377458"><ele>541.5</ele><time>2026-04-21T13:11:25Z</time></trkpt><trkpt lat="43.25692418606527" lon="12.231666489268203"><ele>540.0</ele><time>2026-04-21T13:11:26Z</time></trkpt><trkpt lat="43.25696989708837" lon="12.231573143525372"><ele>538.3333333333334</ele><time>2026-04-21T13:11:27Z</time></trkpt><trkpt lat="43.256999849180794" lon="12.231465264012044"><ele>536.6666666666666</ele><time>2026-04-21T13:11:28Z</time></trkpt><trkpt lat="43.257019515942304" lon="12.23134488604652"><ele>535.0</ele><time>2026-04-21T13:11:29Z</time></trkpt><trkpt lat="43.25702509090934" lon="12.231224751279"><ele>533.3333333333333</ele><time>2026-04-21T13:11:29.999Z</time></trkpt><trkpt lat="43.2570420638687" lon="12.231108449252364"><ele>531.6666666666666</ele><time>2026-04-21T13:11:30.999Z</time></trkpt><trkpt lat="43.25704862660018" lon="12.23100131429702"><ele>530.0</ele><time>2026-04-21T13:11:31.999Z</time></trkpt><trkpt lat="43.25706266237576" lon="12.230899534958985"><ele>530.0</ele><time>2026-04-21T13:11:32.999Z</time></trkpt><trkpt lat="43.257143704318686" lon="12.230813793973685"><ele>530.0</ele><time>2026-04-21T13:11:33.999Z</time></trkpt><trkpt lat="43.257228841404135" lon="12.230710275145455"><ele>530.0</ele><time>2026-04-21T13:11:34.999Z</time></trkpt><trkpt lat="43.25730873597754" lon="12.230591700128855"><ele>530.0</ele><time>2026-04-21T13:11:35.999Z</time></trkpt><trkpt lat="43.25738091791819" lon="12.23048667650253"><ele>530.0</ele><time>2026-04-21T13:11:36.999Z</time></trkpt><trkpt lat="43.257438396628594" lon="12.230389894557254"><ele>527.5</ele><time>2026-04-21T13:11:37.999Z</time></trkpt><trkpt lat="43.25751446893412" lon="12.230342367526118"><ele>525.0</ele><time>2026-04-21T13:11:38.999Z</time></trkpt><trkpt lat="43.25760150778408" lon="12.23030636853272"><ele>522.5</ele><time>2026-04-21T13:11:39.999Z</time></trkpt><trkpt lat="43.25768548353821" lon="12.230285873324357"><ele>520.0</ele><time>2026-04-21T13:11:40.999Z</time></trkpt><trkpt lat="43.257764494337664" lon="12.230290139401621"><ele>517.5</ele><time>2026-04-21T13:11:41.999Z</time></trkpt><trkpt lat="43.257846612564094" lon="12.23032365833225"><ele>515.0</ele><time>2026-04-21T13:11:42.999Z</time></trkpt><trkpt lat="43.2579176691561" lon="12.23035557388653"><ele>515.0</ele><time>2026-04-21T13:11:43.999Z</time></trkpt><trkpt lat="43.257989649598905" lon="12.230385263580583"><ele>515.0</ele><time>2026-04-21T13:11:44.999Z</time></trkpt><trkpt lat="43.25804828180543" lon="12.230420133373798"><ele>515.0</ele><time>2026-04-21T13:11:45.999Z</time></trkpt><trkpt lat="43.25813516080004" lon="12.230349834702896"><ele>515.0</ele><time>2026-04-21T13:11:47.999Z</time></trkpt><trkpt lat="43.25814728102725" lon="12.2302545821557"><ele>515.0</ele><time>2026-04-21T13:11:48.999Z</time></trkpt><trkpt lat="43.258141678243014" lon="12.23015982118096"><ele>515.0</ele><time>2026-04-21T13:11:49.999Z</time></trkpt><trkpt lat="43.25811103231323" lon="12.230074755357458"><ele>515.0</ele><time>2026-04-21T13:11:50.999Z</time></trkpt><trkpt lat="43.25807622511035" lon="12.230001556546929"><ele>515.0</ele><time>2026-04-21T13:11:51.999Z</time></trkpt><trkpt lat="43.25802248241903" lon="12.229906825264331"><ele>515.0</ele><time>2026-04-21T13:11:52.999Z</time></trkpt><trkpt lat="43.25797285781959" lon="12.229826933103409"><ele>515.0</ele><time>2026-04-21T13:11:53.999Z</time></trkpt><trkpt lat="43.25792167442429" lon="12.229757826129424"><ele>515.0</ele><time>2026-04-21T13:11:54.999Z</time></trkpt><trkpt lat="43.25786792784388" lon="12.229692079556829"><ele>515.0</ele><time>2026-04-21T13:11:55.999Z</time></trkpt><trkpt lat="43.25781582525571" lon="12.229629111595374"><ele>515.0</ele><time>2026-04-21T13:11:56.999Z</time></trkpt><trkpt lat="43.25776990800078" lon="12.229564076101406"><ele>515.0</ele><time>2026-04-21T13:11:57.999Z</time></trkpt><trkpt lat="43.257721829886556" lon="12.229453486590755"><ele>512.4</ele><time>2026-04-21T13:11:59.999Z</time></trkpt><trkpt lat="43.25779353253202" lon="12.229403407350826"><ele>509.8</ele><time>2026-04-21T13:12:02.999Z</time></trkpt><trkpt lat="43.25786944813199" lon="12.229414714845353"><ele>507.20000000000005</ele><time>2026-04-21T13:12:03.999Z</time></trkpt><trkpt lat="43.25796858324778" lon="12.229428853356477"><ele>504.6</ele><time>2026-04-21T13:12:04.999Z</time></trkpt><trkpt lat="43.25807113900247" lon="12.2294475739758"><ele>502.0</ele><time>2026-04-21T13:12:05.999Z</time></trkpt><trkpt lat="43.258168482072044" lon="12.229481314828005"><ele>500.6</ele><time>2026-04-21T13:12:06.999Z</time></trkpt><trkpt lat="43.258262789636106" lon="12.229527957982665"><ele>499.20000000000005</ele><time>2026-04-21T13:12:07.999Z</time></trkpt><trkpt lat="43.258356215441" lon="12.229569668029631"><ele>497.8</ele><time>2026-04-21T13:12:08.999Z</time></trkpt><trkpt lat="43.25844332890407" lon="12.229590576047181"><ele>496.4</ele><time>2026-04-21T13:12:09.999Z</time></trkpt><trkpt lat="43.258525662611646" lon="12.229628111493225"><ele>495.0</ele><time>2026-04-21T13:12:10.999Z</time></trkpt><trkpt lat="43.2586082863967" lon="12.229644823106781"><ele>495.0</ele><time>2026-04-21T13:12:11.999Z</time></trkpt><trkpt lat="43.25868547355847" lon="12.229667864993969"><ele>495.0</ele><time>2026-04-21T13:12:12.999Z</time></trkpt><trkpt lat="43.258759556960335" lon="12.229686234547698"><ele>495.0</ele><time>2026-04-21T13:12:13.999Z</time></trkpt><trkpt lat="43.25878708519027" lon="12.229770088779228"><ele>495.0</ele><time>2026-04-21T13:12:14.999Z</time></trkpt><trkpt lat="43.2587958064422" lon="12.229871040406959"><ele>495.0</ele><time>2026-04-21T13:12:15.999Z</time></trkpt><trkpt lat="43.25882846714678" lon="12.22998948892896"><ele>495.0</ele><time>2026-04-21T13:12:16.999Z</time></trkpt><trkpt lat="43.25886774358374" lon="12.230101022429135"><ele>493.6</ele><time>2026-04-21T13:12:17.999Z</time></trkpt><trkpt lat="43.258930302060946" lon="12.230183413280232"><ele>492.2</ele><time>2026-04-21T13:12:18.999Z</time></trkpt><trkpt lat="43.25902859821343" lon="12.230203409012601"><ele>490.79999999999995</ele><time>2026-04-21T13:12:20.999Z</time></trkpt><trkpt lat="43.25911945739809" lon="12.230084363865725"><ele>489.4</ele><time>2026-04-21T13:12:22.999Z</time></trkpt><trkpt lat="43.25913103901482" lon="12.229945897733248"><ele>488.0</ele><time>2026-04-21T13:12:23.999Z</time></trkpt><trkpt lat="43.25912136569633" lon="12.229785794658849"><ele>487.49999999999994</ele><time>2026-04-21T13:12:24.999Z</time></trkpt><trkpt lat="43.259100278668804" lon="12.229641555155053"><ele>487.0</ele><time>2026-04-21T13:12:25.999Z</time></trkpt><trkpt lat="43.25909304647663" lon="12.229524299559866"><ele>486.5</ele><time>2026-04-21T13:12:26.999Z</time></trkpt><trkpt lat="43.25908907248306" lon="12.229423862834118"><ele>486.0</ele><time>2026-04-21T13:12:27.999Z</time></trkpt><trkpt lat="43.25915954747433" lon="12.229321609844366"><ele>485.49999999999994</ele><time>2026-04-21T13:12:29.999Z</time></trkpt><trkpt lat="43.259230282335466" lon="12.229347069010428"><ele>485.0</ele><time>2026-04-21T13:12:30.999Z</time></trkpt><trkpt lat="43.259306556443335" lon="12.22935510358093"><ele>484.99999999999994</ele><time>2026-04-21T13:12:31.999Z</time></trkpt><trkpt lat="43.25938305369329" lon="12.229414905784642"><ele>485.0</ele><time>2026-04-21T13:12:32.999Z</time></trkpt><trkpt lat="43.25944149929921" lon="12.22947682660754"><ele>485.0</ele><time>2026-04-21T13:12:33.999Z</time></trkpt><trkpt lat="43.25947234589591" lon="12.22955303887393"><ele>485.0</ele><time>2026-04-21T13:12:34.999Z</time></trkpt><trkpt lat="43.25948477799941" lon="12.229653261447883"><ele>484.99999999999994</ele><time>2026-04-21T13:12:35.999Z</time></trkpt><trkpt lat="43.25949422643877" lon="12.229778155334767"><ele>485.0</ele><time>2026-04-21T13:12:36.999Z</time></trkpt><trkpt lat="43.25950320407902" lon="12.22989163283051"><ele>485.49999999999994</ele><time>2026-04-21T13:12:37.999Z</time></trkpt><trkpt lat="43.25953136182896" lon="12.229996659031501"><ele>486.0</ele><time>2026-04-21T13:12:38.999Z</time></trkpt><trkpt lat="43.25957431294268" lon="12.230076985451591"><ele>486.5</ele><time>2026-04-21T13:12:39.999Z</time></trkpt><trkpt lat="43.259636040589335" lon="12.23015230101346"><ele>487.0</ele><time>2026-04-21T13:12:40.999Z</time></trkpt><trkpt lat="43.25971097373201" lon="12.230226423029018"><ele>487.49999999999994</ele><time>2026-04-21T13:12:41.999Z</time></trkpt><trkpt lat="43.25979163723483" lon="12.23031178261732"><ele>488.0</ele><time>2026-04-21T13:12:42.999Z</time></trkpt><trkpt lat="43.259853174592415" lon="12.230407884058204"><ele>484.2</ele><time>2026-04-21T13:12:43.999Z</time></trkpt><trkpt lat="43.25989317895697" lon="12.230509159885294"><ele>480.4</ele><time>2026-04-21T13:12:44.999Z</time></trkpt><trkpt lat="43.25992421694133" lon="12.230624839291231"><ele>476.59999999999997</ele><time>2026-04-21T13:12:45.999Z</time></trkpt><trkpt lat="43.25995482360997" lon="12.230752086030346"><ele>472.79999999999995</ele><time>2026-04-21T13:12:46.999Z</time></trkpt><trkpt lat="43.259977351457806" lon="12.23088723953872"><ele>469.0</ele><time>2026-04-21T13:12:47.999Z</time></trkpt><trkpt lat="43.26000113409562" lon="12.231017312136554"><ele>469.00000000000006</ele><time>2026-04-21T13:12:48.999Z</time></trkpt><trkpt lat="43.26002020556886" lon="12.231141308607201"><ele>469.0</ele><time>2026-04-21T13:12:49.999Z</time></trkpt><trkpt lat="43.26003881343383" lon="12.231255438277731"><ele>469.0</ele><time>2026-04-21T13:12:50.999Z</time></trkpt><trkpt lat="43.260058386679724" lon="12.231379544654214"><ele>469.0</ele><time>2026-04-21T13:12:51.999Z</time></trkpt><trkpt lat="43.26005607611114" lon="12.231494835907263"><ele>469.00000000000006</ele><time>2026-04-21T13:12:52.999Z</time></trkpt><trkpt lat="43.260085528302014" lon="12.23159854571854"><ele>469.0</ele><time>2026-04-21T13:12:53.999Z</time></trkpt><trkpt lat="43.26009670638803" lon="12.231692132776049"><ele>470.00000000000006</ele><time>2026-04-21T13:12:54.999Z</time></trkpt><trkpt lat="43.26017668903794" lon="12.231808567832262"><ele>471.0</ele><time>2026-04-21T13:12:56.999Z</time></trkpt><trkpt lat="43.26023909041003" lon="12.231769009100757"><ele>472.0</ele><time>2026-04-21T13:12:57.999Z</time></trkpt><trkpt lat="43.26030593676823" lon="12.231741242429907"><ele>473.0</ele><time>2026-04-21T13:12:58.999Z</time></trkpt><trkpt lat="43.2603884013018" lon="12.231746879408233"><ele>474.00000000000006</ele><time>2026-04-21T13:12:59.999Z</time></trkpt><trkpt lat="43.260480331525194" lon="12.231731545105214"><ele>475.0</ele><time>2026-04-21T13:13:00.999Z</time></trkpt><trkpt lat="43.26057364307135" lon="12.231715886959458"><ele>473.2</ele><time>2026-04-21T13:13:01.999Z</time></trkpt><trkpt lat="43.26067112450128" lon="12.231697925449692"><ele>471.4</ele><time>2026-04-21T13:13:02.999Z</time></trkpt><trkpt lat="43.26077571183098" lon="12.23167848181247"><ele>469.6</ele><time>2026-04-21T13:13:03.999Z</time></trkpt><trkpt lat="43.2608837430956" lon="12.231657023853648"><ele>467.8</ele><time>2026-04-21T13:13:04.999Z</time></trkpt><trkpt lat="43.26099300949213" lon="12.231619052765682"><ele>466.0</ele><time>2026-04-21T13:13:05.999Z</time></trkpt><trkpt lat="43.26110263725904" lon="12.231587928842366"><ele>466.0</ele><time>2026-04-21T13:13:06.999Z</time></trkpt><trkpt lat="43.26121404246159" lon="12.23155714959581"><ele>466.0</ele><time>2026-04-21T13:13:07.999Z</time></trkpt><trkpt lat="43.26132998466773" lon="12.231522979135306"><ele>466.0</ele><time>2026-04-21T13:13:08.999Z</time></trkpt><trkpt lat="43.2614470869203" lon="12.231490759010223"><ele>466.0</ele><time>2026-04-21T13:13:09.999Z</time></trkpt><trkpt lat="43.26156304871896" lon="12.231456079961058"><ele>463.4</ele><time>2026-04-21T13:13:10.999Z</time></trkpt><trkpt lat="43.261675006472885" lon="12.231429081441428"><ele>460.8</ele><time>2026-04-21T13:13:11.999Z</time></trkpt><trkpt lat="43.26177084280333" lon="12.231389475638146"><ele>458.19999999999993</ele><time>2026-04-21T13:13:12.999Z</time></trkpt><trkpt lat="43.26186563690308" lon="12.231384413641461"><ele>455.59999999999997</ele><time>2026-04-21T13:13:13.999Z</time></trkpt><trkpt lat="43.26193786756432" lon="12.231360434741335"><ele>453.0</ele><time>2026-04-21T13:13:14.999Z</time></trkpt><trkpt lat="43.26200139165543" lon="12.231325569733396"><ele>453.0</ele><time>2026-04-21T13:13:15.999Z</time></trkpt><trkpt lat="43.26206351148488" lon="12.231248265605897"><ele>453.0</ele><time>2026-04-21T13:13:16.999Z</time></trkpt><trkpt lat="43.26210883053402" lon="12.23114612987367"><ele>453.0</ele><time>2026-04-21T13:13:17.999Z</time></trkpt><trkpt lat="43.2621309740164" lon="12.231034016635666"><ele>453.0</ele><time>2026-04-21T13:13:18.999Z</time></trkpt><trkpt lat="43.262190461259245" lon="12.230965007061531"><ele>453.0</ele><time>2026-04-21T13:13:19.999Z</time></trkpt><trkpt lat="43.26225032127809" lon="12.230908071119657"><ele>453.0</ele><time>2026-04-21T13:13:20.999Z</time></trkpt><trkpt lat="43.262372786058776" lon="12.230865619629565"><ele>453.0</ele><time>2026-04-21T13:13:22.999Z</time></trkpt><trkpt lat="43.26245919795025" lon="12.230849277906536"><ele>452.99999999999994</ele><time>2026-04-21T13:13:23.999Z</time></trkpt><trkpt lat="43.26255855991689" lon="12.230860911841878"><ele>452.99999999999994</ele><time>2026-04-21T13:13:24.999Z</time></trkpt><trkpt lat="43.26266856759812" lon="12.23086015676648"><ele>453.0</ele><time>2026-04-21T13:13:25.999Z</time></trkpt><trkpt lat="43.26278026144579" lon="12.230865791028773"><ele>453.0</ele><time>2026-04-21T13:13:26.999Z</time></trkpt><trkpt lat="43.262874041778474" lon="12.230907434402075"><ele>453.0</ele><time>2026-04-21T13:13:27.999Z</time></trkpt><trkpt lat="43.26294542160639" lon="12.23094257271003"><ele>453.0</ele><time>2026-04-21T13:13:28.999Z</time></trkpt><trkpt lat="43.26300394087473" lon="12.230995834155307"><ele>453.0</ele><time>2026-04-21T13:13:29.999Z</time></trkpt><trkpt lat="43.263067420050824" lon="12.231083219752117"><ele>453.0</ele><time>2026-04-21T13:13:30.999Z</time></trkpt><trkpt lat="43.26314089766608" lon="12.231166772067539"><ele>453.0</ele><time>2026-04-21T13:13:31.999Z</time></trkpt><trkpt lat="43.26320413014522" lon="12.231287553029365"><ele>453.0</ele><time>2026-04-21T13:13:32.999Z</time></trkpt><trkpt lat="43.26326659599937" lon="12.231415904821372"><ele>453.79999999999995</ele><time>2026-04-21T13:13:33.999Z</time></trkpt><trkpt lat="43.26331453319695" lon="12.23153529367163"><ele>454.59999999999997</ele><time>2026-04-21T13:13:34.999Z</time></trkpt><trkpt lat="43.263363547444335" lon="12.231640295672355"><ele>455.40000000000003</ele><time>2026-04-21T13:13:35.999Z</time></trkpt><trkpt lat="43.26341517433864" lon="12.231753336966825"><ele>456.20000000000005</ele><time>2026-04-21T13:13:36.999Z</time></trkpt><trkpt lat="43.26346869460236" lon="12.231875168015568"><ele>457.0</ele><time>2026-04-21T13:13:37.999Z</time></trkpt><trkpt lat="43.26352827332846" lon="12.232002566255638"><ele>457.0</ele><time>2026-04-21T13:13:38.999Z</time></trkpt><trkpt lat="43.263591401236965" lon="12.232135968768178"><ele>457.0</ele><time>2026-04-21T13:13:39.999Z</time></trkpt><trkpt lat="43.26365751836091" lon="12.232275746347181"><ele>457.0</ele><time>2026-04-21T13:13:40.999Z</time></trkpt><trkpt lat="43.26372649804066" lon="12.232411972946649"><ele>457.0</ele><time>2026-04-21T13:13:41.999Z</time></trkpt><trkpt lat="43.26379663097891" lon="12.232539674711061"><ele>456.8</ele><time>2026-04-21T13:13:42.999Z</time></trkpt><trkpt lat="43.26386206881217" lon="12.232651941654595"><ele>456.6</ele><time>2026-04-21T13:13:43.999Z</time></trkpt><trkpt lat="43.26392497088727" lon="12.232742230594653"><ele>456.40000000000003</ele><time>2026-04-21T13:13:44.999Z</time></trkpt><trkpt lat="43.26398624663511" lon="12.232797248994551"><ele>456.20000000000005</ele><time>2026-04-21T13:13:45.999Z</time></trkpt><trkpt lat="43.26410981812734" lon="12.232863440743394"><ele>456.0</ele><time>2026-04-21T13:13:47.999Z</time></trkpt><trkpt lat="43.264197556922966" lon="12.232882862999006"><ele>456.0</ele><time>2026-04-21T13:13:48.999Z</time></trkpt><trkpt lat="43.264294185790625" lon="12.232889810987885"><ele>456.0</ele><time>2026-04-21T13:13:49.999Z</time></trkpt><trkpt lat="43.26438802720088" lon="12.232890987167085"><ele>456.0</ele><time>2026-04-21T13:13:50.999Z</time></trkpt><trkpt lat="43.26447497021043" lon="12.232882882897268"><ele>456.0</ele><time>2026-04-21T13:13:51.999Z</time></trkpt><trkpt lat="43.26456069491593" lon="12.232861936358299"><ele>456.0</ele><time>2026-04-21T13:13:52.999Z</time></trkpt><trkpt lat="43.264641555313844" lon="12.232832354422944"><ele>456.0</ele><time>2026-04-21T13:13:53.999Z</time></trkpt><trkpt lat="43.2647240772241" lon="12.232789266778665"><ele>454.1666666666667</ele><time>2026-04-21T13:13:54.999Z</time></trkpt><trkpt lat="43.26480207810535" lon="12.232739723621187"><ele>452.33333333333337</ele><time>2026-04-21T13:13:55.999Z</time></trkpt><trkpt lat="43.26487176029585" lon="12.232688441609014"><ele>450.5</ele><time>2026-04-21T13:13:56.999Z</time></trkpt><trkpt lat="43.26494114960308" lon="12.232628014361428"><ele>448.6666666666667</ele><time>2026-04-21T13:13:57.999Z</time></trkpt><trkpt lat="43.2649924442394" lon="12.232574650669745"><ele>446.83333333333337</ele><time>2026-04-21T13:13:58.999Z</time></trkpt><trkpt lat="43.265056603715784" lon="12.232476001714504"><ele>445.0</ele><time>2026-04-21T13:14:00.999Z</time></trkpt><trkpt lat="43.26506459181377" lon="12.232307316537609"><ele>443.6666666666667</ele><time>2026-04-21T13:14:02.999Z</time></trkpt><trkpt lat="43.26504229190856" lon="12.232198785427645"><ele>442.33333333333337</ele><time>2026-04-21T13:14:03.999Z</time></trkpt><trkpt lat="43.2650231140462" lon="12.232096041351472"><ele>441.0</ele><time>2026-04-21T13:14:04.999Z</time></trkpt><trkpt lat="43.26500961313489" lon="12.231991758899646"><ele>439.66666666666663</ele><time>2026-04-21T13:14:05.999Z</time></trkpt><trkpt lat="43.26500867731452" lon="12.231884419124746"><ele>438.3333333333333</ele><time>2026-04-21T13:14:06.999Z</time></trkpt><trkpt lat="43.26502425239353" lon="12.231773289145348"><ele>437.0</ele><time>2026-04-21T13:14:07.999Z</time></trkpt><trkpt lat="43.265060061147416" lon="12.23164406276889"><ele>437.0</ele><time>2026-04-21T13:14:08.999Z</time></trkpt><trkpt lat="43.265112030097434" lon="12.23152959901364"><ele>437.00000000000006</ele><time>2026-04-21T13:14:09.999Z</time></trkpt><trkpt lat="43.26516078827474" lon="12.231413431658348"><ele>437.00000000000006</ele><time>2026-04-21T13:14:10.999Z</time></trkpt><trkpt lat="43.26520703185223" lon="12.231309860433123"><ele>437.0</ele><time>2026-04-21T13:14:11.999Z</time></trkpt><trkpt lat="43.265243558400336" lon="12.231195556861593"><ele>437.0</ele><time>2026-04-21T13:14:12.999Z</time></trkpt><trkpt lat="43.26526659535723" lon="12.231062739694897"><ele>435.75</ele><time>2026-04-21T13:14:13.999Z</time></trkpt><trkpt lat="43.26527544769145" lon="12.230908739376998"><ele>434.5</ele><time>2026-04-21T13:14:14.999Z</time></trkpt><trkpt lat="43.265264696334576" lon="12.230736374378246"><ele>433.25</ele><time>2026-04-21T13:14:15.999Z</time></trkpt><trkpt lat="43.26527959902705" lon="12.230573920744739"><ele>432.0</ele><time>2026-04-21T13:14:16.999Z</time></trkpt><trkpt lat="43.265291251092385" lon="12.230426338567721"><ele>430.8</ele><time>2026-04-21T13:14:17.999Z</time></trkpt><trkpt lat="43.26533775169247" lon="12.230316037241414"><ele>429.6</ele><time>2026-04-21T13:14:18.999Z</time></trkpt><trkpt lat="43.26537341194913" lon="12.230218437405682"><ele>428.40000000000003</ele><time>2026-04-21T13:14:19.999Z</time></trkpt><trkpt lat="43.26545046144445" lon="12.230164502210348"><ele>427.20000000000005</ele><time>2026-04-21T13:14:20.999Z</time></trkpt><trkpt lat="43.26553587826937" lon="12.230101841129777"><ele>426.0</ele><time>2026-04-21T13:14:21.999Z</time></trkpt><trkpt lat="43.26562355184352" lon="12.230017686773918"><ele>422.6</ele><time>2026-04-21T13:14:22.999Z</time></trkpt><trkpt lat="43.265698602202654" lon="12.229931083107232"><ele>419.20000000000005</ele><time>2026-04-21T13:14:23.999Z</time></trkpt><trkpt lat="43.265760803424" lon="12.229828089386633"><ele>415.79999999999995</ele><time>2026-04-21T13:14:24.999Z</time></trkpt><trkpt lat="43.26580864005639" lon="12.229701961888525"><ele>412.4</ele><time>2026-04-21T13:14:25.999Z</time></trkpt><trkpt lat="43.265883099419625" lon="12.22962021240443"><ele>409.0</ele><time>2026-04-21T13:14:26.999Z</time></trkpt><trkpt lat="43.26595299673501" lon="12.229523243720395"><ele>408.2</ele><time>2026-04-21T13:14:27.999Z</time></trkpt><trkpt lat="43.266012568967575" lon="12.229413326722293"><ele>407.4</ele><time>2026-04-21T13:14:28.999Z</time></trkpt><trkpt lat="43.26605177279569" lon="12.22929053642336"><ele>406.6</ele><time>2026-04-21T13:14:29.999Z</time></trkpt><trkpt lat="43.26607562489637" lon="12.229170290251346"><ele>405.8</ele><time>2026-04-21T13:14:30.999Z</time></trkpt><trkpt lat="43.26606925094597" lon="12.229040819601591"><ele>405.0</ele><time>2026-04-21T13:14:31.999Z</time></trkpt><trkpt lat="43.26603773754442" lon="12.228919403957532"><ele>403.3333333333333</ele><time>2026-04-21T13:14:32.999Z</time></trkpt><trkpt lat="43.26597910852356" lon="12.22882310999161"><ele>401.66666666666663</ele><time>2026-04-21T13:14:33.999Z</time></trkpt><trkpt lat="43.265962029999514" lon="12.228717780925745"><ele>400.0</ele><time>2026-04-21T13:14:34.999Z</time></trkpt><trkpt lat="43.26597123167104" lon="12.228616817839876"><ele>398.3333333333333</ele><time>2026-04-21T13:14:36.999Z</time></trkpt><trkpt lat="43.2660681587756" lon="12.228552551852292"><ele>396.66666666666663</ele><time>2026-04-21T13:14:38.999Z</time></trkpt><trkpt lat="43.26611753405406" lon="12.228495308001909"><ele>395.0</ele><time>2026-04-21T13:14:39.999Z</time></trkpt><trkpt lat="43.26615724156191" lon="12.228419112898182"><ele>394.99999999999994</ele><time>2026-04-21T13:14:40.999Z</time></trkpt><trkpt lat="43.26618444232437" lon="12.228328800920254"><ele>395.0</ele><time>2026-04-21T13:14:41.999Z</time></trkpt><trkpt lat="43.2661798109706" lon="12.228227571592289"><ele>395.0</ele><time>2026-04-21T13:14:42.999Z</time></trkpt><trkpt lat="43.26613588471461" lon="12.228118903656219"><ele>395.0</ele><time>2026-04-21T13:14:43.999Z</time></trkpt><trkpt lat="43.26609871290109" lon="12.228019481700517"><ele>394.99999999999994</ele><time>2026-04-21T13:14:44.999Z</time></trkpt><trkpt lat="43.26605266515106" lon="12.22790521827214"><ele>395.0</ele><time>2026-04-21T13:14:45.999Z</time></trkpt><trkpt lat="43.26607315099523" lon="12.227766825457463"><ele>393.0</ele><time>2026-04-21T13:14:46.999Z</time></trkpt><trkpt lat="43.266068287293656" lon="12.227619302987804"><ele>391.0</ele><time>2026-04-21T13:14:47.999Z</time></trkpt><trkpt lat="43.26610925590242" lon="12.22746381759457"><ele>389.0</ele><time>2026-04-21T13:14:48.999Z</time></trkpt><trkpt lat="43.26611331906128" lon="12.227307997837016"><ele>387.0</ele><time>2026-04-21T13:14:49.999Z</time></trkpt><trkpt lat="43.26618823000565" lon="12.227163031170623"><ele>384.5</ele><time>2026-04-21T13:14:50.999Z</time></trkpt><trkpt lat="43.26621407481807" lon="12.227031086019633"><ele>382.0</ele><time>2026-04-21T13:14:51.999Z</time></trkpt><trkpt lat="43.26623179754644" lon="12.226907030650784"><ele>379.5</ele><time>2026-04-21T13:14:52.999Z</time></trkpt><trkpt lat="43.26626054891647" lon="12.22679286193907"><ele>377.0</ele><time>2026-04-21T13:14:53.999Z</time></trkpt><trkpt lat="43.26630576926245" lon="12.22671342558152"><ele>374.5</ele><time>2026-04-21T13:14:54.999Z</time></trkpt><trkpt lat="43.26637548848727" lon="12.226665653688242"><ele>372.0</ele><time>2026-04-21T13:14:55.999Z</time></trkpt><trkpt lat="43.26645469038476" lon="12.226647911855828"><ele>370.3333333333333</ele><time>2026-04-21T13:14:56.999Z</time></trkpt><trkpt lat="43.26652753088218" lon="12.226611509593418"><ele>368.6666666666667</ele><time>2026-04-21T13:14:57.999Z</time></trkpt><trkpt lat="43.26658848577241" lon="12.22656173499272"><ele>367.0</ele><time>2026-04-21T13:14:58.999Z</time></trkpt><trkpt lat="43.266629828608906" lon="12.226480833437424"><ele>365.33333333333337</ele><time>2026-04-21T13:14:59.999Z</time></trkpt><trkpt lat="43.26666433024866" lon="12.226364179570352"><ele>363.6666666666667</ele><time>2026-04-21T13:15:00.999Z</time></trkpt><trkpt lat="43.266683738162655" lon="12.226239637371686"><ele>362.0</ele><time>2026-04-21T13:15:01.999Z</time></trkpt><trkpt lat="43.266715091126514" lon="12.226109554593195"><ele>360.5</ele><time>2026-04-21T13:15:02.999Z</time></trkpt><trkpt lat="43.26673541702357" lon="12.22599292229434"><ele>359.0</ele><time>2026-04-21T13:15:03.999Z</time></trkpt><trkpt lat="43.26674530033814" lon="12.225898135608203"><ele>357.5</ele><time>2026-04-21T13:15:04.999Z</time></trkpt><trkpt lat="43.266710233631336" lon="12.225754174681795"><ele>356.0</ele><time>2026-04-21T13:15:06.999Z</time></trkpt><trkpt lat="43.266654261717704" lon="12.225696942729334"><ele>354.5</ele><time>2026-04-21T13:15:07.999Z</time></trkpt><trkpt lat="43.266600988451565" lon="12.225631220863661"><ele>353.0</ele><time>2026-04-21T13:15:08.999Z</time></trkpt><trkpt lat="43.26657589098391" lon="12.225540747549498"><ele>351.6666666666667</ele><time>2026-04-21T13:15:09.999Z</time></trkpt><trkpt lat="43.26659033766729" lon="12.225438419327272"><ele>350.33333333333337</ele><time>2026-04-21T13:15:10.999Z</time></trkpt><trkpt lat="43.26660132365951" lon="12.22531844549932"><ele>349.0</ele><time>2026-04-21T13:15:11.999Z</time></trkpt><trkpt lat="43.26657599903076" lon="12.225211927787877"><ele>347.6666666666667</ele><time>2026-04-21T13:15:12.999Z</time></trkpt><trkpt lat="43.266527409462334" lon="12.225121078961168"><ele>346.3333333333333</ele><time>2026-04-21T13:15:13.999Z</time></trkpt><trkpt lat="43.266469699996705" lon="12.225036970080698"><ele>345.0</ele><time>2026-04-21T13:15:14.999Z</time></trkpt><trkpt lat="43.26640403912256" lon="12.224987505655818"><ele>345.0</ele><time>2026-04-21T13:15:15.999Z</time></trkpt><trkpt lat="43.26632946903439" lon="12.224962974144837"><ele>345.0</ele><time>2026-04-21T13:15:16.999Z</time></trkpt><trkpt lat="43.266235721299324" lon="12.22493916045617"><ele>345.0</ele><time>2026-04-21T13:15:18.999Z</time></trkpt><trkpt lat="43.26623285372949" lon="12.22480198791968"><ele>345.0</ele><time>2026-04-21T13:15:20.999Z</time></trkpt><trkpt lat="43.26628379168755" lon="12.224738972353933"><ele>345.0</ele><time>2026-04-21T13:15:21.999Z</time></trkpt><trkpt lat="43.266358972634315" lon="12.224656799493207"><ele>345.0</ele><time>2026-04-21T13:15:22.999Z</time></trkpt><trkpt lat="43.266445224108246" lon="12.224551192225992"><ele>342.25</ele><time>2026-04-21T13:15:23.999Z</time></trkpt><trkpt lat="43.2665347054389" lon="12.224426850003418"><ele>339.5</ele><time>2026-04-21T13:15:24.999Z</time></trkpt><trkpt lat="43.2666091710594" lon="12.224306382436575"><ele>336.75</ele><time>2026-04-21T13:15:25.999Z</time></trkpt><trkpt lat="43.266676029357896" lon="12.224187352374914"><ele>334.0</ele><time>2026-04-21T13:15:26.999Z</time></trkpt><trkpt lat="43.26672969003485" lon="12.224047478772984"><ele>333.25</ele><time>2026-04-21T13:15:27.999Z</time></trkpt><trkpt lat="43.266779055809664" lon="12.223888180097454"><ele>332.5</ele><time>2026-04-21T13:15:28.999Z</time></trkpt><trkpt lat="43.26682833307373" lon="12.22372161839402"><ele>331.75</ele><time>2026-04-21T13:15:29.999Z</time></trkpt><trkpt lat="43.266875021775896" lon="12.223558519492986"><ele>331.0</ele><time>2026-04-21T13:15:30.999Z</time></trkpt><trkpt lat="43.266922731588735" lon="12.223410599107039"><ele>331.0</ele><time>2026-04-21T13:15:31.999Z</time></trkpt><trkpt lat="43.26698201682895" lon="12.223279714499434"><ele>331.0</ele><time>2026-04-21T13:15:32.999Z</time></trkpt><trkpt lat="43.26704701798983" lon="12.223154289362846"><ele>331.0</ele><time>2026-04-21T13:15:33.999Z</time></trkpt><trkpt lat="43.26710666580242" lon="12.223030498964906"><ele>331.0</ele><time>2026-04-21T13:15:34.999Z</time></trkpt><trkpt lat="43.26716262771077" lon="12.22290741481573"><ele>331.0</ele><time>2026-04-21T13:15:35.999Z</time></trkpt><trkpt lat="43.267217950816544" lon="12.222780474460189"><ele>331.4</ele><time>2026-04-21T13:15:36.999Z</time></trkpt><trkpt lat="43.267272324225324" lon="12.222645696978592"><ele>331.8</ele><time>2026-04-21T13:15:37.999Z</time></trkpt><trkpt lat="43.2673265236914" lon="12.222513440456796"><ele>332.2</ele><time>2026-04-21T13:15:38.999Z</time></trkpt><trkpt lat="43.26737775863912" lon="12.222374238073929"><ele>332.59999999999997</ele><time>2026-04-21T13:15:39.999Z</time></trkpt><trkpt lat="43.26741288196426" lon="12.222237235414546"><ele>333.0</ele><time>2026-04-21T13:15:40.999Z</time></trkpt><trkpt lat="43.26745535839919" lon="12.222086982046307"><ele>330.75</ele><time>2026-04-21T13:15:41.999Z</time></trkpt><trkpt lat="43.267477159291566" lon="12.221946471468103"><ele>328.5</ele><time>2026-04-21T13:15:42.999Z</time></trkpt><trkpt lat="43.26750128042399" lon="12.221802845880084"><ele>326.25</ele><time>2026-04-21T13:15:43.999Z</time></trkpt><trkpt lat="43.26753453152144" lon="12.221649055626981"><ele>324.0</ele><time>2026-04-21T13:15:44.999Z</time></trkpt><trkpt lat="43.267566234565145" lon="12.221488311532152"><ele>324.5</ele><time>2026-04-21T13:15:45.999Z</time></trkpt><trkpt lat="43.26759092666786" lon="12.221324143994446"><ele>325.0</ele><time>2026-04-21T13:15:46.999Z</time></trkpt><trkpt lat="43.267613496590286" lon="12.221157730034491"><ele>325.5</ele><time>2026-04-21T13:15:47.999Z</time></trkpt><trkpt lat="43.26762180364249" lon="12.220990948915142"><ele>326.0</ele><time>2026-04-21T13:15:48.999Z</time></trkpt><trkpt lat="43.267613735367206" lon="12.220821667114288"><ele>326.0</ele><time>2026-04-21T13:15:49.999Z</time></trkpt><trkpt lat="43.26759062942902" lon="12.220650732395047"><ele>326.0</ele><time>2026-04-21T13:15:50.999Z</time></trkpt><trkpt lat="43.26754814915711" lon="12.220478636196983"><ele>326.0</ele><time>2026-04-21T13:15:51.999Z</time></trkpt><trkpt lat="43.26749625170178" lon="12.220313459129313"><ele>326.0</ele><time>2026-04-21T13:15:52.999Z</time></trkpt><trkpt lat="43.26743378417949" lon="12.22015916652794"><ele>327.25</ele><time>2026-04-21T13:15:53.999Z</time></trkpt><trkpt lat="43.26736353446378" lon="12.220016378762905"><ele>328.5</ele><time>2026-04-21T13:15:54.999Z</time></trkpt><trkpt lat="43.26728622361791" lon="12.219872235102574"><ele>329.75</ele><time>2026-04-21T13:15:55.999Z</time></trkpt><trkpt lat="43.26719772742061" lon="12.219727453010936"><ele>331.0</ele><time>2026-04-21T13:15:56.999Z</time></trkpt><trkpt lat="43.26710907269978" lon="12.219583991120508"><ele>328.5</ele><time>2026-04-21T13:15:57.999Z</time></trkpt><trkpt lat="43.267017957305" lon="12.219440471209793"><ele>326.0</ele><time>2026-04-21T13:15:58.999Z</time></trkpt><trkpt lat="43.26692558667649" lon="12.219298590364449"><ele>323.5</ele><time>2026-04-21T13:15:59.999Z</time></trkpt><trkpt lat="43.266832035524345" lon="12.21915240620397"><ele>321.0</ele><time>2026-04-21T13:16:00.999Z</time></trkpt><trkpt lat="43.266740817666644" lon="12.219007157172074"><ele>319.75</ele><time>2026-04-21T13:16:01.999Z</time></trkpt><trkpt lat="43.266652296337035" lon="12.218864912361184"><ele>318.5</ele><time>2026-04-21T13:16:02.999Z</time></trkpt><trkpt lat="43.26656486724634" lon="12.218724159978468"><ele>317.25</ele><time>2026-04-21T13:16:03.999Z</time></trkpt><trkpt lat="43.26647816625129" lon="12.218592983054998"><ele>316.0</ele><time>2026-04-21T13:16:04.999Z</time></trkpt><trkpt lat="43.26639291398163" lon="12.21845934259664"><ele>316.0</ele><time>2026-04-21T13:16:05.999Z</time></trkpt><trkpt lat="43.26630533429471" lon="12.21832216307542"><ele>316.0</ele><time>2026-04-21T13:16:06.999Z</time></trkpt><trkpt lat="43.266211862183965" lon="12.218200058366994"><ele>316.0</ele><time>2026-04-21T13:16:07.999Z</time></trkpt><trkpt lat="43.26611315144334" lon="12.218087251129585"><ele>316.0</ele><time>2026-04-21T13:16:08.999Z</time></trkpt><trkpt lat="43.26600768041362" lon="12.217991464153478"><ele>314.75</ele><time>2026-04-21T13:16:09.999Z</time></trkpt><trkpt lat="43.26589345773614" lon="12.217907255686468"><ele>313.5</ele><time>2026-04-21T13:16:10.999Z</time></trkpt><trkpt lat="43.26577528311786" lon="12.217824936720733"><ele>312.25</ele><time>2026-04-21T13:16:11.999Z</time></trkpt><trkpt lat="43.26566024167803" lon="12.217735765023642"><ele>311.0</ele><time>2026-04-21T13:16:12.999Z</time></trkpt><trkpt lat="43.265556533187414" lon="12.21763318957928"><ele>311.0</ele><time>2026-04-21T13:16:13.999Z</time></trkpt><trkpt lat="43.26545962385468" lon="12.217538408024602"><ele>311.0</ele><time>2026-04-21T13:16:14.999Z</time></trkpt><trkpt lat="43.26537295344984" lon="12.21745223059288"><ele>311.0</ele><time>2026-04-21T13:16:15.999Z</time></trkpt><trkpt lat="43.265296490742244" lon="12.217358580183467"><ele>311.0</ele><time>2026-04-21T13:16:16.999Z</time></trkpt><trkpt lat="43.26525771536395" lon="12.217248526706973"><ele>311.0</ele><time>2026-04-21T13:16:17.999Z</time></trkpt><trkpt lat="43.26521887672897" lon="12.21711133047405"><ele>310.8</ele><time>2026-04-21T13:16:18.999Z</time></trkpt><trkpt lat="43.26518849318853" lon="12.216971286686595"><ele>310.6</ele><time>2026-04-21T13:16:19.999Z</time></trkpt><trkpt lat="43.265182502852234" lon="12.216853272830578"><ele>310.4</ele><time>2026-04-21T13:16:20.999Z</time></trkpt><trkpt lat="43.265207755900626" lon="12.216733691501956"><ele>310.2</ele><time>2026-04-21T13:16:21.999Z</time></trkpt><trkpt lat="43.265252603389065" lon="12.216602506981014"><ele>310.0</ele><time>2026-04-21T13:16:22.999Z</time></trkpt><trkpt lat="43.26530283656114" lon="12.216453665281485"><ele>309.25</ele><time>2026-04-21T13:16:23.999Z</time></trkpt><trkpt lat="43.26535244629364" lon="12.216294163973116"><ele>308.5</ele><time>2026-04-21T13:16:24.999Z</time></trkpt><trkpt lat="43.26539729797184" lon="12.216131100695183"><ele>307.75</ele><time>2026-04-21T13:16:25.999Z</time></trkpt><trkpt lat="43.265455422055986" lon="12.21597410130122"><ele>307.0</ele><time>2026-04-21T13:16:26.999Z</time></trkpt><trkpt lat="43.26552196087411" lon="12.215821003243542"><ele>307.0</ele><time>2026-04-21T13:16:27.999Z</time></trkpt><trkpt lat="43.26558852579339" lon="12.215675114103785"><ele>307.0</ele><time>2026-04-21T13:16:28.999Z</time></trkpt><trkpt lat="43.26565788320868" lon="12.215521620181441"><ele>307.0</ele><time>2026-04-21T13:16:29.999Z</time></trkpt><trkpt lat="43.265732129076994" lon="12.215363231832306"><ele>307.0</ele><time>2026-04-21T13:16:30.999Z</time></trkpt><trkpt lat="43.265803544633826" lon="12.215199507589016"><ele>307.0</ele><time>2026-04-21T13:16:31.999Z</time></trkpt><trkpt lat="43.26586721129903" lon="12.215028243608256"><ele>307.0</ele><time>2026-04-21T13:16:32.999Z</time></trkpt><trkpt lat="43.26593397844353" lon="12.214859068921022"><ele>307.0</ele><time>2026-04-21T13:16:33.999Z</time></trkpt><trkpt lat="43.26600240324562" lon="12.214692190131256"><ele>307.0</ele><time>2026-04-21T13:16:34.999Z</time></trkpt><trkpt lat="43.266069267448565" lon="12.214534781167893"><ele>306.0</ele><time>2026-04-21T13:16:35.999Z</time></trkpt><trkpt lat="43.26613941133654" lon="12.21437282418684"><ele>305.0</ele><time>2026-04-21T13:16:36.999Z</time></trkpt><trkpt lat="43.26620892841776" lon="12.214214877600957"><ele>304.0</ele><time>2026-04-21T13:16:37.999Z</time></trkpt><trkpt lat="43.26628060483555" lon="12.214057421270759"><ele>303.0</ele><time>2026-04-21T13:16:38.999Z</time></trkpt><trkpt lat="43.26634565507052" lon="12.213905401850331"><ele>303.0</ele><time>2026-04-21T13:16:39.999Z</time></trkpt><trkpt lat="43.26641034051779" lon="12.213768076069998"><ele>303.0</ele><time>2026-04-21T13:16:40.999Z</time></trkpt><trkpt lat="43.26648147281081" lon="12.213665399772982"><ele>303.0</ele><time>2026-04-21T13:16:41.999Z</time></trkpt><trkpt lat="43.26655832786183" lon="12.21362244036977"><ele>303.0</ele><time>2026-04-21T13:16:42.999Z</time></trkpt><trkpt lat="43.266628043473965" lon="12.213627887098136"><ele>303.0</ele><time>2026-04-21T13:16:43.999Z</time></trkpt><trkpt lat="43.26668901831869" lon="12.213668749974776"><ele>303.0</ele><time>2026-04-21T13:16:44.999Z</time></trkpt><trkpt lat="43.26675497634451" lon="12.213728447372814"><ele>302.8333333333333</ele><time>2026-04-21T13:16:45.999Z</time></trkpt><trkpt lat="43.26683362625945" lon="12.213782719589217"><ele>302.6666666666667</ele><time>2026-04-21T13:16:46.999Z</time></trkpt><trkpt lat="43.266924315110906" lon="12.213809290867252"><ele>302.5</ele><time>2026-04-21T13:16:47.999Z</time></trkpt><trkpt lat="43.267004045325805" lon="12.213785380792535"><ele>302.33333333333337</ele><time>2026-04-21T13:16:48.999Z</time></trkpt><trkpt lat="43.267044519946545" lon="12.213703011432555"><ele>302.1666666666667</ele><time>2026-04-21T13:16:49.999Z</time></trkpt><trkpt lat="43.26706467923352" lon="12.213609509776157"><ele>302.0</ele><time>2026-04-21T13:16:50.999Z</time></trkpt><trkpt lat="43.26706930963434" lon="12.213507624906732"><ele>302.0</ele><time>2026-04-21T13:16:51.999Z</time></trkpt><trkpt lat="43.26707345273768" lon="12.213382817155729"><ele>302.0</ele><time>2026-04-21T13:16:52.999Z</time></trkpt><trkpt lat="43.26708739871474" lon="12.213240556267504"><ele>302.0</ele><time>2026-04-21T13:16:53.999Z</time></trkpt><trkpt lat="43.26710689637395" lon="12.213086836542127"><ele>302.0</ele><time>2026-04-21T13:16:54.999Z</time></trkpt><trkpt lat="43.267133831875704" lon="12.21292514389784"><ele>302.0</ele><time>2026-04-21T13:16:55.999Z</time></trkpt><trkpt lat="43.26716606954366" lon="12.21278550961307"><ele>302.2</ele><time>2026-04-21T13:16:56.999Z</time></trkpt><trkpt lat="43.26721013520886" lon="12.212668098395653"><ele>302.4</ele><time>2026-04-21T13:16:57.999Z</time></trkpt><trkpt lat="43.26726118390683" lon="12.212567485864346"><ele>302.6</ele><time>2026-04-21T13:16:58.999Z</time></trkpt><trkpt lat="43.26733368704265" lon="12.212463549135034"><ele>302.8</ele><time>2026-04-21T13:16:59.999Z</time></trkpt><trkpt lat="43.26742896598744" lon="12.212372709752948"><ele>303.0</ele><time>2026-04-21T13:17:00.999Z</time></trkpt><trkpt lat="43.26753571900697" lon="12.2122761801864"><ele>302.2</ele><time>2026-04-21T13:17:01.999Z</time></trkpt><trkpt lat="43.267638897349954" lon="12.212169219231003"><ele>301.4</ele><time>2026-04-21T13:17:02.999Z</time></trkpt><trkpt lat="43.2677350899416" lon="12.212078414392778"><ele>300.59999999999997</ele><time>2026-04-21T13:17:03.999Z</time></trkpt><trkpt lat="43.26781539236628" lon="12.212005327053818"><ele>299.8</ele><time>2026-04-21T13:17:04.999Z</time></trkpt><trkpt lat="43.26787321489244" lon="12.211918054978563"><ele>299.0</ele><time>2026-04-21T13:17:05.999Z</time></trkpt><trkpt lat="43.26791708841223" lon="12.211816535720455"><ele>299.0</ele><time>2026-04-21T13:17:06.999Z</time></trkpt><trkpt lat="43.267922982875525" lon="12.21171339657364"><ele>299.0</ele><time>2026-04-21T13:17:07.999Z</time></trkpt><trkpt lat="43.267914538653386" lon="12.211597989117134"><ele>299.0</ele><time>2026-04-21T13:17:08.999Z</time></trkpt><trkpt lat="43.26792248878255" lon="12.211487702367469"><ele>299.0</ele><time>2026-04-21T13:17:09.999Z</time></trkpt><trkpt lat="43.26794728786402" lon="12.21138336506953"><ele>299.0</ele><time>2026-04-21T13:17:10.999Z</time></trkpt><trkpt lat="43.26799457100961" lon="12.21129562688778"><ele>299.0</ele><time>2026-04-21T13:17:11.999Z</time></trkpt><trkpt lat="43.26805872164268" lon="12.211211862296631"><ele>299.25</ele><time>2026-04-21T13:17:12.999Z</time></trkpt><trkpt lat="43.268130401878516" lon="12.211116691629895"><ele>299.5</ele><time>2026-04-21T13:17:13.999Z</time></trkpt><trkpt lat="43.26819249408094" lon="12.210983968839894"><ele>299.75</ele><time>2026-04-21T13:17:14.999Z</time></trkpt><trkpt lat="43.268248271521244" lon="12.21082464006342"><ele>300.0</ele><time>2026-04-21T13:17:15.999Z</time></trkpt><trkpt lat="43.26828326344108" lon="12.210648873523208"><ele>300.0</ele><time>2026-04-21T13:17:16.999Z</time></trkpt><trkpt lat="43.26830729696568" lon="12.210461273010209"><ele>300.0</ele><time>2026-04-21T13:17:17.999Z</time></trkpt><trkpt lat="43.2683361817051" lon="12.210273414525124"><ele>300.0</ele><time>2026-04-21T13:17:18.999Z</time></trkpt><trkpt lat="43.26837517578824" lon="12.210090596372904"><ele>300.0</ele><time>2026-04-21T13:17:19.999Z</time></trkpt><trkpt lat="43.268414300451575" lon="12.209919274325811"><ele>298.8</ele><time>2026-04-21T13:17:20.999Z</time></trkpt><trkpt lat="43.26845604015135" lon="12.209763737054772"><ele>297.6</ele><time>2026-04-21T13:17:21.999Z</time></trkpt><trkpt lat="43.26849981330839" lon="12.209619450485691"><ele>296.4</ele><time>2026-04-21T13:17:22.999Z</time></trkpt><trkpt lat="43.26854810985379" lon="12.209489772744421"><ele>295.2</ele><time>2026-04-21T13:17:23.999Z</time></trkpt><trkpt lat="43.26860412696723" lon="12.209373112023915"><ele>294.0</ele><time>2026-04-21T13:17:24.999Z</time></trkpt><trkpt lat="43.26867359048377" lon="12.209267037787402"><ele>294.0</ele><time>2026-04-21T13:17:25.999Z</time></trkpt><trkpt lat="43.26876113106375" lon="12.209173586523445"><ele>294.0</ele><time>2026-04-21T13:17:26.999Z</time></trkpt><trkpt lat="43.268853473185516" lon="12.20907287396971"><ele>294.0</ele><time>2026-04-21T13:17:27.999Z</time></trkpt><trkpt lat="43.26894132854078" lon="12.208957805600061"><ele>294.0</ele><time>2026-04-21T13:17:28.999Z</time></trkpt><trkpt lat="43.269015218035975" lon="12.208813736942336"><ele>295.0</ele><time>2026-04-21T13:17:30Z</time></trkpt><trkpt lat="43.269071745817726" lon="12.20865539706675"><ele>296.0</ele><time>2026-04-21T13:17:31Z</time></trkpt><trkpt lat="43.2691090037536" lon="12.208487942983828"><ele>297.0</ele><time>2026-04-21T13:17:32Z</time></trkpt><trkpt lat="43.2691423898369" lon="12.208327937590617"><ele>298.0</ele><time>2026-04-21T13:17:33Z</time></trkpt><trkpt lat="43.26917931087525" lon="12.20817559674573"><ele>296.6</ele><time>2026-04-21T13:17:34Z</time></trkpt><trkpt lat="43.269226981558155" lon="12.20803306320349"><ele>295.20000000000005</ele><time>2026-04-21T13:17:35Z</time></trkpt><trkpt lat="43.269284622719205" lon="12.207904117616495"><ele>293.8</ele><time>2026-04-21T13:17:36Z</time></trkpt><trkpt lat="43.269336733588474" lon="12.207776746553433"><ele>292.40000000000003</ele><time>2026-04-21T13:17:37Z</time></trkpt><trkpt lat="43.26939058635572" lon="12.207658457031267"><ele>291.0</ele><time>2026-04-21T13:17:38Z</time></trkpt><trkpt lat="43.269456934784685" lon="12.207546279877583"><ele>291.0</ele><time>2026-04-21T13:17:39Z</time></trkpt><trkpt lat="43.26953824158491" lon="12.20744040294052"><ele>291.0</ele><time>2026-04-21T13:17:40Z</time></trkpt><trkpt lat="43.269633022583626" lon="12.207335777365008"><ele>291.0</ele><time>2026-04-21T13:17:41Z</time></trkpt><trkpt lat="43.26974284154265" lon="12.20723907348393"><ele>291.0</ele><time>2026-04-21T13:17:42Z</time></trkpt><trkpt lat="43.26985243449609" lon="12.207160470942316"><ele>290.40000000000003</ele><time>2026-04-21T13:17:43Z</time></trkpt><trkpt lat="43.2699393688916" lon="12.2070965760516"><ele>289.8</ele><time>2026-04-21T13:17:44Z</time></trkpt><trkpt lat="43.27001236598569" lon="12.207045602558251"><ele>289.20000000000005</ele><time>2026-04-21T13:17:45Z</time></trkpt><trkpt lat="43.27013543265069" lon="12.207080538228098"><ele>288.6</ele><time>2026-04-21T13:17:47Z</time></trkpt><trkpt lat="43.270228786134595" lon="12.20714111097006"><ele>288.0</ele><time>2026-04-21T13:17:48Z</time></trkpt><trkpt lat="43.2703372043606" lon="12.207217737353945"><ele>288.0</ele><time>2026-04-21T13:17:49Z</time></trkpt><trkpt lat="43.270447025805474" lon="12.207248730195444"><ele>288.0</ele><time>2026-04-21T13:17:50Z</time></trkpt><trkpt lat="43.27054117196115" lon="12.207247699696106"><ele>288.0</ele><time>2026-04-21T13:17:51Z</time></trkpt><trkpt lat="43.27061206860854" lon="12.207244858581282"><ele>288.0</ele><time>2026-04-21T13:17:52Z</time></trkpt><trkpt lat="43.270728846651906" lon="12.20726786220578"><ele>288.0</ele><time>2026-04-21T13:17:54Z</time></trkpt><trkpt lat="43.270794168318034" lon="12.20730169812565"><ele>290.0</ele><time>2026-04-21T13:17:55Z</time></trkpt><trkpt lat="43.27086219104484" lon="12.207356735509167"><ele>292.0</ele><time>2026-04-21T13:17:56Z</time></trkpt><trkpt lat="43.27094494069947" lon="12.207426174536286"><ele>294.0</ele><time>2026-04-21T13:17:57Z</time></trkpt><trkpt lat="43.271042615293965" lon="12.20747597639461"><ele>296.0</ele><time>2026-04-21T13:17:58Z</time></trkpt><trkpt lat="43.27116064826298" lon="12.207483620844743"><ele>298.0</ele><time>2026-04-21T13:17:59Z</time></trkpt><trkpt lat="43.27128464558105" lon="12.20743583999857"><ele>298.0</ele><time>2026-04-21T13:18:00Z</time></trkpt><trkpt lat="43.27141071050789" lon="12.207345222396565"><ele>298.0</ele><time>2026-04-21T13:18:01Z</time></trkpt><trkpt lat="43.271539824504536" lon="12.20724633325373"><ele>298.0</ele><time>2026-04-21T13:18:02Z</time></trkpt><trkpt lat="43.271663702573754" lon="12.207158187616555"><ele>298.0</ele><time>2026-04-21T13:18:03Z</time></trkpt><trkpt lat="43.27179366985321" lon="12.207074196311224"><ele>296.75</ele><time>2026-04-21T13:18:04Z</time></trkpt><trkpt lat="43.27192156782432" lon="12.206995453714153"><ele>295.5</ele><time>2026-04-21T13:18:05Z</time></trkpt><trkpt lat="43.2720542578436" lon="12.206936777072622"><ele>294.25</ele><time>2026-04-21T13:18:06Z</time></trkpt><trkpt lat="43.27219619139722" lon="12.206896156875343"><ele>293.0</ele><time>2026-04-21T13:18:07Z</time></trkpt><trkpt lat="43.27233811589287" lon="12.206872170185768"><ele>293.0</ele><time>2026-04-21T13:18:08Z</time></trkpt><trkpt lat="43.27248392801381" lon="12.206857938009163"><ele>293.0</ele><time>2026-04-21T13:18:09Z</time></trkpt><trkpt lat="43.27263395184092" lon="12.206860695545032"><ele>293.0</ele><time>2026-04-21T13:18:10Z</time></trkpt><trkpt lat="43.27278301029478" lon="12.206897437783972"><ele>293.0</ele><time>2026-04-21T13:18:11Z</time></trkpt><trkpt lat="43.272929563519796" lon="12.206956295345094"><ele>293.0</ele><time>2026-04-21T13:18:12Z</time></trkpt><trkpt lat="43.273081684101086" lon="12.20701711916517"><ele>293.0</ele><time>2026-04-21T13:18:13Z</time></trkpt><trkpt lat="43.27322599284163" lon="12.207075169710858"><ele>293.0</ele><time>2026-04-21T13:18:14Z</time></trkpt><trkpt lat="43.27336070101199" lon="12.207152075498072"><ele>291.0</ele><time>2026-04-21T13:18:15Z</time></trkpt><trkpt lat="43.273490503662494" lon="12.207273540377752"><ele>289.0</ele><time>2026-04-21T13:18:16Z</time></trkpt><trkpt lat="43.27361771809517" lon="12.207416330546327"><ele>287.0</ele><time>2026-04-21T13:18:16.999Z</time></trkpt><trkpt lat="43.273746761593614" lon="12.207553492738723"><ele>287.0</ele><time>2026-04-21T13:18:17.999Z</time></trkpt><trkpt lat="43.273879730312224" lon="12.207690618165206"><ele>287.0</ele><time>2026-04-21T13:18:18.999Z</time></trkpt><trkpt lat="43.274007426911105" lon="12.207825834429785"><ele>287.0</ele><time>2026-04-21T13:18:19.999Z</time></trkpt><trkpt lat="43.27412411520161" lon="12.207946561857806"><ele>287.0</ele><time>2026-04-21T13:18:20.999Z</time></trkpt><trkpt lat="43.27422886856039" lon="12.208092077159924"><ele>287.0</ele><time>2026-04-21T13:18:21.999Z</time></trkpt><trkpt lat="43.274331595940275" lon="12.208246121109946"><ele>287.0</ele><time>2026-04-21T13:18:22.999Z</time></trkpt><trkpt lat="43.27442025870145" lon="12.208411099589833"><ele>290.25</ele><time>2026-04-21T13:18:23.999Z</time></trkpt><trkpt lat="43.27449243862749" lon="12.208579774279404"><ele>293.5</ele><time>2026-04-21T13:18:24.999Z</time></trkpt><trkpt lat="43.27454409118552" lon="12.208749391127085"><ele>296.75</ele><time>2026-04-21T13:18:25.999Z</time></trkpt><trkpt lat="43.27457973357979" lon="12.208927998717268"><ele>300.0</ele><time>2026-04-21T13:18:26.999Z</time></trkpt><trkpt lat="43.274577154438504" lon="12.209102253916823"><ele>303.0</ele><time>2026-04-21T13:18:27.999Z</time></trkpt><trkpt lat="43.27455224128326" lon="12.209294501098391"><ele>306.0</ele><time>2026-04-21T13:18:28.999Z</time></trkpt><trkpt lat="43.27452558266862" lon="12.209494269733606"><ele>309.0</ele><time>2026-04-21T13:18:29.999Z</time></trkpt><trkpt lat="43.27450207806195" lon="12.20968665859003"><ele>312.0</ele><time>2026-04-21T13:18:30.999Z</time></trkpt><trkpt lat="43.27448583544889" lon="12.209867896921548"><ele>312.25</ele><time>2026-04-21T13:18:31.999Z</time></trkpt><trkpt lat="43.27447921069072" lon="12.210046761434405"><ele>312.5</ele><time>2026-04-21T13:18:32.999Z</time></trkpt><trkpt lat="43.27449336146771" lon="12.21022043737779"><ele>312.75</ele><time>2026-04-21T13:18:33.999Z</time></trkpt><trkpt lat="43.27452960215789" lon="12.210385654718182"><ele>313.0</ele><time>2026-04-21T13:18:34.999Z</time></trkpt><trkpt lat="43.27459465162396" lon="12.210527142076863"><ele>313.0</ele><time>2026-04-21T13:18:35.999Z</time></trkpt><trkpt lat="43.274693524223046" lon="12.210638422097398"><ele>313.0</ele><time>2026-04-21T13:18:36.999Z</time></trkpt><trkpt lat="43.27481327409333" lon="12.210727232107793"><ele>313.0</ele><time>2026-04-21T13:18:37.999Z</time></trkpt><trkpt lat="43.274948795926576" lon="12.210795994457275"><ele>313.0</ele><time>2026-04-21T13:18:38.999Z</time></trkpt><trkpt lat="43.2750841269424" lon="12.21084040487759"><ele>308.0</ele><time>2026-04-21T13:18:39.999Z</time></trkpt><trkpt lat="43.27522485073039" lon="12.2108515408884"><ele>303.0</ele><time>2026-04-21T13:18:40.999Z</time></trkpt><trkpt lat="43.27536502926393" lon="12.210814110932175"><ele>298.0</ele><time>2026-04-21T13:18:41.999Z</time></trkpt><trkpt lat="43.27548789038291" lon="12.210766280523545"><ele>293.0</ele><time>2026-04-21T13:18:42.999Z</time></trkpt><trkpt lat="43.27560168610454" lon="12.210729972706057"><ele>293.1666666666667</ele><time>2026-04-21T13:18:43.999Z</time></trkpt><trkpt lat="43.275695586352676" lon="12.210730782210403"><ele>293.33333333333337</ele><time>2026-04-21T13:18:44.999Z</time></trkpt><trkpt lat="43.27576539853423" lon="12.21076336118964"><ele>293.5</ele><time>2026-04-21T13:18:45.999Z</time></trkpt><trkpt lat="43.27581796340588" lon="12.21081266427903"><ele>293.6666666666667</ele><time>2026-04-21T13:18:46.999Z</time></trkpt><trkpt lat="43.275847099312216" lon="12.210734933461568"><ele>293.8333333333333</ele><time>2026-04-21T13:18:50.999Z</time></trkpt><trkpt lat="43.27575383357813" lon="12.21067555666413"><ele>294.0</ele><time>2026-04-21T13:18:52.999Z</time></trkpt><trkpt lat="43.275637822062386" lon="12.210703831200163"><ele>293.8333333333333</ele><time>2026-04-21T13:18:53.999Z</time></trkpt><trkpt lat="43.27556901478319" lon="12.21070894732244"><ele>293.6666666666667</ele><time>2026-04-21T13:18:54.999Z</time></trkpt><trkpt lat="43.27550267455374" lon="12.210684323915917"><ele>293.5</ele><time>2026-04-21T13:18:56.999Z</time></trkpt><trkpt lat="43.27548442686256" lon="12.210564783056768"><ele>293.33333333333337</ele><time>2026-04-21T13:18:58.999Z</time></trkpt><trkpt lat="43.27549639528365" lon="12.210460042510443"><ele>293.1666666666667</ele><time>2026-04-21T13:18:59.999Z</time></trkpt><trkpt lat="43.27556727967361" lon="12.210354912722718"><ele>293.0</ele><time>2026-04-21T13:19:00.999Z</time></trkpt><trkpt lat="43.275611379219484" lon="12.210226254732172"><ele>291.25</ele><time>2026-04-21T13:19:01.999Z</time></trkpt><trkpt lat="43.27564695409527" lon="12.210081502085492"><ele>289.5</ele><time>2026-04-21T13:19:02.999Z</time></trkpt><trkpt lat="43.2757084691179" lon="12.209943014806065"><ele>287.75</ele><time>2026-04-21T13:19:03.999Z</time></trkpt><trkpt lat="43.27575775058961" lon="12.209793649336612"><ele>286.0</ele><time>2026-04-21T13:19:04.999Z</time></trkpt><trkpt lat="43.2758144419066" lon="12.209651708535327"><ele>285.5</ele><time>2026-04-21T13:19:05.999Z</time></trkpt><trkpt lat="43.27587771139695" lon="12.20949801847757"><ele>285.0</ele><time>2026-04-21T13:19:06.999Z</time></trkpt><trkpt lat="43.2759355485879" lon="12.209362172897197"><ele>284.5</ele><time>2026-04-21T13:19:07.999Z</time></trkpt><trkpt lat="43.27599091668906" lon="12.209235441465708"><ele>284.0</ele><time>2026-04-21T13:19:08.999Z</time></trkpt><trkpt lat="43.27604360580714" lon="12.209116403387593"><ele>284.0</ele><time>2026-04-21T13:19:09.999Z</time></trkpt><trkpt lat="43.27607997918615" lon="12.208997592294974"><ele>284.0</ele><time>2026-04-21T13:19:10.999Z</time></trkpt><trkpt lat="43.276147233221735" lon="12.208894127632936"><ele>284.0</ele><time>2026-04-21T13:19:11.999Z</time></trkpt><trkpt lat="43.276208561143754" lon="12.208768983878477"><ele>284.0</ele><time>2026-04-21T13:19:12.999Z</time></trkpt><trkpt lat="43.27626724453686" lon="12.208653941228897"><ele>284.0</ele><time>2026-04-21T13:19:13.999Z</time></trkpt><trkpt lat="43.276337828475846" lon="12.20853757201262"><ele>284.0</ele><time>2026-04-21T13:19:14.999Z</time></trkpt><trkpt lat="43.27641009833974" lon="12.208428483436883"><ele>284.0</ele><time>2026-04-21T13:19:15.999Z</time></trkpt><trkpt lat="43.276476561989234" lon="12.20832815912045"><ele>284.0</ele><time>2026-04-21T13:19:16.999Z</time></trkpt><trkpt lat="43.276554653299" lon="12.208214066183839"><ele>284.0</ele><time>2026-04-21T13:19:17.999Z</time></trkpt><trkpt lat="43.276630245166444" lon="12.208110795444393"><ele>284.0</ele><time>2026-04-21T13:19:18.999Z</time></trkpt><trkpt lat="43.276700332009554" lon="12.208008128354773"><ele>283.59999999999997</ele><time>2026-04-21T13:19:19.999Z</time></trkpt><trkpt lat="43.276805294730245" lon="12.207944897444657"><ele>283.2</ele><time>2026-04-21T13:19:20.999Z</time></trkpt><trkpt lat="43.276869017419386" lon="12.207865745310226"><ele>282.79999999999995</ele><time>2026-04-21T13:19:21.999Z</time></trkpt><trkpt lat="43.276943346092516" lon="12.207802944295992"><ele>282.4</ele><time>2026-04-21T13:19:22.999Z</time></trkpt><trkpt lat="43.276990540727425" lon="12.20773167665121"><ele>282.0</ele><time>2026-04-21T13:19:23.999Z</time></trkpt><trkpt lat="43.27693665879074" lon="12.207597621848503"><ele>282.0</ele><time>2026-04-21T13:19:26.999Z</time></trkpt><trkpt lat="43.27687508612919" lon="12.20756632666628"><ele>282.0</ele><time>2026-04-21T13:19:27.999Z</time></trkpt><trkpt lat="43.27679139445839" lon="12.20755403700511"><ele>282.0</ele><time>2026-04-21T13:19:28.999Z</time></trkpt><trkpt lat="43.27670282848272" lon="12.207540947891113"><ele>282.0</ele><time>2026-04-21T13:19:29.999Z</time></trkpt><trkpt lat="43.276625649879286" lon="12.207536963865598"><ele>282.0</ele><time>2026-04-21T13:19:30.999Z</time></trkpt><trkpt lat="43.276534955239455" lon="12.207529345758"><ele>282.0</ele><time>2026-04-21T13:19:31.999Z</time></trkpt><trkpt lat="43.27645925776392" lon="12.207496514298418"><ele>282.2</ele><time>2026-04-21T13:19:32.999Z</time></trkpt><trkpt lat="43.27639928748492" lon="12.207383799653686"><ele>282.4</ele><time>2026-04-21T13:19:34.999Z</time></trkpt><trkpt lat="43.27641127870479" lon="12.207251765245381"><ele>282.6</ele><time>2026-04-21T13:19:37Z</time></trkpt><trkpt lat="43.27642759586917" lon="12.207146473787772"><ele>282.8</ele><time>2026-04-21T13:19:38Z</time></trkpt><trkpt lat="43.27644707274463" lon="12.207029947242368"><ele>283.0</ele><time>2026-04-21T13:19:39Z</time></trkpt><trkpt lat="43.276465129510065" lon="12.206911321747908"><ele>283.3333333333333</ele><time>2026-04-21T13:19:40Z</time></trkpt><trkpt lat="43.27649473535126" lon="12.206780433184832"><ele>283.66666666666663</ele><time>2026-04-21T13:19:41Z</time></trkpt><trkpt lat="43.27650627441724" lon="12.206690829007822"><ele>284.0</ele><time>2026-04-21T13:19:42Z</time></trkpt><trkpt lat="43.27655451492133" lon="12.206624510545984"><ele>284.3333333333333</ele><time>2026-04-21T13:19:43Z</time></trkpt><trkpt lat="43.27659291535605" lon="12.206554280550346"><ele>284.6666666666667</ele><time>2026-04-21T13:19:44Z</time></trkpt><trkpt lat="43.276652534746475" lon="12.206451242671857"><ele>285.0</ele><time>2026-04-21T13:19:46Z</time></trkpt><trkpt lat="43.27675301063381" lon="12.206502675747947"><ele>285.0</ele><time>2026-04-21T13:19:47Z</time></trkpt><trkpt lat="43.276843844120926" lon="12.206514420466812"><ele>285.0</ele><time>2026-04-21T13:19:48Z</time></trkpt><trkpt lat="43.27694673789217" lon="12.206511719267432"><ele>285.0</ele><time>2026-04-21T13:19:49Z</time></trkpt><trkpt lat="43.27704111401384" lon="12.206484310278137"><ele>285.0</ele><time>2026-04-21T13:19:50Z</time></trkpt><trkpt lat="43.277114430005085" lon="12.20645214510185"><ele>285.0</ele><time>2026-04-21T13:19:51Z</time></trkpt><trkpt lat="43.277222975263456" lon="12.206381314631363"><ele>285.0</ele><time>2026-04-21T13:19:53Z</time></trkpt><trkpt lat="43.27726581750763" lon="12.20631042046721"><ele>285.0</ele><time>2026-04-21T13:19:54Z</time></trkpt><trkpt lat="43.27727871021071" lon="12.20622305926158"><ele>285.0</ele><time>2026-04-21T13:19:55Z</time></trkpt><trkpt lat="43.27732072055814" lon="12.206072329065371"><ele>285.0</ele><time>2026-04-21T13:19:57Z</time></trkpt><trkpt lat="43.27734104868574" lon="12.205897561463514"><ele>285.0</ele><time>2026-04-21T13:19:59Z</time></trkpt><trkpt lat="43.27733738692705" lon="12.205806307937697"><ele>285.0</ele><time>2026-04-21T13:20:00Z</time></trkpt><trkpt lat="43.2773491718638" lon="12.205714898827615"><ele>284.8</ele><time>2026-04-21T13:20:01Z</time></trkpt><trkpt lat="43.277342779343634" lon="12.205614623507394"><ele>284.6</ele><time>2026-04-21T13:20:02Z</time></trkpt><trkpt lat="43.27733418935916" lon="12.205495288797707"><ele>284.4</ele><time>2026-04-21T13:20:03Z</time></trkpt><trkpt lat="43.27732700737507" lon="12.205395514457445"><ele>284.2</ele><time>2026-04-21T13:20:04Z</time></trkpt><trkpt lat="43.27731011141332" lon="12.205241513052798"><ele>284.0</ele><time>2026-04-21T13:20:06Z</time></trkpt><trkpt lat="43.27729441186493" lon="12.205095348414837"><ele>284.0</ele><time>2026-04-21T13:20:08Z</time></trkpt><trkpt lat="43.27728468164594" lon="12.205002831578463"><ele>284.0</ele><time>2026-04-21T13:20:09Z</time></trkpt><trkpt lat="43.277273648279724" lon="12.204897924131032"><ele>284.0</ele><time>2026-04-21T13:20:10Z</time></trkpt><trkpt lat="43.277283015761384" lon="12.204746995991941"><ele>284.0</ele><time>2026-04-21T13:20:12Z</time></trkpt><trkpt lat="43.277289109567775" lon="12.20465828835807"><ele>284.0</ele><time>2026-04-21T13:20:15Z</time></trkpt><trkpt lat="43.277324723079715" lon="12.204534136168446"><ele>284.0</ele><time>2026-04-21T13:24:16Z</time></trkpt><trkpt lat="43.277342365821795" lon="12.204449184943275"><ele>284.33333333333337</ele><time>2026-04-21T13:24:17Z</time></trkpt><trkpt lat="43.27736081584353" lon="12.204350768866705"><ele>284.6666666666667</ele><time>2026-04-21T13:24:18Z</time></trkpt><trkpt lat="43.2773801591488" lon="12.204242707290438"><ele>285.0</ele><time>2026-04-21T13:24:19Z</time></trkpt><trkpt lat="43.277397623419034" lon="12.204131614284"><ele>285.3333333333333</ele><time>2026-04-21T13:24:20Z</time></trkpt><trkpt lat="43.27741233843141" lon="12.2040146040852"><ele>285.66666666666663</ele><time>2026-04-21T13:24:21Z</time></trkpt><trkpt lat="43.27742342357553" lon="12.203892354701267"><ele>286.0</ele><time>2026-04-21T13:24:22Z</time></trkpt><trkpt lat="43.27743357061397" lon="12.203767003390837"><ele>287.2</ele><time>2026-04-21T13:24:23Z</time></trkpt><trkpt lat="43.27744631997396" lon="12.203629079791147"><ele>288.40000000000003</ele><time>2026-04-21T13:24:24Z</time></trkpt><trkpt lat="43.27746870937778" lon="12.203493900904428"><ele>289.6</ele><time>2026-04-21T13:24:25Z</time></trkpt><trkpt lat="43.277499674317454" lon="12.203368692794719"><ele>290.8</ele><time>2026-04-21T13:24:26Z</time></trkpt><trkpt lat="43.27752852738406" lon="12.203248670252984"><ele>292.0</ele><time>2026-04-21T13:24:27Z</time></trkpt><trkpt lat="43.27755022342501" lon="12.203137582824422"><ele>292.2</ele><time>2026-04-21T13:24:28Z</time></trkpt><trkpt lat="43.277567270802024" lon="12.203019942657999"><ele>292.4</ele><time>2026-04-21T13:24:29Z</time></trkpt><trkpt lat="43.27757427704471" lon="12.2028825607192"><ele>292.6</ele><time>2026-04-21T13:24:30Z</time></trkpt><trkpt lat="43.2775715512095" lon="12.202738337962487"><ele>292.8</ele><time>2026-04-21T13:24:31Z</time></trkpt><trkpt lat="43.27757523620619" lon="12.202581473895076"><ele>293.0</ele><time>2026-04-21T13:24:32Z</time></trkpt><trkpt lat="43.27759594873917" lon="12.20242242340907"><ele>292.75</ele><time>2026-04-21T13:24:33Z</time></trkpt><trkpt lat="43.277619791906574" lon="12.202260243679834"><ele>292.5</ele><time>2026-04-21T13:24:34Z</time></trkpt><trkpt lat="43.27763881712688" lon="12.202096903507215"><ele>292.25</ele><time>2026-04-21T13:24:35Z</time></trkpt><trkpt lat="43.27765835556073" lon="12.201936634055087"><ele>292.0</ele><time>2026-04-21T13:24:36Z</time></trkpt><trkpt lat="43.27768068133653" lon="12.201779824855215"><ele>292.0</ele><time>2026-04-21T13:24:37Z</time></trkpt><trkpt lat="43.27770551917072" lon="12.201625878691532"><ele>292.0</ele><time>2026-04-21T13:24:38Z</time></trkpt><trkpt lat="43.277735720698026" lon="12.201474829370493"><ele>292.0</ele><time>2026-04-21T13:24:39Z</time></trkpt><trkpt lat="43.27777001065384" lon="12.201328741874173"><ele>292.0</ele><time>2026-04-21T13:24:40Z</time></trkpt><trkpt lat="43.27780544705678" lon="12.201183829198342"><ele>291.0</ele><time>2026-04-21T13:24:41Z</time></trkpt><trkpt lat="43.277839945048825" lon="12.201042423996146"><ele>290.0</ele><time>2026-04-21T13:24:42Z</time></trkpt><trkpt lat="43.27786968676205" lon="12.200903923786566"><ele>289.0</ele><time>2026-04-21T13:24:43Z</time></trkpt><trkpt lat="43.27789533085389" lon="12.200762403443285"><ele>288.0</ele><time>2026-04-21T13:24:44Z</time></trkpt><trkpt lat="43.27791985560719" lon="12.200627060316341"><ele>287.0</ele><time>2026-04-21T13:24:45Z</time></trkpt><trkpt lat="43.27794319534131" lon="12.20050789183855"><ele>286.33333333333337</ele><time>2026-04-21T13:24:46Z</time></trkpt><trkpt lat="43.27796465624174" lon="12.200402551078888"><ele>285.6666666666667</ele><time>2026-04-21T13:24:47Z</time></trkpt><trkpt lat="43.27798482603117" lon="12.200312138133924"><ele>285.0</ele><time>2026-04-21T13:24:48Z</time></trkpt><trkpt lat="43.27800735056536" lon="12.20023079457212"><ele>284.3333333333333</ele><time>2026-04-21T13:24:49Z</time></trkpt><trkpt lat="43.278069402440366" lon="12.20007979750425"><ele>283.66666666666663</ele><time>2026-04-21T13:24:51Z</time></trkpt><trkpt lat="43.278116200813045" lon="12.199993879338948"><ele>283.0</ele><time>2026-04-21T13:24:52Z</time></trkpt><trkpt lat="43.27817536197605" lon="12.199892562588364"><ele>284.4</ele><time>2026-04-21T13:24:53Z</time></trkpt><trkpt lat="43.278235275838675" lon="12.19978397573488"><ele>285.8</ele><time>2026-04-21T13:24:54Z</time></trkpt><trkpt lat="43.27829610754558" lon="12.199668309260696"><ele>287.2</ele><time>2026-04-21T13:24:55Z</time></trkpt><trkpt lat="43.27835162036915" lon="12.199550563293982"><ele>288.6</ele><time>2026-04-21T13:24:56Z</time></trkpt><trkpt lat="43.27839901864356" lon="12.199445384262479"><ele>290.0</ele><time>2026-04-21T13:24:57Z</time></trkpt><trkpt lat="43.2784384782659" lon="12.19935927691269"><ele>290.0</ele><time>2026-04-21T13:24:58Z</time></trkpt><trkpt lat="43.27848940404387" lon="12.19921318486497"><ele>290.0</ele><time>2026-04-21T13:25:00Z</time></trkpt><trkpt lat="43.27854914252391" lon="12.199174504194254"><ele>290.0</ele><time>2026-04-21T13:25:01Z</time></trkpt><trkpt lat="43.27863826883173" lon="12.199089653025876"><ele>290.0</ele><time>2026-04-21T13:25:03Z</time></trkpt><trkpt lat="43.27870081761385" lon="12.199031044324068"><ele>290.0</ele><time>2026-04-21T13:25:23Z</time></trkpt><trkpt lat="43.27861775421606" lon="12.198875021712656"><ele>290.8</ele><time>2026-04-21T13:26:40Z</time></trkpt><trkpt lat="43.278597802202825" lon="12.19877090240263"><ele>291.6</ele><time>2026-04-21T13:26:41Z</time></trkpt><trkpt lat="43.27856383350048" lon="12.19866241241724"><ele>292.4</ele><time>2026-04-21T13:26:42Z</time></trkpt><trkpt lat="43.2785353649218" lon="12.198533587993706"><ele>293.2</ele><time>2026-04-21T13:26:43Z</time></trkpt><trkpt lat="43.278512876011504" lon="12.198387627866879"><ele>294.0</ele><time>2026-04-21T13:26:44Z</time></trkpt><trkpt lat="43.27847876770631" lon="12.198238603298536"><ele>292.5</ele><time>2026-04-21T13:26:45Z</time></trkpt><trkpt lat="43.27847603175524" lon="12.19806936408051"><ele>291.0</ele><time>2026-04-21T13:26:46Z</time></trkpt><trkpt lat="43.278454107567946" lon="12.197891791526482"><ele>289.5</ele><time>2026-04-21T13:26:47Z</time></trkpt><trkpt lat="43.27842886432055" lon="12.19771354328514"><ele>288.0</ele><time>2026-04-21T13:26:48Z</time></trkpt><trkpt lat="43.278398381293314" lon="12.197538806482582"><ele>288.0</ele><time>2026-04-21T13:26:49Z</time></trkpt><trkpt lat="43.2783495501824" lon="12.197352718317273"><ele>288.0</ele><time>2026-04-21T13:26:50Z</time></trkpt><trkpt lat="43.27828145038519" lon="12.197168479271799"><ele>288.0</ele><time>2026-04-21T13:26:51Z</time></trkpt><trkpt lat="43.27820293874267" lon="12.196981299159308"><ele>286.3333333333333</ele><time>2026-04-21T13:26:52Z</time></trkpt><trkpt lat="43.278118590027475" lon="12.196792147665349"><ele>284.66666666666663</ele><time>2026-04-21T13:26:53Z</time></trkpt><trkpt lat="43.278031022231396" lon="12.196598161752124"><ele>283.0</ele><time>2026-04-21T13:26:54Z</time></trkpt><trkpt lat="43.27794171762652" lon="12.196401300342968"><ele>283.0</ele><time>2026-04-21T13:26:55Z</time></trkpt><trkpt lat="43.27785377151086" lon="12.196207433329786"><ele>283.0</ele><time>2026-04-21T13:26:56Z</time></trkpt><trkpt lat="43.27776481385495" lon="12.196012976662674"><ele>283.0</ele><time>2026-04-21T13:26:57Z</time></trkpt><trkpt lat="43.27765965492756" lon="12.195825271403853"><ele>283.0</ele><time>2026-04-21T13:26:58Z</time></trkpt><trkpt lat="43.27757002694047" lon="12.195622417350053"><ele>283.0</ele><time>2026-04-21T13:26:59Z</time></trkpt><trkpt lat="43.277477017791746" lon="12.19541726394533"><ele>283.0</ele><time>2026-04-21T13:27:00Z</time></trkpt><trkpt lat="43.27738169984163" lon="12.195216551208746"><ele>283.0</ele><time>2026-04-21T13:27:01Z</time></trkpt><trkpt lat="43.27728740504445" lon="12.195009436827174"><ele>283.0</ele><time>2026-04-21T13:27:02Z</time></trkpt><trkpt lat="43.27719168989638" lon="12.194800163804912"><ele>283.0</ele><time>2026-04-21T13:27:03Z</time></trkpt><trkpt lat="43.2770980519373" lon="12.194587958620533"><ele>283.3333333333333</ele><time>2026-04-21T13:27:04Z</time></trkpt><trkpt lat="43.27700443643718" lon="12.194373157882472"><ele>283.6666666666667</ele><time>2026-04-21T13:27:05Z</time></trkpt><trkpt lat="43.276926260985924" lon="12.194147753718408"><ele>284.0</ele><time>2026-04-21T13:27:06Z</time></trkpt><trkpt lat="43.276832743038405" lon="12.193928356028104"><ele>284.33333333333337</ele><time>2026-04-21T13:27:07Z</time></trkpt><trkpt lat="43.2767391004105" lon="12.193708665910869"><ele>284.6666666666667</ele><time>2026-04-21T13:27:08Z</time></trkpt><trkpt lat="43.276634945159785" lon="12.193499182427807"><ele>285.0</ele><time>2026-04-21T13:27:09Z</time></trkpt><trkpt lat="43.27654273452811" lon="12.19327679868235"><ele>284.6666666666667</ele><time>2026-04-21T13:27:10Z</time></trkpt><trkpt lat="43.27644926523283" lon="12.193057127763252"><ele>284.33333333333337</ele><time>2026-04-21T13:27:11Z</time></trkpt><trkpt lat="43.276358948550126" lon="12.192831621216365"><ele>284.0</ele><time>2026-04-21T13:27:12Z</time></trkpt><trkpt lat="43.276283914325745" lon="12.19259892957788"><ele>284.0</ele><time>2026-04-21T13:27:13Z</time></trkpt><trkpt lat="43.27619425235936" lon="12.192370808037339"><ele>284.0</ele><time>2026-04-21T13:27:14Z</time></trkpt><trkpt lat="43.276104455986086" lon="12.192143949149942"><ele>284.0</ele><time>2026-04-21T13:27:15Z</time></trkpt><trkpt lat="43.27601378718707" lon="12.191914886230569"><ele>284.0</ele><time>2026-04-21T13:27:16Z</time></trkpt><trkpt lat="43.27592345537638" lon="12.191687616066044"><ele>284.0</ele><time>2026-04-21T13:27:17Z</time></trkpt><trkpt lat="43.27583095188357" lon="12.191458464821736"><ele>284.0</ele><time>2026-04-21T13:27:18Z</time></trkpt><trkpt lat="43.27573938767936" lon="12.19123164044204"><ele>283.6666666666667</ele><time>2026-04-21T13:27:19Z</time></trkpt><trkpt lat="43.27564274810761" lon="12.191005457174608"><ele>283.3333333333333</ele><time>2026-04-21T13:27:20Z</time></trkpt><trkpt lat="43.27554095735638" lon="12.190781168110007"><ele>283.0</ele><time>2026-04-21T13:27:21Z</time></trkpt><trkpt lat="43.27544198512721" lon="12.190569074020301"><ele>283.0</ele><time>2026-04-21T13:27:22Z</time></trkpt><trkpt lat="43.27533458257132" lon="12.19034305108837"><ele>283.0</ele><time>2026-04-21T13:27:23Z</time></trkpt><trkpt lat="43.27522800545069" lon="12.190120569533374"><ele>283.0</ele><time>2026-04-21T13:27:24Z</time></trkpt><trkpt lat="43.27512136020583" lon="12.189898894782973"><ele>283.66666666666663</ele><time>2026-04-21T13:27:25Z</time></trkpt><trkpt lat="43.275013723667385" lon="12.189678672517616"><ele>284.3333333333333</ele><time>2026-04-21T13:27:26Z</time></trkpt><trkpt lat="43.27489174245582" lon="12.189476253056137"><ele>285.0</ele><time>2026-04-21T13:27:27Z</time></trkpt><trkpt lat="43.27477983751564" lon="12.189258566081328"><ele>285.0</ele><time>2026-04-21T13:27:28Z</time></trkpt><trkpt lat="43.274663324843935" lon="12.189045053947632"><ele>285.0</ele><time>2026-04-21T13:27:29Z</time></trkpt><trkpt lat="43.274549804443446" lon="12.188830991612404"><ele>285.0</ele><time>2026-04-21T13:27:30Z</time></trkpt><trkpt lat="43.27445525440708" lon="12.188610879515856"><ele>285.0</ele><time>2026-04-21T13:27:31Z</time></trkpt><trkpt lat="43.274350835286924" lon="12.188407687277042"><ele>285.0</ele><time>2026-04-21T13:27:32Z</time></trkpt><trkpt lat="43.274252186671205" lon="12.188204906605302"><ele>285.0</ele><time>2026-04-21T13:27:33Z</time></trkpt><trkpt lat="43.27416360873552" lon="12.187995000963365"><ele>285.3333333333333</ele><time>2026-04-21T13:27:34Z</time></trkpt><trkpt lat="43.27408019176252" lon="12.187781021801696"><ele>285.66666666666663</ele><time>2026-04-21T13:27:35Z</time></trkpt><trkpt lat="43.27400163263136" lon="12.18756947147582"><ele>286.0</ele><time>2026-04-21T13:27:36Z</time></trkpt><trkpt lat="43.27392934594475" lon="12.187370717384251"><ele>288.0</ele><time>2026-04-21T13:27:37Z</time></trkpt><trkpt lat="43.273856715875745" lon="12.18716994316492"><ele>290.0</ele><time>2026-04-21T13:27:38Z</time></trkpt><trkpt lat="43.27378431782945" lon="12.18696806409219"><ele>292.0</ele><time>2026-04-21T13:27:39Z</time></trkpt><trkpt lat="43.27371410908386" lon="12.186772289742846"><ele>292.0</ele><time>2026-04-21T13:27:40Z</time></trkpt><trkpt lat="43.27364535533604" lon="12.186576223974697"><ele>292.0</ele><time>2026-04-21T13:27:41Z</time></trkpt><trkpt lat="43.27357956507042" lon="12.186380119630675"><ele>292.0</ele><time>2026-04-21T13:27:42Z</time></trkpt><trkpt lat="43.27351757783497" lon="12.186184660206573"><ele>292.75</ele><time>2026-04-21T13:27:43Z</time></trkpt><trkpt lat="43.2734651703512" lon="12.185984574670666"><ele>293.5</ele><time>2026-04-21T13:27:44Z</time></trkpt><trkpt lat="43.27342816649016" lon="12.185787214476019"><ele>294.25</ele><time>2026-04-21T13:27:45Z</time></trkpt><trkpt lat="43.27339067159572" lon="12.185615654870123"><ele>295.0</ele><time>2026-04-21T13:27:46Z</time></trkpt><trkpt lat="43.27338817125585" lon="12.185465608904376"><ele>295.2</ele><time>2026-04-21T13:27:47Z</time></trkpt><trkpt lat="43.2733833740707" lon="12.185374249608795"><ele>295.4</ele><time>2026-04-21T13:27:48Z</time></trkpt><trkpt lat="43.2732192011806" lon="12.185362872194755"><ele>295.6</ele><time>2026-04-21T13:27:51Z</time></trkpt><trkpt lat="43.273174556453" lon="12.185452744105264"><ele>295.8</ele><time>2026-04-21T13:27:52Z</time></trkpt><trkpt lat="43.27319599286327" lon="12.18556378444448"><ele>296.0</ele><time>2026-04-21T13:27:54Z</time></trkpt><trkpt lat="43.27317904535905" lon="12.185670012908032"><ele>295.8</ele><time>2026-04-21T13:27:55Z</time></trkpt><trkpt lat="43.27320159206245" lon="12.185798397344424"><ele>295.6</ele><time>2026-04-21T13:27:56Z</time></trkpt><trkpt lat="43.27319678797733" lon="12.185923894131093"><ele>295.4</ele><time>2026-04-21T13:27:57Z</time></trkpt><trkpt lat="43.27320554139694" lon="12.186061857492799"><ele>295.2</ele><time>2026-04-21T13:27:58Z</time></trkpt><trkpt lat="43.27321437644042" lon="12.186189444597261"><ele>295.0</ele><time>2026-04-21T13:27:59Z</time></trkpt><trkpt lat="43.27323806639534" lon="12.186329428007925"><ele>295.0</ele><time>2026-04-21T13:28:00Z</time></trkpt><trkpt lat="43.2732450551449" lon="12.186474172797487"><ele>295.0</ele><time>2026-04-21T13:28:01Z</time></trkpt><trkpt lat="43.273251935260966" lon="12.186607594198895"><ele>295.0</ele><time>2026-04-21T13:28:02Z</time></trkpt><trkpt lat="43.273258876100044" lon="12.18674184448225"><ele>295.0</ele><time>2026-04-21T13:28:03Z</time></trkpt><trkpt lat="43.27326375496163" lon="12.18686872072549"><ele>295.0</ele><time>2026-04-21T13:28:04Z</time></trkpt><trkpt lat="43.2732642939112" lon="12.186989394048096"><ele>294.4</ele><time>2026-04-21T13:28:05Z</time></trkpt><trkpt lat="43.27326450247687" lon="12.187108702408052"><ele>293.8</ele><time>2026-04-21T13:28:06Z</time></trkpt><trkpt lat="43.27326497621344" lon="12.187235978886486"><ele>293.2</ele><time>2026-04-21T13:28:07Z</time></trkpt><trkpt lat="43.27324455548142" lon="12.187365816574323"><ele>292.6</ele><time>2026-04-21T13:28:08Z</time></trkpt><trkpt lat="43.273233578336146" lon="12.187495707421453"><ele>292.0</ele><time>2026-04-21T13:28:09Z</time></trkpt><trkpt lat="43.273213995084184" lon="12.187600832240904"><ele>291.8</ele><time>2026-04-21T13:28:10Z</time></trkpt><trkpt lat="43.27318545497838" lon="12.187691593263596"><ele>291.6</ele><time>2026-04-21T13:28:11Z</time></trkpt><trkpt lat="43.273151124480584" lon="12.187781408621737"><ele>291.40000000000003</ele><time>2026-04-21T13:28:12Z</time></trkpt><trkpt lat="43.27310604327084" lon="12.187861519039211"><ele>291.2</ele><time>2026-04-21T13:28:13Z</time></trkpt><trkpt lat="43.2730494756846" lon="12.187949325759888"><ele>291.0</ele><time>2026-04-21T13:28:14Z</time></trkpt><trkpt lat="43.272907868881816" lon="12.18807344622535"><ele>290.5</ele><time>2026-04-21T13:28:16Z</time></trkpt><trkpt lat="43.272840588235894" lon="12.188110343005988"><ele>290.0</ele><time>2026-04-21T13:28:17Z</time></trkpt><trkpt lat="43.27273556023433" lon="12.188169693992126"><ele>289.5</ele><time>2026-04-21T13:28:19Z</time></trkpt><trkpt lat="43.27265927321328" lon="12.18818304849709"><ele>289.0</ele><time>2026-04-21T13:28:20Z</time></trkpt><trkpt lat="43.27257068685307" lon="12.188199298317672"><ele>288.5</ele><time>2026-04-21T13:28:21Z</time></trkpt><trkpt lat="43.272480033369" lon="12.188213639587937"><ele>288.0</ele><time>2026-04-21T13:28:22Z</time></trkpt><trkpt lat="43.27237160413441" lon="12.188197347758647"><ele>288.4</ele><time>2026-04-21T13:28:23Z</time></trkpt><trkpt lat="43.27226042886121" lon="12.188203261802208"><ele>288.8</ele><time>2026-04-21T13:28:24Z</time></trkpt><trkpt lat="43.27215936966286" lon="12.188211863853061"><ele>289.2</ele><time>2026-04-21T13:28:25Z</time></trkpt><trkpt lat="43.27207307755803" lon="12.18821527944624"><ele>289.6</ele><time>2026-04-21T13:28:26Z</time></trkpt><trkpt lat="43.27198455506482" lon="12.188234020839188"><ele>290.0</ele><time>2026-04-21T13:28:27Z</time></trkpt><trkpt lat="43.27189877056292" lon="12.188289696612982"><ele>290.0</ele><time>2026-04-21T13:28:28Z</time></trkpt><trkpt lat="43.27184645823188" lon="12.18842297481884"><ele>290.0</ele><time>2026-04-21T13:28:29Z</time></trkpt><trkpt lat="43.27182293189922" lon="12.18857376445858"><ele>290.0</ele><time>2026-04-21T13:28:30Z</time></trkpt><trkpt lat="43.27181078624792" lon="12.188753491662709"><ele>290.0</ele><time>2026-04-21T13:28:31Z</time></trkpt><trkpt lat="43.27177623026354" lon="12.188912522781846"><ele>290.0</ele><time>2026-04-21T13:28:32Z</time></trkpt><trkpt lat="43.27174743698256" lon="12.189040412190538"><ele>290.0</ele><time>2026-04-21T13:28:33Z</time></trkpt><trkpt lat="43.27172986383411" lon="12.189166735811805"><ele>290.0</ele><time>2026-04-21T13:28:34Z</time></trkpt><trkpt lat="43.2717270185105" lon="12.189268301053742"><ele>290.0</ele><time>2026-04-21T13:28:35Z</time></trkpt><trkpt lat="43.271765577857366" lon="12.18941403338426"><ele>290.0</ele><time>2026-04-21T13:28:37Z</time></trkpt><trkpt lat="43.27187556005353" lon="12.189496153566239"><ele>290.0</ele><time>2026-04-21T13:28:39Z</time></trkpt><trkpt lat="43.2719514885515" lon="12.189563238226915"><ele>290.0</ele><time>2026-04-21T13:28:40Z</time></trkpt><trkpt lat="43.27204469549731" lon="12.189649793207167"><ele>290.0</ele><time>2026-04-21T13:28:41Z</time></trkpt><trkpt lat="43.27214807963875" lon="12.189746117458965"><ele>290.0</ele><time>2026-04-21T13:28:42Z</time></trkpt><trkpt lat="43.27225514915026" lon="12.189849045556963"><ele>290.0</ele><time>2026-04-21T13:28:43Z</time></trkpt><trkpt lat="43.27236557596481" lon="12.189927464382734"><ele>290.0</ele><time>2026-04-21T13:28:44Z</time></trkpt><trkpt lat="43.272456900086596" lon="12.190024632355568"><ele>290.0</ele><time>2026-04-21T13:28:45Z</time></trkpt><trkpt lat="43.27251809733698" lon="12.190131533284207"><ele>290.0</ele><time>2026-04-21T13:28:46Z</time></trkpt><trkpt lat="43.272566803151065" lon="12.190222938987008"><ele>290.0</ele><time>2026-04-21T13:28:47Z</time></trkpt><trkpt lat="43.27260962249667" lon="12.190309364249972"><ele>290.0</ele><time>2026-04-21T13:28:48Z</time></trkpt><trkpt lat="43.272649953019574" lon="12.190400873419142"><ele>290.0</ele><time>2026-04-21T13:28:49Z</time></trkpt><trkpt lat="43.272691045714055" lon="12.190498508983975"><ele>290.0</ele><time>2026-04-21T13:28:50Z</time></trkpt><trkpt lat="43.272737493058386" lon="12.190616092436434"><ele>290.0</ele><time>2026-04-21T13:28:51Z</time></trkpt><trkpt lat="43.27278438217574" lon="12.19073777311428"><ele>290.0</ele><time>2026-04-21T13:28:52Z</time></trkpt><trkpt lat="43.27282711867589" lon="12.190866603409008"><ele>292.6</ele><time>2026-04-21T13:28:53Z</time></trkpt><trkpt lat="43.27287339253577" lon="12.190996855749448"><ele>295.2</ele><time>2026-04-21T13:28:54Z</time></trkpt><trkpt lat="43.27292415367199" lon="12.191134361701183"><ele>297.8</ele><time>2026-04-21T13:28:55Z</time></trkpt><trkpt lat="43.27295340016551" lon="12.191277726464826"><ele>300.4</ele><time>2026-04-21T13:28:56Z</time></trkpt><trkpt lat="43.27302009148706" lon="12.191404575992324"><ele>303.0</ele><time>2026-04-21T13:28:57Z</time></trkpt><trkpt lat="43.27306656558582" lon="12.191546548870175"><ele>300.6666666666667</ele><time>2026-04-21T13:28:58Z</time></trkpt><trkpt lat="43.273115415134214" lon="12.191657085124849"><ele>298.3333333333333</ele><time>2026-04-21T13:28:59Z</time></trkpt><trkpt lat="43.273156100638865" lon="12.191751022298126"><ele>296.0</ele><time>2026-04-21T13:29:00Z</time></trkpt><trkpt lat="43.27319127460112" lon="12.191839563757439"><ele>293.66666666666663</ele><time>2026-04-21T13:29:01Z</time></trkpt><trkpt lat="43.2732224262636" lon="12.1919221833834"><ele>291.3333333333333</ele><time>2026-04-21T13:29:02Z</time></trkpt><trkpt lat="43.27325636790493" lon="12.192020479801956"><ele>289.0</ele><time>2026-04-21T13:29:03Z</time></trkpt><trkpt lat="43.273277386822365" lon="12.192144002506048"><ele>289.0</ele><time>2026-04-21T13:29:04Z</time></trkpt><trkpt lat="43.273245992021394" lon="12.192284122000018"><ele>289.0</ele><time>2026-04-21T13:29:05Z</time></trkpt><trkpt lat="43.27323149930498" lon="12.192424165031142"><ele>289.0</ele><time>2026-04-21T13:29:06Z</time></trkpt><trkpt lat="43.27319581652094" lon="12.192586488355223"><ele>289.0</ele><time>2026-04-21T13:29:07Z</time></trkpt><trkpt lat="43.27322262077686" lon="12.192726086663301"><ele>289.0</ele><time>2026-04-21T13:29:08Z</time></trkpt><trkpt lat="43.2732394922993" lon="12.19287961346052"><ele>289.16666666666663</ele><time>2026-04-21T13:29:09Z</time></trkpt><trkpt lat="43.27325149069794" lon="12.19300710808949"><ele>289.3333333333333</ele><time>2026-04-21T13:29:10Z</time></trkpt><trkpt lat="43.273254602045704" lon="12.193118891354429"><ele>289.5</ele><time>2026-04-21T13:29:11Z</time></trkpt><trkpt lat="43.273245568636014" lon="12.193205313722757"><ele>289.6666666666667</ele><time>2026-04-21T13:29:12Z</time></trkpt><trkpt lat="43.27322495910887" lon="12.193287514987427"><ele>289.83333333333337</ele><time>2026-04-21T13:29:13Z</time></trkpt><trkpt lat="43.273175357207776" lon="12.193349389810676"><ele>290.0</ele><time>2026-04-21T13:29:14Z</time></trkpt><trkpt lat="43.27310525041575" lon="12.19341069168469"><ele>292.6666666666667</ele><time>2026-04-21T13:29:15Z</time></trkpt><trkpt lat="43.27299987246052" lon="12.193480442454373"><ele>295.33333333333337</ele><time>2026-04-21T13:29:16Z</time></trkpt><trkpt lat="43.272901109562675" lon="12.193537465093419"><ele>298.0</ele><time>2026-04-21T13:29:17Z</time></trkpt><trkpt lat="43.272833183568785" lon="12.193600523104504"><ele>300.6666666666667</ele><time>2026-04-21T13:29:18Z</time></trkpt><trkpt lat="43.272791452268585" lon="12.19367841679327"><ele>303.3333333333333</ele><time>2026-04-21T13:29:19Z</time></trkpt><trkpt lat="43.27274993711628" lon="12.193748068859612"><ele>306.0</ele><time>2026-04-21T13:29:20Z</time></trkpt><trkpt lat="43.27270170010202" lon="12.193879421685509"><ele>305.8</ele><time>2026-04-21T13:29:21Z</time></trkpt><trkpt lat="43.27269371866941" lon="12.194061516192026"><ele>305.6</ele><time>2026-04-21T13:29:22Z</time></trkpt><trkpt lat="43.272727379454835" lon="12.194208787237022"><ele>305.4</ele><time>2026-04-21T13:29:23Z</time></trkpt><trkpt lat="43.27275924857157" lon="12.194302693020791"><ele>305.2</ele><time>2026-04-21T13:29:24Z</time></trkpt><trkpt lat="43.272792690896964" lon="12.194377960371273"><ele>305.0</ele><time>2026-04-21T13:29:25Z</time></trkpt><trkpt lat="43.272839015347365" lon="12.194444628668961"><ele>305.0</ele><time>2026-04-21T13:29:26Z</time></trkpt><trkpt lat="43.27291247636496" lon="12.194483122049435"><ele>305.0</ele><time>2026-04-21T13:29:27Z</time></trkpt><trkpt lat="43.27299230201559" lon="12.194474801776524"><ele>305.0</ele><time>2026-04-21T13:29:28Z</time></trkpt><trkpt lat="43.27307839010366" lon="12.194443920441987"><ele>305.0</ele><time>2026-04-21T13:29:29Z</time></trkpt><trkpt lat="43.2731660303163" lon="12.194384044573376"><ele>305.0</ele><time>2026-04-21T13:29:30Z</time></trkpt><trkpt lat="43.27324859665043" lon="12.194341341714809"><ele>305.0</ele><time>2026-04-21T13:29:31Z</time></trkpt><trkpt lat="43.27332312209182" lon="12.194332178958245"><ele>302.33333333333337</ele><time>2026-04-21T13:29:32Z</time></trkpt><trkpt lat="43.273386265076304" lon="12.19435755608675"><ele>299.6666666666667</ele><time>2026-04-21T13:29:33Z</time></trkpt><trkpt lat="43.27344878961669" lon="12.194388290467229"><ele>297.0</ele><time>2026-04-21T13:29:34Z</time></trkpt><trkpt lat="43.273507260581184" lon="12.19442492906898"><ele>294.3333333333333</ele><time>2026-04-21T13:29:35Z</time></trkpt><trkpt lat="43.27358703698599" lon="12.194533797733605"><ele>291.66666666666663</ele><time>2026-04-21T13:29:37Z</time></trkpt><trkpt lat="43.2736252489216" lon="12.194604993761319"><ele>289.0</ele><time>2026-04-21T13:29:38Z</time></trkpt><trkpt lat="43.273701071459136" lon="12.194748275628646"><ele>289.0</ele><time>2026-04-21T13:29:40Z</time></trkpt><trkpt lat="43.27372822868359" lon="12.194841591893296"><ele>289.0</ele><time>2026-04-21T13:29:41Z</time></trkpt><trkpt lat="43.27377458471715" lon="12.194946719134629"><ele>289.0</ele><time>2026-04-21T13:29:43Z</time></trkpt><trkpt lat="43.27368525325339" lon="12.194762508672575"><ele>289.0</ele><time>2026-04-21T13:30:05Z</time></trkpt><trkpt lat="43.273638022483276" lon="12.19461600255347"><ele>289.0</ele><time>2026-04-21T13:30:07Z</time></trkpt><trkpt lat="43.27356232309222" lon="12.194483869228353"><ele>289.0</ele><time>2026-04-21T13:30:09Z</time></trkpt><trkpt lat="43.27352663211657" lon="12.194395375070362"><ele>289.0</ele><time>2026-04-21T13:30:10Z</time></trkpt><trkpt lat="43.27346321600418" lon="12.194339114326123"><ele>289.0</ele><time>2026-04-21T13:30:11Z</time></trkpt><trkpt lat="43.273400300334835" lon="12.19430701322258"><ele>289.0</ele><time>2026-04-21T13:30:12Z</time></trkpt><trkpt lat="43.27325769413154" lon="12.194276724845825"><ele>289.0</ele><time>2026-04-21T13:30:14Z</time></trkpt><trkpt lat="43.2731637703948" lon="12.194286044755168"><ele>293.0</ele><time>2026-04-21T13:30:15Z</time></trkpt><trkpt lat="43.27306578432604" lon="12.194348232080563"><ele>297.0</ele><time>2026-04-21T13:30:16Z</time></trkpt><trkpt lat="43.27298447274622" lon="12.194387745858844"><ele>301.0</ele><time>2026-04-21T13:30:17Z</time></trkpt><trkpt lat="43.27294857173826" lon="12.19451624719351"><ele>305.0</ele><time>2026-04-21T13:30:18Z</time></trkpt><trkpt lat="43.27282571828432" lon="12.194368387892789"><ele>305.0</ele><time>2026-04-21T13:30:20Z</time></trkpt><trkpt lat="43.272799830022116" lon="12.194280181121606"><ele>305.0</ele><time>2026-04-21T13:30:21Z</time></trkpt><trkpt lat="43.27279309760272" lon="12.1941704353761"><ele>305.0</ele><time>2026-04-21T13:30:22Z</time></trkpt><trkpt lat="43.272796122589064" lon="12.194030907756526"><ele>305.0</ele><time>2026-04-21T13:30:23Z</time></trkpt><trkpt lat="43.272800872751525" lon="12.193885896880008"><ele>305.0</ele><time>2026-04-21T13:30:24Z</time></trkpt><trkpt lat="43.27280544136883" lon="12.193760649847738"><ele>305.0</ele><time>2026-04-21T13:30:25Z</time></trkpt><trkpt lat="43.272816145414396" lon="12.193667112441307"><ele>305.1666666666667</ele><time>2026-04-21T13:30:26Z</time></trkpt><trkpt lat="43.272848429506126" lon="12.193589942734791"><ele>305.33333333333337</ele><time>2026-04-21T13:30:27Z</time></trkpt><trkpt lat="43.27291295041973" lon="12.193532879239099"><ele>305.5</ele><time>2026-04-21T13:30:28Z</time></trkpt><trkpt lat="43.273004538635895" lon="12.193482733523494"><ele>305.6666666666667</ele><time>2026-04-21T13:30:29Z</time></trkpt><trkpt lat="43.273100305768004" lon="12.193427540644658"><ele>305.8333333333333</ele><time>2026-04-21T13:30:30Z</time></trkpt><trkpt lat="43.273170303316405" lon="12.193370953456796"><ele>306.0</ele><time>2026-04-21T13:30:31Z</time></trkpt><trkpt lat="43.27322864469895" lon="12.193307111409775"><ele>303.3333333333333</ele><time>2026-04-21T13:30:32Z</time></trkpt><trkpt lat="43.273265729937215" lon="12.193225085060183"><ele>300.6666666666667</ele><time>2026-04-21T13:30:33Z</time></trkpt><trkpt lat="43.27328468776711" lon="12.193117768695632"><ele>298.0</ele><time>2026-04-21T13:30:34Z</time></trkpt><trkpt lat="43.27328172501856" lon="12.193006265724726"><ele>295.33333333333337</ele><time>2026-04-21T13:30:35Z</time></trkpt><trkpt lat="43.27327056979083" lon="12.192893083213802"><ele>292.6666666666667</ele><time>2026-04-21T13:30:36Z</time></trkpt><trkpt lat="43.273260718550056" lon="12.192765675318435"><ele>290.0</ele><time>2026-04-21T13:30:37Z</time></trkpt><trkpt lat="43.27325055453399" lon="12.192599150936577"><ele>290.0</ele><time>2026-04-21T13:30:38Z</time></trkpt><trkpt lat="43.27324786996155" lon="12.192437018611788"><ele>290.0</ele><time>2026-04-21T13:30:39Z</time></trkpt><trkpt lat="43.273261835054406" lon="12.192303813910458"><ele>290.0</ele><time>2026-04-21T13:30:40Z</time></trkpt><trkpt lat="43.27330341021025" lon="12.19219232101287"><ele>290.0</ele><time>2026-04-21T13:30:41Z</time></trkpt><trkpt lat="43.27331031861129" lon="12.192075702226656"><ele>290.0</ele><time>2026-04-21T13:30:42Z</time></trkpt><trkpt lat="43.27326325478579" lon="12.191940050733141"><ele>289.75</ele><time>2026-04-21T13:30:43Z</time></trkpt><trkpt lat="43.27323048480397" lon="12.191799567198121"><ele>289.5</ele><time>2026-04-21T13:30:44Z</time></trkpt><trkpt lat="43.27316656684171" lon="12.19168446083649"><ele>289.25</ele><time>2026-04-21T13:30:45Z</time></trkpt><trkpt lat="43.27310479456737" lon="12.191544987117734"><ele>289.0</ele><time>2026-04-21T13:30:46Z</time></trkpt><trkpt lat="43.27304060403296" lon="12.191399727939595"><ele>292.5</ele><time>2026-04-21T13:30:47Z</time></trkpt><trkpt lat="43.27298359491413" lon="12.191241053413343"><ele>296.0</ele><time>2026-04-21T13:30:48Z</time></trkpt><trkpt lat="43.27292315464243" lon="12.191092593981752"><ele>299.5</ele><time>2026-04-21T13:30:49Z</time></trkpt><trkpt lat="43.27288477247039" lon="12.19094114944893"><ele>303.0</ele><time>2026-04-21T13:30:50Z</time></trkpt><trkpt lat="43.27284607973299" lon="12.19079532090833"><ele>300.4</ele><time>2026-04-21T13:30:51Z</time></trkpt><trkpt lat="43.27279170510749" lon="12.190652586038134"><ele>297.8</ele><time>2026-04-21T13:30:52Z</time></trkpt><trkpt lat="43.27273400973764" lon="12.190514737225538"><ele>295.2</ele><time>2026-04-21T13:30:53Z</time></trkpt><trkpt lat="43.2726860220755" lon="12.190395259222592"><ele>292.6</ele><time>2026-04-21T13:30:54Z</time></trkpt><trkpt lat="43.27263622964448" lon="12.190282218777691"><ele>290.0</ele><time>2026-04-21T13:30:55Z</time></trkpt><trkpt lat="43.27258485771012" lon="12.190179883036297"><ele>290.0</ele><time>2026-04-21T13:30:56Z</time></trkpt><trkpt lat="43.27250752292525" lon="12.190069007510562"><ele>290.0</ele><time>2026-04-21T13:30:57Z</time></trkpt><trkpt lat="43.272386537118656" lon="12.189919654028921"><ele>290.0</ele><time>2026-04-21T13:30:58Z</time></trkpt><trkpt lat="43.27222292597164" lon="12.189789414808862"><ele>290.0</ele><time>2026-04-21T13:30:59Z</time></trkpt><trkpt lat="43.27209531812561" lon="12.189667619079474"><ele>290.0</ele><time>2026-04-21T13:31:00Z</time></trkpt><trkpt lat="43.27198305946783" lon="12.189562643469076"><ele>290.0</ele><time>2026-04-21T13:31:01Z</time></trkpt><trkpt lat="43.27188292817787" lon="12.189469110052228"><ele>290.0</ele><time>2026-04-21T13:31:02Z</time></trkpt><trkpt lat="43.271800633578735" lon="12.189377998756036"><ele>290.0</ele><time>2026-04-21T13:31:03Z</time></trkpt><trkpt lat="43.27174207542497" lon="12.189321640047481"><ele>290.0</ele><time>2026-04-21T13:31:04Z</time></trkpt><trkpt lat="43.27176038593087" lon="12.189205206872105"><ele>290.0</ele><time>2026-04-21T13:31:06Z</time></trkpt><trkpt lat="43.27177002210519" lon="12.189068340569959"><ele>290.0</ele><time>2026-04-21T13:31:07Z</time></trkpt><trkpt lat="43.271813206305346" lon="12.188897572117854"><ele>290.0</ele><time>2026-04-21T13:31:08Z</time></trkpt><trkpt lat="43.271837996559725" lon="12.18871548607174"><ele>290.0</ele><time>2026-04-21T13:31:09Z</time></trkpt><trkpt lat="43.271860247162" lon="12.188551009089757"><ele>290.0</ele><time>2026-04-21T13:31:10Z</time></trkpt><trkpt lat="43.271884363045004" lon="12.188429750673418"><ele>290.0</ele><time>2026-04-21T13:31:11Z</time></trkpt><trkpt lat="43.271929732157" lon="12.18834221617186"><ele>290.0</ele><time>2026-04-21T13:31:12Z</time></trkpt><trkpt lat="43.27198907636483" lon="12.188263029857524"><ele>290.0</ele><time>2026-04-21T13:31:13Z</time></trkpt><trkpt lat="43.27210092792128" lon="12.188250845396764"><ele>290.0</ele><time>2026-04-21T13:31:14Z</time></trkpt><trkpt lat="43.2722257203773" lon="12.188237205709802"><ele>290.0</ele><time>2026-04-21T13:31:15Z</time></trkpt><trkpt lat="43.272356936264636" lon="12.188243739576379"><ele>290.0</ele><time>2026-04-21T13:31:16Z</time></trkpt><trkpt lat="43.27248943941756" lon="12.188236690981201"><ele>290.0</ele><time>2026-04-21T13:31:17Z</time></trkpt><trkpt lat="43.272600597812904" lon="12.188227267984514"><ele>289.6</ele><time>2026-04-21T13:31:18Z</time></trkpt><trkpt lat="43.27269897545053" lon="12.18818866554058"><ele>289.2</ele><time>2026-04-21T13:31:19Z</time></trkpt><trkpt lat="43.27280416992603" lon="12.188172757109443"><ele>288.8</ele><time>2026-04-21T13:31:20Z</time></trkpt><trkpt lat="43.2728912434596" lon="12.188139740275588"><ele>288.4</ele><time>2026-04-21T13:31:21Z</time></trkpt><trkpt lat="43.27296918738289" lon="12.188069426093584"><ele>288.0</ele><time>2026-04-21T13:31:22Z</time></trkpt><trkpt lat="43.27305133040322" lon="12.187974020039462"><ele>288.6</ele><time>2026-04-21T13:31:23Z</time></trkpt><trkpt lat="43.27315296333654" lon="12.187856451818375"><ele>289.20000000000005</ele><time>2026-04-21T13:31:24Z</time></trkpt><trkpt lat="43.27321584481861" lon="12.187712513270897"><ele>289.8</ele><time>2026-04-21T13:31:25Z</time></trkpt><trkpt lat="43.27325142087331" lon="12.187583512514692"><ele>290.40000000000003</ele><time>2026-04-21T13:31:26Z</time></trkpt><trkpt lat="43.273270577676215" lon="12.18746360789537"><ele>291.0</ele><time>2026-04-21T13:31:27Z</time></trkpt><trkpt lat="43.2732800022067" lon="12.187326349357011"><ele>291.25</ele><time>2026-04-21T13:31:28Z</time></trkpt><trkpt lat="43.27328184993038" lon="12.187179101546112"><ele>291.5</ele><time>2026-04-21T13:31:29Z</time></trkpt><trkpt lat="43.27327061999212" lon="12.18699640569712"><ele>291.75</ele><time>2026-04-21T13:31:30Z</time></trkpt><trkpt lat="43.273269485871936" lon="12.186801259117226"><ele>292.0</ele><time>2026-04-21T13:31:31Z</time></trkpt><trkpt lat="43.27326911498451" lon="12.186599693229502"><ele>292.75</ele><time>2026-04-21T13:31:32Z</time></trkpt><trkpt lat="43.27325073604994" lon="12.186394546508051"><ele>293.5</ele><time>2026-04-21T13:31:33Z</time></trkpt><trkpt lat="43.27323710710429" lon="12.186195689960506"><ele>294.25</ele><time>2026-04-21T13:31:34Z</time></trkpt><trkpt lat="43.273246589667764" lon="12.18601612027857"><ele>295.0</ele><time>2026-04-21T13:31:35Z</time></trkpt><trkpt lat="43.273238807668285" lon="12.185854804317609"><ele>295.0</ele><time>2026-04-21T13:31:36Z</time></trkpt><trkpt lat="43.273210934240865" lon="12.18570886974307"><ele>295.0</ele><time>2026-04-21T13:31:37Z</time></trkpt><trkpt lat="43.273227901423915" lon="12.185582341857684"><ele>295.0</ele><time>2026-04-21T13:31:38Z</time></trkpt><trkpt lat="43.27323638621814" lon="12.185487290579774"><ele>295.0</ele><time>2026-04-21T13:31:39Z</time></trkpt><trkpt lat="43.27326750637294" lon="12.185355994589544"><ele>295.0</ele><time>2026-04-21T13:31:41Z</time></trkpt><trkpt lat="43.273332127801204" lon="12.18529779154822"><ele>295.2</ele><time>2026-04-21T13:31:43Z</time></trkpt><trkpt lat="43.27337164628385" lon="12.185158648013175"><ele>295.4</ele><time>2026-04-21T13:31:45Z</time></trkpt><trkpt lat="43.27335430942949" lon="12.185025110050264"><ele>295.6</ele><time>2026-04-21T13:31:46Z</time></trkpt><trkpt lat="43.273356158117736" lon="12.18487002463752"><ele>295.8</ele><time>2026-04-21T13:31:47Z</time></trkpt><trkpt lat="43.27335228151805" lon="12.184704435832469"><ele>296.0</ele><time>2026-04-21T13:31:48Z</time></trkpt><trkpt lat="43.27334410902676" lon="12.184515427039408"><ele>295.33333333333337</ele><time>2026-04-21T13:31:49Z</time></trkpt><trkpt lat="43.27333997390251" lon="12.184300367681177"><ele>294.6666666666667</ele><time>2026-04-21T13:31:50Z</time></trkpt><trkpt lat="43.27333422652465" lon="12.184075615952024"><ele>294.0</ele><time>2026-04-21T13:31:51Z</time></trkpt><trkpt lat="43.27332196201664" lon="12.183828808355866"><ele>293.6666666666667</ele><time>2026-04-21T13:31:52Z</time></trkpt><trkpt lat="43.273310762891846" lon="12.183576423859233"><ele>293.33333333333337</ele><time>2026-04-21T13:31:53Z</time></trkpt><trkpt lat="43.27329730579502" lon="12.18331668132161"><ele>293.0</ele><time>2026-04-21T13:31:54Z</time></trkpt><trkpt lat="43.27327969609379" lon="12.183052371679294"><ele>293.0</ele><time>2026-04-21T13:31:55Z</time></trkpt><trkpt lat="43.2732546106706" lon="12.182784764139358"><ele>293.0</ele><time>2026-04-21T13:31:56Z</time></trkpt><trkpt lat="43.27323058060595" lon="12.18250332194556"><ele>293.0</ele><time>2026-04-21T13:31:57Z</time></trkpt><trkpt lat="43.27320430986284" lon="12.182208943374114"><ele>292.33333333333337</ele><time>2026-04-21T13:31:58Z</time></trkpt><trkpt lat="43.27317687958783" lon="12.18191676128578"><ele>291.6666666666667</ele><time>2026-04-21T13:31:59Z</time></trkpt><trkpt lat="43.27314904469601" lon="12.181617541218301"><ele>291.0</ele><time>2026-04-21T13:32:00Z</time></trkpt><trkpt lat="43.27312048763384" lon="12.181313525322956"><ele>295.0</ele><time>2026-04-21T13:32:01Z</time></trkpt><trkpt lat="43.27309269861085" lon="12.181022078099721"><ele>299.0</ele><time>2026-04-21T13:32:02Z</time></trkpt><trkpt lat="43.27306436664001" lon="12.180762407929066"><ele>303.0</ele><time>2026-04-21T13:32:03Z</time></trkpt><trkpt lat="43.27303790912816" lon="12.180512419075564"><ele>303.6666666666667</ele><time>2026-04-21T13:32:04Z</time></trkpt><trkpt lat="43.27300451704764" lon="12.180264731175605"><ele>304.33333333333337</ele><time>2026-04-21T13:32:05Z</time></trkpt><trkpt lat="43.27296086088642" lon="12.180016992779708"><ele>305.0</ele><time>2026-04-21T13:32:06Z</time></trkpt><trkpt lat="43.27290020868423" lon="12.179766555565124"><ele>302.33333333333337</ele><time>2026-04-21T13:32:07Z</time></trkpt><trkpt lat="43.27281920571107" lon="12.17950914469992"><ele>299.6666666666667</ele><time>2026-04-21T13:32:08Z</time></trkpt><trkpt lat="43.27273976069069" lon="12.179262114318126"><ele>297.0</ele><time>2026-04-21T13:32:09Z</time></trkpt><trkpt lat="43.272652054413996" lon="12.178990929967368"><ele>295.0</ele><time>2026-04-21T13:32:10Z</time></trkpt><trkpt lat="43.27258033548459" lon="12.178710707597142"><ele>293.0</ele><time>2026-04-21T13:32:11Z</time></trkpt><trkpt lat="43.272494774227944" lon="12.178438496902352"><ele>291.0</ele><time>2026-04-21T13:32:12Z</time></trkpt><trkpt lat="43.27239450109269" lon="12.178162576862311"><ele>291.3333333333333</ele><time>2026-04-21T13:32:13Z</time></trkpt><trkpt lat="43.27230786892196" lon="12.177889860880162"><ele>291.66666666666663</ele><time>2026-04-21T13:32:14Z</time></trkpt><trkpt lat="43.27221696513372" lon="12.177607137993268"><ele>292.0</ele><time>2026-04-21T13:32:15Z</time></trkpt><trkpt lat="43.272142081947415" lon="12.177311068574836"><ele>290.5</ele><time>2026-04-21T13:32:16Z</time></trkpt><trkpt lat="43.27205054341131" lon="12.177017588671726"><ele>289.0</ele><time>2026-04-21T13:32:17Z</time></trkpt><trkpt lat="43.271958385092994" lon="12.176725866547455"><ele>289.5</ele><time>2026-04-21T13:32:18Z</time></trkpt><trkpt lat="43.27186467276265" lon="12.176429382160682"><ele>290.0</ele><time>2026-04-21T13:32:19Z</time></trkpt><trkpt lat="43.27176867890103" lon="12.176126266210794"><ele>290.0</ele><time>2026-04-21T13:32:20Z</time></trkpt><trkpt lat="43.27167089893597" lon="12.175824386893675"><ele>290.0</ele><time>2026-04-21T13:32:21Z</time></trkpt><trkpt lat="43.27157186474322" lon="12.175521339927263"><ele>289.5</ele><time>2026-04-21T13:32:22Z</time></trkpt><trkpt lat="43.271472272504845" lon="12.175222410948258"><ele>289.0</ele><time>2026-04-21T13:32:23Z</time></trkpt><trkpt lat="43.27137196421544" lon="12.174921332408326"><ele>290.0</ele><time>2026-04-21T13:32:24Z</time></trkpt><trkpt lat="43.27126945212693" lon="12.17461363925287"><ele>291.0</ele><time>2026-04-21T13:32:25Z</time></trkpt><trkpt lat="43.2711533306761" lon="12.17431464398114"><ele>290.5</ele><time>2026-04-21T13:32:26Z</time></trkpt><trkpt lat="43.27106493185608" lon="12.173999765356625"><ele>290.0</ele><time>2026-04-21T13:32:27Z</time></trkpt><trkpt lat="43.27096220758401" lon="12.173691435359657"><ele>290.0</ele><time>2026-04-21T13:32:28Z</time></trkpt><trkpt lat="43.270861486771565" lon="12.173382995534348"><ele>290.0</ele><time>2026-04-21T13:32:29Z</time></trkpt><trkpt lat="43.27076000125832" lon="12.173071369376974"><ele>289.0</ele><time>2026-04-21T13:32:30Z</time></trkpt><trkpt lat="43.27065918359478" lon="12.172761795497554"><ele>288.0</ele><time>2026-04-21T13:32:31Z</time></trkpt><trkpt lat="43.27055783004393" lon="12.172450580140424"><ele>288.0</ele><time>2026-04-21T13:32:32Z</time></trkpt><trkpt lat="43.27045687718719" lon="12.172140595148852"><ele>288.0</ele><time>2026-04-21T13:32:33Z</time></trkpt><trkpt lat="43.270354739195874" lon="12.171832667648113"><ele>288.0</ele><time>2026-04-21T13:32:34Z</time></trkpt><trkpt lat="43.27019777983215" lon="12.171559619931461"><ele>288.0</ele><time>2026-04-21T13:32:35Z</time></trkpt><trkpt lat="43.270054534420105" lon="12.171276413289783"><ele>288.0</ele><time>2026-04-21T13:32:36Z</time></trkpt><trkpt lat="43.269910408905375" lon="12.170990590646749"><ele>288.0</ele><time>2026-04-21T13:32:37Z</time></trkpt><trkpt lat="43.26977060211226" lon="12.170701925607677"><ele>288.0</ele><time>2026-04-21T13:32:38Z</time></trkpt><trkpt lat="43.269634815031296" lon="12.170411156017671"><ele>288.0</ele><time>2026-04-21T13:32:39Z</time></trkpt><trkpt lat="43.26950503801943" lon="12.170127093215187"><ele>288.5</ele><time>2026-04-21T13:32:40Z</time></trkpt><trkpt lat="43.269374815847314" lon="12.169854604025021"><ele>289.0</ele><time>2026-04-21T13:32:41Z</time></trkpt><trkpt lat="43.26924128913531" lon="12.169602155259229"><ele>289.0</ele><time>2026-04-21T13:32:42Z</time></trkpt><trkpt lat="43.26908885251318" lon="12.169380303483686"><ele>289.0</ele><time>2026-04-21T13:32:43Z</time></trkpt><trkpt lat="43.268907608955764" lon="12.16918278710968"><ele>288.5</ele><time>2026-04-21T13:32:44Z</time></trkpt><trkpt lat="43.26871174674608" lon="12.16900890692915"><ele>288.0</ele><time>2026-04-21T13:32:45Z</time></trkpt><trkpt lat="43.268510993184655" lon="12.168830615166899"><ele>288.0</ele><time>2026-04-21T13:32:46Z</time></trkpt><trkpt lat="43.26830877000351" lon="12.16864455863344"><ele>288.0</ele><time>2026-04-21T13:32:47Z</time></trkpt><trkpt lat="43.268103801168856" lon="12.168467000644215"><ele>288.5</ele><time>2026-04-21T13:32:48Z</time></trkpt><trkpt lat="43.267894792675" lon="12.168287620945923"><ele>289.0</ele><time>2026-04-21T13:32:49Z</time></trkpt><trkpt lat="43.26768777653376" lon="12.168104110904299"><ele>289.0</ele><time>2026-04-21T13:32:50Z</time></trkpt><trkpt lat="43.267480710236335" lon="12.16792021361254"><ele>289.0</ele><time>2026-04-21T13:32:51Z</time></trkpt><trkpt lat="43.267278110839236" lon="12.16774243999192"><ele>290.0</ele><time>2026-04-21T13:32:52Z</time></trkpt><trkpt lat="43.267070333629114" lon="12.167556090454235"><ele>291.0</ele><time>2026-04-21T13:32:53Z</time></trkpt><trkpt lat="43.26686703685528" lon="12.167376819185526"><ele>290.0</ele><time>2026-04-21T13:32:54Z</time></trkpt><trkpt lat="43.266664477027746" lon="12.167204583178679"><ele>289.0</ele><time>2026-04-21T13:32:55Z</time></trkpt><trkpt lat="43.266462959809175" lon="12.167026079422227"><ele>289.0</ele><time>2026-04-21T13:32:56Z</time></trkpt><trkpt lat="43.26627257483367" lon="12.16684676393272"><ele>289.0</ele><time>2026-04-21T13:32:57Z</time></trkpt><trkpt lat="43.26607962251444" lon="12.166670246021022"><ele>288.5</ele><time>2026-04-21T13:32:58Z</time></trkpt><trkpt lat="43.265882103952045" lon="12.166496674015102"><ele>288.0</ele><time>2026-04-21T13:32:59Z</time></trkpt><trkpt lat="43.26568454930186" lon="12.16632836855886"><ele>288.0</ele><time>2026-04-21T13:33:00Z</time></trkpt><trkpt lat="43.26548885809023" lon="12.166156939073694"><ele>288.0</ele><time>2026-04-21T13:33:01Z</time></trkpt><trkpt lat="43.26529596454252" lon="12.165984263462455"><ele>288.0</ele><time>2026-04-21T13:33:02Z</time></trkpt><trkpt lat="43.265100304825694" lon="12.165801300420425"><ele>288.0</ele><time>2026-04-21T13:33:03Z</time></trkpt><trkpt lat="43.26490795459023" lon="12.165625049880815"><ele>288.0</ele><time>2026-04-21T13:33:04Z</time></trkpt><trkpt lat="43.26471322865384" lon="12.165434893941434"><ele>288.0</ele><time>2026-04-21T13:33:05Z</time></trkpt><trkpt lat="43.26453638700506" lon="12.165263225702464"><ele>288.0</ele><time>2026-04-21T13:33:06Z</time></trkpt><trkpt lat="43.26436730217011" lon="12.16508485426342"><ele>288.0</ele><time>2026-04-21T13:33:07Z</time></trkpt><trkpt lat="43.26421234558107" lon="12.16492151076662"><ele>288.0</ele><time>2026-04-21T13:33:08Z</time></trkpt><trkpt lat="43.26406910964078" lon="12.164771589421315"><ele>288.25</ele><time>2026-04-21T13:33:09Z</time></trkpt><trkpt lat="43.263940269559356" lon="12.16463780267101"><ele>288.5</ele><time>2026-04-21T13:33:10Z</time></trkpt><trkpt lat="43.26382864159928" lon="12.164516598262303"><ele>288.75</ele><time>2026-04-21T13:33:11Z</time></trkpt><trkpt lat="43.26373392253932" lon="12.164412084108715"><ele>289.0</ele><time>2026-04-21T13:33:12Z</time></trkpt><trkpt lat="43.263654362531156" lon="12.164318254834763"><ele>289.0</ele><time>2026-04-21T13:33:13Z</time></trkpt><trkpt lat="43.263580510876245" lon="12.164245839394068"><ele>289.0</ele><time>2026-04-21T13:33:14Z</time></trkpt><trkpt lat="43.26351080458566" lon="12.164210830392776"><ele>289.0</ele><time>2026-04-21T13:33:15Z</time></trkpt><trkpt lat="43.26344525689359" lon="12.164224340890916"><ele>289.0</ele><time>2026-04-21T13:33:16Z</time></trkpt><trkpt lat="43.263379585748226" lon="12.16427739005447"><ele>289.0</ele><time>2026-04-21T13:33:17Z</time></trkpt><trkpt lat="43.26329343522667" lon="12.16435038999136"><ele>289.0</ele><time>2026-04-21T13:33:18Z</time></trkpt><trkpt lat="43.26317795765173" lon="12.164420578320405"><ele>289.0</ele><time>2026-04-21T13:33:19Z</time></trkpt><trkpt lat="43.26304871999322" lon="12.164482231818406"><ele>289.0</ele><time>2026-04-21T13:33:20Z</time></trkpt><trkpt lat="43.26290945878581" lon="12.164556744646841"><ele>289.0</ele><time>2026-04-21T13:33:21Z</time></trkpt><trkpt lat="43.26277227340242" lon="12.164668499677918"><ele>289.0</ele><time>2026-04-21T13:33:22Z</time></trkpt><trkpt lat="43.26264882167546" lon="12.164818206776133"><ele>289.3333333333333</ele><time>2026-04-21T13:33:23Z</time></trkpt><trkpt lat="43.26252830359549" lon="12.164995124068556"><ele>289.6666666666667</ele><time>2026-04-21T13:33:24Z</time></trkpt><trkpt lat="43.262414099919795" lon="12.165180605205938"><ele>290.0</ele><time>2026-04-21T13:33:25Z</time></trkpt><trkpt lat="43.26229110386891" lon="12.165368919543704"><ele>290.33333333333337</ele><time>2026-04-21T13:33:26Z</time></trkpt><trkpt lat="43.262170564923046" lon="12.165533846798837"><ele>290.6666666666667</ele><time>2026-04-21T13:33:27Z</time></trkpt><trkpt lat="43.26204888567519" lon="12.165682622794717"><ele>291.0</ele><time>2026-04-21T13:33:28Z</time></trkpt><trkpt lat="43.26195098696821" lon="12.165842817851644"><ele>292.25</ele><time>2026-04-21T13:33:29Z</time></trkpt><trkpt lat="43.261872427975796" lon="12.166009092651347"><ele>293.5</ele><time>2026-04-21T13:33:30Z</time></trkpt><trkpt lat="43.2617791240004" lon="12.166147516842813"><ele>294.75</ele><time>2026-04-21T13:33:31Z</time></trkpt><trkpt lat="43.261658337963276" lon="12.166261290922385"><ele>296.0</ele><time>2026-04-21T13:33:32Z</time></trkpt><trkpt lat="43.261528266311764" lon="12.166365445143446"><ele>298.33333333333337</ele><time>2026-04-21T13:33:33Z</time></trkpt><trkpt lat="43.26139418491984" lon="12.166467962108667"><ele>300.6666666666667</ele><time>2026-04-21T13:33:34Z</time></trkpt><trkpt lat="43.261257340775174" lon="12.166560691346051"><ele>303.0</ele><time>2026-04-21T13:33:35Z</time></trkpt><trkpt lat="43.26110301570161" lon="12.166631548769448"><ele>304.3333333333333</ele><time>2026-04-21T13:33:36Z</time></trkpt><trkpt lat="43.260929089800086" lon="12.166691008760344"><ele>305.66666666666663</ele><time>2026-04-21T13:33:37Z</time></trkpt><trkpt lat="43.260755168980054" lon="12.166765159355688"><ele>307.0</ele><time>2026-04-21T13:33:38Z</time></trkpt><trkpt lat="43.26057645675053" lon="12.166854084759963"><ele>309.0</ele><time>2026-04-21T13:33:39Z</time></trkpt><trkpt lat="43.26040634062733" lon="12.166959820225863"><ele>311.0</ele><time>2026-04-21T13:33:40Z</time></trkpt><trkpt lat="43.26022698571289" lon="12.167048805611998"><ele>313.0</ele><time>2026-04-21T13:33:41Z</time></trkpt><trkpt lat="43.26005251865372" lon="12.167146253736012"><ele>313.0</ele><time>2026-04-21T13:33:42Z</time></trkpt><trkpt lat="43.25987315439381" lon="12.167244366602544"><ele>313.0</ele><time>2026-04-21T13:33:43Z</time></trkpt><trkpt lat="43.2597031444157" lon="12.167337210392004"><ele>313.0</ele><time>2026-04-21T13:33:44Z</time></trkpt><trkpt lat="43.2595306511039" lon="12.167439475473442"><ele>318.0</ele><time>2026-04-21T13:33:45Z</time></trkpt><trkpt lat="43.25937828280639" lon="12.167546349511067"><ele>323.0</ele><time>2026-04-21T13:33:46Z</time></trkpt><trkpt lat="43.25925363092702" lon="12.167659632091269"><ele>328.0</ele><time>2026-04-21T13:33:47Z</time></trkpt><trkpt lat="43.259146072743455" lon="12.167736254010334"><ele>333.0</ele><time>2026-04-21T13:33:48Z</time></trkpt><trkpt lat="43.25906064176461" lon="12.167795037051468"><ele>334.4</ele><time>2026-04-21T13:33:49Z</time></trkpt><trkpt lat="43.25891431813793" lon="12.167825054142497"><ele>335.79999999999995</ele><time>2026-04-21T13:33:51Z</time></trkpt><trkpt lat="43.258854674878705" lon="12.167733828772866"><ele>337.2</ele><time>2026-04-21T13:33:53Z</time></trkpt><trkpt lat="43.25879136389423" lon="12.167896185614797"><ele>338.6</ele><time>2026-04-21T13:33:56Z</time></trkpt><trkpt lat="43.25878653951668" lon="12.167994312522225"><ele>340.0</ele><time>2026-04-21T13:33:57Z</time></trkpt><trkpt lat="43.25879440741253" lon="12.168084112402806"><ele>340.0</ele><time>2026-04-21T13:33:58Z</time></trkpt><trkpt lat="43.25879206181173" lon="12.168180610714256"><ele>340.0</ele><time>2026-04-21T13:33:59Z</time></trkpt><trkpt lat="43.258782358312715" lon="12.168277995888074"><ele>340.0</ele><time>2026-04-21T13:34:00Z</time></trkpt><trkpt lat="43.25875397800446" lon="12.168364063576508"><ele>340.0</ele><time>2026-04-21T13:34:01Z</time></trkpt><trkpt lat="43.25870649965886" lon="12.168426050848325"><ele>340.0</ele><time>2026-04-21T13:34:02Z</time></trkpt><trkpt lat="43.258561740231364" lon="12.168443903872259"><ele>340.0</ele><time>2026-04-21T13:34:04Z</time></trkpt><trkpt lat="43.25850674338012" lon="12.168488703644444"><ele>342.5</ele><time>2026-04-21T13:34:05Z</time></trkpt><trkpt lat="43.258530747302416" lon="12.168653641483617"><ele>345.0</ele><time>2026-04-21T13:34:07Z</time></trkpt><trkpt lat="43.258529706770965" lon="12.16874774323505"><ele>347.5</ele><time>2026-04-21T13:34:09Z</time></trkpt><trkpt lat="43.25846953062442" lon="12.168803651672379"><ele>350.0</ele><time>2026-04-21T13:34:17Z</time></trkpt><trkpt lat="43.25841506906616" lon="12.168749517731895"><ele>352.5</ele><time>2026-04-21T13:34:18Z</time></trkpt><trkpt lat="43.25833654576631" lon="12.168769651855904"><ele>355.0</ele><time>2026-04-21T13:34:20Z</time></trkpt><trkpt lat="43.258258652188076" lon="12.16888042583263"><ele>355.0</ele><time>2026-04-21T13:34:22Z</time></trkpt><trkpt lat="43.25820878924718" lon="12.16893426778621"><ele>355.0</ele><time>2026-04-21T13:34:23Z</time></trkpt><trkpt lat="43.2581544511298" lon="12.168995843648968"><ele>355.0</ele><time>2026-04-21T13:34:24Z</time></trkpt><trkpt lat="43.25810035345765" lon="12.169071038300023"><ele>355.0</ele><time>2026-04-21T13:34:25Z</time></trkpt><trkpt lat="43.2580518653423" lon="12.16915035490304"><ele>355.0</ele><time>2026-04-21T13:34:26Z</time></trkpt><trkpt lat="43.258004704318715" lon="12.169235209163284"><ele>355.0</ele><time>2026-04-21T13:34:27Z</time></trkpt><trkpt lat="43.25795010459045" lon="12.169321482349515"><ele>355.0</ele><time>2026-04-21T13:34:28Z</time></trkpt><trkpt lat="43.257893724752876" lon="12.169404545693302"><ele>359.8333333333333</ele><time>2026-04-21T13:34:29Z</time></trkpt><trkpt lat="43.25784011358877" lon="12.169487951292858"><ele>364.66666666666663</ele><time>2026-04-21T13:34:30Z</time></trkpt><trkpt lat="43.25779376860049" lon="12.169579169614572"><ele>369.5</ele><time>2026-04-21T13:34:31Z</time></trkpt><trkpt lat="43.257754523761626" lon="12.169675678379459"><ele>374.3333333333333</ele><time>2026-04-21T13:34:32Z</time></trkpt><trkpt lat="43.25771207541125" lon="12.169774278463288"><ele>379.1666666666667</ele><time>2026-04-21T13:34:33Z</time></trkpt><trkpt lat="43.257673534390236" lon="12.169850822250085"><ele>384.0</ele><time>2026-04-21T13:34:34Z</time></trkpt><trkpt lat="43.25755245609546" lon="12.169873335463206"><ele>384.0</ele><time>2026-04-21T13:34:37Z</time></trkpt><trkpt lat="43.257618161393445" lon="12.169835785340425"><ele>384.0</ele><time>2026-04-21T13:34:48Z</time></trkpt><trkpt lat="43.25780665098729" lon="12.16950734934397"><ele>384.0</ele><time>2026-04-21T13:34:54Z</time></trkpt><trkpt lat="43.25787841656889" lon="12.169387713214173"><ele>384.0</ele><time>2026-04-21T13:34:55.999Z</time></trkpt><trkpt lat="43.257950856798075" lon="12.169281315675525"><ele>384.0</ele><time>2026-04-21T13:34:57.999Z</time></trkpt><trkpt lat="43.25802467464893" lon="12.169174038275884"><ele>384.0</ele><time>2026-04-21T13:34:59.999Z</time></trkpt><trkpt lat="43.25809030039266" lon="12.169067433322244"><ele>384.0</ele><time>2026-04-21T13:35:01.999Z</time></trkpt><trkpt lat="43.258153329344346" lon="12.168968724933084"><ele>384.0</ele><time>2026-04-21T13:35:03.999Z</time></trkpt><trkpt lat="43.25822651152753" lon="12.168899224628877"><ele>379.1666666666667</ele><time>2026-04-21T13:35:05.999Z</time></trkpt><trkpt lat="43.258294818798504" lon="12.168848815214867"><ele>374.3333333333333</ele><time>2026-04-21T13:35:07.999Z</time></trkpt><trkpt lat="43.25835228607034" lon="12.168800826348862"><ele>369.5</ele><time>2026-04-21T13:35:09.999Z</time></trkpt><trkpt lat="43.25841886053353" lon="12.168777788036483"><ele>364.66666666666663</ele><time>2026-04-21T13:35:11.999Z</time></trkpt><trkpt lat="43.25848736407125" lon="12.168768555513372"><ele>359.8333333333333</ele><time>2026-04-21T13:35:13.999Z</time></trkpt><trkpt lat="43.25852639246043" lon="12.168679062455013"><ele>355.0</ele><time>2026-04-21T13:35:15.999Z</time></trkpt><trkpt lat="43.25851886227994" lon="12.168546330265135"><ele>355.0</ele><time>2026-04-21T13:35:17.999Z</time></trkpt><trkpt lat="43.25856206228323" lon="12.16845477962763"><ele>355.0</ele><time>2026-04-21T13:35:19.999Z</time></trkpt><trkpt lat="43.25865424312318" lon="12.168430191470847"><ele>355.0</ele><time>2026-04-21T13:35:21.999Z</time></trkpt><trkpt lat="43.25873473452406" lon="12.16836621700115"><ele>355.0</ele><time>2026-04-21T13:35:23.999Z</time></trkpt><trkpt lat="43.258811161870135" lon="12.168276388502274"><ele>355.0</ele><time>2026-04-21T13:35:25.999Z</time></trkpt><trkpt lat="43.258828069137614" lon="12.168108954475846"><ele>352.0</ele><time>2026-04-21T13:35:27.999Z</time></trkpt><trkpt lat="43.25881273816204" lon="12.167965797037047"><ele>349.0</ele><time>2026-04-21T13:35:29.999Z</time></trkpt><trkpt lat="43.258800856609746" lon="12.167850320841755"><ele>346.0</ele><time>2026-04-21T13:35:31.999Z</time></trkpt><trkpt lat="43.258844814808775" lon="12.167786341441975"><ele>343.0</ele><time>2026-04-21T13:35:34.999Z</time></trkpt><trkpt lat="43.25876360155344" lon="12.167667443899932"><ele>340.0</ele><time>2026-04-21T13:35:37.999Z</time></trkpt><trkpt lat="43.258685523047596" lon="12.167640066907179"><ele>340.0</ele><time>2026-04-21T13:35:38.999Z</time></trkpt><trkpt lat="43.25861593717165" lon="12.167589470048355"><ele>340.0</ele><time>2026-04-21T13:35:39.999Z</time></trkpt><trkpt lat="43.25853075507057" lon="12.167556170391517"><ele>340.0</ele><time>2026-04-21T13:35:40.999Z</time></trkpt><trkpt lat="43.258438508703875" lon="12.167522614829402"><ele>340.0</ele><time>2026-04-21T13:35:41.999Z</time></trkpt><trkpt lat="43.2583490728658" lon="12.167492468314382"><ele>340.0</ele><time>2026-04-21T13:35:42.999Z</time></trkpt><trkpt lat="43.25825796462573" lon="12.167461758210402"><ele>340.0</ele><time>2026-04-21T13:35:43.999Z</time></trkpt><trkpt lat="43.258159470510904" lon="12.167449103462781"><ele>341.6</ele><time>2026-04-21T13:35:44.999Z</time></trkpt><trkpt lat="43.258066326540906" lon="12.167406524654472"><ele>343.2</ele><time>2026-04-21T13:35:45.999Z</time></trkpt><trkpt lat="43.25797562721649" lon="12.167346054927977"><ele>344.79999999999995</ele><time>2026-04-21T13:35:46.999Z</time></trkpt><trkpt lat="43.25787620252188" lon="12.167303708668266"><ele>346.4</ele><time>2026-04-21T13:35:47.999Z</time></trkpt><trkpt lat="43.25778316198497" lon="12.16728537448164"><ele>348.0</ele><time>2026-04-21T13:35:48.999Z</time></trkpt><trkpt lat="43.25767921322875" lon="12.167310926475029"><ele>348.0</ele><time>2026-04-21T13:35:49.999Z</time></trkpt><trkpt lat="43.257576943831474" lon="12.167358354670892"><ele>348.0</ele><time>2026-04-21T13:35:50.999Z</time></trkpt><trkpt lat="43.257479635155434" lon="12.167428765215334"><ele>348.0</ele><time>2026-04-21T13:35:51.999Z</time></trkpt><trkpt lat="43.25739193421752" lon="12.167525798049722"><ele>348.0</ele><time>2026-04-21T13:35:52.999Z</time></trkpt><trkpt lat="43.25729324159169" lon="12.167607932201209"><ele>348.0</ele><time>2026-04-21T13:35:53.999Z</time></trkpt><trkpt lat="43.25718901625765" lon="12.167694490362184"><ele>347.0</ele><time>2026-04-21T13:35:54.999Z</time></trkpt><trkpt lat="43.25708073942067" lon="12.167786759146772"><ele>346.0</ele><time>2026-04-21T13:35:55.999Z</time></trkpt><trkpt lat="43.25697038822382" lon="12.167889591784855"><ele>345.0</ele><time>2026-04-21T13:35:56.999Z</time></trkpt><trkpt lat="43.256857495276584" lon="12.167997929043265"><ele>344.0</ele><time>2026-04-21T13:35:57.999Z</time></trkpt><trkpt lat="43.25674640215173" lon="12.168109357000164"><ele>347.0</ele><time>2026-04-21T13:35:58.999Z</time></trkpt><trkpt lat="43.25661982865655" lon="12.168196307375528"><ele>350.0</ele><time>2026-04-21T13:35:59.999Z</time></trkpt><trkpt lat="43.256505198829174" lon="12.168295754155052"><ele>353.0</ele><time>2026-04-21T13:36:00.999Z</time></trkpt><trkpt lat="43.2564137000419" lon="12.16840437029489"><ele>356.0</ele><time>2026-04-21T13:36:01.999Z</time></trkpt><trkpt lat="43.2563179987444" lon="12.168475242088212"><ele>356.0</ele><time>2026-04-21T13:36:02.999Z</time></trkpt><trkpt lat="43.25625019729718" lon="12.168585388700262"><ele>356.0</ele><time>2026-04-21T13:36:03.999Z</time></trkpt><trkpt lat="43.256225553021004" lon="12.168730705697223"><ele>356.0</ele><time>2026-04-21T13:36:04.999Z</time></trkpt><trkpt lat="43.25620574086552" lon="12.168871687693354"><ele>356.0</ele><time>2026-04-21T13:36:05.999Z</time></trkpt><trkpt lat="43.2561974051625" lon="12.169015720089435"><ele>356.0</ele><time>2026-04-21T13:36:06.999Z</time></trkpt><trkpt lat="43.25619436426947" lon="12.16916333095555"><ele>357.8</ele><time>2026-04-21T13:36:07.999Z</time></trkpt><trkpt lat="43.256191424502106" lon="12.169311879740427"><ele>359.6</ele><time>2026-04-21T13:36:08.999Z</time></trkpt><trkpt lat="43.25618320387971" lon="12.169457684920808"><ele>361.4</ele><time>2026-04-21T13:36:09.999Z</time></trkpt><trkpt lat="43.25616922930663" lon="12.169605186933572"><ele>363.2</ele><time>2026-04-21T13:36:10.999Z</time></trkpt><trkpt lat="43.25614106828447" lon="12.169752095515218"><ele>365.0</ele><time>2026-04-21T13:36:11.999Z</time></trkpt><trkpt lat="43.25610686110701" lon="12.169879276389002"><ele>367.33333333333337</ele><time>2026-04-21T13:36:12.999Z</time></trkpt><trkpt lat="43.25607998563378" lon="12.169983799239088"><ele>369.6666666666667</ele><time>2026-04-21T13:36:13.999Z</time></trkpt><trkpt lat="43.256050359634166" lon="12.170079315253693"><ele>372.0</ele><time>2026-04-21T13:36:14.999Z</time></trkpt><trkpt lat="43.25600523565722" lon="12.170162306595909"><ele>374.3333333333333</ele><time>2026-04-21T13:36:15.999Z</time></trkpt><trkpt lat="43.25594368694664" lon="12.170208156708663"><ele>376.66666666666663</ele><time>2026-04-21T13:36:16.999Z</time></trkpt><trkpt lat="43.255870422729025" lon="12.17018570403091"><ele>379.0</ele><time>2026-04-21T13:36:17.999Z</time></trkpt><trkpt lat="43.25579788629966" lon="12.170177135855232"><ele>379.0</ele><time>2026-04-21T13:36:18.999Z</time></trkpt><trkpt lat="43.25571542736084" lon="12.170170417563803"><ele>379.0</ele><time>2026-04-21T13:36:19.999Z</time></trkpt><trkpt lat="43.25564029024993" lon="12.170182420953898"><ele>379.0</ele><time>2026-04-21T13:36:20.999Z</time></trkpt><trkpt lat="43.255569054749216" lon="12.170229970404561"><ele>379.0</ele><time>2026-04-21T13:36:21.999Z</time></trkpt><trkpt lat="43.25549805686397" lon="12.170292483751277"><ele>379.0</ele><time>2026-04-21T13:36:22.999Z</time></trkpt><trkpt lat="43.255422491712075" lon="12.170364116812511"><ele>379.0</ele><time>2026-04-21T13:36:23.999Z</time></trkpt><trkpt lat="43.25534028530697" lon="12.170447295497054"><ele>377.75</ele><time>2026-04-21T13:36:24.999Z</time></trkpt><trkpt lat="43.25525018699514" lon="12.170541510766075"><ele>376.5</ele><time>2026-04-21T13:36:25.999Z</time></trkpt><trkpt lat="43.25516281525657" lon="12.170633813016588"><ele>375.25</ele><time>2026-04-21T13:36:26.999Z</time></trkpt><trkpt lat="43.25506943603968" lon="12.170729049167418"><ele>374.0</ele><time>2026-04-21T13:36:27.999Z</time></trkpt><trkpt lat="43.254977422793985" lon="12.170846663952256"><ele>376.0</ele><time>2026-04-21T13:36:28.999Z</time></trkpt><trkpt lat="43.25487495935654" lon="12.170951715277088"><ele>378.0</ele><time>2026-04-21T13:36:29.999Z</time></trkpt><trkpt lat="43.25478365272296" lon="12.171072593797295"><ele>380.0</ele><time>2026-04-21T13:36:30.999Z</time></trkpt><trkpt lat="43.254726860806095" lon="12.171199314542818"><ele>382.0</ele><time>2026-04-21T13:36:31.999Z</time></trkpt><trkpt lat="43.25468800905438" lon="12.171326302103965"><ele>382.0</ele><time>2026-04-21T13:36:32.999Z</time></trkpt><trkpt lat="43.254651140756245" lon="12.171449869118025"><ele>382.0</ele><time>2026-04-21T13:36:33.999Z</time></trkpt><trkpt lat="43.25467043796981" lon="12.171604086862201"><ele>382.0</ele><time>2026-04-21T13:36:34.999Z</time></trkpt><trkpt lat="43.25461167659401" lon="12.171840882210258"><ele>382.0</ele><time>2026-04-21T13:36:36.999Z</time></trkpt><trkpt lat="43.254546160587324" lon="12.171878623395195"><ele>384.6</ele><time>2026-04-21T13:36:37.999Z</time></trkpt><trkpt lat="43.25445883030402" lon="12.17184327846748"><ele>387.20000000000005</ele><time>2026-04-21T13:36:38.999Z</time></trkpt><trkpt lat="43.25436612799622" lon="12.171857045529265"><ele>389.8</ele><time>2026-04-21T13:36:39.999Z</time></trkpt><trkpt lat="43.25425924653045" lon="12.171867741660234"><ele>392.4</ele><time>2026-04-21T13:36:40.999Z</time></trkpt><trkpt lat="43.254148990243756" lon="12.171886527662599"><ele>395.0</ele><time>2026-04-21T13:36:41.999Z</time></trkpt><trkpt lat="43.25405666345785" lon="12.171918959335919"><ele>395.0</ele><time>2026-04-21T13:36:42.999Z</time></trkpt><trkpt lat="43.253973600991856" lon="12.172024775170783"><ele>395.0</ele><time>2026-04-21T13:36:43.999Z</time></trkpt><trkpt lat="43.25388046260066" lon="12.172115350149348"><ele>395.0</ele><time>2026-04-21T13:36:44.999Z</time></trkpt><trkpt lat="43.25376845240322" lon="12.172173605896175"><ele>395.0</ele><time>2026-04-21T13:36:45.999Z</time></trkpt><trkpt lat="43.25364593849577" lon="12.172209647625284"><ele>393.75</ele><time>2026-04-21T13:36:46.999Z</time></trkpt><trkpt lat="43.25352287954376" lon="12.172217119463177"><ele>392.5</ele><time>2026-04-21T13:36:47.999Z</time></trkpt><trkpt lat="43.253406454054506" lon="12.172212462461495"><ele>391.25</ele><time>2026-04-21T13:36:48.999Z</time></trkpt><trkpt lat="43.253308824863225" lon="12.172208988236271"><ele>390.0</ele><time>2026-04-21T13:36:49.999Z</time></trkpt><trkpt lat="43.25321100552298" lon="12.172303976432374"><ele>392.25</ele><time>2026-04-21T13:36:50.999Z</time></trkpt><trkpt lat="43.25313050479819" lon="12.172410664155976"><ele>394.5</ele><time>2026-04-21T13:36:51.999Z</time></trkpt><trkpt lat="43.25306930834877" lon="12.172550003977635"><ele>396.75</ele><time>2026-04-21T13:36:52.999Z</time></trkpt><trkpt lat="43.253008356872705" lon="12.1726907845195"><ele>399.0</ele><time>2026-04-21T13:36:53.999Z</time></trkpt><trkpt lat="43.252908253552185" lon="12.172788653511146"><ele>399.0</ele><time>2026-04-21T13:36:54.999Z</time></trkpt><trkpt lat="43.2527859171875" lon="12.172834629480267"><ele>399.0</ele><time>2026-04-21T13:36:55.999Z</time></trkpt><trkpt lat="43.25265712702851" lon="12.17287360905372"><ele>399.0</ele><time>2026-04-21T13:36:56.999Z</time></trkpt><trkpt lat="43.252526948486825" lon="12.17291174585165"><ele>399.0</ele><time>2026-04-21T13:36:57.999Z</time></trkpt><trkpt lat="43.25240229506297" lon="12.172933688283402"><ele>399.0</ele><time>2026-04-21T13:36:58.999Z</time></trkpt><trkpt lat="43.25229707860901" lon="12.17300464912519"><ele>399.0</ele><time>2026-04-21T13:36:59.999Z</time></trkpt><trkpt lat="43.252234345279064" lon="12.173153145887145"><ele>399.0</ele><time>2026-04-21T13:37:00.999Z</time></trkpt><trkpt lat="43.25216468472102" lon="12.173268650919171"><ele>399.0</ele><time>2026-04-21T13:37:01.999Z</time></trkpt><trkpt lat="43.252072713047085" lon="12.173356863277398"><ele>402.5</ele><time>2026-04-21T13:37:02.999Z</time></trkpt><trkpt lat="43.25195608759054" lon="12.173397757663604"><ele>406.0</ele><time>2026-04-21T13:37:03.999Z</time></trkpt><trkpt lat="43.25184283909649" lon="12.173492952244123"><ele>409.5</ele><time>2026-04-21T13:37:04.999Z</time></trkpt><trkpt lat="43.25171327120134" lon="12.17356312179409"><ele>413.0</ele><time>2026-04-21T13:37:05.999Z</time></trkpt><trkpt lat="43.25156717250329" lon="12.17362944142228"><ele>411.66666666666663</ele><time>2026-04-21T13:37:06.999Z</time></trkpt><trkpt lat="43.251421640196945" lon="12.173690411166337"><ele>410.33333333333337</ele><time>2026-04-21T13:37:07.999Z</time></trkpt><trkpt lat="43.25127748448305" lon="12.173754969088932"><ele>409.0</ele><time>2026-04-21T13:37:08.999Z</time></trkpt><trkpt lat="43.25113375187565" lon="12.17383376028174"><ele>409.0</ele><time>2026-04-21T13:37:09.999Z</time></trkpt><trkpt lat="43.25099370855641" lon="12.173928811763323"><ele>409.0</ele><time>2026-04-21T13:37:10.999Z</time></trkpt><trkpt lat="43.25085410051847" lon="12.174034250199327"><ele>409.0</ele><time>2026-04-21T13:37:11.999Z</time></trkpt><trkpt lat="43.250715735518" lon="12.174131429212665"><ele>414.33333333333337</ele><time>2026-04-21T13:37:12.999Z</time></trkpt><trkpt lat="43.2505606150436" lon="12.174193414571167"><ele>419.66666666666663</ele><time>2026-04-21T13:37:13.999Z</time></trkpt><trkpt lat="43.25041166968212" lon="12.174259199564458"><ele>425.0</ele><time>2026-04-21T13:37:14.999Z</time></trkpt><trkpt lat="43.25026789877969" lon="12.174331171693764"><ele>425.0</ele><time>2026-04-21T13:37:15.999Z</time></trkpt><trkpt lat="43.250135847152144" lon="12.174417398210712"><ele>425.0</ele><time>2026-04-21T13:37:16.999Z</time></trkpt><trkpt lat="43.25002593279606" lon="12.174555213584153"><ele>425.0</ele><time>2026-04-21T13:37:17.999Z</time></trkpt><trkpt lat="43.2499087657696" lon="12.174692202896068"><ele>425.0</ele><time>2026-04-21T13:37:18.999Z</time></trkpt><trkpt lat="43.249785618528165" lon="12.174832873368308"><ele>428.66666666666663</ele><time>2026-04-21T13:37:19.999Z</time></trkpt><trkpt lat="43.24964155015995" lon="12.174950080578963"><ele>432.33333333333337</ele><time>2026-04-21T13:37:20.999Z</time></trkpt><trkpt lat="43.24950801522892" lon="12.17506628023752"><ele>436.0</ele><time>2026-04-21T13:37:21.999Z</time></trkpt><trkpt lat="43.2493769050156" lon="12.17512547004862"><ele>436.0</ele><time>2026-04-21T13:37:22.999Z</time></trkpt><trkpt lat="43.24926366623509" lon="12.175182464092273"><ele>436.0</ele><time>2026-04-21T13:37:23.999Z</time></trkpt><trkpt lat="43.249156978181404" lon="12.17525568419838"><ele>436.0</ele><time>2026-04-21T13:37:24.999Z</time></trkpt><trkpt lat="43.24904785558472" lon="12.17535024196774"><ele>436.0</ele><time>2026-04-21T13:37:25.999Z</time></trkpt><trkpt lat="43.24892980858827" lon="12.17545286997481"><ele>436.75</ele><time>2026-04-21T13:37:26.999Z</time></trkpt><trkpt lat="43.24880564020048" lon="12.175528637778184"><ele>437.5</ele><time>2026-04-21T13:37:27.999Z</time></trkpt><trkpt lat="43.248672846796104" lon="12.1755426352254"><ele>438.25</ele><time>2026-04-21T13:37:28.999Z</time></trkpt><trkpt lat="43.24854217187205" lon="12.175497942383691"><ele>439.0</ele><time>2026-04-21T13:37:29.999Z</time></trkpt><trkpt lat="43.24840589388981" lon="12.175514848019771"><ele>439.0</ele><time>2026-04-21T13:37:30.999Z</time></trkpt><trkpt lat="43.24827506393882" lon="12.175523900643071"><ele>439.0</ele><time>2026-04-21T13:37:31.999Z</time></trkpt><trkpt lat="43.24814044201618" lon="12.175576036631798"><ele>439.0</ele><time>2026-04-21T13:37:32.999Z</time></trkpt><trkpt lat="43.248005934792225" lon="12.175646617786631"><ele>439.0</ele><time>2026-04-21T13:37:33.999Z</time></trkpt><trkpt lat="43.24786474530845" lon="12.175721851850076"><ele>445.33333333333337</ele><time>2026-04-21T13:37:34.999Z</time></trkpt><trkpt lat="43.247723503939014" lon="12.175809907108013"><ele>451.66666666666663</ele><time>2026-04-21T13:37:35.999Z</time></trkpt><trkpt lat="43.24758715229525" lon="12.175921079546628"><ele>458.0</ele><time>2026-04-21T13:37:36.999Z</time></trkpt><trkpt lat="43.24745330957893" lon="12.176054127587689"><ele>458.0</ele><time>2026-04-21T13:37:37.999Z</time></trkpt><trkpt lat="43.24732683208589" lon="12.17620649346463"><ele>458.0</ele><time>2026-04-21T13:37:38.999Z</time></trkpt><trkpt lat="43.24721208179054" lon="12.176376022484543"><ele>458.0</ele><time>2026-04-21T13:37:39.999Z</time></trkpt><trkpt lat="43.24711789855956" lon="12.176561198070695"><ele>463.0</ele><time>2026-04-21T13:37:40.999Z</time></trkpt><trkpt lat="43.247034727391885" lon="12.176750527083646"><ele>468.0</ele><time>2026-04-21T13:37:41.999Z</time></trkpt><trkpt lat="43.24694891266515" lon="12.176931265020128"><ele>473.0</ele><time>2026-04-21T13:37:42.999Z</time></trkpt><trkpt lat="43.246859258436935" lon="12.177091210675398"><ele>473.0</ele><time>2026-04-21T13:37:43.999Z</time></trkpt><trkpt lat="43.24675048776144" lon="12.177204012274979"><ele>473.0</ele><time>2026-04-21T13:37:44.999Z</time></trkpt><trkpt lat="43.24664032064408" lon="12.177289624774755"><ele>473.0</ele><time>2026-04-21T13:37:45.999Z</time></trkpt><trkpt lat="43.24652008367056" lon="12.177359312003851"><ele>473.0</ele><time>2026-04-21T13:37:46.999Z</time></trkpt><trkpt lat="43.246395376116396" lon="12.177433800958614"><ele>477.0</ele><time>2026-04-21T13:37:47.999Z</time></trkpt><trkpt lat="43.24626941669072" lon="12.177516606983625"><ele>481.0</ele><time>2026-04-21T13:37:48.999Z</time></trkpt><trkpt lat="43.2461524428061" lon="12.177622427550427"><ele>485.0</ele><time>2026-04-21T13:37:49.999Z</time></trkpt><trkpt lat="43.246049914915965" lon="12.177711284173066"><ele>489.0</ele><time>2026-04-21T13:37:50.999Z</time></trkpt><trkpt lat="43.245960668797565" lon="12.177778052205992"><ele>489.0</ele><time>2026-04-21T13:37:51.999Z</time></trkpt><trkpt lat="43.24588397682808" lon="12.177847030691154"><ele>489.0</ele><time>2026-04-21T13:37:52.999Z</time></trkpt><trkpt lat="43.245814715554786" lon="12.177874369657175"><ele>489.0</ele><time>2026-04-21T13:37:53.999Z</time></trkpt><trkpt lat="43.245700934426395" lon="12.177855958320588"><ele>489.0</ele><time>2026-04-21T13:37:55.999Z</time></trkpt><trkpt lat="43.245626363637186" lon="12.1778354137598"><ele>489.0</ele><time>2026-04-21T13:37:56.999Z</time></trkpt><trkpt lat="43.245537386544356" lon="12.177820191844555"><ele>489.0</ele><time>2026-04-21T13:37:57.999Z</time></trkpt><trkpt lat="43.24543991009679" lon="12.177833200000874"><ele>488.2</ele><time>2026-04-21T13:37:58.999Z</time></trkpt><trkpt lat="43.24534018693728" lon="12.177869534805405"><ele>487.4</ele><time>2026-04-21T13:37:59.999Z</time></trkpt><trkpt lat="43.24522964974001" lon="12.177924600765737"><ele>486.6</ele><time>2026-04-21T13:38:00.999Z</time></trkpt><trkpt lat="43.24512587905588" lon="12.177985531396889"><ele>485.8</ele><time>2026-04-21T13:38:01.999Z</time></trkpt><trkpt lat="43.24501173797071" lon="12.177994276580096"><ele>485.0</ele><time>2026-04-21T13:38:02.999Z</time></trkpt><trkpt lat="43.24490583168117" lon="12.177917274602505"><ele>483.25</ele><time>2026-04-21T13:38:03.999Z</time></trkpt><trkpt lat="43.244781269736826" lon="12.177831024581819"><ele>481.5</ele><time>2026-04-21T13:38:04.999Z</time></trkpt><trkpt lat="43.24465213173854" lon="12.177731978904834"><ele>479.75</ele><time>2026-04-21T13:38:05.999Z</time></trkpt><trkpt lat="43.24451768952505" lon="12.177624978856489"><ele>478.0</ele><time>2026-04-21T13:38:06.999Z</time></trkpt><trkpt lat="43.24438030573136" lon="12.177527190697594"><ele>478.0</ele><time>2026-04-21T13:38:07.999Z</time></trkpt><trkpt lat="43.244254071808946" lon="12.177431028544138"><ele>478.0</ele><time>2026-04-21T13:38:08.999Z</time></trkpt><trkpt lat="43.244117861735994" lon="12.17738049478945"><ele>478.0</ele><time>2026-04-21T13:38:09.999Z</time></trkpt><trkpt lat="43.24396795708842" lon="12.177361468474658"><ele>478.0</ele><time>2026-04-21T13:38:10.999Z</time></trkpt><trkpt lat="43.243814853174875" lon="12.177352259111366"><ele>481.25</ele><time>2026-04-21T13:38:11.999Z</time></trkpt><trkpt lat="43.24366221310157" lon="12.177350223303279"><ele>484.5</ele><time>2026-04-21T13:38:12.999Z</time></trkpt><trkpt lat="43.24351606866803" lon="12.17735212229337"><ele>487.75</ele><time>2026-04-21T13:38:13.999Z</time></trkpt><trkpt lat="43.243374906360124" lon="12.177342235134638"><ele>491.0</ele><time>2026-04-21T13:38:14.999Z</time></trkpt><trkpt lat="43.24324957450657" lon="12.177285818858824"><ele>489.25</ele><time>2026-04-21T13:38:15.999Z</time></trkpt><trkpt lat="43.2431274892877" lon="12.177199663649553"><ele>487.5</ele><time>2026-04-21T13:38:16.999Z</time></trkpt><trkpt lat="43.24299594387456" lon="12.177108641021814"><ele>485.75</ele><time>2026-04-21T13:38:17.999Z</time></trkpt><trkpt lat="43.2428608355231" lon="12.177024258165849"><ele>484.0</ele><time>2026-04-21T13:38:18.999Z</time></trkpt><trkpt lat="43.2427244198015" lon="12.17697985394419"><ele>484.0</ele><time>2026-04-21T13:38:19.999Z</time></trkpt><trkpt lat="43.24258405054276" lon="12.176944974263447"><ele>484.0</ele><time>2026-04-21T13:38:20.999Z</time></trkpt><trkpt lat="43.24243228698619" lon="12.176943560929915"><ele>484.0</ele><time>2026-04-21T13:38:21.999Z</time></trkpt><trkpt lat="43.24227666384656" lon="12.176961006877455"><ele>483.6666666666667</ele><time>2026-04-21T13:38:22.999Z</time></trkpt><trkpt lat="43.24211452184914" lon="12.177011951923259"><ele>483.33333333333337</ele><time>2026-04-21T13:38:23.999Z</time></trkpt><trkpt lat="43.24196004377419" lon="12.177083894351664"><ele>483.0</ele><time>2026-04-21T13:38:24.999Z</time></trkpt><trkpt lat="43.24181911897531" lon="12.177165509371116"><ele>483.0</ele><time>2026-04-21T13:38:25.999Z</time></trkpt><trkpt lat="43.241692660225205" lon="12.177246601180228"><ele>483.0</ele><time>2026-04-21T13:38:26.999Z</time></trkpt><trkpt lat="43.241574207110354" lon="12.17732256167559"><ele>483.0</ele><time>2026-04-21T13:38:27.999Z</time></trkpt><trkpt lat="43.24145786098174" lon="12.177393141131578"><ele>483.0</ele><time>2026-04-21T13:38:28.999Z</time></trkpt><trkpt lat="43.241340374272944" lon="12.177415507592663"><ele>481.0</ele><time>2026-04-21T13:38:29.999Z</time></trkpt><trkpt lat="43.241224379972344" lon="12.17741862326452"><ele>479.0</ele><time>2026-04-21T13:38:30.999Z</time></trkpt><trkpt lat="43.24110266795822" lon="12.17737887105716"><ele>477.0</ele><time>2026-04-21T13:38:31.999Z</time></trkpt><trkpt lat="43.240970045766716" lon="12.177322767021009"><ele>475.0</ele><time>2026-04-21T13:38:32.999Z</time></trkpt><trkpt lat="43.240832594589065" lon="12.177257306977824"><ele>475.0</ele><time>2026-04-21T13:38:33.999Z</time></trkpt><trkpt lat="43.24069319433074" lon="12.177189180877058"><ele>475.0</ele><time>2026-04-21T13:38:34.999Z</time></trkpt><trkpt lat="43.240552730619285" lon="12.177155000688247"><ele>475.0</ele><time>2026-04-21T13:38:35.999Z</time></trkpt><trkpt lat="43.240403817728755" lon="12.17716829877265"><ele>475.0</ele><time>2026-04-21T13:38:36.999Z</time></trkpt><trkpt lat="43.24025605538678" lon="12.177183600405677"><ele>472.0</ele><time>2026-04-21T13:38:37.999Z</time></trkpt><trkpt lat="43.240109206516195" lon="12.177164900705916"><ele>469.0</ele><time>2026-04-21T13:38:38.999Z</time></trkpt><trkpt lat="43.23996116962853" lon="12.177141755983556"><ele>466.0</ele><time>2026-04-21T13:38:39.999Z</time></trkpt><trkpt lat="43.23981698272025" lon="12.177120164981215"><ele>463.0</ele><time>2026-04-21T13:38:40.999Z</time></trkpt><trkpt lat="43.23971241048455" lon="12.177109841094834"><ele>462.0</ele><time>2026-04-21T13:38:41.999Z</time></trkpt><trkpt lat="43.23957491743462" lon="12.177247347346507"><ele>461.0</ele><time>2026-04-21T13:38:43.999Z</time></trkpt><trkpt lat="43.239544198296855" lon="12.17740113223669"><ele>460.0</ele><time>2026-04-21T13:38:44.999Z</time></trkpt><trkpt lat="43.23946869194831" lon="12.177543410117945"><ele>459.0</ele><time>2026-04-21T13:38:45.999Z</time></trkpt><trkpt lat="43.23939456127171" lon="12.177673440990407"><ele>459.0</ele><time>2026-04-21T13:38:46.999Z</time></trkpt><trkpt lat="43.23931759937371" lon="12.17779088851792"><ele>459.0</ele><time>2026-04-21T13:38:47.999Z</time></trkpt><trkpt lat="43.2392507416414" lon="12.177870893643213"><ele>459.0</ele><time>2026-04-21T13:38:48.999Z</time></trkpt><trkpt lat="43.239175059450915" lon="12.177908667614895"><ele>459.0</ele><time>2026-04-21T13:38:49.999Z</time></trkpt><trkpt lat="43.23906224988119" lon="12.177948883818367"><ele>459.0</ele><time>2026-04-21T13:38:50.999Z</time></trkpt><trkpt lat="43.238942454629886" lon="12.178000223744402"><ele>460.75</ele><time>2026-04-21T13:38:51.999Z</time></trkpt><trkpt lat="43.23881407024014" lon="12.178059327956383"><ele>462.5</ele><time>2026-04-21T13:38:52.999Z</time></trkpt><trkpt lat="43.238677217582705" lon="12.178102815058269"><ele>464.25</ele><time>2026-04-21T13:38:53.999Z</time></trkpt><trkpt lat="43.238533373875754" lon="12.178137217649724"><ele>466.0</ele><time>2026-04-21T13:38:55Z</time></trkpt><trkpt lat="43.23838962948863" lon="12.17815495977444"><ele>466.0</ele><time>2026-04-21T13:38:56Z</time></trkpt><trkpt lat="43.23825002498302" lon="12.178147719149731"><ele>466.0</ele><time>2026-04-21T13:38:57Z</time></trkpt><trkpt lat="43.23810243462415" lon="12.178127964865702"><ele>466.0</ele><time>2026-04-21T13:38:58Z</time></trkpt><trkpt lat="43.23795714670188" lon="12.178100070284916"><ele>466.0</ele><time>2026-04-21T13:38:59Z</time></trkpt><trkpt lat="43.23782435706743" lon="12.178088449773211"><ele>462.4</ele><time>2026-04-21T13:39:00Z</time></trkpt><trkpt lat="43.237723106415814" lon="12.178084626434451"><ele>458.8</ele><time>2026-04-21T13:39:01Z</time></trkpt><trkpt lat="43.23765849957245" lon="12.178074509815618"><ele>455.19999999999993</ele><time>2026-04-21T13:39:02Z</time></trkpt><trkpt lat="43.23756191368107" lon="12.178026810048008"><ele>451.59999999999997</ele><time>2026-04-21T13:39:04Z</time></trkpt><trkpt lat="43.23746960466558" lon="12.177986230509804"><ele>448.0</ele><time>2026-04-21T13:39:06Z</time></trkpt><trkpt lat="43.237393537125435" lon="12.177927546167968"><ele>442.0</ele><time>2026-04-21T13:39:08Z</time></trkpt><trkpt lat="43.237283473185855" lon="12.17788513212261"><ele>436.0</ele><time>2026-04-21T13:39:10Z</time></trkpt><trkpt lat="43.23721719100823" lon="12.177832473772431"><ele>430.0</ele><time>2026-04-21T13:39:12Z</time></trkpt><trkpt lat="43.237247084872806" lon="12.177557629167623"><ele>424.0</ele><time>2026-04-21T13:39:13Z</time></trkpt><trkpt lat="43.237183688620874" lon="12.177409847491504"><ele>424.6666666666667</ele><time>2026-04-21T13:39:15Z</time></trkpt><trkpt lat="43.23713084272111" lon="12.177246989705308"><ele>425.33333333333337</ele><time>2026-04-21T13:39:17Z</time></trkpt><trkpt lat="43.2371073229351" lon="12.177160560415965"><ele>426.0</ele><time>2026-04-21T13:39:18Z</time></trkpt><trkpt lat="43.237079993434385" lon="12.177072989610933"><ele>426.66666666666663</ele><time>2026-04-21T13:39:19Z</time></trkpt><trkpt lat="43.23704630328626" lon="12.176988492798971"><ele>427.3333333333333</ele><time>2026-04-21T13:39:20Z</time></trkpt><trkpt lat="43.23701643938356" lon="12.176905722048716"><ele>428.0</ele><time>2026-04-21T13:39:21Z</time></trkpt><trkpt lat="43.23698902072219" lon="12.176819154051678"><ele>427.99999999999994</ele><time>2026-04-21T13:39:22Z</time></trkpt><trkpt lat="43.236956217885194" lon="12.17674519081848"><ele>428.0</ele><time>2026-04-21T13:39:23Z</time></trkpt><trkpt lat="43.23690503296719" lon="12.176664729845582"><ele>428.0</ele><time>2026-04-21T13:39:25Z</time></trkpt><trkpt lat="43.23686529353306" lon="12.176525712095765"><ele>428.0</ele><time>2026-04-21T13:39:27Z</time></trkpt><trkpt lat="43.23684915811818" lon="12.176403772867923"><ele>427.99999999999994</ele><time>2026-04-21T13:39:28Z</time></trkpt><trkpt lat="43.236843048678836" lon="12.176273739264987"><ele>428.0</ele><time>2026-04-21T13:39:29Z</time></trkpt><trkpt lat="43.23683620140676" lon="12.176133953278773"><ele>428.25</ele><time>2026-04-21T13:39:30Z</time></trkpt><trkpt lat="43.236837284116625" lon="12.175981514511086"><ele>428.5</ele><time>2026-04-21T13:39:31Z</time></trkpt><trkpt lat="43.23686131382647" lon="12.175829760413198"><ele>428.75</ele><time>2026-04-21T13:39:32Z</time></trkpt><trkpt lat="43.2369069814929" lon="12.175688993981652"><ele>429.0</ele><time>2026-04-21T13:39:33Z</time></trkpt><trkpt lat="43.236978489100636" lon="12.175559712142524"><ele>429.5</ele><time>2026-04-21T13:39:34Z</time></trkpt><trkpt lat="43.23707050626595" lon="12.175445938477745"><ele>430.0</ele><time>2026-04-21T13:39:35Z</time></trkpt><trkpt lat="43.23714797322618" lon="12.175343798601027"><ele>430.5</ele><time>2026-04-21T13:39:36Z</time></trkpt><trkpt lat="43.2371955768786" lon="12.17521473398505"><ele>431.0</ele><time>2026-04-21T13:39:37Z</time></trkpt><trkpt lat="43.237214451535266" lon="12.175060284194647"><ele>431.0</ele><time>2026-04-21T13:39:38Z</time></trkpt><trkpt lat="43.237208213071156" lon="12.174891225453377"><ele>431.0</ele><time>2026-04-21T13:39:39Z</time></trkpt><trkpt lat="43.237174520134396" lon="12.174737278371358"><ele>431.0</ele><time>2026-04-21T13:39:40Z</time></trkpt><trkpt lat="43.2371460674219" lon="12.174577370765862"><ele>431.0</ele><time>2026-04-21T13:39:41Z</time></trkpt><trkpt lat="43.23714861211283" lon="12.174408374028697"><ele>431.0</ele><time>2026-04-21T13:39:42Z</time></trkpt><trkpt lat="43.237186509485824" lon="12.17424969369699"><ele>431.0</ele><time>2026-04-21T13:39:43Z</time></trkpt><trkpt lat="43.23725170118472" lon="12.174106975986078"><ele>431.0</ele><time>2026-04-21T13:39:44Z</time></trkpt><trkpt lat="43.23734186430995" lon="12.17397210179107"><ele>431.0</ele><time>2026-04-21T13:39:45Z</time></trkpt><trkpt lat="43.23744767634155" lon="12.173838157425527"><ele>438.66666666666663</ele><time>2026-04-21T13:39:46Z</time></trkpt><trkpt lat="43.23754925080697" lon="12.173691264075561"><ele>446.33333333333337</ele><time>2026-04-21T13:39:47Z</time></trkpt><trkpt lat="43.2376221025235" lon="12.173499935939349"><ele>454.0</ele><time>2026-04-21T13:39:48Z</time></trkpt><trkpt lat="43.23766837933187" lon="12.173283129056632"><ele>453.0</ele><time>2026-04-21T13:39:49Z</time></trkpt><trkpt lat="43.23771385585064" lon="12.173060455397708"><ele>452.0</ele><time>2026-04-21T13:39:50Z</time></trkpt><trkpt lat="43.23775594492852" lon="12.172842216109705"><ele>451.0</ele><time>2026-04-21T13:39:51Z</time></trkpt><trkpt lat="43.23779926137775" lon="12.172634603444237"><ele>451.0</ele><time>2026-04-21T13:39:52Z</time></trkpt><trkpt lat="43.23785075961454" lon="12.172438143119152"><ele>451.0</ele><time>2026-04-21T13:39:53Z</time></trkpt><trkpt lat="43.237906812461844" lon="12.172253724977454"><ele>451.0</ele><time>2026-04-21T13:39:54Z</time></trkpt><trkpt lat="43.23797495839121" lon="12.172079180809117"><ele>451.0</ele><time>2026-04-21T13:39:55Z</time></trkpt><trkpt lat="43.23805718320669" lon="12.171918680356551"><ele>457.6666666666667</ele><time>2026-04-21T13:39:56Z</time></trkpt><trkpt lat="43.23815885922227" lon="12.171761269768034"><ele>464.33333333333337</ele><time>2026-04-21T13:39:57Z</time></trkpt><trkpt lat="43.238269169286106" lon="12.171611234562945"><ele>471.0</ele><time>2026-04-21T13:39:58Z</time></trkpt><trkpt lat="43.238392539143604" lon="12.17146437113098"><ele>471.0</ele><time>2026-04-21T13:39:59Z</time></trkpt><trkpt lat="43.238517061055646" lon="12.171313732453104"><ele>471.0</ele><time>2026-04-21T13:40:00Z</time></trkpt><trkpt lat="43.2386417163891" lon="12.171154812450911"><ele>471.0</ele><time>2026-04-21T13:40:01Z</time></trkpt><trkpt lat="43.23876378936631" lon="12.171004396385621"><ele>471.0</ele><time>2026-04-21T13:40:02Z</time></trkpt><trkpt lat="43.238870093346364" lon="12.170853305381197"><ele>471.0</ele><time>2026-04-21T13:40:03Z</time></trkpt><trkpt lat="43.23895425088208" lon="12.170680283319093"><ele>471.0</ele><time>2026-04-21T13:40:04Z</time></trkpt><trkpt lat="43.239015131634496" lon="12.170489702168728"><ele>475.0</ele><time>2026-04-21T13:40:05Z</time></trkpt><trkpt lat="43.23905535497074" lon="12.170323175064006"><ele>479.0</ele><time>2026-04-21T13:40:06Z</time></trkpt><trkpt lat="43.2390802573681" lon="12.170173536955888"><ele>483.0</ele><time>2026-04-21T13:40:07Z</time></trkpt><trkpt lat="43.23906477419974" lon="12.170025058655263"><ele>487.0</ele><time>2026-04-21T13:40:08Z</time></trkpt><trkpt lat="43.2390062295995" lon="12.169887477153933"><ele>487.0</ele><time>2026-04-21T13:40:09Z</time></trkpt><trkpt lat="43.23891592211008" lon="12.169751644195955"><ele>487.0</ele><time>2026-04-21T13:40:10Z</time></trkpt><trkpt lat="43.23878425694695" lon="12.169630546023242"><ele>487.0</ele><time>2026-04-21T13:40:11Z</time></trkpt><trkpt lat="43.23866159201465" lon="12.16951011525659"><ele>487.0</ele><time>2026-04-21T13:40:12Z</time></trkpt><trkpt lat="43.23853725578644" lon="12.169379262456493"><ele>487.0</ele><time>2026-04-21T13:40:13Z</time></trkpt><trkpt lat="43.23843270633332" lon="12.169230059103695"><ele>487.0</ele><time>2026-04-21T13:40:14Z</time></trkpt><trkpt lat="43.23834430530388" lon="12.169044653531676"><ele>487.0</ele><time>2026-04-21T13:40:15Z</time></trkpt><trkpt lat="43.23825536172533" lon="12.168830312973117"><ele>488.0</ele><time>2026-04-21T13:40:16Z</time></trkpt><trkpt lat="43.23816369421856" lon="12.168614187844708"><ele>489.0</ele><time>2026-04-21T13:40:17Z</time></trkpt><trkpt lat="43.238078743033824" lon="12.168415528013355"><ele>490.0</ele><time>2026-04-21T13:40:18Z</time></trkpt><trkpt lat="43.23800534873518" lon="12.168248562048543"><ele>493.1666666666667</ele><time>2026-04-21T13:40:19Z</time></trkpt><trkpt lat="43.2379617936083" lon="12.168106695351801"><ele>496.33333333333337</ele><time>2026-04-21T13:40:20Z</time></trkpt><trkpt lat="43.23796177687195" lon="12.167978116185576"><ele>499.5</ele><time>2026-04-21T13:40:21Z</time></trkpt><trkpt lat="43.23801112677189" lon="12.167900404986376"><ele>502.66666666666663</ele><time>2026-04-21T13:40:22Z</time></trkpt><trkpt lat="43.238075424114186" lon="12.167847551298584"><ele>505.8333333333333</ele><time>2026-04-21T13:40:23Z</time></trkpt><trkpt lat="43.238155772663475" lon="12.167818981452056"><ele>509.0</ele><time>2026-04-21T13:40:24Z</time></trkpt><trkpt lat="43.23825543116839" lon="12.167793691064887"><ele>509.0</ele><time>2026-04-21T13:40:25Z</time></trkpt><trkpt lat="43.238376335158534" lon="12.167773055131578"><ele>509.0</ele><time>2026-04-21T13:40:26Z</time></trkpt><trkpt lat="43.238512970701144" lon="12.167737932774992"><ele>509.0</ele><time>2026-04-21T13:40:27Z</time></trkpt><trkpt lat="43.238649916037495" lon="12.167695939665366"><ele>509.0</ele><time>2026-04-21T13:40:28Z</time></trkpt><trkpt lat="43.238774512183234" lon="12.167660298534452"><ele>508.99999999999994</ele><time>2026-04-21T13:40:29Z</time></trkpt><trkpt lat="43.238877341569875" lon="12.167634051814364"><ele>509.0</ele><time>2026-04-21T13:40:30Z</time></trkpt><trkpt lat="43.23895290588561" lon="12.167614613909798"><ele>509.0</ele><time>2026-04-21T13:40:31Z</time></trkpt><trkpt lat="43.23899593007718" lon="12.167534714675426"><ele>509.0</ele><time>2026-04-21T13:40:33Z</time></trkpt><trkpt lat="43.23893091615221" lon="12.167445820610657"><ele>508.99999999999994</ele><time>2026-04-21T13:40:35Z</time></trkpt><trkpt lat="43.23887923804725" lon="12.167390262986737"><ele>509.0</ele><time>2026-04-21T13:40:35.999Z</time></trkpt><trkpt lat="43.23882476251298" lon="12.16731538912305"><ele>512.1666666666666</ele><time>2026-04-21T13:40:36.999Z</time></trkpt><trkpt lat="43.23876826101529" lon="12.167229180508864"><ele>515.3333333333333</ele><time>2026-04-21T13:40:37.999Z</time></trkpt><trkpt lat="43.23872808565499" lon="12.16715568983849"><ele>518.5</ele><time>2026-04-21T13:40:38.999Z</time></trkpt><trkpt lat="43.23870079519855" lon="12.167067131215314"><ele>521.6666666666666</ele><time>2026-04-21T13:40:39.999Z</time></trkpt><trkpt lat="43.23868330658851" lon="12.166959145209454"><ele>524.8333333333334</ele><time>2026-04-21T13:40:40.999Z</time></trkpt><trkpt lat="43.238673382313124" lon="12.166840207481588"><ele>528.0</ele><time>2026-04-21T13:40:41.999Z</time></trkpt><trkpt lat="43.23865842808252" lon="12.16672335623646"><ele>528.0</ele><time>2026-04-21T13:40:42.999Z</time></trkpt><trkpt lat="43.23864653294748" lon="12.166605161885702"><ele>528.0</ele><time>2026-04-21T13:40:43.999Z</time></trkpt><trkpt lat="43.23862492719262" lon="12.166492078526636"><ele>528.0</ele><time>2026-04-21T13:40:44.999Z</time></trkpt><trkpt lat="43.23859763976892" lon="12.166373955557289"><ele>528.0</ele><time>2026-04-21T13:40:45.999Z</time></trkpt><trkpt lat="43.238568157957864" lon="12.166250935169352"><ele>528.0</ele><time>2026-04-21T13:40:46.999Z</time></trkpt><trkpt lat="43.23856796852006" lon="12.1660999191957"><ele>529.0</ele><time>2026-04-21T13:40:47.999Z</time></trkpt><trkpt lat="43.23853161183247" lon="12.16595412034776"><ele>530.0</ele><time>2026-04-21T13:40:48.999Z</time></trkpt><trkpt lat="43.23849438757682" lon="12.165804842248715"><ele>531.0</ele><time>2026-04-21T13:40:49.999Z</time></trkpt><trkpt lat="43.23846064235644" lon="12.165652449355376"><ele>532.0</ele><time>2026-04-21T13:40:50.999Z</time></trkpt><trkpt lat="43.23844017224781" lon="12.165493041959017"><ele>532.25</ele><time>2026-04-21T13:40:51.999Z</time></trkpt><trkpt lat="43.23843071639032" lon="12.165327095264706"><ele>532.5</ele><time>2026-04-21T13:40:52.999Z</time></trkpt><trkpt lat="43.2384181894019" lon="12.16516363429457"><ele>532.75</ele><time>2026-04-21T13:40:53.999Z</time></trkpt><trkpt lat="43.23839239945886" lon="12.165014364724245"><ele>533.0</ele><time>2026-04-21T13:40:54.999Z</time></trkpt><trkpt lat="43.23835825474775" lon="12.164869253738848"><ele>532.75</ele><time>2026-04-21T13:40:55.999Z</time></trkpt><trkpt lat="43.2383146542182" lon="12.164720908400854"><ele>532.5</ele><time>2026-04-21T13:40:56.999Z</time></trkpt><trkpt lat="43.238255844936" lon="12.164576479572332"><ele>532.25</ele><time>2026-04-21T13:40:57.999Z</time></trkpt><trkpt lat="43.23822348908973" lon="12.164430880510709"><ele>532.0</ele><time>2026-04-21T13:40:58.999Z</time></trkpt><trkpt lat="43.23820984527822" lon="12.164291636083632"><ele>532.0</ele><time>2026-04-21T13:40:59.999Z</time></trkpt><trkpt lat="43.23821910375295" lon="12.164158362207834"><ele>532.0</ele><time>2026-04-21T13:41:01Z</time></trkpt><trkpt lat="43.23827945773972" lon="12.164039250513548"><ele>532.0</ele><time>2026-04-21T13:41:02Z</time></trkpt><trkpt lat="43.23829810179716" lon="12.163910031088731"><ele>532.0</ele><time>2026-04-21T13:41:03Z</time></trkpt><trkpt lat="43.2382809453851" lon="12.163770555273338"><ele>532.0</ele><time>2026-04-21T13:41:04Z</time></trkpt><trkpt lat="43.23823815936889" lon="12.163621922901013"><ele>531.6</ele><time>2026-04-21T13:41:05Z</time></trkpt><trkpt lat="43.23819619582103" lon="12.163476490149089"><ele>531.2</ele><time>2026-04-21T13:41:06Z</time></trkpt><trkpt lat="43.23814055259093" lon="12.163346862619766"><ele>530.8</ele><time>2026-04-21T13:41:07Z</time></trkpt><trkpt lat="43.23807655565718" lon="12.163262218737808"><ele>530.4</ele><time>2026-04-21T13:41:08Z</time></trkpt><trkpt lat="43.23799490828275" lon="12.163184819686961"><ele>530.0</ele><time>2026-04-21T13:41:09Z</time></trkpt><trkpt lat="43.237894051278516" lon="12.16315107604296"><ele>533.6</ele><time>2026-04-21T13:41:10Z</time></trkpt><trkpt lat="43.23779877839227" lon="12.163109777173945"><ele>537.2</ele><time>2026-04-21T13:41:11Z</time></trkpt><trkpt lat="43.23770609361094" lon="12.163056813471966"><ele>540.8</ele><time>2026-04-21T13:41:12Z</time></trkpt><trkpt lat="43.23763164624813" lon="12.162988105289156"><ele>544.4</ele><time>2026-04-21T13:41:13Z</time></trkpt><trkpt lat="43.23759886462936" lon="12.162876146047408"><ele>548.0</ele><time>2026-04-21T13:41:14Z</time></trkpt><trkpt lat="43.23758513856679" lon="12.162743065859225"><ele>548.0</ele><time>2026-04-21T13:41:15Z</time></trkpt><trkpt lat="43.237549070632525" lon="12.162624559469391"><ele>548.0</ele><time>2026-04-21T13:41:16Z</time></trkpt><trkpt lat="43.23746828778587" lon="12.162527406814968"><ele>548.0</ele><time>2026-04-21T13:41:17Z</time></trkpt><trkpt lat="43.23738353284508" lon="12.162427546357069"><ele>548.0</ele><time>2026-04-21T13:41:18Z</time></trkpt><trkpt lat="43.23728917254473" lon="12.162341068157405"><ele>548.0</ele><time>2026-04-21T13:41:19Z</time></trkpt><trkpt lat="43.23719195819137" lon="12.162293552662936"><ele>551.6666666666666</ele><time>2026-04-21T13:41:20Z</time></trkpt><trkpt lat="43.23709849311254" lon="12.162334707627496"><ele>555.3333333333333</ele><time>2026-04-21T13:41:21Z</time></trkpt><trkpt lat="43.23702932678475" lon="12.16231357054604"><ele>559.0</ele><time>2026-04-21T13:41:22Z</time></trkpt><trkpt lat="43.23697100801267" lon="12.16221064041491"><ele>562.6666666666666</ele><time>2026-04-21T13:41:24Z</time></trkpt><trkpt lat="43.237000309483705" lon="12.162112373120278"><ele>566.3333333333334</ele><time>2026-04-21T13:41:25Z</time></trkpt><trkpt lat="43.23698412369318" lon="12.162007817625037"><ele>570.0</ele><time>2026-04-21T13:41:26Z</time></trkpt><trkpt lat="43.236959285035596" lon="12.16188461234418"><ele>570.0</ele><time>2026-04-21T13:41:27Z</time></trkpt><trkpt lat="43.23692185449437" lon="12.161775053822048"><ele>570.0</ele><time>2026-04-21T13:41:28Z</time></trkpt><trkpt lat="43.23687583992769" lon="12.161675306787084"><ele>570.0</ele><time>2026-04-21T13:41:29Z</time></trkpt><trkpt lat="43.236825074434144" lon="12.161605977099969"><ele>570.0</ele><time>2026-04-21T13:41:30Z</time></trkpt><trkpt lat="43.23674201728333" lon="12.161560158231833"><ele>570.0</ele><time>2026-04-21T13:41:31Z</time></trkpt><trkpt lat="43.23664781612595" lon="12.16154540428444"><ele>570.0</ele><time>2026-04-21T13:41:32Z</time></trkpt><trkpt lat="43.236548744406015" lon="12.161528149654941"><ele>569.1666666666666</ele><time>2026-04-21T13:41:33Z</time></trkpt><trkpt lat="43.236446989109346" lon="12.161510060965572"><ele>568.3333333333334</ele><time>2026-04-21T13:41:34Z</time></trkpt><trkpt lat="43.23638434811371" lon="12.16148665871111"><ele>567.5</ele><time>2026-04-21T13:41:35Z</time></trkpt><trkpt lat="43.236344761371186" lon="12.161373170956637"><ele>566.6666666666667</ele><time>2026-04-21T13:41:37Z</time></trkpt><trkpt lat="43.236366964307436" lon="12.161263386246546"><ele>565.8333333333334</ele><time>2026-04-21T13:41:38Z</time></trkpt><trkpt lat="43.23641225148791" lon="12.16115068594247"><ele>565.0</ele><time>2026-04-21T13:41:39Z</time></trkpt><trkpt lat="43.236470293943995" lon="12.161013183838358"><ele>565.0</ele><time>2026-04-21T13:41:40Z</time></trkpt><trkpt lat="43.23651325064" lon="12.160884657445237"><ele>565.0</ele><time>2026-04-21T13:41:41Z</time></trkpt><trkpt lat="43.236492751186866" lon="12.160729167676061"><ele>565.0</ele><time>2026-04-21T13:41:42Z</time></trkpt><trkpt lat="43.23647480842811" lon="12.160570494562739"><ele>565.0</ele><time>2026-04-21T13:41:43Z</time></trkpt><trkpt lat="43.23646766194818" lon="12.160397711026405"><ele>566.2</ele><time>2026-04-21T13:41:44Z</time></trkpt><trkpt lat="43.23644206128406" lon="12.160238065425736"><ele>567.4</ele><time>2026-04-21T13:41:45Z</time></trkpt><trkpt lat="43.236413295405825" lon="12.160090095580184"><ele>568.6</ele><time>2026-04-21T13:41:46Z</time></trkpt><trkpt lat="43.23638412633162" lon="12.15996826307364"><ele>569.8</ele><time>2026-04-21T13:41:47Z</time></trkpt><trkpt lat="43.236349351745865" lon="12.159867339895237"><ele>571.0</ele><time>2026-04-21T13:41:48Z</time></trkpt><trkpt lat="43.23628145147903" lon="12.159792138193257"><ele>571.0</ele><time>2026-04-21T13:41:49Z</time></trkpt><trkpt lat="43.23617400550579" lon="12.159759569526303"><ele>571.0</ele><time>2026-04-21T13:41:50Z</time></trkpt><trkpt lat="43.23609081029627" lon="12.159773087833187"><ele>571.0</ele><time>2026-04-21T13:41:51Z</time></trkpt><trkpt lat="43.236014978339476" lon="12.159754125530313"><ele>571.0</ele><time>2026-04-21T13:41:52Z</time></trkpt><trkpt lat="43.23592985568308" lon="12.159817220967831"><ele>571.0</ele><time>2026-04-21T13:41:53Z</time></trkpt><trkpt lat="43.23584785365668" lon="12.159885713493557"><ele>574.0</ele><time>2026-04-21T13:41:54Z</time></trkpt><trkpt lat="43.23576778599493" lon="12.159954888208492"><ele>577.0</ele><time>2026-04-21T13:41:55Z</time></trkpt><trkpt lat="43.23568747619524" lon="12.160043671400812"><ele>580.0</ele><time>2026-04-21T13:41:56Z</time></trkpt><trkpt lat="43.23561708033309" lon="12.160146503403451"><ele>583.0</ele><time>2026-04-21T13:41:57Z</time></trkpt><trkpt lat="43.235524294059815" lon="12.160214401289636"><ele>586.0</ele><time>2026-04-21T13:41:58Z</time></trkpt><trkpt lat="43.23544605967948" lon="12.160266639066585"><ele>587.6</ele><time>2026-04-21T13:41:59Z</time></trkpt><trkpt lat="43.2353607857327" lon="12.160278439767586"><ele>589.2</ele><time>2026-04-21T13:42:00Z</time></trkpt><trkpt lat="43.23527577266258" lon="12.16024409571585"><ele>590.8</ele><time>2026-04-21T13:42:01Z</time></trkpt><trkpt lat="43.235184264887714" lon="12.160206683858533"><ele>592.4</ele><time>2026-04-21T13:42:02Z</time></trkpt><trkpt lat="43.23508542974966" lon="12.160150102349217"><ele>594.0</ele><time>2026-04-21T13:42:03Z</time></trkpt><trkpt lat="43.2349735053279" lon="12.160127861439827"><ele>594.0</ele><time>2026-04-21T13:42:04Z</time></trkpt><trkpt lat="43.23485389006645" lon="12.160127974177746"><ele>594.0</ele><time>2026-04-21T13:42:05Z</time></trkpt><trkpt lat="43.23473779546614" lon="12.160149699502599"><ele>594.0</ele><time>2026-04-21T13:42:06Z</time></trkpt><trkpt lat="43.234615325853795" lon="12.16014655445839"><ele>594.0</ele><time>2026-04-21T13:42:07Z</time></trkpt><trkpt lat="43.23448497690482" lon="12.1601361759227"><ele>596.4</ele><time>2026-04-21T13:42:08Z</time></trkpt><trkpt lat="43.23436883278196" lon="12.160136434208624"><ele>598.8</ele><time>2026-04-21T13:42:09Z</time></trkpt><trkpt lat="43.23427262289092" lon="12.160119915469682"><ele>601.2</ele><time>2026-04-21T13:42:10Z</time></trkpt><trkpt lat="43.234194031783" lon="12.160038644166157"><ele>603.6</ele><time>2026-04-21T13:42:11Z</time></trkpt><trkpt lat="43.23413464396863" lon="12.159953753365729"><ele>606.0</ele><time>2026-04-21T13:42:12Z</time></trkpt><trkpt lat="43.2340458147909" lon="12.159878914255412"><ele>603.5</ele><time>2026-04-21T13:42:13Z</time></trkpt><trkpt lat="43.23393822991636" lon="12.159822082397465"><ele>601.0</ele><time>2026-04-21T13:42:14Z</time></trkpt><trkpt lat="43.233812342709605" lon="12.159795226562515"><ele>598.5</ele><time>2026-04-21T13:42:15Z</time></trkpt><trkpt lat="43.23368728099099" lon="12.1597682652016"><ele>596.0</ele><time>2026-04-21T13:42:16Z</time></trkpt><trkpt lat="43.23355278474599" lon="12.159744661096788"><ele>596.0</ele><time>2026-04-21T13:42:17Z</time></trkpt><trkpt lat="43.233411048760104" lon="12.159765294963039"><ele>596.0</ele><time>2026-04-21T13:42:18Z</time></trkpt><trkpt lat="43.23328779135453" lon="12.159719783318451"><ele>596.0</ele><time>2026-04-21T13:42:19Z</time></trkpt><trkpt lat="43.233170489711014" lon="12.159663069594208"><ele>596.0</ele><time>2026-04-21T13:42:20Z</time></trkpt><trkpt lat="43.23306445846798" lon="12.15957765208466"><ele>598.0</ele><time>2026-04-21T13:42:21Z</time></trkpt><trkpt lat="43.23296135984637" lon="12.15951075001721"><ele>600.0</ele><time>2026-04-21T13:42:22Z</time></trkpt><trkpt lat="43.23286954289949" lon="12.159464890044635"><ele>602.0</ele><time>2026-04-21T13:42:23Z</time></trkpt><trkpt lat="43.232782781497725" lon="12.159451359978847"><ele>604.0</ele><time>2026-04-21T13:42:24Z</time></trkpt><trkpt lat="43.23269404049748" lon="12.159478724898706"><ele>606.0</ele><time>2026-04-21T13:42:25Z</time></trkpt><trkpt lat="43.23262038366037" lon="12.159567125376242"><ele>606.0</ele><time>2026-04-21T13:42:26Z</time></trkpt><trkpt lat="43.23251754647614" lon="12.15960188428784"><ele>606.0</ele><time>2026-04-21T13:42:27Z</time></trkpt><trkpt lat="43.2324102720908" lon="12.159601783939511"><ele>606.0</ele><time>2026-04-21T13:42:28Z</time></trkpt><trkpt lat="43.23229662409127" lon="12.159568890617448"><ele>606.0</ele><time>2026-04-21T13:42:29Z</time></trkpt><trkpt lat="43.23218067163779" lon="12.159508447279855"><ele>609.75</ele><time>2026-04-21T13:42:30Z</time></trkpt><trkpt lat="43.23205546399222" lon="12.159426873045819"><ele>613.5</ele><time>2026-04-21T13:42:31Z</time></trkpt><trkpt lat="43.23192023190123" lon="12.159363181227627"><ele>617.25</ele><time>2026-04-21T13:42:32Z</time></trkpt><trkpt lat="43.23177907986538" lon="12.159336443821422"><ele>621.0</ele><time>2026-04-21T13:42:33Z</time></trkpt><trkpt lat="43.23163707012224" lon="12.15927189070303"><ele>621.0</ele><time>2026-04-21T13:42:34Z</time></trkpt><trkpt lat="43.231503807896075" lon="12.159196769927746"><ele>621.0</ele><time>2026-04-21T13:42:35Z</time></trkpt><trkpt lat="43.23137924845946" lon="12.159115308807595"><ele>621.0</ele><time>2026-04-21T13:42:36Z</time></trkpt><trkpt lat="43.23124544704102" lon="12.159090848485134"><ele>621.0</ele><time>2026-04-21T13:42:37Z</time></trkpt><trkpt lat="43.231112597225824" lon="12.159110663808708"><ele>626.3333333333334</ele><time>2026-04-21T13:42:38Z</time></trkpt><trkpt lat="43.23096928002232" lon="12.159078204652662"><ele>631.6666666666667</ele><time>2026-04-21T13:42:39Z</time></trkpt><trkpt lat="43.23081148557876" lon="12.159075914982434"><ele>637.0</ele><time>2026-04-21T13:42:40Z</time></trkpt><trkpt lat="43.23066346095493" lon="12.159089127740717"><ele>638.6666666666667</ele><time>2026-04-21T13:42:41Z</time></trkpt><trkpt lat="43.23051478880004" lon="12.159097520621374"><ele>640.3333333333334</ele><time>2026-04-21T13:42:42Z</time></trkpt><trkpt lat="43.230364181609204" lon="12.159086921940927"><ele>642.0</ele><time>2026-04-21T13:42:43Z</time></trkpt><trkpt lat="43.23020335160103" lon="12.159071429132117"><ele>642.0</ele><time>2026-04-21T13:42:44Z</time></trkpt><trkpt lat="43.23004594217457" lon="12.159068727446023"><ele>642.0</ele><time>2026-04-21T13:42:45Z</time></trkpt><trkpt lat="43.229921846079975" lon="12.159067454992266"><ele>642.0</ele><time>2026-04-21T13:42:46Z</time></trkpt><trkpt lat="43.22983466745028" lon="12.159053302980002"><ele>642.0</ele><time>2026-04-21T13:42:47Z</time></trkpt><trkpt lat="43.22977322892224" lon="12.159016690768281"><ele>642.0</ele><time>2026-04-21T13:42:48Z</time></trkpt><trkpt lat="43.22972590621667" lon="12.15895253700181"><ele>640.4</ele><time>2026-04-21T13:42:49Z</time></trkpt><trkpt lat="43.22965536566463" lon="12.158881609566714"><ele>638.8000000000001</ele><time>2026-04-21T13:42:50Z</time></trkpt><trkpt lat="43.22959090886504" lon="12.158824612723357"><ele>637.2</ele><time>2026-04-21T13:42:51Z</time></trkpt><trkpt lat="43.22952268215555" lon="12.158766519691541"><ele>635.6</ele><time>2026-04-21T13:42:53Z</time></trkpt><trkpt lat="43.22962067013828" lon="12.158682094311477"><ele>634.0</ele><time>2026-04-21T13:42:55Z</time></trkpt><trkpt lat="43.229695545860764" lon="12.158596807765088"><ele>634.0</ele><time>2026-04-21T13:42:56Z</time></trkpt><trkpt lat="43.229770513254074" lon="12.15848079909649"><ele>634.0</ele><time>2026-04-21T13:42:57Z</time></trkpt><trkpt lat="43.229832963599144" lon="12.15833343816805"><ele>634.0</ele><time>2026-04-21T13:42:58Z</time></trkpt><trkpt lat="43.22988292396117" lon="12.158169015232092"><ele>634.0</ele><time>2026-04-21T13:42:59Z</time></trkpt><trkpt lat="43.22992300180188" lon="12.15800707200864"><ele>636.2</ele><time>2026-04-21T13:43:00Z</time></trkpt><trkpt lat="43.22994571506959" lon="12.157859480801694"><ele>638.4</ele><time>2026-04-21T13:43:01Z</time></trkpt><trkpt lat="43.2299476503887" lon="12.157728732229247"><ele>640.6</ele><time>2026-04-21T13:43:02Z</time></trkpt><trkpt lat="43.229934198623496" lon="12.1575786729659"><ele>642.8</ele><time>2026-04-21T13:43:03Z</time></trkpt><trkpt lat="43.22989782724586" lon="12.157422212960718"><ele>645.0</ele><time>2026-04-21T13:43:04Z</time></trkpt><trkpt lat="43.229858490695676" lon="12.15727686648211"><ele>645.1666666666666</ele><time>2026-04-21T13:43:05Z</time></trkpt><trkpt lat="43.22982444598693" lon="12.157134662424127"><ele>645.3333333333334</ele><time>2026-04-21T13:43:06Z</time></trkpt><trkpt lat="43.22980275964039" lon="12.157014586101388"><ele>645.5</ele><time>2026-04-21T13:43:07Z</time></trkpt><trkpt lat="43.22980495037191" lon="12.15690294621962"><ele>645.6666666666667</ele><time>2026-04-21T13:43:08Z</time></trkpt><trkpt lat="43.229820936904446" lon="12.156791963818385"><ele>645.8333333333334</ele><time>2026-04-21T13:43:09Z</time></trkpt><trkpt lat="43.2298452140562" lon="12.156683913696192"><ele>646.0</ele><time>2026-04-21T13:43:10Z</time></trkpt><trkpt lat="43.2299080704073" lon="12.156551827031574"><ele>648.5</ele><time>2026-04-21T13:43:11Z</time></trkpt><trkpt lat="43.22995250938544" lon="12.156401386486069"><ele>651.0</ele><time>2026-04-21T13:43:12Z</time></trkpt><trkpt lat="43.22999757878417" lon="12.156237646171432"><ele>653.5</ele><time>2026-04-21T13:43:13Z</time></trkpt><trkpt lat="43.23003592863451" lon="12.156099211534194"><ele>656.0</ele><time>2026-04-21T13:43:14Z</time></trkpt><trkpt lat="43.23007116755314" lon="12.155972068753776"><ele>656.0</ele><time>2026-04-21T13:43:15Z</time></trkpt><trkpt lat="43.230113193071546" lon="12.155822586725849"><ele>656.0</ele><time>2026-04-21T13:43:16Z</time></trkpt><trkpt lat="43.230161790781175" lon="12.155658443201524"><ele>656.0</ele><time>2026-04-21T13:43:17Z</time></trkpt><trkpt lat="43.23021594948403" lon="12.155483692618146"><ele>656.0</ele><time>2026-04-21T13:43:18Z</time></trkpt><trkpt lat="43.230270191217976" lon="12.15529954051002"><ele>656.75</ele><time>2026-04-21T13:43:19Z</time></trkpt><trkpt lat="43.23031663965677" lon="12.155110674494356"><ele>657.5</ele><time>2026-04-21T13:43:20Z</time></trkpt><trkpt lat="43.23035714327916" lon="12.154936464596052"><ele>658.25</ele><time>2026-04-21T13:43:21Z</time></trkpt><trkpt lat="43.23039834295021" lon="12.154778004780987"><ele>659.0</ele><time>2026-04-21T13:43:22Z</time></trkpt><trkpt lat="43.23043984431935" lon="12.15465685130296"><ele>659.0</ele><time>2026-04-21T13:43:23Z</time></trkpt><trkpt lat="43.23049856513956" lon="12.15456312884447"><ele>659.0</ele><time>2026-04-21T13:43:24Z</time></trkpt><trkpt lat="43.230567951568965" lon="12.154462174470611"><ele>659.0</ele><time>2026-04-21T13:43:25Z</time></trkpt><trkpt lat="43.230643752832954" lon="12.154354462845115"><ele>659.0</ele><time>2026-04-21T13:43:26Z</time></trkpt><trkpt lat="43.2307023945722" lon="12.154242857278495"><ele>659.0</ele><time>2026-04-21T13:43:27Z</time></trkpt><trkpt lat="43.23075402108777" lon="12.15403123401631"><ele>660.4000000000001</ele><time>2026-04-21T13:43:29Z</time></trkpt><trkpt lat="43.230730088338184" lon="12.15392920335767"><ele>661.8</ele><time>2026-04-21T13:43:30Z</time></trkpt><trkpt lat="43.23071046729653" lon="12.153806637837043"><ele>663.2</ele><time>2026-04-21T13:43:31Z</time></trkpt><trkpt lat="43.23069150833517" lon="12.153668940633203"><ele>664.5999999999999</ele><time>2026-04-21T13:43:32Z</time></trkpt><trkpt lat="43.23067858965604" lon="12.153529872506606"><ele>666.0</ele><time>2026-04-21T13:43:33Z</time></trkpt><trkpt lat="43.2306645812664" lon="12.153385778542525"><ele>666.0</ele><time>2026-04-21T13:43:34Z</time></trkpt><trkpt lat="43.23064598463041" lon="12.153243666558515"><ele>666.0</ele><time>2026-04-21T13:43:35Z</time></trkpt><trkpt lat="43.23062567102475" lon="12.153106326328523"><ele>666.0</ele><time>2026-04-21T13:43:36Z</time></trkpt><trkpt lat="43.230601609302916" lon="12.152964308580465"><ele>666.0</ele><time>2026-04-21T13:43:37Z</time></trkpt><trkpt lat="43.230588213589165" lon="12.152801921609326"><ele>666.0</ele><time>2026-04-21T13:43:38Z</time></trkpt><trkpt lat="43.230579577210904" lon="12.152637527261286"><ele>666.5999999999999</ele><time>2026-04-21T13:43:39Z</time></trkpt><trkpt lat="43.23057000113986" lon="12.152486216680204"><ele>667.2</ele><time>2026-04-21T13:43:40Z</time></trkpt><trkpt lat="43.23055959558666" lon="12.152345970153345"><ele>667.8</ele><time>2026-04-21T13:43:41Z</time></trkpt><trkpt lat="43.23055209891249" lon="12.15221553466351"><ele>668.4000000000001</ele><time>2026-04-21T13:43:42Z</time></trkpt><trkpt lat="43.23055155031401" lon="12.152101538938755"><ele>669.0</ele><time>2026-04-21T13:43:43Z</time></trkpt><trkpt lat="43.23055775125455" lon="12.152002036054954"><ele>667.2</ele><time>2026-04-21T13:43:44Z</time></trkpt><trkpt lat="43.23058559288391" lon="12.151878898024187"><ele>665.4000000000001</ele><time>2026-04-21T13:43:46Z</time></trkpt><trkpt lat="43.23062868603088" lon="12.151784618926092"><ele>663.6</ele><time>2026-04-21T13:43:52Z</time></trkpt><trkpt lat="43.230602016122155" lon="12.151616647927709"><ele>661.8</ele><time>2026-04-21T13:43:54Z</time></trkpt><trkpt lat="43.230576582678836" lon="12.151455697958179"><ele>660.0</ele><time>2026-04-21T13:43:56Z</time></trkpt><trkpt lat="43.2305646457854" lon="12.151370010871577"><ele>663.6</ele><time>2026-04-21T13:43:57Z</time></trkpt><trkpt lat="43.23055924088529" lon="12.151216957451199"><ele>667.2</ele><time>2026-04-21T13:43:59Z</time></trkpt><trkpt lat="43.230639425705746" lon="12.151163865217358"><ele>670.8</ele><time>2026-04-21T13:44:01Z</time></trkpt><trkpt lat="43.23074963758467" lon="12.151137403271347"><ele>674.4</ele><time>2026-04-21T13:44:03Z</time></trkpt><trkpt lat="43.23082044450648" lon="12.151126201981784"><ele>678.0</ele><time>2026-04-21T13:44:04Z</time></trkpt><trkpt lat="43.2308968155657" lon="12.15110435976082"><ele>679.8333333333334</ele><time>2026-04-21T13:44:05Z</time></trkpt><trkpt lat="43.230977086144115" lon="12.151073450638727"><ele>681.6666666666666</ele><time>2026-04-21T13:44:06Z</time></trkpt><trkpt lat="43.23104391546391" lon="12.151033942841787"><ele>683.5</ele><time>2026-04-21T13:44:07Z</time></trkpt><trkpt lat="43.2311331852111" lon="12.150922010303908"><ele>685.3333333333333</ele><time>2026-04-21T13:44:09Z</time></trkpt><trkpt lat="43.23117608273708" lon="12.150815414714936"><ele>687.1666666666666</ele><time>2026-04-21T13:44:10Z</time></trkpt><trkpt lat="43.23119354948409" lon="12.150716389491079"><ele>689.0</ele><time>2026-04-21T13:44:11Z</time></trkpt><trkpt lat="43.23115343465965" lon="12.150506674229197"><ele>689.8000000000001</ele><time>2026-04-21T13:44:13Z</time></trkpt><trkpt lat="43.231103764347615" lon="12.15040926321828"><ele>690.6</ele><time>2026-04-21T13:44:14Z</time></trkpt><trkpt lat="43.23104535083659" lon="12.150303653185938"><ele>691.4</ele><time>2026-04-21T13:44:15Z</time></trkpt><trkpt lat="43.23098392282657" lon="12.150216479941752"><ele>692.2</ele><time>2026-04-21T13:44:16Z</time></trkpt><trkpt lat="43.230926852057515" lon="12.150126236062347"><ele>693.0</ele><time>2026-04-21T13:44:17Z</time></trkpt><trkpt lat="43.230862412695764" lon="12.149996813770718"><ele>693.4</ele><time>2026-04-21T13:44:18Z</time></trkpt><trkpt lat="43.23081478489324" lon="12.149865923091404"><ele>693.8</ele><time>2026-04-21T13:44:19Z</time></trkpt><trkpt lat="43.23078059543109" lon="12.149749328077412"><ele>694.2</ele><time>2026-04-21T13:44:20Z</time></trkpt><trkpt lat="43.230732329479764" lon="12.149626693552987"><ele>694.6</ele><time>2026-04-21T13:44:21Z</time></trkpt><trkpt lat="43.230671513186984" lon="12.149509353690455"><ele>695.0</ele><time>2026-04-21T13:44:22Z</time></trkpt><trkpt lat="43.23059281257883" lon="12.149388972436347"><ele>695.0</ele><time>2026-04-21T13:44:23Z</time></trkpt><trkpt lat="43.23052715880524" lon="12.149256178886947"><ele>695.0</ele><time>2026-04-21T13:44:24Z</time></trkpt><trkpt lat="43.23046685050056" lon="12.149118528599226"><ele>695.0</ele><time>2026-04-21T13:44:25Z</time></trkpt><trkpt lat="43.230412436430406" lon="12.148965217727453"><ele>695.0</ele><time>2026-04-21T13:44:26Z</time></trkpt><trkpt lat="43.23035766449744" lon="12.148808960840851"><ele>695.0</ele><time>2026-04-21T13:44:27Z</time></trkpt><trkpt lat="43.23029477150686" lon="12.148651862226071"><ele>695.0</ele><time>2026-04-21T13:44:28Z</time></trkpt><trkpt lat="43.23021419125123" lon="12.148512019496511"><ele>695.0</ele><time>2026-04-21T13:44:29Z</time></trkpt><trkpt lat="43.23016454888489" lon="12.1483403953197"><ele>695.0</ele><time>2026-04-21T13:44:30Z</time></trkpt><trkpt lat="43.2301094622836" lon="12.148183140339643"><ele>695.0</ele><time>2026-04-21T13:44:31Z</time></trkpt><trkpt lat="43.23004488775936" lon="12.148022265864284"><ele>695.0</ele><time>2026-04-21T13:44:32Z</time></trkpt><trkpt lat="43.22997739917496" lon="12.147860001715022"><ele>695.0</ele><time>2026-04-21T13:44:33Z</time></trkpt><trkpt lat="43.22992058008973" lon="12.147715917843188"><ele>695.0</ele><time>2026-04-21T13:44:34Z</time></trkpt><trkpt lat="43.22987582159834" lon="12.147586359396048"><ele>695.0</ele><time>2026-04-21T13:44:35Z</time></trkpt><trkpt lat="43.22984905390858" lon="12.147474705654437"><ele>695.0</ele><time>2026-04-21T13:44:36Z</time></trkpt><trkpt lat="43.229829252472534" lon="12.147369640916633"><ele>695.0</ele><time>2026-04-21T13:44:37Z</time></trkpt><trkpt lat="43.22980388463669" lon="12.147253026986684"><ele>695.0</ele><time>2026-04-21T13:44:38Z</time></trkpt><trkpt lat="43.22976901615032" lon="12.147130572953285"><ele>695.0</ele><time>2026-04-21T13:44:39Z</time></trkpt><trkpt lat="43.2297470691382" lon="12.147037345655354"><ele>695.0</ele><time>2026-04-21T13:44:40Z</time></trkpt><trkpt lat="43.229733733588304" lon="12.14691017999272"><ele>695.1666666666666</ele><time>2026-04-21T13:44:41Z</time></trkpt><trkpt lat="43.22972380558524" lon="12.146822348882594"><ele>695.3333333333333</ele><time>2026-04-21T13:44:42Z</time></trkpt><trkpt lat="43.229705632236616" lon="12.146699163362511"><ele>695.5</ele><time>2026-04-21T13:44:44Z</time></trkpt><trkpt lat="43.22967337578061" lon="12.146573652365857"><ele>695.6666666666666</ele><time>2026-04-21T13:44:46Z</time></trkpt><trkpt lat="43.229639185116305" lon="12.146431108813875"><ele>695.8333333333334</ele><time>2026-04-21T13:44:48Z</time></trkpt><trkpt lat="43.22961638390829" lon="12.146334699685992"><ele>696.0</ele><time>2026-04-21T13:44:49Z</time></trkpt><trkpt lat="43.2296048144791" lon="12.146233814752842"><ele>696.0</ele><time>2026-04-21T13:44:50Z</time></trkpt><trkpt lat="43.22959776275546" lon="12.146124427138055"><ele>696.0</ele><time>2026-04-21T13:44:51Z</time></trkpt><trkpt lat="43.229592224494525" lon="12.146009634088237"><ele>696.0</ele><time>2026-04-21T13:44:52Z</time></trkpt><trkpt lat="43.22958830678505" lon="12.145894121895532"><ele>696.0</ele><time>2026-04-21T13:44:53Z</time></trkpt><trkpt lat="43.22958550277743" lon="12.145770250784913"><ele>696.0</ele><time>2026-04-21T13:44:54Z</time></trkpt><trkpt lat="43.22958303268521" lon="12.14566113082719"><ele>696.0</ele><time>2026-04-21T13:44:55Z</time></trkpt><trkpt lat="43.22957788920437" lon="12.14552945952699"><ele>695.6666666666666</ele><time>2026-04-21T13:44:56Z</time></trkpt><trkpt lat="43.22957189466026" lon="12.145386727760615"><ele>695.3333333333334</ele><time>2026-04-21T13:44:58Z</time></trkpt><trkpt lat="43.22955338069834" lon="12.145297097581071"><ele>695.0</ele><time>2026-04-21T13:45:00Z</time></trkpt><trkpt lat="43.22955799653572" lon="12.145203551957177"><ele>694.6666666666667</ele><time>2026-04-21T13:45:02Z</time></trkpt><trkpt lat="43.22954420085313" lon="12.14507596570479"><ele>694.3333333333334</ele><time>2026-04-21T13:45:04Z</time></trkpt><trkpt lat="43.22952827886001" lon="12.144966544206497"><ele>694.0</ele><time>2026-04-21T13:45:06Z</time></trkpt><trkpt lat="43.22949919473604" lon="12.144852956012992"><ele>692.2857142857143</ele><time>2026-04-21T13:45:09Z</time></trkpt><trkpt lat="43.22949234416883" lon="12.144766818894153"><ele>690.5714285714286</ele><time>2026-04-21T13:45:11Z</time></trkpt><trkpt lat="43.22953244952578" lon="12.144660636195008"><ele>688.8571428571429</ele><time>2026-04-21T13:45:14Z</time></trkpt><trkpt lat="43.22955002331763" lon="12.144551132885198"><ele>687.1428571428571</ele><time>2026-04-21T13:45:16Z</time></trkpt><trkpt lat="43.229564007497146" lon="12.14444922526274"><ele>685.4285714285714</ele><time>2026-04-21T13:45:18Z</time></trkpt><trkpt lat="43.229575481426295" lon="12.144352547677451"><ele>683.7142857142857</ele><time>2026-04-21T13:45:20Z</time></trkpt><trkpt lat="43.22958422426431" lon="12.144258298729321"><ele>682.0</ele><time>2026-04-21T13:45:23Z</time></trkpt><trkpt lat="43.229583832665526" lon="12.144153314240368"><ele>680.5</ele><time>2026-04-21T13:45:26Z</time></trkpt><trkpt lat="43.22952288974765" lon="12.144016936066082"><ele>679.0</ele><time>2026-04-21T13:45:29Z</time></trkpt><trkpt lat="43.2294932219567" lon="12.143915865540835"><ele>677.5</ele><time>2026-04-21T13:45:31Z</time></trkpt><trkpt lat="43.22951393287691" lon="12.14382638471074"><ele>676.0</ele><time>2026-04-21T13:45:34Z</time></trkpt><trkpt lat="43.229551809293746" lon="12.143731278012284"><ele>674.5</ele><time>2026-04-21T13:45:36Z</time></trkpt><trkpt lat="43.229568287036344" lon="12.143625435323354"><ele>673.0</ele><time>2026-04-21T13:45:38Z</time></trkpt><trkpt lat="43.229594372181424" lon="12.14353239626912"><ele>673.0</ele><time>2026-04-21T13:45:39Z</time></trkpt><trkpt lat="43.22962774001218" lon="12.143456978599408"><ele>673.0</ele><time>2026-04-21T13:45:40Z</time></trkpt><trkpt lat="43.22966673591945" lon="12.143316457876258"><ele>673.0</ele><time>2026-04-21T13:45:42Z</time></trkpt><trkpt lat="43.22971764310848" lon="12.143198898634388"><ele>673.0</ele><time>2026-04-21T13:45:44Z</time></trkpt><trkpt lat="43.22977328442338" lon="12.143093169608436"><ele>673.0</ele><time>2026-04-21T13:45:46Z</time></trkpt><trkpt lat="43.229851095310224" lon="12.142948511551294"><ele>673.5</ele><time>2026-04-21T13:45:48Z</time></trkpt><trkpt lat="43.229903488124094" lon="12.142796634270539"><ele>674.0</ele><time>2026-04-21T13:45:50Z</time></trkpt><trkpt lat="43.22991990828676" lon="12.14262209852214"><ele>674.5</ele><time>2026-04-21T13:45:52Z</time></trkpt><trkpt lat="43.22993122840476" lon="12.142533866802442"><ele>675.0</ele><time>2026-04-21T13:45:53Z</time></trkpt><trkpt lat="43.22995135498779" lon="12.142446207164209"><ele>675.5</ele><time>2026-04-21T13:45:54Z</time></trkpt><trkpt lat="43.229974633955855" lon="12.14236261672072"><ele>676.0</ele><time>2026-04-21T13:45:55Z</time></trkpt><trkpt lat="43.23002495665638" lon="12.142235683696237"><ele>677.1666666666667</ele><time>2026-04-21T13:45:57Z</time></trkpt><trkpt lat="43.23006825315864" lon="12.142150630911813"><ele>678.3333333333334</ele><time>2026-04-21T13:45:59Z</time></trkpt><trkpt lat="43.23010892664238" lon="12.142046524888004"><ele>679.5</ele><time>2026-04-21T13:46:01Z</time></trkpt><trkpt lat="43.230146730565465" lon="12.141925938515376"><ele>680.6666666666666</ele><time>2026-04-21T13:46:03Z</time></trkpt><trkpt lat="43.230162504207705" lon="12.141841681500674"><ele>681.8333333333333</ele><time>2026-04-21T13:46:04Z</time></trkpt><trkpt lat="43.23018376068293" lon="12.141692070116937"><ele>683.0</ele><time>2026-04-21T13:46:06Z</time></trkpt><trkpt lat="43.23019599104977" lon="12.141605987960283"><ele>684.8</ele><time>2026-04-21T13:46:07Z</time></trkpt><trkpt lat="43.23021358234702" lon="12.14147870216471"><ele>686.5999999999999</ele><time>2026-04-21T13:46:09Z</time></trkpt><trkpt lat="43.230239924522635" lon="12.14133893145183"><ele>688.4000000000001</ele><time>2026-04-21T13:46:11Z</time></trkpt><trkpt lat="43.23029592650784" lon="12.141205273589993"><ele>690.2</ele><time>2026-04-21T13:46:13Z</time></trkpt><trkpt lat="43.2303446125978" lon="12.141068478538134"><ele>692.0</ele><time>2026-04-21T13:46:15Z</time></trkpt><trkpt lat="43.230364001792246" lon="12.140985672643492"><ele>692.0</ele><time>2026-04-21T13:46:16Z</time></trkpt><trkpt lat="43.23038499155279" lon="12.140899795372585"><ele>692.0</ele><time>2026-04-21T13:46:18Z</time></trkpt><trkpt lat="43.23041038451106" lon="12.140774267661262"><ele>692.0</ele><time>2026-04-21T13:46:20Z</time></trkpt><trkpt lat="43.23042613570261" lon="12.1406634510457"><ele>692.0</ele><time>2026-04-21T13:46:22Z</time></trkpt><trkpt lat="43.230427513742875" lon="12.140572289803018"><ele>692.0</ele><time>2026-04-21T13:46:23Z</time></trkpt><trkpt lat="43.230414859188556" lon="12.14044913878909"><ele>692.0</ele><time>2026-04-21T13:46:25Z</time></trkpt><trkpt lat="43.2303957201671" lon="12.140363387444557"><ele>694.6666666666666</ele><time>2026-04-21T13:46:27Z</time></trkpt><trkpt lat="43.23033291733693" lon="12.140217133665967"><ele>697.3333333333333</ele><time>2026-04-21T13:46:29Z</time></trkpt><trkpt lat="43.230292980914186" lon="12.140138780414805"><ele>700.0</ele><time>2026-04-21T13:46:31Z</time></trkpt><trkpt lat="43.23025137767428" lon="12.140056899126238"><ele>702.6666666666666</ele><time>2026-04-21T13:46:33Z</time></trkpt><trkpt lat="43.2302067303399" lon="12.139960406425816"><ele>705.3333333333334</ele><time>2026-04-21T13:46:35Z</time></trkpt><trkpt lat="43.23016128572102" lon="12.139852373531545"><ele>708.0</ele><time>2026-04-21T13:46:37Z</time></trkpt><trkpt lat="43.23011218660271" lon="12.139732723803256"><ele>708.0</ele><time>2026-04-21T13:46:39Z</time></trkpt><trkpt lat="43.23007931698092" lon="12.139652623742206"><ele>708.0</ele><time>2026-04-21T13:46:50Z</time></trkpt><trkpt lat="43.23002738525391" lon="12.13953126772659"><ele>708.0</ele><time>2026-04-21T13:46:52Z</time></trkpt><trkpt lat="43.229962364677334" lon="12.139385081964827"><ele>708.0</ele><time>2026-04-21T13:46:54.001Z</time></trkpt><trkpt lat="43.2299219428603" lon="12.139308411859826"><ele>708.0</ele><time>2026-04-21T13:46:55.001Z</time></trkpt><trkpt lat="43.229838972831004" lon="12.139206163453807"><ele>708.4</ele><time>2026-04-21T13:46:57.001Z</time></trkpt><trkpt lat="43.2297618818143" lon="12.139154270090732"><ele>708.8</ele><time>2026-04-21T13:46:59.001Z</time></trkpt><trkpt lat="43.22968284380375" lon="12.139073210085186"><ele>709.2</ele><time>2026-04-21T13:47:02Z</time></trkpt><trkpt lat="43.22962818961981" lon="12.138935925577586"><ele>709.6</ele><time>2026-04-21T13:47:04Z</time></trkpt><trkpt lat="43.22958933054636" lon="12.13877946321613"><ele>710.0</ele><time>2026-04-21T13:47:06Z</time></trkpt><trkpt lat="43.229532643947316" lon="12.138630506025955"><ele>710.0</ele><time>2026-04-21T13:47:08Z</time></trkpt><trkpt lat="43.229497561819116" lon="12.138519469592945"><ele>710.0</ele><time>2026-04-21T13:47:10Z</time></trkpt><trkpt lat="43.22947360639546" lon="12.138434673919733"><ele>710.0</ele><time>2026-04-21T13:47:15Z</time></trkpt><trkpt lat="43.229439590181805" lon="12.13831251606"><ele>710.0</ele><time>2026-04-21T13:47:18Z</time></trkpt><trkpt lat="43.22944902700489" lon="12.138210610191063"><ele>710.0</ele><time>2026-04-21T13:47:20Z</time></trkpt><trkpt lat="43.22945698846174" lon="12.138109892988473"><ele>710.0</ele><time>2026-04-21T13:47:22Z</time></trkpt><trkpt lat="43.22947369945575" lon="12.137963568220014"><ele>710.0</ele><time>2026-04-21T13:47:24Z</time></trkpt><trkpt lat="43.229456332500206" lon="12.137872006208383"><ele>710.0</ele><time>2026-04-21T13:47:25Z</time></trkpt><trkpt lat="43.22947585024593" lon="12.137716787137338"><ele>710.0</ele><time>2026-04-21T13:47:27Z</time></trkpt><trkpt lat="43.229517431570045" lon="12.13755022427507"><ele>710.0</ele><time>2026-04-21T13:47:29Z</time></trkpt><trkpt lat="43.229532471347376" lon="12.137465047270599"><ele>710.0</ele><time>2026-04-21T13:47:30Z</time></trkpt><trkpt lat="43.22957036293714" lon="12.137330760269057"><ele>712.3333333333333</ele><time>2026-04-21T13:47:32Z</time></trkpt><trkpt lat="43.229602271746884" lon="12.137189179881812"><ele>714.6666666666666</ele><time>2026-04-21T13:47:34Z</time></trkpt><trkpt lat="43.229605978018185" lon="12.137082577573969"><ele>717.0</ele><time>2026-04-21T13:47:36Z</time></trkpt><trkpt lat="43.229599929605385" lon="12.136990960218904"><ele>719.3333333333334</ele><time>2026-04-21T13:47:38Z</time></trkpt><trkpt lat="43.229618536246065" lon="12.136872546268622"><ele>721.6666666666667</ele><time>2026-04-21T13:47:41Z</time></trkpt><trkpt lat="43.22964027247996" lon="12.136728447957035"><ele>724.0</ele><time>2026-04-21T13:47:44Z</time></trkpt><trkpt lat="43.22967905013513" lon="12.136638653948001"><ele>722.0</ele><time>2026-04-21T13:47:46Z</time></trkpt><trkpt lat="43.22971706966393" lon="12.136527991377132"><ele>720.0</ele><time>2026-04-21T13:47:48Z</time></trkpt><trkpt lat="43.22976017363108" lon="12.136425635135227"><ele>718.0</ele><time>2026-04-21T13:47:50Z</time></trkpt><trkpt lat="43.22980708282888" lon="12.136322763652892"><ele>716.0</ele><time>2026-04-21T13:47:52Z</time></trkpt><trkpt lat="43.22988166475678" lon="12.136225127510007"><ele>714.0</ele><time>2026-04-21T13:47:54Z</time></trkpt><trkpt lat="43.2299580275912" lon="12.136129502539461"><ele>714.0</ele><time>2026-04-21T13:47:56Z</time></trkpt><trkpt lat="43.23003780256444" lon="12.136052434285189"><ele>714.0</ele><time>2026-04-21T13:47:58Z</time></trkpt><trkpt lat="43.23009739574007" lon="12.135998154606794"><ele>714.0</ele><time>2026-04-21T13:48:02Z</time></trkpt><trkpt lat="43.23016226939805" lon="12.135954391600215"><ele>714.0</ele><time>2026-04-21T13:48:05Z</time></trkpt><trkpt lat="43.230221279953604" lon="12.135909414730579"><ele>714.0</ele><time>2026-04-21T13:48:07Z</time></trkpt><trkpt lat="43.230315084820326" lon="12.135886498032056"><ele>714.0</ele><time>2026-04-21T13:48:09Z</time></trkpt><trkpt lat="43.23040799122267" lon="12.135842297307239"><ele>714.0</ele><time>2026-04-21T13:48:11Z</time></trkpt><trkpt lat="43.23049479843257" lon="12.135783205218267"><ele>714.0</ele><time>2026-04-21T13:48:13Z</time></trkpt><trkpt lat="43.23055306509052" lon="12.135747520562957"><ele>714.0</ele><time>2026-04-21T13:48:14Z</time></trkpt><trkpt lat="43.2306620809264" lon="12.135694376879552"><ele>714.0</ele><time>2026-04-21T13:48:16Z</time></trkpt><trkpt lat="43.2307507232676" lon="12.135675643157132"><ele>714.0</ele><time>2026-04-21T13:48:18Z</time></trkpt><trkpt lat="43.23081318832205" lon="12.135660127371727"><ele>714.0</ele><time>2026-04-21T13:48:19Z</time></trkpt><trkpt lat="43.230924215108956" lon="12.135598117052076"><ele>715.0</ele><time>2026-04-21T13:48:21Z</time></trkpt><trkpt lat="43.23099363171701" lon="12.13553283741025"><ele>716.0</ele><time>2026-04-21T13:48:22Z</time></trkpt><trkpt lat="43.231042756084896" lon="12.135451919216989"><ele>717.0</ele><time>2026-04-21T13:48:23Z</time></trkpt><trkpt lat="43.23107172183516" lon="12.135346237699585"><ele>718.0</ele><time>2026-04-21T13:48:24Z</time></trkpt><trkpt lat="43.23108482687736" lon="12.1352555029546"><ele>719.0</ele><time>2026-04-21T13:48:25Z</time></trkpt><trkpt lat="43.231093359780694" lon="12.135162465929616"><ele>720.0</ele><time>2026-04-21T13:48:26Z</time></trkpt><trkpt lat="43.23110139167603" lon="12.134997382923379"><ele>720.0</ele><time>2026-04-21T13:48:28Z</time></trkpt><trkpt lat="43.23110313912383" lon="12.134905208330167"><ele>720.0</ele><time>2026-04-21T13:48:29Z</time></trkpt><trkpt lat="43.231103951100714" lon="12.134817028292918"><ele>720.0</ele><time>2026-04-21T13:48:30Z</time></trkpt><trkpt lat="43.231100803622205" lon="12.134652616259862"><ele>720.0</ele><time>2026-04-21T13:48:32Z</time></trkpt><trkpt lat="43.2310838123907" lon="12.134512620265161"><ele>720.0</ele><time>2026-04-21T13:48:34Z</time></trkpt><trkpt lat="43.23107943949373" lon="12.134405642987426"><ele>720.0</ele><time>2026-04-21T13:48:35Z</time></trkpt><trkpt lat="43.2310767703192" lon="12.134307009349632"><ele>720.8333333333334</ele><time>2026-04-21T13:48:36Z</time></trkpt><trkpt lat="43.23107898801788" lon="12.13420510645487"><ele>721.6666666666666</ele><time>2026-04-21T13:48:37Z</time></trkpt><trkpt lat="43.23106801963463" lon="12.134099944250481"><ele>722.5</ele><time>2026-04-21T13:48:38Z</time></trkpt><trkpt lat="43.231042310397356" lon="12.13401139675125"><ele>723.3333333333333</ele><time>2026-04-21T13:48:39Z</time></trkpt><trkpt lat="43.23104423186186" lon="12.133900227910361"><ele>724.1666666666666</ele><time>2026-04-21T13:48:41Z</time></trkpt><trkpt lat="43.23101867874446" lon="12.133747137263917"><ele>725.0</ele><time>2026-04-21T13:48:43Z</time></trkpt><trkpt lat="43.230997941433905" lon="12.133622682548147"><ele>725.0</ele><time>2026-04-21T13:48:44Z</time></trkpt><trkpt lat="43.23098782416067" lon="12.133526593876168"><ele>725.0</ele><time>2026-04-21T13:48:45Z</time></trkpt><trkpt lat="43.23098560368113" lon="12.133384816337765"><ele>725.0</ele><time>2026-04-21T13:48:47Z</time></trkpt><trkpt lat="43.23097685273734" lon="12.13326585661883"><ele>725.0</ele><time>2026-04-21T13:48:49Z</time></trkpt><trkpt lat="43.23097167715133" lon="12.133102384740525"><ele>725.0</ele><time>2026-04-21T13:48:51Z</time></trkpt><trkpt lat="43.23100791981541" lon="12.132913136640772"><ele>724.8333333333333</ele><time>2026-04-21T13:48:53Z</time></trkpt><trkpt lat="43.231034749569666" lon="12.13282695572406"><ele>724.6666666666666</ele><time>2026-04-21T13:48:54Z</time></trkpt><trkpt lat="43.23106955423769" lon="12.132667540689983"><ele>724.5</ele><time>2026-04-21T13:48:56Z</time></trkpt><trkpt lat="43.231119007869346" lon="12.132552680020448"><ele>724.3333333333334</ele><time>2026-04-21T13:48:58Z</time></trkpt><trkpt lat="43.23115643228772" lon="12.132453041185578"><ele>724.1666666666667</ele><time>2026-04-21T13:49:00.001Z</time></trkpt><trkpt lat="43.231191924698116" lon="12.132368478360535"><ele>724.0</ele><time>2026-04-21T13:49:02.001Z</time></trkpt><trkpt lat="43.231232444295735" lon="12.132271069052965"><ele>723.2</ele><time>2026-04-21T13:49:04.001Z</time></trkpt><trkpt lat="43.23125158323533" lon="12.132158815586905"><ele>722.4000000000001</ele><time>2026-04-21T13:49:18.001Z</time></trkpt><trkpt lat="43.23125034376214" lon="12.132025898816222"><ele>721.6</ele><time>2026-04-21T13:49:19.001Z</time></trkpt><trkpt lat="43.23122869395782" lon="12.131907860692797"><ele>720.8</ele><time>2026-04-21T13:49:20.001Z</time></trkpt><trkpt lat="43.23120280846646" lon="12.131785660832266"><ele>720.0</ele><time>2026-04-21T13:49:21.001Z</time></trkpt><trkpt lat="43.231176547825925" lon="12.131663678080768"><ele>721.3333333333334</ele><time>2026-04-21T13:49:22.001Z</time></trkpt><trkpt lat="43.23114652796109" lon="12.131533231807937"><ele>722.6666666666666</ele><time>2026-04-21T13:49:23.001Z</time></trkpt><trkpt lat="43.23111704181192" lon="12.131405104711776"><ele>724.0</ele><time>2026-04-21T13:49:24.001Z</time></trkpt><trkpt lat="43.23108747853454" lon="12.131284120840585"><ele>725.3333333333333</ele><time>2026-04-21T13:49:25.001Z</time></trkpt><trkpt lat="43.2310579703288" lon="12.131191162805083"><ele>726.6666666666666</ele><time>2026-04-21T13:49:26.001Z</time></trkpt><trkpt lat="43.23101745947371" lon="12.131089931294579"><ele>728.0</ele><time>2026-04-21T13:49:27.001Z</time></trkpt><trkpt lat="43.23096025338327" lon="12.130980255270853"><ele>728.0</ele><time>2026-04-21T13:49:28.001Z</time></trkpt><trkpt lat="43.23090535291764" lon="12.130860725265851"><ele>728.0</ele><time>2026-04-21T13:49:29.001Z</time></trkpt><trkpt lat="43.23086139927718" lon="12.130741695403817"><ele>728.0</ele><time>2026-04-21T13:49:30.001Z</time></trkpt><trkpt lat="43.230834040441266" lon="12.130636079964084"><ele>728.0</ele><time>2026-04-21T13:49:31.001Z</time></trkpt><trkpt lat="43.23081048753353" lon="12.13054357903411"><ele>728.0</ele><time>2026-04-21T13:49:32.001Z</time></trkpt><trkpt lat="43.2307950993201" lon="12.13045736087765"><ele>728.0</ele><time>2026-04-21T13:49:33.001Z</time></trkpt><trkpt lat="43.230779698862705" lon="12.130293179573352"><ele>728.0</ele><time>2026-04-21T13:49:35.001Z</time></trkpt><trkpt lat="43.23078212384398" lon="12.130200566945044"><ele>728.0</ele><time>2026-04-21T13:49:36.001Z</time></trkpt><trkpt lat="43.23079857720389" lon="12.130094245746305"><ele>728.0</ele><time>2026-04-21T13:49:37.001Z</time></trkpt><trkpt lat="43.230820543503704" lon="12.12999414472523"><ele>728.0</ele><time>2026-04-21T13:49:38.001Z</time></trkpt><trkpt lat="43.23084685988737" lon="12.129895978893074"><ele>728.0</ele><time>2026-04-21T13:49:39.001Z</time></trkpt><trkpt lat="43.23087539335067" lon="12.12980391611578"><ele>728.0</ele><time>2026-04-21T13:49:40.001Z</time></trkpt><trkpt lat="43.23090625493609" lon="12.129708864941898"><ele>728.0</ele><time>2026-04-21T13:49:41.001Z</time></trkpt><trkpt lat="43.23093792803964" lon="12.129620243394074"><ele>725.0</ele><time>2026-04-21T13:49:42.001Z</time></trkpt><trkpt lat="43.23097244056638" lon="12.12953756646364"><ele>722.0</ele><time>2026-04-21T13:49:43.001Z</time></trkpt><trkpt lat="43.23101030085116" lon="12.129460270858111"><ele>719.0</ele><time>2026-04-21T13:49:44.001Z</time></trkpt><trkpt lat="43.2310552938345" lon="12.129376677889645"><ele>716.0</ele><time>2026-04-21T13:49:45.001Z</time></trkpt><trkpt lat="43.23111893598509" lon="12.129271307667734"><ele>713.0</ele><time>2026-04-21T13:49:46.001Z</time></trkpt><trkpt lat="43.2312038039256" lon="12.129148881634631"><ele>710.0</ele><time>2026-04-21T13:49:47.001Z</time></trkpt><trkpt lat="43.2312959292939" lon="12.129024633344363"><ele>711.8</ele><time>2026-04-21T13:49:48.001Z</time></trkpt><trkpt lat="43.231379073891915" lon="12.128913479414546"><ele>713.6</ele><time>2026-04-21T13:49:49.001Z</time></trkpt><trkpt lat="43.23144884691775" lon="12.12881584468209"><ele>715.4000000000001</ele><time>2026-04-21T13:49:50.001Z</time></trkpt><trkpt lat="43.231500741806535" lon="12.12871715509101"><ele>717.2</ele><time>2026-04-21T13:49:51.001Z</time></trkpt><trkpt lat="43.23156703362316" lon="12.128629593346458"><ele>719.0</ele><time>2026-04-21T13:49:53.001Z</time></trkpt><trkpt lat="43.231389258623174" lon="12.128649398047477"><ele>715.0</ele><time>2026-04-21T13:50:00.001Z</time></trkpt><trkpt lat="43.23131327011903" lon="12.128722110595993"><ele>711.0</ele><time>2026-04-21T13:50:01.001Z</time></trkpt><trkpt lat="43.23124923943163" lon="12.128773157888794"><ele>707.0</ele><time>2026-04-21T13:50:02.001Z</time></trkpt><trkpt lat="43.23118632164925" lon="12.128820468791616"><ele>703.0</ele><time>2026-04-21T13:50:03.001Z</time></trkpt><trkpt lat="43.23111753601873" lon="12.128872034507545"><ele>699.0</ele><time>2026-04-21T13:50:04.001Z</time></trkpt><trkpt lat="43.23099963543642" lon="12.128935974370622"><ele>695.0</ele><time>2026-04-21T13:50:06.001Z</time></trkpt><trkpt lat="43.230938624165354" lon="12.12896680351144"><ele>695.0</ele><time>2026-04-21T13:50:07.001Z</time></trkpt><trkpt lat="43.230820497717076" lon="12.128995328400304"><ele>695.0</ele><time>2026-04-21T13:50:09.001Z</time></trkpt><trkpt lat="43.23074949861336" lon="12.129008722788917"><ele>695.0</ele><time>2026-04-21T13:50:10.001Z</time></trkpt><trkpt lat="43.230667003508636" lon="12.12902943742352"><ele>695.0</ele><time>2026-04-21T13:50:11.001Z</time></trkpt><trkpt lat="43.23059967023849" lon="12.129059905542347"><ele>695.0</ele><time>2026-04-21T13:50:12.001Z</time></trkpt><trkpt lat="43.230538271513225" lon="12.129115987265193"><ele>695.0</ele><time>2026-04-21T13:50:13.001Z</time></trkpt><trkpt lat="43.230482058892996" lon="12.129182332507876"><ele>694.2</ele><time>2026-04-21T13:50:14.001Z</time></trkpt><trkpt lat="43.23041941456169" lon="12.129206388298392"><ele>693.4</ele><time>2026-04-21T13:50:15.001Z</time></trkpt><trkpt lat="43.23032879871082" lon="12.12925585459236"><ele>692.5999999999999</ele><time>2026-04-21T13:50:17.001Z</time></trkpt><trkpt lat="43.230227019043745" lon="12.129248204851804"><ele>691.8</ele><time>2026-04-21T13:50:19.001Z</time></trkpt><trkpt lat="43.230161167399245" lon="12.12923221113753"><ele>691.0</ele><time>2026-04-21T13:50:20.001Z</time></trkpt><trkpt lat="43.23004417842744" lon="12.12918764539979"><ele>691.0</ele><time>2026-04-21T13:50:22.001Z</time></trkpt><trkpt lat="43.22992442378769" lon="12.129176492646183"><ele>691.0</ele><time>2026-04-21T13:50:24.001Z</time></trkpt><trkpt lat="43.22979882641782" lon="12.129187043170376"><ele>691.0</ele><time>2026-04-21T13:50:26.001Z</time></trkpt><trkpt lat="43.22972836534088" lon="12.129220003900864"><ele>691.0</ele><time>2026-04-21T13:50:27.001Z</time></trkpt><trkpt lat="43.2296744907499" lon="12.129296364538645"><ele>691.0</ele><time>2026-04-21T13:50:28.001Z</time></trkpt><trkpt lat="43.229627032457074" lon="12.129379801920312"><ele>687.3333333333334</ele><time>2026-04-21T13:50:29.001Z</time></trkpt><trkpt lat="43.22959067546175" lon="12.12947048917541"><ele>683.6666666666667</ele><time>2026-04-21T13:50:30.001Z</time></trkpt><trkpt lat="43.22956640311452" lon="12.129587883762369"><ele>680.0</ele><time>2026-04-21T13:50:31.001Z</time></trkpt><trkpt lat="43.22955254043812" lon="12.129700417206466"><ele>676.3333333333334</ele><time>2026-04-21T13:50:32.001Z</time></trkpt><trkpt lat="43.22954869291108" lon="12.12981380854503"><ele>672.6666666666666</ele><time>2026-04-21T13:50:33.001Z</time></trkpt><trkpt lat="43.22955342212336" lon="12.129926819491114"><ele>669.0</ele><time>2026-04-21T13:50:34.001Z</time></trkpt><trkpt lat="43.2295727921637" lon="12.130048408379029"><ele>669.0</ele><time>2026-04-21T13:50:35.001Z</time></trkpt><trkpt lat="43.22959025824253" lon="12.130165236380957"><ele>669.0</ele><time>2026-04-21T13:50:36.001Z</time></trkpt><trkpt lat="43.22960220431872" lon="12.130268899043578"><ele>669.0</ele><time>2026-04-21T13:50:37.001Z</time></trkpt><trkpt lat="43.22960354970268" lon="12.130368585153798"><ele>669.0</ele><time>2026-04-21T13:50:38.001Z</time></trkpt><trkpt lat="43.22959666875229" lon="12.130465590788017"><ele>669.0</ele><time>2026-04-21T13:50:39.001Z</time></trkpt><trkpt lat="43.22959593727985" lon="12.130558780361584"><ele>669.0</ele><time>2026-04-21T13:50:40.001Z</time></trkpt><trkpt lat="43.2295944161159" lon="12.130648391983701"><ele>669.0</ele><time>2026-04-21T13:50:41.001Z</time></trkpt><trkpt lat="43.229589488807775" lon="12.13074606237381"><ele>669.6</ele><time>2026-04-21T13:50:42.001Z</time></trkpt><trkpt lat="43.22956253996734" lon="12.130914726314817"><ele>670.2</ele><time>2026-04-21T13:50:44.001Z</time></trkpt><trkpt lat="43.22944994500114" lon="12.130997310765661"><ele>670.8000000000001</ele><time>2026-04-21T13:50:46.001Z</time></trkpt><trkpt lat="43.22937089442736" lon="12.131064337065457"><ele>671.4000000000001</ele><time>2026-04-21T13:50:47.001Z</time></trkpt><trkpt lat="43.22928731217587" lon="12.131133780617047"><ele>672.0</ele><time>2026-04-21T13:50:48.001Z</time></trkpt><trkpt lat="43.22921223324213" lon="12.13119441752952"><ele>672.0</ele><time>2026-04-21T13:50:49.001Z</time></trkpt><trkpt lat="43.22914335183185" lon="12.13125421231172"><ele>672.0</ele><time>2026-04-21T13:50:50.001Z</time></trkpt><trkpt lat="43.229092299975136" lon="12.131305191243873"><ele>672.0</ele><time>2026-04-21T13:50:51.001Z</time></trkpt><trkpt lat="43.22900633436047" lon="12.13141014264847"><ele>672.0</ele><time>2026-04-21T13:50:53.001Z</time></trkpt><trkpt lat="43.22894191698424" lon="12.131521996833229"><ele>672.0</ele><time>2026-04-21T13:50:55.001Z</time></trkpt><trkpt lat="43.22884183174985" lon="12.13166245522728"><ele>671.5</ele><time>2026-04-21T13:50:57.001Z</time></trkpt><trkpt lat="43.22872714548932" lon="12.131818493903786"><ele>671.0</ele><time>2026-04-21T13:50:59.001Z</time></trkpt><trkpt lat="43.228636362561346" lon="12.131869680504105"><ele>670.5</ele><time>2026-04-21T13:51:01.001Z</time></trkpt><trkpt lat="43.228495702883464" lon="12.131901846959801"><ele>670.0</ele><time>2026-04-21T13:51:03.001Z</time></trkpt><trkpt lat="43.22840783626562" lon="12.131916587228059"><ele>670.0</ele><time>2026-04-21T13:51:04.001Z</time></trkpt><trkpt lat="43.2283337725143" lon="12.13192972456414"><ele>670.0</ele><time>2026-04-21T13:51:05.001Z</time></trkpt><trkpt lat="43.22826056983712" lon="12.131946641520738"><ele>670.0</ele><time>2026-04-21T13:51:06.001Z</time></trkpt><trkpt lat="43.2281882183561" lon="12.131969042157436"><ele>670.0</ele><time>2026-04-21T13:51:07.001Z</time></trkpt><trkpt lat="43.228113350256756" lon="12.131993774505542"><ele>670.0</ele><time>2026-04-21T13:51:08.001Z</time></trkpt><trkpt lat="43.228036322729665" lon="12.132023395141218"><ele>670.0</ele><time>2026-04-21T13:51:09.001Z</time></trkpt><trkpt lat="43.22796034406613" lon="12.13205765827877"><ele>667.6666666666667</ele><time>2026-04-21T13:51:10.001Z</time></trkpt><trkpt lat="43.22787512353499" lon="12.132106983896684"><ele>665.3333333333334</ele><time>2026-04-21T13:51:11.001Z</time></trkpt><trkpt lat="43.22779302948833" lon="12.132158630108313"><ele>663.0</ele><time>2026-04-21T13:51:12.001Z</time></trkpt><trkpt lat="43.22772746091951" lon="12.132199879820547"><ele>660.6666666666666</ele><time>2026-04-21T13:51:13.001Z</time></trkpt><trkpt lat="43.22763477933476" lon="12.132220796669113"><ele>658.3333333333333</ele><time>2026-04-21T13:51:15.001Z</time></trkpt><trkpt lat="43.22757113089112" lon="12.132291175326564"><ele>656.0</ele><time>2026-04-21T13:51:17.001Z</time></trkpt><trkpt lat="43.22751441488236" lon="12.13235863140932"><ele>658.3333333333333</ele><time>2026-04-21T13:51:19.001Z</time></trkpt><trkpt lat="43.22746530061645" lon="12.132471858073833"><ele>660.6666666666666</ele><time>2026-04-21T13:51:21.001Z</time></trkpt><trkpt lat="43.22744038002506" lon="12.132601578219033"><ele>663.0</ele><time>2026-04-21T13:51:23.001Z</time></trkpt><trkpt lat="43.227402507279656" lon="12.132704783760346"><ele>665.3333333333334</ele><time>2026-04-21T13:51:25.001Z</time></trkpt><trkpt lat="43.22739629144874" lon="12.13282258657932"><ele>667.6666666666667</ele><time>2026-04-21T13:51:27.001Z</time></trkpt><trkpt lat="43.22741378098129" lon="12.132914681243582"><ele>670.0</ele><time>2026-04-21T13:51:29.001Z</time></trkpt><trkpt lat="43.22740632535641" lon="12.133020010149872"><ele>670.0</ele><time>2026-04-21T13:51:33.001Z</time></trkpt><trkpt lat="43.22741846612169" lon="12.133108936894416"><ele>670.0</ele><time>2026-04-21T13:51:35.001Z</time></trkpt><trkpt lat="43.22742202496645" lon="12.133237203494538"><ele>670.0</ele><time>2026-04-21T13:51:43.001Z</time></trkpt><trkpt lat="43.22742907038964" lon="12.13333011662784"><ele>670.0</ele><time>2026-04-21T13:51:45.001Z</time></trkpt><trkpt lat="43.227410551368294" lon="12.13343108129251"><ele>670.0</ele><time>2026-04-21T13:51:47.001Z</time></trkpt><trkpt lat="43.227398788463475" lon="12.133533061480843"><ele>670.0</ele><time>2026-04-21T13:51:49.001Z</time></trkpt><trkpt lat="43.2273886753646" lon="12.13363541383902"><ele>671.6</ele><time>2026-04-21T13:51:51.001Z</time></trkpt><trkpt lat="43.22736866713271" lon="12.13375517211067"><ele>673.2</ele><time>2026-04-21T13:51:53.001Z</time></trkpt><trkpt lat="43.227333239755964" lon="12.133920825874025"><ele>674.8</ele><time>2026-04-21T13:51:55.001Z</time></trkpt><trkpt lat="43.227302316454136" lon="12.134052592943958"><ele>676.4</ele><time>2026-04-21T13:51:57.001Z</time></trkpt><trkpt lat="43.227302472355895" lon="12.13417081289589"><ele>678.0</ele><time>2026-04-21T13:51:59.001Z</time></trkpt><trkpt lat="43.227326207773075" lon="12.134325610218946"><ele>677.5</ele><time>2026-04-21T13:52:01.001Z</time></trkpt><trkpt lat="43.22735659681941" lon="12.13446860799637"><ele>677.0</ele><time>2026-04-21T13:52:03.001Z</time></trkpt><trkpt lat="43.22733058504387" lon="12.134597454585919"><ele>676.5</ele><time>2026-04-21T13:52:05.001Z</time></trkpt><trkpt lat="43.22729044951669" lon="12.134676492420777"><ele>676.0</ele><time>2026-04-21T13:52:06.001Z</time></trkpt><trkpt lat="43.227249381820876" lon="12.134745151520109"><ele>675.5</ele><time>2026-04-21T13:52:07.001Z</time></trkpt><trkpt lat="43.22718274214232" lon="12.134844420675282"><ele>675.0</ele><time>2026-04-21T13:52:09.001Z</time></trkpt><trkpt lat="43.22712563691667" lon="12.134939902557253"><ele>675.0</ele><time>2026-04-21T13:52:11.001Z</time></trkpt><trkpt lat="43.22706295780367" lon="12.135043175925816"><ele>675.0</ele><time>2026-04-21T13:52:13.001Z</time></trkpt><trkpt lat="43.22695783839615" lon="12.135124331917718"><ele>675.0</ele><time>2026-04-21T13:52:15.001Z</time></trkpt><trkpt lat="43.226851206736924" lon="12.135173688808077"><ele>675.0</ele><time>2026-04-21T13:52:17.001Z</time></trkpt><trkpt lat="43.22678848599494" lon="12.135192252079129"><ele>675.0</ele><time>2026-04-21T13:52:18.001Z</time></trkpt><trkpt lat="43.22669363151341" lon="12.135212732588277"><ele>675.0</ele><time>2026-04-21T13:52:20.001Z</time></trkpt><trkpt lat="43.22662553524574" lon="12.135222812971813"><ele>675.0</ele><time>2026-04-21T13:52:21.001Z</time></trkpt><trkpt lat="43.22653672863137" lon="12.135234793843262"><ele>675.0</ele><time>2026-04-21T13:52:23.001Z</time></trkpt><trkpt lat="43.2264600576534" lon="12.135242944658449"><ele>675.0</ele><time>2026-04-21T13:52:25.001Z</time></trkpt><trkpt lat="43.22638040372848" lon="12.135251412577476"><ele>675.0</ele><time>2026-04-21T13:52:27.001Z</time></trkpt><trkpt lat="43.22628471064166" lon="12.13526455939424"><ele>675.0</ele><time>2026-04-21T13:52:29.001Z</time></trkpt><trkpt lat="43.226180175075314" lon="12.135284614553322"><ele>673.1666666666666</ele><time>2026-04-21T13:52:31.001Z</time></trkpt><trkpt lat="43.22610711424518" lon="12.135298338236094"><ele>671.3333333333334</ele><time>2026-04-21T13:52:33.001Z</time></trkpt><trkpt lat="43.22604613423145" lon="12.135330481226097"><ele>669.5</ele><time>2026-04-21T13:52:35.001Z</time></trkpt><trkpt lat="43.225959114271305" lon="12.13532798116063"><ele>667.6666666666667</ele><time>2026-04-21T13:52:37.001Z</time></trkpt><trkpt lat="43.22588240596789" lon="12.135362201949151"><ele>665.8333333333334</ele><time>2026-04-21T13:52:39.001Z</time></trkpt><trkpt lat="43.22580395489457" lon="12.135429119934455"><ele>664.0</ele><time>2026-04-21T13:52:41.001Z</time></trkpt><trkpt lat="43.22574202879822" lon="12.135505605348563"><ele>664.0</ele><time>2026-04-21T13:52:43.001Z</time></trkpt><trkpt lat="43.225692410143296" lon="12.135602546101302"><ele>664.0</ele><time>2026-04-21T13:52:45.001Z</time></trkpt><trkpt lat="43.22564567234667" lon="12.135664641019414"><ele>664.0</ele><time>2026-04-21T13:52:46.001Z</time></trkpt><trkpt lat="43.22556621870601" lon="12.135748884302206"><ele>664.0</ele><time>2026-04-21T13:52:48.001Z</time></trkpt><trkpt lat="43.225537025444694" lon="12.135867427265929"><ele>664.0</ele><time>2026-04-21T13:52:50.001Z</time></trkpt><trkpt lat="43.22550321728913" lon="12.135997432714124"><ele>664.0</ele><time>2026-04-21T13:52:52.001Z</time></trkpt><trkpt lat="43.22542867327891" lon="12.136048154534718"><ele>663.8000000000001</ele><time>2026-04-21T13:52:54.001Z</time></trkpt><trkpt lat="43.225339150194344" lon="12.136124445077046"><ele>663.6</ele><time>2026-04-21T13:52:56.001Z</time></trkpt><trkpt lat="43.225262688318054" lon="12.136224163441453"><ele>663.4</ele><time>2026-04-21T13:52:58.001Z</time></trkpt><trkpt lat="43.22517805085808" lon="12.136338679716674"><ele>663.2</ele><time>2026-04-21T13:53:00.001Z</time></trkpt><trkpt lat="43.225111961665185" lon="12.136432024192123"><ele>663.0</ele><time>2026-04-21T13:53:02.001Z</time></trkpt><trkpt lat="43.22505820013777" lon="12.136504790441052"><ele>663.5999999999999</ele><time>2026-04-21T13:53:04.001Z</time></trkpt><trkpt lat="43.224992074977976" lon="12.136597218330682"><ele>664.1999999999999</ele><time>2026-04-21T13:53:06.001Z</time></trkpt><trkpt lat="43.22494317962162" lon="12.136742912251812"><ele>664.8</ele><time>2026-04-21T13:53:08.001Z</time></trkpt><trkpt lat="43.22490669947586" lon="12.136820577757994"><ele>665.4</ele><time>2026-04-21T13:53:09.001Z</time></trkpt><trkpt lat="43.22484965681753" lon="12.136984020625817"><ele>666.0</ele><time>2026-04-21T13:53:11Z</time></trkpt><trkpt lat="43.224758956427465" lon="12.137109325543523"><ele>663.8</ele><time>2026-04-21T13:53:13.001Z</time></trkpt><trkpt lat="43.22465173397371" lon="12.137163616810495"><ele>661.5999999999999</ele><time>2026-04-21T13:53:15.001Z</time></trkpt><trkpt lat="43.22452636222868" lon="12.137187978146395"><ele>659.4</ele><time>2026-04-21T13:53:17.001Z</time></trkpt><trkpt lat="43.22444370202336" lon="12.137205872274304"><ele>657.2</ele><time>2026-04-21T13:53:18.001Z</time></trkpt><trkpt lat="43.22436769738744" lon="12.137219761170222"><ele>655.0</ele><time>2026-04-21T13:53:19.001Z</time></trkpt><trkpt lat="43.22428707682516" lon="12.13722660629741"><ele>655.0</ele><time>2026-04-21T13:53:20.001Z</time></trkpt><trkpt lat="43.224222366877235" lon="12.13722483312871"><ele>655.0</ele><time>2026-04-21T13:53:21.001Z</time></trkpt><trkpt lat="43.2241204840426" lon="12.137216810319327"><ele>655.0</ele><time>2026-04-21T13:53:23.001Z</time></trkpt><trkpt lat="43.223997274389696" lon="12.13720411808729"><ele>655.0</ele><time>2026-04-21T13:53:25.001Z</time></trkpt><trkpt lat="43.2239296738635" lon="12.137193545636656"><ele>655.0</ele><time>2026-04-21T13:53:26.001Z</time></trkpt><trkpt lat="43.223829085902445" lon="12.137154514931282"><ele>653.1666666666667</ele><time>2026-04-21T13:53:28.001Z</time></trkpt><trkpt lat="43.22374218755379" lon="12.137081285955105"><ele>651.3333333333334</ele><time>2026-04-21T13:53:30.001Z</time></trkpt><trkpt lat="43.223649314399125" lon="12.137012067166005"><ele>649.5</ele><time>2026-04-21T13:53:32.001Z</time></trkpt><trkpt lat="43.22355980990339" lon="12.136980949685844"><ele>647.6666666666666</ele><time>2026-04-21T13:53:34.001Z</time></trkpt><trkpt lat="43.22349639390977" lon="12.137034796932863"><ele>645.8333333333333</ele><time>2026-04-21T13:53:35.001Z</time></trkpt><trkpt lat="43.22344351234941" lon="12.137096213888098"><ele>644.0</ele><time>2026-04-21T13:53:37.001Z</time></trkpt><trkpt lat="43.22340157125386" lon="12.137238852375148"><ele>644.0</ele><time>2026-04-21T13:53:39.001Z</time></trkpt><trkpt lat="43.223390970078604" lon="12.137357014949307"><ele>644.0</ele><time>2026-04-21T13:53:40.001Z</time></trkpt><trkpt lat="43.223405030648436" lon="12.137453121579064"><ele>644.0</ele><time>2026-04-21T13:53:41.001Z</time></trkpt><trkpt lat="43.22342386232287" lon="12.137555613626022"><ele>644.0</ele><time>2026-04-21T13:53:42.001Z</time></trkpt><trkpt lat="43.223414571693915" lon="12.137698699667355"><ele>644.0</ele><time>2026-04-21T13:53:44.001Z</time></trkpt><trkpt lat="43.22338935897434" lon="12.13778268481901"><ele>644.0</ele><time>2026-04-21T13:53:45.001Z</time></trkpt><trkpt lat="43.22335726141789" lon="12.137906388430503"><ele>644.2</ele><time>2026-04-21T13:53:46.001Z</time></trkpt><trkpt lat="43.223303901929775" lon="12.138071067181606"><ele>644.4000000000001</ele><time>2026-04-21T13:53:48.001Z</time></trkpt><trkpt lat="43.223275890339615" lon="12.138187935385261"><ele>644.6</ele><time>2026-04-21T13:53:49.001Z</time></trkpt><trkpt lat="43.223259178515676" lon="12.13832567937915"><ele>644.8</ele><time>2026-04-21T13:53:50.001Z</time></trkpt><trkpt lat="43.22323755719498" lon="12.138460997638123"><ele>645.0</ele><time>2026-04-21T13:53:51.001Z</time></trkpt><trkpt lat="43.223209643345484" lon="12.13858286888944"><ele>644.0</ele><time>2026-04-21T13:53:52.001Z</time></trkpt><trkpt lat="43.223179456881375" lon="12.138711219603477"><ele>643.0</ele><time>2026-04-21T13:53:53.001Z</time></trkpt><trkpt lat="43.22312607248353" lon="12.138838786413658"><ele>642.0</ele><time>2026-04-21T13:53:54.001Z</time></trkpt><trkpt lat="43.22307734827493" lon="12.13894563170961"><ele>641.0</ele><time>2026-04-21T13:53:55.001Z</time></trkpt><trkpt lat="43.223027974854354" lon="12.139025467861424"><ele>640.0</ele><time>2026-04-21T13:53:56.001Z</time></trkpt><trkpt lat="43.222964874928095" lon="12.139105755185014"><ele>638.6666666666667</ele><time>2026-04-21T13:53:57.001Z</time></trkpt><trkpt lat="43.22288355927374" lon="12.139212653262888"><ele>637.3333333333334</ele><time>2026-04-21T13:53:58.001Z</time></trkpt><trkpt lat="43.22282097400625" lon="12.13929291718575"><ele>636.0</ele><time>2026-04-21T13:53:59.001Z</time></trkpt><trkpt lat="43.222766445659744" lon="12.139362848333763"><ele>634.6666666666666</ele><time>2026-04-21T13:54:00.001Z</time></trkpt><trkpt lat="43.22270703852731" lon="12.139439036391874"><ele>633.3333333333333</ele><time>2026-04-21T13:54:01.001Z</time></trkpt><trkpt lat="43.222652118774825" lon="12.139510312107301"><ele>632.0</ele><time>2026-04-21T13:54:02.001Z</time></trkpt><trkpt lat="43.222576759924515" lon="12.139608812576865"><ele>632.0</ele><time>2026-04-21T13:54:04.001Z</time></trkpt><trkpt lat="43.222504534655144" lon="12.139726203523402"><ele>632.0</ele><time>2026-04-21T13:54:06.001Z</time></trkpt><trkpt lat="43.2224228940804" lon="12.139838077782066"><ele>632.0</ele><time>2026-04-21T13:54:08.001Z</time></trkpt><trkpt lat="43.22236464142136" lon="12.13995620042012"><ele>632.0</ele><time>2026-04-21T13:54:10.001Z</time></trkpt><trkpt lat="43.222329064780375" lon="12.140139261403382"><ele>632.0</ele><time>2026-04-21T13:54:12.001Z</time></trkpt><trkpt lat="43.222339126303254" lon="12.14026409208707"><ele>632.0</ele><time>2026-04-21T13:54:14.001Z</time></trkpt><trkpt lat="43.222342923574374" lon="12.140397538220189"><ele>632.0</ele><time>2026-04-21T13:54:15.001Z</time></trkpt><trkpt lat="43.22234421598281" lon="12.140488999850884"><ele>632.0</ele><time>2026-04-21T13:54:17.001Z</time></trkpt><trkpt lat="43.222324572504235" lon="12.140582961554406"><ele>632.0</ele><time>2026-04-21T13:54:18.001Z</time></trkpt><trkpt lat="43.22231181764217" lon="12.140686440532273"><ele>632.0</ele><time>2026-04-21T13:54:19.001Z</time></trkpt><trkpt lat="43.22228390017615" lon="12.140824448899993"><ele>631.0</ele><time>2026-04-21T13:54:20.001Z</time></trkpt><trkpt lat="43.22223940980594" lon="12.141003628979444"><ele>630.0</ele><time>2026-04-21T13:54:22.001Z</time></trkpt><trkpt lat="43.22219214984329" lon="12.141064786194544"><ele>629.0</ele><time>2026-04-21T13:54:23.001Z</time></trkpt><trkpt lat="43.2221358608557" lon="12.141134053744908"><ele>628.0</ele><time>2026-04-21T13:54:24.001Z</time></trkpt><trkpt lat="43.22209361816992" lon="12.141218516194805"><ele>627.0</ele><time>2026-04-21T13:54:25.001Z</time></trkpt><trkpt lat="43.222039459571285" lon="12.141296346003928"><ele>626.0</ele><time>2026-04-21T13:54:26.001Z</time></trkpt><trkpt lat="43.221994826888185" lon="12.14136284017315"><ele>626.0</ele><time>2026-04-21T13:54:27.001Z</time></trkpt><trkpt lat="43.221941561074836" lon="12.141415053516413"><ele>626.0</ele><time>2026-04-21T13:54:29.001Z</time></trkpt><trkpt lat="43.221851934764494" lon="12.141521690745403"><ele>626.0</ele><time>2026-04-21T13:54:31.001Z</time></trkpt><trkpt lat="43.22179366372249" lon="12.141566291538172"><ele>626.0</ele><time>2026-04-21T13:54:32.001Z</time></trkpt><trkpt lat="43.221720533415876" lon="12.141634670393826"><ele>626.0</ele><time>2026-04-21T13:54:33.001Z</time></trkpt><trkpt lat="43.22164489786758" lon="12.141686883942459"><ele>626.0</ele><time>2026-04-21T13:54:34.001Z</time></trkpt><trkpt lat="43.22157455034574" lon="12.14175098304888"><ele>626.3333333333333</ele><time>2026-04-21T13:54:35.001Z</time></trkpt><trkpt lat="43.22151125068356" lon="12.1418074108372"><ele>626.6666666666666</ele><time>2026-04-21T13:54:36.001Z</time></trkpt><trkpt lat="43.221418314916406" lon="12.141899789268736"><ele>627.0</ele><time>2026-04-21T13:54:38.001Z</time></trkpt><trkpt lat="43.22134730159216" lon="12.141925979099964"><ele>627.3333333333334</ele><time>2026-04-21T13:54:39.001Z</time></trkpt><trkpt lat="43.22127862771761" lon="12.141988392430763"><ele>627.6666666666667</ele><time>2026-04-21T13:54:40.001Z</time></trkpt><trkpt lat="43.22122650862229" lon="12.142044994046666"><ele>628.0</ele><time>2026-04-21T13:54:42Z</time></trkpt><trkpt lat="43.22113931433024" lon="12.142109906958423"><ele>627.3333333333334</ele><time>2026-04-21T13:54:46Z</time></trkpt><trkpt lat="43.22106569169026" lon="12.14216253437663"><ele>626.6666666666667</ele><time>2026-04-21T13:54:47Z</time></trkpt><trkpt lat="43.22098924459382" lon="12.142201318210498"><ele>626.0</ele><time>2026-04-21T13:54:48Z</time></trkpt><trkpt lat="43.220908980938546" lon="12.142196892448228"><ele>625.3333333333334</ele><time>2026-04-21T13:54:49Z</time></trkpt><trkpt lat="43.22083824551034" lon="12.142213385640328"><ele>624.6666666666666</ele><time>2026-04-21T13:54:50Z</time></trkpt><trkpt lat="43.220770967588884" lon="12.142238541139593"><ele>624.0</ele><time>2026-04-21T13:54:51Z</time></trkpt><trkpt lat="43.220708671506806" lon="12.142279534266285"><ele>621.8333333333334</ele><time>2026-04-21T13:54:52Z</time></trkpt><trkpt lat="43.2206463264351" lon="12.142333585729498"><ele>619.6666666666666</ele><time>2026-04-21T13:54:53Z</time></trkpt><trkpt lat="43.22059039022422" lon="12.142417045026763"><ele>617.5</ele><time>2026-04-21T13:54:54Z</time></trkpt><trkpt lat="43.220529244918936" lon="12.142493175574126"><ele>615.3333333333333</ele><time>2026-04-21T13:54:55Z</time></trkpt><trkpt lat="43.22047330595063" lon="12.142571685169512"><ele>613.1666666666666</ele><time>2026-04-21T13:54:56Z</time></trkpt><trkpt lat="43.22039723604281" lon="12.142592866420257"><ele>611.0</ele><time>2026-04-21T13:54:57Z</time></trkpt><trkpt lat="43.22032266316015" lon="12.142623696380213"><ele>611.0</ele><time>2026-04-21T13:54:58Z</time></trkpt><trkpt lat="43.22023741955383" lon="12.142700843480911"><ele>611.0</ele><time>2026-04-21T13:54:59Z</time></trkpt><trkpt lat="43.22014538660243" lon="12.142725218703436"><ele>611.0</ele><time>2026-04-21T13:55:00Z</time></trkpt><trkpt lat="43.22006870922681" lon="12.142724826318524"><ele>611.0</ele><time>2026-04-21T13:55:01Z</time></trkpt><trkpt lat="43.21996502336441" lon="12.142698524789491"><ele>611.0</ele><time>2026-04-21T13:55:02Z</time></trkpt><trkpt lat="43.21984842559744" lon="12.142660677530976"><ele>611.5</ele><time>2026-04-21T13:55:03Z</time></trkpt><trkpt lat="43.21972509029514" lon="12.142620544072383"><ele>612.0</ele><time>2026-04-21T13:55:04Z</time></trkpt><trkpt lat="43.21959393367556" lon="12.142574161299594"><ele>612.5</ele><time>2026-04-21T13:55:05Z</time></trkpt><trkpt lat="43.2194496624795" lon="12.142523258309451"><ele>613.0</ele><time>2026-04-21T13:55:06Z</time></trkpt><trkpt lat="43.21930607665307" lon="12.142499035033099"><ele>613.0</ele><time>2026-04-21T13:55:07Z</time></trkpt><trkpt lat="43.2191571567867" lon="12.14246103895773"><ele>613.0</ele><time>2026-04-21T13:55:08Z</time></trkpt><trkpt lat="43.2190084844236" lon="12.142420341939918"><ele>613.0</ele><time>2026-04-21T13:55:09Z</time></trkpt><trkpt lat="43.21886168722217" lon="12.142387695081371"><ele>609.0</ele><time>2026-04-21T13:55:10Z</time></trkpt><trkpt lat="43.2187040025582" lon="12.142363391500353"><ele>605.0</ele><time>2026-04-21T13:55:11Z</time></trkpt><trkpt lat="43.21853763579209" lon="12.142338347305795"><ele>601.0</ele><time>2026-04-21T13:55:12Z</time></trkpt><trkpt lat="43.21838450970459" lon="12.142294976465276"><ele>601.0</ele><time>2026-04-21T13:55:13Z</time></trkpt><trkpt lat="43.2182253542573" lon="12.142268312135467"><ele>601.0</ele><time>2026-04-21T13:55:14Z</time></trkpt><trkpt lat="43.218068167295925" lon="12.142241977603591"><ele>601.0</ele><time>2026-04-21T13:55:15Z</time></trkpt><trkpt lat="43.217914008538955" lon="12.142216150405732"><ele>601.25</ele><time>2026-04-21T13:55:16Z</time></trkpt><trkpt lat="43.21777127612388" lon="12.142187661445965"><ele>601.5</ele><time>2026-04-21T13:55:17Z</time></trkpt><trkpt lat="43.217641751679416" lon="12.142161770840358"><ele>601.75</ele><time>2026-04-21T13:55:18.001Z</time></trkpt><trkpt lat="43.21751999182939" lon="12.142137312934558"><ele>602.0</ele><time>2026-04-21T13:55:19.001Z</time></trkpt><trkpt lat="43.21740765963698" lon="12.142115070838116"><ele>602.0</ele><time>2026-04-21T13:55:20.001Z</time></trkpt><trkpt lat="43.217297441898694" lon="12.142099353490403"><ele>602.0</ele><time>2026-04-21T13:55:21.001Z</time></trkpt><trkpt lat="43.21717890725348" lon="12.142097120170193"><ele>602.0</ele><time>2026-04-21T13:55:22.001Z</time></trkpt><trkpt lat="43.21705388249214" lon="12.14210096443515"><ele>602.0</ele><time>2026-04-21T13:55:23.001Z</time></trkpt><trkpt lat="43.2169322363219" lon="12.142105490146449"><ele>602.0</ele><time>2026-04-21T13:55:24.001Z</time></trkpt><trkpt lat="43.2168217551381" lon="12.14211209450657"><ele>602.0</ele><time>2026-04-21T13:55:25.001Z</time></trkpt><trkpt lat="43.216720244422454" lon="12.14214468477339"><ele>602.0</ele><time>2026-04-21T13:55:26.001Z</time></trkpt><trkpt lat="43.21661916138783" lon="12.142178108944867"><ele>602.0</ele><time>2026-04-21T13:55:27.001Z</time></trkpt><trkpt lat="43.21651657608887" lon="12.142221187081036"><ele>602.0</ele><time>2026-04-21T13:55:28.001Z</time></trkpt><trkpt lat="43.216412387214355" lon="12.142268892119112"><ele>603.0</ele><time>2026-04-21T13:55:29.001Z</time></trkpt><trkpt lat="43.216314788260775" lon="12.14231737154274"><ele>604.0</ele><time>2026-04-21T13:55:30.001Z</time></trkpt><trkpt lat="43.21623446183553" lon="12.142368967739667"><ele>605.0</ele><time>2026-04-21T13:55:31.001Z</time></trkpt><trkpt lat="43.2161656216675" lon="12.142432521588422"><ele>606.0</ele><time>2026-04-21T13:55:32.001Z</time></trkpt><trkpt lat="43.21609119523647" lon="12.142516449396027"><ele>607.0</ele><time>2026-04-21T13:55:33.001Z</time></trkpt><trkpt lat="43.21601890076184" lon="12.142619296959555"><ele>607.0</ele><time>2026-04-21T13:55:34.001Z</time></trkpt><trkpt lat="43.21594521541275" lon="12.142748861712999"><ele>607.0</ele><time>2026-04-21T13:55:35.001Z</time></trkpt><trkpt lat="43.21586381657933" lon="12.142884543544902"><ele>607.0</ele><time>2026-04-21T13:55:36.001Z</time></trkpt><trkpt lat="43.21578227288203" lon="12.143028267540098"><ele>607.0</ele><time>2026-04-21T13:55:37.001Z</time></trkpt><trkpt lat="43.21570681274221" lon="12.143165630991929"><ele>605.25</ele><time>2026-04-21T13:55:38.001Z</time></trkpt><trkpt lat="43.2156359239881" lon="12.143290298183794"><ele>603.5</ele><time>2026-04-21T13:55:39.001Z</time></trkpt><trkpt lat="43.21556890991912" lon="12.14342472114619"><ele>601.75</ele><time>2026-04-21T13:55:40.001Z</time></trkpt><trkpt lat="43.21549713564467" lon="12.143565670903754"><ele>600.0</ele><time>2026-04-21T13:55:41.001Z</time></trkpt><trkpt lat="43.21542703645342" lon="12.14371533790237"><ele>600.0</ele><time>2026-04-21T13:55:42.001Z</time></trkpt><trkpt lat="43.215362732335855" lon="12.143860456527323"><ele>600.0</ele><time>2026-04-21T13:55:43.001Z</time></trkpt><trkpt lat="43.21529972409098" lon="12.144012662660344"><ele>600.0</ele><time>2026-04-21T13:55:44.001Z</time></trkpt><trkpt lat="43.21523625458881" lon="12.144178100189697"><ele>600.0</ele><time>2026-04-21T13:55:45.001Z</time></trkpt><trkpt lat="43.2151713349635" lon="12.144352364124073"><ele>600.25</ele><time>2026-04-21T13:55:46.001Z</time></trkpt><trkpt lat="43.21510646436863" lon="12.144527501993343"><ele>600.5</ele><time>2026-04-21T13:55:47.001Z</time></trkpt><trkpt lat="43.215046584286014" lon="12.14471329292934"><ele>600.75</ele><time>2026-04-21T13:55:48.001Z</time></trkpt><trkpt lat="43.214975934721856" lon="12.14489664417287"><ele>601.0</ele><time>2026-04-21T13:55:49.001Z</time></trkpt><trkpt lat="43.214907303691476" lon="12.145067493952983"><ele>601.5</ele><time>2026-04-21T13:55:50.001Z</time></trkpt><trkpt lat="43.21483926422224" lon="12.145228440473321"><ele>602.0</ele><time>2026-04-21T13:55:51.001Z</time></trkpt><trkpt lat="43.214777024398714" lon="12.14536217080737"><ele>602.5</ele><time>2026-04-21T13:55:52.001Z</time></trkpt><trkpt lat="43.21471456314566" lon="12.145476897816723"><ele>603.0</ele><time>2026-04-21T13:55:53.001Z</time></trkpt><trkpt lat="43.21463118610538" lon="12.145541712397069"><ele>602.4</ele><time>2026-04-21T13:55:54.001Z</time></trkpt><trkpt lat="43.21455660674334" lon="12.145612862970712"><ele>601.8</ele><time>2026-04-21T13:55:55.001Z</time></trkpt><trkpt lat="43.214463194136336" lon="12.145665904254642"><ele>601.2</ele><time>2026-04-21T13:55:56.001Z</time></trkpt><trkpt lat="43.214357993623395" lon="12.1457131213672"><ele>600.6</ele><time>2026-04-21T13:55:57.001Z</time></trkpt><trkpt lat="43.21423479371661" lon="12.14574822349391"><ele>600.0</ele><time>2026-04-21T13:55:58.001Z</time></trkpt><trkpt lat="43.21409571763309" lon="12.145754028903715"><ele>599.6666666666666</ele><time>2026-04-21T13:55:59.001Z</time></trkpt><trkpt lat="43.213948113140994" lon="12.145786071775412"><ele>599.3333333333333</ele><time>2026-04-21T13:56:00.001Z</time></trkpt><trkpt lat="43.213793832282384" lon="12.145853050197408"><ele>599.0</ele><time>2026-04-21T13:56:01.001Z</time></trkpt><trkpt lat="43.213629480665965" lon="12.145867547038083"><ele>599.0</ele><time>2026-04-21T13:56:02.001Z</time></trkpt><trkpt lat="43.21347732445201" lon="12.145894806402655"><ele>599.0</ele><time>2026-04-21T13:56:03.001Z</time></trkpt><trkpt lat="43.213336236415806" lon="12.145925219052895"><ele>599.0</ele><time>2026-04-21T13:56:04.001Z</time></trkpt><trkpt lat="43.21320657110664" lon="12.145981139264691"><ele>599.0</ele><time>2026-04-21T13:56:05.001Z</time></trkpt><trkpt lat="43.21307720890303" lon="12.146018115244114"><ele>598.25</ele><time>2026-04-21T13:56:06.001Z</time></trkpt><trkpt lat="43.21294662329427" lon="12.146025518388367"><ele>597.5</ele><time>2026-04-21T13:56:07.001Z</time></trkpt><trkpt lat="43.21282721071709" lon="12.146085017563188"><ele>596.75</ele><time>2026-04-21T13:56:08.001Z</time></trkpt><trkpt lat="43.21270422310067" lon="12.146139642656735"><ele>596.0</ele><time>2026-04-21T13:56:09.001Z</time></trkpt><trkpt lat="43.212597310673765" lon="12.146167628721225"><ele>596.0</ele><time>2026-04-21T13:56:10.001Z</time></trkpt><trkpt lat="43.21248697967373" lon="12.146142510363186"><ele>596.0</ele><time>2026-04-21T13:56:11.001Z</time></trkpt><trkpt lat="43.212382784477" lon="12.146130842292923"><ele>596.0</ele><time>2026-04-21T13:56:12.001Z</time></trkpt><trkpt lat="43.212290486852766" lon="12.146128767505338"><ele>596.0</ele><time>2026-04-21T13:56:13.001Z</time></trkpt><trkpt lat="43.21219568038552" lon="12.146144431516355"><ele>596.0</ele><time>2026-04-21T13:56:14.001Z</time></trkpt><trkpt lat="43.21212118709076" lon="12.146279219197329"><ele>594.4</ele><time>2026-04-21T13:56:15.001Z</time></trkpt><trkpt lat="43.212049994706376" lon="12.146371741996553"><ele>592.8</ele><time>2026-04-21T13:56:16.001Z</time></trkpt><trkpt lat="43.211962100835734" lon="12.14639570447116"><ele>591.1999999999999</ele><time>2026-04-21T13:56:17.001Z</time></trkpt><trkpt lat="43.2118502697025" lon="12.146395898940135"><ele>589.6</ele><time>2026-04-21T13:56:18.001Z</time></trkpt><trkpt lat="43.21172407784156" lon="12.14640903321514"><ele>588.0</ele><time>2026-04-21T13:56:19.001Z</time></trkpt><trkpt lat="43.21158793330431" lon="12.146420234564323"><ele>586.0</ele><time>2026-04-21T13:56:20.001Z</time></trkpt><trkpt lat="43.21144580221383" lon="12.146466565773595"><ele>584.0</ele><time>2026-04-21T13:56:21.001Z</time></trkpt><trkpt lat="43.21129238990153" lon="12.146488203954654"><ele>582.0</ele><time>2026-04-21T13:56:22.001Z</time></trkpt><trkpt lat="43.21113747779685" lon="12.146526633648232"><ele>582.0</ele><time>2026-04-21T13:56:23.001Z</time></trkpt><trkpt lat="43.21097335411149" lon="12.146514434545418"><ele>582.0</ele><time>2026-04-21T13:56:24.001Z</time></trkpt><trkpt lat="43.21081714897169" lon="12.146529744550284"><ele>582.0</ele><time>2026-04-21T13:56:25.001Z</time></trkpt><trkpt lat="43.21063505625785" lon="12.146493247529005"><ele>580.6666666666666</ele><time>2026-04-21T13:56:26.001Z</time></trkpt><trkpt lat="43.210451119728766" lon="12.146494362901242"><ele>579.3333333333333</ele><time>2026-04-21T13:56:27Z</time></trkpt><trkpt lat="43.210269766987764" lon="12.14647255812153"><ele>578.0</ele><time>2026-04-21T13:56:28Z</time></trkpt><trkpt lat="43.210108296845284" lon="12.146434922324465"><ele>578.0</ele><time>2026-04-21T13:56:29Z</time></trkpt><trkpt lat="43.20994941451994" lon="12.146421721729759"><ele>578.0</ele><time>2026-04-21T13:56:30Z</time></trkpt><trkpt lat="43.20979270171271" lon="12.146420560884925"><ele>578.0</ele><time>2026-04-21T13:56:31Z</time></trkpt><trkpt lat="43.20962636220862" lon="12.146430506642927"><ele>576.0</ele><time>2026-04-21T13:56:32Z</time></trkpt><trkpt lat="43.209460879590196" lon="12.146453486189476"><ele>574.0</ele><time>2026-04-21T13:56:33Z</time></trkpt><trkpt lat="43.209291364162056" lon="12.146485743415338"><ele>572.0</ele><time>2026-04-21T13:56:34Z</time></trkpt><trkpt lat="43.209126617314396" lon="12.14653801262803"><ele>568.3333333333333</ele><time>2026-04-21T13:56:35Z</time></trkpt><trkpt lat="43.208969666714935" lon="12.146587034683497"><ele>564.6666666666666</ele><time>2026-04-21T13:56:36Z</time></trkpt><trkpt lat="43.20882081663028" lon="12.146636081352408"><ele>561.0</ele><time>2026-04-21T13:56:37Z</time></trkpt><trkpt lat="43.20866809146554" lon="12.146712496650906"><ele>561.0</ele><time>2026-04-21T13:56:38Z</time></trkpt><trkpt lat="43.208516818353274" lon="12.146742131875008"><ele>561.0</ele><time>2026-04-21T13:56:39Z</time></trkpt><trkpt lat="43.20837411598666" lon="12.146788386482001"><ele>561.0</ele><time>2026-04-21T13:56:40Z</time></trkpt><trkpt lat="43.20823991540567" lon="12.146806952857496"><ele>561.0</ele><time>2026-04-21T13:56:41Z</time></trkpt><trkpt lat="43.208108179895895" lon="12.146780938904818"><ele>555.6666666666666</ele><time>2026-04-21T13:56:42Z</time></trkpt><trkpt lat="43.207971875834104" lon="12.14673790685637"><ele>550.3333333333333</ele><time>2026-04-21T13:56:43Z</time></trkpt><trkpt lat="43.20782737806257" lon="12.14666913533294"><ele>545.0</ele><time>2026-04-21T13:56:44Z</time></trkpt><trkpt lat="43.2076654203757" lon="12.146581446799921"><ele>546.6666666666666</ele><time>2026-04-21T13:56:45Z</time></trkpt><trkpt lat="43.20749636777495" lon="12.146490648651227"><ele>548.3333333333334</ele><time>2026-04-21T13:56:46Z</time></trkpt><trkpt lat="43.20733506837052" lon="12.14640457019286"><ele>550.0</ele><time>2026-04-21T13:56:47Z</time></trkpt><trkpt lat="43.20718175395468" lon="12.146316151218475"><ele>544.3333333333334</ele><time>2026-04-21T13:56:48Z</time></trkpt><trkpt lat="43.20702877243575" lon="12.146225700711183"><ele>538.6666666666666</ele><time>2026-04-21T13:56:49Z</time></trkpt><trkpt lat="43.206879932002565" lon="12.146135003524927"><ele>533.0</ele><time>2026-04-21T13:56:50Z</time></trkpt><trkpt lat="43.20674344851126" lon="12.146038756139891"><ele>533.0</ele><time>2026-04-21T13:56:51Z</time></trkpt><trkpt lat="43.20661026953749" lon="12.145922011329956"><ele>533.0</ele><time>2026-04-21T13:56:52Z</time></trkpt><trkpt lat="43.20648788067499" lon="12.145802040594967"><ele>533.0</ele><time>2026-04-21T13:56:53Z</time></trkpt><trkpt lat="43.20635326901338" lon="12.145694574570932"><ele>526.3333333333333</ele><time>2026-04-21T13:56:54Z</time></trkpt><trkpt lat="43.20619875198135" lon="12.145625602620223"><ele>519.6666666666666</ele><time>2026-04-21T13:56:55Z</time></trkpt><trkpt lat="43.20602906235886" lon="12.145621497377897"><ele>513.0</ele><time>2026-04-21T13:56:56Z</time></trkpt><trkpt lat="43.20584141585052" lon="12.145604211554092"><ele>511.0</ele><time>2026-04-21T13:56:57Z</time></trkpt><trkpt lat="43.20565415094061" lon="12.145596768722557"><ele>509.0</ele><time>2026-04-21T13:56:58Z</time></trkpt><trkpt lat="43.20545968030496" lon="12.145557180983346"><ele>507.0</ele><time>2026-04-21T13:56:59Z</time></trkpt><trkpt lat="43.205261825623836" lon="12.145555485248757"><ele>507.0</ele><time>2026-04-21T13:57:00Z</time></trkpt><trkpt lat="43.20507534940894" lon="12.14556615900536"><ele>507.0</ele><time>2026-04-21T13:57:01Z</time></trkpt><trkpt lat="43.20490463638439" lon="12.145617076647026"><ele>507.0</ele><time>2026-04-21T13:57:02Z</time></trkpt><trkpt lat="43.204744526251844" lon="12.145625525684395"><ele>507.0</ele><time>2026-04-21T13:57:03Z</time></trkpt><trkpt lat="43.20461384786371" lon="12.145668130364324"><ele>507.00000000000006</ele><time>2026-04-21T13:57:04Z</time></trkpt><trkpt lat="43.204503465372255" lon="12.14563977939488"><ele>507.00000000000006</ele><time>2026-04-21T13:57:05Z</time></trkpt><trkpt lat="43.20441360083853" lon="12.145618751811686"><ele>507.0</ele><time>2026-04-21T13:57:06Z</time></trkpt><trkpt lat="43.20433095936994" lon="12.145519696775356"><ele>507.0</ele><time>2026-04-21T13:57:08Z</time></trkpt><trkpt lat="43.20431213687416" lon="12.145335067990482"><ele>507.0</ele><time>2026-04-21T13:57:10Z</time></trkpt><trkpt lat="43.2042713042848" lon="12.145195649452647"><ele>507.0</ele><time>2026-04-21T13:57:11Z</time></trkpt><trkpt lat="43.204207800741315" lon="12.145061931284435"><ele>507.0</ele><time>2026-04-21T13:57:12Z</time></trkpt><trkpt lat="43.20410855352314" lon="12.144933873291539"><ele>507.0</ele><time>2026-04-21T13:57:13Z</time></trkpt><trkpt lat="43.20400965794209" lon="12.144778002920217"><ele>505.33333333333337</ele><time>2026-04-21T13:57:14Z</time></trkpt><trkpt lat="43.203879069347124" lon="12.144671038996707"><ele>503.6666666666667</ele><time>2026-04-21T13:57:15Z</time></trkpt><trkpt lat="43.2037625155696" lon="12.1445248711556"><ele>502.0</ele><time>2026-04-21T13:57:16Z</time></trkpt><trkpt lat="43.203653965519095" lon="12.14437519498381"><ele>502.0</ele><time>2026-04-21T13:57:17Z</time></trkpt><trkpt lat="43.20356391176426" lon="12.144209211211242"><ele>502.0</ele><time>2026-04-21T13:57:18Z</time></trkpt><trkpt lat="43.20347769334866" lon="12.144039535361477"><ele>502.0</ele><time>2026-04-21T13:57:19Z</time></trkpt><trkpt lat="43.203399289955165" lon="12.143867089275906"><ele>499.0</ele><time>2026-04-21T13:57:20Z</time></trkpt><trkpt lat="43.203301827619946" lon="12.143699489793287"><ele>496.0</ele><time>2026-04-21T13:57:21Z</time></trkpt><trkpt lat="43.20318315928569" lon="12.14356101932636"><ele>493.0</ele><time>2026-04-21T13:57:22Z</time></trkpt><trkpt lat="43.20307714743863" lon="12.143401248673289"><ele>493.0</ele><time>2026-04-21T13:57:23Z</time></trkpt><trkpt lat="43.202960390673944" lon="12.143279463139642"><ele>493.0</ele><time>2026-04-21T13:57:24.001Z</time></trkpt><trkpt lat="43.20282282680557" lon="12.143193227611132"><ele>493.0</ele><time>2026-04-21T13:57:25.001Z</time></trkpt><trkpt lat="43.20269234614654" lon="12.143118141825815"><ele>493.0</ele><time>2026-04-21T13:57:26.001Z</time></trkpt><trkpt lat="43.20255789499669" lon="12.143075173636472"><ele>486.0</ele><time>2026-04-21T13:57:27.001Z</time></trkpt><trkpt lat="43.20242004296778" lon="12.143060056665616"><ele>479.0</ele><time>2026-04-21T13:57:28.001Z</time></trkpt><trkpt lat="43.202271737098634" lon="12.143062235599881"><ele>472.0</ele><time>2026-04-21T13:57:29.001Z</time></trkpt><trkpt lat="43.20211968459689" lon="12.143073281867542"><ele>465.0</ele><time>2026-04-21T13:57:30.001Z</time></trkpt><trkpt lat="43.2019868728422" lon="12.143095401278906"><ele>465.0</ele><time>2026-04-21T13:57:31.001Z</time></trkpt><trkpt lat="43.20186865608706" lon="12.143126660443095"><ele>465.0</ele><time>2026-04-21T13:57:32.001Z</time></trkpt><trkpt lat="43.20175050478786" lon="12.143192373033443"><ele>465.0</ele><time>2026-04-21T13:57:33.001Z</time></trkpt><trkpt lat="43.201646456683626" lon="12.143289082584428"><ele>465.0</ele><time>2026-04-21T13:57:34.001Z</time></trkpt><trkpt lat="43.201551512666754" lon="12.143372352182393"><ele>467.25</ele><time>2026-04-21T13:57:35.001Z</time></trkpt><trkpt lat="43.201455649831395" lon="12.143357378075088"><ele>469.5</ele><time>2026-04-21T13:57:36.001Z</time></trkpt><trkpt lat="43.201359969244216" lon="12.143340030806613"><ele>471.75</ele><time>2026-04-21T13:57:37.001Z</time></trkpt><trkpt lat="43.20121969456686" lon="12.143304674374612"><ele>474.0</ele><time>2026-04-21T13:57:38.001Z</time></trkpt><trkpt lat="43.20107617942003" lon="12.14325098366994"><ele>470.33333333333337</ele><time>2026-04-21T13:57:39.001Z</time></trkpt><trkpt lat="43.20092914456227" lon="12.143198420279344"><ele>466.6666666666667</ele><time>2026-04-21T13:57:40.001Z</time></trkpt><trkpt lat="43.20079095864894" lon="12.143106094851788"><ele>463.0</ele><time>2026-04-21T13:57:41.001Z</time></trkpt><trkpt lat="43.20064247550478" lon="12.143052732264064"><ele>461.0</ele><time>2026-04-21T13:57:42.001Z</time></trkpt><trkpt lat="43.20049016670461" lon="12.143040293773572"><ele>459.0</ele><time>2026-04-21T13:57:43.001Z</time></trkpt><trkpt lat="43.20034055180473" lon="12.143007698592166"><ele>457.0</ele><time>2026-04-21T13:57:44.001Z</time></trkpt><trkpt lat="43.200196046334" lon="12.142928664235592"><ele>457.0</ele><time>2026-04-21T13:57:45.001Z</time></trkpt><trkpt lat="43.20004837137089" lon="12.14285134588395"><ele>457.0</ele><time>2026-04-21T13:57:46.001Z</time></trkpt><trkpt lat="43.19991466357362" lon="12.142770120481764"><ele>457.0</ele><time>2026-04-21T13:57:47.001Z</time></trkpt><trkpt lat="43.199801714613926" lon="12.142665514820273"><ele>457.0</ele><time>2026-04-21T13:57:48.001Z</time></trkpt><trkpt lat="43.199713325977406" lon="12.142528537825232"><ele>455.5</ele><time>2026-04-21T13:57:49.001Z</time></trkpt><trkpt lat="43.199624319244684" lon="12.142388212601928"><ele>454.0</ele><time>2026-04-21T13:57:50.001Z</time></trkpt><trkpt lat="43.19953335261561" lon="12.1422569783434"><ele>452.5</ele><time>2026-04-21T13:57:51.001Z</time></trkpt><trkpt lat="43.19944524400551" lon="12.14213272005826"><ele>451.0</ele><time>2026-04-21T13:57:52.001Z</time></trkpt><trkpt lat="43.19934771668264" lon="12.142028916268071"><ele>450.25</ele><time>2026-04-21T13:57:53.001Z</time></trkpt><trkpt lat="43.199259159895696" lon="12.141907662847684"><ele>449.5</ele><time>2026-04-21T13:57:54.001Z</time></trkpt><trkpt lat="43.19917127650342" lon="12.141777353272895"><ele>448.75</ele><time>2026-04-21T13:57:55.001Z</time></trkpt><trkpt lat="43.19910841573351" lon="12.141623003910553"><ele>448.0</ele><time>2026-04-21T13:57:56.001Z</time></trkpt><trkpt lat="43.19903866500411" lon="12.141465649343507"><ele>443.0</ele><time>2026-04-21T13:57:57.001Z</time></trkpt><trkpt lat="43.19897381539737" lon="12.141297051084317"><ele>438.0</ele><time>2026-04-21T13:57:58.001Z</time></trkpt><trkpt lat="43.19891090313898" lon="12.14112219688691"><ele>433.0</ele><time>2026-04-21T13:57:59.001Z</time></trkpt><trkpt lat="43.19883871605582" lon="12.140953755711651"><ele>428.0</ele><time>2026-04-21T13:58:00.001Z</time></trkpt><trkpt lat="43.19877698664963" lon="12.140778389472382"><ele>426.25</ele><time>2026-04-21T13:58:01.001Z</time></trkpt><trkpt lat="43.19871007373831" lon="12.140605073333807"><ele>424.5</ele><time>2026-04-21T13:58:02.001Z</time></trkpt><trkpt lat="43.198664018826385" lon="12.140414019680454"><ele>422.75</ele><time>2026-04-21T13:58:03.001Z</time></trkpt><trkpt lat="43.19859087994606" lon="12.14024493817824"><ele>421.0</ele><time>2026-04-21T13:58:04.001Z</time></trkpt><trkpt lat="43.198531576825495" lon="12.140066670939216"><ele>421.0</ele><time>2026-04-21T13:58:05.001Z</time></trkpt><trkpt lat="43.198462026199415" lon="12.139897558507485"><ele>421.0</ele><time>2026-04-21T13:58:06.001Z</time></trkpt><trkpt lat="43.198393481872756" lon="12.13972666240585"><ele>421.0</ele><time>2026-04-21T13:58:07.001Z</time></trkpt><trkpt lat="43.198290855039104" lon="12.139593371022888"><ele>421.0</ele><time>2026-04-21T13:58:08.001Z</time></trkpt><trkpt lat="43.19823299554797" lon="12.13942784133073"><ele>418.75</ele><time>2026-04-21T13:58:09.001Z</time></trkpt><trkpt lat="43.19819004653827" lon="12.139267030252055"><ele>416.5</ele><time>2026-04-21T13:58:10.001Z</time></trkpt><trkpt lat="43.19817017340561" lon="12.139094674773672"><ele>414.25</ele><time>2026-04-21T13:58:11.001Z</time></trkpt><trkpt lat="43.19813922806206" lon="12.138925658748084"><ele>412.0</ele><time>2026-04-21T13:58:12.001Z</time></trkpt><trkpt lat="43.19810470400442" lon="12.138766593861188"><ele>408.5</ele><time>2026-04-21T13:58:13.001Z</time></trkpt><trkpt lat="43.19807277033444" lon="12.138605556292589"><ele>405.0</ele><time>2026-04-21T13:58:14.001Z</time></trkpt><trkpt lat="43.198056578950364" lon="12.138444220891715"><ele>401.5</ele><time>2026-04-21T13:58:15.001Z</time></trkpt><trkpt lat="43.19806670608481" lon="12.1382795025862"><ele>398.0</ele><time>2026-04-21T13:58:16.001Z</time></trkpt><trkpt lat="43.1980819625339" lon="12.13810619448335"><ele>396.25</ele><time>2026-04-21T13:58:17.001Z</time></trkpt><trkpt lat="43.198088650462246" lon="12.137932242158994"><ele>394.5</ele><time>2026-04-21T13:58:18.001Z</time></trkpt><trkpt lat="43.19811201148149" lon="12.137745813447884"><ele>392.75</ele><time>2026-04-21T13:58:19.001Z</time></trkpt><trkpt lat="43.198125532576796" lon="12.137560242198678"><ele>391.0</ele><time>2026-04-21T13:58:20.001Z</time></trkpt><trkpt lat="43.19815774719827" lon="12.137378986151518"><ele>389.0</ele><time>2026-04-21T13:58:21.001Z</time></trkpt><trkpt lat="43.19812914649932" lon="12.137197123045247"><ele>387.0</ele><time>2026-04-21T13:58:22.001Z</time></trkpt><trkpt lat="43.19812144690817" lon="12.13701888176803"><ele>385.0</ele><time>2026-04-21T13:58:23Z</time></trkpt><trkpt lat="43.198098068744386" lon="12.136858150670413"><ele>383.0</ele><time>2026-04-21T13:58:24Z</time></trkpt><trkpt lat="43.19807325317099" lon="12.136700453535585"><ele>381.0</ele><time>2026-04-21T13:58:25Z</time></trkpt><trkpt lat="43.1980486027312" lon="12.136536813894498"><ele>379.0</ele><time>2026-04-21T13:58:26Z</time></trkpt><trkpt lat="43.19802553039065" lon="12.136382086093672"><ele>377.0</ele><time>2026-04-21T13:58:27Z</time></trkpt><trkpt lat="43.198002195748074" lon="12.136225389410203"><ele>375.0</ele><time>2026-04-21T13:58:28Z</time></trkpt><trkpt lat="43.19797938486825" lon="12.136071999700237"><ele>375.0</ele><time>2026-04-21T13:58:29Z</time></trkpt><trkpt lat="43.1979553408899" lon="12.13592117464362"><ele>375.0</ele><time>2026-04-21T13:58:30Z</time></trkpt><trkpt lat="43.19793141396134" lon="12.135773108851494"><ele>375.0</ele><time>2026-04-21T13:58:31Z</time></trkpt><trkpt lat="43.19790965952883" lon="12.13563848702737"><ele>375.0</ele><time>2026-04-21T13:58:32Z</time></trkpt><trkpt lat="43.19789003582732" lon="12.13551705069201"><ele>375.0</ele><time>2026-04-21T13:58:33Z</time></trkpt><trkpt lat="43.19787249897454" lon="12.13541944195471"><ele>373.6666666666667</ele><time>2026-04-21T13:58:34Z</time></trkpt><trkpt lat="43.197804626740925" lon="12.135302339645332"><ele>372.3333333333333</ele><time>2026-04-21T13:58:36Z</time></trkpt><trkpt lat="43.19773581176007" lon="12.135302455968775"><ele>371.0</ele><time>2026-04-21T13:58:37Z</time></trkpt><trkpt lat="43.19768855349202" lon="12.135363552944982"><ele>369.66666666666663</ele><time>2026-04-21T13:58:38Z</time></trkpt><trkpt lat="43.19763413004869" lon="12.135410417809238"><ele>368.3333333333333</ele><time>2026-04-21T13:58:39Z</time></trkpt><trkpt lat="43.19757533689255" lon="12.135480943806536"><ele>367.0</ele><time>2026-04-21T13:58:40Z</time></trkpt><trkpt lat="43.19752128241076" lon="12.135579452792946"><ele>367.0</ele><time>2026-04-21T13:58:41Z</time></trkpt><trkpt lat="43.19743664771797" lon="12.13565128286319"><ele>367.0</ele><time>2026-04-21T13:58:42Z</time></trkpt><trkpt lat="43.19736266264116" lon="12.135729166202507"><ele>367.0</ele><time>2026-04-21T13:58:43Z</time></trkpt><trkpt lat="43.19727897890036" lon="12.135805547028184"><ele>367.0</ele><time>2026-04-21T13:58:44Z</time></trkpt><trkpt lat="43.19718309271659" lon="12.13589169294779"><ele>367.0</ele><time>2026-04-21T13:58:45Z</time></trkpt><trkpt lat="43.19709592029367" lon="12.135990712062931"><ele>366.0</ele><time>2026-04-21T13:58:46Z</time></trkpt><trkpt lat="43.19700967138037" lon="12.136071056731454"><ele>365.0</ele><time>2026-04-21T13:58:47Z</time></trkpt><trkpt lat="43.196941347131805" lon="12.136172532656465"><ele>364.0</ele><time>2026-04-21T13:58:48Z</time></trkpt><trkpt lat="43.19691275882652" lon="12.136296186511895"><ele>363.0</ele><time>2026-04-21T13:58:49Z</time></trkpt><trkpt lat="43.196910218302726" lon="12.136429665365291"><ele>362.0</ele><time>2026-04-21T13:58:50Z</time></trkpt><trkpt lat="43.1969248111359" lon="12.13656462805939"><ele>362.0</ele><time>2026-04-21T13:58:51Z</time></trkpt><trkpt lat="43.196952296646835" lon="12.136719369930498"><ele>362.0</ele><time>2026-04-21T13:58:52Z</time></trkpt><trkpt lat="43.196979831587385" lon="12.13685097515203"><ele>362.0</ele><time>2026-04-21T13:58:53Z</time></trkpt><trkpt lat="43.19698109245985" lon="12.136964787095119"><ele>362.0</ele><time>2026-04-21T13:58:54Z</time></trkpt><trkpt lat="43.19693958273361" lon="12.137056008711996"><ele>362.0</ele><time>2026-04-21T13:58:55Z</time></trkpt><trkpt lat="43.19685782052908" lon="12.137091992567214"><ele>362.0</ele><time>2026-04-21T13:58:56Z</time></trkpt><trkpt lat="43.19676464554208" lon="12.137106556064053"><ele>362.0</ele><time>2026-04-21T13:58:57Z</time></trkpt><trkpt lat="43.19664549479553" lon="12.137147146645956"><ele>362.0</ele><time>2026-04-21T13:58:58Z</time></trkpt><trkpt lat="43.19651811114145" lon="12.137167916299571"><ele>362.0</ele><time>2026-04-21T13:58:59Z</time></trkpt><trkpt lat="43.19639078286249" lon="12.137215303256077"><ele>359.0</ele><time>2026-04-21T13:59:00Z</time></trkpt><trkpt lat="43.19627261008939" lon="12.13729113014744"><ele>356.0</ele><time>2026-04-21T13:59:01Z</time></trkpt><trkpt lat="43.196156992156965" lon="12.137393918065122"><ele>353.0</ele><time>2026-04-21T13:59:02Z</time></trkpt><trkpt lat="43.19604881966263" lon="12.13750411877305"><ele>350.0</ele><time>2026-04-21T13:59:03Z</time></trkpt><trkpt lat="43.19595005512966" lon="12.137612391163836"><ele>350.0</ele><time>2026-04-21T13:59:04Z</time></trkpt><trkpt lat="43.19585140697005" lon="12.137711667171198"><ele>350.0</ele><time>2026-04-21T13:59:05Z</time></trkpt><trkpt lat="43.19576198736657" lon="12.137798568108696"><ele>350.0</ele><time>2026-04-21T13:59:06Z</time></trkpt><trkpt lat="43.19566871853661" lon="12.137885697253587"><ele>350.0</ele><time>2026-04-21T13:59:07Z</time></trkpt><trkpt lat="43.19565153772788" lon="12.137970769655608"><ele>350.0</ele><time>2026-04-21T13:59:08Z</time></trkpt><trkpt lat="43.19570106924882" lon="12.138167465622503"><ele>350.2</ele><time>2026-04-21T13:59:10Z</time></trkpt><trkpt lat="43.19574315339901" lon="12.13824517119415"><ele>350.4</ele><time>2026-04-21T13:59:11Z</time></trkpt><trkpt lat="43.19575400641551" lon="12.13838287192969"><ele>350.6</ele><time>2026-04-21T13:59:13Z</time></trkpt><trkpt lat="43.19563698953538" lon="12.138346736639386"><ele>350.8</ele><time>2026-04-21T13:59:15Z</time></trkpt><trkpt lat="43.19555367966771" lon="12.138245029256453"><ele>351.0</ele><time>2026-04-21T13:59:16Z</time></trkpt><trkpt lat="43.195446527724414" lon="12.1381607567427"><ele>348.0</ele><time>2026-04-21T13:59:17Z</time></trkpt><trkpt lat="43.19536747157761" lon="12.138045841533781"><ele>345.0</ele><time>2026-04-21T13:59:18Z</time></trkpt><trkpt lat="43.1952940156973" lon="12.13794211560933"><ele>342.0</ele><time>2026-04-21T13:59:19Z</time></trkpt><trkpt lat="43.195255453824004" lon="12.13784450126111"><ele>339.0</ele><time>2026-04-21T13:59:20Z</time></trkpt><trkpt lat="43.195249078644885" lon="12.137756096778965"><ele>336.0</ele><time>2026-04-21T13:59:20.999Z</time></trkpt><trkpt lat="43.19525824633221" lon="12.137645644092045"><ele>333.0</ele><time>2026-04-21T13:59:21.999Z</time></trkpt><trkpt lat="43.19526912954496" lon="12.137541405699578"><ele>333.0</ele><time>2026-04-21T13:59:22.999Z</time></trkpt><trkpt lat="43.19527150441258" lon="12.137433394002516"><ele>333.0</ele><time>2026-04-21T13:59:23.999Z</time></trkpt><trkpt lat="43.19523322142511" lon="12.137342257436925"><ele>333.0</ele><time>2026-04-21T13:59:24.999Z</time></trkpt><trkpt lat="43.195161396690686" lon="12.137292405417044"><ele>333.0</ele><time>2026-04-21T13:59:25.999Z</time></trkpt><trkpt lat="43.19508344486562" lon="12.137300912148698"><ele>333.0</ele><time>2026-04-21T13:59:26.999Z</time></trkpt><trkpt lat="43.195009262913906" lon="12.137296412831272"><ele>333.0</ele><time>2026-04-21T13:59:27.999Z</time></trkpt><trkpt lat="43.19493049785104" lon="12.13725903145153"><ele>331.3333333333333</ele><time>2026-04-21T13:59:28.999Z</time></trkpt><trkpt lat="43.19485005720547" lon="12.137232232380567"><ele>329.6666666666667</ele><time>2026-04-21T13:59:30Z</time></trkpt><trkpt lat="43.19476809342525" lon="12.137203905172727"><ele>328.0</ele><time>2026-04-21T13:59:31Z</time></trkpt><trkpt lat="43.19468764572277" lon="12.137197612814466"><ele>326.33333333333337</ele><time>2026-04-21T13:59:32Z</time></trkpt><trkpt lat="43.19460888722564" lon="12.137157957348055"><ele>324.6666666666667</ele><time>2026-04-21T13:59:33Z</time></trkpt><trkpt lat="43.194522302706545" lon="12.13712979639918"><ele>323.0</ele><time>2026-04-21T13:59:34Z</time></trkpt><trkpt lat="43.194428982973264" lon="12.137087367012496"><ele>321.59999999999997</ele><time>2026-04-21T13:59:35Z</time></trkpt><trkpt lat="43.19432695821444" lon="12.137032686215344"><ele>320.2</ele><time>2026-04-21T13:59:36Z</time></trkpt><trkpt lat="43.19424285042161" lon="12.136943100870347"><ele>318.8</ele><time>2026-04-21T13:59:37Z</time></trkpt><trkpt lat="43.194160148799185" lon="12.136856280698474"><ele>317.4</ele><time>2026-04-21T13:59:38Z</time></trkpt><trkpt lat="43.19408068697703" lon="12.136769208284633"><ele>316.0</ele><time>2026-04-21T13:59:39Z</time></trkpt><trkpt lat="43.1940012426265" lon="12.13668335835914"><ele>314.2</ele><time>2026-04-21T13:59:40Z</time></trkpt><trkpt lat="43.1939200517396" lon="12.136609255859742"><ele>312.40000000000003</ele><time>2026-04-21T13:59:41Z</time></trkpt><trkpt lat="43.19384337525889" lon="12.136529465815066"><ele>310.6</ele><time>2026-04-21T13:59:42Z</time></trkpt><trkpt lat="43.19376604671808" lon="12.136451761218646"><ele>308.8</ele><time>2026-04-21T13:59:43Z</time></trkpt><trkpt lat="43.19370163544429" lon="12.13635753053003"><ele>307.0</ele><time>2026-04-21T13:59:44Z</time></trkpt><trkpt lat="43.1936250921209" lon="12.13627633213362"><ele>306.4</ele><time>2026-04-21T13:59:45Z</time></trkpt><trkpt lat="43.19353271602493" lon="12.136216221272555"><ele>305.79999999999995</ele><time>2026-04-21T13:59:46Z</time></trkpt><trkpt lat="43.193447484546034" lon="12.136164299127733"><ele>305.2</ele><time>2026-04-21T13:59:47Z</time></trkpt><trkpt lat="43.193344487376905" lon="12.136120775230484"><ele>304.59999999999997</ele><time>2026-04-21T13:59:48Z</time></trkpt><trkpt lat="43.19324429686042" lon="12.136061526213005"><ele>304.0</ele><time>2026-04-21T13:59:49Z</time></trkpt><trkpt lat="43.193147692986756" lon="12.136005654716927"><ele>302.4</ele><time>2026-04-21T13:59:50Z</time></trkpt><trkpt lat="43.19305724296053" lon="12.135926770780317"><ele>300.79999999999995</ele><time>2026-04-21T13:59:51Z</time></trkpt><trkpt lat="43.19296802671998" lon="12.135865701508482"><ele>299.20000000000005</ele><time>2026-04-21T13:59:52Z</time></trkpt><trkpt lat="43.19288030305346" lon="12.1357891509273"><ele>297.6</ele><time>2026-04-21T13:59:53Z</time></trkpt><trkpt lat="43.192801460091715" lon="12.13569574334329"><ele>296.0</ele><time>2026-04-21T13:59:54Z</time></trkpt><trkpt lat="43.19272233804181" lon="12.135590347273387"><ele>294.6</ele><time>2026-04-21T13:59:55Z</time></trkpt><trkpt lat="43.1926474931851" lon="12.135488744401185"><ele>293.20000000000005</ele><time>2026-04-21T13:59:56Z</time></trkpt><trkpt lat="43.19257046348977" lon="12.135383071730041"><ele>291.79999999999995</ele><time>2026-04-21T13:59:57Z</time></trkpt><trkpt lat="43.192492472231464" lon="12.135279742741647"><ele>290.4</ele><time>2026-04-21T13:59:58Z</time></trkpt><trkpt lat="43.1924129366204" lon="12.135177291037987"><ele>289.0</ele><time>2026-04-21T13:59:59Z</time></trkpt><trkpt lat="43.19231579223048" lon="12.135122024120086"><ele>287.4</ele><time>2026-04-21T14:00:00Z</time></trkpt><trkpt lat="43.192224020750594" lon="12.135045748848263"><ele>285.79999999999995</ele><time>2026-04-21T14:00:01Z</time></trkpt><trkpt lat="43.19215253861978" lon="12.13498621208744"><ele>284.20000000000005</ele><time>2026-04-21T14:00:02Z</time></trkpt><trkpt lat="43.19207408593534" lon="12.134915768310956"><ele>282.6</ele><time>2026-04-21T14:00:03Z</time></trkpt><trkpt lat="43.191992844503986" lon="12.134852777707232"><ele>281.0</ele><time>2026-04-21T14:00:04Z</time></trkpt><trkpt lat="43.19192947389106" lon="12.134779316687986"><ele>280.40000000000003</ele><time>2026-04-21T14:00:05Z</time></trkpt><trkpt lat="43.19187798012443" lon="12.134691479641798"><ele>279.8</ele><time>2026-04-21T14:00:06Z</time></trkpt><trkpt lat="43.191811312226314" lon="12.134622383627686"><ele>279.20000000000005</ele><time>2026-04-21T14:00:07Z</time></trkpt><trkpt lat="43.19173719994923" lon="12.134548697007697"><ele>278.6</ele><time>2026-04-21T14:00:08Z</time></trkpt><trkpt lat="43.19164106814071" lon="12.134471903271832"><ele>278.0</ele><time>2026-04-21T14:00:09Z</time></trkpt><trkpt lat="43.19153705205202" lon="12.13440157846469"><ele>276.0</ele><time>2026-04-21T14:00:10Z</time></trkpt><trkpt lat="43.191428033917745" lon="12.134331710032724"><ele>274.0</ele><time>2026-04-21T14:00:11Z</time></trkpt><trkpt lat="43.19132168603416" lon="12.134269951870008"><ele>272.0</ele><time>2026-04-21T14:00:12Z</time></trkpt><trkpt lat="43.19121995488678" lon="12.134213450572704"><ele>270.0</ele><time>2026-04-21T14:00:13Z</time></trkpt><trkpt lat="43.19111668194117" lon="12.13415634242001"><ele>270.0</ele><time>2026-04-21T14:00:14Z</time></trkpt><trkpt lat="43.19101303937425" lon="12.134099028272432"><ele>270.0</ele><time>2026-04-21T14:00:15Z</time></trkpt><trkpt lat="43.19091550598585" lon="12.13404509385323"><ele>270.0</ele><time>2026-04-21T14:00:16Z</time></trkpt><trkpt lat="43.19081571461295" lon="12.133988262888828"><ele>270.0</ele><time>2026-04-21T14:00:17Z</time></trkpt><trkpt lat="43.19072642772826" lon="12.133933597803725"><ele>270.0</ele><time>2026-04-21T14:00:18Z</time></trkpt><trkpt lat="43.190639542270056" lon="12.133875848685447"><ele>268.8</ele><time>2026-04-21T14:00:18.999Z</time></trkpt><trkpt lat="43.1905493700956" lon="12.133811680046556"><ele>267.6</ele><time>2026-04-21T14:00:19.999Z</time></trkpt><trkpt lat="43.190476390829765" lon="12.13373413126046"><ele>266.4</ele><time>2026-04-21T14:00:20.999Z</time></trkpt><trkpt lat="43.19040451078227" lon="12.13365660514671"><ele>265.2</ele><time>2026-04-21T14:00:21.999Z</time></trkpt><trkpt lat="43.1903407864896" lon="12.133587320593366"><ele>264.0</ele><time>2026-04-21T14:00:22.999Z</time></trkpt><trkpt lat="43.190267619561816" lon="12.133508569043995"><ele>264.0</ele><time>2026-04-21T14:00:23.999Z</time></trkpt><trkpt lat="43.19019455890782" lon="12.133429765787268"><ele>264.0</ele><time>2026-04-21T14:00:24.999Z</time></trkpt><trkpt lat="43.19013153330562" lon="12.133361618797574"><ele>264.0</ele><time>2026-04-21T14:00:25.999Z</time></trkpt><trkpt lat="43.19006871001308" lon="12.13329262443648"><ele>264.0</ele><time>2026-04-21T14:00:26.999Z</time></trkpt><trkpt lat="43.18998135241899" lon="12.133196865885052"><ele>264.0</ele><time>2026-04-21T14:00:28.999Z</time></trkpt><trkpt lat="43.189987499370666" lon="12.133096256480801"><ele>264.0</ele><time>2026-04-21T14:00:30.999Z</time></trkpt><trkpt lat="43.189964259144915" lon="12.133012741698584"><ele>263.5</ele><time>2026-04-21T14:00:33.999Z</time></trkpt><trkpt lat="43.190053795080125" lon="12.132922369863516"><ele>263.0</ele><time>2026-04-21T14:00:34.999Z</time></trkpt><trkpt lat="43.190129720763274" lon="12.13282779490342"><ele>262.5</ele><time>2026-04-21T14:00:35.999Z</time></trkpt><trkpt lat="43.19022542458801" lon="12.132708286628564"><ele>262.0</ele><time>2026-04-21T14:00:36.999Z</time></trkpt><trkpt lat="43.19030736034183" lon="12.132589892337863"><ele>262.0</ele><time>2026-04-21T14:00:37.999Z</time></trkpt><trkpt lat="43.190380539236436" lon="12.132481409298798"><ele>262.0</ele><time>2026-04-21T14:00:38.999Z</time></trkpt><trkpt lat="43.190438003791606" lon="12.132382778244132"><ele>262.0</ele><time>2026-04-21T14:00:39.999Z</time></trkpt><trkpt lat="43.19049206048396" lon="12.132287690347193"><ele>262.0</ele><time>2026-04-21T14:00:40.999Z</time></trkpt><trkpt lat="43.190537811666616" lon="12.13219416210432"><ele>262.0</ele><time>2026-04-21T14:00:41.999Z</time></trkpt><trkpt lat="43.19058000261295" lon="12.13210040202337"><ele>261.8333333333333</ele><time>2026-04-21T14:00:42.999Z</time></trkpt><trkpt lat="43.190621002185765" lon="12.132003627163147"><ele>261.66666666666663</ele><time>2026-04-21T14:00:43.999Z</time></trkpt><trkpt lat="43.190652631687506" lon="12.13190143878879"><ele>261.5</ele><time>2026-04-21T14:00:44.999Z</time></trkpt><trkpt lat="43.1906860763922" lon="12.131786718074077"><ele>261.3333333333333</ele><time>2026-04-21T14:00:45.999Z</time></trkpt><trkpt lat="43.19071483088691" lon="12.131667313931159"><ele>261.1666666666667</ele><time>2026-04-21T14:00:46.999Z</time></trkpt><trkpt lat="43.19074458824752" lon="12.131541526209734"><ele>261.0</ele><time>2026-04-21T14:00:47.999Z</time></trkpt><trkpt lat="43.190784567301" lon="12.131410081056371"><ele>260.75</ele><time>2026-04-21T14:00:48.999Z</time></trkpt><trkpt lat="43.190826872075675" lon="12.131275326711433"><ele>260.5</ele><time>2026-04-21T14:00:49.999Z</time></trkpt><trkpt lat="43.19087558064796" lon="12.131141310924644"><ele>260.25</ele><time>2026-04-21T14:00:50.999Z</time></trkpt><trkpt lat="43.19094122733816" lon="12.131009618909937"><ele>260.0</ele><time>2026-04-21T14:00:51.999Z</time></trkpt><trkpt lat="43.1910248902313" lon="12.130882684095313"><ele>260.0</ele><time>2026-04-21T14:00:52.999Z</time></trkpt><trkpt lat="43.19111583710392" lon="12.130757002277935"><ele>260.0</ele><time>2026-04-21T14:00:53.999Z</time></trkpt><trkpt lat="43.19121497780714" lon="12.130630415487174"><ele>260.0</ele><time>2026-04-21T14:00:54.999Z</time></trkpt><trkpt lat="43.19132075973937" lon="12.130507518224045"><ele>260.0</ele><time>2026-04-21T14:00:55.999Z</time></trkpt><trkpt lat="43.19143509762745" lon="12.130386003701881"><ele>260.5</ele><time>2026-04-21T14:00:56.999Z</time></trkpt><trkpt lat="43.19155257956295" lon="12.13026876683749"><ele>261.0</ele><time>2026-04-21T14:00:57.999Z</time></trkpt><trkpt lat="43.19166994700601" lon="12.130147111130318"><ele>261.5</ele><time>2026-04-21T14:00:58.999Z</time></trkpt><trkpt lat="43.19177883860778" lon="12.13000155024859"><ele>262.0</ele><time>2026-04-21T14:00:59.999Z</time></trkpt><trkpt lat="43.19187026202763" lon="12.129827151651133"><ele>262.0</ele><time>2026-04-21T14:01:00.999Z</time></trkpt><trkpt lat="43.191949013181905" lon="12.129635846766137"><ele>262.0</ele><time>2026-04-21T14:01:01.999Z</time></trkpt><trkpt lat="43.192017328486614" lon="12.129433775431401"><ele>262.0</ele><time>2026-04-21T14:01:02.999Z</time></trkpt><trkpt lat="43.19207812400717" lon="12.129224890506356"><ele>261.3333333333333</ele><time>2026-04-21T14:01:03.999Z</time></trkpt><trkpt lat="43.19213979994206" lon="12.129007311171657"><ele>260.6666666666667</ele><time>2026-04-21T14:01:04.999Z</time></trkpt><trkpt lat="43.19220005631074" lon="12.128780878810712"><ele>260.0</ele><time>2026-04-21T14:01:05.999Z</time></trkpt><trkpt lat="43.19225462747361" lon="12.128557842003904"><ele>260.0</ele><time>2026-04-21T14:01:06.999Z</time></trkpt><trkpt lat="43.192308326907984" lon="12.128335310652197"><ele>260.0</ele><time>2026-04-21T14:01:07.999Z</time></trkpt><trkpt lat="43.192357902313894" lon="12.128105748099394"><ele>260.0</ele><time>2026-04-21T14:01:08.999Z</time></trkpt><trkpt lat="43.19240411311236" lon="12.127874025747351"><ele>260.33333333333337</ele><time>2026-04-21T14:01:09.999Z</time></trkpt><trkpt lat="43.19244494729255" lon="12.127645099772568"><ele>260.6666666666667</ele><time>2026-04-21T14:01:10.999Z</time></trkpt><trkpt lat="43.192483073710676" lon="12.127434827087805"><ele>261.0</ele><time>2026-04-21T14:01:11.999Z</time></trkpt><trkpt lat="43.1925189641967" lon="12.127242603596585"><ele>261.0</ele><time>2026-04-21T14:01:12.999Z</time></trkpt><trkpt lat="43.192546870424415" lon="12.127082441098906"><ele>261.0</ele><time>2026-04-21T14:01:13.999Z</time></trkpt><trkpt lat="43.19257221676598" lon="12.126949595875093"><ele>261.0</ele><time>2026-04-21T14:01:14.999Z</time></trkpt><trkpt lat="43.1925911542039" lon="12.1268360370604"><ele>261.0</ele><time>2026-04-21T14:01:15.999Z</time></trkpt><trkpt lat="43.192578604492596" lon="12.126697145853658"><ele>261.0</ele><time>2026-04-21T14:01:17.999Z</time></trkpt><trkpt lat="43.19259193132861" lon="12.126799016989551"><ele>261.0</ele><time>2026-04-21T14:01:21.999Z</time></trkpt><trkpt lat="43.19246615597542" lon="12.12682895804381"><ele>261.0</ele><time>2026-04-21T14:01:22.999Z</time></trkpt><trkpt lat="43.19243974862186" lon="12.126952169087032"><ele>261.0</ele><time>2026-04-21T14:01:24.999Z</time></trkpt><trkpt lat="43.19246070207218" lon="12.127109536183086"><ele>261.0</ele><time>2026-04-21T14:08:29Z</time></trkpt><trkpt lat="43.192501386344176" lon="12.12719332966529"><ele>261.0</ele><time>2026-04-21T14:08:33Z</time></trkpt><trkpt lat="43.19256321430695" lon="12.127085529376533"><ele>261.0</ele><time>2026-04-21T14:08:35.999Z</time></trkpt><trkpt lat="43.192576501290304" lon="12.126988902700248"><ele>261.0</ele><time>2026-04-21T14:08:36.999Z</time></trkpt><trkpt lat="43.1925922037704" lon="12.12686846500106"><ele>261.0</ele><time>2026-04-21T14:08:37.999Z</time></trkpt><trkpt lat="43.19260683149544" lon="12.126751973354166"><ele>261.0</ele><time>2026-04-21T14:08:38.999Z</time></trkpt><trkpt lat="43.19263326875168" lon="12.126624696951625"><ele>261.0</ele><time>2026-04-21T14:08:39.999Z</time></trkpt><trkpt lat="43.19268226612526" lon="12.126522435147637"><ele>261.0</ele><time>2026-04-21T14:08:40.999Z</time></trkpt><trkpt lat="43.19269666841486" lon="12.126344002832335"><ele>261.0</ele><time>2026-04-21T14:08:41.999Z</time></trkpt><trkpt lat="43.192718107507154" lon="12.126196665593234"><ele>261.0</ele><time>2026-04-21T14:08:42.999Z</time></trkpt><trkpt lat="43.1927414080603" lon="12.126045067856941"><ele>261.0</ele><time>2026-04-21T14:08:43.999Z</time></trkpt><trkpt lat="43.1927672153355" lon="12.125888989917673"><ele>261.0</ele><time>2026-04-21T14:08:44.999Z</time></trkpt><trkpt lat="43.19279181322302" lon="12.125730221689926"><ele>261.0</ele><time>2026-04-21T14:08:45.999Z</time></trkpt><trkpt lat="43.19282014389667" lon="12.125571176026948"><ele>261.0</ele><time>2026-04-21T14:08:46.999Z</time></trkpt><trkpt lat="43.192850949013426" lon="12.12540312514102"><ele>261.0</ele><time>2026-04-21T14:08:47.999Z</time></trkpt><trkpt lat="43.19288450949055" lon="12.125232255337687"><ele>261.0</ele><time>2026-04-21T14:08:48.999Z</time></trkpt><trkpt lat="43.19291826360603" lon="12.125052843850895"><ele>261.0</ele><time>2026-04-21T14:08:49.999Z</time></trkpt><trkpt lat="43.19295255242452" lon="12.124871983648998"><ele>261.0</ele><time>2026-04-21T14:08:50.999Z</time></trkpt><trkpt lat="43.19298486963606" lon="12.124687291898601"><ele>261.0</ele><time>2026-04-21T14:08:51.999Z</time></trkpt><trkpt lat="43.19301977198745" lon="12.124501891089006"><ele>261.0</ele><time>2026-04-21T14:08:52.999Z</time></trkpt><trkpt lat="43.19305195851675" lon="12.124309346838412"><ele>261.0</ele><time>2026-04-21T14:08:53.999Z</time></trkpt><trkpt lat="43.19308149911396" lon="12.124115496625093"><ele>261.0</ele><time>2026-04-21T14:08:54.999Z</time></trkpt><trkpt lat="43.1931076008473" lon="12.123914385310162"><ele>261.0</ele><time>2026-04-21T14:08:55.999Z</time></trkpt><trkpt lat="43.1931317090035" lon="12.123705859324545"><ele>261.0</ele><time>2026-04-21T14:08:56.999Z</time></trkpt><trkpt lat="43.19315304621006" lon="12.123491161896053"><ele>261.6666666666667</ele><time>2026-04-21T14:08:57.999Z</time></trkpt><trkpt lat="43.19317890022438" lon="12.123275007734787"><ele>262.33333333333337</ele><time>2026-04-21T14:08:58.999Z</time></trkpt><trkpt lat="43.193203356662295" lon="12.123060002837642"><ele>263.0</ele><time>2026-04-21T14:08:59.999Z</time></trkpt><trkpt lat="43.193225715624" lon="12.122843364511247"><ele>263.0</ele><time>2026-04-21T14:09:00.999Z</time></trkpt><trkpt lat="43.19324781117237" lon="12.122624997786147"><ele>263.0</ele><time>2026-04-21T14:09:01.999Z</time></trkpt><trkpt lat="43.19326131778373" lon="12.122413890081535"><ele>263.0</ele><time>2026-04-21T14:09:02.999Z</time></trkpt><trkpt lat="43.193267257688746" lon="12.122197817745224"><ele>262.75</ele><time>2026-04-21T14:09:03.999Z</time></trkpt><trkpt lat="43.193250870862535" lon="12.121990381025576"><ele>262.5</ele><time>2026-04-21T14:09:04.999Z</time></trkpt><trkpt lat="43.19321424088309" lon="12.121791896288952"><ele>262.25</ele><time>2026-04-21T14:09:05.999Z</time></trkpt><trkpt lat="43.19315584892537" lon="12.121606548760036"><ele>262.0</ele><time>2026-04-21T14:09:06.999Z</time></trkpt><trkpt lat="43.19307881995782" lon="12.121430282548015"><ele>262.0</ele><time>2026-04-21T14:09:07.999Z</time></trkpt><trkpt lat="43.19299673455344" lon="12.121252906685495"><ele>262.0</ele><time>2026-04-21T14:09:08.999Z</time></trkpt><trkpt lat="43.19291233259682" lon="12.121078872317593"><ele>262.0</ele><time>2026-04-21T14:09:09.999Z</time></trkpt><trkpt lat="43.19282888098901" lon="12.12089663571705"><ele>263.3333333333333</ele><time>2026-04-21T14:09:10.999Z</time></trkpt><trkpt lat="43.19274819999563" lon="12.12071373596452"><ele>264.6666666666667</ele><time>2026-04-21T14:09:11.999Z</time></trkpt><trkpt lat="43.19267240698535" lon="12.120530918034568"><ele>266.0</ele><time>2026-04-21T14:09:12.999Z</time></trkpt><trkpt lat="43.19260940861824" lon="12.120351856751975"><ele>266.0</ele><time>2026-04-21T14:09:13.999Z</time></trkpt><trkpt lat="43.19256068147505" lon="12.1201670394089"><ele>266.0</ele><time>2026-04-21T14:09:14.999Z</time></trkpt><trkpt lat="43.192552451108476" lon="12.119978673739123"><ele>266.0</ele><time>2026-04-21T14:09:15.999Z</time></trkpt><trkpt lat="43.19258387693968" lon="12.1197801682701"><ele>266.0</ele><time>2026-04-21T14:09:16.999Z</time></trkpt><trkpt lat="43.19262979765348" lon="12.119563026555834"><ele>265.0</ele><time>2026-04-21T14:09:17.999Z</time></trkpt><trkpt lat="43.19267891894964" lon="12.11933336669382"><ele>264.0</ele><time>2026-04-21T14:09:18.999Z</time></trkpt><trkpt lat="43.192731818607534" lon="12.119087973246117"><ele>263.0</ele><time>2026-04-21T14:09:19.999Z</time></trkpt><trkpt lat="43.192780774851705" lon="12.118838062521746"><ele>262.6666666666667</ele><time>2026-04-21T14:09:20.999Z</time></trkpt><trkpt lat="43.192828680751695" lon="12.118588931993676"><ele>262.3333333333333</ele><time>2026-04-21T14:09:21.999Z</time></trkpt><trkpt lat="43.19287538044536" lon="12.11834716970035"><ele>262.0</ele><time>2026-04-21T14:09:22.999Z</time></trkpt><trkpt lat="43.19292235115805" lon="12.118103350620338"><ele>262.0</ele><time>2026-04-21T14:09:23.999Z</time></trkpt><trkpt lat="43.1929703189949" lon="12.117856257733512"><ele>262.0</ele><time>2026-04-21T14:09:24.999Z</time></trkpt><trkpt lat="43.19301449789979" lon="12.117607905137323"><ele>262.0</ele><time>2026-04-21T14:09:25.999Z</time></trkpt><trkpt lat="43.19305906814033" lon="12.117354888970425"><ele>262.0</ele><time>2026-04-21T14:09:26.999Z</time></trkpt><trkpt lat="43.19309848219868" lon="12.117104083360134"><ele>262.0</ele><time>2026-04-21T14:09:27.999Z</time></trkpt><trkpt lat="43.19313488960799" lon="12.116846238889545"><ele>262.0</ele><time>2026-04-21T14:09:28.999Z</time></trkpt><trkpt lat="43.19317032449008" lon="12.116580421657076"><ele>261.66666666666663</ele><time>2026-04-21T14:09:29.999Z</time></trkpt><trkpt lat="43.19320726641505" lon="12.116317483406153"><ele>261.3333333333333</ele><time>2026-04-21T14:09:30.999Z</time></trkpt><trkpt lat="43.19324460461177" lon="12.11605141603741"><ele>261.0</ele><time>2026-04-21T14:09:31.999Z</time></trkpt><trkpt lat="43.193279541048135" lon="12.115783748186798"><ele>261.3333333333333</ele><time>2026-04-21T14:09:32.999Z</time></trkpt><trkpt lat="43.19331584691559" lon="12.11551708134796"><ele>261.66666666666663</ele><time>2026-04-21T14:09:33.999Z</time></trkpt><trkpt lat="43.193352689027435" lon="12.115255645167938"><ele>262.0</ele><time>2026-04-21T14:09:34.999Z</time></trkpt><trkpt lat="43.19338994224608" lon="12.11498827816748"><ele>262.0</ele><time>2026-04-21T14:09:35.999Z</time></trkpt><trkpt lat="43.19342557838308" lon="12.114718742667051"><ele>262.0</ele><time>2026-04-21T14:09:36.999Z</time></trkpt><trkpt lat="43.19346189641968" lon="12.114449785646373"><ele>262.0</ele><time>2026-04-21T14:09:37.999Z</time></trkpt><trkpt lat="43.19349714065239" lon="12.114175927313225"><ele>261.66666666666663</ele><time>2026-04-21T14:09:38.999Z</time></trkpt><trkpt lat="43.193534863125265" lon="12.113897281754722"><ele>261.3333333333333</ele><time>2026-04-21T14:09:39.999Z</time></trkpt><trkpt lat="43.193571478456036" lon="12.113616648336693"><ele>261.0</ele><time>2026-04-21T14:09:40.999Z</time></trkpt><trkpt lat="43.19360904600125" lon="12.113333917749536"><ele>261.0</ele><time>2026-04-21T14:09:41.999Z</time></trkpt><trkpt lat="43.19364927142017" lon="12.113046611033832"><ele>261.0</ele><time>2026-04-21T14:09:42.999Z</time></trkpt><trkpt lat="43.19368950894897" lon="12.112753778956169"><ele>261.0</ele><time>2026-04-21T14:09:43.999Z</time></trkpt><trkpt lat="43.1937275168947" lon="12.11246254891671"><ele>261.0</ele><time>2026-04-21T14:09:44.999Z</time></trkpt><trkpt lat="43.19376893304055" lon="12.112168789667818"><ele>261.0</ele><time>2026-04-21T14:09:45.999Z</time></trkpt><trkpt lat="43.19380861554819" lon="12.111881419050986"><ele>261.0</ele><time>2026-04-21T14:09:46.999Z</time></trkpt><trkpt lat="43.19384809092557" lon="12.111605448491856"><ele>260.6666666666667</ele><time>2026-04-21T14:09:47.999Z</time></trkpt><trkpt lat="43.19389460343547" lon="12.111351832537567"><ele>260.33333333333337</ele><time>2026-04-21T14:09:48.999Z</time></trkpt><trkpt lat="43.19395598029241" lon="12.111113343647867"><ele>260.0</ele><time>2026-04-21T14:09:49.999Z</time></trkpt><trkpt lat="43.194043164033054" lon="12.110896385322814"><ele>260.33333333333337</ele><time>2026-04-21T14:09:50.999Z</time></trkpt><trkpt lat="43.194150102862984" lon="12.110693501850538"><ele>260.6666666666667</ele><time>2026-04-21T14:09:51.999Z</time></trkpt><trkpt lat="43.19427558898206" lon="12.110509223898742"><ele>261.0</ele><time>2026-04-21T14:09:52.999Z</time></trkpt><trkpt lat="43.194416448811936" lon="12.11035415122162"><ele>261.0</ele><time>2026-04-21T14:09:53.999Z</time></trkpt><trkpt lat="43.194569640801895" lon="12.110227237090461"><ele>261.0</ele><time>2026-04-21T14:09:54.999Z</time></trkpt><trkpt lat="43.1947356031535" lon="12.110112042584822"><ele>261.0</ele><time>2026-04-21T14:09:55.999Z</time></trkpt><trkpt lat="43.19490072187092" lon="12.109994531994698"><ele>260.6666666666667</ele><time>2026-04-21T14:09:56.999Z</time></trkpt><trkpt lat="43.195066428933025" lon="12.109869758928484"><ele>260.33333333333337</ele><time>2026-04-21T14:09:58Z</time></trkpt><trkpt lat="43.19523458859916" lon="12.109744215902676"><ele>260.0</ele><time>2026-04-21T14:09:59Z</time></trkpt><trkpt lat="43.19540964114949" lon="12.10961489654876"><ele>260.0</ele><time>2026-04-21T14:10:00Z</time></trkpt><trkpt lat="43.195582320546656" lon="12.109478464176599"><ele>260.0</ele><time>2026-04-21T14:10:01Z</time></trkpt><trkpt lat="43.19576005270833" lon="12.109337366213722"><ele>260.0</ele><time>2026-04-21T14:10:02Z</time></trkpt><trkpt lat="43.195937402693126" lon="12.10922789708078"><ele>260.6666666666667</ele><time>2026-04-21T14:10:03Z</time></trkpt><trkpt lat="43.19611995323445" lon="12.109090981483144"><ele>261.3333333333333</ele><time>2026-04-21T14:10:04Z</time></trkpt><trkpt lat="43.196299863078316" lon="12.108956682602459"><ele>262.0</ele><time>2026-04-21T14:10:05Z</time></trkpt><trkpt lat="43.1964734768689" lon="12.108804319580752"><ele>262.0</ele><time>2026-04-21T14:10:06Z</time></trkpt><trkpt lat="43.19665531281765" lon="12.108675209356274"><ele>262.0</ele><time>2026-04-21T14:10:07Z</time></trkpt><trkpt lat="43.19683331143251" lon="12.108546239207815"><ele>262.0</ele><time>2026-04-21T14:10:08Z</time></trkpt><trkpt lat="43.19700503731363" lon="12.108418976051228"><ele>262.0</ele><time>2026-04-21T14:10:09Z</time></trkpt><trkpt lat="43.19716735119953" lon="12.108294535364138"><ele>262.0</ele><time>2026-04-21T14:10:10Z</time></trkpt><trkpt lat="43.19732737963731" lon="12.108174810369913"><ele>262.0</ele><time>2026-04-21T14:10:11Z</time></trkpt><trkpt lat="43.197491963856024" lon="12.108058261213923"><ele>262.0</ele><time>2026-04-21T14:10:12Z</time></trkpt><trkpt lat="43.1976458305394" lon="12.107941955905966"><ele>262.0</ele><time>2026-04-21T14:10:13Z</time></trkpt><trkpt lat="43.19778844102906" lon="12.107831253805898"><ele>262.0</ele><time>2026-04-21T14:10:14Z</time></trkpt><trkpt lat="43.19791095623077" lon="12.10773423329956"><ele>262.0</ele><time>2026-04-21T14:10:15Z</time></trkpt><trkpt lat="43.19803134738009" lon="12.107664173506784"><ele>262.0</ele><time>2026-04-21T14:10:16Z</time></trkpt><trkpt lat="43.19815185230067" lon="12.107561768805379"><ele>262.0</ele><time>2026-04-21T14:10:17Z</time></trkpt><trkpt lat="43.198282032952505" lon="12.107435050485467"><ele>262.0</ele><time>2026-04-21T14:10:18Z</time></trkpt><trkpt lat="43.198410975195564" lon="12.107274195297526"><ele>261.66666666666663</ele><time>2026-04-21T14:10:19Z</time></trkpt><trkpt lat="43.19852582743135" lon="12.107062717566851"><ele>261.3333333333333</ele><time>2026-04-21T14:10:20Z</time></trkpt><trkpt lat="43.19864483691664" lon="12.106861729839792"><ele>261.0</ele><time>2026-04-21T14:10:21Z</time></trkpt><trkpt lat="43.19875909334162" lon="12.106662997688652"><ele>261.3333333333333</ele><time>2026-04-21T14:10:22Z</time></trkpt><trkpt lat="43.198869128395074" lon="12.106467056238483"><ele>261.66666666666663</ele><time>2026-04-21T14:10:23Z</time></trkpt><trkpt lat="43.19898251306633" lon="12.106269257830322"><ele>262.0</ele><time>2026-04-21T14:10:24Z</time></trkpt><trkpt lat="43.19909985925233" lon="12.10607184360983"><ele>262.3333333333333</ele><time>2026-04-21T14:10:25Z</time></trkpt><trkpt lat="43.19920891788402" lon="12.105872656842939"><ele>262.6666666666667</ele><time>2026-04-21T14:10:26Z</time></trkpt><trkpt lat="43.19931985367964" lon="12.105672111916554"><ele>263.0</ele><time>2026-04-21T14:10:27Z</time></trkpt><trkpt lat="43.19942815875944" lon="12.105469635698942"><ele>263.0</ele><time>2026-04-21T14:10:28Z</time></trkpt><trkpt lat="43.19953625358363" lon="12.105258580952553"><ele>263.0</ele><time>2026-04-21T14:10:29Z</time></trkpt><trkpt lat="43.199632850312064" lon="12.105038530176465"><ele>263.0</ele><time>2026-04-21T14:10:30Z</time></trkpt><trkpt lat="43.19971540868148" lon="12.104805217980099"><ele>262.33333333333337</ele><time>2026-04-21T14:10:31Z</time></trkpt><trkpt lat="43.19981002593602" lon="12.104578738923196"><ele>261.6666666666667</ele><time>2026-04-21T14:10:32Z</time></trkpt><trkpt lat="43.19989215958208" lon="12.104339955229753"><ele>261.0</ele><time>2026-04-21T14:10:33Z</time></trkpt><trkpt lat="43.199959891016064" lon="12.104092070938133"><ele>261.0</ele><time>2026-04-21T14:10:34Z</time></trkpt><trkpt lat="43.20003964512197" lon="12.10386293370313"><ele>261.0</ele><time>2026-04-21T14:10:35Z</time></trkpt><trkpt lat="43.20010004416602" lon="12.103655690985706"><ele>261.0</ele><time>2026-04-21T14:10:36Z</time></trkpt><trkpt lat="43.20014246701413" lon="12.10345438328239"><ele>261.0</ele><time>2026-04-21T14:10:37Z</time></trkpt><trkpt lat="43.200155578185516" lon="12.103258608906096"><ele>261.0</ele><time>2026-04-21T14:10:38Z</time></trkpt><trkpt lat="43.20013310664106" lon="12.10307231072868"><ele>261.0</ele><time>2026-04-21T14:10:39Z</time></trkpt><trkpt lat="43.2000936775829" lon="12.102883970195265"><ele>261.0</ele><time>2026-04-21T14:10:40Z</time></trkpt><trkpt lat="43.20005373344346" lon="12.102685006441252"><ele>261.6666666666667</ele><time>2026-04-21T14:10:41Z</time></trkpt><trkpt lat="43.20003768038786" lon="12.102470961317637"><ele>262.33333333333337</ele><time>2026-04-21T14:10:42Z</time></trkpt><trkpt lat="43.20007942467117" lon="12.102267444655748"><ele>263.0</ele><time>2026-04-21T14:10:43Z</time></trkpt><trkpt lat="43.20013953968634" lon="12.102068054703432"><ele>263.33333333333337</ele><time>2026-04-21T14:10:44Z</time></trkpt><trkpt lat="43.200201361117074" lon="12.10185563796186"><ele>263.6666666666667</ele><time>2026-04-21T14:10:45Z</time></trkpt><trkpt lat="43.20027104852651" lon="12.101654159121619"><ele>264.0</ele><time>2026-04-21T14:10:46Z</time></trkpt><trkpt lat="43.20031274253073" lon="12.101444826616756"><ele>264.0</ele><time>2026-04-21T14:10:47Z</time></trkpt><trkpt lat="43.20031800957252" lon="12.10123346248685"><ele>264.0</ele><time>2026-04-21T14:10:48Z</time></trkpt><trkpt lat="43.20028419383933" lon="12.101017960973035"><ele>264.0</ele><time>2026-04-21T14:10:49Z</time></trkpt><trkpt lat="43.20025675925132" lon="12.100787039222112"><ele>264.0</ele><time>2026-04-21T14:10:50Z</time></trkpt><trkpt lat="43.200241724521476" lon="12.100556438758643"><ele>264.0</ele><time>2026-04-21T14:10:51Z</time></trkpt><trkpt lat="43.20023734630191" lon="12.100303298148802"><ele>264.0</ele><time>2026-04-21T14:10:51.999Z</time></trkpt><trkpt lat="43.20022928292344" lon="12.100049209741547"><ele>263.3333333333333</ele><time>2026-04-21T14:10:52.999Z</time></trkpt><trkpt lat="43.200240994319095" lon="12.099805252455496"><ele>262.66666666666663</ele><time>2026-04-21T14:10:53.999Z</time></trkpt><trkpt lat="43.200299266957984" lon="12.099593495603512"><ele>262.0</ele><time>2026-04-21T14:10:54.999Z</time></trkpt><trkpt lat="43.200366192755055" lon="12.099383668679549"><ele>262.0</ele><time>2026-04-21T14:10:55.999Z</time></trkpt><trkpt lat="43.200438578966796" lon="12.099174020763844"><ele>262.0</ele><time>2026-04-21T14:10:56.999Z</time></trkpt><trkpt lat="43.20051823808303" lon="12.099005085420023"><ele>262.0</ele><time>2026-04-21T14:10:57.999Z</time></trkpt><trkpt lat="43.200565806884796" lon="12.098808916151189"><ele>261.66666666666663</ele><time>2026-04-21T14:10:58.999Z</time></trkpt><trkpt lat="43.200589347530396" lon="12.09860357232107"><ele>261.3333333333333</ele><time>2026-04-21T14:10:59.999Z</time></trkpt><trkpt lat="43.20058120781224" lon="12.098381317302533"><ele>261.0</ele><time>2026-04-21T14:11:00.999Z</time></trkpt><trkpt lat="43.20058036865849" lon="12.098156360386119"><ele>260.6666666666667</ele><time>2026-04-21T14:11:01.999Z</time></trkpt><trkpt lat="43.20055555368137" lon="12.09791954098104"><ele>260.33333333333337</ele><time>2026-04-21T14:11:02.999Z</time></trkpt><trkpt lat="43.200576850306476" lon="12.097686859426814"><ele>260.0</ele><time>2026-04-21T14:11:03.999Z</time></trkpt><trkpt lat="43.200619095994526" lon="12.097447042966277"><ele>260.6666666666667</ele><time>2026-04-21T14:11:04.999Z</time></trkpt><trkpt lat="43.20068284452764" lon="12.097217637757412"><ele>261.3333333333333</ele><time>2026-04-21T14:11:05.999Z</time></trkpt><trkpt lat="43.20075975921642" lon="12.096978343915659"><ele>262.0</ele><time>2026-04-21T14:11:06.999Z</time></trkpt><trkpt lat="43.20083902582126" lon="12.096733153889787"><ele>262.0</ele><time>2026-04-21T14:11:07.999Z</time></trkpt><trkpt lat="43.200918601506196" lon="12.096489654045753"><ele>262.0</ele><time>2026-04-21T14:11:08.999Z</time></trkpt><trkpt lat="43.20100442639051" lon="12.096244514142164"><ele>262.0</ele><time>2026-04-21T14:11:09.999Z</time></trkpt><trkpt lat="43.20109096525446" lon="12.096001363579184"><ele>262.0</ele><time>2026-04-21T14:11:10.999Z</time></trkpt><trkpt lat="43.20116903167167" lon="12.095755251669678"><ele>262.0</ele><time>2026-04-21T14:11:11.999Z</time></trkpt><trkpt lat="43.20125021290401" lon="12.095519339531497"><ele>262.0</ele><time>2026-04-21T14:11:12.999Z</time></trkpt><trkpt lat="43.20127366774305" lon="12.095257249806348"><ele>262.66666666666663</ele><time>2026-04-21T14:11:13.999Z</time></trkpt><trkpt lat="43.201295468751" lon="12.095006014938468"><ele>263.3333333333333</ele><time>2026-04-21T14:11:14.999Z</time></trkpt><trkpt lat="43.20131161224615" lon="12.09475830046751"><ele>264.0</ele><time>2026-04-21T14:11:15.999Z</time></trkpt><trkpt lat="43.20133722072306" lon="12.094529969841805"><ele>264.3333333333333</ele><time>2026-04-21T14:11:16.999Z</time></trkpt><trkpt lat="43.20139410235212" lon="12.094294883109818"><ele>264.66666666666663</ele><time>2026-04-21T14:11:17.999Z</time></trkpt><trkpt lat="43.20147316173649" lon="12.094076431424146"><ele>265.0</ele><time>2026-04-21T14:11:18.999Z</time></trkpt><trkpt lat="43.20156956997667" lon="12.093860977629967"><ele>265.66666666666663</ele><time>2026-04-21T14:11:19.999Z</time></trkpt><trkpt lat="43.20166663661991" lon="12.09364523142787"><ele>266.3333333333333</ele><time>2026-04-21T14:11:20.999Z</time></trkpt><trkpt lat="43.201754334677794" lon="12.093451595884494"><ele>267.0</ele><time>2026-04-21T14:11:21.999Z</time></trkpt><trkpt lat="43.20184140090821" lon="12.093268841245578"><ele>266.0</ele><time>2026-04-21T14:11:22.999Z</time></trkpt><trkpt lat="43.201926465056324" lon="12.093077581130627"><ele>265.0</ele><time>2026-04-21T14:11:23.999Z</time></trkpt><trkpt lat="43.20201634584983" lon="12.092877242391676"><ele>264.0</ele><time>2026-04-21T14:11:24.999Z</time></trkpt><trkpt lat="43.202100909478645" lon="12.09266302838844"><ele>264.0</ele><time>2026-04-21T14:11:25.999Z</time></trkpt><trkpt lat="43.20217224006593" lon="12.092434290225572"><ele>264.0</ele><time>2026-04-21T14:11:26.999Z</time></trkpt><trkpt lat="43.20223403604356" lon="12.092187901024662"><ele>264.0</ele><time>2026-04-21T14:11:27.999Z</time></trkpt><trkpt lat="43.202285104167544" lon="12.091932997783879"><ele>264.0</ele><time>2026-04-21T14:11:28.999Z</time></trkpt><trkpt lat="43.202337622245885" lon="12.091676797243041"><ele>264.0</ele><time>2026-04-21T14:11:29.999Z</time></trkpt><trkpt lat="43.20239180268162" lon="12.091424097780616"><ele>264.0</ele><time>2026-04-21T14:11:30.999Z</time></trkpt><trkpt lat="43.202448847619934" lon="12.091181321342454"><ele>263.3333333333333</ele><time>2026-04-21T14:11:31.999Z</time></trkpt><trkpt lat="43.20252083618675" lon="12.090949009966094"><ele>262.66666666666663</ele><time>2026-04-21T14:11:32.999Z</time></trkpt><trkpt lat="43.20261325952651" lon="12.090727596358136"><ele>262.0</ele><time>2026-04-21T14:11:33.999Z</time></trkpt><trkpt lat="43.20271722994731" lon="12.090523427992117"><ele>262.0</ele><time>2026-04-21T14:11:34.999Z</time></trkpt><trkpt lat="43.20281549745668" lon="12.09034098135169"><ele>262.0</ele><time>2026-04-21T14:11:35.999Z</time></trkpt><trkpt lat="43.20290693075509" lon="12.090168197419418"><ele>262.0</ele><time>2026-04-21T14:11:36.999Z</time></trkpt><trkpt lat="43.2029867536644" lon="12.089995471624254"><ele>262.0</ele><time>2026-04-21T14:11:37.999Z</time></trkpt><trkpt lat="43.20305636299197" lon="12.089809552112348"><ele>262.0</ele><time>2026-04-21T14:11:38.999Z</time></trkpt><trkpt lat="43.20311149484931" lon="12.089608202685477"><ele>262.0</ele><time>2026-04-21T14:11:39.999Z</time></trkpt><trkpt lat="43.20315331179641" lon="12.089395351076046"><ele>262.0</ele><time>2026-04-21T14:11:40.999Z</time></trkpt><trkpt lat="43.20318738159359" lon="12.08916828280177"><ele>262.0</ele><time>2026-04-21T14:11:41.999Z</time></trkpt><trkpt lat="43.203211041394646" lon="12.0889433380413"><ele>262.0</ele><time>2026-04-21T14:11:42.999Z</time></trkpt><trkpt lat="43.20324677818868" lon="12.088738112309427"><ele>262.66666666666663</ele><time>2026-04-21T14:11:43.999Z</time></trkpt><trkpt lat="43.2032558617386" lon="12.088518323669506"><ele>263.3333333333333</ele><time>2026-04-21T14:11:44.999Z</time></trkpt><trkpt lat="43.20328054061324" lon="12.088308950369212"><ele>264.0</ele><time>2026-04-21T14:11:45.999Z</time></trkpt><trkpt lat="43.203320924744226" lon="12.088101133117723"><ele>264.0</ele><time>2026-04-21T14:11:46.999Z</time></trkpt><trkpt lat="43.203347915167086" lon="12.087869263380865"><ele>264.0</ele><time>2026-04-21T14:11:47.999Z</time></trkpt><trkpt lat="43.20337941069487" lon="12.087598691230546"><ele>264.0</ele><time>2026-04-21T14:11:48.999Z</time></trkpt><trkpt lat="43.203414138900776" lon="12.087300347539104"><ele>264.0</ele><time>2026-04-21T14:11:49.999Z</time></trkpt><trkpt lat="43.20344734668786" lon="12.08698908792026"><ele>264.0</ele><time>2026-04-21T14:11:50.999Z</time></trkpt><trkpt lat="43.20347762807246" lon="12.086697072356912"><ele>264.0</ele><time>2026-04-21T14:11:51.999Z</time></trkpt><trkpt lat="43.20350528958069" lon="12.086430321342855"><ele>264.0</ele><time>2026-04-21T14:11:52.999Z</time></trkpt><trkpt lat="43.20352089101962" lon="12.086169343342547"><ele>264.0</ele><time>2026-04-21T14:11:53.999Z</time></trkpt><trkpt lat="43.20355288382785" lon="12.08591946203285"><ele>264.0</ele><time>2026-04-21T14:11:54.999Z</time></trkpt><trkpt lat="43.20360642715487" lon="12.08567205122204"><ele>264.0</ele><time>2026-04-21T14:11:55.999Z</time></trkpt><trkpt lat="43.20365796434591" lon="12.085426413931028"><ele>264.0</ele><time>2026-04-21T14:11:56.999Z</time></trkpt><trkpt lat="43.20371334221443" lon="12.085173435722167"><ele>264.0</ele><time>2026-04-21T14:11:57.999Z</time></trkpt><trkpt lat="43.20377108676759" lon="12.084920217371034"><ele>264.6666666666667</ele><time>2026-04-21T14:11:58.999Z</time></trkpt><trkpt lat="43.20382839617143" lon="12.084665792173258"><ele>265.33333333333337</ele><time>2026-04-21T14:11:59.999Z</time></trkpt><trkpt lat="43.20388278061356" lon="12.084424352596063"><ele>266.0</ele><time>2026-04-21T14:12:00.999Z</time></trkpt><trkpt lat="43.203932826088725" lon="12.084194346943947"><ele>266.0</ele><time>2026-04-21T14:12:01.999Z</time></trkpt><trkpt lat="43.20397338553121" lon="12.083972267848992"><ele>266.0</ele><time>2026-04-21T14:12:02.999Z</time></trkpt><trkpt lat="43.20398326494833" lon="12.083765274980047"><ele>266.0</ele><time>2026-04-21T14:12:04Z</time></trkpt><trkpt lat="43.20398871827229" lon="12.083567960759314"><ele>266.0</ele><time>2026-04-21T14:12:05Z</time></trkpt><trkpt lat="43.2039616270011" lon="12.083376948877765"><ele>266.0</ele><time>2026-04-21T14:12:06Z</time></trkpt><trkpt lat="43.2039047676789" lon="12.083194063519247"><ele>266.0</ele><time>2026-04-21T14:12:07Z</time></trkpt><trkpt lat="43.20382409120689" lon="12.083018976373177"><ele>266.0</ele><time>2026-04-21T14:12:08Z</time></trkpt><trkpt lat="43.203726553724344" lon="12.082847315091367"><ele>266.6666666666667</ele><time>2026-04-21T14:12:09Z</time></trkpt><trkpt lat="43.20361809437572" lon="12.082676903411029"><ele>267.3333333333333</ele><time>2026-04-21T14:12:10Z</time></trkpt><trkpt lat="43.20353033297772" lon="12.082487823450853"><ele>268.0</ele><time>2026-04-21T14:12:11Z</time></trkpt><trkpt lat="43.20343930466127" lon="12.082324474338748"><ele>268.3333333333333</ele><time>2026-04-21T14:12:12Z</time></trkpt><trkpt lat="43.203343511580854" lon="12.082176919685745"><ele>268.6666666666667</ele><time>2026-04-21T14:12:13Z</time></trkpt><trkpt lat="43.203279331925344" lon="12.081996086206907"><ele>269.0</ele><time>2026-04-21T14:12:14Z</time></trkpt><trkpt lat="43.2032214655789" lon="12.081788304527866"><ele>266.6666666666667</ele><time>2026-04-21T14:12:15Z</time></trkpt><trkpt lat="43.20316154001719" lon="12.08156699243102"><ele>264.3333333333333</ele><time>2026-04-21T14:12:16Z</time></trkpt><trkpt lat="43.20311472792678" lon="12.081323856849123"><ele>262.0</ele><time>2026-04-21T14:12:17Z</time></trkpt><trkpt lat="43.2030441366485" lon="12.081101006367993"><ele>262.0</ele><time>2026-04-21T14:12:18Z</time></trkpt><trkpt lat="43.20297287275264" lon="12.080873813085338"><ele>262.0</ele><time>2026-04-21T14:12:19Z</time></trkpt><trkpt lat="43.20290972779236" lon="12.080643193444478"><ele>262.0</ele><time>2026-04-21T14:12:20Z</time></trkpt><trkpt lat="43.20285768351532" lon="12.080405641173272"><ele>262.3333333333333</ele><time>2026-04-21T14:12:21Z</time></trkpt><trkpt lat="43.20280505186796" lon="12.080164692334353"><ele>262.6666666666667</ele><time>2026-04-21T14:12:22Z</time></trkpt><trkpt lat="43.20279037859389" lon="12.0799348348242"><ele>263.0</ele><time>2026-04-21T14:12:23Z</time></trkpt><trkpt lat="43.202775775521026" lon="12.079681972960646"><ele>263.33333333333337</ele><time>2026-04-21T14:12:24Z</time></trkpt><trkpt lat="43.202762928831035" lon="12.079450328735648"><ele>263.6666666666667</ele><time>2026-04-21T14:12:25Z</time></trkpt><trkpt lat="43.20275503097009" lon="12.079217506120605"><ele>264.0</ele><time>2026-04-21T14:12:26Z</time></trkpt><trkpt lat="43.20274944214291" lon="12.078991478289371"><ele>264.3333333333333</ele><time>2026-04-21T14:12:27Z</time></trkpt><trkpt lat="43.20274181125976" lon="12.078769848339174"><ele>264.66666666666663</ele><time>2026-04-21T14:12:28Z</time></trkpt><trkpt lat="43.202731381851514" lon="12.078543368358508"><ele>265.0</ele><time>2026-04-21T14:12:29Z</time></trkpt><trkpt lat="43.20272135028945" lon="12.07832324898048"><ele>265.66666666666663</ele><time>2026-04-21T14:12:30Z</time></trkpt><trkpt lat="43.20270872561472" lon="12.078098935740314"><ele>266.3333333333333</ele><time>2026-04-21T14:12:31Z</time></trkpt><trkpt lat="43.20269802024442" lon="12.0778759071534"><ele>267.0</ele><time>2026-04-21T14:12:32Z</time></trkpt><trkpt lat="43.20268409622655" lon="12.07765925666715"><ele>267.0</ele><time>2026-04-21T14:12:33Z</time></trkpt><trkpt lat="43.20267136302516" lon="12.07746461190994"><ele>267.0</ele><time>2026-04-21T14:12:34Z</time></trkpt><trkpt lat="43.202661030285796" lon="12.077283285392125"><ele>267.0</ele><time>2026-04-21T14:12:35Z</time></trkpt><trkpt lat="43.202651942291745" lon="12.077110316420953"><ele>267.0</ele><time>2026-04-21T14:12:36Z</time></trkpt><trkpt lat="43.20265117824968" lon="12.076928264814441"><ele>267.0</ele><time>2026-04-21T14:12:37Z</time></trkpt><trkpt lat="43.20266168693968" lon="12.076730702554222"><ele>267.0</ele><time>2026-04-21T14:12:38Z</time></trkpt><trkpt lat="43.20271331838955" lon="12.076527731264612"><ele>267.0</ele><time>2026-04-21T14:12:39Z</time></trkpt><trkpt lat="43.202755756060924" lon="12.076308469933595"><ele>266.3333333333333</ele><time>2026-04-21T14:12:40Z</time></trkpt><trkpt lat="43.20278598511218" lon="12.076068347818678"><ele>265.66666666666663</ele><time>2026-04-21T14:12:41Z</time></trkpt><trkpt lat="43.20282984504849" lon="12.075836085807452"><ele>265.0</ele><time>2026-04-21T14:12:42Z</time></trkpt><trkpt lat="43.20287113280621" lon="12.07561005498095"><ele>264.3333333333333</ele><time>2026-04-21T14:12:43Z</time></trkpt><trkpt lat="43.20291110367563" lon="12.075381957311244"><ele>263.6666666666667</ele><time>2026-04-21T14:12:44Z</time></trkpt><trkpt lat="43.202949553956664" lon="12.075147914087733"><ele>263.0</ele><time>2026-04-21T14:12:45Z</time></trkpt><trkpt lat="43.20299580119674" lon="12.074909633087778"><ele>263.0</ele><time>2026-04-21T14:12:46Z</time></trkpt><trkpt lat="43.20303576678587" lon="12.074676557350553"><ele>263.0</ele><time>2026-04-21T14:12:47Z</time></trkpt><trkpt lat="43.203085637507144" lon="12.074432000276513"><ele>263.0</ele><time>2026-04-21T14:12:48Z</time></trkpt><trkpt lat="43.20312302762892" lon="12.074190794942037"><ele>263.0</ele><time>2026-04-21T14:12:49Z</time></trkpt><trkpt lat="43.20316120801618" lon="12.073951449250304"><ele>263.0</ele><time>2026-04-21T14:12:50Z</time></trkpt><trkpt lat="43.20317732665718" lon="12.073705730885127"><ele>263.0</ele><time>2026-04-21T14:12:51Z</time></trkpt><trkpt lat="43.203164466500944" lon="12.07345870426673"><ele>263.0</ele><time>2026-04-21T14:12:52Z</time></trkpt><trkpt lat="43.203123931689724" lon="12.073215465228698"><ele>263.0</ele><time>2026-04-21T14:12:53Z</time></trkpt><trkpt lat="43.20306380962197" lon="12.072977667825464"><ele>263.0</ele><time>2026-04-21T14:12:54Z</time></trkpt><trkpt lat="43.202994014100184" lon="12.072758368221685"><ele>263.0</ele><time>2026-04-21T14:12:55Z</time></trkpt><trkpt lat="43.202927675340895" lon="12.072528490568018"><ele>263.0</ele><time>2026-04-21T14:12:56Z</time></trkpt><trkpt lat="43.20291877574718" lon="12.072301530333824"><ele>263.0</ele><time>2026-04-21T14:12:57Z</time></trkpt><trkpt lat="43.202920965150064" lon="12.072076160174097"><ele>263.0</ele><time>2026-04-21T14:12:58Z</time></trkpt><trkpt lat="43.20291272197047" lon="12.071838503482532"><ele>263.0</ele><time>2026-04-21T14:12:58.999Z</time></trkpt><trkpt lat="43.20292904671791" lon="12.071598075528089"><ele>263.0</ele><time>2026-04-21T14:12:59.999Z</time></trkpt><trkpt lat="43.20293391359808" lon="12.071356812808265"><ele>263.0</ele><time>2026-04-21T14:13:00.999Z</time></trkpt><trkpt lat="43.20292019457193" lon="12.07112600642138"><ele>263.0</ele><time>2026-04-21T14:13:01.999Z</time></trkpt><trkpt lat="43.20287497666006" lon="12.070917026947773"><ele>263.0</ele><time>2026-04-21T14:13:02.999Z</time></trkpt><trkpt lat="43.20279893136423" lon="12.070723127722133"><ele>263.33333333333337</ele><time>2026-04-21T14:13:03.999Z</time></trkpt><trkpt lat="43.202695215741024" lon="12.070550726898704"><ele>263.6666666666667</ele><time>2026-04-21T14:13:04.999Z</time></trkpt><trkpt lat="43.20258578662242" lon="12.070380762057502"><ele>264.0</ele><time>2026-04-21T14:13:05.999Z</time></trkpt><trkpt lat="43.20250423494639" lon="12.070175409478486"><ele>264.0</ele><time>2026-04-21T14:13:06.999Z</time></trkpt><trkpt lat="43.20244359910476" lon="12.069961883157623"><ele>264.0</ele><time>2026-04-21T14:13:07.999Z</time></trkpt><trkpt lat="43.2023921314464" lon="12.06973304609694"><ele>264.0</ele><time>2026-04-21T14:13:08.999Z</time></trkpt><trkpt lat="43.202354610841994" lon="12.069473012950983"><ele>264.0</ele><time>2026-04-21T14:13:09.999Z</time></trkpt><trkpt lat="43.20231384516067" lon="12.069206294333208"><ele>264.0</ele><time>2026-04-21T14:13:10.999Z</time></trkpt><trkpt lat="43.20229547138907" lon="12.06893143993197"><ele>264.0</ele><time>2026-04-21T14:13:11.999Z</time></trkpt><trkpt lat="43.20227468690221" lon="12.068652373622509"><ele>263.6666666666667</ele><time>2026-04-21T14:13:12.999Z</time></trkpt><trkpt lat="43.20226558997286" lon="12.068369336669871"><ele>263.33333333333337</ele><time>2026-04-21T14:13:13.999Z</time></trkpt><trkpt lat="43.20224374633935" lon="12.06809803961049"><ele>263.0</ele><time>2026-04-21T14:13:14.999Z</time></trkpt><trkpt lat="43.2022201488881" lon="12.067817285713268"><ele>263.33333333333337</ele><time>2026-04-21T14:13:15.999Z</time></trkpt><trkpt lat="43.20219542627311" lon="12.067540996909663"><ele>263.6666666666667</ele><time>2026-04-21T14:13:16.999Z</time></trkpt><trkpt lat="43.202169151953115" lon="12.067267423927746"><ele>264.0</ele><time>2026-04-21T14:13:17.999Z</time></trkpt><trkpt lat="43.20213787884575" lon="12.067007993265934"><ele>264.0</ele><time>2026-04-21T14:13:18.999Z</time></trkpt><trkpt lat="43.202086760333366" lon="12.066765350858583"><ele>264.0</ele><time>2026-04-21T14:13:19.999Z</time></trkpt><trkpt lat="43.20203646746653" lon="12.066523828867362"><ele>264.0</ele><time>2026-04-21T14:13:20.999Z</time></trkpt><trkpt lat="43.20196446999994" lon="12.066278242680667"><ele>264.3333333333333</ele><time>2026-04-21T14:13:21.999Z</time></trkpt><trkpt lat="43.201870589784775" lon="12.066037854793963"><ele>264.66666666666663</ele><time>2026-04-21T14:13:22.999Z</time></trkpt><trkpt lat="43.20175603083404" lon="12.065805827541896"><ele>265.0</ele><time>2026-04-21T14:13:23.999Z</time></trkpt><trkpt lat="43.20163211646751" lon="12.065579169553518"><ele>265.0</ele><time>2026-04-21T14:13:24.999Z</time></trkpt><trkpt lat="43.20154906826568" lon="12.065317990111629"><ele>265.0</ele><time>2026-04-21T14:13:25.999Z</time></trkpt><trkpt lat="43.201451586590096" lon="12.065057177499252"><ele>265.0</ele><time>2026-04-21T14:13:26.999Z</time></trkpt><trkpt lat="43.201344272197005" lon="12.064804797135062"><ele>265.0</ele><time>2026-04-21T14:13:27.999Z</time></trkpt><trkpt lat="43.20124999282711" lon="12.064538216549302"><ele>265.0</ele><time>2026-04-21T14:13:28.999Z</time></trkpt><trkpt lat="43.201171481220506" lon="12.064262143571078"><ele>265.0</ele><time>2026-04-21T14:13:29.999Z</time></trkpt><trkpt lat="43.20106196511859" lon="12.063997763145892"><ele>265.3333333333333</ele><time>2026-04-21T14:13:30.999Z</time></trkpt><trkpt lat="43.20097205137471" lon="12.063721709739069"><ele>265.6666666666667</ele><time>2026-04-21T14:13:31.999Z</time></trkpt><trkpt lat="43.20088624997971" lon="12.063438626712873"><ele>266.0</ele><time>2026-04-21T14:13:32.999Z</time></trkpt><trkpt lat="43.20082369247289" lon="12.063144776937419"><ele>266.0</ele><time>2026-04-21T14:13:33.999Z</time></trkpt><trkpt lat="43.20075890987038" lon="12.062854502922107"><ele>266.0</ele><time>2026-04-21T14:13:34.999Z</time></trkpt><trkpt lat="43.20070074175022" lon="12.062567121944783"><ele>266.0</ele><time>2026-04-21T14:13:35.999Z</time></trkpt><trkpt lat="43.20062698756225" lon="12.062289655684587"><ele>266.0</ele><time>2026-04-21T14:13:36.999Z</time></trkpt><trkpt lat="43.20056814089358" lon="12.062002195128933"><ele>266.0</ele><time>2026-04-21T14:13:37.999Z</time></trkpt><trkpt lat="43.200507877713015" lon="12.06171583987306"><ele>266.0</ele><time>2026-04-21T14:13:38.999Z</time></trkpt><trkpt lat="43.20046843561251" lon="12.061428864317794"><ele>266.0</ele><time>2026-04-21T14:13:39.999Z</time></trkpt><trkpt lat="43.20041325485149" lon="12.061144976604723"><ele>266.0</ele><time>2026-04-21T14:13:40.999Z</time></trkpt><trkpt lat="43.200358730034246" lon="12.060863489842422"><ele>266.0</ele><time>2026-04-21T14:13:41.999Z</time></trkpt><trkpt lat="43.2002883283109" lon="12.06058786065883"><ele>266.33333333333337</ele><time>2026-04-21T14:13:42.999Z</time></trkpt><trkpt lat="43.200231363280835" lon="12.060308596951044"><ele>266.6666666666667</ele><time>2026-04-21T14:13:43.999Z</time></trkpt><trkpt lat="43.20017507406095" lon="12.060028338933314"><ele>267.0</ele><time>2026-04-21T14:13:44.999Z</time></trkpt><trkpt lat="43.20011750583827" lon="12.059748449004669"><ele>267.0</ele><time>2026-04-21T14:13:45.999Z</time></trkpt><trkpt lat="43.20006065800386" lon="12.059467832983803"><ele>267.0</ele><time>2026-04-21T14:13:46.999Z</time></trkpt><trkpt lat="43.20000101488073" lon="12.059197622178182"><ele>267.0</ele><time>2026-04-21T14:13:47.999Z</time></trkpt><trkpt lat="43.19994336105684" lon="12.058931898226518"><ele>267.0</ele><time>2026-04-21T14:13:48.999Z</time></trkpt><trkpt lat="43.19988938867658" lon="12.05869397394408"><ele>267.0</ele><time>2026-04-21T14:13:49.999Z</time></trkpt><trkpt lat="43.19983709125125" lon="12.058448961464435"><ele>267.0</ele><time>2026-04-21T14:13:50.999Z</time></trkpt><trkpt lat="43.19978240162829" lon="12.058226007368093"><ele>266.6666666666667</ele><time>2026-04-21T14:13:51.999Z</time></trkpt><trkpt lat="43.199743099366415" lon="12.058003408258386"><ele>266.33333333333337</ele><time>2026-04-21T14:13:52.999Z</time></trkpt><trkpt lat="43.199741796665094" lon="12.057786643164134"><ele>266.0</ele><time>2026-04-21T14:13:53.999Z</time></trkpt><trkpt lat="43.19975233832799" lon="12.057558232831015"><ele>266.6666666666667</ele><time>2026-04-21T14:13:54.999Z</time></trkpt><trkpt lat="43.19975529232815" lon="12.057319152808951"><ele>267.3333333333333</ele><time>2026-04-21T14:13:55.999Z</time></trkpt><trkpt lat="43.19977735151799" lon="12.057071518938157"><ele>268.0</ele><time>2026-04-21T14:13:56.999Z</time></trkpt><trkpt lat="43.19979302035929" lon="12.056827878638977"><ele>268.66666666666663</ele><time>2026-04-21T14:13:57.999Z</time></trkpt><trkpt lat="43.19981538230791" lon="12.056567587033703"><ele>269.3333333333333</ele><time>2026-04-21T14:13:58.999Z</time></trkpt><trkpt lat="43.1998354308211" lon="12.056302968841033"><ele>270.0</ele><time>2026-04-21T14:13:59.999Z</time></trkpt><trkpt lat="43.19985522329245" lon="12.056038865998705"><ele>271.3333333333333</ele><time>2026-04-21T14:14:00.999Z</time></trkpt><trkpt lat="43.199871258064476" lon="12.055772789174146"><ele>272.66666666666663</ele><time>2026-04-21T14:14:01.999Z</time></trkpt><trkpt lat="43.19988890694906" lon="12.05549617935656"><ele>274.0</ele><time>2026-04-21T14:14:02.999Z</time></trkpt><trkpt lat="43.1999053677053" lon="12.05522560799477"><ele>274.66666666666663</ele><time>2026-04-21T14:14:03.999Z</time></trkpt><trkpt lat="43.199924517300644" lon="12.054948548002056"><ele>275.3333333333333</ele><time>2026-04-21T14:14:04.999Z</time></trkpt><trkpt lat="43.199943997883224" lon="12.054673505874208"><ele>276.0</ele><time>2026-04-21T14:14:05.999Z</time></trkpt><trkpt lat="43.199960117721325" lon="12.054401470999764"><ele>276.0</ele><time>2026-04-21T14:14:06.999Z</time></trkpt><trkpt lat="43.19997331457506" lon="12.054132004939694"><ele>276.0</ele><time>2026-04-21T14:14:07.999Z</time></trkpt><trkpt lat="43.199967627013905" lon="12.053869277501443"><ele>276.0</ele><time>2026-04-21T14:14:08.999Z</time></trkpt><trkpt lat="43.19993282602813" lon="12.05360315438227"><ele>277.6666666666667</ele><time>2026-04-21T14:14:10Z</time></trkpt><trkpt lat="43.199876736314586" lon="12.053338409593364"><ele>279.33333333333337</ele><time>2026-04-21T14:14:11Z</time></trkpt><trkpt lat="43.19982204127276" lon="12.053063079486172"><ele>281.0</ele><time>2026-04-21T14:14:12Z</time></trkpt><trkpt lat="43.199769622772614" lon="12.052814752193786"><ele>281.6666666666667</ele><time>2026-04-21T14:14:13Z</time></trkpt><trkpt lat="43.19972128527088" lon="12.05258857202663"><ele>282.3333333333333</ele><time>2026-04-21T14:14:14Z</time></trkpt><trkpt lat="43.19968347680427" lon="12.052369964438165"><ele>283.0</ele><time>2026-04-21T14:14:15Z</time></trkpt><trkpt lat="43.19960456709118" lon="12.052193012544045"><ele>285.0</ele><time>2026-04-21T14:14:16Z</time></trkpt><trkpt lat="43.19948582949681" lon="12.05206543039819"><ele>287.0</ele><time>2026-04-21T14:14:17Z</time></trkpt><trkpt lat="43.19935080046665" lon="12.051937345511071"><ele>289.0</ele><time>2026-04-21T14:14:18Z</time></trkpt><trkpt lat="43.19922453125367" lon="12.051799239691643"><ele>289.0</ele><time>2026-04-21T14:14:19Z</time></trkpt><trkpt lat="43.1990810232169" lon="12.051652890182805"><ele>289.0</ele><time>2026-04-21T14:14:20Z</time></trkpt><trkpt lat="43.198939847598524" lon="12.0514790119213"><ele>289.0</ele><time>2026-04-21T14:14:21Z</time></trkpt><trkpt lat="43.19878826574466" lon="12.051315478244545"><ele>291.66666666666663</ele><time>2026-04-21T14:14:22Z</time></trkpt><trkpt lat="43.19863046978961" lon="12.051147155036986"><ele>294.3333333333333</ele><time>2026-04-21T14:14:23Z</time></trkpt><trkpt lat="43.19848070772381" lon="12.050987929083334"><ele>297.0</ele><time>2026-04-21T14:14:24Z</time></trkpt><trkpt lat="43.198336245163915" lon="12.050858516798595"><ele>299.25</ele><time>2026-04-21T14:14:25Z</time></trkpt><trkpt lat="43.19820874547529" lon="12.050740306174173"><ele>301.5</ele><time>2026-04-21T14:14:26Z</time></trkpt><trkpt lat="43.198077854840996" lon="12.050686187170847"><ele>303.75</ele><time>2026-04-21T14:14:27Z</time></trkpt><trkpt lat="43.19793693203117" lon="12.050700331855678"><ele>306.0</ele><time>2026-04-21T14:14:28Z</time></trkpt><trkpt lat="43.197792678899305" lon="12.050761842543144"><ele>304.0</ele><time>2026-04-21T14:14:29Z</time></trkpt><trkpt lat="43.197640198553934" lon="12.050801278463455"><ele>302.0</ele><time>2026-04-21T14:14:30Z</time></trkpt><trkpt lat="43.1974768810125" lon="12.050831641811344"><ele>300.0</ele><time>2026-04-21T14:14:31Z</time></trkpt><trkpt lat="43.197307526125456" lon="12.050852624512626"><ele>300.0</ele><time>2026-04-21T14:14:32Z</time></trkpt><trkpt lat="43.19713075310934" lon="12.050832718052568"><ele>300.0</ele><time>2026-04-21T14:14:33Z</time></trkpt><trkpt lat="43.19695082645803" lon="12.050780371712"><ele>300.0</ele><time>2026-04-21T14:14:34Z</time></trkpt><trkpt lat="43.19676149066578" lon="12.050716161460274"><ele>306.0</ele><time>2026-04-21T14:14:35Z</time></trkpt><trkpt lat="43.196581235019714" lon="12.050646692149204"><ele>312.0</ele><time>2026-04-21T14:14:36Z</time></trkpt><trkpt lat="43.19641430264219" lon="12.050564336892588"><ele>318.0</ele><time>2026-04-21T14:14:37Z</time></trkpt><trkpt lat="43.19626788900359" lon="12.05050120785852"><ele>318.0</ele><time>2026-04-21T14:14:38Z</time></trkpt><trkpt lat="43.19613825404707" lon="12.050423625242958"><ele>318.0</ele><time>2026-04-21T14:14:39Z</time></trkpt><trkpt lat="43.19600400562163" lon="12.050371964583967"><ele>318.0</ele><time>2026-04-21T14:14:40Z</time></trkpt><trkpt lat="43.195857081924" lon="12.050350764803609"><ele>318.0</ele><time>2026-04-21T14:14:41Z</time></trkpt><trkpt lat="43.195710582327635" lon="12.050350267258429"><ele>316.6666666666667</ele><time>2026-04-21T14:14:42Z</time></trkpt><trkpt lat="43.19555323283747" lon="12.050320100695329"><ele>315.33333333333337</ele><time>2026-04-21T14:14:43Z</time></trkpt><trkpt lat="43.19539164342359" lon="12.050328480333128"><ele>314.0</ele><time>2026-04-21T14:14:44Z</time></trkpt><trkpt lat="43.19522538277919" lon="12.050300851030222"><ele>314.0</ele><time>2026-04-21T14:14:45Z</time></trkpt><trkpt lat="43.19505140471866" lon="12.050274695241045"><ele>314.0</ele><time>2026-04-21T14:14:46Z</time></trkpt><trkpt lat="43.194887498221114" lon="12.050224106690136"><ele>314.0</ele><time>2026-04-21T14:14:47Z</time></trkpt><trkpt lat="43.19472338878365" lon="12.05014907205894"><ele>312.33333333333337</ele><time>2026-04-21T14:14:48Z</time></trkpt><trkpt lat="43.1945550991243" lon="12.050103350153927"><ele>310.6666666666667</ele><time>2026-04-21T14:14:49Z</time></trkpt><trkpt lat="43.1943830634244" lon="12.050058750093141"><ele>309.0</ele><time>2026-04-21T14:14:50Z</time></trkpt><trkpt lat="43.194214011218946" lon="12.05001539709304"><ele>309.0</ele><time>2026-04-21T14:14:51Z</time></trkpt><trkpt lat="43.19404134668858" lon="12.049971552140658"><ele>309.0</ele><time>2026-04-21T14:14:52Z</time></trkpt><trkpt lat="43.193872354432784" lon="12.04993043776144"><ele>309.0</ele><time>2026-04-21T14:14:53Z</time></trkpt><trkpt lat="43.19370976863448" lon="12.049910427869571"><ele>311.0</ele><time>2026-04-21T14:14:54Z</time></trkpt><trkpt lat="43.19356257139882" lon="12.049867028577442"><ele>313.0</ele><time>2026-04-21T14:14:55Z</time></trkpt><trkpt lat="43.193423264865814" lon="12.049813117374987"><ele>315.0</ele><time>2026-04-21T14:14:56Z</time></trkpt><trkpt lat="43.193294616316095" lon="12.049753063737233"><ele>317.0</ele><time>2026-04-21T14:14:57Z</time></trkpt><trkpt lat="43.19317814903635" lon="12.049692612115482"><ele>314.5</ele><time>2026-04-21T14:14:58Z</time></trkpt><trkpt lat="43.1930664035241" lon="12.049632222309768"><ele>312.0</ele><time>2026-04-21T14:14:59Z</time></trkpt><trkpt lat="43.192959274410825" lon="12.04957434390468"><ele>309.5</ele><time>2026-04-21T14:15:00Z</time></trkpt><trkpt lat="43.19284884110715" lon="12.049511116110585"><ele>307.0</ele><time>2026-04-21T14:15:01Z</time></trkpt><trkpt lat="43.19273492882931" lon="12.049442213775283"><ele>307.0</ele><time>2026-04-21T14:15:02Z</time></trkpt><trkpt lat="43.192619060846944" lon="12.04937268467692"><ele>307.0</ele><time>2026-04-21T14:15:03Z</time></trkpt><trkpt lat="43.19250113448698" lon="12.049305459343964"><ele>307.0</ele><time>2026-04-21T14:15:04Z</time></trkpt><trkpt lat="43.192384943417004" lon="12.049240428236006"><ele>307.0</ele><time>2026-04-21T14:15:05Z</time></trkpt><trkpt lat="43.19226908658585" lon="12.049175001063311"><ele>306.25</ele><time>2026-04-21T14:15:06Z</time></trkpt><trkpt lat="43.19215066352973" lon="12.049107501940364"><ele>305.5</ele><time>2026-04-21T14:15:07Z</time></trkpt><trkpt lat="43.1920381794936" lon="12.049043904985307"><ele>304.75</ele><time>2026-04-21T14:15:08Z</time></trkpt><trkpt lat="43.19194264477263" lon="12.048972835943726"><ele>304.0</ele><time>2026-04-21T14:15:09Z</time></trkpt><trkpt lat="43.191844077394805" lon="12.048892826042492"><ele>304.0</ele><time>2026-04-21T14:15:10Z</time></trkpt><trkpt lat="43.191766546718156" lon="12.048792463957472"><ele>304.0</ele><time>2026-04-21T14:15:11Z</time></trkpt><trkpt lat="43.19171467618248" lon="12.048676953170938"><ele>304.0</ele><time>2026-04-21T14:15:11.999Z</time></trkpt><trkpt lat="43.19166206058" lon="12.048557272651014"><ele>304.0</ele><time>2026-04-21T14:15:12.999Z</time></trkpt><trkpt lat="43.191631602081145" lon="12.048415639900922"><ele>304.0</ele><time>2026-04-21T14:15:13.999Z</time></trkpt><trkpt lat="43.1916048433633" lon="12.048259292425637"><ele>304.0</ele><time>2026-04-21T14:15:14.999Z</time></trkpt><trkpt lat="43.191580661347864" lon="12.04809173560002"><ele>304.0</ele><time>2026-04-21T14:15:15.999Z</time></trkpt><trkpt lat="43.19155934039145" lon="12.047921848243282"><ele>304.0</ele><time>2026-04-21T14:15:16.999Z</time></trkpt><trkpt lat="43.19154073346035" lon="12.047744184065614"><ele>304.0</ele><time>2026-04-21T14:15:17.999Z</time></trkpt><trkpt lat="43.191514946422146" lon="12.047571741851065"><ele>300.5</ele><time>2026-04-21T14:15:18.999Z</time></trkpt><trkpt lat="43.19147188011631" lon="12.047401443339124"><ele>297.0</ele><time>2026-04-21T14:15:19.999Z</time></trkpt><trkpt lat="43.19141123122884" lon="12.047232229013513"><ele>293.5</ele><time>2026-04-21T14:15:20.999Z</time></trkpt><trkpt lat="43.19134284528989" lon="12.04706380993459"><ele>290.0</ele><time>2026-04-21T14:15:21.999Z</time></trkpt><trkpt lat="43.19127880825675" lon="12.046902566863427"><ele>290.0</ele><time>2026-04-21T14:15:22.999Z</time></trkpt><trkpt lat="43.19121955871093" lon="12.046752630853202"><ele>290.0</ele><time>2026-04-21T14:15:23.999Z</time></trkpt><trkpt lat="43.19116121433544" lon="12.046604442076122"><ele>290.0</ele><time>2026-04-21T14:15:24.999Z</time></trkpt><trkpt lat="43.19110335025181" lon="12.046456618838441"><ele>290.0</ele><time>2026-04-21T14:15:25.999Z</time></trkpt><trkpt lat="43.1910504737264" lon="12.046314067910718"><ele>292.0</ele><time>2026-04-21T14:15:26.999Z</time></trkpt><trkpt lat="43.19100000651564" lon="12.046171743437922"><ele>294.0</ele><time>2026-04-21T14:15:27.999Z</time></trkpt><trkpt lat="43.19095075886951" lon="12.046030003100144"><ele>296.0</ele><time>2026-04-21T14:15:28.999Z</time></trkpt><trkpt lat="43.19090004225041" lon="12.045884785768084"><ele>298.0</ele><time>2026-04-21T14:15:29.999Z</time></trkpt><trkpt lat="43.190861349676176" lon="12.045732957500663"><ele>298.5</ele><time>2026-04-21T14:15:30.999Z</time></trkpt><trkpt lat="43.1908432131996" lon="12.045570774962991"><ele>299.0</ele><time>2026-04-21T14:15:31.999Z</time></trkpt><trkpt lat="43.190842643979565" lon="12.045406727903734"><ele>299.5</ele><time>2026-04-21T14:15:32.999Z</time></trkpt><trkpt lat="43.19085341940829" lon="12.04524280861256"><ele>300.0</ele><time>2026-04-21T14:15:33.999Z</time></trkpt><trkpt lat="43.19086489318375" lon="12.045081636600425"><ele>299.75</ele><time>2026-04-21T14:15:34.999Z</time></trkpt><trkpt lat="43.19088188791833" lon="12.0449146536729"><ele>299.5</ele><time>2026-04-21T14:15:35.999Z</time></trkpt><trkpt lat="43.19089897093915" lon="12.044749549570675"><ele>299.25</ele><time>2026-04-21T14:15:36.999Z</time></trkpt><trkpt lat="43.190920494317474" lon="12.044586105480716"><ele>299.0</ele><time>2026-04-21T14:15:37.999Z</time></trkpt><trkpt lat="43.190944515888965" lon="12.044419842422855"><ele>299.0</ele><time>2026-04-21T14:15:38.999Z</time></trkpt><trkpt lat="43.19096558947955" lon="12.044253921626671"><ele>299.0</ele><time>2026-04-21T14:15:39.999Z</time></trkpt><trkpt lat="43.19098604887977" lon="12.044092798355164"><ele>299.0</ele><time>2026-04-21T14:15:40.999Z</time></trkpt><trkpt lat="43.19100024609035" lon="12.043948565806565"><ele>299.0</ele><time>2026-04-21T14:15:41.999Z</time></trkpt><trkpt lat="43.19099885561399" lon="12.04381334597297"><ele>299.0</ele><time>2026-04-21T14:15:42.999Z</time></trkpt><trkpt lat="43.1909631152789" lon="12.043686516241427"><ele>300.25</ele><time>2026-04-21T14:15:43.999Z</time></trkpt><trkpt lat="43.190895338189186" lon="12.043559147799819"><ele>301.5</ele><time>2026-04-21T14:15:44.999Z</time></trkpt><trkpt lat="43.19081337392731" lon="12.043439034719816"><ele>302.75</ele><time>2026-04-21T14:15:45.999Z</time></trkpt><trkpt lat="43.1907546161423" lon="12.043298445333678"><ele>304.0</ele><time>2026-04-21T14:15:46.999Z</time></trkpt><trkpt lat="43.190697680095006" lon="12.043145752506511"><ele>301.3333333333333</ele><time>2026-04-21T14:15:47.999Z</time></trkpt><trkpt lat="43.190633733931044" lon="12.042956850523751"><ele>298.6666666666667</ele><time>2026-04-21T14:15:48.999Z</time></trkpt><trkpt lat="43.19056324653866" lon="12.04274220663808"><ele>296.0</ele><time>2026-04-21T14:15:49.999Z</time></trkpt><trkpt lat="43.190488716317454" lon="12.042514220385659"><ele>298.33333333333337</ele><time>2026-04-21T14:15:50.999Z</time></trkpt><trkpt lat="43.190415294803984" lon="12.04228962564932"><ele>300.6666666666667</ele><time>2026-04-21T14:15:51.999Z</time></trkpt><trkpt lat="43.19034346147797" lon="12.04206988914296"><ele>303.0</ele><time>2026-04-21T14:15:52.999Z</time></trkpt><trkpt lat="43.190266569655115" lon="12.041837190065772"><ele>304.3333333333333</ele><time>2026-04-21T14:15:53.999Z</time></trkpt><trkpt lat="43.19019253985418" lon="12.04161315150547"><ele>305.66666666666663</ele><time>2026-04-21T14:15:54.999Z</time></trkpt><trkpt lat="43.19012177410389" lon="12.04139718998448"><ele>307.0</ele><time>2026-04-21T14:15:55.999Z</time></trkpt><trkpt lat="43.19005558752095" lon="12.041192632684082"><ele>307.0</ele><time>2026-04-21T14:15:56.999Z</time></trkpt><trkpt lat="43.18999143295776" lon="12.040995058090761"><ele>307.0</ele><time>2026-04-21T14:15:57.999Z</time></trkpt><trkpt lat="43.189927648079404" lon="12.04081055230112"><ele>307.0</ele><time>2026-04-21T14:15:58.999Z</time></trkpt><trkpt lat="43.18985250460702" lon="12.040638610538693"><ele>305.0</ele><time>2026-04-21T14:15:59.999Z</time></trkpt><trkpt lat="43.189796150965606" lon="12.040469918231727"><ele>303.0</ele><time>2026-04-21T14:16:00.999Z</time></trkpt><trkpt lat="43.18975031354763" lon="12.04033042857102"><ele>301.0</ele><time>2026-04-21T14:16:01.999Z</time></trkpt><trkpt lat="43.189721184578886" lon="12.040208045731985"><ele>299.0</ele><time>2026-04-21T14:16:02.999Z</time></trkpt><trkpt lat="43.189724956577514" lon="12.040084677934818"><ele>297.0</ele><time>2026-04-21T14:16:03.999Z</time></trkpt><trkpt lat="43.189780729775855" lon="12.03998887047399"><ele>297.0</ele><time>2026-04-21T14:16:04.999Z</time></trkpt><trkpt lat="43.189839229380695" lon="12.039891647122959"><ele>297.0</ele><time>2026-04-21T14:16:05.999Z</time></trkpt><trkpt lat="43.18991957533672" lon="12.039822669593386"><ele>297.0</ele><time>2026-04-21T14:16:06.999Z</time></trkpt><trkpt lat="43.19001213228711" lon="12.039801839741681"><ele>297.0</ele><time>2026-04-21T14:16:07.999Z</time></trkpt><trkpt lat="43.190119442512675" lon="12.039829639970462"><ele>297.0</ele><time>2026-04-21T14:16:08.999Z</time></trkpt><trkpt lat="43.19025436025963" lon="12.03987311775319"><ele>297.0</ele><time>2026-04-21T14:16:09.999Z</time></trkpt><trkpt lat="43.19039809184951" lon="12.039929684376496"><ele>297.0</ele><time>2026-04-21T14:16:10.999Z</time></trkpt><trkpt lat="43.19052501397725" lon="12.039979550244741"><ele>297.0</ele><time>2026-04-21T14:16:11.999Z</time></trkpt><trkpt lat="43.19065900014122" lon="12.040035777166647"><ele>297.0</ele><time>2026-04-21T14:16:12.999Z</time></trkpt><trkpt lat="43.19079286510752" lon="12.040093697260417"><ele>299.0</ele><time>2026-04-21T14:16:13.999Z</time></trkpt><trkpt lat="43.19091112651171" lon="12.040150600991582"><ele>301.0</ele><time>2026-04-21T14:16:14.999Z</time></trkpt><trkpt lat="43.19100477911623" lon="12.040208776958744"><ele>303.0</ele><time>2026-04-21T14:16:16Z</time></trkpt><trkpt lat="43.19106090566669" lon="12.040252265504867"><ele>305.0</ele><time>2026-04-21T14:16:17Z</time></trkpt><trkpt lat="43.19103910117936" lon="12.040159492404289"><ele>307.0</ele><time>2026-04-21T14:16:23Z</time></trkpt><trkpt lat="43.1909423896001" lon="12.040144245877944"><ele>307.0</ele><time>2026-04-21T14:16:24Z</time></trkpt><trkpt lat="43.19084098929294" lon="12.040097574798184"><ele>307.0</ele><time>2026-04-21T14:16:25Z</time></trkpt><trkpt lat="43.19071552940139" lon="12.040039487308164"><ele>307.0</ele><time>2026-04-21T14:16:26Z</time></trkpt><trkpt lat="43.19058488398033" lon="12.039978456166645"><ele>307.0</ele><time>2026-04-21T14:16:27Z</time></trkpt><trkpt lat="43.19044219920326" lon="12.039921312511263"><ele>304.5</ele><time>2026-04-21T14:16:28Z</time></trkpt><trkpt lat="43.19030675092655" lon="12.039869754206965"><ele>302.0</ele><time>2026-04-21T14:16:29Z</time></trkpt><trkpt lat="43.19019011253128" lon="12.039823416749222"><ele>299.5</ele><time>2026-04-21T14:16:30Z</time></trkpt><trkpt lat="43.190079431116466" lon="12.039788003757808"><ele>297.0</ele><time>2026-04-21T14:16:31Z</time></trkpt><trkpt lat="43.18997365012439" lon="12.039764395775522"><ele>297.0</ele><time>2026-04-21T14:16:32Z</time></trkpt><trkpt lat="43.18987629859298" lon="12.039782138660957"><ele>297.0</ele><time>2026-04-21T14:16:33Z</time></trkpt><trkpt lat="43.189788044662286" lon="12.03984551778883"><ele>297.0</ele><time>2026-04-21T14:16:34Z</time></trkpt><trkpt lat="43.18974289930431" lon="12.039950300638283"><ele>297.0</ele><time>2026-04-21T14:16:35Z</time></trkpt><trkpt lat="43.18971164857688" lon="12.040044930927865"><ele>297.0</ele><time>2026-04-21T14:16:36Z</time></trkpt><trkpt lat="43.189649512902" lon="12.04006503160083"><ele>297.0</ele><time>2026-04-21T14:16:38Z</time></trkpt><trkpt lat="43.18959805027816" lon="12.039972274276662"><ele>297.0</ele><time>2026-04-21T14:16:40Z</time></trkpt><trkpt lat="43.18959883731285" lon="12.039878815745876"><ele>297.0</ele><time>2026-04-21T14:16:41Z</time></trkpt><trkpt lat="43.189670007914636" lon="12.039745899574607"><ele>297.0</ele><time>2026-04-21T14:16:43Z</time></trkpt><trkpt lat="43.18973386702547" lon="12.039698469665879"><ele>297.0</ele><time>2026-04-21T14:16:44Z</time></trkpt><trkpt lat="43.1897924064429" lon="12.0396603362655"><ele>297.0</ele><time>2026-04-21T14:16:45Z</time></trkpt><trkpt lat="43.189852069094364" lon="12.039543738477803"><ele>297.0</ele><time>2026-04-21T14:16:47Z</time></trkpt><trkpt lat="43.18980594705654" lon="12.039402661939329"><ele>296.2</ele><time>2026-04-21T14:16:49Z</time></trkpt><trkpt lat="43.189705330493226" lon="12.039391954301372"><ele>295.4</ele><time>2026-04-21T14:16:50Z</time></trkpt><trkpt lat="43.18960809973075" lon="12.039362678895897"><ele>294.6</ele><time>2026-04-21T14:16:51Z</time></trkpt><trkpt lat="43.18950011897547" lon="12.039327933903833"><ele>293.8</ele><time>2026-04-21T14:16:52Z</time></trkpt><trkpt lat="43.18937912076553" lon="12.039292415648154"><ele>293.0</ele><time>2026-04-21T14:16:53Z</time></trkpt><trkpt lat="43.189263252506805" lon="12.039256334575239"><ele>293.0</ele><time>2026-04-21T14:16:54Z</time></trkpt><trkpt lat="43.18915148942833" lon="12.039216513400996"><ele>293.0</ele><time>2026-04-21T14:16:55Z</time></trkpt><trkpt lat="43.18904107936013" lon="12.039175046232165"><ele>293.0</ele><time>2026-04-21T14:16:56Z</time></trkpt><trkpt lat="43.18893030166639" lon="12.039140817437147"><ele>293.0</ele><time>2026-04-21T14:16:57Z</time></trkpt><trkpt lat="43.188820186922236" lon="12.039102379403214"><ele>290.0</ele><time>2026-04-21T14:16:58Z</time></trkpt><trkpt lat="43.18870876678121" lon="12.03905178360044"><ele>287.0</ele><time>2026-04-21T14:16:59Z</time></trkpt><trkpt lat="43.18859480979814" lon="12.039009365065615"><ele>284.0</ele><time>2026-04-21T14:17:00Z</time></trkpt><trkpt lat="43.18848248311346" lon="12.038949152944763"><ele>281.0</ele><time>2026-04-21T14:17:01Z</time></trkpt><trkpt lat="43.188361553552646" lon="12.038859145279826"><ele>281.0</ele><time>2026-04-21T14:17:02Z</time></trkpt><trkpt lat="43.188238602670374" lon="12.038744214188977"><ele>281.0</ele><time>2026-04-21T14:17:03Z</time></trkpt><trkpt lat="43.18811351158859" lon="12.038610878431014"><ele>281.0</ele><time>2026-04-21T14:17:04Z</time></trkpt><trkpt lat="43.188001885272925" lon="12.03844987310449"><ele>279.0</ele><time>2026-04-21T14:17:05Z</time></trkpt><trkpt lat="43.18787205089094" lon="12.038314725951935"><ele>277.0</ele><time>2026-04-21T14:17:06Z</time></trkpt><trkpt lat="43.18776273511321" lon="12.038168822411158"><ele>275.0</ele><time>2026-04-21T14:17:07Z</time></trkpt><trkpt lat="43.18766310263223" lon="12.038036308539839"><ele>274.75</ele><time>2026-04-21T14:17:08Z</time></trkpt><trkpt lat="43.1875788387778" lon="12.03790961797014"><ele>274.5</ele><time>2026-04-21T14:17:09Z</time></trkpt><trkpt lat="43.18753473315172" lon="12.037752197057575"><ele>274.25</ele><time>2026-04-21T14:17:10Z</time></trkpt><trkpt lat="43.18749907824177" lon="12.03757213310588"><ele>274.0</ele><time>2026-04-21T14:17:11Z</time></trkpt><trkpt lat="43.18746104122965" lon="12.037361970226629"><ele>272.0</ele><time>2026-04-21T14:17:12Z</time></trkpt><trkpt lat="43.18741127266436" lon="12.03712656485667"><ele>270.0</ele><time>2026-04-21T14:17:13Z</time></trkpt><trkpt lat="43.18736473451941" lon="12.036887154008953"><ele>268.0</ele><time>2026-04-21T14:17:14Z</time></trkpt><trkpt lat="43.1873222107835" lon="12.036634655331556"><ele>266.3333333333333</ele><time>2026-04-21T14:17:15Z</time></trkpt><trkpt lat="43.18727997962139" lon="12.036403660715795"><ele>264.6666666666667</ele><time>2026-04-21T14:17:16Z</time></trkpt><trkpt lat="43.187254305929066" lon="12.036189532356818"><ele>263.0</ele><time>2026-04-21T14:17:17Z</time></trkpt><trkpt lat="43.18719992258426" lon="12.035930150001318"><ele>263.0</ele><time>2026-04-21T14:17:18Z</time></trkpt><trkpt lat="43.187168847956436" lon="12.035779841992289"><ele>263.0</ele><time>2026-04-21T14:17:19Z</time></trkpt><trkpt lat="43.187138597581104" lon="12.035643886032316"><ele>263.0</ele><time>2026-04-21T14:17:20Z</time></trkpt><trkpt lat="43.18708533197721" lon="12.035531255524416"><ele>263.0</ele><time>2026-04-21T14:17:21Z</time></trkpt><trkpt lat="43.18700751350999" lon="12.035457123453478"><ele>263.0</ele><time>2026-04-21T14:17:22Z</time></trkpt><trkpt lat="43.18692090230437" lon="12.035437615156102"><ele>263.0</ele><time>2026-04-21T14:17:23Z</time></trkpt><trkpt lat="43.18682629991792" lon="12.035433417460512"><ele>263.0</ele><time>2026-04-21T14:17:24Z</time></trkpt><trkpt lat="43.18673894001294" lon="12.035403205205048"><ele>263.0</ele><time>2026-04-21T14:17:25Z</time></trkpt><trkpt lat="43.186664225105226" lon="12.03532562918491"><ele>263.0</ele><time>2026-04-21T14:17:26Z</time></trkpt><trkpt lat="43.18664413661691" lon="12.035200287964882"><ele>263.0</ele><time>2026-04-21T14:17:27Z</time></trkpt><trkpt lat="43.18662850825697" lon="12.035088974614153"><ele>262.75</ele><time>2026-04-21T14:17:28Z</time></trkpt><trkpt lat="43.18666641235963" lon="12.034934179945873"><ele>262.5</ele><time>2026-04-21T14:17:29Z</time></trkpt><trkpt lat="43.18668864865786" lon="12.034757077239686"><ele>262.25</ele><time>2026-04-21T14:17:30Z</time></trkpt><trkpt lat="43.18670181179085" lon="12.034566366448145"><ele>262.0</ele><time>2026-04-21T14:17:31Z</time></trkpt><trkpt lat="43.18673715046487" lon="12.034370438128121"><ele>262.0</ele><time>2026-04-21T14:17:31.999Z</time></trkpt><trkpt lat="43.18676718151953" lon="12.034169512551218"><ele>262.0</ele><time>2026-04-21T14:17:32.999Z</time></trkpt><trkpt lat="43.18681938233964" lon="12.033973459465658"><ele>262.0</ele><time>2026-04-21T14:17:33.999Z</time></trkpt><trkpt lat="43.18687041584966" lon="12.033769105950157"><ele>261.66666666666663</ele><time>2026-04-21T14:17:34.999Z</time></trkpt><trkpt lat="43.18692698780345" lon="12.03356073939426"><ele>261.3333333333333</ele><time>2026-04-21T14:17:35.999Z</time></trkpt><trkpt lat="43.1869629410374" lon="12.033345124966443"><ele>261.0</ele><time>2026-04-21T14:17:36.999Z</time></trkpt><trkpt lat="43.18700609932646" lon="12.033132002452046"><ele>260.6666666666667</ele><time>2026-04-21T14:17:37.999Z</time></trkpt><trkpt lat="43.18702554401482" lon="12.032911645614316"><ele>260.33333333333337</ele><time>2026-04-21T14:17:38.999Z</time></trkpt><trkpt lat="43.18702264676402" lon="12.032681937424707"><ele>260.0</ele><time>2026-04-21T14:17:39.999Z</time></trkpt><trkpt lat="43.18701694914522" lon="12.032455211630698"><ele>260.0</ele><time>2026-04-21T14:17:40.999Z</time></trkpt><trkpt lat="43.18700299077228" lon="12.032230770045635"><ele>260.0</ele><time>2026-04-21T14:17:41.999Z</time></trkpt><trkpt lat="43.186983192826354" lon="12.031999567550447"><ele>260.0</ele><time>2026-04-21T14:17:42.999Z</time></trkpt><trkpt lat="43.186967521414374" lon="12.031770256893763"><ele>260.0</ele><time>2026-04-21T14:17:43.999Z</time></trkpt><trkpt lat="43.186968764748414" lon="12.031535713541487"><ele>260.0</ele><time>2026-04-21T14:17:44.999Z</time></trkpt><trkpt lat="43.18699878827795" lon="12.031301094845828"><ele>260.0</ele><time>2026-04-21T14:17:45.999Z</time></trkpt><trkpt lat="43.187020396491725" lon="12.03106463859705"><ele>260.0</ele><time>2026-04-21T14:17:46.999Z</time></trkpt><trkpt lat="43.18703056250608" lon="12.030831108940482"><ele>260.0</ele><time>2026-04-21T14:17:47.999Z</time></trkpt><trkpt lat="43.18706695942327" lon="12.030618363172522"><ele>260.0</ele><time>2026-04-21T14:17:48.999Z</time></trkpt><trkpt lat="43.18713874100445" lon="12.030437789148912"><ele>260.33333333333337</ele><time>2026-04-21T14:17:49.999Z</time></trkpt><trkpt lat="43.18721966504449" lon="12.030261754635376"><ele>260.6666666666667</ele><time>2026-04-21T14:17:50.999Z</time></trkpt><trkpt lat="43.187319458439845" lon="12.030097962178084"><ele>261.0</ele><time>2026-04-21T14:17:51.999Z</time></trkpt><trkpt lat="43.18741803311432" lon="12.029946945311286"><ele>261.25</ele><time>2026-04-21T14:17:52.999Z</time></trkpt><trkpt lat="43.187508809736606" lon="12.029810484567706"><ele>261.5</ele><time>2026-04-21T14:17:53.999Z</time></trkpt><trkpt lat="43.187552632062165" lon="12.029664612249578"><ele>261.75</ele><time>2026-04-21T14:17:54.999Z</time></trkpt><trkpt lat="43.18757249592482" lon="12.02951844118717"><ele>262.0</ele><time>2026-04-21T14:17:55.999Z</time></trkpt><trkpt lat="43.18756214019784" lon="12.029348527540275"><ele>262.0</ele><time>2026-04-21T14:17:56.999Z</time></trkpt><trkpt lat="43.187528366430946" lon="12.029161063652392"><ele>262.0</ele><time>2026-04-21T14:17:57.999Z</time></trkpt><trkpt lat="43.1874992411874" lon="12.02896521846198"><ele>262.0</ele><time>2026-04-21T14:17:58.999Z</time></trkpt><trkpt lat="43.18752444926694" lon="12.028764259702331"><ele>262.0</ele><time>2026-04-21T14:17:59.999Z</time></trkpt><trkpt lat="43.18757465563301" lon="12.02855719540366"><ele>262.0</ele><time>2026-04-21T14:18:00.999Z</time></trkpt><trkpt lat="43.187624780622954" lon="12.028329337158208"><ele>262.0</ele><time>2026-04-21T14:18:01.999Z</time></trkpt><trkpt lat="43.18767591444434" lon="12.028098517382508"><ele>262.0</ele><time>2026-04-21T14:18:02.999Z</time></trkpt><trkpt lat="43.187713412785584" lon="12.027857339536133"><ele>261.66666666666663</ele><time>2026-04-21T14:18:03.999Z</time></trkpt><trkpt lat="43.1877666916179" lon="12.027611492996586"><ele>261.3333333333333</ele><time>2026-04-21T14:18:04.999Z</time></trkpt><trkpt lat="43.187821391179874" lon="12.027361484500014"><ele>261.0</ele><time>2026-04-21T14:18:05.999Z</time></trkpt><trkpt lat="43.18788059708155" lon="12.027102089700355"><ele>261.0</ele><time>2026-04-21T14:18:06.999Z</time></trkpt><trkpt lat="43.18793856843942" lon="12.026838246509657"><ele>261.0</ele><time>2026-04-21T14:18:07.999Z</time></trkpt><trkpt lat="43.187998531421876" lon="12.026564274562427"><ele>261.0</ele><time>2026-04-21T14:18:08.999Z</time></trkpt><trkpt lat="43.18807211035462" lon="12.026303207519646"><ele>261.0</ele><time>2026-04-21T14:18:09.999Z</time></trkpt><trkpt lat="43.18811703058551" lon="12.026022165269211"><ele>261.0</ele><time>2026-04-21T14:18:10.999Z</time></trkpt><trkpt lat="43.18817716408694" lon="12.025748185248137"><ele>261.0</ele><time>2026-04-21T14:18:11.999Z</time></trkpt><trkpt lat="43.18824002041033" lon="12.025468573038212"><ele>261.0</ele><time>2026-04-21T14:18:12.999Z</time></trkpt><trkpt lat="43.188299847791754" lon="12.025189834576025"><ele>261.0</ele><time>2026-04-21T14:18:13.999Z</time></trkpt><trkpt lat="43.188362249815235" lon="12.024915074927335"><ele>261.0</ele><time>2026-04-21T14:18:14.999Z</time></trkpt><trkpt lat="43.188419960712416" lon="12.024644798530893"><ele>261.0</ele><time>2026-04-21T14:18:15.999Z</time></trkpt><trkpt lat="43.18849216259345" lon="12.024390417460882"><ele>261.0</ele><time>2026-04-21T14:18:16.999Z</time></trkpt><trkpt lat="43.188549449113324" lon="12.02414670592629"><ele>261.0</ele><time>2026-04-21T14:18:17.999Z</time></trkpt><trkpt lat="43.1886170972182" lon="12.023903744981462"><ele>260.6666666666667</ele><time>2026-04-21T14:18:18.999Z</time></trkpt><trkpt lat="43.188703949666994" lon="12.023706298369015"><ele>260.33333333333337</ele><time>2026-04-21T14:18:19.999Z</time></trkpt><trkpt lat="43.18879074400017" lon="12.023526026882644"><ele>260.0</ele><time>2026-04-21T14:18:20.999Z</time></trkpt><trkpt lat="43.18886644440951" lon="12.02336876876455"><ele>260.0</ele><time>2026-04-21T14:18:22Z</time></trkpt><trkpt lat="43.18890461177935" lon="12.023228353512811"><ele>260.0</ele><time>2026-04-21T14:18:23Z</time></trkpt><trkpt lat="43.18893888958229" lon="12.023124494786288"><ele>260.0</ele><time>2026-04-21T14:18:24Z</time></trkpt><trkpt lat="43.18892395151368" lon="12.02302191645704"><ele>260.0</ele><time>2026-04-21T14:18:25Z</time></trkpt><trkpt lat="43.188864876545985" lon="12.022939911035508"><ele>260.0</ele><time>2026-04-21T14:18:26Z</time></trkpt><trkpt lat="43.18880650610661" lon="12.022901173390137"><ele>260.0</ele><time>2026-04-21T14:18:27Z</time></trkpt><trkpt lat="43.18873786255258" lon="12.022892789500004"><ele>260.0</ele><time>2026-04-21T14:18:28Z</time></trkpt><trkpt lat="43.18865600405194" lon="12.022907158489014"><ele>260.0</ele><time>2026-04-21T14:18:29Z</time></trkpt><trkpt lat="43.18857290987737" lon="12.022940725313527"><ele>260.0</ele><time>2026-04-21T14:18:30Z</time></trkpt><trkpt lat="43.18850637257981" lon="12.022965175477418"><ele>260.0</ele><time>2026-04-21T14:18:31Z</time></trkpt><trkpt lat="43.18833852664944" lon="12.02301036134631"><ele>260.0</ele><time>2026-04-21T14:18:33Z</time></trkpt><trkpt lat="43.18826985107135" lon="12.02301508915834"><ele>260.0</ele><time>2026-04-21T14:18:34Z</time></trkpt><trkpt lat="43.18816206885727" lon="12.023044001464767"><ele>260.0</ele><time>2026-04-21T14:18:36Z</time></trkpt><trkpt lat="43.18810027405679" lon="12.023070169989452"><ele>260.0</ele><time>2026-04-21T14:18:38Z</time></trkpt><trkpt lat="43.188007273236074" lon="12.023087143151866"><ele>260.0</ele><time>2026-04-21T14:21:31Z</time></trkpt><trkpt lat="43.187914595833874" lon="12.02312361671464"><ele>260.0</ele><time>2026-04-21T14:21:33Z</time></trkpt><trkpt lat="43.18781363249504" lon="12.023165452335196"><ele>260.0</ele><time>2026-04-21T14:21:35Z</time></trkpt><trkpt lat="43.18769388330323" lon="12.023218176317204"><ele>260.0</ele><time>2026-04-21T14:21:37Z</time></trkpt><trkpt lat="43.18758316359007" lon="12.023268050109145"><ele>260.0</ele><time>2026-04-21T14:21:39Z</time></trkpt><trkpt lat="43.187518991798285" lon="12.023296762213112"><ele>260.0</ele><time>2026-04-21T14:21:40Z</time></trkpt><trkpt lat="43.18745519514626" lon="12.023325306473357"><ele>260.0</ele><time>2026-04-21T14:21:41Z</time></trkpt><trkpt lat="43.18739355270573" lon="12.023348962483102"><ele>260.0</ele><time>2026-04-21T14:21:42Z</time></trkpt><trkpt lat="43.187332598598914" lon="12.023371041032846"><ele>260.33333333333337</ele><time>2026-04-21T14:21:43Z</time></trkpt><trkpt lat="43.187221207877734" lon="12.023353363128468"><ele>260.6666666666667</ele><time>2026-04-21T14:21:45Z</time></trkpt><trkpt lat="43.187154658613004" lon="12.023317429091849"><ele>261.0</ele><time>2026-04-21T14:21:46Z</time></trkpt><trkpt lat="43.18708174647823" lon="12.023275287674151"><ele>261.3333333333333</ele><time>2026-04-21T14:21:47Z</time></trkpt><trkpt lat="43.18700118949977" lon="12.023228727723907"><ele>261.66666666666663</ele><time>2026-04-21T14:21:48Z</time></trkpt><trkpt lat="43.18691542187923" lon="12.023179156148684"><ele>262.0</ele><time>2026-04-21T14:21:49Z</time></trkpt><trkpt lat="43.18682046430427" lon="12.023160949440147"><ele>262.0</ele><time>2026-04-21T14:21:50Z</time></trkpt><trkpt lat="43.18673045419746" lon="12.02313259676656"><ele>262.0</ele><time>2026-04-21T14:21:51Z</time></trkpt><trkpt lat="43.18664669307001" lon="12.023136206455971"><ele>262.0</ele><time>2026-04-21T14:21:52Z</time></trkpt><trkpt lat="43.186575122624646" lon="12.02314649998457"><ele>262.0</ele><time>2026-04-21T14:21:53Z</time></trkpt><trkpt lat="43.18650763021076" lon="12.023159846697615"><ele>262.0</ele><time>2026-04-21T14:21:54Z</time></trkpt><trkpt lat="43.18640396203155" lon="12.023175440305149"><ele>262.0</ele><time>2026-04-21T14:21:56Z</time></trkpt><trkpt lat="43.18635181524782" lon="12.02311851940007"><ele>262.0</ele><time>2026-04-21T14:21:58Z</time></trkpt><trkpt lat="43.186350801809255" lon="12.02301595962512"><ele>262.0</ele><time>2026-04-21T14:21:59Z</time></trkpt><trkpt lat="43.18631685137406" lon="12.022917065641655"><ele>262.0</ele><time>2026-04-21T14:22:00Z</time></trkpt><trkpt lat="43.18627950015091" lon="12.022808265572067"><ele>262.0</ele><time>2026-04-21T14:22:01Z</time></trkpt><trkpt lat="43.18623728261869" lon="12.022685891541714"><ele>262.0</ele><time>2026-04-21T14:22:02Z</time></trkpt><trkpt lat="43.18618001897612" lon="12.022565647329303"><ele>262.0</ele><time>2026-04-21T14:22:03Z</time></trkpt><trkpt lat="43.186140865268335" lon="12.022429937221354"><ele>262.0</ele><time>2026-04-21T14:22:04Z</time></trkpt><trkpt lat="43.18609877977159" lon="12.02229340166996"><ele>262.0</ele><time>2026-04-21T14:22:05Z</time></trkpt><trkpt lat="43.186058212689716" lon="12.022146235622813"><ele>262.0</ele><time>2026-04-21T14:22:06Z</time></trkpt><trkpt lat="43.18603242869624" lon="12.021983641892634"><ele>262.0</ele><time>2026-04-21T14:22:07Z</time></trkpt><trkpt lat="43.18599281440952" lon="12.021818110772278"><ele>262.0</ele><time>2026-04-21T14:22:08Z</time></trkpt><trkpt lat="43.18595189144769" lon="12.02164711123864"><ele>262.0</ele><time>2026-04-21T14:22:09Z</time></trkpt><trkpt lat="43.18589503610094" lon="12.021474229760873"><ele>262.0</ele><time>2026-04-21T14:22:10Z</time></trkpt><trkpt lat="43.185858516024986" lon="12.021299927121142"><ele>262.0</ele><time>2026-04-21T14:22:11Z</time></trkpt><trkpt lat="43.18581584646537" lon="12.021128033676957"><ele>262.0</ele><time>2026-04-21T14:22:12Z</time></trkpt><trkpt lat="43.185781207735985" lon="12.020964336656409"><ele>262.0</ele><time>2026-04-21T14:22:13Z</time></trkpt><trkpt lat="43.18574244649706" lon="12.020804018105048"><ele>262.0</ele><time>2026-04-21T14:22:14Z</time></trkpt><trkpt lat="43.18570038071202" lon="12.020645293914177"><ele>262.0</ele><time>2026-04-21T14:22:15Z</time></trkpt><trkpt lat="43.185667088785195" lon="12.0204713233312"><ele>261.75</ele><time>2026-04-21T14:22:16Z</time></trkpt><trkpt lat="43.18560758279555" lon="12.020303865444289"><ele>261.5</ele><time>2026-04-21T14:22:17Z</time></trkpt><trkpt lat="43.18553182039657" lon="12.02014666300911"><ele>261.25</ele><time>2026-04-21T14:22:18Z</time></trkpt><trkpt lat="43.1854243562379" lon="12.020013292376893"><ele>261.0</ele><time>2026-04-21T14:22:19Z</time></trkpt><trkpt lat="43.18531782821468" lon="12.019879981458656"><ele>260.3333333333333</ele><time>2026-04-21T14:22:20Z</time></trkpt><trkpt lat="43.185199075674625" lon="12.019763133869485"><ele>259.66666666666663</ele><time>2026-04-21T14:22:21Z</time></trkpt><trkpt lat="43.18506782900864" lon="12.019656365582518"><ele>259.0</ele><time>2026-04-21T14:22:22Z</time></trkpt><trkpt lat="43.18492863496919" lon="12.019549603337685"><ele>259.3333333333333</ele><time>2026-04-21T14:22:23Z</time></trkpt><trkpt lat="43.18478514486952" lon="12.019440727798793"><ele>259.6666666666667</ele><time>2026-04-21T14:22:24Z</time></trkpt><trkpt lat="43.18465357018769" lon="12.01931005743561"><ele>260.0</ele><time>2026-04-21T14:22:25Z</time></trkpt><trkpt lat="43.184507456049865" lon="12.019192638075197"><ele>259.6666666666667</ele><time>2026-04-21T14:22:26Z</time></trkpt><trkpt lat="43.18435988035591" lon="12.019077218549578"><ele>259.3333333333333</ele><time>2026-04-21T14:22:27Z</time></trkpt><trkpt lat="43.18421042732995" lon="12.01895892701432"><ele>259.0</ele><time>2026-04-21T14:22:28Z</time></trkpt><trkpt lat="43.18405383855777" lon="12.018850667433025"><ele>259.0</ele><time>2026-04-21T14:22:29Z</time></trkpt><trkpt lat="43.18390280701823" lon="12.018719094700257"><ele>259.0</ele><time>2026-04-21T14:22:30Z</time></trkpt><trkpt lat="43.18375241285113" lon="12.018592808055992"><ele>259.0</ele><time>2026-04-21T14:22:31Z</time></trkpt><trkpt lat="43.18360016632185" lon="12.018457385905556"><ele>259.0</ele><time>2026-04-21T14:22:32Z</time></trkpt><trkpt lat="43.183450494909835" lon="12.018322544857972"><ele>259.0</ele><time>2026-04-21T14:22:32.999Z</time></trkpt><trkpt lat="43.183307298292256" lon="12.018166722100911"><ele>259.0</ele><time>2026-04-21T14:22:34Z</time></trkpt><trkpt lat="43.18314527616118" lon="12.018041182001838"><ele>260.0</ele><time>2026-04-21T14:22:35Z</time></trkpt><trkpt lat="43.18299277121895" lon="12.01790497671098"><ele>261.0</ele><time>2026-04-21T14:22:36Z</time></trkpt><trkpt lat="43.182843524979745" lon="12.017758879353627"><ele>262.0</ele><time>2026-04-21T14:22:37Z</time></trkpt><trkpt lat="43.182700641704976" lon="12.017608273426838"><ele>262.3333333333333</ele><time>2026-04-21T14:22:38Z</time></trkpt><trkpt lat="43.182573761736606" lon="12.017437316863505"><ele>262.6666666666667</ele><time>2026-04-21T14:22:39Z</time></trkpt><trkpt lat="43.18243849689212" lon="12.017281681324421"><ele>263.0</ele><time>2026-04-21T14:22:40Z</time></trkpt><trkpt lat="43.18231436030946" lon="12.017123387674546"><ele>263.0</ele><time>2026-04-21T14:22:41Z</time></trkpt><trkpt lat="43.18220693369144" lon="12.016944105993568"><ele>263.0</ele><time>2026-04-21T14:22:42Z</time></trkpt><trkpt lat="43.182118428528675" lon="12.016742925396182"><ele>263.0</ele><time>2026-04-21T14:22:43Z</time></trkpt><trkpt lat="43.182034529022516" lon="12.01653700435734"><ele>264.0</ele><time>2026-04-21T14:22:44Z</time></trkpt><trkpt lat="43.18194969359602" lon="12.016328028458682"><ele>265.0</ele><time>2026-04-21T14:22:45Z</time></trkpt><trkpt lat="43.18185763904596" lon="12.016096985364767"><ele>266.0</ele><time>2026-04-21T14:22:46Z</time></trkpt><trkpt lat="43.18175738130983" lon="12.01584548090527"><ele>266.0</ele><time>2026-04-21T14:22:47Z</time></trkpt><trkpt lat="43.18165656797423" lon="12.015594658151814"><ele>266.0</ele><time>2026-04-21T14:22:48Z</time></trkpt><trkpt lat="43.18155002884393" lon="12.01536788090741"><ele>266.0</ele><time>2026-04-21T14:22:49Z</time></trkpt><trkpt lat="43.181467557051405" lon="12.01512641594435"><ele>266.33333333333337</ele><time>2026-04-21T14:22:50Z</time></trkpt><trkpt lat="43.1813565739933" lon="12.014910591392074"><ele>266.6666666666667</ele><time>2026-04-21T14:22:51Z</time></trkpt><trkpt lat="43.18126184302782" lon="12.01468898974031"><ele>267.0</ele><time>2026-04-21T14:22:52Z</time></trkpt><trkpt lat="43.181175486108245" lon="12.014488335394043"><ele>267.0</ele><time>2026-04-21T14:22:53Z</time></trkpt><trkpt lat="43.181095578240416" lon="12.01431259859924"><ele>267.0</ele><time>2026-04-21T14:22:54Z</time></trkpt><trkpt lat="43.18103726247065" lon="12.014151208171361"><ele>267.0</ele><time>2026-04-21T14:22:55Z</time></trkpt><trkpt lat="43.181009838053754" lon="12.014007225049577"><ele>267.0</ele><time>2026-04-21T14:22:56Z</time></trkpt><trkpt lat="43.18100587130221" lon="12.013862820926793"><ele>266.8</ele><time>2026-04-21T14:22:57Z</time></trkpt><trkpt lat="43.180989088830444" lon="12.013747101071244"><ele>266.6</ele><time>2026-04-21T14:22:58Z</time></trkpt><trkpt lat="43.18098237563865" lon="12.013657779058198"><ele>266.40000000000003</ele><time>2026-04-21T14:22:59Z</time></trkpt><trkpt lat="43.180954370408024" lon="12.013542553595538"><ele>266.2</ele><time>2026-04-21T14:23:08Z</time></trkpt><trkpt lat="43.18081991238113" lon="12.013549073434737"><ele>266.0</ele><time>2026-04-21T14:23:09Z</time></trkpt><trkpt lat="43.180718552674016" lon="12.013562117971494"><ele>266.5</ele><time>2026-04-21T14:23:10Z</time></trkpt><trkpt lat="43.18061052520375" lon="12.013573097768052"><ele>267.0</ele><time>2026-04-21T14:23:11Z</time></trkpt><trkpt lat="43.18048777723333" lon="12.013578340605774"><ele>267.5</ele><time>2026-04-21T14:23:12Z</time></trkpt><trkpt lat="43.180352617720075" lon="12.013585049485345"><ele>268.0</ele><time>2026-04-21T14:23:13Z</time></trkpt><trkpt lat="43.18021005523536" lon="12.013592829237519"><ele>268.0</ele><time>2026-04-21T14:23:14Z</time></trkpt><trkpt lat="43.18006559354099" lon="12.013604059706614"><ele>268.0</ele><time>2026-04-21T14:23:15Z</time></trkpt><trkpt lat="43.1799124639103" lon="12.013614982974719"><ele>268.0</ele><time>2026-04-21T14:23:16Z</time></trkpt><trkpt lat="43.17975794422603" lon="12.01362704485766"><ele>267.3333333333333</ele><time>2026-04-21T14:23:17Z</time></trkpt><trkpt lat="43.179597324756244" lon="12.01363869211339"><ele>266.6666666666667</ele><time>2026-04-21T14:23:18Z</time></trkpt><trkpt lat="43.179435446014004" lon="12.013649027496058"><ele>266.0</ele><time>2026-04-21T14:23:19Z</time></trkpt><trkpt lat="43.17927603933429" lon="12.013658295282793"><ele>266.0</ele><time>2026-04-21T14:23:20Z</time></trkpt><trkpt lat="43.17911086001373" lon="12.013666699630866"><ele>266.0</ele><time>2026-04-21T14:23:21Z</time></trkpt><trkpt lat="43.178944129353596" lon="12.013675943368462"><ele>266.0</ele><time>2026-04-21T14:23:22Z</time></trkpt><trkpt lat="43.17877837554843" lon="12.013687538660049"><ele>265.6666666666667</ele><time>2026-04-21T14:23:23Z</time></trkpt><trkpt lat="43.17861123361444" lon="12.01369964077367"><ele>265.3333333333333</ele><time>2026-04-21T14:23:24Z</time></trkpt><trkpt lat="43.178444010109644" lon="12.01371162960207"><ele>265.0</ele><time>2026-04-21T14:23:25Z</time></trkpt><trkpt lat="43.17827460825598" lon="12.013723232952309"><ele>264.66666666666663</ele><time>2026-04-21T14:23:26Z</time></trkpt><trkpt lat="43.178105083859286" lon="12.013736409900586"><ele>264.3333333333333</ele><time>2026-04-21T14:23:27Z</time></trkpt><trkpt lat="43.17793403789051" lon="12.013745395170721"><ele>264.0</ele><time>2026-04-21T14:23:28Z</time></trkpt><trkpt lat="43.17776368107982" lon="12.013755686351017"><ele>264.0</ele><time>2026-04-21T14:23:29Z</time></trkpt><trkpt lat="43.17759147593164" lon="12.013768702055131"><ele>264.0</ele><time>2026-04-21T14:23:30Z</time></trkpt><trkpt lat="43.17741600045385" lon="12.013781435557748"><ele>264.0</ele><time>2026-04-21T14:23:31Z</time></trkpt><trkpt lat="43.1772408207446" lon="12.013794310353688"><ele>264.0</ele><time>2026-04-21T14:23:32Z</time></trkpt><trkpt lat="43.17706587713881" lon="12.013807542958093"><ele>264.0</ele><time>2026-04-21T14:23:33Z</time></trkpt><trkpt lat="43.17688841349225" lon="12.013819376762568"><ele>264.0</ele><time>2026-04-21T14:23:34Z</time></trkpt><trkpt lat="43.17671225589574" lon="12.013830296754845"><ele>264.0</ele><time>2026-04-21T14:23:35Z</time></trkpt><trkpt lat="43.176536102361496" lon="12.013843880147695"><ele>264.0</ele><time>2026-04-21T14:23:36Z</time></trkpt><trkpt lat="43.17635404686212" lon="12.013856474617569"><ele>264.0</ele><time>2026-04-21T14:23:37Z</time></trkpt><trkpt lat="43.176172771554036" lon="12.013870315587448"><ele>264.0</ele><time>2026-04-21T14:23:38Z</time></trkpt><trkpt lat="43.17599332531693" lon="12.013882387927685"><ele>264.0</ele><time>2026-04-21T14:23:39Z</time></trkpt><trkpt lat="43.175812776683586" lon="12.013896029078579"><ele>264.0</ele><time>2026-04-21T14:23:40Z</time></trkpt><trkpt lat="43.17563481985461" lon="12.01390632334582"><ele>264.0</ele><time>2026-04-21T14:23:41Z</time></trkpt><trkpt lat="43.17545259828829" lon="12.013913403551514"><ele>264.0</ele><time>2026-04-21T14:23:42Z</time></trkpt><trkpt lat="43.17527603641992" lon="12.013924200089464"><ele>264.0</ele><time>2026-04-21T14:23:43Z</time></trkpt><trkpt lat="43.17509728633152" lon="12.013934048219989"><ele>264.0</ele><time>2026-04-21T14:23:44Z</time></trkpt><trkpt lat="43.1749206581607" lon="12.01394631304028"><ele>264.0</ele><time>2026-04-21T14:23:45Z</time></trkpt><trkpt lat="43.174736088935056" lon="12.013955230106383"><ele>264.0</ele><time>2026-04-21T14:23:46Z</time></trkpt><trkpt lat="43.17455813231116" lon="12.013968487717577"><ele>263.6666666666667</ele><time>2026-04-21T14:23:47Z</time></trkpt><trkpt lat="43.174377188282996" lon="12.013979343437068"><ele>263.33333333333337</ele><time>2026-04-21T14:23:48Z</time></trkpt><trkpt lat="43.17419903636206" lon="12.013990571549922"><ele>263.0</ele><time>2026-04-21T14:23:49Z</time></trkpt><trkpt lat="43.17401721764817" lon="12.014002642103957"><ele>263.0</ele><time>2026-04-21T14:23:50Z</time></trkpt><trkpt lat="43.17383576926726" lon="12.01401248048805"><ele>263.0</ele><time>2026-04-21T14:23:51Z</time></trkpt><trkpt lat="43.17365766670314" lon="12.014026427502394"><ele>263.0</ele><time>2026-04-21T14:23:52Z</time></trkpt><trkpt lat="43.1734839298759" lon="12.014035068431578"><ele>263.0</ele><time>2026-04-21T14:23:53Z</time></trkpt><trkpt lat="43.17331817145316" lon="12.014046023006278"><ele>263.0</ele><time>2026-04-21T14:23:54Z</time></trkpt><trkpt lat="43.173159042529655" lon="12.014052963222921"><ele>263.0</ele><time>2026-04-21T14:23:55Z</time></trkpt><trkpt lat="43.17300256591285" lon="12.014063828093978"><ele>262.6666666666667</ele><time>2026-04-21T14:23:56Z</time></trkpt><trkpt lat="43.17284013731117" lon="12.014078872101232"><ele>262.3333333333333</ele><time>2026-04-21T14:23:57Z</time></trkpt><trkpt lat="43.17267449966935" lon="12.014090835661431"><ele>262.0</ele><time>2026-04-21T14:23:58Z</time></trkpt><trkpt lat="43.172509158677336" lon="12.01410084891191"><ele>262.0</ele><time>2026-04-21T14:23:59Z</time></trkpt><trkpt lat="43.17234081585822" lon="12.01410541586524"><ele>262.0</ele><time>2026-04-21T14:24:00Z</time></trkpt><trkpt lat="43.1721687325425" lon="12.014115524866792"><ele>262.0</ele><time>2026-04-21T14:24:01Z</time></trkpt><trkpt lat="43.1719927470673" lon="12.014128950975456"><ele>262.0</ele><time>2026-04-21T14:24:02Z</time></trkpt><trkpt lat="43.171814419890374" lon="12.014144116962969"><ele>262.0</ele><time>2026-04-21T14:24:03Z</time></trkpt><trkpt lat="43.171634540597765" lon="12.014157926678429"><ele>262.0</ele><time>2026-04-21T14:24:04Z</time></trkpt><trkpt lat="43.17144631263777" lon="12.01416758873275"><ele>262.0</ele><time>2026-04-21T14:24:05Z</time></trkpt><trkpt lat="43.17126067168251" lon="12.014179926697267"><ele>262.0</ele><time>2026-04-21T14:24:06Z</time></trkpt><trkpt lat="43.171075942388725" lon="12.014196789895141"><ele>262.0</ele><time>2026-04-21T14:24:07Z</time></trkpt><trkpt lat="43.1708872943861" lon="12.014208057507217"><ele>262.0</ele><time>2026-04-21T14:24:08Z</time></trkpt><trkpt lat="43.17070205187352" lon="12.014225341153209"><ele>262.0</ele><time>2026-04-21T14:24:09Z</time></trkpt><trkpt lat="43.17052920613468" lon="12.01424217157851"><ele>262.0</ele><time>2026-04-21T14:24:10Z</time></trkpt><trkpt lat="43.1703594572655" lon="12.01424983571202"><ele>261.66666666666663</ele><time>2026-04-21T14:24:11Z</time></trkpt><trkpt lat="43.17019273617822" lon="12.014255325881804"><ele>261.3333333333333</ele><time>2026-04-21T14:24:12Z</time></trkpt><trkpt lat="43.17003701310898" lon="12.014269161772617"><ele>261.0</ele><time>2026-04-21T14:24:13Z</time></trkpt><trkpt lat="43.169888501862246" lon="12.014286063792259"><ele>261.0</ele><time>2026-04-21T14:24:14Z</time></trkpt><trkpt lat="43.16974252762174" lon="12.014298762030094"><ele>261.0</ele><time>2026-04-21T14:24:15Z</time></trkpt><trkpt lat="43.16960163315958" lon="12.014313410641744"><ele>261.0</ele><time>2026-04-21T14:24:16Z</time></trkpt><trkpt lat="43.16945809034303" lon="12.014323271058569"><ele>261.0</ele><time>2026-04-21T14:24:17Z</time></trkpt><trkpt lat="43.169320764405036" lon="12.01433301693801"><ele>261.0</ele><time>2026-04-21T14:24:18Z</time></trkpt><trkpt lat="43.16919842261134" lon="12.014343284496183"><ele>261.0</ele><time>2026-04-21T14:24:19Z</time></trkpt><trkpt lat="43.16910230502444" lon="12.014348365943412"><ele>261.0</ele><time>2026-04-21T14:24:20Z</time></trkpt><trkpt lat="43.169017229865936" lon="12.014325942267309"><ele>261.0</ele><time>2026-04-21T14:24:22Z</time></trkpt><trkpt lat="43.16914290411478" lon="12.01435463142953"><ele>261.0</ele><time>2026-04-21T14:24:33Z</time></trkpt><trkpt lat="43.169281204923784" lon="12.014383177175743"><ele>261.0</ele><time>2026-04-21T14:24:34Z</time></trkpt><trkpt lat="43.16941980783052" lon="12.01436920361267"><ele>261.0</ele><time>2026-04-21T14:24:35Z</time></trkpt><trkpt lat="43.16958127952438" lon="12.014351017223575"><ele>261.0</ele><time>2026-04-21T14:24:36Z</time></trkpt><trkpt lat="43.16975120280215" lon="12.014328581069417"><ele>261.0</ele><time>2026-04-21T14:24:37Z</time></trkpt><trkpt lat="43.16992594682151" lon="12.014314532968406"><ele>261.0</ele><time>2026-04-21T14:24:38Z</time></trkpt><trkpt lat="43.170110014819436" lon="12.014302301798567"><ele>261.0</ele><time>2026-04-21T14:24:39Z</time></trkpt><trkpt lat="43.17029763632049" lon="12.014284494592566"><ele>261.0</ele><time>2026-04-21T14:24:40Z</time></trkpt><trkpt lat="43.17047859925273" lon="12.014266135346114"><ele>261.0</ele><time>2026-04-21T14:24:41Z</time></trkpt><trkpt lat="43.170660040959156" lon="12.014251635537297"><ele>261.0</ele><time>2026-04-21T14:24:42Z</time></trkpt><trkpt lat="43.170845517519496" lon="12.01423579031236"><ele>261.3333333333333</ele><time>2026-04-21T14:24:43Z</time></trkpt><trkpt lat="43.17103202277892" lon="12.01422030493792"><ele>261.66666666666663</ele><time>2026-04-21T14:24:44Z</time></trkpt><trkpt lat="43.1712233444693" lon="12.014210934445579"><ele>262.0</ele><time>2026-04-21T14:24:45Z</time></trkpt><trkpt lat="43.17141065587983" lon="12.014195432081525"><ele>261.0</ele><time>2026-04-21T14:24:46Z</time></trkpt><trkpt lat="43.17160356182916" lon="12.014180145379253"><ele>260.0</ele><time>2026-04-21T14:24:47Z</time></trkpt><trkpt lat="43.17179792920765" lon="12.014164236431819"><ele>259.0</ele><time>2026-04-21T14:24:48Z</time></trkpt><trkpt lat="43.171997372706684" lon="12.014155120124428"><ele>260.0</ele><time>2026-04-21T14:24:49Z</time></trkpt><trkpt lat="43.17219441907227" lon="12.014145330469951"><ele>261.0</ele><time>2026-04-21T14:24:50Z</time></trkpt><trkpt lat="43.172386572631844" lon="12.014132146085966"><ele>262.0</ele><time>2026-04-21T14:24:51Z</time></trkpt><trkpt lat="43.17257620017996" lon="12.01411955501564"><ele>262.0</ele><time>2026-04-21T14:24:52Z</time></trkpt><trkpt lat="43.17276306103889" lon="12.014109037588508"><ele>262.0</ele><time>2026-04-21T14:24:53Z</time></trkpt><trkpt lat="43.17294688971409" lon="12.014099542288161"><ele>262.0</ele><time>2026-04-21T14:24:54Z</time></trkpt><trkpt lat="43.17312118091421" lon="12.01409005788709"><ele>262.3333333333333</ele><time>2026-04-21T14:24:55Z</time></trkpt><trkpt lat="43.17328587627037" lon="12.014079684996023"><ele>262.6666666666667</ele><time>2026-04-21T14:24:56Z</time></trkpt><trkpt lat="43.17344051700112" lon="12.014069978997462"><ele>263.0</ele><time>2026-04-21T14:24:57Z</time></trkpt><trkpt lat="43.173585001557974" lon="12.014059265936655"><ele>263.0</ele><time>2026-04-21T14:24:58Z</time></trkpt><trkpt lat="43.17372139062789" lon="12.014052565018254"><ele>263.0</ele><time>2026-04-21T14:24:59Z</time></trkpt><trkpt lat="43.17385174688862" lon="12.014040540902695"><ele>263.0</ele><time>2026-04-21T14:25:00Z</time></trkpt><trkpt lat="43.1739706654295" lon="12.014027376662728"><ele>263.0</ele><time>2026-04-21T14:25:01Z</time></trkpt><trkpt lat="43.17406475731779" lon="12.014042959470206"><ele>263.0</ele><time>2026-04-21T14:25:02Z</time></trkpt><trkpt lat="43.174134561449875" lon="12.014039551311258"><ele>263.0</ele><time>2026-04-21T14:25:03Z</time></trkpt><trkpt lat="43.17419315224422" lon="12.01392468343862"><ele>263.0</ele><time>2026-04-21T14:25:04Z</time></trkpt><trkpt lat="43.174229791480826" lon="12.013847681960284"><ele>263.0</ele><time>2026-04-21T14:25:05Z</time></trkpt><trkpt lat="43.17424111301786" lon="12.013734114224704"><ele>263.0</ele><time>2026-04-21T14:25:06Z</time></trkpt><trkpt lat="43.17420402069731" lon="12.01364706837734"><ele>263.0</ele><time>2026-04-21T14:25:07Z</time></trkpt><trkpt lat="43.174188666610796" lon="12.013558510775786"><ele>263.0</ele><time>2026-04-21T14:25:08Z</time></trkpt><trkpt lat="43.1741888156255" lon="12.013453592697775"><ele>263.0</ele><time>2026-04-21T14:25:09Z</time></trkpt><trkpt lat="43.174196434620676" lon="12.013347575795278"><ele>263.0</ele><time>2026-04-21T14:25:10Z</time></trkpt><trkpt lat="43.174279939659456" lon="12.013252352872485"><ele>263.0</ele><time>2026-04-21T14:25:11Z</time></trkpt><trkpt lat="43.17436573174647" lon="12.013149823495091"><ele>263.0</ele><time>2026-04-21T14:25:12Z</time></trkpt><trkpt lat="43.174445067448616" lon="12.013040275127198"><ele>263.2</ele><time>2026-04-21T14:25:13Z</time></trkpt><trkpt lat="43.17449190737408" lon="12.012921961556565"><ele>263.4</ele><time>2026-04-21T14:25:14Z</time></trkpt><trkpt lat="43.17450198659427" lon="12.01279695908462"><ele>263.59999999999997</ele><time>2026-04-21T14:25:15Z</time></trkpt><trkpt lat="43.17448812117751" lon="12.012660355784528"><ele>263.8</ele><time>2026-04-21T14:25:16Z</time></trkpt><trkpt lat="43.17444394673978" lon="12.012525107556902"><ele>264.0</ele><time>2026-04-21T14:25:17Z</time></trkpt><trkpt lat="43.17437659102177" lon="12.012370877224232"><ele>264.5</ele><time>2026-04-21T14:25:18Z</time></trkpt><trkpt lat="43.1743028164692" lon="12.012204803366638"><ele>265.0</ele><time>2026-04-21T14:25:19Z</time></trkpt><trkpt lat="43.17422347154621" lon="12.012029917139033"><ele>265.5</ele><time>2026-04-21T14:25:20Z</time></trkpt><trkpt lat="43.17414890375526" lon="12.01186197278851"><ele>266.0</ele><time>2026-04-21T14:25:21Z</time></trkpt><trkpt lat="43.17407646652757" lon="12.011677229311031"><ele>266.0</ele><time>2026-04-21T14:25:22Z</time></trkpt><trkpt lat="43.173993258262364" lon="12.011495624493168"><ele>266.0</ele><time>2026-04-21T14:25:23Z</time></trkpt><trkpt lat="43.173925130089394" lon="12.011296177235584"><ele>266.0</ele><time>2026-04-21T14:25:24Z</time></trkpt><trkpt lat="43.173832105569126" lon="12.011113464473306"><ele>266.0</ele><time>2026-04-21T14:25:25Z</time></trkpt><trkpt lat="43.17375039377003" lon="12.010913686513259"><ele>266.0</ele><time>2026-04-21T14:25:26Z</time></trkpt><trkpt lat="43.173666899295185" lon="12.01071304095734"><ele>266.0</ele><time>2026-04-21T14:25:27Z</time></trkpt><trkpt lat="43.173581779425625" lon="12.010506503028989"><ele>266.33333333333337</ele><time>2026-04-21T14:25:28Z</time></trkpt><trkpt lat="43.173497528710335" lon="12.01030699753637"><ele>266.6666666666667</ele><time>2026-04-21T14:25:29Z</time></trkpt><trkpt lat="43.17342784599663" lon="12.010095116653016"><ele>267.0</ele><time>2026-04-21T14:25:30Z</time></trkpt><trkpt lat="43.17334424355594" lon="12.009895340640544"><ele>267.0</ele><time>2026-04-21T14:25:31Z</time></trkpt><trkpt lat="43.173261716723005" lon="12.009698134920937"><ele>267.0</ele><time>2026-04-21T14:25:32Z</time></trkpt><trkpt lat="43.1731460918652" lon="12.009440140944257"><ele>267.0</ele><time>2026-04-21T14:25:33Z</time></trkpt><trkpt lat="43.1730481699081" lon="12.0092161588164"><ele>267.3333333333333</ele><time>2026-04-21T14:25:34Z</time></trkpt><trkpt lat="43.1729563738214" lon="12.008994054172236"><ele>267.66666666666663</ele><time>2026-04-21T14:25:35Z</time></trkpt><trkpt lat="43.17286225488867" lon="12.008769350144942"><ele>268.0</ele><time>2026-04-21T14:25:36Z</time></trkpt><trkpt lat="43.1727687176448" lon="12.008541562412582"><ele>268.3333333333333</ele><time>2026-04-21T14:25:37Z</time></trkpt><trkpt lat="43.17267659094358" lon="12.008310752762162"><ele>268.6666666666667</ele><time>2026-04-21T14:25:38Z</time></trkpt><trkpt lat="43.17257753817977" lon="12.008085262778776"><ele>269.0</ele><time>2026-04-21T14:25:39Z</time></trkpt><trkpt lat="43.172484983991104" lon="12.007856841133945"><ele>269.0</ele><time>2026-04-21T14:25:40Z</time></trkpt><trkpt lat="43.17239408052255" lon="12.007628977742941"><ele>269.0</ele><time>2026-04-21T14:25:41Z</time></trkpt><trkpt lat="43.172308153106464" lon="12.007416188789788"><ele>269.0</ele><time>2026-04-21T14:25:42Z</time></trkpt><trkpt lat="43.17222894611242" lon="12.00722011213747"><ele>269.0</ele><time>2026-04-21T14:25:43Z</time></trkpt><trkpt lat="43.17218187925439" lon="12.007015650377694"><ele>269.0</ele><time>2026-04-21T14:25:44Z</time></trkpt><trkpt lat="43.17216038172279" lon="12.006819346977887"><ele>269.0</ele><time>2026-04-21T14:25:45Z</time></trkpt><trkpt lat="43.17218184448107" lon="12.006641648056464"><ele>269.0</ele><time>2026-04-21T14:25:46Z</time></trkpt><trkpt lat="43.172227445863264" lon="12.006491206402698"><ele>269.0</ele><time>2026-04-21T14:25:47Z</time></trkpt><trkpt lat="43.17229233338831" lon="12.006320251228132"><ele>269.0</ele><time>2026-04-21T14:25:48Z</time></trkpt><trkpt lat="43.17236506222926" lon="12.006145776880704"><ele>269.0</ele><time>2026-04-21T14:25:49Z</time></trkpt><trkpt lat="43.172447016250295" lon="12.005949364183994"><ele>269.0</ele><time>2026-04-21T14:25:50Z</time></trkpt><trkpt lat="43.17252732994786" lon="12.005756882813023"><ele>269.0</ele><time>2026-04-21T14:25:51Z</time></trkpt><trkpt lat="43.17259590201925" lon="12.005547433194726"><ele>269.0</ele><time>2026-04-21T14:25:52Z</time></trkpt><trkpt lat="43.172697794448304" lon="12.005349490918896"><ele>269.0</ele><time>2026-04-21T14:25:53Z</time></trkpt><trkpt lat="43.17278707075862" lon="12.005137403121287"><ele>269.0</ele><time>2026-04-21T14:25:54Z</time></trkpt><trkpt lat="43.17287649684365" lon="12.004924959730394"><ele>269.0</ele><time>2026-04-21T14:25:55Z</time></trkpt><trkpt lat="43.17296489042048" lon="12.004714969322965"><ele>269.0</ele><time>2026-04-21T14:25:56Z</time></trkpt><trkpt lat="43.17305337241659" lon="12.004500972191416"><ele>269.0</ele><time>2026-04-21T14:25:57Z</time></trkpt><trkpt lat="43.173127045714345" lon="12.0042795655703"><ele>269.0</ele><time>2026-04-21T14:25:58Z</time></trkpt><trkpt lat="43.17322113542518" lon="12.00406253350433"><ele>269.0</ele><time>2026-04-21T14:25:59Z</time></trkpt><trkpt lat="43.1733202175119" lon="12.003850935044493"><ele>269.0</ele><time>2026-04-21T14:26:00Z</time></trkpt><trkpt lat="43.17339935170122" lon="12.00364718316645"><ele>269.0</ele><time>2026-04-21T14:26:01Z</time></trkpt><trkpt lat="43.17347345509548" lon="12.003457785933545"><ele>269.6666666666667</ele><time>2026-04-21T14:26:02Z</time></trkpt><trkpt lat="43.17354098852593" lon="12.003274407975292"><ele>270.3333333333333</ele><time>2026-04-21T14:26:03Z</time></trkpt><trkpt lat="43.173595589817566" lon="12.00307031049593"><ele>271.0</ele><time>2026-04-21T14:26:04Z</time></trkpt><trkpt lat="43.173622577164004" lon="12.002831592305316"><ele>271.0</ele><time>2026-04-21T14:26:05Z</time></trkpt><trkpt lat="43.17362647301856" lon="12.002585514473756"><ele>271.0</ele><time>2026-04-21T14:26:06Z</time></trkpt><trkpt lat="43.17363113223847" lon="12.002329530673943"><ele>271.0</ele><time>2026-04-21T14:26:07Z</time></trkpt><trkpt lat="43.17364328555689" lon="12.002069181870388"><ele>271.66666666666663</ele><time>2026-04-21T14:26:08Z</time></trkpt><trkpt lat="43.173656363462" lon="12.001805298394792"><ele>272.3333333333333</ele><time>2026-04-21T14:26:09Z</time></trkpt><trkpt lat="43.17367247290338" lon="12.001540311494319"><ele>273.0</ele><time>2026-04-21T14:26:10Z</time></trkpt><trkpt lat="43.173688123480744" lon="12.001266455167384"><ele>273.0</ele><time>2026-04-21T14:26:11Z</time></trkpt><trkpt lat="43.1737088809152" lon="12.000987533631069"><ele>273.0</ele><time>2026-04-21T14:26:12Z</time></trkpt><trkpt lat="43.173746728614965" lon="12.000700599537035"><ele>273.0</ele><time>2026-04-21T14:26:13Z</time></trkpt><trkpt lat="43.17376671249981" lon="12.000427952209353"><ele>273.6666666666667</ele><time>2026-04-21T14:26:14Z</time></trkpt><trkpt lat="43.17377239607858" lon="12.00013762065156"><ele>274.33333333333337</ele><time>2026-04-21T14:26:15Z</time></trkpt><trkpt lat="43.17379141190814" lon="11.999853370845422"><ele>275.0</ele><time>2026-04-21T14:26:16Z</time></trkpt><trkpt lat="43.1738254291718" lon="11.999582012331315"><ele>275.0</ele><time>2026-04-21T14:26:17Z</time></trkpt><trkpt lat="43.173845153439075" lon="11.999291600256706"><ele>275.0</ele><time>2026-04-21T14:26:18Z</time></trkpt><trkpt lat="43.173864369475424" lon="11.999008671018169"><ele>275.0</ele><time>2026-04-21T14:26:19Z</time></trkpt><trkpt lat="43.1738690872866" lon="11.998711621030289"><ele>275.0</ele><time>2026-04-21T14:26:20Z</time></trkpt><trkpt lat="43.17389330469731" lon="11.998417550214992"><ele>275.0</ele><time>2026-04-21T14:26:20.999Z</time></trkpt><trkpt lat="43.173913615801155" lon="11.998120069469444"><ele>275.0</ele><time>2026-04-21T14:26:21.999Z</time></trkpt><trkpt lat="43.1739409500813" lon="11.997835933630935"><ele>274.6666666666667</ele><time>2026-04-21T14:26:22.999Z</time></trkpt><trkpt lat="43.173978049551316" lon="11.997533520893466"><ele>274.3333333333333</ele><time>2026-04-21T14:26:23.999Z</time></trkpt><trkpt lat="43.17401746288" lon="11.997245684493787"><ele>274.0</ele><time>2026-04-21T14:26:24.999Z</time></trkpt><trkpt lat="43.174072839679006" lon="11.996953407951592"><ele>273.3333333333333</ele><time>2026-04-21T14:26:25.999Z</time></trkpt><trkpt lat="43.17411678547339" lon="11.99666216582612"><ele>272.6666666666667</ele><time>2026-04-21T14:26:26.999Z</time></trkpt><trkpt lat="43.174161004961974" lon="11.99636910986306"><ele>272.0</ele><time>2026-04-21T14:26:27.999Z</time></trkpt><trkpt lat="43.17418684284438" lon="11.996069502529272"><ele>272.33333333333337</ele><time>2026-04-21T14:26:28.999Z</time></trkpt><trkpt lat="43.17424543749706" lon="11.995776166346666"><ele>272.6666666666667</ele><time>2026-04-21T14:26:29.999Z</time></trkpt><trkpt lat="43.17428969458872" lon="11.995476547244087"><ele>273.0</ele><time>2026-04-21T14:26:30.999Z</time></trkpt><trkpt lat="43.174332645441815" lon="11.995183266911017"><ele>273.6666666666667</ele><time>2026-04-21T14:26:31.999Z</time></trkpt><trkpt lat="43.17437470736424" lon="11.99488153294613"><ele>274.33333333333337</ele><time>2026-04-21T14:26:32.999Z</time></trkpt><trkpt lat="43.174400061707345" lon="11.994583955239815"><ele>275.0</ele><time>2026-04-21T14:26:33.999Z</time></trkpt><trkpt lat="43.174442143149534" lon="11.994282347001857"><ele>274.6666666666667</ele><time>2026-04-21T14:26:34.999Z</time></trkpt><trkpt lat="43.174501757026086" lon="11.993984267816895"><ele>274.3333333333333</ele><time>2026-04-21T14:26:35.999Z</time></trkpt><trkpt lat="43.174544234192716" lon="11.993684788905334"><ele>274.0</ele><time>2026-04-21T14:26:36.999Z</time></trkpt><trkpt lat="43.17458633191541" lon="11.993381451232336"><ele>273.3333333333333</ele><time>2026-04-21T14:26:37.999Z</time></trkpt><trkpt lat="43.17462618340519" lon="11.993094298921108"><ele>272.6666666666667</ele><time>2026-04-21T14:26:38.999Z</time></trkpt><trkpt lat="43.17466596170708" lon="11.992817872094816"><ele>272.0</ele><time>2026-04-21T14:26:39.999Z</time></trkpt><trkpt lat="43.17470458863149" lon="11.992566708102562"><ele>272.0</ele><time>2026-04-21T14:26:40.999Z</time></trkpt><trkpt lat="43.17474649699759" lon="11.992323751958631"><ele>272.0</ele><time>2026-04-21T14:26:41.999Z</time></trkpt><trkpt lat="43.17484620297917" lon="11.99211935463263"><ele>272.0</ele><time>2026-04-21T14:26:42.999Z</time></trkpt><trkpt lat="43.17495278905533" lon="11.991914266037067"><ele>272.6666666666667</ele><time>2026-04-21T14:26:43.999Z</time></trkpt><trkpt lat="43.17504528842326" lon="11.991706653298523"><ele>273.3333333333333</ele><time>2026-04-21T14:26:44.999Z</time></trkpt><trkpt lat="43.1751649004385" lon="11.991486959584531"><ele>274.0</ele><time>2026-04-21T14:26:45.999Z</time></trkpt><trkpt lat="43.17527937282103" lon="11.991262322847007"><ele>274.3333333333333</ele><time>2026-04-21T14:26:46.999Z</time></trkpt><trkpt lat="43.17539573762524" lon="11.991035644460558"><ele>274.6666666666667</ele><time>2026-04-21T14:26:47.999Z</time></trkpt><trkpt lat="43.17552921719987" lon="11.990821448123391"><ele>275.0</ele><time>2026-04-21T14:26:48.999Z</time></trkpt><trkpt lat="43.175651209551546" lon="11.990592593671145"><ele>275.6666666666667</ele><time>2026-04-21T14:26:49.999Z</time></trkpt><trkpt lat="43.17577555943165" lon="11.990359316705224"><ele>276.3333333333333</ele><time>2026-04-21T14:26:50.999Z</time></trkpt><trkpt lat="43.175902508491134" lon="11.990121096599132"><ele>277.0</ele><time>2026-04-21T14:26:51.999Z</time></trkpt><trkpt lat="43.17602935391719" lon="11.98987910192837"><ele>276.66666666666663</ele><time>2026-04-21T14:26:52.999Z</time></trkpt><trkpt lat="43.176155145044824" lon="11.989637671543148"><ele>276.3333333333333</ele><time>2026-04-21T14:26:53.999Z</time></trkpt><trkpt lat="43.17628247126569" lon="11.989395466584677"><ele>276.0</ele><time>2026-04-21T14:26:54.999Z</time></trkpt><trkpt lat="43.17640944201631" lon="11.989156425919836"><ele>275.6666666666667</ele><time>2026-04-21T14:26:55.999Z</time></trkpt><trkpt lat="43.176536494630625" lon="11.988917368897205"><ele>275.33333333333337</ele><time>2026-04-21T14:26:56.999Z</time></trkpt><trkpt lat="43.176666076840164" lon="11.988673542926959"><ele>275.0</ele><time>2026-04-21T14:26:57.999Z</time></trkpt><trkpt lat="43.17679599169535" lon="11.988429090882862"><ele>274.6666666666667</ele><time>2026-04-21T14:26:58.999Z</time></trkpt><trkpt lat="43.176925084216364" lon="11.9881855791242"><ele>274.3333333333333</ele><time>2026-04-21T14:26:59.999Z</time></trkpt><trkpt lat="43.17705320188836" lon="11.987943218888327"><ele>274.0</ele><time>2026-04-21T14:27:00.999Z</time></trkpt><trkpt lat="43.17718207909845" lon="11.987699421933293"><ele>274.3333333333333</ele><time>2026-04-21T14:27:01.999Z</time></trkpt><trkpt lat="43.17730888877379" lon="11.987459536072874"><ele>274.6666666666667</ele><time>2026-04-21T14:27:02.999Z</time></trkpt><trkpt lat="43.177430803328726" lon="11.987228910393982"><ele>275.0</ele><time>2026-04-21T14:27:03.999Z</time></trkpt><trkpt lat="43.17753606397804" lon="11.987001442980116"><ele>275.0</ele><time>2026-04-21T14:27:04.999Z</time></trkpt><trkpt lat="43.17764644065784" lon="11.986804600135018"><ele>275.0</ele><time>2026-04-21T14:27:05.999Z</time></trkpt><trkpt lat="43.17774412011908" lon="11.986634776539358"><ele>275.0</ele><time>2026-04-21T14:27:06.999Z</time></trkpt><trkpt lat="43.17785803086496" lon="11.986540349394474"><ele>275.4</ele><time>2026-04-21T14:27:07.999Z</time></trkpt><trkpt lat="43.17795410119255" lon="11.986462949597897"><ele>275.8</ele><time>2026-04-21T14:27:08.999Z</time></trkpt><trkpt lat="43.17802281736952" lon="11.98638735050229"><ele>276.2</ele><time>2026-04-21T14:27:09.999Z</time></trkpt><trkpt lat="43.17809355441556" lon="11.986346757255864"><ele>276.6</ele><time>2026-04-21T14:27:11.999Z</time></trkpt><trkpt lat="43.17802913838933" lon="11.986237351356333"><ele>277.0</ele><time>2026-04-21T14:27:12.999Z</time></trkpt><trkpt lat="43.17786300276978" lon="11.98619843626992"><ele>277.0</ele><time>2026-04-21T14:27:14.999Z</time></trkpt><trkpt lat="43.17773388567401" lon="11.986145080141508"><ele>277.0</ele><time>2026-04-21T14:27:15.999Z</time></trkpt><trkpt lat="43.17761336084626" lon="11.986082789035777"><ele>277.0</ele><time>2026-04-21T14:27:16.999Z</time></trkpt><trkpt lat="43.17747922331046" lon="11.986007899635194"><ele>277.0</ele><time>2026-04-21T14:27:17.999Z</time></trkpt><trkpt lat="43.177341134768085" lon="11.985923868516767"><ele>277.0</ele><time>2026-04-21T14:27:18.999Z</time></trkpt><trkpt lat="43.17719669833751" lon="11.9858340871909"><ele>277.0</ele><time>2026-04-21T14:27:19.999Z</time></trkpt><trkpt lat="43.17704333518935" lon="11.985736275264655"><ele>277.0</ele><time>2026-04-21T14:27:20.999Z</time></trkpt><trkpt lat="43.17688680401388" lon="11.985633443226416"><ele>277.0</ele><time>2026-04-21T14:27:21.999Z</time></trkpt><trkpt lat="43.17673058793548" lon="11.985530470310275"><ele>277.0</ele><time>2026-04-21T14:27:22.999Z</time></trkpt><trkpt lat="43.176569919125306" lon="11.985433575966333"><ele>277.0</ele><time>2026-04-21T14:27:23.999Z</time></trkpt><trkpt lat="43.17641133874407" lon="11.985330797924076"><ele>277.3333333333333</ele><time>2026-04-21T14:27:24.999Z</time></trkpt><trkpt lat="43.17625735208395" lon="11.985225387925714"><ele>277.6666666666667</ele><time>2026-04-21T14:27:25.999Z</time></trkpt><trkpt lat="43.17611753548402" lon="11.985139077338014"><ele>278.0</ele><time>2026-04-21T14:27:26.999Z</time></trkpt><trkpt lat="43.175975757470056" lon="11.985061892719433"><ele>278.0</ele><time>2026-04-21T14:27:27.999Z</time></trkpt><trkpt lat="43.175832261066624" lon="11.98501261917096"><ele>278.0</ele><time>2026-04-21T14:27:28.999Z</time></trkpt><trkpt lat="43.17568077575092" lon="11.98500730343822"><ele>278.0</ele><time>2026-04-21T14:27:29.999Z</time></trkpt><trkpt lat="43.175531668911994" lon="11.985045271848136"><ele>278.0</ele><time>2026-04-21T14:27:30.999Z</time></trkpt><trkpt lat="43.175373124479506" lon="11.985086013809708"><ele>278.0</ele><time>2026-04-21T14:27:31.999Z</time></trkpt><trkpt lat="43.17521307939407" lon="11.985112334152216"><ele>278.0</ele><time>2026-04-21T14:27:32.999Z</time></trkpt><trkpt lat="43.17504879380457" lon="11.98513155902578"><ele>278.0</ele><time>2026-04-21T14:27:33.999Z</time></trkpt><trkpt lat="43.17488159008906" lon="11.985161630021054"><ele>278.0</ele><time>2026-04-21T14:27:34.999Z</time></trkpt><trkpt lat="43.17470641424556" lon="11.985193281474931"><ele>278.0</ele><time>2026-04-21T14:27:35.999Z</time></trkpt><trkpt lat="43.17452763338324" lon="11.98522091285304"><ele>277.6666666666667</ele><time>2026-04-21T14:27:36.999Z</time></trkpt><trkpt lat="43.17434835603394" lon="11.985249158527429"><ele>277.3333333333333</ele><time>2026-04-21T14:27:37.999Z</time></trkpt><trkpt lat="43.17415809219811" lon="11.985275431199709"><ele>277.0</ele><time>2026-04-21T14:27:38.999Z</time></trkpt><trkpt lat="43.17396949618421" lon="11.985306459808353"><ele>278.0</ele><time>2026-04-21T14:27:39.999Z</time></trkpt><trkpt lat="43.17377257349464" lon="11.985337101369337"><ele>279.0</ele><time>2026-04-21T14:27:40.999Z</time></trkpt><trkpt lat="43.173580950125995" lon="11.985365219296563"><ele>280.0</ele><time>2026-04-21T14:27:41.999Z</time></trkpt><trkpt lat="43.17338163105565" lon="11.985391470257264"><ele>280.3333333333333</ele><time>2026-04-21T14:27:42.999Z</time></trkpt><trkpt lat="43.1731806137518" lon="11.985420351317172"><ele>280.6666666666667</ele><time>2026-04-21T14:27:43.999Z</time></trkpt><trkpt lat="43.172980701126214" lon="11.985451874654133"><ele>281.0</ele><time>2026-04-21T14:27:44.999Z</time></trkpt><trkpt lat="43.17277624720449" lon="11.985482415969056"><ele>281.0</ele><time>2026-04-21T14:27:45.999Z</time></trkpt><trkpt lat="43.17257373657543" lon="11.985512429838137"><ele>281.0</ele><time>2026-04-21T14:27:46.999Z</time></trkpt><trkpt lat="43.17236563316889" lon="11.98553974133602"><ele>281.0</ele><time>2026-04-21T14:27:47.999Z</time></trkpt><trkpt lat="43.17216223234366" lon="11.985575027731027"><ele>280.6666666666667</ele><time>2026-04-21T14:27:48.999Z</time></trkpt><trkpt lat="43.171955352938916" lon="11.98561201701643"><ele>280.3333333333333</ele><time>2026-04-21T14:27:49.999Z</time></trkpt><trkpt lat="43.17175069846582" lon="11.985644465271161"><ele>280.0</ele><time>2026-04-21T14:27:50.999Z</time></trkpt><trkpt lat="43.17154562809298" lon="11.985675736759802"><ele>278.66666666666663</ele><time>2026-04-21T14:27:51.999Z</time></trkpt><trkpt lat="43.171337993028295" lon="11.98570481172616"><ele>277.3333333333333</ele><time>2026-04-21T14:27:52.999Z</time></trkpt><trkpt lat="43.17113368408076" lon="11.985736669524144"><ele>276.0</ele><time>2026-04-21T14:27:53.999Z</time></trkpt><trkpt lat="43.170921811101664" lon="11.985771078372979"><ele>276.0</ele><time>2026-04-21T14:27:54.999Z</time></trkpt><trkpt lat="43.170709297535446" lon="11.985806082782812"><ele>276.0</ele><time>2026-04-21T14:27:55.999Z</time></trkpt><trkpt lat="43.17049068666871" lon="11.985836922491565"><ele>276.0</ele><time>2026-04-21T14:27:56.999Z</time></trkpt><trkpt lat="43.17027005894374" lon="11.985870995600743"><ele>275.5</ele><time>2026-04-21T14:27:57.999Z</time></trkpt><trkpt lat="43.17004783968296" lon="11.985903920862748"><ele>275.0</ele><time>2026-04-21T14:27:58.999Z</time></trkpt><trkpt lat="43.169820950282926" lon="11.985938412940278"><ele>275.0</ele><time>2026-04-21T14:27:59.999Z</time></trkpt><trkpt lat="43.169595157148976" lon="11.985975208382584"><ele>275.0</ele><time>2026-04-21T14:28:00.999Z</time></trkpt><trkpt lat="43.16936736421261" lon="11.986009872670675"><ele>275.0</ele><time>2026-04-21T14:28:01.999Z</time></trkpt><trkpt lat="43.16913821217863" lon="11.986044851923321"><ele>275.0</ele><time>2026-04-21T14:28:02.999Z</time></trkpt><trkpt lat="43.1689094135183" lon="11.986079008037109"><ele>276.5</ele><time>2026-04-21T14:28:03.999Z</time></trkpt><trkpt lat="43.16868285472496" lon="11.986114611033512"><ele>278.0</ele><time>2026-04-21T14:28:04.999Z</time></trkpt><trkpt lat="43.168453797290645" lon="11.986148906743495"><ele>278.0</ele><time>2026-04-21T14:28:05.999Z</time></trkpt><trkpt lat="43.16822687850947" lon="11.986182074982484"><ele>278.0</ele><time>2026-04-21T14:28:06.999Z</time></trkpt><trkpt lat="43.16799992993406" lon="11.986218769852242"><ele>278.0</ele><time>2026-04-21T14:28:07.999Z</time></trkpt><trkpt lat="43.16777566059509" lon="11.986255889162894"><ele>278.0</ele><time>2026-04-21T14:28:08.999Z</time></trkpt><trkpt lat="43.16755156569298" lon="11.986292553562519"><ele>278.0</ele><time>2026-04-21T14:28:09.999Z</time></trkpt><trkpt lat="43.167326458627635" lon="11.986327918744212"><ele>278.0</ele><time>2026-04-21T14:28:10.999Z</time></trkpt><trkpt lat="43.16710576055117" lon="11.986357757780734"><ele>278.0</ele><time>2026-04-21T14:28:11.999Z</time></trkpt><trkpt lat="43.166894315894595" lon="11.986386536612791"><ele>278.0</ele><time>2026-04-21T14:28:12.999Z</time></trkpt><trkpt lat="43.16668521754371" lon="11.986419502222672"><ele>278.0</ele><time>2026-04-21T14:28:13.999Z</time></trkpt><trkpt lat="43.16648409537458" lon="11.986456590651605"><ele>278.0</ele><time>2026-04-21T14:28:14.999Z</time></trkpt><trkpt lat="43.16628740641212" lon="11.986490881693443"><ele>277.6666666666667</ele><time>2026-04-21T14:28:15.999Z</time></trkpt><trkpt lat="43.16609325143498" lon="11.98652319558582"><ele>277.3333333333333</ele><time>2026-04-21T14:28:16.999Z</time></trkpt><trkpt lat="43.16590462518312" lon="11.986552907086836"><ele>277.0</ele><time>2026-04-21T14:28:17.999Z</time></trkpt><trkpt lat="43.1657122402982" lon="11.986575540615737"><ele>277.66666666666663</ele><time>2026-04-21T14:28:18.999Z</time></trkpt><trkpt lat="43.16552341512573" lon="11.98660433724871"><ele>278.3333333333333</ele><time>2026-04-21T14:28:19.999Z</time></trkpt><trkpt lat="43.16533184473785" lon="11.986631092299877"><ele>279.0</ele><time>2026-04-21T14:28:20.999Z</time></trkpt><trkpt lat="43.16513971018846" lon="11.98664201432185"><ele>279.0</ele><time>2026-04-21T14:28:21.999Z</time></trkpt><trkpt lat="43.16494088889753" lon="11.98662672201227"><ele>279.0</ele><time>2026-04-21T14:28:22.999Z</time></trkpt><trkpt lat="43.16473676954274" lon="11.986597234022137"><ele>279.0</ele><time>2026-04-21T14:28:23.999Z</time></trkpt><trkpt lat="43.16453034510074" lon="11.986565486261522"><ele>279.6666666666667</ele><time>2026-04-21T14:28:24.999Z</time></trkpt><trkpt lat="43.164321692190384" lon="11.986531289180173"><ele>280.33333333333337</ele><time>2026-04-21T14:28:25.999Z</time></trkpt><trkpt lat="43.16411023489151" lon="11.986502704801357"><ele>281.0</ele><time>2026-04-21T14:28:26.999Z</time></trkpt><trkpt lat="43.1638954253478" lon="11.986471414131586"><ele>281.33333333333337</ele><time>2026-04-21T14:28:27.999Z</time></trkpt><trkpt lat="43.163685071109626" lon="11.986437653646293"><ele>281.6666666666667</ele><time>2026-04-21T14:28:28.999Z</time></trkpt><trkpt lat="43.16347215177104" lon="11.9864075154488"><ele>282.0</ele><time>2026-04-21T14:28:29.999Z</time></trkpt><trkpt lat="43.163259416076514" lon="11.986376940867688"><ele>282.3333333333333</ele><time>2026-04-21T14:28:30.999Z</time></trkpt><trkpt lat="43.16304366980105" lon="11.986341366723956"><ele>282.66666666666663</ele><time>2026-04-21T14:28:31.999Z</time></trkpt><trkpt lat="43.16283062340632" lon="11.986308222219012"><ele>283.0</ele><time>2026-04-21T14:28:32.999Z</time></trkpt><trkpt lat="43.16261559926061" lon="11.986274214181709"><ele>283.0</ele><time>2026-04-21T14:28:33.999Z</time></trkpt><trkpt lat="43.16240165722905" lon="11.986242566597193"><ele>283.0</ele><time>2026-04-21T14:28:34.999Z</time></trkpt><trkpt lat="43.16218761560578" lon="11.986209216020326"><ele>283.0</ele><time>2026-04-21T14:28:35.999Z</time></trkpt><trkpt lat="43.16197929166101" lon="11.986179064559893"><ele>283.0</ele><time>2026-04-21T14:28:36.999Z</time></trkpt><trkpt lat="43.16177460704352" lon="11.986148276678861"><ele>283.0</ele><time>2026-04-21T14:28:37.999Z</time></trkpt><trkpt lat="43.16157797857992" lon="11.986122077579127"><ele>283.0</ele><time>2026-04-21T14:28:38.999Z</time></trkpt><trkpt lat="43.161376324106286" lon="11.986092530744115"><ele>283.3333333333333</ele><time>2026-04-21T14:28:39.999Z</time></trkpt><trkpt lat="43.16117751434388" lon="11.986063668598016"><ele>283.6666666666667</ele><time>2026-04-21T14:28:40.999Z</time></trkpt><trkpt lat="43.160977600665085" lon="11.986035862060602"><ele>284.0</ele><time>2026-04-21T14:28:41.999Z</time></trkpt><trkpt lat="43.16077557102279" lon="11.986008368090872"><ele>284.33333333333337</ele><time>2026-04-21T14:28:42.999Z</time></trkpt><trkpt lat="43.160576560319015" lon="11.985980477374698"><ele>284.6666666666667</ele><time>2026-04-21T14:28:43.999Z</time></trkpt><trkpt lat="43.16037315448118" lon="11.985954685178559"><ele>285.0</ele><time>2026-04-21T14:28:44.999Z</time></trkpt><trkpt lat="43.16016203575725" lon="11.985925287981718"><ele>285.0</ele><time>2026-04-21T14:28:45.999Z</time></trkpt><trkpt lat="43.159956954716336" lon="11.985879001327595"><ele>285.0</ele><time>2026-04-21T14:28:46.999Z</time></trkpt><trkpt lat="43.15974749862252" lon="11.985846939619547"><ele>285.0</ele><time>2026-04-21T14:28:47.999Z</time></trkpt><trkpt lat="43.15953702683555" lon="11.985814722494922"><ele>286.0</ele><time>2026-04-21T14:28:48.999Z</time></trkpt><trkpt lat="43.15932768345088" lon="11.985782678052086"><ele>287.0</ele><time>2026-04-21T14:28:49.999Z</time></trkpt><trkpt lat="43.159102919511064" lon="11.98576586903152"><ele>288.0</ele><time>2026-04-21T14:28:50.999Z</time></trkpt><trkpt lat="43.15888504325935" lon="11.985738035429245"><ele>288.3333333333333</ele><time>2026-04-21T14:28:52Z</time></trkpt><trkpt lat="43.15866656917502" lon="11.985703145098462"><ele>288.66666666666663</ele><time>2026-04-21T14:28:53Z</time></trkpt><trkpt lat="43.15844580152455" lon="11.985665140637597"><ele>289.0</ele><time>2026-04-21T14:28:54Z</time></trkpt><trkpt lat="43.15822409292474" lon="11.98563156301226"><ele>288.3333333333333</ele><time>2026-04-21T14:28:55Z</time></trkpt><trkpt lat="43.15801027725213" lon="11.985600842536734"><ele>287.6666666666667</ele><time>2026-04-21T14:28:55.999Z</time></trkpt><trkpt lat="43.1578019400292" lon="11.985582651923295"><ele>287.0</ele><time>2026-04-21T14:28:56.999Z</time></trkpt><trkpt lat="43.157595707986744" lon="11.985591765388053"><ele>287.0</ele><time>2026-04-21T14:28:57.999Z</time></trkpt><trkpt lat="43.1573980848843" lon="11.985555302956245"><ele>287.0</ele><time>2026-04-21T14:28:58.999Z</time></trkpt><trkpt lat="43.15719635732845" lon="11.985697728854408"><ele>287.0</ele><time>2026-04-21T14:28:59.999Z</time></trkpt><trkpt lat="43.15699226139298" lon="11.98576178155978"><ele>285.33333333333337</ele><time>2026-04-21T14:29:00.999Z</time></trkpt><trkpt lat="43.156799305369624" lon="11.985820168687027"><ele>283.6666666666667</ele><time>2026-04-21T14:29:01.999Z</time></trkpt><trkpt lat="43.156611662768015" lon="11.985867190777734"><ele>282.0</ele><time>2026-04-21T14:29:02.999Z</time></trkpt><trkpt lat="43.15643042551157" lon="11.985910783976482"><ele>281.5</ele><time>2026-04-21T14:29:03.999Z</time></trkpt><trkpt lat="43.15626698155908" lon="11.985947219615515"><ele>281.0</ele><time>2026-04-21T14:29:04.999Z</time></trkpt><trkpt lat="43.156123380791584" lon="11.985984318938561"><ele>280.5</ele><time>2026-04-21T14:29:05.999Z</time></trkpt><trkpt lat="43.1560045290858" lon="11.986020176048696"><ele>280.0</ele><time>2026-04-21T14:29:06.999Z</time></trkpt><trkpt lat="43.155912508475325" lon="11.986041313926227"><ele>280.0</ele><time>2026-04-21T14:29:07.999Z</time></trkpt><trkpt lat="43.15584387707297" lon="11.986041299072062"><ele>280.0</ele><time>2026-04-21T14:29:08.999Z</time></trkpt><trkpt lat="43.15574490385823" lon="11.985922359625528"><ele>280.0</ele><time>2026-04-21T14:29:10.999Z</time></trkpt><trkpt lat="43.155711038406565" lon="11.98579990970144"><ele>280.0</ele><time>2026-04-21T14:29:11.999Z</time></trkpt><trkpt lat="43.15569696794262" lon="11.985644058662782"><ele>280.0</ele><time>2026-04-21T14:29:12.999Z</time></trkpt><trkpt lat="43.155706099616054" lon="11.985448920834099"><ele>279.5</ele><time>2026-04-21T14:29:13.999Z</time></trkpt><trkpt lat="43.15570152664847" lon="11.9852585581506"><ele>279.0</ele><time>2026-04-21T14:29:14.999Z</time></trkpt><trkpt lat="43.15569381024218" lon="11.985056464962025"><ele>278.5</ele><time>2026-04-21T14:29:15.999Z</time></trkpt><trkpt lat="43.155684036763255" lon="11.984841085500184"><ele>278.0</ele><time>2026-04-21T14:29:16.999Z</time></trkpt><trkpt lat="43.15567385919277" lon="11.984624942344908"><ele>278.0</ele><time>2026-04-21T14:29:17.999Z</time></trkpt><trkpt lat="43.15566049139401" lon="11.984395108065508"><ele>278.0</ele><time>2026-04-21T14:29:18.999Z</time></trkpt><trkpt lat="43.15564749106429" lon="11.984149612492912"><ele>278.0</ele><time>2026-04-21T14:29:19.999Z</time></trkpt><trkpt lat="43.15563245886101" lon="11.983904941128596"><ele>278.0</ele><time>2026-04-21T14:29:20.999Z</time></trkpt><trkpt lat="43.15561742521455" lon="11.9836516542291"><ele>278.0</ele><time>2026-04-21T14:29:21.999Z</time></trkpt><trkpt lat="43.155606825703565" lon="11.983410349024776"><ele>278.0</ele><time>2026-04-21T14:29:22.999Z</time></trkpt><trkpt lat="43.15559905293523" lon="11.983171095518358"><ele>278.0</ele><time>2026-04-21T14:29:23.999Z</time></trkpt><trkpt lat="43.155586607119" lon="11.982933417415873"><ele>278.0</ele><time>2026-04-21T14:29:24.999Z</time></trkpt><trkpt lat="43.15557400890324" lon="11.982713206263446"><ele>278.0</ele><time>2026-04-21T14:29:25.999Z</time></trkpt><trkpt lat="43.155565593344484" lon="11.982504026154981"><ele>278.0</ele><time>2026-04-21T14:29:26.999Z</time></trkpt><trkpt lat="43.15556124637138" lon="11.982303339141348"><ele>278.0</ele><time>2026-04-21T14:29:27.999Z</time></trkpt><trkpt lat="43.15555620623951" lon="11.982117661033913"><ele>278.0</ele><time>2026-04-21T14:29:28.999Z</time></trkpt><trkpt lat="43.15555079397923" lon="11.981945368731244"><ele>278.0</ele><time>2026-04-21T14:29:29.999Z</time></trkpt><trkpt lat="43.155534390631814" lon="11.981787167595648"><ele>278.0</ele><time>2026-04-21T14:29:30.999Z</time></trkpt><trkpt lat="43.15549204855415" lon="11.981650324331408"><ele>278.0</ele><time>2026-04-21T14:29:31.999Z</time></trkpt><trkpt lat="43.15542532093839" lon="11.981533973514614"><ele>278.0</ele><time>2026-04-21T14:29:32.999Z</time></trkpt><trkpt lat="43.155325037222845" lon="11.98144599568826"><ele>278.0</ele><time>2026-04-21T14:29:33.999Z</time></trkpt><trkpt lat="43.15519664688313" lon="11.98137337146445"><ele>278.0</ele><time>2026-04-21T14:29:34.999Z</time></trkpt><trkpt lat="43.1550484434539" lon="11.981292444066865"><ele>278.0</ele><time>2026-04-21T14:29:35.999Z</time></trkpt><trkpt lat="43.1549003293185" lon="11.981208083591369"><ele>278.0</ele><time>2026-04-21T14:29:36.999Z</time></trkpt><trkpt lat="43.154747408115156" lon="11.981119735371488"><ele>278.0</ele><time>2026-04-21T14:29:37.999Z</time></trkpt><trkpt lat="43.15458312880583" lon="11.98102022794329"><ele>278.0</ele><time>2026-04-21T14:29:38.999Z</time></trkpt><trkpt lat="43.154405285494434" lon="11.980910107619716"><ele>278.0</ele><time>2026-04-21T14:29:39.999Z</time></trkpt><trkpt lat="43.154235035462065" lon="11.980807329294365"><ele>278.0</ele><time>2026-04-21T14:29:40.999Z</time></trkpt><trkpt lat="43.15408192658884" lon="11.980706880857705"><ele>278.0</ele><time>2026-04-21T14:29:41.999Z</time></trkpt><trkpt lat="43.15394200217497" lon="11.980592102604287"><ele>278.0</ele><time>2026-04-21T14:29:42.999Z</time></trkpt><trkpt lat="43.15381648295608" lon="11.9804578273996"><ele>277.0</ele><time>2026-04-21T14:29:43.999Z</time></trkpt><trkpt lat="43.153702455233116" lon="11.980313637915021"><ele>276.0</ele><time>2026-04-21T14:29:44.999Z</time></trkpt><trkpt lat="43.15358537435346" lon="11.980162742457384"><ele>275.0</ele><time>2026-04-21T14:29:45.999Z</time></trkpt><trkpt lat="43.15346214138984" lon="11.98001776162204"><ele>275.4</ele><time>2026-04-21T14:29:46.999Z</time></trkpt><trkpt lat="43.15334173566034" lon="11.979891878601029"><ele>275.8</ele><time>2026-04-21T14:29:47.999Z</time></trkpt><trkpt lat="43.15325457591539" lon="11.979807848898442"><ele>276.2</ele><time>2026-04-21T14:29:48.999Z</time></trkpt><trkpt lat="43.153181827255075" lon="11.97974990210312"><ele>276.6</ele><time>2026-04-21T14:29:50.999Z</time></trkpt><trkpt lat="43.15310605136176" lon="11.97978894037714"><ele>277.0</ele><time>2026-04-21T14:29:53.999Z</time></trkpt><trkpt lat="43.15303102614106" lon="11.979836852407773"><ele>277.0</ele><time>2026-04-21T14:29:54.999Z</time></trkpt><trkpt lat="43.152949020470366" lon="11.979895943369971"><ele>277.0</ele><time>2026-04-21T14:29:55.999Z</time></trkpt><trkpt lat="43.152829323555515" lon="11.979968308225118"><ele>277.0</ele><time>2026-04-21T14:29:56.999Z</time></trkpt><trkpt lat="43.15270373986888" lon="11.980052103416572"><ele>277.0</ele><time>2026-04-21T14:29:57.999Z</time></trkpt><trkpt lat="43.15257162521159" lon="11.98015431444262"><ele>277.0</ele><time>2026-04-21T14:29:58.999Z</time></trkpt><trkpt lat="43.15243391604412" lon="11.980267917700923"><ele>277.0</ele><time>2026-04-21T14:29:59.999Z</time></trkpt><trkpt lat="43.152288620699146" lon="11.980384536035539"><ele>277.0</ele><time>2026-04-21T14:30:00.999Z</time></trkpt><trkpt lat="43.15212989168606" lon="11.98050811362518"><ele>278.0</ele><time>2026-04-21T14:30:01.999Z</time></trkpt><trkpt lat="43.15197271591055" lon="11.980632743410096"><ele>279.0</ele><time>2026-04-21T14:30:02.999Z</time></trkpt><trkpt lat="43.15180622024077" lon="11.980761251337048"><ele>280.0</ele><time>2026-04-21T14:30:03.999Z</time></trkpt><trkpt lat="43.15163588469923" lon="11.98089123225263"><ele>281.66666666666663</ele><time>2026-04-21T14:30:04.999Z</time></trkpt><trkpt lat="43.15146164352289" lon="11.98102857395867"><ele>283.3333333333333</ele><time>2026-04-21T14:30:05.999Z</time></trkpt><trkpt lat="43.15128711453549" lon="11.981167095052964"><ele>285.0</ele><time>2026-04-21T14:30:06.999Z</time></trkpt><trkpt lat="43.15110888276832" lon="11.98130895709267"><ele>285.0</ele><time>2026-04-21T14:30:07.999Z</time></trkpt><trkpt lat="43.150936865332106" lon="11.98144452956975"><ele>285.0</ele><time>2026-04-21T14:30:08.999Z</time></trkpt><trkpt lat="43.15076033589505" lon="11.98158294065132"><ele>285.0</ele><time>2026-04-21T14:30:09.999Z</time></trkpt><trkpt lat="43.150592153302945" lon="11.981717721900436"><ele>285.6666666666667</ele><time>2026-04-21T14:30:10.999Z</time></trkpt><trkpt lat="43.150432667123916" lon="11.981841025702238"><ele>286.33333333333337</ele><time>2026-04-21T14:30:11.999Z</time></trkpt><trkpt lat="43.15029033953586" lon="11.981954547389533"><ele>287.0</ele><time>2026-04-21T14:30:12.999Z</time></trkpt><trkpt lat="43.1501500007867" lon="11.982060903942383"><ele>287.0</ele><time>2026-04-21T14:30:13.999Z</time></trkpt><trkpt lat="43.15001468455117" lon="11.982155867493766"><ele>287.0</ele><time>2026-04-21T14:30:14.999Z</time></trkpt><trkpt lat="43.149895144284024" lon="11.982217494686726"><ele>287.0</ele><time>2026-04-21T14:30:15.999Z</time></trkpt><trkpt lat="43.14978380870759" lon="11.982246601861062"><ele>287.0</ele><time>2026-04-21T14:30:16.999Z</time></trkpt><trkpt lat="43.14967219049647" lon="11.982243054034624"><ele>288.25</ele><time>2026-04-21T14:30:17.999Z</time></trkpt><trkpt lat="43.14955472676791" lon="11.982206367180487"><ele>289.5</ele><time>2026-04-21T14:30:18.999Z</time></trkpt><trkpt lat="43.14942457412182" lon="11.982142760708115"><ele>290.75</ele><time>2026-04-21T14:30:19.999Z</time></trkpt><trkpt lat="43.14929666486853" lon="11.982050810360615"><ele>292.0</ele><time>2026-04-21T14:30:20.999Z</time></trkpt><trkpt lat="43.149180995364674" lon="11.98194392290357"><ele>294.66666666666663</ele><time>2026-04-21T14:30:21.999Z</time></trkpt><trkpt lat="43.1490162685437" lon="11.981876363106343"><ele>297.3333333333333</ele><time>2026-04-21T14:30:22.999Z</time></trkpt><trkpt lat="43.14884275309414" lon="11.98179002375895"><ele>300.0</ele><time>2026-04-21T14:30:23.999Z</time></trkpt><trkpt lat="43.14867876989143" lon="11.98171027026235"><ele>300.6666666666667</ele><time>2026-04-21T14:30:24.999Z</time></trkpt><trkpt lat="43.1485070162527" lon="11.98161976062587"><ele>301.33333333333337</ele><time>2026-04-21T14:30:25.999Z</time></trkpt><trkpt lat="43.1483345143244" lon="11.981529228623396"><ele>302.0</ele><time>2026-04-21T14:30:26.999Z</time></trkpt><trkpt lat="43.1481561723138" lon="11.981434241860875"><ele>302.0</ele><time>2026-04-21T14:30:27.999Z</time></trkpt><trkpt lat="43.14798267880338" lon="11.981344747901412"><ele>302.0</ele><time>2026-04-21T14:30:28.999Z</time></trkpt><trkpt lat="43.147816945952634" lon="11.981250989052125"><ele>302.0</ele><time>2026-04-21T14:30:29.999Z</time></trkpt><trkpt lat="43.14767116329494" lon="11.981169253871121"><ele>302.0</ele><time>2026-04-21T14:30:30.999Z</time></trkpt><trkpt lat="43.14754833077643" lon="11.981090546561253"><ele>302.0</ele><time>2026-04-21T14:30:31.999Z</time></trkpt><trkpt lat="43.147430183934105" lon="11.980992144564517"><ele>302.0</ele><time>2026-04-21T14:30:32.999Z</time></trkpt><trkpt lat="43.14730747920164" lon="11.980861338015767"><ele>302.0</ele><time>2026-04-21T14:30:33.999Z</time></trkpt><trkpt lat="43.14718079137983" lon="11.98070690694455"><ele>303.0</ele><time>2026-04-21T14:30:34.999Z</time></trkpt><trkpt lat="43.14705709357153" lon="11.980535270044928"><ele>304.0</ele><time>2026-04-21T14:30:35.999Z</time></trkpt><trkpt lat="43.14694255878567" lon="11.980337144942295"><ele>305.0</ele><time>2026-04-21T14:30:36.999Z</time></trkpt><trkpt lat="43.14683347785525" lon="11.980134326611092"><ele>304.6666666666667</ele><time>2026-04-21T14:30:37.999Z</time></trkpt><trkpt lat="43.14672685112775" lon="11.979922708014032"><ele>304.3333333333333</ele><time>2026-04-21T14:30:38.999Z</time></trkpt><trkpt lat="43.14661630441761" lon="11.979710125089298"><ele>304.0</ele><time>2026-04-21T14:30:39.999Z</time></trkpt><trkpt lat="43.14649396126514" lon="11.979499447744896"><ele>303.66666666666663</ele><time>2026-04-21T14:30:40.999Z</time></trkpt><trkpt lat="43.14637155549192" lon="11.979277969881247"><ele>303.3333333333333</ele><time>2026-04-21T14:30:41.999Z</time></trkpt><trkpt lat="43.14625434240341" lon="11.979054537878653"><ele>303.0</ele><time>2026-04-21T14:30:42.999Z</time></trkpt><trkpt lat="43.146134139648524" lon="11.978830896549024"><ele>303.0</ele><time>2026-04-21T14:30:43.999Z</time></trkpt><trkpt lat="43.14601268551975" lon="11.978600768215504"><ele>303.0</ele><time>2026-04-21T14:30:44.999Z</time></trkpt><trkpt lat="43.14588439709533" lon="11.97837079793193"><ele>303.0</ele><time>2026-04-21T14:30:45.999Z</time></trkpt><trkpt lat="43.145764465580804" lon="11.97814391051264"><ele>304.3333333333333</ele><time>2026-04-21T14:30:46.999Z</time></trkpt><trkpt lat="43.14564366182507" lon="11.977920926091826"><ele>305.66666666666663</ele><time>2026-04-21T14:30:47.999Z</time></trkpt><trkpt lat="43.145521522389494" lon="11.977696127150711"><ele>307.0</ele><time>2026-04-21T14:30:48.999Z</time></trkpt><trkpt lat="43.14540949570301" lon="11.977491109668968"><ele>307.3333333333333</ele><time>2026-04-21T14:30:49.999Z</time></trkpt><trkpt lat="43.14530775404893" lon="11.977295906663391"><ele>307.6666666666667</ele><time>2026-04-21T14:30:50.999Z</time></trkpt><trkpt lat="43.14521047831554" lon="11.977123842499806"><ele>308.0</ele><time>2026-04-21T14:30:51.999Z</time></trkpt><trkpt lat="43.14510374668877" lon="11.976956013672252"><ele>308.0</ele><time>2026-04-21T14:30:52.999Z</time></trkpt><trkpt lat="43.14498175662781" lon="11.976794773600476"><ele>308.0</ele><time>2026-04-21T14:30:53.999Z</time></trkpt><trkpt lat="43.14484310646932" lon="11.976654277557289"><ele>308.0</ele><time>2026-04-21T14:30:54.999Z</time></trkpt><trkpt lat="43.14471495959862" lon="11.976483993385273"><ele>308.33333333333337</ele><time>2026-04-21T14:30:55.999Z</time></trkpt><trkpt lat="43.14458149591628" lon="11.976315841613081"><ele>308.6666666666667</ele><time>2026-04-21T14:30:56.999Z</time></trkpt><trkpt lat="43.14444610606038" lon="11.976133632870512"><ele>309.0</ele><time>2026-04-21T14:30:58Z</time></trkpt><trkpt lat="43.1443097426133" lon="11.975942440965607"><ele>309.0</ele><time>2026-04-21T14:30:59Z</time></trkpt><trkpt lat="43.144162345343496" lon="11.975768384579629"><ele>309.0</ele><time>2026-04-21T14:31:00Z</time></trkpt><trkpt lat="43.143992316368404" lon="11.975609985682445"><ele>309.0</ele><time>2026-04-21T14:31:01Z</time></trkpt><trkpt lat="43.143817080948004" lon="11.975463497992752"><ele>307.6666666666667</ele><time>2026-04-21T14:31:02Z</time></trkpt><trkpt lat="43.14363316462417" lon="11.975317391754315"><ele>306.33333333333337</ele><time>2026-04-21T14:31:03Z</time></trkpt><trkpt lat="43.14344781689821" lon="11.97517311804613"><ele>305.0</ele><time>2026-04-21T14:31:04Z</time></trkpt><trkpt lat="43.14326209544836" lon="11.975029384011723"><ele>306.33333333333337</ele><time>2026-04-21T14:31:05Z</time></trkpt><trkpt lat="43.143078916426255" lon="11.974889435322385"><ele>307.6666666666667</ele><time>2026-04-21T14:31:06Z</time></trkpt><trkpt lat="43.142894896706906" lon="11.974746183869945"><ele>309.0</ele><time>2026-04-21T14:31:07Z</time></trkpt><trkpt lat="43.14271010359688" lon="11.974601206807787"><ele>309.0</ele><time>2026-04-21T14:31:08Z</time></trkpt><trkpt lat="43.14252323807627" lon="11.974466418681263"><ele>309.0</ele><time>2026-04-21T14:31:09Z</time></trkpt><trkpt lat="43.14234096956011" lon="11.974336524640934"><ele>309.0</ele><time>2026-04-21T14:31:10Z</time></trkpt><trkpt lat="43.14215849961609" lon="11.974204040825313"><ele>309.0</ele><time>2026-04-21T14:31:11Z</time></trkpt><trkpt lat="43.14197449979072" lon="11.974068330765292"><ele>309.0</ele><time>2026-04-21T14:31:12Z</time></trkpt><trkpt lat="43.14178662797521" lon="11.973932034005433"><ele>309.0</ele><time>2026-04-21T14:31:13Z</time></trkpt><trkpt lat="43.141606284680215" lon="11.973803941056545"><ele>309.3333333333333</ele><time>2026-04-21T14:31:14Z</time></trkpt><trkpt lat="43.14142493058799" lon="11.97367135379137"><ele>309.66666666666663</ele><time>2026-04-21T14:31:15Z</time></trkpt><trkpt lat="43.14124448885918" lon="11.973523467839449"><ele>310.0</ele><time>2026-04-21T14:31:16Z</time></trkpt><trkpt lat="43.14106920687483" lon="11.973375945700997"><ele>310.3333333333333</ele><time>2026-04-21T14:31:17Z</time></trkpt><trkpt lat="43.14089777416019" lon="11.973226597027333"><ele>310.6666666666667</ele><time>2026-04-21T14:31:18Z</time></trkpt><trkpt lat="43.1407301571619" lon="11.973063837878245"><ele>311.0</ele><time>2026-04-21T14:31:19Z</time></trkpt><trkpt lat="43.14056356770364" lon="11.97290017499225"><ele>311.6666666666667</ele><time>2026-04-21T14:31:20Z</time></trkpt><trkpt lat="43.14039204429536" lon="11.972733287049472"><ele>312.3333333333333</ele><time>2026-04-21T14:31:21Z</time></trkpt><trkpt lat="43.14022753162897" lon="11.97257426487629"><ele>313.0</ele><time>2026-04-21T14:31:22Z</time></trkpt><trkpt lat="43.14006009581121" lon="11.972412417111082"><ele>313.66666666666663</ele><time>2026-04-21T14:31:23Z</time></trkpt><trkpt lat="43.13989397037342" lon="11.972245434634036"><ele>314.3333333333333</ele><time>2026-04-21T14:31:24Z</time></trkpt><trkpt lat="43.13972978305627" lon="11.972077379141796"><ele>315.0</ele><time>2026-04-21T14:31:25Z</time></trkpt><trkpt lat="43.13956396872373" lon="11.971909185245366"><ele>315.0</ele><time>2026-04-21T14:31:26Z</time></trkpt><trkpt lat="43.139401066546775" lon="11.971747226333123"><ele>315.0</ele><time>2026-04-21T14:31:27Z</time></trkpt><trkpt lat="43.13923721369839" lon="11.971584078598738"><ele>315.0</ele><time>2026-04-21T14:31:28Z</time></trkpt><trkpt lat="43.139085954661134" lon="11.971429800665902"><ele>314.6666666666667</ele><time>2026-04-21T14:31:29Z</time></trkpt><trkpt lat="43.138937594294944" lon="11.971273490019017"><ele>314.33333333333337</ele><time>2026-04-21T14:31:30Z</time></trkpt><trkpt lat="43.138794249675236" lon="11.971119934962132"><ele>314.0</ele><time>2026-04-21T14:31:31Z</time></trkpt><trkpt lat="43.13866500692087" lon="11.970981157521123"><ele>315.25</ele><time>2026-04-21T14:31:32Z</time></trkpt><trkpt lat="43.13854444301401" lon="11.970845287356426"><ele>316.5</ele><time>2026-04-21T14:31:33Z</time></trkpt><trkpt lat="43.13843988706704" lon="11.970712955595063"><ele>317.75</ele><time>2026-04-21T14:31:34Z</time></trkpt><trkpt lat="43.1383492668912" lon="11.970563970417112"><ele>319.0</ele><time>2026-04-21T14:31:35Z</time></trkpt><trkpt lat="43.13825086915391" lon="11.970391309347926"><ele>317.0</ele><time>2026-04-21T14:31:36Z</time></trkpt><trkpt lat="43.13815001605737" lon="11.970216089349284"><ele>315.0</ele><time>2026-04-21T14:31:37Z</time></trkpt><trkpt lat="43.1380406237428" lon="11.9700285972279"><ele>313.0</ele><time>2026-04-21T14:31:38Z</time></trkpt><trkpt lat="43.13793075175291" lon="11.969840666010596"><ele>313.0</ele><time>2026-04-21T14:31:39Z</time></trkpt><trkpt lat="43.13781303664954" lon="11.969643263088395"><ele>313.0</ele><time>2026-04-21T14:31:40Z</time></trkpt><trkpt lat="43.13769720262533" lon="11.96945332676668"><ele>313.0</ele><time>2026-04-21T14:31:41Z</time></trkpt><trkpt lat="43.13757218596093" lon="11.969246515448964"><ele>311.66666666666663</ele><time>2026-04-21T14:31:42Z</time></trkpt><trkpt lat="43.13745059062485" lon="11.969038231855922"><ele>310.3333333333333</ele><time>2026-04-21T14:31:43Z</time></trkpt><trkpt lat="43.137329481173055" lon="11.96883096244093"><ele>309.0</ele><time>2026-04-21T14:31:44Z</time></trkpt><trkpt lat="43.13720634990074" lon="11.968624282872353"><ele>309.0</ele><time>2026-04-21T14:31:45Z</time></trkpt><trkpt lat="43.13708332751902" lon="11.968420037111722"><ele>309.0</ele><time>2026-04-21T14:31:46Z</time></trkpt><trkpt lat="43.13696087777892" lon="11.968220439905505"><ele>309.0</ele><time>2026-04-21T14:31:47Z</time></trkpt><trkpt lat="43.13683989169838" lon="11.968024298126412"><ele>309.6666666666667</ele><time>2026-04-21T14:31:48Z</time></trkpt><trkpt lat="43.13671836289986" lon="11.96782700431339"><ele>310.33333333333337</ele><time>2026-04-21T14:31:49Z</time></trkpt><trkpt lat="43.13661081106102" lon="11.96764437294544"><ele>311.0</ele><time>2026-04-21T14:31:50Z</time></trkpt><trkpt lat="43.13652559582666" lon="11.967470021779835"><ele>311.0</ele><time>2026-04-21T14:31:51Z</time></trkpt><trkpt lat="43.13646293854106" lon="11.967308995118774"><ele>311.0</ele><time>2026-04-21T14:31:52Z</time></trkpt><trkpt lat="43.136404691175706" lon="11.96712722600512"><ele>311.0</ele><time>2026-04-21T14:31:53Z</time></trkpt><trkpt lat="43.13635166883218" lon="11.966929743956333"><ele>311.0</ele><time>2026-04-21T14:31:54Z</time></trkpt><trkpt lat="43.136297082100164" lon="11.966722542353533"><ele>312.33333333333337</ele><time>2026-04-21T14:31:55Z</time></trkpt><trkpt lat="43.136236700461865" lon="11.96651042004616"><ele>313.6666666666667</ele><time>2026-04-21T14:31:55.999Z</time></trkpt><trkpt lat="43.136173425822356" lon="11.966289099420937"><ele>315.0</ele><time>2026-04-21T14:31:56.999Z</time></trkpt><trkpt lat="43.13611338660866" lon="11.966069870733334"><ele>316.0</ele><time>2026-04-21T14:31:57.999Z</time></trkpt><trkpt lat="43.13605538468104" lon="11.965845796684224"><ele>317.0</ele><time>2026-04-21T14:31:58.999Z</time></trkpt><trkpt lat="43.13600033926082" lon="11.965616355610502"><ele>318.0</ele><time>2026-04-21T14:31:59.999Z</time></trkpt><trkpt lat="43.13594813325832" lon="11.96539874985718"><ele>318.0</ele><time>2026-04-21T14:32:00.999Z</time></trkpt><trkpt lat="43.135894023567225" lon="11.965173209030475"><ele>318.0</ele><time>2026-04-21T14:32:02Z</time></trkpt><trkpt lat="43.13583485734559" lon="11.964940158345508"><ele>318.0</ele><time>2026-04-21T14:32:02.999Z</time></trkpt><trkpt lat="43.13577403749472" lon="11.964715040717156"><ele>318.0</ele><time>2026-04-21T14:32:03.999Z</time></trkpt><trkpt lat="43.13570679682925" lon="11.964486196588549"><ele>318.0</ele><time>2026-04-21T14:32:04.999Z</time></trkpt><trkpt lat="43.13564024975437" lon="11.964259914217491"><ele>318.0</ele><time>2026-04-21T14:32:05.999Z</time></trkpt><trkpt lat="43.13556547403614" lon="11.964022936385698"><ele>318.0</ele><time>2026-04-21T14:32:06.999Z</time></trkpt><trkpt lat="43.135485195757184" lon="11.9637989059274"><ele>318.0</ele><time>2026-04-21T14:32:07.999Z</time></trkpt><trkpt lat="43.13540862595139" lon="11.963570010677532"><ele>318.0</ele><time>2026-04-21T14:32:08.999Z</time></trkpt><trkpt lat="43.13532879493967" lon="11.96333100899718"><ele>319.6666666666667</ele><time>2026-04-21T14:32:09.999Z</time></trkpt><trkpt lat="43.13524527317329" lon="11.963090518329434"><ele>321.33333333333337</ele><time>2026-04-21T14:32:10.999Z</time></trkpt><trkpt lat="43.13515959972317" lon="11.962850132504288"><ele>323.0</ele><time>2026-04-21T14:32:11.999Z</time></trkpt><trkpt lat="43.13507287180065" lon="11.962606787997997"><ele>323.6666666666667</ele><time>2026-04-21T14:32:12.999Z</time></trkpt><trkpt lat="43.134994607879726" lon="11.962365823511691"><ele>324.3333333333333</ele><time>2026-04-21T14:32:13.999Z</time></trkpt><trkpt lat="43.134918881487735" lon="11.962110044566591"><ele>325.0</ele><time>2026-04-21T14:32:14.999Z</time></trkpt><trkpt lat="43.134847367456075" lon="11.961862647401977"><ele>324.0</ele><time>2026-04-21T14:32:15.999Z</time></trkpt><trkpt lat="43.13477680780682" lon="11.961618551819962"><ele>323.0</ele><time>2026-04-21T14:32:16.999Z</time></trkpt><trkpt lat="43.13470796537202" lon="11.96137578309761"><ele>322.0</ele><time>2026-04-21T14:32:17.999Z</time></trkpt><trkpt lat="43.134641124769644" lon="11.961127814387421"><ele>322.0</ele><time>2026-04-21T14:32:18.999Z</time></trkpt><trkpt lat="43.134578771159866" lon="11.960877192380822"><ele>322.0</ele><time>2026-04-21T14:32:19.999Z</time></trkpt><trkpt lat="43.13451976085567" lon="11.960616812250983"><ele>322.0</ele><time>2026-04-21T14:32:20.999Z</time></trkpt><trkpt lat="43.13446305932615" lon="11.960350250731715"><ele>323.3333333333333</ele><time>2026-04-21T14:32:21.999Z</time></trkpt><trkpt lat="43.13440746225576" lon="11.960083902994647"><ele>324.6666666666667</ele><time>2026-04-21T14:32:22.999Z</time></trkpt><trkpt lat="43.13435298775959" lon="11.959817066820884"><ele>326.0</ele><time>2026-04-21T14:32:23.999Z</time></trkpt><trkpt lat="43.134299855237686" lon="11.959549751204674"><ele>326.6666666666667</ele><time>2026-04-21T14:32:24.999Z</time></trkpt><trkpt lat="43.13424526541492" lon="11.959278167672586"><ele>327.3333333333333</ele><time>2026-04-21T14:32:25.999Z</time></trkpt><trkpt lat="43.134189341033455" lon="11.959009613679466"><ele>328.0</ele><time>2026-04-21T14:32:26.999Z</time></trkpt><trkpt lat="43.134132784866026" lon="11.958738119558879"><ele>327.66666666666663</ele><time>2026-04-21T14:32:27.999Z</time></trkpt><trkpt lat="43.134075325861815" lon="11.958465731201537"><ele>327.3333333333333</ele><time>2026-04-21T14:32:28.999Z</time></trkpt><trkpt lat="43.13401756363193" lon="11.958191905383355"><ele>327.0</ele><time>2026-04-21T14:32:29.999Z</time></trkpt><trkpt lat="43.13395958524795" lon="11.957916994608704"><ele>327.0</ele><time>2026-04-21T14:32:30.999Z</time></trkpt><trkpt lat="43.13390141085322" lon="11.957639765862364"><ele>327.0</ele><time>2026-04-21T14:32:31.999Z</time></trkpt><trkpt lat="43.133842691820625" lon="11.957359941669209"><ele>327.0</ele><time>2026-04-21T14:32:32.999Z</time></trkpt><trkpt lat="43.13378294951795" lon="11.957075241112898"><ele>328.0</ele><time>2026-04-21T14:32:33.999Z</time></trkpt><trkpt lat="43.13372469699759" lon="11.956797640041703"><ele>329.0</ele><time>2026-04-21T14:32:34.999Z</time></trkpt><trkpt lat="43.133669240682416" lon="11.956533364237567"><ele>330.0</ele><time>2026-04-21T14:32:35.999Z</time></trkpt><trkpt lat="43.13361913361176" lon="11.956293447677597"><ele>331.6666666666667</ele><time>2026-04-21T14:32:36.999Z</time></trkpt><trkpt lat="43.13357410514367" lon="11.956075462200126"><ele>333.33333333333337</ele><time>2026-04-21T14:32:37.999Z</time></trkpt><trkpt lat="43.13352772579026" lon="11.955850936985932"><ele>335.0</ele><time>2026-04-21T14:32:38.999Z</time></trkpt><trkpt lat="43.13348407544287" lon="11.955639623039769"><ele>336.6666666666667</ele><time>2026-04-21T14:32:39.999Z</time></trkpt><trkpt lat="43.1334408739736" lon="11.955430482178928"><ele>338.3333333333333</ele><time>2026-04-21T14:32:40.999Z</time></trkpt><trkpt lat="43.13339792392795" lon="11.95522639568836"><ele>340.0</ele><time>2026-04-21T14:32:41.999Z</time></trkpt><trkpt lat="43.13335130551513" lon="11.95502476963235"><ele>340.75</ele><time>2026-04-21T14:32:42.999Z</time></trkpt><trkpt lat="43.13328825258215" lon="11.95484885641735"><ele>341.5</ele><time>2026-04-21T14:32:43.999Z</time></trkpt><trkpt lat="43.133225533472896" lon="11.954694077050481"><ele>342.25</ele><time>2026-04-21T14:32:44.999Z</time></trkpt><trkpt lat="43.133136814576574" lon="11.954565910734454"><ele>343.0</ele><time>2026-04-21T14:32:45.999Z</time></trkpt><trkpt lat="43.13301988222777" lon="11.954454183094965"><ele>343.0</ele><time>2026-04-21T14:32:46.999Z</time></trkpt><trkpt lat="43.132888460057046" lon="11.95434300482026"><ele>343.0</ele><time>2026-04-21T14:32:47.999Z</time></trkpt><trkpt lat="43.13275356401875" lon="11.954220412314053"><ele>343.0</ele><time>2026-04-21T14:32:48.999Z</time></trkpt><trkpt lat="43.13261905454944" lon="11.954082286988962"><ele>343.3333333333333</ele><time>2026-04-21T14:32:49.999Z</time></trkpt><trkpt lat="43.13249080994085" lon="11.953936602288463"><ele>343.6666666666667</ele><time>2026-04-21T14:32:50.999Z</time></trkpt><trkpt lat="43.13237146663918" lon="11.953780849614324"><ele>344.0</ele><time>2026-04-21T14:32:51.999Z</time></trkpt><trkpt lat="43.13225462408754" lon="11.953613765893312"><ele>345.0</ele><time>2026-04-21T14:32:52.999Z</time></trkpt><trkpt lat="43.13213354923131" lon="11.95344124028185"><ele>346.0</ele><time>2026-04-21T14:32:53.999Z</time></trkpt><trkpt lat="43.1320103725671" lon="11.953270196992722"><ele>347.0</ele><time>2026-04-21T14:32:54.999Z</time></trkpt><trkpt lat="43.13188399266802" lon="11.953085948852394"><ele>347.33333333333337</ele><time>2026-04-21T14:32:55.999Z</time></trkpt><trkpt lat="43.13175915991931" lon="11.952900607125303"><ele>347.6666666666667</ele><time>2026-04-21T14:32:56.999Z</time></trkpt><trkpt lat="43.13162857071029" lon="11.952714174357267"><ele>348.0</ele><time>2026-04-21T14:32:57.999Z</time></trkpt><trkpt lat="43.131492063137415" lon="11.95253977708765"><ele>348.6666666666667</ele><time>2026-04-21T14:32:58.999Z</time></trkpt><trkpt lat="43.131350588427125" lon="11.952351366770502"><ele>349.33333333333337</ele><time>2026-04-21T14:32:59.999Z</time></trkpt><trkpt lat="43.13122173943081" lon="11.952188845617771"><ele>350.0</ele><time>2026-04-21T14:33:00.999Z</time></trkpt><trkpt lat="43.1310937216633" lon="11.952029367530045"><ele>350.0</ele><time>2026-04-21T14:33:01.999Z</time></trkpt><trkpt lat="43.13097962971111" lon="11.951877573320719"><ele>350.0</ele><time>2026-04-21T14:33:02.999Z</time></trkpt><trkpt lat="43.13087221377876" lon="11.951740064478374"><ele>350.0</ele><time>2026-04-21T14:33:04Z</time></trkpt><trkpt lat="43.1307676375168" lon="11.951609064983737"><ele>350.0</ele><time>2026-04-21T14:33:05Z</time></trkpt><trkpt lat="43.130674621132236" lon="11.951450801339151"><ele>349.25</ele><time>2026-04-21T14:33:06Z</time></trkpt><trkpt lat="43.13055078828055" lon="11.951305077547707"><ele>348.5</ele><time>2026-04-21T14:33:07Z</time></trkpt><trkpt lat="43.13045985573797" lon="11.951174084939739"><ele>347.75</ele><time>2026-04-21T14:33:08Z</time></trkpt><trkpt lat="43.130378121199584" lon="11.951055319961782"><ele>347.0</ele><time>2026-04-21T14:33:09Z</time></trkpt><trkpt lat="43.13031325814661" lon="11.950936957026999"><ele>347.20000000000005</ele><time>2026-04-21T14:33:10Z</time></trkpt><trkpt lat="43.13027499094778" lon="11.950844324125246"><ele>347.4</ele><time>2026-04-21T14:33:11Z</time></trkpt><trkpt lat="43.13021617077066" lon="11.95078874862636"><ele>347.6</ele><time>2026-04-21T14:33:13Z</time></trkpt><trkpt lat="43.13007035939144" lon="11.95082133424139"><ele>347.79999999999995</ele><time>2026-04-21T14:33:15Z</time></trkpt><trkpt lat="43.129967879617205" lon="11.95083572877247"><ele>348.0</ele><time>2026-04-21T14:33:16Z</time></trkpt><trkpt lat="43.129842813861416" lon="11.950797164828453"><ele>348.0</ele><time>2026-04-21T14:33:17Z</time></trkpt><trkpt lat="43.129703950707565" lon="11.950721032387749"><ele>348.0</ele><time>2026-04-21T14:33:18Z</time></trkpt><trkpt lat="43.12955250288812" lon="11.950626553045348"><ele>348.0</ele><time>2026-04-21T14:33:19Z</time></trkpt><trkpt lat="43.129383139168276" lon="11.950544588079993"><ele>348.0</ele><time>2026-04-21T14:33:20Z</time></trkpt><trkpt lat="43.129177263123225" lon="11.950446696624867"><ele>348.0</ele><time>2026-04-21T14:33:21Z</time></trkpt><trkpt lat="43.12896773392471" lon="11.950345067038919"><ele>348.0</ele><time>2026-04-21T14:33:22Z</time></trkpt><trkpt lat="43.12876540726085" lon="11.950244663969249"><ele>348.6666666666667</ele><time>2026-04-21T14:33:23Z</time></trkpt><trkpt lat="43.12856279038783" lon="11.950131645024706"><ele>349.33333333333337</ele><time>2026-04-21T14:33:24Z</time></trkpt><trkpt lat="43.128359407076346" lon="11.950026126251473"><ele>350.0</ele><time>2026-04-21T14:33:25Z</time></trkpt><trkpt lat="43.128155872003376" lon="11.949923094035018"><ele>348.33333333333337</ele><time>2026-04-21T14:33:26Z</time></trkpt><trkpt lat="43.12795979496116" lon="11.94982423991"><ele>346.6666666666667</ele><time>2026-04-21T14:33:27Z</time></trkpt><trkpt lat="43.127775796009594" lon="11.949732375950553"><ele>345.0</ele><time>2026-04-21T14:33:28Z</time></trkpt><trkpt lat="43.12760483411801" lon="11.94964530170195"><ele>345.0</ele><time>2026-04-21T14:33:29Z</time></trkpt><trkpt lat="43.12744264207083" lon="11.94956028194333"><ele>345.0</ele><time>2026-04-21T14:33:30Z</time></trkpt><trkpt lat="43.127285803727105" lon="11.949480922410991"><ele>345.0</ele><time>2026-04-21T14:33:31Z</time></trkpt><trkpt lat="43.12714582713064" lon="11.949410166808176"><ele>345.0</ele><time>2026-04-21T14:33:32Z</time></trkpt><trkpt lat="43.12703332726984" lon="11.94934041266842"><ele>345.0</ele><time>2026-04-21T14:33:33Z</time></trkpt><trkpt lat="43.126952908858726" lon="11.949253140890955"><ele>345.0</ele><time>2026-04-21T14:33:34Z</time></trkpt><trkpt lat="43.12690398387566" lon="11.949175315739664"><ele>345.0</ele><time>2026-04-21T14:33:35Z</time></trkpt><trkpt lat="43.12692822335199" lon="11.949057097368796"><ele>345.0</ele><time>2026-04-21T14:33:38Z</time></trkpt><trkpt lat="43.12698246340999" lon="11.948994793760205"><ele>344.5</ele><time>2026-04-21T14:33:39Z</time></trkpt><trkpt lat="43.12701717958287" lon="11.94885674364936"><ele>344.0</ele><time>2026-04-21T14:33:40Z</time></trkpt><trkpt lat="43.127066370470715" lon="11.948709753976408"><ele>343.5</ele><time>2026-04-21T14:33:41Z</time></trkpt><trkpt lat="43.1271295641363" lon="11.948533603544337"><ele>343.0</ele><time>2026-04-21T14:33:42Z</time></trkpt><trkpt lat="43.12718931325627" lon="11.948334905435399"><ele>343.0</ele><time>2026-04-21T14:33:43Z</time></trkpt><trkpt lat="43.12725853433234" lon="11.948113201085068"><ele>343.0</ele><time>2026-04-21T14:33:44Z</time></trkpt><trkpt lat="43.12732733093845" lon="11.947887766415537"><ele>343.0</ele><time>2026-04-21T14:33:45Z</time></trkpt><trkpt lat="43.1273911152373" lon="11.947687590736555"><ele>341.66666666666663</ele><time>2026-04-21T14:33:46Z</time></trkpt><trkpt lat="43.12745113412461" lon="11.947493687750503"><ele>340.3333333333333</ele><time>2026-04-21T14:33:47Z</time></trkpt><trkpt lat="43.12750010959037" lon="11.947298838288852"><ele>339.0</ele><time>2026-04-21T14:33:48Z</time></trkpt><trkpt lat="43.1275149487974" lon="11.947090192388217"><ele>339.0</ele><time>2026-04-21T14:33:49Z</time></trkpt><trkpt lat="43.12749874499236" lon="11.946856068440596"><ele>339.0</ele><time>2026-04-21T14:33:50Z</time></trkpt><trkpt lat="43.12745280513914" lon="11.946630307108542"><ele>339.0</ele><time>2026-04-21T14:33:51Z</time></trkpt><trkpt lat="43.12739886272985" lon="11.946425404561577"><ele>333.0</ele><time>2026-04-21T14:33:52Z</time></trkpt><trkpt lat="43.127356283375455" lon="11.94622250240311"><ele>327.0</ele><time>2026-04-21T14:33:53Z</time></trkpt><trkpt lat="43.12735897638224" lon="11.946003566135097"><ele>321.0</ele><time>2026-04-21T14:33:54Z</time></trkpt><trkpt lat="43.127361367884966" lon="11.945768115819822"><ele>323.6666666666667</ele><time>2026-04-21T14:33:55Z</time></trkpt><trkpt lat="43.12735273157541" lon="11.945532749370123"><ele>326.33333333333337</ele><time>2026-04-21T14:33:56Z</time></trkpt><trkpt lat="43.12736882282366" lon="11.945329699306525"><ele>329.0</ele><time>2026-04-21T14:33:57Z</time></trkpt><trkpt lat="43.12740568551441" lon="11.945140637322925"><ele>327.75</ele><time>2026-04-21T14:33:58Z</time></trkpt><trkpt lat="43.127490057146176" lon="11.944984606676638"><ele>326.5</ele><time>2026-04-21T14:33:59Z</time></trkpt><trkpt lat="43.12758872165976" lon="11.944840441180279"><ele>325.25</ele><time>2026-04-21T14:34:00Z</time></trkpt><trkpt lat="43.127720229022" lon="11.944729831573293"><ele>324.0</ele><time>2026-04-21T14:34:01Z</time></trkpt><trkpt lat="43.12786528813264" lon="11.944611251774056"><ele>324.0</ele><time>2026-04-21T14:34:02Z</time></trkpt><trkpt lat="43.12800670451285" lon="11.944474921947545"><ele>324.0</ele><time>2026-04-21T14:34:03Z</time></trkpt><trkpt lat="43.128130540899775" lon="11.944351746365605"><ele>324.0</ele><time>2026-04-21T14:34:04Z</time></trkpt><trkpt lat="43.128235949760814" lon="11.944188991894075"><ele>322.3333333333333</ele><time>2026-04-21T14:34:05Z</time></trkpt><trkpt lat="43.12830436723915" lon="11.943985484922388"><ele>320.66666666666663</ele><time>2026-04-21T14:34:06Z</time></trkpt><trkpt lat="43.12834970749988" lon="11.943752332129456"><ele>319.0</ele><time>2026-04-21T14:34:07Z</time></trkpt><trkpt lat="43.12835556288452" lon="11.94349254918263"><ele>318.0</ele><time>2026-04-21T14:34:08Z</time></trkpt><trkpt lat="43.128360977458705" lon="11.94323524372085"><ele>317.0</ele><time>2026-04-21T14:34:09Z</time></trkpt><trkpt lat="43.128367939108394" lon="11.94295461925892"><ele>316.0</ele><time>2026-04-21T14:34:10Z</time></trkpt><trkpt lat="43.12836703301856" lon="11.942699215257752"><ele>316.0</ele><time>2026-04-21T14:34:11Z</time></trkpt><trkpt lat="43.12834225214556" lon="11.942467844801593"><ele>316.0</ele><time>2026-04-21T14:34:12Z</time></trkpt><trkpt lat="43.12828722837435" lon="11.942266476798501"><ele>316.0</ele><time>2026-04-21T14:34:13Z</time></trkpt><trkpt lat="43.128197681498214" lon="11.942073748229548"><ele>316.66666666666663</ele><time>2026-04-21T14:34:14Z</time></trkpt><trkpt lat="43.12807974933665" lon="11.94189325134137"><ele>317.3333333333333</ele><time>2026-04-21T14:34:15Z</time></trkpt><trkpt lat="43.127949292647756" lon="11.94171989788972"><ele>318.0</ele><time>2026-04-21T14:34:16Z</time></trkpt><trkpt lat="43.12780591705248" lon="11.941549686582078"><ele>318.0</ele><time>2026-04-21T14:34:17Z</time></trkpt><trkpt lat="43.127656039430605" lon="11.941354000047594"><ele>318.0</ele><time>2026-04-21T14:34:18Z</time></trkpt><trkpt lat="43.127510544383355" lon="11.941147875406989"><ele>318.0</ele><time>2026-04-21T14:34:19Z</time></trkpt><trkpt lat="43.12735941658968" lon="11.940944864266381"><ele>318.6666666666667</ele><time>2026-04-21T14:34:20Z</time></trkpt><trkpt lat="43.127222975367346" lon="11.940780496452753"><ele>319.33333333333337</ele><time>2026-04-21T14:34:21Z</time></trkpt><trkpt lat="43.12708353060056" lon="11.940610421356846"><ele>320.0</ele><time>2026-04-21T14:34:22Z</time></trkpt><trkpt lat="43.12696819879945" lon="11.940426563429947"><ele>320.0</ele><time>2026-04-21T14:34:23Z</time></trkpt><trkpt lat="43.12685012024484" lon="11.940250047101834"><ele>320.0</ele><time>2026-04-21T14:34:24Z</time></trkpt><trkpt lat="43.12673072674225" lon="11.940079098292335"><ele>320.0</ele><time>2026-04-21T14:34:25Z</time></trkpt><trkpt lat="43.126619042076385" lon="11.939889621718168"><ele>320.33333333333337</ele><time>2026-04-21T14:34:25.999Z</time></trkpt><trkpt lat="43.12650676341111" lon="11.939697249962393"><ele>320.6666666666667</ele><time>2026-04-21T14:34:26.999Z</time></trkpt><trkpt lat="43.12639347151801" lon="11.939504635676597"><ele>321.0</ele><time>2026-04-21T14:34:27.999Z</time></trkpt><trkpt lat="43.126278817412306" lon="11.939311932528827"><ele>321.6666666666667</ele><time>2026-04-21T14:34:28.999Z</time></trkpt><trkpt lat="43.12616487716843" lon="11.939127045413478"><ele>322.33333333333337</ele><time>2026-04-21T14:34:29.999Z</time></trkpt><trkpt lat="43.126045471584504" lon="11.93894865042926"><ele>323.0</ele><time>2026-04-21T14:34:30.999Z</time></trkpt><trkpt lat="43.12592047206688" lon="11.938779258408218"><ele>323.0</ele><time>2026-04-21T14:34:31.999Z</time></trkpt><trkpt lat="43.12580154542159" lon="11.93861925086419"><ele>323.0</ele><time>2026-04-21T14:34:32.999Z</time></trkpt><trkpt lat="43.125684477416804" lon="11.938460715036248"><ele>323.0</ele><time>2026-04-21T14:34:33.999Z</time></trkpt><trkpt lat="43.125569147357915" lon="11.93829887717381"><ele>322.0</ele><time>2026-04-21T14:34:34.999Z</time></trkpt><trkpt lat="43.125452846574376" lon="11.938137947210882"><ele>321.0</ele><time>2026-04-21T14:34:35.999Z</time></trkpt><trkpt lat="43.12534148555531" lon="11.93796304459149"><ele>320.0</ele><time>2026-04-21T14:34:36.999Z</time></trkpt><trkpt lat="43.12525392837929" lon="11.937752474261394"><ele>320.0</ele><time>2026-04-21T14:34:37.999Z</time></trkpt><trkpt lat="43.12516287319862" lon="11.937554404138286"><ele>320.0</ele><time>2026-04-21T14:34:38.999Z</time></trkpt><trkpt lat="43.12506243409729" lon="11.937360155020572"><ele>320.0</ele><time>2026-04-21T14:34:39.999Z</time></trkpt><trkpt lat="43.1249736820444" lon="11.937154775833257"><ele>321.0</ele><time>2026-04-21T14:34:40.999Z</time></trkpt><trkpt lat="43.12487196976859" lon="11.936956225588913"><ele>322.0</ele><time>2026-04-21T14:34:41.999Z</time></trkpt><trkpt lat="43.12475836759013" lon="11.936773072133631"><ele>323.0</ele><time>2026-04-21T14:34:42.999Z</time></trkpt><trkpt lat="43.1246521124246" lon="11.936587814155965"><ele>320.33333333333337</ele><time>2026-04-21T14:34:43.999Z</time></trkpt><trkpt lat="43.12453362018373" lon="11.936420002368385"><ele>317.6666666666667</ele><time>2026-04-21T14:34:44.999Z</time></trkpt><trkpt lat="43.12440048713256" lon="11.936262658282896"><ele>315.0</ele><time>2026-04-21T14:34:45.999Z</time></trkpt><trkpt lat="43.12425571392454" lon="11.936121919199188"><ele>315.0</ele><time>2026-04-21T14:34:46.999Z</time></trkpt><trkpt lat="43.124099255987694" lon="11.93600483973499"><ele>315.0</ele><time>2026-04-21T14:34:47.999Z</time></trkpt><trkpt lat="43.12393151902209" lon="11.935916647117002"><ele>315.0</ele><time>2026-04-21T14:34:48.999Z</time></trkpt><trkpt lat="43.12375062529462" lon="11.935850315035395"><ele>311.3333333333333</ele><time>2026-04-21T14:34:49.999Z</time></trkpt><trkpt lat="43.12356405001921" lon="11.935784246033297"><ele>307.66666666666663</ele><time>2026-04-21T14:34:50.999Z</time></trkpt><trkpt lat="43.12336905247655" lon="11.93570719446311"><ele>304.0</ele><time>2026-04-21T14:34:51.999Z</time></trkpt><trkpt lat="43.12318476984264" lon="11.935628536577594"><ele>303.66666666666663</ele><time>2026-04-21T14:34:52.999Z</time></trkpt><trkpt lat="43.123011213305276" lon="11.93555339598721"><ele>303.3333333333333</ele><time>2026-04-21T14:34:53.999Z</time></trkpt><trkpt lat="43.12282633838089" lon="11.935465931338062"><ele>303.0</ele><time>2026-04-21T14:34:54.999Z</time></trkpt><trkpt lat="43.12264195509855" lon="11.935373740401005"><ele>303.0</ele><time>2026-04-21T14:34:55.999Z</time></trkpt><trkpt lat="43.122455403456996" lon="11.935275400131076"><ele>303.0</ele><time>2026-04-21T14:34:56.999Z</time></trkpt><trkpt lat="43.12226706580985" lon="11.935171980842377"><ele>303.0</ele><time>2026-04-21T14:34:57.999Z</time></trkpt><trkpt lat="43.122073565300084" lon="11.93507727593942"><ele>300.6666666666667</ele><time>2026-04-21T14:34:58.999Z</time></trkpt><trkpt lat="43.12189020482529" lon="11.934975893927378"><ele>298.33333333333337</ele><time>2026-04-21T14:34:59.999Z</time></trkpt><trkpt lat="43.12170911510157" lon="11.934860298286498"><ele>296.0</ele><time>2026-04-21T14:35:00.999Z</time></trkpt><trkpt lat="43.121550287432406" lon="11.934736778175973"><ele>296.0</ele><time>2026-04-21T14:35:01.999Z</time></trkpt><trkpt lat="43.1213893005892" lon="11.934613413258766"><ele>296.0</ele><time>2026-04-21T14:35:02.999Z</time></trkpt><trkpt lat="43.12122440912527" lon="11.934496331160133"><ele>296.0</ele><time>2026-04-21T14:35:03.999Z</time></trkpt><trkpt lat="43.121050994013736" lon="11.934379693405557"><ele>296.0</ele><time>2026-04-21T14:35:04.999Z</time></trkpt><trkpt lat="43.1208744477799" lon="11.934266566582416"><ele>296.0</ele><time>2026-04-21T14:35:05.999Z</time></trkpt><trkpt lat="43.12068924976878" lon="11.934170906374904"><ele>296.0</ele><time>2026-04-21T14:35:06.999Z</time></trkpt><trkpt lat="43.12050951297088" lon="11.934114170019491"><ele>293.33333333333337</ele><time>2026-04-21T14:35:07.999Z</time></trkpt><trkpt lat="43.12033843433419" lon="11.934078817383705"><ele>290.6666666666667</ele><time>2026-04-21T14:35:08.999Z</time></trkpt><trkpt lat="43.12018325360468" lon="11.934024428266587"><ele>288.0</ele><time>2026-04-21T14:35:10Z</time></trkpt><trkpt lat="43.12003680634817" lon="11.933953906687623"><ele>288.0</ele><time>2026-04-21T14:35:11Z</time></trkpt><trkpt lat="43.11990672737718" lon="11.933846375865073"><ele>288.0</ele><time>2026-04-21T14:35:12Z</time></trkpt><trkpt lat="43.11979199897513" lon="11.933702229005545"><ele>288.0</ele><time>2026-04-21T14:35:13Z</time></trkpt><trkpt lat="43.11968532352298" lon="11.933525011723608"><ele>286.3333333333333</ele><time>2026-04-21T14:35:14Z</time></trkpt><trkpt lat="43.11959140299511" lon="11.933323798413147"><ele>284.66666666666663</ele><time>2026-04-21T14:35:15Z</time></trkpt><trkpt lat="43.119499266747894" lon="11.933102881769353"><ele>283.0</ele><time>2026-04-21T14:35:16Z</time></trkpt><trkpt lat="43.119410773223784" lon="11.932865892986541"><ele>283.0</ele><time>2026-04-21T14:35:17Z</time></trkpt><trkpt lat="43.119321270729294" lon="11.932621674089853"><ele>283.0</ele><time>2026-04-21T14:35:18Z</time></trkpt><trkpt lat="43.119233646286034" lon="11.932357587930824"><ele>283.0</ele><time>2026-04-21T14:35:19Z</time></trkpt><trkpt lat="43.119148486597645" lon="11.932089520072855"><ele>284.0</ele><time>2026-04-21T14:35:20Z</time></trkpt><trkpt lat="43.11906404833913" lon="11.93182592186984"><ele>285.0</ele><time>2026-04-21T14:35:21Z</time></trkpt><trkpt lat="43.118981625896176" lon="11.931573405062316"><ele>286.0</ele><time>2026-04-21T14:35:22Z</time></trkpt><trkpt lat="43.11890102041857" lon="11.931331495562103"><ele>286.0</ele><time>2026-04-21T14:35:23Z</time></trkpt><trkpt lat="43.11881876526624" lon="11.93108560277654"><ele>286.0</ele><time>2026-04-21T14:35:24Z</time></trkpt><trkpt lat="43.11873820514404" lon="11.930832712733585"><ele>286.0</ele><time>2026-04-21T14:35:25Z</time></trkpt><trkpt lat="43.118655329223465" lon="11.930575868028013"><ele>283.3333333333333</ele><time>2026-04-21T14:35:26Z</time></trkpt><trkpt lat="43.1185686152476" lon="11.930325297799811"><ele>280.6666666666667</ele><time>2026-04-21T14:35:27Z</time></trkpt><trkpt lat="43.11848223107576" lon="11.930069790623481"><ele>278.0</ele><time>2026-04-21T14:35:28Z</time></trkpt><trkpt lat="43.11839819858496" lon="11.929827291462445"><ele>279.33333333333337</ele><time>2026-04-21T14:35:29Z</time></trkpt><trkpt lat="43.118314762066476" lon="11.92959572355152"><ele>280.6666666666667</ele><time>2026-04-21T14:35:30Z</time></trkpt><trkpt lat="43.11822935301874" lon="11.92936593782028"><ele>282.0</ele><time>2026-04-21T14:35:31Z</time></trkpt><trkpt lat="43.11813224576688" lon="11.929141081326355"><ele>278.3333333333333</ele><time>2026-04-21T14:35:32Z</time></trkpt><trkpt lat="43.11801760410268" lon="11.92891815805091"><ele>274.66666666666663</ele><time>2026-04-21T14:35:33Z</time></trkpt><trkpt lat="43.11788081025351" lon="11.928718288823605"><ele>271.0</ele><time>2026-04-21T14:35:34Z</time></trkpt><trkpt lat="43.11772951747132" lon="11.928531667466503"><ele>267.3333333333333</ele><time>2026-04-21T14:35:35Z</time></trkpt><trkpt lat="43.11756680674622" lon="11.928362365300211"><ele>263.6666666666667</ele><time>2026-04-21T14:35:36Z</time></trkpt><trkpt lat="43.11739516360017" lon="11.928201979284"><ele>260.0</ele><time>2026-04-21T14:35:37Z</time></trkpt><trkpt lat="43.117219486799456" lon="11.92801613631827"><ele>258.0</ele><time>2026-04-21T14:35:38Z</time></trkpt><trkpt lat="43.11704486567301" lon="11.92781877191597"><ele>256.0</ele><time>2026-04-21T14:35:39Z</time></trkpt><trkpt lat="43.1168719924002" lon="11.927604118418815"><ele>254.5</ele><time>2026-04-21T14:35:40Z</time></trkpt><trkpt lat="43.116699509204466" lon="11.927385212451792"><ele>253.0</ele><time>2026-04-21T14:35:41Z</time></trkpt><trkpt lat="43.11651762540498" lon="11.927160086932458"><ele>253.0</ele><time>2026-04-21T14:35:42Z</time></trkpt><trkpt lat="43.11633423964088" lon="11.926934161760652"><ele>253.0</ele><time>2026-04-21T14:35:43Z</time></trkpt><trkpt lat="43.11614956662107" lon="11.926705081133651"><ele>252.0</ele><time>2026-04-21T14:35:44Z</time></trkpt><trkpt lat="43.115965039239605" lon="11.92647579830286"><ele>251.0</ele><time>2026-04-21T14:35:45Z</time></trkpt><trkpt lat="43.11577854010212" lon="11.92624461520962"><ele>251.5</ele><time>2026-04-21T14:35:46Z</time></trkpt><trkpt lat="43.11558962321854" lon="11.926011901731979"><ele>252.0</ele><time>2026-04-21T14:35:47Z</time></trkpt><trkpt lat="43.11540251865746" lon="11.9257735043081"><ele>252.0</ele><time>2026-04-21T14:35:48Z</time></trkpt><trkpt lat="43.115219223610424" lon="11.925540538588303"><ele>252.0</ele><time>2026-04-21T14:35:49Z</time></trkpt><trkpt lat="43.1150302826147" lon="11.925301680119588"><ele>252.0</ele><time>2026-04-21T14:35:50Z</time></trkpt><trkpt lat="43.11485075828998" lon="11.925080991027306"><ele>252.0</ele><time>2026-04-21T14:35:51Z</time></trkpt><trkpt lat="43.11468092942241" lon="11.92486882651833"><ele>252.0</ele><time>2026-04-21T14:35:52Z</time></trkpt><trkpt lat="43.11453139446652" lon="11.924678248517024"><ele>252.0</ele><time>2026-04-21T14:35:53Z</time></trkpt><trkpt lat="43.11440879421484" lon="11.92451757592798"><ele>252.0</ele><time>2026-04-21T14:35:54Z</time></trkpt><trkpt lat="43.114316653592" lon="11.924373858472691"><ele>252.0</ele><time>2026-04-21T14:35:55Z</time></trkpt><trkpt lat="43.114258937750044" lon="11.92425070803249"><ele>252.0</ele><time>2026-04-21T14:35:56Z</time></trkpt><trkpt lat="43.1142250400617" lon="11.924119724037034"><ele>252.0</ele><time>2026-04-21T14:35:57Z</time></trkpt><trkpt lat="43.11420620531181" lon="11.92397979655465"><ele>252.0</ele><time>2026-04-21T14:35:58Z</time></trkpt><trkpt lat="43.11421071806855" lon="11.923824999721793"><ele>252.0</ele><time>2026-04-21T14:35:59Z</time></trkpt><trkpt lat="43.11425001055917" lon="11.923666439958797"><ele>252.0</ele><time>2026-04-21T14:36:00Z</time></trkpt><trkpt lat="43.11432657736382" lon="11.92351633914807"><ele>252.0</ele><time>2026-04-21T14:36:01Z</time></trkpt><trkpt lat="43.114434216928174" lon="11.923388213900802"><ele>252.0</ele><time>2026-04-21T14:36:02Z</time></trkpt><trkpt lat="43.11456949558039" lon="11.92328034314303"><ele>252.0</ele><time>2026-04-21T14:36:03Z</time></trkpt><trkpt lat="43.11472134706437" lon="11.923220335650663"><ele>252.0</ele><time>2026-04-21T14:36:04Z</time></trkpt><trkpt lat="43.11486373034951" lon="11.923106634574351"><ele>252.0</ele><time>2026-04-21T14:36:05Z</time></trkpt><trkpt lat="43.11500166823444" lon="11.923002380138895"><ele>252.0</ele><time>2026-04-21T14:36:06Z</time></trkpt><trkpt lat="43.115136461857304" lon="11.922925834192608"><ele>251.5</ele><time>2026-04-21T14:36:07Z</time></trkpt><trkpt lat="43.115254582980135" lon="11.922837729316905"><ele>251.0</ele><time>2026-04-21T14:36:08Z</time></trkpt><trkpt lat="43.11536248987742" lon="11.922752197052558"><ele>250.5</ele><time>2026-04-21T14:36:09Z</time></trkpt><trkpt lat="43.11544971663986" lon="11.92263332912303"><ele>250.0</ele><time>2026-04-21T14:36:10Z</time></trkpt><trkpt lat="43.11552593332771" lon="11.922514264611076"><ele>250.0</ele><time>2026-04-21T14:36:11Z</time></trkpt><trkpt lat="43.11558116373481" lon="11.922355506703568"><ele>250.0</ele><time>2026-04-21T14:36:12Z</time></trkpt><trkpt lat="43.115608034891096" lon="11.922171380683897"><ele>250.0</ele><time>2026-04-21T14:36:13Z</time></trkpt><trkpt lat="43.11560670124192" lon="11.921967738699559"><ele>250.0</ele><time>2026-04-21T14:36:14Z</time></trkpt><trkpt lat="43.11557557161915" lon="11.921742001277062"><ele>249.66666666666666</ele><time>2026-04-21T14:36:15Z</time></trkpt><trkpt lat="43.11551616212933" lon="11.921502437852487"><ele>249.33333333333331</ele><time>2026-04-21T14:36:16Z</time></trkpt><trkpt lat="43.11544702698561" lon="11.921238069229172"><ele>249.0</ele><time>2026-04-21T14:36:17Z</time></trkpt><trkpt lat="43.11538532592039" lon="11.920988779823864"><ele>249.0</ele><time>2026-04-21T14:36:18Z</time></trkpt><trkpt lat="43.11533592249922" lon="11.920738324928553"><ele>249.0</ele><time>2026-04-21T14:36:19Z</time></trkpt><trkpt lat="43.11528605472358" lon="11.920495647809371"><ele>249.0</ele><time>2026-04-21T14:36:20Z</time></trkpt><trkpt lat="43.11523331982355" lon="11.920256022600068"><ele>248.66666666666669</ele><time>2026-04-21T14:36:21Z</time></trkpt><trkpt lat="43.11518336053603" lon="11.92000465495605"><ele>248.33333333333334</ele><time>2026-04-21T14:36:22Z</time></trkpt><trkpt lat="43.115130981951026" lon="11.9197586857672"><ele>248.0</ele><time>2026-04-21T14:36:23Z</time></trkpt><trkpt lat="43.11507617098794" lon="11.919510498374686"><ele>248.0</ele><time>2026-04-21T14:36:24Z</time></trkpt><trkpt lat="43.11502417425491" lon="11.919253569479825"><ele>248.0</ele><time>2026-04-21T14:36:25Z</time></trkpt><trkpt lat="43.11496974488087" lon="11.918998409291962"><ele>248.0</ele><time>2026-04-21T14:36:26Z</time></trkpt><trkpt lat="43.1149118614293" lon="11.918737543014219"><ele>248.0</ele><time>2026-04-21T14:36:27Z</time></trkpt><trkpt lat="43.114853769233015" lon="11.918473393267474"><ele>248.0</ele><time>2026-04-21T14:36:28Z</time></trkpt><trkpt lat="43.11479679425942" lon="11.918206697945836"><ele>248.0</ele><time>2026-04-21T14:36:29Z</time></trkpt><trkpt lat="43.1147398007075" lon="11.917939808929734"><ele>248.33333333333334</ele><time>2026-04-21T14:36:30Z</time></trkpt><trkpt lat="43.11468553661372" lon="11.91768174350203"><ele>248.66666666666669</ele><time>2026-04-21T14:36:31Z</time></trkpt><trkpt lat="43.114632607281564" lon="11.917446443016885"><ele>249.0</ele><time>2026-04-21T14:36:32Z</time></trkpt><trkpt lat="43.11459008699371" lon="11.91720932899025"><ele>249.0</ele><time>2026-04-21T14:36:33Z</time></trkpt><trkpt lat="43.114555580326375" lon="11.91698972427534"><ele>249.0</ele><time>2026-04-21T14:36:34Z</time></trkpt><trkpt lat="43.114526764124946" lon="11.91677057071257"><ele>249.0</ele><time>2026-04-21T14:36:35Z</time></trkpt><trkpt lat="43.11452933768699" lon="11.916569903705371"><ele>249.0</ele><time>2026-04-21T14:36:36Z</time></trkpt><trkpt lat="43.11454670108499" lon="11.916360459647768"><ele>249.0</ele><time>2026-04-21T14:36:37Z</time></trkpt><trkpt lat="43.114575616254065" lon="11.916162569037455"><ele>249.0</ele><time>2026-04-21T14:36:37.999Z</time></trkpt><trkpt lat="43.114602286416414" lon="11.915975691609106"><ele>249.0</ele><time>2026-04-21T14:36:38.999Z</time></trkpt><trkpt lat="43.114626327367766" lon="11.915786909256003"><ele>249.0</ele><time>2026-04-21T14:36:39.999Z</time></trkpt><trkpt lat="43.11464704788347" lon="11.915583933221843"><ele>249.0</ele><time>2026-04-21T14:36:40.999Z</time></trkpt><trkpt lat="43.114666059143396" lon="11.915373535531858"><ele>249.0</ele><time>2026-04-21T14:36:41.999Z</time></trkpt><trkpt lat="43.11468979518976" lon="11.915148638595252"><ele>249.0</ele><time>2026-04-21T14:36:42.999Z</time></trkpt><trkpt lat="43.11471310985656" lon="11.914914489802657"><ele>249.0</ele><time>2026-04-21T14:36:43.999Z</time></trkpt><trkpt lat="43.1147351237454" lon="11.914674984232725"><ele>249.0</ele><time>2026-04-21T14:36:44.999Z</time></trkpt><trkpt lat="43.11475271798018" lon="11.914428717142105"><ele>248.66666666666669</ele><time>2026-04-21T14:36:45.999Z</time></trkpt><trkpt lat="43.11477468022567" lon="11.914168575545492"><ele>248.33333333333334</ele><time>2026-04-21T14:36:46.999Z</time></trkpt><trkpt lat="43.114795395589105" lon="11.91391073886613"><ele>248.0</ele><time>2026-04-21T14:36:47.999Z</time></trkpt><trkpt lat="43.11481810890434" lon="11.913647516980191"><ele>248.33333333333334</ele><time>2026-04-21T14:36:48.999Z</time></trkpt><trkpt lat="43.11483818601486" lon="11.913382448432204"><ele>248.66666666666669</ele><time>2026-04-21T14:36:49.999Z</time></trkpt><trkpt lat="43.11485593184031" lon="11.913102962106603"><ele>249.0</ele><time>2026-04-21T14:36:50.999Z</time></trkpt><trkpt lat="43.11486066333709" lon="11.91282080429469"><ele>249.0</ele><time>2026-04-21T14:36:51.999Z</time></trkpt><trkpt lat="43.11485589830535" lon="11.912530982092816"><ele>249.0</ele><time>2026-04-21T14:36:52.999Z</time></trkpt><trkpt lat="43.114844528983404" lon="11.912240352509878"><ele>249.0</ele><time>2026-04-21T14:36:53.999Z</time></trkpt><trkpt lat="43.114833461431445" lon="11.911946476244978"><ele>249.0</ele><time>2026-04-21T14:36:54.999Z</time></trkpt><trkpt lat="43.114825213368746" lon="11.911645084591086"><ele>249.0</ele><time>2026-04-21T14:36:55.999Z</time></trkpt><trkpt lat="43.11481364415044" lon="11.911355106307187"><ele>249.0</ele><time>2026-04-21T14:36:56.999Z</time></trkpt><trkpt lat="43.11479974900151" lon="11.91104845239149"><ele>248.5</ele><time>2026-04-21T14:36:57.999Z</time></trkpt><trkpt lat="43.11478576494438" lon="11.910738256860542"><ele>248.0</ele><time>2026-04-21T14:36:58.999Z</time></trkpt><trkpt lat="43.114772080426484" lon="11.910423871840203"><ele>248.0</ele><time>2026-04-21T14:36:59.999Z</time></trkpt><trkpt lat="43.114757930651365" lon="11.910110594836022"><ele>248.0</ele><time>2026-04-21T14:37:00.999Z</time></trkpt><trkpt lat="43.11474566170599" lon="11.909794714495197"><ele>249.0</ele><time>2026-04-21T14:37:01.999Z</time></trkpt><trkpt lat="43.11473630269989" lon="11.909475021501756"><ele>250.0</ele><time>2026-04-21T14:37:02.999Z</time></trkpt><trkpt lat="43.11472659667819" lon="11.909153685927608"><ele>250.33333333333331</ele><time>2026-04-21T14:37:03.999Z</time></trkpt><trkpt lat="43.114716034742365" lon="11.908849323765947"><ele>250.66666666666669</ele><time>2026-04-21T14:37:04.999Z</time></trkpt><trkpt lat="43.11470295172954" lon="11.90856767290701"><ele>251.0</ele><time>2026-04-21T14:37:05.999Z</time></trkpt><trkpt lat="43.11470553887679" lon="11.908301187712562"><ele>251.0</ele><time>2026-04-21T14:37:06.999Z</time></trkpt><trkpt lat="43.114691431205536" lon="11.908047861141739"><ele>251.0</ele><time>2026-04-21T14:37:07.999Z</time></trkpt><trkpt lat="43.11465070402293" lon="11.907811552555483"><ele>251.0</ele><time>2026-04-21T14:37:08.999Z</time></trkpt><trkpt lat="43.11459614211867" lon="11.907592628812312"><ele>250.66666666666669</ele><time>2026-04-21T14:37:09.999Z</time></trkpt><trkpt lat="43.11450592193114" lon="11.907397639009288"><ele>250.33333333333331</ele><time>2026-04-21T14:37:10.999Z</time></trkpt><trkpt lat="43.114385996191196" lon="11.90720743432224"><ele>250.0</ele><time>2026-04-21T14:37:11.999Z</time></trkpt><trkpt lat="43.11424230062999" lon="11.90703994991293"><ele>250.0</ele><time>2026-04-21T14:37:12.999Z</time></trkpt><trkpt lat="43.11408706237615" lon="11.90687746794905"><ele>250.0</ele><time>2026-04-21T14:37:13.999Z</time></trkpt><trkpt lat="43.11392527708857" lon="11.906704613030735"><ele>250.0</ele><time>2026-04-21T14:37:14.999Z</time></trkpt><trkpt lat="43.11376396064438" lon="11.906512280903687"><ele>249.66666666666666</ele><time>2026-04-21T14:37:16Z</time></trkpt><trkpt lat="43.113596936271314" lon="11.906312522810918"><ele>249.33333333333331</ele><time>2026-04-21T14:37:17Z</time></trkpt><trkpt lat="43.1134329593852" lon="11.906121089319361"><ele>249.0</ele><time>2026-04-21T14:37:18Z</time></trkpt><trkpt lat="43.113267182815925" lon="11.905930124791563"><ele>249.0</ele><time>2026-04-21T14:37:19Z</time></trkpt><trkpt lat="43.11310113573572" lon="11.905734607034956"><ele>249.0</ele><time>2026-04-21T14:37:20Z</time></trkpt><trkpt lat="43.11293481202554" lon="11.905538340828668"><ele>249.0</ele><time>2026-04-21T14:37:21Z</time></trkpt><trkpt lat="43.1127666846709" lon="11.905334737095293"><ele>249.0</ele><time>2026-04-21T14:37:22Z</time></trkpt><trkpt lat="43.11259663348491" lon="11.905130961274548"><ele>249.0</ele><time>2026-04-21T14:37:23Z</time></trkpt><trkpt lat="43.11242045503112" lon="11.904926900453528"><ele>249.0</ele><time>2026-04-21T14:37:24Z</time></trkpt><trkpt lat="43.11224337500082" lon="11.904722698374734"><ele>249.0</ele><time>2026-04-21T14:37:25Z</time></trkpt><trkpt lat="43.11206583727458" lon="11.904513884186029"><ele>249.0</ele><time>2026-04-21T14:37:26Z</time></trkpt><trkpt lat="43.11188802729998" lon="11.904303611953997"><ele>249.0</ele><time>2026-04-21T14:37:27Z</time></trkpt><trkpt lat="43.111710041459894" lon="11.90409143912318"><ele>249.5</ele><time>2026-04-21T14:37:28Z</time></trkpt><trkpt lat="43.11153013216173" lon="11.903880970826084"><ele>250.0</ele><time>2026-04-21T14:37:29Z</time></trkpt><trkpt lat="43.11135103528439" lon="11.903669566924194"><ele>250.0</ele><time>2026-04-21T14:37:30Z</time></trkpt><trkpt lat="43.111173351381176" lon="11.90344997884178"><ele>250.0</ele><time>2026-04-21T14:37:31Z</time></trkpt><trkpt lat="43.11100277114838" lon="11.90323343138981"><ele>249.5</ele><time>2026-04-21T14:37:32Z</time></trkpt><trkpt lat="43.11082974604699" lon="11.90300767611758"><ele>249.0</ele><time>2026-04-21T14:37:33Z</time></trkpt><trkpt lat="43.11065931301622" lon="11.902781704405674"><ele>248.5</ele><time>2026-04-21T14:37:34Z</time></trkpt><trkpt lat="43.11049335535809" lon="11.902553461916245"><ele>248.0</ele><time>2026-04-21T14:37:35Z</time></trkpt><trkpt lat="43.11033079105897" lon="11.902312452061961"><ele>248.0</ele><time>2026-04-21T14:37:36Z</time></trkpt><trkpt lat="43.11017964444026" lon="11.90205884935808"><ele>248.0</ele><time>2026-04-21T14:37:37Z</time></trkpt><trkpt lat="43.11003835007878" lon="11.901793886615444"><ele>248.0</ele><time>2026-04-21T14:37:38Z</time></trkpt><trkpt lat="43.10990041300204" lon="11.901529609385035"><ele>248.0</ele><time>2026-04-21T14:37:39Z</time></trkpt><trkpt lat="43.10976159624969" lon="11.901271961178077"><ele>248.0</ele><time>2026-04-21T14:37:40Z</time></trkpt><trkpt lat="43.10962311802261" lon="11.90101914375011"><ele>248.0</ele><time>2026-04-21T14:37:41Z</time></trkpt><trkpt lat="43.10948875651214" lon="11.900771763085073"><ele>248.0</ele><time>2026-04-21T14:37:42Z</time></trkpt><trkpt lat="43.10935757705733" lon="11.900527892318545"><ele>248.0</ele><time>2026-04-21T14:37:43Z</time></trkpt><trkpt lat="43.109240062656845" lon="11.900289903143287"><ele>248.0</ele><time>2026-04-21T14:37:44Z</time></trkpt><trkpt lat="43.10917091989807" lon="11.900034024103535"><ele>248.0</ele><time>2026-04-21T14:37:45Z</time></trkpt><trkpt lat="43.10911678256244" lon="11.899770036044822"><ele>248.0</ele><time>2026-04-21T14:37:46Z</time></trkpt><trkpt lat="43.10906689700571" lon="11.899485807378076"><ele>248.0</ele><time>2026-04-21T14:37:47Z</time></trkpt><trkpt lat="43.10900929835522" lon="11.899192454198413"><ele>248.0</ele><time>2026-04-21T14:37:48Z</time></trkpt><trkpt lat="43.10896098265894" lon="11.89889422021298"><ele>248.0</ele><time>2026-04-21T14:37:49Z</time></trkpt><trkpt lat="43.10890731022076" lon="11.898583967383255"><ele>248.5</ele><time>2026-04-21T14:37:50Z</time></trkpt><trkpt lat="43.108851131409736" lon="11.89827605450576"><ele>249.0</ele><time>2026-04-21T14:37:51Z</time></trkpt><trkpt lat="43.10882013324604" lon="11.897973219947422"><ele>249.0</ele><time>2026-04-21T14:37:52Z</time></trkpt><trkpt lat="43.10880528606071" lon="11.897665445787512"><ele>249.0</ele><time>2026-04-21T14:37:53Z</time></trkpt><trkpt lat="43.10879924413222" lon="11.897351788241163"><ele>249.5</ele><time>2026-04-21T14:37:54Z</time></trkpt><trkpt lat="43.10879528034048" lon="11.897033585765318"><ele>250.0</ele><time>2026-04-21T14:37:55Z</time></trkpt><trkpt lat="43.10877635649158" lon="11.896715023283237"><ele>250.0</ele><time>2026-04-21T14:37:56Z</time></trkpt><trkpt lat="43.10877240914698" lon="11.896397468716314"><ele>250.0</ele><time>2026-04-21T14:37:57Z</time></trkpt><trkpt lat="43.10876450812945" lon="11.89607774637867"><ele>250.0</ele><time>2026-04-21T14:37:58Z</time></trkpt><trkpt lat="43.10875249017275" lon="11.895756819595926"><ele>250.0</ele><time>2026-04-21T14:37:59Z</time></trkpt><trkpt lat="43.10873076702793" lon="11.895434606293835"><ele>250.0</ele><time>2026-04-21T14:38:00Z</time></trkpt><trkpt lat="43.10869710663347" lon="11.895109958244577"><ele>250.0</ele><time>2026-04-21T14:38:01Z</time></trkpt><trkpt lat="43.108662563797004" lon="11.89478249924202"><ele>250.0</ele><time>2026-04-21T14:38:02Z</time></trkpt><trkpt lat="43.10862536152548" lon="11.894455197162554"><ele>250.0</ele><time>2026-04-21T14:38:03Z</time></trkpt><trkpt lat="43.1085821029001" lon="11.894127267877488"><ele>250.0</ele><time>2026-04-21T14:38:04Z</time></trkpt><trkpt lat="43.10853761905231" lon="11.893797510586884"><ele>250.0</ele><time>2026-04-21T14:38:05Z</time></trkpt><trkpt lat="43.10848928004635" lon="11.893478379259818"><ele>250.0</ele><time>2026-04-21T14:38:06Z</time></trkpt><trkpt lat="43.108441051332235" lon="11.893167002127013"><ele>250.0</ele><time>2026-04-21T14:38:07Z</time></trkpt><trkpt lat="43.10838972704772" lon="11.892858566426277"><ele>250.5</ele><time>2026-04-21T14:38:08Z</time></trkpt><trkpt lat="43.108339027938236" lon="11.89255229615166"><ele>251.0</ele><time>2026-04-21T14:38:09Z</time></trkpt><trkpt lat="43.10828608944753" lon="11.89224782061766"><ele>251.0</ele><time>2026-04-21T14:38:10Z</time></trkpt><trkpt lat="43.10822797206702" lon="11.891946200794877"><ele>251.0</ele><time>2026-04-21T14:38:11Z</time></trkpt><trkpt lat="43.108166753076816" lon="11.891656344301492"><ele>251.0</ele><time>2026-04-21T14:38:12Z</time></trkpt><trkpt lat="43.10811189643443" lon="11.891344213380643"><ele>251.0</ele><time>2026-04-21T14:38:13Z</time></trkpt><trkpt lat="43.10806576011119" lon="11.89104048313557"><ele>251.0</ele><time>2026-04-21T14:38:14Z</time></trkpt><trkpt lat="43.10802491546414" lon="11.890725647630795"><ele>253.0</ele><time>2026-04-21T14:38:15Z</time></trkpt><trkpt lat="43.107979307483596" lon="11.890417260586695"><ele>255.0</ele><time>2026-04-21T14:38:16Z</time></trkpt><trkpt lat="43.107936529864645" lon="11.890100959106244"><ele>254.0</ele><time>2026-04-21T14:38:17Z</time></trkpt><trkpt lat="43.10789512467307" lon="11.8897789018029"><ele>253.0</ele><time>2026-04-21T14:38:18Z</time></trkpt><trkpt lat="43.107853949289606" lon="11.88945302661701"><ele>252.5</ele><time>2026-04-21T14:38:19Z</time></trkpt><trkpt lat="43.107811205806506" lon="11.889130044393598"><ele>252.0</ele><time>2026-04-21T14:38:20Z</time></trkpt><trkpt lat="43.107767804318726" lon="11.888801281467373"><ele>252.0</ele><time>2026-04-21T14:38:21Z</time></trkpt><trkpt lat="43.10772526433201" lon="11.888476995075742"><ele>252.0</ele><time>2026-04-21T14:38:22Z</time></trkpt><trkpt lat="43.10768395470722" lon="11.888153801214491"><ele>252.0</ele><time>2026-04-21T14:38:23Z</time></trkpt><trkpt lat="43.10764204320346" lon="11.887826356644556"><ele>252.0</ele><time>2026-04-21T14:38:24Z</time></trkpt><trkpt lat="43.10760013028661" lon="11.887502390862277"><ele>252.5</ele><time>2026-04-21T14:38:25Z</time></trkpt><trkpt lat="43.10756092710734" lon="11.887185124985495"><ele>253.0</ele><time>2026-04-21T14:38:26Z</time></trkpt><trkpt lat="43.107529520035385" lon="11.886878139615845"><ele>253.33333333333331</ele><time>2026-04-21T14:38:27Z</time></trkpt><trkpt lat="43.107520614767814" lon="11.886588855056019"><ele>253.66666666666669</ele><time>2026-04-21T14:38:28Z</time></trkpt><trkpt lat="43.107550480832565" lon="11.886306812838011"><ele>254.0</ele><time>2026-04-21T14:38:29Z</time></trkpt><trkpt lat="43.107611435865465" lon="11.886020579230353"><ele>254.33333333333334</ele><time>2026-04-21T14:38:30Z</time></trkpt><trkpt lat="43.10769450225847" lon="11.885741018500006"><ele>254.66666666666669</ele><time>2026-04-21T14:38:31Z</time></trkpt><trkpt lat="43.107795081111654" lon="11.885475094584326"><ele>255.0</ele><time>2026-04-21T14:38:32Z</time></trkpt><trkpt lat="43.10792143133091" lon="11.88522254988289"><ele>254.33333333333331</ele><time>2026-04-21T14:38:33Z</time></trkpt><trkpt lat="43.10807168794683" lon="11.88499968910543"><ele>253.66666666666666</ele><time>2026-04-21T14:38:34Z</time></trkpt><trkpt lat="43.10824638481219" lon="11.884799713088224"><ele>253.0</ele><time>2026-04-21T14:38:35Z</time></trkpt><trkpt lat="43.108441135296125" lon="11.884628740097021"><ele>252.5</ele><time>2026-04-21T14:38:36Z</time></trkpt><trkpt lat="43.10864444125741" lon="11.884473879572255"><ele>252.0</ele><time>2026-04-21T14:38:37Z</time></trkpt><trkpt lat="43.10884925120427" lon="11.884317724811911"><ele>252.0</ele><time>2026-04-21T14:38:38Z</time></trkpt><trkpt lat="43.109055913664804" lon="11.884157575676829"><ele>252.0</ele><time>2026-04-21T14:38:39Z</time></trkpt><trkpt lat="43.10926498848345" lon="11.883991882497492"><ele>252.0</ele><time>2026-04-21T14:38:40Z</time></trkpt><trkpt lat="43.109467334512715" lon="11.883830148363106"><ele>252.0</ele><time>2026-04-21T14:38:41Z</time></trkpt><trkpt lat="43.10967857147982" lon="11.883666714075249"><ele>252.0</ele><time>2026-04-21T14:38:42Z</time></trkpt><trkpt lat="43.10987643842335" lon="11.883511162617397"><ele>252.0</ele><time>2026-04-21T14:38:43Z</time></trkpt><trkpt lat="43.11006366356218" lon="11.883371136831084"><ele>252.0</ele><time>2026-04-21T14:38:44Z</time></trkpt><trkpt lat="43.11023150402635" lon="11.883239191812462"><ele>252.5</ele><time>2026-04-21T14:38:45Z</time></trkpt><trkpt lat="43.11037353219089" lon="11.883115895271658"><ele>253.0</ele><time>2026-04-21T14:38:46Z</time></trkpt><trkpt lat="43.11048474459181" lon="11.882997681421088"><ele>253.5</ele><time>2026-04-21T14:38:47Z</time></trkpt><trkpt lat="43.11055336641055" lon="11.882870208190974"><ele>254.0</ele><time>2026-04-21T14:38:48Z</time></trkpt><trkpt lat="43.11057565577176" lon="11.882727980598162"><ele>254.0</ele><time>2026-04-21T14:38:49Z</time></trkpt><trkpt lat="43.11056589124627" lon="11.882597010324499"><ele>253.99999999999997</ele><time>2026-04-21T14:38:50Z</time></trkpt><trkpt lat="43.11054362906924" lon="11.88248546035648"><ele>253.99999999999997</ele><time>2026-04-21T14:38:51Z</time></trkpt><trkpt lat="43.110486323935106" lon="11.882391486938285"><ele>254.0</ele><time>2026-04-21T14:38:53Z</time></trkpt><trkpt lat="43.11053904742277" lon="11.88228200151573"><ele>254.0</ele><time>2026-04-21T14:38:59Z</time></trkpt><trkpt lat="43.11064047684682" lon="11.882235760449571"><ele>254.0</ele><time>2026-04-21T14:39:00Z</time></trkpt><trkpt lat="43.1107233439454" lon="11.882176473887705"><ele>254.0</ele><time>2026-04-21T14:39:01Z</time></trkpt><trkpt lat="43.110823547751124" lon="11.882091162356483"><ele>254.0</ele><time>2026-04-21T14:39:02Z</time></trkpt><trkpt lat="43.110929585110725" lon="11.881995256255024"><ele>254.0</ele><time>2026-04-21T14:39:03Z</time></trkpt><trkpt lat="43.11104403422285" lon="11.881888879115582"><ele>253.66666666666669</ele><time>2026-04-21T14:39:04Z</time></trkpt><trkpt lat="43.111170821134095" lon="11.881775003668853"><ele>253.33333333333331</ele><time>2026-04-21T14:39:05Z</time></trkpt><trkpt lat="43.11130958992619" lon="11.881655893763462"><ele>253.0</ele><time>2026-04-21T14:39:06Z</time></trkpt><trkpt lat="43.111443353057915" lon="11.88153287733433"><ele>252.0</ele><time>2026-04-21T14:39:07Z</time></trkpt><trkpt lat="43.111586364290105" lon="11.881400463519913"><ele>251.0</ele><time>2026-04-21T14:39:08Z</time></trkpt><trkpt lat="43.11173493683971" lon="11.88126558379406"><ele>250.0</ele><time>2026-04-21T14:39:08.999Z</time></trkpt><trkpt lat="43.111878889368484" lon="11.881127896788698"><ele>250.0</ele><time>2026-04-21T14:39:10Z</time></trkpt><trkpt lat="43.11201386509968" lon="11.880998535845794"><ele>250.0</ele><time>2026-04-21T14:39:10.999Z</time></trkpt><trkpt lat="43.112135056079524" lon="11.88086346394786"><ele>250.0</ele><time>2026-04-21T14:39:11.999Z</time></trkpt><trkpt lat="43.11223410513303" lon="11.880708203267469"><ele>250.0</ele><time>2026-04-21T14:39:12.999Z</time></trkpt><trkpt lat="43.112306692519724" lon="11.88052780113051"><ele>250.0</ele><time>2026-04-21T14:39:13.999Z</time></trkpt><trkpt lat="43.11235327949272" lon="11.880331930316098"><ele>250.0</ele><time>2026-04-21T14:39:14.999Z</time></trkpt><trkpt lat="43.11239013051474" lon="11.880141396262532"><ele>250.0</ele><time>2026-04-21T14:39:15.999Z</time></trkpt><trkpt lat="43.112424864647195" lon="11.879944976772164"><ele>251.0</ele><time>2026-04-21T14:39:16.999Z</time></trkpt><trkpt lat="43.11246169423983" lon="11.879750759519045"><ele>252.0</ele><time>2026-04-21T14:39:17.999Z</time></trkpt><trkpt lat="43.11249808446012" lon="11.87955606072348"><ele>253.0</ele><time>2026-04-21T14:39:18.999Z</time></trkpt><trkpt lat="43.112527596524906" lon="11.879352475953073"><ele>254.0</ele><time>2026-04-21T14:39:19.999Z</time></trkpt><trkpt lat="43.112541192517085" lon="11.879147347814502"><ele>255.0</ele><time>2026-04-21T14:39:20.999Z</time></trkpt><trkpt lat="43.11253153605304" lon="11.87894063425037"><ele>256.0</ele><time>2026-04-21T14:39:22Z</time></trkpt><trkpt lat="43.11249586365179" lon="11.87873471043658"><ele>257.0</ele><time>2026-04-21T14:39:23Z</time></trkpt><trkpt lat="43.11242968486759" lon="11.878531700808558"><ele>259.33333333333337</ele><time>2026-04-21T14:39:24Z</time></trkpt><trkpt lat="43.112346680770955" lon="11.87833213335686"><ele>261.6666666666667</ele><time>2026-04-21T14:39:25Z</time></trkpt><trkpt lat="43.112273477597924" lon="11.878134069991951"><ele>264.0</ele><time>2026-04-21T14:39:26Z</time></trkpt><trkpt lat="43.11222101587822" lon="11.877949827230923"><ele>264.0</ele><time>2026-04-21T14:39:27Z</time></trkpt><trkpt lat="43.112156792807006" lon="11.877729972962701"><ele>264.0</ele><time>2026-04-21T14:39:28Z</time></trkpt><trkpt lat="43.112107520352986" lon="11.877504811529878"><ele>264.0</ele><time>2026-04-21T14:39:29Z</time></trkpt><trkpt lat="43.11207133833231" lon="11.877285753015629"><ele>263.75</ele><time>2026-04-21T14:39:30Z</time></trkpt><trkpt lat="43.112040688242985" lon="11.87709255072207"><ele>263.5</ele><time>2026-04-21T14:39:31Z</time></trkpt><trkpt lat="43.112015509219546" lon="11.876903085390857"><ele>263.25</ele><time>2026-04-21T14:39:32Z</time></trkpt><trkpt lat="43.11199557162863" lon="11.876704086343091"><ele>263.0</ele><time>2026-04-21T14:39:33Z</time></trkpt><trkpt lat="43.112015404937345" lon="11.876497495337505"><ele>263.0</ele><time>2026-04-21T14:39:34Z</time></trkpt><trkpt lat="43.11202568851352" lon="11.876279273974532"><ele>263.0</ele><time>2026-04-21T14:39:35Z</time></trkpt><trkpt lat="43.11201320255534" lon="11.876047914004085"><ele>263.0</ele><time>2026-04-21T14:39:36Z</time></trkpt><trkpt lat="43.11199816440379" lon="11.875811757112926"><ele>263.33333333333337</ele><time>2026-04-21T14:39:37Z</time></trkpt><trkpt lat="43.111955238844125" lon="11.875567567377157"><ele>263.6666666666667</ele><time>2026-04-21T14:39:38Z</time></trkpt><trkpt lat="43.11189953659113" lon="11.875308237420843"><ele>264.0</ele><time>2026-04-21T14:39:39Z</time></trkpt><trkpt lat="43.11185257552991" lon="11.875049705094426"><ele>264.3333333333333</ele><time>2026-04-21T14:39:40Z</time></trkpt><trkpt lat="43.11180035141647" lon="11.874780070283062"><ele>264.66666666666663</ele><time>2026-04-21T14:39:41Z</time></trkpt><trkpt lat="43.11174574183902" lon="11.87450600923445"><ele>265.0</ele><time>2026-04-21T14:39:42Z</time></trkpt><trkpt lat="43.11169413215666" lon="11.87421848703847"><ele>265.0</ele><time>2026-04-21T14:39:43Z</time></trkpt><trkpt lat="43.11164332072028" lon="11.873933453015466"><ele>265.0</ele><time>2026-04-21T14:39:44Z</time></trkpt><trkpt lat="43.11159249712566" lon="11.873651075898984"><ele>265.0</ele><time>2026-04-21T14:39:45Z</time></trkpt><trkpt lat="43.111542652895906" lon="11.873371473527202"><ele>266.66666666666663</ele><time>2026-04-21T14:39:46Z</time></trkpt><trkpt lat="43.11149171292065" lon="11.873094874717298"><ele>268.3333333333333</ele><time>2026-04-21T14:39:47Z</time></trkpt><trkpt lat="43.111439057166464" lon="11.87281626136155"><ele>270.0</ele><time>2026-04-21T14:39:48Z</time></trkpt><trkpt lat="43.11138823982043" lon="11.872547545836403"><ele>270.6666666666667</ele><time>2026-04-21T14:39:49Z</time></trkpt><trkpt lat="43.111340593648535" lon="11.87230901255339"><ele>271.33333333333337</ele><time>2026-04-21T14:39:50Z</time></trkpt><trkpt lat="43.111321387233545" lon="11.872080970931629"><ele>272.0</ele><time>2026-04-21T14:39:51Z</time></trkpt><trkpt lat="43.11134165325071" lon="11.871845235265882"><ele>274.0</ele><time>2026-04-21T14:39:52Z</time></trkpt><trkpt lat="43.11139786034551" lon="11.871601837236629"><ele>276.0</ele><time>2026-04-21T14:39:53Z</time></trkpt><trkpt lat="43.11146772375598" lon="11.871343055105898"><ele>278.0</ele><time>2026-04-21T14:39:54Z</time></trkpt><trkpt lat="43.11153637946698" lon="11.871074136478237"><ele>276.0</ele><time>2026-04-21T14:39:55Z</time></trkpt><trkpt lat="43.11160298961257" lon="11.870806987849287"><ele>274.0</ele><time>2026-04-21T14:39:56Z</time></trkpt><trkpt lat="43.11167542954489" lon="11.870527108998086"><ele>272.0</ele><time>2026-04-21T14:39:57Z</time></trkpt><trkpt lat="43.11174251428372" lon="11.870253581167582"><ele>273.33333333333337</ele><time>2026-04-21T14:39:58Z</time></trkpt><trkpt lat="43.11180875243957" lon="11.869981183299863"><ele>274.6666666666667</ele><time>2026-04-21T14:39:59Z</time></trkpt><trkpt lat="43.111874012937946" lon="11.869714476166491"><ele>276.0</ele><time>2026-04-21T14:40:00Z</time></trkpt><trkpt lat="43.11196103043619" lon="11.869476341293721"><ele>277.6666666666667</ele><time>2026-04-21T14:40:01Z</time></trkpt><trkpt lat="43.11204598503991" lon="11.86927140250077"><ele>279.33333333333337</ele><time>2026-04-21T14:40:02Z</time></trkpt><trkpt lat="43.11214395889044" lon="11.869098370751084"><ele>281.0</ele><time>2026-04-21T14:40:03Z</time></trkpt><trkpt lat="43.11226637554525" lon="11.868981756285592"><ele>281.0</ele><time>2026-04-21T14:40:04Z</time></trkpt><trkpt lat="43.11240350314536" lon="11.868857618647702"><ele>281.0</ele><time>2026-04-21T14:40:05Z</time></trkpt><trkpt lat="43.11254340066625" lon="11.868726944918407"><ele>281.0</ele><time>2026-04-21T14:40:06Z</time></trkpt><trkpt lat="43.112673020630325" lon="11.868562614315744"><ele>282.33333333333337</ele><time>2026-04-21T14:40:07Z</time></trkpt><trkpt lat="43.11280213065101" lon="11.868387766175658"><ele>283.6666666666667</ele><time>2026-04-21T14:40:08Z</time></trkpt><trkpt lat="43.11291994769122" lon="11.868183335644533"><ele>285.0</ele><time>2026-04-21T14:40:09Z</time></trkpt><trkpt lat="43.113013874759254" lon="11.86794864030736"><ele>285.0</ele><time>2026-04-21T14:40:10Z</time></trkpt><trkpt lat="43.113088398500416" lon="11.867698305234343"><ele>285.0</ele><time>2026-04-21T14:40:11Z</time></trkpt><trkpt lat="43.113145775555466" lon="11.867444393108558"><ele>285.0</ele><time>2026-04-21T14:40:12Z</time></trkpt><trkpt lat="43.113184710869014" lon="11.867193214351003"><ele>287.0</ele><time>2026-04-21T14:40:13Z</time></trkpt><trkpt lat="43.11320087584383" lon="11.866962864847498"><ele>289.0</ele><time>2026-04-21T14:40:14Z</time></trkpt><trkpt lat="43.11320406694919" lon="11.866761597386539"><ele>291.0</ele><time>2026-04-21T14:40:15Z</time></trkpt><trkpt lat="43.11319867835322" lon="11.86658757467089"><ele>293.0</ele><time>2026-04-21T14:40:16Z</time></trkpt><trkpt lat="43.11319048049985" lon="11.866445717094017"><ele>294.6</ele><time>2026-04-21T14:40:17Z</time></trkpt><trkpt lat="43.11317304499399" lon="11.866296029276949"><ele>296.20000000000005</ele><time>2026-04-21T14:40:18Z</time></trkpt><trkpt lat="43.11316855963364" lon="11.86616676701209"><ele>297.8</ele><time>2026-04-21T14:40:19Z</time></trkpt><trkpt lat="43.11316352731136" lon="11.866032714383929"><ele>299.40000000000003</ele><time>2026-04-21T14:40:20Z</time></trkpt><trkpt lat="43.11315605373266" lon="11.865892913353154"><ele>301.0</ele><time>2026-04-21T14:40:21Z</time></trkpt><trkpt lat="43.113152248905664" lon="11.865760275082863"><ele>301.6</ele><time>2026-04-21T14:40:22Z</time></trkpt><trkpt lat="43.113154121548284" lon="11.86563069050093"><ele>302.20000000000005</ele><time>2026-04-21T14:40:23Z</time></trkpt><trkpt lat="43.113161093248706" lon="11.865490519532917"><ele>302.79999999999995</ele><time>2026-04-21T14:40:24Z</time></trkpt><trkpt lat="43.11318129774396" lon="11.865353424399734"><ele>303.4</ele><time>2026-04-21T14:40:25Z</time></trkpt><trkpt lat="43.11322478476328" lon="11.86522773184299"><ele>304.0</ele><time>2026-04-21T14:40:26Z</time></trkpt><trkpt lat="43.1133040769126" lon="11.865134327003503"><ele>301.8</ele><time>2026-04-21T14:40:27Z</time></trkpt><trkpt lat="43.11335121996852" lon="11.865015672121885"><ele>299.59999999999997</ele><time>2026-04-21T14:40:28Z</time></trkpt><trkpt lat="43.11341364412794" lon="11.864919643088172"><ele>297.4</ele><time>2026-04-21T14:40:29Z</time></trkpt><trkpt lat="43.11347277287435" lon="11.864815383406617"><ele>295.2</ele><time>2026-04-21T14:40:30Z</time></trkpt><trkpt lat="43.113526490854476" lon="11.864715756864715"><ele>293.0</ele><time>2026-04-21T14:40:31Z</time></trkpt><trkpt lat="43.11357120944225" lon="11.86461687357196"><ele>293.0</ele><time>2026-04-21T14:40:32Z</time></trkpt><trkpt lat="43.11362552054701" lon="11.864538898012933"><ele>293.0</ele><time>2026-04-21T14:40:33Z</time></trkpt><trkpt lat="43.11367261785667" lon="11.864442684927983"><ele>293.0</ele><time>2026-04-21T14:40:34Z</time></trkpt><trkpt lat="43.113718347767986" lon="11.864348271405941"><ele>293.0</ele><time>2026-04-21T14:40:35Z</time></trkpt><trkpt lat="43.1137623477393" lon="11.864260796157156"><ele>293.0</ele><time>2026-04-21T14:40:36Z</time></trkpt><trkpt lat="43.11380358744522" lon="11.864184975456839"><ele>293.0</ele><time>2026-04-21T14:40:37Z</time></trkpt><trkpt lat="43.11383432923984" lon="11.864093176884435"><ele>292.83333333333337</ele><time>2026-04-21T14:40:38Z</time></trkpt><trkpt lat="43.113901557242684" lon="11.864029231165883"><ele>292.6666666666667</ele><time>2026-04-21T14:40:39Z</time></trkpt><trkpt lat="43.11394947764803" lon="11.863958424119923"><ele>292.5</ele><time>2026-04-21T14:40:40Z</time></trkpt><trkpt lat="43.113981498741374" lon="11.863883069017222"><ele>292.3333333333333</ele><time>2026-04-21T14:40:41Z</time></trkpt><trkpt lat="43.114060195990604" lon="11.863778886650369"><ele>292.16666666666663</ele><time>2026-04-21T14:40:43Z</time></trkpt><trkpt lat="43.114114477768986" lon="11.863683204837518"><ele>292.0</ele><time>2026-04-21T14:40:45Z</time></trkpt><trkpt lat="43.114166852215924" lon="11.863588244804665"><ele>292.25</ele><time>2026-04-21T14:40:47Z</time></trkpt><trkpt lat="43.11424836022002" lon="11.863475215720706"><ele>292.5</ele><time>2026-04-21T14:40:49Z</time></trkpt><trkpt lat="43.11429718838074" lon="11.86335747832743"><ele>292.75</ele><time>2026-04-21T14:40:51Z</time></trkpt><trkpt lat="43.1143091024664" lon="11.863199649225736"><ele>293.0</ele><time>2026-04-21T14:40:59Z</time></trkpt><trkpt lat="43.114217690099885" lon="11.863470057438526"><ele>292.83333333333337</ele><time>2026-04-21T14:41:00Z</time></trkpt><trkpt lat="43.11418093078706" lon="11.863561626524879"><ele>292.6666666666667</ele><time>2026-04-21T14:41:01Z</time></trkpt><trkpt lat="43.11410898435237" lon="11.863664347564606"><ele>292.5</ele><time>2026-04-21T14:41:03Z</time></trkpt><trkpt lat="43.114039656847076" lon="11.863634588267766"><ele>292.3333333333333</ele><time>2026-04-21T14:41:07Z</time></trkpt><trkpt lat="43.113977990650845" lon="11.863559742238964"><ele>292.16666666666663</ele><time>2026-04-21T14:41:08Z</time></trkpt><trkpt lat="43.113911051199814" lon="11.863476002967287"><ele>292.0</ele><time>2026-04-21T14:41:09Z</time></trkpt><trkpt lat="43.11385157337697" lon="11.863410057195626"><ele>291.5</ele><time>2026-04-21T14:41:10Z</time></trkpt><trkpt lat="43.113798792535015" lon="11.8633431124507"><ele>291.0</ele><time>2026-04-21T14:41:11Z</time></trkpt><trkpt lat="43.11373013555564" lon="11.863292201299393"><ele>290.5</ele><time>2026-04-21T14:41:12Z</time></trkpt><trkpt lat="43.113662872436294" lon="11.863225872592643"><ele>290.0</ele><time>2026-04-21T14:41:13Z</time></trkpt><trkpt lat="43.11360275783745" lon="11.863157799907075"><ele>289.5</ele><time>2026-04-21T14:41:14Z</time></trkpt><trkpt lat="43.11351985536113" lon="11.863073415262017"><ele>289.0</ele><time>2026-04-21T14:41:16Z</time></trkpt><trkpt lat="43.113443407660085" lon="11.863007883260224"><ele>289.0</ele><time>2026-04-21T14:41:18Z</time></trkpt><trkpt lat="43.11333959575203" lon="11.86291385824797"><ele>289.0</ele><time>2026-04-21T14:41:20Z</time></trkpt><trkpt lat="43.11327222761472" lon="11.862860195120291"><ele>289.0</ele><time>2026-04-21T14:41:21Z</time></trkpt><trkpt lat="43.11321407006426" lon="11.862792900921011"><ele>289.0</ele><time>2026-04-21T14:41:22Z</time></trkpt><trkpt lat="43.1131432607389" lon="11.862710940854994"><ele>289.0</ele><time>2026-04-21T14:41:23Z</time></trkpt><trkpt lat="43.11306009807713" lon="11.862606319221017"><ele>285.25</ele><time>2026-04-21T14:41:23.999Z</time></trkpt><trkpt lat="43.11297407256238" lon="11.862486724070976"><ele>281.5</ele><time>2026-04-21T14:41:24.999Z</time></trkpt><trkpt lat="43.11287464357904" lon="11.86235940193444"><ele>277.75</ele><time>2026-04-21T14:41:25.999Z</time></trkpt><trkpt lat="43.112781136001836" lon="11.862227523153802"><ele>274.0</ele><time>2026-04-21T14:41:26.999Z</time></trkpt><trkpt lat="43.11270377005261" lon="11.862088221703655"><ele>274.0</ele><time>2026-04-21T14:41:28Z</time></trkpt><trkpt lat="43.11261643446783" lon="11.861956457337088"><ele>274.0</ele><time>2026-04-21T14:41:29Z</time></trkpt><trkpt lat="43.11252855236237" lon="11.861826807121279"><ele>274.0</ele><time>2026-04-21T14:41:30Z</time></trkpt><trkpt lat="43.11243914582084" lon="11.86169977847086"><ele>274.0</ele><time>2026-04-21T14:41:31Z</time></trkpt><trkpt lat="43.11235133557259" lon="11.861574732246702"><ele>273.0</ele><time>2026-04-21T14:41:32Z</time></trkpt><trkpt lat="43.11227861595067" lon="11.861430911025254"><ele>272.0</ele><time>2026-04-21T14:41:33Z</time></trkpt><trkpt lat="43.11218844747431" lon="11.861314605364564"><ele>271.0</ele><time>2026-04-21T14:41:34Z</time></trkpt><trkpt lat="43.11211271011719" lon="11.861183735085717"><ele>270.0</ele><time>2026-04-21T14:41:35Z</time></trkpt><trkpt lat="43.11202949826866" lon="11.861056951795874"><ele>269.25</ele><time>2026-04-21T14:41:36Z</time></trkpt><trkpt lat="43.11194563314768" lon="11.860932599958254"><ele>268.5</ele><time>2026-04-21T14:41:37Z</time></trkpt><trkpt lat="43.11186241544135" lon="11.860809750706693"><ele>267.75</ele><time>2026-04-21T14:41:38Z</time></trkpt><trkpt lat="43.1117692804882" lon="11.860706038617634"><ele>267.0</ele><time>2026-04-21T14:41:39Z</time></trkpt><trkpt lat="43.11167287927384" lon="11.860600621248484"><ele>266.75</ele><time>2026-04-21T14:41:40Z</time></trkpt><trkpt lat="43.111571080818685" lon="11.860505519330406"><ele>266.5</ele><time>2026-04-21T14:41:41Z</time></trkpt><trkpt lat="43.11147044688152" lon="11.860415948795842"><ele>266.25</ele><time>2026-04-21T14:41:42Z</time></trkpt><trkpt lat="43.11136944844185" lon="11.860326700096321"><ele>266.0</ele><time>2026-04-21T14:41:43Z</time></trkpt><trkpt lat="43.11127021448077" lon="11.860237497757334"><ele>266.0</ele><time>2026-04-21T14:41:44Z</time></trkpt><trkpt lat="43.11116982079792" lon="11.860145557639829"><ele>266.0</ele><time>2026-04-21T14:41:45Z</time></trkpt><trkpt lat="43.11106963725432" lon="11.860052343941899"><ele>266.0</ele><time>2026-04-21T14:41:46Z</time></trkpt><trkpt lat="43.11096787685332" lon="11.859957192914063"><ele>266.0</ele><time>2026-04-21T14:41:47Z</time></trkpt><trkpt lat="43.11086559212942" lon="11.85986717479485"><ele>266.0</ele><time>2026-04-21T14:41:48Z</time></trkpt><trkpt lat="43.110762724587936" lon="11.859778221883507"><ele>266.0</ele><time>2026-04-21T14:41:49Z</time></trkpt><trkpt lat="43.11065629413462" lon="11.859687951225908"><ele>266.0</ele><time>2026-04-21T14:41:50Z</time></trkpt><trkpt lat="43.11055158575148" lon="11.859598304850053"><ele>266.0</ele><time>2026-04-21T14:41:51Z</time></trkpt><trkpt lat="43.110448843024166" lon="11.859499682344797"><ele>266.0</ele><time>2026-04-21T14:41:52Z</time></trkpt><trkpt lat="43.1103450962436" lon="11.859403310576162"><ele>266.0</ele><time>2026-04-21T14:41:53Z</time></trkpt><trkpt lat="43.11024662436297" lon="11.859313085192376"><ele>266.0</ele><time>2026-04-21T14:41:54Z</time></trkpt><trkpt lat="43.110156801319754" lon="11.85922818051493"><ele>266.0</ele><time>2026-04-21T14:41:55Z</time></trkpt><trkpt lat="43.11007417934268" lon="11.859152158836675"><ele>266.0</ele><time>2026-04-21T14:41:56Z</time></trkpt><trkpt lat="43.109994784940554" lon="11.859077562364105"><ele>266.0</ele><time>2026-04-21T14:41:57Z</time></trkpt><trkpt lat="43.109915972173106" lon="11.859004994703573"><ele>266.0</ele><time>2026-04-21T14:41:58Z</time></trkpt><trkpt lat="43.10982979610722" lon="11.85892669651103"><ele>266.0</ele><time>2026-04-21T14:41:59Z</time></trkpt><trkpt lat="43.10973841395196" lon="11.85884390662812"><ele>266.0</ele><time>2026-04-21T14:42:00Z</time></trkpt><trkpt lat="43.10964656564823" lon="11.858758454894824"><ele>266.5</ele><time>2026-04-21T14:42:01Z</time></trkpt><trkpt lat="43.10955333493891" lon="11.858672807424043"><ele>267.0</ele><time>2026-04-21T14:42:02Z</time></trkpt><trkpt lat="43.10945893416611" lon="11.858590050559863"><ele>267.5</ele><time>2026-04-21T14:42:03Z</time></trkpt><trkpt lat="43.10936501359307" lon="11.85849965819313"><ele>268.0</ele><time>2026-04-21T14:42:04Z</time></trkpt><trkpt lat="43.1092682568369" lon="11.8584053764038"><ele>268.0</ele><time>2026-04-21T14:42:05Z</time></trkpt><trkpt lat="43.109164393348145" lon="11.858316841115114"><ele>268.0</ele><time>2026-04-21T14:42:06Z</time></trkpt><trkpt lat="43.10905712503576" lon="11.858226853350772"><ele>268.0</ele><time>2026-04-21T14:42:07Z</time></trkpt><trkpt lat="43.10894838211748" lon="11.858133133385651"><ele>268.0</ele><time>2026-04-21T14:42:08Z</time></trkpt><trkpt lat="43.10883875143471" lon="11.858036531919202"><ele>268.0</ele><time>2026-04-21T14:42:09Z</time></trkpt><trkpt lat="43.1087268600166" lon="11.857934801443008"><ele>268.0</ele><time>2026-04-21T14:42:10Z</time></trkpt><trkpt lat="43.1086137457227" lon="11.857827240601877"><ele>268.0</ele><time>2026-04-21T14:42:11Z</time></trkpt><trkpt lat="43.10849800338416" lon="11.85772454476034"><ele>268.0</ele><time>2026-04-21T14:42:12Z</time></trkpt><trkpt lat="43.10838270714477" lon="11.857608504504029"><ele>268.0</ele><time>2026-04-21T14:42:13Z</time></trkpt><trkpt lat="43.10827456387925" lon="11.857473399200398"><ele>268.0</ele><time>2026-04-21T14:42:14Z</time></trkpt><trkpt lat="43.10818557989318" lon="11.857321408746738"><ele>268.0</ele><time>2026-04-21T14:42:15Z</time></trkpt><trkpt lat="43.10812608824388" lon="11.857155213012293"><ele>268.0</ele><time>2026-04-21T14:42:16Z</time></trkpt><trkpt lat="43.108076511365816" lon="11.856973976599765"><ele>268.5</ele><time>2026-04-21T14:42:17Z</time></trkpt><trkpt lat="43.10803689678624" lon="11.856792075511429"><ele>269.0</ele><time>2026-04-21T14:42:18Z</time></trkpt><trkpt lat="43.10801214236686" lon="11.856595932283067"><ele>269.5</ele><time>2026-04-21T14:42:19Z</time></trkpt><trkpt lat="43.108016056307875" lon="11.856396418597834"><ele>270.0</ele><time>2026-04-21T14:42:20Z</time></trkpt><trkpt lat="43.10801853670668" lon="11.856188251118583"><ele>270.0</ele><time>2026-04-21T14:42:21Z</time></trkpt><trkpt lat="43.10800990101963" lon="11.855974148452097"><ele>270.0</ele><time>2026-04-21T14:42:22Z</time></trkpt><trkpt lat="43.107966177585254" lon="11.855757335129901"><ele>270.0</ele><time>2026-04-21T14:42:23Z</time></trkpt><trkpt lat="43.10788422503376" lon="11.855556752141677"><ele>270.3333333333333</ele><time>2026-04-21T14:42:24Z</time></trkpt><trkpt lat="43.107796127318196" lon="11.85535951502621"><ele>270.66666666666663</ele><time>2026-04-21T14:42:25Z</time></trkpt><trkpt lat="43.10769851265088" lon="11.855159909605423"><ele>271.0</ele><time>2026-04-21T14:42:26Z</time></trkpt><trkpt lat="43.10759790787561" lon="11.854956404484708"><ele>272.0</ele><time>2026-04-21T14:42:27Z</time></trkpt><trkpt lat="43.10749375800607" lon="11.854761404679136"><ele>273.0</ele><time>2026-04-21T14:42:28Z</time></trkpt><trkpt lat="43.10741442367104" lon="11.854547845721907"><ele>274.0</ele><time>2026-04-21T14:42:29Z</time></trkpt><trkpt lat="43.10734551437142" lon="11.854353024063903"><ele>274.5</ele><time>2026-04-21T14:42:30Z</time></trkpt><trkpt lat="43.10730459233995" lon="11.854172819500267"><ele>275.0</ele><time>2026-04-21T14:42:31Z</time></trkpt><trkpt lat="43.107273320521045" lon="11.854013816306567"><ele>275.5</ele><time>2026-04-21T14:42:32Z</time></trkpt><trkpt lat="43.107263189751635" lon="11.853845310181153"><ele>276.0</ele><time>2026-04-21T14:42:33Z</time></trkpt><trkpt lat="43.10728053687016" lon="11.853666203191986"><ele>276.0</ele><time>2026-04-21T14:42:34Z</time></trkpt><trkpt lat="43.10729183335082" lon="11.853477942819179"><ele>276.0</ele><time>2026-04-21T14:42:35Z</time></trkpt><trkpt lat="43.10729824154617" lon="11.853288575053412"><ele>276.0</ele><time>2026-04-21T14:42:36Z</time></trkpt><trkpt lat="43.10728498728733" lon="11.85311584267735"><ele>276.0</ele><time>2026-04-21T14:42:37Z</time></trkpt><trkpt lat="43.10727001328062" lon="11.852968612649933"><ele>277.25</ele><time>2026-04-21T14:42:38Z</time></trkpt><trkpt lat="43.107231927266184" lon="11.852826148736646"><ele>278.5</ele><time>2026-04-21T14:42:39Z</time></trkpt><trkpt lat="43.107170260982876" lon="11.852683200850578"><ele>279.75</ele><time>2026-04-21T14:42:40Z</time></trkpt><trkpt lat="43.10709502802127" lon="11.852539519403596"><ele>281.0</ele><time>2026-04-21T14:42:41Z</time></trkpt><trkpt lat="43.10700439978058" lon="11.852404569137308"><ele>282.75</ele><time>2026-04-21T14:42:42Z</time></trkpt><trkpt lat="43.10690327329211" lon="11.852281520425727"><ele>284.5</ele><time>2026-04-21T14:42:43Z</time></trkpt><trkpt lat="43.10679622914616" lon="11.852161706925054"><ele>286.25</ele><time>2026-04-21T14:42:44Z</time></trkpt><trkpt lat="43.10668378689352" lon="11.85204185013402"><ele>288.0</ele><time>2026-04-21T14:42:45Z</time></trkpt><trkpt lat="43.10655817330604" lon="11.8519363629671"><ele>288.3333333333333</ele><time>2026-04-21T14:42:46Z</time></trkpt><trkpt lat="43.10643103275098" lon="11.851837931294867"><ele>288.66666666666663</ele><time>2026-04-21T14:42:47Z</time></trkpt><trkpt lat="43.10629486853998" lon="11.851739679698445"><ele>289.0</ele><time>2026-04-21T14:42:48Z</time></trkpt><trkpt lat="43.10616355641022" lon="11.851628965803378"><ele>290.3333333333333</ele><time>2026-04-21T14:42:49Z</time></trkpt><trkpt lat="43.10605216749328" lon="11.851476052380972"><ele>291.6666666666667</ele><time>2026-04-21T14:42:50Z</time></trkpt><trkpt lat="43.10591135653683" lon="11.851353047399469"><ele>293.0</ele><time>2026-04-21T14:42:51Z</time></trkpt><trkpt lat="43.10577573714165" lon="11.851211558928506"><ele>292.33333333333337</ele><time>2026-04-21T14:42:52Z</time></trkpt><trkpt lat="43.10563533539061" lon="11.851084883117448"><ele>291.6666666666667</ele><time>2026-04-21T14:42:53Z</time></trkpt><trkpt lat="43.10549010612871" lon="11.850964492465913"><ele>291.0</ele><time>2026-04-21T14:42:54Z</time></trkpt><trkpt lat="43.10534775163874" lon="11.850862356665049"><ele>292.5</ele><time>2026-04-21T14:42:55Z</time></trkpt><trkpt lat="43.1052047475816" lon="11.850778409877385"><ele>294.0</ele><time>2026-04-21T14:42:56Z</time></trkpt><trkpt lat="43.10507119874672" lon="11.850718398112527"><ele>295.5</ele><time>2026-04-21T14:42:57Z</time></trkpt><trkpt lat="43.104948992137274" lon="11.85066603882709"><ele>297.0</ele><time>2026-04-21T14:42:58Z</time></trkpt><trkpt lat="43.104832619190624" lon="11.850592134688515"><ele>298.25</ele><time>2026-04-21T14:42:59Z</time></trkpt><trkpt lat="43.104747639247265" lon="11.85046925186583"><ele>299.5</ele><time>2026-04-21T14:43:00Z</time></trkpt><trkpt lat="43.10467890476427" lon="11.850340037108424"><ele>300.75</ele><time>2026-04-21T14:43:01Z</time></trkpt><trkpt lat="43.10460532393983" lon="11.850199066501037"><ele>302.0</ele><time>2026-04-21T14:43:02Z</time></trkpt><trkpt lat="43.104545734809136" lon="11.850039898155"><ele>302.8</ele><time>2026-04-21T14:43:03Z</time></trkpt><trkpt lat="43.104478692742425" lon="11.849897647266738"><ele>303.6</ele><time>2026-04-21T14:43:04Z</time></trkpt><trkpt lat="43.104406345306984" lon="11.8497874727818"><ele>304.40000000000003</ele><time>2026-04-21T14:43:05Z</time></trkpt><trkpt lat="43.104325148749304" lon="11.849695230829917"><ele>305.2</ele><time>2026-04-21T14:43:06Z</time></trkpt><trkpt lat="43.10424049847179" lon="11.849610956810096"><ele>306.0</ele><time>2026-04-21T14:43:07Z</time></trkpt><trkpt lat="43.10415924284521" lon="11.849518727594502"><ele>306.0</ele><time>2026-04-21T14:43:08Z</time></trkpt><trkpt lat="43.104081439534504" lon="11.84942478543125"><ele>306.0</ele><time>2026-04-21T14:43:09Z</time></trkpt><trkpt lat="43.104011978779724" lon="11.849335541049065"><ele>306.0</ele><time>2026-04-21T14:43:10Z</time></trkpt><trkpt lat="43.10394892710438" lon="11.849244123204345"><ele>306.0</ele><time>2026-04-21T14:43:11Z</time></trkpt><trkpt lat="43.10389135955487" lon="11.84914690553147"><ele>306.0</ele><time>2026-04-21T14:43:12Z</time></trkpt><trkpt lat="43.103864368594735" lon="11.849037901792132"><ele>307.0</ele><time>2026-04-21T14:43:13Z</time></trkpt><trkpt lat="43.103823445487734" lon="11.848954696944931"><ele>308.0</ele><time>2026-04-21T14:43:14Z</time></trkpt><trkpt lat="43.10380967928924" lon="11.848868876411958"><ele>309.0</ele><time>2026-04-21T14:43:15Z</time></trkpt><trkpt lat="43.10379620941955" lon="11.848777309709902"><ele>310.0</ele><time>2026-04-21T14:43:16Z</time></trkpt><trkpt lat="43.103769183377985" lon="11.848644086608395"><ele>311.0</ele><time>2026-04-21T14:43:18Z</time></trkpt><trkpt lat="43.10374596376078" lon="11.848512194211313"><ele>312.0</ele><time>2026-04-21T14:43:20Z</time></trkpt><trkpt lat="43.103729968359254" lon="11.848391714819497"><ele>312.0</ele><time>2026-04-21T14:43:21Z</time></trkpt><trkpt lat="43.10371430494889" lon="11.848245001512025"><ele>312.0</ele><time>2026-04-21T14:43:22Z</time></trkpt><trkpt lat="43.10369232741803" lon="11.848078971288201"><ele>312.0</ele><time>2026-04-21T14:43:23Z</time></trkpt><trkpt lat="43.10365683940319" lon="11.847915993909087"><ele>312.0</ele><time>2026-04-21T14:43:24Z</time></trkpt><trkpt lat="43.10360941188731" lon="11.847747832902716"><ele>312.25</ele><time>2026-04-21T14:43:25Z</time></trkpt><trkpt lat="43.10355522494969" lon="11.847570910042373"><ele>312.5</ele><time>2026-04-21T14:43:26Z</time></trkpt><trkpt lat="43.10350118984121" lon="11.847386148704357"><ele>312.75</ele><time>2026-04-21T14:43:27Z</time></trkpt><trkpt lat="43.10344521746024" lon="11.847201723309132"><ele>313.0</ele><time>2026-04-21T14:43:28Z</time></trkpt><trkpt lat="43.10338401774229" lon="11.84703809585075"><ele>313.0</ele><time>2026-04-21T14:43:29Z</time></trkpt><trkpt lat="43.10331482745614" lon="11.846872519879442"><ele>313.0</ele><time>2026-04-21T14:43:30Z</time></trkpt><trkpt lat="43.10324691462526" lon="11.846704576492064"><ele>313.0</ele><time>2026-04-21T14:43:31Z</time></trkpt><trkpt lat="43.103171190668185" lon="11.846536591017902"><ele>313.0</ele><time>2026-04-21T14:43:32Z</time></trkpt><trkpt lat="43.103096308610766" lon="11.846375323653055"><ele>314.25</ele><time>2026-04-21T14:43:33Z</time></trkpt><trkpt lat="43.103027506595495" lon="11.846215625643264"><ele>315.5</ele><time>2026-04-21T14:43:34Z</time></trkpt><trkpt lat="43.10294653285249" lon="11.846068727419025"><ele>316.75</ele><time>2026-04-21T14:43:35Z</time></trkpt><trkpt lat="43.10285753119588" lon="11.845914990346374"><ele>318.0</ele><time>2026-04-21T14:43:36Z</time></trkpt><trkpt lat="43.102754527839956" lon="11.84578367917072"><ele>321.0</ele><time>2026-04-21T14:43:37Z</time></trkpt><trkpt lat="43.10265139682275" lon="11.845635304790015"><ele>324.0</ele><time>2026-04-21T14:43:38Z</time></trkpt><trkpt lat="43.102552968099324" lon="11.845510187971508"><ele>327.0</ele><time>2026-04-21T14:43:39Z</time></trkpt><trkpt lat="43.102461085904245" lon="11.845398270577013"><ele>330.0</ele><time>2026-04-21T14:43:40Z</time></trkpt><trkpt lat="43.10235648788837" lon="11.845304282378772"><ele>330.0</ele><time>2026-04-21T14:43:41Z</time></trkpt><trkpt lat="43.102232028376896" lon="11.845256858145119"><ele>330.0</ele><time>2026-04-21T14:43:42Z</time></trkpt><trkpt lat="43.102093832620284" lon="11.845235209640467"><ele>330.0</ele><time>2026-04-21T14:43:43Z</time></trkpt><trkpt lat="43.10194885347503" lon="11.845205003656636"><ele>330.0</ele><time>2026-04-21T14:43:44Z</time></trkpt><trkpt lat="43.10181946149851" lon="11.845154112673896"><ele>329.75</ele><time>2026-04-21T14:43:45Z</time></trkpt><trkpt lat="43.10170693495894" lon="11.845075955771465"><ele>329.5</ele><time>2026-04-21T14:43:46Z</time></trkpt><trkpt lat="43.10161436817174" lon="11.844962585662905"><ele>329.25</ele><time>2026-04-21T14:43:47Z</time></trkpt><trkpt lat="43.10157009440426" lon="11.844803147505866"><ele>329.0</ele><time>2026-04-21T14:43:48Z</time></trkpt><trkpt lat="43.10154912096594" lon="11.844660626691585"><ele>329.0</ele><time>2026-04-21T14:43:49Z</time></trkpt><trkpt lat="43.10153178151877" lon="11.84448908616088"><ele>329.0</ele><time>2026-04-21T14:43:50Z</time></trkpt><trkpt lat="43.10150429034701" lon="11.844293848071244"><ele>329.0</ele><time>2026-04-21T14:43:51Z</time></trkpt><trkpt lat="43.10149049435158" lon="11.84409884769954"><ele>329.0</ele><time>2026-04-21T14:43:52Z</time></trkpt><trkpt lat="43.101451222016344" lon="11.843927521318532"><ele>329.2</ele><time>2026-04-21T14:43:53Z</time></trkpt><trkpt lat="43.10139264073054" lon="11.843795950514265"><ele>329.4</ele><time>2026-04-21T14:43:54Z</time></trkpt><trkpt lat="43.10132474234562" lon="11.843676499288957"><ele>329.6</ele><time>2026-04-21T14:43:55Z</time></trkpt><trkpt lat="43.10125377035825" lon="11.843569095990613"><ele>329.8</ele><time>2026-04-21T14:43:56Z</time></trkpt><trkpt lat="43.101178544426716" lon="11.843473019318745"><ele>330.0</ele><time>2026-04-21T14:43:57Z</time></trkpt><trkpt lat="43.10110111733545" lon="11.843391126826141"><ele>330.0</ele><time>2026-04-21T14:43:58Z</time></trkpt><trkpt lat="43.10102445190758" lon="11.843326565577417"><ele>330.0</ele><time>2026-04-21T14:43:59Z</time></trkpt><trkpt lat="43.10094431288066" lon="11.843277638795227"><ele>330.0</ele><time>2026-04-21T14:44:00Z</time></trkpt><trkpt lat="43.10085937008027" lon="11.843241382357771"><ele>330.0</ele><time>2026-04-21T14:44:01Z</time></trkpt><trkpt lat="43.1007707988998" lon="11.843204131287251"><ele>330.0</ele><time>2026-04-21T14:44:02Z</time></trkpt><trkpt lat="43.100672200860735" lon="11.843157262924256"><ele>329.6</ele><time>2026-04-21T14:44:03Z</time></trkpt><trkpt lat="43.100578931090766" lon="11.843109339707722"><ele>329.2</ele><time>2026-04-21T14:44:04Z</time></trkpt><trkpt lat="43.10048784483963" lon="11.84305075101018"><ele>328.79999999999995</ele><time>2026-04-21T14:44:05Z</time></trkpt><trkpt lat="43.10040026622678" lon="11.842987281431087"><ele>328.4</ele><time>2026-04-21T14:44:06Z</time></trkpt><trkpt lat="43.10031789317352" lon="11.84290932314996"><ele>328.0</ele><time>2026-04-21T14:44:07Z</time></trkpt><trkpt lat="43.100256242390444" lon="11.842801575829206"><ele>328.0</ele><time>2026-04-21T14:44:08Z</time></trkpt><trkpt lat="43.1002057895568" lon="11.84269622950294"><ele>328.0</ele><time>2026-04-21T14:44:09Z</time></trkpt><trkpt lat="43.10014816394451" lon="11.842593411108624"><ele>328.0</ele><time>2026-04-21T14:44:10Z</time></trkpt><trkpt lat="43.10012471909859" lon="11.842474043898227"><ele>328.0</ele><time>2026-04-21T14:44:11Z</time></trkpt><trkpt lat="43.100126366487224" lon="11.842358569417629"><ele>328.0</ele><time>2026-04-21T14:44:12Z</time></trkpt><trkpt lat="43.10009240214168" lon="11.842232397887917"><ele>327.79999999999995</ele><time>2026-04-21T14:44:13Z</time></trkpt><trkpt lat="43.10005860288918" lon="11.842115779369438"><ele>327.6</ele><time>2026-04-21T14:44:14Z</time></trkpt><trkpt lat="43.10000796688413" lon="11.842005867397024"><ele>327.4</ele><time>2026-04-21T14:44:15Z</time></trkpt><trkpt lat="43.099944712064996" lon="11.841902278028273"><ele>327.20000000000005</ele><time>2026-04-21T14:44:16Z</time></trkpt><trkpt lat="43.099881482982866" lon="11.841799609782816"><ele>327.0</ele><time>2026-04-21T14:44:17Z</time></trkpt><trkpt lat="43.09981696106653" lon="11.841693681088387"><ele>329.0</ele><time>2026-04-21T14:44:18Z</time></trkpt><trkpt lat="43.09973713779248" lon="11.841604981206398"><ele>331.0</ele><time>2026-04-21T14:44:19Z</time></trkpt><trkpt lat="43.099639240468534" lon="11.841542304614435"><ele>333.0</ele><time>2026-04-21T14:44:20Z</time></trkpt><trkpt lat="43.09952993548056" lon="11.841493279029493"><ele>335.0</ele><time>2026-04-21T14:44:21Z</time></trkpt><trkpt lat="43.09941333626928" lon="11.841437792900523"><ele>337.0</ele><time>2026-04-21T14:44:22Z</time></trkpt><trkpt lat="43.09929763993733" lon="11.84137117989611"><ele>337.0</ele><time>2026-04-21T14:44:23Z</time></trkpt><trkpt lat="43.09918085867602" lon="11.841298418829266"><ele>337.0</ele><time>2026-04-21T14:44:24Z</time></trkpt><trkpt lat="43.09906951716666" lon="11.841221962521145"><ele>337.0</ele><time>2026-04-21T14:44:25Z</time></trkpt><trkpt lat="43.098969008877596" lon="11.84114248582534"><ele>337.0</ele><time>2026-04-21T14:44:26Z</time></trkpt><trkpt lat="43.098882308893366" lon="11.841043527348615"><ele>335.75</ele><time>2026-04-21T14:44:27Z</time></trkpt><trkpt lat="43.09879095829094" lon="11.840940390334403"><ele>334.5</ele><time>2026-04-21T14:44:28Z</time></trkpt><trkpt lat="43.09870587189398" lon="11.840835013427213"><ele>333.25</ele><time>2026-04-21T14:44:29Z</time></trkpt><trkpt lat="43.09862674774563" lon="11.840725868697852"><ele>332.0</ele><time>2026-04-21T14:44:30Z</time></trkpt><trkpt lat="43.09855585088779" lon="11.840605025062615"><ele>332.0</ele><time>2026-04-21T14:44:31Z</time></trkpt><trkpt lat="43.09849331040489" lon="11.84047356155798"><ele>332.0</ele><time>2026-04-21T14:44:32Z</time></trkpt><trkpt lat="43.09846134523968" lon="11.84033999791544"><ele>332.0</ele><time>2026-04-21T14:44:33Z</time></trkpt><trkpt lat="43.09846341000753" lon="11.840208526064302"><ele>332.0</ele><time>2026-04-21T14:44:34Z</time></trkpt><trkpt lat="43.09851709444084" lon="11.840086736218085"><ele>332.0</ele><time>2026-04-21T14:44:35Z</time></trkpt><trkpt lat="43.0985596530551" lon="11.839955431366304"><ele>333.20000000000005</ele><time>2026-04-21T14:44:36Z</time></trkpt><trkpt lat="43.098586477616024" lon="11.839829727406688"><ele>334.4</ele><time>2026-04-21T14:44:37Z</time></trkpt><trkpt lat="43.09864081875202" lon="11.839721856577283"><ele>335.6</ele><time>2026-04-21T14:44:38Z</time></trkpt><trkpt lat="43.0986819117979" lon="11.83961354368601"><ele>336.79999999999995</ele><time>2026-04-21T14:44:39Z</time></trkpt><trkpt lat="43.098723584631564" lon="11.839499459856459"><ele>338.0</ele><time>2026-04-21T14:44:41Z</time></trkpt><trkpt lat="43.09857770093675" lon="11.839556869935963"><ele>338.0</ele><time>2026-04-21T14:44:46Z</time></trkpt><trkpt lat="43.09860654275908" lon="11.83968374388315"><ele>338.0</ele><time>2026-04-21T14:44:47Z</time></trkpt><trkpt lat="43.098575861055856" lon="11.839795346514208"><ele>338.0</ele><time>2026-04-21T14:44:48Z</time></trkpt><trkpt lat="43.09854016684454" lon="11.839921602021127"><ele>338.0</ele><time>2026-04-21T14:44:49Z</time></trkpt><trkpt lat="43.098504933048595" lon="11.84001889608282"><ele>338.0</ele><time>2026-04-21T14:44:50Z</time></trkpt><trkpt lat="43.09846331378401" lon="11.840122456706073"><ele>338.0</ele><time>2026-04-21T14:44:51Z</time></trkpt><trkpt lat="43.098409117308826" lon="11.840253276635826"><ele>336.79999999999995</ele><time>2026-04-21T14:44:53Z</time></trkpt><trkpt lat="43.09834470340094" lon="11.840238432791185"><ele>335.6</ele><time>2026-04-21T14:44:55Z</time></trkpt><trkpt lat="43.098230232289765" lon="11.840097139985538"><ele>334.4</ele><time>2026-04-21T14:44:57Z</time></trkpt><trkpt lat="43.098148569989384" lon="11.839995576945869"><ele>333.20000000000005</ele><time>2026-04-21T14:44:58Z</time></trkpt><trkpt lat="43.09806033443743" lon="11.839892485273555"><ele>332.0</ele><time>2026-04-21T14:44:59Z</time></trkpt><trkpt lat="43.097970240083676" lon="11.839788851904217"><ele>329.8</ele><time>2026-04-21T14:45:00Z</time></trkpt><trkpt lat="43.09787820339158" lon="11.839683205170157"><ele>327.6</ele><time>2026-04-21T14:45:01Z</time></trkpt><trkpt lat="43.09779470390584" lon="11.839588770730806"><ele>325.40000000000003</ele><time>2026-04-21T14:45:02Z</time></trkpt><trkpt lat="43.09772567014998" lon="11.839502713508281"><ele>323.20000000000005</ele><time>2026-04-21T14:45:03Z</time></trkpt><trkpt lat="43.09766490130361" lon="11.839420544892947"><ele>321.0</ele><time>2026-04-21T14:45:04Z</time></trkpt><trkpt lat="43.097616745899025" lon="11.839333770083934"><ele>320.1666666666667</ele><time>2026-04-21T14:45:05Z</time></trkpt><trkpt lat="43.09757321774137" lon="11.83925860696167"><ele>319.3333333333333</ele><time>2026-04-21T14:45:06Z</time></trkpt><trkpt lat="43.09753468264983" lon="11.839187894806715"><ele>318.5</ele><time>2026-04-21T14:45:07Z</time></trkpt><trkpt lat="43.0974775239034" lon="11.839086341825062"><ele>317.66666666666663</ele><time>2026-04-21T14:45:09Z</time></trkpt><trkpt lat="43.097419892488006" lon="11.83902387802261"><ele>316.8333333333333</ele><time>2026-04-21T14:45:12Z</time></trkpt><trkpt lat="43.09736198917868" lon="11.838978387321038"><ele>316.0</ele><time>2026-04-21T14:45:14Z</time></trkpt><trkpt lat="43.097293732574826" lon="11.838912082864766"><ele>316.0</ele><time>2026-04-21T14:45:16Z</time></trkpt><trkpt lat="43.0972428259003" lon="11.838848960598026"><ele>316.0</ele><time>2026-04-21T14:45:18.999Z</time></trkpt></trkseg><trkseg><trkpt lat="43.097178318816404" lon="11.838823531777406"><ele>316.0</ele><time>2026-04-21T15:04:17Z</time></trkpt><trkpt lat="43.09706634388554" lon="11.838781579455588"><ele>316.0</ele><time>2026-04-21T15:04:19Z</time></trkpt><trkpt lat="43.09698892700122" lon="11.838746625251831"><ele>316.0</ele><time>2026-04-21T15:04:20Z</time></trkpt><trkpt lat="43.096907266458665" lon="11.838709958983934"><ele>316.0</ele><time>2026-04-21T15:04:21Z</time></trkpt><trkpt lat="43.09682452529663" lon="11.838670832893918"><ele>316.0</ele><time>2026-04-21T15:04:22Z</time></trkpt><trkpt lat="43.096731143980975" lon="11.838624001084089"><ele>316.0</ele><time>2026-04-21T15:04:23Z</time></trkpt><trkpt lat="43.09664095600585" lon="11.838583607252122"><ele>316.0</ele><time>2026-04-21T15:04:24Z</time></trkpt><trkpt lat="43.096548618461064" lon="11.83851183192062"><ele>316.0</ele><time>2026-04-21T15:04:25Z</time></trkpt><trkpt lat="43.096449266415064" lon="11.838449889922781"><ele>316.0</ele><time>2026-04-21T15:04:26Z</time></trkpt><trkpt lat="43.0963570378927" lon="11.838381659926"><ele>316.0</ele><time>2026-04-21T15:04:27Z</time></trkpt><trkpt lat="43.09628489448391" lon="11.838316398661552"><ele>316.75</ele><time>2026-04-21T15:04:28Z</time></trkpt><trkpt lat="43.096225248268546" lon="11.838262528561692"><ele>317.5</ele><time>2026-04-21T15:04:29Z</time></trkpt><trkpt lat="43.09606303630365" lon="11.838210355343772"><ele>318.25</ele><time>2026-04-21T15:04:32Z</time></trkpt><trkpt lat="43.095984902488816" lon="11.838400704173228"><ele>319.0</ele><time>2026-04-21T15:04:34Z</time></trkpt><trkpt lat="43.0959495202381" lon="11.838527627902172"><ele>317.0</ele><time>2026-04-21T15:04:35Z</time></trkpt><trkpt lat="43.095910311800466" lon="11.838650676057998"><ele>315.0</ele><time>2026-04-21T15:04:36Z</time></trkpt><trkpt lat="43.095873659616764" lon="11.838784555335307"><ele>313.0</ele><time>2026-04-21T15:04:37Z</time></trkpt><trkpt lat="43.095827708192964" lon="11.838898097791867"><ele>311.0</ele><time>2026-04-21T15:04:38Z</time></trkpt><trkpt lat="43.09576417816602" lon="11.838997071871189"><ele>309.0</ele><time>2026-04-21T15:04:39Z</time></trkpt><trkpt lat="43.0957141523641" lon="11.839123115584915"><ele>307.8</ele><time>2026-04-21T15:04:40Z</time></trkpt><trkpt lat="43.09566745945556" lon="11.839247068752861"><ele>306.59999999999997</ele><time>2026-04-21T15:04:41Z</time></trkpt><trkpt lat="43.095622506432704" lon="11.839351818932053"><ele>305.4</ele><time>2026-04-21T15:04:42Z</time></trkpt><trkpt lat="43.095580513678286" lon="11.839456829427133"><ele>304.2</ele><time>2026-04-21T15:04:43Z</time></trkpt><trkpt lat="43.095525868226844" lon="11.839563350669117"><ele>303.0</ele><time>2026-04-21T15:04:44Z</time></trkpt><trkpt lat="43.09547877978558" lon="11.839659292109205"><ele>301.0</ele><time>2026-04-21T15:04:45Z</time></trkpt><trkpt lat="43.09542432843727" lon="11.83975559063506"><ele>299.0</ele><time>2026-04-21T15:04:46Z</time></trkpt><trkpt lat="43.09535669852518" lon="11.839846814397369"><ele>297.0</ele><time>2026-04-21T15:04:47Z</time></trkpt><trkpt lat="43.09527593470975" lon="11.839878083913316"><ele>295.0</ele><time>2026-04-21T15:04:48Z</time></trkpt><trkpt lat="43.095174494877945" lon="11.839916048561328"><ele>293.0</ele><time>2026-04-21T15:04:49Z</time></trkpt><trkpt lat="43.095081371809876" lon="11.83996061691855"><ele>293.0</ele><time>2026-04-21T15:04:50Z</time></trkpt><trkpt lat="43.09499469135131" lon="11.840029104515908"><ele>293.0</ele><time>2026-04-21T15:04:51Z</time></trkpt><trkpt lat="43.094924604036144" lon="11.840115540616027"><ele>293.0</ele><time>2026-04-21T15:04:52Z</time></trkpt><trkpt lat="43.09483696961633" lon="11.840207142981976"><ele>293.0</ele><time>2026-04-21T15:04:53Z</time></trkpt><trkpt lat="43.094750614232304" lon="11.84032823484093"><ele>293.0</ele><time>2026-04-21T15:04:54Z</time></trkpt><trkpt lat="43.094646827117394" lon="11.84044998235217"><ele>290.0</ele><time>2026-04-21T15:04:55Z</time></trkpt><trkpt lat="43.09454579735822" lon="11.84058523348271"><ele>287.0</ele><time>2026-04-21T15:04:56Z</time></trkpt><trkpt lat="43.09444640359241" lon="11.840741573340177"><ele>284.0</ele><time>2026-04-21T15:04:57Z</time></trkpt><trkpt lat="43.09431907256616" lon="11.840870893589036"><ele>282.6666666666667</ele><time>2026-04-21T15:04:58Z</time></trkpt><trkpt lat="43.094198606538214" lon="11.841017313822732"><ele>281.3333333333333</ele><time>2026-04-21T15:04:59Z</time></trkpt><trkpt lat="43.09407239575003" lon="11.841170716428952"><ele>280.0</ele><time>2026-04-21T15:05:00Z</time></trkpt><trkpt lat="43.0939487776143" lon="11.841320967961092"><ele>280.0</ele><time>2026-04-21T15:05:01Z</time></trkpt><trkpt lat="43.09382165760461" lon="11.841475475693416"><ele>280.0</ele><time>2026-04-21T15:05:02Z</time></trkpt><trkpt lat="43.0936958862852" lon="11.841628344093964"><ele>280.0</ele><time>2026-04-21T15:05:03Z</time></trkpt><trkpt lat="43.09356638800129" lon="11.841785742549964"><ele>279.0</ele><time>2026-04-21T15:05:04Z</time></trkpt><trkpt lat="43.093433855555084" lon="11.841945759017094"><ele>278.0</ele><time>2026-04-21T15:05:05Z</time></trkpt><trkpt lat="43.09330774978472" lon="11.842097163123194"><ele>277.0</ele><time>2026-04-21T15:05:06Z</time></trkpt><trkpt lat="43.093177432675205" lon="11.842253623352814"><ele>276.66666666666663</ele><time>2026-04-21T15:05:07Z</time></trkpt><trkpt lat="43.09304598714125" lon="11.842411438140978"><ele>276.3333333333333</ele><time>2026-04-21T15:05:08Z</time></trkpt><trkpt lat="43.09291486491633" lon="11.842569722230156"><ele>276.0</ele><time>2026-04-21T15:05:09Z</time></trkpt><trkpt lat="43.09278470777704" lon="11.84272919829495"><ele>275.6666666666667</ele><time>2026-04-21T15:05:10Z</time></trkpt><trkpt lat="43.09266097134771" lon="11.842880812467998"><ele>275.33333333333337</ele><time>2026-04-21T15:05:11Z</time></trkpt><trkpt lat="43.09254319710044" lon="11.843023569079168"><ele>275.0</ele><time>2026-04-21T15:05:12Z</time></trkpt><trkpt lat="43.092445965731756" lon="11.84316889333883"><ele>275.0</ele><time>2026-04-21T15:05:13Z</time></trkpt><trkpt lat="43.092335093890874" lon="11.843297214909047"><ele>275.0</ele><time>2026-04-21T15:05:14Z</time></trkpt><trkpt lat="43.092229564304304" lon="11.84340818325247"><ele>275.0</ele><time>2026-04-21T15:05:15Z</time></trkpt><trkpt lat="43.09215072150559" lon="11.84349147066027"><ele>275.0</ele><time>2026-04-21T15:05:16Z</time></trkpt><trkpt lat="43.09205497278248" lon="11.843531515025358"><ele>274.8</ele><time>2026-04-21T15:05:18Z</time></trkpt><trkpt lat="43.09200662885147" lon="11.843414376380817"><ele>274.6</ele><time>2026-04-21T15:05:20Z</time></trkpt><trkpt lat="43.091965167026906" lon="11.843339720613773"><ele>274.4</ele><time>2026-04-21T15:05:21Z</time></trkpt><trkpt lat="43.091916432859634" lon="11.843225471923263"><ele>274.2</ele><time>2026-04-21T15:05:22Z</time></trkpt><trkpt lat="43.09184345198427" lon="11.843108466222862"><ele>274.0</ele><time>2026-04-21T15:05:23Z</time></trkpt><trkpt lat="43.091751870393146" lon="11.843013388765705"><ele>274.0</ele><time>2026-04-21T15:05:24Z</time></trkpt><trkpt lat="43.091666003935394" lon="11.842906810722594"><ele>274.0</ele><time>2026-04-21T15:05:25Z</time></trkpt><trkpt lat="43.09156560590849" lon="11.842803706697806"><ele>274.0</ele><time>2026-04-21T15:05:26Z</time></trkpt><trkpt lat="43.091456810413504" lon="11.842705692776747"><ele>274.0</ele><time>2026-04-21T15:05:27Z</time></trkpt><trkpt lat="43.09133087326462" lon="11.842615124326253"><ele>274.66666666666663</ele><time>2026-04-21T15:05:28Z</time></trkpt><trkpt lat="43.09119699590571" lon="11.842532440085032"><ele>275.3333333333333</ele><time>2026-04-21T15:05:29Z</time></trkpt><trkpt lat="43.09106882712769" lon="11.842406853168145"><ele>276.0</ele><time>2026-04-21T15:05:30Z</time></trkpt><trkpt lat="43.09093202308661" lon="11.842295698670302"><ele>276.0</ele><time>2026-04-21T15:05:31Z</time></trkpt><trkpt lat="43.09078451676228" lon="11.842174748563181"><ele>276.0</ele><time>2026-04-21T15:05:32Z</time></trkpt><trkpt lat="43.09063391695775" lon="11.842051261732744"><ele>276.0</ele><time>2026-04-21T15:05:33Z</time></trkpt><trkpt lat="43.090480304092324" lon="11.841925304414362"><ele>277.0</ele><time>2026-04-21T15:05:34Z</time></trkpt><trkpt lat="43.09032559430563" lon="11.841798447644091"><ele>278.0</ele><time>2026-04-21T15:05:35Z</time></trkpt><trkpt lat="43.09017197696152" lon="11.84169775828782"><ele>279.0</ele><time>2026-04-21T15:05:36Z</time></trkpt><trkpt lat="43.0900301128214" lon="11.841567044693592"><ele>279.5</ele><time>2026-04-21T15:05:37Z</time></trkpt><trkpt lat="43.089911939018634" lon="11.841454362364733"><ele>280.0</ele><time>2026-04-21T15:05:38Z</time></trkpt><trkpt lat="43.089810315652215" lon="11.841340167286853"><ele>280.5</ele><time>2026-04-21T15:05:39Z</time></trkpt><trkpt lat="43.08973997384454" lon="11.84118710872183"><ele>281.0</ele><time>2026-04-21T15:05:40Z</time></trkpt><trkpt lat="43.08966339084836" lon="11.841032937865332"><ele>280.6666666666667</ele><time>2026-04-21T15:05:41Z</time></trkpt><trkpt lat="43.089574069989304" lon="11.840875354626583"><ele>280.3333333333333</ele><time>2026-04-21T15:05:42Z</time></trkpt><trkpt lat="43.089498275280015" lon="11.840695128141164"><ele>280.0</ele><time>2026-04-21T15:05:43Z</time></trkpt><trkpt lat="43.08942017909024" lon="11.840502760386698"><ele>280.0</ele><time>2026-04-21T15:05:44Z</time></trkpt><trkpt lat="43.08933924582301" lon="11.8403051093951"><ele>280.0</ele><time>2026-04-21T15:05:45Z</time></trkpt><trkpt lat="43.08925252661957" lon="11.84009148392972"><ele>280.0</ele><time>2026-04-21T15:05:46Z</time></trkpt><trkpt lat="43.08917110149446" lon="11.839851719259421"><ele>281.66666666666663</ele><time>2026-04-21T15:05:47Z</time></trkpt><trkpt lat="43.089072855990125" lon="11.839615823166048"><ele>283.3333333333333</ele><time>2026-04-21T15:05:48Z</time></trkpt><trkpt lat="43.088977015435425" lon="11.839388182851485"><ele>285.0</ele><time>2026-04-21T15:05:49Z</time></trkpt><trkpt lat="43.088890108363124" lon="11.839181761214764"><ele>286.6666666666667</ele><time>2026-04-21T15:05:50Z</time></trkpt><trkpt lat="43.08880872884258" lon="11.838987921047979"><ele>288.33333333333337</ele><time>2026-04-21T15:05:51Z</time></trkpt><trkpt lat="43.08872612486353" lon="11.838788328769345"><ele>290.0</ele><time>2026-04-21T15:05:52Z</time></trkpt><trkpt lat="43.08864974080231" lon="11.83860376546633"><ele>289.8</ele><time>2026-04-21T15:05:53Z</time></trkpt><trkpt lat="43.088584881478575" lon="11.838437585241481"><ele>289.6</ele><time>2026-04-21T15:05:54Z</time></trkpt><trkpt lat="43.088525096541545" lon="11.838287526501409"><ele>289.4</ele><time>2026-04-21T15:05:55Z</time></trkpt><trkpt lat="43.08847406509975" lon="11.83817734425442"><ele>289.2</ele><time>2026-04-21T15:05:56Z</time></trkpt><trkpt lat="43.088424148012805" lon="11.838117065811952"><ele>289.0</ele><time>2026-04-21T15:05:57Z</time></trkpt><trkpt lat="43.088375526153975" lon="11.838057018681042"><ele>289.0</ele><time>2026-04-21T15:05:59Z</time></trkpt><trkpt lat="43.088292874945424" lon="11.8381790324966"><ele>289.0</ele><time>2026-04-21T15:06:02Z</time></trkpt><trkpt lat="43.08826861560784" lon="11.838283861325174"><ele>289.0</ele><time>2026-04-21T15:06:03Z</time></trkpt><trkpt lat="43.08824232909508" lon="11.838394573653607"><ele>289.0</ele><time>2026-04-21T15:06:04Z</time></trkpt><trkpt lat="43.08821357710098" lon="11.838524481140187"><ele>289.0</ele><time>2026-04-21T15:06:05Z</time></trkpt><trkpt lat="43.08818748382528" lon="11.83866839298941"><ele>291.0</ele><time>2026-04-21T15:06:06Z</time></trkpt><trkpt lat="43.0881572715426" lon="11.838820629515443"><ele>293.0</ele><time>2026-04-21T15:06:07Z</time></trkpt><trkpt lat="43.088119896000805" lon="11.83895048444537"><ele>295.0</ele><time>2026-04-21T15:06:08Z</time></trkpt><trkpt lat="43.0880651212804" lon="11.839066276719848"><ele>297.0</ele><time>2026-04-21T15:06:09Z</time></trkpt><trkpt lat="43.08799597109359" lon="11.839158067224602"><ele>299.0</ele><time>2026-04-21T15:06:10Z</time></trkpt><trkpt lat="43.087915790864926" lon="11.839220775658264"><ele>299.0</ele><time>2026-04-21T15:06:11Z</time></trkpt><trkpt lat="43.08779945845543" lon="11.839207000564015"><ele>299.0</ele><time>2026-04-21T15:06:13Z</time></trkpt><trkpt lat="43.087727085340916" lon="11.839153887340558"><ele>299.0</ele><time>2026-04-21T15:06:14Z</time></trkpt><trkpt lat="43.0876428516842" lon="11.839094290471943"><ele>299.0</ele><time>2026-04-21T15:06:15Z</time></trkpt><trkpt lat="43.08755304800495" lon="11.83903013902335"><ele>299.0</ele><time>2026-04-21T15:06:16Z</time></trkpt><trkpt lat="43.08744955240759" lon="11.838951175205251"><ele>300.59999999999997</ele><time>2026-04-21T15:06:17Z</time></trkpt><trkpt lat="43.087348965486115" lon="11.838874813448772"><ele>302.2</ele><time>2026-04-21T15:06:18Z</time></trkpt><trkpt lat="43.08725143582049" lon="11.838800110016022"><ele>303.79999999999995</ele><time>2026-04-21T15:06:19Z</time></trkpt><trkpt lat="43.08715892787439" lon="11.838728001767953"><ele>305.4</ele><time>2026-04-21T15:06:20Z</time></trkpt><trkpt lat="43.08707420201694" lon="11.838631443192932"><ele>307.0</ele><time>2026-04-21T15:06:21Z</time></trkpt><trkpt lat="43.08698012278782" lon="11.838560198737667"><ele>307.0</ele><time>2026-04-21T15:06:22Z</time></trkpt><trkpt lat="43.086892582907204" lon="11.838503458934255"><ele>307.0</ele><time>2026-04-21T15:06:23Z</time></trkpt><trkpt lat="43.0868083376659" lon="11.838464364459755"><ele>307.0</ele><time>2026-04-21T15:06:24Z</time></trkpt><trkpt lat="43.08672731312085" lon="11.838444087191162"><ele>307.0</ele><time>2026-04-21T15:06:25Z</time></trkpt><trkpt lat="43.08662655864998" lon="11.838470619764529"><ele>307.0</ele><time>2026-04-21T15:06:26Z</time></trkpt><trkpt lat="43.08652992059051" lon="11.838540255393717"><ele>309.0</ele><time>2026-04-21T15:06:27Z</time></trkpt><trkpt lat="43.0864171427095" lon="11.838587985084985"><ele>311.0</ele><time>2026-04-21T15:06:28Z</time></trkpt><trkpt lat="43.08631443093432" lon="11.838662785761514"><ele>313.0</ele><time>2026-04-21T15:06:29Z</time></trkpt><trkpt lat="43.086235097745174" lon="11.838721910201247"><ele>315.0</ele><time>2026-04-21T15:06:30Z</time></trkpt><trkpt lat="43.08616975315241" lon="11.83877060949598"><ele>317.0</ele><time>2026-04-21T15:06:31Z</time></trkpt><trkpt lat="43.08610256408826" lon="11.8388223263882"><ele>317.0</ele><time>2026-04-21T15:06:32Z</time></trkpt><trkpt lat="43.08597637810416" lon="11.838924793334435"><ele>317.0</ele><time>2026-04-21T15:06:34Z</time></trkpt><trkpt lat="43.085910568852235" lon="11.83898950882354"><ele>317.0</ele><time>2026-04-21T15:06:36Z</time></trkpt><trkpt lat="43.0858517319277" lon="11.839093400578212"><ele>317.0</ele><time>2026-04-21T15:07:03Z</time></trkpt><trkpt lat="43.08581366038736" lon="11.839175248282729"><ele>317.0</ele><time>2026-04-21T15:07:04Z</time></trkpt><trkpt lat="43.08577091818453" lon="11.839263413081197"><ele>319.4</ele><time>2026-04-21T15:07:05Z</time></trkpt><trkpt lat="43.0857284350153" lon="11.839361727423615"><ele>321.79999999999995</ele><time>2026-04-21T15:07:06Z</time></trkpt><trkpt lat="43.08567765555967" lon="11.839476781799119"><ele>324.2</ele><time>2026-04-21T15:07:07Z</time></trkpt><trkpt lat="43.085625146743546" lon="11.839601605667896"><ele>326.59999999999997</ele><time>2026-04-21T15:07:08Z</time></trkpt><trkpt lat="43.08556784962856" lon="11.83974425802313"><ele>329.0</ele><time>2026-04-21T15:07:09Z</time></trkpt><trkpt lat="43.085507070093236" lon="11.839903863822421"><ele>329.0</ele><time>2026-04-21T15:07:10Z</time></trkpt><trkpt lat="43.08544256251643" lon="11.840072121449813"><ele>329.0</ele><time>2026-04-21T15:07:11Z</time></trkpt><trkpt lat="43.085376052123024" lon="11.840249361114493"><ele>329.0</ele><time>2026-04-21T15:07:12Z</time></trkpt><trkpt lat="43.085304926899596" lon="11.840424148923226"><ele>329.0</ele><time>2026-04-21T15:07:13Z</time></trkpt><trkpt lat="43.085228254728904" lon="11.840589502906951"><ele>328.5</ele><time>2026-04-21T15:07:14Z</time></trkpt><trkpt lat="43.08514701209223" lon="11.840746514103687"><ele>328.0</ele><time>2026-04-21T15:07:15Z</time></trkpt><trkpt lat="43.08506904907361" lon="11.840895745172396"><ele>327.5</ele><time>2026-04-21T15:07:16Z</time></trkpt><trkpt lat="43.08497670400757" lon="11.841072579273568"><ele>327.0</ele><time>2026-04-21T15:07:17Z</time></trkpt><trkpt lat="43.08488724949255" lon="11.841252665259782"><ele>327.0</ele><time>2026-04-21T15:07:18Z</time></trkpt><trkpt lat="43.08479971205421" lon="11.841439173236369"><ele>327.0</ele><time>2026-04-21T15:07:19Z</time></trkpt><trkpt lat="43.0847221064046" lon="11.841629379332556"><ele>327.0</ele><time>2026-04-21T15:07:20Z</time></trkpt><trkpt lat="43.08465704195879" lon="11.841816649804585"><ele>327.25</ele><time>2026-04-21T15:07:21Z</time></trkpt><trkpt lat="43.08460796536576" lon="11.841994619085982"><ele>327.5</ele><time>2026-04-21T15:07:22Z</time></trkpt><trkpt lat="43.08456661047967" lon="11.842168709006494"><ele>327.75</ele><time>2026-04-21T15:07:23Z</time></trkpt><trkpt lat="43.08451752818446" lon="11.842322412363377"><ele>328.0</ele><time>2026-04-21T15:07:24Z</time></trkpt><trkpt lat="43.084498101320115" lon="11.842461337346741"><ele>328.0</ele><time>2026-04-21T15:07:25Z</time></trkpt><trkpt lat="43.08448506654048" lon="11.84258401664118"><ele>328.0</ele><time>2026-04-21T15:07:26Z</time></trkpt><trkpt lat="43.08447832757441" lon="11.842691994604683"><ele>328.0</ele><time>2026-04-21T15:07:27Z</time></trkpt><trkpt lat="43.084462661324196" lon="11.842795835744145"><ele>328.0</ele><time>2026-04-21T15:07:29Z</time></trkpt><trkpt lat="43.08441905237862" lon="11.842617301066964"><ele>328.0</ele><time>2026-04-21T15:07:33Z</time></trkpt><trkpt lat="43.08439414390853" lon="11.84249117337307"><ele>328.0</ele><time>2026-04-21T15:07:34Z</time></trkpt><trkpt lat="43.084368521418135" lon="11.842361429773772"><ele>328.0</ele><time>2026-04-21T15:07:35Z</time></trkpt><trkpt lat="43.084337878759435" lon="11.842206300020546"><ele>328.0</ele><time>2026-04-21T15:07:36Z</time></trkpt><trkpt lat="43.084305058281295" lon="11.842042920098722"><ele>328.0</ele><time>2026-04-21T15:07:37Z</time></trkpt><trkpt lat="43.08427030686094" lon="11.8418680595586"><ele>327.75</ele><time>2026-04-21T15:07:38Z</time></trkpt><trkpt lat="43.08423776293774" lon="11.841682337054184"><ele>327.5</ele><time>2026-04-21T15:07:39Z</time></trkpt><trkpt lat="43.0842073112534" lon="11.841497643340887"><ele>327.25</ele><time>2026-04-21T15:07:40Z</time></trkpt><trkpt lat="43.08418632097469" lon="11.841316661538308"><ele>327.0</ele><time>2026-04-21T15:07:41Z</time></trkpt><trkpt lat="43.08418582300345" lon="11.8411488311356"><ele>328.0</ele><time>2026-04-21T15:07:42Z</time></trkpt><trkpt lat="43.0842073477834" lon="11.840957740082233"><ele>329.0</ele><time>2026-04-21T15:07:43Z</time></trkpt><trkpt lat="43.084239313992555" lon="11.840752208130771"><ele>330.0</ele><time>2026-04-21T15:07:44Z</time></trkpt><trkpt lat="43.08427978604989" lon="11.840527039955568"><ele>330.0</ele><time>2026-04-21T15:07:45Z</time></trkpt><trkpt lat="43.0843180173906" lon="11.840294422701838"><ele>330.0</ele><time>2026-04-21T15:07:46Z</time></trkpt><trkpt lat="43.08435235541631" lon="11.840047257705672"><ele>330.0</ele><time>2026-04-21T15:07:47Z</time></trkpt><trkpt lat="43.08438670056437" lon="11.839800898137558"><ele>330.0</ele><time>2026-04-21T15:07:48Z</time></trkpt><trkpt lat="43.0844185437805" lon="11.839558772127278"><ele>330.0</ele><time>2026-04-21T15:07:49Z</time></trkpt><trkpt lat="43.08445119526954" lon="11.839310103966614"><ele>330.0</ele><time>2026-04-21T15:07:50Z</time></trkpt><trkpt lat="43.08448136141443" lon="11.839091782477162"><ele>330.0</ele><time>2026-04-21T15:07:51Z</time></trkpt><trkpt lat="43.08450996130908" lon="11.838892985243797"><ele>330.0</ele><time>2026-04-21T15:07:52Z</time></trkpt><trkpt lat="43.08452713116918" lon="11.838700362172478"><ele>330.0</ele><time>2026-04-21T15:07:53Z</time></trkpt><trkpt lat="43.08452240600174" lon="11.838500401905572"><ele>330.0</ele><time>2026-04-21T15:07:54Z</time></trkpt><trkpt lat="43.08448004342754" lon="11.838292532659944"><ele>330.0</ele><time>2026-04-21T15:07:55Z</time></trkpt><trkpt lat="43.08442538708019" lon="11.838072670145003"><ele>330.0</ele><time>2026-04-21T15:07:56Z</time></trkpt><trkpt lat="43.08436150348885" lon="11.837846759789024"><ele>330.0</ele><time>2026-04-21T15:07:57Z</time></trkpt><trkpt lat="43.0842865812971" lon="11.837617808056704"><ele>330.3333333333333</ele><time>2026-04-21T15:07:58Z</time></trkpt><trkpt lat="43.084214444103246" lon="11.837407162699972"><ele>330.66666666666663</ele><time>2026-04-21T15:07:59Z</time></trkpt><trkpt lat="43.0841472466216" lon="11.837212923625172"><ele>331.0</ele><time>2026-04-21T15:08:00Z</time></trkpt><trkpt lat="43.08408137010309" lon="11.837039247519815"><ele>332.0</ele><time>2026-04-21T15:08:01Z</time></trkpt><trkpt lat="43.084016833907945" lon="11.836892472869305"><ele>333.0</ele><time>2026-04-21T15:08:02Z</time></trkpt><trkpt lat="43.083941179526654" lon="11.8367557565047"><ele>334.0</ele><time>2026-04-21T15:08:03Z</time></trkpt><trkpt lat="43.083843174102704" lon="11.836646498248747"><ele>335.0</ele><time>2026-04-21T15:08:04Z</time></trkpt><trkpt lat="43.08373094236227" lon="11.836580032951913"><ele>336.75</ele><time>2026-04-21T15:08:05Z</time></trkpt><trkpt lat="43.083608656023564" lon="11.83654933193074"><ele>338.5</ele><time>2026-04-21T15:08:06Z</time></trkpt><trkpt lat="43.08348134524848" lon="11.836587246965875"><ele>340.25</ele><time>2026-04-21T15:08:07Z</time></trkpt><trkpt lat="43.083367187350355" lon="11.836675775827958"><ele>342.0</ele><time>2026-04-21T15:08:08Z</time></trkpt><trkpt lat="43.083250102524715" lon="11.836783865265097"><ele>341.6666666666667</ele><time>2026-04-21T15:08:09Z</time></trkpt><trkpt lat="43.08312728032114" lon="11.83691971608664"><ele>341.33333333333337</ele><time>2026-04-21T15:08:10Z</time></trkpt><trkpt lat="43.0829876499134" lon="11.837077393114749"><ele>341.0</ele><time>2026-04-21T15:08:11Z</time></trkpt><trkpt lat="43.08284161497373" lon="11.837223015839685"><ele>341.0</ele><time>2026-04-21T15:08:12Z</time></trkpt><trkpt lat="43.082687711093904" lon="11.837362005706495"><ele>341.0</ele><time>2026-04-21T15:08:13Z</time></trkpt><trkpt lat="43.0825631715652" lon="11.837484407388349"><ele>341.0</ele><time>2026-04-21T15:08:14.001Z</time></trkpt><trkpt lat="43.082449636764416" lon="11.837593256261483"><ele>341.0</ele><time>2026-04-21T15:08:15.001Z</time></trkpt><trkpt lat="43.082351302291165" lon="11.837673638584855"><ele>341.0</ele><time>2026-04-21T15:08:16.001Z</time></trkpt><trkpt lat="43.08227311882401" lon="11.837683629508366"><ele>341.0</ele><time>2026-04-21T15:08:17.001Z</time></trkpt><trkpt lat="43.08215488684434" lon="11.837634208300575"><ele>341.0</ele><time>2026-04-21T15:08:19.001Z</time></trkpt><trkpt lat="43.08209952051462" lon="11.837573909752813"><ele>341.0</ele><time>2026-04-21T15:08:20.001Z</time></trkpt><trkpt lat="43.08206490063684" lon="11.837485874085642"><ele>342.0</ele><time>2026-04-21T15:08:21.001Z</time></trkpt><trkpt lat="43.082049665184456" lon="11.837357882591172"><ele>343.0</ele><time>2026-04-21T15:08:22.001Z</time></trkpt><trkpt lat="43.08204424695456" lon="11.837213005762205"><ele>344.0</ele><time>2026-04-21T15:08:23.001Z</time></trkpt><trkpt lat="43.082052933830525" lon="11.837040181327707"><ele>345.0</ele><time>2026-04-21T15:08:24.001Z</time></trkpt><trkpt lat="43.08205240632011" lon="11.83686516072083"><ele>346.0</ele><time>2026-04-21T15:08:25.001Z</time></trkpt><trkpt lat="43.0820762913088" lon="11.83666460699014"><ele>347.0</ele><time>2026-04-21T15:08:26.001Z</time></trkpt><trkpt lat="43.08210260405122" lon="11.83645621371116"><ele>348.0</ele><time>2026-04-21T15:08:27.001Z</time></trkpt><trkpt lat="43.08212632267373" lon="11.836247724259207"><ele>348.0</ele><time>2026-04-21T15:08:28.001Z</time></trkpt><trkpt lat="43.08216188061107" lon="11.83602729270679"><ele>348.0</ele><time>2026-04-21T15:08:29.001Z</time></trkpt><trkpt lat="43.082217357174606" lon="11.835816754043984"><ele>348.0</ele><time>2026-04-21T15:08:30.001Z</time></trkpt><trkpt lat="43.08226388104986" lon="11.835587030868254"><ele>348.6666666666667</ele><time>2026-04-21T15:08:31.001Z</time></trkpt><trkpt lat="43.082314723883975" lon="11.835351767184635"><ele>349.33333333333337</ele><time>2026-04-21T15:08:32.001Z</time></trkpt><trkpt lat="43.08236787040617" lon="11.835129317827631"><ele>350.0</ele><time>2026-04-21T15:08:33.001Z</time></trkpt><trkpt lat="43.08242359887117" lon="11.834928116379603"><ele>352.0</ele><time>2026-04-21T15:08:34.001Z</time></trkpt><trkpt lat="43.08248810367377" lon="11.834731819374884"><ele>354.0</ele><time>2026-04-21T15:08:35.001Z</time></trkpt><trkpt lat="43.082564760143036" lon="11.834523491133314"><ele>356.0</ele><time>2026-04-21T15:08:36.001Z</time></trkpt><trkpt lat="43.08265078125367" lon="11.83431112737883"><ele>356.33333333333337</ele><time>2026-04-21T15:08:37.001Z</time></trkpt><trkpt lat="43.08274063071396" lon="11.834090130996442"><ele>356.6666666666667</ele><time>2026-04-21T15:08:38.001Z</time></trkpt><trkpt lat="43.082820461439006" lon="11.833883804796473"><ele>357.0</ele><time>2026-04-21T15:08:39.001Z</time></trkpt><trkpt lat="43.08289610508408" lon="11.833687231341646"><ele>357.0</ele><time>2026-04-21T15:08:40.001Z</time></trkpt><trkpt lat="43.082952440311104" lon="11.833505599959445"><ele>357.0</ele><time>2026-04-21T15:08:41.001Z</time></trkpt><trkpt lat="43.08298528351187" lon="11.833308056596888"><ele>357.0</ele><time>2026-04-21T15:08:42.001Z</time></trkpt><trkpt lat="43.082967842249246" lon="11.833100061602517"><ele>357.0</ele><time>2026-04-21T15:08:43.001Z</time></trkpt><trkpt lat="43.082979221305706" lon="11.832887939944117"><ele>358.6666666666667</ele><time>2026-04-21T15:08:44.001Z</time></trkpt><trkpt lat="43.08296971981117" lon="11.832666866920611"><ele>360.33333333333337</ele><time>2026-04-21T15:08:45.001Z</time></trkpt><trkpt lat="43.082955670436284" lon="11.832449693888186"><ele>362.0</ele><time>2026-04-21T15:08:46.001Z</time></trkpt><trkpt lat="43.08293680335097" lon="11.832242744252575"><ele>363.25</ele><time>2026-04-21T15:08:47.001Z</time></trkpt><trkpt lat="43.0829156068347" lon="11.832058167444067"><ele>364.5</ele><time>2026-04-21T15:08:48.001Z</time></trkpt><trkpt lat="43.0828863000781" lon="11.831886519248513"><ele>365.75</ele><time>2026-04-21T15:08:49.001Z</time></trkpt><trkpt lat="43.08283886829799" lon="11.831709854786174"><ele>367.0</ele><time>2026-04-21T15:08:50.001Z</time></trkpt><trkpt lat="43.082754285225235" lon="11.831543828067064"><ele>367.66666666666663</ele><time>2026-04-21T15:08:51.001Z</time></trkpt><trkpt lat="43.0826635654881" lon="11.831365586781741"><ele>368.3333333333333</ele><time>2026-04-21T15:08:52.001Z</time></trkpt><trkpt lat="43.08254613577415" lon="11.831176560883506"><ele>369.0</ele><time>2026-04-21T15:08:53.001Z</time></trkpt><trkpt lat="43.0824323739284" lon="11.830951641280869"><ele>371.0</ele><time>2026-04-21T15:08:54.001Z</time></trkpt><trkpt lat="43.08230452419128" lon="11.830734601639021"><ele>373.0</ele><time>2026-04-21T15:08:55.001Z</time></trkpt><trkpt lat="43.0821788606393" lon="11.830519042671662"><ele>375.0</ele><time>2026-04-21T15:08:56.001Z</time></trkpt><trkpt lat="43.082064364337505" lon="11.830320196975691"><ele>375.6666666666667</ele><time>2026-04-21T15:08:57.001Z</time></trkpt><trkpt lat="43.08195472301007" lon="11.830131456120458"><ele>376.33333333333337</ele><time>2026-04-21T15:08:58.001Z</time></trkpt><trkpt lat="43.081841815394675" lon="11.829971532770584"><ele>377.0</ele><time>2026-04-21T15:08:59.001Z</time></trkpt><trkpt lat="43.08173223355129" lon="11.829799162403699"><ele>377.0</ele><time>2026-04-21T15:09:00.001Z</time></trkpt><trkpt lat="43.08160592515379" lon="11.829655823830873"><ele>377.0</ele><time>2026-04-21T15:09:01.001Z</time></trkpt><trkpt lat="43.08147060723329" lon="11.829512210503326"><ele>377.0</ele><time>2026-04-21T15:09:02.001Z</time></trkpt><trkpt lat="43.08135824092264" lon="11.829346990977122"><ele>377.75</ele><time>2026-04-21T15:09:03.001Z</time></trkpt><trkpt lat="43.081262790454474" lon="11.829208090297668"><ele>378.5</ele><time>2026-04-21T15:09:04.001Z</time></trkpt><trkpt lat="43.08120364680972" lon="11.82906024497457"><ele>379.25</ele><time>2026-04-21T15:09:05.001Z</time></trkpt><trkpt lat="43.08114946297173" lon="11.828902155482542"><ele>380.0</ele><time>2026-04-21T15:09:06.001Z</time></trkpt><trkpt lat="43.081084649894144" lon="11.828711350260763"><ele>380.0</ele><time>2026-04-21T15:09:07.001Z</time></trkpt><trkpt lat="43.081017337180135" lon="11.828505975643433"><ele>380.0</ele><time>2026-04-21T15:09:08.001Z</time></trkpt><trkpt lat="43.080948747581665" lon="11.828298335326645"><ele>380.0</ele><time>2026-04-21T15:09:09.001Z</time></trkpt><trkpt lat="43.08087947662735" lon="11.828095740210296"><ele>380.75</ele><time>2026-04-21T15:09:10.001Z</time></trkpt><trkpt lat="43.08082792316279" lon="11.827928712762532"><ele>381.5</ele><time>2026-04-21T15:09:11.001Z</time></trkpt><trkpt lat="43.08078848869936" lon="11.827783744153885"><ele>382.25</ele><time>2026-04-21T15:09:12.001Z</time></trkpt><trkpt lat="43.08076384974117" lon="11.82763794661838"><ele>383.0</ele><time>2026-04-21T15:09:13.001Z</time></trkpt><trkpt lat="43.08075450763447" lon="11.827464839285561"><ele>383.75</ele><time>2026-04-21T15:09:14.001Z</time></trkpt><trkpt lat="43.08075552167427" lon="11.82727737440068"><ele>384.5</ele><time>2026-04-21T15:09:15.001Z</time></trkpt><trkpt lat="43.080757261003264" lon="11.827080289901064"><ele>385.25</ele><time>2026-04-21T15:09:16.001Z</time></trkpt><trkpt lat="43.08075835638439" lon="11.826880297311066"><ele>386.0</ele><time>2026-04-21T15:09:17.001Z</time></trkpt><trkpt lat="43.0807726378864" lon="11.826695845401005"><ele>387.3333333333333</ele><time>2026-04-21T15:09:18.001Z</time></trkpt><trkpt lat="43.08076779794951" lon="11.826430462356216"><ele>388.66666666666663</ele><time>2026-04-21T15:09:19.001Z</time></trkpt><trkpt lat="43.08076979415154" lon="11.826205632370787"><ele>390.0</ele><time>2026-04-21T15:09:20.001Z</time></trkpt><trkpt lat="43.08077181904566" lon="11.825977571791004"><ele>392.0</ele><time>2026-04-21T15:09:21.001Z</time></trkpt><trkpt lat="43.08077385568846" lon="11.825748188018684"><ele>394.0</ele><time>2026-04-21T15:09:22.001Z</time></trkpt><trkpt lat="43.08077644656016" lon="11.825526732404676"><ele>396.0</ele><time>2026-04-21T15:09:23.001Z</time></trkpt><trkpt lat="43.08078027421857" lon="11.82533605427653"><ele>396.0</ele><time>2026-04-21T15:09:24.001Z</time></trkpt><trkpt lat="43.08078494234688" lon="11.825172388054655"><ele>396.0</ele><time>2026-04-21T15:09:25.001Z</time></trkpt><trkpt lat="43.08080314121054" lon="11.825016116751659"><ele>396.0</ele><time>2026-04-21T15:09:26.001Z</time></trkpt><trkpt lat="43.08085051212068" lon="11.824887978232391"><ele>396.0</ele><time>2026-04-21T15:09:27.001Z</time></trkpt><trkpt lat="43.080922720704194" lon="11.824787197432103"><ele>396.0</ele><time>2026-04-21T15:09:28.001Z</time></trkpt><trkpt lat="43.08100921521669" lon="11.824676262243443"><ele>397.4</ele><time>2026-04-21T15:09:29.001Z</time></trkpt><trkpt lat="43.08109288715954" lon="11.824552835700276"><ele>398.8</ele><time>2026-04-21T15:09:30.001Z</time></trkpt><trkpt lat="43.081139524023904" lon="11.82444102110403"><ele>400.2</ele><time>2026-04-21T15:09:31.001Z</time></trkpt><trkpt lat="43.081157571401505" lon="11.824307908476095"><ele>401.59999999999997</ele><time>2026-04-21T15:09:32.001Z</time></trkpt><trkpt lat="43.0811428698986" lon="11.824181397703496"><ele>403.0</ele><time>2026-04-21T15:09:33.001Z</time></trkpt><trkpt lat="43.08107766490664" lon="11.824058152614143"><ele>404.25</ele><time>2026-04-21T15:09:34.001Z</time></trkpt><trkpt lat="43.08102447817297" lon="11.823932361874906"><ele>405.5</ele><time>2026-04-21T15:09:35.001Z</time></trkpt><trkpt lat="43.08096030928592" lon="11.82378877021173"><ele>406.75</ele><time>2026-04-21T15:09:36.001Z</time></trkpt><trkpt lat="43.080893834007405" lon="11.823640017760487"><ele>408.0</ele><time>2026-04-21T15:09:37.001Z</time></trkpt><trkpt lat="43.080827843322254" lon="11.823491888655665"><ele>411.0</ele><time>2026-04-21T15:09:38.001Z</time></trkpt><trkpt lat="43.08076146315776" lon="11.823339281905453"><ele>414.0</ele><time>2026-04-21T15:09:39.001Z</time></trkpt><trkpt lat="43.080699785666816" lon="11.823187281476763"><ele>417.0</ele><time>2026-04-21T15:09:40.001Z</time></trkpt><trkpt lat="43.08064598218171" lon="11.823030166404429"><ele>420.0</ele><time>2026-04-21T15:09:41.001Z</time></trkpt><trkpt lat="43.08059206837268" lon="11.822855467075438"><ele>420.0</ele><time>2026-04-21T15:09:42.001Z</time></trkpt><trkpt lat="43.08053156744195" lon="11.822674632642597"><ele>420.0</ele><time>2026-04-21T15:09:43.001Z</time></trkpt><trkpt lat="43.08046805142827" lon="11.822500711852642"><ele>420.0</ele><time>2026-04-21T15:09:44.001Z</time></trkpt><trkpt lat="43.080419262032926" lon="11.822348995565108"><ele>420.0</ele><time>2026-04-21T15:09:45.001Z</time></trkpt><trkpt lat="43.08039257330909" lon="11.822222471539957"><ele>421.0</ele><time>2026-04-21T15:09:46.001Z</time></trkpt><trkpt lat="43.0803858037198" lon="11.822108729450573"><ele>422.0</ele><time>2026-04-21T15:09:47.001Z</time></trkpt><trkpt lat="43.08039504735618" lon="11.821992742420987"><ele>423.0</ele><time>2026-04-21T15:09:48.001Z</time></trkpt><trkpt lat="43.08043159087526" lon="11.821864722623602"><ele>424.0</ele><time>2026-04-21T15:09:49.001Z</time></trkpt><trkpt lat="43.080469287736925" lon="11.821698245104418"><ele>425.0</ele><time>2026-04-21T15:09:50.001Z</time></trkpt><trkpt lat="43.080503119566664" lon="11.821531132814611"><ele>425.75</ele><time>2026-04-21T15:09:51.001Z</time></trkpt><trkpt lat="43.080543918482384" lon="11.821364998135756"><ele>426.5</ele><time>2026-04-21T15:09:52.001Z</time></trkpt><trkpt lat="43.080588018311836" lon="11.8212007284827"><ele>427.25</ele><time>2026-04-21T15:09:53.001Z</time></trkpt><trkpt lat="43.0806444486652" lon="11.821025168548994"><ele>428.0</ele><time>2026-04-21T15:09:54.001Z</time></trkpt><trkpt lat="43.080722509995255" lon="11.82085376897362"><ele>429.75</ele><time>2026-04-21T15:09:55.001Z</time></trkpt><trkpt lat="43.080810737537945" lon="11.820688843902046"><ele>431.5</ele><time>2026-04-21T15:09:56.001Z</time></trkpt><trkpt lat="43.080891468095295" lon="11.820539850849864"><ele>433.25</ele><time>2026-04-21T15:09:57.001Z</time></trkpt><trkpt lat="43.080963329488206" lon="11.820404257162238"><ele>435.0</ele><time>2026-04-21T15:09:58.001Z</time></trkpt><trkpt lat="43.081011914503364" lon="11.820255169886048"><ele>435.75</ele><time>2026-04-21T15:09:59.001Z</time></trkpt><trkpt lat="43.081070507388226" lon="11.820109525369162"><ele>436.5</ele><time>2026-04-21T15:10:00.001Z</time></trkpt><trkpt lat="43.08110814995169" lon="11.819942016339885"><ele>437.25</ele><time>2026-04-21T15:10:01.001Z</time></trkpt><trkpt lat="43.08113027546908" lon="11.819752841985814"><ele>438.0</ele><time>2026-04-21T15:10:02.001Z</time></trkpt><trkpt lat="43.08117210413927" lon="11.81955625370675"><ele>438.0</ele><time>2026-04-21T15:10:03.001Z</time></trkpt><trkpt lat="43.08118289797422" lon="11.819345593694166"><ele>438.0</ele><time>2026-04-21T15:10:04.001Z</time></trkpt><trkpt lat="43.08120859164088" lon="11.819132092116948"><ele>438.0</ele><time>2026-04-21T15:10:05.001Z</time></trkpt><trkpt lat="43.0812436683683" lon="11.818922558620228"><ele>439.33333333333337</ele><time>2026-04-21T15:10:06.001Z</time></trkpt><trkpt lat="43.08126718328507" lon="11.818711438310318"><ele>440.6666666666667</ele><time>2026-04-21T15:10:07.001Z</time></trkpt><trkpt lat="43.08127359533004" lon="11.818507823912446"><ele>442.0</ele><time>2026-04-21T15:10:08.001Z</time></trkpt><trkpt lat="43.08131166770841" lon="11.818303308040813"><ele>443.25</ele><time>2026-04-21T15:10:09.001Z</time></trkpt><trkpt lat="43.08133312974323" lon="11.818101527154358"><ele>444.5</ele><time>2026-04-21T15:10:10.001Z</time></trkpt><trkpt lat="43.08135013967544" lon="11.817914128353964"><ele>445.75</ele><time>2026-04-21T15:10:11.001Z</time></trkpt><trkpt lat="43.08134806115489" lon="11.817727779559887"><ele>447.0</ele><time>2026-04-21T15:10:12.001Z</time></trkpt><trkpt lat="43.081359031849914" lon="11.817566058100713"><ele>448.5</ele><time>2026-04-21T15:10:13.001Z</time></trkpt><trkpt lat="43.08136678268279" lon="11.817395191564566"><ele>450.0</ele><time>2026-04-21T15:10:14.001Z</time></trkpt><trkpt lat="43.08130614171039" lon="11.817235414597846"><ele>451.5</ele><time>2026-04-21T15:10:15.001Z</time></trkpt><trkpt lat="43.08123258679909" lon="11.817085531712504"><ele>453.0</ele><time>2026-04-21T15:10:16.001Z</time></trkpt><trkpt lat="43.08112740936114" lon="11.816966914548459"><ele>453.0</ele><time>2026-04-21T15:10:17.001Z</time></trkpt><trkpt lat="43.08099540549356" lon="11.816853599666636"><ele>453.0</ele><time>2026-04-21T15:10:18.001Z</time></trkpt><trkpt lat="43.0808551461403" lon="11.816726456724279"><ele>453.0</ele><time>2026-04-21T15:10:19.001Z</time></trkpt><trkpt lat="43.080730076027805" lon="11.816599326425113"><ele>453.4</ele><time>2026-04-21T15:10:20.001Z</time></trkpt><trkpt lat="43.08066052297963" lon="11.816491612063999"><ele>453.79999999999995</ele><time>2026-04-21T15:10:21.001Z</time></trkpt><trkpt lat="43.08061485772376" lon="11.816413670021056"><ele>454.2</ele><time>2026-04-21T15:10:22.001Z</time></trkpt><trkpt lat="43.08061823561974" lon="11.8162660201096"><ele>454.6</ele><time>2026-04-21T15:10:24.001Z</time></trkpt><trkpt lat="43.0806596582476" lon="11.81617482367491"><ele>455.0</ele><time>2026-04-21T15:10:25.001Z</time></trkpt><trkpt lat="43.08069588632326" lon="11.816051574478093"><ele>455.25</ele><time>2026-04-21T15:10:26.001Z</time></trkpt><trkpt lat="43.08074795601193" lon="11.815866084998571"><ele>455.5</ele><time>2026-04-21T15:10:27.001Z</time></trkpt><trkpt lat="43.08077234620743" lon="11.815687993979667"><ele>455.75</ele><time>2026-04-21T15:10:28.001Z</time></trkpt><trkpt lat="43.08078109231442" lon="11.815515789652705"><ele>456.0</ele><time>2026-04-21T15:10:29.001Z</time></trkpt><trkpt lat="43.080754698690754" lon="11.815378333462096"><ele>456.0</ele><time>2026-04-21T15:10:30.001Z</time></trkpt><trkpt lat="43.08069045712282" lon="11.815269633755245"><ele>456.0</ele><time>2026-04-21T15:10:31.001Z</time></trkpt><trkpt lat="43.080603886919384" lon="11.815185757392934"><ele>456.0</ele><time>2026-04-21T15:10:32.001Z</time></trkpt><trkpt lat="43.08049083465374" lon="11.815133104323282"><ele>456.0</ele><time>2026-04-21T15:10:33.001Z</time></trkpt><trkpt lat="43.080355983281244" lon="11.8150744801842"><ele>458.4</ele><time>2026-04-21T15:10:34.001Z</time></trkpt><trkpt lat="43.08024495603323" lon="11.814958347105337"><ele>460.8</ele><time>2026-04-21T15:10:35.001Z</time></trkpt><trkpt lat="43.08016758420659" lon="11.814867808276736"><ele>463.19999999999993</ele><time>2026-04-21T15:10:36.001Z</time></trkpt><trkpt lat="43.08013319343683" lon="11.81476169924317"><ele>465.59999999999997</ele><time>2026-04-21T15:10:37.001Z</time></trkpt><trkpt lat="43.08013746444443" lon="11.814625188417628"><ele>468.0</ele><time>2026-04-21T15:10:38.001Z</time></trkpt><trkpt lat="43.08017589461939" lon="11.814497871363859"><ele>468.0</ele><time>2026-04-21T15:10:39.001Z</time></trkpt><trkpt lat="43.080232616044206" lon="11.814396237721127"><ele>468.0</ele><time>2026-04-21T15:10:40.001Z</time></trkpt><trkpt lat="43.08031517183292" lon="11.81426030037255"><ele>468.0</ele><time>2026-04-21T15:10:41.001Z</time></trkpt><trkpt lat="43.08038248744092" lon="11.814073189466573"><ele>468.0</ele><time>2026-04-21T15:10:42.001Z</time></trkpt><trkpt lat="43.0804363900163" lon="11.813884628977736"><ele>468.0</ele><time>2026-04-21T15:10:43.001Z</time></trkpt><trkpt lat="43.08045224037456" lon="11.813688552273442"><ele>468.0</ele><time>2026-04-21T15:10:44.001Z</time></trkpt><trkpt lat="43.080442981275304" lon="11.813489418850798"><ele>468.0</ele><time>2026-04-21T15:10:45.001Z</time></trkpt><trkpt lat="43.080460662376986" lon="11.813296175075813"><ele>468.0</ele><time>2026-04-21T15:10:46.001Z</time></trkpt><trkpt lat="43.08047056043417" lon="11.813129121433782"><ele>468.25</ele><time>2026-04-21T15:10:47.001Z</time></trkpt><trkpt lat="43.08048586932508" lon="11.812958969332026"><ele>468.5</ele><time>2026-04-21T15:10:48.001Z</time></trkpt><trkpt lat="43.08051809776477" lon="11.812796770666667"><ele>468.75</ele><time>2026-04-21T15:10:49.001Z</time></trkpt><trkpt lat="43.080561344087194" lon="11.812612216520504"><ele>469.0</ele><time>2026-04-21T15:10:50.001Z</time></trkpt><trkpt lat="43.08060723275017" lon="11.812416385970158"><ele>470.33333333333337</ele><time>2026-04-21T15:10:51.001Z</time></trkpt><trkpt lat="43.08065130119863" lon="11.812223146494926"><ele>471.66666666666663</ele><time>2026-04-21T15:10:52.001Z</time></trkpt><trkpt lat="43.080690689906696" lon="11.812023158966065"><ele>473.0</ele><time>2026-04-21T15:10:53.001Z</time></trkpt><trkpt lat="43.080718962691186" lon="11.811815208607934"><ele>469.66666666666663</ele><time>2026-04-21T15:10:54.001Z</time></trkpt><trkpt lat="43.08072747380609" lon="11.811587296562411"><ele>466.33333333333337</ele><time>2026-04-21T15:10:55.001Z</time></trkpt><trkpt lat="43.080726570048924" lon="11.81136008485742"><ele>463.0</ele><time>2026-04-21T15:10:56.001Z</time></trkpt><trkpt lat="43.08071209830574" lon="11.811147125324483"><ele>463.75</ele><time>2026-04-21T15:10:57.001Z</time></trkpt><trkpt lat="43.08068378463007" lon="11.810969366206804"><ele>464.5</ele><time>2026-04-21T15:10:58.001Z</time></trkpt><trkpt lat="43.08064422392919" lon="11.810805381696147"><ele>465.25</ele><time>2026-04-21T15:10:59.001Z</time></trkpt><trkpt lat="43.08057703325946" lon="11.81064374292503"><ele>466.0</ele><time>2026-04-21T15:11:00.001Z</time></trkpt><trkpt lat="43.08046999246661" lon="11.810515575554728"><ele>466.0</ele><time>2026-04-21T15:11:01.001Z</time></trkpt><trkpt lat="43.0803830829223" lon="11.810380917852793"><ele>466.0</ele><time>2026-04-21T15:11:02.001Z</time></trkpt><trkpt lat="43.08026320445156" lon="11.810246995365292"><ele>466.0</ele><time>2026-04-21T15:11:03.001Z</time></trkpt><trkpt lat="43.08014220343148" lon="11.810113444321246"><ele>466.0</ele><time>2026-04-21T15:11:04.001Z</time></trkpt><trkpt lat="43.080032551965864" lon="11.809986719191546"><ele>467.0</ele><time>2026-04-21T15:11:05.001Z</time></trkpt><trkpt lat="43.07992192551531" lon="11.809854336640418"><ele>468.0</ele><time>2026-04-21T15:11:06.001Z</time></trkpt><trkpt lat="43.07980842838296" lon="11.80971390656438"><ele>469.0</ele><time>2026-04-21T15:11:07.001Z</time></trkpt><trkpt lat="43.07969921326063" lon="11.809569223387628"><ele>474.5</ele><time>2026-04-21T15:11:08.001Z</time></trkpt><trkpt lat="43.07947753582625" lon="11.809271537839455"><ele>480.0</ele><time>2026-04-21T15:11:10.001Z</time></trkpt><trkpt lat="43.07935533394144" lon="11.809123280144988"><ele>480.0</ele><time>2026-04-21T15:11:11.001Z</time></trkpt><trkpt lat="43.07922417521532" lon="11.808999610373542"><ele>480.0</ele><time>2026-04-21T15:11:12.001Z</time></trkpt><trkpt lat="43.079101690522414" lon="11.808885623040542"><ele>480.0</ele><time>2026-04-21T15:11:13.001Z</time></trkpt><trkpt lat="43.07900461070152" lon="11.808778748803155"><ele>480.0</ele><time>2026-04-21T15:11:14.001Z</time></trkpt><trkpt lat="43.07892126050652" lon="11.80867011264388"><ele>480.25</ele><time>2026-04-21T15:11:15.001Z</time></trkpt><trkpt lat="43.07884880561328" lon="11.808558443972782"><ele>480.5</ele><time>2026-04-21T15:11:16.001Z</time></trkpt><trkpt lat="43.07878678971323" lon="11.808437671631394"><ele>480.75</ele><time>2026-04-21T15:11:17.001Z</time></trkpt><trkpt lat="43.07872412775829" lon="11.808303909918179"><ele>481.0</ele><time>2026-04-21T15:11:18.001Z</time></trkpt><trkpt lat="43.07865847604796" lon="11.808151057002146"><ele>481.0</ele><time>2026-04-21T15:11:19.001Z</time></trkpt><trkpt lat="43.07858055562273" lon="11.807988072449737"><ele>481.0</ele><time>2026-04-21T15:11:20.001Z</time></trkpt><trkpt lat="43.07849459308307" lon="11.807820742296421"><ele>481.0</ele><time>2026-04-21T15:11:21.001Z</time></trkpt><trkpt lat="43.07841578373654" lon="11.807661321513358"><ele>481.0</ele><time>2026-04-21T15:11:22.001Z</time></trkpt><trkpt lat="43.07834931131286" lon="11.807511402135322"><ele>481.20000000000005</ele><time>2026-04-21T15:11:23.001Z</time></trkpt><trkpt lat="43.07829114577926" lon="11.807375146679611"><ele>481.40000000000003</ele><time>2026-04-21T15:11:24.001Z</time></trkpt><trkpt lat="43.07823604395979" lon="11.807243320899255"><ele>481.6</ele><time>2026-04-21T15:11:25.001Z</time></trkpt><trkpt lat="43.07818073679468" lon="11.807113018545177"><ele>481.8</ele><time>2026-04-21T15:11:26.001Z</time></trkpt><trkpt lat="43.07811965377812" lon="11.807000423723556"><ele>482.0</ele><time>2026-04-21T15:11:27.001Z</time></trkpt><trkpt lat="43.07801951566019" lon="11.806905012332878"><ele>481.20000000000005</ele><time>2026-04-21T15:11:28.001Z</time></trkpt><trkpt lat="43.0779422186389" lon="11.806799716991112"><ele>480.40000000000003</ele><time>2026-04-21T15:11:29.001Z</time></trkpt><trkpt lat="43.0778534356656" lon="11.806713318923006"><ele>479.59999999999997</ele><time>2026-04-21T15:11:30.001Z</time></trkpt><trkpt lat="43.07777180365817" lon="11.806626680987915"><ele>478.79999999999995</ele><time>2026-04-21T15:11:31.001Z</time></trkpt><trkpt lat="43.077704703417666" lon="11.806544431234768"><ele>478.0</ele><time>2026-04-21T15:11:32.001Z</time></trkpt><trkpt lat="43.07765063298829" lon="11.806429858781309"><ele>478.0</ele><time>2026-04-21T15:11:33.001Z</time></trkpt><trkpt lat="43.077625535683" lon="11.80627767600119"><ele>478.0</ele><time>2026-04-21T15:11:34.001Z</time></trkpt><trkpt lat="43.07760459778089" lon="11.806092427162234"><ele>478.0</ele><time>2026-04-21T15:11:35.001Z</time></trkpt><trkpt lat="43.077562206827324" lon="11.805671942090195"><ele>476.6666666666667</ele><time>2026-04-21T15:11:37.001Z</time></trkpt><trkpt lat="43.07753368614627" lon="11.80546895586605"><ele>475.33333333333337</ele><time>2026-04-21T15:11:38.001Z</time></trkpt><trkpt lat="43.07749825532161" lon="11.805262360962987"><ele>474.0</ele><time>2026-04-21T15:11:39.001Z</time></trkpt><trkpt lat="43.07745450063773" lon="11.805065808587473"><ele>475.33333333333337</ele><time>2026-04-21T15:11:40.001Z</time></trkpt><trkpt lat="43.07738529305126" lon="11.804867898288151"><ele>476.6666666666667</ele><time>2026-04-21T15:11:41.001Z</time></trkpt><trkpt lat="43.07728679163003" lon="11.804683586511265"><ele>478.0</ele><time>2026-04-21T15:11:42.001Z</time></trkpt><trkpt lat="43.077221519497606" lon="11.804469264850415"><ele>478.0</ele><time>2026-04-21T15:11:43.001Z</time></trkpt><trkpt lat="43.077153292209765" lon="11.804257484914604"><ele>478.0</ele><time>2026-04-21T15:11:44.001Z</time></trkpt><trkpt lat="43.07710132409583" lon="11.804047649523945"><ele>478.0</ele><time>2026-04-21T15:11:45.001Z</time></trkpt><trkpt lat="43.07704777367304" lon="11.803854554091172"><ele>478.0</ele><time>2026-04-21T15:11:46.001Z</time></trkpt><trkpt lat="43.076955933481266" lon="11.80369166490756"><ele>478.0</ele><time>2026-04-21T15:11:47.001Z</time></trkpt><trkpt lat="43.0768513453907" lon="11.803563502913438"><ele>478.0</ele><time>2026-04-21T15:11:48.001Z</time></trkpt><trkpt lat="43.07674065387744" lon="11.803443537821705"><ele>478.0</ele><time>2026-04-21T15:11:49.001Z</time></trkpt><trkpt lat="43.076525864090954" lon="11.80336430632735"><ele>477.0</ele><time>2026-04-21T15:11:51.001Z</time></trkpt><trkpt lat="43.076405481260664" lon="11.803287450992908"><ele>475.99999999999994</ele><time>2026-04-21T15:11:53.001Z</time></trkpt><trkpt lat="43.07633913484866" lon="11.80325491504555"><ele>474.99999999999994</ele><time>2026-04-21T15:11:54.001Z</time></trkpt><trkpt lat="43.07628403906529" lon="11.803199689663929"><ele>474.0</ele><time>2026-04-21T15:11:55.001Z</time></trkpt><trkpt lat="43.076213341817855" lon="11.803312054268568"><ele>473.0</ele><time>2026-04-21T15:11:59.001Z</time></trkpt><trkpt lat="43.07630718279216" lon="11.80332186320472"><ele>472.99999999999994</ele><time>2026-04-21T15:12:02.001Z</time></trkpt><trkpt lat="43.07637686287694" lon="11.80329049115002"><ele>473.0</ele><time>2026-04-21T15:12:03.001Z</time></trkpt><trkpt lat="43.076463235357416" lon="11.803310198567985"><ele>473.0</ele><time>2026-04-21T15:12:04.001Z</time></trkpt><trkpt lat="43.07655557613848" lon="11.803379733869676"><ele>473.0</ele><time>2026-04-21T15:12:05.001Z</time></trkpt><trkpt lat="43.07663941842606" lon="11.80343772893311"><ele>472.99999999999994</ele><time>2026-04-21T15:12:06.001Z</time></trkpt><trkpt lat="43.07670443233975" lon="11.803482366873064"><ele>473.0</ele><time>2026-04-21T15:12:07.001Z</time></trkpt><trkpt lat="43.07678381296176" lon="11.803473380925876"><ele>474.49999999999994</ele><time>2026-04-21T15:12:09.001Z</time></trkpt><trkpt lat="43.07682937067534" lon="11.803343915320172"><ele>476.0</ele><time>2026-04-21T15:12:11.001Z</time></trkpt><trkpt lat="43.07683671418603" lon="11.803252309529164"><ele>477.5</ele><time>2026-04-21T15:12:12.001Z</time></trkpt><trkpt lat="43.07682725408966" lon="11.803144158101045"><ele>479.0</ele><time>2026-04-21T15:12:13.001Z</time></trkpt><trkpt lat="43.07679282543533" lon="11.80302747349619"><ele>480.49999999999994</ele><time>2026-04-21T15:12:14.001Z</time></trkpt><trkpt lat="43.07674554855062" lon="11.802941798803845"><ele>482.0</ele><time>2026-04-21T15:12:15.001Z</time></trkpt><trkpt lat="43.07667339725021" lon="11.802845334985248"><ele>481.25</ele><time>2026-04-21T15:12:16.001Z</time></trkpt><trkpt lat="43.076592891339466" lon="11.802734882988334"><ele>480.5</ele><time>2026-04-21T15:12:17.001Z</time></trkpt><trkpt lat="43.0765122624362" lon="11.802611676061709"><ele>479.75</ele><time>2026-04-21T15:12:18.001Z</time></trkpt><trkpt lat="43.0764475250805" lon="11.80249002788498"><ele>479.0</ele><time>2026-04-21T15:12:19.001Z</time></trkpt><trkpt lat="43.07638769781579" lon="11.802358716818755"><ele>479.0</ele><time>2026-04-21T15:12:20.001Z</time></trkpt><trkpt lat="43.07632367658536" lon="11.80221528476255"><ele>479.0</ele><time>2026-04-21T15:12:21.001Z</time></trkpt><trkpt lat="43.07626642453052" lon="11.802070262042287"><ele>479.0</ele><time>2026-04-21T15:12:22.001Z</time></trkpt><trkpt lat="43.07619521546971" lon="11.801921407453781"><ele>479.0</ele><time>2026-04-21T15:12:23.001Z</time></trkpt><trkpt lat="43.07614251135073" lon="11.801765927279085"><ele>479.0</ele><time>2026-04-21T15:12:24.001Z</time></trkpt><trkpt lat="43.0761028306322" lon="11.801589285453852"><ele>479.0</ele><time>2026-04-21T15:12:25.001Z</time></trkpt><trkpt lat="43.07607296479248" lon="11.801386429923854"><ele>479.0</ele><time>2026-04-21T15:12:26.001Z</time></trkpt><trkpt lat="43.076063429371246" lon="11.801174818256417"><ele>479.0</ele><time>2026-04-21T15:12:27.001Z</time></trkpt><trkpt lat="43.07606825908402" lon="11.800963203793549"><ele>480.0</ele><time>2026-04-21T15:12:28.001Z</time></trkpt><trkpt lat="43.07607667742884" lon="11.800739058312157"><ele>481.0</ele><time>2026-04-21T15:12:29.001Z</time></trkpt><trkpt lat="43.076082823409294" lon="11.800513143565837"><ele>482.0</ele><time>2026-04-21T15:12:30.001Z</time></trkpt><trkpt lat="43.07608872063828" lon="11.80027809062519"><ele>483.3333333333333</ele><time>2026-04-21T15:12:31.001Z</time></trkpt><trkpt lat="43.07608945756171" lon="11.800043796806031"><ele>484.66666666666663</ele><time>2026-04-21T15:12:32.001Z</time></trkpt><trkpt lat="43.07608074289879" lon="11.799820662179501"><ele>486.0</ele><time>2026-04-21T15:12:33.001Z</time></trkpt><trkpt lat="43.076066518847234" lon="11.799612564102926"><ele>486.0</ele><time>2026-04-21T15:12:34.001Z</time></trkpt><trkpt lat="43.07607873255205" lon="11.799415745465431"><ele>486.0</ele><time>2026-04-21T15:12:35.001Z</time></trkpt><trkpt lat="43.076115258047366" lon="11.799242696226218"><ele>486.0</ele><time>2026-04-21T15:12:36.001Z</time></trkpt><trkpt lat="43.07616449691898" lon="11.799098729506868"><ele>486.0</ele><time>2026-04-21T15:12:37.001Z</time></trkpt><trkpt lat="43.076239072471175" lon="11.798949084189655"><ele>489.25</ele><time>2026-04-21T15:12:38.001Z</time></trkpt><trkpt lat="43.076326866632854" lon="11.798787847303231"><ele>492.5</ele><time>2026-04-21T15:12:39.001Z</time></trkpt><trkpt lat="43.07640961212023" lon="11.798626997696408"><ele>495.75</ele><time>2026-04-21T15:12:40.001Z</time></trkpt><trkpt lat="43.07646292729008" lon="11.798492985822092"><ele>499.0</ele><time>2026-04-21T15:12:41.001Z</time></trkpt><trkpt lat="43.076487583104814" lon="11.798356202541772"><ele>502.5</ele><time>2026-04-21T15:12:42.001Z</time></trkpt><trkpt lat="43.07649300880205" lon="11.798187229149761"><ele>506.0</ele><time>2026-04-21T15:12:43.001Z</time></trkpt><trkpt lat="43.07648122186738" lon="11.797975679037087"><ele>509.5</ele><time>2026-04-21T15:12:44.001Z</time></trkpt><trkpt lat="43.07649339509003" lon="11.797743933884885"><ele>513.0</ele><time>2026-04-21T15:12:45.001Z</time></trkpt><trkpt lat="43.076492873144545" lon="11.797502431308928"><ele>516.0</ele><time>2026-04-21T15:12:46.001Z</time></trkpt><trkpt lat="43.076495336003376" lon="11.79727071500531"><ele>519.0</ele><time>2026-04-21T15:12:47.001Z</time></trkpt><trkpt lat="43.07649816790366" lon="11.79703265058643"><ele>522.0</ele><time>2026-04-21T15:12:48.001Z</time></trkpt><trkpt lat="43.07650770389987" lon="11.79678735713101"><ele>523.0</ele><time>2026-04-21T15:12:49.001Z</time></trkpt><trkpt lat="43.07653618928039" lon="11.796538865071671"><ele>524.0</ele><time>2026-04-21T15:12:50.001Z</time></trkpt><trkpt lat="43.07656805788525" lon="11.796297714314829"><ele>525.0</ele><time>2026-04-21T15:12:51.001Z</time></trkpt><trkpt lat="43.07659301311819" lon="11.796076238401042"><ele>524.0</ele><time>2026-04-21T15:12:52.001Z</time></trkpt><trkpt lat="43.07659833940192" lon="11.795838282981075"><ele>523.0</ele><time>2026-04-21T15:12:53.001Z</time></trkpt><trkpt lat="43.07658541105051" lon="11.79559219379755"><ele>522.0</ele><time>2026-04-21T15:12:54.001Z</time></trkpt><trkpt lat="43.07656680327047" lon="11.795326732801843"><ele>523.3333333333334</ele><time>2026-04-21T15:12:55.001Z</time></trkpt><trkpt lat="43.076546196961694" lon="11.795065602815091"><ele>524.6666666666667</ele><time>2026-04-21T15:12:56.001Z</time></trkpt><trkpt lat="43.07653325578966" lon="11.794818573696602"><ele>526.0</ele><time>2026-04-21T15:12:57.001Z</time></trkpt><trkpt lat="43.076531281863346" lon="11.794590872266669"><ele>526.0</ele><time>2026-04-21T15:12:58.001Z</time></trkpt><trkpt lat="43.07655807881507" lon="11.794391315526656"><ele>526.0</ele><time>2026-04-21T15:12:59.001Z</time></trkpt><trkpt lat="43.076596235543" lon="11.79421213076607"><ele>526.0</ele><time>2026-04-21T15:13:00.001Z</time></trkpt><trkpt lat="43.07664425588157" lon="11.794015660165794"><ele>526.0</ele><time>2026-04-21T15:13:01.001Z</time></trkpt><trkpt lat="43.076697166282045" lon="11.7938142510209"><ele>528.0</ele><time>2026-04-21T15:13:02.001Z</time></trkpt><trkpt lat="43.07672718856764" lon="11.793638726832643"><ele>530.0</ele><time>2026-04-21T15:13:03.001Z</time></trkpt><trkpt lat="43.07678188568676" lon="11.79353066114017"><ele>532.0</ele><time>2026-04-21T15:13:04.001Z</time></trkpt><trkpt lat="43.07680880256391" lon="11.793404247987475"><ele>534.0</ele><time>2026-04-21T15:13:06.001Z</time></trkpt><trkpt lat="43.07679717619956" lon="11.793306265520895"><ele>536.0</ele><time>2026-04-21T15:13:07.001Z</time></trkpt><trkpt lat="43.076794502652234" lon="11.793163770825808"><ele>540.0</ele><time>2026-04-21T15:13:08.001Z</time></trkpt><trkpt lat="43.07678626097036" lon="11.792986304539372"><ele>544.0</ele><time>2026-04-21T15:13:09.001Z</time></trkpt><trkpt lat="43.0767670680516" lon="11.79280385796699"><ele>548.0</ele><time>2026-04-21T15:13:10.001Z</time></trkpt><trkpt lat="43.07673648858844" lon="11.792611453318123"><ele>552.0</ele><time>2026-04-21T15:13:11.001Z</time></trkpt><trkpt lat="43.076700808528095" lon="11.792430770492842"><ele>554.0</ele><time>2026-04-21T15:13:12.001Z</time></trkpt><trkpt lat="43.076649780713495" lon="11.792308112660413"><ele>556.0</ele><time>2026-04-21T15:13:13.001Z</time></trkpt><trkpt lat="43.07659172669739" lon="11.792178236186771"><ele>558.0</ele><time>2026-04-21T15:13:14.001Z</time></trkpt><trkpt lat="43.07649966345138" lon="11.792048764655528"><ele>560.0</ele><time>2026-04-21T15:13:15.001Z</time></trkpt><trkpt lat="43.07641425835609" lon="11.791895349270892"><ele>560.5</ele><time>2026-04-21T15:13:16.001Z</time></trkpt><trkpt lat="43.07632662285585" lon="11.791752176048089"><ele>561.0</ele><time>2026-04-21T15:13:17.001Z</time></trkpt><trkpt lat="43.07625021748611" lon="11.791626671475672"><ele>561.5</ele><time>2026-04-21T15:13:18.001Z</time></trkpt><trkpt lat="43.07619960166562" lon="11.791485529260564"><ele>562.0</ele><time>2026-04-21T15:13:19.001Z</time></trkpt><trkpt lat="43.07613064138118" lon="11.791348833030861"><ele>562.0</ele><time>2026-04-21T15:13:20.001Z</time></trkpt><trkpt lat="43.07608494163309" lon="11.791185099795936"><ele>562.0</ele><time>2026-04-21T15:13:21.001Z</time></trkpt><trkpt lat="43.07607581315082" lon="11.790999066224915"><ele>562.0</ele><time>2026-04-21T15:13:22.001Z</time></trkpt><trkpt lat="43.07605898498502" lon="11.790814667244938"><ele>562.0</ele><time>2026-04-21T15:13:23.001Z</time></trkpt><trkpt lat="43.07604214498668" lon="11.790649602245482"><ele>559.25</ele><time>2026-04-21T15:13:24.001Z</time></trkpt><trkpt lat="43.07602264154472" lon="11.790497303244528"><ele>556.5</ele><time>2026-04-21T15:13:25.001Z</time></trkpt><trkpt lat="43.07595153166305" lon="11.790347627351638"><ele>553.75</ele><time>2026-04-21T15:13:26.001Z</time></trkpt><trkpt lat="43.07586916175244" lon="11.790189897232194"><ele>551.0</ele><time>2026-04-21T15:13:27.001Z</time></trkpt><trkpt lat="43.07576603492" lon="11.790023299493303"><ele>549.25</ele><time>2026-04-21T15:13:28.001Z</time></trkpt><trkpt lat="43.07569648141196" lon="11.789848446732545"><ele>547.5</ele><time>2026-04-21T15:13:29.001Z</time></trkpt><trkpt lat="43.0756340128249" lon="11.789698860309308"><ele>545.75</ele><time>2026-04-21T15:13:30.001Z</time></trkpt><trkpt lat="43.07558263021127" lon="11.789551020505613"><ele>544.0</ele><time>2026-04-21T15:13:31.001Z</time></trkpt><trkpt lat="43.07554181481738" lon="11.789400628964373"><ele>545.8</ele><time>2026-04-21T15:13:32.001Z</time></trkpt><trkpt lat="43.07550506220743" lon="11.789243604282175"><ele>547.5999999999999</ele><time>2026-04-21T15:13:33.001Z</time></trkpt><trkpt lat="43.075457885254735" lon="11.789113971570195"><ele>549.4</ele><time>2026-04-21T15:13:34.001Z</time></trkpt><trkpt lat="43.07540408831814" lon="11.788995957178562"><ele>551.1999999999999</ele><time>2026-04-21T15:13:35.001Z</time></trkpt><trkpt lat="43.075324043254334" lon="11.788877648283572"><ele>553.0</ele><time>2026-04-21T15:13:36.001Z</time></trkpt><trkpt lat="43.07521259887903" lon="11.788772118984646"><ele>553.0</ele><time>2026-04-21T15:13:37.001Z</time></trkpt><trkpt lat="43.07511042033153" lon="11.788673686559665"><ele>553.0</ele><time>2026-04-21T15:13:38.001Z</time></trkpt><trkpt lat="43.07503595285792" lon="11.788590333449937"><ele>553.0</ele><time>2026-04-21T15:13:39.001Z</time></trkpt><trkpt lat="43.07499563316542" lon="11.788513111434721"><ele>553.0</ele><time>2026-04-21T15:13:40.001Z</time></trkpt><trkpt lat="43.07495288174682" lon="11.788410116735403"><ele>553.0</ele><time>2026-04-21T15:13:41.001Z</time></trkpt><trkpt lat="43.07492734015041" lon="11.788301747021785"><ele>553.6</ele><time>2026-04-21T15:13:42.001Z</time></trkpt><trkpt lat="43.0749154223663" lon="11.788175149948167"><ele>554.1999999999999</ele><time>2026-04-21T15:13:43.001Z</time></trkpt><trkpt lat="43.07490449235606" lon="11.788021108230259"><ele>554.8</ele><time>2026-04-21T15:13:44.001Z</time></trkpt><trkpt lat="43.074915153061525" lon="11.787867417109243"><ele>555.4</ele><time>2026-04-21T15:13:45.001Z</time></trkpt><trkpt lat="43.07492187378714" lon="11.787730373183813"><ele>556.0</ele><time>2026-04-21T15:13:46.001Z</time></trkpt><trkpt lat="43.074945210789416" lon="11.78760226393199"><ele>556.0</ele><time>2026-04-21T15:13:47.001Z</time></trkpt><trkpt lat="43.07493727027066" lon="11.787484092603803"><ele>556.0</ele><time>2026-04-21T15:13:48.001Z</time></trkpt><trkpt lat="43.074958596381265" lon="11.787362497622134"><ele>556.0</ele><time>2026-04-21T15:13:50.001Z</time></trkpt><trkpt lat="43.07497633081141" lon="11.787253949296735"><ele>556.0</ele><time>2026-04-21T15:13:52.001Z</time></trkpt><trkpt lat="43.07511259710355" lon="11.78721143170186"><ele>556.0</ele><time>2026-04-21T15:13:53.001Z</time></trkpt><trkpt lat="43.075203556437394" lon="11.787173152900916"><ele>556.0</ele><time>2026-04-21T15:13:54.001Z</time></trkpt><trkpt lat="43.07531241770727" lon="11.787102104738315"><ele>556.0</ele><time>2026-04-21T15:13:55.001Z</time></trkpt><trkpt lat="43.07542174700601" lon="11.786999012863834"><ele>556.0</ele><time>2026-04-21T15:13:56.001Z</time></trkpt><trkpt lat="43.075524671030685" lon="11.786858285081484"><ele>556.0</ele><time>2026-04-21T15:13:57.001Z</time></trkpt><trkpt lat="43.07561199619179" lon="11.786695878837044"><ele>555.5</ele><time>2026-04-21T15:13:58.001Z</time></trkpt><trkpt lat="43.07569277654464" lon="11.786531237872703"><ele>555.0</ele><time>2026-04-21T15:13:59.001Z</time></trkpt><trkpt lat="43.07577970773046" lon="11.786365899121947"><ele>554.5</ele><time>2026-04-21T15:14:00.001Z</time></trkpt><trkpt lat="43.07586501026743" lon="11.7862108352796"><ele>554.0</ele><time>2026-04-21T15:14:01.001Z</time></trkpt><trkpt lat="43.0759475251629" lon="11.786056835135021"><ele>558.25</ele><time>2026-04-21T15:14:02Z</time></trkpt><trkpt lat="43.076027471503515" lon="11.785908812891469"><ele>562.5</ele><time>2026-04-21T15:14:03Z</time></trkpt><trkpt lat="43.076102825503924" lon="11.785767671703098"><ele>566.75</ele><time>2026-04-21T15:14:04Z</time></trkpt><trkpt lat="43.076169717412924" lon="11.785630215898713"><ele>571.0</ele><time>2026-04-21T15:14:05Z</time></trkpt><trkpt lat="43.07623090827071" lon="11.78549532816708"><ele>571.0</ele><time>2026-04-21T15:14:06Z</time></trkpt><trkpt lat="43.0762904631261" lon="11.7853556465708"><ele>571.0</ele><time>2026-04-21T15:14:07Z</time></trkpt><trkpt lat="43.07634279631588" lon="11.785202350968854"><ele>571.0</ele><time>2026-04-21T15:14:08Z</time></trkpt><trkpt lat="43.076395653734934" lon="11.785036742734855"><ele>571.0</ele><time>2026-04-21T15:14:09Z</time></trkpt><trkpt lat="43.076449786619236" lon="11.784862389989172"><ele>568.25</ele><time>2026-04-21T15:14:10Z</time></trkpt><trkpt lat="43.076505087044204" lon="11.784683580749446"><ele>565.5</ele><time>2026-04-21T15:14:11Z</time></trkpt><trkpt lat="43.07656761700187" lon="11.784503761713674"><ele>562.75</ele><time>2026-04-21T15:14:12Z</time></trkpt><trkpt lat="43.07663638857719" lon="11.784330038319634"><ele>560.0</ele><time>2026-04-21T15:14:13Z</time></trkpt><trkpt lat="43.076713361636784" lon="11.784155351444538"><ele>560.0</ele><time>2026-04-21T15:14:14Z</time></trkpt><trkpt lat="43.07679499459133" lon="11.78399050039767"><ele>560.0</ele><time>2026-04-21T15:14:15Z</time></trkpt><trkpt lat="43.07687947972705" lon="11.78383738346221"><ele>560.0</ele><time>2026-04-21T15:14:16Z</time></trkpt><trkpt lat="43.07696612062717" lon="11.783692708256547"><ele>560.0</ele><time>2026-04-21T15:14:17Z</time></trkpt><trkpt lat="43.0770520987945" lon="11.78355102143788"><ele>561.0</ele><time>2026-04-21T15:14:18Z</time></trkpt><trkpt lat="43.07713179761719" lon="11.783412556762983"><ele>562.0</ele><time>2026-04-21T15:14:19Z</time></trkpt><trkpt lat="43.07721008569434" lon="11.78328057434815"><ele>563.0</ele><time>2026-04-21T15:14:20Z</time></trkpt><trkpt lat="43.07728581011595" lon="11.783154722200463"><ele>564.0</ele><time>2026-04-21T15:14:21Z</time></trkpt><trkpt lat="43.07736090884097" lon="11.783030555442085"><ele>560.5</ele><time>2026-04-21T15:14:22Z</time></trkpt><trkpt lat="43.077438255415416" lon="11.782904049452144"><ele>557.0</ele><time>2026-04-21T15:14:23Z</time></trkpt><trkpt lat="43.07752517852" lon="11.782781455581748"><ele>553.5</ele><time>2026-04-21T15:14:24Z</time></trkpt><trkpt lat="43.07761300953518" lon="11.782684367397204"><ele>550.0</ele><time>2026-04-21T15:14:25Z</time></trkpt><trkpt lat="43.07770765661194" lon="11.782616933615799"><ele>550.0</ele><time>2026-04-21T15:14:26Z</time></trkpt><trkpt lat="43.07779900570754" lon="11.782561736433886"><ele>550.0</ele><time>2026-04-21T15:14:27Z</time></trkpt><trkpt lat="43.07788260799683" lon="11.782515693592705"><ele>550.0</ele><time>2026-04-21T15:14:28Z</time></trkpt><trkpt lat="43.07796901315208" lon="11.782474969267255"><ele>550.0</ele><time>2026-04-21T15:14:29Z</time></trkpt><trkpt lat="43.07808011752289" lon="11.78243207389848"><ele>550.0</ele><time>2026-04-21T15:14:30Z</time></trkpt><trkpt lat="43.07822317201765" lon="11.782377618642935"><ele>547.6666666666667</ele><time>2026-04-21T15:14:31Z</time></trkpt><trkpt lat="43.07838860286302" lon="11.782314309564082"><ele>545.3333333333334</ele><time>2026-04-21T15:14:32Z</time></trkpt><trkpt lat="43.07859338637875" lon="11.782269817453198"><ele>543.0</ele><time>2026-04-21T15:14:33Z</time></trkpt><trkpt lat="43.07882418721183" lon="11.782185299414147"><ele>543.0</ele><time>2026-04-21T15:14:34Z</time></trkpt><trkpt lat="43.079075060982035" lon="11.782093428560989"><ele>543.0</ele><time>2026-04-21T15:14:35Z</time></trkpt><trkpt lat="43.079295626529316" lon="11.78201205308933"><ele>544.0</ele><time>2026-04-21T15:14:36Z</time></trkpt><trkpt lat="43.07949688813099" lon="11.78191903777333"><ele>545.0</ele><time>2026-04-21T15:14:37Z</time></trkpt><trkpt lat="43.07968554194414" lon="11.78184317939739"><ele>546.0</ele><time>2026-04-21T15:14:38Z</time></trkpt><trkpt lat="43.07986113979654" lon="11.781761348862291"><ele>543.0</ele><time>2026-04-21T15:14:39Z</time></trkpt><trkpt lat="43.080026516921535" lon="11.781670629256034"><ele>540.0</ele><time>2026-04-21T15:14:40Z</time></trkpt><trkpt lat="43.080175881018484" lon="11.781555381672252"><ele>537.0</ele><time>2026-04-21T15:14:41Z</time></trkpt><trkpt lat="43.08032392463944" lon="11.781417257820662"><ele>537.0</ele><time>2026-04-21T15:14:42Z</time></trkpt><trkpt lat="43.08047012155761" lon="11.781265480977208"><ele>537.0</ele><time>2026-04-21T15:14:43Z</time></trkpt><trkpt lat="43.08074793944845" lon="11.780972579935186"><ele>537.3333333333334</ele><time>2026-04-21T15:14:45Z</time></trkpt><trkpt lat="43.08088346339737" lon="11.780826413727057"><ele>537.6666666666667</ele><time>2026-04-21T15:14:46Z</time></trkpt><trkpt lat="43.08101020673232" lon="11.78068435127454"><ele>538.0</ele><time>2026-04-21T15:14:47Z</time></trkpt><trkpt lat="43.08113246664258" lon="11.78054036588631"><ele>538.0</ele><time>2026-04-21T15:14:48Z</time></trkpt><trkpt lat="43.08124776594541" lon="11.780391736497775"><ele>538.0</ele><time>2026-04-21T15:14:49Z</time></trkpt><trkpt lat="43.08135325674987" lon="11.780234701023792"><ele>538.0</ele><time>2026-04-21T15:14:50Z</time></trkpt><trkpt lat="43.08145245480812" lon="11.780071955972588"><ele>535.6666666666667</ele><time>2026-04-21T15:14:51Z</time></trkpt><trkpt lat="43.08155706665276" lon="11.779904625318359"><ele>533.3333333333334</ele><time>2026-04-21T15:14:52Z</time></trkpt><trkpt lat="43.08167195840718" lon="11.779737126355911"><ele>531.0</ele><time>2026-04-21T15:14:53Z</time></trkpt><trkpt lat="43.08178908510248" lon="11.77957929502608"><ele>531.0</ele><time>2026-04-21T15:14:54Z</time></trkpt><trkpt lat="43.08191170119445" lon="11.779437132340115"><ele>531.0</ele><time>2026-04-21T15:14:55Z</time></trkpt><trkpt lat="43.08204880007541" lon="11.779311171091527"><ele>531.0</ele><time>2026-04-21T15:14:56Z</time></trkpt><trkpt lat="43.08219708093686" lon="11.77921069297758"><ele>531.0</ele><time>2026-04-21T15:14:57Z</time></trkpt><trkpt lat="43.08235330297314" lon="11.779134331003833"><ele>531.0</ele><time>2026-04-21T15:14:58Z</time></trkpt><trkpt lat="43.08251652886278" lon="11.779076571415466"><ele>531.0</ele><time>2026-04-21T15:14:59Z</time></trkpt><trkpt lat="43.08268364965993" lon="11.779037530638444"><ele>529.0</ele><time>2026-04-21T15:15:00.001Z</time></trkpt><trkpt lat="43.08285181857815" lon="11.779012347779487"><ele>527.0</ele><time>2026-04-21T15:15:01.001Z</time></trkpt><trkpt lat="43.083024572853766" lon="11.77900799759495"><ele>525.0</ele><time>2026-04-21T15:15:02.001Z</time></trkpt><trkpt lat="43.083197853675436" lon="11.779019422015237"><ele>522.0</ele><time>2026-04-21T15:15:03.001Z</time></trkpt><trkpt lat="43.08353479835582" lon="11.77905236464563"><ele>519.0</ele><time>2026-04-21T15:15:05Z</time></trkpt><trkpt lat="43.083695078836215" lon="11.779064305749834"><ele>519.0</ele><time>2026-04-21T15:15:06Z</time></trkpt><trkpt lat="43.08385549975437" lon="11.779054137438926"><ele>519.0</ele><time>2026-04-21T15:15:07Z</time></trkpt><trkpt lat="43.084013157024806" lon="11.779002702603306"><ele>519.0</ele><time>2026-04-21T15:15:08Z</time></trkpt><trkpt lat="43.08416443399393" lon="11.778903635234927"><ele>516.6666666666666</ele><time>2026-04-21T15:15:09Z</time></trkpt><trkpt lat="43.08430963663223" lon="11.7787606063759"><ele>514.3333333333333</ele><time>2026-04-21T15:15:10Z</time></trkpt><trkpt lat="43.08445290176713" lon="11.778609358361253"><ele>512.0</ele><time>2026-04-21T15:15:11Z</time></trkpt><trkpt lat="43.08459877279126" lon="11.778456708678458"><ele>512.3333333333333</ele><time>2026-04-21T15:15:12Z</time></trkpt><trkpt lat="43.084741941737235" lon="11.778316271027688"><ele>512.6666666666666</ele><time>2026-04-21T15:15:13Z</time></trkpt><trkpt lat="43.08488346877945" lon="11.778187514783758"><ele>513.0</ele><time>2026-04-21T15:15:14Z</time></trkpt><trkpt lat="43.08502795718798" lon="11.778066699502387"><ele>513.0</ele><time>2026-04-21T15:15:15Z</time></trkpt><trkpt lat="43.08516963049563" lon="11.777958898571514"><ele>513.0</ele><time>2026-04-21T15:15:16Z</time></trkpt><trkpt lat="43.08530917735602" lon="11.777856654218724"><ele>513.0</ele><time>2026-04-21T15:15:17Z</time></trkpt><trkpt lat="43.085439537406636" lon="11.777757287751937"><ele>511.5</ele><time>2026-04-21T15:15:18Z</time></trkpt><trkpt lat="43.08556493253869" lon="11.777660021013247"><ele>510.0</ele><time>2026-04-21T15:15:19Z</time></trkpt><trkpt lat="43.08568901702584" lon="11.777562470572684"><ele>508.5</ele><time>2026-04-21T15:15:20Z</time></trkpt><trkpt lat="43.0858110855674" lon="11.777459591585103"><ele>507.0</ele><time>2026-04-21T15:15:21Z</time></trkpt><trkpt lat="43.0859302571625" lon="11.777341769818548"><ele>507.0</ele><time>2026-04-21T15:15:22Z</time></trkpt><trkpt lat="43.08604490025999" lon="11.777209251669573"><ele>507.0</ele><time>2026-04-21T15:15:23Z</time></trkpt><trkpt lat="43.0861529891128" lon="11.777078185065315"><ele>507.0</ele><time>2026-04-21T15:15:24Z</time></trkpt><trkpt lat="43.08625632111394" lon="11.77696009079859"><ele>507.0</ele><time>2026-04-21T15:15:25Z</time></trkpt><trkpt lat="43.08635780590332" lon="11.776847617592257"><ele>507.25</ele><time>2026-04-21T15:15:26Z</time></trkpt><trkpt lat="43.08646090547398" lon="11.776732983270083"><ele>507.5</ele><time>2026-04-21T15:15:27Z</time></trkpt><trkpt lat="43.08656805748343" lon="11.776626677423648"><ele>507.75</ele><time>2026-04-21T15:15:28Z</time></trkpt><trkpt lat="43.086675031295684" lon="11.776534308262542"><ele>508.0</ele><time>2026-04-21T15:15:29Z</time></trkpt><trkpt lat="43.08677797527403" lon="11.776450010567691"><ele>507.2</ele><time>2026-04-21T15:15:30Z</time></trkpt><trkpt lat="43.08687221478757" lon="11.776374705506019"><ele>506.4</ele><time>2026-04-21T15:15:31Z</time></trkpt><trkpt lat="43.086958984848735" lon="11.776308138508472"><ele>505.59999999999997</ele><time>2026-04-21T15:15:32Z</time></trkpt><trkpt lat="43.08704523073" lon="11.77624472789889"><ele>504.79999999999995</ele><time>2026-04-21T15:15:33Z</time></trkpt><trkpt lat="43.08712880829218" lon="11.77618274492407"><ele>504.0</ele><time>2026-04-21T15:15:34Z</time></trkpt><trkpt lat="43.08721300180503" lon="11.77611601060464"><ele>504.0</ele><time>2026-04-21T15:15:35Z</time></trkpt><trkpt lat="43.087290319752135" lon="11.77603400848049"><ele>504.0</ele><time>2026-04-21T15:15:36Z</time></trkpt><trkpt lat="43.087332726742034" lon="11.775934167232405"><ele>504.0</ele><time>2026-04-21T15:15:37Z</time></trkpt><trkpt lat="43.087339553252974" lon="11.775808588391062"><ele>504.0</ele><time>2026-04-21T15:15:38Z</time></trkpt><trkpt lat="43.08731844438406" lon="11.775662998639717"><ele>504.0</ele><time>2026-04-21T15:15:39Z</time></trkpt><trkpt lat="43.08727217392004" lon="11.775501265780338"><ele>504.66666666666663</ele><time>2026-04-21T15:15:40Z</time></trkpt><trkpt lat="43.08721984391744" lon="11.775316219837746"><ele>505.3333333333333</ele><time>2026-04-21T15:15:41Z</time></trkpt><trkpt lat="43.08716367942107" lon="11.775116071982966"><ele>506.0</ele><time>2026-04-21T15:15:42Z</time></trkpt><trkpt lat="43.087104500522535" lon="11.77490141438764"><ele>506.66666666666663</ele><time>2026-04-21T15:15:43Z</time></trkpt><trkpt lat="43.087040791229384" lon="11.774682990929895"><ele>507.33333333333337</ele><time>2026-04-21T15:15:44Z</time></trkpt><trkpt lat="43.08696672531004" lon="11.774464315431999"><ele>508.0</ele><time>2026-04-21T15:15:45Z</time></trkpt><trkpt lat="43.086885143165766" lon="11.77424502507183"><ele>509.6666666666667</ele><time>2026-04-21T15:15:46Z</time></trkpt><trkpt lat="43.086802829649294" lon="11.774022140638923"><ele>511.33333333333337</ele><time>2026-04-21T15:15:47Z</time></trkpt><trkpt lat="43.08672071796296" lon="11.7737962292166"><ele>513.0</ele><time>2026-04-21T15:15:48Z</time></trkpt><trkpt lat="43.08664378128101" lon="11.773578223259525"><ele>515.0</ele><time>2026-04-21T15:15:49Z</time></trkpt><trkpt lat="43.086575594660104" lon="11.773349935935629"><ele>517.0</ele><time>2026-04-21T15:15:50Z</time></trkpt><trkpt lat="43.08652244329316" lon="11.773113039516675"><ele>519.0</ele><time>2026-04-21T15:15:51Z</time></trkpt><trkpt lat="43.08649193176725" lon="11.772879343508654"><ele>521.0</ele><time>2026-04-21T15:15:52Z</time></trkpt><trkpt lat="43.08648750536293" lon="11.772638504220375"><ele>523.0</ele><time>2026-04-21T15:15:53Z</time></trkpt><trkpt lat="43.086505854318155" lon="11.772392767647323"><ele>525.0</ele><time>2026-04-21T15:15:54Z</time></trkpt><trkpt lat="43.08653228682798" lon="11.772140951472657"><ele>525.0</ele><time>2026-04-21T15:15:55Z</time></trkpt><trkpt lat="43.08654842108665" lon="11.771883458837303"><ele>525.0</ele><time>2026-04-21T15:15:56Z</time></trkpt><trkpt lat="43.086545748878486" lon="11.771612597092075"><ele>525.0</ele><time>2026-04-21T15:15:57Z</time></trkpt><trkpt lat="43.08653717079317" lon="11.771325227411587"><ele>525.3333333333334</ele><time>2026-04-21T15:15:58Z</time></trkpt><trkpt lat="43.08652965872691" lon="11.771034038886969"><ele>525.6666666666667</ele><time>2026-04-21T15:15:59Z</time></trkpt><trkpt lat="43.08649306588358" lon="11.77077479626876"><ele>526.0</ele><time>2026-04-21T15:16:00Z</time></trkpt><trkpt lat="43.08647682658122" lon="11.770484043241868"><ele>524.0</ele><time>2026-04-21T15:16:01Z</time></trkpt><trkpt lat="43.08645643051687" lon="11.77019387061068"><ele>522.0</ele><time>2026-04-21T15:16:02Z</time></trkpt><trkpt lat="43.08643043292166" lon="11.76990411457974"><ele>520.0</ele><time>2026-04-21T15:16:03Z</time></trkpt><trkpt lat="43.08639297959813" lon="11.76962162100458"><ele>517.0</ele><time>2026-04-21T15:16:04Z</time></trkpt><trkpt lat="43.08635271387319" lon="11.769348336535725"><ele>514.0</ele><time>2026-04-21T15:16:05Z</time></trkpt><trkpt lat="43.086326518473506" lon="11.769091335687419"><ele>511.0</ele><time>2026-04-21T15:16:06Z</time></trkpt><trkpt lat="43.086342614260076" lon="11.768835526328315"><ele>511.0</ele><time>2026-04-21T15:16:07Z</time></trkpt><trkpt lat="43.08636637166704" lon="11.76855760887081"><ele>511.0</ele><time>2026-04-21T15:16:08Z</time></trkpt><trkpt lat="43.08639559958472" lon="11.768262257058447"><ele>511.0</ele><time>2026-04-21T15:16:09Z</time></trkpt><trkpt lat="43.08642400619747" lon="11.767963711630056"><ele>506.0</ele><time>2026-04-21T15:16:10Z</time></trkpt><trkpt lat="43.08644013803857" lon="11.767651731926163"><ele>501.0</ele><time>2026-04-21T15:16:11Z</time></trkpt><trkpt lat="43.08646983749907" lon="11.767338571729033"><ele>501.0</ele><time>2026-04-21T15:16:12Z</time></trkpt><trkpt lat="43.086507425605326" lon="11.767014838925004"><ele>501.0</ele><time>2026-04-21T15:16:13Z</time></trkpt><trkpt lat="43.086541160953416" lon="11.76668367158942"><ele>499.5</ele><time>2026-04-21T15:16:14Z</time></trkpt><trkpt lat="43.08657462398605" lon="11.766347778623947"><ele>498.0</ele><time>2026-04-21T15:16:15Z</time></trkpt><trkpt lat="43.08660875860616" lon="11.766009066899615"><ele>498.0</ele><time>2026-04-21T15:16:16Z</time></trkpt><trkpt lat="43.0866463112343" lon="11.765669719653529"><ele>498.0</ele><time>2026-04-21T15:16:17Z</time></trkpt><trkpt lat="43.08667926103347" lon="11.765329999318553"><ele>497.0</ele><time>2026-04-21T15:16:18Z</time></trkpt><trkpt lat="43.08670924263846" lon="11.764989221491351"><ele>496.0</ele><time>2026-04-21T15:16:19Z</time></trkpt><trkpt lat="43.0867408914006" lon="11.764650177494687"><ele>494.0</ele><time>2026-04-21T15:16:20Z</time></trkpt><trkpt lat="43.08677501887271" lon="11.764319186754351"><ele>492.0</ele><time>2026-04-21T15:16:21Z</time></trkpt><trkpt lat="43.08682292817456" lon="11.764006402161716"><ele>492.0</ele><time>2026-04-21T15:16:22Z</time></trkpt><trkpt lat="43.086864982661496" lon="11.763691180039219"><ele>492.0</ele><time>2026-04-21T15:16:23Z</time></trkpt><trkpt lat="43.08689990961668" lon="11.763375911969126"><ele>491.0</ele><time>2026-04-21T15:16:24Z</time></trkpt><trkpt lat="43.08692646408367" lon="11.763063006021955"><ele>490.0</ele><time>2026-04-21T15:16:25Z</time></trkpt><trkpt lat="43.086947957626954" lon="11.762747390915617"><ele>489.5</ele><time>2026-04-21T15:16:26Z</time></trkpt><trkpt lat="43.08695720288247" lon="11.762431711692537"><ele>489.0</ele><time>2026-04-21T15:16:27Z</time></trkpt><trkpt lat="43.0869534994917" lon="11.762117658093402"><ele>489.33333333333337</ele><time>2026-04-21T15:16:28Z</time></trkpt><trkpt lat="43.08692263981988" lon="11.761810719360964"><ele>489.6666666666667</ele><time>2026-04-21T15:16:29Z</time></trkpt><trkpt lat="43.08685992962351" lon="11.761517496915063"><ele>490.0</ele><time>2026-04-21T15:16:30Z</time></trkpt><trkpt lat="43.08677670202626" lon="11.761236014968384"><ele>489.6666666666667</ele><time>2026-04-21T15:16:31Z</time></trkpt><trkpt lat="43.08669742473184" lon="11.760980648512374"><ele>489.33333333333337</ele><time>2026-04-21T15:16:32Z</time></trkpt><trkpt lat="43.086630366887164" lon="11.760739287404027"><ele>489.0</ele><time>2026-04-21T15:16:33Z</time></trkpt><trkpt lat="43.08657403085004" lon="11.760518062585097"><ele>489.0</ele><time>2026-04-21T15:16:34Z</time></trkpt><trkpt lat="43.08653857999892" lon="11.76029936699184"><ele>489.0</ele><time>2026-04-21T15:16:35Z</time></trkpt><trkpt lat="43.08652628343297" lon="11.760089178152901"><ele>489.0</ele><time>2026-04-21T15:16:36Z</time></trkpt><trkpt lat="43.086554406589414" lon="11.759869916576418"><ele>489.33333333333337</ele><time>2026-04-21T15:16:37Z</time></trkpt><trkpt lat="43.08660714183369" lon="11.759652249801308"><ele>489.6666666666667</ele><time>2026-04-21T15:16:38Z</time></trkpt><trkpt lat="43.08668208229566" lon="11.759430909322601"><ele>490.0</ele><time>2026-04-21T15:16:39Z</time></trkpt><trkpt lat="43.08675460905826" lon="11.759225658564947"><ele>490.25</ele><time>2026-04-21T15:16:40Z</time></trkpt><trkpt lat="43.08683957738225" lon="11.759060900102675"><ele>490.5</ele><time>2026-04-21T15:16:41Z</time></trkpt><trkpt lat="43.086915689982575" lon="11.758899648184457"><ele>490.75</ele><time>2026-04-21T15:16:42Z</time></trkpt><trkpt lat="43.0869987224417" lon="11.758763426444123"><ele>491.0</ele><time>2026-04-21T15:16:43Z</time></trkpt><trkpt lat="43.08700821800631" lon="11.758570966687772"><ele>493.5</ele><time>2026-04-21T15:16:44Z</time></trkpt><trkpt lat="43.087028061029095" lon="11.758405117193357"><ele>496.0</ele><time>2026-04-21T15:16:45Z</time></trkpt><trkpt lat="43.08703983987753" lon="11.758253531755233"><ele>498.5</ele><time>2026-04-21T15:16:46Z</time></trkpt><trkpt lat="43.0870372482406" lon="11.75810306388317"><ele>501.0</ele><time>2026-04-21T15:16:47Z</time></trkpt><trkpt lat="43.087008114923705" lon="11.757950362433547"><ele>501.0</ele><time>2026-04-21T15:16:48Z</time></trkpt><trkpt lat="43.086956586347625" lon="11.757806906503165"><ele>501.0</ele><time>2026-04-21T15:16:49Z</time></trkpt><trkpt lat="43.086899423073696" lon="11.757630307598482"><ele>501.0</ele><time>2026-04-21T15:16:50Z</time></trkpt><trkpt lat="43.0868213897926" lon="11.757451149900637"><ele>501.0</ele><time>2026-04-21T15:16:51Z</time></trkpt><trkpt lat="43.08675826768292" lon="11.757283362983257"><ele>502.5</ele><time>2026-04-21T15:16:52Z</time></trkpt><trkpt lat="43.0867124527034" lon="11.757143673812806"><ele>504.0</ele><time>2026-04-21T15:16:53Z</time></trkpt><trkpt lat="43.086759299824706" lon="11.757002205327462"><ele>505.5</ele><time>2026-04-21T15:16:54Z</time></trkpt><trkpt lat="43.086830217555296" lon="11.756865240939165"><ele>507.0</ele><time>2026-04-21T15:16:55Z</time></trkpt><trkpt lat="43.08688537540682" lon="11.756682576937955"><ele>507.25</ele><time>2026-04-21T15:16:56Z</time></trkpt><trkpt lat="43.08694549343596" lon="11.756519505197321"><ele>507.5</ele><time>2026-04-21T15:16:57Z</time></trkpt><trkpt lat="43.08696872450844" lon="11.756336223555174"><ele>507.75</ele><time>2026-04-21T15:16:58Z</time></trkpt><trkpt lat="43.086965964942856" lon="11.75613715772194"><ele>508.0</ele><time>2026-04-21T15:16:59Z</time></trkpt><trkpt lat="43.08695570704408" lon="11.75592985476171"><ele>507.5</ele><time>2026-04-21T15:17:00Z</time></trkpt><trkpt lat="43.08695652590558" lon="11.755720587531568"><ele>507.0</ele><time>2026-04-21T15:17:01Z</time></trkpt><trkpt lat="43.086985049448195" lon="11.755536002015734"><ele>506.5</ele><time>2026-04-21T15:17:02Z</time></trkpt><trkpt lat="43.08705018462333" lon="11.755383368073534"><ele>506.0</ele><time>2026-04-21T15:17:03Z</time></trkpt><trkpt lat="43.0871394663793" lon="11.755268422774089"><ele>505.75</ele><time>2026-04-21T15:17:04Z</time></trkpt><trkpt lat="43.08722134737999" lon="11.75516309956317"><ele>505.5</ele><time>2026-04-21T15:17:05.001Z</time></trkpt><trkpt lat="43.08729845227685" lon="11.755033871907"><ele>505.25</ele><time>2026-04-21T15:17:06.001Z</time></trkpt><trkpt lat="43.087391720980456" lon="11.75488830757825"><ele>505.0</ele><time>2026-04-21T15:17:07.001Z</time></trkpt><trkpt lat="43.087682070402494" lon="11.754952972806013"><ele>506.4</ele><time>2026-04-21T15:17:08.001Z</time></trkpt><trkpt lat="43.08779930577206" lon="11.754852301125139"><ele>507.8</ele><time>2026-04-21T15:17:09.001Z</time></trkpt><trkpt lat="43.08788262955841" lon="11.754752484686104"><ele>509.20000000000005</ele><time>2026-04-21T15:17:10.001Z</time></trkpt><trkpt lat="43.08793047750544" lon="11.754639100530204"><ele>510.6</ele><time>2026-04-21T15:17:11Z</time></trkpt><trkpt lat="43.08793885056337" lon="11.754497420883288"><ele>512.0</ele><time>2026-04-21T15:17:12Z</time></trkpt><trkpt lat="43.08791991980558" lon="11.754330571556416"><ele>514.25</ele><time>2026-04-21T15:17:13Z</time></trkpt><trkpt lat="43.08788410498933" lon="11.754140414062189"><ele>516.5</ele><time>2026-04-21T15:17:14Z</time></trkpt><trkpt lat="43.08785630387207" lon="11.75395932745135"><ele>518.75</ele><time>2026-04-21T15:17:15Z</time></trkpt><trkpt lat="43.087852179658164" lon="11.753815873648529"><ele>521.0</ele><time>2026-04-21T15:17:16Z</time></trkpt><trkpt lat="43.08786185116721" lon="11.753695059129695"><ele>521.0</ele><time>2026-04-21T15:17:17Z</time></trkpt><trkpt lat="43.08787624520511" lon="11.75355948224832"><ele>521.0</ele><time>2026-04-21T15:17:18Z</time></trkpt><trkpt lat="43.08789635948859" lon="11.75340423459946"><ele>521.0</ele><time>2026-04-21T15:17:19Z</time></trkpt><trkpt lat="43.08791277554529" lon="11.753254791797453"><ele>521.0</ele><time>2026-04-21T15:17:20Z</time></trkpt><trkpt lat="43.08792756132106" lon="11.753135167629644"><ele>521.0</ele><time>2026-04-21T15:17:21Z</time></trkpt><trkpt lat="43.087889404615986" lon="11.753025858201621"><ele>522.8</ele><time>2026-04-21T15:17:23Z</time></trkpt><trkpt lat="43.087841087933704" lon="11.752953376799312"><ele>524.6</ele><time>2026-04-21T15:17:24Z</time></trkpt><trkpt lat="43.08778199708581" lon="11.752836065738112"><ele>526.4</ele><time>2026-04-21T15:17:25Z</time></trkpt><trkpt lat="43.087720196486394" lon="11.752695400653078"><ele>528.2</ele><time>2026-04-21T15:17:26Z</time></trkpt><trkpt lat="43.08764887057075" lon="11.752553565756026"><ele>530.0</ele><time>2026-04-21T15:17:27Z</time></trkpt><trkpt lat="43.087503672640324" lon="11.7522540699137"><ele>529.75</ele><time>2026-04-21T15:17:29Z</time></trkpt><trkpt lat="43.087424543647415" lon="11.752094417198444"><ele>529.5</ele><time>2026-04-21T15:17:30Z</time></trkpt><trkpt lat="43.08735175468276" lon="11.751935362054024"><ele>529.25</ele><time>2026-04-21T15:17:31Z</time></trkpt><trkpt lat="43.08729131670437" lon="11.75178225921013"><ele>529.0</ele><time>2026-04-21T15:17:32Z</time></trkpt><trkpt lat="43.087228862795435" lon="11.751636518421822"><ele>528.2</ele><time>2026-04-21T15:17:33Z</time></trkpt><trkpt lat="43.08716867092804" lon="11.751516696133162"><ele>527.4</ele><time>2026-04-21T15:17:34Z</time></trkpt><trkpt lat="43.0871389896217" lon="11.751414174787193"><ele>526.6</ele><time>2026-04-21T15:17:35Z</time></trkpt><trkpt lat="43.08710397945688" lon="11.751307862430105"><ele>525.8</ele><time>2026-04-21T15:17:36Z</time></trkpt><trkpt lat="43.08709083952092" lon="11.751179608171437"><ele>525.0</ele><time>2026-04-21T15:17:37Z</time></trkpt><trkpt lat="43.08708784346826" lon="11.751008010181911"><ele>525.0</ele><time>2026-04-21T15:17:38Z</time></trkpt><trkpt lat="43.08708157330823" lon="11.7508092195262"><ele>525.0</ele><time>2026-04-21T15:17:39Z</time></trkpt><trkpt lat="43.08706453315654" lon="11.75059443409959"><ele>525.0</ele><time>2026-04-21T15:17:40Z</time></trkpt><trkpt lat="43.08704308943156" lon="11.75039771243342"><ele>525.0</ele><time>2026-04-21T15:17:41Z</time></trkpt><trkpt lat="43.087020055388095" lon="11.750233606763121"><ele>524.8333333333334</ele><time>2026-04-21T15:17:42Z</time></trkpt><trkpt lat="43.087000335077356" lon="11.75008725013438"><ele>524.6666666666666</ele><time>2026-04-21T15:17:43Z</time></trkpt><trkpt lat="43.086984981431804" lon="11.74995688752"><ele>524.5</ele><time>2026-04-21T15:17:44Z</time></trkpt><trkpt lat="43.08698208512622" lon="11.749847297499016"><ele>524.3333333333333</ele><time>2026-04-21T15:17:45Z</time></trkpt><trkpt lat="43.086995430366905" lon="11.749746853600682"><ele>524.1666666666666</ele><time>2026-04-21T15:17:46Z</time></trkpt><trkpt lat="43.08703389447871" lon="11.749639380917397"><ele>524.0</ele><time>2026-04-21T15:17:47Z</time></trkpt><trkpt lat="43.08715367824375" lon="11.749370765973161"><ele>524.0</ele><time>2026-04-21T15:17:49Z</time></trkpt><trkpt lat="43.08723102370516" lon="11.749209984103896"><ele>524.0</ele><time>2026-04-21T15:17:50Z</time></trkpt><trkpt lat="43.087317432150726" lon="11.749059158055994"><ele>524.0</ele><time>2026-04-21T15:17:51Z</time></trkpt><trkpt lat="43.08740322715466" lon="11.748928256969176"><ele>524.0</ele><time>2026-04-21T15:17:52Z</time></trkpt><trkpt lat="43.087485656163814" lon="11.748806154186664"><ele>524.6</ele><time>2026-04-21T15:17:53Z</time></trkpt><trkpt lat="43.08756876049228" lon="11.74868733961871"><ele>525.2</ele><time>2026-04-21T15:17:54Z</time></trkpt><trkpt lat="43.08764482110741" lon="11.74858161057187"><ele>525.8000000000001</ele><time>2026-04-21T15:17:55Z</time></trkpt><trkpt lat="43.08770533253295" lon="11.748479403263309"><ele>526.4</ele><time>2026-04-21T15:17:56Z</time></trkpt><trkpt lat="43.08775344598209" lon="11.748356257243532"><ele>527.0</ele><time>2026-04-21T15:17:57Z</time></trkpt><trkpt lat="43.08777457814035" lon="11.748217018136017"><ele>525.25</ele><time>2026-04-21T15:17:58Z</time></trkpt><trkpt lat="43.08777075440141" lon="11.748066207647332"><ele>523.5</ele><time>2026-04-21T15:17:59Z</time></trkpt><trkpt lat="43.08776193807693" lon="11.747893093083023"><ele>521.75</ele><time>2026-04-21T15:18:00Z</time></trkpt><trkpt lat="43.0877093258064" lon="11.747704289407872"><ele>520.0</ele><time>2026-04-21T15:18:01Z</time></trkpt><trkpt lat="43.0876729738635" lon="11.747508291056379"><ele>519.6666666666667</ele><time>2026-04-21T15:18:02Z</time></trkpt><trkpt lat="43.08763975851583" lon="11.747303079013955"><ele>519.3333333333334</ele><time>2026-04-21T15:18:03Z</time></trkpt><trkpt lat="43.087596252732325" lon="11.747090791575552"><ele>519.0</ele><time>2026-04-21T15:18:04Z</time></trkpt><trkpt lat="43.08753906376513" lon="11.74686351648208"><ele>518.3333333333334</ele><time>2026-04-21T15:18:05Z</time></trkpt><trkpt lat="43.0874750968395" lon="11.746640324152903"><ele>517.6666666666667</ele><time>2026-04-21T15:18:06Z</time></trkpt><trkpt lat="43.08742164803734" lon="11.746410772172979"><ele>517.0</ele><time>2026-04-21T15:18:07Z</time></trkpt><trkpt lat="43.087396460033354" lon="11.746194486281231"><ele>515.3333333333334</ele><time>2026-04-21T15:18:08Z</time></trkpt><trkpt lat="43.08737196752885" lon="11.745994601344439"><ele>513.6666666666666</ele><time>2026-04-21T15:18:09Z</time></trkpt><trkpt lat="43.087350410283356" lon="11.745793818289462"><ele>512.0</ele><time>2026-04-21T15:18:10Z</time></trkpt><trkpt lat="43.08731616039283" lon="11.745571862514423"><ele>512.0</ele><time>2026-04-21T15:18:11Z</time></trkpt><trkpt lat="43.08729838217954" lon="11.745351912598178"><ele>512.0</ele><time>2026-04-21T15:18:12Z</time></trkpt><trkpt lat="43.087277390866284" lon="11.74513056024346"><ele>512.0</ele><time>2026-04-21T15:18:13Z</time></trkpt><trkpt lat="43.087256762281875" lon="11.744919776682316"><ele>512.0</ele><time>2026-04-21T15:18:14Z</time></trkpt><trkpt lat="43.087237271823604" lon="11.744722162277581"><ele>512.0</ele><time>2026-04-21T15:18:15Z</time></trkpt><trkpt lat="43.08724184437177" lon="11.744539791775747"><ele>512.0</ele><time>2026-04-21T15:18:16Z</time></trkpt><trkpt lat="43.0872213444775" lon="11.744365501339814"><ele>512.0</ele><time>2026-04-21T15:18:17Z</time></trkpt><trkpt lat="43.087230272819994" lon="11.744201156771847"><ele>513.25</ele><time>2026-04-21T15:18:18Z</time></trkpt><trkpt lat="43.0872200641029" lon="11.744036713477634"><ele>514.5</ele><time>2026-04-21T15:18:19Z</time></trkpt><trkpt lat="43.08717177568818" lon="11.743877645086865"><ele>515.75</ele><time>2026-04-21T15:18:20Z</time></trkpt><trkpt lat="43.08712163726666" lon="11.743716302591112"><ele>517.0</ele><time>2026-04-21T15:18:21Z</time></trkpt><trkpt lat="43.087074978580006" lon="11.74354822664608"><ele>518.75</ele><time>2026-04-21T15:18:22Z</time></trkpt><trkpt lat="43.08700112981025" lon="11.743383720765955"><ele>520.5</ele><time>2026-04-21T15:18:23Z</time></trkpt><trkpt lat="43.0869068282154" lon="11.743229322462234"><ele>522.25</ele><time>2026-04-21T15:18:24Z</time></trkpt><trkpt lat="43.08679959594495" lon="11.743093469494786"><ele>524.0</ele><time>2026-04-21T15:18:25Z</time></trkpt><trkpt lat="43.08672923142523" lon="11.742920399672235"><ele>524.0</ele><time>2026-04-21T15:18:26Z</time></trkpt><trkpt lat="43.08666510623156" lon="11.742749467304415"><ele>524.0</ele><time>2026-04-21T15:18:27Z</time></trkpt><trkpt lat="43.08661738399942" lon="11.742591870964628"><ele>524.0</ele><time>2026-04-21T15:18:28Z</time></trkpt><trkpt lat="43.08658652613672" lon="11.742450051901148"><ele>524.0</ele><time>2026-04-21T15:18:29Z</time></trkpt><trkpt lat="43.08658424442109" lon="11.742316286457678"><ele>526.4</ele><time>2026-04-21T15:18:30Z</time></trkpt><trkpt lat="43.08658123265893" lon="11.74219884810778"><ele>528.8</ele><time>2026-04-21T15:18:31Z</time></trkpt><trkpt lat="43.08657649102462" lon="11.74208712700836"><ele>531.2</ele><time>2026-04-21T15:18:32Z</time></trkpt><trkpt lat="43.086571416609864" lon="11.741963752123223"><ele>533.6</ele><time>2026-04-21T15:18:33Z</time></trkpt><trkpt lat="43.08657241202512" lon="11.741814324350177"><ele>536.0</ele><time>2026-04-21T15:18:34Z</time></trkpt><trkpt lat="43.086543078545894" lon="11.741650499310504"><ele>536.0</ele><time>2026-04-21T15:18:35Z</time></trkpt><trkpt lat="43.086539523908456" lon="11.741473664894848"><ele>536.0</ele><time>2026-04-21T15:18:36Z</time></trkpt><trkpt lat="43.086479857535906" lon="11.741116266220786"><ele>536.0</ele><time>2026-04-21T15:18:38Z</time></trkpt><trkpt lat="43.08642351957625" lon="11.740957554734553"><ele>536.0</ele><time>2026-04-21T15:18:39Z</time></trkpt><trkpt lat="43.08636908482712" lon="11.740797143386768"><ele>536.0</ele><time>2026-04-21T15:18:40Z</time></trkpt><trkpt lat="43.08631510646241" lon="11.740622819621857"><ele>536.0</ele><time>2026-04-21T15:18:41Z</time></trkpt><trkpt lat="43.08623460201214" lon="11.740474507686542"><ele>536.0</ele><time>2026-04-21T15:18:42Z</time></trkpt><trkpt lat="43.08613478882502" lon="11.740338802681352"><ele>536.0</ele><time>2026-04-21T15:18:43Z</time></trkpt><trkpt lat="43.08601937700608" lon="11.740236851896885"><ele>536.0</ele><time>2026-04-21T15:18:44Z</time></trkpt><trkpt lat="43.085909261773246" lon="11.740129287715078"><ele>536.0</ele><time>2026-04-21T15:18:45Z</time></trkpt><trkpt lat="43.08579200754561" lon="11.740024011349838"><ele>536.0</ele><time>2026-04-21T15:18:46Z</time></trkpt><trkpt lat="43.08568736952603" lon="11.739889085095136"><ele>534.5</ele><time>2026-04-21T15:18:47Z</time></trkpt><trkpt lat="43.08558872309383" lon="11.739762995124396"><ele>533.0</ele><time>2026-04-21T15:18:48Z</time></trkpt><trkpt lat="43.085492407757954" lon="11.73961427746436"><ele>531.5</ele><time>2026-04-21T15:18:49Z</time></trkpt><trkpt lat="43.085404087044644" lon="11.739464870618583"><ele>530.0</ele><time>2026-04-21T15:18:50Z</time></trkpt><trkpt lat="43.08531889999723" lon="11.739286027273701"><ele>529.3333333333333</ele><time>2026-04-21T15:18:51Z</time></trkpt><trkpt lat="43.08524676577657" lon="11.739096424274186"><ele>528.6666666666666</ele><time>2026-04-21T15:18:52Z</time></trkpt><trkpt lat="43.08516239973213" lon="11.738902272104648"><ele>528.0</ele><time>2026-04-21T15:18:53Z</time></trkpt><trkpt lat="43.08506436526223" lon="11.738716449154099"><ele>527.25</ele><time>2026-04-21T15:18:54Z</time></trkpt><trkpt lat="43.08496884003306" lon="11.738539420586957"><ele>526.5</ele><time>2026-04-21T15:18:55Z</time></trkpt><trkpt lat="43.0848948732453" lon="11.73838264240404"><ele>525.75</ele><time>2026-04-21T15:18:56Z</time></trkpt><trkpt lat="43.08486179013743" lon="11.738223311511707"><ele>525.0</ele><time>2026-04-21T15:18:57Z</time></trkpt><trkpt lat="43.08485693497124" lon="11.738044992090536"><ele>525.0</ele><time>2026-04-21T15:18:58Z</time></trkpt><trkpt lat="43.08482607168298" lon="11.737826565700182"><ele>525.0</ele><time>2026-04-21T15:18:59Z</time></trkpt><trkpt lat="43.08476971249113" lon="11.737598185579376"><ele>525.0</ele><time>2026-04-21T15:19:00Z</time></trkpt><trkpt lat="43.08470052787723" lon="11.737372049110322"><ele>524.6666666666666</ele><time>2026-04-21T15:19:01Z</time></trkpt><trkpt lat="43.08463982419617" lon="11.737134604869604"><ele>524.3333333333333</ele><time>2026-04-21T15:19:02Z</time></trkpt><trkpt lat="43.08457672843011" lon="11.736869832441679"><ele>524.0</ele><time>2026-04-21T15:19:03Z</time></trkpt><trkpt lat="43.084509016362105" lon="11.736614506932478"><ele>524.0</ele><time>2026-04-21T15:19:04Z</time></trkpt><trkpt lat="43.08443892955702" lon="11.736347650513544"><ele>524.0</ele><time>2026-04-21T15:19:05Z</time></trkpt><trkpt lat="43.084358973978716" lon="11.736082208113055"><ele>524.0</ele><time>2026-04-21T15:19:06Z</time></trkpt><trkpt lat="43.08427068987111" lon="11.735813017263395"><ele>525.6666666666666</ele><time>2026-04-21T15:19:07Z</time></trkpt><trkpt lat="43.084179971250684" lon="11.73554004344435"><ele>527.3333333333334</ele><time>2026-04-21T15:19:08Z</time></trkpt><trkpt lat="43.084091267981044" lon="11.73529054783362"><ele>529.0</ele><time>2026-04-21T15:19:09Z</time></trkpt><trkpt lat="43.08400852624564" lon="11.73505708278859"><ele>531.0</ele><time>2026-04-21T15:19:10Z</time></trkpt><trkpt lat="43.08393138382575" lon="11.734847570447984"><ele>533.0</ele><time>2026-04-21T15:19:11Z</time></trkpt><trkpt lat="43.08385880477927" lon="11.734656797625341"><ele>535.0</ele><time>2026-04-21T15:19:12Z</time></trkpt><trkpt lat="43.08378665052955" lon="11.734507937201736"><ele>535.0</ele><time>2026-04-21T15:19:13Z</time></trkpt><trkpt lat="43.08370507818235" lon="11.734391010492244"><ele>535.0</ele><time>2026-04-21T15:19:14Z</time></trkpt><trkpt lat="43.08362440095348" lon="11.734308724826015"><ele>535.0</ele><time>2026-04-21T15:19:15Z</time></trkpt><trkpt lat="43.08356798556069" lon="11.73423357019155"><ele>535.0</ele><time>2026-04-21T15:19:16Z</time></trkpt><trkpt lat="43.08357475865264" lon="11.734100820505924"><ele>535.0</ele><time>2026-04-21T15:19:17Z</time></trkpt><trkpt lat="43.08353268174929" lon="11.733950191291354"><ele>535.0</ele><time>2026-04-21T15:19:18Z</time></trkpt><trkpt lat="43.08346641209042" lon="11.733792838303442"><ele>535.0</ele><time>2026-04-21T15:19:19Z</time></trkpt><trkpt lat="43.083413325215716" lon="11.733624279324795"><ele>535.0</ele><time>2026-04-21T15:19:20Z</time></trkpt><trkpt lat="43.0833607702676" lon="11.73346267639209"><ele>535.0</ele><time>2026-04-21T15:19:21Z</time></trkpt><trkpt lat="43.08323595277885" lon="11.733198795466325"><ele>533.25</ele><time>2026-04-21T15:19:23Z</time></trkpt><trkpt lat="43.08317777145471" lon="11.733030108220882"><ele>531.5</ele><time>2026-04-21T15:19:24Z</time></trkpt><trkpt lat="43.08309960253093" lon="11.732854744203015"><ele>529.75</ele><time>2026-04-21T15:19:25Z</time></trkpt><trkpt lat="43.08302006162026" lon="11.732674093952893"><ele>528.0</ele><time>2026-04-21T15:19:26Z</time></trkpt><trkpt lat="43.082938039033905" lon="11.732494050379465"><ele>527.6666666666666</ele><time>2026-04-21T15:19:27Z</time></trkpt><trkpt lat="43.082837204352586" lon="11.732324953289524"><ele>527.3333333333333</ele><time>2026-04-21T15:19:28Z</time></trkpt><trkpt lat="43.08274897947923" lon="11.732141138051126"><ele>527.0</ele><time>2026-04-21T15:19:29Z</time></trkpt><trkpt lat="43.08265316851341" lon="11.73195894992892"><ele>528.3333333333333</ele><time>2026-04-21T15:19:30Z</time></trkpt><trkpt lat="43.08255141534391" lon="11.731781425324758"><ele>529.6666666666666</ele><time>2026-04-21T15:19:31Z</time></trkpt><trkpt lat="43.082460841549285" lon="11.731612979241339"><ele>531.0</ele><time>2026-04-21T15:19:32Z</time></trkpt><trkpt lat="43.08236104951924" lon="11.731462966039782"><ele>529.5</ele><time>2026-04-21T15:19:33Z</time></trkpt><trkpt lat="43.082276990660496" lon="11.731305248095225"><ele>528.0</ele><time>2026-04-21T15:19:34Z</time></trkpt><trkpt lat="43.08221285456826" lon="11.731160402848964"><ele>526.5</ele><time>2026-04-21T15:19:35Z</time></trkpt><trkpt lat="43.08213579953066" lon="11.731045310579882"><ele>525.0</ele><time>2026-04-21T15:19:36Z</time></trkpt><trkpt lat="43.082045781170095" lon="11.730943167824488"><ele>525.0</ele><time>2026-04-21T15:19:37Z</time></trkpt><trkpt lat="43.081944186052965" lon="11.730844819014294"><ele>525.0</ele><time>2026-04-21T15:19:38Z</time></trkpt><trkpt lat="43.081837121069725" lon="11.730737385693551"><ele>525.0</ele><time>2026-04-21T15:19:39Z</time></trkpt><trkpt lat="43.08173893965466" lon="11.730637267917757"><ele>525.0</ele><time>2026-04-21T15:19:40Z</time></trkpt><trkpt lat="43.08163570864384" lon="11.730532054384378"><ele>523.5</ele><time>2026-04-21T15:19:41Z</time></trkpt><trkpt lat="43.08152552785284" lon="11.730419757546525"><ele>522.0</ele><time>2026-04-21T15:19:42Z</time></trkpt><trkpt lat="43.08141338066945" lon="11.730305456771873"><ele>520.5</ele><time>2026-04-21T15:19:43Z</time></trkpt><trkpt lat="43.081297027019986" lon="11.73021298966241"><ele>519.0</ele><time>2026-04-21T15:19:44Z</time></trkpt><trkpt lat="43.081199706818936" lon="11.730108221817448"><ele>519.0</ele><time>2026-04-21T15:19:45Z</time></trkpt><trkpt lat="43.08111662449731" lon="11.730010021925816"><ele>519.0</ele><time>2026-04-21T15:19:46Z</time></trkpt><trkpt lat="43.08105599840055" lon="11.729908418431338"><ele>519.0</ele><time>2026-04-21T15:19:47Z</time></trkpt><trkpt lat="43.08102962978984" lon="11.729764558004371"><ele>519.0</ele><time>2026-04-21T15:19:48Z</time></trkpt><trkpt lat="43.080961700785565" lon="11.729635945800442"><ele>519.0</ele><time>2026-04-21T15:19:49Z</time></trkpt><trkpt lat="43.08088472872216" lon="11.729495781195109"><ele>519.5</ele><time>2026-04-21T15:19:50Z</time></trkpt><trkpt lat="43.08080249278114" lon="11.729339490038559"><ele>520.0</ele><time>2026-04-21T15:19:51Z</time></trkpt><trkpt lat="43.08072027381297" lon="11.72916207535809"><ele>520.5</ele><time>2026-04-21T15:19:52Z</time></trkpt><trkpt lat="43.08065742747757" lon="11.728983458768113"><ele>521.0</ele><time>2026-04-21T15:19:53Z</time></trkpt><trkpt lat="43.08059321636609" lon="11.72881104146505"><ele>519.4</ele><time>2026-04-21T15:19:54Z</time></trkpt><trkpt lat="43.080514539578004" lon="11.728667905239424"><ele>517.8</ele><time>2026-04-21T15:19:55Z</time></trkpt><trkpt lat="43.08049046095081" lon="11.728534549050273"><ele>516.1999999999999</ele><time>2026-04-21T15:19:56Z</time></trkpt><trkpt lat="43.08049356168234" lon="11.728435956031054"><ele>514.6</ele><time>2026-04-21T15:19:57Z</time></trkpt><trkpt lat="43.080538644027094" lon="11.728357448907035"><ele>513.0</ele><time>2026-04-21T15:19:58Z</time></trkpt><trkpt lat="43.08054742833765" lon="11.728224809810346"><ele>513.0</ele><time>2026-04-21T15:19:59Z</time></trkpt><trkpt lat="43.08052429163407" lon="11.728085290126058"><ele>513.0</ele><time>2026-04-21T15:20:00Z</time></trkpt><trkpt lat="43.080457969148085" lon="11.727992787387288"><ele>513.0</ele><time>2026-04-21T15:20:01Z</time></trkpt><trkpt lat="43.0804027439623" lon="11.727912728887224"><ele>513.0</ele><time>2026-04-21T15:20:02Z</time></trkpt><trkpt lat="43.08033638922033" lon="11.727850013268805"><ele>513.0</ele><time>2026-04-21T15:20:03Z</time></trkpt><trkpt lat="43.08026330135659" lon="11.727776096985936"><ele>512.3333333333334</ele><time>2026-04-21T15:20:04Z</time></trkpt><trkpt lat="43.08019852536218" lon="11.727692823195417"><ele>511.66666666666663</ele><time>2026-04-21T15:20:05Z</time></trkpt><trkpt lat="43.080149490290744" lon="11.727607781637348"><ele>511.0</ele><time>2026-04-21T15:20:06Z</time></trkpt><trkpt lat="43.08010634926584" lon="11.727528109264261"><ele>510.3333333333333</ele><time>2026-04-21T15:20:07Z</time></trkpt><trkpt lat="43.080052606081885" lon="11.72746399991967"><ele>509.66666666666663</ele><time>2026-04-21T15:20:08Z</time></trkpt><trkpt lat="43.07997512172408" lon="11.727397594971189"><ele>509.0</ele><time>2026-04-21T15:20:09Z</time></trkpt><trkpt lat="43.079856865698694" lon="11.727413285004626"><ele>509.0</ele><time>2026-04-21T15:20:10Z</time></trkpt><trkpt lat="43.07974764383805" lon="11.727386708664648"><ele>509.0</ele><time>2026-04-21T15:20:11Z</time></trkpt><trkpt lat="43.07965814557408" lon="11.727384974968766"><ele>509.0</ele><time>2026-04-21T15:20:12Z</time></trkpt><trkpt lat="43.0795767919274" lon="11.727383956654647"><ele>509.0</ele><time>2026-04-21T15:20:13Z</time></trkpt><trkpt lat="43.07947326903757" lon="11.727374035758071"><ele>509.0</ele><time>2026-04-21T15:20:14Z</time></trkpt><trkpt lat="43.079378458490986" lon="11.72735761249156"><ele>508.99999999999994</ele><time>2026-04-21T15:20:15Z</time></trkpt><trkpt lat="43.07929704512829" lon="11.72733101583661"><ele>509.0</ele><time>2026-04-21T15:20:16Z</time></trkpt><trkpt lat="43.0792200211373" lon="11.727299225396562"><ele>509.0</ele><time>2026-04-21T15:20:17Z</time></trkpt><trkpt lat="43.07914575600071" lon="11.72725730303394"><ele>509.0</ele><time>2026-04-21T15:20:18Z</time></trkpt><trkpt lat="43.079057733736335" lon="11.727190899846674"><ele>508.99999999999994</ele><time>2026-04-21T15:20:20Z</time></trkpt><trkpt lat="43.07899595826221" lon="11.72716044739892"><ele>509.0</ele><time>2026-04-21T15:20:21Z</time></trkpt><trkpt lat="43.07894751024328" lon="11.727093849381989"><ele>506.16666666666663</ele><time>2026-04-21T15:20:22Z</time></trkpt><trkpt lat="43.07887147142346" lon="11.727059978315745"><ele>503.3333333333333</ele><time>2026-04-21T15:20:23Z</time></trkpt><trkpt lat="43.078785527363735" lon="11.727066815430545"><ele>500.5</ele><time>2026-04-21T15:20:24Z</time></trkpt><trkpt lat="43.078719907775984" lon="11.727051356254513"><ele>497.66666666666663</ele><time>2026-04-21T15:20:25Z</time></trkpt><trkpt lat="43.07865455165592" lon="11.727070973228114"><ele>494.8333333333333</ele><time>2026-04-21T15:20:26Z</time></trkpt><trkpt lat="43.07856641574334" lon="11.727144710807554"><ele>492.0</ele><time>2026-04-21T15:20:28Z</time></trkpt><trkpt lat="43.07855849960178" lon="11.727302289953101"><ele>492.0</ele><time>2026-04-21T15:20:30Z</time></trkpt><trkpt lat="43.078554568310075" lon="11.727399314633466"><ele>492.0</ele><time>2026-04-21T15:20:31Z</time></trkpt><trkpt lat="43.078562602877454" lon="11.727506300969809"><ele>492.0</ele><time>2026-04-21T15:20:32Z</time></trkpt><trkpt lat="43.078589483492294" lon="11.727615843168609"><ele>492.0</ele><time>2026-04-21T15:20:33Z</time></trkpt><trkpt lat="43.07862300818203" lon="11.727731728409761"><ele>492.0</ele><time>2026-04-21T15:20:34Z</time></trkpt><trkpt lat="43.07865936234069" lon="11.727840762372157"><ele>492.0</ele><time>2026-04-21T15:20:35Z</time></trkpt><trkpt lat="43.07869652263078" lon="11.727928524262074"><ele>489.3333333333333</ele><time>2026-04-21T15:20:36Z</time></trkpt><trkpt lat="43.07871929762329" lon="11.728012608953657"><ele>486.66666666666663</ele><time>2026-04-21T15:20:37Z</time></trkpt><trkpt lat="43.0787895518902" lon="11.728156322320153"><ele>484.0</ele><time>2026-04-21T15:20:39Z</time></trkpt><trkpt lat="43.078825834428635" lon="11.728235794637792"><ele>481.3333333333333</ele><time>2026-04-21T15:20:40Z</time></trkpt><trkpt lat="43.07885976944369" lon="11.72831060151775"><ele>478.66666666666663</ele><time>2026-04-21T15:20:41Z</time></trkpt><trkpt lat="43.07889903187048" lon="11.728392211660166"><ele>476.0</ele><time>2026-04-21T15:20:42Z</time></trkpt><trkpt lat="43.078948263103584" lon="11.728479416874514"><ele>476.0</ele><time>2026-04-21T15:20:43Z</time></trkpt><trkpt lat="43.07899192469281" lon="11.728553881060163"><ele>476.0</ele><time>2026-04-21T15:20:44Z</time></trkpt><trkpt lat="43.07904248625486" lon="11.728633460858596"><ele>476.0</ele><time>2026-04-21T15:20:45Z</time></trkpt><trkpt lat="43.07905409598072" lon="11.728744900233272"><ele>476.0</ele><time>2026-04-21T15:20:46Z</time></trkpt><trkpt lat="43.079072193014824" lon="11.72884265452421"><ele>476.0</ele><time>2026-04-21T15:20:47Z</time></trkpt><trkpt lat="43.07908522830789" lon="11.728934951930272"><ele>476.0</ele><time>2026-04-21T15:20:48Z</time></trkpt><trkpt lat="43.07909821899945" lon="11.72903127196417"><ele>476.0</ele><time>2026-04-21T15:20:49Z</time></trkpt><trkpt lat="43.07911487384522" lon="11.729192523241789"><ele>477.20000000000005</ele><time>2026-04-21T15:20:51Z</time></trkpt><trkpt lat="43.07911454872963" lon="11.729322513640565"><ele>478.40000000000003</ele><time>2026-04-21T15:20:53Z</time></trkpt><trkpt lat="43.07902153721082" lon="11.729363150630427"><ele>479.6</ele><time>2026-04-21T15:20:56Z</time></trkpt><trkpt lat="43.078938881043456" lon="11.729305114885204"><ele>480.8</ele><time>2026-04-21T15:20:58Z</time></trkpt><trkpt lat="43.07883511417994" lon="11.729274934604407"><ele>482.0</ele><time>2026-04-21T15:20:59.999Z</time></trkpt><trkpt lat="43.0787306728891" lon="11.729259610301977"><ele>478.20000000000005</ele><time>2026-04-21T15:21:01.999Z</time></trkpt><trkpt lat="43.078610431014376" lon="11.729312842033112"><ele>474.40000000000003</ele><time>2026-04-21T15:21:03.999Z</time></trkpt><trkpt lat="43.07849974732273" lon="11.72933738343224"><ele>470.59999999999997</ele><time>2026-04-21T15:21:05.999Z</time></trkpt><trkpt lat="43.07839976090755" lon="11.7293001365294"><ele>466.79999999999995</ele><time>2026-04-21T15:21:07.999Z</time></trkpt><trkpt lat="43.078313823302295" lon="11.729266107563058"><ele>463.0</ele><time>2026-04-21T15:21:09.999Z</time></trkpt><trkpt lat="43.078236951305186" lon="11.729240169548387"><ele>461.1666666666667</ele><time>2026-04-21T15:21:11.999Z</time></trkpt><trkpt lat="43.07814418534403" lon="11.729304813893604"><ele>459.33333333333337</ele><time>2026-04-21T15:21:13.999Z</time></trkpt><trkpt lat="43.07808021592973" lon="11.729347669209044"><ele>457.5</ele><time>2026-04-21T15:21:14.999Z</time></trkpt><trkpt lat="43.07801455625808" lon="11.729392883252409"><ele>455.66666666666663</ele><time>2026-04-21T15:21:15.999Z</time></trkpt><trkpt lat="43.077924136268194" lon="11.72945882704754"><ele>453.8333333333333</ele><time>2026-04-21T15:21:18Z</time></trkpt><trkpt lat="43.07786355185029" lon="11.729504205562797"><ele>452.0</ele><time>2026-04-21T15:21:19Z</time></trkpt><trkpt lat="43.077805580628485" lon="11.729547626742805"><ele>450.16666666666663</ele><time>2026-04-21T15:21:20Z</time></trkpt><trkpt lat="43.07774651879464" lon="11.729592356162327"><ele>448.3333333333333</ele><time>2026-04-21T15:21:21Z</time></trkpt><trkpt lat="43.07768181993382" lon="11.729642109474861"><ele>446.5</ele><time>2026-04-21T15:21:22Z</time></trkpt><trkpt lat="43.077613151696816" lon="11.729694915279776"><ele>444.66666666666663</ele><time>2026-04-21T15:21:23Z</time></trkpt><trkpt lat="43.07754768237211" lon="11.729745261083984"><ele>442.8333333333333</ele><time>2026-04-21T15:21:24Z</time></trkpt><trkpt lat="43.07746843441605" lon="11.729806202613798"><ele>441.0</ele><time>2026-04-21T15:21:25Z</time></trkpt><trkpt lat="43.07739139148386" lon="11.729864810086466"><ele>439.6666666666667</ele><time>2026-04-21T15:21:26Z</time></trkpt><trkpt lat="43.07730859160013" lon="11.729923965065566"><ele>438.33333333333337</ele><time>2026-04-21T15:21:27Z</time></trkpt><trkpt lat="43.07723593928402" lon="11.72997499911294"><ele>437.0</ele><time>2026-04-21T15:21:28Z</time></trkpt><trkpt lat="43.077161951585374" lon="11.730032743593997"><ele>435.6666666666667</ele><time>2026-04-21T15:21:29Z</time></trkpt><trkpt lat="43.07709166284873" lon="11.730087601221706"><ele>434.33333333333337</ele><time>2026-04-21T15:21:30Z</time></trkpt><trkpt lat="43.077025099460705" lon="11.73013782588874"><ele>433.0</ele><time>2026-04-21T15:21:31Z</time></trkpt><trkpt lat="43.076963860967425" lon="11.73018240303767"><ele>431.83333333333337</ele><time>2026-04-21T15:21:32Z</time></trkpt><trkpt lat="43.07689663856251" lon="11.730231335748051"><ele>430.6666666666667</ele><time>2026-04-21T15:21:33Z</time></trkpt><trkpt lat="43.0768310096382" lon="11.730268183647865"><ele>429.5</ele><time>2026-04-21T15:21:34Z</time></trkpt><trkpt lat="43.07676468915776" lon="11.730290509706617"><ele>428.33333333333337</ele><time>2026-04-21T15:21:35Z</time></trkpt><trkpt lat="43.076693512297844" lon="11.730296632843425"><ele>427.1666666666667</ele><time>2026-04-21T15:21:36Z</time></trkpt><trkpt lat="43.076619325814065" lon="11.730304964893195"><ele>426.0</ele><time>2026-04-21T15:21:37Z</time></trkpt><trkpt lat="43.076530119028774" lon="11.730338017053217"><ele>425.6666666666667</ele><time>2026-04-21T15:21:38Z</time></trkpt><trkpt lat="43.0764463437661" lon="11.73035606426442"><ele>425.33333333333337</ele><time>2026-04-21T15:21:39Z</time></trkpt><trkpt lat="43.07636945644497" lon="11.73037735034675"><ele>425.0</ele><time>2026-04-21T15:21:40Z</time></trkpt><trkpt lat="43.07629633486673" lon="11.730353884876642"><ele>424.6666666666667</ele><time>2026-04-21T15:21:41Z</time></trkpt><trkpt lat="43.07619923589557" lon="11.730268087178336"><ele>424.33333333333337</ele><time>2026-04-21T15:21:43Z</time></trkpt><trkpt lat="43.076128624736135" lon="11.730220945355654"><ele>424.0</ele><time>2026-04-21T15:21:44Z</time></trkpt><trkpt lat="43.07605080194067" lon="11.730183812272825"><ele>424.0</ele><time>2026-04-21T15:21:45Z</time></trkpt><trkpt lat="43.07598737021184" lon="11.730142766781976"><ele>424.0</ele><time>2026-04-21T15:21:46Z</time></trkpt><trkpt lat="43.07586712115589" lon="11.730091645336307"><ele>424.0</ele><time>2026-04-21T15:21:48Z</time></trkpt><trkpt lat="43.07580187562615" lon="11.730070725331132"><ele>424.0</ele><time>2026-04-21T15:21:49Z</time></trkpt><trkpt lat="43.07567950322601" lon="11.730049043495862"><ele>424.0</ele><time>2026-04-21T15:21:51Z</time></trkpt><trkpt lat="43.07556529622718" lon="11.73010071745055"><ele>420.0</ele><time>2026-04-21T15:21:53Z</time></trkpt><trkpt lat="43.07547390741615" lon="11.730180475211611"><ele>416.0</ele><time>2026-04-21T15:21:55Z</time></trkpt><trkpt lat="43.075395079126125" lon="11.730304739881715"><ele>412.0</ele><time>2026-04-21T15:21:57Z</time></trkpt><trkpt lat="43.07533904837416" lon="11.730473766908686"><ele>408.0</ele><time>2026-04-21T15:21:59Z</time></trkpt><trkpt lat="43.07531094116186" lon="11.730558870891565"><ele>404.0</ele><time>2026-04-21T15:22:00Z</time></trkpt><trkpt lat="43.07527418980884" lon="11.730655856946214"><ele>403.49999999999994</ele><time>2026-04-21T15:22:01Z</time></trkpt><trkpt lat="43.07522850232844" lon="11.730773005774402"><ele>403.0</ele><time>2026-04-21T15:22:02Z</time></trkpt><trkpt lat="43.07518712136415" lon="11.73087381771237"><ele>402.5</ele><time>2026-04-21T15:22:03Z</time></trkpt><trkpt lat="43.075153048889305" lon="11.730979223556016"><ele>402.0</ele><time>2026-04-21T15:22:04Z</time></trkpt><trkpt lat="43.07510765013946" lon="11.731073342149683"><ele>401.49999999999994</ele><time>2026-04-21T15:22:05Z</time></trkpt><trkpt lat="43.07506950224312" lon="11.731166379863557"><ele>401.0</ele><time>2026-04-21T15:22:06Z</time></trkpt><trkpt lat="43.075003032038495" lon="11.731279250109234"><ele>398.6</ele><time>2026-04-21T15:22:08Z</time></trkpt><trkpt lat="43.07493099542282" lon="11.731286832823681"><ele>396.20000000000005</ele><time>2026-04-21T15:22:11Z</time></trkpt><trkpt lat="43.07485392123707" lon="11.731170999444725"><ele>393.79999999999995</ele><time>2026-04-21T15:22:13Z</time></trkpt><trkpt lat="43.074841983529815" lon="11.731075426647868"><ele>391.4</ele><time>2026-04-21T15:22:14Z</time></trkpt><trkpt lat="43.074815520208546" lon="11.730986204241932"><ele>389.0</ele><time>2026-04-21T15:22:15Z</time></trkpt><trkpt lat="43.07476671779949" lon="11.730776972007218"><ele>388.49999999999994</ele><time>2026-04-21T15:22:17Z</time></trkpt><trkpt lat="43.07474719731738" lon="11.73067465427787"><ele>388.0</ele><time>2026-04-21T15:22:18Z</time></trkpt><trkpt lat="43.07473121194907" lon="11.730570012720317"><ele>387.5</ele><time>2026-04-21T15:22:19Z</time></trkpt><trkpt lat="43.07469813693382" lon="11.730468562368822"><ele>387.0</ele><time>2026-04-21T15:22:20Z</time></trkpt><trkpt lat="43.07469204338087" lon="11.730379527922269"><ele>386.49999999999994</ele><time>2026-04-21T15:22:21Z</time></trkpt><trkpt lat="43.07466531439614" lon="11.73028855617134"><ele>386.0</ele><time>2026-04-21T15:22:22Z</time></trkpt><trkpt lat="43.07461314044137" lon="11.730206717175232"><ele>385.8333333333333</ele><time>2026-04-21T15:22:23Z</time></trkpt><trkpt lat="43.07456686128853" lon="11.730122285338314"><ele>385.66666666666663</ele><time>2026-04-21T15:22:24Z</time></trkpt><trkpt lat="43.07450827127275" lon="11.730045782015091"><ele>385.5</ele><time>2026-04-21T15:22:25Z</time></trkpt><trkpt lat="43.074463984516264" lon="11.729970597484916"><ele>385.33333333333337</ele><time>2026-04-21T15:22:26Z</time></trkpt><trkpt lat="43.0744183122697" lon="11.729838446108715"><ele>385.1666666666667</ele><time>2026-04-21T15:22:28Z</time></trkpt><trkpt lat="43.07439850526583" lon="11.729743889524013"><ele>385.0</ele><time>2026-04-21T15:22:29Z</time></trkpt><trkpt lat="43.07437200165318" lon="11.729626501672573"><ele>385.0</ele><time>2026-04-21T15:22:30Z</time></trkpt><trkpt lat="43.07433911276393" lon="11.729485935116015"><ele>385.0</ele><time>2026-04-21T15:22:31Z</time></trkpt><trkpt lat="43.07428326683893" lon="11.729354709527746"><ele>385.0</ele><time>2026-04-21T15:22:32Z</time></trkpt><trkpt lat="43.0742280205049" lon="11.729216052900705"><ele>385.0</ele><time>2026-04-21T15:22:33Z</time></trkpt><trkpt lat="43.07417599138298" lon="11.729090278892063"><ele>385.0</ele><time>2026-04-21T15:22:34Z</time></trkpt><trkpt lat="43.07415055004066" lon="11.72895935392355"><ele>385.00000000000006</ele><time>2026-04-21T15:22:35Z</time></trkpt><trkpt lat="43.07412377690816" lon="11.728857677231955"><ele>385.0</ele><time>2026-04-21T15:22:36Z</time></trkpt><trkpt lat="43.07409647831283" lon="11.728739203971534"><ele>385.0</ele><time>2026-04-21T15:22:37Z</time></trkpt><trkpt lat="43.074072990670665" lon="11.72862460789736"><ele>385.0</ele><time>2026-04-21T15:22:38Z</time></trkpt><trkpt lat="43.07405843808822" lon="11.72851789928244"><ele>385.00000000000006</ele><time>2026-04-21T15:22:39Z</time></trkpt><trkpt lat="43.07404665801735" lon="11.728422613249815"><ele>385.0</ele><time>2026-04-21T15:22:40Z</time></trkpt><trkpt lat="43.07402357607221" lon="11.728326612836105"><ele>385.33333333333337</ele><time>2026-04-21T15:22:41Z</time></trkpt><trkpt lat="43.07397978664618" lon="11.728224792026536"><ele>385.6666666666667</ele><time>2026-04-21T15:22:42Z</time></trkpt><trkpt lat="43.07391658883298" lon="11.728142575072935"><ele>386.0</ele><time>2026-04-21T15:22:43Z</time></trkpt><trkpt lat="43.073840199452604" lon="11.728098786612406"><ele>386.33333333333337</ele><time>2026-04-21T15:22:44Z</time></trkpt><trkpt lat="43.073751559541556" lon="11.728064334959164"><ele>386.6666666666667</ele><time>2026-04-21T15:22:45Z</time></trkpt><trkpt lat="43.07368156369949" lon="11.7280437046732"><ele>387.0</ele><time>2026-04-21T15:22:46Z</time></trkpt><trkpt lat="43.07359264413675" lon="11.728008161710259"><ele>387.0</ele><time>2026-04-21T15:22:48Z</time></trkpt><trkpt lat="43.073542084456186" lon="11.727952650567955"><ele>387.0</ele><time>2026-04-21T15:22:51Z</time></trkpt><trkpt lat="43.073485242671424" lon="11.727815074829973"><ele>387.0</ele><time>2026-04-21T15:22:53.999Z</time></trkpt><trkpt lat="43.073498420252086" lon="11.727645661273828"><ele>387.0</ele><time>2026-04-21T15:22:55.999Z</time></trkpt><trkpt lat="43.07352664077546" lon="11.727565176629465"><ele>387.0</ele><time>2026-04-21T15:22:56.999Z</time></trkpt><trkpt lat="43.07363054839991" lon="11.727451623018174"><ele>387.1666666666667</ele><time>2026-04-21T15:22:58.999Z</time></trkpt><trkpt lat="43.073704942630165" lon="11.727459653605973"><ele>387.33333333333337</ele><time>2026-04-21T15:22:59.999Z</time></trkpt><trkpt lat="43.073779835364135" lon="11.727454011637146"><ele>387.5</ele><time>2026-04-21T15:23:00.999Z</time></trkpt><trkpt lat="43.0738467936541" lon="11.72742221043082"><ele>387.6666666666667</ele><time>2026-04-21T15:23:01.999Z</time></trkpt><trkpt lat="43.073908451912295" lon="11.727359178239604"><ele>387.83333333333337</ele><time>2026-04-21T15:23:03.999Z</time></trkpt><trkpt lat="43.07387465145258" lon="11.727199376570658"><ele>388.0</ele><time>2026-04-21T15:23:05.999Z</time></trkpt><trkpt lat="43.0738172118137" lon="11.727113567749042"><ele>388.0</ele><time>2026-04-21T15:23:06.999Z</time></trkpt><trkpt lat="43.07376985732333" lon="11.727024716706033"><ele>388.0</ele><time>2026-04-21T15:23:07.999Z</time></trkpt><trkpt lat="43.07375012136867" lon="11.726928676029324"><ele>388.0</ele><time>2026-04-21T15:23:08.999Z</time></trkpt><trkpt lat="43.073730074624855" lon="11.726843054139778"><ele>388.0</ele><time>2026-04-21T15:23:09.999Z</time></trkpt><trkpt lat="43.07370783338597" lon="11.72673214030071"><ele>388.0</ele><time>2026-04-21T15:23:10.999Z</time></trkpt><trkpt lat="43.073619861154924" lon="11.726500184629812"><ele>388.6666666666667</ele><time>2026-04-21T15:23:12.999Z</time></trkpt><trkpt lat="43.07353914826526" lon="11.72640843001305"><ele>389.33333333333337</ele><time>2026-04-21T15:23:13.999Z</time></trkpt><trkpt lat="43.07346818290226" lon="11.726328880266575"><ele>390.0</ele><time>2026-04-21T15:23:14.999Z</time></trkpt><trkpt lat="43.073396559791156" lon="11.726257103132436"><ele>390.66666666666663</ele><time>2026-04-21T15:23:15.999Z</time></trkpt><trkpt lat="43.07332969479968" lon="11.726192160777787"><ele>391.3333333333333</ele><time>2026-04-21T15:23:16.999Z</time></trkpt><trkpt lat="43.07328911412326" lon="11.7261260495678"><ele>392.0</ele><time>2026-04-21T15:23:17.999Z</time></trkpt><trkpt lat="43.07326347124345" lon="11.726043832495984"><ele>394.99999999999994</ele><time>2026-04-21T15:23:18.999Z</time></trkpt><trkpt lat="43.073248408972354" lon="11.725950004841959"><ele>398.0</ele><time>2026-04-21T15:23:19.999Z</time></trkpt><trkpt lat="43.0732080029272" lon="11.72584474170259"><ele>401.0</ele><time>2026-04-21T15:23:20.999Z</time></trkpt><trkpt lat="43.07315051864075" lon="11.725741289140801"><ele>404.0</ele><time>2026-04-21T15:23:21.999Z</time></trkpt><trkpt lat="43.07307252236747" lon="11.725655406043176"><ele>406.99999999999994</ele><time>2026-04-21T15:23:23Z</time></trkpt><trkpt lat="43.07301587698746" lon="11.725581650432444"><ele>410.0</ele><time>2026-04-21T15:23:24Z</time></trkpt><trkpt lat="43.07296288460646" lon="11.725507190082833"><ele>410.0</ele><time>2026-04-21T15:23:25Z</time></trkpt><trkpt lat="43.07289556132148" lon="11.72542770012136"><ele>410.0</ele><time>2026-04-21T15:23:26Z</time></trkpt><trkpt lat="43.072839942009175" lon="11.72530715312"><ele>410.0</ele><time>2026-04-21T15:23:27Z</time></trkpt><trkpt lat="43.072776818498745" lon="11.725195831046197"><ele>410.0</ele><time>2026-04-21T15:23:28Z</time></trkpt><trkpt lat="43.07271357618301" lon="11.72507415706338"><ele>410.0</ele><time>2026-04-21T15:23:29Z</time></trkpt><trkpt lat="43.07263894279011" lon="11.72495053187912"><ele>409.75</ele><time>2026-04-21T15:23:30Z</time></trkpt><trkpt lat="43.072603772033496" lon="11.724788160738228"><ele>409.5</ele><time>2026-04-21T15:23:31Z</time></trkpt><trkpt lat="43.07257474123465" lon="11.72462146132782"><ele>409.25</ele><time>2026-04-21T15:23:32Z</time></trkpt><trkpt lat="43.07254014031337" lon="11.724443251711993"><ele>409.0</ele><time>2026-04-21T15:23:33Z</time></trkpt><trkpt lat="43.07244834303957" lon="11.724101607252729"><ele>411.5</ele><time>2026-04-21T15:23:35Z</time></trkpt><trkpt lat="43.07240655960634" lon="11.723934881984052"><ele>414.0</ele><time>2026-04-21T15:23:36Z</time></trkpt><trkpt lat="43.07237431090805" lon="11.723762334541584"><ele>416.5</ele><time>2026-04-21T15:23:37Z</time></trkpt><trkpt lat="43.07232781306116" lon="11.723605582102733"><ele>419.0</ele><time>2026-04-21T15:23:38Z</time></trkpt><trkpt lat="43.07228280307612" lon="11.723453737480572"><ele>419.0</ele><time>2026-04-21T15:23:39Z</time></trkpt><trkpt lat="43.072239089671896" lon="11.723302625161848"><ele>419.0</ele><time>2026-04-21T15:23:40Z</time></trkpt><trkpt lat="43.072195547729" lon="11.723143810101657"><ele>419.0</ele><time>2026-04-21T15:23:41Z</time></trkpt><trkpt lat="43.072151420436164" lon="11.72297512740652"><ele>419.0</ele><time>2026-04-21T15:23:42Z</time></trkpt><trkpt lat="43.072112693884286" lon="11.722801249712157"><ele>418.75</ele><time>2026-04-21T15:23:43Z</time></trkpt><trkpt lat="43.072077704425965" lon="11.722622738561684"><ele>418.5</ele><time>2026-04-21T15:23:44Z</time></trkpt><trkpt lat="43.072047253651185" lon="11.722459363439373"><ele>418.25</ele><time>2026-04-21T15:23:45Z</time></trkpt><trkpt lat="43.072022600608115" lon="11.722313783686028"><ele>418.0</ele><time>2026-04-21T15:23:46Z</time></trkpt><trkpt lat="43.07199754489339" lon="11.722184008565147"><ele>418.0</ele><time>2026-04-21T15:23:47Z</time></trkpt><trkpt lat="43.07195957519714" lon="11.722054535597405"><ele>418.0</ele><time>2026-04-21T15:23:48Z</time></trkpt><trkpt lat="43.07189942047816" lon="11.721916037300467"><ele>418.0</ele><time>2026-04-21T15:23:49Z</time></trkpt><trkpt lat="43.071823961034475" lon="11.721782066231643"><ele>418.0</ele><time>2026-04-21T15:23:50Z</time></trkpt><trkpt lat="43.07175485613762" lon="11.721668512917587"><ele>419.59999999999997</ele><time>2026-04-21T15:23:51Z</time></trkpt><trkpt lat="43.07168468354602" lon="11.721604400775572"><ele>421.2</ele><time>2026-04-21T15:23:52Z</time></trkpt><trkpt lat="43.07157077980765" lon="11.721506729155143"><ele>422.8</ele><time>2026-04-21T15:23:54Z</time></trkpt><trkpt lat="43.0714952512787" lon="11.72146174158169"><ele>424.4</ele><time>2026-04-21T15:23:55Z</time></trkpt><trkpt lat="43.07141555844961" lon="11.721395556649368"><ele>426.0</ele><time>2026-04-21T15:23:56Z</time></trkpt><trkpt lat="43.07132019791708" lon="11.72134351634479"><ele>426.0</ele><time>2026-04-21T15:23:57Z</time></trkpt><trkpt lat="43.071222430425074" lon="11.721287572238493"><ele>426.0</ele><time>2026-04-21T15:23:58Z</time></trkpt><trkpt lat="43.07112214078652" lon="11.721226193789446"><ele>426.0</ele><time>2026-04-21T15:23:59Z</time></trkpt><trkpt lat="43.07103095328363" lon="11.721203411535509"><ele>426.0</ele><time>2026-04-21T15:24:00Z</time></trkpt><trkpt lat="43.07096176157153" lon="11.721162034676082"><ele>426.0</ele><time>2026-04-21T15:24:01Z</time></trkpt><trkpt lat="43.070902086115524" lon="11.721129213888466"><ele>426.0</ele><time>2026-04-21T15:24:02Z</time></trkpt><trkpt lat="43.07085141774124" lon="11.721052651568561"><ele>428.20000000000005</ele><time>2026-04-21T15:24:04Z</time></trkpt><trkpt lat="43.07074118988263" lon="11.72116826465859"><ele>430.40000000000003</ele><time>2026-04-21T15:24:05Z</time></trkpt><trkpt lat="43.07067552757147" lon="11.7211920976612"><ele>432.6</ele><time>2026-04-21T15:24:06Z</time></trkpt><trkpt lat="43.0705488280142" lon="11.721257120860303"><ele>434.8</ele><time>2026-04-21T15:24:08Z</time></trkpt><trkpt lat="43.07047425767116" lon="11.721181623806942"><ele>437.0</ele><time>2026-04-21T15:24:09Z</time></trkpt><trkpt lat="43.07040186444588" lon="11.721118501238154"><ele>437.0</ele><time>2026-04-21T15:24:10Z</time></trkpt><trkpt lat="43.070312792623525" lon="11.721064395286243"><ele>437.00000000000006</ele><time>2026-04-21T15:24:11Z</time></trkpt><trkpt lat="43.07024707021255" lon="11.721066050077946"><ele>437.00000000000006</ele><time>2026-04-21T15:24:12Z</time></trkpt><trkpt lat="43.07016969381081" lon="11.721108384216269"><ele>437.0</ele><time>2026-04-21T15:24:13Z</time></trkpt><trkpt lat="43.07010986611614" lon="11.721332445562336"><ele>437.0</ele><time>2026-04-21T15:24:14Z</time></trkpt><trkpt lat="43.070046054063305" lon="11.72134390689948"><ele>437.0</ele><time>2026-04-21T15:24:15Z</time></trkpt><trkpt lat="43.06997015686818" lon="11.721352968467624"><ele>437.00000000000006</ele><time>2026-04-21T15:24:16Z</time></trkpt><trkpt lat="43.06989913594914" lon="11.721456300533603"><ele>437.00000000000006</ele><time>2026-04-21T15:24:17Z</time></trkpt><trkpt lat="43.06980446102687" lon="11.7215090603011"><ele>437.0</ele><time>2026-04-21T15:24:18Z</time></trkpt><trkpt lat="43.069720464181906" lon="11.721578060764472"><ele>437.0</ele><time>2026-04-21T15:24:19Z</time></trkpt><trkpt lat="43.06963498366695" lon="11.721640233274998"><ele>437.20000000000005</ele><time>2026-04-21T15:24:20Z</time></trkpt><trkpt lat="43.06954626404176" lon="11.721668243143386"><ele>437.40000000000003</ele><time>2026-04-21T15:24:21Z</time></trkpt><trkpt lat="43.0694474918747" lon="11.721684030056155"><ele>437.59999999999997</ele><time>2026-04-21T15:24:22Z</time></trkpt><trkpt lat="43.069342052912575" lon="11.721686627495208"><ele>437.79999999999995</ele><time>2026-04-21T15:24:23Z</time></trkpt><trkpt lat="43.069249463769566" lon="11.721702219946263"><ele>438.0</ele><time>2026-04-21T15:24:24Z</time></trkpt><trkpt lat="43.069165010349" lon="11.721773506972893"><ele>438.79999999999995</ele><time>2026-04-21T15:24:25Z</time></trkpt><trkpt lat="43.06907294085316" lon="11.72180099864427"><ele>439.59999999999997</ele><time>2026-04-21T15:24:26Z</time></trkpt><trkpt lat="43.068988397261954" lon="11.721826283543692"><ele>440.40000000000003</ele><time>2026-04-21T15:24:27Z</time></trkpt><trkpt lat="43.06892065483814" lon="11.721773536023544"><ele>441.20000000000005</ele><time>2026-04-21T15:24:28Z</time></trkpt><trkpt lat="43.06883103271622" lon="11.721739217447851"><ele>442.0</ele><time>2026-04-21T15:24:29Z</time></trkpt><trkpt lat="43.068722361879956" lon="11.721706173995699"><ele>442.0</ele><time>2026-04-21T15:24:30Z</time></trkpt><trkpt lat="43.06860072848642" lon="11.721712451569507"><ele>442.0</ele><time>2026-04-21T15:24:31Z</time></trkpt><trkpt lat="43.068484213462625" lon="11.72178341117175"><ele>442.0</ele><time>2026-04-21T15:24:32Z</time></trkpt><trkpt lat="43.068368039441474" lon="11.721866389866644"><ele>442.0</ele><time>2026-04-21T15:24:33Z</time></trkpt><trkpt lat="43.06824900877598" lon="11.721930470938723"><ele>443.40000000000003</ele><time>2026-04-21T15:24:34Z</time></trkpt><trkpt lat="43.06813942590147" lon="11.72199230046256"><ele>444.80000000000007</ele><time>2026-04-21T15:24:35Z</time></trkpt><trkpt lat="43.0680458453114" lon="11.722022531422361"><ele>446.2</ele><time>2026-04-21T15:24:36Z</time></trkpt><trkpt lat="43.067966166394854" lon="11.722031202063155"><ele>447.6</ele><time>2026-04-21T15:24:37Z</time></trkpt><trkpt lat="43.06788071461077" lon="11.721957961247272"><ele>449.0</ele><time>2026-04-21T15:24:39Z</time></trkpt><trkpt lat="43.0678408593328" lon="11.721784912743004"><ele>449.0</ele><time>2026-04-21T15:24:41Z</time></trkpt><trkpt lat="43.06781618425465" lon="11.721694595979878"><ele>448.99999999999994</ele><time>2026-04-21T15:24:42Z</time></trkpt><trkpt lat="43.0677871294801" lon="11.721605220026603"><ele>449.0</ele><time>2026-04-21T15:24:43.999Z</time></trkpt><trkpt lat="43.06774115028881" lon="11.72153296740418"><ele>449.0</ele><time>2026-04-21T15:24:47.999Z</time></trkpt><trkpt lat="43.06770601951264" lon="11.721457245196623"><ele>448.99999999999994</ele><time>2026-04-21T15:25:21.999Z</time></trkpt><trkpt lat="43.06765380264465" lon="11.721358803310894"><ele>449.0</ele><time>2026-04-21T15:25:23.999Z</time></trkpt><trkpt lat="43.06762831590359" lon="11.721264595290348"><ele>449.0</ele><time>2026-04-21T15:25:26.999Z</time></trkpt><trkpt lat="43.06776270180866" lon="11.721127404403285"><ele>446.4</ele><time>2026-04-21T15:25:29Z</time></trkpt><trkpt lat="43.067818878152565" lon="11.721034843832902"><ele>443.79999999999995</ele><time>2026-04-21T15:25:30Z</time></trkpt><trkpt lat="43.067868249327276" lon="11.72093085814077"><ele>441.20000000000005</ele><time>2026-04-21T15:25:31Z</time></trkpt><trkpt lat="43.067925841762076" lon="11.72083709499361"><ele>438.6</ele><time>2026-04-21T15:25:32Z</time></trkpt><trkpt lat="43.06798441394269" lon="11.720741442580227"><ele>436.0</ele><time>2026-04-21T15:25:33Z</time></trkpt><trkpt lat="43.068050357500574" lon="11.720646652096223"><ele>436.0</ele><time>2026-04-21T15:25:34Z</time></trkpt><trkpt lat="43.06811223772962" lon="11.72055113783998"><ele>436.0</ele><time>2026-04-21T15:25:35Z</time></trkpt><trkpt lat="43.06818540609312" lon="11.720451520161356"><ele>436.0</ele><time>2026-04-21T15:25:36Z</time></trkpt><trkpt lat="43.06825558051752" lon="11.720356797845136"><ele>436.0</ele><time>2026-04-21T15:25:37Z</time></trkpt><trkpt lat="43.068331602312966" lon="11.720264154281736"><ele>436.0</ele><time>2026-04-21T15:25:38Z</time></trkpt><trkpt lat="43.06841143450875" lon="11.72018547050984"><ele>432.6</ele><time>2026-04-21T15:25:39Z</time></trkpt><trkpt lat="43.068510188008055" lon="11.720110321702547"><ele>429.20000000000005</ele><time>2026-04-21T15:25:40Z</time></trkpt><trkpt lat="43.068602259971215" lon="11.720039469204613"><ele>425.79999999999995</ele><time>2026-04-21T15:25:41Z</time></trkpt><trkpt lat="43.06869706180065" lon="11.719970310760937"><ele>422.4</ele><time>2026-04-21T15:25:42Z</time></trkpt><trkpt lat="43.06879717471781" lon="11.719907361773203"><ele>419.0</ele><time>2026-04-21T15:25:43Z</time></trkpt><trkpt lat="43.06888630720848" lon="11.719834967588566"><ele>419.0</ele><time>2026-04-21T15:25:44Z</time></trkpt><trkpt lat="43.06898002280843" lon="11.71976832996678"><ele>419.0</ele><time>2026-04-21T15:25:45Z</time></trkpt><trkpt lat="43.0690730723858" lon="11.719701447630728"><ele>419.0</ele><time>2026-04-21T15:25:46Z</time></trkpt><trkpt lat="43.0691592413157" lon="11.719640279806498"><ele>419.0</ele><time>2026-04-21T15:25:47Z</time></trkpt><trkpt lat="43.069251390094166" lon="11.719582564732589"><ele>419.0</ele><time>2026-04-21T15:25:48Z</time></trkpt><trkpt lat="43.06942739869889" lon="11.719478011218813"><ele>418.4285714285714</ele><time>2026-04-21T15:25:50Z</time></trkpt><trkpt lat="43.06950503486379" lon="11.71943158897196"><ele>417.85714285714283</ele><time>2026-04-21T15:25:51Z</time></trkpt><trkpt lat="43.06957702970489" lon="11.719390992719807"><ele>417.2857142857143</ele><time>2026-04-21T15:25:52Z</time></trkpt><trkpt lat="43.069638836713445" lon="11.719348236454262"><ele>416.71428571428567</ele><time>2026-04-21T15:25:53Z</time></trkpt><trkpt lat="43.069694009926216" lon="11.719289149853916"><ele>416.14285714285717</ele><time>2026-04-21T15:25:54Z</time></trkpt><trkpt lat="43.0697557728502" lon="11.719236007812995"><ele>415.57142857142856</ele><time>2026-04-21T15:25:55Z</time></trkpt><trkpt lat="43.06978230288685" lon="11.719142818156007"><ele>415.0</ele><time>2026-04-21T15:25:56Z</time></trkpt><trkpt lat="43.069799872894876" lon="11.718997499713977"><ele>413.25</ele><time>2026-04-21T15:25:57Z</time></trkpt><trkpt lat="43.06984184409543" lon="11.718843512129329"><ele>411.5</ele><time>2026-04-21T15:25:58Z</time></trkpt><trkpt lat="43.06987226489733" lon="11.718682756857028"><ele>409.75</ele><time>2026-04-21T15:25:59Z</time></trkpt><trkpt lat="43.069885268879744" lon="11.718513960149393"><ele>408.0</ele><time>2026-04-21T15:26:00Z</time></trkpt><trkpt lat="43.06991846034048" lon="11.71835871864724"><ele>404.25</ele><time>2026-04-21T15:26:01Z</time></trkpt><trkpt lat="43.06994344638673" lon="11.718206587795262"><ele>400.5</ele><time>2026-04-21T15:26:02Z</time></trkpt><trkpt lat="43.06997224556757" lon="11.718051725853881"><ele>396.75</ele><time>2026-04-21T15:26:03Z</time></trkpt><trkpt lat="43.07001237898841" lon="11.717916552505333"><ele>393.0</ele><time>2026-04-21T15:26:04Z</time></trkpt><trkpt lat="43.07006179082111" lon="11.717774953519319"><ele>390.75</ele><time>2026-04-21T15:26:05Z</time></trkpt><trkpt lat="43.07010972135157" lon="11.717629992215754"><ele>388.5</ele><time>2026-04-21T15:26:06Z</time></trkpt><trkpt lat="43.07016447345302" lon="11.717489909957308"><ele>386.25</ele><time>2026-04-21T15:26:07Z</time></trkpt><trkpt lat="43.070219262525136" lon="11.717350192148594"><ele>384.0</ele><time>2026-04-21T15:26:08Z</time></trkpt><trkpt lat="43.07028114642471" lon="11.717211756305888"><ele>384.0</ele><time>2026-04-21T15:26:09Z</time></trkpt><trkpt lat="43.07035827334041" lon="11.717079748740685"><ele>384.0</ele><time>2026-04-21T15:26:10Z</time></trkpt><trkpt lat="43.07039663737253" lon="11.716917253484006"><ele>384.0</ele><time>2026-04-21T15:26:11Z</time></trkpt><trkpt lat="43.070444110221416" lon="11.716759085511274"><ele>384.0</ele><time>2026-04-21T15:26:12Z</time></trkpt><trkpt lat="43.07048148080022" lon="11.716589290172477"><ele>381.25</ele><time>2026-04-21T15:26:13Z</time></trkpt><trkpt lat="43.070523667984205" lon="11.716433837902066"><ele>378.5</ele><time>2026-04-21T15:26:14Z</time></trkpt><trkpt lat="43.07055937503361" lon="11.716267897583437"><ele>375.75</ele><time>2026-04-21T15:26:15Z</time></trkpt><trkpt lat="43.07060123665562" lon="11.716116487027072"><ele>373.0</ele><time>2026-04-21T15:26:16Z</time></trkpt><trkpt lat="43.07063481757238" lon="11.715972885963083"><ele>371.79999999999995</ele><time>2026-04-21T15:26:17Z</time></trkpt><trkpt lat="43.070657532167175" lon="11.715845315068142"><ele>370.6</ele><time>2026-04-21T15:26:18Z</time></trkpt><trkpt lat="43.07066249625864" lon="11.715721464789024"><ele>369.4</ele><time>2026-04-21T15:26:19Z</time></trkpt><trkpt lat="43.07065602674134" lon="11.715602875455863"><ele>368.20000000000005</ele><time>2026-04-21T15:26:20Z</time></trkpt><trkpt lat="43.07061219813982" lon="11.715476291455069"><ele>367.0</ele><time>2026-04-21T15:26:21Z</time></trkpt><trkpt lat="43.07054059988257" lon="11.715359737380581"><ele>367.0</ele><time>2026-04-21T15:26:22Z</time></trkpt><trkpt lat="43.07042566469201" lon="11.715281986705783"><ele>367.0</ele><time>2026-04-21T15:26:23Z</time></trkpt><trkpt lat="43.070342293602884" lon="11.715177582632647"><ele>367.0</ele><time>2026-04-21T15:26:24Z</time></trkpt><trkpt lat="43.070268318147434" lon="11.715083558375424"><ele>367.0</ele><time>2026-04-21T15:26:25Z</time></trkpt><trkpt lat="43.07019279194917" lon="11.714983143213988"><ele>367.0</ele><time>2026-04-21T15:26:26Z</time></trkpt><trkpt lat="43.07020163086813" lon="11.71483672752795"><ele>365.0</ele><time>2026-04-21T15:26:27Z</time></trkpt><trkpt lat="43.07020571155481" lon="11.714695160778973"><ele>363.0</ele><time>2026-04-21T15:26:28Z</time></trkpt><trkpt lat="43.07023581609424" lon="11.714535631127198"><ele>361.0</ele><time>2026-04-21T15:26:29Z</time></trkpt><trkpt lat="43.07025632714196" lon="11.714361899210392"><ele>359.0</ele><time>2026-04-21T15:26:30Z</time></trkpt><trkpt lat="43.070270060792126" lon="11.714186497654746"><ele>358.5</ele><time>2026-04-21T15:26:31Z</time></trkpt><trkpt lat="43.070245191325746" lon="11.71400914178985"><ele>358.0</ele><time>2026-04-21T15:26:32Z</time></trkpt><trkpt lat="43.070227178687254" lon="11.713824158572413"><ele>357.5</ele><time>2026-04-21T15:26:33Z</time></trkpt><trkpt lat="43.07022313482611" lon="11.713623661843203"><ele>357.0</ele><time>2026-04-21T15:26:34Z</time></trkpt><trkpt lat="43.07020309650376" lon="11.713412115003145"><ele>354.6666666666667</ele><time>2026-04-21T15:26:35Z</time></trkpt><trkpt lat="43.07018230945702" lon="11.713192664502172"><ele>352.33333333333337</ele><time>2026-04-21T15:26:36Z</time></trkpt><trkpt lat="43.07016133190842" lon="11.71297120525436"><ele>350.0</ele><time>2026-04-21T15:26:37Z</time></trkpt><trkpt lat="43.070135169714156" lon="11.71277230302265"><ele>348.8</ele><time>2026-04-21T15:26:38Z</time></trkpt><trkpt lat="43.07012048413963" lon="11.712588137662852"><ele>347.6</ele><time>2026-04-21T15:26:39Z</time></trkpt><trkpt lat="43.0701206134252" lon="11.712426467753309"><ele>346.4</ele><time>2026-04-21T15:26:40Z</time></trkpt><trkpt lat="43.07014438113661" lon="11.712295465718048"><ele>345.2</ele><time>2026-04-21T15:26:41Z</time></trkpt><trkpt lat="43.070183433293174" lon="11.712198297551907"><ele>344.0</ele><time>2026-04-21T15:26:42Z</time></trkpt><trkpt lat="43.0702450532038" lon="11.71213687174483"><ele>344.0</ele><time>2026-04-21T15:26:43Z</time></trkpt><trkpt lat="43.07034848859066" lon="11.712080641899151"><ele>344.0</ele><time>2026-04-21T15:26:44.999Z</time></trkpt><trkpt lat="43.070413787583945" lon="11.712074079194169"><ele>344.0</ele><time>2026-04-21T15:26:46.999Z</time></trkpt><trkpt lat="43.07052621171209" lon="11.712100558108391"><ele>344.0</ele><time>2026-04-21T15:26:51.999Z</time></trkpt><trkpt lat="43.070619608558275" lon="11.712158642311985"><ele>344.0</ele><time>2026-04-21T15:26:52.999Z</time></trkpt><trkpt lat="43.070724952712816" lon="11.712208958886775"><ele>344.0</ele><time>2026-04-21T15:26:53.999Z</time></trkpt><trkpt lat="43.0708370140444" lon="11.712260823090835"><ele>344.0</ele><time>2026-04-21T15:26:54.999Z</time></trkpt><trkpt lat="43.07095420143567" lon="11.712317583875802"><ele>344.0</ele><time>2026-04-21T15:26:55.999Z</time></trkpt><trkpt lat="43.07106791677307" lon="11.712370961620094"><ele>344.0</ele><time>2026-04-21T15:26:56.999Z</time></trkpt><trkpt lat="43.071162561753596" lon="11.712406779210951"><ele>344.0</ele><time>2026-04-21T15:26:57.999Z</time></trkpt><trkpt lat="43.07126149088821" lon="11.712422572954852"><ele>344.0</ele><time>2026-04-21T15:26:58.999Z</time></trkpt><trkpt lat="43.07135442332529" lon="11.71242004010203"><ele>344.0</ele><time>2026-04-21T15:26:59.999Z</time></trkpt><trkpt lat="43.07143683815101" lon="11.71238438372492"><ele>344.0</ele><time>2026-04-21T15:27:00.999Z</time></trkpt><trkpt lat="43.07149833383057" lon="11.712317685022539"><ele>344.0</ele><time>2026-04-21T15:27:01.999Z</time></trkpt><trkpt lat="43.07155682868923" lon="11.712220307168709"><ele>344.0</ele><time>2026-04-21T15:27:02.999Z</time></trkpt><trkpt lat="43.071610211039854" lon="11.7120979623037"><ele>344.0</ele><time>2026-04-21T15:27:03.999Z</time></trkpt><trkpt lat="43.07165906880056" lon="11.711968022947932"><ele>344.0</ele><time>2026-04-21T15:27:04.999Z</time></trkpt><trkpt lat="43.07172481388321" lon="11.711833101215548"><ele>344.0</ele><time>2026-04-21T15:27:05.999Z</time></trkpt><trkpt lat="43.07178848770994" lon="11.711695885015988"><ele>344.0</ele><time>2026-04-21T15:27:06.999Z</time></trkpt><trkpt lat="43.07184687761103" lon="11.711549429772095"><ele>344.0</ele><time>2026-04-21T15:27:07.999Z</time></trkpt><trkpt lat="43.07190341958796" lon="11.711389528519044"><ele>344.0</ele><time>2026-04-21T15:27:08.999Z</time></trkpt><trkpt lat="43.071957665675875" lon="11.711232345090789"><ele>344.0</ele><time>2026-04-21T15:27:09.999Z</time></trkpt><trkpt lat="43.07201096631366" lon="11.71109801664153"><ele>344.0</ele><time>2026-04-21T15:27:10.999Z</time></trkpt><trkpt lat="43.07207249032147" lon="11.710988540096151"><ele>344.0</ele><time>2026-04-21T15:27:11.999Z</time></trkpt><trkpt lat="43.07211635812326" lon="11.710877842159091"><ele>344.0</ele><time>2026-04-21T15:27:12.999Z</time></trkpt><trkpt lat="43.07215793111018" lon="11.710772936097316"><ele>344.0</ele><time>2026-04-21T15:27:13.999Z</time></trkpt><trkpt lat="43.072072635338934" lon="11.71058914122738"><ele>344.0</ele><time>2026-04-21T15:27:14.999Z</time></trkpt><trkpt lat="43.07202204318711" lon="11.710423465668635"><ele>343.33333333333337</ele><time>2026-04-21T15:27:15.999Z</time></trkpt><trkpt lat="43.071984158475395" lon="11.710222124782401"><ele>342.6666666666667</ele><time>2026-04-21T15:27:16.999Z</time></trkpt><trkpt lat="43.071927019831264" lon="11.710015859221425"><ele>342.0</ele><time>2026-04-21T15:27:17.999Z</time></trkpt><trkpt lat="43.07186716060198" lon="11.709804061611946"><ele>342.0</ele><time>2026-04-21T15:27:18.999Z</time></trkpt><trkpt lat="43.07180918042763" lon="11.70957574148313"><ele>342.0</ele><time>2026-04-21T15:27:19.999Z</time></trkpt><trkpt lat="43.07175037410383" lon="11.709339366912783"><ele>342.0</ele><time>2026-04-21T15:27:20.999Z</time></trkpt><trkpt lat="43.07168503693442" lon="11.709093175284263"><ele>341.3333333333333</ele><time>2026-04-21T15:27:21.999Z</time></trkpt><trkpt lat="43.071617865400256" lon="11.708844256509133"><ele>340.66666666666663</ele><time>2026-04-21T15:27:22.999Z</time></trkpt><trkpt lat="43.07154686896077" lon="11.708610336876204"><ele>340.0</ele><time>2026-04-21T15:27:23.999Z</time></trkpt><trkpt lat="43.07146270001813" lon="11.708408445509873"><ele>339.0</ele><time>2026-04-21T15:27:24.999Z</time></trkpt><trkpt lat="43.07142533091463" lon="11.708194353376706"><ele>338.0</ele><time>2026-04-21T15:27:25.999Z</time></trkpt><trkpt lat="43.07138122639735" lon="11.707973751848987"><ele>337.0</ele><time>2026-04-21T15:27:26.999Z</time></trkpt><trkpt lat="43.071343868979625" lon="11.707755851866608"><ele>337.0</ele><time>2026-04-21T15:27:27.999Z</time></trkpt><trkpt lat="43.071313639935305" lon="11.707545220893488"><ele>337.0</ele><time>2026-04-21T15:27:28.999Z</time></trkpt><trkpt lat="43.071288564783984" lon="11.707345036783181"><ele>337.0</ele><time>2026-04-21T15:27:29.999Z</time></trkpt><trkpt lat="43.071253636128745" lon="11.707151894604909"><ele>337.0</ele><time>2026-04-21T15:27:30.999Z</time></trkpt><trkpt lat="43.07120033862207" lon="11.706971614555565"><ele>337.0</ele><time>2026-04-21T15:27:31.999Z</time></trkpt><trkpt lat="43.0711398096681" lon="11.706799126021869"><ele>337.0</ele><time>2026-04-21T15:27:32.999Z</time></trkpt><trkpt lat="43.07107339622117" lon="11.706620163284523"><ele>337.0</ele><time>2026-04-21T15:27:33.999Z</time></trkpt><trkpt lat="43.071003446320184" lon="11.706441339442827"><ele>336.5</ele><time>2026-04-21T15:27:34.999Z</time></trkpt><trkpt lat="43.07093003060984" lon="11.706261200072118"><ele>336.0</ele><time>2026-04-21T15:27:35.999Z</time></trkpt><trkpt lat="43.07085611032816" lon="11.706090834865337"><ele>335.5</ele><time>2026-04-21T15:27:36.999Z</time></trkpt><trkpt lat="43.07077857154307" lon="11.705926293320148"><ele>335.0</ele><time>2026-04-21T15:27:37.999Z</time></trkpt><trkpt lat="43.070693983236104" lon="11.705763568486862"><ele>333.5</ele><time>2026-04-21T15:27:38.999Z</time></trkpt><trkpt lat="43.07060595616251" lon="11.70559842853236"><ele>332.0</ele><time>2026-04-21T15:27:39.999Z</time></trkpt><trkpt lat="43.0703945151825" lon="11.705245060897457"><ele>331.6666666666667</ele><time>2026-04-21T15:27:41.999Z</time></trkpt><trkpt lat="43.07026962562802" lon="11.705070983139041"><ele>331.3333333333333</ele><time>2026-04-21T15:27:42.999Z</time></trkpt><trkpt lat="43.07014548242921" lon="11.704884908597258"><ele>331.0</ele><time>2026-04-21T15:27:43.999Z</time></trkpt><trkpt lat="43.070018440658934" lon="11.704691947796098"><ele>331.0</ele><time>2026-04-21T15:27:44.999Z</time></trkpt><trkpt lat="43.06989288725738" lon="11.704501247900652"><ele>331.0</ele><time>2026-04-21T15:27:46Z</time></trkpt><trkpt lat="43.06977129434603" lon="11.704315381389316"><ele>331.0</ele><time>2026-04-21T15:27:47Z</time></trkpt><trkpt lat="43.06965701895464" lon="11.704135263269341"><ele>331.0</ele><time>2026-04-21T15:27:48Z</time></trkpt><trkpt lat="43.069556344212096" lon="11.703950680872412"><ele>331.0</ele><time>2026-04-21T15:27:49Z</time></trkpt><trkpt lat="43.06946538696147" lon="11.703751092036702"><ele>331.0</ele><time>2026-04-21T15:27:50Z</time></trkpt><trkpt lat="43.06940177684168" lon="11.703529519058392"><ele>331.0</ele><time>2026-04-21T15:27:51Z</time></trkpt><trkpt lat="43.06930377673714" lon="11.70330384038191"><ele>331.0</ele><time>2026-04-21T15:27:52Z</time></trkpt><trkpt lat="43.06919347170344" lon="11.703088422523928"><ele>331.0</ele><time>2026-04-21T15:27:53Z</time></trkpt><trkpt lat="43.069061767036345" lon="11.702883642336756"><ele>331.5</ele><time>2026-04-21T15:27:54Z</time></trkpt><trkpt lat="43.06882887393826" lon="11.702434020730598"><ele>332.0</ele><time>2026-04-21T15:27:56Z</time></trkpt><trkpt lat="43.068718462305235" lon="11.702227411027895"><ele>332.0</ele><time>2026-04-21T15:27:57Z</time></trkpt><trkpt lat="43.06862736934652" lon="11.702042069246957"><ele>332.0</ele><time>2026-04-21T15:27:58Z</time></trkpt><trkpt lat="43.06856105639483" lon="11.701865261747496"><ele>332.0</ele><time>2026-04-21T15:27:59Z</time></trkpt><trkpt lat="43.06851125503171" lon="11.701692096597228"><ele>332.0</ele><time>2026-04-21T15:28:00Z</time></trkpt><trkpt lat="43.068466057405686" lon="11.701500167294256"><ele>335.0</ele><time>2026-04-21T15:28:01Z</time></trkpt><trkpt lat="43.068419032667386" lon="11.701280727564228"><ele>338.0</ele><time>2026-04-21T15:28:02Z</time></trkpt><trkpt lat="43.068350842584785" lon="11.70106052747435"><ele>341.0</ele><time>2026-04-21T15:28:03Z</time></trkpt><trkpt lat="43.068284386736956" lon="11.70082002842625"><ele>341.6666666666667</ele><time>2026-04-21T15:28:04Z</time></trkpt><trkpt lat="43.0682014751893" lon="11.700588310750058"><ele>342.3333333333333</ele><time>2026-04-21T15:28:05Z</time></trkpt><trkpt lat="43.06810424903922" lon="11.700357954935498"><ele>343.0</ele><time>2026-04-21T15:28:06Z</time></trkpt><trkpt lat="43.06802108502379" lon="11.700124896841864"><ele>346.0</ele><time>2026-04-21T15:28:07Z</time></trkpt><trkpt lat="43.06792906160665" lon="11.699898302627238"><ele>349.0</ele><time>2026-04-21T15:28:08Z</time></trkpt><trkpt lat="43.06784766019923" lon="11.699699205361366"><ele>352.0</ele><time>2026-04-21T15:28:09Z</time></trkpt><trkpt lat="43.06776761879336" lon="11.699524065871554"><ele>351.5</ele><time>2026-04-21T15:28:10Z</time></trkpt><trkpt lat="43.06766947568917" lon="11.699388212933078"><ele>351.0</ele><time>2026-04-21T15:28:11Z</time></trkpt><trkpt lat="43.06757822629837" lon="11.699267739977106"><ele>350.5</ele><time>2026-04-21T15:28:12Z</time></trkpt><trkpt lat="43.067473266473634" lon="11.699182038367596"><ele>350.0</ele><time>2026-04-21T15:28:13Z</time></trkpt><trkpt lat="43.06734969483564" lon="11.699070799358301"><ele>350.0</ele><time>2026-04-21T15:28:14Z</time></trkpt><trkpt lat="43.06721328992109" lon="11.698961846640245"><ele>350.0</ele><time>2026-04-21T15:28:14.999Z</time></trkpt><trkpt lat="43.06709134214987" lon="11.698864441542616"><ele>350.0</ele><time>2026-04-21T15:28:15.999Z</time></trkpt><trkpt lat="43.066977298380856" lon="11.698773349717703"><ele>350.0</ele><time>2026-04-21T15:28:16.999Z</time></trkpt><trkpt lat="43.06686550199786" lon="11.698683492397283"><ele>351.33333333333337</ele><time>2026-04-21T15:28:17.999Z</time></trkpt><trkpt lat="43.06674241220804" lon="11.698584321138263"><ele>352.6666666666667</ele><time>2026-04-21T15:28:18.999Z</time></trkpt><trkpt lat="43.06660609172213" lon="11.698474490181965"><ele>354.0</ele><time>2026-04-21T15:28:19.999Z</time></trkpt><trkpt lat="43.06646357521448" lon="11.698359667269365"><ele>352.0</ele><time>2026-04-21T15:28:20.999Z</time></trkpt><trkpt lat="43.0663245025324" lon="11.6982483936457"><ele>350.0</ele><time>2026-04-21T15:28:21.999Z</time></trkpt><trkpt lat="43.066195149303205" lon="11.698145625463129"><ele>348.0</ele><time>2026-04-21T15:28:22.999Z</time></trkpt><trkpt lat="43.06607804260921" lon="11.698052586938749"><ele>346.0</ele><time>2026-04-21T15:28:23.999Z</time></trkpt><trkpt lat="43.06596920117411" lon="11.697966114929867"><ele>346.0</ele><time>2026-04-21T15:28:24.999Z</time></trkpt><trkpt lat="43.065872027521266" lon="11.697887585018337"><ele>346.0</ele><time>2026-04-21T15:28:25.999Z</time></trkpt><trkpt lat="43.065784106565665" lon="11.697806825757574"><ele>346.0</ele><time>2026-04-21T15:28:26.999Z</time></trkpt><trkpt lat="43.0657146652786" lon="11.69770682023216"><ele>346.0</ele><time>2026-04-21T15:28:27.999Z</time></trkpt><trkpt lat="43.06566159141682" lon="11.697578473932406"><ele>346.0</ele><time>2026-04-21T15:28:28.999Z</time></trkpt><trkpt lat="43.06562191672763" lon="11.697431203149549"><ele>345.25</ele><time>2026-04-21T15:28:29.999Z</time></trkpt><trkpt lat="43.06560545664364" lon="11.6972733067848"><ele>344.5</ele><time>2026-04-21T15:28:30.999Z</time></trkpt><trkpt lat="43.0655852019688" lon="11.69709817473173"><ele>343.75</ele><time>2026-04-21T15:28:31.999Z</time></trkpt><trkpt lat="43.065565793537736" lon="11.696932654693144"><ele>343.0</ele><time>2026-04-21T15:28:32.999Z</time></trkpt><trkpt lat="43.065542891786336" lon="11.696777758266274"><ele>343.0</ele><time>2026-04-21T15:28:33.999Z</time></trkpt><trkpt lat="43.065518837406664" lon="11.696627616284129"><ele>343.0</ele><time>2026-04-21T15:28:34.999Z</time></trkpt><trkpt lat="43.0654943720688" lon="11.696474791990585"><ele>343.0</ele><time>2026-04-21T15:28:35.999Z</time></trkpt><trkpt lat="43.0654675852514" lon="11.69630163652629"><ele>343.0</ele><time>2026-04-21T15:28:36.999Z</time></trkpt><trkpt lat="43.06544002934503" lon="11.69612153205399"><ele>344.66666666666663</ele><time>2026-04-21T15:28:37.999Z</time></trkpt><trkpt lat="43.06540900948213" lon="11.695907291191771"><ele>346.3333333333333</ele><time>2026-04-21T15:28:38.999Z</time></trkpt><trkpt lat="43.06536041915322" lon="11.695653724073985"><ele>348.0</ele><time>2026-04-21T15:28:39.999Z</time></trkpt><trkpt lat="43.065319020617764" lon="11.69536498253702"><ele>348.5</ele><time>2026-04-21T15:28:40.999Z</time></trkpt><trkpt lat="43.06527254065548" lon="11.695045568857728"><ele>349.0</ele><time>2026-04-21T15:28:41.999Z</time></trkpt><trkpt lat="43.06521609367537" lon="11.69470733426213"><ele>350.66666666666663</ele><time>2026-04-21T15:28:42.999Z</time></trkpt><trkpt lat="43.065170348443544" lon="11.694397142314404"><ele>352.3333333333333</ele><time>2026-04-21T15:28:43.999Z</time></trkpt><trkpt lat="43.065140387437715" lon="11.694150969158201"><ele>354.0</ele><time>2026-04-21T15:28:44.999Z</time></trkpt><trkpt lat="43.06512027796266" lon="11.693951004432387"><ele>354.0</ele><time>2026-04-21T15:28:45.999Z</time></trkpt><trkpt lat="43.0651456997801" lon="11.693744408633867"><ele>354.0</ele><time>2026-04-21T15:28:46.999Z</time></trkpt><trkpt lat="43.06517101632608" lon="11.693507651471712"><ele>354.0</ele><time>2026-04-21T15:28:47.999Z</time></trkpt><trkpt lat="43.0651895106826" lon="11.693221027010717"><ele>355.0</ele><time>2026-04-21T15:28:48.999Z</time></trkpt><trkpt lat="43.06523016743134" lon="11.69291367328208"><ele>356.0</ele><time>2026-04-21T15:28:49.999Z</time></trkpt><trkpt lat="43.06527430077344" lon="11.692578574474396"><ele>356.5</ele><time>2026-04-21T15:28:50.999Z</time></trkpt><trkpt lat="43.06531651300155" lon="11.69223488716857"><ele>357.0</ele><time>2026-04-21T15:28:51.999Z</time></trkpt><trkpt lat="43.06535697175075" lon="11.691909263915075"><ele>359.0</ele><time>2026-04-21T15:28:52.999Z</time></trkpt><trkpt lat="43.065390802611915" lon="11.69162602188629"><ele>361.0</ele><time>2026-04-21T15:28:53.999Z</time></trkpt><trkpt lat="43.06542065802699" lon="11.69137338429844"><ele>363.0</ele><time>2026-04-21T15:28:54.999Z</time></trkpt><trkpt lat="43.0654450561589" lon="11.691150718511487"><ele>363.25</ele><time>2026-04-21T15:28:55.999Z</time></trkpt><trkpt lat="43.06548042660973" lon="11.69095149411382"><ele>363.5</ele><time>2026-04-21T15:28:56.999Z</time></trkpt><trkpt lat="43.06548250435155" lon="11.690778732379341"><ele>363.75</ele><time>2026-04-21T15:28:57.999Z</time></trkpt><trkpt lat="43.065448236409374" lon="11.690631204895093"><ele>364.0</ele><time>2026-04-21T15:28:58.999Z</time></trkpt><trkpt lat="43.0654342021408" lon="11.690471862679141"><ele>364.0</ele><time>2026-04-21T15:28:59.999Z</time></trkpt><trkpt lat="43.06534546160596" lon="11.690292739182755"><ele>364.0</ele><time>2026-04-21T15:29:00.999Z</time></trkpt><trkpt lat="43.06527998261161" lon="11.690113079302574"><ele>364.0</ele><time>2026-04-21T15:29:01.999Z</time></trkpt><trkpt lat="43.06523465099787" lon="11.689956941026303"><ele>364.0</ele><time>2026-04-21T15:29:02.999Z</time></trkpt><trkpt lat="43.06521935680898" lon="11.689809942480485"><ele>363.5</ele><time>2026-04-21T15:29:03.999Z</time></trkpt><trkpt lat="43.06520959022237" lon="11.689681311911926"><ele>363.0</ele><time>2026-04-21T15:29:04.999Z</time></trkpt><trkpt lat="43.065209351606086" lon="11.689562015938563"><ele>362.5</ele><time>2026-04-21T15:29:05.999Z</time></trkpt><trkpt lat="43.0652141514286" lon="11.689456562392053"><ele>362.0</ele><time>2026-04-21T15:29:06.999Z</time></trkpt><trkpt lat="43.06521836999175" lon="11.689362987930682"><ele>361.5</ele><time>2026-04-21T15:29:07.999Z</time></trkpt><trkpt lat="43.06522669821865" lon="11.689240248157517"><ele>361.0</ele><time>2026-04-21T15:29:09.999Z</time></trkpt><trkpt lat="43.06523868647321" lon="11.689086506067122"><ele>360.5</ele><time>2026-04-21T15:29:25.999Z</time></trkpt><trkpt lat="43.065248611696866" lon="11.688976470017428"><ele>360.0</ele><time>2026-04-21T15:29:26.999Z</time></trkpt><trkpt lat="43.0652574306992" lon="11.688882282684224"><ele>359.5</ele><time>2026-04-21T15:29:27.999Z</time></trkpt><trkpt lat="43.06525556554336" lon="11.68879424743167"><ele>359.0</ele><time>2026-04-21T15:29:28.999Z</time></trkpt><trkpt lat="43.06527890980859" lon="11.688687708639426"><ele>358.5</ele><time>2026-04-21T15:29:29.999Z</time></trkpt><trkpt lat="43.065296745964865" lon="11.68857256046568"><ele>358.0</ele><time>2026-04-21T15:29:30.999Z</time></trkpt><trkpt lat="43.06531777021905" lon="11.68844944512502"><ele>357.2</ele><time>2026-04-21T15:29:31.999Z</time></trkpt><trkpt lat="43.06534253646431" lon="11.688325851740638"><ele>356.4</ele><time>2026-04-21T15:29:32.999Z</time></trkpt><trkpt lat="43.065370243685074" lon="11.688193513172001"><ele>355.59999999999997</ele><time>2026-04-21T15:29:33.999Z</time></trkpt><trkpt lat="43.06543673278862" lon="11.68809142226729"><ele>354.79999999999995</ele><time>2026-04-21T15:29:34.999Z</time></trkpt><trkpt lat="43.065511087449984" lon="11.688033109476413"><ele>354.0</ele><time>2026-04-21T15:29:35.999Z</time></trkpt><trkpt lat="43.06557135687993" lon="11.687961340815729"><ele>354.0</ele><time>2026-04-21T15:29:36.999Z</time></trkpt><trkpt lat="43.065645235820114" lon="11.687859429229391"><ele>354.0</ele><time>2026-04-21T15:29:37.999Z</time></trkpt><trkpt lat="43.065695281638796" lon="11.687710007282115"><ele>354.0</ele><time>2026-04-21T15:29:38.999Z</time></trkpt><trkpt lat="43.06572906621357" lon="11.68754193289232"><ele>354.0</ele><time>2026-04-21T15:29:39.999Z</time></trkpt><trkpt lat="43.06575700044029" lon="11.687386834359973"><ele>353.5</ele><time>2026-04-21T15:29:41Z</time></trkpt><trkpt lat="43.06578336846639" lon="11.687204249313856"><ele>353.0</ele><time>2026-04-21T15:29:42Z</time></trkpt><trkpt lat="43.065808739003316" lon="11.687013202011808"><ele>352.5</ele><time>2026-04-21T15:29:42.999Z</time></trkpt><trkpt lat="43.06583117965468" lon="11.686828465672766"><ele>352.0</ele><time>2026-04-21T15:29:44Z</time></trkpt><trkpt lat="43.06585325121602" lon="11.686654654590045"><ele>352.0</ele><time>2026-04-21T15:29:45Z</time></trkpt><trkpt lat="43.06587572501845" lon="11.686494946269484"><ele>352.0</ele><time>2026-04-21T15:29:46Z</time></trkpt><trkpt lat="43.06590228765229" lon="11.68633916912931"><ele>352.0</ele><time>2026-04-21T15:29:47Z</time></trkpt><trkpt lat="43.065934174483075" lon="11.686197891197395"><ele>352.0</ele><time>2026-04-21T15:29:48Z</time></trkpt><trkpt lat="43.06597120513417" lon="11.686085298560792"><ele>352.0</ele><time>2026-04-21T15:29:49Z</time></trkpt><trkpt lat="43.06602445256517" lon="11.685957740627863"><ele>350.8</ele><time>2026-04-21T15:29:50Z</time></trkpt><trkpt lat="43.06607208479078" lon="11.685816740889761"><ele>349.6</ele><time>2026-04-21T15:29:51Z</time></trkpt><trkpt lat="43.06614444277513" lon="11.685699354733021"><ele>348.40000000000003</ele><time>2026-04-21T15:29:52Z</time></trkpt><trkpt lat="43.066201840545375" lon="11.68558733178591"><ele>347.20000000000005</ele><time>2026-04-21T15:29:53Z</time></trkpt><trkpt lat="43.06625201401716" lon="11.685491108045438"><ele>346.0</ele><time>2026-04-21T15:29:54Z</time></trkpt><trkpt lat="43.06628205572938" lon="11.68537459836796"><ele>344.20000000000005</ele><time>2026-04-21T15:29:55Z</time></trkpt><trkpt lat="43.066281351676416" lon="11.685250288347468"><ele>342.40000000000003</ele><time>2026-04-21T15:29:56Z</time></trkpt><trkpt lat="43.06625282572678" lon="11.685124646620617"><ele>340.6</ele><time>2026-04-21T15:29:58Z</time></trkpt><trkpt lat="43.06611767879704" lon="11.685045454036107"><ele>338.8</ele><time>2026-04-21T15:29:59Z</time></trkpt><trkpt lat="43.06602863929641" lon="11.685000167397892"><ele>337.0</ele><time>2026-04-21T15:30:00Z</time></trkpt><trkpt lat="43.06594388679388" lon="11.684944004763826"><ele>337.0</ele><time>2026-04-21T15:30:01Z</time></trkpt><trkpt lat="43.06589337401007" lon="11.684836042181086"><ele>337.0</ele><time>2026-04-21T15:30:02Z</time></trkpt><trkpt lat="43.06585635679508" lon="11.68472140678317"><ele>337.0</ele><time>2026-04-21T15:30:03Z</time></trkpt><trkpt lat="43.065827708629726" lon="11.684555265680078"><ele>337.0</ele><time>2026-04-21T15:30:04Z</time></trkpt><trkpt lat="43.065788070641744" lon="11.684348900950196"><ele>332.3333333333333</ele><time>2026-04-21T15:30:05Z</time></trkpt><trkpt lat="43.06573181531766" lon="11.684101444817218"><ele>327.6666666666667</ele><time>2026-04-21T15:30:06Z</time></trkpt><trkpt lat="43.065642782515205" lon="11.683834501590006"><ele>323.0</ele><time>2026-04-21T15:30:07Z</time></trkpt><trkpt lat="43.065564523777155" lon="11.683537445172577"><ele>322.5</ele><time>2026-04-21T15:30:08Z</time></trkpt><trkpt lat="43.06544973978312" lon="11.683217838448376"><ele>322.0</ele><time>2026-04-21T15:30:09Z</time></trkpt><trkpt lat="43.065343500281905" lon="11.6829276589499"><ele>321.3333333333333</ele><time>2026-04-21T15:30:10Z</time></trkpt><trkpt lat="43.065251881975335" lon="11.682665721110396"><ele>320.6666666666667</ele><time>2026-04-21T15:30:11Z</time></trkpt><trkpt lat="43.06516044996551" lon="11.682418187045172"><ele>320.0</ele><time>2026-04-21T15:30:12Z</time></trkpt><trkpt lat="43.06508412257728" lon="11.68219623595075"><ele>320.0</ele><time>2026-04-21T15:30:13Z</time></trkpt><trkpt lat="43.065011694542235" lon="11.681999999814416"><ele>320.0</ele><time>2026-04-21T15:30:14Z</time></trkpt><trkpt lat="43.06496249362049" lon="11.681808651846028"><ele>320.0</ele><time>2026-04-21T15:30:15Z</time></trkpt><trkpt lat="43.064905407466476" lon="11.681643589826775"><ele>320.0</ele><time>2026-04-21T15:30:16Z</time></trkpt><trkpt lat="43.06484066934477" lon="11.681515471794514"><ele>320.0</ele><time>2026-04-21T15:30:17Z</time></trkpt><trkpt lat="43.064807235067036" lon="11.681410686277362"><ele>320.0</ele><time>2026-04-21T15:30:18Z</time></trkpt><trkpt lat="43.06478917091128" lon="11.681275796431223"><ele>320.0</ele><time>2026-04-21T15:30:20Z</time></trkpt><trkpt lat="43.06489136790896" lon="11.681246038131029"><ele>320.0</ele><time>2026-04-21T15:30:23Z</time></trkpt><trkpt lat="43.06496346400265" lon="11.681213112858444"><ele>320.0</ele><time>2026-04-21T15:30:24Z</time></trkpt><trkpt lat="43.06504401020748" lon="11.681213451525487"><ele>320.0</ele><time>2026-04-21T15:30:25Z</time></trkpt><trkpt lat="43.06512743141834" lon="11.681207724171186"><ele>320.0</ele><time>2026-04-21T15:30:26Z</time></trkpt><trkpt lat="43.06522608466864" lon="11.681192210705843"><ele>320.0</ele><time>2026-04-21T15:30:27Z</time></trkpt><trkpt lat="43.06534189278369" lon="11.68117892733567"><ele>320.0</ele><time>2026-04-21T15:30:28Z</time></trkpt><trkpt lat="43.06546897018466" lon="11.681158395440137"><ele>320.0</ele><time>2026-04-21T15:30:29Z</time></trkpt><trkpt lat="43.06559665903085" lon="11.68113837619772"><ele>320.0</ele><time>2026-04-21T15:30:30Z</time></trkpt><trkpt lat="43.065733387292994" lon="11.681113664559842"><ele>320.0</ele><time>2026-04-21T15:30:31Z</time></trkpt><trkpt lat="43.065871564548495" lon="11.68109543295781"><ele>320.0</ele><time>2026-04-21T15:30:32Z</time></trkpt><trkpt lat="43.06598634422793" lon="11.681065547647487"><ele>320.0</ele><time>2026-04-21T15:30:33Z</time></trkpt><trkpt lat="43.06607878816334" lon="11.681002010241725"><ele>320.75</ele><time>2026-04-21T15:30:34Z</time></trkpt><trkpt lat="43.06615091793564" lon="11.680901261522743"><ele>321.5</ele><time>2026-04-21T15:30:35Z</time></trkpt><trkpt lat="43.06619096975213" lon="11.680762517805976"><ele>322.25</ele><time>2026-04-21T15:30:36Z</time></trkpt><trkpt lat="43.06618824132091" lon="11.6806037180054"><ele>323.0</ele><time>2026-04-21T15:30:37Z</time></trkpt><trkpt lat="43.066159145255924" lon="11.680420054511998"><ele>324.0</ele><time>2026-04-21T15:30:38Z</time></trkpt><trkpt lat="43.066106722836935" lon="11.680211305295016"><ele>325.0</ele><time>2026-04-21T15:30:39Z</time></trkpt><trkpt lat="43.06604830194422" lon="11.679987291055035"><ele>326.0</ele><time>2026-04-21T15:30:40Z</time></trkpt><trkpt lat="43.065996625767056" lon="11.679756197088011"><ele>326.0</ele><time>2026-04-21T15:30:41Z</time></trkpt><trkpt lat="43.06592358207443" lon="11.679520058801637"><ele>326.0</ele><time>2026-04-21T15:30:42Z</time></trkpt><trkpt lat="43.06583230943007" lon="11.67930921899497"><ele>326.0</ele><time>2026-04-21T15:30:43Z</time></trkpt><trkpt lat="43.06575738092765" lon="11.679136463704507"><ele>324.0</ele><time>2026-04-21T15:30:44Z</time></trkpt><trkpt lat="43.06571896988446" lon="11.67896964802192"><ele>322.0</ele><time>2026-04-21T15:30:45Z</time></trkpt><trkpt lat="43.065718753520954" lon="11.678806119990837"><ele>320.0</ele><time>2026-04-21T15:30:46Z</time></trkpt><trkpt lat="43.065769241124435" lon="11.678646306856276"><ele>318.0</ele><time>2026-04-21T15:30:47Z</time></trkpt><trkpt lat="43.06581023954723" lon="11.67846873090183"><ele>322.0</ele><time>2026-04-21T15:30:48Z</time></trkpt><trkpt lat="43.065879634898806" lon="11.678296319692837"><ele>326.0</ele><time>2026-04-21T15:30:49Z</time></trkpt><trkpt lat="43.06595727409671" lon="11.67814188971073"><ele>330.0</ele><time>2026-04-21T15:30:50Z</time></trkpt><trkpt lat="43.066049836993244" lon="11.678026962028948"><ele>334.0</ele><time>2026-04-21T15:30:51Z</time></trkpt><trkpt lat="43.06615958287662" lon="11.677949483809426"><ele>334.0</ele><time>2026-04-21T15:30:52Z</time></trkpt><trkpt lat="43.06628267720941" lon="11.677917115317426"><ele>334.0</ele><time>2026-04-21T15:30:53Z</time></trkpt><trkpt lat="43.06640383134163" lon="11.677957704308795"><ele>334.0</ele><time>2026-04-21T15:30:54Z</time></trkpt><trkpt lat="43.0665107261181" lon="11.678004054181724"><ele>334.0</ele><time>2026-04-21T15:30:55Z</time></trkpt><trkpt lat="43.066608705304965" lon="11.678081121952452"><ele>335.79999999999995</ele><time>2026-04-21T15:30:56Z</time></trkpt><trkpt lat="43.06671181993746" lon="11.678160597158866"><ele>337.59999999999997</ele><time>2026-04-21T15:30:57Z</time></trkpt><trkpt lat="43.06680749980048" lon="11.678223643962848"><ele>339.4</ele><time>2026-04-21T15:30:58Z</time></trkpt><trkpt lat="43.06686835781861" lon="11.678282081948407"><ele>341.2</ele><time>2026-04-21T15:30:59Z</time></trkpt><trkpt lat="43.06691746531624" lon="11.678349366208433"><ele>343.0</ele><time>2026-04-21T15:31:01Z</time></trkpt><trkpt lat="43.06704994104985" lon="11.678397303655105"><ele>343.0</ele><time>2026-04-21T15:31:34.999Z</time></trkpt><trkpt lat="43.0671563372642" lon="11.67842993755934"><ele>343.0</ele><time>2026-04-21T15:31:35.999Z</time></trkpt><trkpt lat="43.067269769049894" lon="11.678485849463682"><ele>343.0</ele><time>2026-04-21T15:31:36.999Z</time></trkpt><trkpt lat="43.06739465756192" lon="11.67853736072819"><ele>343.0</ele><time>2026-04-21T15:31:37.999Z</time></trkpt><trkpt lat="43.06752274016711" lon="11.678588942453889"><ele>343.75</ele><time>2026-04-21T15:31:38.999Z</time></trkpt><trkpt lat="43.06764791189848" lon="11.67862759129203"><ele>344.5</ele><time>2026-04-21T15:31:39.999Z</time></trkpt><trkpt lat="43.06778005380903" lon="11.678644170709328"><ele>345.25</ele><time>2026-04-21T15:31:40.999Z</time></trkpt><trkpt lat="43.06791537592367" lon="11.678656332607927"><ele>346.0</ele><time>2026-04-21T15:31:41.999Z</time></trkpt><trkpt lat="43.06804555957555" lon="11.678579047874123"><ele>346.0</ele><time>2026-04-21T15:31:42.999Z</time></trkpt><trkpt lat="43.068170783320134" lon="11.678518127817249"><ele>346.0</ele><time>2026-04-21T15:31:43.999Z</time></trkpt><trkpt lat="43.06828949143585" lon="11.678475656664954"><ele>346.0</ele><time>2026-04-21T15:31:44.999Z</time></trkpt><trkpt lat="43.068391091600816" lon="11.678464929653897"><ele>346.0</ele><time>2026-04-21T15:31:45.999Z</time></trkpt><trkpt lat="43.068471420065315" lon="11.678509139745511"><ele>346.0</ele><time>2026-04-21T15:31:46.999Z</time></trkpt><trkpt lat="43.06852780541197" lon="11.678595776284455"><ele>349.75</ele><time>2026-04-21T15:31:47.999Z</time></trkpt><trkpt lat="43.068544323282325" lon="11.678717390579337"><ele>353.5</ele><time>2026-04-21T15:31:48.999Z</time></trkpt><trkpt lat="43.068525934625484" lon="11.678868750976152"><ele>357.25</ele><time>2026-04-21T15:31:49.999Z</time></trkpt><trkpt lat="43.068496389785494" lon="11.679054655621169"><ele>361.0</ele><time>2026-04-21T15:31:50.999Z</time></trkpt><trkpt lat="43.06845500427838" lon="11.679270195851396"><ele>361.25</ele><time>2026-04-21T15:31:51.999Z</time></trkpt><trkpt lat="43.06842904622011" lon="11.679471622544991"><ele>361.5</ele><time>2026-04-21T15:31:52.999Z</time></trkpt><trkpt lat="43.06842898716148" lon="11.679630681457564"><ele>361.75</ele><time>2026-04-21T15:31:53.999Z</time></trkpt><trkpt lat="43.068455067886156" lon="11.67977077411651"><ele>362.0</ele><time>2026-04-21T15:31:54.999Z</time></trkpt><trkpt lat="43.06851825817868" lon="11.67992193242598"><ele>362.0</ele><time>2026-04-21T15:31:55.999Z</time></trkpt><trkpt lat="43.06862106215075" lon="11.680023355958449"><ele>362.0</ele><time>2026-04-21T15:31:56.999Z</time></trkpt><trkpt lat="43.068726007625706" lon="11.68004309244694"><ele>362.0</ele><time>2026-04-21T15:31:57.999Z</time></trkpt><trkpt lat="43.06884250752214" lon="11.679996845037683"><ele>362.0</ele><time>2026-04-21T15:31:58.999Z</time></trkpt><trkpt lat="43.06894156468552" lon="11.679897284105756"><ele>362.0</ele><time>2026-04-21T15:32:00Z</time></trkpt><trkpt lat="43.069010120249345" lon="11.679748055776248"><ele>362.0</ele><time>2026-04-21T15:32:01Z</time></trkpt><trkpt lat="43.06905511219495" lon="11.679570069339261"><ele>362.0</ele><time>2026-04-21T15:32:02Z</time></trkpt><trkpt lat="43.069083562388194" lon="11.679366199532025"><ele>362.0</ele><time>2026-04-21T15:32:03Z</time></trkpt><trkpt lat="43.069135859491354" lon="11.679171994228499"><ele>364.25</ele><time>2026-04-21T15:32:04Z</time></trkpt><trkpt lat="43.069214319409944" lon="11.679024347016966"><ele>366.5</ele><time>2026-04-21T15:32:05Z</time></trkpt><trkpt lat="43.0693266263116" lon="11.67891342852861"><ele>368.75</ele><time>2026-04-21T15:32:06Z</time></trkpt><trkpt lat="43.06946626814086" lon="11.678848781354862"><ele>371.0</ele><time>2026-04-21T15:32:07Z</time></trkpt><trkpt lat="43.069632075455345" lon="11.678844371393826"><ele>371.0</ele><time>2026-04-21T15:32:08Z</time></trkpt><trkpt lat="43.06980986651497" lon="11.678807382653368"><ele>371.0</ele><time>2026-04-21T15:32:09Z</time></trkpt><trkpt lat="43.06998889824613" lon="11.678801001634517"><ele>371.0</ele><time>2026-04-21T15:32:10Z</time></trkpt><trkpt lat="43.07017204049235" lon="11.678785531375384"><ele>374.0</ele><time>2026-04-21T15:32:11Z</time></trkpt><trkpt lat="43.07036107351706" lon="11.678764932792038"><ele>377.0</ele><time>2026-04-21T15:32:12Z</time></trkpt><trkpt lat="43.070554409324956" lon="11.678745533758244"><ele>380.0</ele><time>2026-04-21T15:32:13Z</time></trkpt><trkpt lat="43.07074307527156" lon="11.678720950588882"><ele>382.33333333333337</ele><time>2026-04-21T15:32:14Z</time></trkpt><trkpt lat="43.07093234393793" lon="11.67869801400491"><ele>384.6666666666667</ele><time>2026-04-21T15:32:15Z</time></trkpt><trkpt lat="43.07112181469422" lon="11.678676307525285"><ele>387.0</ele><time>2026-04-21T15:32:16Z</time></trkpt><trkpt lat="43.071308859449076" lon="11.678655438795479"><ele>387.0</ele><time>2026-04-21T15:32:17Z</time></trkpt><trkpt lat="43.071482947489834" lon="11.678636100362136"><ele>387.0</ele><time>2026-04-21T15:32:18Z</time></trkpt><trkpt lat="43.071645079059266" lon="11.678617274520791"><ele>387.0</ele><time>2026-04-21T15:32:19Z</time></trkpt><trkpt lat="43.07178820174599" lon="11.678602811221003"><ele>386.6</ele><time>2026-04-21T15:32:20Z</time></trkpt><trkpt lat="43.07191346401616" lon="11.678585570996676"><ele>386.20000000000005</ele><time>2026-04-21T15:32:21Z</time></trkpt><trkpt lat="43.072021807601516" lon="11.678577136888483"><ele>385.8</ele><time>2026-04-21T15:32:22Z</time></trkpt><trkpt lat="43.07211405038235" lon="11.678610670334418"><ele>385.4</ele><time>2026-04-21T15:32:23Z</time></trkpt><trkpt lat="43.072181801967005" lon="11.678694093642399"><ele>385.0</ele><time>2026-04-21T15:32:24Z</time></trkpt><trkpt lat="43.07222311590081" lon="11.678823603968635"><ele>387.5</ele><time>2026-04-21T15:32:25Z</time></trkpt><trkpt lat="43.072212386116604" lon="11.678969966047548"><ele>390.0</ele><time>2026-04-21T15:32:26Z</time></trkpt><trkpt lat="43.07215701597104" lon="11.679115957108051"><ele>392.5</ele><time>2026-04-21T15:32:27Z</time></trkpt><trkpt lat="43.07210418512079" lon="11.67931433229731"><ele>395.0</ele><time>2026-04-21T15:32:28Z</time></trkpt><trkpt lat="43.07203917687347" lon="11.679514782791788"><ele>396.0</ele><time>2026-04-21T15:32:29Z</time></trkpt><trkpt lat="43.07199909445942" lon="11.679715202039048"><ele>397.0</ele><time>2026-04-21T15:32:30Z</time></trkpt><trkpt lat="43.07196561324333" lon="11.679861014309104"><ele>398.0</ele><time>2026-04-21T15:32:31Z</time></trkpt><trkpt lat="43.07194955380347" lon="11.679984524205357"><ele>399.0</ele><time>2026-04-21T15:32:32Z</time></trkpt><trkpt lat="43.07196754647996" lon="11.680121857686704"><ele>399.0</ele><time>2026-04-21T15:32:33Z</time></trkpt><trkpt lat="43.072031973579946" lon="11.680230161483477"><ele>399.0</ele><time>2026-04-21T15:32:34Z</time></trkpt><trkpt lat="43.07212456961087" lon="11.68027179142008"><ele>399.0</ele><time>2026-04-21T15:32:35Z</time></trkpt><trkpt lat="43.07221601278363" lon="11.68025857894378"><ele>399.0</ele><time>2026-04-21T15:32:36Z</time></trkpt><trkpt lat="43.0723058879364" lon="11.680224472307248"><ele>399.0</ele><time>2026-04-21T15:32:37Z</time></trkpt><trkpt lat="43.07238049859501" lon="11.680143596204097"><ele>399.0</ele><time>2026-04-21T15:32:38Z</time></trkpt><trkpt lat="43.072438205175274" lon="11.68001923779534"><ele>399.0</ele><time>2026-04-21T15:32:39Z</time></trkpt><trkpt lat="43.07249755321128" lon="11.679848923729313"><ele>399.0</ele><time>2026-04-21T15:32:40Z</time></trkpt><trkpt lat="43.07257816810818" lon="11.679651339080145"><ele>399.0</ele><time>2026-04-21T15:32:41Z</time></trkpt><trkpt lat="43.07265959740994" lon="11.67947754200381"><ele>400.2</ele><time>2026-04-21T15:32:42Z</time></trkpt><trkpt lat="43.07272170546122" lon="11.679348475978328"><ele>401.4</ele><time>2026-04-21T15:32:43Z</time></trkpt><trkpt lat="43.07277221369647" lon="11.679231642978314"><ele>402.6</ele><time>2026-04-21T15:32:44Z</time></trkpt><trkpt lat="43.07282059565862" lon="11.679132281782836"><ele>403.8</ele><time>2026-04-21T15:32:45Z</time></trkpt><trkpt lat="43.072882588955785" lon="11.67905671722213"><ele>405.0</ele><time>2026-04-21T15:32:46Z</time></trkpt><trkpt lat="43.07295662139912" lon="11.678950472879412"><ele>405.0</ele><time>2026-04-21T15:32:47Z</time></trkpt><trkpt lat="43.0730226523147" lon="11.678841866680592"><ele>405.0</ele><time>2026-04-21T15:32:48Z</time></trkpt><trkpt lat="43.07310423659291" lon="11.678742558812527"><ele>405.0</ele><time>2026-04-21T15:32:49Z</time></trkpt><trkpt lat="43.073195258396325" lon="11.678643927654065"><ele>405.0</ele><time>2026-04-21T15:32:50Z</time></trkpt><trkpt lat="43.07329095708699" lon="11.678535050578397"><ele>407.0</ele><time>2026-04-21T15:32:51Z</time></trkpt><trkpt lat="43.073395091533754" lon="11.678416106612843"><ele>409.0</ele><time>2026-04-21T15:32:52Z</time></trkpt><trkpt lat="43.07348915194052" lon="11.678264497796606"><ele>411.0</ele><time>2026-04-21T15:32:53Z</time></trkpt><trkpt lat="43.07358144754009" lon="11.678087100401536"><ele>413.0</ele><time>2026-04-21T15:32:54Z</time></trkpt><trkpt lat="43.07365720058785" lon="11.67788387966431"><ele>411.3333333333333</ele><time>2026-04-21T15:32:55Z</time></trkpt><trkpt lat="43.07374315568096" lon="11.677673347116077"><ele>409.66666666666663</ele><time>2026-04-21T15:32:56Z</time></trkpt><trkpt lat="43.07382868664835" lon="11.677458368266404"><ele>408.0</ele><time>2026-04-21T15:32:57Z</time></trkpt><trkpt lat="43.07390920017484" lon="11.677240448215427"><ele>408.0</ele><time>2026-04-21T15:32:58Z</time></trkpt><trkpt lat="43.073985947099445" lon="11.67701794532861"><ele>408.0</ele><time>2026-04-21T15:32:59Z</time></trkpt><trkpt lat="43.0740473743999" lon="11.67679613081735"><ele>408.0</ele><time>2026-04-21T15:33:00Z</time></trkpt><trkpt lat="43.07410384339906" lon="11.676576982410964"><ele>414.66666666666663</ele><time>2026-04-21T15:33:01Z</time></trkpt><trkpt lat="43.07416679926444" lon="11.676366045643903"><ele>421.3333333333333</ele><time>2026-04-21T15:33:02Z</time></trkpt><trkpt lat="43.07424206624252" lon="11.676165120129678"><ele>428.0</ele><time>2026-04-21T15:33:03Z</time></trkpt><trkpt lat="43.07432931435691" lon="11.675982172142247"><ele>428.0</ele><time>2026-04-21T15:33:04Z</time></trkpt><trkpt lat="43.074422348471415" lon="11.675809508326475"><ele>428.0</ele><time>2026-04-21T15:33:05Z</time></trkpt><trkpt lat="43.07450873713054" lon="11.675654146587652"><ele>428.0</ele><time>2026-04-21T15:33:06Z</time></trkpt><trkpt lat="43.07458192286772" lon="11.67550696476975"><ele>428.0</ele><time>2026-04-21T15:33:07Z</time></trkpt><trkpt lat="43.07466716926062" lon="11.675369606588957"><ele>429.25</ele><time>2026-04-21T15:33:08Z</time></trkpt><trkpt lat="43.074773433975245" lon="11.675254845961808"><ele>430.5</ele><time>2026-04-21T15:33:09Z</time></trkpt><trkpt lat="43.074895490634496" lon="11.6751762186888"><ele>431.75</ele><time>2026-04-21T15:33:10Z</time></trkpt><trkpt lat="43.07503194435612" lon="11.675116623536919"><ele>433.0</ele><time>2026-04-21T15:33:11Z</time></trkpt><trkpt lat="43.07515194285408" lon="11.675038554222123"><ele>433.0</ele><time>2026-04-21T15:33:12Z</time></trkpt><trkpt lat="43.07525318893921" lon="11.67497279533144"><ele>432.99999999999994</ele><time>2026-04-21T15:33:13Z</time></trkpt><trkpt lat="43.075345617171266" lon="11.674901045699047"><ele>432.99999999999994</ele><time>2026-04-21T15:33:14Z</time></trkpt><trkpt lat="43.07543898927823" lon="11.674821608011316"><ele>433.0</ele><time>2026-04-21T15:33:15Z</time></trkpt><trkpt lat="43.07553923880614" lon="11.67473451211838"><ele>433.0</ele><time>2026-04-21T15:33:16Z</time></trkpt><trkpt lat="43.0756675053214" lon="11.674648136792541"><ele>434.33333333333337</ele><time>2026-04-21T15:33:17Z</time></trkpt><trkpt lat="43.07582029580748" lon="11.674526837903741"><ele>435.66666666666663</ele><time>2026-04-21T15:33:18Z</time></trkpt><trkpt lat="43.075943746570864" lon="11.67440069806993"><ele>437.0</ele><time>2026-04-21T15:33:19Z</time></trkpt><trkpt lat="43.07606594488998" lon="11.674312946606255"><ele>437.0</ele><time>2026-04-21T15:33:20Z</time></trkpt><trkpt lat="43.07618545462962" lon="11.674226547014504"><ele>437.0</ele><time>2026-04-21T15:33:21Z</time></trkpt><trkpt lat="43.07627341739273" lon="11.674126308243622"><ele>437.0</ele><time>2026-04-21T15:33:21.999Z</time></trkpt><trkpt lat="43.07634658147148" lon="11.674029378054662"><ele>437.0</ele><time>2026-04-21T15:33:22.999Z</time></trkpt><trkpt lat="43.076410529213675" lon="11.67392322935587"><ele>436.99999999999994</ele><time>2026-04-21T15:33:23.999Z</time></trkpt><trkpt lat="43.07647270891608" lon="11.673814319491225"><ele>437.0</ele><time>2026-04-21T15:33:24.999Z</time></trkpt><trkpt lat="43.076524836907325" lon="11.673697005778891"><ele>437.0</ele><time>2026-04-21T15:33:25.999Z</time></trkpt><trkpt lat="43.076574247075506" lon="11.673599199015447"><ele>437.0</ele><time>2026-04-21T15:33:26.999Z</time></trkpt><trkpt lat="43.07661290072245" lon="11.673525485004317"><ele>436.99999999999994</ele><time>2026-04-21T15:33:27.999Z</time></trkpt><trkpt lat="43.07666052230096" lon="11.673432593543598"><ele>437.0</ele><time>2026-04-21T15:33:28.999Z</time></trkpt><trkpt lat="43.07670853343743" lon="11.673339636284513"><ele>439.25</ele><time>2026-04-21T15:33:29.999Z</time></trkpt><trkpt lat="43.07679404268978" lon="11.673240943632715"><ele>441.5</ele><time>2026-04-21T15:33:31.999Z</time></trkpt><trkpt lat="43.07690396380365" lon="11.67322951394217"><ele>443.75</ele><time>2026-04-21T15:33:33.999Z</time></trkpt><trkpt lat="43.077016340427534" lon="11.673149533741007"><ele>446.0</ele><time>2026-04-21T15:33:57Z</time></trkpt><trkpt lat="43.077073048572615" lon="11.67300780203281"><ele>446.0</ele><time>2026-04-21T15:33:59Z</time></trkpt><trkpt lat="43.07710138721451" lon="11.672923922305943"><ele>446.0</ele><time>2026-04-21T15:34:00Z</time></trkpt><trkpt lat="43.07713050565713" lon="11.672838609546291"><ele>446.0</ele><time>2026-04-21T15:34:01Z</time></trkpt><trkpt lat="43.07715721032206" lon="11.67274642059501"><ele>446.0</ele><time>2026-04-21T15:34:02Z</time></trkpt><trkpt lat="43.077185274976856" lon="11.672643059385189"><ele>446.0</ele><time>2026-04-21T15:34:03Z</time></trkpt><trkpt lat="43.07720991109641" lon="11.672545124518505"><ele>446.0</ele><time>2026-04-21T15:34:04Z</time></trkpt><trkpt lat="43.07723130886678" lon="11.672442963951749"><ele>446.0</ele><time>2026-04-21T15:34:05Z</time></trkpt><trkpt lat="43.077247319325636" lon="11.672339584561428"><ele>444.3333333333333</ele><time>2026-04-21T15:34:06Z</time></trkpt><trkpt lat="43.077259585146834" lon="11.67222600111602"><ele>442.66666666666663</ele><time>2026-04-21T15:34:07Z</time></trkpt><trkpt lat="43.077272705130234" lon="11.672119938163554"><ele>441.0</ele><time>2026-04-21T15:34:08Z</time></trkpt><trkpt lat="43.07728925426184" lon="11.672016254462134"><ele>439.33333333333337</ele><time>2026-04-21T15:34:09Z</time></trkpt><trkpt lat="43.0773046829341" lon="11.671919590637199"><ele>437.6666666666667</ele><time>2026-04-21T15:34:10Z</time></trkpt><trkpt lat="43.077305204013" lon="11.67181564109007"><ele>436.0</ele><time>2026-04-21T15:34:11Z</time></trkpt><trkpt lat="43.07732579334691" lon="11.671716415722575"><ele>434.4</ele><time>2026-04-21T15:34:12Z</time></trkpt><trkpt lat="43.07735091459625" lon="11.671624993490662"><ele>432.8</ele><time>2026-04-21T15:34:13Z</time></trkpt><trkpt lat="43.077375020190416" lon="11.671451752979602"><ele>431.19999999999993</ele><time>2026-04-21T15:34:15Z</time></trkpt><trkpt lat="43.077409156000016" lon="11.67133576600864"><ele>429.59999999999997</ele><time>2026-04-21T15:34:17Z</time></trkpt><trkpt lat="43.07738160474461" lon="11.671473587007698"><ele>428.0</ele><time>2026-04-21T15:34:49Z</time></trkpt><trkpt lat="43.07735646386805" lon="11.671613209659824"><ele>428.0</ele><time>2026-04-21T15:34:51Z</time></trkpt><trkpt lat="43.07733628269058" lon="11.671731919309796"><ele>427.99999999999994</ele><time>2026-04-21T15:34:52Z</time></trkpt><trkpt lat="43.077313348480544" lon="11.671866456586129"><ele>427.99999999999994</ele><time>2026-04-21T15:34:53Z</time></trkpt><trkpt lat="43.07729174154041" lon="11.67199320803294"><ele>428.0</ele><time>2026-04-21T15:34:54Z</time></trkpt><trkpt lat="43.07725963863668" lon="11.672116403276458"><ele>428.0</ele><time>2026-04-21T15:34:55Z</time></trkpt><trkpt lat="43.0772397333682" lon="11.672244841871091"><ele>429.59999999999997</ele><time>2026-04-21T15:34:56Z</time></trkpt><trkpt lat="43.077242235452395" lon="11.672376567740434"><ele>431.19999999999993</ele><time>2026-04-21T15:34:57Z</time></trkpt><trkpt lat="43.07722678171928" lon="11.672510682147443"><ele>432.8</ele><time>2026-04-21T15:34:58Z</time></trkpt><trkpt lat="43.07720105258053" lon="11.672642096048401"><ele>434.4</ele><time>2026-04-21T15:34:59Z</time></trkpt><trkpt lat="43.07716656197664" lon="11.672757446389777"><ele>436.0</ele><time>2026-04-21T15:35:00Z</time></trkpt><trkpt lat="43.07713140000951" lon="11.672866303801738"><ele>438.0</ele><time>2026-04-21T15:35:01Z</time></trkpt><trkpt lat="43.07709660583846" lon="11.67297439942517"><ele>440.0</ele><time>2026-04-21T15:35:02Z</time></trkpt><trkpt lat="43.07705938841146" lon="11.673071076801467"><ele>442.0</ele><time>2026-04-21T15:35:03Z</time></trkpt><trkpt lat="43.07703271629972" lon="11.673159598369136"><ele>444.0</ele><time>2026-04-21T15:35:04Z</time></trkpt><trkpt lat="43.07698691336101" lon="11.673259312353924"><ele>446.0</ele><time>2026-04-21T15:35:06Z</time></trkpt><trkpt lat="43.07676597786023" lon="11.673241686791567"><ele>446.0</ele><time>2026-04-21T15:35:09Z</time></trkpt><trkpt lat="43.07669029176363" lon="11.673308606073011"><ele>446.0</ele><time>2026-04-21T15:35:10Z</time></trkpt><trkpt lat="43.07661974566688" lon="11.673445479173665"><ele>446.0</ele><time>2026-04-21T15:35:11Z</time></trkpt><trkpt lat="43.07653922226396" lon="11.67363890567866"><ele>446.0</ele><time>2026-04-21T15:35:12Z</time></trkpt><trkpt lat="43.07644519562374" lon="11.673838339254644"><ele>443.0</ele><time>2026-04-21T15:35:13Z</time></trkpt><trkpt lat="43.07633471583403" lon="11.674019523222446"><ele>440.0</ele><time>2026-04-21T15:35:14Z</time></trkpt><trkpt lat="43.07622479096158" lon="11.674158419749745"><ele>437.0</ele><time>2026-04-21T15:35:15Z</time></trkpt><trkpt lat="43.07610636378348" lon="11.674270238724642"><ele>437.0</ele><time>2026-04-21T15:35:16Z</time></trkpt><trkpt lat="43.07598876196158" lon="11.67436228763633"><ele>437.0</ele><time>2026-04-21T15:35:17Z</time></trkpt><trkpt lat="43.075878054612275" lon="11.674450308546929"><ele>437.0</ele><time>2026-04-21T15:35:18Z</time></trkpt><trkpt lat="43.07577238153256" lon="11.674531549639928"><ele>437.0</ele><time>2026-04-21T15:35:19Z</time></trkpt><trkpt lat="43.075672120345125" lon="11.674611411784054"><ele>436.20000000000005</ele><time>2026-04-21T15:35:20Z</time></trkpt><trkpt lat="43.075577495600264" lon="11.674689802112262"><ele>435.40000000000003</ele><time>2026-04-21T15:35:21Z</time></trkpt><trkpt lat="43.07548446881027" lon="11.674768658493143"><ele>434.59999999999997</ele><time>2026-04-21T15:35:22Z</time></trkpt><trkpt lat="43.07538991801083" lon="11.674845526440917"><ele>433.79999999999995</ele><time>2026-04-21T15:35:23Z</time></trkpt><trkpt lat="43.075295458110574" lon="11.674916794738413"><ele>433.0</ele><time>2026-04-21T15:35:24Z</time></trkpt><trkpt lat="43.07519128894926" lon="11.674975772102563"><ele>433.0</ele><time>2026-04-21T15:35:25Z</time></trkpt><trkpt lat="43.07510647084291" lon="11.675052232625173"><ele>432.99999999999994</ele><time>2026-04-21T15:35:26Z</time></trkpt><trkpt lat="43.07501604247471" lon="11.675098749760656"><ele>432.99999999999994</ele><time>2026-04-21T15:35:27Z</time></trkpt><trkpt lat="43.0749284649748" lon="11.675137703870202"><ele>433.0</ele><time>2026-04-21T15:35:28Z</time></trkpt><trkpt lat="43.074845437036394" lon="11.675186559300217"><ele>433.0</ele><time>2026-04-21T15:35:29Z</time></trkpt><trkpt lat="43.07475622929187" lon="11.675242759905565"><ele>432.0</ele><time>2026-04-21T15:35:30Z</time></trkpt><trkpt lat="43.074673645242676" lon="11.67530269681039"><ele>430.99999999999994</ele><time>2026-04-21T15:35:31Z</time></trkpt><trkpt lat="43.07460413876174" lon="11.67538768678608"><ele>429.99999999999994</ele><time>2026-04-21T15:35:32Z</time></trkpt><trkpt lat="43.07452992703836" lon="11.67550932492855"><ele>429.0</ele><time>2026-04-21T15:35:33Z</time></trkpt><trkpt lat="43.07445086698651" lon="11.675666549634983"><ele>428.0</ele><time>2026-04-21T15:35:34Z</time></trkpt><trkpt lat="43.07436561482676" lon="11.675844423917855"><ele>428.0</ele><time>2026-04-21T15:35:35Z</time></trkpt><trkpt lat="43.07427986233425" lon="11.676023431946959"><ele>428.0</ele><time>2026-04-21T15:35:36Z</time></trkpt><trkpt lat="43.07419248066517" lon="11.67620939982503"><ele>428.0</ele><time>2026-04-21T15:35:37Z</time></trkpt><trkpt lat="43.074114542671744" lon="11.676411140526072"><ele>421.3333333333333</ele><time>2026-04-21T15:35:38Z</time></trkpt><trkpt lat="43.07405257305746" lon="11.676637856284493"><ele>414.66666666666663</ele><time>2026-04-21T15:35:39Z</time></trkpt><trkpt lat="43.07399922539179" lon="11.676885028076113"><ele>408.0</ele><time>2026-04-21T15:35:40Z</time></trkpt><trkpt lat="43.07393589993001" lon="11.677142599204208"><ele>408.0</ele><time>2026-04-21T15:35:41Z</time></trkpt><trkpt lat="43.07383613638242" lon="11.677374171426"><ele>408.0</ele><time>2026-04-21T15:35:42Z</time></trkpt><trkpt lat="43.07376294009238" lon="11.677604773200754"><ele>408.0</ele><time>2026-04-21T15:35:43Z</time></trkpt><trkpt lat="43.07366825988396" lon="11.677814525430888"><ele>409.66666666666663</ele><time>2026-04-21T15:35:44Z</time></trkpt><trkpt lat="43.07358275826767" lon="11.678021202589123"><ele>411.3333333333333</ele><time>2026-04-21T15:35:45Z</time></trkpt><trkpt lat="43.07349652581178" lon="11.678214819278349"><ele>413.0</ele><time>2026-04-21T15:35:46Z</time></trkpt><trkpt lat="43.0733784596992" lon="11.678369109029761"><ele>410.3333333333333</ele><time>2026-04-21T15:35:47Z</time></trkpt><trkpt lat="43.07327092539957" lon="11.678523172574808"><ele>407.66666666666663</ele><time>2026-04-21T15:35:48Z</time></trkpt><trkpt lat="43.07314883070275" lon="11.678660128461765"><ele>405.0</ele><time>2026-04-21T15:35:49Z</time></trkpt><trkpt lat="43.07303600539125" lon="11.678796604907985"><ele>405.0</ele><time>2026-04-21T15:35:50Z</time></trkpt><trkpt lat="43.072932199995975" lon="11.678928786989882"><ele>405.0</ele><time>2026-04-21T15:35:51Z</time></trkpt><trkpt lat="43.07283100687471" lon="11.679081641582108"><ele>405.0</ele><time>2026-04-21T15:35:52Z</time></trkpt><trkpt lat="43.07274280629739" lon="11.679263784125377"><ele>406.0</ele><time>2026-04-21T15:35:53Z</time></trkpt><trkpt lat="43.07265494174547" lon="11.679443021933539"><ele>407.0</ele><time>2026-04-21T15:35:54Z</time></trkpt><trkpt lat="43.07257251902605" lon="11.679630177476724"><ele>408.0</ele><time>2026-04-21T15:35:55Z</time></trkpt><trkpt lat="43.07249429364804" lon="11.679800338828239"><ele>406.2</ele><time>2026-04-21T15:35:56Z</time></trkpt><trkpt lat="43.072426104835685" lon="11.679956778766837"><ele>404.4</ele><time>2026-04-21T15:35:57Z</time></trkpt><trkpt lat="43.07236533123902" lon="11.680081553663822"><ele>402.59999999999997</ele><time>2026-04-21T15:35:58Z</time></trkpt><trkpt lat="43.07229649316075" lon="11.680176396855124"><ele>400.79999999999995</ele><time>2026-04-21T15:35:59Z</time></trkpt><trkpt lat="43.07220741525107" lon="11.680229432903179"><ele>399.0</ele><time>2026-04-21T15:36:00Z</time></trkpt><trkpt lat="43.07210168270668" lon="11.680227150912494"><ele>399.0</ele><time>2026-04-21T15:36:01Z</time></trkpt><trkpt lat="43.0720097327102" lon="11.680167407934333"><ele>399.0</ele><time>2026-04-21T15:36:02Z</time></trkpt><trkpt lat="43.071971695647" lon="11.68007120376538"><ele>399.0</ele><time>2026-04-21T15:36:03Z</time></trkpt><trkpt lat="43.07196484416262" lon="11.679933122531052"><ele>399.0</ele><time>2026-04-21T15:36:04Z</time></trkpt><trkpt lat="43.0719978033777" lon="11.679798746770194"><ele>399.0</ele><time>2026-04-21T15:36:05Z</time></trkpt><trkpt lat="43.07204482063912" lon="11.679647542750695"><ele>399.0</ele><time>2026-04-21T15:36:06Z</time></trkpt><trkpt lat="43.072079841855285" lon="11.679502640199905"><ele>399.0</ele><time>2026-04-21T15:36:07Z</time></trkpt><trkpt lat="43.07213294683504" lon="11.679342188087812"><ele>399.0</ele><time>2026-04-21T15:36:08Z</time></trkpt><trkpt lat="43.072177424460385" lon="11.67916658151645"><ele>399.0</ele><time>2026-04-21T15:36:09Z</time></trkpt><trkpt lat="43.07221778278825" lon="11.679005954749444"><ele>398.2</ele><time>2026-04-21T15:36:10Z</time></trkpt><trkpt lat="43.07224579126856" lon="11.678857514330389"><ele>397.4</ele><time>2026-04-21T15:36:11Z</time></trkpt><trkpt lat="43.07223995138784" lon="11.67871362945676"><ele>396.6</ele><time>2026-04-21T15:36:12Z</time></trkpt><trkpt lat="43.072182734630466" lon="11.678594506719318"><ele>395.8</ele><time>2026-04-21T15:36:13Z</time></trkpt><trkpt lat="43.072088040233076" lon="11.678527873088377"><ele>395.0</ele><time>2026-04-21T15:36:14Z</time></trkpt><trkpt lat="43.07197529913999" lon="11.678515605749517"><ele>392.3333333333333</ele><time>2026-04-21T15:36:15Z</time></trkpt><trkpt lat="43.07184426853952" lon="11.678548117123773"><ele>389.66666666666663</ele><time>2026-04-21T15:36:16Z</time></trkpt><trkpt lat="43.07168630000594" lon="11.678581064657696"><ele>387.0</ele><time>2026-04-21T15:36:17Z</time></trkpt><trkpt lat="43.07150995911382" lon="11.678606513151609"><ele>387.0</ele><time>2026-04-21T15:36:18Z</time></trkpt><trkpt lat="43.07129140888856" lon="11.678629154915633"><ele>387.0</ele><time>2026-04-21T15:36:19Z</time></trkpt><trkpt lat="43.07105548459918" lon="11.678660009339419"><ele>387.0</ele><time>2026-04-21T15:36:20Z</time></trkpt><trkpt lat="43.07079841361429" lon="11.67868683939346"><ele>387.0</ele><time>2026-04-21T15:36:21Z</time></trkpt><trkpt lat="43.0705630056185" lon="11.678716237840332"><ele>384.6666666666667</ele><time>2026-04-21T15:36:22Z</time></trkpt><trkpt lat="43.07034716086144" lon="11.678736057128663"><ele>382.33333333333337</ele><time>2026-04-21T15:36:23Z</time></trkpt><trkpt lat="43.07015290676453" lon="11.678757733357095"><ele>380.0</ele><time>2026-04-21T15:36:24Z</time></trkpt><trkpt lat="43.06997470513243" lon="11.678778739226013"><ele>377.0</ele><time>2026-04-21T15:36:25Z</time></trkpt><trkpt lat="43.06980911120568" lon="11.678797529427372"><ele>374.0</ele><time>2026-04-21T15:36:26Z</time></trkpt><trkpt lat="43.06965437654213" lon="11.678813748797248"><ele>371.0</ele><time>2026-04-21T15:36:27Z</time></trkpt><trkpt lat="43.06950671248314" lon="11.678828492060857"><ele>371.0</ele><time>2026-04-21T15:36:28Z</time></trkpt><trkpt lat="43.06937078301188" lon="11.678868118929264"><ele>371.0</ele><time>2026-04-21T15:36:29Z</time></trkpt><trkpt lat="43.06925028004825" lon="11.678948127520862"><ele>371.0</ele><time>2026-04-21T15:36:30Z</time></trkpt><trkpt lat="43.069151055156546" lon="11.679066038610829"><ele>371.0</ele><time>2026-04-21T15:36:31Z</time></trkpt><trkpt lat="43.06907943007181" lon="11.679211094847926"><ele>368.75</ele><time>2026-04-21T15:36:32Z</time></trkpt><trkpt lat="43.069034487481915" lon="11.679379691724899"><ele>366.5</ele><time>2026-04-21T15:36:33Z</time></trkpt><trkpt lat="43.069003234486885" lon="11.679558785855106"><ele>364.25</ele><time>2026-04-21T15:36:34Z</time></trkpt><trkpt lat="43.06897204631767" lon="11.679692031216371"><ele>362.0</ele><time>2026-04-21T15:36:35Z</time></trkpt><trkpt lat="43.0689203464907" lon="11.679815053715258"><ele>362.0</ele><time>2026-04-21T15:36:36Z</time></trkpt><trkpt lat="43.06884918769708" lon="11.679907028196327"><ele>362.0</ele><time>2026-04-21T15:36:37Z</time></trkpt><trkpt lat="43.068755607016364" lon="11.679951048905588"><ele>362.0</ele><time>2026-04-21T15:36:38Z</time></trkpt><trkpt lat="43.06865236895647" lon="11.679946312171948"><ele>362.0</ele><time>2026-04-21T15:36:39Z</time></trkpt><trkpt lat="43.06855515896076" lon="11.67988649631121"><ele>362.0</ele><time>2026-04-21T15:36:40Z</time></trkpt><trkpt lat="43.06848213288647" lon="11.679774537573307"><ele>362.0</ele><time>2026-04-21T15:36:41Z</time></trkpt><trkpt lat="43.068442506510095" lon="11.679621614596076"><ele>362.0</ele><time>2026-04-21T15:36:42Z</time></trkpt><trkpt lat="43.06846686106306" lon="11.6794520869427"><ele>362.0</ele><time>2026-04-21T15:36:43Z</time></trkpt><trkpt lat="43.068488564932174" lon="11.679287407665779"><ele>362.0</ele><time>2026-04-21T15:36:44Z</time></trkpt><trkpt lat="43.06850347935525" lon="11.679113736894314"><ele>361.8</ele><time>2026-04-21T15:36:45Z</time></trkpt><trkpt lat="43.06852820199595" lon="11.678955541860738"><ele>361.6</ele><time>2026-04-21T15:36:46Z</time></trkpt><trkpt lat="43.06854858992674" lon="11.678804928999583"><ele>361.40000000000003</ele><time>2026-04-21T15:36:47Z</time></trkpt><trkpt lat="43.068563709755345" lon="11.678657025415381"><ele>361.20000000000005</ele><time>2026-04-21T15:36:48Z</time></trkpt><trkpt lat="43.0685773989857" lon="11.678524161532653"><ele>361.0</ele><time>2026-04-21T15:36:49Z</time></trkpt><trkpt lat="43.06856062862733" lon="11.67843195232222"><ele>359.6</ele><time>2026-04-21T15:36:50Z</time></trkpt><trkpt lat="43.068612626994195" lon="11.678328910406641"><ele>358.20000000000005</ele><time>2026-04-21T15:36:51Z</time></trkpt><trkpt lat="43.06864864586853" lon="11.678196519358226"><ele>356.79999999999995</ele><time>2026-04-21T15:36:53Z</time></trkpt><trkpt lat="43.06867927363898" lon="11.678088213312737"><ele>355.4</ele><time>2026-04-21T15:37:09Z</time></trkpt><trkpt lat="43.068724149463314" lon="11.677984586693018"><ele>354.0</ele><time>2026-04-21T15:37:10Z</time></trkpt><trkpt lat="43.06876740877225" lon="11.677861693151504"><ele>352.0</ele><time>2026-04-21T15:37:11Z</time></trkpt><trkpt lat="43.06882493697263" lon="11.677719791269832"><ele>350.0</ele><time>2026-04-21T15:37:12Z</time></trkpt><trkpt lat="43.06890585492167" lon="11.677576052104659"><ele>348.0</ele><time>2026-04-21T15:37:13Z</time></trkpt><trkpt lat="43.06895507937588" lon="11.677415306532044"><ele>346.0</ele><time>2026-04-21T15:37:14Z</time></trkpt><trkpt lat="43.06902287688912" lon="11.677277749651362"><ele>346.0</ele><time>2026-04-21T15:37:15Z</time></trkpt><trkpt lat="43.06906179620733" lon="11.677137836362515"><ele>346.0</ele><time>2026-04-21T15:37:16Z</time></trkpt><trkpt lat="43.069077856138314" lon="11.677012041015788"><ele>346.0</ele><time>2026-04-21T15:37:17Z</time></trkpt><trkpt lat="43.06907295928069" lon="11.676861934831793"><ele>346.0</ele><time>2026-04-21T15:37:18Z</time></trkpt><trkpt lat="43.06902255965311" lon="11.676730445329028"><ele>346.0</ele><time>2026-04-21T15:37:19Z</time></trkpt><trkpt lat="43.06892434089181" lon="11.676634785399273"><ele>345.0</ele><time>2026-04-21T15:37:20Z</time></trkpt><trkpt lat="43.06883313633507" lon="11.676486054674447"><ele>344.0</ele><time>2026-04-21T15:37:21Z</time></trkpt><trkpt lat="43.06871158550378" lon="11.676327107125706"><ele>343.0</ele><time>2026-04-21T15:37:22Z</time></trkpt><trkpt lat="43.068595293019435" lon="11.676174880919357"><ele>344.66666666666663</ele><time>2026-04-21T15:37:23Z</time></trkpt><trkpt lat="43.06840001169596" lon="11.67591877102931"><ele>346.3333333333333</ele><time>2026-04-21T15:37:25Z</time></trkpt><trkpt lat="43.06830905528263" lon="11.67579948240785"><ele>348.0</ele><time>2026-04-21T15:37:26Z</time></trkpt><trkpt lat="43.068223062798154" lon="11.675685628881784"><ele>347.0</ele><time>2026-04-21T15:37:27Z</time></trkpt><trkpt lat="43.06813937179459" lon="11.675570255295819"><ele>346.0</ele><time>2026-04-21T15:37:28Z</time></trkpt><trkpt lat="43.068053237275635" lon="11.675451513157368"><ele>345.0</ele><time>2026-04-21T15:37:29Z</time></trkpt><trkpt lat="43.06796180403007" lon="11.675325466444148"><ele>344.0</ele><time>2026-04-21T15:37:30Z</time></trkpt><trkpt lat="43.067854456940054" lon="11.675205585218613"><ele>344.0</ele><time>2026-04-21T15:37:31Z</time></trkpt><trkpt lat="43.06770152989077" lon="11.675106768472466"><ele>344.0</ele><time>2026-04-21T15:37:32Z</time></trkpt><trkpt lat="43.06751608193082" lon="11.675036503169474"><ele>344.0</ele><time>2026-04-21T15:37:33Z</time></trkpt><trkpt lat="43.067340227287445" lon="11.674928068968605"><ele>341.0</ele><time>2026-04-21T15:37:34Z</time></trkpt><trkpt lat="43.067185548698326" lon="11.674851565271325"><ele>338.0</ele><time>2026-04-21T15:37:35Z</time></trkpt><trkpt lat="43.067055415110026" lon="11.674809174322135"><ele>335.0</ele><time>2026-04-21T15:37:36Z</time></trkpt><trkpt lat="43.06696146386106" lon="11.67473382803545"><ele>332.0</ele><time>2026-04-21T15:37:37Z</time></trkpt><trkpt lat="43.06688680747187" lon="11.674674406975738"><ele>332.0</ele><time>2026-04-21T15:37:38Z</time></trkpt><trkpt lat="43.0668261865492" lon="11.674607657294223"><ele>332.0</ele><time>2026-04-21T15:37:39Z</time></trkpt><trkpt lat="43.06679210920563" lon="11.67451612547963"><ele>332.0</ele><time>2026-04-21T15:37:40Z</time></trkpt><trkpt lat="43.06676190250846" lon="11.674412210211479"><ele>332.0</ele><time>2026-04-21T15:37:41Z</time></trkpt><trkpt lat="43.06673853036757" lon="11.674275845126079"><ele>332.0</ele><time>2026-04-21T15:37:42Z</time></trkpt><trkpt lat="43.06669680928944" lon="11.674138922631752"><ele>332.0</ele><time>2026-04-21T15:37:43Z</time></trkpt><trkpt lat="43.06666260944634" lon="11.673999619329827"><ele>329.8</ele><time>2026-04-21T15:37:44Z</time></trkpt><trkpt lat="43.06660880050818" lon="11.673875056867866"><ele>327.6</ele><time>2026-04-21T15:37:45Z</time></trkpt><trkpt lat="43.06655304273689" lon="11.673756546830164"><ele>325.40000000000003</ele><time>2026-04-21T15:37:46Z</time></trkpt><trkpt lat="43.066500979173476" lon="11.673657028412212"><ele>323.20000000000005</ele><time>2026-04-21T15:37:47Z</time></trkpt><trkpt lat="43.066477057665395" lon="11.67355233883051"><ele>321.0</ele><time>2026-04-21T15:37:48Z</time></trkpt><trkpt lat="43.06651156109699" lon="11.673449252167966"><ele>321.0</ele><time>2026-04-21T15:37:49Z</time></trkpt><trkpt lat="43.066537627716514" lon="11.673337169295047"><ele>321.0</ele><time>2026-04-21T15:37:50Z</time></trkpt><trkpt lat="43.06659866391735" lon="11.67322741652771"><ele>321.0</ele><time>2026-04-21T15:37:51Z</time></trkpt><trkpt lat="43.066661077421806" lon="11.673113649346533"><ele>321.0</ele><time>2026-04-21T15:37:52Z</time></trkpt><trkpt lat="43.06672084531447" lon="11.673011784484585"><ele>321.0</ele><time>2026-04-21T15:37:53Z</time></trkpt><trkpt lat="43.06674168670008" lon="11.672887007741993"><ele>321.20000000000005</ele><time>2026-04-21T15:37:54Z</time></trkpt><trkpt lat="43.06672754037355" lon="11.67278208476464"><ele>321.40000000000003</ele><time>2026-04-21T15:37:55Z</time></trkpt><trkpt lat="43.06668367159819" lon="11.672671432581774"><ele>321.6</ele><time>2026-04-21T15:37:56Z</time></trkpt><trkpt lat="43.066599068721644" lon="11.67260097424467"><ele>321.8</ele><time>2026-04-21T15:37:57Z</time></trkpt><trkpt lat="43.06649493498362" lon="11.67257456808448"><ele>322.0</ele><time>2026-04-21T15:37:58Z</time></trkpt><trkpt lat="43.066407155006495" lon="11.67252440717472"><ele>321.0</ele><time>2026-04-21T15:37:59Z</time></trkpt><trkpt lat="43.06633921686387" lon="11.672449061109289"><ele>320.0</ele><time>2026-04-21T15:38:00Z</time></trkpt><trkpt lat="43.06630727078184" lon="11.672320455900907"><ele>319.0</ele><time>2026-04-21T15:38:01Z</time></trkpt><trkpt lat="43.0662665246083" lon="11.672184525987099"><ele>318.0</ele><time>2026-04-21T15:38:02Z</time></trkpt><trkpt lat="43.066198709314065" lon="11.672075791837372"><ele>317.0</ele><time>2026-04-21T15:38:03Z</time></trkpt><trkpt lat="43.0661023666563" lon="11.671999981053336"><ele>317.0</ele><time>2026-04-21T15:38:04Z</time></trkpt><trkpt lat="43.065990954334296" lon="11.6719403645078"><ele>317.0</ele><time>2026-04-21T15:38:05Z</time></trkpt><trkpt lat="43.06588786825578" lon="11.671890999574842"><ele>317.0</ele><time>2026-04-21T15:38:06Z</time></trkpt><trkpt lat="43.06578844758942" lon="11.671858034495942"><ele>317.0</ele><time>2026-04-21T15:38:07Z</time></trkpt><trkpt lat="43.06571136291008" lon="11.67184519830907"><ele>317.0</ele><time>2026-04-21T15:38:08Z</time></trkpt><trkpt lat="43.06563542944259" lon="11.671849088114952"><ele>315.4</ele><time>2026-04-21T15:38:09Z</time></trkpt><trkpt lat="43.065549226194314" lon="11.671921062477836"><ele>313.79999999999995</ele><time>2026-04-21T15:38:10Z</time></trkpt><trkpt lat="43.065503486182166" lon="11.67204404691291"><ele>312.2</ele><time>2026-04-21T15:38:11Z</time></trkpt><trkpt lat="43.06541815621976" lon="11.67213935090999"><ele>310.59999999999997</ele><time>2026-04-21T15:38:12Z</time></trkpt><trkpt lat="43.06532011475469" lon="11.672182800267546"><ele>309.0</ele><time>2026-04-21T15:38:13Z</time></trkpt><trkpt lat="43.06522955546396" lon="11.672221795954664"><ele>309.0</ele><time>2026-04-21T15:38:13.999Z</time></trkpt><trkpt lat="43.065136897353135" lon="11.672150766720208"><ele>309.0</ele><time>2026-04-21T15:38:14.999Z</time></trkpt><trkpt lat="43.065048092653825" lon="11.672080185383681"><ele>309.0</ele><time>2026-04-21T15:38:15.999Z</time></trkpt><trkpt lat="43.064930002881084" lon="11.67199333103634"><ele>309.0</ele><time>2026-04-21T15:38:16.999Z</time></trkpt><trkpt lat="43.064797116554075" lon="11.671896553246432"><ele>307.0</ele><time>2026-04-21T15:38:17.999Z</time></trkpt><trkpt lat="43.06465680863951" lon="11.671799761840482"><ele>305.0</ele><time>2026-04-21T15:38:18.999Z</time></trkpt><trkpt lat="43.06450500530642" lon="11.671726883579984"><ele>303.0</ele><time>2026-04-21T15:38:19.999Z</time></trkpt><trkpt lat="43.064348236622074" lon="11.671621985221371"><ele>303.0</ele><time>2026-04-21T15:38:20.999Z</time></trkpt><trkpt lat="43.06419259723593" lon="11.671499413311142"><ele>303.0</ele><time>2026-04-21T15:38:21.999Z</time></trkpt><trkpt lat="43.06402382251271" lon="11.671386857204917"><ele>303.0</ele><time>2026-04-21T15:38:22.999Z</time></trkpt><trkpt lat="43.06385063308862" lon="11.671272582289854"><ele>302.0</ele><time>2026-04-21T15:38:23.999Z</time></trkpt><trkpt lat="43.06367299867809" lon="11.671156870773066"><ele>301.0</ele><time>2026-04-21T15:38:24.999Z</time></trkpt><trkpt lat="43.063481951347775" lon="11.67105427290339"><ele>300.0</ele><time>2026-04-21T15:38:25.999Z</time></trkpt><trkpt lat="43.063303197232706" lon="11.670910602450608"><ele>298.6666666666667</ele><time>2026-04-21T15:38:26.999Z</time></trkpt><trkpt lat="43.063115596949785" lon="11.670780957733932"><ele>297.33333333333337</ele><time>2026-04-21T15:38:27.999Z</time></trkpt><trkpt lat="43.06292163783034" lon="11.670647114851384"><ele>296.0</ele><time>2026-04-21T15:38:28.999Z</time></trkpt><trkpt lat="43.06274034090444" lon="11.670524582328339"><ele>296.0</ele><time>2026-04-21T15:38:29.999Z</time></trkpt><trkpt lat="43.06254737479731" lon="11.67041839454157"><ele>296.0</ele><time>2026-04-21T15:38:30.999Z</time></trkpt><trkpt lat="43.06236413116194" lon="11.670290459704988"><ele>296.0</ele><time>2026-04-21T15:38:31.999Z</time></trkpt><trkpt lat="43.06217459868246" lon="11.670164011972926"><ele>295.33333333333337</ele><time>2026-04-21T15:38:32.999Z</time></trkpt><trkpt lat="43.062002207618804" lon="11.670021804883225"><ele>294.6666666666667</ele><time>2026-04-21T15:38:33.999Z</time></trkpt><trkpt lat="43.06182204215955" lon="11.669892406149982"><ele>294.0</ele><time>2026-04-21T15:38:34.999Z</time></trkpt><trkpt lat="43.061660390854456" lon="11.669757205019032"><ele>293.6666666666667</ele><time>2026-04-21T15:38:35.999Z</time></trkpt><trkpt lat="43.06150899371481" lon="11.669617454685254"><ele>293.33333333333337</ele><time>2026-04-21T15:38:36.999Z</time></trkpt><trkpt lat="43.06137033312415" lon="11.669486632892465"><ele>293.0</ele><time>2026-04-21T15:38:37.999Z</time></trkpt><trkpt lat="43.06124483868859" lon="11.669394907465616"><ele>293.0</ele><time>2026-04-21T15:38:38.999Z</time></trkpt><trkpt lat="43.06115896155652" lon="11.669280028727556"><ele>293.0</ele><time>2026-04-21T15:38:39.999Z</time></trkpt><trkpt lat="43.06108278925087" lon="11.669186591201953"><ele>293.0</ele><time>2026-04-21T15:38:40.999Z</time></trkpt><trkpt lat="43.06102932840467" lon="11.669083299515933"><ele>293.0</ele><time>2026-04-21T15:38:41.999Z</time></trkpt><trkpt lat="43.06099215611928" lon="11.668970610522962"><ele>293.0</ele><time>2026-04-21T15:38:42.999Z</time></trkpt><trkpt lat="43.060956630318" lon="11.66884226677671"><ele>293.0</ele><time>2026-04-21T15:38:43.999Z</time></trkpt><trkpt lat="43.06091923925311" lon="11.668683366883771"><ele>293.0</ele><time>2026-04-21T15:38:44.999Z</time></trkpt><trkpt lat="43.060881322741714" lon="11.668504133919495"><ele>293.0</ele><time>2026-04-21T15:38:45.999Z</time></trkpt><trkpt lat="43.060845570015815" lon="11.668335885083856"><ele>293.0</ele><time>2026-04-21T15:38:46.999Z</time></trkpt><trkpt lat="43.06080198302562" lon="11.668159061273638"><ele>293.0</ele><time>2026-04-21T15:38:47.999Z</time></trkpt><trkpt lat="43.06075627934567" lon="11.667978613762749"><ele>293.0</ele><time>2026-04-21T15:38:48.999Z</time></trkpt><trkpt lat="43.0607117608918" lon="11.66780284578407"><ele>293.0</ele><time>2026-04-21T15:38:49.999Z</time></trkpt><trkpt lat="43.06066559816124" lon="11.667620585852719"><ele>293.0</ele><time>2026-04-21T15:38:50.999Z</time></trkpt><trkpt lat="43.06062009636669" lon="11.667439917067423"><ele>293.25</ele><time>2026-04-21T15:38:51.999Z</time></trkpt><trkpt lat="43.06057352066473" lon="11.667250220082192"><ele>293.5</ele><time>2026-04-21T15:38:52.999Z</time></trkpt><trkpt lat="43.060527548503046" lon="11.667062981238569"><ele>293.75</ele><time>2026-04-21T15:38:53.999Z</time></trkpt><trkpt lat="43.06048233010452" lon="11.666885928307456"><ele>294.0</ele><time>2026-04-21T15:38:54.999Z</time></trkpt><trkpt lat="43.060441765912344" lon="11.666732019465956"><ele>294.0</ele><time>2026-04-21T15:38:55.999Z</time></trkpt><trkpt lat="43.06040655006664" lon="11.666601037726887"><ele>294.0</ele><time>2026-04-21T15:38:56.999Z</time></trkpt><trkpt lat="43.060376739416135" lon="11.666502482027557"><ele>294.0</ele><time>2026-04-21T15:38:57.999Z</time></trkpt><trkpt lat="43.06033977583541" lon="11.666390725908625"><ele>294.0</ele><time>2026-04-21T15:38:59.999Z</time></trkpt><trkpt lat="43.060283906636165" lon="11.666297392252217"><ele>294.0</ele><time>2026-04-21T15:39:42.999Z</time></trkpt><trkpt lat="43.06019891122117" lon="11.666182886094099"><ele>294.0</ele><time>2026-04-21T15:39:44.999Z</time></trkpt><trkpt lat="43.06015007454788" lon="11.666115635882258"><ele>294.0</ele><time>2026-04-21T15:39:45.999Z</time></trkpt><trkpt lat="43.060097499211665" lon="11.666041276002225"><ele>294.0</ele><time>2026-04-21T15:39:46.999Z</time></trkpt><trkpt lat="43.06003720672554" lon="11.665956792678946"><ele>294.0</ele><time>2026-04-21T15:39:47.999Z</time></trkpt><trkpt lat="43.05997314057878" lon="11.66585968870998"><ele>294.0</ele><time>2026-04-21T15:39:48.999Z</time></trkpt><trkpt lat="43.059907359071694" lon="11.665751839189248"><ele>294.0</ele><time>2026-04-21T15:39:49.999Z</time></trkpt><trkpt lat="43.05983568442914" lon="11.665644019839112"><ele>294.25</ele><time>2026-04-21T15:39:50.999Z</time></trkpt><trkpt lat="43.059769211268595" lon="11.665525068769988"><ele>294.5</ele><time>2026-04-21T15:39:51.999Z</time></trkpt><trkpt lat="43.0596759298994" lon="11.665440833829027"><ele>294.75</ele><time>2026-04-21T15:39:52.999Z</time></trkpt><trkpt lat="43.05958445104086" lon="11.665320433422409"><ele>295.0</ele><time>2026-04-21T15:39:53.999Z</time></trkpt><trkpt lat="43.059492166357195" lon="11.6651840581836"><ele>295.0</ele><time>2026-04-21T15:39:54.999Z</time></trkpt><trkpt lat="43.05939583769078" lon="11.66505711658424"><ele>295.0</ele><time>2026-04-21T15:39:55.999Z</time></trkpt><trkpt lat="43.05931340520168" lon="11.66491592802284"><ele>295.0</ele><time>2026-04-21T15:39:56.999Z</time></trkpt><trkpt lat="43.05920946931051" lon="11.664803398161029"><ele>295.0</ele><time>2026-04-21T15:39:57.999Z</time></trkpt><trkpt lat="43.05911577963551" lon="11.664667880017838"><ele>293.5</ele><time>2026-04-21T15:39:58.999Z</time></trkpt><trkpt lat="43.059016734627846" lon="11.664533125646537"><ele>292.0</ele><time>2026-04-21T15:39:59.999Z</time></trkpt><trkpt lat="43.05891323167451" lon="11.66439468460645"><ele>290.5</ele><time>2026-04-21T15:40:00.999Z</time></trkpt><trkpt lat="43.05880956433216" lon="11.664256706056744"><ele>289.0</ele><time>2026-04-21T15:40:01.999Z</time></trkpt><trkpt lat="43.05870971694916" lon="11.66411970204824"><ele>289.0</ele><time>2026-04-21T15:40:02.999Z</time></trkpt><trkpt lat="43.058607794621956" lon="11.66398756588054"><ele>289.0</ele><time>2026-04-21T15:40:03.999Z</time></trkpt><trkpt lat="43.058498417365634" lon="11.663846521833309"><ele>289.0</ele><time>2026-04-21T15:40:04.999Z</time></trkpt><trkpt lat="43.058398878258934" lon="11.663685808907726"><ele>289.0</ele><time>2026-04-21T15:40:05.999Z</time></trkpt><trkpt lat="43.058282864801214" lon="11.663531058638922"><ele>288.66666666666663</ele><time>2026-04-21T15:40:06.999Z</time></trkpt><trkpt lat="43.05816464489242" lon="11.66337507284446"><ele>288.3333333333333</ele><time>2026-04-21T15:40:07.999Z</time></trkpt><trkpt lat="43.0580421742436" lon="11.663213478373521"><ele>288.0</ele><time>2026-04-21T15:40:08.999Z</time></trkpt><trkpt lat="43.057920744922534" lon="11.663055391867582"><ele>288.0</ele><time>2026-04-21T15:40:09.999Z</time></trkpt><trkpt lat="43.05779743677123" lon="11.662895145757886"><ele>288.0</ele><time>2026-04-21T15:40:10.999Z</time></trkpt><trkpt lat="43.057674514061276" lon="11.66273214801441"><ele>288.0</ele><time>2026-04-21T15:40:11.999Z</time></trkpt><trkpt lat="43.05755101528768" lon="11.662564902544947"><ele>288.0</ele><time>2026-04-21T15:40:12.999Z</time></trkpt><trkpt lat="43.057425178911934" lon="11.662395317729603"><ele>288.0</ele><time>2026-04-21T15:40:13.999Z</time></trkpt><trkpt lat="43.057298230561756" lon="11.662226441623124"><ele>288.0</ele><time>2026-04-21T15:40:14.999Z</time></trkpt><trkpt lat="43.057165416726264" lon="11.662085881321623"><ele>287.75</ele><time>2026-04-21T15:40:15.999Z</time></trkpt><trkpt lat="43.05706468734515" lon="11.661924752181662"><ele>287.5</ele><time>2026-04-21T15:40:16.999Z</time></trkpt><trkpt lat="43.056954462996586" lon="11.66181214548541"><ele>287.25</ele><time>2026-04-21T15:40:17.999Z</time></trkpt><trkpt lat="43.05686910290178" lon="11.661715305005414"><ele>287.0</ele><time>2026-04-21T15:40:18.999Z</time></trkpt><trkpt lat="43.05677964607029" lon="11.661643397241932"><ele>287.0</ele><time>2026-04-21T15:40:19.999Z</time></trkpt><trkpt lat="43.05667727410724" lon="11.661600077929801"><ele>287.0</ele><time>2026-04-21T15:40:20.999Z</time></trkpt><trkpt lat="43.05655407037783" lon="11.66156682449527"><ele>287.0</ele><time>2026-04-21T15:40:21.999Z</time></trkpt><trkpt lat="43.056419160436675" lon="11.661546454960874"><ele>287.0</ele><time>2026-04-21T15:40:22.999Z</time></trkpt><trkpt lat="43.05626296971254" lon="11.661513250460683"><ele>287.6666666666667</ele><time>2026-04-21T15:40:23.999Z</time></trkpt><trkpt lat="43.05609860949955" lon="11.661477613908351"><ele>288.3333333333333</ele><time>2026-04-21T15:40:24.999Z</time></trkpt><trkpt lat="43.05592069088715" lon="11.661438491458116"><ele>289.0</ele><time>2026-04-21T15:40:25.999Z</time></trkpt><trkpt lat="43.05573711193074" lon="11.661400340307708"><ele>290.0</ele><time>2026-04-21T15:40:26.999Z</time></trkpt><trkpt lat="43.055556680052135" lon="11.661364354179138"><ele>291.0</ele><time>2026-04-21T15:40:27.999Z</time></trkpt><trkpt lat="43.0553792250337" lon="11.661295049971311"><ele>292.0</ele><time>2026-04-21T15:40:28.999Z</time></trkpt><trkpt lat="43.05521546892451" lon="11.661236342051245"><ele>292.0</ele><time>2026-04-21T15:40:29.999Z</time></trkpt><trkpt lat="43.055053457190034" lon="11.661157491003156"><ele>292.0</ele><time>2026-04-21T15:40:30.999Z</time></trkpt><trkpt lat="43.054891479196975" lon="11.661050914996332"><ele>292.0</ele><time>2026-04-21T15:40:31.999Z</time></trkpt><trkpt lat="43.0547349086387" lon="11.660933986324924"><ele>293.0</ele><time>2026-04-21T15:40:32.999Z</time></trkpt><trkpt lat="43.054598307617624" lon="11.660824279431882"><ele>294.0</ele><time>2026-04-21T15:40:33.999Z</time></trkpt><trkpt lat="43.05449161574608" lon="11.660721557122411"><ele>295.0</ele><time>2026-04-21T15:40:34.999Z</time></trkpt><trkpt lat="43.054403171098706" lon="11.660611548811044"><ele>296.0</ele><time>2026-04-21T15:40:35.999Z</time></trkpt><trkpt lat="43.05432350482851" lon="11.660488935719753"><ele>296.0</ele><time>2026-04-21T15:40:36.999Z</time></trkpt><trkpt lat="43.05425035099616" lon="11.660358697518225"><ele>296.0</ele><time>2026-04-21T15:40:37.999Z</time></trkpt><trkpt lat="43.054177977060526" lon="11.660212395946768"><ele>296.0</ele><time>2026-04-21T15:40:38.999Z</time></trkpt><trkpt lat="43.054099786213406" lon="11.660055103976228"><ele>296.0</ele><time>2026-04-21T15:40:39.999Z</time></trkpt><trkpt lat="43.05401452447384" lon="11.659889205445204"><ele>296.6666666666667</ele><time>2026-04-21T15:40:40.999Z</time></trkpt><trkpt lat="43.05391343819742" lon="11.659726751448956"><ele>297.3333333333333</ele><time>2026-04-21T15:40:41.999Z</time></trkpt><trkpt lat="43.05382319409645" lon="11.659542936229721"><ele>298.0</ele><time>2026-04-21T15:40:42.999Z</time></trkpt><trkpt lat="43.05374591722532" lon="11.659353411707501"><ele>298.0</ele><time>2026-04-21T15:40:43.999Z</time></trkpt><trkpt lat="43.05366013091354" lon="11.659177053540608"><ele>298.0</ele><time>2026-04-21T15:40:44.999Z</time></trkpt><trkpt lat="43.05358332455905" lon="11.659012945707204"><ele>298.0</ele><time>2026-04-21T15:40:45.999Z</time></trkpt><trkpt lat="43.05350881463101" lon="11.658850905321069"><ele>298.0</ele><time>2026-04-21T15:40:46.999Z</time></trkpt><trkpt lat="43.053430537544465" lon="11.658680878424763"><ele>298.0</ele><time>2026-04-21T15:40:47.999Z</time></trkpt><trkpt lat="43.05334789908434" lon="11.658506001477761"><ele>298.0</ele><time>2026-04-21T15:40:48.999Z</time></trkpt><trkpt lat="43.05327010204452" lon="11.658343632809864"><ele>298.0</ele><time>2026-04-21T15:40:49.999Z</time></trkpt><trkpt lat="43.05319434232264" lon="11.658191148217462"><ele>298.0</ele><time>2026-04-21T15:40:50.999Z</time></trkpt><trkpt lat="43.05312499166163" lon="11.658059359089183"><ele>298.0</ele><time>2026-04-21T15:40:51.999Z</time></trkpt><trkpt lat="43.05305781645369" lon="11.657971124921676"><ele>298.0</ele><time>2026-04-21T15:40:52.999Z</time></trkpt><trkpt lat="43.05301161271537" lon="11.657888594239427"><ele>298.0</ele><time>2026-04-21T15:40:53.999Z</time></trkpt><trkpt lat="43.05295635639875" lon="11.657831834095319"><ele>298.0</ele><time>2026-04-21T15:40:55.999Z</time></trkpt><trkpt lat="43.05288459580607" lon="11.65774453404436"><ele>298.0</ele><time>2026-04-21T15:41:19.999Z</time></trkpt><trkpt lat="43.052826786238526" lon="11.657697671820733"><ele>298.0</ele><time>2026-04-21T15:41:20.999Z</time></trkpt><trkpt lat="43.05275090234455" lon="11.657638218161036"><ele>296.6</ele><time>2026-04-21T15:41:21.999Z</time></trkpt><trkpt lat="43.05267140856831" lon="11.657574652356923"><ele>295.20000000000005</ele><time>2026-04-21T15:41:22.999Z</time></trkpt><trkpt lat="43.05257333432854" lon="11.657496789202717"><ele>293.8</ele><time>2026-04-21T15:41:23.999Z</time></trkpt><trkpt lat="43.05248203011925" lon="11.657424454086536"><ele>292.40000000000003</ele><time>2026-04-21T15:41:24.999Z</time></trkpt><trkpt lat="43.052390924341374" lon="11.657351786133122"><ele>291.0</ele><time>2026-04-21T15:41:25.999Z</time></trkpt><trkpt lat="43.052307924371604" lon="11.657285054917343"><ele>291.0</ele><time>2026-04-21T15:41:26.999Z</time></trkpt><trkpt lat="43.05221748978698" lon="11.657213835120084"><ele>291.0</ele><time>2026-04-21T15:41:27.999Z</time></trkpt><trkpt lat="43.052116006833465" lon="11.657138806990726"><ele>291.0</ele><time>2026-04-21T15:41:28.999Z</time></trkpt><trkpt lat="43.052005053758485" lon="11.657061699023004"><ele>291.0</ele><time>2026-04-21T15:41:29.999Z</time></trkpt><trkpt lat="43.051880567590736" lon="11.657015535078527"><ele>289.25</ele><time>2026-04-21T15:41:30.999Z</time></trkpt><trkpt lat="43.05175414258121" lon="11.656939038540008"><ele>287.5</ele><time>2026-04-21T15:41:31.999Z</time></trkpt><trkpt lat="43.051607837486706" lon="11.656891428257456"><ele>285.75</ele><time>2026-04-21T15:41:32.999Z</time></trkpt><trkpt lat="43.05147274808064" lon="11.656854906912649"><ele>284.0</ele><time>2026-04-21T15:41:33.999Z</time></trkpt><trkpt lat="43.05134374480941" lon="11.656826076188558"><ele>283.75</ele><time>2026-04-21T15:41:34.999Z</time></trkpt><trkpt lat="43.05121728718551" lon="11.656812290890368"><ele>283.5</ele><time>2026-04-21T15:41:35.999Z</time></trkpt><trkpt lat="43.051091991345686" lon="11.656834693043402"><ele>283.25</ele><time>2026-04-21T15:41:36.999Z</time></trkpt><trkpt lat="43.05096247423925" lon="11.656830443200004"><ele>283.0</ele><time>2026-04-21T15:41:37.999Z</time></trkpt><trkpt lat="43.050827725054724" lon="11.656860495276995"><ele>283.0</ele><time>2026-04-21T15:41:38.999Z</time></trkpt><trkpt lat="43.050695662602365" lon="11.656893682638694"><ele>283.0</ele><time>2026-04-21T15:41:39.999Z</time></trkpt><trkpt lat="43.05057591423165" lon="11.65694688033974"><ele>283.0</ele><time>2026-04-21T15:41:40.999Z</time></trkpt><trkpt lat="43.05046190585531" lon="11.656975037520128"><ele>283.0</ele><time>2026-04-21T15:41:41.999Z</time></trkpt><trkpt lat="43.0503534205397" lon="11.656989812250616"><ele>283.0</ele><time>2026-04-21T15:41:42.999Z</time></trkpt><trkpt lat="43.050256894789264" lon="11.656991821610164"><ele>283.0</ele><time>2026-04-21T15:41:43.999Z</time></trkpt><trkpt lat="43.05014931874716" lon="11.656958913307307"><ele>283.0</ele><time>2026-04-21T15:41:44.999Z</time></trkpt><trkpt lat="43.05005186062005" lon="11.656853742874473"><ele>283.0</ele><time>2026-04-21T15:41:45.999Z</time></trkpt><trkpt lat="43.04994479750992" lon="11.656746495551145"><ele>282.3333333333333</ele><time>2026-04-21T15:41:46.999Z</time></trkpt><trkpt lat="43.04981091336664" lon="11.656614320269444"><ele>281.6666666666667</ele><time>2026-04-21T15:41:47.999Z</time></trkpt><trkpt lat="43.049665060123765" lon="11.656477784474106"><ele>281.0</ele><time>2026-04-21T15:41:48.999Z</time></trkpt><trkpt lat="43.04951366564889" lon="11.656329304369958"><ele>281.0</ele><time>2026-04-21T15:41:49.999Z</time></trkpt><trkpt lat="43.04937046352358" lon="11.656154295696034"><ele>281.0</ele><time>2026-04-21T15:41:50.999Z</time></trkpt><trkpt lat="43.049218341084966" lon="11.65599539528592"><ele>281.0</ele><time>2026-04-21T15:41:51.999Z</time></trkpt><trkpt lat="43.049058127282464" lon="11.655835816297152"><ele>280.33333333333337</ele><time>2026-04-21T15:41:52.999Z</time></trkpt><trkpt lat="43.048894716239836" lon="11.655674605969104"><ele>279.6666666666667</ele><time>2026-04-21T15:41:53.999Z</time></trkpt><trkpt lat="43.0487279815227" lon="11.655534491583612"><ele>279.0</ele><time>2026-04-21T15:41:54.999Z</time></trkpt><trkpt lat="43.04858864456611" lon="11.655397147652726"><ele>279.5</ele><time>2026-04-21T15:41:55.999Z</time></trkpt><trkpt lat="43.04845960661745" lon="11.655266670514651"><ele>280.0</ele><time>2026-04-21T15:41:56.999Z</time></trkpt><trkpt lat="43.048341726533494" lon="11.655144856954877"><ele>280.5</ele><time>2026-04-21T15:41:57.999Z</time></trkpt><trkpt lat="43.048242345121835" lon="11.655016368738286"><ele>281.0</ele><time>2026-04-21T15:41:58.999Z</time></trkpt><trkpt lat="43.048142413666575" lon="11.654907956288216"><ele>281.0</ele><time>2026-04-21T15:41:59.999Z</time></trkpt><trkpt lat="43.04804181039131" lon="11.654810202428376"><ele>281.0</ele><time>2026-04-21T15:42:00.999Z</time></trkpt><trkpt lat="43.04793744525191" lon="11.654716242204767"><ele>281.0</ele><time>2026-04-21T15:42:01.999Z</time></trkpt><trkpt lat="43.047829053762456" lon="11.654662680075573"><ele>281.0</ele><time>2026-04-21T15:42:02.999Z</time></trkpt><trkpt lat="43.04773100099683" lon="11.654608301240023"><ele>281.0</ele><time>2026-04-21T15:42:03.999Z</time></trkpt><trkpt lat="43.047629424129866" lon="11.654589602986505"><ele>281.0</ele><time>2026-04-21T15:42:04.999Z</time></trkpt><trkpt lat="43.04749991880049" lon="11.654602281425824"><ele>281.0</ele><time>2026-04-21T15:42:05.999Z</time></trkpt><trkpt lat="43.04735740426554" lon="11.654623053066965"><ele>281.0</ele><time>2026-04-21T15:42:06.999Z</time></trkpt><trkpt lat="43.04720859301572" lon="11.654636763040855"><ele>281.0</ele><time>2026-04-21T15:42:07.999Z</time></trkpt><trkpt lat="43.04706212548325" lon="11.654664807262797"><ele>281.0</ele><time>2026-04-21T15:42:08.999Z</time></trkpt><trkpt lat="43.04692121118663" lon="11.654680449026127"><ele>281.0</ele><time>2026-04-21T15:42:09.999Z</time></trkpt><trkpt lat="43.04680032025813" lon="11.65469766597737"><ele>281.0</ele><time>2026-04-21T15:42:10.999Z</time></trkpt><trkpt lat="43.04668736385083" lon="11.654701448757606"><ele>280.25</ele><time>2026-04-21T15:42:11.999Z</time></trkpt><trkpt lat="43.046586020038504" lon="11.654705033788746"><ele>279.5</ele><time>2026-04-21T15:42:12.999Z</time></trkpt><trkpt lat="43.04636935322937" lon="11.654671530933166"><ele>278.75</ele><time>2026-04-21T15:42:14.999Z</time></trkpt><trkpt lat="43.04628483915478" lon="11.654613052346003"><ele>278.0</ele><time>2026-04-21T15:42:15.999Z</time></trkpt><trkpt lat="43.046227957364735" lon="11.654509087466975"><ele>278.8</ele><time>2026-04-21T15:42:16.999Z</time></trkpt><trkpt lat="43.04617202213088" lon="11.65441826771576"><ele>279.6</ele><time>2026-04-21T15:42:17.999Z</time></trkpt><trkpt lat="43.04610965837649" lon="11.654305522271173"><ele>280.4</ele><time>2026-04-21T15:42:18.999Z</time></trkpt><trkpt lat="43.04604446137486" lon="11.65420920290189"><ele>281.2</ele><time>2026-04-21T15:42:19.999Z</time></trkpt><trkpt lat="43.04598009710764" lon="11.654091453463622"><ele>282.0</ele><time>2026-04-21T15:42:20.999Z</time></trkpt><trkpt lat="43.04590859372873" lon="11.653952095328467"><ele>282.0</ele><time>2026-04-21T15:42:21.999Z</time></trkpt><trkpt lat="43.04584160505178" lon="11.65378072667663"><ele>282.0</ele><time>2026-04-21T15:42:22.999Z</time></trkpt><trkpt lat="43.04574445978581" lon="11.653614442160963"><ele>282.0</ele><time>2026-04-21T15:42:23.999Z</time></trkpt><trkpt lat="43.045645476740965" lon="11.653431810287818"><ele>284.6666666666667</ele><time>2026-04-21T15:42:24.999Z</time></trkpt><trkpt lat="43.04553509859436" lon="11.65321554363107"><ele>287.33333333333337</ele><time>2026-04-21T15:42:25.999Z</time></trkpt><trkpt lat="43.04541933513023" lon="11.65299359812939"><ele>290.0</ele><time>2026-04-21T15:42:26.999Z</time></trkpt><trkpt lat="43.04530712421835" lon="11.652777659038174"><ele>290.33333333333337</ele><time>2026-04-21T15:42:27.999Z</time></trkpt><trkpt lat="43.045199144141066" lon="11.652569289365317"><ele>290.6666666666667</ele><time>2026-04-21T15:42:29Z</time></trkpt><trkpt lat="43.04512202197091" lon="11.652360925823496"><ele>291.0</ele><time>2026-04-21T15:42:30Z</time></trkpt><trkpt lat="43.04503999819492" lon="11.652192125950062"><ele>291.5</ele><time>2026-04-21T15:42:31Z</time></trkpt><trkpt lat="43.044953281299236" lon="11.652056791875143"><ele>292.0</ele><time>2026-04-21T15:42:32Z</time></trkpt><trkpt lat="43.044853846484834" lon="11.651960906451116"><ele>292.5</ele><time>2026-04-21T15:42:33Z</time></trkpt><trkpt lat="43.044752467961416" lon="11.65187333668643"><ele>293.0</ele><time>2026-04-21T15:42:34Z</time></trkpt><trkpt lat="43.04465022454664" lon="11.651804552017952"><ele>293.0</ele><time>2026-04-21T15:42:35Z</time></trkpt><trkpt lat="43.04455431870815" lon="11.651744828929479"><ele>293.0</ele><time>2026-04-21T15:42:36Z</time></trkpt><trkpt lat="43.04446642988564" lon="11.651689452971304"><ele>293.0</ele><time>2026-04-21T15:42:37Z</time></trkpt><trkpt lat="43.044397606154035" lon="11.65160411930864"><ele>293.0</ele><time>2026-04-21T15:42:38Z</time></trkpt><trkpt lat="43.04433500115967" lon="11.651526875419332"><ele>293.0</ele><time>2026-04-21T15:42:39Z</time></trkpt><trkpt lat="43.04427882070568" lon="11.651413915777493"><ele>293.0</ele><time>2026-04-21T15:42:40Z</time></trkpt><trkpt lat="43.044217662597774" lon="11.651275483905014"><ele>293.0</ele><time>2026-04-21T15:42:41Z</time></trkpt><trkpt lat="43.044146106575376" lon="11.65111213808791"><ele>293.0</ele><time>2026-04-21T15:42:42Z</time></trkpt><trkpt lat="43.04407005286391" lon="11.650938995755997"><ele>293.0</ele><time>2026-04-21T15:42:43Z</time></trkpt><trkpt lat="43.04399177614197" lon="11.650764302671682"><ele>292.6666666666667</ele><time>2026-04-21T15:42:44Z</time></trkpt><trkpt lat="43.043906021897925" lon="11.650582691202093"><ele>292.3333333333333</ele><time>2026-04-21T15:42:45Z</time></trkpt><trkpt lat="43.04382114438751" lon="11.650402936425817"><ele>292.0</ele><time>2026-04-21T15:42:46Z</time></trkpt><trkpt lat="43.04372873060463" lon="11.650206408755258"><ele>290.66666666666663</ele><time>2026-04-21T15:42:47Z</time></trkpt><trkpt lat="43.04363527002835" lon="11.650005338306741"><ele>289.3333333333333</ele><time>2026-04-21T15:42:48Z</time></trkpt><trkpt lat="43.0435418875119" lon="11.649804436021554"><ele>288.0</ele><time>2026-04-21T15:42:49Z</time></trkpt><trkpt lat="43.043449656059344" lon="11.64960600990824"><ele>288.0</ele><time>2026-04-21T15:42:50Z</time></trkpt><trkpt lat="43.04336561265108" lon="11.64942437306354"><ele>288.0</ele><time>2026-04-21T15:42:51Z</time></trkpt><trkpt lat="43.04328479865356" lon="11.649247297076167"><ele>288.0</ele><time>2026-04-21T15:42:52Z</time></trkpt><trkpt lat="43.043206036832366" lon="11.649080852302072"><ele>288.0</ele><time>2026-04-21T15:42:53Z</time></trkpt><trkpt lat="43.04312018446364" lon="11.648933040734272"><ele>288.0</ele><time>2026-04-21T15:42:54Z</time></trkpt><trkpt lat="43.04301911818677" lon="11.64880074636013"><ele>288.0</ele><time>2026-04-21T15:42:55Z</time></trkpt><trkpt lat="43.04289605771742" lon="11.648685432459146"><ele>288.0</ele><time>2026-04-21T15:42:56Z</time></trkpt><trkpt lat="43.04274977362242" lon="11.64861150329581"><ele>286.0</ele><time>2026-04-21T15:42:57Z</time></trkpt><trkpt lat="43.042608599106714" lon="11.648507934728613"><ele>284.0</ele><time>2026-04-21T15:42:58Z</time></trkpt><trkpt lat="43.04244834536509" lon="11.648420307896894"><ele>282.0</ele><time>2026-04-21T15:42:59Z</time></trkpt><trkpt lat="43.04228445724052" lon="11.648330693666468"><ele>281.3333333333333</ele><time>2026-04-21T15:43:00Z</time></trkpt><trkpt lat="43.04213205774859" lon="11.648266601926364"><ele>280.66666666666663</ele><time>2026-04-21T15:43:01Z</time></trkpt><trkpt lat="43.04200214875071" lon="11.648167916567637"><ele>280.0</ele><time>2026-04-21T15:43:02Z</time></trkpt><trkpt lat="43.041867584872165" lon="11.64808303770896"><ele>280.0</ele><time>2026-04-21T15:43:03Z</time></trkpt><trkpt lat="43.0417431346529" lon="11.648008182074923"><ele>280.0</ele><time>2026-04-21T15:43:04Z</time></trkpt><trkpt lat="43.041633297096276" lon="11.647951141238986"><ele>280.0</ele><time>2026-04-21T15:43:05Z</time></trkpt><trkpt lat="43.0415371568284" lon="11.647910526785273"><ele>280.0</ele><time>2026-04-21T15:43:06Z</time></trkpt><trkpt lat="43.04144468107883" lon="11.647887517226271"><ele>280.0</ele><time>2026-04-21T15:43:07Z</time></trkpt><trkpt lat="43.04133437441295" lon="11.647894261668572"><ele>279.0</ele><time>2026-04-21T15:43:08Z</time></trkpt><trkpt lat="43.04120374051138" lon="11.647928778207616"><ele>278.0</ele><time>2026-04-21T15:43:09Z</time></trkpt><trkpt lat="43.0410543547683" lon="11.647970718712521"><ele>277.0</ele><time>2026-04-21T15:43:10Z</time></trkpt><trkpt lat="43.04089548854421" lon="11.64801780718869"><ele>276.0</ele><time>2026-04-21T15:43:11Z</time></trkpt><trkpt lat="43.04072730788883" lon="11.648066434422843"><ele>275.0</ele><time>2026-04-21T15:43:12Z</time></trkpt><trkpt lat="43.04056752432596" lon="11.648110471840425"><ele>274.0</ele><time>2026-04-21T15:43:13Z</time></trkpt><trkpt lat="43.040421188819195" lon="11.64815014975011"><ele>273.0</ele><time>2026-04-21T15:43:14Z</time></trkpt><trkpt lat="43.04028719247047" lon="11.648186606487812"><ele>272.0</ele><time>2026-04-21T15:43:15Z</time></trkpt><trkpt lat="43.040159467503045" lon="11.648223091993577"><ele>272.0</ele><time>2026-04-21T15:43:16Z</time></trkpt><trkpt lat="43.04003057711085" lon="11.648259470191615"><ele>272.0</ele><time>2026-04-21T15:43:17Z</time></trkpt><trkpt lat="43.039902009292504" lon="11.648315276241101"><ele>272.0</ele><time>2026-04-21T15:43:18Z</time></trkpt><trkpt lat="43.03976741107311" lon="11.64833734306206"><ele>272.0</ele><time>2026-04-21T15:43:19Z</time></trkpt><trkpt lat="43.039633680847075" lon="11.648368215891953"><ele>271.4</ele><time>2026-04-21T15:43:20Z</time></trkpt><trkpt lat="43.03951486508973" lon="11.648353256358988"><ele>270.79999999999995</ele><time>2026-04-21T15:43:21Z</time></trkpt><trkpt lat="43.03942900635156" lon="11.648345674689985"><ele>270.2</ele><time>2026-04-21T15:43:22Z</time></trkpt><trkpt lat="43.039360575295674" lon="11.648351865417197"><ele>269.59999999999997</ele><time>2026-04-21T15:43:23Z</time></trkpt><trkpt lat="43.03926612100628" lon="11.648319270297886"><ele>269.0</ele><time>2026-04-21T15:43:25Z</time></trkpt><trkpt lat="43.03935814559038" lon="11.648335688163549"><ele>269.0</ele><time>2026-04-21T15:43:42Z</time></trkpt><trkpt lat="43.03945284675021" lon="11.648348003091323"><ele>269.0</ele><time>2026-04-21T15:43:44Z</time></trkpt><trkpt lat="43.03949808731095" lon="11.648011095270874"><ele>269.0</ele><time>2026-04-21T15:44:40Z</time></trkpt><trkpt lat="43.03950843049626" lon="11.647905392480741"><ele>269.0</ele><time>2026-04-21T15:44:41Z</time></trkpt><trkpt lat="43.03952626890314" lon="11.647793242391625"><ele>269.33333333333337</ele><time>2026-04-21T15:44:42Z</time></trkpt><trkpt lat="43.0395402126494" lon="11.647683281655306"><ele>269.6666666666667</ele><time>2026-04-21T15:44:43Z</time></trkpt><trkpt lat="43.03954724592609" lon="11.64759007775099"><ele>270.0</ele><time>2026-04-21T15:44:44Z</time></trkpt><trkpt lat="43.03953027158308" lon="11.647501051575516"><ele>270.3333333333333</ele><time>2026-04-21T15:44:45Z</time></trkpt><trkpt lat="43.03949613213402" lon="11.647407856465563"><ele>270.66666666666663</ele><time>2026-04-21T15:44:46Z</time></trkpt><trkpt lat="43.03946021113064" lon="11.647318609737003"><ele>271.0</ele><time>2026-04-21T15:44:47Z</time></trkpt><trkpt lat="43.03940586786063" lon="11.647177032743445"><ele>271.0</ele><time>2026-04-21T15:44:49Z</time></trkpt><trkpt lat="43.03938604058125" lon="11.6470689808608"><ele>271.0</ele><time>2026-04-21T15:44:50Z</time></trkpt><trkpt lat="43.03938024843389" lon="11.646971119482165"><ele>271.0</ele><time>2026-04-21T15:44:51Z</time></trkpt><trkpt lat="43.039372892679964" lon="11.646868361377987"><ele>271.0</ele><time>2026-04-21T15:44:52Z</time></trkpt><trkpt lat="43.03935725982073" lon="11.646750773636006"><ele>271.0</ele><time>2026-04-21T15:44:53Z</time></trkpt><trkpt lat="43.039330279342664" lon="11.646638089998985"><ele>271.0</ele><time>2026-04-21T15:44:54Z</time></trkpt><trkpt lat="43.03931140329007" lon="11.646506420079866"><ele>272.6</ele><time>2026-04-21T15:44:55Z</time></trkpt><trkpt lat="43.03929390755587" lon="11.646367221229996"><ele>274.20000000000005</ele><time>2026-04-21T15:44:56Z</time></trkpt><trkpt lat="43.039279341070305" lon="11.646252706033037"><ele>275.79999999999995</ele><time>2026-04-21T15:44:57Z</time></trkpt><trkpt lat="43.03925436703173" lon="11.646129912073746"><ele>277.4</ele><time>2026-04-21T15:44:58Z</time></trkpt><trkpt lat="43.039227828702195" lon="11.646017306144573"><ele>279.0</ele><time>2026-04-21T15:44:59Z</time></trkpt><trkpt lat="43.039198275370595" lon="11.645905062609119"><ele>280.59999999999997</ele><time>2026-04-21T15:45:00Z</time></trkpt><trkpt lat="43.03914480415486" lon="11.645706200928846"><ele>282.2</ele><time>2026-04-21T15:45:02Z</time></trkpt><trkpt lat="43.039136281869666" lon="11.645585181034505"><ele>283.79999999999995</ele><time>2026-04-21T15:45:04Z</time></trkpt><trkpt lat="43.039134252860734" lon="11.645671903792092"><ele>285.4</ele><time>2026-04-21T15:45:42Z</time></trkpt><trkpt lat="43.03917672250272" lon="11.64578861756623"><ele>287.0</ele><time>2026-04-21T15:45:44Z</time></trkpt><trkpt lat="43.039203048478804" lon="11.645884292443082"><ele>287.0</ele><time>2026-04-21T15:45:45Z</time></trkpt><trkpt lat="43.039228940097864" lon="11.645974832080514"><ele>287.0</ele><time>2026-04-21T15:45:46Z</time></trkpt><trkpt lat="43.039254273128876" lon="11.646095660223938"><ele>287.0</ele><time>2026-04-21T15:45:48Z</time></trkpt><trkpt lat="43.03928298914294" lon="11.646217289329204"><ele>287.0</ele><time>2026-04-21T15:45:50Z</time></trkpt><trkpt lat="43.03930030154383" lon="11.646371606738759"><ele>287.0</ele><time>2026-04-21T15:45:52Z</time></trkpt><trkpt lat="43.03931401715109" lon="11.646499461280465"><ele>285.6666666666667</ele><time>2026-04-21T15:45:54Z</time></trkpt><trkpt lat="43.0393290290766" lon="11.64659125804448"><ele>284.33333333333337</ele><time>2026-04-21T15:45:55Z</time></trkpt><trkpt lat="43.039349777786214" lon="11.646697666365728"><ele>283.0</ele><time>2026-04-21T15:45:56Z</time></trkpt><trkpt lat="43.03936688561462" lon="11.646803023581436"><ele>281.6666666666667</ele><time>2026-04-21T15:45:57Z</time></trkpt><trkpt lat="43.03939162837359" lon="11.64697906717574"><ele>280.3333333333333</ele><time>2026-04-21T15:45:59Z</time></trkpt><trkpt lat="43.03940353979096" lon="11.647071900870461"><ele>279.0</ele><time>2026-04-21T15:46:00Z</time></trkpt><trkpt lat="43.03941049371661" lon="11.647158429008268"><ele>277.6666666666667</ele><time>2026-04-21T15:46:01Z</time></trkpt><trkpt lat="43.03944801037027" lon="11.647324679825813"><ele>276.3333333333333</ele><time>2026-04-21T15:46:03Z</time></trkpt><trkpt lat="43.03948863336666" lon="11.647412043077757"><ele>275.0</ele><time>2026-04-21T15:46:04Z</time></trkpt><trkpt lat="43.03952691028288" lon="11.64750394044145"><ele>273.66666666666663</ele><time>2026-04-21T15:46:05Z</time></trkpt><trkpt lat="43.03955441115849" lon="11.647605454226568"><ele>272.3333333333333</ele><time>2026-04-21T15:46:06Z</time></trkpt><trkpt lat="43.03955570403466" lon="11.647692577417322"><ele>271.0</ele><time>2026-04-21T15:46:07Z</time></trkpt><trkpt lat="43.039539376185964" lon="11.647789828419286"><ele>270.66666666666663</ele><time>2026-04-21T15:46:08Z</time></trkpt><trkpt lat="43.03951893733657" lon="11.64789431136733"><ele>270.3333333333333</ele><time>2026-04-21T15:46:09Z</time></trkpt><trkpt lat="43.03949959681477" lon="11.647995999739525"><ele>270.0</ele><time>2026-04-21T15:46:10Z</time></trkpt><trkpt lat="43.03948457405358" lon="11.648085564742347"><ele>269.6666666666667</ele><time>2026-04-21T15:46:11Z</time></trkpt><trkpt lat="43.039467419936535" lon="11.648238498557053"><ele>269.33333333333337</ele><time>2026-04-21T15:46:13Z</time></trkpt><trkpt lat="43.039441331002" lon="11.64834928417406"><ele>269.0</ele><time>2026-04-21T15:46:15Z</time></trkpt><trkpt lat="43.03931468406686" lon="11.648354558765174"><ele>269.0</ele><time>2026-04-21T15:46:18Z</time></trkpt><trkpt lat="43.039228960453364" lon="11.64832493271313"><ele>269.0</ele><time>2026-04-21T15:46:19Z</time></trkpt><trkpt lat="43.03912732063406" lon="11.6482977546779"><ele>269.0</ele><time>2026-04-21T15:46:20Z</time></trkpt><trkpt lat="43.03901341036891" lon="11.64826655498288"><ele>269.0</ele><time>2026-04-21T15:46:21Z</time></trkpt><trkpt lat="43.038894703149815" lon="11.648234794473648"><ele>269.0</ele><time>2026-04-21T15:46:22Z</time></trkpt><trkpt lat="43.03877988396917" lon="11.648200204618101"><ele>269.0</ele><time>2026-04-21T15:46:23Z</time></trkpt><trkpt lat="43.03867059416755" lon="11.648161264982313"><ele>269.0</ele><time>2026-04-21T15:46:24Z</time></trkpt><trkpt lat="43.03856552845428" lon="11.64807628276113"><ele>269.0</ele><time>2026-04-21T15:46:25Z</time></trkpt><trkpt lat="43.03844665255654" lon="11.64801879241166"><ele>269.0</ele><time>2026-04-21T15:46:26Z</time></trkpt><trkpt lat="43.03833111581683" lon="11.647927143146827"><ele>268.75</ele><time>2026-04-21T15:46:27Z</time></trkpt><trkpt lat="43.0382079253777" lon="11.647823576732076"><ele>268.5</ele><time>2026-04-21T15:46:28Z</time></trkpt><trkpt lat="43.03807777045829" lon="11.647722063388393"><ele>268.25</ele><time>2026-04-21T15:46:29Z</time></trkpt><trkpt lat="43.037946141293034" lon="11.647617205929558"><ele>268.0</ele><time>2026-04-21T15:46:30Z</time></trkpt><trkpt lat="43.03781725036774" lon="11.64750264520249"><ele>267.3333333333333</ele><time>2026-04-21T15:46:31Z</time></trkpt><trkpt lat="43.03769301781513" lon="11.64737915995533"><ele>266.6666666666667</ele><time>2026-04-21T15:46:32Z</time></trkpt><trkpt lat="43.03755230747538" lon="11.647286563224478"><ele>266.0</ele><time>2026-04-21T15:46:33Z</time></trkpt><trkpt lat="43.037428947189994" lon="11.647181929295039"><ele>266.0</ele><time>2026-04-21T15:46:34Z</time></trkpt><trkpt lat="43.03730496902789" lon="11.647082824831502"><ele>266.0</ele><time>2026-04-21T15:46:35Z</time></trkpt><trkpt lat="43.0371838778357" lon="11.6469945532448"><ele>266.0</ele><time>2026-04-21T15:46:36Z</time></trkpt><trkpt lat="43.03704887488205" lon="11.646908148526437"><ele>266.0</ele><time>2026-04-21T15:46:37Z</time></trkpt><trkpt lat="43.036904445452265" lon="11.646830890350483"><ele>265.6666666666667</ele><time>2026-04-21T15:46:38Z</time></trkpt><trkpt lat="43.03675525831909" lon="11.646758700739017"><ele>265.3333333333333</ele><time>2026-04-21T15:46:39Z</time></trkpt><trkpt lat="43.0366033318549" lon="11.646693845074603"><ele>265.0</ele><time>2026-04-21T15:46:40Z</time></trkpt><trkpt lat="43.036452843786" lon="11.646617530457863"><ele>265.0</ele><time>2026-04-21T15:46:41Z</time></trkpt><trkpt lat="43.03630380594439" lon="11.646541934055964"><ele>265.0</ele><time>2026-04-21T15:46:42Z</time></trkpt><trkpt lat="43.036159532723744" lon="11.646466150688711"><ele>265.0</ele><time>2026-04-21T15:46:43Z</time></trkpt><trkpt lat="43.03602901015046" lon="11.646359684761013"><ele>265.0</ele><time>2026-04-21T15:46:44Z</time></trkpt><trkpt lat="43.0358873500155" lon="11.646270528552712"><ele>265.0</ele><time>2026-04-21T15:46:45Z</time></trkpt><trkpt lat="43.0357711761346" lon="11.646126273452428"><ele>265.0</ele><time>2026-04-21T15:46:46Z</time></trkpt><trkpt lat="43.0356376568368" lon="11.646001861965845"><ele>265.0</ele><time>2026-04-21T15:46:47Z</time></trkpt><trkpt lat="43.03552711185735" lon="11.645866580862563"><ele>265.0</ele><time>2026-04-21T15:46:48Z</time></trkpt><trkpt lat="43.035425259444985" lon="11.645742636415875"><ele>265.0</ele><time>2026-04-21T15:46:49Z</time></trkpt><trkpt lat="43.03532918152911" lon="11.64563361463959"><ele>265.0</ele><time>2026-04-21T15:46:50Z</time></trkpt><trkpt lat="43.035243185524926" lon="11.645533003974297"><ele>265.0</ele><time>2026-04-21T15:46:51Z</time></trkpt><trkpt lat="43.03516375503313" lon="11.645441592258296"><ele>265.0</ele><time>2026-04-21T15:46:52Z</time></trkpt><trkpt lat="43.03509258127754" lon="11.645362291767059"><ele>265.0</ele><time>2026-04-21T15:46:53Z</time></trkpt><trkpt lat="43.03502126835912" lon="11.645280849812583"><ele>265.0</ele><time>2026-04-21T15:46:54Z</time></trkpt><trkpt lat="43.0349560601693" lon="11.645204739650334"><ele>265.0</ele><time>2026-04-21T15:46:55Z</time></trkpt><trkpt lat="43.034903835634914" lon="11.645128776304905"><ele>264.4</ele><time>2026-04-21T15:46:56Z</time></trkpt><trkpt lat="43.034838510240206" lon="11.645109106864297"><ele>263.8</ele><time>2026-04-21T15:47:14Z</time></trkpt><trkpt lat="43.03483466225657" lon="11.644976263590033"><ele>263.2</ele><time>2026-04-21T15:47:15Z</time></trkpt><trkpt lat="43.034829008598685" lon="11.644859683679298"><ele>262.6</ele><time>2026-04-21T15:47:16Z</time></trkpt><trkpt lat="43.03480615761546" lon="11.64472541881318"><ele>262.0</ele><time>2026-04-21T15:47:17Z</time></trkpt><trkpt lat="43.03476020167556" lon="11.644555924324449"><ele>262.0</ele><time>2026-04-21T15:47:18Z</time></trkpt><trkpt lat="43.03472634528164" lon="11.644359326247033"><ele>262.0</ele><time>2026-04-21T15:47:19Z</time></trkpt><trkpt lat="43.03468190983952" lon="11.644131104966489"><ele>262.0</ele><time>2026-04-21T15:47:20Z</time></trkpt><trkpt lat="43.034634666010426" lon="11.643877452768466"><ele>262.0</ele><time>2026-04-21T15:47:21Z</time></trkpt><trkpt lat="43.03458349748451" lon="11.643586906815493"><ele>262.0</ele><time>2026-04-21T15:47:22Z</time></trkpt><trkpt lat="43.03452391897973" lon="11.643269399174217"><ele>262.0</ele><time>2026-04-21T15:47:23Z</time></trkpt><trkpt lat="43.03445980134349" lon="11.64292575426757"><ele>262.0</ele><time>2026-04-21T15:47:24Z</time></trkpt><trkpt lat="43.03439699143758" lon="11.642579571137206"><ele>262.0</ele><time>2026-04-21T15:47:25Z</time></trkpt><trkpt lat="43.03432721970717" lon="11.642218453331266"><ele>262.0</ele><time>2026-04-21T15:47:26Z</time></trkpt><trkpt lat="43.03425627809777" lon="11.641846082667348"><ele>262.0</ele><time>2026-04-21T15:47:27Z</time></trkpt><trkpt lat="43.034184043349605" lon="11.641469279152306"><ele>262.0</ele><time>2026-04-21T15:47:28Z</time></trkpt><trkpt lat="43.034115494933054" lon="11.641098051643608"><ele>261.0</ele><time>2026-04-21T15:47:29Z</time></trkpt><trkpt lat="43.03404434175962" lon="11.640716459968385"><ele>260.0</ele><time>2026-04-21T15:47:30Z</time></trkpt><trkpt lat="43.0339734999853" lon="11.640341456948418"><ele>260.0</ele><time>2026-04-21T15:47:31Z</time></trkpt><trkpt lat="43.03390703590125" lon="11.639999041017393"><ele>260.0</ele><time>2026-04-21T15:47:32Z</time></trkpt><trkpt lat="43.033845615231876" lon="11.639673601896753"><ele>260.0</ele><time>2026-04-21T15:47:33Z</time></trkpt><trkpt lat="43.03378866144469" lon="11.639371251088873"><ele>260.0</ele><time>2026-04-21T15:47:34Z</time></trkpt><trkpt lat="43.03373538176491" lon="11.63907511119642"><ele>260.0</ele><time>2026-04-21T15:47:35Z</time></trkpt><trkpt lat="43.03368332968442" lon="11.638788052205227"><ele>260.0</ele><time>2026-04-21T15:47:36Z</time></trkpt><trkpt lat="43.033632500863504" lon="11.638496169843535"><ele>260.0</ele><time>2026-04-21T15:47:37Z</time></trkpt><trkpt lat="43.03358717274552" lon="11.638195734968157"><ele>260.33333333333337</ele><time>2026-04-21T15:47:38Z</time></trkpt><trkpt lat="43.03357335970116" lon="11.637890661600613"><ele>260.6666666666667</ele><time>2026-04-21T15:47:39Z</time></trkpt><trkpt lat="43.03354090797535" lon="11.637588095438588"><ele>261.0</ele><time>2026-04-21T15:47:40Z</time></trkpt><trkpt lat="43.03353217052344" lon="11.637296034558748"><ele>261.3333333333333</ele><time>2026-04-21T15:47:41Z</time></trkpt><trkpt lat="43.03351981983508" lon="11.637022367348221"><ele>261.66666666666663</ele><time>2026-04-21T15:47:42Z</time></trkpt><trkpt lat="43.03349962474236" lon="11.636758156128144"><ele>262.0</ele><time>2026-04-21T15:47:43Z</time></trkpt><trkpt lat="43.03347665758514" lon="11.63651687370339"><ele>261.3333333333333</ele><time>2026-04-21T15:47:44Z</time></trkpt><trkpt lat="43.03346543028302" lon="11.636268428736841"><ele>260.6666666666667</ele><time>2026-04-21T15:47:45Z</time></trkpt><trkpt lat="43.033456502659824" lon="11.636043570455966"><ele>260.0</ele><time>2026-04-21T15:47:46Z</time></trkpt><trkpt lat="43.03345019308285" lon="11.635823205201476"><ele>260.0</ele><time>2026-04-21T15:47:47Z</time></trkpt><trkpt lat="43.033449527717096" lon="11.63560974549875"><ele>260.0</ele><time>2026-04-21T15:47:48Z</time></trkpt><trkpt lat="43.03345900643866" lon="11.635404550707422"><ele>260.0</ele><time>2026-04-21T15:47:49Z</time></trkpt><trkpt lat="43.03347699968068" lon="11.635208825360737"><ele>259.5</ele><time>2026-04-21T15:47:50Z</time></trkpt><trkpt lat="43.03350056404539" lon="11.635019665909397"><ele>259.0</ele><time>2026-04-21T15:47:51Z</time></trkpt><trkpt lat="43.03352394641134" lon="11.634856160242443"><ele>258.5</ele><time>2026-04-21T15:47:52Z</time></trkpt><trkpt lat="43.033539387197905" lon="11.634734172773456"><ele>258.0</ele><time>2026-04-21T15:47:53Z</time></trkpt><trkpt lat="43.03347916920646" lon="11.634964293282689"><ele>258.0</ele><time>2026-04-21T15:48:00Z</time></trkpt><trkpt lat="43.03346685448735" lon="11.63515516901607"><ele>258.0</ele><time>2026-04-21T15:48:01Z</time></trkpt><trkpt lat="43.0334500457491" lon="11.635354394977707"><ele>258.0</ele><time>2026-04-21T15:48:02Z</time></trkpt><trkpt lat="43.03343624718482" lon="11.635558967954603"><ele>258.0</ele><time>2026-04-21T15:48:03Z</time></trkpt><trkpt lat="43.03342760619438" lon="11.635773807455955"><ele>258.5</ele><time>2026-04-21T15:48:04Z</time></trkpt><trkpt lat="43.03342764940556" lon="11.635978488833981"><ele>259.0</ele><time>2026-04-21T15:48:05Z</time></trkpt><trkpt lat="43.033437831292304" lon="11.63616094221453"><ele>259.5</ele><time>2026-04-21T15:48:06Z</time></trkpt><trkpt lat="43.03345116202751" lon="11.636331245934329"><ele>260.0</ele><time>2026-04-21T15:48:07Z</time></trkpt><trkpt lat="43.03346306863593" lon="11.636511636977492"><ele>260.0</ele><time>2026-04-21T15:48:08Z</time></trkpt><trkpt lat="43.033473850943196" lon="11.636700040369385"><ele>260.0</ele><time>2026-04-21T15:48:09Z</time></trkpt><trkpt lat="43.033483816065285" lon="11.636888111713759"><ele>260.0</ele><time>2026-04-21T15:48:10Z</time></trkpt><trkpt lat="43.033493301880185" lon="11.637066223045807"><ele>260.0</ele><time>2026-04-21T15:48:11Z</time></trkpt><trkpt lat="43.03350222902351" lon="11.637226871280822"><ele>260.4</ele><time>2026-04-21T15:48:12Z</time></trkpt><trkpt lat="43.03351221784175" lon="11.637363045362545"><ele>260.8</ele><time>2026-04-21T15:48:13Z</time></trkpt><trkpt lat="43.0335183659047" lon="11.63749920948572"><ele>261.2</ele><time>2026-04-21T15:48:14Z</time></trkpt><trkpt lat="43.03352860545211" lon="11.637618858341197"><ele>261.6</ele><time>2026-04-21T15:48:15Z</time></trkpt><trkpt lat="43.033531506269135" lon="11.63775581231232"><ele>262.0</ele><time>2026-04-21T15:48:17Z</time></trkpt><trkpt lat="43.03371584042798" lon="11.637754431939246"><ele>262.0</ele><time>2026-04-21T15:48:37Z</time></trkpt><trkpt lat="43.03379079636515" lon="11.637716002784819"><ele>262.0</ele><time>2026-04-21T15:48:38Z</time></trkpt><trkpt lat="43.03387742600223" lon="11.637659507751705"><ele>262.0</ele><time>2026-04-21T15:48:39Z</time></trkpt><trkpt lat="43.033992783390566" lon="11.637627097468354"><ele>262.0</ele><time>2026-04-21T15:48:40Z</time></trkpt><trkpt lat="43.03412085678767" lon="11.637592340089457"><ele>262.0</ele><time>2026-04-21T15:48:41Z</time></trkpt><trkpt lat="43.03425632694528" lon="11.637583518454468"><ele>262.75</ele><time>2026-04-21T15:48:42Z</time></trkpt><trkpt lat="43.03438904782034" lon="11.637558681254415"><ele>263.5</ele><time>2026-04-21T15:48:43Z</time></trkpt><trkpt lat="43.03451025804678" lon="11.637511067100238"><ele>264.25</ele><time>2026-04-21T15:48:44Z</time></trkpt><trkpt lat="43.034640650654865" lon="11.637450849141128"><ele>265.0</ele><time>2026-04-21T15:48:45Z</time></trkpt><trkpt lat="43.034761240186775" lon="11.637420076135912"><ele>265.0</ele><time>2026-04-21T15:48:46Z</time></trkpt><trkpt lat="43.03486971656213" lon="11.637365305957136"><ele>265.0</ele><time>2026-04-21T15:48:47Z</time></trkpt><trkpt lat="43.03497158717307" lon="11.637312305899128"><ele>265.0</ele><time>2026-04-21T15:48:48Z</time></trkpt><trkpt lat="43.03507981204723" lon="11.637253962804618"><ele>265.0</ele><time>2026-04-21T15:48:49Z</time></trkpt><trkpt lat="43.035191621363815" lon="11.6372060823934"><ele>265.75</ele><time>2026-04-21T15:48:50Z</time></trkpt><trkpt lat="43.0353034174007" lon="11.637179739947845"><ele>266.5</ele><time>2026-04-21T15:48:51Z</time></trkpt><trkpt lat="43.03542619660309" lon="11.637131611441315"><ele>267.25</ele><time>2026-04-21T15:48:52Z</time></trkpt><trkpt lat="43.035549376747184" lon="11.637075422995846"><ele>268.0</ele><time>2026-04-21T15:48:53Z</time></trkpt><trkpt lat="43.03566518750954" lon="11.636995751015066"><ele>268.0</ele><time>2026-04-21T15:48:54Z</time></trkpt><trkpt lat="43.03579048888632" lon="11.636953707163268"><ele>268.0</ele><time>2026-04-21T15:48:55Z</time></trkpt><trkpt lat="43.035893237317275" lon="11.636893530218348"><ele>268.0</ele><time>2026-04-21T15:48:56Z</time></trkpt><trkpt lat="43.03598440425123" lon="11.636820350605662"><ele>268.0</ele><time>2026-04-21T15:48:57Z</time></trkpt><trkpt lat="43.03606839151104" lon="11.636712442871808"><ele>269.25</ele><time>2026-04-21T15:48:58Z</time></trkpt><trkpt lat="43.03615754940243" lon="11.636597696340369"><ele>270.5</ele><time>2026-04-21T15:48:59Z</time></trkpt><trkpt lat="43.036221439313294" lon="11.636448168778648"><ele>271.75</ele><time>2026-04-21T15:49:00Z</time></trkpt><trkpt lat="43.0363145637795" lon="11.636324908424902"><ele>273.0</ele><time>2026-04-21T15:49:01Z</time></trkpt><trkpt lat="43.03641513011466" lon="11.636199015239256"><ele>273.25</ele><time>2026-04-21T15:49:02Z</time></trkpt><trkpt lat="43.036489072684454" lon="11.636045068122625"><ele>273.5</ele><time>2026-04-21T15:49:03Z</time></trkpt><trkpt lat="43.036577925383924" lon="11.635895616729693"><ele>273.75</ele><time>2026-04-21T15:49:04Z</time></trkpt><trkpt lat="43.036664740116315" lon="11.635754377378705"><ele>274.0</ele><time>2026-04-21T15:49:05Z</time></trkpt><trkpt lat="43.03674311027157" lon="11.635590965887394"><ele>274.0</ele><time>2026-04-21T15:49:06Z</time></trkpt><trkpt lat="43.0367893354176" lon="11.635407610208368"><ele>274.0</ele><time>2026-04-21T15:49:07Z</time></trkpt><trkpt lat="43.036862956324875" lon="11.635229956675827"><ele>274.0</ele><time>2026-04-21T15:49:08Z</time></trkpt><trkpt lat="43.03692161852668" lon="11.635068004199974"><ele>274.0</ele><time>2026-04-21T15:49:09Z</time></trkpt><trkpt lat="43.036977484192306" lon="11.634954971811297"><ele>275.2</ele><time>2026-04-21T15:49:10Z</time></trkpt><trkpt lat="43.03703584483" lon="11.634896252990382"><ele>276.4</ele><time>2026-04-21T15:49:11Z</time></trkpt><trkpt lat="43.037141078276285" lon="11.63485404708461"><ele>277.6</ele><time>2026-04-21T15:49:13Z</time></trkpt><trkpt lat="43.03723797284021" lon="11.63483796375897"><ele>278.8</ele><time>2026-04-21T15:49:15Z</time></trkpt><trkpt lat="43.037331757198864" lon="11.634806957633222"><ele>280.0</ele><time>2026-04-21T15:49:17Z</time></trkpt><trkpt lat="43.03743469044077" lon="11.634739903534529"><ele>280.5</ele><time>2026-04-21T15:49:19Z</time></trkpt><trkpt lat="43.03748539843646" lon="11.634676948296866"><ele>281.0</ele><time>2026-04-21T15:49:20Z</time></trkpt><trkpt lat="43.03752232627443" lon="11.634602978490303"><ele>281.5</ele><time>2026-04-21T15:49:21Z</time></trkpt><trkpt lat="43.03755094715598" lon="11.634517029516594"><ele>282.0</ele><time>2026-04-21T15:49:22Z</time></trkpt><trkpt lat="43.037574215843456" lon="11.63439871034791"><ele>282.5</ele><time>2026-04-21T15:49:24Z</time></trkpt><trkpt lat="43.0375479826056" lon="11.634481340439354"><ele>283.0</ele><time>2026-04-21T15:49:33Z</time></trkpt><trkpt lat="43.0375025314342" lon="11.634605302076173"><ele>283.0</ele><time>2026-04-21T15:49:35Z</time></trkpt><trkpt lat="43.03753157227957" lon="11.634693924000837"><ele>283.0</ele><time>2026-04-21T15:49:36Z</time></trkpt><trkpt lat="43.03741448561732" lon="11.634729542587623"><ele>283.0</ele><time>2026-04-21T15:49:37Z</time></trkpt><trkpt lat="43.0373586759519" lon="11.634776878776476"><ele>283.0</ele><time>2026-04-21T15:49:38Z</time></trkpt><trkpt lat="43.037293925907036" lon="11.634808887779666"><ele>283.0</ele><time>2026-04-21T15:49:39Z</time></trkpt><trkpt lat="43.03721840387163" lon="11.634828510808505"><ele>283.0</ele><time>2026-04-21T15:49:40Z</time></trkpt><trkpt lat="43.03713965040706" lon="11.63484148954706"><ele>282.5</ele><time>2026-04-21T15:49:41Z</time></trkpt><trkpt lat="43.03706952321117" lon="11.6348616181601"><ele>282.0</ele><time>2026-04-21T15:49:42Z</time></trkpt><trkpt lat="43.03701051190266" lon="11.634900062595513"><ele>281.5</ele><time>2026-04-21T15:49:43Z</time></trkpt><trkpt lat="43.03696069730143" lon="11.634955272340758"><ele>281.0</ele><time>2026-04-21T15:49:44Z</time></trkpt><trkpt lat="43.036914665714846" lon="11.635028722320351"><ele>280.5</ele><time>2026-04-21T15:49:45Z</time></trkpt><trkpt lat="43.03687625427816" lon="11.63512970126913"><ele>280.0</ele><time>2026-04-21T15:49:46Z</time></trkpt><trkpt lat="43.0368361064856" lon="11.63525189856383"><ele>278.8</ele><time>2026-04-21T15:49:47Z</time></trkpt><trkpt lat="43.036791679537785" lon="11.63538417656904"><ele>277.6</ele><time>2026-04-21T15:49:48Z</time></trkpt><trkpt lat="43.036752905692886" lon="11.635501767171844"><ele>276.4</ele><time>2026-04-21T15:49:49Z</time></trkpt><trkpt lat="43.03671206917005" lon="11.635609610189924"><ele>275.2</ele><time>2026-04-21T15:49:50Z</time></trkpt><trkpt lat="43.03666748061012" lon="11.635709709131943"><ele>274.0</ele><time>2026-04-21T15:49:51Z</time></trkpt><trkpt lat="43.036620710574766" lon="11.635796999728376"><ele>273.8333333333333</ele><time>2026-04-21T15:49:52Z</time></trkpt><trkpt lat="43.0365647042171" lon="11.635882300442741"><ele>273.66666666666663</ele><time>2026-04-21T15:49:53Z</time></trkpt><trkpt lat="43.03651805246234" lon="11.635958714527478"><ele>273.5</ele><time>2026-04-21T15:49:54Z</time></trkpt><trkpt lat="43.03647578487444" lon="11.636032651866648"><ele>273.3333333333333</ele><time>2026-04-21T15:49:55Z</time></trkpt><trkpt lat="43.03640923108909" lon="11.636156008477679"><ele>273.1666666666667</ele><time>2026-04-21T15:49:57Z</time></trkpt><trkpt lat="43.03636132132899" lon="11.636251148618664"><ele>273.0</ele><time>2026-04-21T15:50:21Z</time></trkpt><trkpt lat="43.03627425855754" lon="11.636350868647067"><ele>273.0</ele><time>2026-04-21T15:50:23Z</time></trkpt><trkpt lat="43.03620541206111" lon="11.636373615514811"><ele>273.0</ele><time>2026-04-21T15:50:25Z</time></trkpt><trkpt lat="43.03630449686919" lon="11.636361518824852"><ele>273.0</ele><time>2026-04-21T15:50:30Z</time></trkpt><trkpt lat="43.03634307008176" lon="11.63627289836974"><ele>273.0</ele><time>2026-04-21T15:50:31Z</time></trkpt><trkpt lat="43.036389897033125" lon="11.636195126207989"><ele>273.0</ele><time>2026-04-21T15:50:32Z</time></trkpt><trkpt lat="43.03643594481921" lon="11.636104750861447"><ele>273.0</ele><time>2026-04-21T15:50:33Z</time></trkpt><trkpt lat="43.036476859033286" lon="11.636026796315415"><ele>273.2</ele><time>2026-04-21T15:50:34Z</time></trkpt><trkpt lat="43.03655794154414" lon="11.635952562035577"><ele>273.4</ele><time>2026-04-21T15:50:36Z</time></trkpt><trkpt lat="43.03668307496416" lon="11.63589679676368"><ele>273.59999999999997</ele><time>2026-04-21T15:50:38Z</time></trkpt><trkpt lat="43.036763076002025" lon="11.635855408609272"><ele>273.8</ele><time>2026-04-21T15:50:39Z</time></trkpt><trkpt lat="43.03685016667927" lon="11.63582209027849"><ele>274.0</ele><time>2026-04-21T15:50:40Z</time></trkpt><trkpt lat="43.036941806754406" lon="11.635802728812978"><ele>274.0</ele><time>2026-04-21T15:50:41Z</time></trkpt><trkpt lat="43.037032550046035" lon="11.635785494347049"><ele>274.0</ele><time>2026-04-21T15:50:42Z</time></trkpt><trkpt lat="43.03712709659102" lon="11.63577160283336"><ele>274.0</ele><time>2026-04-21T15:50:43Z</time></trkpt><trkpt lat="43.037225216317026" lon="11.635760573698203"><ele>274.0</ele><time>2026-04-21T15:50:44Z</time></trkpt><trkpt lat="43.03731672858083" lon="11.63574554187459"><ele>274.0</ele><time>2026-04-21T15:50:45Z</time></trkpt><trkpt lat="43.0374063917152" lon="11.635727005599072"><ele>274.3333333333333</ele><time>2026-04-21T15:50:46Z</time></trkpt><trkpt lat="43.03749704917535" lon="11.63570635820213"><ele>274.66666666666663</ele><time>2026-04-21T15:50:47Z</time></trkpt><trkpt lat="43.03758416693353" lon="11.635675791595656"><ele>275.0</ele><time>2026-04-21T15:50:48Z</time></trkpt><trkpt lat="43.03766723662929" lon="11.635639200889447"><ele>275.3333333333333</ele><time>2026-04-21T15:50:49Z</time></trkpt><trkpt lat="43.037748766911" lon="11.635580983234956"><ele>275.6666666666667</ele><time>2026-04-21T15:50:50Z</time></trkpt><trkpt lat="43.03781685604233" lon="11.63552470877519"><ele>276.0</ele><time>2026-04-21T15:50:51Z</time></trkpt><trkpt lat="43.037878652743125" lon="11.635464840492384"><ele>276.0</ele><time>2026-04-21T15:50:52Z</time></trkpt><trkpt lat="43.037928443651445" lon="11.635407925894834"><ele>276.0</ele><time>2026-04-21T15:50:53Z</time></trkpt><trkpt lat="43.0379915396421" lon="11.635338158668755"><ele>276.0</ele><time>2026-04-21T15:50:54Z</time></trkpt><trkpt lat="43.03805806584315" lon="11.635276442279544"><ele>276.0</ele><time>2026-04-21T15:50:55Z</time></trkpt><trkpt lat="43.038123514943116" lon="11.635209601598387"><ele>276.0</ele><time>2026-04-21T15:50:56Z</time></trkpt><trkpt lat="43.0381895728579" lon="11.635141214189062"><ele>276.0</ele><time>2026-04-21T15:50:57Z</time></trkpt><trkpt lat="43.038247141726394" lon="11.63507177190117"><ele>277.3333333333333</ele><time>2026-04-21T15:50:58Z</time></trkpt><trkpt lat="43.03830245730292" lon="11.635010325166094"><ele>278.6666666666667</ele><time>2026-04-21T15:50:59Z</time></trkpt><trkpt lat="43.03836845911808" lon="11.634946874140002"><ele>280.0</ele><time>2026-04-21T15:51:01Z</time></trkpt><trkpt lat="43.0384027824526" lon="11.634867663259447"><ele>281.33333333333337</ele><time>2026-04-21T15:51:03Z</time></trkpt><trkpt lat="43.03845499173877" lon="11.634771070798068"><ele>282.6666666666667</ele><time>2026-04-21T15:51:05Z</time></trkpt><trkpt lat="43.038511992832646" lon="11.634646880101815"><ele>284.0</ele><time>2026-04-21T15:51:07Z</time></trkpt><trkpt lat="43.03856288948872" lon="11.634515340820524"><ele>284.83333333333337</ele><time>2026-04-21T15:51:09Z</time></trkpt><trkpt lat="43.03860430401312" lon="11.634425436604847"><ele>285.6666666666667</ele><time>2026-04-21T15:51:11Z</time></trkpt><trkpt lat="43.03864652472591" lon="11.634359802635478"><ele>286.5</ele><time>2026-04-21T15:51:13Z</time></trkpt><trkpt lat="43.03868762790884" lon="11.63423965015033"><ele>287.3333333333333</ele><time>2026-04-21T15:51:16Z</time></trkpt><trkpt lat="43.038705055497886" lon="11.63412982614852"><ele>288.16666666666663</ele><time>2026-04-21T15:51:26Z</time></trkpt><trkpt lat="43.03876381126402" lon="11.634039685129759"><ele>289.0</ele><time>2026-04-21T15:51:30Z</time></trkpt><trkpt lat="43.03881191377861" lon="11.633941589504493"><ele>289.0</ele><time>2026-04-21T15:51:32Z</time></trkpt><trkpt lat="43.0388712043757" lon="11.633813071311515"><ele>289.0</ele><time>2026-04-21T15:51:34Z</time></trkpt><trkpt lat="43.038915088598245" lon="11.633708633050354"><ele>289.0</ele><time>2026-04-21T15:51:36Z</time></trkpt><trkpt lat="43.0389903554805" lon="11.633566047132595"><ele>289.0</ele><time>2026-04-21T15:51:38Z</time></trkpt><trkpt lat="43.03902917150206" lon="11.633486455896303"><ele>289.0</ele><time>2026-04-21T15:51:39Z</time></trkpt><trkpt lat="43.039061922132476" lon="11.63341224347567"><ele>289.0</ele><time>2026-04-21T15:51:40Z</time></trkpt><trkpt lat="43.03912352646052" lon="11.63329850108885"><ele>289.0</ele><time>2026-04-21T15:51:42Z</time></trkpt><trkpt lat="43.03916592702554" lon="11.633219758163868"><ele>289.0</ele><time>2026-04-21T15:51:44Z</time></trkpt><trkpt lat="43.039209968826206" lon="11.633152114111112"><ele>289.0</ele><time>2026-04-21T15:51:46Z</time></trkpt><trkpt lat="43.03928507165237" lon="11.63304838957761"><ele>289.0</ele><time>2026-04-21T15:51:49Z</time></trkpt><trkpt lat="43.03931847214417" lon="11.632955498945714"><ele>289.0</ele><time>2026-04-21T15:51:51Z</time></trkpt><trkpt lat="43.0393817840805" lon="11.632840656257313"><ele>287.16666666666663</ele><time>2026-04-21T15:51:53Z</time></trkpt><trkpt lat="43.03945292553164" lon="11.632701815103767"><ele>285.3333333333333</ele><time>2026-04-21T15:51:55Z</time></trkpt><trkpt lat="43.03949442170293" lon="11.632631355817079"><ele>283.5</ele><time>2026-04-21T15:51:56Z</time></trkpt><trkpt lat="43.03953329132382" lon="11.63255820120022"><ele>281.6666666666667</ele><time>2026-04-21T15:51:57Z</time></trkpt><trkpt lat="43.03957772381755" lon="11.632474523385573"><ele>279.83333333333337</ele><time>2026-04-21T15:51:58Z</time></trkpt><trkpt lat="43.039626367280874" lon="11.632372314004533"><ele>278.0</ele><time>2026-04-21T15:51:59Z</time></trkpt><trkpt lat="43.039679694855515" lon="11.632264599238278"><ele>278.0</ele><time>2026-04-21T15:52:00Z</time></trkpt><trkpt lat="43.03973947922954" lon="11.632145188094787"><ele>278.0</ele><time>2026-04-21T15:52:01Z</time></trkpt><trkpt lat="43.03979771193205" lon="11.63202414745952"><ele>278.0</ele><time>2026-04-21T15:52:02Z</time></trkpt><trkpt lat="43.03985792050519" lon="11.631888790181346"><ele>278.0</ele><time>2026-04-21T15:52:03Z</time></trkpt><trkpt lat="43.03991752291382" lon="11.631771126134483"><ele>278.0</ele><time>2026-04-21T15:52:04Z</time></trkpt><trkpt lat="43.03996984719754" lon="11.63166621872532"><ele>279.2</ele><time>2026-04-21T15:52:05Z</time></trkpt><trkpt lat="43.04001809637443" lon="11.631574047438054"><ele>280.4</ele><time>2026-04-21T15:52:06Z</time></trkpt><trkpt lat="43.04006090224593" lon="11.631469349178055"><ele>281.59999999999997</ele><time>2026-04-21T15:52:07Z</time></trkpt><trkpt lat="43.04011671106623" lon="11.631341142369777"><ele>282.8</ele><time>2026-04-21T15:52:09Z</time></trkpt><trkpt lat="43.040213240282384" lon="11.631258069954496"><ele>284.0</ele><time>2026-04-21T15:52:11Z</time></trkpt><trkpt lat="43.040300619584315" lon="11.631154464887434"><ele>283.33333333333337</ele><time>2026-04-21T15:52:13Z</time></trkpt><trkpt lat="43.04038926520381" lon="11.631097528054633"><ele>282.6666666666667</ele><time>2026-04-21T15:52:15Z</time></trkpt><trkpt lat="43.040439196212304" lon="11.631043704860046"><ele>282.0</ele><time>2026-04-21T15:52:16Z</time></trkpt><trkpt lat="43.04048992859072" lon="11.630991059903295"><ele>281.3333333333333</ele><time>2026-04-21T15:52:17Z</time></trkpt><trkpt lat="43.04058717543235" lon="11.630875947641211"><ele>280.66666666666663</ele><time>2026-04-21T15:52:19Z</time></trkpt><trkpt lat="43.040638469736415" lon="11.630812977212482"><ele>280.0</ele><time>2026-04-21T15:52:20Z</time></trkpt><trkpt lat="43.04073033812349" lon="11.630726469235636"><ele>280.0</ele><time>2026-04-21T15:52:22Z</time></trkpt><trkpt lat="43.04077898012341" lon="11.630661632598057"><ele>280.0</ele><time>2026-04-21T15:52:24Z</time></trkpt><trkpt lat="43.04083819084251" lon="11.630582485842416"><ele>280.0</ele><time>2026-04-21T15:52:26Z</time></trkpt><trkpt lat="43.04093536605758" lon="11.630487451321935"><ele>280.0</ele><time>2026-04-21T15:52:28Z</time></trkpt><trkpt lat="43.04104077916319" lon="11.630414051975897"><ele>280.0</ele><time>2026-04-21T15:52:30Z</time></trkpt><trkpt lat="43.041152637274784" lon="11.630367071674932"><ele>279.3333333333333</ele><time>2026-04-21T15:52:32Z</time></trkpt><trkpt lat="43.04125268519708" lon="11.630361601469032"><ele>278.66666666666663</ele><time>2026-04-21T15:52:34Z</time></trkpt><trkpt lat="43.04131624288549" lon="11.630347138432162"><ele>278.0</ele><time>2026-04-21T15:52:36Z</time></trkpt><trkpt lat="43.041372350821476" lon="11.630293933720878"><ele>277.3333333333333</ele><time>2026-04-21T15:52:50.001Z</time></trkpt><trkpt lat="43.0414150180083" lon="11.630215513842762"><ele>276.6666666666667</ele><time>2026-04-21T15:52:51.001Z</time></trkpt><trkpt lat="43.04148180830167" lon="11.630140839462703"><ele>276.0</ele><time>2026-04-21T15:52:52.001Z</time></trkpt><trkpt lat="43.04154205832933" lon="11.630063868132902"><ele>276.0</ele><time>2026-04-21T15:52:53.001Z</time></trkpt><trkpt lat="43.041592136065866" lon="11.629993131494086"><ele>276.0</ele><time>2026-04-21T15:52:54.001Z</time></trkpt><trkpt lat="43.041652380638936" lon="11.629938416757014"><ele>276.0</ele><time>2026-04-21T15:52:55.001Z</time></trkpt><trkpt lat="43.041721702412104" lon="11.629903232464425"><ele>276.0</ele><time>2026-04-21T15:52:56.001Z</time></trkpt><trkpt lat="43.0417984548971" lon="11.62989034873417"><ele>276.0</ele><time>2026-04-21T15:52:57.001Z</time></trkpt><trkpt lat="43.04188169656138" lon="11.62990159929038"><ele>276.0</ele><time>2026-04-21T15:52:58.001Z</time></trkpt><trkpt lat="43.04196480375099" lon="11.629939215595005"><ele>277.0</ele><time>2026-04-21T15:52:59.001Z</time></trkpt><trkpt lat="43.04204857897403" lon="11.629980822906242"><ele>278.0</ele><time>2026-04-21T15:53:00.001Z</time></trkpt><trkpt lat="43.04213320070207" lon="11.630008918383629"><ele>279.0</ele><time>2026-04-21T15:53:01.001Z</time></trkpt><trkpt lat="43.042218493820116" lon="11.630009507535272"><ele>280.0</ele><time>2026-04-21T15:53:02.001Z</time></trkpt><trkpt lat="43.04230598466387" lon="11.629991083194254"><ele>281.0</ele><time>2026-04-21T15:53:03.001Z</time></trkpt><trkpt lat="43.042405105039265" lon="11.629965519673389"><ele>279.6</ele><time>2026-04-21T15:53:04.001Z</time></trkpt><trkpt lat="43.04249845209364" lon="11.629931526172825"><ele>278.20000000000005</ele><time>2026-04-21T15:53:05.001Z</time></trkpt><trkpt lat="43.04258742309674" lon="11.629894735386026"><ele>276.79999999999995</ele><time>2026-04-21T15:53:06.001Z</time></trkpt><trkpt lat="43.04268234836885" lon="11.629848716253663"><ele>275.4</ele><time>2026-04-21T15:53:07.001Z</time></trkpt><trkpt lat="43.04277234567867" lon="11.629778360808968"><ele>274.0</ele><time>2026-04-21T15:53:08.001Z</time></trkpt><trkpt lat="43.04285923252363" lon="11.629664192577344"><ele>274.0</ele><time>2026-04-21T15:53:09.001Z</time></trkpt><trkpt lat="43.042948731291425" lon="11.62952970514915"><ele>274.0</ele><time>2026-04-21T15:53:10Z</time></trkpt><trkpt lat="43.0430413057718" lon="11.629392971276122"><ele>274.0</ele><time>2026-04-21T15:53:11Z</time></trkpt><trkpt lat="43.043148936129185" lon="11.629276410275914"><ele>274.0</ele><time>2026-04-21T15:53:12Z</time></trkpt><trkpt lat="43.04323271673937" lon="11.629152896787664"><ele>273.2</ele><time>2026-04-21T15:53:13Z</time></trkpt><trkpt lat="43.04329675230622" lon="11.629009313534883"><ele>272.4</ele><time>2026-04-21T15:53:14Z</time></trkpt><trkpt lat="43.04336473867725" lon="11.62889204477225"><ele>271.6</ele><time>2026-04-21T15:53:15Z</time></trkpt><trkpt lat="43.043404599980946" lon="11.628786594886975"><ele>270.8</ele><time>2026-04-21T15:53:16Z</time></trkpt><trkpt lat="43.04343059517457" lon="11.62869567962427"><ele>270.0</ele><time>2026-04-21T15:53:17Z</time></trkpt><trkpt lat="43.04341835192769" lon="11.628605798465287"><ele>269.8</ele><time>2026-04-21T15:53:18Z</time></trkpt><trkpt lat="43.04340662604192" lon="11.628515198143514"><ele>269.6</ele><time>2026-04-21T15:53:19Z</time></trkpt><trkpt lat="43.04340585323602" lon="11.628413694403168"><ele>269.4</ele><time>2026-04-21T15:53:20Z</time></trkpt><trkpt lat="43.04348215593529" lon="11.628328469457653"><ele>269.2</ele><time>2026-04-21T15:53:21Z</time></trkpt><trkpt lat="43.04355651481045" lon="11.628218314122435"><ele>269.0</ele><time>2026-04-21T15:53:22Z</time></trkpt><trkpt lat="43.04364353983662" lon="11.628102268140216"><ele>269.0</ele><time>2026-04-21T15:53:23Z</time></trkpt><trkpt lat="43.043742908468985" lon="11.627975216458664"><ele>269.0</ele><time>2026-04-21T15:53:24Z</time></trkpt><trkpt lat="43.04385197404382" lon="11.627845068686637"><ele>269.0</ele><time>2026-04-21T15:53:25Z</time></trkpt><trkpt lat="43.043963392313636" lon="11.62771266292757"><ele>269.0</ele><time>2026-04-21T15:53:26Z</time></trkpt><trkpt lat="43.04407653845332" lon="11.627576007846502"><ele>269.25</ele><time>2026-04-21T15:53:27Z</time></trkpt><trkpt lat="43.04417215027279" lon="11.627423111539803"><ele>269.5</ele><time>2026-04-21T15:53:28Z</time></trkpt><trkpt lat="43.04427296976888" lon="11.627280567395337"><ele>269.75</ele><time>2026-04-21T15:53:29Z</time></trkpt><trkpt lat="43.044396459802684" lon="11.627158940418601"><ele>270.0</ele><time>2026-04-21T15:53:30Z</time></trkpt><trkpt lat="43.044510892730614" lon="11.627047345738466"><ele>270.75</ele><time>2026-04-21T15:53:31Z</time></trkpt><trkpt lat="43.04461121778643" lon="11.626911360412757"><ele>271.5</ele><time>2026-04-21T15:53:32Z</time></trkpt><trkpt lat="43.044716529166216" lon="11.626792652423097"><ele>272.25</ele><time>2026-04-21T15:53:33Z</time></trkpt><trkpt lat="43.04481373805212" lon="11.626664027234773"><ele>273.0</ele><time>2026-04-21T15:53:34Z</time></trkpt><trkpt lat="43.04490831672059" lon="11.626531911358269"><ele>273.25</ele><time>2026-04-21T15:53:35Z</time></trkpt><trkpt lat="43.04499922927462" lon="11.626393647639516"><ele>273.5</ele><time>2026-04-21T15:53:36Z</time></trkpt><trkpt lat="43.04509015288433" lon="11.626263991113644"><ele>273.75</ele><time>2026-04-21T15:53:37Z</time></trkpt><trkpt lat="43.04518070209247" lon="11.62613035060057"><ele>274.0</ele><time>2026-04-21T15:53:38Z</time></trkpt><trkpt lat="43.04527266828802" lon="11.625988065172862"><ele>274.0</ele><time>2026-04-21T15:53:39Z</time></trkpt><trkpt lat="43.04537221244245" lon="11.625842909842817"><ele>274.0</ele><time>2026-04-21T15:53:40Z</time></trkpt><trkpt lat="43.04546926649122" lon="11.625702440698683"><ele>274.0</ele><time>2026-04-21T15:53:41Z</time></trkpt><trkpt lat="43.04555876222478" lon="11.625563508335071"><ele>274.0</ele><time>2026-04-21T15:53:42Z</time></trkpt><trkpt lat="43.04563963490102" lon="11.625436644743454"><ele>274.0</ele><time>2026-04-21T15:53:43Z</time></trkpt><trkpt lat="43.04571391542887" lon="11.625331274632929"><ele>274.0</ele><time>2026-04-21T15:53:44Z</time></trkpt><trkpt lat="43.04577894640851" lon="11.625248044912714"><ele>274.0</ele><time>2026-04-21T15:53:45Z</time></trkpt><trkpt lat="43.045840050565985" lon="11.625175800747552"><ele>274.0</ele><time>2026-04-21T15:53:47Z</time></trkpt><trkpt lat="43.04589804314886" lon="11.625123619449054"><ele>274.0</ele><time>2026-04-21T15:54:04Z</time></trkpt><trkpt lat="43.04602450451027" lon="11.625228780519183"><ele>274.25</ele><time>2026-04-21T15:54:05Z</time></trkpt><trkpt lat="43.04612471261437" lon="11.625289286127838"><ele>274.5</ele><time>2026-04-21T15:54:06Z</time></trkpt><trkpt lat="43.04624714743616" lon="11.625356118303678"><ele>274.75</ele><time>2026-04-21T15:54:07Z</time></trkpt><trkpt lat="43.046387830652925" lon="11.625420458746131"><ele>275.0</ele><time>2026-04-21T15:54:08Z</time></trkpt><trkpt lat="43.04654346892364" lon="11.625472678699603"><ele>275.5</ele><time>2026-04-21T15:54:09Z</time></trkpt><trkpt lat="43.04669284987704" lon="11.625502228019986"><ele>276.0</ele><time>2026-04-21T15:54:10Z</time></trkpt><trkpt lat="43.04682384720341" lon="11.625510193326084"><ele>276.5</ele><time>2026-04-21T15:54:11Z</time></trkpt><trkpt lat="43.046935199836504" lon="11.625516824798044"><ele>277.0</ele><time>2026-04-21T15:54:12Z</time></trkpt><trkpt lat="43.047010613727906" lon="11.62553214984545"><ele>277.0</ele><time>2026-04-21T15:54:13Z</time></trkpt><trkpt lat="43.0470783364694" lon="11.625549265763668"><ele>277.0</ele><time>2026-04-21T15:54:15Z</time></trkpt><trkpt lat="43.04719773670557" lon="11.625530562898785"><ele>277.0</ele><time>2026-04-21T15:54:34Z</time></trkpt><trkpt lat="43.04728520739245" lon="11.625516616839805"><ele>277.0</ele><time>2026-04-21T15:54:35Z</time></trkpt><trkpt lat="43.047397667785006" lon="11.625513714202228"><ele>277.0</ele><time>2026-04-21T15:54:36Z</time></trkpt><trkpt lat="43.047535574275805" lon="11.62551790814007"><ele>277.5</ele><time>2026-04-21T15:54:37Z</time></trkpt><trkpt lat="43.04768312861978" lon="11.625521502880893"><ele>278.0</ele><time>2026-04-21T15:54:38Z</time></trkpt><trkpt lat="43.047832462102846" lon="11.625512119095038"><ele>278.5</ele><time>2026-04-21T15:54:39Z</time></trkpt><trkpt lat="43.04797130199565" lon="11.62546388902427"><ele>279.0</ele><time>2026-04-21T15:54:40Z</time></trkpt><trkpt lat="43.048090919027764" lon="11.62536162634025"><ele>280.6666666666667</ele><time>2026-04-21T15:54:41Z</time></trkpt><trkpt lat="43.048190403731795" lon="11.62521712686381"><ele>282.33333333333337</ele><time>2026-04-21T15:54:42Z</time></trkpt><trkpt lat="43.04828317000955" lon="11.625044932875864"><ele>284.0</ele><time>2026-04-21T15:54:43Z</time></trkpt><trkpt lat="43.04836916434872" lon="11.62486060091721"><ele>284.6666666666667</ele><time>2026-04-21T15:54:44Z</time></trkpt><trkpt lat="43.048479541210284" lon="11.624678423582997"><ele>285.3333333333333</ele><time>2026-04-21T15:54:45Z</time></trkpt><trkpt lat="43.04858054376595" lon="11.624468642815115"><ele>286.0</ele><time>2026-04-21T15:54:46Z</time></trkpt><trkpt lat="43.048669923294625" lon="11.624245504732503"><ele>288.3333333333333</ele><time>2026-04-21T15:54:47Z</time></trkpt><trkpt lat="43.0487733382269" lon="11.624032559767587"><ele>290.6666666666667</ele><time>2026-04-21T15:54:48Z</time></trkpt><trkpt lat="43.048878867502744" lon="11.62381516327579"><ele>293.0</ele><time>2026-04-21T15:54:49Z</time></trkpt><trkpt lat="43.048975419643845" lon="11.623619580780849"><ele>292.0</ele><time>2026-04-21T15:54:50Z</time></trkpt><trkpt lat="43.04906098440514" lon="11.623434851087904"><ele>291.0</ele><time>2026-04-21T15:54:51Z</time></trkpt><trkpt lat="43.0491346300045" lon="11.623262060996865"><ele>290.0</ele><time>2026-04-21T15:54:52.001Z</time></trkpt><trkpt lat="43.04919878073252" lon="11.623083106621166"><ele>290.0</ele><time>2026-04-21T15:54:53.001Z</time></trkpt><trkpt lat="43.049275815541044" lon="11.622903497685297"><ele>290.0</ele><time>2026-04-21T15:54:54.001Z</time></trkpt><trkpt lat="43.04933761733993" lon="11.622689424241441"><ele>290.0</ele><time>2026-04-21T15:54:55.001Z</time></trkpt><trkpt lat="43.0493821358316" lon="11.622458400388453"><ele>291.33333333333337</ele><time>2026-04-21T15:54:56.001Z</time></trkpt><trkpt lat="43.04943922948652" lon="11.622217482522187"><ele>292.6666666666667</ele><time>2026-04-21T15:54:57.001Z</time></trkpt><trkpt lat="43.04948638403873" lon="11.62195090433594"><ele>294.0</ele><time>2026-04-21T15:54:58.001Z</time></trkpt><trkpt lat="43.049521610788226" lon="11.621666672096842"><ele>295.3333333333333</ele><time>2026-04-21T15:54:59.001Z</time></trkpt><trkpt lat="43.049545411167095" lon="11.62136688290435"><ele>296.66666666666663</ele><time>2026-04-21T15:55:00.001Z</time></trkpt><trkpt lat="43.04954998202014" lon="11.621053402527528"><ele>298.0</ele><time>2026-04-21T15:55:01.001Z</time></trkpt><trkpt lat="43.04954490341368" lon="11.62072340633862"><ele>299.5</ele><time>2026-04-21T15:55:02.001Z</time></trkpt><trkpt lat="43.049532236983964" lon="11.620397603073304"><ele>301.0</ele><time>2026-04-21T15:55:03.001Z</time></trkpt><trkpt lat="43.04951234542982" lon="11.62007679339612"><ele>301.0</ele><time>2026-04-21T15:55:04.001Z</time></trkpt><trkpt lat="43.04948372571392" lon="11.619752813226363"><ele>301.0</ele><time>2026-04-21T15:55:05.001Z</time></trkpt><trkpt lat="43.049454188893" lon="11.619423681162056"><ele>302.0</ele><time>2026-04-21T15:55:06.001Z</time></trkpt><trkpt lat="43.04942333990863" lon="11.619090344801922"><ele>303.0</ele><time>2026-04-21T15:55:07.001Z</time></trkpt><trkpt lat="43.04939181613786" lon="11.618755417062806"><ele>304.5</ele><time>2026-04-21T15:55:08.001Z</time></trkpt><trkpt lat="43.04935798656424" lon="11.618421495607123"><ele>306.0</ele><time>2026-04-21T15:55:09.001Z</time></trkpt><trkpt lat="43.04932517287837" lon="11.618088523059747"><ele>308.0</ele><time>2026-04-21T15:55:10.001Z</time></trkpt><trkpt lat="43.049292104962596" lon="11.617756438347488"><ele>310.0</ele><time>2026-04-21T15:55:11.001Z</time></trkpt><trkpt lat="43.049261669330456" lon="11.617422290845395"><ele>310.0</ele><time>2026-04-21T15:55:12.001Z</time></trkpt><trkpt lat="43.0492340280096" lon="11.617089694281145"><ele>310.0</ele><time>2026-04-21T15:55:13.001Z</time></trkpt><trkpt lat="43.049204263541014" lon="11.616759726388072"><ele>309.5</ele><time>2026-04-21T15:55:14.001Z</time></trkpt><trkpt lat="43.049171593977086" lon="11.616441328277084"><ele>309.0</ele><time>2026-04-21T15:55:15.001Z</time></trkpt><trkpt lat="43.04912994697475" lon="11.616126839859165"><ele>314.0</ele><time>2026-04-21T15:55:16.001Z</time></trkpt><trkpt lat="43.049073760794926" lon="11.615810896560072"><ele>319.0</ele><time>2026-04-21T15:55:17.001Z</time></trkpt><trkpt lat="43.04899819034514" lon="11.615510854018938"><ele>319.5</ele><time>2026-04-21T15:55:18.001Z</time></trkpt><trkpt lat="43.04890522461221" lon="11.615213071253034"><ele>320.0</ele><time>2026-04-21T15:55:19.001Z</time></trkpt><trkpt lat="43.048805582566274" lon="11.6149162336183"><ele>320.0</ele><time>2026-04-21T15:55:20.001Z</time></trkpt><trkpt lat="43.048707325533215" lon="11.61461582852075"><ele>320.0</ele><time>2026-04-21T15:55:21Z</time></trkpt><trkpt lat="43.04860989149311" lon="11.61430678283841"><ele>321.5</ele><time>2026-04-21T15:55:22Z</time></trkpt><trkpt lat="43.048512616483684" lon="11.61399851003514"><ele>323.0</ele><time>2026-04-21T15:55:23Z</time></trkpt><trkpt lat="43.04841468286626" lon="11.613687921506118"><ele>323.6666666666667</ele><time>2026-04-21T15:55:24Z</time></trkpt><trkpt lat="43.04832182103012" lon="11.6134011001881"><ele>324.3333333333333</ele><time>2026-04-21T15:55:25Z</time></trkpt><trkpt lat="43.04823845598192" lon="11.61313821446086"><ele>325.0</ele><time>2026-04-21T15:55:26Z</time></trkpt><trkpt lat="43.04817124157637" lon="11.612881694525036"><ele>329.0</ele><time>2026-04-21T15:55:27Z</time></trkpt><trkpt lat="43.04813176414506" lon="11.612621315897751"><ele>333.0</ele><time>2026-04-21T15:55:28Z</time></trkpt><trkpt lat="43.048121180428836" lon="11.61236209826144"><ele>337.0</ele><time>2026-04-21T15:55:29Z</time></trkpt><trkpt lat="43.048141023441794" lon="11.612101888433392"><ele>335.66666666666663</ele><time>2026-04-21T15:55:30Z</time></trkpt><trkpt lat="43.048194786023146" lon="11.611855821948707"><ele>334.3333333333333</ele><time>2026-04-21T15:55:31Z</time></trkpt><trkpt lat="43.04827941130624" lon="11.611622920113401"><ele>333.0</ele><time>2026-04-21T15:55:32Z</time></trkpt><trkpt lat="43.048317701622146" lon="11.61138245517275"><ele>333.0</ele><time>2026-04-21T15:55:33Z</time></trkpt><trkpt lat="43.04851418295296" lon="11.611217083436221"><ele>333.0</ele><time>2026-04-21T15:55:34Z</time></trkpt><trkpt lat="43.04866196569315" lon="11.611080318957155"><ele>333.0</ele><time>2026-04-21T15:55:35Z</time></trkpt><trkpt lat="43.04883259801701" lon="11.610982430929935"><ele>336.6666666666667</ele><time>2026-04-21T15:55:36Z</time></trkpt><trkpt lat="43.049020287942106" lon="11.61091817121193"><ele>340.33333333333337</ele><time>2026-04-21T15:55:37Z</time></trkpt><trkpt lat="43.04921702158705" lon="11.610880571309796"><ele>344.0</ele><time>2026-04-21T15:55:38Z</time></trkpt><trkpt lat="43.04941465949139" lon="11.610851177505593"><ele>344.0</ele><time>2026-04-21T15:55:39Z</time></trkpt><trkpt lat="43.049600727039376" lon="11.610807360107458"><ele>344.0</ele><time>2026-04-21T15:55:40Z</time></trkpt><trkpt lat="43.04976468549768" lon="11.61074997305888"><ele>344.0</ele><time>2026-04-21T15:55:41Z</time></trkpt><trkpt lat="43.04991707561191" lon="11.61067633504631"><ele>343.5</ele><time>2026-04-21T15:55:42Z</time></trkpt><trkpt lat="43.05005489775624" lon="11.610582266830987"><ele>343.0</ele><time>2026-04-21T15:55:43Z</time></trkpt><trkpt lat="43.050177580265604" lon="11.610474311523035"><ele>342.5</ele><time>2026-04-21T15:55:44Z</time></trkpt><trkpt lat="43.05029859472133" lon="11.610354764885559"><ele>342.0</ele><time>2026-04-21T15:55:45Z</time></trkpt><trkpt lat="43.050432027539266" lon="11.610225858461575"><ele>343.0</ele><time>2026-04-21T15:55:46Z</time></trkpt><trkpt lat="43.05057912385638" lon="11.610086099484242"><ele>344.0</ele><time>2026-04-21T15:55:47Z</time></trkpt><trkpt lat="43.05073594297949" lon="11.609936488313199"><ele>345.0</ele><time>2026-04-21T15:55:48Z</time></trkpt><trkpt lat="43.05089812749836" lon="11.609778353643955"><ele>345.0</ele><time>2026-04-21T15:55:49Z</time></trkpt><trkpt lat="43.05106855757028" lon="11.609622186557921"><ele>345.0</ele><time>2026-04-21T15:55:50Z</time></trkpt><trkpt lat="43.05123810417435" lon="11.609518733610322"><ele>345.0</ele><time>2026-04-21T15:55:51Z</time></trkpt><trkpt lat="43.05139337858131" lon="11.609427425839455"><ele>347.0</ele><time>2026-04-21T15:55:52Z</time></trkpt><trkpt lat="43.05152624802772" lon="11.60934751948251"><ele>349.0</ele><time>2026-04-21T15:55:53Z</time></trkpt><trkpt lat="43.05161138753702" lon="11.609296317266054"><ele>351.0</ele><time>2026-04-21T15:55:54Z</time></trkpt><trkpt lat="43.051671628658575" lon="11.609266574083307"><ele>353.0</ele><time>2026-04-21T15:55:57Z</time></trkpt><trkpt lat="43.051785901754656" lon="11.609191546926395"><ele>355.0</ele><time>2026-04-21T15:56:49Z</time></trkpt><trkpt lat="43.05188544990819" lon="11.60913231633911"><ele>355.0</ele><time>2026-04-21T15:56:50Z</time></trkpt><trkpt lat="43.05201483077871" lon="11.609055335482356"><ele>355.0</ele><time>2026-04-21T15:56:51Z</time></trkpt><trkpt lat="43.05215101024922" lon="11.608974060891608"><ele>355.0</ele><time>2026-04-21T15:56:52Z</time></trkpt><trkpt lat="43.052314900245975" lon="11.608877832368009"><ele>356.0</ele><time>2026-04-21T15:56:53Z</time></trkpt><trkpt lat="43.05247737755785" lon="11.608781833347697"><ele>357.0</ele><time>2026-04-21T15:56:54Z</time></trkpt><trkpt lat="43.05265052451155" lon="11.608679363095288"><ele>358.0</ele><time>2026-04-21T15:56:55Z</time></trkpt><trkpt lat="43.05281683370406" lon="11.608580074895592"><ele>358.0</ele><time>2026-04-21T15:56:56Z</time></trkpt><trkpt lat="43.052970286032" lon="11.608488206998514"><ele>358.0</ele><time>2026-04-21T15:56:57.001Z</time></trkpt><trkpt lat="43.05310662346256" lon="11.608412491096542"><ele>358.0</ele><time>2026-04-21T15:56:58.001Z</time></trkpt><trkpt lat="43.053233531731685" lon="11.608361108300876"><ele>358.0</ele><time>2026-04-21T15:56:59.001Z</time></trkpt><trkpt lat="43.05335827926001" lon="11.608331225158706"><ele>359.5</ele><time>2026-04-21T15:57:00.001Z</time></trkpt><trkpt lat="43.053489268393356" lon="11.608323705218684"><ele>361.0</ele><time>2026-04-21T15:57:01.001Z</time></trkpt><trkpt lat="43.05362041330369" lon="11.608343830874052"><ele>362.5</ele><time>2026-04-21T15:57:02.001Z</time></trkpt><trkpt lat="43.05374471756376" lon="11.608387644617888"><ele>364.0</ele><time>2026-04-21T15:57:03.001Z</time></trkpt><trkpt lat="43.05386148516657" lon="11.608457807897016"><ele>364.0</ele><time>2026-04-21T15:57:04.001Z</time></trkpt><trkpt lat="43.053975189357416" lon="11.608544122761788"><ele>364.0</ele><time>2026-04-21T15:57:05.001Z</time></trkpt><trkpt lat="43.05410283185725" lon="11.608624671424694"><ele>364.0</ele><time>2026-04-21T15:57:06.001Z</time></trkpt><trkpt lat="43.05423077596395" lon="11.608733658952234"><ele>364.0</ele><time>2026-04-21T15:57:07.001Z</time></trkpt><trkpt lat="43.054360485891124" lon="11.6088685751218"><ele>363.66666666666663</ele><time>2026-04-21T15:57:08.001Z</time></trkpt><trkpt lat="43.05450892136221" lon="11.608994515388137"><ele>363.3333333333333</ele><time>2026-04-21T15:57:09.001Z</time></trkpt><trkpt lat="43.05468221159732" lon="11.609108539531437"><ele>363.0</ele><time>2026-04-21T15:57:10.001Z</time></trkpt><trkpt lat="43.05484900894427" lon="11.60925080512136"><ele>364.6666666666667</ele><time>2026-04-21T15:57:11.001Z</time></trkpt><trkpt lat="43.055018737475294" lon="11.609392255756152"><ele>366.33333333333337</ele><time>2026-04-21T15:57:12.001Z</time></trkpt><trkpt lat="43.05518065900577" lon="11.60953286543463"><ele>368.0</ele><time>2026-04-21T15:57:13.001Z</time></trkpt><trkpt lat="43.055325500984274" lon="11.609686573019612"><ele>368.0</ele><time>2026-04-21T15:57:14.001Z</time></trkpt><trkpt lat="43.05547779161697" lon="11.609791945760877"><ele>368.0</ele><time>2026-04-21T15:57:15.001Z</time></trkpt><trkpt lat="43.0556034381221" lon="11.609902213924865"><ele>368.0</ele><time>2026-04-21T15:57:16.001Z</time></trkpt><trkpt lat="43.05570238561084" lon="11.609989013393044"><ele>368.0</ele><time>2026-04-21T15:57:17.001Z</time></trkpt><trkpt lat="43.05578013450196" lon="11.610053117949933"><ele>369.79999999999995</ele><time>2026-04-21T15:57:18.001Z</time></trkpt><trkpt lat="43.0558375452336" lon="11.610123754787557"><ele>371.6</ele><time>2026-04-21T15:57:20.001Z</time></trkpt><trkpt lat="43.05592492583119" lon="11.609971877540056"><ele>373.4</ele><time>2026-04-21T15:57:23.001Z</time></trkpt><trkpt lat="43.05597552589791" lon="11.609860278269265"><ele>375.20000000000005</ele><time>2026-04-21T15:57:25.001Z</time></trkpt><trkpt lat="43.05604922946013" lon="11.609719270383112"><ele>377.0</ele><time>2026-04-21T15:57:27.001Z</time></trkpt><trkpt lat="43.05610314760315" lon="11.609626165048057"><ele>377.0</ele><time>2026-04-21T15:57:28.001Z</time></trkpt><trkpt lat="43.05617286078514" lon="11.609541947694522"><ele>377.0</ele><time>2026-04-21T15:57:29.001Z</time></trkpt><trkpt lat="43.0562420272338" lon="11.609445872950376"><ele>377.0</ele><time>2026-04-21T15:57:30.001Z</time></trkpt><trkpt lat="43.05630229095029" lon="11.609328334370973"><ele>377.0</ele><time>2026-04-21T15:57:31.001Z</time></trkpt><trkpt lat="43.05636679443695" lon="11.609221355761733"><ele>377.0</ele><time>2026-04-21T15:57:32.001Z</time></trkpt><trkpt lat="43.05641489408815" lon="11.609118336156724"><ele>377.83333333333337</ele><time>2026-04-21T15:57:33.001Z</time></trkpt><trkpt lat="43.0564716978128" lon="11.609036335950812"><ele>378.6666666666667</ele><time>2026-04-21T15:57:34.001Z</time></trkpt><trkpt lat="43.05651417781067" lon="11.608950728688074"><ele>379.5</ele><time>2026-04-21T15:57:35.001Z</time></trkpt><trkpt lat="43.05655713965124" lon="11.608864636015504"><ele>380.3333333333333</ele><time>2026-04-21T15:57:36.001Z</time></trkpt><trkpt lat="43.05660242557157" lon="11.608778067939511"><ele>381.16666666666663</ele><time>2026-04-21T15:57:37.001Z</time></trkpt><trkpt lat="43.056650924594365" lon="11.608687800706152"><ele>382.0</ele><time>2026-04-21T15:57:38.001Z</time></trkpt><trkpt lat="43.05670587267856" lon="11.608593466138219"><ele>384.20000000000005</ele><time>2026-04-21T15:57:39.001Z</time></trkpt><trkpt lat="43.056760479393894" lon="11.60849906410805"><ele>386.4</ele><time>2026-04-21T15:57:40.001Z</time></trkpt><trkpt lat="43.05682217521725" lon="11.608394736989547"><ele>388.6</ele><time>2026-04-21T15:57:41.001Z</time></trkpt><trkpt lat="43.05688946513017" lon="11.608282117353133"><ele>390.79999999999995</ele><time>2026-04-21T15:57:42.001Z</time></trkpt><trkpt lat="43.05695895299674" lon="11.608165819095865"><ele>393.0</ele><time>2026-04-21T15:57:43.001Z</time></trkpt><trkpt lat="43.05702657326791" lon="11.608052646463685"><ele>393.0</ele><time>2026-04-21T15:57:44.001Z</time></trkpt><trkpt lat="43.05708128388799" lon="11.607926148773517"><ele>393.0</ele><time>2026-04-21T15:57:45.001Z</time></trkpt><trkpt lat="43.0571479664569" lon="11.607813842272192"><ele>393.0</ele><time>2026-04-21T15:57:46.001Z</time></trkpt><trkpt lat="43.0572260961546" lon="11.60771871545993"><ele>393.0</ele><time>2026-04-21T15:57:47.001Z</time></trkpt><trkpt lat="43.05727353454211" lon="11.607603275814979"><ele>393.0</ele><time>2026-04-21T15:57:48.001Z</time></trkpt><trkpt lat="43.057335612602216" lon="11.607506999171086"><ele>394.4</ele><time>2026-04-21T15:57:49.001Z</time></trkpt><trkpt lat="43.057397729757575" lon="11.607402376873868"><ele>395.79999999999995</ele><time>2026-04-21T15:57:50.001Z</time></trkpt><trkpt lat="43.05745847463475" lon="11.607298209265029"><ele>397.2</ele><time>2026-04-21T15:57:51.001Z</time></trkpt><trkpt lat="43.05751944646778" lon="11.607193371252455"><ele>398.6</ele><time>2026-04-21T15:57:52.001Z</time></trkpt><trkpt lat="43.05758362943439" lon="11.607086947706863"><ele>400.0</ele><time>2026-04-21T15:57:53.001Z</time></trkpt><trkpt lat="43.05764631148343" lon="11.606984224871155"><ele>402.0</ele><time>2026-04-21T15:57:54.001Z</time></trkpt><trkpt lat="43.05770011501505" lon="11.606892361098222"><ele>404.0</ele><time>2026-04-21T15:57:55.001Z</time></trkpt><trkpt lat="43.057759892528395" lon="11.606789228929312"><ele>406.0</ele><time>2026-04-21T15:57:57.001Z</time></trkpt><trkpt lat="43.05783383270891" lon="11.606710970914367"><ele>408.0</ele><time>2026-04-21T15:58:00.001Z</time></trkpt><trkpt lat="43.057725427679436" lon="11.606493247080552"><ele>408.0</ele><time>2026-04-21T15:58:02.001Z</time></trkpt><trkpt lat="43.05767609263038" lon="11.60639049091835"><ele>408.0</ele><time>2026-04-21T15:58:03.001Z</time></trkpt><trkpt lat="43.057621038763955" lon="11.606246649546835"><ele>408.0</ele><time>2026-04-21T15:58:04.001Z</time></trkpt><trkpt lat="43.05756532452602" lon="11.606093081827352"><ele>408.0</ele><time>2026-04-21T15:58:05.001Z</time></trkpt><trkpt lat="43.05750220376245" lon="11.605919531921222"><ele>408.5</ele><time>2026-04-21T15:58:06.001Z</time></trkpt><trkpt lat="43.05743757834569" lon="11.605743434029886"><ele>409.0</ele><time>2026-04-21T15:58:07.001Z</time></trkpt><trkpt lat="43.057374925175765" lon="11.605566567128713"><ele>409.5</ele><time>2026-04-21T15:58:08.001Z</time></trkpt><trkpt lat="43.0573161586847" lon="11.605393650124157"><ele>410.0</ele><time>2026-04-21T15:58:09.001Z</time></trkpt><trkpt lat="43.057266119352064" lon="11.605244590324595"><ele>411.0</ele><time>2026-04-21T15:58:10.001Z</time></trkpt><trkpt lat="43.057219226150934" lon="11.605111218141971"><ele>412.0</ele><time>2026-04-21T15:58:11.001Z</time></trkpt><trkpt lat="43.057177836785286" lon="11.604986898040991"><ele>413.0</ele><time>2026-04-21T15:58:12.001Z</time></trkpt><trkpt lat="43.057145153983186" lon="11.604870426220037"><ele>414.0</ele><time>2026-04-21T15:58:13.001Z</time></trkpt><trkpt lat="43.05710744298656" lon="11.604757390783602"><ele>415.0</ele><time>2026-04-21T15:58:14.001Z</time></trkpt><trkpt lat="43.057050011884144" lon="11.604662930252438"><ele>415.0</ele><time>2026-04-21T15:58:15.001Z</time></trkpt><trkpt lat="43.05697406842312" lon="11.604579232563056"><ele>415.0</ele><time>2026-04-21T15:58:16.001Z</time></trkpt><trkpt lat="43.05689529316687" lon="11.604484317174132"><ele>415.0</ele><time>2026-04-21T15:58:17.001Z</time></trkpt><trkpt lat="43.05681944753251" lon="11.604375517379896"><ele>415.0</ele><time>2026-04-21T15:58:18.001Z</time></trkpt><trkpt lat="43.05674472393212" lon="11.604246655365229"><ele>415.0</ele><time>2026-04-21T15:58:19.001Z</time></trkpt><trkpt lat="43.05667534863545" lon="11.604104128897802"><ele>415.25</ele><time>2026-04-21T15:58:20.001Z</time></trkpt><trkpt lat="43.056604722873416" lon="11.603961902222553"><ele>415.5</ele><time>2026-04-21T15:58:21.001Z</time></trkpt><trkpt lat="43.056511085829186" lon="11.603825443535156"><ele>415.75</ele><time>2026-04-21T15:58:22.001Z</time></trkpt><trkpt lat="43.056410306115666" lon="11.603695911514945"><ele>416.0</ele><time>2026-04-21T15:58:23.001Z</time></trkpt><trkpt lat="43.05630333024313" lon="11.603568978449774"><ele>417.25</ele><time>2026-04-21T15:58:24.001Z</time></trkpt><trkpt lat="43.056192939437814" lon="11.603440997308692"><ele>418.5</ele><time>2026-04-21T15:58:25.001Z</time></trkpt><trkpt lat="43.05608057863318" lon="11.60330094669024"><ele>419.75</ele><time>2026-04-21T15:58:26.001Z</time></trkpt><trkpt lat="43.055963893255075" lon="11.603165910038081"><ele>421.0</ele><time>2026-04-21T15:58:27.001Z</time></trkpt><trkpt lat="43.05584225161127" lon="11.603034637855096"><ele>420.75</ele><time>2026-04-21T15:58:28.001Z</time></trkpt><trkpt lat="43.05571701333368" lon="11.60290160706138"><ele>420.5</ele><time>2026-04-21T15:58:29.001Z</time></trkpt><trkpt lat="43.05559750146103" lon="11.602773077768262"><ele>420.25</ele><time>2026-04-21T15:58:30.001Z</time></trkpt><trkpt lat="43.05549053193459" lon="11.60265514646651"><ele>420.0</ele><time>2026-04-21T15:58:31.001Z</time></trkpt><trkpt lat="43.05539535222504" lon="11.602549835457882"><ele>421.75</ele><time>2026-04-21T15:58:32.001Z</time></trkpt><trkpt lat="43.055304066801945" lon="11.60245798397261"><ele>423.5</ele><time>2026-04-21T15:58:33.001Z</time></trkpt><trkpt lat="43.055199993489786" lon="11.602353320990359"><ele>425.25</ele><time>2026-04-21T15:58:34.001Z</time></trkpt><trkpt lat="43.05509771769706" lon="11.602244104342521"><ele>427.0</ele><time>2026-04-21T15:58:35.001Z</time></trkpt><trkpt lat="43.05498856895732" lon="11.60212380304179"><ele>426.75</ele><time>2026-04-21T15:58:36.001Z</time></trkpt><trkpt lat="43.05486806559737" lon="11.602014517919658"><ele>426.5</ele><time>2026-04-21T15:58:37.001Z</time></trkpt><trkpt lat="43.05473611122432" lon="11.601924923927388"><ele>426.25</ele><time>2026-04-21T15:58:38.001Z</time></trkpt><trkpt lat="43.05458880564125" lon="11.601856403543136"><ele>426.0</ele><time>2026-04-21T15:58:39.001Z</time></trkpt><trkpt lat="43.05443816552086" lon="11.601791796136407"><ele>426.0</ele><time>2026-04-21T15:58:40.001Z</time></trkpt><trkpt lat="43.054289131375526" lon="11.60173322074991"><ele>426.0</ele><time>2026-04-21T15:58:41.001Z</time></trkpt><trkpt lat="43.054027142360475" lon="11.601616533529192"><ele>426.0</ele><time>2026-04-21T15:58:43.001Z</time></trkpt><trkpt lat="43.05390158591301" lon="11.601532986467417"><ele>426.0</ele><time>2026-04-21T15:58:44.001Z</time></trkpt><trkpt lat="43.05377557382151" lon="11.60143334658757"><ele>426.0</ele><time>2026-04-21T15:58:45.001Z</time></trkpt><trkpt lat="43.05364759345376" lon="11.601329447535946"><ele>426.0</ele><time>2026-04-21T15:58:46.001Z</time></trkpt><trkpt lat="43.05353117466985" lon="11.601241862468415"><ele>426.0</ele><time>2026-04-21T15:58:47.001Z</time></trkpt><trkpt lat="43.053425110959324" lon="11.601156119453195"><ele>426.0</ele><time>2026-04-21T15:58:48Z</time></trkpt><trkpt lat="43.05332538517123" lon="11.601078131859072"><ele>426.0</ele><time>2026-04-21T15:58:49Z</time></trkpt><trkpt lat="43.05323223255214" lon="11.600998235218535"><ele>426.0</ele><time>2026-04-21T15:58:50Z</time></trkpt><trkpt lat="43.053147326428274" lon="11.600908421513868"><ele>426.0</ele><time>2026-04-21T15:58:51Z</time></trkpt><trkpt lat="43.053053812228754" lon="11.60081092458368"><ele>426.0</ele><time>2026-04-21T15:58:52Z</time></trkpt><trkpt lat="43.052952592985314" lon="11.600706735167922"><ele>426.0</ele><time>2026-04-21T15:58:53Z</time></trkpt><trkpt lat="43.05284667344877" lon="11.600597251378513"><ele>426.0</ele><time>2026-04-21T15:58:54Z</time></trkpt><trkpt lat="43.05274862354042" lon="11.600464749971028"><ele>426.0</ele><time>2026-04-21T15:58:55Z</time></trkpt><trkpt lat="43.05266157061426" lon="11.600317193135933"><ele>426.0</ele><time>2026-04-21T15:58:56Z</time></trkpt><trkpt lat="43.052592859647554" lon="11.600177108292522"><ele>426.0</ele><time>2026-04-21T15:58:57Z</time></trkpt><trkpt lat="43.05254158513069" lon="11.600069458772847"><ele>426.0</ele><time>2026-04-21T15:58:58Z</time></trkpt><trkpt lat="43.05248056913801" lon="11.599977600972833"><ele>426.0</ele><time>2026-04-21T15:58:59Z</time></trkpt><trkpt lat="43.05239010378976" lon="11.59987614226881"><ele>426.0</ele><time>2026-04-21T15:59:00Z</time></trkpt><trkpt lat="43.052280329492696" lon="11.599776285709723"><ele>425.5</ele><time>2026-04-21T15:59:01Z</time></trkpt><trkpt lat="43.05216135007025" lon="11.599691248548782"><ele>425.0</ele><time>2026-04-21T15:59:02Z</time></trkpt><trkpt lat="43.05203711905003" lon="11.599615953547085"><ele>424.5</ele><time>2026-04-21T15:59:03.001Z</time></trkpt><trkpt lat="43.05191025756316" lon="11.599539740209652"><ele>424.0</ele><time>2026-04-21T15:59:04.001Z</time></trkpt><trkpt lat="43.05178310811871" lon="11.59945474762518"><ele>424.0</ele><time>2026-04-21T15:59:05.001Z</time></trkpt><trkpt lat="43.05164374796922" lon="11.599402382360964"><ele>424.0</ele><time>2026-04-21T15:59:06.001Z</time></trkpt><trkpt lat="43.05150813976699" lon="11.599365542179978"><ele>424.0</ele><time>2026-04-21T15:59:07.001Z</time></trkpt><trkpt lat="43.05136970734051" lon="11.59936290133267"><ele>424.0</ele><time>2026-04-21T15:59:08.001Z</time></trkpt><trkpt lat="43.05122482063134" lon="11.599387264043001"><ele>425.0</ele><time>2026-04-21T15:59:09.001Z</time></trkpt><trkpt lat="43.05107292716801" lon="11.599434693143829"><ele>426.0</ele><time>2026-04-21T15:59:10.001Z</time></trkpt><trkpt lat="43.050912411498075" lon="11.599481479124503"><ele>427.0</ele><time>2026-04-21T15:59:11.001Z</time></trkpt><trkpt lat="43.05074914849629" lon="11.599529445694568"><ele>427.33333333333337</ele><time>2026-04-21T15:59:12.001Z</time></trkpt><trkpt lat="43.05058035803181" lon="11.5995764752855"><ele>427.66666666666663</ele><time>2026-04-21T15:59:13.001Z</time></trkpt><trkpt lat="43.050412640932706" lon="11.599631504011152"><ele>428.0</ele><time>2026-04-21T15:59:14.001Z</time></trkpt><trkpt lat="43.05023587663342" lon="11.599690251527083"><ele>428.0</ele><time>2026-04-21T15:59:15.001Z</time></trkpt><trkpt lat="43.050060545818226" lon="11.599748118348604"><ele>428.0</ele><time>2026-04-21T15:59:16.001Z</time></trkpt><trkpt lat="43.049873090796005" lon="11.599797153998274"><ele>428.0</ele><time>2026-04-21T15:59:17.001Z</time></trkpt><trkpt lat="43.04969261350202" lon="11.599902307263807"><ele>430.3333333333333</ele><time>2026-04-21T15:59:18.001Z</time></trkpt><trkpt lat="43.04950229630406" lon="11.600006019704443"><ele>432.66666666666663</ele><time>2026-04-21T15:59:19.001Z</time></trkpt><trkpt lat="43.04933132048371" lon="11.600116864109694"><ele>435.0</ele><time>2026-04-21T15:59:20.001Z</time></trkpt><trkpt lat="43.049179834809856" lon="11.600219829132548"><ele>436.25</ele><time>2026-04-21T15:59:21.001Z</time></trkpt><trkpt lat="43.04904809517183" lon="11.6003087871072"><ele>437.5</ele><time>2026-04-21T15:59:22.001Z</time></trkpt><trkpt lat="43.04892241556363" lon="11.60038218613903"><ele>438.75</ele><time>2026-04-21T15:59:23.001Z</time></trkpt><trkpt lat="43.048814970938714" lon="11.600464814108049"><ele>440.0</ele><time>2026-04-21T15:59:24.001Z</time></trkpt><trkpt lat="43.04871338184817" lon="11.600531195535416"><ele>440.0</ele><time>2026-04-21T15:59:25.001Z</time></trkpt><trkpt lat="43.0486157165833" lon="11.600583738482307"><ele>440.0</ele><time>2026-04-21T15:59:26.001Z</time></trkpt><trkpt lat="43.048531331121204" lon="11.600644430660223"><ele>440.0</ele><time>2026-04-21T15:59:27.001Z</time></trkpt><trkpt lat="43.04844952183908" lon="11.600703517284465"><ele>440.0</ele><time>2026-04-21T15:59:28.001Z</time></trkpt><trkpt lat="43.04837386678766" lon="11.600782047743408"><ele>440.0</ele><time>2026-04-21T15:59:29.001Z</time></trkpt><trkpt lat="43.048283894824884" lon="11.600839653517266"><ele>440.75</ele><time>2026-04-21T15:59:30.001Z</time></trkpt><trkpt lat="43.04817664666666" lon="11.600909253308238"><ele>441.5</ele><time>2026-04-21T15:59:31.001Z</time></trkpt><trkpt lat="43.04804925581268" lon="11.600997268183749"><ele>442.25</ele><time>2026-04-21T15:59:32.001Z</time></trkpt><trkpt lat="43.04790818398821" lon="11.60109775032092"><ele>443.0</ele><time>2026-04-21T15:59:33.001Z</time></trkpt><trkpt lat="43.04775809801871" lon="11.60120472053951"><ele>443.0</ele><time>2026-04-21T15:59:34.001Z</time></trkpt><trkpt lat="43.04760749443371" lon="11.601300049701146"><ele>443.0</ele><time>2026-04-21T15:59:35.001Z</time></trkpt><trkpt lat="43.04746229139318" lon="11.601380997365565"><ele>443.0</ele><time>2026-04-21T15:59:36.001Z</time></trkpt><trkpt lat="43.04732222156492" lon="11.601445470347135"><ele>444.3333333333333</ele><time>2026-04-21T15:59:37.001Z</time></trkpt><trkpt lat="43.047181439876674" lon="11.601487729062393"><ele>445.66666666666663</ele><time>2026-04-21T15:59:38.001Z</time></trkpt><trkpt lat="43.04702951210745" lon="11.601508310056609"><ele>447.0</ele><time>2026-04-21T15:59:39.001Z</time></trkpt><trkpt lat="43.04687393465135" lon="11.60149314105452"><ele>447.0</ele><time>2026-04-21T15:59:40.001Z</time></trkpt><trkpt lat="43.046708014013376" lon="11.601438103797232"><ele>447.0</ele><time>2026-04-21T15:59:41.001Z</time></trkpt><trkpt lat="43.04654092267391" lon="11.601381994301864"><ele>447.0</ele><time>2026-04-21T15:59:42.001Z</time></trkpt><trkpt lat="43.04637330107401" lon="11.601304245440186"><ele>449.0</ele><time>2026-04-21T15:59:43.001Z</time></trkpt><trkpt lat="43.04619422545707" lon="11.601208785945442"><ele>451.0</ele><time>2026-04-21T15:59:44.001Z</time></trkpt><trkpt lat="43.046012663271924" lon="11.601107639547537"><ele>453.0</ele><time>2026-04-21T15:59:45.001Z</time></trkpt><trkpt lat="43.045831960137825" lon="11.601011942624389"><ele>457.33333333333337</ele><time>2026-04-21T15:59:46.001Z</time></trkpt><trkpt lat="43.04566688639741" lon="11.600923803056522"><ele>461.6666666666667</ele><time>2026-04-21T15:59:47.001Z</time></trkpt><trkpt lat="43.04550743248025" lon="11.600851763828842"><ele>466.0</ele><time>2026-04-21T15:59:48.001Z</time></trkpt><trkpt lat="43.04534677954644" lon="11.600782177478479"><ele>466.0</ele><time>2026-04-21T15:59:49.001Z</time></trkpt><trkpt lat="43.04519691753546" lon="11.600718812964555"><ele>466.0</ele><time>2026-04-21T15:59:50.001Z</time></trkpt><trkpt lat="43.04506292973005" lon="11.600666545875471"><ele>466.0</ele><time>2026-04-21T15:59:51.001Z</time></trkpt><trkpt lat="43.04494028156285" lon="11.60063307311479"><ele>466.0</ele><time>2026-04-21T15:59:52.001Z</time></trkpt><trkpt lat="43.0448124340907" lon="11.600611209197574"><ele>467.25</ele><time>2026-04-21T15:59:53.001Z</time></trkpt><trkpt lat="43.04467953603139" lon="11.600595358940858"><ele>468.5</ele><time>2026-04-21T15:59:54.001Z</time></trkpt><trkpt lat="43.04454190881736" lon="11.600583209473845"><ele>469.75</ele><time>2026-04-21T15:59:55.001Z</time></trkpt><trkpt lat="43.044392023932524" lon="11.60057563856448"><ele>471.0</ele><time>2026-04-21T15:59:56.001Z</time></trkpt><trkpt lat="43.044220069719294" lon="11.600570031746509"><ele>472.66666666666663</ele><time>2026-04-21T15:59:57.001Z</time></trkpt><trkpt lat="43.04404310146591" lon="11.600569028523953"><ele>474.3333333333333</ele><time>2026-04-21T15:59:58.001Z</time></trkpt><trkpt lat="43.043856737870875" lon="11.600564067591007"><ele>476.0</ele><time>2026-04-21T15:59:59.001Z</time></trkpt><trkpt lat="43.04366545050001" lon="11.600570713561964"><ele>476.0</ele><time>2026-04-21T16:00:00.001Z</time></trkpt><trkpt lat="43.04347021718093" lon="11.600570199282393"><ele>476.0</ele><time>2026-04-21T16:00:01.001Z</time></trkpt><trkpt lat="43.04312701684824" lon="11.600563972028226"><ele>477.5</ele><time>2026-04-21T16:00:03.001Z</time></trkpt><trkpt lat="43.042987345750184" lon="11.600539609976535"><ele>479.0</ele><time>2026-04-21T16:00:04.001Z</time></trkpt><trkpt lat="43.04286275249562" lon="11.600492204711488"><ele>480.5</ele><time>2026-04-21T16:00:05.001Z</time></trkpt><trkpt lat="43.04273697245609" lon="11.600397854040786"><ele>482.0</ele><time>2026-04-21T16:00:06.001Z</time></trkpt><trkpt lat="43.04261098314489" lon="11.60028392161745"><ele>482.66666666666663</ele><time>2026-04-21T16:00:07.001Z</time></trkpt><trkpt lat="43.04247615207286" lon="11.600162873035687"><ele>483.33333333333337</ele><time>2026-04-21T16:00:08.001Z</time></trkpt><trkpt lat="43.042337100090684" lon="11.600054894955106"><ele>484.0</ele><time>2026-04-21T16:00:09.001Z</time></trkpt><trkpt lat="43.042202183979235" lon="11.599955338816036"><ele>486.75</ele><time>2026-04-21T16:00:10.001Z</time></trkpt><trkpt lat="43.042064407286205" lon="11.599855762480363"><ele>489.5</ele><time>2026-04-21T16:00:11.001Z</time></trkpt><trkpt lat="43.04192968284134" lon="11.599775246260615"><ele>492.25</ele><time>2026-04-21T16:00:12.001Z</time></trkpt><trkpt lat="43.041801595153345" lon="11.599713891477654"><ele>495.0</ele><time>2026-04-21T16:00:13.001Z</time></trkpt><trkpt lat="43.04167092093917" lon="11.59967239777543"><ele>496.4</ele><time>2026-04-21T16:00:14.001Z</time></trkpt><trkpt lat="43.04155565851933" lon="11.59964203186722"><ele>497.8</ele><time>2026-04-21T16:00:15.001Z</time></trkpt><trkpt lat="43.04146479952208" lon="11.599628794396606"><ele>499.20000000000005</ele><time>2026-04-21T16:00:16.001Z</time></trkpt><trkpt lat="43.041400713971434" lon="11.599625109236259"><ele>500.6</ele><time>2026-04-21T16:00:17.001Z</time></trkpt><trkpt lat="43.041302879381625" lon="11.599594464432919"><ele>502.0</ele><time>2026-04-21T16:00:19.001Z</time></trkpt><trkpt lat="43.041195527931826" lon="11.599788721598602"><ele>502.0</ele><time>2026-04-21T16:00:20Z</time></trkpt><trkpt lat="43.04108405200299" lon="11.599865946290782"><ele>502.0</ele><time>2026-04-21T16:00:21Z</time></trkpt><trkpt lat="43.0409631893593" lon="11.599936375636316"><ele>502.0</ele><time>2026-04-21T16:00:22Z</time></trkpt><trkpt lat="43.04084126308177" lon="11.600019131899105"><ele>502.0</ele><time>2026-04-21T16:00:23Z</time></trkpt><trkpt lat="43.04070895869126" lon="11.600112617998942"><ele>504.0</ele><time>2026-04-21T16:00:24Z</time></trkpt><trkpt lat="43.04056530402589" lon="11.600203733676686"><ele>506.0</ele><time>2026-04-21T16:00:25Z</time></trkpt><trkpt lat="43.04044046373844" lon="11.600356539259861"><ele>508.0</ele><time>2026-04-21T16:00:26Z</time></trkpt><trkpt lat="43.04030700075268" lon="11.60050512018143"><ele>508.33333333333337</ele><time>2026-04-21T16:00:27Z</time></trkpt><trkpt lat="43.040174950401614" lon="11.600668768566223"><ele>508.66666666666663</ele><time>2026-04-21T16:00:28Z</time></trkpt><trkpt lat="43.04005163618206" lon="11.60083470980684"><ele>509.0</ele><time>2026-04-21T16:00:29Z</time></trkpt><trkpt lat="43.039942465205996" lon="11.600991654367668"><ele>509.0</ele><time>2026-04-21T16:00:30Z</time></trkpt><trkpt lat="43.039853864331306" lon="11.601130885858172"><ele>509.0</ele><time>2026-04-21T16:00:31Z</time></trkpt><trkpt lat="43.039781215520215" lon="11.601276279979455"><ele>509.0</ele><time>2026-04-21T16:00:32Z</time></trkpt><trkpt lat="43.03972804015231" lon="11.601453086779907"><ele>509.0</ele><time>2026-04-21T16:00:33Z</time></trkpt><trkpt lat="43.03967865323776" lon="11.601640221437759"><ele>508.75</ele><time>2026-04-21T16:00:34Z</time></trkpt><trkpt lat="43.03962756849037" lon="11.601842442624884"><ele>508.5</ele><time>2026-04-21T16:00:35Z</time></trkpt><trkpt lat="43.03959082462391" lon="11.602035823600737"><ele>508.25</ele><time>2026-04-21T16:00:36Z</time></trkpt><trkpt lat="43.03955825495955" lon="11.602229636909554"><ele>508.0</ele><time>2026-04-21T16:00:37Z</time></trkpt><trkpt lat="43.03951954021524" lon="11.602429374081277"><ele>509.33333333333337</ele><time>2026-04-21T16:00:38Z</time></trkpt><trkpt lat="43.0394637496924" lon="11.602637257668848"><ele>510.66666666666663</ele><time>2026-04-21T16:00:39Z</time></trkpt><trkpt lat="43.03938901510557" lon="11.60282965505448"><ele>512.0</ele><time>2026-04-21T16:00:40Z</time></trkpt><trkpt lat="43.03929432157451" lon="11.603026900036184"><ele>510.66666666666663</ele><time>2026-04-21T16:00:41Z</time></trkpt><trkpt lat="43.039165516147506" lon="11.60320251438281"><ele>509.33333333333337</ele><time>2026-04-21T16:00:42Z</time></trkpt><trkpt lat="43.03906121561076" lon="11.603386943428928"><ele>508.0</ele><time>2026-04-21T16:00:43Z</time></trkpt><trkpt lat="43.03895329813973" lon="11.6035371441303"><ele>509.5</ele><time>2026-04-21T16:00:44Z</time></trkpt><trkpt lat="43.03885998303933" lon="11.603688404545226"><ele>511.0</ele><time>2026-04-21T16:00:45Z</time></trkpt><trkpt lat="43.03877161878261" lon="11.603819511999676"><ele>512.5</ele><time>2026-04-21T16:00:46Z</time></trkpt><trkpt lat="43.038690351496896" lon="11.60394337125913"><ele>514.0</ele><time>2026-04-21T16:00:47Z</time></trkpt><trkpt lat="43.03863141522706" lon="11.604047685587627"><ele>514.0</ele><time>2026-04-21T16:00:48Z</time></trkpt><trkpt lat="43.0386017050021" lon="11.604153687081787"><ele>514.0</ele><time>2026-04-21T16:00:49Z</time></trkpt><trkpt lat="43.038587403250745" lon="11.604261379404264"><ele>514.0</ele><time>2026-04-21T16:00:50Z</time></trkpt><trkpt lat="43.038555000719086" lon="11.604360939169979"><ele>514.0</ele><time>2026-04-21T16:00:51Z</time></trkpt><trkpt lat="43.038529686674536" lon="11.604474444721658"><ele>514.0</ele><time>2026-04-21T16:00:52Z</time></trkpt><trkpt lat="43.03849785375257" lon="11.604618654391636"><ele>514.0</ele><time>2026-04-21T16:00:53Z</time></trkpt><trkpt lat="43.03848792929666" lon="11.604779400438"><ele>514.5</ele><time>2026-04-21T16:00:54Z</time></trkpt><trkpt lat="43.038452238122154" lon="11.6049491326571"><ele>515.0</ele><time>2026-04-21T16:00:55Z</time></trkpt><trkpt lat="43.03843303196121" lon="11.60513697380608"><ele>515.5</ele><time>2026-04-21T16:00:56Z</time></trkpt><trkpt lat="43.03841324416675" lon="11.60532284818326"><ele>516.0</ele><time>2026-04-21T16:00:57Z</time></trkpt><trkpt lat="43.03839490527542" lon="11.605488898486085"><ele>516.2</ele><time>2026-04-21T16:00:58Z</time></trkpt><trkpt lat="43.03838542240861" lon="11.605649707761033"><ele>516.4000000000001</ele><time>2026-04-21T16:00:59Z</time></trkpt><trkpt lat="43.03833898207808" lon="11.605781779123467"><ele>516.6</ele><time>2026-04-21T16:01:00Z</time></trkpt><trkpt lat="43.03830686060416" lon="11.605907378304499"><ele>516.8000000000001</ele><time>2026-04-21T16:01:01Z</time></trkpt><trkpt lat="43.038233722213505" lon="11.605997266668068"><ele>517.0</ele><time>2026-04-21T16:01:01.999Z</time></trkpt><trkpt lat="43.03815104293914" lon="11.606051317628124"><ele>514.6</ele><time>2026-04-21T16:01:02.999Z</time></trkpt><trkpt lat="43.03804776295643" lon="11.606088509012487"><ele>512.2</ele><time>2026-04-21T16:01:03.999Z</time></trkpt><trkpt lat="43.03793057628381" lon="11.606110365132944"><ele>509.8</ele><time>2026-04-21T16:01:04.999Z</time></trkpt><trkpt lat="43.03781964048148" lon="11.606119107710606"><ele>507.4</ele><time>2026-04-21T16:01:05.999Z</time></trkpt><trkpt lat="43.03771614488764" lon="11.60612850735059"><ele>505.0</ele><time>2026-04-21T16:01:06.999Z</time></trkpt><trkpt lat="43.037613658022444" lon="11.606140962905917"><ele>505.0</ele><time>2026-04-21T16:01:07.999Z</time></trkpt><trkpt lat="43.037515547432385" lon="11.606157604154987"><ele>505.0</ele><time>2026-04-21T16:01:09Z</time></trkpt><trkpt lat="43.03742104439007" lon="11.606172578556768"><ele>505.0</ele><time>2026-04-21T16:01:10Z</time></trkpt><trkpt lat="43.0373244964276" lon="11.606189100635902"><ele>505.0</ele><time>2026-04-21T16:01:11Z</time></trkpt><trkpt lat="43.03723103091053" lon="11.606205678237728"><ele>505.0</ele><time>2026-04-21T16:01:12Z</time></trkpt><trkpt lat="43.03714036946148" lon="11.606219236109911"><ele>502.83333333333337</ele><time>2026-04-21T16:01:13Z</time></trkpt><trkpt lat="43.03706029104363" lon="11.606226131141977"><ele>500.6666666666667</ele><time>2026-04-21T16:01:14Z</time></trkpt><trkpt lat="43.036984633310304" lon="11.606253566952716"><ele>498.5</ele><time>2026-04-21T16:01:15Z</time></trkpt><trkpt lat="43.036898669693066" lon="11.606290044827022"><ele>496.33333333333337</ele><time>2026-04-21T16:01:16Z</time></trkpt><trkpt lat="43.036831792659" lon="11.606346756521871"><ele>494.1666666666667</ele><time>2026-04-21T16:01:17Z</time></trkpt><trkpt lat="43.03675970360552" lon="11.606400134295349"><ele>492.0</ele><time>2026-04-21T16:01:18Z</time></trkpt><trkpt lat="43.03669054826087" lon="11.606481577480913"><ele>492.0</ele><time>2026-04-21T16:01:19Z</time></trkpt><trkpt lat="43.03663744819437" lon="11.606574460937859"><ele>492.0</ele><time>2026-04-21T16:01:20Z</time></trkpt><trkpt lat="43.03661585247024" lon="11.60669059011383"><ele>492.0</ele><time>2026-04-21T16:01:21Z</time></trkpt><trkpt lat="43.03657794029008" lon="11.606778838792533"><ele>492.0</ele><time>2026-04-21T16:01:22Z</time></trkpt><trkpt lat="43.036543692911685" lon="11.606891822814042"><ele>492.0</ele><time>2026-04-21T16:01:23Z</time></trkpt><trkpt lat="43.03651325365234" lon="11.607013218535423"><ele>492.0</ele><time>2026-04-21T16:01:24Z</time></trkpt><trkpt lat="43.03649645736593" lon="11.607120133761264"><ele>488.8333333333333</ele><time>2026-04-21T16:01:25Z</time></trkpt><trkpt lat="43.03648401459127" lon="11.607210153068218"><ele>485.66666666666663</ele><time>2026-04-21T16:01:26Z</time></trkpt><trkpt lat="43.03649823071682" lon="11.60730353333032"><ele>482.5</ele><time>2026-04-21T16:01:27Z</time></trkpt><trkpt lat="43.03647140307684" lon="11.607415804748177"><ele>479.3333333333333</ele><time>2026-04-21T16:01:29Z</time></trkpt><trkpt lat="43.03637190197646" lon="11.607491931465967"><ele>476.16666666666663</ele><time>2026-04-21T16:01:31Z</time></trkpt><trkpt lat="43.03629841541643" lon="11.607511145927598"><ele>473.0</ele><time>2026-04-21T16:01:32Z</time></trkpt><trkpt lat="43.03622406943273" lon="11.607549599558784"><ele>472.99999999999994</ele><time>2026-04-21T16:01:33Z</time></trkpt><trkpt lat="43.03614686449714" lon="11.607590838696252"><ele>473.0</ele><time>2026-04-21T16:01:34Z</time></trkpt><trkpt lat="43.036087273795516" lon="11.607641988109547"><ele>473.0</ele><time>2026-04-21T16:01:35Z</time></trkpt><trkpt lat="43.0360262982323" lon="11.607698595515966"><ele>473.0</ele><time>2026-04-21T16:01:36Z</time></trkpt><trkpt lat="43.036015377415914" lon="11.607806609979088"><ele>472.99999999999994</ele><time>2026-04-21T16:01:37Z</time></trkpt><trkpt lat="43.03598569303958" lon="11.607912596849173"><ele>473.0</ele><time>2026-04-21T16:01:38Z</time></trkpt><trkpt lat="43.0359736968067" lon="11.60803798907794"><ele>473.66666666666663</ele><time>2026-04-21T16:01:39Z</time></trkpt><trkpt lat="43.035964151355806" lon="11.608183475586356"><ele>474.3333333333333</ele><time>2026-04-21T16:01:40Z</time></trkpt><trkpt lat="43.03595344042213" lon="11.608313329601861"><ele>475.0</ele><time>2026-04-21T16:01:41Z</time></trkpt><trkpt lat="43.03595157403182" lon="11.608427521672493"><ele>475.66666666666663</ele><time>2026-04-21T16:01:42Z</time></trkpt><trkpt lat="43.03592544976944" lon="11.608514838982556"><ele>476.3333333333333</ele><time>2026-04-21T16:01:43Z</time></trkpt><trkpt lat="43.03587810784522" lon="11.608584930812725"><ele>477.0</ele><time>2026-04-21T16:01:44Z</time></trkpt><trkpt lat="43.03583262558967" lon="11.608648680499961"><ele>473.85714285714283</ele><time>2026-04-21T16:01:45Z</time></trkpt><trkpt lat="43.03576932858639" lon="11.608705567691876"><ele>470.71428571428567</ele><time>2026-04-21T16:01:46Z</time></trkpt><trkpt lat="43.03572646462039" lon="11.608777429737147"><ele>467.57142857142856</ele><time>2026-04-21T16:01:47Z</time></trkpt><trkpt lat="43.03569613212832" lon="11.60885497017351"><ele>464.42857142857144</ele><time>2026-04-21T16:01:48Z</time></trkpt><trkpt lat="43.035710811522144" lon="11.608968194650167"><ele>461.2857142857143</ele><time>2026-04-21T16:01:49Z</time></trkpt><trkpt lat="43.03572432502923" lon="11.609073739412597"><ele>458.1428571428571</ele><time>2026-04-21T16:01:50Z</time></trkpt><trkpt lat="43.03573792399073" lon="11.609176760021903"><ele>455.0</ele><time>2026-04-21T16:01:51Z</time></trkpt><trkpt lat="43.03575331892246" lon="11.609285442890284"><ele>454.99999999999994</ele><time>2026-04-21T16:01:52Z</time></trkpt><trkpt lat="43.03576191927019" lon="11.609379845059866"><ele>455.0</ele><time>2026-04-21T16:01:53Z</time></trkpt><trkpt lat="43.03576534034278" lon="11.609466883420865"><ele>455.0</ele><time>2026-04-21T16:01:54Z</time></trkpt><trkpt lat="43.03574721810404" lon="11.609583869043817"><ele>455.0</ele><time>2026-04-21T16:01:56Z</time></trkpt><trkpt lat="43.035633228071326" lon="11.60963754453851"><ele>454.99999999999994</ele><time>2026-04-21T16:01:58Z</time></trkpt><trkpt lat="43.03553932560285" lon="11.609648927289284"><ele>455.0</ele><time>2026-04-21T16:01:59Z</time></trkpt><trkpt lat="43.03544403611963" lon="11.609661303922296"><ele>454.16666666666663</ele><time>2026-04-21T16:02:00Z</time></trkpt><trkpt lat="43.035358826765254" lon="11.609665432944993"><ele>453.3333333333333</ele><time>2026-04-21T16:02:01Z</time></trkpt><trkpt lat="43.03527273323366" lon="11.609646669691363"><ele>452.5</ele><time>2026-04-21T16:02:02Z</time></trkpt><trkpt lat="43.03518834153684" lon="11.609626928512293"><ele>451.66666666666663</ele><time>2026-04-21T16:02:03Z</time></trkpt><trkpt lat="43.035108308970514" lon="11.609637627093484"><ele>450.8333333333333</ele><time>2026-04-21T16:02:04Z</time></trkpt><trkpt lat="43.035028188377225" lon="11.60966342632029"><ele>450.0</ele><time>2026-04-21T16:02:05Z</time></trkpt><trkpt lat="43.03493823959072" lon="11.609701775721051"><ele>449.8</ele><time>2026-04-21T16:02:06Z</time></trkpt><trkpt lat="43.0348569037043" lon="11.609759089745706"><ele>449.6</ele><time>2026-04-21T16:02:07Z</time></trkpt><trkpt lat="43.03477634915794" lon="11.609830068387899"><ele>449.4</ele><time>2026-04-21T16:02:08Z</time></trkpt><trkpt lat="43.03468844592464" lon="11.609911149331694"><ele>449.2</ele><time>2026-04-21T16:02:09Z</time></trkpt><trkpt lat="43.034599618792974" lon="11.610007206864834"><ele>449.0</ele><time>2026-04-21T16:02:10Z</time></trkpt><trkpt lat="43.03450679812588" lon="11.610113640739051"><ele>449.0</ele><time>2026-04-21T16:02:11Z</time></trkpt><trkpt lat="43.03441914401315" lon="11.61022883595296"><ele>449.0</ele><time>2026-04-21T16:02:12Z</time></trkpt><trkpt lat="43.03433662845633" lon="11.610327323304151"><ele>449.0</ele><time>2026-04-21T16:02:13Z</time></trkpt><trkpt lat="43.03426466994841" lon="11.610413935759876"><ele>449.0</ele><time>2026-04-21T16:02:14Z</time></trkpt><trkpt lat="43.03418380227606" lon="11.61045900226471"><ele>449.0</ele><time>2026-04-21T16:02:15Z</time></trkpt><trkpt lat="43.03412053562442" lon="11.610520420568317"><ele>445.5</ele><time>2026-04-21T16:02:16Z</time></trkpt><trkpt lat="43.034047886533685" lon="11.610701330572791"><ele>442.0</ele><time>2026-04-21T16:02:18Z</time></trkpt><trkpt lat="43.03405030849264" lon="11.61085052751273"><ele>438.5</ele><time>2026-04-21T16:02:19Z</time></trkpt><trkpt lat="43.034012622355235" lon="11.610998924235433"><ele>435.0</ele><time>2026-04-21T16:02:20Z</time></trkpt><trkpt lat="43.03398741174376" lon="11.611159411233682"><ele>433.0</ele><time>2026-04-21T16:02:21Z</time></trkpt><trkpt lat="43.033964484108914" lon="11.611329040847853"><ele>431.0</ele><time>2026-04-21T16:02:22Z</time></trkpt><trkpt lat="43.0339593359953" lon="11.611493372460512"><ele>429.0</ele><time>2026-04-21T16:02:23Z</time></trkpt><trkpt lat="43.03393650059123" lon="11.611649713921729"><ele>427.0</ele><time>2026-04-21T16:02:24Z</time></trkpt><trkpt lat="43.03391435411215" lon="11.611801883892955"><ele>427.0</ele><time>2026-04-21T16:02:25Z</time></trkpt><trkpt lat="43.03389084612811" lon="11.611959346183356"><ele>427.0</ele><time>2026-04-21T16:02:26Z</time></trkpt><trkpt lat="43.03387580132623" lon="11.61210767514795"><ele>427.0</ele><time>2026-04-21T16:02:27Z</time></trkpt><trkpt lat="43.03383971130949" lon="11.612267167272476"><ele>427.0</ele><time>2026-04-21T16:02:28Z</time></trkpt><trkpt lat="43.033840241678895" lon="11.612440508501646"><ele>426.75</ele><time>2026-04-21T16:02:29Z</time></trkpt><trkpt lat="43.03383681495261" lon="11.612633058375081"><ele>426.5</ele><time>2026-04-21T16:02:30Z</time></trkpt><trkpt lat="43.033832375957275" lon="11.612833024272147"><ele>426.25</ele><time>2026-04-21T16:02:31Z</time></trkpt><trkpt lat="43.033829771307" lon="11.613034913742935"><ele>426.0</ele><time>2026-04-21T16:02:32Z</time></trkpt><trkpt lat="43.03382694200613" lon="11.613228392270301"><ele>424.25</ele><time>2026-04-21T16:02:33Z</time></trkpt><trkpt lat="43.033826564787276" lon="11.613424850432827"><ele>422.5</ele><time>2026-04-21T16:02:34Z</time></trkpt><trkpt lat="43.033823033246684" lon="11.613616148909749"><ele>420.75</ele><time>2026-04-21T16:02:35Z</time></trkpt><trkpt lat="43.0338206970156" lon="11.613798368406867"><ele>419.0</ele><time>2026-04-21T16:02:36Z</time></trkpt><trkpt lat="43.033813659144" lon="11.613977327811249"><ele>416.5</ele><time>2026-04-21T16:02:36.999Z</time></trkpt><trkpt lat="43.033801029191885" lon="11.61414832330345"><ele>414.0</ele><time>2026-04-21T16:02:37.999Z</time></trkpt><trkpt lat="43.0337755957972" lon="11.61430611575856"><ele>411.5</ele><time>2026-04-21T16:02:38.999Z</time></trkpt><trkpt lat="43.03373911386866" lon="11.61446001542141"><ele>409.0</ele><time>2026-04-21T16:02:39.999Z</time></trkpt><trkpt lat="43.03367096576193" lon="11.61459523781589"><ele>406.0</ele><time>2026-04-21T16:02:40.999Z</time></trkpt><trkpt lat="43.033618003320804" lon="11.61473691372182"><ele>403.0</ele><time>2026-04-21T16:02:41.999Z</time></trkpt><trkpt lat="43.033462330840166" lon="11.614988433278102"><ele>400.0</ele><time>2026-04-21T16:02:43.999Z</time></trkpt><trkpt lat="43.03338815332745" lon="11.615112207027725"><ele>400.0</ele><time>2026-04-21T16:02:44.999Z</time></trkpt><trkpt lat="43.033313235782565" lon="11.615234157618037"><ele>400.0</ele><time>2026-04-21T16:02:45.999Z</time></trkpt><trkpt lat="43.03324468228706" lon="11.615355844263256"><ele>400.0</ele><time>2026-04-21T16:02:46.999Z</time></trkpt><trkpt lat="43.033171453028224" lon="11.615475422522984"><ele>400.0</ele><time>2026-04-21T16:02:47.999Z</time></trkpt><trkpt lat="43.033103603022596" lon="11.61558916201601"><ele>396.2</ele><time>2026-04-21T16:02:48.999Z</time></trkpt><trkpt lat="43.0330357415199" lon="11.615700271194621"><ele>392.4</ele><time>2026-04-21T16:02:49.999Z</time></trkpt><trkpt lat="43.032983009314016" lon="11.6158121088843"><ele>388.6</ele><time>2026-04-21T16:02:50.999Z</time></trkpt><trkpt lat="43.03293808414494" lon="11.615937708311582"><ele>384.8</ele><time>2026-04-21T16:02:51.999Z</time></trkpt><trkpt lat="43.03289410248554" lon="11.6160844081356"><ele>381.0</ele><time>2026-04-21T16:02:52.999Z</time></trkpt><trkpt lat="43.03284517569747" lon="11.61626088201334"><ele>380.0</ele><time>2026-04-21T16:02:53.999Z</time></trkpt><trkpt lat="43.03279190271969" lon="11.616451122107561"><ele>379.0</ele><time>2026-04-21T16:02:54.999Z</time></trkpt><trkpt lat="43.03272947842343" lon="11.616645787661309"><ele>378.0</ele><time>2026-04-21T16:02:55.999Z</time></trkpt><trkpt lat="43.03267694405092" lon="11.616828250111721"><ele>377.0</ele><time>2026-04-21T16:02:56.999Z</time></trkpt><trkpt lat="43.03262493307542" lon="11.61700494439441"><ele>376.0</ele><time>2026-04-21T16:02:57.999Z</time></trkpt><trkpt lat="43.032552469062544" lon="11.617170636480989"><ele>375.0</ele><time>2026-04-21T16:02:58.999Z</time></trkpt><trkpt lat="43.032503602902004" lon="11.617322435436325"><ele>374.0</ele><time>2026-04-21T16:02:59.999Z</time></trkpt><trkpt lat="43.0324223659277" lon="11.617440606059892"><ele>373.0</ele><time>2026-04-21T16:03:00.999Z</time></trkpt><trkpt lat="43.03235920090004" lon="11.617559059193372"><ele>370.8333333333333</ele><time>2026-04-21T16:03:01.999Z</time></trkpt><trkpt lat="43.03231256350081" lon="11.61768224085727"><ele>368.66666666666663</ele><time>2026-04-21T16:03:02.999Z</time></trkpt><trkpt lat="43.032261424986075" lon="11.617790530079825"><ele>366.5</ele><time>2026-04-21T16:03:03.999Z</time></trkpt><trkpt lat="43.03221481966859" lon="11.617889617089089"><ele>364.3333333333333</ele><time>2026-04-21T16:03:04.999Z</time></trkpt><trkpt lat="43.03215526390966" lon="11.617977259304103"><ele>362.1666666666667</ele><time>2026-04-21T16:03:05.999Z</time></trkpt><trkpt lat="43.03209478507839" lon="11.61803831437703"><ele>360.0</ele><time>2026-04-21T16:03:06.999Z</time></trkpt><trkpt lat="43.0320284196881" lon="11.618097831183228"><ele>360.0</ele><time>2026-04-21T16:03:07.999Z</time></trkpt><trkpt lat="43.03197164366329" lon="11.618177698845225"><ele>360.0</ele><time>2026-04-21T16:03:08.999Z</time></trkpt><trkpt lat="43.03193342843417" lon="11.618269112408944"><ele>360.0</ele><time>2026-04-21T16:03:09.999Z</time></trkpt><trkpt lat="43.03190626830877" lon="11.618353952244043"><ele>360.0</ele><time>2026-04-21T16:03:10.999Z</time></trkpt><trkpt lat="43.03189448194735" lon="11.618448074730686"><ele>360.0</ele><time>2026-04-21T16:03:11.999Z</time></trkpt><trkpt lat="43.031895651796006" lon="11.618538529457869"><ele>360.0</ele><time>2026-04-21T16:03:12.999Z</time></trkpt><trkpt lat="43.03190565708443" lon="11.618628413351711"><ele>360.0</ele><time>2026-04-21T16:03:13.999Z</time></trkpt><trkpt lat="43.031907096939435" lon="11.618727547696691"><ele>359.8333333333333</ele><time>2026-04-21T16:03:15Z</time></trkpt><trkpt lat="43.03188693539344" lon="11.618836653897876"><ele>359.6666666666667</ele><time>2026-04-21T16:03:16Z</time></trkpt><trkpt lat="43.03184172144734" lon="11.618922520246247"><ele>359.5</ele><time>2026-04-21T16:03:17Z</time></trkpt><trkpt lat="43.03177360673968" lon="11.61899263083894"><ele>359.33333333333337</ele><time>2026-04-21T16:03:18Z</time></trkpt><trkpt lat="43.03170137356882" lon="11.619052823092732"><ele>359.1666666666667</ele><time>2026-04-21T16:03:19Z</time></trkpt><trkpt lat="43.0316144678501" lon="11.619073896416149"><ele>359.0</ele><time>2026-04-21T16:03:20Z</time></trkpt><trkpt lat="43.03152875100731" lon="11.619066887668529"><ele>356.6666666666667</ele><time>2026-04-21T16:03:21Z</time></trkpt><trkpt lat="43.031459727514424" lon="11.619036182518748"><ele>354.33333333333337</ele><time>2026-04-21T16:03:22Z</time></trkpt><trkpt lat="43.03140156063277" lon="11.618986161068316"><ele>352.0</ele><time>2026-04-21T16:03:23Z</time></trkpt><trkpt lat="43.0313578028596" lon="11.61890934503585"><ele>349.6666666666667</ele><time>2026-04-21T16:03:24Z</time></trkpt><trkpt lat="43.03133986132874" lon="11.61881320957673"><ele>347.3333333333333</ele><time>2026-04-21T16:03:25Z</time></trkpt><trkpt lat="43.03131419967148" lon="11.618707510127148"><ele>345.0</ele><time>2026-04-21T16:03:26Z</time></trkpt><trkpt lat="43.031217680350245" lon="11.61859261913756"><ele>345.0</ele><time>2026-04-21T16:03:28Z</time></trkpt><trkpt lat="43.0311177795706" lon="11.618624000448266"><ele>345.0</ele><time>2026-04-21T16:03:29Z</time></trkpt><trkpt lat="43.031047651848" lon="11.618655998793194"><ele>345.0</ele><time>2026-04-21T16:03:30Z</time></trkpt><trkpt lat="43.030968676950465" lon="11.618684518160567"><ele>345.0</ele><time>2026-04-21T16:03:31Z</time></trkpt><trkpt lat="43.03088410278854" lon="11.618719649554437"><ele>345.0</ele><time>2026-04-21T16:03:32Z</time></trkpt><trkpt lat="43.030801906755784" lon="11.618743252260051"><ele>345.0</ele><time>2026-04-21T16:03:33Z</time></trkpt><trkpt lat="43.03071985240057" lon="11.618772268591972"><ele>342.3333333333333</ele><time>2026-04-21T16:03:34Z</time></trkpt><trkpt lat="43.030639113389086" lon="11.618813845054659"><ele>339.6666666666667</ele><time>2026-04-21T16:03:35Z</time></trkpt><trkpt lat="43.03056261869513" lon="11.618878116773331"><ele>337.0</ele><time>2026-04-21T16:03:36Z</time></trkpt><trkpt lat="43.03050250337922" lon="11.618959648355103"><ele>334.33333333333337</ele><time>2026-04-21T16:03:37Z</time></trkpt><trkpt lat="43.0304572276062" lon="11.61904374910247"><ele>331.6666666666667</ele><time>2026-04-21T16:03:38Z</time></trkpt><trkpt lat="43.03042799522897" lon="11.619138260189601"><ele>329.0</ele><time>2026-04-21T16:03:39Z</time></trkpt><trkpt lat="43.03041705380593" lon="11.61923298923715"><ele>329.0</ele><time>2026-04-21T16:03:40Z</time></trkpt><trkpt lat="43.03041529310947" lon="11.619338492891611"><ele>329.0</ele><time>2026-04-21T16:03:41Z</time></trkpt><trkpt lat="43.030401143483694" lon="11.619464118439604"><ele>329.0</ele><time>2026-04-21T16:03:42Z</time></trkpt><trkpt lat="43.03044693210301" lon="11.619598954300704"><ele>329.0</ele><time>2026-04-21T16:03:43Z</time></trkpt><trkpt lat="43.03048918849453" lon="11.619747103563531"><ele>329.0</ele><time>2026-04-21T16:03:44Z</time></trkpt><trkpt lat="43.03052562615108" lon="11.61990427989626"><ele>327.79999999999995</ele><time>2026-04-21T16:03:45Z</time></trkpt><trkpt lat="43.03056559092379" lon="11.6200447210925"><ele>326.59999999999997</ele><time>2026-04-21T16:03:46Z</time></trkpt><trkpt lat="43.03060756414167" lon="11.620184472804127"><ele>325.4</ele><time>2026-04-21T16:03:47Z</time></trkpt><trkpt lat="43.03059834819733" lon="11.620324291091878"><ele>324.2</ele><time>2026-04-21T16:03:48Z</time></trkpt><trkpt lat="43.030600940358305" lon="11.620445387105073"><ele>323.0</ele><time>2026-04-21T16:03:49Z</time></trkpt><trkpt lat="43.03056952971218" lon="11.620553988647726"><ele>321.83333333333337</ele><time>2026-04-21T16:03:50Z</time></trkpt><trkpt lat="43.03052442395992" lon="11.62065059486933"><ele>320.6666666666667</ele><time>2026-04-21T16:03:51Z</time></trkpt><trkpt lat="43.0304693938627" lon="11.62072112787665"><ele>319.5</ele><time>2026-04-21T16:03:52Z</time></trkpt><trkpt lat="43.03040852905959" lon="11.62074945905106"><ele>318.3333333333333</ele><time>2026-04-21T16:03:53Z</time></trkpt><trkpt lat="43.030330143287244" lon="11.620742988134825"><ele>317.16666666666663</ele><time>2026-04-21T16:03:54Z</time></trkpt><trkpt lat="43.03027000204118" lon="11.620654250834475"><ele>316.0</ele><time>2026-04-21T16:03:55Z</time></trkpt><trkpt lat="43.030189874076" lon="11.620616494368607"><ele>316.0</ele><time>2026-04-21T16:03:56Z</time></trkpt><trkpt lat="43.030103698742494" lon="11.620573741754903"><ele>316.0</ele><time>2026-04-21T16:03:57Z</time></trkpt><trkpt lat="43.030007770548785" lon="11.620573831483108"><ele>316.0</ele><time>2026-04-21T16:03:58Z</time></trkpt><trkpt lat="43.029900723716324" lon="11.620591888118108"><ele>316.0</ele><time>2026-04-21T16:03:59Z</time></trkpt><trkpt lat="43.029814836319574" lon="11.620612842502496"><ele>316.0</ele><time>2026-04-21T16:04:00Z</time></trkpt><trkpt lat="43.02972374548255" lon="11.620625643467966"><ele>314.16666666666663</ele><time>2026-04-21T16:04:01Z</time></trkpt><trkpt lat="43.02963844521421" lon="11.620635257124482"><ele>312.3333333333333</ele><time>2026-04-21T16:04:02Z</time></trkpt><trkpt lat="43.02955434960255" lon="11.620643489749485"><ele>310.5</ele><time>2026-04-21T16:04:03Z</time></trkpt><trkpt lat="43.02946280966341" lon="11.620644980915946"><ele>308.6666666666667</ele><time>2026-04-21T16:04:04Z</time></trkpt><trkpt lat="43.029371412494214" lon="11.620639666215094"><ele>306.83333333333337</ele><time>2026-04-21T16:04:05Z</time></trkpt><trkpt lat="43.0292908266672" lon="11.620619377400896"><ele>305.0</ele><time>2026-04-21T16:04:06Z</time></trkpt><trkpt lat="43.02921451235218" lon="11.620599097952688"><ele>305.0</ele><time>2026-04-21T16:04:07Z</time></trkpt><trkpt lat="43.02914465123281" lon="11.620570026809812"><ele>305.0</ele><time>2026-04-21T16:04:08Z</time></trkpt><trkpt lat="43.02907159355287" lon="11.620550155427496"><ele>305.0</ele><time>2026-04-21T16:04:09Z</time></trkpt><trkpt lat="43.0289970420898" lon="11.620541655605045"><ele>305.0</ele><time>2026-04-21T16:04:10Z</time></trkpt><trkpt lat="43.0289217685695" lon="11.620532143010957"><ele>305.0</ele><time>2026-04-21T16:04:11Z</time></trkpt><trkpt lat="43.02885894449216" lon="11.620525528685445"><ele>305.0</ele><time>2026-04-21T16:04:12Z</time></trkpt><trkpt lat="43.02879235104086" lon="11.620497357286737"><ele>305.0</ele><time>2026-04-21T16:04:13Z</time></trkpt><trkpt lat="43.028739804066284" lon="11.620437584712057"><ele>304.2</ele><time>2026-04-21T16:04:14Z</time></trkpt><trkpt lat="43.028691530428276" lon="11.620363449375546"><ele>303.4</ele><time>2026-04-21T16:04:15Z</time></trkpt><trkpt lat="43.02863997297221" lon="11.620290950959042"><ele>302.6</ele><time>2026-04-21T16:04:16Z</time></trkpt><trkpt lat="43.028586960729776" lon="11.620230156336866"><ele>301.8</ele><time>2026-04-21T16:04:17Z</time></trkpt><trkpt lat="43.02849914174656" lon="11.620148859573442"><ele>301.0</ele><time>2026-04-21T16:04:19Z</time></trkpt><trkpt lat="43.02841942772447" lon="11.620351069860961"><ele>299.5</ele><time>2026-04-21T16:04:24Z</time></trkpt><trkpt lat="43.02839115790743" lon="11.620618714929227"><ele>298.0</ele><time>2026-04-21T16:04:26Z</time></trkpt><trkpt lat="43.02837518306453" lon="11.620783285910639"><ele>296.5</ele><time>2026-04-21T16:04:27Z</time></trkpt><trkpt lat="43.02834985498252" lon="11.620953494014431"><ele>295.0</ele><time>2026-04-21T16:04:28Z</time></trkpt><trkpt lat="43.02832162991464" lon="11.62113477752767"><ele>286.66666666666663</ele><time>2026-04-21T16:04:29Z</time></trkpt><trkpt lat="43.02829080491341" lon="11.621330766147054"><ele>278.3333333333333</ele><time>2026-04-21T16:04:30Z</time></trkpt><trkpt lat="43.02826253926558" lon="11.621535173299934"><ele>270.0</ele><time>2026-04-21T16:04:31Z</time></trkpt><trkpt lat="43.02823716248093" lon="11.621739204335187"><ele>270.0</ele><time>2026-04-21T16:04:32Z</time></trkpt><trkpt lat="43.02820496309579" lon="11.621935229433348"><ele>270.0</ele><time>2026-04-21T16:04:33Z</time></trkpt><trkpt lat="43.028174639949185" lon="11.622124765738784"><ele>270.0</ele><time>2026-04-21T16:04:34Z</time></trkpt><trkpt lat="43.028142531738894" lon="11.622312812912046"><ele>270.0</ele><time>2026-04-21T16:04:35Z</time></trkpt><trkpt lat="43.028107539378134" lon="11.622494570192272"><ele>268.5</ele><time>2026-04-21T16:04:36Z</time></trkpt><trkpt lat="43.02806495033609" lon="11.622677464391275"><ele>267.0</ele><time>2026-04-21T16:04:37Z</time></trkpt><trkpt lat="43.028017524745046" lon="11.622854602895094"><ele>265.5</ele><time>2026-04-21T16:04:38Z</time></trkpt><trkpt lat="43.027971240155544" lon="11.62303204858473"><ele>264.0</ele><time>2026-04-21T16:04:39Z</time></trkpt><trkpt lat="43.02793561321344" lon="11.62320820480723"><ele>262.5</ele><time>2026-04-21T16:04:40Z</time></trkpt><trkpt lat="43.02791252535047" lon="11.6233833615982"><ele>261.0</ele><time>2026-04-21T16:04:41Z</time></trkpt><trkpt lat="43.0279037309963" lon="11.623575085723804"><ele>259.5</ele><time>2026-04-21T16:04:42Z</time></trkpt><trkpt lat="43.02791146662454" lon="11.623767714320286"><ele>258.0</ele><time>2026-04-21T16:04:43Z</time></trkpt><trkpt lat="43.02793141625396" lon="11.623966495939564"><ele>258.0</ele><time>2026-04-21T16:04:44Z</time></trkpt><trkpt lat="43.02796508974254" lon="11.624152422373989"><ele>258.0</ele><time>2026-04-21T16:04:45Z</time></trkpt><trkpt lat="43.028007636686795" lon="11.624333065548454"><ele>258.0</ele><time>2026-04-21T16:04:45.999Z</time></trkpt><trkpt lat="43.02805958137999" lon="11.62450787046525"><ele>258.0</ele><time>2026-04-21T16:04:46.999Z</time></trkpt><trkpt lat="43.028118511954396" lon="11.62467084755605"><ele>258.0</ele><time>2026-04-21T16:04:47.999Z</time></trkpt><trkpt lat="43.028176929770815" lon="11.624819787483887"><ele>258.0</ele><time>2026-04-21T16:04:48.999Z</time></trkpt><trkpt lat="43.028229032525246" lon="11.624943698411276"><ele>258.0</ele><time>2026-04-21T16:04:49.999Z</time></trkpt><trkpt lat="43.02826209120649" lon="11.62505733051842"><ele>258.0</ele><time>2026-04-21T16:04:50.999Z</time></trkpt><trkpt lat="43.028269217864775" lon="11.625147097152672"><ele>258.0</ele><time>2026-04-21T16:04:51.999Z</time></trkpt><trkpt lat="43.02830353785162" lon="11.62527980381085"><ele>259.25</ele><time>2026-04-21T16:04:53.999Z</time></trkpt><trkpt lat="43.0281696995491" lon="11.62540201757473"><ele>260.5</ele><time>2026-04-21T16:04:54.999Z</time></trkpt><trkpt lat="43.028092289680934" lon="11.62548382451229"><ele>261.75</ele><time>2026-04-21T16:04:55.999Z</time></trkpt><trkpt lat="43.02799449497078" lon="11.625573867640231"><ele>263.0</ele><time>2026-04-21T16:04:56.999Z</time></trkpt><trkpt lat="43.02789156741807" lon="11.625679615035969"><ele>263.0</ele><time>2026-04-21T16:04:57.999Z</time></trkpt><trkpt lat="43.02778683786679" lon="11.62579869189414"><ele>263.0</ele><time>2026-04-21T16:04:58.999Z</time></trkpt><trkpt lat="43.02768791320477" lon="11.62590513751639"><ele>263.0</ele><time>2026-04-21T16:04:59.999Z</time></trkpt><trkpt lat="43.02761151266184" lon="11.626009276694743"><ele>263.0</ele><time>2026-04-21T16:05:00.999Z</time></trkpt><trkpt lat="43.027578544437155" lon="11.626134570933981"><ele>265.25</ele><time>2026-04-21T16:05:01.999Z</time></trkpt><trkpt lat="43.0275793614369" lon="11.626279011521037"><ele>267.5</ele><time>2026-04-21T16:05:02.999Z</time></trkpt><trkpt lat="43.0276138613865" lon="11.626443087232083"><ele>269.75</ele><time>2026-04-21T16:05:03.999Z</time></trkpt><trkpt lat="43.027648261096346" lon="11.626633512659815"><ele>272.0</ele><time>2026-04-21T16:05:04.999Z</time></trkpt><trkpt lat="43.027648210585255" lon="11.626823843717034"><ele>271.6666666666667</ele><time>2026-04-21T16:05:05.999Z</time></trkpt><trkpt lat="43.02760148389218" lon="11.627021758431596"><ele>271.3333333333333</ele><time>2026-04-21T16:05:06.999Z</time></trkpt><trkpt lat="43.027509382932294" lon="11.627204233075378"><ele>271.0</ele><time>2026-04-21T16:05:07.999Z</time></trkpt><trkpt lat="43.02742680579685" lon="11.627416095920855"><ele>273.0</ele><time>2026-04-21T16:05:08.999Z</time></trkpt><trkpt lat="43.027316801015914" lon="11.627568894872566"><ele>275.0</ele><time>2026-04-21T16:05:09.999Z</time></trkpt><trkpt lat="43.02720294336286" lon="11.627670651401727"><ele>277.0</ele><time>2026-04-21T16:05:10.999Z</time></trkpt><trkpt lat="43.027061723462985" lon="11.627717319974511"><ele>279.0</ele><time>2026-04-21T16:05:11.999Z</time></trkpt><trkpt lat="43.02690045371369" lon="11.627747310566255"><ele>279.0</ele><time>2026-04-21T16:05:12.999Z</time></trkpt><trkpt lat="43.02672974806268" lon="11.6277630420654"><ele>279.0</ele><time>2026-04-21T16:05:13.999Z</time></trkpt><trkpt lat="43.02655277732955" lon="11.627784818549845"><ele>279.0</ele><time>2026-04-21T16:05:14.999Z</time></trkpt><trkpt lat="43.02636330649746" lon="11.627807809108772"><ele>277.0</ele><time>2026-04-21T16:05:15.999Z</time></trkpt><trkpt lat="43.02618624456031" lon="11.627833401513138"><ele>275.0</ele><time>2026-04-21T16:05:16.999Z</time></trkpt><trkpt lat="43.02602524339042" lon="11.627858680335413"><ele>273.0</ele><time>2026-04-21T16:05:17.999Z</time></trkpt><trkpt lat="43.025896263782485" lon="11.62791612178955"><ele>275.0</ele><time>2026-04-21T16:05:18.999Z</time></trkpt><trkpt lat="43.02576658400783" lon="11.628011856551028"><ele>277.0</ele><time>2026-04-21T16:05:19.999Z</time></trkpt><trkpt lat="43.02565854046483" lon="11.628147293281643"><ele>279.0</ele><time>2026-04-21T16:05:21Z</time></trkpt><trkpt lat="43.0255670229006" lon="11.628323983587643"><ele>279.0</ele><time>2026-04-21T16:05:22Z</time></trkpt><trkpt lat="43.025467153211906" lon="11.628530269735837"><ele>279.0</ele><time>2026-04-21T16:05:23Z</time></trkpt><trkpt lat="43.025364369059105" lon="11.628747307510945"><ele>279.0</ele><time>2026-04-21T16:05:24Z</time></trkpt><trkpt lat="43.025254818265154" lon="11.628965148534006"><ele>276.3333333333333</ele><time>2026-04-21T16:05:25Z</time></trkpt><trkpt lat="43.02513598695599" lon="11.629196158355958"><ele>273.66666666666663</ele><time>2026-04-21T16:05:26Z</time></trkpt><trkpt lat="43.02501827812186" lon="11.62942337435303"><ele>271.0</ele><time>2026-04-21T16:05:27Z</time></trkpt><trkpt lat="43.02491228100879" lon="11.629634864273214"><ele>269.0</ele><time>2026-04-21T16:05:28Z</time></trkpt><trkpt lat="43.02481580796305" lon="11.629841671732546"><ele>267.0</ele><time>2026-04-21T16:05:29Z</time></trkpt><trkpt lat="43.02474093463916" lon="11.630051103875136"><ele>265.0</ele><time>2026-04-21T16:05:30Z</time></trkpt><trkpt lat="43.02469575736599" lon="11.630276098033663"><ele>264.0</ele><time>2026-04-21T16:05:31Z</time></trkpt><trkpt lat="43.0246794342979" lon="11.630509109542542"><ele>263.0</ele><time>2026-04-21T16:05:32Z</time></trkpt><trkpt lat="43.02467037417744" lon="11.630737282195124"><ele>262.0</ele><time>2026-04-21T16:05:33Z</time></trkpt><trkpt lat="43.024656589851055" lon="11.63093844638685"><ele>262.0</ele><time>2026-04-21T16:05:34Z</time></trkpt><trkpt lat="43.02461488945" lon="11.631123210244986"><ele>262.0</ele><time>2026-04-21T16:05:35Z</time></trkpt><trkpt lat="43.02452262334208" lon="11.631282870748326"><ele>262.0</ele><time>2026-04-21T16:05:36Z</time></trkpt><trkpt lat="43.024396776748006" lon="11.631422020410756"><ele>262.66666666666663</ele><time>2026-04-21T16:05:37Z</time></trkpt><trkpt lat="43.024249843246686" lon="11.63155746222892"><ele>263.3333333333333</ele><time>2026-04-21T16:05:38Z</time></trkpt><trkpt lat="43.02408703152312" lon="11.631692088641117"><ele>264.0</ele><time>2026-04-21T16:05:39Z</time></trkpt><trkpt lat="43.02391909670141" lon="11.631843597578222"><ele>265.3333333333333</ele><time>2026-04-21T16:05:40Z</time></trkpt><trkpt lat="43.02374965614475" lon="11.632002710501716"><ele>266.66666666666663</ele><time>2026-04-21T16:05:41Z</time></trkpt><trkpt lat="43.02359198679147" lon="11.63215497305907"><ele>268.0</ele><time>2026-04-21T16:05:42Z</time></trkpt><trkpt lat="43.02343491229332" lon="11.632304348748685"><ele>268.3333333333333</ele><time>2026-04-21T16:05:43Z</time></trkpt><trkpt lat="43.02323994312103" lon="11.632421479515983"><ele>268.6666666666667</ele><time>2026-04-21T16:05:44Z</time></trkpt><trkpt lat="43.02305743304468" lon="11.632482877951478"><ele>269.0</ele><time>2026-04-21T16:05:45Z</time></trkpt><trkpt lat="43.02288455559441" lon="11.6325234532536"><ele>269.0</ele><time>2026-04-21T16:05:46Z</time></trkpt><trkpt lat="43.02271847101538" lon="11.632612303480363"><ele>269.0</ele><time>2026-04-21T16:05:47Z</time></trkpt><trkpt lat="43.022567645640486" lon="11.632762688726977"><ele>269.0</ele><time>2026-04-21T16:05:48Z</time></trkpt><trkpt lat="43.022447189859996" lon="11.632947112374909"><ele>271.0</ele><time>2026-04-21T16:05:49Z</time></trkpt><trkpt lat="43.022366515189866" lon="11.633175116578787"><ele>273.0</ele><time>2026-04-21T16:05:50Z</time></trkpt><trkpt lat="43.02230465696938" lon="11.633420060228355"><ele>275.0</ele><time>2026-04-21T16:05:51Z</time></trkpt><trkpt lat="43.022264768982026" lon="11.633685114266468"><ele>276.33333333333337</ele><time>2026-04-21T16:05:52Z</time></trkpt><trkpt lat="43.02222656873469" lon="11.633966436782455"><ele>277.6666666666667</ele><time>2026-04-21T16:05:53Z</time></trkpt><trkpt lat="43.02218679532425" lon="11.634255625246745"><ele>279.0</ele><time>2026-04-21T16:05:54Z</time></trkpt><trkpt lat="43.02214255899877" lon="11.634556797549614"><ele>280.5</ele><time>2026-04-21T16:05:55Z</time></trkpt><trkpt lat="43.022094938773776" lon="11.634861603969986"><ele>282.0</ele><time>2026-04-21T16:05:56Z</time></trkpt><trkpt lat="43.02204851179882" lon="11.635166166322703"><ele>282.6666666666667</ele><time>2026-04-21T16:05:57Z</time></trkpt><trkpt lat="43.02200464454949" lon="11.635463199836957"><ele>283.33333333333337</ele><time>2026-04-21T16:05:58Z</time></trkpt><trkpt lat="43.0219624626451" lon="11.635727375796472"><ele>284.0</ele><time>2026-04-21T16:05:59Z</time></trkpt><trkpt lat="43.02192046574688" lon="11.635970163852289"><ele>285.0</ele><time>2026-04-21T16:06:00Z</time></trkpt><trkpt lat="43.02187360778067" lon="11.636213009494957"><ele>286.0</ele><time>2026-04-21T16:06:01Z</time></trkpt><trkpt lat="43.02182501360345" lon="11.636463124026925"><ele>287.0</ele><time>2026-04-21T16:06:02Z</time></trkpt><trkpt lat="43.02181916328649" lon="11.636712055609154"><ele>286.5</ele><time>2026-04-21T16:06:03Z</time></trkpt><trkpt lat="43.02177010388366" lon="11.636996620727096"><ele>286.0</ele><time>2026-04-21T16:06:04Z</time></trkpt><trkpt lat="43.021713583365674" lon="11.637317402630229"><ele>286.0</ele><time>2026-04-21T16:06:05Z</time></trkpt><trkpt lat="43.02165916730231" lon="11.63767206014955"><ele>286.0</ele><time>2026-04-21T16:06:06Z</time></trkpt><trkpt lat="43.02160423604025" lon="11.638060176115339"><ele>285.5</ele><time>2026-04-21T16:06:07Z</time></trkpt><trkpt lat="43.02154797203091" lon="11.63843682405636"><ele>285.0</ele><time>2026-04-21T16:06:08Z</time></trkpt><trkpt lat="43.02148706303987" lon="11.638826233188656"><ele>285.0</ele><time>2026-04-21T16:06:09Z</time></trkpt><trkpt lat="43.02142100995915" lon="11.639191978075175"><ele>285.0</ele><time>2026-04-21T16:06:10Z</time></trkpt><trkpt lat="43.021358709069574" lon="11.63950942173369"><ele>284.6666666666667</ele><time>2026-04-21T16:06:11Z</time></trkpt><trkpt lat="43.02129424598513" lon="11.639798071464144"><ele>284.33333333333337</ele><time>2026-04-21T16:06:12Z</time></trkpt><trkpt lat="43.021219424077046" lon="11.640061777848176"><ele>284.0</ele><time>2026-04-21T16:06:13Z</time></trkpt><trkpt lat="43.02111071992889" lon="11.640293743245962"><ele>283.0</ele><time>2026-04-21T16:06:14Z</time></trkpt><trkpt lat="43.02098241256449" lon="11.640520503812791"><ele>282.0</ele><time>2026-04-21T16:06:15Z</time></trkpt><trkpt lat="43.020841637184425" lon="11.640750817426236"><ele>281.0</ele><time>2026-04-21T16:06:16Z</time></trkpt><trkpt lat="43.0207074699679" lon="11.640997476877274"><ele>278.33333333333337</ele><time>2026-04-21T16:06:17Z</time></trkpt><trkpt lat="43.02056219968798" lon="11.641204862472208"><ele>275.6666666666667</ele><time>2026-04-21T16:06:18Z</time></trkpt><trkpt lat="43.02043083730089" lon="11.641409342573613"><ele>273.0</ele><time>2026-04-21T16:06:19Z</time></trkpt><trkpt lat="43.02030701784269" lon="11.641605305611694"><ele>273.0</ele><time>2026-04-21T16:06:20Z</time></trkpt><trkpt lat="43.02018925369031" lon="11.641786467291743"><ele>273.0</ele><time>2026-04-21T16:06:21Z</time></trkpt><trkpt lat="43.020071370544514" lon="11.641962129755141"><ele>273.0</ele><time>2026-04-21T16:06:22Z</time></trkpt><trkpt lat="43.01996362753231" lon="11.642135948989013"><ele>272.3333333333333</ele><time>2026-04-21T16:06:23Z</time></trkpt><trkpt lat="43.019874870068115" lon="11.642328255339637"><ele>271.66666666666663</ele><time>2026-04-21T16:06:24Z</time></trkpt><trkpt lat="43.0198048000619" lon="11.642547956669494"><ele>271.0</ele><time>2026-04-21T16:06:25Z</time></trkpt><trkpt lat="43.01976873106932" lon="11.642805037827808"><ele>270.3333333333333</ele><time>2026-04-21T16:06:26Z</time></trkpt><trkpt lat="43.019774330009255" lon="11.64309551578271"><ele>269.6666666666667</ele><time>2026-04-21T16:06:27Z</time></trkpt><trkpt lat="43.01980660260744" lon="11.64341083862627"><ele>269.0</ele><time>2026-04-21T16:06:28Z</time></trkpt><trkpt lat="43.01984741871098" lon="11.643692465188098"><ele>268.8</ele><time>2026-04-21T16:06:29Z</time></trkpt><trkpt lat="43.01986932411541" lon="11.643908006822576"><ele>268.59999999999997</ele><time>2026-04-21T16:06:30Z</time></trkpt><trkpt lat="43.01988028624379" lon="11.643998335761832"><ele>268.4</ele><time>2026-04-21T16:06:31Z</time></trkpt><trkpt lat="43.01984877377646" lon="11.64408269573844"><ele>268.2</ele><time>2026-04-21T16:06:33Z</time></trkpt><trkpt lat="43.01975256462085" lon="11.644055291139647"><ele>268.0</ele><time>2026-04-21T16:06:35Z</time></trkpt><trkpt lat="43.0196623496042" lon="11.644081082811152"><ele>268.0</ele><time>2026-04-21T16:06:36Z</time></trkpt><trkpt lat="43.01954080109461" lon="11.644084289426333"><ele>268.0</ele><time>2026-04-21T16:06:37Z</time></trkpt><trkpt lat="43.01939771297252" lon="11.644067799824583"><ele>268.0</ele><time>2026-04-21T16:06:38Z</time></trkpt><trkpt lat="43.01925347869974" lon="11.643996823353296"><ele>268.0</ele><time>2026-04-21T16:06:39Z</time></trkpt><trkpt lat="43.019087873121" lon="11.643925790572242"><ele>268.0</ele><time>2026-04-21T16:06:40Z</time></trkpt><trkpt lat="43.01890886107403" lon="11.643847687771345"><ele>268.0</ele><time>2026-04-21T16:06:41Z</time></trkpt><trkpt lat="43.01873914746777" lon="11.643778392979076"><ele>268.0</ele><time>2026-04-21T16:06:42Z</time></trkpt><trkpt lat="43.01855304776283" lon="11.64371508266894"><ele>268.0</ele><time>2026-04-21T16:06:43Z</time></trkpt><trkpt lat="43.01835954888985" lon="11.643668732380668"><ele>268.0</ele><time>2026-04-21T16:06:44Z</time></trkpt><trkpt lat="43.01816057575541" lon="11.64367427364204"><ele>268.0</ele><time>2026-04-21T16:06:45Z</time></trkpt><trkpt lat="43.017955041797926" lon="11.643660258226534"><ele>268.3333333333333</ele><time>2026-04-21T16:06:46Z</time></trkpt><trkpt lat="43.01775208036172" lon="11.643646167849932"><ele>268.6666666666667</ele><time>2026-04-21T16:06:46.999Z</time></trkpt><trkpt lat="43.017547363194474" lon="11.643621570030835"><ele>269.0</ele><time>2026-04-21T16:06:47.999Z</time></trkpt><trkpt lat="43.01734638211964" lon="11.643588347757893"><ele>271.33333333333337</ele><time>2026-04-21T16:06:48.999Z</time></trkpt><trkpt lat="43.017151182305646" lon="11.643553517445367"><ele>273.6666666666667</ele><time>2026-04-21T16:06:49.999Z</time></trkpt><trkpt lat="43.01695354910392" lon="11.643509892075311"><ele>276.0</ele><time>2026-04-21T16:06:50.999Z</time></trkpt><trkpt lat="43.01675755778288" lon="11.643478293261055"><ele>275.3333333333333</ele><time>2026-04-21T16:06:51.999Z</time></trkpt><trkpt lat="43.01657918588827" lon="11.643448712318522"><ele>274.66666666666663</ele><time>2026-04-21T16:06:52.999Z</time></trkpt><trkpt lat="43.016410215751705" lon="11.643420134533248"><ele>274.0</ele><time>2026-04-21T16:06:53.999Z</time></trkpt><trkpt lat="43.01625609075033" lon="11.643399155649753"><ele>274.0</ele><time>2026-04-21T16:06:54.999Z</time></trkpt><trkpt lat="43.01612039204614" lon="11.643380512160963"><ele>274.0</ele><time>2026-04-21T16:06:55.999Z</time></trkpt><trkpt lat="43.01600252492156" lon="11.643354437024794"><ele>274.0</ele><time>2026-04-21T16:06:56.999Z</time></trkpt><trkpt lat="43.015915572388884" lon="11.643297123663832"><ele>274.0</ele><time>2026-04-21T16:06:57.999Z</time></trkpt><trkpt lat="43.01582559333433" lon="11.643212673588875"><ele>275.0</ele><time>2026-04-21T16:06:58.999Z</time></trkpt><trkpt lat="43.01573140359881" lon="11.643092481886532"><ele>276.0</ele><time>2026-04-21T16:06:59.999Z</time></trkpt><trkpt lat="43.01560853054861" lon="11.642994511682566"><ele>277.0</ele><time>2026-04-21T16:07:00.999Z</time></trkpt><trkpt lat="43.015478669626255" lon="11.64293672626478"><ele>278.0</ele><time>2026-04-21T16:07:01.999Z</time></trkpt><trkpt lat="43.01535281035694" lon="11.642925318162247"><ele>278.0</ele><time>2026-04-21T16:07:02.999Z</time></trkpt><trkpt lat="43.015224806237136" lon="11.642945713115255"><ele>278.0</ele><time>2026-04-21T16:07:03.999Z</time></trkpt><trkpt lat="43.01509749410458" lon="11.642980587066736"><ele>278.0</ele><time>2026-04-21T16:07:04.999Z</time></trkpt><trkpt lat="43.01497415367054" lon="11.643000235616501"><ele>278.0</ele><time>2026-04-21T16:07:05.999Z</time></trkpt><trkpt lat="43.01485711441017" lon="11.643013512281788"><ele>278.4</ele><time>2026-04-21T16:07:06.999Z</time></trkpt><trkpt lat="43.01477248124306" lon="11.643017095793375"><ele>278.8</ele><time>2026-04-21T16:07:07.999Z</time></trkpt><trkpt lat="43.01468746338873" lon="11.64302959299861"><ele>279.2</ele><time>2026-04-21T16:07:08.999Z</time></trkpt><trkpt lat="43.01457354517624" lon="11.643052001183637"><ele>279.6</ele><time>2026-04-21T16:07:09.999Z</time></trkpt><trkpt lat="43.01443415883626" lon="11.643077356859745"><ele>280.0</ele><time>2026-04-21T16:07:10.999Z</time></trkpt><trkpt lat="43.01427432523254" lon="11.643100031334487"><ele>281.0</ele><time>2026-04-21T16:07:11.999Z</time></trkpt><trkpt lat="43.014102399911174" lon="11.643122455592346"><ele>282.0</ele><time>2026-04-21T16:07:12.999Z</time></trkpt><trkpt lat="43.0139296271795" lon="11.643149220913116"><ele>283.0</ele><time>2026-04-21T16:07:13.999Z</time></trkpt><trkpt lat="43.01375711804692" lon="11.643178225104057"><ele>283.0</ele><time>2026-04-21T16:07:14.999Z</time></trkpt><trkpt lat="43.013583516756924" lon="11.64320144981365"><ele>283.0</ele><time>2026-04-21T16:07:15.999Z</time></trkpt><trkpt lat="43.013401528461685" lon="11.64323060267725"><ele>283.0</ele><time>2026-04-21T16:07:16.999Z</time></trkpt><trkpt lat="43.01325728243059" lon="11.643262562712884"><ele>282.75</ele><time>2026-04-21T16:07:17.999Z</time></trkpt><trkpt lat="43.01313098377643" lon="11.643278339486564"><ele>282.5</ele><time>2026-04-21T16:07:18.999Z</time></trkpt><trkpt lat="43.01303189351526" lon="11.643265820306215"><ele>282.25</ele><time>2026-04-21T16:07:19.999Z</time></trkpt><trkpt lat="43.01293722154689" lon="11.643218806515303"><ele>282.0</ele><time>2026-04-21T16:07:20.999Z</time></trkpt><trkpt lat="43.01282797961951" lon="11.643141774721377"><ele>282.0</ele><time>2026-04-21T16:07:21.999Z</time></trkpt><trkpt lat="43.01271184337239" lon="11.643041768100618"><ele>282.0</ele><time>2026-04-21T16:07:22.999Z</time></trkpt><trkpt lat="43.01259367479906" lon="11.642961852985628"><ele>282.0</ele><time>2026-04-21T16:07:23.999Z</time></trkpt><trkpt lat="43.012493450979605" lon="11.642910631537218"><ele>282.0</ele><time>2026-04-21T16:07:24.999Z</time></trkpt><trkpt lat="43.01239871596398" lon="11.64288508208833"><ele>283.2</ele><time>2026-04-21T16:07:25.999Z</time></trkpt><trkpt lat="43.01231884387168" lon="11.642907813849503"><ele>284.4</ele><time>2026-04-21T16:07:27Z</time></trkpt><trkpt lat="43.01222749353211" lon="11.642971010872138"><ele>285.6</ele><time>2026-04-21T16:07:28Z</time></trkpt><trkpt lat="43.012124610279606" lon="11.643067845674405"><ele>286.8</ele><time>2026-04-21T16:07:29Z</time></trkpt><trkpt lat="43.01201848005591" lon="11.643153434506214"><ele>288.0</ele><time>2026-04-21T16:07:30Z</time></trkpt><trkpt lat="43.01190610745261" lon="11.643201312020572"><ele>288.0</ele><time>2026-04-21T16:07:31Z</time></trkpt><trkpt lat="43.01179337375654" lon="11.643210340783023"><ele>288.0</ele><time>2026-04-21T16:07:32Z</time></trkpt><trkpt lat="43.011670677208265" lon="11.643178454501841"><ele>288.0</ele><time>2026-04-21T16:07:33Z</time></trkpt><trkpt lat="43.01154895073086" lon="11.643112146772655"><ele>288.0</ele><time>2026-04-21T16:07:34Z</time></trkpt><trkpt lat="43.01141905187714" lon="11.643006686998797"><ele>288.3333333333333</ele><time>2026-04-21T16:07:35Z</time></trkpt><trkpt lat="43.011282979318516" lon="11.642880836898408"><ele>288.66666666666663</ele><time>2026-04-21T16:07:36Z</time></trkpt><trkpt lat="43.01114545562275" lon="11.642761968650976"><ele>289.0</ele><time>2026-04-21T16:07:37Z</time></trkpt><trkpt lat="43.01100087047507" lon="11.642643502319178"><ele>289.3333333333333</ele><time>2026-04-21T16:07:38Z</time></trkpt><trkpt lat="43.010852291104854" lon="11.642512587875578"><ele>289.6666666666667</ele><time>2026-04-21T16:07:39Z</time></trkpt><trkpt lat="43.010724843324425" lon="11.642351170208034"><ele>290.0</ele><time>2026-04-21T16:07:40Z</time></trkpt><trkpt lat="43.010598379813636" lon="11.642169580632393"><ele>290.6666666666667</ele><time>2026-04-21T16:07:41Z</time></trkpt><trkpt lat="43.01046751702166" lon="11.641976746257289"><ele>291.3333333333333</ele><time>2026-04-21T16:07:42Z</time></trkpt><trkpt lat="43.01031610899698" lon="11.641812041636676"><ele>292.0</ele><time>2026-04-21T16:07:43Z</time></trkpt><trkpt lat="43.010174682422395" lon="11.64164976844492"><ele>292.5</ele><time>2026-04-21T16:07:44Z</time></trkpt><trkpt lat="43.01004408685743" lon="11.641509889932998"><ele>293.0</ele><time>2026-04-21T16:07:45Z</time></trkpt><trkpt lat="43.00992227725928" lon="11.64138442362672"><ele>293.5</ele><time>2026-04-21T16:07:46Z</time></trkpt><trkpt lat="43.009857474391495" lon="11.641237299456291"><ele>294.0</ele><time>2026-04-21T16:07:47Z</time></trkpt><trkpt lat="43.00978960553768" lon="11.64109530265816"><ele>294.75</ele><time>2026-04-21T16:07:48Z</time></trkpt><trkpt lat="43.00970893683313" lon="11.640942852693437"><ele>295.5</ele><time>2026-04-21T16:07:49Z</time></trkpt><trkpt lat="43.009648233195605" lon="11.640771974064352"><ele>296.25</ele><time>2026-04-21T16:07:50Z</time></trkpt><trkpt lat="43.009587774459284" lon="11.640579799197837"><ele>297.0</ele><time>2026-04-21T16:07:51Z</time></trkpt><trkpt lat="43.00954474695919" lon="11.640362193819312"><ele>298.6666666666667</ele><time>2026-04-21T16:07:52Z</time></trkpt><trkpt lat="43.00949865416466" lon="11.640151796342046"><ele>300.33333333333337</ele><time>2026-04-21T16:07:53Z</time></trkpt><trkpt lat="43.00944053749042" lon="11.639950674827015"><ele>302.0</ele><time>2026-04-21T16:07:54Z</time></trkpt><trkpt lat="43.00939018922778" lon="11.639755181891168"><ele>302.0</ele><time>2026-04-21T16:07:55Z</time></trkpt><trkpt lat="43.00933641923914" lon="11.639561184095335"><ele>302.0</ele><time>2026-04-21T16:07:56Z</time></trkpt><trkpt lat="43.009269507672634" lon="11.63942079527763"><ele>302.0</ele><time>2026-04-21T16:07:57Z</time></trkpt><trkpt lat="43.00918233476665" lon="11.63930899360367"><ele>302.0</ele><time>2026-04-21T16:07:58Z</time></trkpt><trkpt lat="43.00907865087631" lon="11.63920113228768"><ele>303.0</ele><time>2026-04-21T16:07:59Z</time></trkpt><trkpt lat="43.00898138875632" lon="11.639094192616811"><ele>304.0</ele><time>2026-04-21T16:08:00Z</time></trkpt><trkpt lat="43.008917924741546" lon="11.638991659439112"><ele>305.0</ele><time>2026-04-21T16:08:01Z</time></trkpt><trkpt lat="43.00887543197847" lon="11.638878156190106"><ele>306.0</ele><time>2026-04-21T16:08:02Z</time></trkpt><trkpt lat="43.0088387245972" lon="11.638761779395583"><ele>307.0</ele><time>2026-04-21T16:08:03Z</time></trkpt><trkpt lat="43.00880380834804" lon="11.638652723636861"><ele>307.3333333333333</ele><time>2026-04-21T16:08:04Z</time></trkpt><trkpt lat="43.00877314146707" lon="11.638551617139857"><ele>307.66666666666663</ele><time>2026-04-21T16:08:05Z</time></trkpt><trkpt lat="43.0087424664373" lon="11.638467104717979"><ele>308.0</ele><time>2026-04-21T16:08:06Z</time></trkpt><trkpt lat="43.008712630129054" lon="11.638371042442023"><ele>308.3333333333333</ele><time>2026-04-21T16:08:07Z</time></trkpt><trkpt lat="43.008674298735095" lon="11.638278441365792"><ele>308.6666666666667</ele><time>2026-04-21T16:08:08Z</time></trkpt><trkpt lat="43.00862838518251" lon="11.638189888520506"><ele>309.0</ele><time>2026-04-21T16:08:09Z</time></trkpt><trkpt lat="43.008572340734396" lon="11.638098336866614"><ele>309.0</ele><time>2026-04-21T16:08:10Z</time></trkpt><trkpt lat="43.008504532986684" lon="11.638005602880249"><ele>309.0</ele><time>2026-04-21T16:08:11Z</time></trkpt><trkpt lat="43.008428325263104" lon="11.637905918148133"><ele>309.0</ele><time>2026-04-21T16:08:12Z</time></trkpt><trkpt lat="43.00836969710515" lon="11.637802720255003"><ele>309.0</ele><time>2026-04-21T16:08:13Z</time></trkpt><trkpt lat="43.00833959738839" lon="11.637712102084327"><ele>309.0</ele><time>2026-04-21T16:08:14Z</time></trkpt><trkpt lat="43.00833178214786" lon="11.637598726891328"><ele>309.59999999999997</ele><time>2026-04-21T16:08:15Z</time></trkpt><trkpt lat="43.008322457333854" lon="11.637506430376053"><ele>310.2</ele><time>2026-04-21T16:08:16Z</time></trkpt><trkpt lat="43.008306214052766" lon="11.63734691364433"><ele>310.79999999999995</ele><time>2026-04-21T16:08:17Z</time></trkpt><trkpt lat="43.008295159723495" lon="11.637194610091793"><ele>311.4</ele><time>2026-04-21T16:08:18Z</time></trkpt><trkpt lat="43.008269817119285" lon="11.637045488300515"><ele>312.0</ele><time>2026-04-21T16:08:19Z</time></trkpt><trkpt lat="43.00825940768691" lon="11.636877093538155"><ele>312.0</ele><time>2026-04-21T16:08:20Z</time></trkpt><trkpt lat="43.00825737911899" lon="11.636686864880895"><ele>312.0</ele><time>2026-04-21T16:08:21Z</time></trkpt><trkpt lat="43.008241764883394" lon="11.636501136559925"><ele>312.0</ele><time>2026-04-21T16:08:22Z</time></trkpt><trkpt lat="43.008225802937986" lon="11.63631453459253"><ele>312.0</ele><time>2026-04-21T16:08:23Z</time></trkpt><trkpt lat="43.008210323991214" lon="11.63613357909812"><ele>311.0</ele><time>2026-04-21T16:08:23.999Z</time></trkpt><trkpt lat="43.008196401766796" lon="11.635962689877703"><ele>310.0</ele><time>2026-04-21T16:08:24.999Z</time></trkpt><trkpt lat="43.00818396932789" lon="11.63580728429435"><ele>309.0</ele><time>2026-04-21T16:08:25.999Z</time></trkpt><trkpt lat="43.008174137415985" lon="11.635687293461961"><ele>308.0</ele><time>2026-04-21T16:08:26.999Z</time></trkpt><trkpt lat="43.00816363096344" lon="11.635573492922047"><ele>307.0</ele><time>2026-04-21T16:08:27.999Z</time></trkpt><trkpt lat="43.008153957944195" lon="11.635481779994482"><ele>307.0</ele><time>2026-04-21T16:08:28.999Z</time></trkpt><trkpt lat="43.008141533403276" lon="11.635380684289633"><ele>307.0</ele><time>2026-04-21T16:08:29.999Z</time></trkpt><trkpt lat="43.008126046017445" lon="11.635286971918903"><ele>307.0</ele><time>2026-04-21T16:08:30.999Z</time></trkpt><trkpt lat="43.00807644998959" lon="11.635134244957682"><ele>307.0</ele><time>2026-04-21T16:08:32.999Z</time></trkpt><trkpt lat="43.008032435658365" lon="11.635069090413314"><ele>307.0</ele><time>2026-04-21T16:08:33.999Z</time></trkpt><trkpt lat="43.00798059276484" lon="11.635011838762216"><ele>307.0</ele><time>2026-04-21T16:08:34.999Z</time></trkpt><trkpt lat="43.00789778731277" lon="11.63494774661278"><ele>307.0</ele><time>2026-04-21T16:08:35.999Z</time></trkpt><trkpt lat="43.00780003724292" lon="11.634909487589065"><ele>307.0</ele><time>2026-04-21T16:08:36.999Z</time></trkpt><trkpt lat="43.00770685144807" lon="11.634895850890057"><ele>307.0</ele><time>2026-04-21T16:08:38.999Z</time></trkpt><trkpt lat="43.007610759205654" lon="11.634909680385945"><ele>307.0</ele><time>2026-04-21T16:08:41.999Z</time></trkpt><trkpt lat="43.00750643882673" lon="11.6349119501996"><ele>307.0</ele><time>2026-04-21T16:08:43.999Z</time></trkpt><trkpt lat="43.007411018245186" lon="11.634909963018604"><ele>307.0</ele><time>2026-04-21T16:08:44.999Z</time></trkpt><trkpt lat="43.00729832874826" lon="11.634923003839711"><ele>307.0</ele><time>2026-04-21T16:08:45.999Z</time></trkpt><trkpt lat="43.0071911152378" lon="11.634929665433745"><ele>307.0</ele><time>2026-04-21T16:08:46.999Z</time></trkpt><trkpt lat="43.00708181430815" lon="11.634936884948237"><ele>307.0</ele><time>2026-04-21T16:08:47.999Z</time></trkpt><trkpt lat="43.00696978496218" lon="11.634937907533118"><ele>307.0</ele><time>2026-04-21T16:08:48.999Z</time></trkpt><trkpt lat="43.006871327966856" lon="11.634940715283419"><ele>307.0</ele><time>2026-04-21T16:08:49.999Z</time></trkpt><trkpt lat="43.00680300648129" lon="11.634922115306644"><ele>307.0</ele><time>2026-04-21T16:08:50.999Z</time></trkpt><trkpt lat="43.00671262013815" lon="11.634812246863197"><ele>307.0</ele><time>2026-04-21T16:08:52.999Z</time></trkpt><trkpt lat="43.00668883732267" lon="11.634717257807655"><ele>307.0</ele><time>2026-04-21T16:08:53.999Z</time></trkpt><trkpt lat="43.00671567792883" lon="11.63461453905966"><ele>307.0</ele><time>2026-04-21T16:08:54.999Z</time></trkpt><trkpt lat="43.00672565100984" lon="11.634494899286965"><ele>307.0</ele><time>2026-04-21T16:08:55.999Z</time></trkpt><trkpt lat="43.006738636476605" lon="11.634335102702348"><ele>307.25</ele><time>2026-04-21T16:08:56.999Z</time></trkpt><trkpt lat="43.00675155540751" lon="11.634163069610796"><ele>307.5</ele><time>2026-04-21T16:08:57.999Z</time></trkpt><trkpt lat="43.00676362914652" lon="11.633993124998838"><ele>307.75</ele><time>2026-04-21T16:08:58.999Z</time></trkpt><trkpt lat="43.00677325723359" lon="11.63382515370875"><ele>308.0</ele><time>2026-04-21T16:08:59.999Z</time></trkpt><trkpt lat="43.006782839359694" lon="11.63365778201892"><ele>308.8</ele><time>2026-04-21T16:09:00.999Z</time></trkpt><trkpt lat="43.00679211415193" lon="11.633495778500379"><ele>309.6</ele><time>2026-04-21T16:09:01.999Z</time></trkpt><trkpt lat="43.00680201428808" lon="11.633335797860402"><ele>310.4</ele><time>2026-04-21T16:09:02.999Z</time></trkpt><trkpt lat="43.00681224367037" lon="11.633184027271849"><ele>311.2</ele><time>2026-04-21T16:09:03.999Z</time></trkpt><trkpt lat="43.00681996384546" lon="11.633069484816218"><ele>312.0</ele><time>2026-04-21T16:09:04.999Z</time></trkpt><trkpt lat="43.00683046527406" lon="11.632958978112784"><ele>312.0</ele><time>2026-04-21T16:09:05.999Z</time></trkpt><trkpt lat="43.00685247077556" lon="11.63285555376812"><ele>312.0</ele><time>2026-04-21T16:09:06.999Z</time></trkpt><trkpt lat="43.00687628745102" lon="11.632752111101034"><ele>312.0</ele><time>2026-04-21T16:09:07.999Z</time></trkpt><trkpt lat="43.006884283788494" lon="11.632636956376363"><ele>312.0</ele><time>2026-04-21T16:09:08.999Z</time></trkpt><trkpt lat="43.006892970921236" lon="11.632531733101773"><ele>312.0</ele><time>2026-04-21T16:09:09.999Z</time></trkpt><trkpt lat="43.006884019797454" lon="11.632445558847934"><ele>312.0</ele><time>2026-04-21T16:09:10.999Z</time></trkpt><trkpt lat="43.006895484986224" lon="11.632350499869192"><ele>313.1666666666667</ele><time>2026-04-21T16:09:11.999Z</time></trkpt><trkpt lat="43.00688169699559" lon="11.632236564134022"><ele>314.3333333333333</ele><time>2026-04-21T16:09:12.999Z</time></trkpt><trkpt lat="43.0068743498967" lon="11.63212616459043"><ele>315.5</ele><time>2026-04-21T16:09:13.999Z</time></trkpt><trkpt lat="43.00686556777068" lon="11.632022325559307"><ele>316.66666666666663</ele><time>2026-04-21T16:09:14.999Z</time></trkpt><trkpt lat="43.00683694034013" lon="11.631931835565341"><ele>317.8333333333333</ele><time>2026-04-21T16:09:15.999Z</time></trkpt><trkpt lat="43.00678681191611" lon="11.631852872533248"><ele>319.0</ele><time>2026-04-21T16:09:16.999Z</time></trkpt><trkpt lat="43.006722229943364" lon="11.631789566157945"><ele>321.0</ele><time>2026-04-21T16:09:17.999Z</time></trkpt><trkpt lat="43.00666491941106" lon="11.631739251314226"><ele>323.0</ele><time>2026-04-21T16:09:18.999Z</time></trkpt><trkpt lat="43.006484877245285" lon="11.631615486898433"><ele>325.0</ele><time>2026-04-21T16:09:21.999Z</time></trkpt><trkpt lat="43.00642117623282" lon="11.631562215650733"><ele>327.0</ele><time>2026-04-21T16:09:22.999Z</time></trkpt><trkpt lat="43.006365100321034" lon="11.631494196845333"><ele>329.0</ele><time>2026-04-21T16:09:23.999Z</time></trkpt><trkpt lat="43.00628356989959" lon="11.631383425496931"><ele>329.83333333333337</ele><time>2026-04-21T16:09:25.999Z</time></trkpt><trkpt lat="43.00625278752563" lon="11.631235007362836"><ele>330.6666666666667</ele><time>2026-04-21T16:09:27.999Z</time></trkpt><trkpt lat="43.0062448480211" lon="11.63113895933414"><ele>331.5</ele><time>2026-04-21T16:09:28.999Z</time></trkpt><trkpt lat="43.00622445282829" lon="11.63102530064489"><ele>332.3333333333333</ele><time>2026-04-21T16:09:29.999Z</time></trkpt><trkpt lat="43.00621935608073" lon="11.630918388306855"><ele>333.16666666666663</ele><time>2026-04-21T16:09:30.999Z</time></trkpt><trkpt lat="43.00621979191279" lon="11.630805011087668"><ele>334.0</ele><time>2026-04-21T16:09:31.999Z</time></trkpt><trkpt lat="43.00619620956431" lon="11.630684480362559"><ele>335.5</ele><time>2026-04-21T16:09:33Z</time></trkpt><trkpt lat="43.00618194569911" lon="11.630576176508782"><ele>337.0</ele><time>2026-04-21T16:09:34Z</time></trkpt><trkpt lat="43.00617153230249" lon="11.630468155440168"><ele>338.5</ele><time>2026-04-21T16:09:35Z</time></trkpt><trkpt lat="43.00616071883965" lon="11.630376721654962"><ele>340.0</ele><time>2026-04-21T16:09:36Z</time></trkpt><trkpt lat="43.00608850950549" lon="11.630240622816219"><ele>341.5</ele><time>2026-04-21T16:09:38Z</time></trkpt><trkpt lat="43.006023153116246" lon="11.63019055480923"><ele>343.0</ele><time>2026-04-21T16:09:39Z</time></trkpt><trkpt lat="43.00595263498737" lon="11.630161301189503"><ele>344.16666666666663</ele><time>2026-04-21T16:09:40Z</time></trkpt><trkpt lat="43.00588185508376" lon="11.630127328606287"><ele>345.3333333333333</ele><time>2026-04-21T16:09:41Z</time></trkpt><trkpt lat="43.0058122751636" lon="11.630093912669345"><ele>346.5</ele><time>2026-04-21T16:09:42Z</time></trkpt><trkpt lat="43.005726243060536" lon="11.630037584175456"><ele>347.6666666666667</ele><time>2026-04-21T16:09:43Z</time></trkpt><trkpt lat="43.005647400388256" lon="11.629995006980195"><ele>348.83333333333337</ele><time>2026-04-21T16:09:44Z</time></trkpt><trkpt lat="43.005597923345476" lon="11.629915338714591"><ele>350.0</ele><time>2026-04-21T16:09:45Z</time></trkpt><trkpt lat="43.00555530923873" lon="11.629844136560672"><ele>351.5</ele><time>2026-04-21T16:09:46Z</time></trkpt><trkpt lat="43.00551099155862" lon="11.629766402380033"><ele>353.0</ele><time>2026-04-21T16:09:47Z</time></trkpt><trkpt lat="43.00546951571619" lon="11.629677137589418"><ele>354.5</ele><time>2026-04-21T16:09:48Z</time></trkpt><trkpt lat="43.00542848859923" lon="11.629590509066631"><ele>356.0</ele><time>2026-04-21T16:09:49Z</time></trkpt><trkpt lat="43.00538617823643" lon="11.629509363649388"><ele>357.5</ele><time>2026-04-21T16:09:50Z</time></trkpt><trkpt lat="43.0053197187142" lon="11.629443742379502"><ele>359.0</ele><time>2026-04-21T16:09:51Z</time></trkpt><trkpt lat="43.00525040770455" lon="11.629383837651362"><ele>360.33333333333337</ele><time>2026-04-21T16:09:52Z</time></trkpt><trkpt lat="43.00517601449986" lon="11.629373894439448"><ele>361.6666666666667</ele><time>2026-04-21T16:09:53Z</time></trkpt><trkpt lat="43.00511045502297" lon="11.629383268344798"><ele>363.0</ele><time>2026-04-21T16:09:54Z</time></trkpt><trkpt lat="43.0050463474766" lon="11.629374245074949"><ele>364.3333333333333</ele><time>2026-04-21T16:09:55Z</time></trkpt><trkpt lat="43.004961327020226" lon="11.629410830756159"><ele>365.66666666666663</ele><time>2026-04-21T16:09:56Z</time></trkpt><trkpt lat="43.004874901341495" lon="11.629422014053505"><ele>367.0</ele><time>2026-04-21T16:09:57Z</time></trkpt><trkpt lat="43.004793834938205" lon="11.629431802116155"><ele>368.6</ele><time>2026-04-21T16:09:58Z</time></trkpt><trkpt lat="43.00471032710053" lon="11.629436777094181"><ele>370.20000000000005</ele><time>2026-04-21T16:09:59Z</time></trkpt><trkpt lat="43.00463545851619" lon="11.629434091904843"><ele>371.8</ele><time>2026-04-21T16:10:00Z</time></trkpt><trkpt lat="43.00447945198209" lon="11.629384017556283"><ele>373.4</ele><time>2026-04-21T16:10:02Z</time></trkpt><trkpt lat="43.00438730223799" lon="11.629332107744416"><ele>375.0</ele><time>2026-04-21T16:10:03Z</time></trkpt><trkpt lat="43.00431928710366" lon="11.62925848695953"><ele>375.0</ele><time>2026-04-21T16:10:04Z</time></trkpt><trkpt lat="43.00421982426733" lon="11.629172662223551"><ele>375.0</ele><time>2026-04-21T16:10:06Z</time></trkpt><trkpt lat="43.00422036498295" lon="11.628952328964665"><ele>375.0</ele><time>2026-04-21T16:10:09Z</time></trkpt><trkpt lat="43.00423888909513" lon="11.628820236289382"><ele>375.0</ele><time>2026-04-21T16:10:10Z</time></trkpt><trkpt lat="43.004243888656326" lon="11.62869977388078"><ele>375.5</ele><time>2026-04-21T16:10:11Z</time></trkpt><trkpt lat="43.00423265686171" lon="11.628600891995497"><ele>376.0</ele><time>2026-04-21T16:10:12Z</time></trkpt><trkpt lat="43.00419233627587" lon="11.628514599267753"><ele>376.5</ele><time>2026-04-21T16:10:13Z</time></trkpt><trkpt lat="43.00413027161789" lon="11.628431673780526"><ele>377.0</ele><time>2026-04-21T16:10:14Z</time></trkpt><trkpt lat="43.00407758325323" lon="11.628320691398688"><ele>377.5</ele><time>2026-04-21T16:10:15Z</time></trkpt><trkpt lat="43.004070819793306" lon="11.628184083782104"><ele>378.0</ele><time>2026-04-21T16:10:16Z</time></trkpt><trkpt lat="43.00406108286085" lon="11.628041298482897"><ele>378.0</ele><time>2026-04-21T16:10:17Z</time></trkpt><trkpt lat="43.004038337506266" lon="11.627895432383756"><ele>378.0</ele><time>2026-04-21T16:10:18Z</time></trkpt><trkpt lat="43.00403927972634" lon="11.627753833942723"><ele>378.0</ele><time>2026-04-21T16:10:19Z</time></trkpt><trkpt lat="43.00402469220007" lon="11.627602027696813"><ele>378.0</ele><time>2026-04-21T16:10:20Z</time></trkpt><trkpt lat="43.00399488817216" lon="11.627460859140312"><ele>378.0</ele><time>2026-04-21T16:10:21Z</time></trkpt><trkpt lat="43.00397590529814" lon="11.627309010840559"><ele>379.2</ele><time>2026-04-21T16:10:22Z</time></trkpt><trkpt lat="43.00394519976532" lon="11.627169661308967"><ele>380.4</ele><time>2026-04-21T16:10:23Z</time></trkpt><trkpt lat="43.00391051780396" lon="11.6270250680545"><ele>381.59999999999997</ele><time>2026-04-21T16:10:24Z</time></trkpt><trkpt lat="43.00387922822848" lon="11.626889288550464"><ele>382.79999999999995</ele><time>2026-04-21T16:10:25Z</time></trkpt><trkpt lat="43.00384648213263" lon="11.626753015226681"><ele>384.0</ele><time>2026-04-21T16:10:26Z</time></trkpt><trkpt lat="43.00383179335813" lon="11.626591839857998"><ele>384.79999999999995</ele><time>2026-04-21T16:10:27Z</time></trkpt><trkpt lat="43.003806297783115" lon="11.6264721441189"><ele>385.59999999999997</ele><time>2026-04-21T16:10:28Z</time></trkpt><trkpt lat="43.00380218232137" lon="11.626324110405333"><ele>386.4</ele><time>2026-04-21T16:10:29Z</time></trkpt><trkpt lat="43.003802218479926" lon="11.626171148521887"><ele>387.2</ele><time>2026-04-21T16:10:30Z</time></trkpt><trkpt lat="43.003832021949535" lon="11.626044217911003"><ele>388.0</ele><time>2026-04-21T16:10:31Z</time></trkpt><trkpt lat="43.003855936477905" lon="11.625933649976517"><ele>388.79999999999995</ele><time>2026-04-21T16:10:32Z</time></trkpt><trkpt lat="43.00390045618317" lon="11.62582186287332"><ele>389.6</ele><time>2026-04-21T16:10:33Z</time></trkpt><trkpt lat="43.00394425312771" lon="11.625722428545187"><ele>390.4</ele><time>2026-04-21T16:10:34Z</time></trkpt><trkpt lat="43.00397923128783" lon="11.625639590777649"><ele>391.20000000000005</ele><time>2026-04-21T16:10:35Z</time></trkpt><trkpt lat="43.004014542190106" lon="11.625553034365666"><ele>392.0</ele><time>2026-04-21T16:10:36Z</time></trkpt><trkpt lat="43.00405417454363" lon="11.625365753309616"><ele>391.99999999999994</ele><time>2026-04-21T16:10:38Z</time></trkpt><trkpt lat="43.00402482334858" lon="11.625214848816972"><ele>392.0</ele><time>2026-04-21T16:10:40Z</time></trkpt><trkpt lat="43.003995965024416" lon="11.625118308941587"><ele>392.0</ele><time>2026-04-21T16:10:42Z</time></trkpt><trkpt lat="43.00391585112253" lon="11.625175461486194"><ele>392.0</ele><time>2026-04-21T16:10:44Z</time></trkpt><trkpt lat="43.003870738038536" lon="11.625240025151449"><ele>391.99999999999994</ele><time>2026-04-21T16:10:45Z</time></trkpt><trkpt lat="43.003802742195425" lon="11.625316865270959"><ele>392.0</ele><time>2026-04-21T16:10:46Z</time></trkpt><trkpt lat="43.003726533244816" lon="11.625358909235707"><ele>392.0</ele><time>2026-04-21T16:10:47Z</time></trkpt><trkpt lat="43.00365233373811" lon="11.625379627409966"><ele>392.0</ele><time>2026-04-21T16:10:47.999Z</time></trkpt><trkpt lat="43.00356271195298" lon="11.62537958318396"><ele>392.0</ele><time>2026-04-21T16:10:48.999Z</time></trkpt><trkpt lat="43.00347005362738" lon="11.625332663060252"><ele>392.0</ele><time>2026-04-21T16:10:49.999Z</time></trkpt><trkpt lat="43.0033622192326" lon="11.625314345612455"><ele>392.0</ele><time>2026-04-21T16:10:50.999Z</time></trkpt><trkpt lat="43.00325586355744" lon="11.62526754538468"><ele>392.20000000000005</ele><time>2026-04-21T16:10:51.999Z</time></trkpt><trkpt lat="43.00315939138032" lon="11.625237623121723"><ele>392.4</ele><time>2026-04-21T16:10:52.999Z</time></trkpt><trkpt lat="43.0030610891057" lon="11.625216503835395"><ele>392.6</ele><time>2026-04-21T16:10:53.999Z</time></trkpt><trkpt lat="43.00296748214358" lon="11.625212760096295"><ele>392.79999999999995</ele><time>2026-04-21T16:10:54.999Z</time></trkpt><trkpt lat="43.0028742261455" lon="11.625235398840038"><ele>393.0</ele><time>2026-04-21T16:10:55.999Z</time></trkpt><trkpt lat="43.00276097272604" lon="11.625250582992889"><ele>391.0</ele><time>2026-04-21T16:10:56.999Z</time></trkpt><trkpt lat="43.0026530984592" lon="11.625312560440696"><ele>389.0</ele><time>2026-04-21T16:10:57.999Z</time></trkpt><trkpt lat="43.00254822881625" lon="11.62534687637499"><ele>387.0</ele><time>2026-04-21T16:10:58.999Z</time></trkpt><trkpt lat="43.00245958441996" lon="11.6253737616786"><ele>385.0</ele><time>2026-04-21T16:10:59.999Z</time></trkpt><trkpt lat="43.002378587634496" lon="11.625376282823765"><ele>383.0</ele><time>2026-04-21T16:11:00.999Z</time></trkpt><trkpt lat="43.00230466399657" lon="11.625344860390255"><ele>383.5</ele><time>2026-04-21T16:11:01.999Z</time></trkpt><trkpt lat="43.00224925980905" lon="11.625280666511086"><ele>384.0</ele><time>2026-04-21T16:11:02.999Z</time></trkpt><trkpt lat="43.00220753038817" lon="11.625195451027647"><ele>384.5</ele><time>2026-04-21T16:11:03.999Z</time></trkpt><trkpt lat="43.002200308168696" lon="11.62507550720241"><ele>385.0</ele><time>2026-04-21T16:11:04.999Z</time></trkpt><trkpt lat="43.002187784851465" lon="11.624964318500577"><ele>385.49999999999994</ele><time>2026-04-21T16:11:05.999Z</time></trkpt><trkpt lat="43.00216024180914" lon="11.62485108535535"><ele>386.0</ele><time>2026-04-21T16:11:06.999Z</time></trkpt><trkpt lat="43.00213110238339" lon="11.624763216287954"><ele>386.0</ele><time>2026-04-21T16:11:07.999Z</time></trkpt><trkpt lat="43.002058886084406" lon="11.624730051386726"><ele>386.0</ele><time>2026-04-21T16:11:08.999Z</time></trkpt><trkpt lat="43.001937959959456" lon="11.624702875086289"><ele>386.0</ele><time>2026-04-21T16:11:10.999Z</time></trkpt><trkpt lat="43.001856534790555" lon="11.624742057037974"><ele>386.0</ele><time>2026-04-21T16:11:11.999Z</time></trkpt><trkpt lat="43.00176170072823" lon="11.624806014846458"><ele>386.0</ele><time>2026-04-21T16:11:12.999Z</time></trkpt><trkpt lat="43.00165914559033" lon="11.624898172065564"><ele>386.5</ele><time>2026-04-21T16:11:13.999Z</time></trkpt><trkpt lat="43.001542416828826" lon="11.624988987927722"><ele>387.0</ele><time>2026-04-21T16:11:14.999Z</time></trkpt><trkpt lat="43.00141563538071" lon="11.625071469654202"><ele>387.5</ele><time>2026-04-21T16:11:15.999Z</time></trkpt><trkpt lat="43.0012765119712" lon="11.6251161268727"><ele>388.0</ele><time>2026-04-21T16:11:16.999Z</time></trkpt><trkpt lat="43.00114146723821" lon="11.625184780594077"><ele>388.0</ele><time>2026-04-21T16:11:17.999Z</time></trkpt><trkpt lat="43.001005816610125" lon="11.62523593175346"><ele>388.0</ele><time>2026-04-21T16:11:18.999Z</time></trkpt><trkpt lat="43.000880981112424" lon="11.625293592459428"><ele>388.0</ele><time>2026-04-21T16:11:19.999Z</time></trkpt><trkpt lat="43.000773258784456" lon="11.625372162678586"><ele>388.0</ele><time>2026-04-21T16:11:20.999Z</time></trkpt><trkpt lat="43.00068581580922" lon="11.625445050140016"><ele>387.83333333333337</ele><time>2026-04-21T16:11:21.999Z</time></trkpt><trkpt lat="43.00062510677711" lon="11.625515145649029"><ele>387.6666666666667</ele><time>2026-04-21T16:11:22.999Z</time></trkpt><trkpt lat="43.0005961958195" lon="11.6256042590861"><ele>387.5</ele><time>2026-04-21T16:11:23.999Z</time></trkpt><trkpt lat="43.00057321854869" lon="11.625723450618441"><ele>387.33333333333337</ele><time>2026-04-21T16:11:24.999Z</time></trkpt><trkpt lat="43.00055592811874" lon="11.625855619827552"><ele>387.1666666666667</ele><time>2026-04-21T16:11:25.999Z</time></trkpt><trkpt lat="43.000532522954394" lon="11.625972255586706"><ele>387.0</ele><time>2026-04-21T16:11:26.999Z</time></trkpt><trkpt lat="43.00049891068915" lon="11.626082145229875"><ele>384.8</ele><time>2026-04-21T16:11:27.999Z</time></trkpt><trkpt lat="43.0004409739667" lon="11.62617788213174"><ele>382.6</ele><time>2026-04-21T16:11:28.999Z</time></trkpt><trkpt lat="43.00035271206482" lon="11.626220923184588"><ele>380.40000000000003</ele><time>2026-04-21T16:11:29.999Z</time></trkpt><trkpt lat="43.00025753380286" lon="11.626257706996507"><ele>378.20000000000005</ele><time>2026-04-21T16:11:30.999Z</time></trkpt><trkpt lat="43.00014919008942" lon="11.626289745401872"><ele>376.0</ele><time>2026-04-21T16:11:31.999Z</time></trkpt><trkpt lat="43.000035085862045" lon="11.626344027443247"><ele>376.0</ele><time>2026-04-21T16:11:32.999Z</time></trkpt><trkpt lat="42.99990969469937" lon="11.626377516128894"><ele>376.0</ele><time>2026-04-21T16:11:33.999Z</time></trkpt><trkpt lat="42.999777925580666" lon="11.626424742583431"><ele>376.0</ele><time>2026-04-21T16:11:34.999Z</time></trkpt><trkpt lat="42.999646937768354" lon="11.626468674092518"><ele>376.0</ele><time>2026-04-21T16:11:35.999Z</time></trkpt><trkpt lat="42.999522464502746" lon="11.626506002840157"><ele>376.0</ele><time>2026-04-21T16:11:36.999Z</time></trkpt><trkpt lat="42.99940667176469" lon="11.626543040560595"><ele>376.0</ele><time>2026-04-21T16:11:37.999Z</time></trkpt><trkpt lat="42.99928886970965" lon="11.626574009680322"><ele>376.0</ele><time>2026-04-21T16:11:39Z</time></trkpt><trkpt lat="42.999169636832086" lon="11.626622797685325"><ele>376.0</ele><time>2026-04-21T16:11:40Z</time></trkpt><trkpt lat="42.99905622015258" lon="11.626701641371035"><ele>376.5</ele><time>2026-04-21T16:11:41Z</time></trkpt><trkpt lat="42.998950311391674" lon="11.626805937139666"><ele>377.0</ele><time>2026-04-21T16:11:42Z</time></trkpt><trkpt lat="42.99884741893359" lon="11.626913851488151"><ele>377.5</ele><time>2026-04-21T16:11:43Z</time></trkpt><trkpt lat="42.99874425769211" lon="11.627025445205609"><ele>378.0</ele><time>2026-04-21T16:11:44Z</time></trkpt><trkpt lat="42.99864847322606" lon="11.627144658170332"><ele>375.5</ele><time>2026-04-21T16:11:45Z</time></trkpt><trkpt lat="42.99856849367636" lon="11.6272839256948"><ele>373.0</ele><time>2026-04-21T16:11:46Z</time></trkpt><trkpt lat="42.99850802133008" lon="11.627415809040464"><ele>370.5</ele><time>2026-04-21T16:11:47Z</time></trkpt><trkpt lat="42.99845859732779" lon="11.627542119207435"><ele>368.0</ele><time>2026-04-21T16:11:48Z</time></trkpt><trkpt lat="42.99840593016506" lon="11.627667968072851"><ele>368.0</ele><time>2026-04-21T16:11:49Z</time></trkpt><trkpt lat="42.9983464654201" lon="11.627802865340906"><ele>368.0</ele><time>2026-04-21T16:11:50Z</time></trkpt><trkpt lat="42.99829440728442" lon="11.627931928371833"><ele>368.0</ele><time>2026-04-21T16:11:51Z</time></trkpt><trkpt lat="42.99824361607107" lon="11.628043029025589"><ele>368.0</ele><time>2026-04-21T16:11:52Z</time></trkpt><trkpt lat="42.99819560864316" lon="11.628136419183788"><ele>368.0</ele><time>2026-04-21T16:11:53Z</time></trkpt><trkpt lat="42.99814070454685" lon="11.628216261933225"><ele>369.25</ele><time>2026-04-21T16:11:54Z</time></trkpt><trkpt lat="42.99806863368288" lon="11.628276006836352"><ele>370.5</ele><time>2026-04-21T16:11:55Z</time></trkpt><trkpt lat="42.997970158812215" lon="11.628335003682983"><ele>371.75</ele><time>2026-04-21T16:11:56Z</time></trkpt><trkpt lat="42.99785281102575" lon="11.628379195165515"><ele>373.0</ele><time>2026-04-21T16:11:57Z</time></trkpt><trkpt lat="42.99771558169899" lon="11.628431889216813"><ele>373.0</ele><time>2026-04-21T16:11:58Z</time></trkpt><trkpt lat="42.99756922929418" lon="11.62848343700277"><ele>373.0</ele><time>2026-04-21T16:11:59Z</time></trkpt><trkpt lat="42.99744022823972" lon="11.628507083284159"><ele>373.0</ele><time>2026-04-21T16:12:00Z</time></trkpt><trkpt lat="42.99731642426129" lon="11.628534819807372"><ele>373.0</ele><time>2026-04-21T16:12:01Z</time></trkpt><trkpt lat="42.99719724074358" lon="11.628567339703103"><ele>373.75</ele><time>2026-04-21T16:12:02Z</time></trkpt><trkpt lat="42.99708792719946" lon="11.628618010132936"><ele>374.5</ele><time>2026-04-21T16:12:03Z</time></trkpt><trkpt lat="42.99697323904828" lon="11.628677204150772"><ele>375.25</ele><time>2026-04-21T16:12:04Z</time></trkpt><trkpt lat="42.996855479137054" lon="11.628743631778656"><ele>376.0</ele><time>2026-04-21T16:12:05Z</time></trkpt><trkpt lat="42.996745283780506" lon="11.628800074448913"><ele>372.5</ele><time>2026-04-21T16:12:06Z</time></trkpt><trkpt lat="42.99663456308575" lon="11.628852470335241"><ele>369.0</ele><time>2026-04-21T16:12:07Z</time></trkpt><trkpt lat="42.99652869295131" lon="11.628897796082951"><ele>365.5</ele><time>2026-04-21T16:12:08Z</time></trkpt><trkpt lat="42.99642135358496" lon="11.628943298489359"><ele>362.0</ele><time>2026-04-21T16:12:09Z</time></trkpt><trkpt lat="42.99630690384111" lon="11.628974319367359"><ele>362.0</ele><time>2026-04-21T16:12:10Z</time></trkpt><trkpt lat="42.99618499050223" lon="11.628997827871387"><ele>362.0</ele><time>2026-04-21T16:12:11Z</time></trkpt><trkpt lat="42.996051439467905" lon="11.62901477583437"><ele>362.0</ele><time>2026-04-21T16:12:12Z</time></trkpt><trkpt lat="42.99591146139897" lon="11.629026101212458"><ele>362.0</ele><time>2026-04-21T16:12:13Z</time></trkpt><trkpt lat="42.9957655160493" lon="11.629036430293738"><ele>360.0</ele><time>2026-04-21T16:12:14Z</time></trkpt><trkpt lat="42.99561971306326" lon="11.629041267951141"><ele>358.0</ele><time>2026-04-21T16:12:15Z</time></trkpt><trkpt lat="42.9954685236945" lon="11.629053326645183"><ele>356.0</ele><time>2026-04-21T16:12:16Z</time></trkpt><trkpt lat="42.99531490994352" lon="11.62906194458215"><ele>356.0</ele><time>2026-04-21T16:12:17Z</time></trkpt><trkpt lat="42.99516805651801" lon="11.629071022195738"><ele>356.0</ele><time>2026-04-21T16:12:18Z</time></trkpt><trkpt lat="42.99500787637875" lon="11.629069509268948"><ele>356.0</ele><time>2026-04-21T16:12:19Z</time></trkpt><trkpt lat="42.99485529061946" lon="11.62907062688554"><ele>354.5</ele><time>2026-04-21T16:12:20Z</time></trkpt><trkpt lat="42.99470615769071" lon="11.629084370313517"><ele>353.0</ele><time>2026-04-21T16:12:21Z</time></trkpt><trkpt lat="42.9945596090143" lon="11.629094331970418"><ele>351.5</ele><time>2026-04-21T16:12:22Z</time></trkpt><trkpt lat="42.99441674216495" lon="11.629102585216813"><ele>350.0</ele><time>2026-04-21T16:12:23Z</time></trkpt><trkpt lat="42.99428042132832" lon="11.62911286565354"><ele>348.25</ele><time>2026-04-21T16:12:24Z</time></trkpt><trkpt lat="42.994145711798964" lon="11.62912302329098"><ele>346.5</ele><time>2026-04-21T16:12:25Z</time></trkpt><trkpt lat="42.99401669868979" lon="11.629132505865961"><ele>344.75</ele><time>2026-04-21T16:12:26Z</time></trkpt><trkpt lat="42.99389195311941" lon="11.629145831933508"><ele>343.0</ele><time>2026-04-21T16:12:27Z</time></trkpt><trkpt lat="42.99376697794993" lon="11.629154612718068"><ele>343.0</ele><time>2026-04-21T16:12:28Z</time></trkpt><trkpt lat="42.99364204488844" lon="11.629160210320464"><ele>343.0</ele><time>2026-04-21T16:12:29Z</time></trkpt><trkpt lat="42.993535160322615" lon="11.629164591924205"><ele>343.0</ele><time>2026-04-21T16:12:30Z</time></trkpt><trkpt lat="42.99344288372404" lon="11.629182578999744"><ele>343.0</ele><time>2026-04-21T16:12:31Z</time></trkpt><trkpt lat="42.99335547832554" lon="11.62921238772231"><ele>343.0</ele><time>2026-04-21T16:12:32Z</time></trkpt><trkpt lat="42.993278842790644" lon="11.629264530269682"><ele>343.0</ele><time>2026-04-21T16:12:33Z</time></trkpt><trkpt lat="42.993219493623066" lon="11.629327040702869"><ele>343.0</ele><time>2026-04-21T16:12:34Z</time></trkpt><trkpt lat="42.99316468063428" lon="11.629409236195055"><ele>343.0</ele><time>2026-04-21T16:12:35Z</time></trkpt><trkpt lat="42.993110372790284" lon="11.629522842020425"><ele>343.0</ele><time>2026-04-21T16:12:36Z</time></trkpt><trkpt lat="42.99304776054879" lon="11.62966227799734"><ele>343.0</ele><time>2026-04-21T16:12:37Z</time></trkpt><trkpt lat="42.99298089494575" lon="11.629824882702577"><ele>343.0</ele><time>2026-04-21T16:12:38Z</time></trkpt><trkpt lat="42.992904447006296" lon="11.630003891438792"><ele>343.0</ele><time>2026-04-21T16:12:39Z</time></trkpt><trkpt lat="42.992822020824086" lon="11.630185918007676"><ele>343.0</ele><time>2026-04-21T16:12:40Z</time></trkpt><trkpt lat="42.99273968403263" lon="11.63036460825393"><ele>344.0</ele><time>2026-04-21T16:12:41Z</time></trkpt><trkpt lat="42.99266302881827" lon="11.630541094671518"><ele>345.0</ele><time>2026-04-21T16:12:42Z</time></trkpt><trkpt lat="42.99259154417351" lon="11.630690352295307"><ele>346.0</ele><time>2026-04-21T16:12:43Z</time></trkpt><trkpt lat="42.99252878926636" lon="11.630838698240327"><ele>347.0</ele><time>2026-04-21T16:12:44Z</time></trkpt><trkpt lat="42.992489187629126" lon="11.630979963529526"><ele>347.0</ele><time>2026-04-21T16:12:45Z</time></trkpt><trkpt lat="42.992472999494545" lon="11.63111720350949"><ele>347.0</ele><time>2026-04-21T16:12:46Z</time></trkpt><trkpt lat="42.992477457735" lon="11.631262562614467"><ele>347.0</ele><time>2026-04-21T16:12:47Z</time></trkpt><trkpt lat="42.9925099333439" lon="11.631420763765435"><ele>347.0</ele><time>2026-04-21T16:12:48Z</time></trkpt><trkpt lat="42.992534331166915" lon="11.631575259592909"><ele>347.0</ele><time>2026-04-21T16:12:49Z</time></trkpt><trkpt lat="42.99256542261581" lon="11.631738033884467"><ele>352.33333333333337</ele><time>2026-04-21T16:12:50Z</time></trkpt><trkpt lat="42.99260586419043" lon="11.632071574666902"><ele>357.6666666666667</ele><time>2026-04-21T16:12:52Z</time></trkpt><trkpt lat="42.99262917677935" lon="11.632230693344937"><ele>363.0</ele><time>2026-04-21T16:12:53Z</time></trkpt><trkpt lat="42.99265439362064" lon="11.63239937575567"><ele>363.0</ele><time>2026-04-21T16:12:54Z</time></trkpt><trkpt lat="42.99268281310917" lon="11.632574176735947"><ele>363.0</ele><time>2026-04-21T16:12:55Z</time></trkpt><trkpt lat="42.992720825909785" lon="11.632740155278764"><ele>363.0</ele><time>2026-04-21T16:12:56Z</time></trkpt><trkpt lat="42.99273303659631" lon="11.632921028587168"><ele>363.0</ele><time>2026-04-21T16:12:57Z</time></trkpt><trkpt lat="42.99272838269386" lon="11.633113692312415"><ele>362.3333333333333</ele><time>2026-04-21T16:12:58Z</time></trkpt><trkpt lat="42.99269993515945" lon="11.63332989521982"><ele>361.66666666666663</ele><time>2026-04-21T16:12:59Z</time></trkpt><trkpt lat="42.99266221681943" lon="11.633584197589125"><ele>361.0</ele><time>2026-04-21T16:13:00Z</time></trkpt><trkpt lat="42.99262796636147" lon="11.633818952797649"><ele>360.25</ele><time>2026-04-21T16:13:01Z</time></trkpt><trkpt lat="42.99258834033376" lon="11.63402672064179"><ele>359.5</ele><time>2026-04-21T16:13:02Z</time></trkpt><trkpt lat="42.9925645126706" lon="11.634226104950324"><ele>358.75</ele><time>2026-04-21T16:13:03Z</time></trkpt><trkpt lat="42.99253954818349" lon="11.634405349878314"><ele>358.0</ele><time>2026-04-21T16:13:04Z</time></trkpt><trkpt lat="42.992506899729854" lon="11.634568513533324"><ele>357.0</ele><time>2026-04-21T16:13:05Z</time></trkpt><trkpt lat="42.992460716503835" lon="11.634738621558784"><ele>356.0</ele><time>2026-04-21T16:13:06Z</time></trkpt><trkpt lat="42.99239268690436" lon="11.634903913423903"><ele>355.0</ele><time>2026-04-21T16:13:07Z</time></trkpt><trkpt lat="42.99229912516057" lon="11.635060318130174"><ele>354.0</ele><time>2026-04-21T16:13:08Z</time></trkpt><trkpt lat="42.99218431377416" lon="11.635201402561972"><ele>356.0</ele><time>2026-04-21T16:13:09Z</time></trkpt><trkpt lat="42.992049265814735" lon="11.635327946023"><ele>358.0</ele><time>2026-04-21T16:13:10Z</time></trkpt><trkpt lat="42.9919004926971" lon="11.635459157746752"><ele>360.0</ele><time>2026-04-21T16:13:11Z</time></trkpt><trkpt lat="42.991750800336376" lon="11.635597238042347"><ele>359.3333333333333</ele><time>2026-04-21T16:13:12Z</time></trkpt><trkpt lat="42.99160918282512" lon="11.635733447399147"><ele>358.66666666666663</ele><time>2026-04-21T16:13:13Z</time></trkpt><trkpt lat="42.99145866566282" lon="11.635871827734356"><ele>358.0</ele><time>2026-04-21T16:13:14Z</time></trkpt><trkpt lat="42.991297202845374" lon="11.635994642840423"><ele>358.0</ele><time>2026-04-21T16:13:15Z</time></trkpt><trkpt lat="42.99112823140372" lon="11.636117453451433"><ele>358.0</ele><time>2026-04-21T16:13:16Z</time></trkpt><trkpt lat="42.99095414203779" lon="11.636246822768415"><ele>358.0</ele><time>2026-04-21T16:13:17Z</time></trkpt><trkpt lat="42.990795766421364" lon="11.636376450747749"><ele>361.3333333333333</ele><time>2026-04-21T16:13:18Z</time></trkpt><trkpt lat="42.99065898450612" lon="11.636483356185657"><ele>364.6666666666667</ele><time>2026-04-21T16:13:19Z</time></trkpt><trkpt lat="42.99051967629598" lon="11.636576626364983"><ele>368.0</ele><time>2026-04-21T16:13:20Z</time></trkpt><trkpt lat="42.99036768091141" lon="11.636661314811807"><ele>368.0</ele><time>2026-04-21T16:13:21Z</time></trkpt><trkpt lat="42.990205795383815" lon="11.636743726367229"><ele>368.0</ele><time>2026-04-21T16:13:22Z</time></trkpt><trkpt lat="42.99002985975232" lon="11.636832195259906"><ele>368.0</ele><time>2026-04-21T16:13:23Z</time></trkpt><trkpt lat="42.98986585730834" lon="11.63691485222451"><ele>369.33333333333337</ele><time>2026-04-21T16:13:24Z</time></trkpt><trkpt lat="42.98971637824562" lon="11.636977565915998"><ele>370.6666666666667</ele><time>2026-04-21T16:13:25Z</time></trkpt><trkpt lat="42.98957860202963" lon="11.637027713946589"><ele>372.0</ele><time>2026-04-21T16:13:26Z</time></trkpt><trkpt lat="42.98942154495789" lon="11.637065772947729"><ele>372.0</ele><time>2026-04-21T16:13:27Z</time></trkpt><trkpt lat="42.98926756841724" lon="11.63709170541315"><ele>372.0</ele><time>2026-04-21T16:13:28Z</time></trkpt><trkpt lat="42.9891138865141" lon="11.637112133087026"><ele>372.0</ele><time>2026-04-21T16:13:29Z</time></trkpt><trkpt lat="42.9889670074608" lon="11.637124427746135"><ele>372.75</ele><time>2026-04-21T16:13:30Z</time></trkpt><trkpt lat="42.98884952962592" lon="11.637147137404254"><ele>373.5</ele><time>2026-04-21T16:13:30.999Z</time></trkpt><trkpt lat="42.988750788449295" lon="11.637185150446687"><ele>374.25</ele><time>2026-04-21T16:13:31.999Z</time></trkpt><trkpt lat="42.988642825643616" lon="11.637258885815248"><ele>375.0</ele><time>2026-04-21T16:13:32.999Z</time></trkpt><trkpt lat="42.98852764589193" lon="11.637356808168457"><ele>375.0</ele><time>2026-04-21T16:13:33.999Z</time></trkpt><trkpt lat="42.98841201391682" lon="11.637461851681081"><ele>375.0</ele><time>2026-04-21T16:13:34.999Z</time></trkpt><trkpt lat="42.98829730352948" lon="11.637564789943033"><ele>375.0</ele><time>2026-04-21T16:13:35.999Z</time></trkpt><trkpt lat="42.98818026650736" lon="11.637669033635198"><ele>375.0</ele><time>2026-04-21T16:13:36.999Z</time></trkpt><trkpt lat="42.98807935921986" lon="11.637777809437408"><ele>377.75</ele><time>2026-04-21T16:13:37.999Z</time></trkpt><trkpt lat="42.9879948328531" lon="11.637891375114448"><ele>380.5</ele><time>2026-04-21T16:13:38.999Z</time></trkpt><trkpt lat="42.98792880869408" lon="11.63802410593741"><ele>383.25</ele><time>2026-04-21T16:13:39.999Z</time></trkpt><trkpt lat="42.987848411726375" lon="11.63817732476786"><ele>386.0</ele><time>2026-04-21T16:13:40.999Z</time></trkpt><trkpt lat="42.987759148044034" lon="11.638336446326816"><ele>386.0</ele><time>2026-04-21T16:13:41.999Z</time></trkpt><trkpt lat="42.9876660922678" lon="11.638507563324723"><ele>386.0</ele><time>2026-04-21T16:13:42.999Z</time></trkpt><trkpt lat="42.98757533451597" lon="11.638682796370453"><ele>386.0</ele><time>2026-04-21T16:13:44Z</time></trkpt><trkpt lat="42.987484687143805" lon="11.638854456357821"><ele>386.5</ele><time>2026-04-21T16:13:45Z</time></trkpt><trkpt lat="42.987405262379944" lon="11.639007353855936"><ele>387.0</ele><time>2026-04-21T16:13:46Z</time></trkpt><trkpt lat="42.987344191031326" lon="11.639143834785486"><ele>387.5</ele><time>2026-04-21T16:13:47Z</time></trkpt><trkpt lat="42.98730493372489" lon="11.639286604903228"><ele>388.0</ele><time>2026-04-21T16:13:48Z</time></trkpt><trkpt lat="42.98728300523354" lon="11.639449927582152"><ele>389.5</ele><time>2026-04-21T16:13:49Z</time></trkpt><trkpt lat="42.98726899292962" lon="11.639627185824905"><ele>391.0</ele><time>2026-04-21T16:13:50Z</time></trkpt><trkpt lat="42.98725194529605" lon="11.639814886156291"><ele>392.5</ele><time>2026-04-21T16:13:51Z</time></trkpt><trkpt lat="42.98723094177782" lon="11.639998927902003"><ele>394.0</ele><time>2026-04-21T16:13:52Z</time></trkpt><trkpt lat="42.987216695996885" lon="11.640147839633086"><ele>394.0</ele><time>2026-04-21T16:13:53Z</time></trkpt><trkpt lat="42.987199995934276" lon="11.640278283612856"><ele>394.0</ele><time>2026-04-21T16:13:54Z</time></trkpt><trkpt lat="42.98715967537756" lon="11.6403827913204"><ele>394.0</ele><time>2026-04-21T16:13:55Z</time></trkpt><trkpt lat="42.98707730942614" lon="11.640442913721936"><ele>394.0</ele><time>2026-04-21T16:13:56Z</time></trkpt><trkpt lat="42.986985706168156" lon="11.640484851080807"><ele>394.0</ele><time>2026-04-21T16:13:57Z</time></trkpt><trkpt lat="42.986893694423465" lon="11.640520971307124"><ele>394.79999999999995</ele><time>2026-04-21T16:13:58Z</time></trkpt><trkpt lat="42.98678905764684" lon="11.640568377989325"><ele>395.59999999999997</ele><time>2026-04-21T16:13:59Z</time></trkpt><trkpt lat="42.986675022984606" lon="11.640599741923996"><ele>396.4</ele><time>2026-04-21T16:14:00Z</time></trkpt><trkpt lat="42.98657963983898" lon="11.640600314950303"><ele>397.2</ele><time>2026-04-21T16:14:01Z</time></trkpt><trkpt lat="42.98648958212293" lon="11.64054183380362"><ele>398.0</ele><time>2026-04-21T16:14:02Z</time></trkpt><trkpt lat="42.98643253458057" lon="11.640420294637165"><ele>396.25</ele><time>2026-04-21T16:14:03Z</time></trkpt><trkpt lat="42.98634395798202" lon="11.640290298354824"><ele>394.5</ele><time>2026-04-21T16:14:04Z</time></trkpt><trkpt lat="42.98627126082394" lon="11.640142379680515"><ele>392.75</ele><time>2026-04-21T16:14:05Z</time></trkpt><trkpt lat="42.98616556121575" lon="11.639964695009533"><ele>391.0</ele><time>2026-04-21T16:14:06Z</time></trkpt><trkpt lat="42.986086100326915" lon="11.639814574923403"><ele>391.0</ele><time>2026-04-21T16:14:07Z</time></trkpt><trkpt lat="42.986018055358535" lon="11.639703473971718"><ele>391.0</ele><time>2026-04-21T16:14:08Z</time></trkpt><trkpt lat="42.98593383772299" lon="11.639599306882976"><ele>391.0</ele><time>2026-04-21T16:14:09Z</time></trkpt><trkpt lat="42.98583023953168" lon="11.639522503078732"><ele>391.0</ele><time>2026-04-21T16:14:10Z</time></trkpt><trkpt lat="42.98570706341538" lon="11.639477651927578"><ele>393.0</ele><time>2026-04-21T16:14:11Z</time></trkpt><trkpt lat="42.98557608689607" lon="11.639434861986306"><ele>395.0</ele><time>2026-04-21T16:14:12Z</time></trkpt><trkpt lat="42.985424235212115" lon="11.639394350794152"><ele>397.0</ele><time>2026-04-21T16:14:13Z</time></trkpt><trkpt lat="42.98525801377381" lon="11.639329663906054"><ele>397.0</ele><time>2026-04-21T16:14:14Z</time></trkpt><trkpt lat="42.98509346182901" lon="11.639271536845326"><ele>397.0</ele><time>2026-04-21T16:14:15Z</time></trkpt><trkpt lat="42.98492518721426" lon="11.639205487195447"><ele>397.0</ele><time>2026-04-21T16:14:16Z</time></trkpt><trkpt lat="42.98478137626384" lon="11.639147537540037"><ele>399.5</ele><time>2026-04-21T16:14:17Z</time></trkpt><trkpt lat="42.98465468903819" lon="11.63909845040683"><ele>402.0</ele><time>2026-04-21T16:14:18Z</time></trkpt><trkpt lat="42.984532090968145" lon="11.639064366989743"><ele>404.5</ele><time>2026-04-21T16:14:19Z</time></trkpt><trkpt lat="42.98440575019694" lon="11.639071020471452"><ele>407.0</ele><time>2026-04-21T16:14:20Z</time></trkpt><trkpt lat="42.984274654853714" lon="11.639109318016665"><ele>408.75</ele><time>2026-04-21T16:14:21Z</time></trkpt><trkpt lat="42.98411787585409" lon="11.639178002967638"><ele>410.5</ele><time>2026-04-21T16:14:22Z</time></trkpt><trkpt lat="42.98396995765299" lon="11.639234604777226"><ele>412.25</ele><time>2026-04-21T16:14:23Z</time></trkpt><trkpt lat="42.98384617613904" lon="11.639275681458155"><ele>414.0</ele><time>2026-04-21T16:14:24Z</time></trkpt><trkpt lat="42.98372969106487" lon="11.639305662985238"><ele>414.0</ele><time>2026-04-21T16:14:25Z</time></trkpt><trkpt lat="42.98360964409464" lon="11.639321204169288"><ele>414.0</ele><time>2026-04-21T16:14:26Z</time></trkpt><trkpt lat="42.983485037394175" lon="11.639316551809499"><ele>414.0</ele><time>2026-04-21T16:14:27Z</time></trkpt><trkpt lat="42.98335352798968" lon="11.639292074120327"><ele>414.0</ele><time>2026-04-21T16:14:28Z</time></trkpt><trkpt lat="42.98322370911369" lon="11.639286422987562"><ele>415.25</ele><time>2026-04-21T16:14:29Z</time></trkpt><trkpt lat="42.98310762739136" lon="11.639314228526075"><ele>416.5</ele><time>2026-04-21T16:14:30Z</time></trkpt><trkpt lat="42.982988739305625" lon="11.639378534139112"><ele>417.75</ele><time>2026-04-21T16:14:31Z</time></trkpt><trkpt lat="42.9828659451302" lon="11.639467778027317"><ele>419.0</ele><time>2026-04-21T16:14:32Z</time></trkpt><trkpt lat="42.98274710920558" lon="11.639580391375077"><ele>419.0</ele><time>2026-04-21T16:14:33Z</time></trkpt><trkpt lat="42.98263126213939" lon="11.639708729728822"><ele>419.0</ele><time>2026-04-21T16:14:34Z</time></trkpt><trkpt lat="42.98252258016538" lon="11.639832863273494"><ele>419.0</ele><time>2026-04-21T16:14:35Z</time></trkpt><trkpt lat="42.982420126802545" lon="11.639933823227013"><ele>419.0</ele><time>2026-04-21T16:14:36Z</time></trkpt><trkpt lat="42.982331124512996" lon="11.640030193182294"><ele>419.79999999999995</ele><time>2026-04-21T16:14:37Z</time></trkpt><trkpt lat="42.98224961229711" lon="11.640118205879336"><ele>420.59999999999997</ele><time>2026-04-21T16:14:38Z</time></trkpt><trkpt lat="42.98217511907282" lon="11.64019830411472"><ele>421.4</ele><time>2026-04-21T16:14:39Z</time></trkpt><trkpt lat="42.982102239541966" lon="11.640259812377836"><ele>422.2</ele><time>2026-04-21T16:14:40Z</time></trkpt><trkpt lat="42.98202953212023" lon="11.640298092420272"><ele>423.0</ele><time>2026-04-21T16:14:41Z</time></trkpt><trkpt lat="42.98188283801459" lon="11.640285520500603"><ele>423.0</ele><time>2026-04-21T16:14:43Z</time></trkpt><trkpt lat="42.98179662613699" lon="11.640228275314819"><ele>423.0</ele><time>2026-04-21T16:14:44Z</time></trkpt><trkpt lat="42.981704209053326" lon="11.640137522884691"><ele>423.0</ele><time>2026-04-21T16:14:45Z</time></trkpt><trkpt lat="42.9815989645882" lon="11.640018903370148"><ele>423.0</ele><time>2026-04-21T16:14:46Z</time></trkpt><trkpt lat="42.9815061152556" lon="11.639895455849137"><ele>422.75</ele><time>2026-04-21T16:14:47Z</time></trkpt><trkpt lat="42.98142533920047" lon="11.63975897566804"><ele>422.5</ele><time>2026-04-21T16:14:48Z</time></trkpt><trkpt lat="42.9813272131284" lon="11.639616420716916"><ele>422.25</ele><time>2026-04-21T16:14:49Z</time></trkpt><trkpt lat="42.98119381536958" lon="11.639505858267817"><ele>422.0</ele><time>2026-04-21T16:14:50Z</time></trkpt><trkpt lat="42.98109218993778" lon="11.639390661827512"><ele>422.40000000000003</ele><time>2026-04-21T16:14:51Z</time></trkpt><trkpt lat="42.98100364026711" lon="11.63928646956663"><ele>422.8</ele><time>2026-04-21T16:14:52Z</time></trkpt><trkpt lat="42.980922659549464" lon="11.639192116645306"><ele>423.2</ele><time>2026-04-21T16:14:53Z</time></trkpt><trkpt lat="42.98085148654248" lon="11.639097476879959"><ele>423.6</ele><time>2026-04-21T16:14:54Z</time></trkpt><trkpt lat="42.980774093208545" lon="11.639022629732269"><ele>424.0</ele><time>2026-04-21T16:14:55Z</time></trkpt><trkpt lat="42.98069335437082" lon="11.638974804492207"><ele>424.0</ele><time>2026-04-21T16:14:56Z</time></trkpt><trkpt lat="42.98060258351404" lon="11.638948433114136"><ele>424.0</ele><time>2026-04-21T16:14:57Z</time></trkpt><trkpt lat="42.9805180168146" lon="11.638964785425065"><ele>424.0</ele><time>2026-04-21T16:14:58Z</time></trkpt><trkpt lat="42.98043059126189" lon="11.63901400396838"><ele>424.0</ele><time>2026-04-21T16:14:59Z</time></trkpt><trkpt lat="42.980359082853546" lon="11.639090895896373"><ele>424.0</ele><time>2026-04-21T16:15:00Z</time></trkpt><trkpt lat="42.9803004204122" lon="11.639192969665745"><ele>424.0</ele><time>2026-04-21T16:15:01Z</time></trkpt><trkpt lat="42.98025679300065" lon="11.639320451197323"><ele>424.0</ele><time>2026-04-21T16:15:02Z</time></trkpt><trkpt lat="42.98023518467498" lon="11.63945858694421"><ele>424.0</ele><time>2026-04-21T16:15:03Z</time></trkpt><trkpt lat="42.98024628992467" lon="11.63961161091477"><ele>424.0</ele><time>2026-04-21T16:15:04Z</time></trkpt><trkpt lat="42.98027347181216" lon="11.639776501891017"><ele>424.0</ele><time>2026-04-21T16:15:05Z</time></trkpt><trkpt lat="42.98028225588157" lon="11.63996202558778"><ele>421.5</ele><time>2026-04-21T16:15:06Z</time></trkpt><trkpt lat="42.980301480730276" lon="11.64012950627546"><ele>419.0</ele><time>2026-04-21T16:15:07Z</time></trkpt><trkpt lat="42.980330837971664" lon="11.640283974817736"><ele>416.5</ele><time>2026-04-21T16:15:08Z</time></trkpt><trkpt lat="42.98034671751962" lon="11.640445322637692"><ele>414.0</ele><time>2026-04-21T16:15:09Z</time></trkpt><trkpt lat="42.9803592819083" lon="11.640609192052302"><ele>412.75</ele><time>2026-04-21T16:15:10Z</time></trkpt><trkpt lat="42.98036216207059" lon="11.640769544624016"><ele>411.5</ele><time>2026-04-21T16:15:11Z</time></trkpt><trkpt lat="42.98035072660091" lon="11.640931325070124"><ele>410.25</ele><time>2026-04-21T16:15:12Z</time></trkpt><trkpt lat="42.98032331687714" lon="11.641075924003173"><ele>409.0</ele><time>2026-04-21T16:15:13Z</time></trkpt><trkpt lat="42.980280708683296" lon="11.641253654637797"><ele>407.6666666666667</ele><time>2026-04-21T16:15:14Z</time></trkpt><trkpt lat="42.98022914532976" lon="11.641429283620937"><ele>406.33333333333337</ele><time>2026-04-21T16:15:15Z</time></trkpt><trkpt lat="42.98017030515479" lon="11.641632182200448"><ele>405.0</ele><time>2026-04-21T16:15:16Z</time></trkpt><trkpt lat="42.98011356425285" lon="11.641833348067287"><ele>404.25</ele><time>2026-04-21T16:15:17Z</time></trkpt><trkpt lat="42.98006293454796" lon="11.642012226310017"><ele>403.5</ele><time>2026-04-21T16:15:18Z</time></trkpt><trkpt lat="42.98001912102172" lon="11.64218011554444"><ele>402.75</ele><time>2026-04-21T16:15:19Z</time></trkpt><trkpt lat="42.979974121458895" lon="11.642333077442144"><ele>402.0</ele><time>2026-04-21T16:15:20Z</time></trkpt><trkpt lat="42.979919114421605" lon="11.642474842523535"><ele>401.25</ele><time>2026-04-21T16:15:21Z</time></trkpt><trkpt lat="42.97984702686339" lon="11.642611791604942"><ele>400.5</ele><time>2026-04-21T16:15:22Z</time></trkpt><trkpt lat="42.97975756167558" lon="11.642736853846374"><ele>399.75</ele><time>2026-04-21T16:15:23Z</time></trkpt><trkpt lat="42.97965749587498" lon="11.642848594904702"><ele>399.0</ele><time>2026-04-21T16:15:24Z</time></trkpt><trkpt lat="42.97954614914266" lon="11.64296246546498"><ele>398.25</ele><time>2026-04-21T16:15:25Z</time></trkpt><trkpt lat="42.97944764572676" lon="11.64307988911634"><ele>397.5</ele><time>2026-04-21T16:15:26Z</time></trkpt><trkpt lat="42.979354111524955" lon="11.64318296722758"><ele>396.75</ele><time>2026-04-21T16:15:27Z</time></trkpt><trkpt lat="42.9792651718474" lon="11.643270463679004"><ele>396.0</ele><time>2026-04-21T16:15:28Z</time></trkpt><trkpt lat="42.979181617625095" lon="11.643328220870911"><ele>396.0</ele><time>2026-04-21T16:15:29Z</time></trkpt><trkpt lat="42.97909398064866" lon="11.643357113700015"><ele>396.0</ele><time>2026-04-21T16:15:30Z</time></trkpt><trkpt lat="42.97900118808311" lon="11.643348201537608"><ele>396.0</ele><time>2026-04-21T16:15:31Z</time></trkpt><trkpt lat="42.97890138393908" lon="11.64330675223234"><ele>396.0</ele><time>2026-04-21T16:15:32Z</time></trkpt><trkpt lat="42.97880404547473" lon="11.643213973084192"><ele>396.0</ele><time>2026-04-21T16:15:33Z</time></trkpt><trkpt lat="42.97868994632359" lon="11.643147855645102"><ele>396.0</ele><time>2026-04-21T16:15:34Z</time></trkpt><trkpt lat="42.978570528083296" lon="11.643049219279002"><ele>396.0</ele><time>2026-04-21T16:15:35Z</time></trkpt><trkpt lat="42.97843824327703" lon="11.642953076795564"><ele>396.0</ele><time>2026-04-21T16:15:36Z</time></trkpt><trkpt lat="42.97829233968532" lon="11.642844303367363"><ele>397.0</ele><time>2026-04-21T16:15:37Z</time></trkpt><trkpt lat="42.97813880224589" lon="11.64273582219125"><ele>398.0</ele><time>2026-04-21T16:15:38Z</time></trkpt><trkpt lat="42.97797385524659" lon="11.642625534064587"><ele>399.0</ele><time>2026-04-21T16:15:39Z</time></trkpt><trkpt lat="42.97780570415112" lon="11.64251725065775"><ele>399.0</ele><time>2026-04-21T16:15:40Z</time></trkpt><trkpt lat="42.97763339786705" lon="11.642408842976614"><ele>399.0</ele><time>2026-04-21T16:15:41Z</time></trkpt><trkpt lat="42.97746635832828" lon="11.642305041923604"><ele>399.0</ele><time>2026-04-21T16:15:42Z</time></trkpt><trkpt lat="42.97730338451753" lon="11.64220000282428"><ele>400.0</ele><time>2026-04-21T16:15:43Z</time></trkpt><trkpt lat="42.9771281724725" lon="11.642099027604326"><ele>401.0</ele><time>2026-04-21T16:15:44Z</time></trkpt><trkpt lat="42.976969067217" lon="11.64200075480619"><ele>402.0</ele><time>2026-04-21T16:15:45Z</time></trkpt><trkpt lat="42.97681598473586" lon="11.641896342679628"><ele>400.5</ele><time>2026-04-21T16:15:46Z</time></trkpt><trkpt lat="42.9766758628125" lon="11.641798161194037"><ele>399.0</ele><time>2026-04-21T16:15:47Z</time></trkpt><trkpt lat="42.976559192149864" lon="11.641698409328637"><ele>397.5</ele><time>2026-04-21T16:15:48Z</time></trkpt><trkpt lat="42.97644629121842" lon="11.641585416460508"><ele>396.0</ele><time>2026-04-21T16:15:49Z</time></trkpt><trkpt lat="42.97633554111454" lon="11.641452068438774"><ele>396.0</ele><time>2026-04-21T16:15:50Z</time></trkpt><trkpt lat="42.97622452255211" lon="11.641307991817538"><ele>396.0</ele><time>2026-04-21T16:15:51Z</time></trkpt><trkpt lat="42.976124489571866" lon="11.641190292661063"><ele>396.0</ele><time>2026-04-21T16:15:52Z</time></trkpt><trkpt lat="42.9760248287456" lon="11.641099085477457"><ele>396.0</ele><time>2026-04-21T16:15:53Z</time></trkpt><trkpt lat="42.97590910005422" lon="11.641040163794777"><ele>399.66666666666663</ele><time>2026-04-21T16:15:54Z</time></trkpt><trkpt lat="42.9757788416933" lon="11.641002183194844"><ele>403.3333333333333</ele><time>2026-04-21T16:15:55Z</time></trkpt><trkpt lat="42.97562338711715" lon="11.640965882788443"><ele>407.0</ele><time>2026-04-21T16:15:56Z</time></trkpt><trkpt lat="42.97546293492852" lon="11.640920952627875"><ele>407.0</ele><time>2026-04-21T16:15:57Z</time></trkpt><trkpt lat="42.975310234959274" lon="11.640867584833869"><ele>407.0</ele><time>2026-04-21T16:15:58Z</time></trkpt><trkpt lat="42.975168382952205" lon="11.640766283930638"><ele>407.0</ele><time>2026-04-21T16:15:59Z</time></trkpt><trkpt lat="42.97501874840182" lon="11.640696628634634"><ele>406.5</ele><time>2026-04-21T16:16:00Z</time></trkpt><trkpt lat="42.97488846858497" lon="11.640626401758366"><ele>406.0</ele><time>2026-04-21T16:16:01Z</time></trkpt><trkpt lat="42.97476244876747" lon="11.64058282891645"><ele>405.5</ele><time>2026-04-21T16:16:02Z</time></trkpt><trkpt lat="42.97462951819072" lon="11.640573300718506"><ele>405.0</ele><time>2026-04-21T16:16:03Z</time></trkpt><trkpt lat="42.97448537974185" lon="11.640570117503591"><ele>405.0</ele><time>2026-04-21T16:16:04Z</time></trkpt><trkpt lat="42.9743475607399" lon="11.640572881057983"><ele>405.0</ele><time>2026-04-21T16:16:05Z</time></trkpt><trkpt lat="42.97419711846629" lon="11.640564346512253"><ele>405.0</ele><time>2026-04-21T16:16:06Z</time></trkpt><trkpt lat="42.97404599674544" lon="11.640567211666339"><ele>405.0</ele><time>2026-04-21T16:16:07Z</time></trkpt><trkpt lat="42.973888284517386" lon="11.640567388736711"><ele>405.75</ele><time>2026-04-21T16:16:08Z</time></trkpt><trkpt lat="42.97372709032135" lon="11.640560380354469"><ele>406.5</ele><time>2026-04-21T16:16:09Z</time></trkpt><trkpt lat="42.9735853417469" lon="11.64055586493658"><ele>407.25</ele><time>2026-04-21T16:16:10Z</time></trkpt><trkpt lat="42.97346016887805" lon="11.640550525469523"><ele>408.0</ele><time>2026-04-21T16:16:11Z</time></trkpt><trkpt lat="42.973357299679" lon="11.640537785970118"><ele>408.4</ele><time>2026-04-21T16:16:12Z</time></trkpt><trkpt lat="42.97325650822464" lon="11.640516539302288"><ele>408.79999999999995</ele><time>2026-04-21T16:16:13Z</time></trkpt><trkpt lat="42.97316277825358" lon="11.640492824244452"><ele>409.2</ele><time>2026-04-21T16:16:14Z</time></trkpt><trkpt lat="42.973067757762884" lon="11.64046194503844"><ele>409.6</ele><time>2026-04-21T16:16:15Z</time></trkpt><trkpt lat="42.97295408014407" lon="11.640429574311842"><ele>410.0</ele><time>2026-04-21T16:16:16Z</time></trkpt><trkpt lat="42.97284590324678" lon="11.640395893629254"><ele>410.0</ele><time>2026-04-21T16:16:17Z</time></trkpt><trkpt lat="42.972714032919384" lon="11.640363284241479"><ele>410.0</ele><time>2026-04-21T16:16:18Z</time></trkpt><trkpt lat="42.972587230772895" lon="11.640324803793327"><ele>410.0</ele><time>2026-04-21T16:16:19Z</time></trkpt><trkpt lat="42.97248784711815" lon="11.640301628599687"><ele>410.0</ele><time>2026-04-21T16:16:20Z</time></trkpt><trkpt lat="42.97242288303219" lon="11.640281261530713"><ele>410.0</ele><time>2026-04-21T16:16:21Z</time></trkpt><trkpt lat="42.97236277280709" lon="11.640251275785115"><ele>412.2</ele><time>2026-04-21T16:16:23Z</time></trkpt><trkpt lat="42.972405745238916" lon="11.640114745198645"><ele>414.4</ele><time>2026-04-21T16:16:25Z</time></trkpt><trkpt lat="42.97248404358051" lon="11.640010959149906"><ele>416.6</ele><time>2026-04-21T16:16:27Z</time></trkpt><trkpt lat="42.972593777160554" lon="11.639939825514439"><ele>418.8</ele><time>2026-04-21T16:16:29Z</time></trkpt><trkpt lat="42.97265600751143" lon="11.639903841853389"><ele>421.0</ele><time>2026-04-21T16:16:30Z</time></trkpt><trkpt lat="42.97273199739519" lon="11.639863600623245"><ele>421.50000000000006</ele><time>2026-04-21T16:16:31Z</time></trkpt><trkpt lat="42.97282639959767" lon="11.639818689146844"><ele>422.0</ele><time>2026-04-21T16:16:32Z</time></trkpt><trkpt lat="42.972910037719934" lon="11.63978791874244"><ele>422.5</ele><time>2026-04-21T16:16:33Z</time></trkpt><trkpt lat="42.97299235444083" lon="11.6397706586268"><ele>423.0</ele><time>2026-04-21T16:16:34Z</time></trkpt><trkpt lat="42.97307558243089" lon="11.639776269619809"><ele>423.50000000000006</ele><time>2026-04-21T16:16:35Z</time></trkpt><trkpt lat="42.9731559307244" lon="11.639779502850233"><ele>424.0</ele><time>2026-04-21T16:16:36Z</time></trkpt><trkpt lat="42.97325387909079" lon="11.639780518790387"><ele>424.0</ele><time>2026-04-21T16:16:37Z</time></trkpt><trkpt lat="42.973354458064705" lon="11.6397829438385"><ele>424.0</ele><time>2026-04-21T16:16:38Z</time></trkpt><trkpt lat="42.9734556870709" lon="11.639787281817394"><ele>424.0</ele><time>2026-04-21T16:16:39Z</time></trkpt><trkpt lat="42.97356553181222" lon="11.63979540220163"><ele>424.0</ele><time>2026-04-21T16:16:40Z</time></trkpt><trkpt lat="42.97366709869501" lon="11.639801977144812"><ele>424.0</ele><time>2026-04-21T16:16:41Z</time></trkpt><trkpt lat="42.973752180099275" lon="11.639801977141008"><ele>424.2</ele><time>2026-04-21T16:16:42Z</time></trkpt><trkpt lat="42.973838726696876" lon="11.639801977139232"><ele>424.4</ele><time>2026-04-21T16:16:43Z</time></trkpt><trkpt lat="42.973933953758916" lon="11.639800676325635"><ele>424.6</ele><time>2026-04-21T16:16:44Z</time></trkpt><trkpt lat="42.97403523784178" lon="11.639795642880173"><ele>424.8</ele><time>2026-04-21T16:16:45Z</time></trkpt><trkpt lat="42.97414058275428" lon="11.639787232083032"><ele>425.0</ele><time>2026-04-21T16:16:46Z</time></trkpt><trkpt lat="42.974236844699575" lon="11.639770932489709"><ele>424.99999999999994</ele><time>2026-04-21T16:16:47Z</time></trkpt><trkpt lat="42.97432834024848" lon="11.639763045089918"><ele>425.0</ele><time>2026-04-21T16:16:48Z</time></trkpt><trkpt lat="42.97442044969854" lon="11.639754468042096"><ele>425.0</ele><time>2026-04-21T16:16:49Z</time></trkpt><trkpt lat="42.9744923367948" lon="11.639734957406429"><ele>425.0</ele><time>2026-04-21T16:16:50Z</time></trkpt><trkpt lat="42.97455851399577" lon="11.639612186179363"><ele>424.99999999999994</ele><time>2026-04-21T16:16:52Z</time></trkpt><trkpt lat="42.9745512630588" lon="11.63952374733379"><ele>425.0</ele><time>2026-04-21T16:16:53Z</time></trkpt><trkpt lat="42.97450729641488" lon="11.63934934730242"><ele>427.66666666666663</ele><time>2026-04-21T16:16:55Z</time></trkpt><trkpt lat="42.97447846932755" lon="11.639263263302698"><ele>430.3333333333333</ele><time>2026-04-21T16:16:56Z</time></trkpt><trkpt lat="42.974442367363935" lon="11.639185715750196"><ele>433.0</ele><time>2026-04-21T16:16:57Z</time></trkpt><trkpt lat="42.97436961341756" lon="11.639153709251001"><ele>435.66666666666663</ele><time>2026-04-21T16:16:58Z</time></trkpt><trkpt lat="42.97424364644588" lon="11.639161460490952"><ele>438.3333333333333</ele><time>2026-04-21T16:17:00Z</time></trkpt><trkpt lat="42.97417888476616" lon="11.639187280331914"><ele>441.0</ele><time>2026-04-21T16:17:01Z</time></trkpt><trkpt lat="42.97410227482715" lon="11.639188787440135"><ele>441.6</ele><time>2026-04-21T16:17:02Z</time></trkpt><trkpt lat="42.97400752503814" lon="11.639163286502734"><ele>442.20000000000005</ele><time>2026-04-21T16:17:03Z</time></trkpt><trkpt lat="42.973918872405626" lon="11.639121302073272"><ele>442.79999999999995</ele><time>2026-04-21T16:17:04Z</time></trkpt><trkpt lat="42.973826501505044" lon="11.639070692398816"><ele>443.4</ele><time>2026-04-21T16:17:05Z</time></trkpt><trkpt lat="42.97374595692654" lon="11.638983076819562"><ele>444.0</ele><time>2026-04-21T16:17:06Z</time></trkpt><trkpt lat="42.97364849283412" lon="11.638925142523156"><ele>444.0</ele><time>2026-04-21T16:17:07Z</time></trkpt><trkpt lat="42.973559141808636" lon="11.638841386340001"><ele>444.0</ele><time>2026-04-21T16:17:08Z</time></trkpt><trkpt lat="42.97345979137732" lon="11.63875999204323"><ele>444.0</ele><time>2026-04-21T16:17:09Z</time></trkpt><trkpt lat="42.973346151607586" lon="11.638699925230807"><ele>444.0</ele><time>2026-04-21T16:17:10Z</time></trkpt><trkpt lat="42.9732286689296" lon="11.638649580517153"><ele>447.79999999999995</ele><time>2026-04-21T16:17:11Z</time></trkpt><trkpt lat="42.97310981250273" lon="11.638610520477556"><ele>451.59999999999997</ele><time>2026-04-21T16:17:12Z</time></trkpt><trkpt lat="42.97300221021647" lon="11.638573571958268"><ele>455.4</ele><time>2026-04-21T16:17:13Z</time></trkpt><trkpt lat="42.97290365814693" lon="11.638549406418136"><ele>459.2</ele><time>2026-04-21T16:17:14Z</time></trkpt><trkpt lat="42.972807215519936" lon="11.638514958280284"><ele>463.0</ele><time>2026-04-21T16:17:15Z</time></trkpt><trkpt lat="42.97271345701783" lon="11.638460799424074"><ele>463.0</ele><time>2026-04-21T16:17:16Z</time></trkpt><trkpt lat="42.9726183502208" lon="11.638385331531826"><ele>462.99999999999994</ele><time>2026-04-21T16:17:17Z</time></trkpt><trkpt lat="42.97252087014716" lon="11.63829926071142"><ele>462.99999999999994</ele><time>2026-04-21T16:17:18Z</time></trkpt><trkpt lat="42.97242715874979" lon="11.638219713763997"><ele>463.0</ele><time>2026-04-21T16:17:19Z</time></trkpt><trkpt lat="42.97234968921938" lon="11.638124504982162"><ele>463.0</ele><time>2026-04-21T16:17:20Z</time></trkpt><trkpt lat="42.972263056707796" lon="11.638068803784602"><ele>461.79999999999995</ele><time>2026-04-21T16:17:21Z</time></trkpt><trkpt lat="42.97218063525614" lon="11.63798094681549"><ele>460.59999999999997</ele><time>2026-04-21T16:17:22Z</time></trkpt><trkpt lat="42.972094648047545" lon="11.637884727744822"><ele>459.40000000000003</ele><time>2026-04-21T16:17:23Z</time></trkpt><trkpt lat="42.972010202551566" lon="11.637794394962096"><ele>458.20000000000005</ele><time>2026-04-21T16:17:24Z</time></trkpt><trkpt lat="42.97192376293634" lon="11.637696126930773"><ele>457.0</ele><time>2026-04-21T16:17:25Z</time></trkpt><trkpt lat="42.97184030077223" lon="11.637595177106453"><ele>459.33333333333337</ele><time>2026-04-21T16:17:26Z</time></trkpt><trkpt lat="42.97175704867621" lon="11.637506946334387"><ele>461.6666666666667</ele><time>2026-04-21T16:17:27Z</time></trkpt><trkpt lat="42.971679040021904" lon="11.637422467874071"><ele>464.0</ele><time>2026-04-21T16:17:28Z</time></trkpt><trkpt lat="42.971617076364325" lon="11.637326912640487"><ele>466.33333333333337</ele><time>2026-04-21T16:17:29Z</time></trkpt><trkpt lat="42.971576201170635" lon="11.637242838904196"><ele>468.6666666666667</ele><time>2026-04-21T16:17:30Z</time></trkpt><trkpt lat="42.971550760814345" lon="11.637146954496098"><ele>471.0</ele><time>2026-04-21T16:17:31Z</time></trkpt><trkpt lat="42.9715341638213" lon="11.637035731793992"><ele>473.6</ele><time>2026-04-21T16:17:32Z</time></trkpt><trkpt lat="42.97152265573567" lon="11.636921681968763"><ele>476.20000000000005</ele><time>2026-04-21T16:17:33Z</time></trkpt><trkpt lat="42.97150560923141" lon="11.636772431241662"><ele>478.79999999999995</ele><time>2026-04-21T16:17:34Z</time></trkpt><trkpt lat="42.971469820172715" lon="11.636617901672006"><ele>481.4</ele><time>2026-04-21T16:17:35Z</time></trkpt><trkpt lat="42.971412855167145" lon="11.636474439768445"><ele>484.0</ele><time>2026-04-21T16:17:36Z</time></trkpt><trkpt lat="42.9713553570115" lon="11.636342756447291"><ele>484.00000000000006</ele><time>2026-04-21T16:17:37Z</time></trkpt><trkpt lat="42.97128131741529" lon="11.636221513824637"><ele>484.0</ele><time>2026-04-21T16:17:38Z</time></trkpt><trkpt lat="42.97120514311154" lon="11.63614081969165"><ele>484.0</ele><time>2026-04-21T16:17:39Z</time></trkpt><trkpt lat="42.97112855430807" lon="11.636072133042218"><ele>484.0</ele><time>2026-04-21T16:17:40Z</time></trkpt><trkpt lat="42.97107206645778" lon="11.635990769490775"><ele>484.00000000000006</ele><time>2026-04-21T16:17:42Z</time></trkpt><trkpt lat="42.97103471450383" lon="11.635920442181392"><ele>484.0</ele><time>2026-04-21T16:17:43Z</time></trkpt><trkpt lat="42.97103793445184" lon="11.635799358651514"><ele>485.6</ele><time>2026-04-21T16:17:45Z</time></trkpt><trkpt lat="42.97106741503869" lon="11.635702188648361"><ele>487.2</ele><time>2026-04-21T16:17:47Z</time></trkpt><trkpt lat="42.97110371408674" lon="11.63559697420651"><ele>488.80000000000007</ele><time>2026-04-21T16:17:49Z</time></trkpt><trkpt lat="42.97119541980292" lon="11.635570312046035"><ele>490.40000000000003</ele><time>2026-04-21T16:19:26Z</time></trkpt><trkpt lat="42.97125565717904" lon="11.635653603436303"><ele>492.0</ele><time>2026-04-21T16:19:28Z</time></trkpt><trkpt lat="42.97134786600141" lon="11.635746571737172"><ele>492.0</ele><time>2026-04-21T16:19:30Z</time></trkpt><trkpt lat="42.97142281859221" lon="11.635803451681358"><ele>492.0</ele><time>2026-04-21T16:19:32Z</time></trkpt><trkpt lat="42.9715017884082" lon="11.635870250322375"><ele>492.0</ele><time>2026-04-21T16:19:35Z</time></trkpt><trkpt lat="42.97156220281481" lon="11.635931134616873"><ele>492.0</ele><time>2026-04-21T16:19:37Z</time></trkpt><trkpt lat="42.9716490582539" lon="11.635968570585606"><ele>492.0</ele><time>2026-04-21T16:19:39Z</time></trkpt><trkpt lat="42.97174646240642" lon="11.635952906658277"><ele>492.0</ele><time>2026-04-21T16:19:41Z</time></trkpt><trkpt lat="42.97182926463684" lon="11.635919416733772"><ele>492.0</ele><time>2026-04-21T16:19:43Z</time></trkpt><trkpt lat="42.971876638414265" lon="11.635983396673186"><ele>492.0</ele><time>2026-04-21T16:19:47Z</time></trkpt><trkpt lat="42.97181638559931" lon="11.635949345846587"><ele>492.0</ele><time>2026-04-21T16:20:40Z</time></trkpt><trkpt lat="42.9717274764329" lon="11.63596874635614"><ele>492.0</ele><time>2026-04-21T16:20:55Z</time></trkpt><trkpt lat="42.971631156682434" lon="11.635973358997393"><ele>492.0</ele><time>2026-04-21T16:20:57Z</time></trkpt><trkpt lat="42.971550381716234" lon="11.635938439037465"><ele>492.0</ele><time>2026-04-21T16:20:59Z</time></trkpt><trkpt lat="42.97145947156415" lon="11.635861443898529"><ele>492.0</ele><time>2026-04-21T16:21:01Z</time></trkpt><trkpt lat="42.971360909622675" lon="11.635756197036182"><ele>492.00000000000006</ele><time>2026-04-21T16:21:03Z</time></trkpt><trkpt lat="42.97130719789346" lon="11.635708739316339"><ele>492.00000000000006</ele><time>2026-04-21T16:21:04Z</time></trkpt><trkpt lat="42.97122539956185" lon="11.635631829244709"><ele>492.0</ele><time>2026-04-21T16:21:06Z</time></trkpt><trkpt lat="42.97114908263164" lon="11.635546335080498"><ele>492.0</ele><time>2026-04-21T16:21:08Z</time></trkpt><trkpt lat="42.97109393723448" lon="11.635471005336079"><ele>492.0</ele><time>2026-04-21T16:21:10Z</time></trkpt><trkpt lat="42.97107619478152" lon="11.635374801607702"><ele>492.0</ele><time>2026-04-21T16:21:12Z</time></trkpt><trkpt lat="42.971099606308066" lon="11.63523433781996"><ele>492.0</ele><time>2026-04-21T16:21:14Z</time></trkpt><trkpt lat="42.9710879546876" lon="11.635133655854037"><ele>492.0</ele><time>2026-04-21T16:21:15Z</time></trkpt><trkpt lat="42.971094524664984" lon="11.635021537674849"><ele>492.0</ele><time>2026-04-21T16:21:16Z</time></trkpt><trkpt lat="42.97109198216385" lon="11.634904227710146"><ele>492.0</ele><time>2026-04-21T16:21:17Z</time></trkpt><trkpt lat="42.971097475453455" lon="11.634775190779168"><ele>493.8</ele><time>2026-04-21T16:21:18Z</time></trkpt><trkpt lat="42.971105932292296" lon="11.634643170472781"><ele>495.6</ele><time>2026-04-21T16:21:19Z</time></trkpt><trkpt lat="42.97108759428166" lon="11.634519457025366"><ele>497.40000000000003</ele><time>2026-04-21T16:21:20Z</time></trkpt><trkpt lat="42.971058226107075" lon="11.634410056299991"><ele>499.20000000000005</ele><time>2026-04-21T16:21:21Z</time></trkpt><trkpt lat="42.97100876290226" lon="11.63431130063257"><ele>501.0</ele><time>2026-04-21T16:21:22Z</time></trkpt><trkpt lat="42.97094935640454" lon="11.63420079697193"><ele>501.0</ele><time>2026-04-21T16:21:23Z</time></trkpt><trkpt lat="42.970894262632015" lon="11.634100648814025"><ele>501.0</ele><time>2026-04-21T16:21:24Z</time></trkpt><trkpt lat="42.97084399099916" lon="11.633995264742945"><ele>501.0</ele><time>2026-04-21T16:21:25Z</time></trkpt><trkpt lat="42.970804130362055" lon="11.633892951032502"><ele>501.0</ele><time>2026-04-21T16:21:26Z</time></trkpt><trkpt lat="42.97078772735524" lon="11.633787759700626"><ele>501.0</ele><time>2026-04-21T16:21:27Z</time></trkpt><trkpt lat="42.97074632462907" lon="11.633675541803331"><ele>501.0</ele><time>2026-04-21T16:21:28Z</time></trkpt><trkpt lat="42.97069633326501" lon="11.633585018167796"><ele>501.0</ele><time>2026-04-21T16:21:29Z</time></trkpt><trkpt lat="42.970671796069084" lon="11.633456801728356"><ele>501.0</ele><time>2026-04-21T16:21:30Z</time></trkpt><trkpt lat="42.97067919677172" lon="11.633325392245885"><ele>501.0</ele><time>2026-04-21T16:21:31Z</time></trkpt><trkpt lat="42.970680051525626" lon="11.633202646332956"><ele>501.0</ele><time>2026-04-21T16:21:32Z</time></trkpt><trkpt lat="42.97066520500861" lon="11.63308919733506"><ele>501.0</ele><time>2026-04-21T16:21:33Z</time></trkpt><trkpt lat="42.97066666159176" lon="11.632974696134731"><ele>501.0</ele><time>2026-04-21T16:21:34Z</time></trkpt><trkpt lat="42.970657286835724" lon="11.632872363771574"><ele>501.0</ele><time>2026-04-21T16:21:35Z</time></trkpt><trkpt lat="42.970642224934586" lon="11.632756952677013"><ele>501.0</ele><time>2026-04-21T16:21:36Z</time></trkpt><trkpt lat="42.97060983190035" lon="11.632653224070644"><ele>501.0</ele><time>2026-04-21T16:21:37Z</time></trkpt><trkpt lat="42.97055197824347" lon="11.632526608182008"><ele>501.0</ele><time>2026-04-21T16:21:38Z</time></trkpt><trkpt lat="42.970474966386355" lon="11.63241631608597"><ele>502.20000000000005</ele><time>2026-04-21T16:21:39Z</time></trkpt><trkpt lat="42.9703934616879" lon="11.632295900326517"><ele>503.40000000000003</ele><time>2026-04-21T16:21:40Z</time></trkpt><trkpt lat="42.97034226566543" lon="11.632179857470774"><ele>504.6</ele><time>2026-04-21T16:21:41Z</time></trkpt><trkpt lat="42.97032182773155" lon="11.632055114339286"><ele>505.8</ele><time>2026-04-21T16:21:42Z</time></trkpt><trkpt lat="42.970288957085735" lon="11.631932483423983"><ele>507.0</ele><time>2026-04-21T16:21:43Z</time></trkpt><trkpt lat="42.97027824423983" lon="11.631795253924949"><ele>508.0</ele><time>2026-04-21T16:21:44Z</time></trkpt><trkpt lat="42.97025123632367" lon="11.631646317501835"><ele>509.00000000000006</ele><time>2026-04-21T16:21:45Z</time></trkpt><trkpt lat="42.97022122155247" lon="11.631508897948782"><ele>510.00000000000006</ele><time>2026-04-21T16:21:46Z</time></trkpt><trkpt lat="42.97022238409124" lon="11.631392247097176"><ele>511.0</ele><time>2026-04-21T16:21:47Z</time></trkpt><trkpt lat="42.970224618279104" lon="11.63129962312587"><ele>512.0</ele><time>2026-04-21T16:21:48Z</time></trkpt><trkpt lat="42.97022596472544" lon="11.63118005371111"><ele>512.6</ele><time>2026-04-21T16:21:49Z</time></trkpt><trkpt lat="42.97021906615819" lon="11.631053203306587"><ele>513.2</ele><time>2026-04-21T16:21:50Z</time></trkpt><trkpt lat="42.97021943924919" lon="11.630906807933778"><ele>513.8</ele><time>2026-04-21T16:21:51Z</time></trkpt><trkpt lat="42.97021877105004" lon="11.630748898788928"><ele>514.4</ele><time>2026-04-21T16:21:52Z</time></trkpt><trkpt lat="42.97022020748439" lon="11.630593991861883"><ele>515.0</ele><time>2026-04-21T16:21:53Z</time></trkpt><trkpt lat="42.970223242894726" lon="11.630439498583833"><ele>516.8</ele><time>2026-04-21T16:21:54Z</time></trkpt><trkpt lat="42.97023850651593" lon="11.630288858094298"><ele>518.6</ele><time>2026-04-21T16:21:55Z</time></trkpt><trkpt lat="42.970240219974485" lon="11.630156262410411"><ele>520.4</ele><time>2026-04-21T16:21:56Z</time></trkpt><trkpt lat="42.970242899007324" lon="11.630035985553251"><ele>522.2</ele><time>2026-04-21T16:21:57Z</time></trkpt><trkpt lat="42.970247421210644" lon="11.629938870890358"><ele>524.0</ele><time>2026-04-21T16:21:58Z</time></trkpt><trkpt lat="42.97031864644248" lon="11.629852298982911"><ele>524.0</ele><time>2026-04-21T16:22:01Z</time></trkpt><trkpt lat="42.970370508932916" lon="11.62991777367435"><ele>524.0</ele><time>2026-04-21T16:22:02Z</time></trkpt><trkpt lat="42.97043678782729" lon="11.629968621919499"><ele>524.0</ele><time>2026-04-21T16:22:03Z</time></trkpt><trkpt lat="42.970530752050685" lon="11.629986920836679"><ele>524.0</ele><time>2026-04-21T16:22:04Z</time></trkpt><trkpt lat="42.97063020218638" lon="11.629995285149715"><ele>524.0</ele><time>2026-04-21T16:22:05Z</time></trkpt><trkpt lat="42.970731810922466" lon="11.629984529538577"><ele>524.0</ele><time>2026-04-21T16:22:06Z</time></trkpt><trkpt lat="42.97080814076733" lon="11.629919854105498"><ele>529.3333333333333</ele><time>2026-04-21T16:22:07Z</time></trkpt><trkpt lat="42.970866476968276" lon="11.629837352518372"><ele>534.6666666666666</ele><time>2026-04-21T16:22:08Z</time></trkpt><trkpt lat="42.97088920898927" lon="11.62972561362262"><ele>540.0</ele><time>2026-04-21T16:22:09Z</time></trkpt><trkpt lat="42.97089991607777" lon="11.629611680382222"><ele>545.3333333333334</ele><time>2026-04-21T16:22:10Z</time></trkpt><trkpt lat="42.97088653407375" lon="11.629501028697591"><ele>550.6666666666667</ele><time>2026-04-21T16:22:11Z</time></trkpt><trkpt lat="42.970884544854705" lon="11.629372133083303"><ele>556.0</ele><time>2026-04-21T16:22:12Z</time></trkpt><trkpt lat="42.97088054905732" lon="11.629273575634073"><ele>557.8</ele><time>2026-04-21T16:22:13Z</time></trkpt><trkpt lat="42.97087953676526" lon="11.629153943799851"><ele>559.6</ele><time>2026-04-21T16:22:14Z</time></trkpt><trkpt lat="42.970891623020975" lon="11.629046415166394"><ele>561.4</ele><time>2026-04-21T16:22:15Z</time></trkpt><trkpt lat="42.97094611753412" lon="11.628950674670714"><ele>563.2</ele><time>2026-04-21T16:22:16Z</time></trkpt><trkpt lat="42.97097097016713" lon="11.62882359951762"><ele>565.0</ele><time>2026-04-21T16:22:17Z</time></trkpt><trkpt lat="42.97097730627444" lon="11.628682904804258"><ele>566.2</ele><time>2026-04-21T16:22:18Z</time></trkpt><trkpt lat="42.9709638868808" lon="11.628542666566876"><ele>567.4</ele><time>2026-04-21T16:22:19Z</time></trkpt><trkpt lat="42.97096433084021" lon="11.628402551736114"><ele>568.6</ele><time>2026-04-21T16:22:20Z</time></trkpt><trkpt lat="42.9709577353951" lon="11.62825904979914"><ele>569.8</ele><time>2026-04-21T16:22:21Z</time></trkpt><trkpt lat="42.97094718534628" lon="11.628101129302413"><ele>571.0</ele><time>2026-04-21T16:22:22Z</time></trkpt><trkpt lat="42.97092664187797" lon="11.627943241111799"><ele>572.0</ele><time>2026-04-21T16:22:23Z</time></trkpt><trkpt lat="42.97088018807269" lon="11.627785250041596"><ele>573.0</ele><time>2026-04-21T16:22:24Z</time></trkpt><trkpt lat="42.97081584271019" lon="11.627636017489317"><ele>574.0</ele><time>2026-04-21T16:22:25Z</time></trkpt><trkpt lat="42.97075619724038" lon="11.627485670226395"><ele>575.0</ele><time>2026-04-21T16:22:26Z</time></trkpt><trkpt lat="42.97073137358626" lon="11.627320284921806"><ele>570.6</ele><time>2026-04-21T16:22:27Z</time></trkpt><trkpt lat="42.97071050938897" lon="11.627161772484584"><ele>566.2</ele><time>2026-04-21T16:22:28Z</time></trkpt><trkpt lat="42.97070338561" lon="11.62702099085563"><ele>561.8</ele><time>2026-04-21T16:22:29Z</time></trkpt><trkpt lat="42.970699545371524" lon="11.626875513514662"><ele>557.4</ele><time>2026-04-21T16:22:30Z</time></trkpt><trkpt lat="42.97070778640773" lon="11.626719428771828"><ele>553.0</ele><time>2026-04-21T16:22:31Z</time></trkpt><trkpt lat="42.9707038316274" lon="11.626535955000474"><ele>553.0</ele><time>2026-04-21T16:22:32Z</time></trkpt><trkpt lat="42.97072171205429" lon="11.626366823780524"><ele>553.0</ele><time>2026-04-21T16:22:33Z</time></trkpt><trkpt lat="42.970700880302495" lon="11.626215717632833"><ele>553.0</ele><time>2026-04-21T16:22:34Z</time></trkpt><trkpt lat="42.97065188376438" lon="11.626076473712372"><ele>553.0</ele><time>2026-04-21T16:22:35Z</time></trkpt><trkpt lat="42.97059819880041" lon="11.625948972286567"><ele>556.6</ele><time>2026-04-21T16:22:36Z</time></trkpt><trkpt lat="42.97053480902053" lon="11.625823911521556"><ele>560.1999999999999</ele><time>2026-04-21T16:22:37Z</time></trkpt><trkpt lat="42.970457215084494" lon="11.625715362695889"><ele>563.8</ele><time>2026-04-21T16:22:38Z</time></trkpt><trkpt lat="42.97038510390563" lon="11.625619208731377"><ele>567.4</ele><time>2026-04-21T16:22:39Z</time></trkpt><trkpt lat="42.97035283501552" lon="11.62552725434615"><ele>571.0</ele><time>2026-04-21T16:22:40Z</time></trkpt><trkpt lat="42.97035680625767" lon="11.625407992494274"><ele>572.2</ele><time>2026-04-21T16:22:41Z</time></trkpt><trkpt lat="42.97035021718572" lon="11.62530545905686"><ele>573.4000000000001</ele><time>2026-04-21T16:22:42Z</time></trkpt><trkpt lat="42.97033036740485" lon="11.625196238077171"><ele>574.6</ele><time>2026-04-21T16:22:43Z</time></trkpt><trkpt lat="42.97032596062908" lon="11.625073683098888"><ele>575.8000000000001</ele><time>2026-04-21T16:22:44Z</time></trkpt><trkpt lat="42.97029841173039" lon="11.624932575210144"><ele>577.0</ele><time>2026-04-21T16:22:45Z</time></trkpt><trkpt lat="42.97025558315972" lon="11.624776262045549"><ele>577.0</ele><time>2026-04-21T16:22:46Z</time></trkpt><trkpt lat="42.97021074086481" lon="11.624617557623088"><ele>577.0</ele><time>2026-04-21T16:22:47Z</time></trkpt><trkpt lat="42.970155730331804" lon="11.624478908936624"><ele>577.0</ele><time>2026-04-21T16:22:48Z</time></trkpt><trkpt lat="42.9700933298222" lon="11.624352502951854"><ele>577.0</ele><time>2026-04-21T16:22:49Z</time></trkpt><trkpt lat="42.970026314114605" lon="11.624226874078788"><ele>575.25</ele><time>2026-04-21T16:22:50Z</time></trkpt><trkpt lat="42.96996348429182" lon="11.624106858026408"><ele>573.5</ele><time>2026-04-21T16:22:51Z</time></trkpt><trkpt lat="42.96993027091356" lon="11.623953756412817"><ele>571.75</ele><time>2026-04-21T16:22:52Z</time></trkpt><trkpt lat="42.96990607610341" lon="11.62378475768189"><ele>570.0</ele><time>2026-04-21T16:22:53Z</time></trkpt><trkpt lat="42.969881292067704" lon="11.623621169148835"><ele>570.0</ele><time>2026-04-21T16:22:54Z</time></trkpt><trkpt lat="42.969844581452044" lon="11.623441650504548"><ele>570.0</ele><time>2026-04-21T16:22:55Z</time></trkpt><trkpt lat="42.96982611714539" lon="11.623261586214495"><ele>570.0</ele><time>2026-04-21T16:22:56Z</time></trkpt><trkpt lat="42.969829724425" lon="11.623075797851643"><ele>570.0</ele><time>2026-04-21T16:22:57Z</time></trkpt><trkpt lat="42.96980584200527" lon="11.62291377486172"><ele>571.5</ele><time>2026-04-21T16:22:58Z</time></trkpt><trkpt lat="42.96978351523451" lon="11.622762115424305"><ele>573.0</ele><time>2026-04-21T16:22:59Z</time></trkpt><trkpt lat="42.96977237666789" lon="11.622639711566068"><ele>574.5</ele><time>2026-04-21T16:23:00Z</time></trkpt><trkpt lat="42.96975832252351" lon="11.622522004410161"><ele>576.0</ele><time>2026-04-21T16:23:01Z</time></trkpt><trkpt lat="42.9697249054229" lon="11.622448022452186"><ele>577.5</ele><time>2026-04-21T16:23:02Z</time></trkpt><trkpt lat="42.96966921894346" lon="11.622385026325784"><ele>579.0</ele><time>2026-04-21T16:23:03Z</time></trkpt><trkpt lat="42.969590547605826" lon="11.622330708790436"><ele>579.0</ele><time>2026-04-21T16:23:04Z</time></trkpt><trkpt lat="42.96948810898243" lon="11.622310089797931"><ele>579.0</ele><time>2026-04-21T16:23:05Z</time></trkpt><trkpt lat="42.96937060463344" lon="11.622313985735898"><ele>579.0</ele><time>2026-04-21T16:23:06Z</time></trkpt><trkpt lat="42.969272861402104" lon="11.62235621461683"><ele>579.0</ele><time>2026-04-21T16:23:07Z</time></trkpt><trkpt lat="42.96919958568622" lon="11.622376050550992"><ele>579.0</ele><time>2026-04-21T16:23:08Z</time></trkpt><trkpt lat="42.969128924913704" lon="11.622346456747575"><ele>578.8</ele><time>2026-04-21T16:23:09Z</time></trkpt><trkpt lat="42.96907480138256" lon="11.622263798726506"><ele>578.5999999999999</ele><time>2026-04-21T16:23:10Z</time></trkpt><trkpt lat="42.96904813547649" lon="11.622151904213306"><ele>578.4</ele><time>2026-04-21T16:23:11Z</time></trkpt><trkpt lat="42.969078446081994" lon="11.622033499575014"><ele>578.1999999999999</ele><time>2026-04-21T16:23:12Z</time></trkpt><trkpt lat="42.96911484693611" lon="11.621916558901901"><ele>578.0</ele><time>2026-04-21T16:23:13Z</time></trkpt><trkpt lat="42.96916981985156" lon="11.62178978938886"><ele>580.6</ele><time>2026-04-21T16:23:14Z</time></trkpt><trkpt lat="42.969233702660766" lon="11.621666791053572"><ele>583.1999999999999</ele><time>2026-04-21T16:23:15Z</time></trkpt><trkpt lat="42.969264760089246" lon="11.621564559427377"><ele>585.8</ele><time>2026-04-21T16:23:16Z</time></trkpt><trkpt lat="42.969271318443504" lon="11.621451902988213"><ele>588.4</ele><time>2026-04-21T16:23:17Z</time></trkpt><trkpt lat="42.96922132464082" lon="11.621366477153012"><ele>591.0</ele><time>2026-04-21T16:23:18Z</time></trkpt><trkpt lat="42.9691097709449" lon="11.621296997808075"><ele>591.0</ele><time>2026-04-21T16:23:19Z</time></trkpt><trkpt lat="42.969031378495245" lon="11.621198581411281"><ele>591.0</ele><time>2026-04-21T16:23:20Z</time></trkpt><trkpt lat="42.96901907520363" lon="11.621042089451338"><ele>591.0</ele><time>2026-04-21T16:23:21Z</time></trkpt><trkpt lat="42.9689838005218" lon="11.620869205498279"><ele>591.0</ele><time>2026-04-21T16:23:22Z</time></trkpt><trkpt lat="42.968949304954656" lon="11.620718587056567"><ele>593.8</ele><time>2026-04-21T16:23:23Z</time></trkpt><trkpt lat="42.96891208238902" lon="11.620559709734227"><ele>596.6</ele><time>2026-04-21T16:23:24Z</time></trkpt><trkpt lat="42.96890974460373" lon="11.620445033599509"><ele>599.4</ele><time>2026-04-21T16:23:25Z</time></trkpt><trkpt lat="42.96893727283768" lon="11.62035485006963"><ele>602.2</ele><time>2026-04-21T16:23:26Z</time></trkpt><trkpt lat="42.96902600902862" lon="11.620306028668443"><ele>605.0</ele><time>2026-04-21T16:23:27Z</time></trkpt><trkpt lat="42.969109238983236" lon="11.620209832412456"><ele>609.0</ele><time>2026-04-21T16:23:28Z</time></trkpt><trkpt lat="42.96919687639614" lon="11.620110057606603"><ele>613.0</ele><time>2026-04-21T16:23:29Z</time></trkpt><trkpt lat="42.9692904674959" lon="11.619998555251096"><ele>617.0</ele><time>2026-04-21T16:23:30Z</time></trkpt><trkpt lat="42.96938928934801" lon="11.619885149400366"><ele>621.0</ele><time>2026-04-21T16:23:31Z</time></trkpt><trkpt lat="42.969478462569874" lon="11.619748767233954"><ele>621.0</ele><time>2026-04-21T16:23:32Z</time></trkpt><trkpt lat="42.969550298497424" lon="11.619649433091862"><ele>621.0</ele><time>2026-04-21T16:23:33Z</time></trkpt><trkpt lat="42.969588579228784" lon="11.619555345494282"><ele>621.0</ele><time>2026-04-21T16:23:34Z</time></trkpt><trkpt lat="42.969567644956555" lon="11.619430572594473"><ele>621.0</ele><time>2026-04-21T16:23:35Z</time></trkpt><trkpt lat="42.96947490312356" lon="11.61919994850893"><ele>624.0</ele><time>2026-04-21T16:23:37Z</time></trkpt><trkpt lat="42.969418829217126" lon="11.619062021631443"><ele>627.0</ele><time>2026-04-21T16:23:38Z</time></trkpt><trkpt lat="42.969348883458416" lon="11.618931912258319"><ele>630.0</ele><time>2026-04-21T16:23:39Z</time></trkpt><trkpt lat="42.969286840960834" lon="11.618794489068076"><ele>633.0</ele><time>2026-04-21T16:23:40Z</time></trkpt><trkpt lat="42.96922998450729" lon="11.618652175401568"><ele>635.75</ele><time>2026-04-21T16:23:41Z</time></trkpt><trkpt lat="42.96916339263054" lon="11.618515397016393"><ele>638.5</ele><time>2026-04-21T16:23:42Z</time></trkpt><trkpt lat="42.96908377434682" lon="11.618400320542204"><ele>641.25</ele><time>2026-04-21T16:23:43Z</time></trkpt><trkpt lat="42.96897221612324" lon="11.618311372962118"><ele>644.0</ele><time>2026-04-21T16:23:44Z</time></trkpt><trkpt lat="42.96885799942363" lon="11.618236445768039"><ele>644.0</ele><time>2026-04-21T16:23:45Z</time></trkpt><trkpt lat="42.968739434473285" lon="11.618164545225378"><ele>644.0</ele><time>2026-04-21T16:23:46Z</time></trkpt><trkpt lat="42.968616446553675" lon="11.61807666015222"><ele>644.0</ele><time>2026-04-21T16:23:47Z</time></trkpt><trkpt lat="42.96850816818401" lon="11.61798634479688"><ele>644.0</ele><time>2026-04-21T16:23:48Z</time></trkpt><trkpt lat="42.96838377063105" lon="11.617895756816306"><ele>647.2</ele><time>2026-04-21T16:23:49Z</time></trkpt><trkpt lat="42.968270728752046" lon="11.617813523060933"><ele>650.4000000000001</ele><time>2026-04-21T16:23:50Z</time></trkpt><trkpt lat="42.968171297118026" lon="11.617744427079039"><ele>653.6</ele><time>2026-04-21T16:23:51Z</time></trkpt><trkpt lat="42.96808154177294" lon="11.617662464525628"><ele>656.8</ele><time>2026-04-21T16:23:52Z</time></trkpt><trkpt lat="42.96802211613801" lon="11.617550222416535"><ele>660.0</ele><time>2026-04-21T16:23:53Z</time></trkpt><trkpt lat="42.9679685598544" lon="11.617403286794541"><ele>660.0</ele><time>2026-04-21T16:23:54Z</time></trkpt><trkpt lat="42.967909910109825" lon="11.617240852495367"><ele>660.0</ele><time>2026-04-21T16:23:55Z</time></trkpt><trkpt lat="42.96785309166765" lon="11.617067191275007"><ele>660.0</ele><time>2026-04-21T16:23:56Z</time></trkpt><trkpt lat="42.96780615708827" lon="11.616923050376164"><ele>660.0</ele><time>2026-04-21T16:23:57Z</time></trkpt><trkpt lat="42.967770228518035" lon="11.616801518927895"><ele>660.0</ele><time>2026-04-21T16:23:58Z</time></trkpt><trkpt lat="42.96773359135335" lon="11.616709979283833"><ele>660.0</ele><time>2026-04-21T16:23:59Z</time></trkpt><trkpt lat="42.96768675385889" lon="11.616616980401796"><ele>660.0</ele><time>2026-04-21T16:24:01Z</time></trkpt><trkpt lat="42.96754404758196" lon="11.616588255804912"><ele>660.0</ele><time>2026-04-21T16:24:04Z</time></trkpt><trkpt lat="42.967460612248075" lon="11.616613636632588"><ele>660.0</ele><time>2026-04-21T16:24:05Z</time></trkpt><trkpt lat="42.96737314564735" lon="11.616652456341912"><ele>660.0</ele><time>2026-04-21T16:24:06Z</time></trkpt><trkpt lat="42.96727262261054" lon="11.61668709691973"><ele>660.0</ele><time>2026-04-21T16:24:07Z</time></trkpt><trkpt lat="42.96716309581527" lon="11.616710207195666"><ele>660.0</ele><time>2026-04-21T16:24:08Z</time></trkpt><trkpt lat="42.96704663889947" lon="11.616721901765272"><ele>660.0</ele><time>2026-04-21T16:24:09Z</time></trkpt><trkpt lat="42.966941235848665" lon="11.616727264795284"><ele>660.0</ele><time>2026-04-21T16:24:10Z</time></trkpt><trkpt lat="42.96684704759279" lon="11.616730343378357"><ele>660.0</ele><time>2026-04-21T16:24:11Z</time></trkpt><trkpt lat="42.966768274362444" lon="11.616735112166964"><ele>660.0</ele><time>2026-04-21T16:24:12Z</time></trkpt><trkpt lat="42.96670176709506" lon="11.61673835109838"><ele>660.0</ele><time>2026-04-21T16:24:13Z</time></trkpt><trkpt lat="42.96661318739934" lon="11.616725563178047"><ele>660.0</ele><time>2026-04-21T16:24:15.001Z</time></trkpt><trkpt lat="42.966491892078544" lon="11.6166594347074"><ele>660.0</ele><time>2026-04-21T16:24:17.001Z</time></trkpt><trkpt lat="42.96639977871029" lon="11.616596753780577"><ele>659.75</ele><time>2026-04-21T16:24:18.001Z</time></trkpt><trkpt lat="42.966309922974645" lon="11.616519112828273"><ele>659.5</ele><time>2026-04-21T16:24:19.001Z</time></trkpt><trkpt lat="42.966222152625775" lon="11.616415873887847"><ele>659.25</ele><time>2026-04-21T16:24:20.001Z</time></trkpt><trkpt lat="42.96613261086466" lon="11.616300719007468"><ele>659.0</ele><time>2026-04-21T16:24:21.001Z</time></trkpt><trkpt lat="42.96603921144307" lon="11.616187650939844"><ele>658.2</ele><time>2026-04-21T16:24:22.001Z</time></trkpt><trkpt lat="42.96594366702684" lon="11.616084591590408"><ele>657.4000000000001</ele><time>2026-04-21T16:24:23Z</time></trkpt><trkpt lat="42.965850111063965" lon="11.6159968613363"><ele>656.6</ele><time>2026-04-21T16:24:24Z</time></trkpt><trkpt lat="42.96575083247431" lon="11.615941386565137"><ele>655.8</ele><time>2026-04-21T16:24:25Z</time></trkpt><trkpt lat="42.96564964706828" lon="11.615910956897148"><ele>655.0</ele><time>2026-04-21T16:24:26Z</time></trkpt><trkpt lat="42.96554592667091" lon="11.61591687780299"><ele>657.5</ele><time>2026-04-21T16:24:27Z</time></trkpt><trkpt lat="42.96543071547715" lon="11.615899000823951"><ele>660.0</ele><time>2026-04-21T16:24:28Z</time></trkpt><trkpt lat="42.96532157445998" lon="11.61586830976773"><ele>662.5</ele><time>2026-04-21T16:24:29Z</time></trkpt><trkpt lat="42.96520766004221" lon="11.615829397829526"><ele>665.0</ele><time>2026-04-21T16:24:30Z</time></trkpt><trkpt lat="42.96509140738895" lon="11.615802978258385"><ele>667.25</ele><time>2026-04-21T16:24:31Z</time></trkpt><trkpt lat="42.96497089047041" lon="11.615794834024467"><ele>669.5</ele><time>2026-04-21T16:24:32Z</time></trkpt><trkpt lat="42.9648550869323" lon="11.615801154847313"><ele>671.75</ele><time>2026-04-21T16:24:33Z</time></trkpt><trkpt lat="42.96473189113141" lon="11.615827885868036"><ele>674.0</ele><time>2026-04-21T16:24:34Z</time></trkpt><trkpt lat="42.96460949477899" lon="11.61586554999495"><ele>674.0</ele><time>2026-04-21T16:24:35Z</time></trkpt><trkpt lat="42.96448361477218" lon="11.615909686631126"><ele>674.0</ele><time>2026-04-21T16:24:36Z</time></trkpt><trkpt lat="42.964351997139055" lon="11.61594501992642"><ele>674.0</ele><time>2026-04-21T16:24:37Z</time></trkpt><trkpt lat="42.96423111841229" lon="11.615955423577104"><ele>674.0</ele><time>2026-04-21T16:24:38Z</time></trkpt><trkpt lat="42.96410347789958" lon="11.615946880025408"><ele>674.5</ele><time>2026-04-21T16:24:39Z</time></trkpt><trkpt lat="42.9639651704589" lon="11.615928413036318"><ele>675.0</ele><time>2026-04-21T16:24:40Z</time></trkpt><trkpt lat="42.96382318022656" lon="11.615917087717989"><ele>675.5</ele><time>2026-04-21T16:24:41Z</time></trkpt><trkpt lat="42.96366420207275" lon="11.61590607039297"><ele>676.0</ele><time>2026-04-21T16:24:42Z</time></trkpt><trkpt lat="42.96349420370359" lon="11.615895762600646"><ele>677.3333333333334</ele><time>2026-04-21T16:24:43Z</time></trkpt><trkpt lat="42.96333278673545" lon="11.615891191645632"><ele>678.6666666666666</ele><time>2026-04-21T16:24:44Z</time></trkpt><trkpt lat="42.96317170307519" lon="11.615903308796373"><ele>680.0</ele><time>2026-04-21T16:24:45Z</time></trkpt><trkpt lat="42.963015981318875" lon="11.615920337890284"><ele>680.0</ele><time>2026-04-21T16:24:46Z</time></trkpt><trkpt lat="42.962862671711264" lon="11.61593623335477"><ele>680.0</ele><time>2026-04-21T16:24:47Z</time></trkpt><trkpt lat="42.96271246317723" lon="11.61595547277335"><ele>680.0</ele><time>2026-04-21T16:24:48Z</time></trkpt><trkpt lat="42.9625802310936" lon="11.615962605833191"><ele>680.0</ele><time>2026-04-21T16:24:49Z</time></trkpt><trkpt lat="42.96246483583697" lon="11.615957570890073"><ele>681.6666666666666</ele><time>2026-04-21T16:24:50Z</time></trkpt><trkpt lat="42.962359926537644" lon="11.615946629004045"><ele>683.3333333333333</ele><time>2026-04-21T16:24:51Z</time></trkpt><trkpt lat="42.96226204572453" lon="11.615930533238181"><ele>685.0</ele><time>2026-04-21T16:24:52Z</time></trkpt><trkpt lat="42.96219242641474" lon="11.615899310217221"><ele>686.6666666666666</ele><time>2026-04-21T16:24:53Z</time></trkpt><trkpt lat="42.96213606116058" lon="11.615843940586455"><ele>688.3333333333334</ele><time>2026-04-21T16:24:54Z</time></trkpt><trkpt lat="42.9621256267399" lon="11.615745541755892"><ele>690.0</ele><time>2026-04-21T16:24:55Z</time></trkpt><trkpt lat="42.96214091449141" lon="11.61556096775484"><ele>690.0</ele><time>2026-04-21T16:24:57Z</time></trkpt><trkpt lat="42.96214363605907" lon="11.61541350628983"><ele>690.0</ele><time>2026-04-21T16:24:58Z</time></trkpt><trkpt lat="42.9621396003745" lon="11.615266230042902"><ele>690.0</ele><time>2026-04-21T16:24:59Z</time></trkpt><trkpt lat="42.96210426398862" lon="11.615119564892792"><ele>690.0</ele><time>2026-04-21T16:25:00Z</time></trkpt><trkpt lat="42.962065497919816" lon="11.614998449967612"><ele>690.0</ele><time>2026-04-21T16:25:01Z</time></trkpt><trkpt lat="42.96200528624896" lon="11.614880687368007"><ele>690.5</ele><time>2026-04-21T16:25:02Z</time></trkpt><trkpt lat="42.961972902558735" lon="11.614730859868798"><ele>691.0</ele><time>2026-04-21T16:25:03Z</time></trkpt><trkpt lat="42.96193996485414" lon="11.614568185650922"><ele>691.5</ele><time>2026-04-21T16:25:04Z</time></trkpt><trkpt lat="42.96192036471368" lon="11.614390493209584"><ele>692.0</ele><time>2026-04-21T16:25:05Z</time></trkpt><trkpt lat="42.96191935102057" lon="11.614197243013617"><ele>692.5</ele><time>2026-04-21T16:25:06Z</time></trkpt><trkpt lat="42.9619309009946" lon="11.614006800214135"><ele>693.0</ele><time>2026-04-21T16:25:07Z</time></trkpt><trkpt lat="42.961949582064925" lon="11.613820706686049"><ele>693.5</ele><time>2026-04-21T16:25:08Z</time></trkpt><trkpt lat="42.96196814983299" lon="11.613640099824096"><ele>694.0</ele><time>2026-04-21T16:25:09Z</time></trkpt><trkpt lat="42.96197894801385" lon="11.613458880166244"><ele>694.75</ele><time>2026-04-21T16:25:10Z</time></trkpt><trkpt lat="42.96197420369783" lon="11.61329270100301"><ele>695.5</ele><time>2026-04-21T16:25:11Z</time></trkpt><trkpt lat="42.96193614193228" lon="11.613124906301753"><ele>696.25</ele><time>2026-04-21T16:25:12Z</time></trkpt><trkpt lat="42.961914289113736" lon="11.612956227497264"><ele>697.0</ele><time>2026-04-21T16:25:13Z</time></trkpt><trkpt lat="42.96187387305838" lon="11.612785078235255"><ele>697.75</ele><time>2026-04-21T16:25:14Z</time></trkpt><trkpt lat="42.96180363488335" lon="11.61262229405804"><ele>698.5</ele><time>2026-04-21T16:25:15Z</time></trkpt><trkpt lat="42.96171378271023" lon="11.612508151569346"><ele>699.25</ele><time>2026-04-21T16:25:16Z</time></trkpt><trkpt lat="42.9616312059488" lon="11.612406542757554"><ele>700.0</ele><time>2026-04-21T16:25:17Z</time></trkpt><trkpt lat="42.961539771295634" lon="11.612339175163024"><ele>703.0</ele><time>2026-04-21T16:25:18Z</time></trkpt><trkpt lat="42.961433735834355" lon="11.612286768971689"><ele>706.0</ele><time>2026-04-21T16:25:19Z</time></trkpt><trkpt lat="42.961310946190665" lon="11.612231034957228"><ele>709.0</ele><time>2026-04-21T16:25:20Z</time></trkpt><trkpt lat="42.96120945180163" lon="11.612164826907724"><ele>712.0</ele><time>2026-04-21T16:25:21Z</time></trkpt><trkpt lat="42.961110828497866" lon="11.612099082404516"><ele>712.0</ele><time>2026-04-21T16:25:22Z</time></trkpt><trkpt lat="42.96102111833437" lon="11.612027180658362"><ele>712.0</ele><time>2026-04-21T16:25:23Z</time></trkpt><trkpt lat="42.9609416557721" lon="11.611934675130074"><ele>712.0</ele><time>2026-04-21T16:25:24Z</time></trkpt><trkpt lat="42.960875095123605" lon="11.61182933033835"><ele>712.0</ele><time>2026-04-21T16:25:25Z</time></trkpt><trkpt lat="42.96081974087609" lon="11.611721488648033"><ele>712.0</ele><time>2026-04-21T16:25:26Z</time></trkpt><trkpt lat="42.96074995970245" lon="11.611621969132914"><ele>713.2</ele><time>2026-04-21T16:25:27Z</time></trkpt><trkpt lat="42.960657247088264" lon="11.611523778361134"><ele>714.4000000000001</ele><time>2026-04-21T16:25:28Z</time></trkpt><trkpt lat="42.960561535032646" lon="11.611425200778617"><ele>715.5999999999999</ele><time>2026-04-21T16:25:29Z</time></trkpt><trkpt lat="42.96047325857048" lon="11.611339494064138"><ele>716.8</ele><time>2026-04-21T16:25:30Z</time></trkpt><trkpt lat="42.9603970438331" lon="11.611269850862639"><ele>718.0</ele><time>2026-04-21T16:25:31Z</time></trkpt><trkpt lat="42.96032575044058" lon="11.611205896636552"><ele>717.0</ele><time>2026-04-21T16:25:32Z</time></trkpt><trkpt lat="42.96025427075002" lon="11.611146596085069"><ele>716.0</ele><time>2026-04-21T16:25:33Z</time></trkpt><trkpt lat="42.96017556162997" lon="11.611084805230101"><ele>715.0</ele><time>2026-04-21T16:25:34Z</time></trkpt><trkpt lat="42.96008829172851" lon="11.61100161340074"><ele>714.0</ele><time>2026-04-21T16:25:35Z</time></trkpt><trkpt lat="42.96000731773502" lon="11.610911638069894"><ele>713.0</ele><time>2026-04-21T16:25:36Z</time></trkpt><trkpt lat="42.959916833182476" lon="11.61081192144619"><ele>715.5</ele><time>2026-04-21T16:25:37Z</time></trkpt><trkpt lat="42.95983109226595" lon="11.610698446449332"><ele>718.0</ele><time>2026-04-21T16:25:38Z</time></trkpt><trkpt lat="42.95975817384426" lon="11.610559708759247"><ele>720.5</ele><time>2026-04-21T16:25:39Z</time></trkpt><trkpt lat="42.95970352225899" lon="11.610398029406873"><ele>723.0</ele><time>2026-04-21T16:25:40Z</time></trkpt><trkpt lat="42.959647461151235" lon="11.610226894531438"><ele>724.0</ele><time>2026-04-21T16:25:41Z</time></trkpt><trkpt lat="42.959591800316595" lon="11.610049593362854"><ele>725.0</ele><time>2026-04-21T16:25:42Z</time></trkpt><trkpt lat="42.959565800175106" lon="11.609865332589598"><ele>726.0</ele><time>2026-04-21T16:25:43Z</time></trkpt><trkpt lat="42.959536387629896" lon="11.609686240159919"><ele>727.0</ele><time>2026-04-21T16:25:44Z</time></trkpt><trkpt lat="42.95951839154162" lon="11.609496847980857"><ele>727.6</ele><time>2026-04-21T16:25:45Z</time></trkpt><trkpt lat="42.959523717094704" lon="11.609326584284567"><ele>728.2</ele><time>2026-04-21T16:25:46Z</time></trkpt><trkpt lat="42.9595460519914" lon="11.609171477492279"><ele>728.8</ele><time>2026-04-21T16:25:47Z</time></trkpt><trkpt lat="42.9595599170743" lon="11.609065933949678"><ele>729.4</ele><time>2026-04-21T16:25:48Z</time></trkpt><trkpt lat="42.95957719663478" lon="11.608935115573388"><ele>730.0</ele><time>2026-04-21T16:25:50Z</time></trkpt><trkpt lat="42.959555842373135" lon="11.609096949291668"><ele>730.0</ele><time>2026-04-21T16:26:52Z</time></trkpt><trkpt lat="42.959533762889976" lon="11.609252404105856"><ele>730.0</ele><time>2026-04-21T16:26:52.999Z</time></trkpt><trkpt lat="42.9594948102497" lon="11.609367406900756"><ele>730.0</ele><time>2026-04-21T16:26:53.999Z</time></trkpt><trkpt lat="42.95949964113271" lon="11.609482447861089"><ele>730.0</ele><time>2026-04-21T16:26:54.999Z</time></trkpt><trkpt lat="42.959511482049734" lon="11.60962155731973"><ele>730.0</ele><time>2026-04-21T16:26:55.999Z</time></trkpt><trkpt lat="42.95951473715423" lon="11.609774831505538"><ele>729.4</ele><time>2026-04-21T16:26:56.999Z</time></trkpt><trkpt lat="42.959538425875124" lon="11.609900551233372"><ele>728.8</ele><time>2026-04-21T16:26:57.999Z</time></trkpt><trkpt lat="42.959565376827676" lon="11.610023699392213"><ele>728.2</ele><time>2026-04-21T16:26:58.999Z</time></trkpt><trkpt lat="42.95959982464805" lon="11.610160160471494"><ele>727.6</ele><time>2026-04-21T16:26:59.999Z</time></trkpt><trkpt lat="42.959635217624076" lon="11.61028261681784"><ele>727.0</ele><time>2026-04-21T16:27:00.999Z</time></trkpt><trkpt lat="42.95967370299074" lon="11.610405455262894"><ele>726.2</ele><time>2026-04-21T16:27:01.999Z</time></trkpt><trkpt lat="42.95970691613203" lon="11.610499329655449"><ele>725.4000000000001</ele><time>2026-04-21T16:27:02.999Z</time></trkpt><trkpt lat="42.959745590251295" lon="11.610598333620176"><ele>724.5999999999999</ele><time>2026-04-21T16:27:03.999Z</time></trkpt><trkpt lat="42.95979105430802" lon="11.610701331780781"><ele>723.8</ele><time>2026-04-21T16:27:04.999Z</time></trkpt><trkpt lat="42.95985670261943" lon="11.61081164841006"><ele>723.0</ele><time>2026-04-21T16:27:05.999Z</time></trkpt><trkpt lat="42.95993566483594" lon="11.610907667668632"><ele>723.0</ele><time>2026-04-21T16:27:06.999Z</time></trkpt><trkpt lat="42.96001963316409" lon="11.610998510618135"><ele>723.0</ele><time>2026-04-21T16:27:07.999Z</time></trkpt><trkpt lat="42.960114707813645" lon="11.61109524939404"><ele>723.0</ele><time>2026-04-21T16:27:08.999Z</time></trkpt><trkpt lat="42.960211589074625" lon="11.61118222696274"><ele>723.0</ele><time>2026-04-21T16:27:09.999Z</time></trkpt><trkpt lat="42.96031399289677" lon="11.611263059708326"><ele>722.0</ele><time>2026-04-21T16:27:10.999Z</time></trkpt><trkpt lat="42.96041388813177" lon="11.611345317946398"><ele>721.0</ele><time>2026-04-21T16:27:11.999Z</time></trkpt><trkpt lat="42.960505198615095" lon="11.61142507208223"><ele>720.0</ele><time>2026-04-21T16:27:12.999Z</time></trkpt><trkpt lat="42.960588164885834" lon="11.611512351779803"><ele>719.0</ele><time>2026-04-21T16:27:13.999Z</time></trkpt><trkpt lat="42.96066924012705" lon="11.611606083924487"><ele>718.0</ele><time>2026-04-21T16:27:14.999Z</time></trkpt><trkpt lat="42.96074731298589" lon="11.61169977376343"><ele>718.0</ele><time>2026-04-21T16:27:15.999Z</time></trkpt><trkpt lat="42.96082062710993" lon="11.611791733148195"><ele>718.0</ele><time>2026-04-21T16:27:16.999Z</time></trkpt><trkpt lat="42.96087470646045" lon="11.6118764131264"><ele>718.0</ele><time>2026-04-21T16:27:17.999Z</time></trkpt><trkpt lat="42.9609337645635" lon="11.611969908612034"><ele>718.0</ele><time>2026-04-21T16:27:18.999Z</time></trkpt><trkpt lat="42.960999446360006" lon="11.612052263313112"><ele>718.0</ele><time>2026-04-21T16:27:19.999Z</time></trkpt><trkpt lat="42.96107958021538" lon="11.612133034080577"><ele>716.8</ele><time>2026-04-21T16:27:20.999Z</time></trkpt><trkpt lat="42.96116791681814" lon="11.612191787418586"><ele>715.5999999999999</ele><time>2026-04-21T16:27:21.999Z</time></trkpt><trkpt lat="42.96125640228345" lon="11.612242910080646"><ele>714.4000000000001</ele><time>2026-04-21T16:27:22.999Z</time></trkpt><trkpt lat="42.96133264746758" lon="11.612287191385892"><ele>713.2</ele><time>2026-04-21T16:27:23.999Z</time></trkpt><trkpt lat="42.961413831669766" lon="11.612335822610834"><ele>712.0</ele><time>2026-04-21T16:27:24.999Z</time></trkpt><trkpt lat="42.96149182490318" lon="11.612385630603583"><ele>712.0</ele><time>2026-04-21T16:27:25.999Z</time></trkpt><trkpt lat="42.96156468825285" lon="11.612438818696184"><ele>712.0</ele><time>2026-04-21T16:27:26.999Z</time></trkpt><trkpt lat="42.96163662477923" lon="11.612495699509228"><ele>712.0</ele><time>2026-04-21T16:27:27.999Z</time></trkpt><trkpt lat="42.96170708200864" lon="11.612563712038051"><ele>712.0</ele><time>2026-04-21T16:27:28.999Z</time></trkpt><trkpt lat="42.961760173450706" lon="11.612629513539058"><ele>712.0</ele><time>2026-04-21T16:27:29.999Z</time></trkpt><trkpt lat="42.961810608916394" lon="11.61268576420172"><ele>712.0</ele><time>2026-04-21T16:27:30.999Z</time></trkpt><trkpt lat="42.961837931338856" lon="11.612783172581837"><ele>709.6</ele><time>2026-04-21T16:27:32.999Z</time></trkpt><trkpt lat="42.96193352281628" lon="11.612627456498231"><ele>707.2</ele><time>2026-04-21T16:27:39.999Z</time></trkpt><trkpt lat="42.96193917464989" lon="11.612479397391851"><ele>704.8</ele><time>2026-04-21T16:27:41.999Z</time></trkpt><trkpt lat="42.961952704369" lon="11.612381931423354"><ele>702.4</ele><time>2026-04-21T16:27:43.999Z</time></trkpt><trkpt lat="42.96196344639686" lon="11.612264149226672"><ele>700.0</ele><time>2026-04-21T16:27:46.999Z</time></trkpt><trkpt lat="42.96200802633335" lon="11.612158896548403"><ele>700.0</ele><time>2026-04-21T16:27:49.999Z</time></trkpt><trkpt lat="42.96204602255219" lon="11.612089307016221"><ele>700.0</ele><time>2026-04-21T16:27:52.999Z</time></trkpt><trkpt lat="42.962111779374915" lon="11.612050265916263"><ele>700.0</ele><time>2026-04-21T16:27:56.999Z</time></trkpt><trkpt lat="42.96217664396915" lon="11.612006433045227"><ele>700.0</ele><time>2026-04-21T16:27:59.999Z</time></trkpt><trkpt lat="42.962246484550334" lon="11.611953583269548"><ele>700.0</ele><time>2026-04-21T16:28:03.999Z</time></trkpt><trkpt lat="42.962324285280864" lon="11.611947383748285"><ele>700.0</ele><time>2026-04-21T16:28:06.999Z</time></trkpt><trkpt lat="42.96239173744214" lon="11.611953921039643"><ele>700.0</ele><time>2026-04-21T16:28:09.999Z</time></trkpt><trkpt lat="42.96245739449383" lon="11.61199156757649"><ele>700.0</ele><time>2026-04-21T16:28:14.999Z</time></trkpt><trkpt lat="42.96249357909686" lon="11.61211050091879"><ele>700.0</ele><time>2026-04-21T16:28:27Z</time></trkpt><trkpt lat="42.96254351244757" lon="11.612208953220085"><ele>700.0</ele><time>2026-04-21T16:28:30Z</time></trkpt><trkpt lat="42.9625900488696" lon="11.612302125365606"><ele>700.0</ele><time>2026-04-21T16:28:33Z</time></trkpt><trkpt lat="42.96265667643661" lon="11.612367132848817"><ele>700.0</ele><time>2026-04-21T16:28:36Z</time></trkpt><trkpt lat="42.96269343923113" lon="11.612468875879372"><ele>700.0</ele><time>2026-04-21T16:28:39Z</time></trkpt><trkpt lat="42.962717403413606" lon="11.612590132203659"><ele>697.6666666666667</ele><time>2026-04-21T16:28:43Z</time></trkpt><trkpt lat="42.96273180084706" lon="11.612690712312354"><ele>695.3333333333334</ele><time>2026-04-21T16:28:47Z</time></trkpt><trkpt lat="42.96272302002309" lon="11.612778840824026"><ele>693.0</ele><time>2026-04-21T16:29:01Z</time></trkpt><trkpt lat="42.96275871614485" lon="11.612850574589329"><ele>690.6666666666666</ele><time>2026-04-21T16:29:04Z</time></trkpt><trkpt lat="42.96282677751296" lon="11.612849555396076"><ele>688.3333333333333</ele><time>2026-04-21T16:29:08Z</time></trkpt><trkpt lat="42.96295355653855" lon="11.61277692297985"><ele>686.0</ele><time>2026-04-21T16:29:40.999Z</time></trkpt><trkpt lat="42.96300223869039" lon="11.612844353054086"><ele>686.0</ele><time>2026-04-21T16:29:43.999Z</time></trkpt><trkpt lat="42.96306253038502" lon="11.612935200227211"><ele>686.0</ele><time>2026-04-21T16:29:46.999Z</time></trkpt><trkpt lat="42.96312936200205" lon="11.613001932783304"><ele>686.0</ele><time>2026-04-21T16:29:49.999Z</time></trkpt><trkpt lat="42.963185083560326" lon="11.613059114072879"><ele>686.0</ele><time>2026-04-21T16:29:51.999Z</time></trkpt><trkpt lat="42.96323458055707" lon="11.613145472194809"><ele>686.0</ele><time>2026-04-21T16:29:54.999Z</time></trkpt><trkpt lat="42.96328538196387" lon="11.613237884347187"><ele>686.0</ele><time>2026-04-21T16:29:58.999Z</time></trkpt><trkpt lat="42.96332897251511" lon="11.613151307715384"><ele>686.0</ele><time>2026-04-21T16:30:28.999Z</time></trkpt><trkpt lat="42.96327062536377" lon="11.61310487122796"><ele>686.0</ele><time>2026-04-21T16:30:32Z</time></trkpt><trkpt lat="42.963285436994155" lon="11.613281456330567"><ele>686.0</ele><time>2026-04-21T16:30:41Z</time></trkpt></trkseg><trkseg><trkpt lat="42.96333198164475" lon="11.61318764524493"><ele>686.0</ele><time>2026-04-22T07:12:53Z</time></trkpt><trkpt lat="42.963290630987395" lon="11.613106817433463"><ele>686.0</ele><time>2026-04-22T07:12:56Z</time></trkpt><trkpt lat="42.963227574694955" lon="11.61305733339494"><ele>686.0</ele><time>2026-04-22T07:12:58Z</time></trkpt><trkpt lat="42.96315102080724" lon="11.613018910471212"><ele>686.0</ele><time>2026-04-22T07:13:00Z</time></trkpt><trkpt lat="42.96306560216207" lon="11.61299658024854"><ele>686.0</ele><time>2026-04-22T07:13:01.999Z</time></trkpt><trkpt lat="42.96298289971843" lon="11.612979873860112"><ele>686.0</ele><time>2026-04-22T07:13:03.999Z</time></trkpt><trkpt lat="42.96289364071734" lon="11.612955776006727"><ele>686.0</ele><time>2026-04-22T07:13:05.999Z</time></trkpt><trkpt lat="42.96281111866158" lon="11.612937230504581"><ele>686.0</ele><time>2026-04-22T07:13:07.999Z</time></trkpt><trkpt lat="42.962749402435776" lon="11.612889987841074"><ele>686.0</ele><time>2026-04-22T07:13:09.999Z</time></trkpt><trkpt lat="42.96268335626253" lon="11.612832460284217"><ele>686.0</ele><time>2026-04-22T07:13:11.999Z</time></trkpt><trkpt lat="42.96262774194811" lon="11.612773936328642"><ele>686.0</ele><time>2026-04-22T07:13:13.999Z</time></trkpt><trkpt lat="42.962567852771706" lon="11.612711765997718"><ele>686.0</ele><time>2026-04-22T07:13:15.999Z</time></trkpt><trkpt lat="42.96250709374166" lon="11.612649150086002"><ele>688.3333333333333</ele><time>2026-04-22T07:13:17.999Z</time></trkpt><trkpt lat="42.96245268569579" lon="11.61257180994504"><ele>690.6666666666666</ele><time>2026-04-22T07:13:19.999Z</time></trkpt><trkpt lat="42.96239008989355" lon="11.612500847697474"><ele>693.0</ele><time>2026-04-22T07:13:21.999Z</time></trkpt><trkpt lat="42.96232735002743" lon="11.612469801738593"><ele>695.3333333333334</ele><time>2026-04-22T07:13:23.999Z</time></trkpt><trkpt lat="42.96225464179292" lon="11.61246879560988"><ele>697.6666666666667</ele><time>2026-04-22T07:13:25.999Z</time></trkpt><trkpt lat="42.96216862116036" lon="11.612489091334734"><ele>700.0</ele><time>2026-04-22T07:13:27.999Z</time></trkpt><trkpt lat="42.962091203103334" lon="11.61251957753485"><ele>700.0</ele><time>2026-04-22T07:13:29.999Z</time></trkpt><trkpt lat="42.962026679336454" lon="11.61247764468738"><ele>700.0</ele><time>2026-04-22T07:13:32.999Z</time></trkpt><trkpt lat="42.96197511076098" lon="11.612411064774255"><ele>700.0</ele><time>2026-04-22T07:13:34.999Z</time></trkpt><trkpt lat="42.96192302768085" lon="11.612504703105477"><ele>700.0</ele><time>2026-04-22T07:13:37.999Z</time></trkpt><trkpt lat="42.961917200682706" lon="11.612598390442788"><ele>700.0</ele><time>2026-04-22T07:13:38.999Z</time></trkpt><trkpt lat="42.961910946072884" lon="11.612703935151758"><ele>700.0</ele><time>2026-04-22T07:13:40.999Z</time></trkpt><trkpt lat="42.96189673375702" lon="11.612787807633843"><ele>700.0</ele><time>2026-04-22T07:13:42.999Z</time></trkpt><trkpt lat="42.961819720306835" lon="11.612790425114978"><ele>700.0</ele><time>2026-04-22T07:13:51Z</time></trkpt><trkpt lat="42.96179560685333" lon="11.612710293497035"><ele>700.0</ele><time>2026-04-22T07:13:52Z</time></trkpt><trkpt lat="42.96176922210786" lon="11.612625029280247"><ele>700.0</ele><time>2026-04-22T07:13:53Z</time></trkpt><trkpt lat="42.96172298634927" lon="11.612557461151372"><ele>700.0</ele><time>2026-04-22T07:13:54Z</time></trkpt><trkpt lat="42.96163855618945" lon="11.61245444889844"><ele>700.0</ele><time>2026-04-22T07:13:56Z</time></trkpt><trkpt lat="42.961534150648596" lon="11.612372880074403"><ele>700.0</ele><time>2026-04-22T07:13:58Z</time></trkpt><trkpt lat="42.96141349144338" lon="11.612302845798359"><ele>701.7142857142857</ele><time>2026-04-22T07:14:00Z</time></trkpt><trkpt lat="42.9613542739433" lon="11.612266611143147"><ele>703.4285714285714</ele><time>2026-04-22T07:14:01Z</time></trkpt><trkpt lat="42.96129357043268" lon="11.612228868003783"><ele>705.1428571428571</ele><time>2026-04-22T07:14:02Z</time></trkpt><trkpt lat="42.96123123019546" lon="11.612194805249995"><ele>706.8571428571429</ele><time>2026-04-22T07:14:03Z</time></trkpt><trkpt lat="42.96116386744629" lon="11.612162159119423"><ele>708.5714285714286</ele><time>2026-04-22T07:14:04Z</time></trkpt><trkpt lat="42.96110033892164" lon="11.612108538574573"><ele>710.2857142857142</ele><time>2026-04-22T07:14:05Z</time></trkpt><trkpt lat="42.96103340634387" lon="11.6120510262214"><ele>712.0</ele><time>2026-04-22T07:14:06Z</time></trkpt><trkpt lat="42.96097694499271" lon="11.611986147187045"><ele>712.5</ele><time>2026-04-22T07:14:07Z</time></trkpt><trkpt lat="42.960920701441914" lon="11.61190186967617"><ele>713.0</ele><time>2026-04-22T07:14:08Z</time></trkpt><trkpt lat="42.96086828055986" lon="11.611813324291923"><ele>713.5</ele><time>2026-04-22T07:14:09Z</time></trkpt><trkpt lat="42.960813373513545" lon="11.611725841110664"><ele>714.0</ele><time>2026-04-22T07:14:10Z</time></trkpt><trkpt lat="42.96075313727834" lon="11.611657954069802"><ele>714.5</ele><time>2026-04-22T07:14:11Z</time></trkpt><trkpt lat="42.960682375739665" lon="11.61157419796652"><ele>715.0</ele><time>2026-04-22T07:14:12Z</time></trkpt><trkpt lat="42.9606082038099" lon="11.611496285967656"><ele>714.6</ele><time>2026-04-22T07:14:13Z</time></trkpt><trkpt lat="42.960532462564046" lon="11.611423411877198"><ele>714.2</ele><time>2026-04-22T07:14:14Z</time></trkpt><trkpt lat="42.96044943742759" lon="11.611345979623497"><ele>713.8</ele><time>2026-04-22T07:14:15Z</time></trkpt><trkpt lat="42.960365940668204" lon="11.611275240850134"><ele>713.4</ele><time>2026-04-22T07:14:16Z</time></trkpt><trkpt lat="42.96028821386718" lon="11.611203311018537"><ele>713.0</ele><time>2026-04-22T07:14:17Z</time></trkpt><trkpt lat="42.960210822261516" lon="11.611132746162347"><ele>713.0</ele><time>2026-04-22T07:14:18Z</time></trkpt><trkpt lat="42.96013210956897" lon="11.611055166609601"><ele>713.0</ele><time>2026-04-22T07:14:19Z</time></trkpt><trkpt lat="42.96006090190912" lon="11.610988378682634"><ele>713.0</ele><time>2026-04-22T07:14:20Z</time></trkpt><trkpt lat="42.95998437214076" lon="11.61091037051673"><ele>713.0</ele><time>2026-04-22T07:14:21Z</time></trkpt><trkpt lat="42.95991861331344" lon="11.61082240569014"><ele>713.0</ele><time>2026-04-22T07:14:22Z</time></trkpt><trkpt lat="42.959855551031985" lon="11.61073334544896"><ele>714.6666666666666</ele><time>2026-04-22T07:14:23Z</time></trkpt><trkpt lat="42.95979954616735" lon="11.610627190505651"><ele>716.3333333333333</ele><time>2026-04-22T07:14:24Z</time></trkpt><trkpt lat="42.959759861166475" lon="11.61053453832548"><ele>718.0</ele><time>2026-04-22T07:14:25Z</time></trkpt><trkpt lat="42.95971768185782" lon="11.61042235286094"><ele>719.6666666666666</ele><time>2026-04-22T07:14:26Z</time></trkpt><trkpt lat="42.959679881618" lon="11.610314881051146"><ele>721.3333333333334</ele><time>2026-04-22T07:14:27Z</time></trkpt><trkpt lat="42.959642093498736" lon="11.610212570652942"><ele>723.0</ele><time>2026-04-22T07:14:28Z</time></trkpt><trkpt lat="42.959610457174584" lon="11.610111044502325"><ele>723.8</ele><time>2026-04-22T07:14:29Z</time></trkpt><trkpt lat="42.95957917694111" lon="11.610007876677635"><ele>724.5999999999999</ele><time>2026-04-22T07:14:30Z</time></trkpt><trkpt lat="42.95956029938436" lon="11.609907752014653"><ele>725.4000000000001</ele><time>2026-04-22T07:14:31Z</time></trkpt><trkpt lat="42.95953719229505" lon="11.609797438708124"><ele>726.2</ele><time>2026-04-22T07:14:32Z</time></trkpt><trkpt lat="42.95951934319701" lon="11.609684720299313"><ele>727.0</ele><time>2026-04-22T07:14:33Z</time></trkpt><trkpt lat="42.95950183372835" lon="11.60947454822012"><ele>727.5</ele><time>2026-04-22T07:14:35Z</time></trkpt><trkpt lat="42.95951992894797" lon="11.609371562634056"><ele>728.0</ele><time>2026-04-22T07:14:36Z</time></trkpt><trkpt lat="42.95953135178283" lon="11.609270835855469"><ele>728.5</ele><time>2026-04-22T07:14:37Z</time></trkpt><trkpt lat="42.95953082907832" lon="11.609176728161598"><ele>729.0</ele><time>2026-04-22T07:14:38Z</time></trkpt><trkpt lat="42.95955322470889" lon="11.609090753574543"><ele>729.5</ele><time>2026-04-22T07:14:39Z</time></trkpt><trkpt lat="42.959565015349845" lon="11.608967466481547"><ele>730.0</ele><time>2026-04-22T07:14:41Z</time></trkpt><trkpt lat="42.95957077143282" lon="11.608834007962615"><ele>730.0</ele><time>2026-04-22T07:15:18.999Z</time></trkpt><trkpt lat="42.95956331833159" lon="11.608736735983108"><ele>730.0</ele><time>2026-04-22T07:15:19.999Z</time></trkpt><trkpt lat="42.95953462286719" lon="11.608594308465966"><ele>730.0</ele><time>2026-04-22T07:15:21.999Z</time></trkpt><trkpt lat="42.95951063701671" lon="11.608441960130506"><ele>730.0</ele><time>2026-04-22T07:15:23.999Z</time></trkpt><trkpt lat="42.95945895359207" lon="11.608267963804302"><ele>730.0</ele><time>2026-04-22T07:15:25.999Z</time></trkpt><trkpt lat="42.959421025781154" lon="11.608165702435542"><ele>728.2</ele><time>2026-04-22T07:15:26.999Z</time></trkpt><trkpt lat="42.959380098428944" lon="11.60806832054331"><ele>726.4</ele><time>2026-04-22T07:15:27.999Z</time></trkpt><trkpt lat="42.95934326649419" lon="11.60796446212452"><ele>724.5999999999999</ele><time>2026-04-22T07:15:28.999Z</time></trkpt><trkpt lat="42.95930643388272" lon="11.607843572169733"><ele>722.8</ele><time>2026-04-22T07:15:29.999Z</time></trkpt><trkpt lat="42.95930282365539" lon="11.607714859565776"><ele>721.0</ele><time>2026-04-22T07:15:30.999Z</time></trkpt><trkpt lat="42.95928415531714" lon="11.607573198422628"><ele>718.75</ele><time>2026-04-22T07:15:31.999Z</time></trkpt><trkpt lat="42.959256848806746" lon="11.607425727219406"><ele>716.5</ele><time>2026-04-22T07:15:32.999Z</time></trkpt><trkpt lat="42.959244616481804" lon="11.607280588852191"><ele>714.25</ele><time>2026-04-22T07:15:33.999Z</time></trkpt><trkpt lat="42.95922647381931" lon="11.607121372435532"><ele>712.0</ele><time>2026-04-22T07:15:34.999Z</time></trkpt><trkpt lat="42.9592145077241" lon="11.60696571897028"><ele>711.75</ele><time>2026-04-22T07:15:35.999Z</time></trkpt><trkpt lat="42.95920178609196" lon="11.606794572221002"><ele>711.5</ele><time>2026-04-22T07:15:36.999Z</time></trkpt><trkpt lat="42.95919675617044" lon="11.606624415294247"><ele>711.25</ele><time>2026-04-22T07:15:37.999Z</time></trkpt><trkpt lat="42.95918337150463" lon="11.606454302909794"><ele>711.0</ele><time>2026-04-22T07:15:38.999Z</time></trkpt><trkpt lat="42.959181388912775" lon="11.606287282242654"><ele>711.1999999999999</ele><time>2026-04-22T07:15:39.999Z</time></trkpt><trkpt lat="42.95917858693471" lon="11.606121445989857"><ele>711.4</ele><time>2026-04-22T07:15:40.999Z</time></trkpt><trkpt lat="42.95920076742522" lon="11.605968653423549"><ele>711.6</ele><time>2026-04-22T07:15:41.999Z</time></trkpt><trkpt lat="42.95923999720103" lon="11.605848865696116"><ele>711.8</ele><time>2026-04-22T07:15:42.999Z</time></trkpt><trkpt lat="42.959264921961555" lon="11.60571182748016"><ele>712.0</ele><time>2026-04-22T07:15:43.999Z</time></trkpt><trkpt lat="42.95927576260696" lon="11.605550622464698"><ele>712.0</ele><time>2026-04-22T07:15:44.999Z</time></trkpt><trkpt lat="42.95926647069071" lon="11.605375890950112"><ele>712.0</ele><time>2026-04-22T07:15:45.999Z</time></trkpt><trkpt lat="42.95924995526149" lon="11.605209400923876"><ele>712.0</ele><time>2026-04-22T07:15:46.999Z</time></trkpt><trkpt lat="42.95922802621889" lon="11.605034957749647"><ele>712.0</ele><time>2026-04-22T07:15:47.999Z</time></trkpt><trkpt lat="42.95919261759905" lon="11.604856218682439"><ele>715.0</ele><time>2026-04-22T07:15:48.999Z</time></trkpt><trkpt lat="42.959124582301406" lon="11.604703551627338"><ele>718.0</ele><time>2026-04-22T07:15:50Z</time></trkpt><trkpt lat="42.95906895972679" lon="11.60453258573219"><ele>721.0</ele><time>2026-04-22T07:15:51Z</time></trkpt><trkpt lat="42.95897001283475" lon="11.604387421600862"><ele>724.0</ele><time>2026-04-22T07:15:52Z</time></trkpt><trkpt lat="42.95888279098733" lon="11.60426206023649"><ele>724.0</ele><time>2026-04-22T07:15:53Z</time></trkpt><trkpt lat="42.958770180426214" lon="11.604126342689261"><ele>724.0</ele><time>2026-04-22T07:15:54Z</time></trkpt><trkpt lat="42.958661978255826" lon="11.604015534281842"><ele>724.0</ele><time>2026-04-22T07:15:55Z</time></trkpt><trkpt lat="42.95858191075633" lon="11.603895388058849"><ele>724.0</ele><time>2026-04-22T07:15:56Z</time></trkpt><trkpt lat="42.95852762531759" lon="11.603807536484453"><ele>724.0</ele><time>2026-04-22T07:15:57Z</time></trkpt><trkpt lat="42.95848393183954" lon="11.603715357531216"><ele>724.0</ele><time>2026-04-22T07:15:58Z</time></trkpt><trkpt lat="42.95850903317336" lon="11.603608681265946"><ele>724.0</ele><time>2026-04-22T07:15:59Z</time></trkpt><trkpt lat="42.958514165077624" lon="11.603482014796118"><ele>724.0</ele><time>2026-04-22T07:16:00Z</time></trkpt><trkpt lat="42.95852587196508" lon="11.603352809229277"><ele>724.0</ele><time>2026-04-22T07:16:01Z</time></trkpt><trkpt lat="42.958532324526416" lon="11.603209766326021"><ele>722.25</ele><time>2026-04-22T07:16:02Z</time></trkpt><trkpt lat="42.95855192553515" lon="11.603062128793884"><ele>720.5</ele><time>2026-04-22T07:16:03Z</time></trkpt><trkpt lat="42.958574269494406" lon="11.60290169398511"><ele>718.75</ele><time>2026-04-22T07:16:04Z</time></trkpt><trkpt lat="42.95859078647764" lon="11.602743283795037"><ele>717.0</ele><time>2026-04-22T07:16:05Z</time></trkpt><trkpt lat="42.95860358013386" lon="11.602578866560071"><ele>716.5</ele><time>2026-04-22T07:16:06Z</time></trkpt><trkpt lat="42.95859337155239" lon="11.602403941769007"><ele>716.0</ele><time>2026-04-22T07:16:07Z</time></trkpt><trkpt lat="42.95858312916531" lon="11.602234132200767"><ele>715.5</ele><time>2026-04-22T07:16:08Z</time></trkpt><trkpt lat="42.95859843536366" lon="11.602056480218346"><ele>715.0</ele><time>2026-04-22T07:16:09Z</time></trkpt><trkpt lat="42.95859753062504" lon="11.601866780866832"><ele>714.25</ele><time>2026-04-22T07:16:10Z</time></trkpt><trkpt lat="42.95861280421541" lon="11.60170378529896"><ele>713.5</ele><time>2026-04-22T07:16:11Z</time></trkpt><trkpt lat="42.958653966829075" lon="11.601554285008419"><ele>712.75</ele><time>2026-04-22T07:16:12Z</time></trkpt><trkpt lat="42.95865911342898" lon="11.601403566104777"><ele>712.0</ele><time>2026-04-22T07:16:13Z</time></trkpt><trkpt lat="42.95866983355845" lon="11.601252046202431"><ele>711.2</ele><time>2026-04-22T07:16:14Z</time></trkpt><trkpt lat="42.95867094115917" lon="11.60109599358866"><ele>710.4000000000001</ele><time>2026-04-22T07:16:15Z</time></trkpt><trkpt lat="42.95869781103649" lon="11.600944689815602"><ele>709.5999999999999</ele><time>2026-04-22T07:16:16Z</time></trkpt><trkpt lat="42.95871534665635" lon="11.600804249732791"><ele>708.8</ele><time>2026-04-22T07:16:17Z</time></trkpt><trkpt lat="42.958737100815775" lon="11.600657430337908"><ele>708.0</ele><time>2026-04-22T07:16:18Z</time></trkpt><trkpt lat="42.958757181549196" lon="11.60052390204299"><ele>708.0</ele><time>2026-04-22T07:16:19Z</time></trkpt><trkpt lat="42.958758862324046" lon="11.600387249020415"><ele>708.0</ele><time>2026-04-22T07:16:20Z</time></trkpt><trkpt lat="42.958781348345155" lon="11.600256559965565"><ele>708.0</ele><time>2026-04-22T07:16:21Z</time></trkpt><trkpt lat="42.958795791987974" lon="11.600119029006349"><ele>708.0</ele><time>2026-04-22T07:16:22Z</time></trkpt><trkpt lat="42.95880344089254" lon="11.599982573259338"><ele>708.0</ele><time>2026-04-22T07:16:23Z</time></trkpt><trkpt lat="42.958808310223155" lon="11.59983239987183"><ele>706.5999999999999</ele><time>2026-04-22T07:16:24Z</time></trkpt><trkpt lat="42.95880784631227" lon="11.599692847722345"><ele>705.1999999999999</ele><time>2026-04-22T07:16:25Z</time></trkpt><trkpt lat="42.958818844033566" lon="11.599555567318475"><ele>703.8</ele><time>2026-04-22T07:16:26Z</time></trkpt><trkpt lat="42.95878647858987" lon="11.599421794865739"><ele>702.4</ele><time>2026-04-22T07:16:27Z</time></trkpt><trkpt lat="42.95874805042192" lon="11.599289447489092"><ele>701.0</ele><time>2026-04-22T07:16:28Z</time></trkpt><trkpt lat="42.95870033909115" lon="11.599160314059304"><ele>700.1666666666666</ele><time>2026-04-22T07:16:29Z</time></trkpt><trkpt lat="42.95866607076538" lon="11.59903854291558"><ele>699.3333333333333</ele><time>2026-04-22T07:16:30Z</time></trkpt><trkpt lat="42.958586216107314" lon="11.598970764124845"><ele>698.5</ele><time>2026-04-22T07:16:31Z</time></trkpt><trkpt lat="42.95852257940153" lon="11.598905047473982"><ele>697.6666666666666</ele><time>2026-04-22T07:16:32Z</time></trkpt><trkpt lat="42.95846363001503" lon="11.59883252370337"><ele>696.8333333333334</ele><time>2026-04-22T07:16:33Z</time></trkpt><trkpt lat="42.958445018774654" lon="11.598722253187995"><ele>696.0</ele><time>2026-04-22T07:16:34Z</time></trkpt><trkpt lat="42.95845253101368" lon="11.59863054186872"><ele>694.0</ele><time>2026-04-22T07:16:35Z</time></trkpt><trkpt lat="42.95846946910754" lon="11.598528487184206"><ele>692.0</ele><time>2026-04-22T07:16:36Z</time></trkpt><trkpt lat="42.95850128069367" lon="11.59841788031881"><ele>690.0</ele><time>2026-04-22T07:16:37Z</time></trkpt><trkpt lat="42.958518936508405" lon="11.598276325615418"><ele>688.0</ele><time>2026-04-22T07:16:38Z</time></trkpt><trkpt lat="42.95851980873961" lon="11.598147158803727"><ele>686.0</ele><time>2026-04-22T07:16:39Z</time></trkpt><trkpt lat="42.95848611413758" lon="11.598038563850404"><ele>684.0</ele><time>2026-04-22T07:16:40Z</time></trkpt><trkpt lat="42.95844942556003" lon="11.597945640349755"><ele>684.0</ele><time>2026-04-22T07:16:41Z</time></trkpt><trkpt lat="42.958369226628456" lon="11.597870247830029"><ele>684.0</ele><time>2026-04-22T07:16:42Z</time></trkpt><trkpt lat="42.9582854291899" lon="11.597817886805505"><ele>684.0</ele><time>2026-04-22T07:16:43Z</time></trkpt><trkpt lat="42.958207159377125" lon="11.597768431313131"><ele>684.0</ele><time>2026-04-22T07:16:44Z</time></trkpt><trkpt lat="42.95814715235916" lon="11.59772364010819"><ele>684.0</ele><time>2026-04-22T07:16:45Z</time></trkpt><trkpt lat="42.958043943382734" lon="11.597627364824039"><ele>685.8333333333334</ele><time>2026-04-22T07:16:47Z</time></trkpt><trkpt lat="42.95796229777707" lon="11.597504025536674"><ele>687.6666666666666</ele><time>2026-04-22T07:16:49Z</time></trkpt><trkpt lat="42.95791127174362" lon="11.597448471159167"><ele>689.5</ele><time>2026-04-22T07:16:50Z</time></trkpt><trkpt lat="42.957868894735135" lon="11.597369539199446"><ele>691.3333333333333</ele><time>2026-04-22T07:16:51Z</time></trkpt><trkpt lat="42.957826809874256" lon="11.597292709144988"><ele>693.1666666666666</ele><time>2026-04-22T07:16:52Z</time></trkpt><trkpt lat="42.95778170667251" lon="11.597211955993352"><ele>695.0</ele><time>2026-04-22T07:16:53Z</time></trkpt><trkpt lat="42.95774691239115" lon="11.597136719565023"><ele>695.0</ele><time>2026-04-22T07:16:54Z</time></trkpt><trkpt lat="42.957747973793346" lon="11.597004511408509"><ele>695.0</ele><time>2026-04-22T07:16:56Z</time></trkpt><trkpt lat="42.95785666067584" lon="11.596889376482343"><ele>695.0</ele><time>2026-04-22T07:16:58Z</time></trkpt><trkpt lat="42.95795163257738" lon="11.59684090815554"><ele>695.0</ele><time>2026-04-22T07:16:59Z</time></trkpt><trkpt lat="42.95805528736728" lon="11.596793017046062"><ele>695.0</ele><time>2026-04-22T07:17:00Z</time></trkpt><trkpt lat="42.9581262194055" lon="11.596764369495999"><ele>692.6</ele><time>2026-04-22T07:17:01Z</time></trkpt><trkpt lat="42.95819834358474" lon="11.596751264813335"><ele>690.2</ele><time>2026-04-22T07:17:02Z</time></trkpt><trkpt lat="42.95828356496481" lon="11.596670671233564"><ele>687.8</ele><time>2026-04-22T07:17:04Z</time></trkpt><trkpt lat="42.95825769868944" lon="11.596487500024008"><ele>685.4</ele><time>2026-04-22T07:17:06Z</time></trkpt><trkpt lat="42.958178088642214" lon="11.596407369352777"><ele>683.0</ele><time>2026-04-22T07:17:07Z</time></trkpt><trkpt lat="42.95809749441123" lon="11.59629111258267"><ele>683.0</ele><time>2026-04-22T07:17:08Z</time></trkpt><trkpt lat="42.958032074000045" lon="11.596188924999128"><ele>683.0</ele><time>2026-04-22T07:17:09Z</time></trkpt><trkpt lat="42.95798413365904" lon="11.596099122230761"><ele>683.0</ele><time>2026-04-22T07:17:10Z</time></trkpt><trkpt lat="42.95794224385438" lon="11.595974786810785"><ele>683.0</ele><time>2026-04-22T07:17:11Z</time></trkpt><trkpt lat="42.9579007361953" lon="11.595831870868006"><ele>683.0</ele><time>2026-04-22T07:17:12Z</time></trkpt><trkpt lat="42.95784472330341" lon="11.59569147358741"><ele>680.25</ele><time>2026-04-22T07:17:13Z</time></trkpt><trkpt lat="42.95782414355782" lon="11.59553576050621"><ele>677.5</ele><time>2026-04-22T07:17:14Z</time></trkpt><trkpt lat="42.9577894711756" lon="11.595380622110067"><ele>674.75</ele><time>2026-04-22T07:17:15Z</time></trkpt><trkpt lat="42.95774421611394" lon="11.595222239794989"><ele>672.0</ele><time>2026-04-22T07:17:16Z</time></trkpt><trkpt lat="42.95770118866383" lon="11.595059926873772"><ele>670.6</ele><time>2026-04-22T07:17:17Z</time></trkpt><trkpt lat="42.95767186592298" lon="11.594902061304776"><ele>669.2</ele><time>2026-04-22T07:17:18Z</time></trkpt><trkpt lat="42.957645370782146" lon="11.594756574325048"><ele>667.8</ele><time>2026-04-22T07:17:19Z</time></trkpt><trkpt lat="42.95761811723197" lon="11.59461895653755"><ele>666.4</ele><time>2026-04-22T07:17:20Z</time></trkpt><trkpt lat="42.95758424188256" lon="11.594479915920651"><ele>665.0</ele><time>2026-04-22T07:17:20.999Z</time></trkpt><trkpt lat="42.95755279539153" lon="11.59434195905606"><ele>664.6</ele><time>2026-04-22T07:17:21.999Z</time></trkpt><trkpt lat="42.957536335289824" lon="11.594209345269904"><ele>664.2</ele><time>2026-04-22T07:17:22.999Z</time></trkpt><trkpt lat="42.95755156911705" lon="11.594102574419788"><ele>663.8</ele><time>2026-04-22T07:17:23.999Z</time></trkpt><trkpt lat="42.95756931019271" lon="11.593991086072222"><ele>663.4</ele><time>2026-04-22T07:17:24.999Z</time></trkpt><trkpt lat="42.95760606594344" lon="11.593867942431512"><ele>663.0</ele><time>2026-04-22T07:17:25.999Z</time></trkpt><trkpt lat="42.957681541485194" lon="11.593757218709278"><ele>663.75</ele><time>2026-04-22T07:17:26.999Z</time></trkpt><trkpt lat="42.95776982988968" lon="11.593644661445296"><ele>664.5</ele><time>2026-04-22T07:17:27.999Z</time></trkpt><trkpt lat="42.95786138052943" lon="11.59351317573455"><ele>665.25</ele><time>2026-04-22T07:17:28.999Z</time></trkpt><trkpt lat="42.957958352372394" lon="11.593387205705339"><ele>666.0</ele><time>2026-04-22T07:17:29.999Z</time></trkpt><trkpt lat="42.958050729308276" lon="11.593280633681513"><ele>666.0</ele><time>2026-04-22T07:17:30.999Z</time></trkpt><trkpt lat="42.958136272754814" lon="11.593193692623016"><ele>666.0</ele><time>2026-04-22T07:17:31.999Z</time></trkpt><trkpt lat="42.95822256834648" lon="11.593107355683804"><ele>666.0</ele><time>2026-04-22T07:17:32.999Z</time></trkpt><trkpt lat="42.95829659107531" lon="11.593018734972896"><ele>666.0</ele><time>2026-04-22T07:17:33.999Z</time></trkpt><trkpt lat="42.95834816637468" lon="11.592919143200298"><ele>666.0</ele><time>2026-04-22T07:17:34.999Z</time></trkpt><trkpt lat="42.95837983113699" lon="11.592802163433237"><ele>666.1999999999999</ele><time>2026-04-22T07:17:35.999Z</time></trkpt><trkpt lat="42.95838982287665" lon="11.592677490362629"><ele>666.4</ele><time>2026-04-22T07:17:36.999Z</time></trkpt><trkpt lat="42.95838985023129" lon="11.592551373434867"><ele>666.6</ele><time>2026-04-22T07:17:37.999Z</time></trkpt><trkpt lat="42.95840577693206" lon="11.592432785684334"><ele>666.8</ele><time>2026-04-22T07:17:38.999Z</time></trkpt><trkpt lat="42.958400741934135" lon="11.59230016952533"><ele>667.0</ele><time>2026-04-22T07:17:39.999Z</time></trkpt><trkpt lat="42.958397350481015" lon="11.592167113238872"><ele>667.0</ele><time>2026-04-22T07:17:40.999Z</time></trkpt><trkpt lat="42.95840976360854" lon="11.5920291682154"><ele>667.0</ele><time>2026-04-22T07:17:41.999Z</time></trkpt><trkpt lat="42.95841867783842" lon="11.591894168810203"><ele>667.0</ele><time>2026-04-22T07:17:42.999Z</time></trkpt><trkpt lat="42.95843912931073" lon="11.591774483991225"><ele>667.0</ele><time>2026-04-22T07:17:43.999Z</time></trkpt><trkpt lat="42.958467640050806" lon="11.591657050260991"><ele>667.0</ele><time>2026-04-22T07:17:44.999Z</time></trkpt><trkpt lat="42.95849649067963" lon="11.591566652785545"><ele>666.5</ele><time>2026-04-22T07:17:45.999Z</time></trkpt><trkpt lat="42.95850354236096" lon="11.591422414293017"><ele>666.0</ele><time>2026-04-22T07:17:47.999Z</time></trkpt><trkpt lat="42.95848725965522" lon="11.591336156402457"><ele>665.5</ele><time>2026-04-22T07:17:48.999Z</time></trkpt><trkpt lat="42.95842482795786" lon="11.591277434950586"><ele>665.0</ele><time>2026-04-22T07:17:49.999Z</time></trkpt><trkpt lat="42.958330032255546" lon="11.591248718181252"><ele>664.5</ele><time>2026-04-22T07:17:50.999Z</time></trkpt><trkpt lat="42.958237523068405" lon="11.591237919529013"><ele>664.0</ele><time>2026-04-22T07:17:51.999Z</time></trkpt><trkpt lat="42.95815452162285" lon="11.591231253507866"><ele>664.0</ele><time>2026-04-22T07:17:52.999Z</time></trkpt><trkpt lat="42.95807374723404" lon="11.591224766351857"><ele>664.0</ele><time>2026-04-22T07:17:53.999Z</time></trkpt><trkpt lat="42.95800304418098" lon="11.591215119769348"><ele>664.0</ele><time>2026-04-22T07:17:54.999Z</time></trkpt><trkpt lat="42.95793180527055" lon="11.591199498154927"><ele>664.0</ele><time>2026-04-22T07:17:56Z</time></trkpt><trkpt lat="42.95786122350211" lon="11.591169619731563"><ele>664.0</ele><time>2026-04-22T07:17:57Z</time></trkpt><trkpt lat="42.95778097910159" lon="11.591027793581523"><ele>664.0</ele><time>2026-04-22T07:17:59Z</time></trkpt><trkpt lat="42.95773047301086" lon="11.590931637774016"><ele>661.8000000000001</ele><time>2026-04-22T07:18:00Z</time></trkpt><trkpt lat="42.95765268077357" lon="11.590830143912738"><ele>659.6</ele><time>2026-04-22T07:18:01Z</time></trkpt><trkpt lat="42.95760483627042" lon="11.590754114760363"><ele>657.4</ele><time>2026-04-22T07:18:02Z</time></trkpt><trkpt lat="42.95750981798296" lon="11.590710075998539"><ele>655.2</ele><time>2026-04-22T07:18:03Z</time></trkpt><trkpt lat="42.95742006636197" lon="11.590670158070825"><ele>653.0</ele><time>2026-04-22T07:18:04Z</time></trkpt><trkpt lat="42.95733240736999" lon="11.59062318929721"><ele>652.8</ele><time>2026-04-22T07:18:05Z</time></trkpt><trkpt lat="42.95725092118741" lon="11.590565434997819"><ele>652.5999999999999</ele><time>2026-04-22T07:18:06Z</time></trkpt><trkpt lat="42.9571629207798" lon="11.590497511597443"><ele>652.4000000000001</ele><time>2026-04-22T07:18:07Z</time></trkpt><trkpt lat="42.95707234628886" lon="11.590430183706106"><ele>652.2</ele><time>2026-04-22T07:18:08Z</time></trkpt><trkpt lat="42.95698134756542" lon="11.590371758226604"><ele>652.0</ele><time>2026-04-22T07:18:09Z</time></trkpt><trkpt lat="42.956905835970936" lon="11.5903237095831"><ele>650.8333333333334</ele><time>2026-04-22T07:18:10Z</time></trkpt><trkpt lat="42.95682701362335" lon="11.590264259195322"><ele>649.6666666666667</ele><time>2026-04-22T07:18:11Z</time></trkpt><trkpt lat="42.95676228661422" lon="11.590209509221967"><ele>648.5</ele><time>2026-04-22T07:18:12Z</time></trkpt><trkpt lat="42.95669112585341" lon="11.590141661999654"><ele>647.3333333333334</ele><time>2026-04-22T07:18:13Z</time></trkpt><trkpt lat="42.9566298789334" lon="11.590080204470723"><ele>646.1666666666666</ele><time>2026-04-22T07:18:14Z</time></trkpt><trkpt lat="42.95657678059058" lon="11.59001265875699"><ele>645.0</ele><time>2026-04-22T07:18:15Z</time></trkpt><trkpt lat="42.95650696621094" lon="11.589911104542278"><ele>645.0</ele><time>2026-04-22T07:18:17Z</time></trkpt><trkpt lat="42.956512670958226" lon="11.589796434011312"><ele>645.0</ele><time>2026-04-22T07:18:19Z</time></trkpt><trkpt lat="42.95661310708276" lon="11.589679880216366"><ele>645.0</ele><time>2026-04-22T07:18:21Z</time></trkpt><trkpt lat="42.95668895960496" lon="11.589614893498757"><ele>645.0</ele><time>2026-04-22T07:18:22Z</time></trkpt><trkpt lat="42.95675412963108" lon="11.58954195358081"><ele>645.0</ele><time>2026-04-22T07:18:23Z</time></trkpt><trkpt lat="42.95679738233922" lon="11.589451761677866"><ele>641.4</ele><time>2026-04-22T07:18:24Z</time></trkpt><trkpt lat="42.956823214133365" lon="11.589339788578553"><ele>637.8</ele><time>2026-04-22T07:18:25Z</time></trkpt><trkpt lat="42.956834541586026" lon="11.589197092146755"><ele>634.2</ele><time>2026-04-22T07:18:26Z</time></trkpt><trkpt lat="42.95682557253082" lon="11.589035575569051"><ele>630.6</ele><time>2026-04-22T07:18:27Z</time></trkpt><trkpt lat="42.95680500049012" lon="11.588863877854918"><ele>627.0</ele><time>2026-04-22T07:18:28Z</time></trkpt><trkpt lat="42.95679580595933" lon="11.588693505505132"><ele>627.4</ele><time>2026-04-22T07:18:29Z</time></trkpt><trkpt lat="42.95675325626049" lon="11.588554060524295"><ele>627.8000000000001</ele><time>2026-04-22T07:18:30Z</time></trkpt><trkpt lat="42.956718711107044" lon="11.588435934407656"><ele>628.2</ele><time>2026-04-22T07:18:31Z</time></trkpt><trkpt lat="42.95667278848642" lon="11.588325358220038"><ele>628.6</ele><time>2026-04-22T07:18:32Z</time></trkpt><trkpt lat="42.95662888480536" lon="11.588198589586343"><ele>629.0</ele><time>2026-04-22T07:18:33Z</time></trkpt><trkpt lat="42.95656993332702" lon="11.58807998409587"><ele>629.0</ele><time>2026-04-22T07:18:34Z</time></trkpt><trkpt lat="42.95651778558938" lon="11.587974137805743"><ele>629.0</ele><time>2026-04-22T07:18:35Z</time></trkpt><trkpt lat="42.95646391284802" lon="11.587888551796501"><ele>629.0</ele><time>2026-04-22T07:18:36Z</time></trkpt><trkpt lat="42.9563803442444" lon="11.58780315991731"><ele>629.0</ele><time>2026-04-22T07:18:37Z</time></trkpt><trkpt lat="42.9562939521244" lon="11.587737709605017"><ele>629.0</ele><time>2026-04-22T07:18:38Z</time></trkpt><trkpt lat="42.95619691343806" lon="11.587662605160748"><ele>627.8333333333333</ele><time>2026-04-22T07:18:39Z</time></trkpt><trkpt lat="42.956105229513355" lon="11.587594408587778"><ele>626.6666666666666</ele><time>2026-04-22T07:18:40Z</time></trkpt><trkpt lat="42.956033523937464" lon="11.587542738843487"><ele>625.5</ele><time>2026-04-22T07:18:41Z</time></trkpt><trkpt lat="42.95597717764845" lon="11.587494053224592"><ele>624.3333333333334</ele><time>2026-04-22T07:18:42Z</time></trkpt><trkpt lat="42.95591424728147" lon="11.58743937258705"><ele>623.1666666666667</ele><time>2026-04-22T07:18:45Z</time></trkpt><trkpt lat="42.95585538745136" lon="11.587388468026262"><ele>622.0</ele><time>2026-04-22T07:18:47Z</time></trkpt><trkpt lat="42.95579040988658" lon="11.58732078547111"><ele>622.0</ele><time>2026-04-22T07:18:48Z</time></trkpt><trkpt lat="42.95569948592407" lon="11.58724775363326"><ele>622.0</ele><time>2026-04-22T07:18:49Z</time></trkpt><trkpt lat="42.955601641678086" lon="11.587174509784933"><ele>622.0</ele><time>2026-04-22T07:18:50Z</time></trkpt><trkpt lat="42.955508989946686" lon="11.587101833295208"><ele>622.0</ele><time>2026-04-22T07:18:51Z</time></trkpt><trkpt lat="42.95544387776459" lon="11.58702645285244"><ele>622.0</ele><time>2026-04-22T07:18:52Z</time></trkpt><trkpt lat="42.955374774985984" lon="11.586947945127786"><ele>618.6</ele><time>2026-04-22T07:18:53Z</time></trkpt><trkpt lat="42.95529703366822" lon="11.586889951388788"><ele>615.2</ele><time>2026-04-22T07:18:54Z</time></trkpt><trkpt lat="42.95523364551864" lon="11.586811943325584"><ele>611.8</ele><time>2026-04-22T07:18:55Z</time></trkpt><trkpt lat="42.95514155698977" lon="11.586778704385482"><ele>608.4</ele><time>2026-04-22T07:18:56Z</time></trkpt><trkpt lat="42.95506140974091" lon="11.586720673914408"><ele>605.0</ele><time>2026-04-22T07:18:57Z</time></trkpt><trkpt lat="42.95497661645711" lon="11.58667722313867"><ele>605.0</ele><time>2026-04-22T07:18:58Z</time></trkpt><trkpt lat="42.95488838628056" lon="11.586632011186042"><ele>605.0</ele><time>2026-04-22T07:18:59Z</time></trkpt><trkpt lat="42.954805149044894" lon="11.586588740767409"><ele>605.0</ele><time>2026-04-22T07:19:00Z</time></trkpt><trkpt lat="42.95471056768411" lon="11.586550379009704"><ele>605.0</ele><time>2026-04-22T07:19:01Z</time></trkpt><trkpt lat="42.95461881536622" lon="11.586489426748585"><ele>605.0</ele><time>2026-04-22T07:19:02Z</time></trkpt><trkpt lat="42.95453133494682" lon="11.586407127719752"><ele>605.0</ele><time>2026-04-22T07:19:03Z</time></trkpt><trkpt lat="42.954462147236086" lon="11.586328864320524"><ele>605.0</ele><time>2026-04-22T07:19:04Z</time></trkpt><trkpt lat="42.95439476582136" lon="11.586269463427811"><ele>605.0</ele><time>2026-04-22T07:19:04.999Z</time></trkpt><trkpt lat="42.95433824987579" lon="11.586186145956843"><ele>605.0</ele><time>2026-04-22T07:19:05.999Z</time></trkpt><trkpt lat="42.954295436092984" lon="11.586111735319223"><ele>605.0</ele><time>2026-04-22T07:19:06.999Z</time></trkpt><trkpt lat="42.95425192823464" lon="11.586008957713158"><ele>605.0</ele><time>2026-04-22T07:19:07.999Z</time></trkpt><trkpt lat="42.95420909691359" lon="11.585893888464783"><ele>604.4</ele><time>2026-04-22T07:19:08.999Z</time></trkpt><trkpt lat="42.95415460455884" lon="11.585771182090037"><ele>603.8</ele><time>2026-04-22T07:19:09.999Z</time></trkpt><trkpt lat="42.95410813916237" lon="11.585634062514812"><ele>603.2</ele><time>2026-04-22T07:19:10.999Z</time></trkpt><trkpt lat="42.95406042142286" lon="11.585512892841079"><ele>602.6</ele><time>2026-04-22T07:19:11.999Z</time></trkpt><trkpt lat="42.95401508156211" lon="11.58540192609041"><ele>602.0</ele><time>2026-04-22T07:19:12.999Z</time></trkpt><trkpt lat="42.953970491967894" lon="11.585299652968507"><ele>600.6</ele><time>2026-04-22T07:19:13.999Z</time></trkpt><trkpt lat="42.953936053548475" lon="11.585199377468061"><ele>599.2</ele><time>2026-04-22T07:19:14.999Z</time></trkpt><trkpt lat="42.953912263747135" lon="11.585083789872979"><ele>597.8</ele><time>2026-04-22T07:19:15.999Z</time></trkpt><trkpt lat="42.95390270568823" lon="11.58495900912484"><ele>596.4</ele><time>2026-04-22T07:19:16.999Z</time></trkpt><trkpt lat="42.9539173828734" lon="11.584809668996007"><ele>595.0</ele><time>2026-04-22T07:19:17.999Z</time></trkpt><trkpt lat="42.95394736168874" lon="11.584656912181135"><ele>595.75</ele><time>2026-04-22T07:19:18.999Z</time></trkpt><trkpt lat="42.953987503575135" lon="11.584499133365325"><ele>596.5</ele><time>2026-04-22T07:19:19.999Z</time></trkpt><trkpt lat="42.954027413266" lon="11.584338567536816"><ele>597.25</ele><time>2026-04-22T07:19:20.999Z</time></trkpt><trkpt lat="42.95406428521737" lon="11.58417999798122"><ele>598.0</ele><time>2026-04-22T07:19:21.999Z</time></trkpt><trkpt lat="42.954098705440174" lon="11.584038987905243"><ele>598.0</ele><time>2026-04-22T07:19:22.999Z</time></trkpt><trkpt lat="42.9541269994261" lon="11.583908654158304"><ele>598.0</ele><time>2026-04-22T07:19:23.999Z</time></trkpt><trkpt lat="42.95415552183029" lon="11.583785630976106"><ele>598.0</ele><time>2026-04-22T07:19:24.999Z</time></trkpt><trkpt lat="42.95418776400534" lon="11.583671610380778"><ele>598.0</ele><time>2026-04-22T07:19:25.999Z</time></trkpt><trkpt lat="42.954218535600894" lon="11.583575460353154"><ele>598.0</ele><time>2026-04-22T07:19:26.999Z</time></trkpt><trkpt lat="42.954253413706105" lon="11.583471309977067"><ele>598.0</ele><time>2026-04-22T07:19:27.999Z</time></trkpt><trkpt lat="42.95429859083662" lon="11.583370219057876"><ele>596.5</ele><time>2026-04-22T07:19:28.999Z</time></trkpt><trkpt lat="42.95436540348577" lon="11.583268000741498"><ele>595.0</ele><time>2026-04-22T07:19:29.999Z</time></trkpt><trkpt lat="42.954442020018874" lon="11.583160581073281"><ele>593.5</ele><time>2026-04-22T07:19:30.999Z</time></trkpt><trkpt lat="42.95452957520469" lon="11.58304429744962"><ele>592.0</ele><time>2026-04-22T07:19:31.999Z</time></trkpt><trkpt lat="42.95462384478107" lon="11.58292395993542"><ele>593.75</ele><time>2026-04-22T07:19:32.999Z</time></trkpt><trkpt lat="42.95472300160836" lon="11.582799500101435"><ele>595.5</ele><time>2026-04-22T07:19:33.999Z</time></trkpt><trkpt lat="42.95481833581816" lon="11.582673213062858"><ele>597.25</ele><time>2026-04-22T07:19:34.999Z</time></trkpt><trkpt lat="42.9549157824442" lon="11.582543789701155"><ele>599.0</ele><time>2026-04-22T07:19:35.999Z</time></trkpt><trkpt lat="42.955012386707565" lon="11.582409979537164"><ele>595.5</ele><time>2026-04-22T07:19:36.999Z</time></trkpt><trkpt lat="42.95511089647481" lon="11.582278802432903"><ele>592.0</ele><time>2026-04-22T07:19:37.999Z</time></trkpt><trkpt lat="42.95520539260876" lon="11.58214414039971"><ele>588.5</ele><time>2026-04-22T07:19:38.999Z</time></trkpt><trkpt lat="42.95528445288124" lon="11.582013507495196"><ele>585.0</ele><time>2026-04-22T07:19:39.999Z</time></trkpt><trkpt lat="42.955355736451395" lon="11.581886465381272"><ele>585.0</ele><time>2026-04-22T07:19:40.999Z</time></trkpt><trkpt lat="42.95542783253768" lon="11.581757951380549"><ele>585.0</ele><time>2026-04-22T07:19:41.999Z</time></trkpt><trkpt lat="42.95549409294956" lon="11.581628429599245"><ele>585.0</ele><time>2026-04-22T07:19:42.998Z</time></trkpt><trkpt lat="42.95554848007349" lon="11.581497857096078"><ele>585.0</ele><time>2026-04-22T07:19:43.998Z</time></trkpt><trkpt lat="42.955590788228214" lon="11.581363171839952"><ele>585.0</ele><time>2026-04-22T07:19:44.998Z</time></trkpt><trkpt lat="42.95565421843754" lon="11.581223987449887"><ele>585.0</ele><time>2026-04-22T07:19:45.998Z</time></trkpt><trkpt lat="42.95570014416167" lon="11.58105275643709"><ele>585.0</ele><time>2026-04-22T07:19:46.998Z</time></trkpt><trkpt lat="42.955758647799335" lon="11.580882784763746"><ele>585.0</ele><time>2026-04-22T07:19:47.998Z</time></trkpt><trkpt lat="42.955814231621325" lon="11.58071809839737"><ele>585.75</ele><time>2026-04-22T07:19:48.998Z</time></trkpt><trkpt lat="42.95586989313941" lon="11.580572795520524"><ele>586.5</ele><time>2026-04-22T07:19:49.998Z</time></trkpt><trkpt lat="42.95592211958516" lon="11.580424713326293"><ele>587.25</ele><time>2026-04-22T07:19:50.998Z</time></trkpt><trkpt lat="42.95596731236497" lon="11.58028609146319"><ele>588.0</ele><time>2026-04-22T07:19:51.998Z</time></trkpt><trkpt lat="42.95601740640855" lon="11.580155528539906"><ele>586.0</ele><time>2026-04-22T07:19:52.998Z</time></trkpt><trkpt lat="42.956088500432706" lon="11.580057249797877"><ele>584.0</ele><time>2026-04-22T07:19:53.998Z</time></trkpt><trkpt lat="42.95615052820115" lon="11.579943451331074"><ele>582.0</ele><time>2026-04-22T07:19:54.998Z</time></trkpt><trkpt lat="42.95622921814815" lon="11.579846968388644"><ele>580.0</ele><time>2026-04-22T07:19:55.998Z</time></trkpt><trkpt lat="42.956315262781644" lon="11.579750141167834"><ele>578.0</ele><time>2026-04-22T07:19:56.998Z</time></trkpt><trkpt lat="42.9563870732104" lon="11.57965102385461"><ele>578.0</ele><time>2026-04-22T07:19:57.998Z</time></trkpt><trkpt lat="42.95645405156658" lon="11.57955773447531"><ele>578.0</ele><time>2026-04-22T07:19:58.998Z</time></trkpt><trkpt lat="42.95651188661152" lon="11.579466053938416"><ele>578.0</ele><time>2026-04-22T07:19:59.998Z</time></trkpt><trkpt lat="42.956581048223555" lon="11.579393308691097"><ele>578.0</ele><time>2026-04-22T07:20:00.998Z</time></trkpt><trkpt lat="42.95663993711192" lon="11.57930255165416"><ele>578.0</ele><time>2026-04-22T07:20:01.999Z</time></trkpt><trkpt lat="42.95670115586097" lon="11.57921201763198"><ele>576.0</ele><time>2026-04-22T07:20:02.999Z</time></trkpt><trkpt lat="42.956761190618074" lon="11.579123428848744"><ele>574.0</ele><time>2026-04-22T07:20:03.999Z</time></trkpt><trkpt lat="42.95682630548756" lon="11.579027774888003"><ele>572.0</ele><time>2026-04-22T07:20:04.999Z</time></trkpt><trkpt lat="42.956890769157795" lon="11.57893383330488"><ele>570.0</ele><time>2026-04-22T07:20:05.999Z</time></trkpt><trkpt lat="42.956949259692436" lon="11.578816127533294"><ele>568.0</ele><time>2026-04-22T07:20:06.999Z</time></trkpt><trkpt lat="42.957009140043105" lon="11.57872480869097"><ele>568.0</ele><time>2026-04-22T07:20:07.999Z</time></trkpt><trkpt lat="42.95704448293919" lon="11.578632642361177"><ele>568.0</ele><time>2026-04-22T07:20:08.999Z</time></trkpt><trkpt lat="42.95708387510082" lon="11.578520803554598"><ele>568.0</ele><time>2026-04-22T07:20:09.999Z</time></trkpt><trkpt lat="42.95709140322661" lon="11.578378411882147"><ele>568.0</ele><time>2026-04-22T07:20:10.999Z</time></trkpt><trkpt lat="42.95707674443171" lon="11.578218432722617"><ele>568.0</ele><time>2026-04-22T07:20:11.999Z</time></trkpt><trkpt lat="42.9570558398421" lon="11.578061902087939"><ele>568.0</ele><time>2026-04-22T07:20:12.999Z</time></trkpt><trkpt lat="42.957033551780675" lon="11.57791282378654"><ele>568.0</ele><time>2026-04-22T07:20:13.999Z</time></trkpt><trkpt lat="42.95700970456055" lon="11.57775994232365"><ele>568.0</ele><time>2026-04-22T07:20:14.999Z</time></trkpt><trkpt lat="42.956983383450115" lon="11.577596179750522"><ele>568.0</ele><time>2026-04-22T07:20:15.999Z</time></trkpt><trkpt lat="42.95695944931691" lon="11.577427960098595"><ele>566.5</ele><time>2026-04-22T07:20:16.999Z</time></trkpt><trkpt lat="42.9569330799439" lon="11.577258477104401"><ele>565.0</ele><time>2026-04-22T07:20:17.999Z</time></trkpt><trkpt lat="42.95690070889697" lon="11.577091184389865"><ele>563.5</ele><time>2026-04-22T07:20:18.999Z</time></trkpt><trkpt lat="42.95685857599189" lon="11.576925914652348"><ele>562.0</ele><time>2026-04-22T07:20:19.999Z</time></trkpt><trkpt lat="42.95681631693941" lon="11.57677466551464"><ele>561.6</ele><time>2026-04-22T07:20:20.999Z</time></trkpt><trkpt lat="42.956783466155166" lon="11.576631735058674"><ele>561.2</ele><time>2026-04-22T07:20:21.999Z</time></trkpt><trkpt lat="42.95675717892842" lon="11.57649163951688"><ele>560.8</ele><time>2026-04-22T07:20:22.999Z</time></trkpt><trkpt lat="42.95674455220929" lon="11.576369385692345"><ele>560.4</ele><time>2026-04-22T07:20:23.999Z</time></trkpt><trkpt lat="42.95673803132425" lon="11.576252872320088"><ele>560.0</ele><time>2026-04-22T07:20:24.999Z</time></trkpt><trkpt lat="42.95673268549227" lon="11.57611721860421"><ele>559.8</ele><time>2026-04-22T07:20:25.999Z</time></trkpt><trkpt lat="42.95672507565274" lon="11.575997446303374"><ele>559.6</ele><time>2026-04-22T07:20:26.999Z</time></trkpt><trkpt lat="42.95669307709745" lon="11.575831449963234"><ele>559.4</ele><time>2026-04-22T07:20:27.999Z</time></trkpt><trkpt lat="42.95663254008503" lon="11.575704683141543"><ele>559.2</ele><time>2026-04-22T07:20:28.999Z</time></trkpt><trkpt lat="42.956562400610125" lon="11.575590047207365"><ele>559.0</ele><time>2026-04-22T07:20:29.999Z</time></trkpt><trkpt lat="42.95646170756943" lon="11.575487202546535"><ele>559.0</ele><time>2026-04-22T07:20:30.999Z</time></trkpt><trkpt lat="42.956364193603264" lon="11.575396516079271"><ele>559.0</ele><time>2026-04-22T07:20:31.999Z</time></trkpt><trkpt lat="42.956265863458725" lon="11.575316835468751"><ele>559.0</ele><time>2026-04-22T07:20:32.999Z</time></trkpt><trkpt lat="42.956155108800225" lon="11.575265499481043"><ele>559.0</ele><time>2026-04-22T07:20:33.999Z</time></trkpt><trkpt lat="42.95605249843676" lon="11.575196763845685"><ele>559.2</ele><time>2026-04-22T07:20:34.999Z</time></trkpt><trkpt lat="42.95595440951994" lon="11.575141188221657"><ele>559.4</ele><time>2026-04-22T07:20:35.999Z</time></trkpt><trkpt lat="42.95586343527223" lon="11.575057518328485"><ele>559.6</ele><time>2026-04-22T07:20:36.999Z</time></trkpt><trkpt lat="42.95577608930727" lon="11.574980682463064"><ele>559.8</ele><time>2026-04-22T07:20:37.999Z</time></trkpt><trkpt lat="42.955702070169956" lon="11.574880593328592"><ele>560.0</ele><time>2026-04-22T07:20:38.999Z</time></trkpt><trkpt lat="42.95561334308823" lon="11.574779551169655"><ele>560.0</ele><time>2026-04-22T07:20:39.999Z</time></trkpt><trkpt lat="42.955523399023264" lon="11.574689044435903"><ele>560.0</ele><time>2026-04-22T07:20:40.999Z</time></trkpt><trkpt lat="42.955419745880974" lon="11.574612116873547"><ele>560.0</ele><time>2026-04-22T07:20:41.999Z</time></trkpt><trkpt lat="42.95533877959517" lon="11.574507391110409"><ele>560.0</ele><time>2026-04-22T07:20:42.999Z</time></trkpt><trkpt lat="42.95524497244176" lon="11.574418891644845"><ele>559.5</ele><time>2026-04-22T07:20:43.999Z</time></trkpt><trkpt lat="42.95514801954437" lon="11.57433039063448"><ele>559.0</ele><time>2026-04-22T07:20:44.999Z</time></trkpt><trkpt lat="42.95504275655191" lon="11.574246849627464"><ele>558.5</ele><time>2026-04-22T07:20:45.999Z</time></trkpt><trkpt lat="42.95493938403312" lon="11.574170156328703"><ele>558.0</ele><time>2026-04-22T07:20:46.999Z</time></trkpt><trkpt lat="42.95484749645374" lon="11.574115632071475"><ele>558.1999999999999</ele><time>2026-04-22T07:20:47.999Z</time></trkpt><trkpt lat="42.95477714221353" lon="11.574048518355275"><ele>558.4</ele><time>2026-04-22T07:20:48.999Z</time></trkpt><trkpt lat="42.9547362477251" lon="11.573966022991618"><ele>558.5999999999999</ele><time>2026-04-22T07:20:49.999Z</time></trkpt><trkpt lat="42.954758160294894" lon="11.573824573229608"><ele>558.8</ele><time>2026-04-22T07:20:51.999Z</time></trkpt><trkpt lat="42.9547772746868" lon="11.573690266981352"><ele>559.0</ele><time>2026-04-22T07:20:52.999Z</time></trkpt><trkpt lat="42.954796467848276" lon="11.573559795192542"><ele>559.0</ele><time>2026-04-22T07:20:53.999Z</time></trkpt><trkpt lat="42.95479496536963" lon="11.57344913286212"><ele>559.0</ele><time>2026-04-22T07:20:54.999Z</time></trkpt><trkpt lat="42.954777179333966" lon="11.573346756896397"><ele>559.0</ele><time>2026-04-22T07:20:55.999Z</time></trkpt><trkpt lat="42.95474773109909" lon="11.57323204386315"><ele>559.0</ele><time>2026-04-22T07:20:56.999Z</time></trkpt><trkpt lat="42.95471828820803" lon="11.573095694820994"><ele>559.0</ele><time>2026-04-22T07:20:57.999Z</time></trkpt><trkpt lat="42.95468757544267" lon="11.572968056893014"><ele>559.0</ele><time>2026-04-22T07:20:58.999Z</time></trkpt><trkpt lat="42.95464584039016" lon="11.57285537837289"><ele>556.8333333333334</ele><time>2026-04-22T07:20:59.999Z</time></trkpt><trkpt lat="42.95459776004579" lon="11.572749836081842"><ele>554.6666666666667</ele><time>2026-04-22T07:21:00.999Z</time></trkpt><trkpt lat="42.95455163943479" lon="11.572642629756684"><ele>552.5</ele><time>2026-04-22T07:21:01.999Z</time></trkpt><trkpt lat="42.95449673312414" lon="11.57253977956857"><ele>550.3333333333334</ele><time>2026-04-22T07:21:02.999Z</time></trkpt><trkpt lat="42.95444402405816" lon="11.57244509135651"><ele>548.1666666666666</ele><time>2026-04-22T07:21:03.999Z</time></trkpt><trkpt lat="42.954390197857116" lon="11.57236227062406"><ele>546.0</ele><time>2026-04-22T07:21:04.999Z</time></trkpt><trkpt lat="42.954329969644114" lon="11.572300116828771"><ele>546.0</ele><time>2026-04-22T07:21:05.999Z</time></trkpt><trkpt lat="42.95424918602713" lon="11.572265605791092"><ele>546.0</ele><time>2026-04-22T07:21:06.999Z</time></trkpt><trkpt lat="42.95416343869747" lon="11.57226932981794"><ele>546.0</ele><time>2026-04-22T07:21:07.999Z</time></trkpt><trkpt lat="42.95407795391041" lon="11.57232605616877"><ele>546.0</ele><time>2026-04-22T07:21:08.999Z</time></trkpt><trkpt lat="42.95399822479291" lon="11.572353952425757"><ele>546.0</ele><time>2026-04-22T07:21:09.999Z</time></trkpt><trkpt lat="42.95392683672259" lon="11.57234845649032"><ele>546.0</ele><time>2026-04-22T07:21:10.999Z</time></trkpt><trkpt lat="42.953868382832205" lon="11.572283028989089"><ele>547.6</ele><time>2026-04-22T07:21:11.999Z</time></trkpt><trkpt lat="42.95379051322967" lon="11.572214134612326"><ele>549.2</ele><time>2026-04-22T07:21:12.999Z</time></trkpt><trkpt lat="42.95372335231577" lon="11.572087193829944"><ele>550.8</ele><time>2026-04-22T07:21:13.999Z</time></trkpt><trkpt lat="42.95364144626698" lon="11.571984498529714"><ele>552.4</ele><time>2026-04-22T07:21:14.999Z</time></trkpt><trkpt lat="42.95358550491499" lon="11.571871655491346"><ele>554.0</ele><time>2026-04-22T07:21:15.999Z</time></trkpt><trkpt lat="42.95353631644409" lon="11.571778348689913"><ele>550.8</ele><time>2026-04-22T07:21:16.999Z</time></trkpt><trkpt lat="42.95347668144874" lon="11.571702245722907"><ele>547.5999999999999</ele><time>2026-04-22T07:21:17.999Z</time></trkpt><trkpt lat="42.953406541923044" lon="11.571643691315277"><ele>544.4</ele><time>2026-04-22T07:21:18.999Z</time></trkpt><trkpt lat="42.95332528299411" lon="11.571554917625175"><ele>541.1999999999999</ele><time>2026-04-22T07:21:19.999Z</time></trkpt><trkpt lat="42.953271981541036" lon="11.571447480720098"><ele>538.0</ele><time>2026-04-22T07:21:20.999Z</time></trkpt><trkpt lat="42.95321634428929" lon="11.57135042154244"><ele>538.0</ele><time>2026-04-22T07:21:21.999Z</time></trkpt><trkpt lat="42.95315292325801" lon="11.57126686305086"><ele>538.0</ele><time>2026-04-22T07:21:22.999Z</time></trkpt><trkpt lat="42.953107097964356" lon="11.571176371291166"><ele>538.0</ele><time>2026-04-22T07:21:23.999Z</time></trkpt><trkpt lat="42.95306153117739" lon="11.571076310828035"><ele>538.0</ele><time>2026-04-22T07:21:24.999Z</time></trkpt><trkpt lat="42.95291146842899" lon="11.570972348915799"><ele>538.0</ele><time>2026-04-22T07:21:26.999Z</time></trkpt><trkpt lat="42.95281818896931" lon="11.570949954889809"><ele>535.8333333333334</ele><time>2026-04-22T07:21:27.999Z</time></trkpt><trkpt lat="42.952730110221864" lon="11.57092617919466"><ele>533.6666666666667</ele><time>2026-04-22T07:21:28.999Z</time></trkpt><trkpt lat="42.95265720083096" lon="11.570869189328723"><ele>531.5</ele><time>2026-04-22T07:21:29.999Z</time></trkpt><trkpt lat="42.95260199840161" lon="11.570798633480248"><ele>529.3333333333334</ele><time>2026-04-22T07:21:30.999Z</time></trkpt><trkpt lat="42.95253580067947" lon="11.570719626938406"><ele>527.1666666666666</ele><time>2026-04-22T07:21:31.999Z</time></trkpt><trkpt lat="42.952476120515236" lon="11.570624123439828"><ele>525.0</ele><time>2026-04-22T07:21:32.999Z</time></trkpt><trkpt lat="42.95242319014236" lon="11.570552454616854"><ele>524.8</ele><time>2026-04-22T07:21:33.999Z</time></trkpt><trkpt lat="42.95238382865619" lon="11.570465396005444"><ele>524.6</ele><time>2026-04-22T07:21:34.999Z</time></trkpt><trkpt lat="42.95236231089208" lon="11.570352976816856"><ele>524.4</ele><time>2026-04-22T07:21:35.999Z</time></trkpt><trkpt lat="42.95235146388888" lon="11.57021774449578"><ele>524.2</ele><time>2026-04-22T07:21:36.999Z</time></trkpt><trkpt lat="42.9523114176852" lon="11.570066411830629"><ele>524.0</ele><time>2026-04-22T07:21:37.999Z</time></trkpt><trkpt lat="42.952274736913076" lon="11.56992928139727"><ele>522.4</ele><time>2026-04-22T07:21:38.999Z</time></trkpt><trkpt lat="42.9522573302103" lon="11.569802944481365"><ele>520.8</ele><time>2026-04-22T07:21:39.999Z</time></trkpt><trkpt lat="42.95224603515834" lon="11.569668426549946"><ele>519.2</ele><time>2026-04-22T07:21:40.999Z</time></trkpt><trkpt lat="42.95225124727002" lon="11.569548001266464"><ele>517.6</ele><time>2026-04-22T07:21:41.999Z</time></trkpt><trkpt lat="42.95224764657026" lon="11.569408223583572"><ele>516.0</ele><time>2026-04-22T07:21:42.999Z</time></trkpt><trkpt lat="42.952258687596355" lon="11.569273336038062"><ele>514.8</ele><time>2026-04-22T07:21:43.999Z</time></trkpt><trkpt lat="42.952269385219886" lon="11.569145242274312"><ele>513.6</ele><time>2026-04-22T07:21:44.999Z</time></trkpt><trkpt lat="42.95227983946294" lon="11.569010922969003"><ele>512.4</ele><time>2026-04-22T07:21:45.999Z</time></trkpt><trkpt lat="42.952277172855005" lon="11.568866893926913"><ele>511.2</ele><time>2026-04-22T07:21:46.999Z</time></trkpt><trkpt lat="42.952261951796466" lon="11.568726554596635"><ele>510.0</ele><time>2026-04-22T07:21:47.999Z</time></trkpt><trkpt lat="42.9522419469539" lon="11.56858985524165"><ele>508.8333333333333</ele><time>2026-04-22T07:21:48.999Z</time></trkpt><trkpt lat="42.952240403986295" lon="11.568464583376365"><ele>507.66666666666663</ele><time>2026-04-22T07:21:49.999Z</time></trkpt><trkpt lat="42.952212940253446" lon="11.568343926448712"><ele>506.5</ele><time>2026-04-22T07:21:50.999Z</time></trkpt><trkpt lat="42.952193062732675" lon="11.568225137956142"><ele>505.3333333333333</ele><time>2026-04-22T07:21:51.999Z</time></trkpt><trkpt lat="42.95215751932868" lon="11.568120900554982"><ele>504.16666666666663</ele><time>2026-04-22T07:21:52.999Z</time></trkpt><trkpt lat="42.95211518903579" lon="11.568009664046894"><ele>503.0</ele><time>2026-04-22T07:21:53.999Z</time></trkpt><trkpt lat="42.95207347466193" lon="11.567894576899613"><ele>501.49999999999994</ele><time>2026-04-22T07:21:54.999Z</time></trkpt><trkpt lat="42.95202160833714" lon="11.567799923029378"><ele>500.0</ele><time>2026-04-22T07:21:55.999Z</time></trkpt><trkpt lat="42.95196817563146" lon="11.567691404101033"><ele>498.5</ele><time>2026-04-22T07:21:56.999Z</time></trkpt><trkpt lat="42.951920449426495" lon="11.56759131862991"><ele>497.0</ele><time>2026-04-22T07:21:57.999Z</time></trkpt><trkpt lat="42.95187823788842" lon="11.567477151784205"><ele>495.49999999999994</ele><time>2026-04-22T07:21:58.999Z</time></trkpt><trkpt lat="42.951841472795216" lon="11.567371772192487"><ele>494.0</ele><time>2026-04-22T07:21:59.998Z</time></trkpt><trkpt lat="42.95180548550483" lon="11.567273076069396"><ele>494.0</ele><time>2026-04-22T07:22:00.998Z</time></trkpt><trkpt lat="42.95175797419874" lon="11.56714149098531"><ele>494.0</ele><time>2026-04-22T07:22:02.998Z</time></trkpt><trkpt lat="42.95172898116472" lon="11.567021386467053"><ele>494.0</ele><time>2026-04-22T07:22:04.998Z</time></trkpt><trkpt lat="42.95158444491196" lon="11.567108989192871"><ele>494.0</ele><time>2026-04-22T07:22:10Z</time></trkpt><trkpt lat="42.95155076621153" lon="11.567187133961935"><ele>494.0</ele><time>2026-04-22T07:22:11Z</time></trkpt><trkpt lat="42.95148924504393" lon="11.567223576467994"><ele>494.6</ele><time>2026-04-22T07:22:12Z</time></trkpt><trkpt lat="42.95142773353897" lon="11.567279008571903"><ele>495.2</ele><time>2026-04-22T07:22:13Z</time></trkpt><trkpt lat="42.95136225419349" lon="11.567356397663483"><ele>495.80000000000007</ele><time>2026-04-22T07:22:14Z</time></trkpt><trkpt lat="42.95129299509999" lon="11.567416430306627"><ele>496.40000000000003</ele><time>2026-04-22T07:22:15Z</time></trkpt><trkpt lat="42.95119881831663" lon="11.567520296390901"><ele>497.0</ele><time>2026-04-22T07:22:17Z</time></trkpt><trkpt lat="42.951172061355884" lon="11.567702330865664"><ele>496.99999999999994</ele><time>2026-04-22T07:22:19Z</time></trkpt><trkpt lat="42.95115788593528" lon="11.56779581260146"><ele>497.0</ele><time>2026-04-22T07:22:20Z</time></trkpt><trkpt lat="42.951149928090466" lon="11.56790233943982"><ele>497.0</ele><time>2026-04-22T07:22:21Z</time></trkpt><trkpt lat="42.95115179563749" lon="11.568008950431397"><ele>497.0</ele><time>2026-04-22T07:22:22Z</time></trkpt><trkpt lat="42.9511402883777" lon="11.56809731268439"><ele>496.99999999999994</ele><time>2026-04-22T07:22:23Z</time></trkpt><trkpt lat="42.951140238594895" lon="11.56821361158874"><ele>497.0</ele><time>2026-04-22T07:22:25Z</time></trkpt><trkpt lat="42.95107994009212" lon="11.568268806898715"><ele>497.0</ele><time>2026-04-22T07:22:28Z</time></trkpt><trkpt lat="42.95101328447657" lon="11.568197011667053"><ele>497.00000000000006</ele><time>2026-04-22T07:22:29Z</time></trkpt><trkpt lat="42.95097292803189" lon="11.567935395391025"><ele>497.00000000000006</ele><time>2026-04-22T07:22:31.999Z</time></trkpt><trkpt lat="42.95095999825046" lon="11.567819495387806"><ele>497.0</ele><time>2026-04-22T07:22:32.999Z</time></trkpt><trkpt lat="42.950958706811605" lon="11.567716720341084"><ele>497.0</ele><time>2026-04-22T07:22:33.999Z</time></trkpt><trkpt lat="42.950922832984816" lon="11.567628029946237"><ele>496.99999999999994</ele><time>2026-04-22T07:22:34.999Z</time></trkpt><trkpt lat="42.95089274708451" lon="11.567542676516638"><ele>497.0</ele><time>2026-04-22T07:22:35.999Z</time></trkpt><trkpt lat="42.95084829234998" lon="11.56746810138028"><ele>497.0</ele><time>2026-04-22T07:22:36.999Z</time></trkpt><trkpt lat="42.95079164101454" lon="11.567409184381045"><ele>497.0</ele><time>2026-04-22T07:22:37.999Z</time></trkpt><trkpt lat="42.95076174009328" lon="11.56733315934371"><ele>496.99999999999994</ele><time>2026-04-22T07:22:38.999Z</time></trkpt><trkpt lat="42.95071937640738" lon="11.567263720385913"><ele>497.0</ele><time>2026-04-22T07:22:39.999Z</time></trkpt><trkpt lat="42.9506383454429" lon="11.567130901283619"><ele>492.6</ele><time>2026-04-22T07:22:41.999Z</time></trkpt><trkpt lat="42.950564534006205" lon="11.567005526142697"><ele>488.20000000000005</ele><time>2026-04-22T07:22:43.999Z</time></trkpt><trkpt lat="42.95047513987141" lon="11.56690857386773"><ele>483.8</ele><time>2026-04-22T07:22:45.999Z</time></trkpt><trkpt lat="42.950398065940384" lon="11.566893828367286"><ele>479.4</ele><time>2026-04-22T07:22:46.999Z</time></trkpt><trkpt lat="42.95032500798313" lon="11.566933110814134"><ele>475.0</ele><time>2026-04-22T07:22:47.999Z</time></trkpt><trkpt lat="42.95027537171847" lon="11.567000654859749"><ele>475.6</ele><time>2026-04-22T07:22:48.999Z</time></trkpt><trkpt lat="42.950207224622964" lon="11.56713337761671"><ele>476.2</ele><time>2026-04-22T07:22:50.999Z</time></trkpt><trkpt lat="42.9501468531302" lon="11.567275828529684"><ele>476.79999999999995</ele><time>2026-04-22T07:22:52.999Z</time></trkpt><trkpt lat="42.9501199741556" lon="11.567364183538805"><ele>477.4</ele><time>2026-04-22T07:22:53.999Z</time></trkpt><trkpt lat="42.950098599588685" lon="11.567464781172523"><ele>478.0</ele><time>2026-04-22T07:22:54.999Z</time></trkpt><trkpt lat="42.95009799232417" lon="11.567559323949048"><ele>478.00000000000006</ele><time>2026-04-22T07:22:55.999Z</time></trkpt><trkpt lat="42.95008111370344" lon="11.567676713046264"><ele>478.0</ele><time>2026-04-22T07:22:57.999Z</time></trkpt><trkpt lat="42.95002798761909" lon="11.567742300950812"><ele>478.0</ele><time>2026-04-22T07:22:59.999Z</time></trkpt><trkpt lat="42.94996397026602" lon="11.567739170775354"><ele>478.0</ele><time>2026-04-22T07:23:01.999Z</time></trkpt><trkpt lat="42.94990891507004" lon="11.567610856529265"><ele>478.00000000000006</ele><time>2026-04-22T07:23:02.999Z</time></trkpt><trkpt lat="42.949893402536496" lon="11.56752044117425"><ele>478.0</ele><time>2026-04-22T07:23:03.999Z</time></trkpt><trkpt lat="42.949903278655064" lon="11.567425139827835"><ele>473.59999999999997</ele><time>2026-04-22T07:23:04.999Z</time></trkpt><trkpt lat="42.949939955907084" lon="11.567299088855906"><ele>469.19999999999993</ele><time>2026-04-22T07:23:05.999Z</time></trkpt><trkpt lat="42.949926653178075" lon="11.567159070678889"><ele>464.8</ele><time>2026-04-22T07:23:06.999Z</time></trkpt><trkpt lat="42.94994030696588" lon="11.567047852069392"><ele>460.4</ele><time>2026-04-22T07:23:07.999Z</time></trkpt><trkpt lat="42.9499319788161" lon="11.566935293793204"><ele>456.0</ele><time>2026-04-22T07:23:08.999Z</time></trkpt><trkpt lat="42.949881888802416" lon="11.566821923791018"><ele>456.0</ele><time>2026-04-22T07:23:09.999Z</time></trkpt><trkpt lat="42.94983950647997" lon="11.566695625447574"><ele>456.0</ele><time>2026-04-22T07:23:10.999Z</time></trkpt><trkpt lat="42.94977344398623" lon="11.566574537652372"><ele>456.0</ele><time>2026-04-22T07:23:11.999Z</time></trkpt><trkpt lat="42.949711746267496" lon="11.566462489995555"><ele>456.0</ele><time>2026-04-22T07:23:12.999Z</time></trkpt><trkpt lat="42.94964581687138" lon="11.566378051411656"><ele>456.0</ele><time>2026-04-22T07:23:13.999Z</time></trkpt><trkpt lat="42.949592217545074" lon="11.566290171073408"><ele>456.0</ele><time>2026-04-22T07:23:14.999Z</time></trkpt><trkpt lat="42.949548125260556" lon="11.566191791981389"><ele>456.0</ele><time>2026-04-22T07:23:15.999Z</time></trkpt><trkpt lat="42.94949515423066" lon="11.566129022503745"><ele>456.0</ele><time>2026-04-22T07:23:16.999Z</time></trkpt><trkpt lat="42.94940522930661" lon="11.566080486516364"><ele>456.0</ele><time>2026-04-22T07:23:18.999Z</time></trkpt><trkpt lat="42.94933683808536" lon="11.566128453119038"><ele>456.0</ele><time>2026-04-22T07:23:19.999Z</time></trkpt><trkpt lat="42.949292467389064" lon="11.566202670993482"><ele>456.0</ele><time>2026-04-22T07:23:20.999Z</time></trkpt><trkpt lat="42.94927618938575" lon="11.566319377729478"><ele>456.0</ele><time>2026-04-22T07:23:21.999Z</time></trkpt><trkpt lat="42.949268499155124" lon="11.566428534621485"><ele>456.0</ele><time>2026-04-22T07:23:22.999Z</time></trkpt><trkpt lat="42.949272015753984" lon="11.56653708271766"><ele>456.0</ele><time>2026-04-22T07:23:23.999Z</time></trkpt><trkpt lat="42.94927886145554" lon="11.56666386685661"><ele>456.0</ele><time>2026-04-22T07:23:24.999Z</time></trkpt><trkpt lat="42.94933179366606" lon="11.56676205379662"><ele>456.0</ele><time>2026-04-22T07:23:25.999Z</time></trkpt><trkpt lat="42.94937617043095" lon="11.566851523141626"><ele>456.0</ele><time>2026-04-22T07:23:26.999Z</time></trkpt><trkpt lat="42.94943433051987" lon="11.566927493658595"><ele>456.0</ele><time>2026-04-22T07:23:27.999Z</time></trkpt><trkpt lat="42.94949510990628" lon="11.566998984301689"><ele>455.99999999999994</ele><time>2026-04-22T07:23:28.999Z</time></trkpt><trkpt lat="42.94954308602622" lon="11.56709619576583"><ele>456.0</ele><time>2026-04-22T07:23:29.999Z</time></trkpt><trkpt lat="42.94958604518073" lon="11.567166060702577"><ele>456.0</ele><time>2026-04-22T07:23:30.999Z</time></trkpt><trkpt lat="42.949597489897556" lon="11.567256395066451"><ele>455.99999999999994</ele><time>2026-04-22T07:23:31.999Z</time></trkpt><trkpt lat="42.94959107428592" lon="11.567348805471061"><ele>456.0</ele><time>2026-04-22T07:23:32.999Z</time></trkpt><trkpt lat="42.949550963108884" lon="11.567422388864095"><ele>456.0</ele><time>2026-04-22T07:23:33.999Z</time></trkpt><trkpt lat="42.94949372875229" lon="11.567469614071518"><ele>456.0</ele><time>2026-04-22T07:23:34.999Z</time></trkpt><trkpt lat="42.9493940602974" lon="11.567495976683187"><ele>456.0</ele><time>2026-04-22T07:23:35.999Z</time></trkpt><trkpt lat="42.94929328640976" lon="11.567547187451215"><ele>456.0</ele><time>2026-04-22T07:23:36.999Z</time></trkpt><trkpt lat="42.949208435673334" lon="11.567604123880507"><ele>456.0</ele><time>2026-04-22T07:23:37.999Z</time></trkpt><trkpt lat="42.949153669518665" lon="11.567668030215279"><ele>456.0</ele><time>2026-04-22T07:23:38.999Z</time></trkpt><trkpt lat="42.94909912418366" lon="11.56778140929483"><ele>454.8</ele><time>2026-04-22T07:23:40.999Z</time></trkpt><trkpt lat="42.94916053222344" lon="11.567965036801125"><ele>453.6</ele><time>2026-04-22T07:23:42.999Z</time></trkpt><trkpt lat="42.94923536857689" lon="11.568054539358384"><ele>452.4</ele><time>2026-04-22T07:23:43.999Z</time></trkpt><trkpt lat="42.94928168455145" lon="11.568174297466042"><ele>451.2</ele><time>2026-04-22T07:23:44.999Z</time></trkpt><trkpt lat="42.94932376661185" lon="11.56827448676586"><ele>450.0</ele><time>2026-04-22T07:23:45.999Z</time></trkpt><trkpt lat="42.9493633286436" lon="11.568366605236848"><ele>450.0</ele><time>2026-04-22T07:23:46.999Z</time></trkpt><trkpt lat="42.94936622378106" lon="11.568484981557772"><ele>450.0</ele><time>2026-04-22T07:23:47.999Z</time></trkpt><trkpt lat="42.949333460735225" lon="11.568617668038607"><ele>450.0</ele><time>2026-04-22T07:23:48.999Z</time></trkpt><trkpt lat="42.94932844107838" lon="11.56876077329352"><ele>450.0</ele><time>2026-04-22T07:23:49.999Z</time></trkpt><trkpt lat="42.94930810490951" lon="11.568894221428794"><ele>450.0</ele><time>2026-04-22T07:23:50.999Z</time></trkpt><trkpt lat="42.949288415741606" lon="11.569010120120208"><ele>450.0</ele><time>2026-04-22T07:23:51.999Z</time></trkpt><trkpt lat="42.94926346141248" lon="11.569097259025511"><ele>450.0</ele><time>2026-04-22T07:23:52.999Z</time></trkpt><trkpt lat="42.94918648694543" lon="11.569182644938623"><ele>450.0</ele><time>2026-04-22T07:23:54.999Z</time></trkpt><trkpt lat="42.9490699813284" lon="11.569163728503753"><ele>450.0</ele><time>2026-04-22T07:23:56.999Z</time></trkpt><trkpt lat="42.949008680305774" lon="11.569124133341026"><ele>450.0</ele><time>2026-04-22T07:23:57.999Z</time></trkpt><trkpt lat="42.948912736806115" lon="11.569101108697572"><ele>447.3333333333333</ele><time>2026-04-22T07:23:59.999Z</time></trkpt><trkpt lat="42.94886446682736" lon="11.569220356113272"><ele>444.66666666666663</ele><time>2026-04-22T07:24:00.999Z</time></trkpt><trkpt lat="42.94884824359724" lon="11.569331315398953"><ele>442.0</ele><time>2026-04-22T07:24:01.999Z</time></trkpt><trkpt lat="42.94879877474221" lon="11.5694309240439"><ele>439.3333333333333</ele><time>2026-04-22T07:24:02.999Z</time></trkpt><trkpt lat="42.94876914397116" lon="11.56953775549653"><ele>436.66666666666663</ele><time>2026-04-22T07:24:03.999Z</time></trkpt><trkpt lat="42.94877097851217" lon="11.569647520541645"><ele>434.0</ele><time>2026-04-22T07:24:04.999Z</time></trkpt><trkpt lat="42.948774803227614" lon="11.569754589347616"><ele>433.99999999999994</ele><time>2026-04-22T07:24:05.999Z</time></trkpt><trkpt lat="42.948812414525825" lon="11.569851130979506"><ele>434.0</ele><time>2026-04-22T07:24:06.999Z</time></trkpt><trkpt lat="42.948824757872245" lon="11.56996116282622"><ele>434.0</ele><time>2026-04-22T07:24:07.999Z</time></trkpt><trkpt lat="42.9488380779582" lon="11.5700640354202"><ele>434.0</ele><time>2026-04-22T07:24:08.999Z</time></trkpt><trkpt lat="42.94882673207131" lon="11.570183554533354"><ele>433.99999999999994</ele><time>2026-04-22T07:24:09.999Z</time></trkpt><trkpt lat="42.94881563113435" lon="11.570293031032314"><ele>434.0</ele><time>2026-04-22T07:24:10.999Z</time></trkpt><trkpt lat="42.948738793868365" lon="11.57038915577008"><ele>434.0</ele><time>2026-04-22T07:24:11.999Z</time></trkpt><trkpt lat="42.94867688017222" lon="11.570476620479539"><ele>434.0</ele><time>2026-04-22T07:24:12.999Z</time></trkpt><trkpt lat="42.94861001275449" lon="11.570583616644646"><ele>434.0</ele><time>2026-04-22T07:24:14Z</time></trkpt><trkpt lat="42.9485737888435" lon="11.570711216078879"><ele>434.0</ele><time>2026-04-22T07:24:15Z</time></trkpt><trkpt lat="42.948544356901316" lon="11.57083674761655"><ele>434.0</ele><time>2026-04-22T07:24:16Z</time></trkpt><trkpt lat="42.9485311676112" lon="11.570951728680976"><ele>434.0</ele><time>2026-04-22T07:24:17Z</time></trkpt><trkpt lat="42.94846558270816" lon="11.57105478277486"><ele>434.0</ele><time>2026-04-22T07:24:19Z</time></trkpt><trkpt lat="42.948351611717186" lon="11.571073167020213"><ele>434.0</ele><time>2026-04-22T07:24:21Z</time></trkpt><trkpt lat="42.94827783246531" lon="11.57095094033818"><ele>434.0</ele><time>2026-04-22T07:24:23Z</time></trkpt><trkpt lat="42.94829409444064" lon="11.570848232955571"><ele>434.0</ele><time>2026-04-22T07:24:24Z</time></trkpt><trkpt lat="42.9482395629045" lon="11.570683355186079"><ele>434.8333333333333</ele><time>2026-04-22T07:24:26Z</time></trkpt><trkpt lat="42.94819729055771" lon="11.57059838027578"><ele>435.66666666666663</ele><time>2026-04-22T07:24:27Z</time></trkpt><trkpt lat="42.9481217630994" lon="11.570545076120217"><ele>436.5</ele><time>2026-04-22T07:24:28Z</time></trkpt><trkpt lat="42.94803493904893" lon="11.570477260793465"><ele>437.33333333333337</ele><time>2026-04-22T07:24:29Z</time></trkpt><trkpt lat="42.947949803937995" lon="11.570423562222867"><ele>438.1666666666667</ele><time>2026-04-22T07:24:30Z</time></trkpt><trkpt lat="42.94787888904521" lon="11.570338803791676"><ele>439.0</ele><time>2026-04-22T07:24:31Z</time></trkpt><trkpt lat="42.947837404285785" lon="11.570250304927082"><ele>439.00000000000006</ele><time>2026-04-22T07:24:32Z</time></trkpt><trkpt lat="42.94781000844877" lon="11.570134317362077"><ele>439.0</ele><time>2026-04-22T07:24:33Z</time></trkpt><trkpt lat="42.94778155090566" lon="11.570010671074337"><ele>439.0</ele><time>2026-04-22T07:24:34Z</time></trkpt><trkpt lat="42.94773993405936" lon="11.569931886465211"><ele>439.0</ele><time>2026-04-22T07:24:35Z</time></trkpt><trkpt lat="42.94766443490942" lon="11.569881623122976"><ele>439.00000000000006</ele><time>2026-04-22T07:24:36Z</time></trkpt><trkpt lat="42.94758938725008" lon="11.569866626491223"><ele>439.0</ele><time>2026-04-22T07:24:37Z</time></trkpt><trkpt lat="42.94751265629735" lon="11.569849496540876"><ele>442.1666666666667</ele><time>2026-04-22T07:24:38Z</time></trkpt><trkpt lat="42.94742984789455" lon="11.569831940401762"><ele>445.33333333333337</ele><time>2026-04-22T07:24:39Z</time></trkpt><trkpt lat="42.947350183704536" lon="11.56981712648867"><ele>448.5</ele><time>2026-04-22T07:24:40Z</time></trkpt><trkpt lat="42.947260163470965" lon="11.569804679658223"><ele>451.66666666666663</ele><time>2026-04-22T07:24:41Z</time></trkpt><trkpt lat="42.94717790943688" lon="11.569809760297478"><ele>454.8333333333333</ele><time>2026-04-22T07:24:42Z</time></trkpt><trkpt lat="42.94709986899194" lon="11.569782680913603"><ele>458.0</ele><time>2026-04-22T07:24:43Z</time></trkpt><trkpt lat="42.94703496720621" lon="11.569729955809402"><ele>458.0</ele><time>2026-04-22T07:24:44Z</time></trkpt><trkpt lat="42.946993435250405" lon="11.569657159479615"><ele>457.99999999999994</ele><time>2026-04-22T07:24:44.999Z</time></trkpt><trkpt lat="42.94699463437894" lon="11.569546888610956"><ele>457.99999999999994</ele><time>2026-04-22T07:24:45.999Z</time></trkpt><trkpt lat="42.94697292507712" lon="11.569309607755619"><ele>458.0</ele><time>2026-04-22T07:24:47.999Z</time></trkpt><trkpt lat="42.946974971878575" lon="11.569182262541021"><ele>458.0</ele><time>2026-04-22T07:24:48.999Z</time></trkpt><trkpt lat="42.946983770068975" lon="11.56905359125593"><ele>456.16666666666663</ele><time>2026-04-22T07:24:49.999Z</time></trkpt><trkpt lat="42.94699214676055" lon="11.568931302990737"><ele>454.3333333333333</ele><time>2026-04-22T07:24:50.999Z</time></trkpt><trkpt lat="42.947021405329785" lon="11.56882123288423"><ele>452.5</ele><time>2026-04-22T07:24:51.999Z</time></trkpt><trkpt lat="42.947042526489696" lon="11.568715420839192"><ele>450.66666666666663</ele><time>2026-04-22T07:24:52.999Z</time></trkpt><trkpt lat="42.94706333583851" lon="11.568621944620464"><ele>448.8333333333333</ele><time>2026-04-22T07:24:53.999Z</time></trkpt><trkpt lat="42.947044276724064" lon="11.568523696337403"><ele>447.0</ele><time>2026-04-22T07:24:54.999Z</time></trkpt><trkpt lat="42.94699319460178" lon="11.568447187365896"><ele>446.40000000000003</ele><time>2026-04-22T07:24:55.999Z</time></trkpt><trkpt lat="42.94691253544322" lon="11.568401135314856"><ele>445.80000000000007</ele><time>2026-04-22T07:24:56.999Z</time></trkpt><trkpt lat="42.94681047392994" lon="11.568451126842817"><ele>445.2</ele><time>2026-04-22T07:24:57.999Z</time></trkpt><trkpt lat="42.9467153680122" lon="11.568472215323634"><ele>444.6</ele><time>2026-04-22T07:24:58.999Z</time></trkpt><trkpt lat="42.94661380649157" lon="11.568466292628818"><ele>444.0</ele><time>2026-04-22T07:24:59.999Z</time></trkpt><trkpt lat="42.94651037607526" lon="11.568490273323066"><ele>447.6</ele><time>2026-04-22T07:25:00.999Z</time></trkpt><trkpt lat="42.94642363554755" lon="11.568547731671336"><ele>451.2</ele><time>2026-04-22T07:25:01.999Z</time></trkpt><trkpt lat="42.94633069975525" lon="11.568620892092726"><ele>454.80000000000007</ele><time>2026-04-22T07:25:02.999Z</time></trkpt><trkpt lat="42.94624035393907" lon="11.568688825630016"><ele>458.40000000000003</ele><time>2026-04-22T07:25:03.999Z</time></trkpt><trkpt lat="42.94615239280167" lon="11.56877216977785"><ele>462.0</ele><time>2026-04-22T07:25:04.999Z</time></trkpt><trkpt lat="42.94606184222131" lon="11.568851502034956"><ele>463.20000000000005</ele><time>2026-04-22T07:25:05.999Z</time></trkpt><trkpt lat="42.94598217691228" lon="11.568907301829686"><ele>464.40000000000003</ele><time>2026-04-22T07:25:06.999Z</time></trkpt><trkpt lat="42.945916542279726" lon="11.56896353890539"><ele>465.59999999999997</ele><time>2026-04-22T07:25:07.999Z</time></trkpt><trkpt lat="42.94582122985252" lon="11.568930996049875"><ele>466.79999999999995</ele><time>2026-04-22T07:25:08.999Z</time></trkpt><trkpt lat="42.945739924386096" lon="11.568919581851485"><ele>468.0</ele><time>2026-04-22T07:25:09.999Z</time></trkpt><trkpt lat="42.945634883481866" lon="11.568916547641278"><ele>470.2</ele><time>2026-04-22T07:25:10.999Z</time></trkpt><trkpt lat="42.94552610222841" lon="11.56892110654568"><ele>472.4</ele><time>2026-04-22T07:25:11.999Z</time></trkpt><trkpt lat="42.94542297371127" lon="11.568946360791355"><ele>474.59999999999997</ele><time>2026-04-22T07:25:12.999Z</time></trkpt><trkpt lat="42.94532415627587" lon="11.568991658037397"><ele>476.79999999999995</ele><time>2026-04-22T07:25:13.999Z</time></trkpt><trkpt lat="42.94523007008711" lon="11.569016421414373"><ele>479.0</ele><time>2026-04-22T07:25:14.999Z</time></trkpt><trkpt lat="42.945122039315066" lon="11.56904488600646"><ele>481.4</ele><time>2026-04-22T07:25:15.999Z</time></trkpt><trkpt lat="42.94500570173296" lon="11.56906938359729"><ele>483.79999999999995</ele><time>2026-04-22T07:25:16.999Z</time></trkpt><trkpt lat="42.94490037501595" lon="11.569134453131317"><ele>486.20000000000005</ele><time>2026-04-22T07:25:17.999Z</time></trkpt><trkpt lat="42.9448000765901" lon="11.569166754103385"><ele>488.6</ele><time>2026-04-22T07:25:18.999Z</time></trkpt><trkpt lat="42.944691597375424" lon="11.569186941633756"><ele>491.0</ele><time>2026-04-22T07:25:19.999Z</time></trkpt><trkpt lat="42.94458247553497" lon="11.569234869798438"><ele>490.99999999999994</ele><time>2026-04-22T07:25:20.999Z</time></trkpt><trkpt lat="42.94450869392146" lon="11.569310119497642"><ele>491.0</ele><time>2026-04-22T07:25:21.999Z</time></trkpt><trkpt lat="42.94444787609565" lon="11.569345798368026"><ele>491.0</ele><time>2026-04-22T07:25:22.999Z</time></trkpt><trkpt lat="42.94441400010901" lon="11.569432933225626"><ele>491.0</ele><time>2026-04-22T07:25:23.999Z</time></trkpt><trkpt lat="42.944420320119924" lon="11.569546840779942"><ele>490.99999999999994</ele><time>2026-04-22T07:25:24.999Z</time></trkpt><trkpt lat="42.944416499502424" lon="11.5696598658514"><ele>491.0</ele><time>2026-04-22T07:25:25.999Z</time></trkpt><trkpt lat="42.94440944786689" lon="11.569780519923206"><ele>491.8</ele><time>2026-04-22T07:25:26.999Z</time></trkpt><trkpt lat="42.94446080510153" lon="11.569901610469955"><ele>492.6</ele><time>2026-04-22T07:25:27.999Z</time></trkpt><trkpt lat="42.944522998033705" lon="11.570025625525618"><ele>493.4</ele><time>2026-04-22T07:25:28.999Z</time></trkpt><trkpt lat="42.9445566092303" lon="11.570168995473397"><ele>494.2</ele><time>2026-04-22T07:25:29.999Z</time></trkpt><trkpt lat="42.944594344428026" lon="11.570308871980599"><ele>495.0</ele><time>2026-04-22T07:25:30.999Z</time></trkpt><trkpt lat="42.94461529089249" lon="11.57045178676804"><ele>496.4</ele><time>2026-04-22T07:25:31.999Z</time></trkpt><trkpt lat="42.94461824841641" lon="11.57059273470629"><ele>497.8</ele><time>2026-04-22T07:25:32.999Z</time></trkpt><trkpt lat="42.94461053811995" lon="11.570746109483757"><ele>499.20000000000005</ele><time>2026-04-22T07:25:33.999Z</time></trkpt><trkpt lat="42.94461061618661" lon="11.570901482749651"><ele>500.6</ele><time>2026-04-22T07:25:34.999Z</time></trkpt><trkpt lat="42.944619481221984" lon="11.571048409645373"><ele>502.0</ele><time>2026-04-22T07:25:35.999Z</time></trkpt><trkpt lat="42.94464715310733" lon="11.571192184241658"><ele>503.6</ele><time>2026-04-22T07:25:36.999Z</time></trkpt><trkpt lat="42.94467962802238" lon="11.571338250440222"><ele>505.20000000000005</ele><time>2026-04-22T07:25:37.999Z</time></trkpt><trkpt lat="42.94471119524321" lon="11.57148038423215"><ele>506.8</ele><time>2026-04-22T07:25:38.999Z</time></trkpt><trkpt lat="42.944743597512144" lon="11.571630816008923"><ele>508.4</ele><time>2026-04-22T07:25:39.999Z</time></trkpt><trkpt lat="42.94478218045186" lon="11.571769743350432"><ele>510.0</ele><time>2026-04-22T07:25:40.999Z</time></trkpt><trkpt lat="42.944826451248964" lon="11.571889279474057"><ele>510.0</ele><time>2026-04-22T07:25:41.999Z</time></trkpt><trkpt lat="42.944892849340825" lon="11.571976223858806"><ele>510.0</ele><time>2026-04-22T07:25:42.999Z</time></trkpt><trkpt lat="42.94495099995557" lon="11.57207958654593"><ele>510.0</ele><time>2026-04-22T07:25:43.999Z</time></trkpt><trkpt lat="42.94504126705065" lon="11.5721511481233"><ele>510.0</ele><time>2026-04-22T07:25:44.999Z</time></trkpt><trkpt lat="42.94511308035854" lon="11.572245893482476"><ele>510.0</ele><time>2026-04-22T07:25:45.999Z</time></trkpt><trkpt lat="42.94520939466965" lon="11.572295791583104"><ele>511.3333333333333</ele><time>2026-04-22T07:25:46.999Z</time></trkpt><trkpt lat="42.9453060935932" lon="11.572355925364908"><ele>512.6666666666666</ele><time>2026-04-22T07:25:47.999Z</time></trkpt><trkpt lat="42.94538070294083" lon="11.572433079420781"><ele>514.0</ele><time>2026-04-22T07:25:48.999Z</time></trkpt><trkpt lat="42.945446221861246" lon="11.57248148432083"><ele>515.3333333333333</ele><time>2026-04-22T07:25:49.999Z</time></trkpt><trkpt lat="42.94550159289289" lon="11.572535634419836"><ele>516.6666666666666</ele><time>2026-04-22T07:25:50.999Z</time></trkpt><trkpt lat="42.945540107513175" lon="11.57261071625322"><ele>518.0</ele><time>2026-04-22T07:25:51.999Z</time></trkpt><trkpt lat="42.945557265958534" lon="11.572698921537548"><ele>518.0</ele><time>2026-04-22T07:25:52.999Z</time></trkpt><trkpt lat="42.945562202883046" lon="11.572807889326684"><ele>518.0</ele><time>2026-04-22T07:25:53.999Z</time></trkpt><trkpt lat="42.94556998163577" lon="11.572937650766184"><ele>518.0</ele><time>2026-04-22T07:25:54.999Z</time></trkpt><trkpt lat="42.94557009851471" lon="11.573067212413575"><ele>518.0</ele><time>2026-04-22T07:25:55.999Z</time></trkpt><trkpt lat="42.94554890611025" lon="11.573158672641233"><ele>518.0</ele><time>2026-04-22T07:25:56.999Z</time></trkpt><trkpt lat="42.94551247299659" lon="11.573232758276344"><ele>518.0</ele><time>2026-04-22T07:25:57.999Z</time></trkpt><trkpt lat="42.94540292666689" lon="11.57330756864022"><ele>520.8</ele><time>2026-04-22T07:25:59.999Z</time></trkpt><trkpt lat="42.945327587348785" lon="11.57327851253992"><ele>523.5999999999999</ele><time>2026-04-22T07:26:00.999Z</time></trkpt><trkpt lat="42.94523480617488" lon="11.573263086487893"><ele>526.4000000000001</ele><time>2026-04-22T07:26:01.999Z</time></trkpt><trkpt lat="42.94513657603782" lon="11.57326551274223"><ele>529.2</ele><time>2026-04-22T07:26:02.999Z</time></trkpt><trkpt lat="42.945031925206685" lon="11.573235570834326"><ele>532.0</ele><time>2026-04-22T07:26:03.999Z</time></trkpt><trkpt lat="42.94492572418507" lon="11.573253636355597"><ele>533.0</ele><time>2026-04-22T07:26:04.999Z</time></trkpt><trkpt lat="42.944825313953196" lon="11.573309101045181"><ele>534.0</ele><time>2026-04-22T07:26:05.999Z</time></trkpt><trkpt lat="42.94474252195651" lon="11.57340796083196"><ele>535.0</ele><time>2026-04-22T07:26:06.999Z</time></trkpt><trkpt lat="42.94463876801054" lon="11.57349056808673"><ele>536.0</ele><time>2026-04-22T07:26:07.999Z</time></trkpt><trkpt lat="42.94455409328333" lon="11.573596806736264"><ele>537.2</ele><time>2026-04-22T07:26:08.999Z</time></trkpt><trkpt lat="42.944478676293066" lon="11.573701352131993"><ele>538.4000000000001</ele><time>2026-04-22T07:26:09.999Z</time></trkpt><trkpt lat="42.94440375309989" lon="11.573805973630536"><ele>539.6</ele><time>2026-04-22T07:26:10.999Z</time></trkpt><trkpt lat="42.94433220603926" lon="11.573910981108288"><ele>540.8000000000001</ele><time>2026-04-22T07:26:11.999Z</time></trkpt><trkpt lat="42.944258940378305" lon="11.574019626343283"><ele>542.0</ele><time>2026-04-22T07:26:12.999Z</time></trkpt><trkpt lat="42.94419234282823" lon="11.574122217181275"><ele>541.8333333333333</ele><time>2026-04-22T07:26:13.999Z</time></trkpt><trkpt lat="42.944142560733496" lon="11.574219541492269"><ele>541.6666666666666</ele><time>2026-04-22T07:26:14.999Z</time></trkpt><trkpt lat="42.94411236389294" lon="11.574319145376375"><ele>541.5</ele><time>2026-04-22T07:26:15.999Z</time></trkpt><trkpt lat="42.94408571137835" lon="11.574409695311134"><ele>541.3333333333334</ele><time>2026-04-22T07:26:16.999Z</time></trkpt><trkpt lat="42.94410149919352" lon="11.574544663702572"><ele>541.1666666666667</ele><time>2026-04-22T07:26:17.999Z</time></trkpt><trkpt lat="42.94411776113885" lon="11.574684547702361"><ele>541.0</ele><time>2026-04-22T07:26:18.999Z</time></trkpt><trkpt lat="42.94414971210482" lon="11.57483566087625"><ele>541.0</ele><time>2026-04-22T07:26:20Z</time></trkpt><trkpt lat="42.944153294458594" lon="11.57500210678363"><ele>541.0</ele><time>2026-04-22T07:26:21Z</time></trkpt><trkpt lat="42.94415353491371" lon="11.575176907521882"><ele>541.0</ele><time>2026-04-22T07:26:22Z</time></trkpt><trkpt lat="42.944167688381874" lon="11.575366664920224"><ele>541.0</ele><time>2026-04-22T07:26:23Z</time></trkpt><trkpt lat="42.944191537621414" lon="11.575556874826045"><ele>540.0</ele><time>2026-04-22T07:26:24Z</time></trkpt><trkpt lat="42.944219240219404" lon="11.575750879510641"><ele>539.0</ele><time>2026-04-22T07:26:25Z</time></trkpt><trkpt lat="42.9442419992305" lon="11.575940465261855"><ele>538.0</ele><time>2026-04-22T07:26:26Z</time></trkpt><trkpt lat="42.94426069067467" lon="11.576137147168115"><ele>537.0</ele><time>2026-04-22T07:26:27Z</time></trkpt><trkpt lat="42.94427936141635" lon="11.576328997487892"><ele>537.0</ele><time>2026-04-22T07:26:28Z</time></trkpt><trkpt lat="42.94429965528019" lon="11.576529328815935"><ele>537.0</ele><time>2026-04-22T07:26:29Z</time></trkpt><trkpt lat="42.944319550146176" lon="11.576724854177051"><ele>537.0</ele><time>2026-04-22T07:26:30Z</time></trkpt><trkpt lat="42.94433665913029" lon="11.57692406633514"><ele>537.0</ele><time>2026-04-22T07:26:31Z</time></trkpt><trkpt lat="42.94435377555531" lon="11.577119747279003"><ele>537.0</ele><time>2026-04-22T07:26:32Z</time></trkpt><trkpt lat="42.94437476371116" lon="11.577312998091221"><ele>537.0</ele><time>2026-04-22T07:26:33Z</time></trkpt><trkpt lat="42.94439915553709" lon="11.577504959612227"><ele>537.0</ele><time>2026-04-22T07:26:34Z</time></trkpt><trkpt lat="42.94445360021238" lon="11.57768423398025"><ele>537.0</ele><time>2026-04-22T07:26:35Z</time></trkpt><trkpt lat="42.94449980099978" lon="11.577863571193028"><ele>540.25</ele><time>2026-04-22T07:26:36Z</time></trkpt><trkpt lat="42.94456658998762" lon="11.578026435288423"><ele>543.5</ele><time>2026-04-22T07:26:37Z</time></trkpt><trkpt lat="42.94462277607978" lon="11.578193870985547"><ele>546.75</ele><time>2026-04-22T07:26:38Z</time></trkpt><trkpt lat="42.94470563561351" lon="11.578328172572594"><ele>550.0</ele><time>2026-04-22T07:26:39Z</time></trkpt><trkpt lat="42.944746844163134" lon="11.57847853325287"><ele>550.0</ele><time>2026-04-22T07:26:40Z</time></trkpt><trkpt lat="42.94477475007598" lon="11.578601704189783"><ele>550.0</ele><time>2026-04-22T07:26:41Z</time></trkpt><trkpt lat="42.944778930607804" lon="11.57874004262615"><ele>550.0</ele><time>2026-04-22T07:26:42Z</time></trkpt><trkpt lat="42.944775676285204" lon="11.578898495218924"><ele>550.0</ele><time>2026-04-22T07:26:43Z</time></trkpt><trkpt lat="42.944793855123606" lon="11.579063265323711"><ele>550.0</ele><time>2026-04-22T07:26:44Z</time></trkpt><trkpt lat="42.94479836516064" lon="11.579224671657114"><ele>548.6</ele><time>2026-04-22T07:26:45Z</time></trkpt><trkpt lat="42.944819780121975" lon="11.579359509615403"><ele>547.2</ele><time>2026-04-22T07:26:46Z</time></trkpt><trkpt lat="42.94486435537609" lon="11.579469279970006"><ele>545.8</ele><time>2026-04-22T07:26:47Z</time></trkpt><trkpt lat="42.94493617420528" lon="11.579564546611358"><ele>544.4</ele><time>2026-04-22T07:26:48Z</time></trkpt><trkpt lat="42.945025494664094" lon="11.579623559346246"><ele>543.0</ele><time>2026-04-22T07:26:49Z</time></trkpt><trkpt lat="42.945116715431254" lon="11.579708589799216"><ele>543.0</ele><time>2026-04-22T07:26:50Z</time></trkpt><trkpt lat="42.94518406676666" lon="11.579790781006018"><ele>543.0</ele><time>2026-04-22T07:26:51Z</time></trkpt><trkpt lat="42.945224929553625" lon="11.5798921412105"><ele>543.0</ele><time>2026-04-22T07:26:52Z</time></trkpt><trkpt lat="42.945219266028715" lon="11.58000841582074"><ele>543.0</ele><time>2026-04-22T07:26:53Z</time></trkpt><trkpt lat="42.94522266315431" lon="11.580153514786872"><ele>543.0</ele><time>2026-04-22T07:26:54Z</time></trkpt><trkpt lat="42.94521999490845" lon="11.580295896446552"><ele>544.0</ele><time>2026-04-22T07:26:55Z</time></trkpt><trkpt lat="42.9452211974142" lon="11.580451708109628"><ele>545.0</ele><time>2026-04-22T07:26:56Z</time></trkpt><trkpt lat="42.94517539759627" lon="11.580598939481257"><ele>546.0</ele><time>2026-04-22T07:26:57Z</time></trkpt><trkpt lat="42.9451335115106" lon="11.58074547734019"><ele>547.0</ele><time>2026-04-22T07:26:57.999Z</time></trkpt><trkpt lat="42.945066085492996" lon="11.580862524663239"><ele>551.75</ele><time>2026-04-22T07:26:58.999Z</time></trkpt><trkpt lat="42.94499729426909" lon="11.580999465356461"><ele>556.5</ele><time>2026-04-22T07:26:59.999Z</time></trkpt><trkpt lat="42.94493345687603" lon="11.581138144184534"><ele>561.25</ele><time>2026-04-22T07:27:00.999Z</time></trkpt><trkpt lat="42.94488487542828" lon="11.581299914392156"><ele>566.0</ele><time>2026-04-22T07:27:01.999Z</time></trkpt><trkpt lat="42.94482287368015" lon="11.581446336564813"><ele>566.0</ele><time>2026-04-22T07:27:02.999Z</time></trkpt><trkpt lat="42.94476157241597" lon="11.581589433002847"><ele>566.0</ele><time>2026-04-22T07:27:03.999Z</time></trkpt><trkpt lat="42.944684798049586" lon="11.581719456078485"><ele>566.0</ele><time>2026-04-22T07:27:04.999Z</time></trkpt><trkpt lat="42.94462754554291" lon="11.581867830665313"><ele>566.0</ele><time>2026-04-22T07:27:05.999Z</time></trkpt><trkpt lat="42.94456637119429" lon="11.582017122164025"><ele>566.25</ele><time>2026-04-22T07:27:06.999Z</time></trkpt><trkpt lat="42.94451464720407" lon="11.582176390800154"><ele>566.5</ele><time>2026-04-22T07:27:07.999Z</time></trkpt><trkpt lat="42.944486190645705" lon="11.582336890872948"><ele>566.75</ele><time>2026-04-22T07:27:08.999Z</time></trkpt><trkpt lat="42.94448054554797" lon="11.582501699576481"><ele>567.0</ele><time>2026-04-22T07:27:09.999Z</time></trkpt><trkpt lat="42.944493263982714" lon="11.582653394683827"><ele>567.0</ele><time>2026-04-22T07:27:10.999Z</time></trkpt><trkpt lat="42.94453058910197" lon="11.582799496450725"><ele>567.0</ele><time>2026-04-22T07:27:11.999Z</time></trkpt><trkpt lat="42.94458426972147" lon="11.582939185740564"><ele>567.0</ele><time>2026-04-22T07:27:12.999Z</time></trkpt><trkpt lat="42.94465329383461" lon="11.583073709770412"><ele>567.0</ele><time>2026-04-22T07:27:13.999Z</time></trkpt><trkpt lat="42.94469159456293" lon="11.583224828742972"><ele>567.25</ele><time>2026-04-22T07:27:14.999Z</time></trkpt><trkpt lat="42.94473062882024" lon="11.58338472566084"><ele>567.5</ele><time>2026-04-22T07:27:15.999Z</time></trkpt><trkpt lat="42.94475620071082" lon="11.583553839432442"><ele>567.75</ele><time>2026-04-22T07:27:16.999Z</time></trkpt><trkpt lat="42.944759709141906" lon="11.583721252019618"><ele>568.0</ele><time>2026-04-22T07:27:17.999Z</time></trkpt><trkpt lat="42.944737875059204" lon="11.583879892116784"><ele>568.0</ele><time>2026-04-22T07:27:18.999Z</time></trkpt><trkpt lat="42.9447025939587" lon="11.584022023992985"><ele>568.0</ele><time>2026-04-22T07:27:19.999Z</time></trkpt><trkpt lat="42.94465716159588" lon="11.584190213124737"><ele>568.0</ele><time>2026-04-22T07:27:20.999Z</time></trkpt><trkpt lat="42.94460339210246" lon="11.58436375326207"><ele>568.0</ele><time>2026-04-22T07:27:21.999Z</time></trkpt><trkpt lat="42.944543028259076" lon="11.584548683011768"><ele>566.0</ele><time>2026-04-22T07:27:22.999Z</time></trkpt><trkpt lat="42.9444964553148" lon="11.58473758084255"><ele>564.0</ele><time>2026-04-22T07:27:23.999Z</time></trkpt><trkpt lat="42.944440156119974" lon="11.584897933801969"><ele>562.0</ele><time>2026-04-22T07:27:24.999Z</time></trkpt><trkpt lat="42.94440238821528" lon="11.585050513030966"><ele>560.0</ele><time>2026-04-22T07:27:25.999Z</time></trkpt><trkpt lat="42.94437364431286" lon="11.585203666953463"><ele>558.75</ele><time>2026-04-22T07:27:26.999Z</time></trkpt><trkpt lat="42.9443609033065" lon="11.585367314020484"><ele>557.5</ele><time>2026-04-22T07:27:27.999Z</time></trkpt><trkpt lat="42.94435975925796" lon="11.585554226111562"><ele>556.25</ele><time>2026-04-22T07:27:28.999Z</time></trkpt><trkpt lat="42.944358556207085" lon="11.585739658631761"><ele>555.0</ele><time>2026-04-22T07:27:29.999Z</time></trkpt><trkpt lat="42.94436971418027" lon="11.585924468272426"><ele>555.0</ele><time>2026-04-22T07:27:30.999Z</time></trkpt><trkpt lat="42.9443794045801" lon="11.586105007488047"><ele>555.0</ele><time>2026-04-22T07:27:31.999Z</time></trkpt><trkpt lat="42.94438077925368" lon="11.586278454527369"><ele>555.0</ele><time>2026-04-22T07:27:32.999Z</time></trkpt><trkpt lat="42.94437541250409" lon="11.58643196400614"><ele>555.0</ele><time>2026-04-22T07:27:33.999Z</time></trkpt><trkpt lat="42.94438531839586" lon="11.58656263407185"><ele>556.8</ele><time>2026-04-22T07:27:34.999Z</time></trkpt><trkpt lat="42.94440871719246" lon="11.58668100708351"><ele>558.6</ele><time>2026-04-22T07:27:35.999Z</time></trkpt><trkpt lat="42.94445057485544" lon="11.586775454590637"><ele>560.4</ele><time>2026-04-22T07:27:36.999Z</time></trkpt><trkpt lat="42.944516672090245" lon="11.58687059389534"><ele>562.2</ele><time>2026-04-22T07:27:37.999Z</time></trkpt><trkpt lat="42.944566124350985" lon="11.586998729958232"><ele>564.0</ele><time>2026-04-22T07:27:38.999Z</time></trkpt><trkpt lat="42.94460919566257" lon="11.587138573542529"><ele>567.5</ele><time>2026-04-22T07:27:39.999Z</time></trkpt><trkpt lat="42.94464795794327" lon="11.587289929219443"><ele>571.0</ele><time>2026-04-22T07:27:40.999Z</time></trkpt><trkpt lat="42.94467514382247" lon="11.587456818744508"><ele>574.5</ele><time>2026-04-22T07:27:41.999Z</time></trkpt><trkpt lat="42.94468397777901" lon="11.587621696508869"><ele>578.0</ele><time>2026-04-22T07:27:42.999Z</time></trkpt><trkpt lat="42.94468972927085" lon="11.58776852613356"><ele>580.6</ele><time>2026-04-22T07:27:43.999Z</time></trkpt><trkpt lat="42.94469827497512" lon="11.587906566631185"><ele>583.1999999999999</ele><time>2026-04-22T07:27:44.999Z</time></trkpt><trkpt lat="42.944740001826354" lon="11.588034975446389"><ele>585.8</ele><time>2026-04-22T07:27:45.999Z</time></trkpt><trkpt lat="42.94479316529679" lon="11.588168502681933"><ele>588.4</ele><time>2026-04-22T07:27:46.999Z</time></trkpt><trkpt lat="42.94482202813463" lon="11.588304940014336"><ele>591.0</ele><time>2026-04-22T07:27:47.999Z</time></trkpt><trkpt lat="42.94483443645668" lon="11.58841018897929"><ele>591.0</ele><time>2026-04-22T07:27:48.999Z</time></trkpt><trkpt lat="42.944820457402436" lon="11.588501916371651"><ele>591.0</ele><time>2026-04-22T07:27:49.999Z</time></trkpt><trkpt lat="42.944771675898764" lon="11.588592430912925"><ele>591.0</ele><time>2026-04-22T07:27:50.999Z</time></trkpt><trkpt lat="42.944693747899045" lon="11.58866898839541"><ele>591.0</ele><time>2026-04-22T07:27:51.999Z</time></trkpt><trkpt lat="42.94460128485182" lon="11.588747730028603"><ele>591.0</ele><time>2026-04-22T07:27:52.999Z</time></trkpt><trkpt lat="42.94453101378445" lon="11.588846307648296"><ele>594.8</ele><time>2026-04-22T07:27:53.999Z</time></trkpt><trkpt lat="42.944470565186705" lon="11.588919506566363"><ele>598.6</ele><time>2026-04-22T07:27:54.999Z</time></trkpt><trkpt lat="42.944439187892975" lon="11.589044522869711"><ele>602.4</ele><time>2026-04-22T07:27:55.999Z</time></trkpt><trkpt lat="42.944461539364276" lon="11.589197679906288"><ele>606.2</ele><time>2026-04-22T07:27:56.999Z</time></trkpt><trkpt lat="42.944463331873486" lon="11.589337058510338"><ele>610.0</ele><time>2026-04-22T07:27:57.999Z</time></trkpt><trkpt lat="42.94448291231785" lon="11.589488537536589"><ele>610.75</ele><time>2026-04-22T07:27:58.999Z</time></trkpt><trkpt lat="42.94450347012935" lon="11.589630947116689"><ele>611.5</ele><time>2026-04-22T07:27:59.999Z</time></trkpt><trkpt lat="42.944532525498666" lon="11.589783853847738"><ele>612.25</ele><time>2026-04-22T07:28:00.999Z</time></trkpt><trkpt lat="42.94460160628982" lon="11.589919755296131"><ele>613.0</ele><time>2026-04-22T07:28:01.999Z</time></trkpt><trkpt lat="42.94464961577179" lon="11.590072973915028"><ele>613.0</ele><time>2026-04-22T07:28:02.999Z</time></trkpt><trkpt lat="42.94470706632905" lon="11.590214839251152"><ele>613.0</ele><time>2026-04-22T07:28:03.999Z</time></trkpt><trkpt lat="42.944760304313064" lon="11.590464675553415"><ele>613.0</ele><time>2026-04-22T07:28:05.999Z</time></trkpt><trkpt lat="42.94474221152299" lon="11.590576088894894"><ele>613.0</ele><time>2026-04-22T07:28:06.999Z</time></trkpt><trkpt lat="42.94471594833835" lon="11.590696984731384"><ele>612.8</ele><time>2026-04-22T07:28:07.999Z</time></trkpt><trkpt lat="42.944716827256165" lon="11.590839135138708"><ele>612.5999999999999</ele><time>2026-04-22T07:28:08.999Z</time></trkpt><trkpt lat="42.94472543026719" lon="11.590985017367096"><ele>612.4000000000001</ele><time>2026-04-22T07:28:09.999Z</time></trkpt><trkpt lat="42.94474718671946" lon="11.591151800550172"><ele>612.2</ele><time>2026-04-22T07:28:10.999Z</time></trkpt><trkpt lat="42.94471679917967" lon="11.591299615077197"><ele>612.0</ele><time>2026-04-22T07:28:11.999Z</time></trkpt><trkpt lat="42.944687828765844" lon="11.591452873109775"><ele>612.75</ele><time>2026-04-22T07:28:12.999Z</time></trkpt><trkpt lat="42.94465479405151" lon="11.59161620806721"><ele>613.5</ele><time>2026-04-22T07:28:13.999Z</time></trkpt><trkpt lat="42.94462358861012" lon="11.591792650073634"><ele>614.25</ele><time>2026-04-22T07:28:14.999Z</time></trkpt><trkpt lat="42.9445947311642" lon="11.591970542274067"><ele>615.0</ele><time>2026-04-22T07:28:15.999Z</time></trkpt><trkpt lat="42.94457181529999" lon="11.592150661654586"><ele>613.5</ele><time>2026-04-22T07:28:16.999Z</time></trkpt><trkpt lat="42.944546533732364" lon="11.592323686676085"><ele>612.0</ele><time>2026-04-22T07:28:17.999Z</time></trkpt><trkpt lat="42.944510206235435" lon="11.592494846283882"><ele>610.5</ele><time>2026-04-22T07:28:18.999Z</time></trkpt><trkpt lat="42.94447271244918" lon="11.592646645733678"><ele>609.0</ele><time>2026-04-22T07:28:19.999Z</time></trkpt><trkpt lat="42.94444027153845" lon="11.592793380213983"><ele>607.4</ele><time>2026-04-22T07:28:20.999Z</time></trkpt><trkpt lat="42.94441766969705" lon="11.592935074599378"><ele>605.8</ele><time>2026-04-22T07:28:21.999Z</time></trkpt><trkpt lat="42.94440220307518" lon="11.593067889396403"><ele>604.2</ele><time>2026-04-22T07:28:22.999Z</time></trkpt><trkpt lat="42.944395298243094" lon="11.593196260619502"><ele>602.6</ele><time>2026-04-22T07:28:23.999Z</time></trkpt><trkpt lat="42.94442625245553" lon="11.593341661986079"><ele>601.0</ele><time>2026-04-22T07:28:24.999Z</time></trkpt><trkpt lat="42.94446229113554" lon="11.593483718128157"><ele>601.0</ele><time>2026-04-22T07:28:26Z</time></trkpt><trkpt lat="42.94449496509282" lon="11.593628969850654"><ele>601.0</ele><time>2026-04-22T07:28:27Z</time></trkpt><trkpt lat="42.9445220325601" lon="11.593795189317742"><ele>601.0</ele><time>2026-04-22T07:28:28Z</time></trkpt><trkpt lat="42.94451521710229" lon="11.59397035804627"><ele>601.0</ele><time>2026-04-22T07:28:29Z</time></trkpt><trkpt lat="42.944534602571096" lon="11.594139728187747"><ele>600.2</ele><time>2026-04-22T07:28:30Z</time></trkpt><trkpt lat="42.94453452233549" lon="11.594291429980483"><ele>599.4000000000001</ele><time>2026-04-22T07:28:31Z</time></trkpt><trkpt lat="42.94453090423482" lon="11.594420523238352"><ele>598.6</ele><time>2026-04-22T07:28:32Z</time></trkpt><trkpt lat="42.94451905052298" lon="11.594530612241158"><ele>597.8000000000001</ele><time>2026-04-22T07:28:33Z</time></trkpt><trkpt lat="42.94449537307828" lon="11.594639818629416"><ele>597.0</ele><time>2026-04-22T07:28:34Z</time></trkpt><trkpt lat="42.94445918249559" lon="11.594843314307381"><ele>597.0</ele><time>2026-04-22T07:28:36Z</time></trkpt><trkpt lat="42.94442635070047" lon="11.59497064310249"><ele>597.0</ele><time>2026-04-22T07:28:37Z</time></trkpt><trkpt lat="42.94443605992937" lon="11.59510064708336"><ele>597.0</ele><time>2026-04-22T07:28:38Z</time></trkpt><trkpt lat="42.94443462482036" lon="11.59524545162375"><ele>597.0</ele><time>2026-04-22T07:28:39Z</time></trkpt><trkpt lat="42.94444664123927" lon="11.595395875586428"><ele>597.0</ele><time>2026-04-22T07:28:40Z</time></trkpt><trkpt lat="42.94444955856169" lon="11.595531998455266"><ele>598.6</ele><time>2026-04-22T07:28:41Z</time></trkpt><trkpt lat="42.944398164545426" lon="11.595662540824101"><ele>600.2</ele><time>2026-04-22T07:28:42Z</time></trkpt><trkpt lat="42.94433912378031" lon="11.59577963736753"><ele>601.8</ele><time>2026-04-22T07:28:43Z</time></trkpt><trkpt lat="42.944296482589266" lon="11.595894007882295"><ele>603.4</ele><time>2026-04-22T07:28:44Z</time></trkpt><trkpt lat="42.94428603712096" lon="11.596000989273039"><ele>605.0</ele><time>2026-04-22T07:28:45Z</time></trkpt><trkpt lat="42.94433044266406" lon="11.596109262978208"><ele>607.0</ele><time>2026-04-22T07:28:46Z</time></trkpt><trkpt lat="42.94437031310138" lon="11.596222565051843"><ele>609.0</ele><time>2026-04-22T07:28:47Z</time></trkpt><trkpt lat="42.94442173535244" lon="11.596347398200098"><ele>611.0</ele><time>2026-04-22T07:28:48Z</time></trkpt><trkpt lat="42.94447125770102" lon="11.596481004469332"><ele>613.0</ele><time>2026-04-22T07:28:49Z</time></trkpt><trkpt lat="42.94451885464141" lon="11.596627088778838"><ele>615.0</ele><time>2026-04-22T07:28:50Z</time></trkpt><trkpt lat="42.94458161746605" lon="11.596763841031464"><ele>615.0</ele><time>2026-04-22T07:28:51Z</time></trkpt><trkpt lat="42.9446529110772" lon="11.596900475884885"><ele>615.0</ele><time>2026-04-22T07:28:52Z</time></trkpt><trkpt lat="42.944678255985586" lon="11.59704599224316"><ele>615.0</ele><time>2026-04-22T07:28:53Z</time></trkpt><trkpt lat="42.94469665839126" lon="11.597186495281226"><ele>615.0</ele><time>2026-04-22T07:28:54Z</time></trkpt><trkpt lat="42.94470986350784" lon="11.597341600528354"><ele>616.4</ele><time>2026-04-22T07:28:55Z</time></trkpt><trkpt lat="42.944725500497405" lon="11.597492468499315"><ele>617.8</ele><time>2026-04-22T07:28:56Z</time></trkpt><trkpt lat="42.94473993567147" lon="11.597626105193875"><ele>619.2</ele><time>2026-04-22T07:28:57Z</time></trkpt><trkpt lat="42.94475802426" lon="11.597757192119197"><ele>620.6</ele><time>2026-04-22T07:28:58Z</time></trkpt><trkpt lat="42.944788682606934" lon="11.597877928417178"><ele>622.0</ele><time>2026-04-22T07:28:59Z</time></trkpt><trkpt lat="42.94479764965031" lon="11.597990208517508"><ele>624.0</ele><time>2026-04-22T07:29:00Z</time></trkpt><trkpt lat="42.94479023388457" lon="11.598101047397291"><ele>626.0</ele><time>2026-04-22T07:29:01Z</time></trkpt><trkpt lat="42.94473569296632" lon="11.598201470565629"><ele>628.0</ele><time>2026-04-22T07:29:02Z</time></trkpt><trkpt lat="42.944669297965454" lon="11.598273448472618"><ele>630.0</ele><time>2026-04-22T07:29:03Z</time></trkpt><trkpt lat="42.944583403236386" lon="11.598327990625979"><ele>632.0</ele><time>2026-04-22T07:29:04Z</time></trkpt><trkpt lat="42.94449206302267" lon="11.598335410790096"><ele>634.0</ele><time>2026-04-22T07:29:05Z</time></trkpt><trkpt lat="42.94438188128084" lon="11.598356118035957"><ele>634.0</ele><time>2026-04-22T07:29:06Z</time></trkpt><trkpt lat="42.94426779734658" lon="11.598379008587814"><ele>634.0</ele><time>2026-04-22T07:29:06.999Z</time></trkpt><trkpt lat="42.944150870770926" lon="11.598405020194178"><ele>634.0</ele><time>2026-04-22T07:29:07.999Z</time></trkpt><trkpt lat="42.94403424999863" lon="11.598429074305379"><ele>634.0</ele><time>2026-04-22T07:29:08.999Z</time></trkpt><trkpt lat="42.94392026780685" lon="11.598432601263918"><ele>631.4</ele><time>2026-04-22T07:29:09.999Z</time></trkpt><trkpt lat="42.94380041257793" lon="11.598428687870607"><ele>628.8</ele><time>2026-04-22T07:29:10.999Z</time></trkpt><trkpt lat="42.943694957085235" lon="11.598426734920118"><ele>626.2</ele><time>2026-04-22T07:29:11.999Z</time></trkpt><trkpt lat="42.94358544364321" lon="11.598452502748437"><ele>623.6</ele><time>2026-04-22T07:29:12.999Z</time></trkpt><trkpt lat="42.94349988647744" lon="11.598482536545738"><ele>621.0</ele><time>2026-04-22T07:29:13.999Z</time></trkpt><trkpt lat="42.94344180141212" lon="11.598532844824728"><ele>621.0</ele><time>2026-04-22T07:29:14.999Z</time></trkpt><trkpt lat="42.94339456956075" lon="11.598607065912825"><ele>621.0</ele><time>2026-04-22T07:29:15.999Z</time></trkpt><trkpt lat="42.943367503593315" lon="11.598708706830516"><ele>621.0</ele><time>2026-04-22T07:29:16.999Z</time></trkpt><trkpt lat="42.943350587517365" lon="11.598837048418183"><ele>621.0</ele><time>2026-04-22T07:29:17.999Z</time></trkpt><trkpt lat="42.943325162068774" lon="11.598988932473164"><ele>621.0</ele><time>2026-04-22T07:29:18.999Z</time></trkpt><trkpt lat="42.943303043557854" lon="11.599138282238663"><ele>623.8</ele><time>2026-04-22T07:29:19.999Z</time></trkpt><trkpt lat="42.943283391417665" lon="11.599280896252182"><ele>626.6</ele><time>2026-04-22T07:29:20.999Z</time></trkpt><trkpt lat="42.94328559093513" lon="11.599418415000883"><ele>629.4</ele><time>2026-04-22T07:29:21.999Z</time></trkpt><trkpt lat="42.94332280803849" lon="11.599528156425551"><ele>632.2</ele><time>2026-04-22T07:29:22.999Z</time></trkpt><trkpt lat="42.94338285366361" lon="11.599623950916499"><ele>635.0</ele><time>2026-04-22T07:29:23.999Z</time></trkpt><trkpt lat="42.94345407321386" lon="11.599738128533538"><ele>641.0</ele><time>2026-04-22T07:29:24.999Z</time></trkpt><trkpt lat="42.943522920158905" lon="11.599854838668103"><ele>647.0</ele><time>2026-04-22T07:29:25.999Z</time></trkpt><trkpt lat="42.94359508451121" lon="11.599977920328298"><ele>653.0</ele><time>2026-04-22T07:29:26.999Z</time></trkpt><trkpt lat="42.943679899891926" lon="11.60010281133015"><ele>659.0</ele><time>2026-04-22T07:29:27.999Z</time></trkpt><trkpt lat="42.94375195679047" lon="11.600246224867231"><ele>659.0</ele><time>2026-04-22T07:29:28.999Z</time></trkpt><trkpt lat="42.943817922587336" lon="11.600385283038504"><ele>659.0</ele><time>2026-04-22T07:29:29.999Z</time></trkpt><trkpt lat="42.94388043633178" lon="11.60051750185463"><ele>659.0</ele><time>2026-04-22T07:29:30.999Z</time></trkpt><trkpt lat="42.94394052602352" lon="11.600645368749309"><ele>659.0</ele><time>2026-04-22T07:29:31.999Z</time></trkpt><trkpt lat="42.94398381040646" lon="11.600758169688767"><ele>659.0</ele><time>2026-04-22T07:29:32.999Z</time></trkpt><trkpt lat="42.94400937023889" lon="11.600861905635751"><ele>659.0</ele><time>2026-04-22T07:29:33.999Z</time></trkpt><trkpt lat="42.943984135558125" lon="11.600972928228806"><ele>659.0</ele><time>2026-04-22T07:29:34.999Z</time></trkpt><trkpt lat="42.94395131754482" lon="11.60107679834629"><ele>659.0</ele><time>2026-04-22T07:29:35.999Z</time></trkpt><trkpt lat="42.94392492763125" lon="11.601184522437713"><ele>659.0</ele><time>2026-04-22T07:29:36.999Z</time></trkpt><trkpt lat="42.943893013978766" lon="11.601314794348442"><ele>659.0</ele><time>2026-04-22T07:29:37.999Z</time></trkpt><trkpt lat="42.943875585509716" lon="11.601457289947092"><ele>660.8000000000001</ele><time>2026-04-22T07:29:38.999Z</time></trkpt><trkpt lat="42.943843997034904" lon="11.601590928343107"><ele>662.6</ele><time>2026-04-22T07:29:39.999Z</time></trkpt><trkpt lat="42.94379565073154" lon="11.601727037968544"><ele>664.4</ele><time>2026-04-22T07:29:40.999Z</time></trkpt><trkpt lat="42.94374084235748" lon="11.60186794613563"><ele>666.2</ele><time>2026-04-22T07:29:41.999Z</time></trkpt><trkpt lat="42.94369308893872" lon="11.602004951000632"><ele>668.0</ele><time>2026-04-22T07:29:42.999Z</time></trkpt><trkpt lat="42.94367112712716" lon="11.6021570083443"><ele>669.8</ele><time>2026-04-22T07:29:43.999Z</time></trkpt><trkpt lat="42.943643286336815" lon="11.602310680073968"><ele>671.5999999999999</ele><time>2026-04-22T07:29:44.999Z</time></trkpt><trkpt lat="42.94358727045012" lon="11.602432434948518"><ele>673.4000000000001</ele><time>2026-04-22T07:29:45.999Z</time></trkpt><trkpt lat="42.94352748598132" lon="11.602531574308596"><ele>675.2</ele><time>2026-04-22T07:29:46.999Z</time></trkpt><trkpt lat="42.94345573843307" lon="11.602608360377674"><ele>677.0</ele><time>2026-04-22T07:29:47.999Z</time></trkpt><trkpt lat="42.94338368937558" lon="11.602674961678359"><ele>674.1666666666666</ele><time>2026-04-22T07:29:48.999Z</time></trkpt><trkpt lat="42.94330744437387" lon="11.60270595701961"><ele>671.3333333333333</ele><time>2026-04-22T07:29:49.999Z</time></trkpt><trkpt lat="42.94322403742612" lon="11.60268371969644"><ele>668.5</ele><time>2026-04-22T07:29:50.999Z</time></trkpt><trkpt lat="42.9431260394793" lon="11.602656894772663"><ele>665.6666666666666</ele><time>2026-04-22T07:29:51.999Z</time></trkpt><trkpt lat="42.94303323758719" lon="11.602650026704737"><ele>662.8333333333334</ele><time>2026-04-22T07:29:52.999Z</time></trkpt><trkpt lat="42.94296701157774" lon="11.602717595543616"><ele>660.0</ele><time>2026-04-22T07:29:53.999Z</time></trkpt><trkpt lat="42.94290903866361" lon="11.602786640519932"><ele>663.8</ele><time>2026-04-22T07:29:54.999Z</time></trkpt><trkpt lat="42.942875432779495" lon="11.602899804999277"><ele>667.6</ele><time>2026-04-22T07:29:55.999Z</time></trkpt><trkpt lat="42.94290050896711" lon="11.603052159589762"><ele>671.4000000000001</ele><time>2026-04-22T07:29:56.999Z</time></trkpt><trkpt lat="42.942913339859466" lon="11.603193419951053"><ele>675.2</ele><time>2026-04-22T07:29:57.999Z</time></trkpt><trkpt lat="42.942895410302704" lon="11.603338168716055"><ele>679.0</ele><time>2026-04-22T07:29:58.999Z</time></trkpt><trkpt lat="42.94287450808249" lon="11.60347039330741"><ele>679.0</ele><time>2026-04-22T07:29:59.999Z</time></trkpt><trkpt lat="42.94285845651534" lon="11.603597974757543"><ele>679.0</ele><time>2026-04-22T07:30:00.999Z</time></trkpt><trkpt lat="42.94283685327327" lon="11.603820357839298"><ele>679.0</ele><time>2026-04-22T07:30:01.999Z</time></trkpt><trkpt lat="42.94281926780217" lon="11.603984462105505"><ele>679.0</ele><time>2026-04-22T07:30:02.999Z</time></trkpt><trkpt lat="42.94280903453854" lon="11.604161018668224"><ele>682.25</ele><time>2026-04-22T07:30:03.999Z</time></trkpt><trkpt lat="42.94277779347331" lon="11.604340292571365"><ele>685.5</ele><time>2026-04-22T07:30:04.999Z</time></trkpt><trkpt lat="42.94273857234518" lon="11.604518699509525"><ele>688.75</ele><time>2026-04-22T07:30:05.999Z</time></trkpt><trkpt lat="42.942702044627104" lon="11.604693221203961"><ele>692.0</ele><time>2026-04-22T07:30:06.999Z</time></trkpt><trkpt lat="42.94268479763441" lon="11.604839602215867"><ele>692.5</ele><time>2026-04-22T07:30:07.999Z</time></trkpt><trkpt lat="42.94269269240012" lon="11.604986648686642"><ele>693.0</ele><time>2026-04-22T07:30:08.999Z</time></trkpt><trkpt lat="42.942719328568074" lon="11.605147730940311"><ele>693.5</ele><time>2026-04-22T07:30:09.999Z</time></trkpt><trkpt lat="42.942743389405074" lon="11.60531424270952"><ele>694.0</ele><time>2026-04-22T07:30:10.999Z</time></trkpt><trkpt lat="42.94275973660149" lon="11.605446910767085"><ele>694.0</ele><time>2026-04-22T07:30:11.999Z</time></trkpt><trkpt lat="42.94278332194304" lon="11.605546011945851"><ele>694.0</ele><time>2026-04-22T07:30:12.999Z</time></trkpt><trkpt lat="42.942876797376506" lon="11.60567776453546"><ele>694.0</ele><time>2026-04-22T07:30:14.999Z</time></trkpt><trkpt lat="42.942959464495914" lon="11.605738120833564"><ele>694.0</ele><time>2026-04-22T07:30:15.999Z</time></trkpt><trkpt lat="42.943064026390296" lon="11.60581850534199"><ele>694.0</ele><time>2026-04-22T07:30:16.999Z</time></trkpt><trkpt lat="42.943175734742425" lon="11.605897026679058"><ele>694.0</ele><time>2026-04-22T07:30:17.999Z</time></trkpt><trkpt lat="42.943282902243986" lon="11.605973755158084"><ele>694.0</ele><time>2026-04-22T07:30:18.999Z</time></trkpt><trkpt lat="42.94337202739346" lon="11.60604099235102"><ele>694.0</ele><time>2026-04-22T07:30:19.999Z</time></trkpt><trkpt lat="42.94345596286207" lon="11.60609621458923"><ele>694.0</ele><time>2026-04-22T07:30:20.999Z</time></trkpt><trkpt lat="42.9435267271818" lon="11.606167903671365"><ele>694.0</ele><time>2026-04-22T07:30:21.999Z</time></trkpt><trkpt lat="42.943542000638274" lon="11.606291577337752"><ele>695.2</ele><time>2026-04-22T07:30:22.999Z</time></trkpt><trkpt lat="42.94350764374172" lon="11.606414927929755"><ele>696.4000000000001</ele><time>2026-04-22T07:30:23.999Z</time></trkpt><trkpt lat="42.943480024193725" lon="11.606523449897768"><ele>697.6</ele><time>2026-04-22T07:30:24.999Z</time></trkpt><trkpt lat="42.9434220901668" lon="11.606637797839253"><ele>698.8</ele><time>2026-04-22T07:30:25.999Z</time></trkpt><trkpt lat="42.94336775852394" lon="11.606763422297384"><ele>700.0</ele><time>2026-04-22T07:30:26.999Z</time></trkpt><trkpt lat="42.94335781729463" lon="11.606890553866373"><ele>703.2</ele><time>2026-04-22T07:30:27.999Z</time></trkpt><trkpt lat="42.943403184042936" lon="11.607005678360812"><ele>706.4</ele><time>2026-04-22T07:30:28.999Z</time></trkpt><trkpt lat="42.94345524636386" lon="11.607093180271463"><ele>709.5999999999999</ele><time>2026-04-22T07:30:29.999Z</time></trkpt><trkpt lat="42.94350182036072" lon="11.607210500466179"><ele>712.8</ele><time>2026-04-22T07:30:31Z</time></trkpt><trkpt lat="42.94357772366819" lon="11.607313153151269"><ele>716.0</ele><time>2026-04-22T07:30:32Z</time></trkpt><trkpt lat="42.94364635295708" lon="11.607445885134531"><ele>716.0</ele><time>2026-04-22T07:30:33Z</time></trkpt><trkpt lat="42.943714900544634" lon="11.607573177042665"><ele>716.0</ele><time>2026-04-22T07:30:34Z</time></trkpt><trkpt lat="42.943788371798064" lon="11.607697937245351"><ele>716.0</ele><time>2026-04-22T07:30:35Z</time></trkpt><trkpt lat="42.943879396576065" lon="11.60783020603872"><ele>716.0</ele><time>2026-04-22T07:30:36Z</time></trkpt><trkpt lat="42.94397634006107" lon="11.607959129216935"><ele>716.0</ele><time>2026-04-22T07:30:37Z</time></trkpt><trkpt lat="42.94406502647478" lon="11.608085106845648"><ele>716.0</ele><time>2026-04-22T07:30:38Z</time></trkpt><trkpt lat="42.944148405748365" lon="11.608205691967225"><ele>716.0</ele><time>2026-04-22T07:30:39Z</time></trkpt><trkpt lat="42.94421363519078" lon="11.608307893943952"><ele>716.0</ele><time>2026-04-22T07:30:40Z</time></trkpt><trkpt lat="42.944230112003524" lon="11.608408708431272"><ele>716.0</ele><time>2026-04-22T07:30:41Z</time></trkpt><trkpt lat="42.944251447805485" lon="11.608510012204865"><ele>716.0</ele><time>2026-04-22T07:30:42Z</time></trkpt><trkpt lat="42.944221084769765" lon="11.608614521009152"><ele>716.0</ele><time>2026-04-22T07:30:43Z</time></trkpt><trkpt lat="42.94416709405487" lon="11.608701824589799"><ele>716.0</ele><time>2026-04-22T07:30:44Z</time></trkpt><trkpt lat="42.94407655375103" lon="11.608781441681732"><ele>716.0</ele><time>2026-04-22T07:30:45Z</time></trkpt><trkpt lat="42.94399290657541" lon="11.608897896154634"><ele>716.0</ele><time>2026-04-22T07:30:46Z</time></trkpt><trkpt lat="42.94389632894536" lon="11.609003465525415"><ele>716.4</ele><time>2026-04-22T07:30:47Z</time></trkpt><trkpt lat="42.943801313486915" lon="11.60909890247403"><ele>716.8</ele><time>2026-04-22T07:30:48Z</time></trkpt><trkpt lat="42.94369606972659" lon="11.609171294248675"><ele>717.1999999999999</ele><time>2026-04-22T07:30:49Z</time></trkpt><trkpt lat="42.94359356616187" lon="11.609177362228243"><ele>717.5999999999999</ele><time>2026-04-22T07:30:50Z</time></trkpt><trkpt lat="42.94349421878675" lon="11.609189997992726"><ele>718.0</ele><time>2026-04-22T07:30:51Z</time></trkpt><trkpt lat="42.94339183845352" lon="11.609188460179466"><ele>720.5</ele><time>2026-04-22T07:30:52Z</time></trkpt><trkpt lat="42.9432835670817" lon="11.609183742009556"><ele>723.0</ele><time>2026-04-22T07:30:53Z</time></trkpt><trkpt lat="42.943172437842996" lon="11.60920214792412"><ele>725.5</ele><time>2026-04-22T07:30:54Z</time></trkpt><trkpt lat="42.943060447664394" lon="11.609187872337182"><ele>728.0</ele><time>2026-04-22T07:30:55Z</time></trkpt><trkpt lat="42.94288127494305" lon="11.60923410178055"><ele>728.0</ele><time>2026-04-22T07:30:57Z</time></trkpt><trkpt lat="42.94281521476708" lon="11.609293607436165"><ele>728.0</ele><time>2026-04-22T07:30:58Z</time></trkpt><trkpt lat="42.94276042946961" lon="11.609372646668543"><ele>728.0</ele><time>2026-04-22T07:30:59Z</time></trkpt><trkpt lat="42.94275870862209" lon="11.609501829578985"><ele>728.0</ele><time>2026-04-22T07:31:00Z</time></trkpt><trkpt lat="42.94276362603883" lon="11.609640613793776"><ele>728.0</ele><time>2026-04-22T07:31:01Z</time></trkpt><trkpt lat="42.942781597055" lon="11.60978001339592"><ele>728.0</ele><time>2026-04-22T07:31:02Z</time></trkpt><trkpt lat="42.94279785951806" lon="11.609941654015243"><ele>728.0</ele><time>2026-04-22T07:31:03Z</time></trkpt><trkpt lat="42.94281594642337" lon="11.610107005837019"><ele>728.0</ele><time>2026-04-22T07:31:04Z</time></trkpt><trkpt lat="42.942826402408315" lon="11.610274800891078"><ele>728.0</ele><time>2026-04-22T07:31:05Z</time></trkpt><trkpt lat="42.94284143015603" lon="11.610449962964413"><ele>728.0</ele><time>2026-04-22T07:31:06Z</time></trkpt><trkpt lat="42.94285895249282" lon="11.61060677387336"><ele>728.0</ele><time>2026-04-22T07:31:07Z</time></trkpt><trkpt lat="42.94283735832242" lon="11.61072581809096"><ele>728.0</ele><time>2026-04-22T07:31:08Z</time></trkpt><trkpt lat="42.942828040364304" lon="11.610841502063426"><ele>728.0</ele><time>2026-04-22T07:31:09Z</time></trkpt><trkpt lat="42.94275005011456" lon="11.610943004341944"><ele>728.0</ele><time>2026-04-22T07:31:10Z</time></trkpt><trkpt lat="42.942695480168545" lon="11.611040408462957"><ele>728.0</ele><time>2026-04-22T07:31:11Z</time></trkpt><trkpt lat="42.94262113525957" lon="11.611104844370212"><ele>728.0</ele><time>2026-04-22T07:31:12Z</time></trkpt><trkpt lat="42.94252823674018" lon="11.611153039004183"><ele>728.0</ele><time>2026-04-22T07:31:13Z</time></trkpt><trkpt lat="42.9424125630233" lon="11.611180628983668"><ele>728.0</ele><time>2026-04-22T07:31:14Z</time></trkpt><trkpt lat="42.94228697782541" lon="11.611161549440526"><ele>728.0</ele><time>2026-04-22T07:31:15Z</time></trkpt><trkpt lat="42.942170953959945" lon="11.611086528652496"><ele>733.75</ele><time>2026-04-22T07:31:16Z</time></trkpt><trkpt lat="42.94204546157027" lon="11.611017909246428"><ele>739.5</ele><time>2026-04-22T07:31:17Z</time></trkpt><trkpt lat="42.94190060184237" lon="11.610953131570966"><ele>745.25</ele><time>2026-04-22T07:31:18Z</time></trkpt><trkpt lat="42.941775225852595" lon="11.610873800149287"><ele>751.0</ele><time>2026-04-22T07:31:19Z</time></trkpt><trkpt lat="42.94167801321772" lon="11.610817205932623"><ele>752.4</ele><time>2026-04-22T07:31:20Z</time></trkpt><trkpt lat="42.94159501772802" lon="11.610786521320177"><ele>753.8</ele><time>2026-04-22T07:31:21Z</time></trkpt><trkpt lat="42.94151440029909" lon="11.610744455311611"><ele>755.1999999999999</ele><time>2026-04-22T07:31:22Z</time></trkpt><trkpt lat="42.94141202578017" lon="11.61077519134413"><ele>756.5999999999999</ele><time>2026-04-22T07:31:23Z</time></trkpt><trkpt lat="42.94132301315322" lon="11.610899245099692"><ele>758.0</ele><time>2026-04-22T07:31:24Z</time></trkpt><trkpt lat="42.94124613565664" lon="11.611040323115551"><ele>755.3333333333333</ele><time>2026-04-22T07:31:25Z</time></trkpt><trkpt lat="42.94118354172534" lon="11.611196224705253"><ele>752.6666666666666</ele><time>2026-04-22T07:31:26Z</time></trkpt><trkpt lat="42.94107848935072" lon="11.611499640810413"><ele>750.0</ele><time>2026-04-22T07:31:27.999Z</time></trkpt><trkpt lat="42.94104338067067" lon="11.611669502554934"><ele>750.0</ele><time>2026-04-22T07:31:28.999Z</time></trkpt><trkpt lat="42.9410197510786" lon="11.611844357832075"><ele>750.0</ele><time>2026-04-22T07:31:29.999Z</time></trkpt><trkpt lat="42.94101119826996" lon="11.61202757459708"><ele>750.0</ele><time>2026-04-22T07:31:30.999Z</time></trkpt><trkpt lat="42.94102162385006" lon="11.612217012034424"><ele>750.0</ele><time>2026-04-22T07:31:31.999Z</time></trkpt><trkpt lat="42.94102111361154" lon="11.612396699294168"><ele>750.0</ele><time>2026-04-22T07:31:32.999Z</time></trkpt><trkpt lat="42.941033044734354" lon="11.612545010666151"><ele>750.0</ele><time>2026-04-22T07:31:33.999Z</time></trkpt><trkpt lat="42.94102819954123" lon="11.612675441600377"><ele>750.0</ele><time>2026-04-22T07:31:34.999Z</time></trkpt><trkpt lat="42.94100343074867" lon="11.612813984100365"><ele>750.0</ele><time>2026-04-22T07:31:35.999Z</time></trkpt><trkpt lat="42.940958434609826" lon="11.612939424805106"><ele>750.0</ele><time>2026-04-22T07:31:36.999Z</time></trkpt><trkpt lat="42.94089682989465" lon="11.613037069384106"><ele>753.6</ele><time>2026-04-22T07:31:37.999Z</time></trkpt><trkpt lat="42.94082187067949" lon="11.61309942256045"><ele>757.2</ele><time>2026-04-22T07:31:38.999Z</time></trkpt><trkpt lat="42.94073484789028" lon="11.613160929296209"><ele>760.8</ele><time>2026-04-22T07:31:39.999Z</time></trkpt><trkpt lat="42.940631471341966" lon="11.613206714264054"><ele>764.4</ele><time>2026-04-22T07:31:40.999Z</time></trkpt><trkpt lat="42.94053077071949" lon="11.613288938234394"><ele>768.0</ele><time>2026-04-22T07:31:41.999Z</time></trkpt><trkpt lat="42.94042387800675" lon="11.61336888845248"><ele>768.0</ele><time>2026-04-22T07:31:42.999Z</time></trkpt><trkpt lat="42.940321081824834" lon="11.61346469770166"><ele>768.0</ele><time>2026-04-22T07:31:43.999Z</time></trkpt><trkpt lat="42.94021549823747" lon="11.613570108242712"><ele>768.0</ele><time>2026-04-22T07:31:44.999Z</time></trkpt><trkpt lat="42.94010125725582" lon="11.613691461278844"><ele>768.0</ele><time>2026-04-22T07:31:45.999Z</time></trkpt><trkpt lat="42.939983462731405" lon="11.61380816874572"><ele>770.25</ele><time>2026-04-22T07:31:46.999Z</time></trkpt><trkpt lat="42.939855877200536" lon="11.613910129584399"><ele>772.5</ele><time>2026-04-22T07:31:47.999Z</time></trkpt><trkpt lat="42.939733252119034" lon="11.614023361216548"><ele>774.75</ele><time>2026-04-22T07:31:48.999Z</time></trkpt><trkpt lat="42.939611048495415" lon="11.61413620370803"><ele>777.0</ele><time>2026-04-22T07:31:49.999Z</time></trkpt><trkpt lat="42.93948668920107" lon="11.614254748351648"><ele>777.0</ele><time>2026-04-22T07:31:50.999Z</time></trkpt><trkpt lat="42.9393652743244" lon="11.61437717734896"><ele>777.0</ele><time>2026-04-22T07:31:51.999Z</time></trkpt><trkpt lat="42.939250225587074" lon="11.614495248160857"><ele>777.0</ele><time>2026-04-22T07:31:52.999Z</time></trkpt><trkpt lat="42.93913574901462" lon="11.614611902836211"><ele>777.0</ele><time>2026-04-22T07:31:53.999Z</time></trkpt><trkpt lat="42.93902810883631" lon="11.614719991511933"><ele>778.4000000000001</ele><time>2026-04-22T07:31:54.999Z</time></trkpt><trkpt lat="42.93893945651915" lon="11.61480805955303"><ele>779.8000000000001</ele><time>2026-04-22T07:31:55.999Z</time></trkpt><trkpt lat="42.938873926491254" lon="11.614888790890491"><ele>781.2</ele><time>2026-04-22T07:31:56.999Z</time></trkpt><trkpt lat="42.93883405163785" lon="11.614984925728368"><ele>782.6</ele><time>2026-04-22T07:31:57.999Z</time></trkpt><trkpt lat="42.938846554312356" lon="11.61513247700447"><ele>784.0</ele><time>2026-04-22T07:31:58.999Z</time></trkpt><trkpt lat="42.938866672220755" lon="11.615269145726288"><ele>785.5</ele><time>2026-04-22T07:31:59.999Z</time></trkpt><trkpt lat="42.93886876355972" lon="11.615414038189938"><ele>787.0</ele><time>2026-04-22T07:32:00.999Z</time></trkpt><trkpt lat="42.93888413205138" lon="11.615564084995107"><ele>788.5</ele><time>2026-04-22T07:32:01.999Z</time></trkpt><trkpt lat="42.93890111655495" lon="11.61573105709251"><ele>790.0</ele><time>2026-04-22T07:32:02.999Z</time></trkpt><trkpt lat="42.93891656802631" lon="11.615912925958144"><ele>790.0</ele><time>2026-04-22T07:32:03.999Z</time></trkpt><trkpt lat="42.93892983654261" lon="11.616099488705869"><ele>790.0</ele><time>2026-04-22T07:32:04.999Z</time></trkpt><trkpt lat="42.938938987873925" lon="11.616258619999979"><ele>790.0</ele><time>2026-04-22T07:32:05.999Z</time></trkpt><trkpt lat="42.938941764444365" lon="11.616390177501321"><ele>790.0</ele><time>2026-04-22T07:32:06.999Z</time></trkpt><trkpt lat="42.938940580850534" lon="11.616512610844955"><ele>790.0</ele><time>2026-04-22T07:32:07.999Z</time></trkpt><trkpt lat="42.93894524515896" lon="11.616648770479864"><ele>790.5</ele><time>2026-04-22T07:32:08.999Z</time></trkpt><trkpt lat="42.938901641445085" lon="11.61680153827004"><ele>791.0</ele><time>2026-04-22T07:32:09.999Z</time></trkpt><trkpt lat="42.93886200161525" lon="11.616963297309182"><ele>791.5</ele><time>2026-04-22T07:32:10.999Z</time></trkpt><trkpt lat="42.938811109820044" lon="11.617105726310365"><ele>792.0</ele><time>2026-04-22T07:32:11.999Z</time></trkpt><trkpt lat="42.93876616978399" lon="11.617260947664025"><ele>792.0</ele><time>2026-04-22T07:32:12.999Z</time></trkpt><trkpt lat="42.938692520500425" lon="11.617400719361548"><ele>792.0</ele><time>2026-04-22T07:32:13.999Z</time></trkpt><trkpt lat="42.93862174886612" lon="11.617548466887861"><ele>792.0</ele><time>2026-04-22T07:32:14.999Z</time></trkpt><trkpt lat="42.938562690468885" lon="11.617707404803228"><ele>792.0</ele><time>2026-04-22T07:32:15.999Z</time></trkpt><trkpt lat="42.93852241560963" lon="11.617865365469674"><ele>790.0</ele><time>2026-04-22T07:32:16.999Z</time></trkpt><trkpt lat="42.93846164093367" lon="11.6179986978105"><ele>788.0</ele><time>2026-04-22T07:32:17.999Z</time></trkpt><trkpt lat="42.9384115084996" lon="11.618122717348394"><ele>786.0</ele><time>2026-04-22T07:32:18.999Z</time></trkpt><trkpt lat="42.93835531897241" lon="11.618236176321814"><ele>784.0</ele><time>2026-04-22T07:32:19.999Z</time></trkpt><trkpt lat="42.938268253970925" lon="11.61835103617557"><ele>782.0</ele><time>2026-04-22T07:32:20.999Z</time></trkpt><trkpt lat="42.93817295604446" lon="11.618447388744844"><ele>787.5</ele><time>2026-04-22T07:32:21.999Z</time></trkpt><trkpt lat="42.938059970148934" lon="11.618524903406158"><ele>793.0</ele><time>2026-04-22T07:32:22.999Z</time></trkpt><trkpt lat="42.93792257104299" lon="11.618591653887975"><ele>798.5</ele><time>2026-04-22T07:32:23.999Z</time></trkpt><trkpt lat="42.937784066359356" lon="11.618643581826692"><ele>804.0</ele><time>2026-04-22T07:32:24.999Z</time></trkpt><trkpt lat="42.93765905575206" lon="11.61868977392183"><ele>806.0</ele><time>2026-04-22T07:32:25.999Z</time></trkpt><trkpt lat="42.93754037509999" lon="11.61870197765281"><ele>808.0</ele><time>2026-04-22T07:32:26.999Z</time></trkpt><trkpt lat="42.937409483032916" lon="11.618705387127134"><ele>810.0</ele><time>2026-04-22T07:32:27.999Z</time></trkpt><trkpt lat="42.93726684198614" lon="11.6187029333698"><ele>812.0</ele><time>2026-04-22T07:32:28.999Z</time></trkpt><trkpt lat="42.93711608988762" lon="11.618699528459741"><ele>812.0</ele><time>2026-04-22T07:32:29.999Z</time></trkpt><trkpt lat="42.93697569162292" lon="11.61870279449719"><ele>812.0</ele><time>2026-04-22T07:32:30.999Z</time></trkpt><trkpt lat="42.93682824803806" lon="11.61871441441165"><ele>812.0</ele><time>2026-04-22T07:32:31.999Z</time></trkpt><trkpt lat="42.9366861322843" lon="11.618725612285331"><ele>812.0</ele><time>2026-04-22T07:32:32.999Z</time></trkpt><trkpt lat="42.936561423880605" lon="11.618753812631557"><ele>814.4000000000001</ele><time>2026-04-22T07:32:33.999Z</time></trkpt><trkpt lat="42.936446165354816" lon="11.618801837281957"><ele>816.8000000000001</ele><time>2026-04-22T07:32:34.999Z</time></trkpt><trkpt lat="42.936352169825625" lon="11.61886146747825"><ele>819.2</ele><time>2026-04-22T07:32:35.999Z</time></trkpt><trkpt lat="42.93628536232893" lon="11.61893480950756"><ele>821.6</ele><time>2026-04-22T07:32:37Z</time></trkpt><trkpt lat="42.93622532771693" lon="11.619028406523473"><ele>824.0</ele><time>2026-04-22T07:32:38Z</time></trkpt><trkpt lat="42.93621948448355" lon="11.619182016921833"><ele>824.0</ele><time>2026-04-22T07:32:39Z</time></trkpt><trkpt lat="42.936218705334014" lon="11.619337294448645"><ele>824.0</ele><time>2026-04-22T07:32:40Z</time></trkpt><trkpt lat="42.936206786457134" lon="11.619478299690657"><ele>824.0</ele><time>2026-04-22T07:32:41Z</time></trkpt><trkpt lat="42.93619086394008" lon="11.619592097657904"><ele>824.0</ele><time>2026-04-22T07:32:42Z</time></trkpt><trkpt lat="42.93615644653799" lon="11.619691666838019"><ele>824.0</ele><time>2026-04-22T07:32:43Z</time></trkpt><trkpt lat="42.936080115207496" lon="11.619749998772924"><ele>824.5</ele><time>2026-04-22T07:32:44Z</time></trkpt><trkpt lat="42.93599203356171" lon="11.6197717063724"><ele>825.0</ele><time>2026-04-22T07:32:45Z</time></trkpt><trkpt lat="42.935880663116585" lon="11.619765979479606"><ele>825.5</ele><time>2026-04-22T07:32:46Z</time></trkpt><trkpt lat="42.935755665219574" lon="11.61973394483136"><ele>826.0</ele><time>2026-04-22T07:32:47Z</time></trkpt><trkpt lat="42.9356223608753" lon="11.619691599147338"><ele>829.75</ele><time>2026-04-22T07:32:48Z</time></trkpt><trkpt lat="42.93549915569557" lon="11.619658980188886"><ele>833.5</ele><time>2026-04-22T07:32:49Z</time></trkpt><trkpt lat="42.93537178864843" lon="11.619630463515374"><ele>837.25</ele><time>2026-04-22T07:32:50Z</time></trkpt><trkpt lat="42.935240331684064" lon="11.619600139619596"><ele>841.0</ele><time>2026-04-22T07:32:51Z</time></trkpt><trkpt lat="42.93511364739682" lon="11.619569713823065"><ele>842.6666666666666</ele><time>2026-04-22T07:32:52Z</time></trkpt><trkpt lat="42.934997332556414" lon="11.619544223932486"><ele>844.3333333333333</ele><time>2026-04-22T07:32:53Z</time></trkpt><trkpt lat="42.934899157152365" lon="11.619524719733404"><ele>846.0</ele><time>2026-04-22T07:32:54Z</time></trkpt><trkpt lat="42.9348325197268" lon="11.619517400748226"><ele>847.6666666666667</ele><time>2026-04-22T07:32:55Z</time></trkpt><trkpt lat="42.93476056087119" lon="11.619518028899465"><ele>849.3333333333334</ele><time>2026-04-22T07:33:15Z</time></trkpt><trkpt lat="42.93469473939202" lon="11.61954110085778"><ele>851.0</ele><time>2026-04-22T07:33:17Z</time></trkpt><trkpt lat="42.93456566778396" lon="11.619608869364688"><ele>851.0</ele><time>2026-04-22T07:33:19Z</time></trkpt><trkpt lat="42.93448671297643" lon="11.619634193867878"><ele>851.0</ele><time>2026-04-22T07:33:20Z</time></trkpt><trkpt lat="42.9344029376059" lon="11.619660847446355"><ele>851.0</ele><time>2026-04-22T07:33:21Z</time></trkpt><trkpt lat="42.934312877337405" lon="11.619687346234363"><ele>851.0</ele><time>2026-04-22T07:33:22Z</time></trkpt><trkpt lat="42.93422094341699" lon="11.619718014522507"><ele>851.0</ele><time>2026-04-22T07:33:23Z</time></trkpt><trkpt lat="42.934127931465966" lon="11.619750971312058"><ele>851.0</ele><time>2026-04-22T07:33:24Z</time></trkpt><trkpt lat="42.93403565955926" lon="11.61979179906476"><ele>851.0</ele><time>2026-04-22T07:33:25Z</time></trkpt><trkpt lat="42.93394587968585" lon="11.61984551586922"><ele>851.0</ele><time>2026-04-22T07:33:26Z</time></trkpt><trkpt lat="42.93386696713152" lon="11.61991263666852"><ele>851.0</ele><time>2026-04-22T07:33:27Z</time></trkpt><trkpt lat="42.93379316052631" lon="11.619993150469272"><ele>851.0</ele><time>2026-04-22T07:33:28Z</time></trkpt><trkpt lat="42.9337257143275" lon="11.620089287261285"><ele>851.0</ele><time>2026-04-22T07:33:29Z</time></trkpt><trkpt lat="42.93365239454384" lon="11.620183669463932"><ele>851.0</ele><time>2026-04-22T07:33:30Z</time></trkpt><trkpt lat="42.933558959614544" lon="11.620257422351761"><ele>851.0</ele><time>2026-04-22T07:33:31Z</time></trkpt><trkpt lat="42.93348496992597" lon="11.620359330327886"><ele>851.0</ele><time>2026-04-22T07:33:32Z</time></trkpt><trkpt lat="42.93338980318281" lon="11.620447793926937"><ele>851.0</ele><time>2026-04-22T07:33:33Z</time></trkpt><trkpt lat="42.93329187825892" lon="11.620537396123291"><ele>850.75</ele><time>2026-04-22T07:33:34Z</time></trkpt><trkpt lat="42.93319078595016" lon="11.620625119727517"><ele>850.5</ele><time>2026-04-22T07:33:35Z</time></trkpt><trkpt lat="42.93308997054066" lon="11.620715751661814"><ele>850.25</ele><time>2026-04-22T07:33:36Z</time></trkpt><trkpt lat="42.932990365051076" lon="11.620807764767452"><ele>850.0</ele><time>2026-04-22T07:33:37Z</time></trkpt><trkpt lat="42.93289268827027" lon="11.620899075287891"><ele>850.0</ele><time>2026-04-22T07:33:38Z</time></trkpt><trkpt lat="42.9327983877236" lon="11.62098692962653"><ele>850.0</ele><time>2026-04-22T07:33:39Z</time></trkpt><trkpt lat="42.932708126456625" lon="11.621074285998125"><ele>850.0</ele><time>2026-04-22T07:33:40Z</time></trkpt><trkpt lat="42.932543996464986" lon="11.621251094217747"><ele>850.0</ele><time>2026-04-22T07:33:41.999Z</time></trkpt><trkpt lat="42.932465001363845" lon="11.621355717154133"><ele>853.5</ele><time>2026-04-22T07:33:42.999Z</time></trkpt><trkpt lat="42.932388475836156" lon="11.621464154905103"><ele>857.0</ele><time>2026-04-22T07:33:43.999Z</time></trkpt><trkpt lat="42.932305697638405" lon="11.621567347655096"><ele>860.5</ele><time>2026-04-22T07:33:44.999Z</time></trkpt><trkpt lat="42.93221286388073" lon="11.621663394625113"><ele>864.0</ele><time>2026-04-22T07:33:45.999Z</time></trkpt><trkpt lat="42.93211571686574" lon="11.621740029191633"><ele>864.0</ele><time>2026-04-22T07:33:46.999Z</time></trkpt><trkpt lat="42.93201861345485" lon="11.621812956537122"><ele>864.0000000000001</ele><time>2026-04-22T07:33:47.999Z</time></trkpt><trkpt lat="42.93193119693515" lon="11.621873221016157"><ele>864.0000000000001</ele><time>2026-04-22T07:33:48.999Z</time></trkpt><trkpt lat="42.93185063646268" lon="11.621924406792239"><ele>864.0</ele><time>2026-04-22T07:33:49.999Z</time></trkpt><trkpt lat="42.931765032070786" lon="11.621981087635596"><ele>864.0</ele><time>2026-04-22T07:33:50.999Z</time></trkpt><trkpt lat="42.931675933107094" lon="11.622037024548192"><ele>863.2</ele><time>2026-04-22T07:33:51.999Z</time></trkpt><trkpt lat="42.931577970910666" lon="11.622073863639814"><ele>862.4000000000001</ele><time>2026-04-22T07:33:52.999Z</time></trkpt><trkpt lat="42.9314815105829" lon="11.622092425115767"><ele>861.6</ele><time>2026-04-22T07:33:53.999Z</time></trkpt><trkpt lat="42.93138641275167" lon="11.62208971135854"><ele>860.8</ele><time>2026-04-22T07:33:54.999Z</time></trkpt><trkpt lat="42.93129194656469" lon="11.622082500082954"><ele>860.0</ele><time>2026-04-22T07:33:55.999Z</time></trkpt><trkpt lat="42.93119535753162" lon="11.622074377521063"><ele>860.0</ele><time>2026-04-22T07:33:56.999Z</time></trkpt><trkpt lat="42.931103167653724" lon="11.622058915448015"><ele>860.0</ele><time>2026-04-22T07:33:57.999Z</time></trkpt><trkpt lat="42.93101076700703" lon="11.622050842601912"><ele>860.0</ele><time>2026-04-22T07:33:58.999Z</time></trkpt><trkpt lat="42.9309130447383" lon="11.622044826081865"><ele>860.0</ele><time>2026-04-22T07:33:59.999Z</time></trkpt><trkpt lat="42.9308081562812" lon="11.622032356394755"><ele>860.0</ele><time>2026-04-22T07:34:00.999Z</time></trkpt><trkpt lat="42.9307121675328" lon="11.622024535378932"><ele>861.0</ele><time>2026-04-22T07:34:01.999Z</time></trkpt><trkpt lat="42.93061275328872" lon="11.622022407316821"><ele>862.0</ele><time>2026-04-22T07:34:02.999Z</time></trkpt><trkpt lat="42.930514506802226" lon="11.622019706568656"><ele>863.0</ele><time>2026-04-22T07:34:03.999Z</time></trkpt><trkpt lat="42.93041582713425" lon="11.622036989669937"><ele>864.0</ele><time>2026-04-22T07:34:04.999Z</time></trkpt><trkpt lat="42.93031363143696" lon="11.622055804288228"><ele>865.0</ele><time>2026-04-22T07:34:05.999Z</time></trkpt><trkpt lat="42.930211068613396" lon="11.622085002875087"><ele>864.9999999999999</ele><time>2026-04-22T07:34:06.999Z</time></trkpt><trkpt lat="42.930124338118475" lon="11.622114092653508"><ele>865.0</ele><time>2026-04-22T07:34:07.999Z</time></trkpt><trkpt lat="42.93004874471891" lon="11.622130085012873"><ele>865.0</ele><time>2026-04-22T07:34:08.999Z</time></trkpt><trkpt lat="42.92998578080883" lon="11.622138140275881"><ele>865.0</ele><time>2026-04-22T07:34:09.999Z</time></trkpt><trkpt lat="42.929890193376366" lon="11.62215279944614"><ele>864.9999999999999</ele><time>2026-04-22T07:34:11.999Z</time></trkpt><trkpt lat="42.92981983282721" lon="11.622202907795742"><ele>865.0</ele><time>2026-04-22T07:34:14.999Z</time></trkpt><trkpt lat="42.929747907358276" lon="11.622242129720771"><ele>865.9999999999999</ele><time>2026-04-22T07:34:32.999Z</time></trkpt><trkpt lat="42.929769650105094" lon="11.622396255900018"><ele>867.0</ele><time>2026-04-22T07:34:33.999Z</time></trkpt><trkpt lat="42.92976552098841" lon="11.622495454863628"><ele>868.0</ele><time>2026-04-22T07:34:34.999Z</time></trkpt><trkpt lat="42.929746910704516" lon="11.622598740003967"><ele>869.0</ele><time>2026-04-22T07:34:35.999Z</time></trkpt><trkpt lat="42.92971987257494" lon="11.622711627922968"><ele>869.9999999999999</ele><time>2026-04-22T07:34:36.999Z</time></trkpt><trkpt lat="42.9296831101413" lon="11.622832766518895"><ele>871.0</ele><time>2026-04-22T07:34:37.999Z</time></trkpt><trkpt lat="42.92963780330467" lon="11.622962066709523"><ele>871.0</ele><time>2026-04-22T07:34:38.999Z</time></trkpt><trkpt lat="42.92959148195804" lon="11.623099592149648"><ele>871.0</ele><time>2026-04-22T07:34:39.999Z</time></trkpt><trkpt lat="42.92955150918743" lon="11.6232452216714"><ele>871.0</ele><time>2026-04-22T07:34:40.999Z</time></trkpt><trkpt lat="42.92952597529618" lon="11.62340995861639"><ele>871.0</ele><time>2026-04-22T07:34:41.999Z</time></trkpt><trkpt lat="42.92951262806361" lon="11.62357576359867"><ele>871.0</ele><time>2026-04-22T07:34:43Z</time></trkpt><trkpt lat="42.92952328556519" lon="11.623738140091552"><ele>871.0</ele><time>2026-04-22T07:34:44Z</time></trkpt><trkpt lat="42.92955895372737" lon="11.623898053270871"><ele>871.0</ele><time>2026-04-22T07:34:45Z</time></trkpt><trkpt lat="42.92961872670109" lon="11.624057852257415"><ele>871.0</ele><time>2026-04-22T07:34:46Z</time></trkpt><trkpt lat="42.92969336592142" lon="11.62420980950081"><ele>871.0</ele><time>2026-04-22T07:34:47Z</time></trkpt><trkpt lat="42.92976958357783" lon="11.624365693082131"><ele>871.0</ele><time>2026-04-22T07:34:48Z</time></trkpt><trkpt lat="42.92983809355688" lon="11.624527840019947"><ele>871.0</ele><time>2026-04-22T07:34:49Z</time></trkpt><trkpt lat="42.9298901444309" lon="11.62469505037749"><ele>871.0</ele><time>2026-04-22T07:34:50Z</time></trkpt><trkpt lat="42.9299283429512" lon="11.624863410269006"><ele>870.5</ele><time>2026-04-22T07:34:51Z</time></trkpt><trkpt lat="42.92994615184207" lon="11.6250433848187"><ele>870.0</ele><time>2026-04-22T07:34:52Z</time></trkpt><trkpt lat="42.929939978387125" lon="11.625229894893467"><ele>869.5</ele><time>2026-04-22T07:34:53Z</time></trkpt><trkpt lat="42.92991753149754" lon="11.625402844210775"><ele>869.0</ele><time>2026-04-22T07:34:54Z</time></trkpt><trkpt lat="42.92987707817209" lon="11.625574372797757"><ele>867.75</ele><time>2026-04-22T07:34:55Z</time></trkpt><trkpt lat="42.92981794737327" lon="11.625741805412137"><ele>866.5</ele><time>2026-04-22T07:34:56Z</time></trkpt><trkpt lat="42.929740718104405" lon="11.62589921181147"><ele>865.25</ele><time>2026-04-22T07:34:57Z</time></trkpt><trkpt lat="42.929648642276284" lon="11.626042344848532"><ele>864.0</ele><time>2026-04-22T07:34:58Z</time></trkpt><trkpt lat="42.92954886809134" lon="11.62617771770682"><ele>863.5</ele><time>2026-04-22T07:34:59Z</time></trkpt><trkpt lat="42.92944830835218" lon="11.626312824228526"><ele>863.0</ele><time>2026-04-22T07:35:00Z</time></trkpt><trkpt lat="42.929346250772475" lon="11.626448952809199"><ele>862.5</ele><time>2026-04-22T07:35:01Z</time></trkpt><trkpt lat="42.92923686097945" lon="11.626575228078066"><ele>862.0</ele><time>2026-04-22T07:35:02Z</time></trkpt><trkpt lat="42.92912099845564" lon="11.626695785768895"><ele>862.3333333333333</ele><time>2026-04-22T07:35:03Z</time></trkpt><trkpt lat="42.92899859235823" lon="11.626812136315255"><ele>862.6666666666667</ele><time>2026-04-22T07:35:04Z</time></trkpt><trkpt lat="42.928874684382926" lon="11.626930416549218"><ele>863.0</ele><time>2026-04-22T07:35:05Z</time></trkpt><trkpt lat="42.92874974027178" lon="11.627046948565045"><ele>863.0</ele><time>2026-04-22T07:35:06Z</time></trkpt><trkpt lat="42.92862535023333" lon="11.627157494452801"><ele>863.0</ele><time>2026-04-22T07:35:07Z</time></trkpt><trkpt lat="42.928498406399015" lon="11.627265036479074"><ele>863.0</ele><time>2026-04-22T07:35:08Z</time></trkpt><trkpt lat="42.928367683620635" lon="11.627364623790251"><ele>863.0</ele><time>2026-04-22T07:35:09Z</time></trkpt><trkpt lat="42.92823145083302" lon="11.627455218806748"><ele>865.3333333333334</ele><time>2026-04-22T07:35:10Z</time></trkpt><trkpt lat="42.928091468252845" lon="11.627533820600524"><ele>867.6666666666667</ele><time>2026-04-22T07:35:11Z</time></trkpt><trkpt lat="42.9279460294962" lon="11.627604915002278"><ele>870.0</ele><time>2026-04-22T07:35:12Z</time></trkpt><trkpt lat="42.92779968446387" lon="11.627668132185923"><ele>870.0</ele><time>2026-04-22T07:35:13Z</time></trkpt><trkpt lat="42.92765500413683" lon="11.627729789135206"><ele>870.0</ele><time>2026-04-22T07:35:14Z</time></trkpt><trkpt lat="42.92751263464542" lon="11.627791679592702"><ele>870.0</ele><time>2026-04-22T07:35:15Z</time></trkpt><trkpt lat="42.92737014686911" lon="11.627850722019753"><ele>869.0</ele><time>2026-04-22T07:35:16Z</time></trkpt><trkpt lat="42.92722979812153" lon="11.627912489384896"><ele>868.0</ele><time>2026-04-22T07:35:17Z</time></trkpt><trkpt lat="42.92709330649099" lon="11.627977620703817"><ele>867.0</ele><time>2026-04-22T07:35:18Z</time></trkpt><trkpt lat="42.92695797563484" lon="11.628044451570085"><ele>866.0</ele><time>2026-04-22T07:35:19Z</time></trkpt><trkpt lat="42.926826203772215" lon="11.628116145870381"><ele>867.75</ele><time>2026-04-22T07:35:20Z</time></trkpt><trkpt lat="42.92670080564534" lon="11.628203412982808"><ele>869.5</ele><time>2026-04-22T07:35:21Z</time></trkpt><trkpt lat="42.92658172820626" lon="11.62831236953884"><ele>871.25</ele><time>2026-04-22T07:35:22Z</time></trkpt><trkpt lat="42.92646547531419" lon="11.628429711748277"><ele>873.0</ele><time>2026-04-22T07:35:23Z</time></trkpt><trkpt lat="42.92635279814619" lon="11.62855600447503"><ele>868.6666666666667</ele><time>2026-04-22T07:35:24Z</time></trkpt><trkpt lat="42.92624018838866" lon="11.628694950340057"><ele>864.3333333333334</ele><time>2026-04-22T07:35:25Z</time></trkpt><trkpt lat="42.92612777291545" lon="11.628835652900603"><ele>860.0</ele><time>2026-04-22T07:35:26Z</time></trkpt><trkpt lat="42.92601765527099" lon="11.628980636502522"><ele>860.0</ele><time>2026-04-22T07:35:27Z</time></trkpt><trkpt lat="42.92590789726116" lon="11.629122062877697"><ele>860.0</ele><time>2026-04-22T07:35:28Z</time></trkpt><trkpt lat="42.9257988404311" lon="11.62925428169273"><ele>860.0</ele><time>2026-04-22T07:35:29Z</time></trkpt><trkpt lat="42.9257047358959" lon="11.629373589362753"><ele>860.0</ele><time>2026-04-22T07:35:30Z</time></trkpt><trkpt lat="42.92561865232577" lon="11.629483676968375"><ele>862.75</ele><time>2026-04-22T07:35:31Z</time></trkpt><trkpt lat="42.92553289824083" lon="11.629584977613852"><ele>865.5</ele><time>2026-04-22T07:35:32Z</time></trkpt><trkpt lat="42.92544629507877" lon="11.629678438103184"><ele>868.25</ele><time>2026-04-22T07:35:33Z</time></trkpt><trkpt lat="42.92534780598794" lon="11.629762716595042"><ele>871.0</ele><time>2026-04-22T07:35:34Z</time></trkpt><trkpt lat="42.92523959173977" lon="11.629836812585909"><ele>871.0</ele><time>2026-04-22T07:35:35Z</time></trkpt><trkpt lat="42.925124493887125" lon="11.629900940485676"><ele>871.0</ele><time>2026-04-22T07:35:36Z</time></trkpt><trkpt lat="42.92500582839207" lon="11.6299609319462"><ele>871.0</ele><time>2026-04-22T07:35:37Z</time></trkpt><trkpt lat="42.92489537455387" lon="11.630046072729641"><ele>871.0</ele><time>2026-04-22T07:35:38Z</time></trkpt><trkpt lat="42.924790880156316" lon="11.630140418513705"><ele>874.5</ele><time>2026-04-22T07:35:39Z</time></trkpt><trkpt lat="42.924732810049775" lon="11.630287601942277"><ele>878.0</ele><time>2026-04-22T07:35:40Z</time></trkpt><trkpt lat="42.924683991911785" lon="11.630434660355807"><ele>881.5</ele><time>2026-04-22T07:35:41Z</time></trkpt><trkpt lat="42.92465840755893" lon="11.63059204445681"><ele>885.0</ele><time>2026-04-22T07:35:42Z</time></trkpt><trkpt lat="42.924661272495804" lon="11.630760503946702"><ele>885.0</ele><time>2026-04-22T07:35:43Z</time></trkpt><trkpt lat="42.92468403883333" lon="11.630939199134142"><ele>885.0</ele><time>2026-04-22T07:35:44Z</time></trkpt><trkpt lat="42.92470923704077" lon="11.631122607293301"><ele>885.0</ele><time>2026-04-22T07:35:45Z</time></trkpt><trkpt lat="42.92473387809105" lon="11.631312960422834"><ele>885.0</ele><time>2026-04-22T07:35:46Z</time></trkpt><trkpt lat="42.924754822662926" lon="11.631513039596456"><ele>885.3333333333333</ele><time>2026-04-22T07:35:47Z</time></trkpt><trkpt lat="42.92477784902979" lon="11.63171818244365"><ele>885.6666666666666</ele><time>2026-04-22T07:35:48Z</time></trkpt><trkpt lat="42.92480369770856" lon="11.63192588091999"><ele>886.0</ele><time>2026-04-22T07:35:49Z</time></trkpt><trkpt lat="42.924808922705566" lon="11.632125840466218"><ele>886.75</ele><time>2026-04-22T07:35:50Z</time></trkpt><trkpt lat="42.924836053598064" lon="11.63231408847879"><ele>887.5</ele><time>2026-04-22T07:35:51Z</time></trkpt><trkpt lat="42.924818699356855" lon="11.632493963919257"><ele>888.25</ele><time>2026-04-22T07:35:52Z</time></trkpt><trkpt lat="42.92475714477758" lon="11.632639190915086"><ele>889.0</ele><time>2026-04-22T07:35:53Z</time></trkpt><trkpt lat="42.92470702088494" lon="11.632788832854919"><ele>889.5</ele><time>2026-04-22T07:35:54Z</time></trkpt><trkpt lat="42.924649465110335" lon="11.63294136144545"><ele>890.0</ele><time>2026-04-22T07:35:54.999Z</time></trkpt><trkpt lat="42.9246514341464" lon="11.63311380998694"><ele>890.5</ele><time>2026-04-22T07:35:55.999Z</time></trkpt><trkpt lat="42.92471583625794" lon="11.63324766464135"><ele>891.0</ele><time>2026-04-22T07:35:56.999Z</time></trkpt><trkpt lat="42.924782782372944" lon="11.633365852892071"><ele>891.0</ele><time>2026-04-22T07:35:57.999Z</time></trkpt><trkpt lat="42.924860267416705" lon="11.633472168465183"><ele>890.9999999999999</ele><time>2026-04-22T07:35:58.999Z</time></trkpt><trkpt lat="42.92492153531231" lon="11.633586616977746"><ele>890.9999999999999</ele><time>2026-04-22T07:35:59.999Z</time></trkpt><trkpt lat="42.92495596172505" lon="11.633729007914125"><ele>891.0</ele><time>2026-04-22T07:36:00.999Z</time></trkpt><trkpt lat="42.92494913090396" lon="11.633862470544235"><ele>891.0</ele><time>2026-04-22T07:36:01.999Z</time></trkpt><trkpt lat="42.924930109045995" lon="11.633983223470343"><ele>892.0</ele><time>2026-04-22T07:36:02.999Z</time></trkpt><trkpt lat="42.92488711026045" lon="11.634104136655914"><ele>892.9999999999999</ele><time>2026-04-22T07:36:03.999Z</time></trkpt><trkpt lat="42.92486120054588" lon="11.634246482247047"><ele>893.9999999999999</ele><time>2026-04-22T07:36:04.999Z</time></trkpt><trkpt lat="42.92486261183391" lon="11.63440588291657"><ele>895.0</ele><time>2026-04-22T07:36:05.999Z</time></trkpt><trkpt lat="42.92486599023658" lon="11.634571765896343"><ele>896.0</ele><time>2026-04-22T07:36:06.999Z</time></trkpt><trkpt lat="42.92490145009488" lon="11.634740037723644"><ele>895.25</ele><time>2026-04-22T07:36:07.999Z</time></trkpt><trkpt lat="42.924970763955216" lon="11.6348958163596"><ele>894.5</ele><time>2026-04-22T07:36:08.999Z</time></trkpt><trkpt lat="42.92507111477199" lon="11.63501975821172"><ele>893.75</ele><time>2026-04-22T07:36:09.999Z</time></trkpt><trkpt lat="42.92519405762616" lon="11.635102816974218"><ele>893.0</ele><time>2026-04-22T07:36:10.999Z</time></trkpt><trkpt lat="42.92532511863212" lon="11.635149630694265"><ele>893.0</ele><time>2026-04-22T07:36:11.999Z</time></trkpt><trkpt lat="42.92545756733849" lon="11.635201463164618"><ele>893.0</ele><time>2026-04-22T07:36:12.999Z</time></trkpt><trkpt lat="42.92557945981944" lon="11.635294623570472"><ele>893.0</ele><time>2026-04-22T07:36:13.999Z</time></trkpt><trkpt lat="42.92568928768362" lon="11.635403899138526"><ele>893.0</ele><time>2026-04-22T07:36:14.999Z</time></trkpt><trkpt lat="42.92575366201865" lon="11.635537920028145"><ele>894.2</ele><time>2026-04-22T07:36:15.999Z</time></trkpt><trkpt lat="42.92577354103672" lon="11.635668108998503"><ele>895.4</ele><time>2026-04-22T07:36:16.999Z</time></trkpt><trkpt lat="42.92578233822791" lon="11.635804977200829"><ele>896.6000000000001</ele><time>2026-04-22T07:36:17.999Z</time></trkpt><trkpt lat="42.925754528357594" lon="11.635935995072847"><ele>897.8000000000001</ele><time>2026-04-22T07:36:18.999Z</time></trkpt><trkpt lat="42.92569210606799" lon="11.636057464497338"><ele>899.0</ele><time>2026-04-22T07:36:19.999Z</time></trkpt><trkpt lat="42.92561140258046" lon="11.636156484508557"><ele>899.0</ele><time>2026-04-22T07:36:20.999Z</time></trkpt><trkpt lat="42.92552525711371" lon="11.636252179571942"><ele>899.0</ele><time>2026-04-22T07:36:21.999Z</time></trkpt><trkpt lat="42.925430420498884" lon="11.636357399743126"><ele>899.0</ele><time>2026-04-22T07:36:22.999Z</time></trkpt><trkpt lat="42.92531600691974" lon="11.636482495662689"><ele>899.0</ele><time>2026-04-22T07:36:23.999Z</time></trkpt><trkpt lat="42.925228674905306" lon="11.636620555967275"><ele>899.0</ele><time>2026-04-22T07:36:24.999Z</time></trkpt><trkpt lat="42.925154179035054" lon="11.636768037803375"><ele>899.0</ele><time>2026-04-22T07:36:25.999Z</time></trkpt><trkpt lat="42.92511839099149" lon="11.636936529464643"><ele>899.0</ele><time>2026-04-22T07:36:26.999Z</time></trkpt><trkpt lat="42.9251103216605" lon="11.63711563084949"><ele>899.0</ele><time>2026-04-22T07:36:27.999Z</time></trkpt><trkpt lat="42.925135690050126" lon="11.637293331351513"><ele>900.75</ele><time>2026-04-22T07:36:28.999Z</time></trkpt><trkpt lat="42.925185112121014" lon="11.637464296342001"><ele>902.5</ele><time>2026-04-22T07:36:29.999Z</time></trkpt><trkpt lat="42.92525211781182" lon="11.637629596865331"><ele>904.25</ele><time>2026-04-22T07:36:30.999Z</time></trkpt><trkpt lat="42.92534335813808" lon="11.637759085505238"><ele>906.0</ele><time>2026-04-22T07:36:31.999Z</time></trkpt><trkpt lat="42.92545001845677" lon="11.637842283640094"><ele>905.75</ele><time>2026-04-22T07:36:32.999Z</time></trkpt><trkpt lat="42.925581903386686" lon="11.637884876572153"><ele>905.5</ele><time>2026-04-22T07:36:33.999Z</time></trkpt><trkpt lat="42.92572197344011" lon="11.637918696155776"><ele>905.25</ele><time>2026-04-22T07:36:34.999Z</time></trkpt><trkpt lat="42.92585072880169" lon="11.637996407234011"><ele>905.0</ele><time>2026-04-22T07:36:35.999Z</time></trkpt><trkpt lat="42.92595596843338" lon="11.638118480613647"><ele>905.0</ele><time>2026-04-22T07:36:36.999Z</time></trkpt><trkpt lat="42.92606377887596" lon="11.638264278653002"><ele>905.0</ele><time>2026-04-22T07:36:37.999Z</time></trkpt><trkpt lat="42.92617552945485" lon="11.638417471891753"><ele>905.0</ele><time>2026-04-22T07:36:38.999Z</time></trkpt><trkpt lat="42.9262899567033" lon="11.638571828245155"><ele>908.6666666666667</ele><time>2026-04-22T07:36:39.999Z</time></trkpt><trkpt lat="42.92640918043747" lon="11.638732158379835"><ele>912.3333333333333</ele><time>2026-04-22T07:36:40.999Z</time></trkpt><trkpt lat="42.926529541199805" lon="11.63886986068254"><ele>916.0</ele><time>2026-04-22T07:36:41.999Z</time></trkpt><trkpt lat="42.926635996204936" lon="11.639006506472288"><ele>916.75</ele><time>2026-04-22T07:36:42.999Z</time></trkpt><trkpt lat="42.92674757781338" lon="11.63910405655547"><ele>917.5</ele><time>2026-04-22T07:36:43.999Z</time></trkpt><trkpt lat="42.926868834449934" lon="11.639151800375696"><ele>918.25</ele><time>2026-04-22T07:36:44.999Z</time></trkpt><trkpt lat="42.92699446801784" lon="11.639153367862425"><ele>919.0</ele><time>2026-04-22T07:36:45.999Z</time></trkpt><trkpt lat="42.9271180764457" lon="11.639112683259649"><ele>919.0</ele><time>2026-04-22T07:36:46.999Z</time></trkpt><trkpt lat="42.92723880981762" lon="11.63904810522686"><ele>919.0</ele><time>2026-04-22T07:36:47.999Z</time></trkpt><trkpt lat="42.927368407146794" lon="11.638988892327301"><ele>919.0</ele><time>2026-04-22T07:36:49Z</time></trkpt><trkpt lat="42.927506183199775" lon="11.638936837192322"><ele>919.0</ele><time>2026-04-22T07:36:50Z</time></trkpt><trkpt lat="42.927652999319285" lon="11.638896807390362"><ele>919.6666666666666</ele><time>2026-04-22T07:36:51Z</time></trkpt><trkpt lat="42.92779696297116" lon="11.638827480250878"><ele>920.3333333333333</ele><time>2026-04-22T07:36:52Z</time></trkpt><trkpt lat="42.92794522157182" lon="11.63876391434026"><ele>921.0</ele><time>2026-04-22T07:36:53Z</time></trkpt><trkpt lat="42.928088773631615" lon="11.638696649900039"><ele>916.75</ele><time>2026-04-22T07:36:54Z</time></trkpt><trkpt lat="42.92822562328411" lon="11.638608309985202"><ele>912.5</ele><time>2026-04-22T07:36:55Z</time></trkpt><trkpt lat="42.92836629572942" lon="11.638548639532392"><ele>908.25</ele><time>2026-04-22T07:36:56Z</time></trkpt><trkpt lat="42.92849970005398" lon="11.638472924881862"><ele>904.0</ele><time>2026-04-22T07:36:57Z</time></trkpt><trkpt lat="42.92863014751705" lon="11.638376406604372"><ele>903.5</ele><time>2026-04-22T07:36:58Z</time></trkpt><trkpt lat="42.92876185559524" lon="11.638301952622811"><ele>903.0</ele><time>2026-04-22T07:36:59Z</time></trkpt><trkpt lat="42.928896582809834" lon="11.638247670917828"><ele>902.5</ele><time>2026-04-22T07:37:00Z</time></trkpt><trkpt lat="42.92902211739925" lon="11.638174052497696"><ele>902.0</ele><time>2026-04-22T07:37:01Z</time></trkpt><trkpt lat="42.929140622164745" lon="11.638082509391003"><ele>900.5</ele><time>2026-04-22T07:37:02Z</time></trkpt><trkpt lat="42.92926914459525" lon="11.638028850394665"><ele>899.0</ele><time>2026-04-22T07:37:03Z</time></trkpt><trkpt lat="42.92940456942309" lon="11.638028989938578"><ele>897.5</ele><time>2026-04-22T07:37:04Z</time></trkpt><trkpt lat="42.9295473534116" lon="11.638010956912387"><ele>896.0</ele><time>2026-04-22T07:37:05Z</time></trkpt><trkpt lat="42.92969655893785" lon="11.637996619856402"><ele>896.0</ele><time>2026-04-22T07:37:06Z</time></trkpt><trkpt lat="42.929852299104354" lon="11.637987945660065"><ele>896.0</ele><time>2026-04-22T07:37:07Z</time></trkpt><trkpt lat="42.93001178932619" lon="11.637991435748713"><ele>896.0</ele><time>2026-04-22T07:37:08Z</time></trkpt><trkpt lat="42.93018118761706" lon="11.638000135752879"><ele>893.0</ele><time>2026-04-22T07:37:09Z</time></trkpt><trkpt lat="42.93034977135116" lon="11.638010059905465"><ele>890.0</ele><time>2026-04-22T07:37:10Z</time></trkpt><trkpt lat="42.930511442227214" lon="11.638019896852857"><ele>887.0</ele><time>2026-04-22T07:37:11Z</time></trkpt><trkpt lat="42.930667486589265" lon="11.63803081207055"><ele>887.0</ele><time>2026-04-22T07:37:12Z</time></trkpt><trkpt lat="42.930808973593706" lon="11.638040379588443"><ele>887.0</ele><time>2026-04-22T07:37:13Z</time></trkpt><trkpt lat="42.93092931632671" lon="11.638045315237543"><ele>887.0</ele><time>2026-04-22T07:37:14Z</time></trkpt><trkpt lat="42.931030042084174" lon="11.638062774476314"><ele>887.0</ele><time>2026-04-22T07:37:15Z</time></trkpt><trkpt lat="42.93111642437217" lon="11.638083672871266"><ele>885.6666666666667</ele><time>2026-04-22T07:37:16Z</time></trkpt><trkpt lat="42.93116872771828" lon="11.638188589198894"><ele>884.3333333333334</ele><time>2026-04-22T07:37:17Z</time></trkpt><trkpt lat="42.93119720467242" lon="11.638302827456922"><ele>883.0</ele><time>2026-04-22T07:37:18Z</time></trkpt><trkpt lat="42.93120658202019" lon="11.638417812567868"><ele>881.6666666666667</ele><time>2026-04-22T07:37:19Z</time></trkpt><trkpt lat="42.93118213173658" lon="11.638525717963864"><ele>880.3333333333334</ele><time>2026-04-22T07:37:20Z</time></trkpt><trkpt lat="42.931136711880434" lon="11.638631307503882"><ele>879.0</ele><time>2026-04-22T07:37:21Z</time></trkpt><trkpt lat="42.931082567940805" lon="11.638760901842574"><ele>878.25</ele><time>2026-04-22T07:37:22Z</time></trkpt><trkpt lat="42.93099664048244" lon="11.638888095971652"><ele>877.5</ele><time>2026-04-22T07:37:23Z</time></trkpt><trkpt lat="42.93090701948559" lon="11.639010908903897"><ele>876.75</ele><time>2026-04-22T07:37:24Z</time></trkpt><trkpt lat="42.930821812723046" lon="11.639134128180734"><ele>876.0</ele><time>2026-04-22T07:37:25Z</time></trkpt><trkpt lat="42.9307591415122" lon="11.639278689900431"><ele>876.0</ele><time>2026-04-22T07:37:26Z</time></trkpt><trkpt lat="42.93072893149215" lon="11.639435797632347"><ele>876.0</ele><time>2026-04-22T07:37:27Z</time></trkpt><trkpt lat="42.930697082687715" lon="11.639583774452145"><ele>876.0</ele><time>2026-04-22T07:37:28Z</time></trkpt><trkpt lat="42.93066905575148" lon="11.6397359689892"><ele>876.0</ele><time>2026-04-22T07:37:29Z</time></trkpt><trkpt lat="42.93063972118949" lon="11.639886149906763"><ele>875.1999999999999</ele><time>2026-04-22T07:37:30Z</time></trkpt><trkpt lat="42.93063055788237" lon="11.640046408637938"><ele>874.3999999999999</ele><time>2026-04-22T07:37:31Z</time></trkpt><trkpt lat="42.93061200626056" lon="11.64019998044774"><ele>873.6</ele><time>2026-04-22T07:37:32Z</time></trkpt><trkpt lat="42.9305836936683" lon="11.640340606187998"><ele>872.8</ele><time>2026-04-22T07:37:33Z</time></trkpt><trkpt lat="42.930536361354086" lon="11.640464122111894"><ele>872.0</ele><time>2026-04-22T07:37:34Z</time></trkpt><trkpt lat="42.9304552731824" lon="11.640540367503158"><ele>872.0</ele><time>2026-04-22T07:37:35Z</time></trkpt><trkpt lat="42.9303724061452" lon="11.640693514840622"><ele>872.0</ele><time>2026-04-22T07:37:37Z</time></trkpt><trkpt lat="42.930396997201946" lon="11.640786496879395"><ele>872.0</ele><time>2026-04-22T07:37:38Z</time></trkpt><trkpt lat="42.93045167038236" lon="11.640902394767183"><ele>872.0</ele><time>2026-04-22T07:37:40Z</time></trkpt><trkpt lat="42.9305128574798" lon="11.6409507448092"><ele>872.0</ele><time>2026-04-22T07:37:41Z</time></trkpt><trkpt lat="42.930590847992626" lon="11.640966091654892"><ele>872.0</ele><time>2026-04-22T07:37:42Z</time></trkpt><trkpt lat="42.930670576954164" lon="11.640874029339297"><ele>872.0</ele><time>2026-04-22T07:37:43Z</time></trkpt><trkpt lat="42.9307279817481" lon="11.640806694094513"><ele>872.0</ele><time>2026-04-22T07:37:44Z</time></trkpt><trkpt lat="42.930798119626914" lon="11.640730179764832"><ele>872.0</ele><time>2026-04-22T07:37:45Z</time></trkpt><trkpt lat="42.9308833771993" lon="11.640674525970255"><ele>872.0</ele><time>2026-04-22T07:37:46Z</time></trkpt><trkpt lat="42.93096880440142" lon="11.640617035641288"><ele>872.8</ele><time>2026-04-22T07:37:47Z</time></trkpt><trkpt lat="42.93106823505445" lon="11.64058865199125"><ele>873.6</ele><time>2026-04-22T07:37:48Z</time></trkpt><trkpt lat="42.93117137800111" lon="11.640569846911205"><ele>874.3999999999999</ele><time>2026-04-22T07:37:49Z</time></trkpt><trkpt lat="42.93127735527304" lon="11.640575259684102"><ele>875.1999999999999</ele><time>2026-04-22T07:37:50Z</time></trkpt><trkpt lat="42.93138419755366" lon="11.64059713973693"><ele>876.0</ele><time>2026-04-22T07:37:51Z</time></trkpt><trkpt lat="42.9315009525618" lon="11.640608685692657"><ele>876.0</ele><time>2026-04-22T07:37:52Z</time></trkpt><trkpt lat="42.9316205478021" lon="11.640586297749469"><ele>875.9999999999999</ele><time>2026-04-22T07:37:53Z</time></trkpt><trkpt lat="42.93173071348471" lon="11.640572024437663"><ele>875.9999999999999</ele><time>2026-04-22T07:37:54Z</time></trkpt><trkpt lat="42.93182644258747" lon="11.640574947012357"><ele>876.0</ele><time>2026-04-22T07:37:55Z</time></trkpt><trkpt lat="42.93190461075435" lon="11.640554957959113"><ele>876.0</ele><time>2026-04-22T07:37:56Z</time></trkpt><trkpt lat="42.93198921277929" lon="11.640512171255473"><ele>876.0</ele><time>2026-04-22T07:37:57Z</time></trkpt><trkpt lat="42.932063048822066" lon="11.640423540910417"><ele>875.9999999999999</ele><time>2026-04-22T07:37:58Z</time></trkpt><trkpt lat="42.93214117056324" lon="11.640343780208601"><ele>875.9999999999999</ele><time>2026-04-22T07:37:59Z</time></trkpt><trkpt lat="42.93222026471212" lon="11.640267153522064"><ele>876.0</ele><time>2026-04-22T07:38:00Z</time></trkpt><trkpt lat="42.93229650761448" lon="11.640203681244401"><ele>876.0</ele><time>2026-04-22T07:38:01Z</time></trkpt><trkpt lat="42.93236534157167" lon="11.640186258007985"><ele>874.3333333333334</ele><time>2026-04-22T07:38:02Z</time></trkpt><trkpt lat="42.932430452209665" lon="11.640170511849332"><ele>872.6666666666667</ele><time>2026-04-22T07:38:03Z</time></trkpt><trkpt lat="42.93250315900894" lon="11.640167096882127"><ele>871.0</ele><time>2026-04-22T07:38:04Z</time></trkpt><trkpt lat="42.93257652248149" lon="11.640170484946866"><ele>869.3333333333334</ele><time>2026-04-22T07:38:05Z</time></trkpt><trkpt lat="42.93268733469242" lon="11.64023382530977"><ele>867.6666666666667</ele><time>2026-04-22T07:38:07Z</time></trkpt><trkpt lat="42.932748186249235" lon="11.640275400756737"><ele>866.0</ele><time>2026-04-22T07:38:08Z</time></trkpt><trkpt lat="42.93281568649625" lon="11.640322616802305"><ele>866.0000000000001</ele><time>2026-04-22T07:38:09Z</time></trkpt><trkpt lat="42.93289173743406" lon="11.64037874525756"><ele>866.0</ele><time>2026-04-22T07:38:10Z</time></trkpt><trkpt lat="42.93296005842328" lon="11.64043108953187"><ele>866.0</ele><time>2026-04-22T07:38:11Z</time></trkpt><trkpt lat="42.93302410875431" lon="11.640458683278872"><ele>866.0</ele><time>2026-04-22T07:38:12Z</time></trkpt><trkpt lat="42.93310596569544" lon="11.640533234599765"><ele>866.0000000000001</ele><time>2026-04-22T07:38:14Z</time></trkpt><trkpt lat="42.93310808295315" lon="11.640629712984381"><ele>866.0</ele><time>2026-04-22T07:38:15.999Z</time></trkpt><trkpt lat="42.933042956004826" lon="11.640759363238626"><ele>866.0000000000001</ele><time>2026-04-22T07:38:17.999Z</time></trkpt><trkpt lat="42.93299601019776" lon="11.640834693476618"><ele>866.0</ele><time>2026-04-22T07:38:18.999Z</time></trkpt><trkpt lat="42.93294063921794" lon="11.640906218040078"><ele>866.0</ele><time>2026-04-22T07:38:19.999Z</time></trkpt><trkpt lat="42.93286793853222" lon="11.640936602002622"><ele>866.0</ele><time>2026-04-22T07:38:20.999Z</time></trkpt><trkpt lat="42.932794020626616" lon="11.641052109664765"><ele>866.0000000000001</ele><time>2026-04-22T07:38:22.999Z</time></trkpt><trkpt lat="42.93282676668194" lon="11.641194356530312"><ele>866.0</ele><time>2026-04-22T07:38:23.999Z</time></trkpt><trkpt lat="42.9328252249588" lon="11.641321843217467"><ele>865.5999999999999</ele><time>2026-04-22T07:38:24.999Z</time></trkpt><trkpt lat="42.93282854639685" lon="11.641438123779675"><ele>865.1999999999999</ele><time>2026-04-22T07:38:25.999Z</time></trkpt><trkpt lat="42.93283197528758" lon="11.641557604098685"><ele>864.8000000000001</ele><time>2026-04-22T07:38:26.999Z</time></trkpt><trkpt lat="42.932851625657946" lon="11.641681860016611"><ele>864.4000000000001</ele><time>2026-04-22T07:38:27.999Z</time></trkpt><trkpt lat="42.93286450212039" lon="11.641819075054357"><ele>864.0</ele><time>2026-04-22T07:38:28.999Z</time></trkpt><trkpt lat="42.93285879918786" lon="11.64195040990906"><ele>864.0</ele><time>2026-04-22T07:38:29.999Z</time></trkpt><trkpt lat="42.93286638855715" lon="11.642086696851687"><ele>864.0</ele><time>2026-04-22T07:38:30.999Z</time></trkpt><trkpt lat="42.93287075032091" lon="11.64220247800648"><ele>864.0</ele><time>2026-04-22T07:38:31.999Z</time></trkpt><trkpt lat="42.93287540136028" lon="11.64230638665348"><ele>864.0</ele><time>2026-04-22T07:38:32.999Z</time></trkpt><trkpt lat="42.93284067904791" lon="11.64239266886788"><ele>864.0</ele><time>2026-04-22T07:38:33.999Z</time></trkpt><trkpt lat="42.93278958194819" lon="11.642459262500017"><ele>864.0</ele><time>2026-04-22T07:38:34.999Z</time></trkpt><trkpt lat="42.93272316380624" lon="11.642521282914062"><ele>864.0</ele><time>2026-04-22T07:38:35.999Z</time></trkpt><trkpt lat="42.93265874914165" lon="11.642584805133938"><ele>864.0</ele><time>2026-04-22T07:38:36.999Z</time></trkpt><trkpt lat="42.93258826074432" lon="11.642665572528585"><ele>864.0</ele><time>2026-04-22T07:38:37.999Z</time></trkpt><trkpt lat="42.93250641899679" lon="11.642730155693318"><ele>864.0</ele><time>2026-04-22T07:38:38.999Z</time></trkpt><trkpt lat="42.93243916130643" lon="11.642811245863196"><ele>864.0</ele><time>2026-04-22T07:38:39.999Z</time></trkpt><trkpt lat="42.9323662793992" lon="11.642834055358028"><ele>864.0</ele><time>2026-04-22T07:38:40.999Z</time></trkpt><trkpt lat="42.93229498712553" lon="11.642810255082154"><ele>868.8333333333334</ele><time>2026-04-22T07:38:41.999Z</time></trkpt><trkpt lat="42.9322392884737" lon="11.64274769559904"><ele>873.6666666666667</ele><time>2026-04-22T07:38:42.999Z</time></trkpt><trkpt lat="42.93221883325705" lon="11.642661417470109"><ele>878.5</ele><time>2026-04-22T07:38:43.999Z</time></trkpt><trkpt lat="42.932214214863976" lon="11.64255869187207"><ele>883.3333333333334</ele><time>2026-04-22T07:38:44.999Z</time></trkpt><trkpt lat="42.932207872596464" lon="11.6424487905965"><ele>888.1666666666667</ele><time>2026-04-22T07:38:45.999Z</time></trkpt><trkpt lat="42.932174557581334" lon="11.642339900584416"><ele>893.0</ele><time>2026-04-22T07:38:46.999Z</time></trkpt><trkpt lat="42.93211958402422" lon="11.642239645496971"><ele>893.0</ele><time>2026-04-22T07:38:47.999Z</time></trkpt><trkpt lat="42.932034444744836" lon="11.64217809498662"><ele>893.0</ele><time>2026-04-22T07:38:48.999Z</time></trkpt><trkpt lat="42.931943752836844" lon="11.642161327778734"><ele>893.0</ele><time>2026-04-22T07:38:49.999Z</time></trkpt><trkpt lat="42.93185530753369" lon="11.642180302926162"><ele>893.0</ele><time>2026-04-22T07:38:50.999Z</time></trkpt><trkpt lat="42.93177036375162" lon="11.642221011694707"><ele>893.0</ele><time>2026-04-22T07:38:51.999Z</time></trkpt><trkpt lat="42.9316939353445" lon="11.642268866311985"><ele>895.5999999999999</ele><time>2026-04-22T07:38:52.999Z</time></trkpt><trkpt lat="42.93161976476757" lon="11.642321970498474"><ele>898.1999999999999</ele><time>2026-04-22T07:38:53.999Z</time></trkpt><trkpt lat="42.93155932311178" lon="11.64239152646354"><ele>900.8</ele><time>2026-04-22T07:38:55Z</time></trkpt><trkpt lat="42.93151988450613" lon="11.64248169912323"><ele>903.4</ele><time>2026-04-22T07:38:56Z</time></trkpt><trkpt lat="42.93148082869913" lon="11.642707918004378"><ele>906.0</ele><time>2026-04-22T07:38:58Z</time></trkpt><trkpt lat="42.93145044497412" lon="11.642834835477652"><ele>906.75</ele><time>2026-04-22T07:38:59Z</time></trkpt><trkpt lat="42.93139596398365" lon="11.642967644502628"><ele>907.5</ele><time>2026-04-22T07:39:00Z</time></trkpt><trkpt lat="42.931346460634266" lon="11.643108944413898"><ele>908.25</ele><time>2026-04-22T07:39:01Z</time></trkpt><trkpt lat="42.93129195856393" lon="11.643252408323885"><ele>909.0</ele><time>2026-04-22T07:39:02Z</time></trkpt><trkpt lat="42.931239671894055" lon="11.643382169772126"><ele>909.0</ele><time>2026-04-22T07:39:03Z</time></trkpt><trkpt lat="42.93118343559303" lon="11.643509985879858"><ele>909.0000000000001</ele><time>2026-04-22T07:39:04Z</time></trkpt><trkpt lat="42.93111582407676" lon="11.64362233351898"><ele>909.0000000000001</ele><time>2026-04-22T07:39:05Z</time></trkpt><trkpt lat="42.93104330903562" lon="11.643745319884085"><ele>909.0</ele><time>2026-04-22T07:39:06Z</time></trkpt><trkpt lat="42.93097060555243" lon="11.64386442602505"><ele>909.0</ele><time>2026-04-22T07:39:07Z</time></trkpt><trkpt lat="42.93089238658272" lon="11.643993062226958"><ele>911.5</ele><time>2026-04-22T07:39:08Z</time></trkpt><trkpt lat="42.93081441470677" lon="11.644128205365476"><ele>914.0</ele><time>2026-04-22T07:39:09Z</time></trkpt><trkpt lat="42.93073108087615" lon="11.64426618833866"><ele>916.5</ele><time>2026-04-22T07:39:10Z</time></trkpt><trkpt lat="42.93064764774353" lon="11.644406007009254"><ele>919.0</ele><time>2026-04-22T07:39:11Z</time></trkpt><trkpt lat="42.93056181012855" lon="11.64454635339985"><ele>919.0</ele><time>2026-04-22T07:39:12Z</time></trkpt><trkpt lat="42.93047789652231" lon="11.64468956023559"><ele>919.0</ele><time>2026-04-22T07:39:13Z</time></trkpt><trkpt lat="42.9303958260231" lon="11.644833690826914"><ele>919.0</ele><time>2026-04-22T07:39:14Z</time></trkpt><trkpt lat="42.93031252572541" lon="11.6449719189592"><ele>919.0</ele><time>2026-04-22T07:39:15Z</time></trkpt><trkpt lat="42.93022148172142" lon="11.645098218874496"><ele>919.0</ele><time>2026-04-22T07:39:16Z</time></trkpt><trkpt lat="42.93011626890811" lon="11.64521337927702"><ele>919.0</ele><time>2026-04-22T07:39:17Z</time></trkpt><trkpt lat="42.93002096100406" lon="11.645330724528133"><ele>919.0</ele><time>2026-04-22T07:39:18Z</time></trkpt><trkpt lat="42.92992326454229" lon="11.645443610406"><ele>919.0</ele><time>2026-04-22T07:39:19Z</time></trkpt><trkpt lat="42.92983590844283" lon="11.645561913270862"><ele>923.5</ele><time>2026-04-22T07:39:20Z</time></trkpt><trkpt lat="42.92975386151794" lon="11.645685520857187"><ele>928.0</ele><time>2026-04-22T07:39:21Z</time></trkpt><trkpt lat="42.92967542816346" lon="11.645811747319364"><ele>932.5</ele><time>2026-04-22T07:39:22Z</time></trkpt><trkpt lat="42.92960376633897" lon="11.645944079397454"><ele>937.0</ele><time>2026-04-22T07:39:23Z</time></trkpt><trkpt lat="42.92951689108978" lon="11.646060878629578"><ele>936.5</ele><time>2026-04-22T07:39:24Z</time></trkpt><trkpt lat="42.92942545796077" lon="11.646171687434075"><ele>936.0</ele><time>2026-04-22T07:39:25Z</time></trkpt><trkpt lat="42.92933656249603" lon="11.646279207657745"><ele>935.5</ele><time>2026-04-22T07:39:26Z</time></trkpt><trkpt lat="42.92924665791925" lon="11.646377692562853"><ele>935.0</ele><time>2026-04-22T07:39:27Z</time></trkpt><trkpt lat="42.92915164718629" lon="11.646458005924726"><ele>936.6</ele><time>2026-04-22T07:39:28Z</time></trkpt><trkpt lat="42.92906336951053" lon="11.646530676533793"><ele>938.2</ele><time>2026-04-22T07:39:29Z</time></trkpt><trkpt lat="42.928972351889946" lon="11.646609108295573"><ele>939.8</ele><time>2026-04-22T07:39:30Z</time></trkpt><trkpt lat="42.92889529972042" lon="11.6466952473169"><ele>941.4</ele><time>2026-04-22T07:39:31Z</time></trkpt><trkpt lat="42.928843170565884" lon="11.64679563831489"><ele>943.0</ele><time>2026-04-22T07:39:32Z</time></trkpt><trkpt lat="42.92880778676321" lon="11.64692457758801"><ele>940.75</ele><time>2026-04-22T07:39:33Z</time></trkpt><trkpt lat="42.92876854064964" lon="11.64707590420732"><ele>938.5</ele><time>2026-04-22T07:39:34Z</time></trkpt><trkpt lat="42.92873167834133" lon="11.647236361952626"><ele>936.25</ele><time>2026-04-22T07:39:35Z</time></trkpt><trkpt lat="42.92871048141669" lon="11.647418709617112"><ele>934.0</ele><time>2026-04-22T07:39:36Z</time></trkpt><trkpt lat="42.92868003594561" lon="11.647610135204404"><ele>930.75</ele><time>2026-04-22T07:39:37Z</time></trkpt><trkpt lat="42.928670534025315" lon="11.647797797349304"><ele>927.5</ele><time>2026-04-22T07:39:38Z</time></trkpt><trkpt lat="42.92866030508994" lon="11.647995521684487"><ele>924.25</ele><time>2026-04-22T07:39:39Z</time></trkpt><trkpt lat="42.92866183807335" lon="11.648200297024221"><ele>921.0</ele><time>2026-04-22T07:39:40Z</time></trkpt><trkpt lat="42.92862192279481" lon="11.64840261798785"><ele>921.0</ele><time>2026-04-22T07:39:41Z</time></trkpt><trkpt lat="42.928568709728566" lon="11.648598778489587"><ele>921.0</ele><time>2026-04-22T07:39:42Z</time></trkpt><trkpt lat="42.928508926104385" lon="11.648792967964905"><ele>921.0</ele><time>2026-04-22T07:39:43Z</time></trkpt><trkpt lat="42.928444035494245" lon="11.648992118629206"><ele>924.3333333333333</ele><time>2026-04-22T07:39:44Z</time></trkpt><trkpt lat="42.928380785175676" lon="11.64918936248368"><ele>927.6666666666666</ele><time>2026-04-22T07:39:45Z</time></trkpt><trkpt lat="42.92831402793932" lon="11.649392761463211"><ele>931.0</ele><time>2026-04-22T07:39:46Z</time></trkpt><trkpt lat="42.928250710028884" lon="11.649598368666602"><ele>932.0</ele><time>2026-04-22T07:39:47Z</time></trkpt><trkpt lat="42.92819101270483" lon="11.649794601387113"><ele>933.0</ele><time>2026-04-22T07:39:48Z</time></trkpt><trkpt lat="42.92813243852379" lon="11.64998780765521"><ele>934.0</ele><time>2026-04-22T07:39:49Z</time></trkpt><trkpt lat="42.9280687883062" lon="11.650202766389928"><ele>934.3333333333333</ele><time>2026-04-22T07:39:50Z</time></trkpt><trkpt lat="42.92800438098343" lon="11.650415438157317"><ele>934.6666666666667</ele><time>2026-04-22T07:39:51Z</time></trkpt><trkpt lat="42.92793917230664" lon="11.650626448403814"><ele>935.0</ele><time>2026-04-22T07:39:52Z</time></trkpt><trkpt lat="42.92787615912521" lon="11.65084712153301"><ele>935.0</ele><time>2026-04-22T07:39:53Z</time></trkpt><trkpt lat="42.92782042123712" lon="11.651072257649684"><ele>935.0</ele><time>2026-04-22T07:39:54Z</time></trkpt><trkpt lat="42.92777353652287" lon="11.651297427136338"><ele>935.0</ele><time>2026-04-22T07:39:55Z</time></trkpt><trkpt lat="42.92773010693262" lon="11.651519031149448"><ele>936.0</ele><time>2026-04-22T07:39:56Z</time></trkpt><trkpt lat="42.92766907358033" lon="11.651737785783807"><ele>937.0</ele><time>2026-04-22T07:39:57Z</time></trkpt><trkpt lat="42.92762900068905" lon="11.651949224332498"><ele>938.0</ele><time>2026-04-22T07:39:58Z</time></trkpt><trkpt lat="42.927609358847256" lon="11.65214329500339"><ele>939.2</ele><time>2026-04-22T07:39:59Z</time></trkpt><trkpt lat="42.927634157581075" lon="11.65231741876788"><ele>940.4</ele><time>2026-04-22T07:40:00Z</time></trkpt><trkpt lat="42.92766149638989" lon="11.65246663384179"><ele>941.6000000000001</ele><time>2026-04-22T07:40:01Z</time></trkpt><trkpt lat="42.92766114748352" lon="11.652588941402334"><ele>942.8000000000001</ele><time>2026-04-22T07:40:02Z</time></trkpt><trkpt lat="42.92766573696187" lon="11.652691393921696"><ele>944.0</ele><time>2026-04-22T07:40:03Z</time></trkpt><trkpt lat="42.92761389668252" lon="11.652773744727957"><ele>947.8333333333334</ele><time>2026-04-22T07:40:04Z</time></trkpt><trkpt lat="42.92754341356447" lon="11.652819409161992"><ele>951.6666666666667</ele><time>2026-04-22T07:40:05Z</time></trkpt><trkpt lat="42.92745339256619" lon="11.652825305060587"><ele>955.5</ele><time>2026-04-22T07:40:06Z</time></trkpt><trkpt lat="42.92736440755147" lon="11.652841884291991"><ele>959.3333333333333</ele><time>2026-04-22T07:40:07Z</time></trkpt><trkpt lat="42.927294176449095" lon="11.652907606168979"><ele>963.1666666666666</ele><time>2026-04-22T07:40:08Z</time></trkpt><trkpt lat="42.927259884857044" lon="11.653025118859253"><ele>967.0</ele><time>2026-04-22T07:40:09Z</time></trkpt><trkpt lat="42.927275636789226" lon="11.653148257741043"><ele>966.9999999999999</ele><time>2026-04-22T07:40:10Z</time></trkpt><trkpt lat="42.927344367509185" lon="11.65324337422814"><ele>967.0</ele><time>2026-04-22T07:40:11Z</time></trkpt><trkpt lat="42.92739804817863" lon="11.653332208792657"><ele>967.0</ele><time>2026-04-22T07:40:12Z</time></trkpt><trkpt lat="42.92742332419325" lon="11.65344686484842"><ele>967.0</ele><time>2026-04-22T07:40:13Z</time></trkpt><trkpt lat="42.92739985532269" lon="11.653553400328178"><ele>966.9999999999999</ele><time>2026-04-22T07:40:14Z</time></trkpt><trkpt lat="42.92733457724828" lon="11.65364605944059"><ele>967.0</ele><time>2026-04-22T07:40:15Z</time></trkpt><trkpt lat="42.92727441404205" lon="11.653779094696539"><ele>967.75</ele><time>2026-04-22T07:40:16Z</time></trkpt><trkpt lat="42.92719288318895" lon="11.653910842062729"><ele>968.5</ele><time>2026-04-22T07:40:17Z</time></trkpt><trkpt lat="42.92711893012192" lon="11.654045375220655"><ele>969.25</ele><time>2026-04-22T07:40:18Z</time></trkpt><trkpt lat="42.92704228316074" lon="11.654181351816982"><ele>970.0</ele><time>2026-04-22T07:40:19Z</time></trkpt><trkpt lat="42.92696328774989" lon="11.654319563044872"><ele>972.75</ele><time>2026-04-22T07:40:20Z</time></trkpt><trkpt lat="42.92688473562704" lon="11.654462484919138"><ele>975.5</ele><time>2026-04-22T07:40:21Z</time></trkpt><trkpt lat="42.92680115875265" lon="11.654606110995614"><ele>978.25</ele><time>2026-04-22T07:40:22Z</time></trkpt><trkpt lat="42.92671346601204" lon="11.654747425841554"><ele>981.0</ele><time>2026-04-22T07:40:22.999Z</time></trkpt><trkpt lat="42.92662379286028" lon="11.654885155984804"><ele>982.25</ele><time>2026-04-22T07:40:23.999Z</time></trkpt><trkpt lat="42.92653855124606" lon="11.655023877160229"><ele>983.5</ele><time>2026-04-22T07:40:24.999Z</time></trkpt><trkpt lat="42.92646619781775" lon="11.655170712289268"><ele>984.75</ele><time>2026-04-22T07:40:25.999Z</time></trkpt><trkpt lat="42.926412854295016" lon="11.65532818679011"><ele>986.0</ele><time>2026-04-22T07:40:26.999Z</time></trkpt><trkpt lat="42.926374185232426" lon="11.655492470255922"><ele>988.75</ele><time>2026-04-22T07:40:27.999Z</time></trkpt><trkpt lat="42.926331734464576" lon="11.655653557914693"><ele>991.5</ele><time>2026-04-22T07:40:28.999Z</time></trkpt><trkpt lat="42.9262759851861" lon="11.655802917918296"><ele>994.25</ele><time>2026-04-22T07:40:29.999Z</time></trkpt><trkpt lat="42.926205527525916" lon="11.655934446352997"><ele>997.0</ele><time>2026-04-22T07:40:30.999Z</time></trkpt><trkpt lat="42.92611675055878" lon="11.65604378092408"><ele>1000.0</ele><time>2026-04-22T07:40:31.999Z</time></trkpt><trkpt lat="42.92601417283443" lon="11.656133271855378"><ele>1003.0</ele><time>2026-04-22T07:40:32.999Z</time></trkpt><trkpt lat="42.92591066957391" lon="11.656225633035174"><ele>1006.0</ele><time>2026-04-22T07:40:33.999Z</time></trkpt><trkpt lat="42.92580804546551" lon="11.656324794637639"><ele>1009.0</ele><time>2026-04-22T07:40:34.999Z</time></trkpt><trkpt lat="42.92570249460635" lon="11.656429261237625"><ele>1009.0</ele><time>2026-04-22T07:40:35.999Z</time></trkpt><trkpt lat="42.925597605906084" lon="11.656534358019764"><ele>1009.0</ele><time>2026-04-22T07:40:36.999Z</time></trkpt><trkpt lat="42.92549070171925" lon="11.656636614197156"><ele>1009.0</ele><time>2026-04-22T07:40:37.999Z</time></trkpt><trkpt lat="42.9253802188789" lon="11.656735862523922"><ele>1009.0</ele><time>2026-04-22T07:40:38.999Z</time></trkpt><trkpt lat="42.92526502149553" lon="11.656830174978554"><ele>1009.0</ele><time>2026-04-22T07:40:39.999Z</time></trkpt><trkpt lat="42.9251465970665" lon="11.656920157240906"><ele>1009.0</ele><time>2026-04-22T07:40:40.999Z</time></trkpt><trkpt lat="42.92503437305832" lon="11.657002124165913"><ele>1009.0</ele><time>2026-04-22T07:40:41.999Z</time></trkpt><trkpt lat="42.924929875387" lon="11.657059052963016"><ele>1009.0</ele><time>2026-04-22T07:40:42.999Z</time></trkpt><trkpt lat="42.92482366363042" lon="11.657092802724797"><ele>1009.6</ele><time>2026-04-22T07:40:43.999Z</time></trkpt><trkpt lat="42.9247185950876" lon="11.657088618215637"><ele>1010.2</ele><time>2026-04-22T07:40:44.999Z</time></trkpt><trkpt lat="42.92461695067223" lon="11.65704443774491"><ele>1010.8000000000001</ele><time>2026-04-22T07:40:45.999Z</time></trkpt><trkpt lat="42.92452300171852" lon="11.65696396941855"><ele>1011.4000000000001</ele><time>2026-04-22T07:40:46.999Z</time></trkpt><trkpt lat="42.924436197749685" lon="11.656857618124125"><ele>1012.0</ele><time>2026-04-22T07:40:47.999Z</time></trkpt><trkpt lat="42.924356855584016" lon="11.656734277807015"><ele>1012.0</ele><time>2026-04-22T07:40:48.999Z</time></trkpt><trkpt lat="42.92427958832846" lon="11.65659246146126"><ele>1012.0</ele><time>2026-04-22T07:40:49.999Z</time></trkpt><trkpt lat="42.9242076288656" lon="11.656442656279873"><ele>1012.0</ele><time>2026-04-22T07:40:50.999Z</time></trkpt><trkpt lat="42.92413706067998" lon="11.656287582933869"><ele>1012.0</ele><time>2026-04-22T07:40:51.999Z</time></trkpt><trkpt lat="42.924063315494266" lon="11.656129263118926"><ele>1015.25</ele><time>2026-04-22T07:40:52.999Z</time></trkpt><trkpt lat="42.92399652610811" lon="11.655981806800378"><ele>1018.5</ele><time>2026-04-22T07:40:53.999Z</time></trkpt><trkpt lat="42.92391976104782" lon="11.655861168380786"><ele>1021.75</ele><time>2026-04-22T07:40:54.999Z</time></trkpt><trkpt lat="42.92383311405646" lon="11.65577207877102"><ele>1025.0</ele><time>2026-04-22T07:40:55.999Z</time></trkpt><trkpt lat="42.92373157728298" lon="11.655709625204315"><ele>1025.0</ele><time>2026-04-22T07:40:56.999Z</time></trkpt><trkpt lat="42.92362017617054" lon="11.655673139821204"><ele>1025.0</ele><time>2026-04-22T07:40:57.999Z</time></trkpt><trkpt lat="42.92350269314594" lon="11.655647405840721"><ele>1025.0</ele><time>2026-04-22T07:40:58.999Z</time></trkpt><trkpt lat="42.92338960413451" lon="11.655607549344769"><ele>1025.0</ele><time>2026-04-22T07:40:59.999Z</time></trkpt><trkpt lat="42.92328226535595" lon="11.655568258316528"><ele>1028.1666666666667</ele><time>2026-04-22T07:41:01Z</time></trkpt><trkpt lat="42.923176148744794" lon="11.655573146896407"><ele>1031.3333333333335</ele><time>2026-04-22T07:41:02Z</time></trkpt><trkpt lat="42.92309583084631" lon="11.655595170429272"><ele>1034.5</ele><time>2026-04-22T07:41:03Z</time></trkpt><trkpt lat="42.923037827293335" lon="11.655657453572651"><ele>1037.6666666666667</ele><time>2026-04-22T07:41:04Z</time></trkpt><trkpt lat="42.922991240975655" lon="11.655757572833377"><ele>1040.8333333333333</ele><time>2026-04-22T07:41:05Z</time></trkpt><trkpt lat="42.92296631105649" lon="11.655877610605499"><ele>1044.0</ele><time>2026-04-22T07:41:06Z</time></trkpt><trkpt lat="42.922964742129025" lon="11.656011775869562"><ele>1045.75</ele><time>2026-04-22T07:41:07Z</time></trkpt><trkpt lat="42.92297555561858" lon="11.656156353685262"><ele>1047.5</ele><time>2026-04-22T07:41:08Z</time></trkpt><trkpt lat="42.92299646004958" lon="11.656303509198574"><ele>1049.25</ele><time>2026-04-22T07:41:09Z</time></trkpt><trkpt lat="42.92301022612148" lon="11.65645868787394"><ele>1051.0</ele><time>2026-04-22T07:41:10Z</time></trkpt><trkpt lat="42.923015957981015" lon="11.656621621052794"><ele>1051.0</ele><time>2026-04-22T07:41:11Z</time></trkpt><trkpt lat="42.92302629616059" lon="11.656782541503901"><ele>1051.0</ele><time>2026-04-22T07:41:12Z</time></trkpt><trkpt lat="42.923031758954046" lon="11.65695230266028"><ele>1051.0</ele><time>2026-04-22T07:41:13Z</time></trkpt><trkpt lat="42.9230424322047" lon="11.657127948548034"><ele>1051.0</ele><time>2026-04-22T07:41:14Z</time></trkpt><trkpt lat="42.92304660582168" lon="11.657310860517198"><ele>1051.5</ele><time>2026-04-22T07:41:15Z</time></trkpt><trkpt lat="42.923058874244944" lon="11.657493329930725"><ele>1052.0</ele><time>2026-04-22T07:41:16Z</time></trkpt><trkpt lat="42.92304307287223" lon="11.657648847132137"><ele>1052.5</ele><time>2026-04-22T07:41:17Z</time></trkpt><trkpt lat="42.922995179766964" lon="11.657772351846083"><ele>1053.0</ele><time>2026-04-22T07:41:18Z</time></trkpt><trkpt lat="42.922926862729376" lon="11.657879480599398"><ele>1054.0</ele><time>2026-04-22T07:41:19Z</time></trkpt><trkpt lat="42.92284301726855" lon="11.657959205768272"><ele>1055.0</ele><time>2026-04-22T07:41:20Z</time></trkpt><trkpt lat="42.92273799111365" lon="11.6580102476225"><ele>1056.0</ele><time>2026-04-22T07:41:21Z</time></trkpt><trkpt lat="42.92262802102468" lon="11.658055977041958"><ele>1057.0</ele><time>2026-04-22T07:41:22Z</time></trkpt><trkpt lat="42.92251047252655" lon="11.658106200378795"><ele>1059.75</ele><time>2026-04-22T07:41:23Z</time></trkpt><trkpt lat="42.922384106875825" lon="11.658152344979916"><ele>1062.5</ele><time>2026-04-22T07:41:24Z</time></trkpt><trkpt lat="42.9222505291258" lon="11.658174616276272"><ele>1065.25</ele><time>2026-04-22T07:41:25Z</time></trkpt><trkpt lat="42.922110516360526" lon="11.658167252520505"><ele>1068.0</ele><time>2026-04-22T07:41:26Z</time></trkpt><trkpt lat="42.92197067327461" lon="11.658130694024605"><ele>1068.0</ele><time>2026-04-22T07:41:27Z</time></trkpt><trkpt lat="42.92183742322969" lon="11.658085390863075"><ele>1068.0</ele><time>2026-04-22T07:41:28Z</time></trkpt><trkpt lat="42.92170046455068" lon="11.65803960328976"><ele>1068.0</ele><time>2026-04-22T07:41:29Z</time></trkpt><trkpt lat="42.92156067673122" lon="11.657989052419031"><ele>1068.0</ele><time>2026-04-22T07:41:30Z</time></trkpt><trkpt lat="42.921419651447074" lon="11.657936780095156"><ele>1071.0</ele><time>2026-04-22T07:41:31Z</time></trkpt><trkpt lat="42.921278866959995" lon="11.65788726271021"><ele>1074.0</ele><time>2026-04-22T07:41:32Z</time></trkpt><trkpt lat="42.92113945689302" lon="11.657842791008855"><ele>1077.0</ele><time>2026-04-22T07:41:33Z</time></trkpt><trkpt lat="42.921002407127325" lon="11.657805554191974"><ele>1080.0</ele><time>2026-04-22T07:41:34Z</time></trkpt><trkpt lat="42.92086750620093" lon="11.6577726829282"><ele>1080.75</ele><time>2026-04-22T07:41:35Z</time></trkpt><trkpt lat="42.920731530533146" lon="11.657765320612272"><ele>1081.5</ele><time>2026-04-22T07:41:36Z</time></trkpt><trkpt lat="42.92059208826219" lon="11.657792396060183"><ele>1082.25</ele><time>2026-04-22T07:41:37Z</time></trkpt><trkpt lat="42.92045524613749" lon="11.657842914059596"><ele>1083.0</ele><time>2026-04-22T07:41:38Z</time></trkpt><trkpt lat="42.920345927954756" lon="11.657911024299038"><ele>1086.0</ele><time>2026-04-22T07:41:39Z</time></trkpt><trkpt lat="42.92026262057632" lon="11.658006767568668"><ele>1089.0</ele><time>2026-04-22T07:41:40Z</time></trkpt><trkpt lat="42.920206363899226" lon="11.658141345196752"><ele>1092.0</ele><time>2026-04-22T07:41:41Z</time></trkpt><trkpt lat="42.92016314508084" lon="11.658292146458669"><ele>1095.0</ele><time>2026-04-22T07:41:42Z</time></trkpt><trkpt lat="42.92012513789121" lon="11.658454612365986"><ele>1097.0</ele><time>2026-04-22T07:41:43Z</time></trkpt><trkpt lat="42.92010737263342" lon="11.658620698581341"><ele>1099.0</ele><time>2026-04-22T07:41:44Z</time></trkpt><trkpt lat="42.92013530143571" lon="11.658785359589364"><ele>1101.0</ele><time>2026-04-22T07:41:45Z</time></trkpt><trkpt lat="42.92018671997249" lon="11.658929073147233"><ele>1103.0</ele><time>2026-04-22T07:41:46Z</time></trkpt><trkpt lat="42.920233963382024" lon="11.65905614964456"><ele>1103.0</ele><time>2026-04-22T07:41:47Z</time></trkpt><trkpt lat="42.920249716169764" lon="11.659202258222324"><ele>1103.0</ele><time>2026-04-22T07:41:48Z</time></trkpt><trkpt lat="42.92022098755465" lon="11.659346851750147"><ele>1103.0</ele><time>2026-04-22T07:41:49Z</time></trkpt><trkpt lat="42.92015775773443" lon="11.659461673838084"><ele>1103.0</ele><time>2026-04-22T07:41:50Z</time></trkpt><trkpt lat="42.9200597450345" lon="11.659528776838217"><ele>1103.0</ele><time>2026-04-22T07:41:51Z</time></trkpt><trkpt lat="42.91996084050739" lon="11.659607044864698"><ele>1104.75</ele><time>2026-04-22T07:41:52Z</time></trkpt><trkpt lat="42.9198406395854" lon="11.659650146975094"><ele>1106.5</ele><time>2026-04-22T07:41:53Z</time></trkpt><trkpt lat="42.91971370448282" lon="11.659693533795911"><ele>1108.25</ele><time>2026-04-22T07:41:54Z</time></trkpt><trkpt lat="42.919575709831136" lon="11.659730349958927"><ele>1110.0</ele><time>2026-04-22T07:41:55Z</time></trkpt><trkpt lat="42.91943401863315" lon="11.659762574048855"><ele>1110.0</ele><time>2026-04-22T07:41:56Z</time></trkpt><trkpt lat="42.91929725283923" lon="11.659783431115555"><ele>1110.0</ele><time>2026-04-22T07:41:57Z</time></trkpt><trkpt lat="42.919172366371946" lon="11.659765741188105"><ele>1110.0</ele><time>2026-04-22T07:41:58Z</time></trkpt><trkpt lat="42.919062507296886" lon="11.659708203768744"><ele>1110.0</ele><time>2026-04-22T07:41:59Z</time></trkpt><trkpt lat="42.91895861436279" lon="11.65961699053372"><ele>1109.25</ele><time>2026-04-22T07:42:00Z</time></trkpt><trkpt lat="42.9188701897858" lon="11.659491282694098"><ele>1108.5</ele><time>2026-04-22T07:42:01Z</time></trkpt><trkpt lat="42.918792420282244" lon="11.659343993564502"><ele>1107.75</ele><time>2026-04-22T07:42:02Z</time></trkpt><trkpt lat="42.91871096851441" lon="11.659193405959362"><ele>1107.0</ele><time>2026-04-22T07:42:03Z</time></trkpt><trkpt lat="42.918629338068556" lon="11.65903698721488"><ele>1107.0</ele><time>2026-04-22T07:42:04Z</time></trkpt><trkpt lat="42.91854825837795" lon="11.658871009058664"><ele>1107.0</ele><time>2026-04-22T07:42:05Z</time></trkpt><trkpt lat="42.91847320688284" lon="11.65870132120551"><ele>1107.0</ele><time>2026-04-22T07:42:06Z</time></trkpt><trkpt lat="42.918409730566566" lon="11.65854490344263"><ele>1107.0</ele><time>2026-04-22T07:42:07Z</time></trkpt><trkpt lat="42.91835728365236" lon="11.658392394245324"><ele>1106.8</ele><time>2026-04-22T07:42:08Z</time></trkpt><trkpt lat="42.918324269776186" lon="11.65824014600973"><ele>1106.6</ele><time>2026-04-22T07:42:09Z</time></trkpt><trkpt lat="42.91830775312864" lon="11.658089274227187"><ele>1106.3999999999999</ele><time>2026-04-22T07:42:10Z</time></trkpt><trkpt lat="42.918300879943416" lon="11.657945001426508"><ele>1106.2</ele><time>2026-04-22T07:42:11Z</time></trkpt><trkpt lat="42.91828623178365" lon="11.657804007587677"><ele>1106.0</ele><time>2026-04-22T07:42:12Z</time></trkpt><trkpt lat="42.9182626543081" lon="11.657671321852725"><ele>1106.3999999999999</ele><time>2026-04-22T07:42:13Z</time></trkpt><trkpt lat="42.918227413673144" lon="11.657547565303002"><ele>1106.8</ele><time>2026-04-22T07:42:14Z</time></trkpt><trkpt lat="42.918173923377836" lon="11.657437749357737"><ele>1107.1999999999998</ele><time>2026-04-22T07:42:15Z</time></trkpt><trkpt lat="42.918098961324894" lon="11.657353948305888"><ele>1107.6</ele><time>2026-04-22T07:42:16Z</time></trkpt><trkpt lat="42.9180112531341" lon="11.657309778587042"><ele>1108.0</ele><time>2026-04-22T07:42:17Z</time></trkpt><trkpt lat="42.91792258294518" lon="11.657296413577859"><ele>1108.0</ele><time>2026-04-22T07:42:18Z</time></trkpt><trkpt lat="42.917835751459414" lon="11.657305000366842"><ele>1108.0</ele><time>2026-04-22T07:42:19Z</time></trkpt><trkpt lat="42.917753562509155" lon="11.657313438497539"><ele>1108.0</ele><time>2026-04-22T07:42:20Z</time></trkpt><trkpt lat="42.91767221025097" lon="11.657319922842198"><ele>1108.0</ele><time>2026-04-22T07:42:21Z</time></trkpt><trkpt lat="42.91759369993221" lon="11.657317043672414"><ele>1108.0</ele><time>2026-04-22T07:42:22Z</time></trkpt><trkpt lat="42.91752102062066" lon="11.65730019476649"><ele>1108.0</ele><time>2026-04-22T07:42:23Z</time></trkpt><trkpt lat="42.91745293500445" lon="11.65727643008398"><ele>1107.1666666666665</ele><time>2026-04-22T07:42:24Z</time></trkpt><trkpt lat="42.917389161526636" lon="11.657252531967035"><ele>1106.3333333333333</ele><time>2026-04-22T07:42:25Z</time></trkpt><trkpt lat="42.91732659702998" lon="11.657232839669424"><ele>1105.5</ele><time>2026-04-22T07:42:26Z</time></trkpt><trkpt lat="42.91720685888841" lon="11.65722025340562"><ele>1104.6666666666667</ele><time>2026-04-22T07:42:28Z</time></trkpt><trkpt lat="42.91708638927092" lon="11.65723189339945"><ele>1103.8333333333335</ele><time>2026-04-22T07:42:30Z</time></trkpt><trkpt lat="42.91702196601728" lon="11.657241926778596"><ele>1103.0</ele><time>2026-04-22T07:42:31Z</time></trkpt><trkpt lat="42.91695247518956" lon="11.657251629042268"><ele>1103.0</ele><time>2026-04-22T07:42:32Z</time></trkpt><trkpt lat="42.91687518264174" lon="11.657251479945556"><ele>1103.0</ele><time>2026-04-22T07:42:33Z</time></trkpt><trkpt lat="42.91679813272597" lon="11.657251276322981"><ele>1103.0</ele><time>2026-04-22T07:42:34Z</time></trkpt><trkpt lat="42.91671813007336" lon="11.657264854932395"><ele>1103.0</ele><time>2026-04-22T07:42:35Z</time></trkpt><trkpt lat="42.91663517449888" lon="11.65725780775303"><ele>1103.0</ele><time>2026-04-22T07:42:36Z</time></trkpt><trkpt lat="42.91655370290152" lon="11.65730429953223"><ele>1103.0</ele><time>2026-04-22T07:42:36.999Z</time></trkpt><trkpt lat="42.916470174336276" lon="11.657353771336812"><ele>1101.8</ele><time>2026-04-22T07:42:37.999Z</time></trkpt><trkpt lat="42.91639008113253" lon="11.657427405281618"><ele>1100.6</ele><time>2026-04-22T07:42:38.999Z</time></trkpt><trkpt lat="42.91629629059328" lon="11.657474832753671"><ele>1099.4</ele><time>2026-04-22T07:42:39.999Z</time></trkpt><trkpt lat="42.91620321661765" lon="11.657535029563755"><ele>1098.2</ele><time>2026-04-22T07:42:40.999Z</time></trkpt><trkpt lat="42.91610498511015" lon="11.657582120270355"><ele>1097.0</ele><time>2026-04-22T07:42:41.999Z</time></trkpt><trkpt lat="42.915997144507514" lon="11.65758364700902"><ele>1096.6</ele><time>2026-04-22T07:42:42.999Z</time></trkpt><trkpt lat="42.91588933513146" lon="11.65757621101681"><ele>1096.2</ele><time>2026-04-22T07:42:43.999Z</time></trkpt><trkpt lat="42.91578023688051" lon="11.657568779598769"><ele>1095.8</ele><time>2026-04-22T07:42:44.999Z</time></trkpt><trkpt lat="42.91567102136984" lon="11.657568251520468"><ele>1095.4</ele><time>2026-04-22T07:42:45.999Z</time></trkpt><trkpt lat="42.91556152624997" lon="11.657551832330121"><ele>1095.0</ele><time>2026-04-22T07:42:46.999Z</time></trkpt><trkpt lat="42.915453460732756" lon="11.65758205002703"><ele>1095.0</ele><time>2026-04-22T07:42:47.999Z</time></trkpt><trkpt lat="42.91535671084222" lon="11.657641993971573"><ele>1095.0</ele><time>2026-04-22T07:42:48.999Z</time></trkpt><trkpt lat="42.9152538891456" lon="11.657676311908242"><ele>1095.0</ele><time>2026-04-22T07:42:49.999Z</time></trkpt><trkpt lat="42.915147190747085" lon="11.657686606017338"><ele>1095.0</ele><time>2026-04-22T07:42:50.999Z</time></trkpt><trkpt lat="42.91503684971298" lon="11.657678153133384"><ele>1095.0</ele><time>2026-04-22T07:42:51.999Z</time></trkpt><trkpt lat="42.91492564445182" lon="11.657668228856478"><ele>1094.8</ele><time>2026-04-22T07:42:52.999Z</time></trkpt><trkpt lat="42.914815425372325" lon="11.657677584513518"><ele>1094.6</ele><time>2026-04-22T07:42:53.999Z</time></trkpt><trkpt lat="42.91470763054386" lon="11.65770627683285"><ele>1094.4</ele><time>2026-04-22T07:42:54.999Z</time></trkpt><trkpt lat="42.91459368857109" lon="11.6577166495871"><ele>1094.2</ele><time>2026-04-22T07:42:55.999Z</time></trkpt><trkpt lat="42.91449026050248" lon="11.657779634570366"><ele>1094.0</ele><time>2026-04-22T07:42:56.999Z</time></trkpt><trkpt lat="42.91438850683939" lon="11.657830602122287"><ele>1090.0</ele><time>2026-04-22T07:42:57.999Z</time></trkpt><trkpt lat="42.914288466815016" lon="11.657886056889453"><ele>1086.0</ele><time>2026-04-22T07:42:58.999Z</time></trkpt><trkpt lat="42.914189900734016" lon="11.657940021215772"><ele>1082.0</ele><time>2026-04-22T07:42:59.999Z</time></trkpt><trkpt lat="42.91409033027961" lon="11.65799083796417"><ele>1078.0</ele><time>2026-04-22T07:43:00.999Z</time></trkpt><trkpt lat="42.91398934369928" lon="11.658027089415054"><ele>1074.0</ele><time>2026-04-22T07:43:01.999Z</time></trkpt><trkpt lat="42.91388508094567" lon="11.658042316775806"><ele>1073.0</ele><time>2026-04-22T07:43:02.999Z</time></trkpt><trkpt lat="42.913779505356246" lon="11.658026879211745"><ele>1072.0</ele><time>2026-04-22T07:43:03.999Z</time></trkpt><trkpt lat="42.913676711933" lon="11.657982209573646"><ele>1071.0</ele><time>2026-04-22T07:43:04.999Z</time></trkpt><trkpt lat="42.91358321202916" lon="11.657909374245387"><ele>1070.0</ele><time>2026-04-22T07:43:05.999Z</time></trkpt><trkpt lat="42.913503431337055" lon="11.657810307395339"><ele>1069.0</ele><time>2026-04-22T07:43:07Z</time></trkpt><trkpt lat="42.91343675071988" lon="11.657698296192224"><ele>1068.2</ele><time>2026-04-22T07:43:08Z</time></trkpt><trkpt lat="42.913369803794374" lon="11.65759163180585"><ele>1067.4</ele><time>2026-04-22T07:43:09Z</time></trkpt><trkpt lat="42.913292014564774" lon="11.657499728998156"><ele>1066.6</ele><time>2026-04-22T07:43:10Z</time></trkpt><trkpt lat="42.91320129991449" lon="11.657434670216967"><ele>1065.8</ele><time>2026-04-22T07:43:11Z</time></trkpt><trkpt lat="42.913103706798815" lon="11.657404053070293"><ele>1065.0</ele><time>2026-04-22T07:43:12Z</time></trkpt><trkpt lat="42.91300335635376" lon="11.657403360130889"><ele>1065.0</ele><time>2026-04-22T07:43:13Z</time></trkpt><trkpt lat="42.912905158745005" lon="11.657424440338072"><ele>1065.0</ele><time>2026-04-22T07:43:14Z</time></trkpt><trkpt lat="42.912807025736754" lon="11.65745389341917"><ele>1065.0</ele><time>2026-04-22T07:43:15Z</time></trkpt><trkpt lat="42.91270769340747" lon="11.65747767019249"><ele>1065.0</ele><time>2026-04-22T07:43:16Z</time></trkpt><trkpt lat="42.91260696332348" lon="11.65749585879926"><ele>1065.0</ele><time>2026-04-22T07:43:17Z</time></trkpt><trkpt lat="42.91251172125339" lon="11.657535280035619"><ele>1062.8</ele><time>2026-04-22T07:43:18Z</time></trkpt><trkpt lat="42.912425446568356" lon="11.657601337994414"><ele>1060.6</ele><time>2026-04-22T07:43:19Z</time></trkpt><trkpt lat="42.91235995440293" lon="11.657700897616728"><ele>1058.4</ele><time>2026-04-22T07:43:20Z</time></trkpt><trkpt lat="42.91230236557179" lon="11.657814283510561"><ele>1056.2</ele><time>2026-04-22T07:43:21Z</time></trkpt><trkpt lat="42.91224795436799" lon="11.657933724148267"><ele>1054.0</ele><time>2026-04-22T07:43:22Z</time></trkpt><trkpt lat="42.91218664661643" lon="11.658049421974695"><ele>1052.0</ele><time>2026-04-22T07:43:23Z</time></trkpt><trkpt lat="42.91210703687437" lon="11.658148597959588"><ele>1050.0</ele><time>2026-04-22T07:43:24Z</time></trkpt><trkpt lat="42.91200310244613" lon="11.658210122527187"><ele>1048.0</ele><time>2026-04-22T07:43:25Z</time></trkpt><trkpt lat="42.91189453680763" lon="11.658214667733548"><ele>1046.0</ele><time>2026-04-22T07:43:26Z</time></trkpt><trkpt lat="42.911789504126695" lon="11.658243106920349"><ele>1044.0</ele><time>2026-04-22T07:43:27Z</time></trkpt><trkpt lat="42.91168158510213" lon="11.658246957742481"><ele>1042.8</ele><time>2026-04-22T07:43:28Z</time></trkpt><trkpt lat="42.91157395038275" lon="11.658259862689153"><ele>1041.6000000000001</ele><time>2026-04-22T07:43:29Z</time></trkpt><trkpt lat="42.9114659150215" lon="11.658277184698228"><ele>1040.4</ele><time>2026-04-22T07:43:30Z</time></trkpt><trkpt lat="42.9113589048543" lon="11.65829517234615"><ele>1039.2</ele><time>2026-04-22T07:43:31Z</time></trkpt><trkpt lat="42.91125172727028" lon="11.658302969541156"><ele>1038.0</ele><time>2026-04-22T07:43:32Z</time></trkpt><trkpt lat="42.91114467207266" lon="11.658292595525959"><ele>1038.0</ele><time>2026-04-22T07:43:33Z</time></trkpt><trkpt lat="42.91103888202595" lon="11.658288294113664"><ele>1038.0</ele><time>2026-04-22T07:43:34Z</time></trkpt><trkpt lat="42.91094772307663" lon="11.658313724681888"><ele>1038.0</ele><time>2026-04-22T07:43:35Z</time></trkpt><trkpt lat="42.91087509081704" lon="11.658356979473934"><ele>1038.0</ele><time>2026-04-22T07:43:36Z</time></trkpt><trkpt lat="42.9108411868319" lon="11.658479280508946"><ele>1038.0</ele><time>2026-04-22T07:43:37Z</time></trkpt><trkpt lat="42.910807482661504" lon="11.658599690568785"><ele>1034.8</ele><time>2026-04-22T07:43:38Z</time></trkpt><trkpt lat="42.91077268303847" lon="11.658724448431999"><ele>1031.6</ele><time>2026-04-22T07:43:39Z</time></trkpt><trkpt lat="42.91072196237624" lon="11.658857186531575"><ele>1028.4</ele><time>2026-04-22T07:43:40Z</time></trkpt><trkpt lat="42.91065778326659" lon="11.65899279044323"><ele>1025.2</ele><time>2026-04-22T07:43:41Z</time></trkpt><trkpt lat="42.910583741693685" lon="11.659115721174434"><ele>1022.0</ele><time>2026-04-22T07:43:42Z</time></trkpt><trkpt lat="42.91050355065516" lon="11.659227996860134"><ele>1022.0</ele><time>2026-04-22T07:43:43Z</time></trkpt><trkpt lat="42.910417945541234" lon="11.6593316628373"><ele>1022.0</ele><time>2026-04-22T07:43:44Z</time></trkpt><trkpt lat="42.91032330597326" lon="11.659418614485485"><ele>1022.0</ele><time>2026-04-22T07:43:45Z</time></trkpt><trkpt lat="42.91022097232218" lon="11.659487296606171"><ele>1022.0</ele><time>2026-04-22T07:43:46Z</time></trkpt><trkpt lat="42.91011535443844" lon="11.65953972266539"><ele>1018.25</ele><time>2026-04-22T07:43:47Z</time></trkpt><trkpt lat="42.91001020358664" lon="11.659590229555361"><ele>1014.5</ele><time>2026-04-22T07:43:48Z</time></trkpt><trkpt lat="42.909908148466236" lon="11.659657840032333"><ele>1010.75</ele><time>2026-04-22T07:43:49Z</time></trkpt><trkpt lat="42.909813286880535" lon="11.659741258809381"><ele>1007.0</ele><time>2026-04-22T07:43:50Z</time></trkpt><trkpt lat="42.909718308423685" lon="11.659830973760544"><ele>1007.0</ele><time>2026-04-22T07:43:51Z</time></trkpt><trkpt lat="42.909620288733336" lon="11.659931155783648"><ele>1007.0</ele><time>2026-04-22T07:43:52Z</time></trkpt><trkpt lat="42.90951978482862" lon="11.660034502085377"><ele>1007.0</ele><time>2026-04-22T07:43:53Z</time></trkpt><trkpt lat="42.909418704325596" lon="11.660138074628616"><ele>1007.0</ele><time>2026-04-22T07:43:54Z</time></trkpt><trkpt lat="42.90931452829441" lon="11.66023414643449"><ele>1003.25</ele><time>2026-04-22T07:43:55Z</time></trkpt><trkpt lat="42.90920524085607" lon="11.660308736960044"><ele>999.5</ele><time>2026-04-22T07:43:56Z</time></trkpt><trkpt lat="42.90909180807325" lon="11.660362700516187"><ele>995.75</ele><time>2026-04-22T07:43:57Z</time></trkpt><trkpt lat="42.90897695472544" lon="11.660397015699074"><ele>992.0</ele><time>2026-04-22T07:43:58Z</time></trkpt><trkpt lat="42.90886366314516" lon="11.66041832377839"><ele>992.0</ele><time>2026-04-22T07:43:59Z</time></trkpt><trkpt lat="42.90875176086957" lon="11.66043116910479"><ele>992.0</ele><time>2026-04-22T07:44:00Z</time></trkpt><trkpt lat="42.908646590191566" lon="11.660449333950648"><ele>992.0</ele><time>2026-04-22T07:44:01Z</time></trkpt><trkpt lat="42.90854299483917" lon="11.660473467858338"><ele>992.0</ele><time>2026-04-22T07:44:02Z</time></trkpt><trkpt lat="42.908442266521135" lon="11.660511629850662"><ele>992.0</ele><time>2026-04-22T07:44:03Z</time></trkpt><trkpt lat="42.90833857461514" lon="11.660553049052357"><ele>991.0</ele><time>2026-04-22T07:44:04Z</time></trkpt><trkpt lat="42.90822984547317" lon="11.660598734762521"><ele>990.0</ele><time>2026-04-22T07:44:05Z</time></trkpt><trkpt lat="42.908116829325905" lon="11.660638562768607"><ele>989.0</ele><time>2026-04-22T07:44:06Z</time></trkpt><trkpt lat="42.90800231990813" lon="11.66067525220973"><ele>988.0</ele><time>2026-04-22T07:44:07Z</time></trkpt><trkpt lat="42.9078896809068" lon="11.660711865248134"><ele>988.0</ele><time>2026-04-22T07:44:08Z</time></trkpt><trkpt lat="42.90777644942627" lon="11.6607518717603"><ele>988.0</ele><time>2026-04-22T07:44:09Z</time></trkpt><trkpt lat="42.907663681364276" lon="11.660798257461074"><ele>988.0</ele><time>2026-04-22T07:44:10Z</time></trkpt><trkpt lat="42.907550776943495" lon="11.660860722346957"><ele>988.0</ele><time>2026-04-22T07:44:11Z</time></trkpt><trkpt lat="42.90743527001196" lon="11.660939720129951"><ele>986.75</ele><time>2026-04-22T07:44:12Z</time></trkpt><trkpt lat="42.90731854362636" lon="11.66103214739304"><ele>985.5</ele><time>2026-04-22T07:44:13Z</time></trkpt><trkpt lat="42.90720123528817" lon="11.661131047720337"><ele>984.25</ele><time>2026-04-22T07:44:14Z</time></trkpt><trkpt lat="42.90707929583491" lon="11.661234273689864"><ele>983.0</ele><time>2026-04-22T07:44:15Z</time></trkpt><trkpt lat="42.90695560723988" lon="11.661337444553142"><ele>981.0</ele><time>2026-04-22T07:44:16Z</time></trkpt><trkpt lat="42.90683284552528" lon="11.661434821230038"><ele>979.0</ele><time>2026-04-22T07:44:17Z</time></trkpt><trkpt lat="42.90671460704141" lon="11.661533873590566"><ele>977.0</ele><time>2026-04-22T07:44:18Z</time></trkpt><trkpt lat="42.906599853557736" lon="11.661634817146401"><ele>975.0</ele><time>2026-04-22T07:44:19Z</time></trkpt><trkpt lat="42.90648179064725" lon="11.661736232881575"><ele>973.75</ele><time>2026-04-22T07:44:20Z</time></trkpt><trkpt lat="42.90635955215529" lon="11.661833271985289"><ele>972.5</ele><time>2026-04-22T07:44:21Z</time></trkpt><trkpt lat="42.90623294606718" lon="11.661929765989939"><ele>971.25</ele><time>2026-04-22T07:44:22Z</time></trkpt><trkpt lat="42.9061007580262" lon="11.662018588984369"><ele>970.0</ele><time>2026-04-22T07:44:23Z</time></trkpt><trkpt lat="42.90595663946445" lon="11.66209987812599"><ele>966.3333333333333</ele><time>2026-04-22T07:44:24Z</time></trkpt><trkpt lat="42.90581350852574" lon="11.662180022419173"><ele>962.6666666666667</ele><time>2026-04-22T07:44:25Z</time></trkpt><trkpt lat="42.90567085882381" lon="11.662256192596404"><ele>959.0</ele><time>2026-04-22T07:44:26Z</time></trkpt><trkpt lat="42.90553758393549" lon="11.662339497977884"><ele>959.0</ele><time>2026-04-22T07:44:27Z</time></trkpt><trkpt lat="42.9054066342159" lon="11.662415722271861"><ele>959.0</ele><time>2026-04-22T07:44:28Z</time></trkpt><trkpt lat="42.90527654016647" lon="11.662482868816536"><ele>959.0</ele><time>2026-04-22T07:44:29Z</time></trkpt><trkpt lat="42.90515167108058" lon="11.662534106402596"><ele>959.0</ele><time>2026-04-22T07:44:30Z</time></trkpt><trkpt lat="42.90502819208103" lon="11.66256297126711"><ele>958.25</ele><time>2026-04-22T07:44:31Z</time></trkpt><trkpt lat="42.90490337395285" lon="11.662569464853705"><ele>957.5</ele><time>2026-04-22T07:44:32Z</time></trkpt><trkpt lat="42.904779806089095" lon="11.66255149559155"><ele>956.75</ele><time>2026-04-22T07:44:33Z</time></trkpt><trkpt lat="42.90465854560211" lon="11.662526693361462"><ele>956.0</ele><time>2026-04-22T07:44:34Z</time></trkpt><trkpt lat="42.90453734247043" lon="11.662497338875548"><ele>956.0</ele><time>2026-04-22T07:44:35Z</time></trkpt><trkpt lat="42.90441335514444" lon="11.662497388955309"><ele>956.0</ele><time>2026-04-22T07:44:36Z</time></trkpt><trkpt lat="42.904287211230326" lon="11.662524835289368"><ele>956.0</ele><time>2026-04-22T07:44:37Z</time></trkpt><trkpt lat="42.9041649034604" lon="11.662568850428043"><ele>956.0</ele><time>2026-04-22T07:44:38Z</time></trkpt><trkpt lat="42.90404350932252" lon="11.662614406758058"><ele>954.25</ele><time>2026-04-22T07:44:39Z</time></trkpt><trkpt lat="42.90392293946036" lon="11.66265771147593"><ele>952.5</ele><time>2026-04-22T07:44:40Z</time></trkpt><trkpt lat="42.90380073116754" lon="11.662704770403996"><ele>950.75</ele><time>2026-04-22T07:44:41Z</time></trkpt><trkpt lat="42.90368171240164" lon="11.66275545879805"><ele>949.0</ele><time>2026-04-22T07:44:42Z</time></trkpt><trkpt lat="42.90356222602125" lon="11.66279308826451"><ele>948.0</ele><time>2026-04-22T07:44:43Z</time></trkpt><trkpt lat="42.90344154740005" lon="11.662813670141064"><ele>947.0</ele><time>2026-04-22T07:44:43.999Z</time></trkpt><trkpt lat="42.90331317391375" lon="11.662817727145805"><ele>946.0</ele><time>2026-04-22T07:44:44.999Z</time></trkpt><trkpt lat="42.90318035907235" lon="11.662805894882226"><ele>945.0</ele><time>2026-04-22T07:44:45.999Z</time></trkpt><trkpt lat="42.9030515584405" lon="11.662777450094142"><ele>945.0</ele><time>2026-04-22T07:44:46.999Z</time></trkpt><trkpt lat="42.90292650713451" lon="11.662734265775045"><ele>945.0</ele><time>2026-04-22T07:44:47.999Z</time></trkpt><trkpt lat="42.90280482492387" lon="11.662673964578387"><ele>945.0</ele><time>2026-04-22T07:44:48.999Z</time></trkpt><trkpt lat="42.90268699125304" lon="11.662608989823772"><ele>945.0</ele><time>2026-04-22T07:44:49.999Z</time></trkpt><trkpt lat="42.90257350932367" lon="11.662545823308323"><ele>943.2</ele><time>2026-04-22T07:44:50.999Z</time></trkpt><trkpt lat="42.90246478892718" lon="11.6624856157198"><ele>941.4</ele><time>2026-04-22T07:44:51.999Z</time></trkpt><trkpt lat="42.902359733707776" lon="11.662431693576728"><ele>939.5999999999999</ele><time>2026-04-22T07:44:52.999Z</time></trkpt><trkpt lat="42.90225918328648" lon="11.662380024787467"><ele>937.8</ele><time>2026-04-22T07:44:53.999Z</time></trkpt><trkpt lat="42.90215604850631" lon="11.662350646751984"><ele>936.0</ele><time>2026-04-22T07:44:54.999Z</time></trkpt><trkpt lat="42.90204763040071" lon="11.662350584079423"><ele>936.0</ele><time>2026-04-22T07:44:55.999Z</time></trkpt><trkpt lat="42.90194037370606" lon="11.662374318642662"><ele>936.0</ele><time>2026-04-22T07:44:56.999Z</time></trkpt><trkpt lat="42.90183031637935" lon="11.662403959632117"><ele>936.0</ele><time>2026-04-22T07:44:57.999Z</time></trkpt><trkpt lat="42.901731167868036" lon="11.662482762614934"><ele>936.0</ele><time>2026-04-22T07:44:58.999Z</time></trkpt><trkpt lat="42.901661423784546" lon="11.662610542421822"><ele>932.75</ele><time>2026-04-22T07:44:59.999Z</time></trkpt><trkpt lat="42.90158229811044" lon="11.662721808499674"><ele>929.5</ele><time>2026-04-22T07:45:00.999Z</time></trkpt><trkpt lat="42.90153527934532" lon="11.662871138537845"><ele>926.25</ele><time>2026-04-22T07:45:01.999Z</time></trkpt><trkpt lat="42.9015235460054" lon="11.663041755173452"><ele>923.0</ele><time>2026-04-22T07:45:02.999Z</time></trkpt><trkpt lat="42.90152852362787" lon="11.66321556042789"><ele>922.0</ele><time>2026-04-22T07:45:03.999Z</time></trkpt><trkpt lat="42.901576943945805" lon="11.663385058746702"><ele>921.0</ele><time>2026-04-22T07:45:04.999Z</time></trkpt><trkpt lat="42.90161099334632" lon="11.663559737741213"><ele>920.0</ele><time>2026-04-22T07:45:05.999Z</time></trkpt><trkpt lat="42.90163698963523" lon="11.66375226136694"><ele>919.0</ele><time>2026-04-22T07:45:06.999Z</time></trkpt><trkpt lat="42.901681069278574" lon="11.663932532683804"><ele>920.0</ele><time>2026-04-22T07:45:07.999Z</time></trkpt><trkpt lat="42.901734086286915" lon="11.664113490257092"><ele>921.0</ele><time>2026-04-22T07:45:08.999Z</time></trkpt><trkpt lat="42.90179604555305" lon="11.664288294801185"><ele>922.0</ele><time>2026-04-22T07:45:09.999Z</time></trkpt><trkpt lat="42.90186668402947" lon="11.664444682432684"><ele>923.0</ele><time>2026-04-22T07:45:10.999Z</time></trkpt><trkpt lat="42.90192617855935" lon="11.664600343576733"><ele>919.75</ele><time>2026-04-22T07:45:12Z</time></trkpt><trkpt lat="42.90198889938702" lon="11.664744409632126"><ele>916.5</ele><time>2026-04-22T07:45:13Z</time></trkpt><trkpt lat="42.90205238424833" lon="11.664875181744303"><ele>913.25</ele><time>2026-04-22T07:45:14Z</time></trkpt><trkpt lat="42.90211556453098" lon="11.665000780488725"><ele>910.0</ele><time>2026-04-22T07:45:15Z</time></trkpt><trkpt lat="42.90217611972226" lon="11.665119472530012"><ele>910.0</ele><time>2026-04-22T07:45:16Z</time></trkpt><trkpt lat="42.90223884717827" lon="11.665235946024843"><ele>910.0</ele><time>2026-04-22T07:45:17Z</time></trkpt><trkpt lat="42.90229896715083" lon="11.66534898845576"><ele>910.0</ele><time>2026-04-22T07:45:18Z</time></trkpt><trkpt lat="42.902354037383084" lon="11.665464375684248"><ele>910.0</ele><time>2026-04-22T07:45:19Z</time></trkpt><trkpt lat="42.90240309916153" lon="11.665584147762866"><ele>910.0</ele><time>2026-04-22T07:45:20Z</time></trkpt><trkpt lat="42.90247407310405" lon="11.665838696072711"><ele>908.6</ele><time>2026-04-22T07:45:22Z</time></trkpt><trkpt lat="42.902492708086584" lon="11.665976212805266"><ele>907.2</ele><time>2026-04-22T07:45:23Z</time></trkpt><trkpt lat="42.90249221930422" lon="11.666119590302468"><ele>905.8</ele><time>2026-04-22T07:45:24Z</time></trkpt><trkpt lat="42.90247219321738" lon="11.666259078401179"><ele>904.4</ele><time>2026-04-22T07:45:25Z</time></trkpt><trkpt lat="42.902452664565665" lon="11.666397008130922"><ele>903.0</ele><time>2026-04-22T07:45:26Z</time></trkpt><trkpt lat="42.90237606649255" lon="11.66650458875884"><ele>903.0</ele><time>2026-04-22T07:45:27Z</time></trkpt><trkpt lat="42.90229480725103" lon="11.66660561471913"><ele>903.0</ele><time>2026-04-22T07:45:28Z</time></trkpt><trkpt lat="42.90219677373931" lon="11.666692923694157"><ele>903.0</ele><time>2026-04-22T07:45:29Z</time></trkpt><trkpt lat="42.902081114780465" lon="11.666758343363815"><ele>903.0</ele><time>2026-04-22T07:45:30Z</time></trkpt><trkpt lat="42.901956563566166" lon="11.66678529358298"><ele>903.0</ele><time>2026-04-22T07:45:31Z</time></trkpt><trkpt lat="42.901831245793254" lon="11.666788803287577"><ele>903.0</ele><time>2026-04-22T07:45:32Z</time></trkpt><trkpt lat="42.90170918244694" lon="11.666774641555254"><ele>903.0</ele><time>2026-04-22T07:45:33Z</time></trkpt><trkpt lat="42.90158995825092" lon="11.666749338274974"><ele>903.0</ele><time>2026-04-22T07:45:34Z</time></trkpt><trkpt lat="42.90147090732381" lon="11.666731071010021"><ele>899.0</ele><time>2026-04-22T07:45:35Z</time></trkpt><trkpt lat="42.90135262211386" lon="11.666719674740966"><ele>895.0</ele><time>2026-04-22T07:45:36Z</time></trkpt><trkpt lat="42.90123555913346" lon="11.666720994246312"><ele>891.0</ele><time>2026-04-22T07:45:37Z</time></trkpt><trkpt lat="42.90112025280249" lon="11.666736504877898"><ele>887.0</ele><time>2026-04-22T07:45:38Z</time></trkpt><trkpt lat="42.90100782857775" lon="11.66677144923356"><ele>885.25</ele><time>2026-04-22T07:45:39Z</time></trkpt><trkpt lat="42.90089829592656" lon="11.666822545548937"><ele>883.5</ele><time>2026-04-22T07:45:40Z</time></trkpt><trkpt lat="42.90079632488053" lon="11.666890878472692"><ele>881.75</ele><time>2026-04-22T07:45:41Z</time></trkpt><trkpt lat="42.90068650213136" lon="11.666934956411794"><ele>880.0</ele><time>2026-04-22T07:45:42Z</time></trkpt><trkpt lat="42.900582904344525" lon="11.666999773888945"><ele>879.0</ele><time>2026-04-22T07:45:43Z</time></trkpt><trkpt lat="42.90048962563985" lon="11.667073680254575"><ele>878.0</ele><time>2026-04-22T07:45:44Z</time></trkpt><trkpt lat="42.90041559283204" lon="11.6671318890004"><ele>877.0</ele><time>2026-04-22T07:45:45Z</time></trkpt><trkpt lat="42.900359830421834" lon="11.667175731251382"><ele>876.0</ele><time>2026-04-22T07:45:46Z</time></trkpt><trkpt lat="42.90030190775522" lon="11.667221272078208"><ele>875.0</ele><time>2026-04-22T07:45:48Z</time></trkpt><trkpt lat="42.90039714405148" lon="11.667434004740311"><ele>875.0</ele><time>2026-04-22T07:45:52Z</time></trkpt><trkpt lat="42.90047311695322" lon="11.667478269448305"><ele>875.0</ele><time>2026-04-22T07:45:53Z</time></trkpt><trkpt lat="42.90054038500779" lon="11.66753251014426"><ele>875.0</ele><time>2026-04-22T07:45:54Z</time></trkpt><trkpt lat="42.90061420925149" lon="11.667597277215267"><ele>875.0</ele><time>2026-04-22T07:45:55Z</time></trkpt><trkpt lat="42.900698666708756" lon="11.667664714046289"><ele>875.0</ele><time>2026-04-22T07:45:56Z</time></trkpt><trkpt lat="42.90079373111101" lon="11.6677219337151"><ele>875.0</ele><time>2026-04-22T07:45:57Z</time></trkpt><trkpt lat="42.90089510187928" lon="11.667753081113132"><ele>875.0</ele><time>2026-04-22T07:45:58Z</time></trkpt><trkpt lat="42.90099671325409" lon="11.667746708485467"><ele>875.0</ele><time>2026-04-22T07:45:59Z</time></trkpt><trkpt lat="42.901111066104335" lon="11.667714752083178"><ele>875.0</ele><time>2026-04-22T07:46:00Z</time></trkpt><trkpt lat="42.90122928041492" lon="11.66766207604878"><ele>875.0</ele><time>2026-04-22T07:46:01Z</time></trkpt><trkpt lat="42.9013541712193" lon="11.667619425670283"><ele>875.75</ele><time>2026-04-22T07:46:02Z</time></trkpt><trkpt lat="42.90148900300718" lon="11.667599452230036"><ele>876.5</ele><time>2026-04-22T07:46:03Z</time></trkpt><trkpt lat="42.901628857521864" lon="11.66758634544287"><ele>877.25</ele><time>2026-04-22T07:46:04Z</time></trkpt><trkpt lat="42.901763431409314" lon="11.667604172110794"><ele>878.0</ele><time>2026-04-22T07:46:05Z</time></trkpt><trkpt lat="42.901895188463115" lon="11.667615928650442"><ele>880.5</ele><time>2026-04-22T07:46:06Z</time></trkpt><trkpt lat="42.902021561665556" lon="11.667634734826668"><ele>883.0</ele><time>2026-04-22T07:46:07Z</time></trkpt><trkpt lat="42.902134151683796" lon="11.667721738665467"><ele>885.5</ele><time>2026-04-22T07:46:08Z</time></trkpt><trkpt lat="42.902239269237874" lon="11.667844732566031"><ele>888.0</ele><time>2026-04-22T07:46:09Z</time></trkpt><trkpt lat="42.90231533986371" lon="11.66801003740346"><ele>888.0</ele><time>2026-04-22T07:46:10Z</time></trkpt><trkpt lat="42.90240188141054" lon="11.668174437382214"><ele>888.0</ele><time>2026-04-22T07:46:11Z</time></trkpt><trkpt lat="42.90249616028828" lon="11.668337221100822"><ele>888.0</ele><time>2026-04-22T07:46:12Z</time></trkpt><trkpt lat="42.90257611441956" lon="11.668508810554215"><ele>888.0</ele><time>2026-04-22T07:46:13Z</time></trkpt><trkpt lat="42.90265935525071" lon="11.668658021554688"><ele>884.5999999999999</ele><time>2026-04-22T07:46:14Z</time></trkpt><trkpt lat="42.90274199330677" lon="11.668774430620704"><ele>881.1999999999999</ele><time>2026-04-22T07:46:15Z</time></trkpt><trkpt lat="42.90283216047" lon="11.668857300259273"><ele>877.8</ele><time>2026-04-22T07:46:16Z</time></trkpt><trkpt lat="42.902929363271504" lon="11.668888165878734"><ele>874.4</ele><time>2026-04-22T07:46:17Z</time></trkpt><trkpt lat="42.90302422489832" lon="11.668866491773814"><ele>871.0</ele><time>2026-04-22T07:46:18Z</time></trkpt><trkpt lat="42.90311481827427" lon="11.66879885440203"><ele>871.0</ele><time>2026-04-22T07:46:19Z</time></trkpt><trkpt lat="42.903186420972446" lon="11.668685906453753"><ele>871.0</ele><time>2026-04-22T07:46:20Z</time></trkpt><trkpt lat="42.90324943536133" lon="11.668552818412026"><ele>871.0</ele><time>2026-04-22T07:46:21Z</time></trkpt><trkpt lat="42.9033084714847" lon="11.668399678236288"><ele>871.0</ele><time>2026-04-22T07:46:22Z</time></trkpt><trkpt lat="42.903376219762904" lon="11.668243228822835"><ele>875.0</ele><time>2026-04-22T07:46:23Z</time></trkpt><trkpt lat="42.90345453893493" lon="11.668083826967367"><ele>879.0</ele><time>2026-04-22T07:46:24Z</time></trkpt><trkpt lat="42.90353418369919" lon="11.667915421104148"><ele>883.0</ele><time>2026-04-22T07:46:25Z</time></trkpt><trkpt lat="42.903617024437224" lon="11.667743343990175"><ele>887.0</ele><time>2026-04-22T07:46:26Z</time></trkpt><trkpt lat="42.90370010039266" lon="11.667578022955885"><ele>888.75</ele><time>2026-04-22T07:46:27Z</time></trkpt><trkpt lat="42.90378070870683" lon="11.667429480777619"><ele>890.5</ele><time>2026-04-22T07:46:28Z</time></trkpt><trkpt lat="42.9038712349502" lon="11.667304509488273"><ele>892.25</ele><time>2026-04-22T07:46:29Z</time></trkpt><trkpt lat="42.9039763601611" lon="11.667199599033125"><ele>894.0</ele><time>2026-04-22T07:46:30Z</time></trkpt><trkpt lat="42.90409245305199" lon="11.667112859271736"><ele>894.0</ele><time>2026-04-22T07:46:31Z</time></trkpt><trkpt lat="42.90421276441476" lon="11.667039784927605"><ele>894.0</ele><time>2026-04-22T07:46:32Z</time></trkpt><trkpt lat="42.90432688391161" lon="11.666983544314482"><ele>894.0</ele><time>2026-04-22T07:46:33Z</time></trkpt><trkpt lat="42.90443617214714" lon="11.666960538255882"><ele>894.0</ele><time>2026-04-22T07:46:34Z</time></trkpt><trkpt lat="42.904538696679325" lon="11.666987683589738"><ele>896.5</ele><time>2026-04-22T07:46:35Z</time></trkpt><trkpt lat="42.904642099732435" lon="11.667043248097354"><ele>899.0</ele><time>2026-04-22T07:46:36Z</time></trkpt><trkpt lat="42.904749651146986" lon="11.66710340604883"><ele>901.5</ele><time>2026-04-22T07:46:37Z</time></trkpt><trkpt lat="42.90485592963922" lon="11.667172422955005"><ele>904.0</ele><time>2026-04-22T07:46:38Z</time></trkpt><trkpt lat="42.90493844007981" lon="11.667272174433844"><ele>904.0</ele><time>2026-04-22T07:46:39Z</time></trkpt><trkpt lat="42.90499048462029" lon="11.667399271926325"><ele>904.0</ele><time>2026-04-22T07:46:40Z</time></trkpt><trkpt lat="42.905008072912096" lon="11.667555310304312"><ele>904.0</ele><time>2026-04-22T07:46:41Z</time></trkpt><trkpt lat="42.90498111524747" lon="11.667710551106165"><ele>904.0</ele><time>2026-04-22T07:46:42Z</time></trkpt><trkpt lat="42.90496783844452" lon="11.667879245687596"><ele>904.0</ele><time>2026-04-22T07:46:43Z</time></trkpt><trkpt lat="42.904939855549905" lon="11.668051636668455"><ele>904.0</ele><time>2026-04-22T07:46:44Z</time></trkpt><trkpt lat="42.90491660532822" lon="11.668235788707678"><ele>904.0</ele><time>2026-04-22T07:46:45Z</time></trkpt><trkpt lat="42.90490137900467" lon="11.668427245328285"><ele>904.0</ele><time>2026-04-22T07:46:46Z</time></trkpt><trkpt lat="42.90489880783385" lon="11.668611446403188"><ele>902.8000000000001</ele><time>2026-04-22T07:46:47Z</time></trkpt><trkpt lat="42.90491455110946" lon="11.668771140988177"><ele>901.6000000000001</ele><time>2026-04-22T07:46:48Z</time></trkpt><trkpt lat="42.90494665324377" lon="11.668916066555404"><ele>900.4</ele><time>2026-04-22T07:46:49Z</time></trkpt><trkpt lat="42.90500828054251" lon="11.669020999328467"><ele>899.2</ele><time>2026-04-22T07:46:50Z</time></trkpt><trkpt lat="42.90508998994298" lon="11.669075405607721"><ele>898.0</ele><time>2026-04-22T07:46:51Z</time></trkpt><trkpt lat="42.90518592944056" lon="11.669094830519475"><ele>898.0</ele><time>2026-04-22T07:46:52Z</time></trkpt><trkpt lat="42.905289305198814" lon="11.669069669734094"><ele>898.0</ele><time>2026-04-22T07:46:53Z</time></trkpt><trkpt lat="42.90539071118291" lon="11.669009795340298"><ele>898.0</ele><time>2026-04-22T07:46:54Z</time></trkpt><trkpt lat="42.90549868702308" lon="11.668948336518742"><ele>898.0</ele><time>2026-04-22T07:46:55Z</time></trkpt><trkpt lat="42.9056207287735" lon="11.668913885167232"><ele>898.0</ele><time>2026-04-22T07:46:56Z</time></trkpt><trkpt lat="42.90575033421326" lon="11.668909940408053"><ele>898.0</ele><time>2026-04-22T07:46:56.999Z</time></trkpt><trkpt lat="42.9058812505034" lon="11.668944833662499"><ele>898.0</ele><time>2026-04-22T07:46:57.999Z</time></trkpt><trkpt lat="42.90600947008162" lon="11.669010581935146"><ele>898.0</ele><time>2026-04-22T07:46:58.999Z</time></trkpt><trkpt lat="42.906136970450135" lon="11.669062471402125"><ele>898.5</ele><time>2026-04-22T07:46:59.999Z</time></trkpt><trkpt lat="42.906254530759085" lon="11.669059833642606"><ele>899.0</ele><time>2026-04-22T07:47:00.999Z</time></trkpt><trkpt lat="42.90637120366306" lon="11.669014088712597"><ele>899.5</ele><time>2026-04-22T07:47:01.999Z</time></trkpt><trkpt lat="42.90648313246252" lon="11.668945610076731"><ele>900.0</ele><time>2026-04-22T07:47:02.999Z</time></trkpt><trkpt lat="42.90659751666376" lon="11.66886806370759"><ele>900.0</ele><time>2026-04-22T07:47:03.999Z</time></trkpt><trkpt lat="42.906716029752836" lon="11.668796051437441"><ele>900.0</ele><time>2026-04-22T07:47:04.999Z</time></trkpt><trkpt lat="42.90684270425122" lon="11.668739455393148"><ele>900.0</ele><time>2026-04-22T07:47:05.999Z</time></trkpt><trkpt lat="42.90696902233383" lon="11.66869621797228"><ele>900.0</ele><time>2026-04-22T07:47:06.999Z</time></trkpt><trkpt lat="42.90709090753488" lon="11.66864077612318"><ele>903.0</ele><time>2026-04-22T07:47:07.999Z</time></trkpt><trkpt lat="42.907209588888584" lon="11.66856160250542"><ele>906.0</ele><time>2026-04-22T07:47:08.999Z</time></trkpt><trkpt lat="42.907326137388715" lon="11.668470032028123"><ele>909.0</ele><time>2026-04-22T07:47:09.999Z</time></trkpt><trkpt lat="42.90743891308685" lon="11.668366244172626"><ele>912.0</ele><time>2026-04-22T07:47:10.999Z</time></trkpt><trkpt lat="42.9075462683322" lon="11.668249926600307"><ele>912.5</ele><time>2026-04-22T07:47:11.999Z</time></trkpt><trkpt lat="42.90763662039526" lon="11.668114430244739"><ele>913.0</ele><time>2026-04-22T07:47:12.999Z</time></trkpt><trkpt lat="42.90769922305363" lon="11.667954744075084"><ele>913.5</ele><time>2026-04-22T07:47:13.999Z</time></trkpt><trkpt lat="42.90774516956426" lon="11.667797675948622"><ele>914.0</ele><time>2026-04-22T07:47:14.999Z</time></trkpt><trkpt lat="42.9077942737464" lon="11.667668965405317"><ele>914.0000000000001</ele><time>2026-04-22T07:47:15.999Z</time></trkpt><trkpt lat="42.907865513187204" lon="11.667577513899657"><ele>914.0</ele><time>2026-04-22T07:47:16.999Z</time></trkpt><trkpt lat="42.90795304578979" lon="11.667547107375382"><ele>914.0</ele><time>2026-04-22T07:47:18.001Z</time></trkpt><trkpt lat="42.90803419250166" lon="11.667569913736925"><ele>914.0</ele><time>2026-04-22T07:47:19.001Z</time></trkpt><trkpt lat="42.90810181117733" lon="11.667619407606571"><ele>914.0000000000001</ele><time>2026-04-22T07:47:20Z</time></trkpt><trkpt lat="42.90816413107715" lon="11.667706590214657"><ele>914.0</ele><time>2026-04-22T07:47:21Z</time></trkpt><trkpt lat="42.90820293583439" lon="11.66783034339143"><ele>914.0</ele><time>2026-04-22T07:47:22.001Z</time></trkpt><trkpt lat="42.90823004174556" lon="11.667970789383281"><ele>914.0</ele><time>2026-04-22T07:47:23Z</time></trkpt><trkpt lat="42.90825118431943" lon="11.668125183490272"><ele>914.0</ele><time>2026-04-22T07:47:24Z</time></trkpt><trkpt lat="42.908276277290426" lon="11.66828470564146"><ele>914.0</ele><time>2026-04-22T07:47:25Z</time></trkpt><trkpt lat="42.90830426337918" lon="11.668451245776803"><ele>912.25</ele><time>2026-04-22T07:47:26Z</time></trkpt><trkpt lat="42.90833394151574" lon="11.668615954119625"><ele>910.5</ele><time>2026-04-22T07:47:27Z</time></trkpt><trkpt lat="42.9083683790145" lon="11.668767000694935"><ele>908.75</ele><time>2026-04-22T07:47:28Z</time></trkpt><trkpt lat="42.908410047770154" lon="11.668909707580733"><ele>907.0</ele><time>2026-04-22T07:47:29Z</time></trkpt><trkpt lat="42.908464308692025" lon="11.669043586506486"><ele>909.25</ele><time>2026-04-22T07:47:30Z</time></trkpt><trkpt lat="42.908532957526084" lon="11.669160056076658"><ele>911.5</ele><time>2026-04-22T07:47:31Z</time></trkpt><trkpt lat="42.90871309955269" lon="11.669308328562943"><ele>913.75</ele><time>2026-04-22T07:47:33Z</time></trkpt><trkpt lat="42.90881518963381" lon="11.669394015080512"><ele>916.0</ele><time>2026-04-22T07:47:34Z</time></trkpt><trkpt lat="42.90892261055998" lon="11.669482601764042"><ele>916.0</ele><time>2026-04-22T07:47:35Z</time></trkpt><trkpt lat="42.90902216997902" lon="11.669568214450615"><ele>915.9999999999999</ele><time>2026-04-22T07:47:36Z</time></trkpt><trkpt lat="42.90910053522933" lon="11.669667007802415"><ele>915.9999999999999</ele><time>2026-04-22T07:47:37Z</time></trkpt><trkpt lat="42.9091481200558" lon="11.669792866876346"><ele>916.0</ele><time>2026-04-22T07:47:38Z</time></trkpt><trkpt lat="42.909165809621804" lon="11.669931294583103"><ele>916.0</ele><time>2026-04-22T07:47:39Z</time></trkpt><trkpt lat="42.909166501184046" lon="11.670077754493786"><ele>916.0</ele><time>2026-04-22T07:47:40Z</time></trkpt><trkpt lat="42.90915860535532" lon="11.670232975763941"><ele>916.0</ele><time>2026-04-22T07:47:41Z</time></trkpt><trkpt lat="42.90914990366309" lon="11.67039547403366"><ele>916.0</ele><time>2026-04-22T07:47:42Z</time></trkpt><trkpt lat="42.90912686466521" lon="11.670557641054847"><ele>916.0</ele><time>2026-04-22T07:47:43Z</time></trkpt><trkpt lat="42.90914375403187" lon="11.670707957803453"><ele>916.4</ele><time>2026-04-22T07:47:44Z</time></trkpt><trkpt lat="42.90916252808635" lon="11.670847898896987"><ele>916.8</ele><time>2026-04-22T07:47:45Z</time></trkpt><trkpt lat="42.909204012575195" lon="11.67097420903715"><ele>917.1999999999999</ele><time>2026-04-22T07:47:46Z</time></trkpt><trkpt lat="42.90927507216049" lon="11.671077336634285"><ele>917.5999999999999</ele><time>2026-04-22T07:47:47Z</time></trkpt><trkpt lat="42.90936115253414" lon="11.671163918479229"><ele>918.0</ele><time>2026-04-22T07:47:48Z</time></trkpt><trkpt lat="42.90943381096353" lon="11.671272865280347"><ele>918.0</ele><time>2026-04-22T07:47:49Z</time></trkpt><trkpt lat="42.909489652977285" lon="11.671400605707136"><ele>918.0</ele><time>2026-04-22T07:47:50Z</time></trkpt><trkpt lat="42.9095180804863" lon="11.67156848722654"><ele>918.0</ele><time>2026-04-22T07:47:51Z</time></trkpt><trkpt lat="42.9095076643604" lon="11.671719871832774"><ele>918.0</ele><time>2026-04-22T07:47:52Z</time></trkpt><trkpt lat="42.90946727345649" lon="11.67186658309626"><ele>919.0</ele><time>2026-04-22T07:47:53Z</time></trkpt><trkpt lat="42.90942185296668" lon="11.672013367599599"><ele>920.0</ele><time>2026-04-22T07:47:54Z</time></trkpt><trkpt lat="42.90937987125306" lon="11.672169251045789"><ele>921.0</ele><time>2026-04-22T07:47:55Z</time></trkpt><trkpt lat="42.90933417346396" lon="11.672330214948788"><ele>922.0</ele><time>2026-04-22T07:47:56Z</time></trkpt><trkpt lat="42.90928528072257" lon="11.672496733045515"><ele>916.25</ele><time>2026-04-22T07:47:57Z</time></trkpt><trkpt lat="42.909232605784815" lon="11.672663250808904"><ele>910.5</ele><time>2026-04-22T07:47:58Z</time></trkpt><trkpt lat="42.90917914595141" lon="11.672829850942176"><ele>904.75</ele><time>2026-04-22T07:47:59Z</time></trkpt><trkpt lat="42.90912867506898" lon="11.67298137947145"><ele>899.0</ele><time>2026-04-22T07:48:00Z</time></trkpt><trkpt lat="42.90909535706575" lon="11.673132829936055"><ele>898.6</ele><time>2026-04-22T07:48:01Z</time></trkpt><trkpt lat="42.9090899079381" lon="11.673279358416151"><ele>898.2</ele><time>2026-04-22T07:48:02Z</time></trkpt><trkpt lat="42.909111456287846" lon="11.673415198201956"><ele>897.8000000000001</ele><time>2026-04-22T07:48:03Z</time></trkpt><trkpt lat="42.909160719038006" lon="11.673543831899666"><ele>897.4000000000001</ele><time>2026-04-22T07:48:04Z</time></trkpt><trkpt lat="42.90923089752607" lon="11.673674080314075"><ele>897.0</ele><time>2026-04-22T07:48:05Z</time></trkpt><trkpt lat="42.90932051823187" lon="11.673791901152551"><ele>897.0</ele><time>2026-04-22T07:48:06Z</time></trkpt><trkpt lat="42.90941647956745" lon="11.673907218668313"><ele>897.0</ele><time>2026-04-22T07:48:07Z</time></trkpt><trkpt lat="42.909482767284054" lon="11.674054229422211"><ele>897.0</ele><time>2026-04-22T07:48:08Z</time></trkpt><trkpt lat="42.90953254427448" lon="11.674209050994564"><ele>897.0</ele><time>2026-04-22T07:48:09Z</time></trkpt><trkpt lat="42.90957170311102" lon="11.674368380524092"><ele>896.5</ele><time>2026-04-22T07:48:10Z</time></trkpt><trkpt lat="42.90961449574204" lon="11.674533870119067"><ele>896.0</ele><time>2026-04-22T07:48:10.999Z</time></trkpt><trkpt lat="42.9096243977711" lon="11.67471252875715"><ele>895.5</ele><time>2026-04-22T07:48:11.999Z</time></trkpt><trkpt lat="42.90959871496883" lon="11.674888024012306"><ele>895.0</ele><time>2026-04-22T07:48:12.999Z</time></trkpt><trkpt lat="42.90956891717348" lon="11.675057710019525"><ele>895.0</ele><time>2026-04-22T07:48:13.999Z</time></trkpt><trkpt lat="42.90953870772398" lon="11.675230275648463"><ele>895.0</ele><time>2026-04-22T07:48:14.999Z</time></trkpt><trkpt lat="42.90953000830212" lon="11.675396905383602"><ele>895.0</ele><time>2026-04-22T07:48:15.999Z</time></trkpt><trkpt lat="42.9095429839734" lon="11.675554573703977"><ele>895.0</ele><time>2026-04-22T07:48:16.999Z</time></trkpt><trkpt lat="42.909581099044225" lon="11.675719066759076"><ele>893.25</ele><time>2026-04-22T07:48:17.999Z</time></trkpt><trkpt lat="42.90962683781853" lon="11.675895795015059"><ele>891.5</ele><time>2026-04-22T07:48:18.999Z</time></trkpt><trkpt lat="42.90966254271739" lon="11.676070257524946"><ele>889.75</ele><time>2026-04-22T07:48:19.999Z</time></trkpt><trkpt lat="42.90968880824227" lon="11.676251601864095"><ele>888.0</ele><time>2026-04-22T07:48:20.999Z</time></trkpt><trkpt lat="42.90971020208684" lon="11.676439597669278"><ele>884.5</ele><time>2026-04-22T07:48:21.999Z</time></trkpt><trkpt lat="42.90972904574571" lon="11.676635692194095"><ele>881.0</ele><time>2026-04-22T07:48:22.999Z</time></trkpt><trkpt lat="42.90974732437228" lon="11.676838186333823"><ele>877.5</ele><time>2026-04-22T07:48:23.999Z</time></trkpt><trkpt lat="42.90976169013368" lon="11.677042446292356"><ele>874.0</ele><time>2026-04-22T07:48:24.999Z</time></trkpt><trkpt lat="42.909764825614744" lon="11.677251403006776"><ele>871.75</ele><time>2026-04-22T07:48:25.999Z</time></trkpt><trkpt lat="42.90974569341244" lon="11.677456576217311"><ele>869.5</ele><time>2026-04-22T07:48:26.999Z</time></trkpt><trkpt lat="42.90971543772783" lon="11.677654056603044"><ele>867.25</ele><time>2026-04-22T07:48:27.999Z</time></trkpt><trkpt lat="42.90969162375555" lon="11.677851474529927"><ele>865.0</ele><time>2026-04-22T07:48:28.999Z</time></trkpt><trkpt lat="42.90967321863932" lon="11.678039704087908"><ele>864.75</ele><time>2026-04-22T07:48:29.999Z</time></trkpt><trkpt lat="42.909659521339435" lon="11.678220680899678"><ele>864.5</ele><time>2026-04-22T07:48:30.999Z</time></trkpt><trkpt lat="42.909649779255275" lon="11.678394216529071"><ele>864.25</ele><time>2026-04-22T07:48:31.999Z</time></trkpt><trkpt lat="42.909641992730315" lon="11.67857225630046"><ele>864.0</ele><time>2026-04-22T07:48:32.999Z</time></trkpt><trkpt lat="42.90963704575207" lon="11.67875386255758"><ele>864.75</ele><time>2026-04-22T07:48:33.999Z</time></trkpt><trkpt lat="42.90963736268715" lon="11.67893925588518"><ele>865.5</ele><time>2026-04-22T07:48:34.999Z</time></trkpt><trkpt lat="42.90964153834654" lon="11.679123274517238"><ele>866.25</ele><time>2026-04-22T07:48:35.999Z</time></trkpt><trkpt lat="42.909631697941784" lon="11.679314308339439"><ele>867.0</ele><time>2026-04-22T07:48:36.999Z</time></trkpt><trkpt lat="42.909635892118416" lon="11.679512817675308"><ele>868.5</ele><time>2026-04-22T07:48:37.999Z</time></trkpt><trkpt lat="42.909646519963395" lon="11.679711035634206"><ele>870.0</ele><time>2026-04-22T07:48:38.999Z</time></trkpt><trkpt lat="42.90967766141604" lon="11.679903857542191"><ele>871.5</ele><time>2026-04-22T07:48:39.999Z</time></trkpt><trkpt lat="42.909715797860244" lon="11.680096375670319"><ele>873.0</ele><time>2026-04-22T07:48:40.999Z</time></trkpt><trkpt lat="42.90977112456165" lon="11.680285028391774"><ele>875.0</ele><time>2026-04-22T07:48:41.999Z</time></trkpt><trkpt lat="42.90983795244466" lon="11.680465114301716"><ele>877.0</ele><time>2026-04-22T07:48:42.999Z</time></trkpt><trkpt lat="42.90990510775998" lon="11.680647478688647"><ele>879.0</ele><time>2026-04-22T07:48:43.999Z</time></trkpt><trkpt lat="42.909938797165644" lon="11.680837296260076"><ele>881.0</ele><time>2026-04-22T07:48:44.999Z</time></trkpt><trkpt lat="42.90996659434589" lon="11.68103760791251"><ele>881.3333333333334</ele><time>2026-04-22T07:48:45.999Z</time></trkpt><trkpt lat="42.90997960855085" lon="11.681246396173416"><ele>881.6666666666667</ele><time>2026-04-22T07:48:46.999Z</time></trkpt><trkpt lat="42.90999044087952" lon="11.681457994405868"><ele>882.0</ele><time>2026-04-22T07:48:47.999Z</time></trkpt><trkpt lat="42.91000238549034" lon="11.68167720064542"><ele>882.0</ele><time>2026-04-22T07:48:48.999Z</time></trkpt><trkpt lat="42.91003136444373" lon="11.681891215526278"><ele>882.0</ele><time>2026-04-22T07:48:49.999Z</time></trkpt><trkpt lat="42.910045552401805" lon="11.682108610328786"><ele>882.0</ele><time>2026-04-22T07:48:50.999Z</time></trkpt><trkpt lat="42.910067032157336" lon="11.682311296122009"><ele>880.75</ele><time>2026-04-22T07:48:51.999Z</time></trkpt><trkpt lat="42.910092866760294" lon="11.682512846221671"><ele>879.5</ele><time>2026-04-22T07:48:52.999Z</time></trkpt><trkpt lat="42.91011691156647" lon="11.682702828334618"><ele>878.25</ele><time>2026-04-22T07:48:53.999Z</time></trkpt><trkpt lat="42.91013071424761" lon="11.682888293428157"><ele>877.0</ele><time>2026-04-22T07:48:54.999Z</time></trkpt><trkpt lat="42.91012872364578" lon="11.683066831167308"><ele>877.0</ele><time>2026-04-22T07:48:55.999Z</time></trkpt><trkpt lat="42.910117103570435" lon="11.683241393178477"><ele>877.0</ele><time>2026-04-22T07:48:56.999Z</time></trkpt><trkpt lat="42.910088329593314" lon="11.683417588208686"><ele>877.0</ele><time>2026-04-22T07:48:57.999Z</time></trkpt><trkpt lat="42.91004082852661" lon="11.683587619666602"><ele>877.0</ele><time>2026-04-22T07:48:58.999Z</time></trkpt><trkpt lat="42.90998058755604" lon="11.683740674278615"><ele>878.0</ele><time>2026-04-22T07:48:59.999Z</time></trkpt><trkpt lat="42.909922919973894" lon="11.683885901518673"><ele>879.0</ele><time>2026-04-22T07:49:00.999Z</time></trkpt><trkpt lat="42.909885198174415" lon="11.68402586563936"><ele>880.0</ele><time>2026-04-22T07:49:01.999Z</time></trkpt><trkpt lat="42.909866444805964" lon="11.68417634595543"><ele>881.0</ele><time>2026-04-22T07:49:02.999Z</time></trkpt><trkpt lat="42.909866404623244" lon="11.684335874545205"><ele>879.75</ele><time>2026-04-22T07:49:03.999Z</time></trkpt><trkpt lat="42.90986643108575" lon="11.684512433787845"><ele>878.5</ele><time>2026-04-22T07:49:04.999Z</time></trkpt><trkpt lat="42.9098978999536" lon="11.68468911543476"><ele>877.25</ele><time>2026-04-22T07:49:05.999Z</time></trkpt><trkpt lat="42.90990957195868" lon="11.684871458503194"><ele>876.0</ele><time>2026-04-22T07:49:06.999Z</time></trkpt><trkpt lat="42.90991943794126" lon="11.685059443477362"><ele>876.0</ele><time>2026-04-22T07:49:07.999Z</time></trkpt><trkpt lat="42.90994087120596" lon="11.68525583707258"><ele>876.0</ele><time>2026-04-22T07:49:08.999Z</time></trkpt><trkpt lat="42.909961430280426" lon="11.685459837514754"><ele>876.0</ele><time>2026-04-22T07:49:09.999Z</time></trkpt><trkpt lat="42.90998192125527" lon="11.685674657557854"><ele>872.6666666666667</ele><time>2026-04-22T07:49:10.999Z</time></trkpt><trkpt lat="42.90999923369887" lon="11.685894954268438"><ele>869.3333333333334</ele><time>2026-04-22T07:49:11.999Z</time></trkpt><trkpt lat="42.91002010552723" lon="11.686120040903425"><ele>866.0</ele><time>2026-04-22T07:49:12.999Z</time></trkpt><trkpt lat="42.910045552906396" lon="11.686347663566298"><ele>864.6666666666667</ele><time>2026-04-22T07:49:13.999Z</time></trkpt><trkpt lat="42.91006636397649" lon="11.68657283797373"><ele>863.3333333333333</ele><time>2026-04-22T07:49:14.999Z</time></trkpt><trkpt lat="42.910089160872246" lon="11.686792570029596"><ele>862.0</ele><time>2026-04-22T07:49:15.999Z</time></trkpt><trkpt lat="42.91011064738013" lon="11.68701323683814"><ele>859.0</ele><time>2026-04-22T07:49:16.999Z</time></trkpt><trkpt lat="42.91011467678505" lon="11.687229578796506"><ele>856.0</ele><time>2026-04-22T07:49:17.999Z</time></trkpt><trkpt lat="42.910134871744376" lon="11.68745053123338"><ele>853.0</ele><time>2026-04-22T07:49:18.999Z</time></trkpt><trkpt lat="42.91015747279443" lon="11.687672452580795"><ele>853.3333333333333</ele><time>2026-04-22T07:49:19.999Z</time></trkpt><trkpt lat="42.910199001686706" lon="11.687889722153134"><ele>853.6666666666667</ele><time>2026-04-22T07:49:20.999Z</time></trkpt><trkpt lat="42.9102280414752" lon="11.688114397067974"><ele>854.0</ele><time>2026-04-22T07:49:21.999Z</time></trkpt><trkpt lat="42.910261073563106" lon="11.68833041315816"><ele>854.0</ele><time>2026-04-22T07:49:22.999Z</time></trkpt><trkpt lat="42.91027532272356" lon="11.688547961798053"><ele>854.0</ele><time>2026-04-22T07:49:24Z</time></trkpt><trkpt lat="42.91031251647576" lon="11.688743400844384"><ele>854.0</ele><time>2026-04-22T07:49:25Z</time></trkpt><trkpt lat="42.910319961107774" lon="11.688954950691137"><ele>855.6666666666667</ele><time>2026-04-22T07:49:26Z</time></trkpt><trkpt lat="42.91031440665334" lon="11.689162754248134"><ele>857.3333333333333</ele><time>2026-04-22T07:49:27Z</time></trkpt><trkpt lat="42.91029644357636" lon="11.689375833982275"><ele>859.0</ele><time>2026-04-22T07:49:28Z</time></trkpt><trkpt lat="42.91027831809471" lon="11.68956798594818"><ele>860.6</ele><time>2026-04-22T07:49:29Z</time></trkpt><trkpt lat="42.9102738372028" lon="11.689736552859733"><ele>862.2</ele><time>2026-04-22T07:49:30Z</time></trkpt><trkpt lat="42.9102940242026" lon="11.689874290129545"><ele>863.8000000000001</ele><time>2026-04-22T07:49:31Z</time></trkpt><trkpt lat="42.910349541831884" lon="11.689990181152977"><ele>865.4000000000001</ele><time>2026-04-22T07:49:32Z</time></trkpt><trkpt lat="42.910429967170614" lon="11.690079083045156"><ele>867.0</ele><time>2026-04-22T07:49:33Z</time></trkpt><trkpt lat="42.91052954169609" lon="11.690134579859661"><ele>867.0</ele><time>2026-04-22T07:49:34Z</time></trkpt><trkpt lat="42.91063522963951" lon="11.690172139141486"><ele>867.0</ele><time>2026-04-22T07:49:35Z</time></trkpt><trkpt lat="42.910739892592254" lon="11.690225728695651"><ele>867.0</ele><time>2026-04-22T07:49:36Z</time></trkpt><trkpt lat="42.91082371117323" lon="11.690322448320641"><ele>867.0</ele><time>2026-04-22T07:49:37Z</time></trkpt><trkpt lat="42.91088301954485" lon="11.690453822736725"><ele>867.0</ele><time>2026-04-22T07:49:38Z</time></trkpt><trkpt lat="42.910901486991676" lon="11.690587426866918"><ele>867.6</ele><time>2026-04-22T07:49:39Z</time></trkpt><trkpt lat="42.910862785502" lon="11.690693274571528"><ele>868.2</ele><time>2026-04-22T07:49:40Z</time></trkpt><trkpt lat="42.91081353524425" lon="11.69077447367983"><ele>868.8</ele><time>2026-04-22T07:49:41Z</time></trkpt><trkpt lat="42.91073863373555" lon="11.690855567844057"><ele>869.4</ele><time>2026-04-22T07:49:42Z</time></trkpt><trkpt lat="42.910662391740225" lon="11.69098199069957"><ele>870.0</ele><time>2026-04-22T07:49:43Z</time></trkpt><trkpt lat="42.91056004000753" lon="11.691109693871553"><ele>866.6666666666667</ele><time>2026-04-22T07:49:44Z</time></trkpt><trkpt lat="42.910455476163385" lon="11.69126236724253"><ele>863.3333333333334</ele><time>2026-04-22T07:49:45Z</time></trkpt><trkpt lat="42.91035428603315" lon="11.691431496834342"><ele>860.0</ele><time>2026-04-22T07:49:46Z</time></trkpt><trkpt lat="42.91026776804226" lon="11.69160826321701"><ele>860.0</ele><time>2026-04-22T07:49:47Z</time></trkpt><trkpt lat="42.910201365609346" lon="11.691784957891805"><ele>860.0</ele><time>2026-04-22T07:49:48Z</time></trkpt><trkpt lat="42.91014931379326" lon="11.691959063867538"><ele>860.0</ele><time>2026-04-22T07:49:49Z</time></trkpt><trkpt lat="42.910101007893" lon="11.692118436793255"><ele>860.0</ele><time>2026-04-22T07:49:50Z</time></trkpt><trkpt lat="42.91001715834091" lon="11.69223751088629"><ele>859.5</ele><time>2026-04-22T07:49:51Z</time></trkpt><trkpt lat="42.909898708212545" lon="11.692302138432595"><ele>859.0</ele><time>2026-04-22T07:49:52Z</time></trkpt><trkpt lat="42.90979474304037" lon="11.692422880979759"><ele>858.5</ele><time>2026-04-22T07:49:53Z</time></trkpt><trkpt lat="42.909711923627476" lon="11.69258048134131"><ele>858.0</ele><time>2026-04-22T07:49:54Z</time></trkpt><trkpt lat="42.909606448455335" lon="11.692711210429938"><ele>855.5</ele><time>2026-04-22T07:49:55Z</time></trkpt><trkpt lat="42.90947625841906" lon="11.69278800976869"><ele>853.0</ele><time>2026-04-22T07:49:56Z</time></trkpt><trkpt lat="42.90935090266992" lon="11.692870761256042"><ele>850.5</ele><time>2026-04-22T07:49:57Z</time></trkpt><trkpt lat="42.90923209237465" lon="11.692971369762246"><ele>848.0</ele><time>2026-04-22T07:49:58Z</time></trkpt><trkpt lat="42.90914188966551" lon="11.693114007520789"><ele>848.0</ele><time>2026-04-22T07:49:59Z</time></trkpt><trkpt lat="42.909044018908176" lon="11.69324018960415"><ele>848.0</ele><time>2026-04-22T07:50:00Z</time></trkpt><trkpt lat="42.90893359881267" lon="11.693337134373735"><ele>848.0</ele><time>2026-04-22T07:50:01Z</time></trkpt><trkpt lat="42.90880899024664" lon="11.693392144033217"><ele>848.0</ele><time>2026-04-22T07:50:02Z</time></trkpt><trkpt lat="42.908676800820054" lon="11.69340394903515"><ele>848.0</ele><time>2026-04-22T07:50:03Z</time></trkpt><trkpt lat="42.90855178733963" lon="11.693402885094565"><ele>848.0</ele><time>2026-04-22T07:50:04Z</time></trkpt><trkpt lat="42.90843211721851" lon="11.693440181693205"><ele>848.0</ele><time>2026-04-22T07:50:05Z</time></trkpt><trkpt lat="42.90832669568415" lon="11.693526763404046"><ele>848.0</ele><time>2026-04-22T07:50:06Z</time></trkpt><trkpt lat="42.908247457987976" lon="11.69365112888697"><ele>844.75</ele><time>2026-04-22T07:50:07Z</time></trkpt><trkpt lat="42.90818639330727" lon="11.69379950419167"><ele>841.5</ele><time>2026-04-22T07:50:08Z</time></trkpt><trkpt lat="42.90812298448587" lon="11.693962321399535"><ele>838.25</ele><time>2026-04-22T07:50:09Z</time></trkpt><trkpt lat="42.908042576380744" lon="11.694124338610319"><ele>835.0</ele><time>2026-04-22T07:50:10Z</time></trkpt><trkpt lat="42.907940700804346" lon="11.694270524858098"><ele>835.0</ele><time>2026-04-22T07:50:11Z</time></trkpt><trkpt lat="42.907811487228955" lon="11.694379562138426"><ele>835.0</ele><time>2026-04-22T07:50:12Z</time></trkpt><trkpt lat="42.907704952586755" lon="11.694520552665843"><ele>835.0</ele><time>2026-04-22T07:50:13Z</time></trkpt><trkpt lat="42.90760124151807" lon="11.694654740006184"><ele>835.0</ele><time>2026-04-22T07:50:14Z</time></trkpt><trkpt lat="42.907503071869456" lon="11.694788724543862"><ele>833.0</ele><time>2026-04-22T07:50:15Z</time></trkpt><trkpt lat="42.90738908359111" lon="11.694890423613336"><ele>831.0</ele><time>2026-04-22T07:50:16Z</time></trkpt><trkpt lat="42.907262955243226" lon="11.694954973389239"><ele>829.0</ele><time>2026-04-22T07:50:17Z</time></trkpt><trkpt lat="42.90713400343232" lon="11.695001174259401"><ele>827.0</ele><time>2026-04-22T07:50:18Z</time></trkpt><trkpt lat="42.90700374358022" lon="11.695050831061705"><ele>827.0</ele><time>2026-04-22T07:50:19Z</time></trkpt><trkpt lat="42.906876405837025" lon="11.695099885041742"><ele>827.0</ele><time>2026-04-22T07:50:20Z</time></trkpt><trkpt lat="42.906753055389636" lon="11.695145452571486"><ele>827.0</ele><time>2026-04-22T07:50:21Z</time></trkpt><trkpt lat="42.90663307694347" lon="11.69519273369859"><ele>827.0</ele><time>2026-04-22T07:50:22Z</time></trkpt><trkpt lat="42.90652926006345" lon="11.69523352529301"><ele>825.6666666666667</ele><time>2026-04-22T07:50:23Z</time></trkpt><trkpt lat="42.90643472842547" lon="11.695266980416067"><ele>824.3333333333334</ele><time>2026-04-22T07:50:24Z</time></trkpt><trkpt lat="42.906345912089535" lon="11.695300062128178"><ele>823.0</ele><time>2026-04-22T07:50:25Z</time></trkpt><trkpt lat="42.906263919086925" lon="11.6953228552212"><ele>821.6666666666667</ele><time>2026-04-22T07:50:26Z</time></trkpt><trkpt lat="42.906194596314464" lon="11.695313306257242"><ele>820.3333333333334</ele><time>2026-04-22T07:50:26.999Z</time></trkpt><trkpt lat="42.90613711307507" lon="11.69526409375867"><ele>819.0</ele><time>2026-04-22T07:50:27.999Z</time></trkpt><trkpt lat="42.906109374040184" lon="11.695181096560868"><ele>819.0</ele><time>2026-04-22T07:50:28.999Z</time></trkpt><trkpt lat="42.90611717753892" lon="11.695086577196065"><ele>819.0</ele><time>2026-04-22T07:50:29.999Z</time></trkpt><trkpt lat="42.90616003468526" lon="11.694985437021447"><ele>819.0</ele><time>2026-04-22T07:50:30.999Z</time></trkpt><trkpt lat="42.906232439787054" lon="11.694898802105847"><ele>819.0</ele><time>2026-04-22T07:50:31.999Z</time></trkpt><trkpt lat="42.90631967769557" lon="11.694833245562837"><ele>819.0</ele><time>2026-04-22T07:50:32.999Z</time></trkpt><trkpt lat="42.90639380138499" lon="11.694773189574386"><ele>819.0</ele><time>2026-04-22T07:50:33.999Z</time></trkpt><trkpt lat="42.90645034361675" lon="11.694683757962103"><ele>819.0</ele><time>2026-04-22T07:50:34.999Z</time></trkpt><trkpt lat="42.90648025641583" lon="11.694555963949199"><ele>819.0</ele><time>2026-04-22T07:50:35.999Z</time></trkpt><trkpt lat="42.90647410110542" lon="11.694429481396723"><ele>819.0</ele><time>2026-04-22T07:50:36.999Z</time></trkpt><trkpt lat="42.90644490827592" lon="11.69429693989751"><ele>819.0</ele><time>2026-04-22T07:50:37.999Z</time></trkpt><trkpt lat="42.90639429418144" lon="11.694163508119587"><ele>819.0</ele><time>2026-04-22T07:50:38.999Z</time></trkpt><trkpt lat="42.906319946218396" lon="11.694048384807914"><ele>818.0</ele><time>2026-04-22T07:50:39.999Z</time></trkpt><trkpt lat="42.90622088150238" lon="11.69396229167782"><ele>817.0</ele><time>2026-04-22T07:50:40.999Z</time></trkpt><trkpt lat="42.90611250826227" lon="11.693893107799623"><ele>816.0</ele><time>2026-04-22T07:50:41.999Z</time></trkpt><trkpt lat="42.906010587551364" lon="11.693803077457924"><ele>815.0</ele><time>2026-04-22T07:50:42.999Z</time></trkpt><trkpt lat="42.905921394073" lon="11.693695173782745"><ele>812.2</ele><time>2026-04-22T07:50:43.999Z</time></trkpt><trkpt lat="42.90584150920695" lon="11.693581735407419"><ele>809.4</ele><time>2026-04-22T07:50:44.999Z</time></trkpt><trkpt lat="42.905763113879615" lon="11.69347254885022"><ele>806.5999999999999</ele><time>2026-04-22T07:50:45.999Z</time></trkpt><trkpt lat="42.9056891068245" lon="11.693387120080432"><ele>803.8</ele><time>2026-04-22T07:50:46.999Z</time></trkpt><trkpt lat="42.905614308948465" lon="11.693347362769332"><ele>801.0</ele><time>2026-04-22T07:50:47.999Z</time></trkpt><trkpt lat="42.90553687690386" lon="11.693365897513795"><ele>801.0</ele><time>2026-04-22T07:50:48.999Z</time></trkpt><trkpt lat="42.9054745065721" lon="11.693427549924515"><ele>801.0</ele><time>2026-04-22T07:50:49.999Z</time></trkpt><trkpt lat="42.90544185929512" lon="11.693521679392969"><ele>801.0</ele><time>2026-04-22T07:50:50.999Z</time></trkpt><trkpt lat="42.90543483874887" lon="11.693638059181312"><ele>801.0</ele><time>2026-04-22T07:50:51.999Z</time></trkpt><trkpt lat="42.90544263725353" lon="11.693773075892882"><ele>801.0</ele><time>2026-04-22T07:50:52.999Z</time></trkpt><trkpt lat="42.90543737888029" lon="11.693913322950454"><ele>801.0</ele><time>2026-04-22T07:50:53.999Z</time></trkpt><trkpt lat="42.90540235666183" lon="11.694032902340647"><ele>801.1999999999999</ele><time>2026-04-22T07:50:54.999Z</time></trkpt><trkpt lat="42.90534276681971" lon="11.694137104721763"><ele>801.4</ele><time>2026-04-22T07:50:55.999Z</time></trkpt><trkpt lat="42.905246400789764" lon="11.694215856097907"><ele>801.6</ele><time>2026-04-22T07:50:56.999Z</time></trkpt><trkpt lat="42.9051696783507" lon="11.69431999462583"><ele>801.8</ele><time>2026-04-22T07:50:57.999Z</time></trkpt><trkpt lat="42.90508103867565" lon="11.694408254155556"><ele>802.0</ele><time>2026-04-22T07:50:58.999Z</time></trkpt><trkpt lat="42.90498298875469" lon="11.694502388079263"><ele>799.25</ele><time>2026-04-22T07:50:59.999Z</time></trkpt><trkpt lat="42.90487531313763" lon="11.694598001357148"><ele>796.5</ele><time>2026-04-22T07:51:00.999Z</time></trkpt><trkpt lat="42.90475643597856" lon="11.694661343877039"><ele>793.75</ele><time>2026-04-22T07:51:01.999Z</time></trkpt><trkpt lat="42.90464231216656" lon="11.694733295802788"><ele>791.0</ele><time>2026-04-22T07:51:02.999Z</time></trkpt><trkpt lat="42.90454108693753" lon="11.694828657995162"><ele>791.0</ele><time>2026-04-22T07:51:03.999Z</time></trkpt><trkpt lat="42.904450669132316" lon="11.694925434425189"><ele>791.0</ele><time>2026-04-22T07:51:04.999Z</time></trkpt><trkpt lat="42.904381461648676" lon="11.695046628456423"><ele>791.0</ele><time>2026-04-22T07:51:05.999Z</time></trkpt><trkpt lat="42.90432379958001" lon="11.69517742191668"><ele>791.0</ele><time>2026-04-22T07:51:06.999Z</time></trkpt><trkpt lat="42.904278793171386" lon="11.695332079055946"><ele>791.75</ele><time>2026-04-22T07:51:07.999Z</time></trkpt><trkpt lat="42.904246692849" lon="11.695490775744158"><ele>792.5</ele><time>2026-04-22T07:51:08.999Z</time></trkpt><trkpt lat="42.90423747164336" lon="11.695659253500505"><ele>793.25</ele><time>2026-04-22T07:51:09.999Z</time></trkpt><trkpt lat="42.90424539001651" lon="11.695823220907352"><ele>794.0</ele><time>2026-04-22T07:51:10.999Z</time></trkpt><trkpt lat="42.90425962288018" lon="11.69597695022559"><ele>794.4000000000001</ele><time>2026-04-22T07:51:11.999Z</time></trkpt><trkpt lat="42.90426102983537" lon="11.69611934151185"><ele>794.8</ele><time>2026-04-22T07:51:12.999Z</time></trkpt><trkpt lat="42.90423160892906" lon="11.696250068248492"><ele>795.2</ele><time>2026-04-22T07:51:13.999Z</time></trkpt><trkpt lat="42.904184670431576" lon="11.696367230893248"><ele>795.5999999999999</ele><time>2026-04-22T07:51:14.999Z</time></trkpt><trkpt lat="42.90411588672164" lon="11.696461161467731"><ele>796.0</ele><time>2026-04-22T07:51:15.999Z</time></trkpt><trkpt lat="42.904013027523455" lon="11.696524163426453"><ele>791.5</ele><time>2026-04-22T07:51:16.999Z</time></trkpt><trkpt lat="42.903904137801106" lon="11.69658333318493"><ele>787.0</ele><time>2026-04-22T07:51:17.998Z</time></trkpt><trkpt lat="42.903783363387916" lon="11.696639614960855"><ele>782.5</ele><time>2026-04-22T07:51:18.998Z</time></trkpt><trkpt lat="42.903655525788395" lon="11.69669673877579"><ele>778.0</ele><time>2026-04-22T07:51:19.998Z</time></trkpt><trkpt lat="42.903530268628444" lon="11.696779885857952"><ele>778.0</ele><time>2026-04-22T07:51:20.998Z</time></trkpt><trkpt lat="42.90340459743974" lon="11.69682482566599"><ele>778.0</ele><time>2026-04-22T07:51:21.998Z</time></trkpt><trkpt lat="42.90330470279799" lon="11.69692357666078"><ele>778.0</ele><time>2026-04-22T07:51:22.998Z</time></trkpt><trkpt lat="42.903210200678025" lon="11.697010631335926"><ele>778.0</ele><time>2026-04-22T07:51:23.998Z</time></trkpt><trkpt lat="42.903120020078575" lon="11.697094583944958"><ele>778.0</ele><time>2026-04-22T07:51:24.998Z</time></trkpt><trkpt lat="42.903025762775385" lon="11.697143014256051"><ele>778.0</ele><time>2026-04-22T07:51:25.998Z</time></trkpt><trkpt lat="42.90293268758168" lon="11.697149273051243"><ele>778.0</ele><time>2026-04-22T07:51:26.998Z</time></trkpt><trkpt lat="42.90284459513434" lon="11.697110704557371"><ele>778.0</ele><time>2026-04-22T07:51:27.998Z</time></trkpt><trkpt lat="42.90276860233558" lon="11.69703625983044"><ele>778.0</ele><time>2026-04-22T07:51:28.998Z</time></trkpt><trkpt lat="42.902689567676916" lon="11.696945181019908"><ele>775.5999999999999</ele><time>2026-04-22T07:51:30Z</time></trkpt><trkpt lat="42.90260885605813" lon="11.696879405786877"><ele>773.1999999999999</ele><time>2026-04-22T07:51:31Z</time></trkpt><trkpt lat="42.90252120519007" lon="11.696852630683178"><ele>770.8</ele><time>2026-04-22T07:51:32Z</time></trkpt><trkpt lat="42.90243315131617" lon="11.696877724218957"><ele>768.4</ele><time>2026-04-22T07:51:33Z</time></trkpt><trkpt lat="42.902352612085906" lon="11.696949518238133"><ele>766.0</ele><time>2026-04-22T07:51:34Z</time></trkpt><trkpt lat="42.902295394162586" lon="11.697064623530746"><ele>764.25</ele><time>2026-04-22T07:51:35Z</time></trkpt><trkpt lat="42.90226124814983" lon="11.697205322160851"><ele>762.5</ele><time>2026-04-22T07:51:36Z</time></trkpt><trkpt lat="42.90225103556157" lon="11.697361839982454"><ele>760.75</ele><time>2026-04-22T07:51:37Z</time></trkpt><trkpt lat="42.90225920847502" lon="11.697525566284808"><ele>759.0</ele><time>2026-04-22T07:51:38Z</time></trkpt><trkpt lat="42.902275634240596" lon="11.69769342474341"><ele>758.25</ele><time>2026-04-22T07:51:39Z</time></trkpt><trkpt lat="42.9022954955029" lon="11.69786178432972"><ele>757.5</ele><time>2026-04-22T07:51:40Z</time></trkpt><trkpt lat="42.90230942787282" lon="11.698020841162295"><ele>756.75</ele><time>2026-04-22T07:51:41Z</time></trkpt><trkpt lat="42.902316180936076" lon="11.698173328758637"><ele>756.0</ele><time>2026-04-22T07:51:42Z</time></trkpt><trkpt lat="42.90230845429925" lon="11.698320676675827"><ele>756.0</ele><time>2026-04-22T07:51:43Z</time></trkpt><trkpt lat="42.902287816190594" lon="11.698459503085846"><ele>756.0</ele><time>2026-04-22T07:51:44Z</time></trkpt><trkpt lat="42.902242085715635" lon="11.69858312367625"><ele>756.0</ele><time>2026-04-22T07:51:45Z</time></trkpt><trkpt lat="42.902162227573974" lon="11.69867016969434"><ele>756.0</ele><time>2026-04-22T07:51:46Z</time></trkpt><trkpt lat="42.90207291216468" lon="11.698753916675493"><ele>756.0</ele><time>2026-04-22T07:51:47Z</time></trkpt><trkpt lat="42.90197005635943" lon="11.698837964867286"><ele>754.75</ele><time>2026-04-22T07:51:48Z</time></trkpt><trkpt lat="42.90186470181818" lon="11.698940059570129"><ele>753.5</ele><time>2026-04-22T07:51:49Z</time></trkpt><trkpt lat="42.90173865588008" lon="11.699023663320819"><ele>752.25</ele><time>2026-04-22T07:51:50Z</time></trkpt><trkpt lat="42.90160705257078" lon="11.699110703364846"><ele>751.0</ele><time>2026-04-22T07:51:50.999Z</time></trkpt><trkpt lat="42.901487901673015" lon="11.699190299132136"><ele>751.0</ele><time>2026-04-22T07:51:51.999Z</time></trkpt><trkpt lat="42.90137645965744" lon="11.699265431607005"><ele>751.0</ele><time>2026-04-22T07:51:52.999Z</time></trkpt><trkpt lat="42.90126989121129" lon="11.699331312845114"><ele>751.0</ele><time>2026-04-22T07:51:53.999Z</time></trkpt><trkpt lat="42.9011603753035" lon="11.699387917543778"><ele>751.0</ele><time>2026-04-22T07:51:54.999Z</time></trkpt><trkpt lat="42.901045460257464" lon="11.699438678974978"><ele>751.0</ele><time>2026-04-22T07:51:55.999Z</time></trkpt><trkpt lat="42.90092610219171" lon="11.699475190815201"><ele>751.0</ele><time>2026-04-22T07:51:56.999Z</time></trkpt><trkpt lat="42.900803970348875" lon="11.699499337890707"><ele>751.0</ele><time>2026-04-22T07:51:57.999Z</time></trkpt><trkpt lat="42.900682687753026" lon="11.699515753168944"><ele>751.0</ele><time>2026-04-22T07:51:58.999Z</time></trkpt><trkpt lat="42.90056963128282" lon="11.69952553151117"><ele>751.0</ele><time>2026-04-22T07:51:59.999Z</time></trkpt><trkpt lat="42.900463783687584" lon="11.699535893931332"><ele>751.0</ele><time>2026-04-22T07:52:00.999Z</time></trkpt><trkpt lat="42.9003632783095" lon="11.69955886992073"><ele>751.0</ele><time>2026-04-22T07:52:01.999Z</time></trkpt><trkpt lat="42.900264528296226" lon="11.699599765857469"><ele>751.0</ele><time>2026-04-22T07:52:02.999Z</time></trkpt><trkpt lat="42.90018080363496" lon="11.699665627413276"><ele>751.0</ele><time>2026-04-22T07:52:03.999Z</time></trkpt><trkpt lat="42.90009888113964" lon="11.699734530596592"><ele>751.0</ele><time>2026-04-22T07:52:04.999Z</time></trkpt><trkpt lat="42.90008920663093" lon="11.699870198654297"><ele>751.0</ele><time>2026-04-22T07:52:05.999Z</time></trkpt><trkpt lat="42.900096076245966" lon="11.699999166370812"><ele>751.0</ele><time>2026-04-22T07:52:06.999Z</time></trkpt><trkpt lat="42.90012859717251" lon="11.700132060799149"><ele>751.0</ele><time>2026-04-22T07:52:07.999Z</time></trkpt><trkpt lat="42.900176495694055" lon="11.700271739011129"><ele>751.0</ele><time>2026-04-22T07:52:08.999Z</time></trkpt><trkpt lat="42.90021120792037" lon="11.700440080518502"><ele>751.25</ele><time>2026-04-22T07:52:09.999Z</time></trkpt><trkpt lat="42.900231139983305" lon="11.700593019357989"><ele>751.5</ele><time>2026-04-22T07:52:10.999Z</time></trkpt><trkpt lat="42.900215816239296" lon="11.700754136602693"><ele>751.75</ele><time>2026-04-22T07:52:11.999Z</time></trkpt><trkpt lat="42.90017121979599" lon="11.700908854878914"><ele>752.0</ele><time>2026-04-22T07:52:12.999Z</time></trkpt><trkpt lat="42.900098727618015" lon="11.701043659785178"><ele>748.75</ele><time>2026-04-22T07:52:13.999Z</time></trkpt><trkpt lat="42.9000152433178" lon="11.701167647262093"><ele>745.5</ele><time>2026-04-22T07:52:14.999Z</time></trkpt><trkpt lat="42.89992482829975" lon="11.701287818613517"><ele>742.25</ele><time>2026-04-22T07:52:15.999Z</time></trkpt><trkpt lat="42.899826931931194" lon="11.701399659453989"><ele>739.0</ele><time>2026-04-22T07:52:16.999Z</time></trkpt><trkpt lat="42.899727468938124" lon="11.701497579806688"><ele>739.0</ele><time>2026-04-22T07:52:17.999Z</time></trkpt><trkpt lat="42.8996302442539" lon="11.701599450087501"><ele>739.0</ele><time>2026-04-22T07:52:18.999Z</time></trkpt><trkpt lat="42.89953376249992" lon="11.701695249619803"><ele>739.0</ele><time>2026-04-22T07:52:19.999Z</time></trkpt><trkpt lat="42.8994392247028" lon="11.701801979303848"><ele>739.0</ele><time>2026-04-22T07:52:20.999Z</time></trkpt><trkpt lat="42.8993708862727" lon="11.701940979165196"><ele>739.75</ele><time>2026-04-22T07:52:21.999Z</time></trkpt><trkpt lat="42.89930495414263" lon="11.702082133541001"><ele>740.5</ele><time>2026-04-22T07:52:22.999Z</time></trkpt><trkpt lat="42.89925545555575" lon="11.702236157221307"><ele>741.25</ele><time>2026-04-22T07:52:23.999Z</time></trkpt><trkpt lat="42.899207800567616" lon="11.702394243553353"><ele>742.0</ele><time>2026-04-22T07:52:24.999Z</time></trkpt><trkpt lat="42.89915256040374" lon="11.702550751663974"><ele>738.5</ele><time>2026-04-22T07:52:25.999Z</time></trkpt><trkpt lat="42.89909820681863" lon="11.702703047223897"><ele>735.0</ele><time>2026-04-22T07:52:26.999Z</time></trkpt><trkpt lat="42.899053290616074" lon="11.702843731358266"><ele>731.5</ele><time>2026-04-22T07:52:27.999Z</time></trkpt><trkpt lat="42.899006559644135" lon="11.702979563877006"><ele>728.0</ele><time>2026-04-22T07:52:28.999Z</time></trkpt><trkpt lat="42.89896227888637" lon="11.703112565831642"><ele>727.5999999999999</ele><time>2026-04-22T07:52:29.999Z</time></trkpt><trkpt lat="42.898933889696835" lon="11.70323947847852"><ele>727.1999999999999</ele><time>2026-04-22T07:52:30.999Z</time></trkpt><trkpt lat="42.89892681415081" lon="11.703360611549572"><ele>726.8</ele><time>2026-04-22T07:52:31.999Z</time></trkpt><trkpt lat="42.89894785271705" lon="11.703478740366702"><ele>726.4</ele><time>2026-04-22T07:52:32.999Z</time></trkpt><trkpt lat="42.89900483732753" lon="11.703573340892133"><ele>726.0</ele><time>2026-04-22T07:52:33.999Z</time></trkpt><trkpt lat="42.8990871114199" lon="11.703643421468142"><ele>724.0</ele><time>2026-04-22T07:52:34.999Z</time></trkpt><trkpt lat="42.89919765151641" lon="11.703685214072168"><ele>722.0</ele><time>2026-04-22T07:52:35.999Z</time></trkpt><trkpt lat="42.89931217472756" lon="11.703723444350622"><ele>720.0</ele><time>2026-04-22T07:52:36.999Z</time></trkpt><trkpt lat="42.89942750319089" lon="11.703784225654973"><ele>718.0</ele><time>2026-04-22T07:52:37.999Z</time></trkpt><trkpt lat="42.89954128387361" lon="11.703850062546433"><ele>718.0</ele><time>2026-04-22T07:52:38.999Z</time></trkpt><trkpt lat="42.89965840531389" lon="11.703910214374519"><ele>718.0</ele><time>2026-04-22T07:52:39.999Z</time></trkpt><trkpt lat="42.899772599166276" lon="11.703965097015045"><ele>718.0</ele><time>2026-04-22T07:52:40.999Z</time></trkpt><trkpt lat="42.89989117363271" lon="11.70401841176146"><ele>718.0</ele><time>2026-04-22T07:52:41.999Z</time></trkpt><trkpt lat="42.90000314702299" lon="11.704065874689151"><ele>719.25</ele><time>2026-04-22T07:52:42.999Z</time></trkpt><trkpt lat="42.900122795235454" lon="11.70410979905391"><ele>720.5</ele><time>2026-04-22T07:52:43.999Z</time></trkpt><trkpt lat="42.90023979996935" lon="11.70414581274827"><ele>721.75</ele><time>2026-04-22T07:52:44.999Z</time></trkpt><trkpt lat="42.90035401374499" lon="11.70418229733017"><ele>723.0</ele><time>2026-04-22T07:52:45.999Z</time></trkpt><trkpt lat="42.90046683774273" lon="11.704238423789525"><ele>723.0</ele><time>2026-04-22T07:52:46.999Z</time></trkpt><trkpt lat="42.90057883259458" lon="11.704317965412022"><ele>723.0</ele><time>2026-04-22T07:52:47.999Z</time></trkpt><trkpt lat="42.90069146020941" lon="11.704408556018675"><ele>723.0</ele><time>2026-04-22T07:52:48.999Z</time></trkpt><trkpt lat="42.90080966293378" lon="11.704501786942757"><ele>723.0</ele><time>2026-04-22T07:52:49.999Z</time></trkpt><trkpt lat="42.90092191050513" lon="11.704600688143362"><ele>721.25</ele><time>2026-04-22T07:52:50.999Z</time></trkpt><trkpt lat="42.90102667467022" lon="11.704698738037454"><ele>719.5</ele><time>2026-04-22T07:52:51.999Z</time></trkpt><trkpt lat="42.90113803651802" lon="11.704785585418858"><ele>717.75</ele><time>2026-04-22T07:52:52.999Z</time></trkpt><trkpt lat="42.90124775015213" lon="11.704872287824765"><ele>716.0</ele><time>2026-04-22T07:52:53.999Z</time></trkpt><trkpt lat="42.90135876104538" lon="11.704954359969493"><ele>716.0</ele><time>2026-04-22T07:52:54.999Z</time></trkpt><trkpt lat="42.901471143038954" lon="11.70503986483184"><ele>716.0</ele><time>2026-04-22T07:52:55.999Z</time></trkpt><trkpt lat="42.90158202850097" lon="11.70513028641697"><ele>716.0</ele><time>2026-04-22T07:52:56.999Z</time></trkpt><trkpt lat="42.90169478239527" lon="11.705215192350304"><ele>716.0</ele><time>2026-04-22T07:52:57.999Z</time></trkpt><trkpt lat="42.90180585006324" lon="11.705302872069845"><ele>715.0</ele><time>2026-04-22T07:52:58.999Z</time></trkpt><trkpt lat="42.901913596354625" lon="11.70539188842375"><ele>714.0</ele><time>2026-04-22T07:52:59.999Z</time></trkpt><trkpt lat="42.90202154490276" lon="11.705486545347853"><ele>713.0</ele><time>2026-04-22T07:53:00.999Z</time></trkpt><trkpt lat="42.90212795625936" lon="11.70558831276518"><ele>712.0</ele><time>2026-04-22T07:53:01.999Z</time></trkpt><trkpt lat="42.902226723200215" lon="11.705703288428715"><ele>712.0</ele><time>2026-04-22T07:53:02.999Z</time></trkpt><trkpt lat="42.902311464991875" lon="11.70584509684459"><ele>712.0</ele><time>2026-04-22T07:53:03.999Z</time></trkpt><trkpt lat="42.90237739543127" lon="11.70600265212355"><ele>712.0</ele><time>2026-04-22T07:53:04.999Z</time></trkpt><trkpt lat="42.902403507422896" lon="11.706185090222963"><ele>712.0</ele><time>2026-04-22T07:53:05.999Z</time></trkpt><trkpt lat="42.902452191803825" lon="11.706357944673185"><ele>712.5</ele><time>2026-04-22T07:53:06.999Z</time></trkpt><trkpt lat="42.902486050552426" lon="11.7065420788302"><ele>713.0</ele><time>2026-04-22T07:53:07.999Z</time></trkpt><trkpt lat="42.90253435253429" lon="11.70672164471477"><ele>713.5</ele><time>2026-04-22T07:53:08.999Z</time></trkpt><trkpt lat="42.90259475046494" lon="11.706896027276166"><ele>714.0</ele><time>2026-04-22T07:53:09.999Z</time></trkpt><trkpt lat="42.90266107869" lon="11.707069132124396"><ele>714.0</ele><time>2026-04-22T07:53:10.999Z</time></trkpt><trkpt lat="42.90273178896503" lon="11.70724019484172"><ele>714.0</ele><time>2026-04-22T07:53:11.999Z</time></trkpt><trkpt lat="42.90280321683859" lon="11.70740857578864"><ele>714.0</ele><time>2026-04-22T07:53:12.999Z</time></trkpt><trkpt lat="42.9028736766577" lon="11.707565631207627"><ele>714.0</ele><time>2026-04-22T07:53:13.999Z</time></trkpt><trkpt lat="42.90293296865246" lon="11.707723819242595"><ele>712.5</ele><time>2026-04-22T07:53:14.999Z</time></trkpt><trkpt lat="42.90297574817696" lon="11.707886665802029"><ele>711.0</ele><time>2026-04-22T07:53:15.999Z</time></trkpt><trkpt lat="42.90300264636534" lon="11.708057039422638"><ele>709.5</ele><time>2026-04-22T07:53:16.999Z</time></trkpt><trkpt lat="42.90302763540304" lon="11.708229862921186"><ele>708.0</ele><time>2026-04-22T07:53:17.999Z</time></trkpt><trkpt lat="42.903051661541404" lon="11.708403697151953"><ele>706.75</ele><time>2026-04-22T07:53:18.999Z</time></trkpt><trkpt lat="42.903075958709024" lon="11.708578487676846"><ele>705.5</ele><time>2026-04-22T07:53:19.999Z</time></trkpt><trkpt lat="42.90307939620681" lon="11.708761397274353"><ele>704.25</ele><time>2026-04-22T07:53:20.999Z</time></trkpt><trkpt lat="42.90310495374818" lon="11.708942446348198"><ele>703.0</ele><time>2026-04-22T07:53:21.999Z</time></trkpt><trkpt lat="42.903097949128245" lon="11.709121054183898"><ele>703.0</ele><time>2026-04-22T07:53:22.999Z</time></trkpt><trkpt lat="42.90307698891108" lon="11.709299789759585"><ele>703.0</ele><time>2026-04-22T07:53:23.999Z</time></trkpt><trkpt lat="42.90303655684899" lon="11.709473877414254"><ele>703.0</ele><time>2026-04-22T07:53:24.998Z</time></trkpt><trkpt lat="42.90298320932058" lon="11.709642122539583"><ele>703.0</ele><time>2026-04-22T07:53:25.998Z</time></trkpt><trkpt lat="42.90292972351373" lon="11.70981490893132"><ele>703.25</ele><time>2026-04-22T07:53:26.998Z</time></trkpt><trkpt lat="42.90287703608211" lon="11.709991247514358"><ele>703.5</ele><time>2026-04-22T07:53:27.998Z</time></trkpt><trkpt lat="42.90282281523961" lon="11.710168790968856"><ele>703.75</ele><time>2026-04-22T07:53:28.998Z</time></trkpt><trkpt lat="42.90276993413309" lon="11.710342815124495"><ele>704.0</ele><time>2026-04-22T07:53:29.998Z</time></trkpt><trkpt lat="42.90271873258137" lon="11.71051132900785"><ele>704.0</ele><time>2026-04-22T07:53:30.998Z</time></trkpt><trkpt lat="42.90267804295576" lon="11.710674667450508"><ele>704.0</ele><time>2026-04-22T07:53:31.998Z</time></trkpt><trkpt lat="42.90266017144644" lon="11.710837501343118"><ele>704.0</ele><time>2026-04-22T07:53:32.998Z</time></trkpt><trkpt lat="42.902674605718246" lon="11.710996131678682"><ele>704.0</ele><time>2026-04-22T07:53:33.998Z</time></trkpt><trkpt lat="42.90271095725484" lon="11.711142813823416"><ele>703.0</ele><time>2026-04-22T07:53:34.998Z</time></trkpt><trkpt lat="42.902760710257674" lon="11.711282951717948"><ele>702.0</ele><time>2026-04-22T07:53:36Z</time></trkpt><trkpt lat="42.90281870310173" lon="11.711420900192454"><ele>701.0</ele><time>2026-04-22T07:53:37Z</time></trkpt><trkpt lat="42.90288787277524" lon="11.711556742275311"><ele>700.0</ele><time>2026-04-22T07:53:38Z</time></trkpt><trkpt lat="42.902958198019434" lon="11.711694555032253"><ele>700.0</ele><time>2026-04-22T07:53:39Z</time></trkpt><trkpt lat="42.903027671519524" lon="11.711835673186046"><ele>700.0</ele><time>2026-04-22T07:53:40Z</time></trkpt><trkpt lat="42.903089098011655" lon="11.711982538323086"><ele>700.0</ele><time>2026-04-22T07:53:41Z</time></trkpt><trkpt lat="42.903126744997195" lon="11.712136493898255"><ele>700.0</ele><time>2026-04-22T07:53:42Z</time></trkpt><trkpt lat="42.903137084846186" lon="11.712294345083656"><ele>697.5</ele><time>2026-04-22T07:53:43Z</time></trkpt><trkpt lat="42.90313565964187" lon="11.71246868010863"><ele>695.0</ele><time>2026-04-22T07:53:44Z</time></trkpt><trkpt lat="42.903112077956266" lon="11.712653368361961"><ele>692.5</ele><time>2026-04-22T07:53:45Z</time></trkpt><trkpt lat="42.90311946833442" lon="11.712847244208698"><ele>690.0</ele><time>2026-04-22T07:53:46Z</time></trkpt><trkpt lat="42.90310687073396" lon="11.71304455956968"><ele>688.75</ele><time>2026-04-22T07:53:47Z</time></trkpt><trkpt lat="42.903096916034315" lon="11.713243968492582"><ele>687.5</ele><time>2026-04-22T07:53:48Z</time></trkpt><trkpt lat="42.90308686094074" lon="11.713447369530856"><ele>686.25</ele><time>2026-04-22T07:53:49Z</time></trkpt><trkpt lat="42.90307885159783" lon="11.713651127185553"><ele>685.0</ele><time>2026-04-22T07:53:50Z</time></trkpt><trkpt lat="42.90307194090417" lon="11.713854716965928"><ele>684.5</ele><time>2026-04-22T07:53:51Z</time></trkpt><trkpt lat="42.90306372078571" lon="11.71405655596024"><ele>684.0</ele><time>2026-04-22T07:53:52Z</time></trkpt><trkpt lat="42.90305453028013" lon="11.714259084831246"><ele>683.5</ele><time>2026-04-22T07:53:53Z</time></trkpt><trkpt lat="42.90303207553006" lon="11.714455367246266"><ele>683.0</ele><time>2026-04-22T07:53:54Z</time></trkpt><trkpt lat="42.90302412709654" lon="11.714655158512958"><ele>683.0</ele><time>2026-04-22T07:53:55Z</time></trkpt><trkpt lat="42.903016368652466" lon="11.71485017405442"><ele>683.0</ele><time>2026-04-22T07:53:56Z</time></trkpt><trkpt lat="42.90301800797584" lon="11.715047791089203"><ele>683.0</ele><time>2026-04-22T07:53:56.999Z</time></trkpt><trkpt lat="42.903002211768715" lon="11.715244813878721"><ele>683.0</ele><time>2026-04-22T07:53:57.999Z</time></trkpt><trkpt lat="42.90297338288393" lon="11.715436708654575"><ele>683.0</ele><time>2026-04-22T07:53:58.999Z</time></trkpt><trkpt lat="42.90291998573501" lon="11.71562041478454"><ele>683.0</ele><time>2026-04-22T07:53:59.999Z</time></trkpt><trkpt lat="42.902746395102064" lon="11.71591755044213"><ele>683.0</ele><time>2026-04-22T07:54:01.999Z</time></trkpt><trkpt lat="42.902638248474176" lon="11.7160423511621"><ele>679.75</ele><time>2026-04-22T07:54:02.999Z</time></trkpt><trkpt lat="42.90252288571614" lon="11.716151441856056"><ele>676.5</ele><time>2026-04-22T07:54:03.999Z</time></trkpt><trkpt lat="42.90241050793026" lon="11.71624690606468"><ele>673.25</ele><time>2026-04-22T07:54:04.999Z</time></trkpt><trkpt lat="42.90230019553815" lon="11.716327050849058"><ele>670.0</ele><time>2026-04-22T07:54:05.999Z</time></trkpt><trkpt lat="42.90220642546865" lon="11.716431270840035"><ele>670.0</ele><time>2026-04-22T07:54:06.999Z</time></trkpt><trkpt lat="42.90212549771712" lon="11.716557332521745"><ele>670.0</ele><time>2026-04-22T07:54:07.999Z</time></trkpt><trkpt lat="42.902059634506244" lon="11.716710135196381"><ele>670.0</ele><time>2026-04-22T07:54:08.999Z</time></trkpt><trkpt lat="42.90201030637144" lon="11.716881937115922"><ele>670.0</ele><time>2026-04-22T07:54:09.999Z</time></trkpt><trkpt lat="42.90198333242795" lon="11.717067004600722"><ele>670.25</ele><time>2026-04-22T07:54:10.999Z</time></trkpt><trkpt lat="42.90194208442098" lon="11.717249781144602"><ele>670.5</ele><time>2026-04-22T07:54:11.999Z</time></trkpt><trkpt lat="42.90190400308104" lon="11.717436145045701"><ele>670.75</ele><time>2026-04-22T07:54:12.999Z</time></trkpt><trkpt lat="42.90186649081186" lon="11.717629505491505"><ele>671.0</ele><time>2026-04-22T07:54:13.999Z</time></trkpt><trkpt lat="42.90182773161161" lon="11.717822455811842"><ele>671.0</ele><time>2026-04-22T07:54:14.999Z</time></trkpt><trkpt lat="42.901789819783126" lon="11.718015773030565"><ele>671.0</ele><time>2026-04-22T07:54:15.999Z</time></trkpt><trkpt lat="42.901734708610306" lon="11.71820005498489"><ele>671.0</ele><time>2026-04-22T07:54:16.999Z</time></trkpt><trkpt lat="42.90169643811674" lon="11.718381267391036"><ele>671.0</ele><time>2026-04-22T07:54:17.999Z</time></trkpt><trkpt lat="42.90167588060013" lon="11.718556844742277"><ele>667.8</ele><time>2026-04-22T07:54:18.999Z</time></trkpt><trkpt lat="42.90164186980456" lon="11.71871836623201"><ele>664.5999999999999</ele><time>2026-04-22T07:54:19.999Z</time></trkpt><trkpt lat="42.90160694503269" lon="11.718867019939895"><ele>661.4</ele><time>2026-04-22T07:54:20.999Z</time></trkpt><trkpt lat="42.90158509939978" lon="11.719006826801113"><ele>658.2</ele><time>2026-04-22T07:54:21.999Z</time></trkpt><trkpt lat="42.90156974867913" lon="11.719147295126826"><ele>655.0</ele><time>2026-04-22T07:54:22.999Z</time></trkpt><trkpt lat="42.90158951744281" lon="11.719294953481286"><ele>654.4</ele><time>2026-04-22T07:54:23.999Z</time></trkpt><trkpt lat="42.901643246174984" lon="11.719424646527875"><ele>653.8</ele><time>2026-04-22T07:54:24.999Z</time></trkpt><trkpt lat="42.90170424894479" lon="11.719547508494022"><ele>653.2</ele><time>2026-04-22T07:54:25.999Z</time></trkpt><trkpt lat="42.90178002818835" lon="11.719656990954423"><ele>652.6</ele><time>2026-04-22T07:54:26.999Z</time></trkpt><trkpt lat="42.901855658611126" lon="11.719771361027354"><ele>652.0</ele><time>2026-04-22T07:54:27.999Z</time></trkpt><trkpt lat="42.90196342254535" lon="11.719826938475133"><ele>652.0</ele><time>2026-04-22T07:54:28.999Z</time></trkpt><trkpt lat="42.902071253675004" lon="11.719866874091315"><ele>652.0</ele><time>2026-04-22T07:54:29.999Z</time></trkpt><trkpt lat="42.9021865560076" lon="11.719875888972934"><ele>652.0</ele><time>2026-04-22T07:54:30.999Z</time></trkpt><trkpt lat="42.90230619631318" lon="11.719883116114923"><ele>652.0</ele><time>2026-04-22T07:54:31.999Z</time></trkpt><trkpt lat="42.90242828248778" lon="11.719909887780956"><ele>652.0</ele><time>2026-04-22T07:54:32.999Z</time></trkpt><trkpt lat="42.90255073299921" lon="11.719958325006006"><ele>652.0</ele><time>2026-04-22T07:54:33.999Z</time></trkpt><trkpt lat="42.90266698499899" lon="11.720020677396287"><ele>652.0</ele><time>2026-04-22T07:54:34.999Z</time></trkpt><trkpt lat="42.90277478514832" lon="11.720095254538846"><ele>652.0</ele><time>2026-04-22T07:54:35.999Z</time></trkpt><trkpt lat="42.902871986473315" lon="11.720177689483453"><ele>650.2</ele><time>2026-04-22T07:54:36.999Z</time></trkpt><trkpt lat="42.90296255986709" lon="11.72026358000695"><ele>648.4000000000001</ele><time>2026-04-22T07:54:37.999Z</time></trkpt><trkpt lat="42.90305057190178" lon="11.720348560411916"><ele>646.5999999999999</ele><time>2026-04-22T07:54:38.999Z</time></trkpt><trkpt lat="42.9031332328653" lon="11.72042773152008"><ele>644.8</ele><time>2026-04-22T07:54:39.999Z</time></trkpt><trkpt lat="42.90320953382325" lon="11.720499576316387"><ele>643.0</ele><time>2026-04-22T07:54:40.999Z</time></trkpt><trkpt lat="42.903268827580725" lon="11.720560395000922"><ele>643.0</ele><time>2026-04-22T07:54:41.999Z</time></trkpt><trkpt lat="42.90331714648339" lon="11.720619479082785"><ele>643.0</ele><time>2026-04-22T07:55:04.999Z</time></trkpt><trkpt lat="42.90340541565573" lon="11.720612516093661"><ele>643.0</ele><time>2026-04-22T07:55:55Z</time></trkpt><trkpt lat="42.903511310863315" lon="11.720582514595533"><ele>643.0</ele><time>2026-04-22T07:55:57Z</time></trkpt><trkpt lat="42.903572555205436" lon="11.72055322024379"><ele>643.0</ele><time>2026-04-22T07:55:58Z</time></trkpt><trkpt lat="42.9036400799998" lon="11.720498362782552"><ele>643.0</ele><time>2026-04-22T07:55:59Z</time></trkpt><trkpt lat="42.90371041289523" lon="11.720402284064155"><ele>643.0</ele><time>2026-04-22T07:56:00Z</time></trkpt><trkpt lat="42.90376485444372" lon="11.720273271956536"><ele>643.0</ele><time>2026-04-22T07:56:01Z</time></trkpt><trkpt lat="42.90379788900551" lon="11.720133934030457"><ele>643.0</ele><time>2026-04-22T07:56:02Z</time></trkpt><trkpt lat="42.90382633733574" lon="11.719979886186692"><ele>643.0</ele><time>2026-04-22T07:56:03Z</time></trkpt><trkpt lat="42.90385568670047" lon="11.71982101199671"><ele>643.2</ele><time>2026-04-22T07:56:04Z</time></trkpt><trkpt lat="42.90389104704519" lon="11.719672180128907"><ele>643.4</ele><time>2026-04-22T07:56:05Z</time></trkpt><trkpt lat="42.903942047195564" lon="11.719547275095739"><ele>643.6</ele><time>2026-04-22T07:56:06Z</time></trkpt><trkpt lat="42.9040113370513" lon="11.719451970118238"><ele>643.8000000000001</ele><time>2026-04-22T07:56:07Z</time></trkpt><trkpt lat="42.90409869786214" lon="11.71939680975709"><ele>644.0</ele><time>2026-04-22T07:56:08Z</time></trkpt><trkpt lat="42.90419246924492" lon="11.719371943580825"><ele>643.4000000000001</ele><time>2026-04-22T07:56:09Z</time></trkpt><trkpt lat="42.90428677986797" lon="11.71941686985176"><ele>642.8</ele><time>2026-04-22T07:56:10Z</time></trkpt><trkpt lat="42.904360632621085" lon="11.719484450157305"><ele>642.2</ele><time>2026-04-22T07:56:11Z</time></trkpt><trkpt lat="42.90441082454406" lon="11.719580042061661"><ele>641.5999999999999</ele><time>2026-04-22T07:56:12Z</time></trkpt><trkpt lat="42.904439043280675" lon="11.719707499298256"><ele>641.0</ele><time>2026-04-22T07:56:13Z</time></trkpt><trkpt lat="42.90449434545411" lon="11.719834194466488"><ele>641.0</ele><time>2026-04-22T07:56:14Z</time></trkpt><trkpt lat="42.904534461762104" lon="11.719975510623174"><ele>641.0</ele><time>2026-04-22T07:56:15Z</time></trkpt><trkpt lat="42.90456410804019" lon="11.720137619601864"><ele>641.0</ele><time>2026-04-22T07:56:15.999Z</time></trkpt><trkpt lat="42.90461067000743" lon="11.720299312870804"><ele>641.0</ele><time>2026-04-22T07:56:16.999Z</time></trkpt><trkpt lat="42.90467313439714" lon="11.720457933067717"><ele>640.5</ele><time>2026-04-22T07:56:17.999Z</time></trkpt><trkpt lat="42.90472341379534" lon="11.72063078951535"><ele>640.0</ele><time>2026-04-22T07:56:18.999Z</time></trkpt><trkpt lat="42.90477983988789" lon="11.720805396520658"><ele>639.5</ele><time>2026-04-22T07:56:19.999Z</time></trkpt><trkpt lat="42.90484471891897" lon="11.720976035532788"><ele>639.0</ele><time>2026-04-22T07:56:20.999Z</time></trkpt><trkpt lat="42.90491155680054" lon="11.721145438295652"><ele>639.0</ele><time>2026-04-22T07:56:21.999Z</time></trkpt><trkpt lat="42.90497433541493" lon="11.721318837964189"><ele>639.0</ele><time>2026-04-22T07:56:22.999Z</time></trkpt><trkpt lat="42.90503824689033" lon="11.721488826032571"><ele>639.0</ele><time>2026-04-22T07:56:23.999Z</time></trkpt><trkpt lat="42.90509682179779" lon="11.721652215724498"><ele>639.0</ele><time>2026-04-22T07:56:24.999Z</time></trkpt><trkpt lat="42.905152460792095" lon="11.721810249067206"><ele>632.75</ele><time>2026-04-22T07:56:25.999Z</time></trkpt><trkpt lat="42.905204983286254" lon="11.72196347659062"><ele>626.5</ele><time>2026-04-22T07:56:26.999Z</time></trkpt><trkpt lat="42.90525415016021" lon="11.722114145190108"><ele>620.25</ele><time>2026-04-22T07:56:27.999Z</time></trkpt><trkpt lat="42.905302297466385" lon="11.722261761828051"><ele>614.0</ele><time>2026-04-22T07:56:28.999Z</time></trkpt><trkpt lat="42.90534170875123" lon="11.722409298328005"><ele>614.0</ele><time>2026-04-22T07:56:29.999Z</time></trkpt><trkpt lat="42.905364022692176" lon="11.722560514120843"><ele>614.0</ele><time>2026-04-22T07:56:30.999Z</time></trkpt><trkpt lat="42.90535798055331" lon="11.722718721577762"><ele>614.0</ele><time>2026-04-22T07:56:31.999Z</time></trkpt><trkpt lat="42.90533539983232" lon="11.722873090037817"><ele>614.0</ele><time>2026-04-22T07:56:32.999Z</time></trkpt><trkpt lat="42.90529029341436" lon="11.723030655580803"><ele>613.0</ele><time>2026-04-22T07:56:33.999Z</time></trkpt><trkpt lat="42.90522189193827" lon="11.723165369143558"><ele>612.0</ele><time>2026-04-22T07:56:34.999Z</time></trkpt><trkpt lat="42.90513748156974" lon="11.723271156915295"><ele>611.0</ele><time>2026-04-22T07:56:35.999Z</time></trkpt><trkpt lat="42.90504608647537" lon="11.72335870915076"><ele>610.0</ele><time>2026-04-22T07:56:36.999Z</time></trkpt><trkpt lat="42.90495185456995" lon="11.723447626118553"><ele>611.75</ele><time>2026-04-22T07:56:37.999Z</time></trkpt><trkpt lat="42.90486204657539" lon="11.723556539071682"><ele>613.5</ele><time>2026-04-22T07:56:38.999Z</time></trkpt><trkpt lat="42.90478924975357" lon="11.723681933595266"><ele>615.25</ele><time>2026-04-22T07:56:39.999Z</time></trkpt><trkpt lat="42.904734821913145" lon="11.72381757514557"><ele>617.0</ele><time>2026-04-22T07:56:40.999Z</time></trkpt><trkpt lat="42.90470762316379" lon="11.723964837857885"><ele>617.0</ele><time>2026-04-22T07:56:41.999Z</time></trkpt><trkpt lat="42.9047144037324" lon="11.72411512811644"><ele>617.0</ele><time>2026-04-22T07:56:42.999Z</time></trkpt><trkpt lat="42.904751919330224" lon="11.724263121349948"><ele>617.0</ele><time>2026-04-22T07:56:43.999Z</time></trkpt><trkpt lat="42.904810889200775" lon="11.724411218542743"><ele>617.0</ele><time>2026-04-22T07:56:44.999Z</time></trkpt><trkpt lat="42.90488237891285" lon="11.724556891051835"><ele>614.75</ele><time>2026-04-22T07:56:45.999Z</time></trkpt><trkpt lat="42.904973260897485" lon="11.724692447668454"><ele>612.5</ele><time>2026-04-22T07:56:46.999Z</time></trkpt><trkpt lat="42.9050836104239" lon="11.724813552036483"><ele>610.25</ele><time>2026-04-22T07:56:47.999Z</time></trkpt><trkpt lat="42.90520919720747" lon="11.72491879349946"><ele>608.0</ele><time>2026-04-22T07:56:48.999Z</time></trkpt><trkpt lat="42.905346542071875" lon="11.724999956131263"><ele>608.0</ele><time>2026-04-22T07:56:49.999Z</time></trkpt><trkpt lat="42.905495130768365" lon="11.725058147391108"><ele>608.0</ele><time>2026-04-22T07:56:50.999Z</time></trkpt><trkpt lat="42.90565000760181" lon="11.725095449388157"><ele>608.0</ele><time>2026-04-22T07:56:51.999Z</time></trkpt><trkpt lat="42.90579798038476" lon="11.725133672357245"><ele>607.5</ele><time>2026-04-22T07:56:52.999Z</time></trkpt><trkpt lat="42.90593830579491" lon="11.725174579017631"><ele>607.0</ele><time>2026-04-22T07:56:53.999Z</time></trkpt><trkpt lat="42.90607661831806" lon="11.725213084115708"><ele>606.5</ele><time>2026-04-22T07:56:54.999Z</time></trkpt><trkpt lat="42.90621499724468" lon="11.725249315420113"><ele>606.0</ele><time>2026-04-22T07:56:55.999Z</time></trkpt><trkpt lat="42.90635353828189" lon="11.725284875592372"><ele>606.0</ele><time>2026-04-22T07:56:56.999Z</time></trkpt><trkpt lat="42.90649136713762" lon="11.725321531746502"><ele>606.0</ele><time>2026-04-22T07:56:57.999Z</time></trkpt><trkpt lat="42.90662825663055" lon="11.725360562213663"><ele>606.0</ele><time>2026-04-22T07:56:58.999Z</time></trkpt><trkpt lat="42.90675653231342" lon="11.72541038809261"><ele>606.0</ele><time>2026-04-22T07:56:59.999Z</time></trkpt><trkpt lat="42.906868474708766" lon="11.725484347592808"><ele>605.0</ele><time>2026-04-22T07:57:00.999Z</time></trkpt><trkpt lat="42.90696127174888" lon="11.725583580145274"><ele>604.0</ele><time>2026-04-22T07:57:01.999Z</time></trkpt><trkpt lat="42.907032128330705" lon="11.725704164901055"><ele>603.0</ele><time>2026-04-22T07:57:02.999Z</time></trkpt><trkpt lat="42.90709051406846" lon="11.725847439869524"><ele>602.0</ele><time>2026-04-22T07:57:03.999Z</time></trkpt><trkpt lat="42.907149090055086" lon="11.72599595071666"><ele>603.0</ele><time>2026-04-22T07:57:04.999Z</time></trkpt><trkpt lat="42.90721682386043" lon="11.726144846289872"><ele>604.0</ele><time>2026-04-22T07:57:05.999Z</time></trkpt><trkpt lat="42.907338506653986" lon="11.726235006618213"><ele>605.0</ele><time>2026-04-22T07:57:06.999Z</time></trkpt><trkpt lat="42.90746402176992" lon="11.726308486534773"><ele>606.0</ele><time>2026-04-22T07:57:07.999Z</time></trkpt><trkpt lat="42.907597984188826" lon="11.726354412942639"><ele>607.0</ele><time>2026-04-22T07:57:08.999Z</time></trkpt><trkpt lat="42.90773393302821" lon="11.726390225678008"><ele>608.0</ele><time>2026-04-22T07:57:09.999Z</time></trkpt><trkpt lat="42.90787238172755" lon="11.726422985970542"><ele>609.0</ele><time>2026-04-22T07:57:10.999Z</time></trkpt><trkpt lat="42.90801367452888" lon="11.726456444582094"><ele>610.0</ele><time>2026-04-22T07:57:11.999Z</time></trkpt><trkpt lat="42.908156816070935" lon="11.726496802797088"><ele>610.0</ele><time>2026-04-22T07:57:12.999Z</time></trkpt><trkpt lat="42.908301602815676" lon="11.726547017433708"><ele>610.0</ele><time>2026-04-22T07:57:13.999Z</time></trkpt><trkpt lat="42.908446457088836" lon="11.726605256470007"><ele>610.0</ele><time>2026-04-22T07:57:14.999Z</time></trkpt><trkpt lat="42.90858581896418" lon="11.726682898135023"><ele>608.75</ele><time>2026-04-22T07:57:15.999Z</time></trkpt><trkpt lat="42.908714602261405" lon="11.726785864812957"><ele>607.5</ele><time>2026-04-22T07:57:16.999Z</time></trkpt><trkpt lat="42.9088275609354" lon="11.7269112905484"><ele>606.25</ele><time>2026-04-22T07:57:17.999Z</time></trkpt><trkpt lat="42.90892118736321" lon="11.727057659507711"><ele>605.0</ele><time>2026-04-22T07:57:18.999Z</time></trkpt><trkpt lat="42.909011175865" lon="11.72720585342465"><ele>606.0</ele><time>2026-04-22T07:57:19.999Z</time></trkpt><trkpt lat="42.90910401763041" lon="11.727337858848319"><ele>607.0</ele><time>2026-04-22T07:57:20.999Z</time></trkpt><trkpt lat="42.90920482314882" lon="11.727436853556092"><ele>608.0</ele><time>2026-04-22T07:57:21.999Z</time></trkpt><trkpt lat="42.909318439776904" lon="11.727508038513637"><ele>609.0</ele><time>2026-04-22T07:57:22.999Z</time></trkpt><trkpt lat="42.909442161262724" lon="11.72754817989675"><ele>609.0</ele><time>2026-04-22T07:57:23.999Z</time></trkpt><trkpt lat="42.90957377809718" lon="11.727555126675927"><ele>609.0</ele><time>2026-04-22T07:57:24.999Z</time></trkpt><trkpt lat="42.909709012987996" lon="11.727541131648087"><ele>609.0</ele><time>2026-04-22T07:57:25.999Z</time></trkpt><trkpt lat="42.90984667336048" lon="11.727524456535953"><ele>609.0</ele><time>2026-04-22T07:57:26.999Z</time></trkpt><trkpt lat="42.9099876057818" lon="11.72751505034834"><ele>610.0</ele><time>2026-04-22T07:57:27.999Z</time></trkpt><trkpt lat="42.91013109033934" lon="11.727505606867096"><ele>611.0</ele><time>2026-04-22T07:57:28.999Z</time></trkpt><trkpt lat="42.91027949686251" lon="11.727492064994184"><ele>612.0</ele><time>2026-04-22T07:57:29.999Z</time></trkpt><trkpt lat="42.910429268482545" lon="11.727475084985088"><ele>613.0</ele><time>2026-04-22T07:57:30.999Z</time></trkpt><trkpt lat="42.9105841153694" lon="11.727459133683304"><ele>613.0</ele><time>2026-04-22T07:57:31.999Z</time></trkpt><trkpt lat="42.91073913126453" lon="11.72744166137065"><ele>613.0</ele><time>2026-04-22T07:57:32.999Z</time></trkpt><trkpt lat="42.910894395084085" lon="11.727422923991975"><ele>613.0</ele><time>2026-04-22T07:57:33.999Z</time></trkpt><trkpt lat="42.91105035689189" lon="11.727403842823609"><ele>613.0</ele><time>2026-04-22T07:57:34.999Z</time></trkpt><trkpt lat="42.91120891054784" lon="11.727386433368732"><ele>613.0</ele><time>2026-04-22T07:57:35.999Z</time></trkpt><trkpt lat="42.91137093943029" lon="11.727369933765289"><ele>613.0</ele><time>2026-04-22T07:57:36.999Z</time></trkpt><trkpt lat="42.91153071657214" lon="11.727351664654073"><ele>613.0</ele><time>2026-04-22T07:57:37.999Z</time></trkpt><trkpt lat="42.91169136025068" lon="11.727331327086238"><ele>613.0</ele><time>2026-04-22T07:57:38.999Z</time></trkpt><trkpt lat="42.91185464735416" lon="11.727314964254418"><ele>613.0</ele><time>2026-04-22T07:57:39.999Z</time></trkpt><trkpt lat="42.912016516746505" lon="11.727312803664372"><ele>612.6666666666667</ele><time>2026-04-22T07:57:40.999Z</time></trkpt><trkpt lat="42.9121775364618" lon="11.72732696842284"><ele>612.3333333333334</ele><time>2026-04-22T07:57:41.999Z</time></trkpt><trkpt lat="42.912338977524605" lon="11.727357729150938"><ele>612.0</ele><time>2026-04-22T07:57:42.999Z</time></trkpt><trkpt lat="42.91249986376397" lon="11.727393742586273"><ele>611.3333333333334</ele><time>2026-04-22T07:57:43.999Z</time></trkpt><trkpt lat="42.91266150656566" lon="11.727431256011327"><ele>610.6666666666667</ele><time>2026-04-22T07:57:44.999Z</time></trkpt><trkpt lat="42.91282236970702" lon="11.727466012345788"><ele>610.0</ele><time>2026-04-22T07:57:45.999Z</time></trkpt><trkpt lat="42.912983105037135" lon="11.72749753145144"><ele>610.0</ele><time>2026-04-22T07:57:46.999Z</time></trkpt><trkpt lat="42.913143641548714" lon="11.727533055154826"><ele>610.0</ele><time>2026-04-22T07:57:48Z</time></trkpt><trkpt lat="42.913305783685246" lon="11.727575075500905"><ele>610.0</ele><time>2026-04-22T07:57:49Z</time></trkpt><trkpt lat="42.913467908290635" lon="11.72761753856749"><ele>608.6666666666667</ele><time>2026-04-22T07:57:50Z</time></trkpt><trkpt lat="42.91362755920921" lon="11.727672413936848"><ele>607.3333333333334</ele><time>2026-04-22T07:57:51Z</time></trkpt><trkpt lat="42.91378651000343" lon="11.727740413011475"><ele>606.0</ele><time>2026-04-22T07:57:52Z</time></trkpt><trkpt lat="42.91394904294076" lon="11.727749370000115"><ele>607.6666666666666</ele><time>2026-04-22T07:57:53Z</time></trkpt><trkpt lat="42.91411070190892" lon="11.727803855313672"><ele>609.3333333333333</ele><time>2026-04-22T07:57:54Z</time></trkpt><trkpt lat="42.91425875015383" lon="11.727873898764107"><ele>611.0</ele><time>2026-04-22T07:57:55Z</time></trkpt><trkpt lat="42.91439414775674" lon="11.727922071404725"><ele>611.0</ele><time>2026-04-22T07:57:56Z</time></trkpt><trkpt lat="42.91451803196839" lon="11.727970903126709"><ele>611.0</ele><time>2026-04-22T07:57:57Z</time></trkpt><trkpt lat="42.9146231493746" lon="11.728036341857633"><ele>611.0</ele><time>2026-04-22T07:57:58Z</time></trkpt><trkpt lat="42.91471261366946" lon="11.728120847794415"><ele>611.0</ele><time>2026-04-22T07:57:59Z</time></trkpt><trkpt lat="42.914800517028844" lon="11.728231850756204"><ele>611.0</ele><time>2026-04-22T07:58:00Z</time></trkpt><trkpt lat="42.91490176326842" lon="11.728335914753057"><ele>611.0</ele><time>2026-04-22T07:58:01Z</time></trkpt><trkpt lat="42.91499206263548" lon="11.728463413774143"><ele>611.0</ele><time>2026-04-22T07:58:02Z</time></trkpt><trkpt lat="42.91508933152919" lon="11.72859045514603"><ele>611.0</ele><time>2026-04-22T07:58:03Z</time></trkpt><trkpt lat="42.91518699220559" lon="11.728715342334683"><ele>612.0</ele><time>2026-04-22T07:58:04Z</time></trkpt><trkpt lat="42.915284604526576" lon="11.728846434877346"><ele>613.0</ele><time>2026-04-22T07:58:05Z</time></trkpt><trkpt lat="42.91538793369948" lon="11.728980046047623"><ele>614.0</ele><time>2026-04-22T07:58:06Z</time></trkpt><trkpt lat="42.91548926589707" lon="11.729107457258909"><ele>615.0</ele><time>2026-04-22T07:58:07Z</time></trkpt><trkpt lat="42.915589425781405" lon="11.729212695365797"><ele>615.0</ele><time>2026-04-22T07:58:08Z</time></trkpt><trkpt lat="42.91570247322276" lon="11.72927297187957"><ele>615.0</ele><time>2026-04-22T07:58:09Z</time></trkpt><trkpt lat="42.91582810181073" lon="11.72928436326362"><ele>615.0</ele><time>2026-04-22T07:58:10Z</time></trkpt><trkpt lat="42.915956511282516" lon="11.729275663149554"><ele>615.0</ele><time>2026-04-22T07:58:11Z</time></trkpt><trkpt lat="42.916079712656675" lon="11.72927343037396"><ele>613.5</ele><time>2026-04-22T07:58:12Z</time></trkpt><trkpt lat="42.916171022530975" lon="11.729323175916134"><ele>612.0</ele><time>2026-04-22T07:58:13Z</time></trkpt><trkpt lat="42.91622452408618" lon="11.729402104377739"><ele>610.5</ele><time>2026-04-22T07:58:14Z</time></trkpt><trkpt lat="42.91625451155815" lon="11.729501700354122"><ele>609.0</ele><time>2026-04-22T07:58:15Z</time></trkpt><trkpt lat="42.91622995247092" lon="11.729611687130216"><ele>607.5</ele><time>2026-04-22T07:58:16Z</time></trkpt><trkpt lat="42.91619347218895" lon="11.729712806581855"><ele>606.0</ele><time>2026-04-22T07:58:17Z</time></trkpt><trkpt lat="42.91615868568056" lon="11.72982972100933"><ele>605.75</ele><time>2026-04-22T07:58:18Z</time></trkpt><trkpt lat="42.916122281308716" lon="11.72996427235845"><ele>605.5</ele><time>2026-04-22T07:58:19Z</time></trkpt><trkpt lat="42.91608221952836" lon="11.730112341623487"><ele>605.25</ele><time>2026-04-22T07:58:20Z</time></trkpt><trkpt lat="42.916055591189405" lon="11.73027590503299"><ele>605.0</ele><time>2026-04-22T07:58:21Z</time></trkpt><trkpt lat="42.91599646510145" lon="11.730429291910315"><ele>605.0</ele><time>2026-04-22T07:58:22Z</time></trkpt><trkpt lat="42.915950570519875" lon="11.730598919362077"><ele>605.0</ele><time>2026-04-22T07:58:23Z</time></trkpt><trkpt lat="42.915904660051375" lon="11.730779616935326"><ele>605.0</ele><time>2026-04-22T07:58:24Z</time></trkpt><trkpt lat="42.91587738234844" lon="11.730949599605593"><ele>605.0</ele><time>2026-04-22T07:58:24.999Z</time></trkpt><trkpt lat="42.915848196585806" lon="11.731102089563228"><ele>605.6</ele><time>2026-04-22T07:58:25.999Z</time></trkpt><trkpt lat="42.91584152449636" lon="11.731265227859465"><ele>606.2</ele><time>2026-04-22T07:58:26.999Z</time></trkpt><trkpt lat="42.915855580449104" lon="11.731408597083481"><ele>606.8</ele><time>2026-04-22T07:58:27.999Z</time></trkpt><trkpt lat="42.91587875663083" lon="11.73155266389783"><ele>607.4</ele><time>2026-04-22T07:58:28.999Z</time></trkpt><trkpt lat="42.91591176601479" lon="11.731698681608993"><ele>608.0</ele><time>2026-04-22T07:58:29.999Z</time></trkpt><trkpt lat="42.91596029846129" lon="11.731848707782277"><ele>610.5</ele><time>2026-04-22T07:58:30.999Z</time></trkpt><trkpt lat="42.91602887943384" lon="11.73198899040469"><ele>613.0</ele><time>2026-04-22T07:58:31.999Z</time></trkpt><trkpt lat="42.916117745371324" lon="11.732097282486759"><ele>615.5</ele><time>2026-04-22T07:58:32.999Z</time></trkpt><trkpt lat="42.916230828175145" lon="11.732137819690116"><ele>618.0</ele><time>2026-04-22T07:58:33.999Z</time></trkpt><trkpt lat="42.91634475615548" lon="11.732201912024617"><ele>618.0</ele><time>2026-04-22T07:58:34.999Z</time></trkpt><trkpt lat="42.91645597406847" lon="11.73229916777995"><ele>618.0</ele><time>2026-04-22T07:58:35.999Z</time></trkpt><trkpt lat="42.916563028119135" lon="11.732416033247748"><ele>618.0</ele><time>2026-04-22T07:58:36.999Z</time></trkpt><trkpt lat="42.91667919099839" lon="11.7325578710757"><ele>618.0</ele><time>2026-04-22T07:58:37.999Z</time></trkpt><trkpt lat="42.91679732575637" lon="11.732685036308089"><ele>618.5</ele><time>2026-04-22T07:58:38.999Z</time></trkpt><trkpt lat="42.916903280145405" lon="11.732813448223755"><ele>619.0</ele><time>2026-04-22T07:58:39.999Z</time></trkpt><trkpt lat="42.917003210746316" lon="11.732932023558691"><ele>619.5</ele><time>2026-04-22T07:58:40.999Z</time></trkpt><trkpt lat="42.91710235070698" lon="11.733036203946737"><ele>620.0</ele><time>2026-04-22T07:58:41.999Z</time></trkpt><trkpt lat="42.917198992354884" lon="11.733112754764251"><ele>620.0</ele><time>2026-04-22T07:58:42.999Z</time></trkpt><trkpt lat="42.91730365959433" lon="11.7331510203768"><ele>620.0</ele><time>2026-04-22T07:58:43.999Z</time></trkpt><trkpt lat="42.917414653953585" lon="11.73314415741731"><ele>620.0</ele><time>2026-04-22T07:58:44.999Z</time></trkpt><trkpt lat="42.917524322788594" lon="11.73309799288228"><ele>620.0</ele><time>2026-04-22T07:58:45.999Z</time></trkpt><trkpt lat="42.91763256511442" lon="11.733038434827236"><ele>619.25</ele><time>2026-04-22T07:58:46.999Z</time></trkpt><trkpt lat="42.91774995897379" lon="11.732970736549952"><ele>618.5</ele><time>2026-04-22T07:58:47.999Z</time></trkpt><trkpt lat="42.91786625013611" lon="11.7328919632503"><ele>617.75</ele><time>2026-04-22T07:58:48.999Z</time></trkpt><trkpt lat="42.91797532208167" lon="11.732812925423135"><ele>617.0</ele><time>2026-04-22T07:58:49.999Z</time></trkpt><trkpt lat="42.91808236288497" lon="11.732746893828343"><ele>614.0</ele><time>2026-04-22T07:58:50.999Z</time></trkpt><trkpt lat="42.91819085979428" lon="11.73269547672858"><ele>611.0</ele><time>2026-04-22T07:58:51.999Z</time></trkpt><trkpt lat="42.91830280526819" lon="11.732666986093879"><ele>608.0</ele><time>2026-04-22T07:58:52.999Z</time></trkpt><trkpt lat="42.918428468945955" lon="11.732690911967898"><ele>605.0</ele><time>2026-04-22T07:58:53.999Z</time></trkpt><trkpt lat="42.91856466224495" lon="11.732711184566575"><ele>605.25</ele><time>2026-04-22T07:58:54.999Z</time></trkpt><trkpt lat="42.918708639156065" lon="11.73272850261455"><ele>605.5</ele><time>2026-04-22T07:58:55.999Z</time></trkpt><trkpt lat="42.91883626796557" lon="11.73279355389172"><ele>605.75</ele><time>2026-04-22T07:58:56.999Z</time></trkpt><trkpt lat="42.918932547162086" lon="11.73289507759892"><ele>606.0</ele><time>2026-04-22T07:58:57.999Z</time></trkpt><trkpt lat="42.919021135906405" lon="11.732976005096877"><ele>606.0</ele><time>2026-04-22T07:58:58.999Z</time></trkpt><trkpt lat="42.9190598942187" lon="11.733118694596518"><ele>606.0</ele><time>2026-04-22T07:58:59.999Z</time></trkpt><trkpt lat="42.91910239166721" lon="11.733264435665445"><ele>606.0</ele><time>2026-04-22T07:59:00.999Z</time></trkpt><trkpt lat="42.91915698121368" lon="11.733428538280194"><ele>606.0</ele><time>2026-04-22T07:59:01.999Z</time></trkpt><trkpt lat="42.91923274312872" lon="11.733582671534778"><ele>603.0</ele><time>2026-04-22T07:59:02.999Z</time></trkpt><trkpt lat="42.91932267369649" lon="11.733734323776952"><ele>600.0</ele><time>2026-04-22T07:59:03.999Z</time></trkpt><trkpt lat="42.91943910192772" lon="11.733863764599748"><ele>597.0</ele><time>2026-04-22T07:59:04.999Z</time></trkpt><trkpt lat="42.919550249962704" lon="11.733979845410433"><ele>594.0</ele><time>2026-04-22T07:59:05.999Z</time></trkpt><trkpt lat="42.919652692437474" lon="11.734090791687976"><ele>594.0</ele><time>2026-04-22T07:59:06.999Z</time></trkpt><trkpt lat="42.919739392632614" lon="11.734210400180814"><ele>594.0</ele><time>2026-04-22T07:59:07.999Z</time></trkpt><trkpt lat="42.91982512458429" lon="11.734280976592823"><ele>594.0</ele><time>2026-04-22T07:59:08.999Z</time></trkpt><trkpt lat="42.91988070030332" lon="11.734353764318229"><ele>594.0</ele><time>2026-04-22T07:59:09.999Z</time></trkpt><trkpt lat="42.9199173764191" lon="11.734487714037726"><ele>594.0</ele><time>2026-04-22T07:59:11.999Z</time></trkpt><trkpt lat="42.919882666503405" lon="11.734661262903689"><ele>594.0</ele><time>2026-04-22T07:59:13.999Z</time></trkpt><trkpt lat="42.91984239455734" lon="11.734769236787912"><ele>594.0</ele><time>2026-04-22T07:59:14.999Z</time></trkpt><trkpt lat="42.919818667141584" lon="11.734904358197992"><ele>594.0</ele><time>2026-04-22T07:59:15.999Z</time></trkpt><trkpt lat="42.91978624161731" lon="11.735045976316982"><ele>594.0</ele><time>2026-04-22T07:59:16.999Z</time></trkpt><trkpt lat="42.919742556562554" lon="11.735177447516639"><ele>594.0</ele><time>2026-04-22T07:59:17.999Z</time></trkpt><trkpt lat="42.919677813404526" lon="11.735294642377486"><ele>594.0</ele><time>2026-04-22T07:59:18.999Z</time></trkpt><trkpt lat="42.919601137434874" lon="11.735413488461822"><ele>594.0</ele><time>2026-04-22T07:59:19.999Z</time></trkpt><trkpt lat="42.91952045084739" lon="11.73553824588698"><ele>594.0</ele><time>2026-04-22T07:59:20.999Z</time></trkpt><trkpt lat="42.919432443971104" lon="11.735670071584474"><ele>594.0</ele><time>2026-04-22T07:59:21.999Z</time></trkpt><trkpt lat="42.91933961523766" lon="11.735806490095621"><ele>594.0</ele><time>2026-04-22T07:59:22.999Z</time></trkpt><trkpt lat="42.919243922654346" lon="11.735953377395408"><ele>594.0</ele><time>2026-04-22T07:59:23.999Z</time></trkpt><trkpt lat="42.91916294750459" lon="11.736114036524677"><ele>594.0</ele><time>2026-04-22T07:59:24.999Z</time></trkpt><trkpt lat="42.91908108878871" lon="11.736254000599612"><ele>594.0</ele><time>2026-04-22T07:59:25.999Z</time></trkpt><trkpt lat="42.91901573743754" lon="11.736408901807827"><ele>597.25</ele><time>2026-04-22T07:59:26.999Z</time></trkpt><trkpt lat="42.91897777898991" lon="11.73657658983395"><ele>600.5</ele><time>2026-04-22T07:59:27.999Z</time></trkpt><trkpt lat="42.91896211587345" lon="11.736766366768533"><ele>603.75</ele><time>2026-04-22T07:59:28.999Z</time></trkpt><trkpt lat="42.91896065718622" lon="11.73695271264401"><ele>607.0</ele><time>2026-04-22T07:59:29.999Z</time></trkpt><trkpt lat="42.918971998649134" lon="11.737143385100277"><ele>607.75</ele><time>2026-04-22T07:59:30.999Z</time></trkpt><trkpt lat="42.918966771930364" lon="11.73733291017545"><ele>608.5</ele><time>2026-04-22T07:59:31.999Z</time></trkpt><trkpt lat="42.918968020192146" lon="11.737523476851658"><ele>609.25</ele><time>2026-04-22T07:59:32.999Z</time></trkpt><trkpt lat="42.9189779991219" lon="11.737714422135648"><ele>610.0</ele><time>2026-04-22T07:59:33.999Z</time></trkpt><trkpt lat="42.91896186711773" lon="11.737907575765364"><ele>611.25</ele><time>2026-04-22T07:59:34.999Z</time></trkpt><trkpt lat="42.91891573225913" lon="11.738092321760524"><ele>612.5</ele><time>2026-04-22T07:59:35.999Z</time></trkpt><trkpt lat="42.91889093607787" lon="11.738288108957345"><ele>613.75</ele><time>2026-04-22T07:59:36.999Z</time></trkpt><trkpt lat="42.91884921929911" lon="11.738480868394399"><ele>615.0</ele><time>2026-04-22T07:59:37.999Z</time></trkpt><trkpt lat="42.9188255968319" lon="11.738673571843002"><ele>617.25</ele><time>2026-04-22T07:59:38.999Z</time></trkpt><trkpt lat="42.91883264292934" lon="11.738863601637306"><ele>619.5</ele><time>2026-04-22T07:59:39.999Z</time></trkpt><trkpt lat="42.91887260011493" lon="11.739042778834703"><ele>621.75</ele><time>2026-04-22T07:59:40.999Z</time></trkpt><trkpt lat="42.918938283326625" lon="11.739210389204613"><ele>624.0</ele><time>2026-04-22T07:59:41.999Z</time></trkpt><trkpt lat="42.91901408608979" lon="11.739361971847169"><ele>626.0</ele><time>2026-04-22T07:59:42.999Z</time></trkpt><trkpt lat="42.91906817155836" lon="11.73953884303127"><ele>628.0</ele><time>2026-04-22T07:59:43.999Z</time></trkpt><trkpt lat="42.91911251208413" lon="11.739713471605773"><ele>630.0</ele><time>2026-04-22T07:59:44.999Z</time></trkpt><trkpt lat="42.919133733763104" lon="11.739894219405535"><ele>632.0</ele><time>2026-04-22T07:59:45.999Z</time></trkpt><trkpt lat="42.91913302059097" lon="11.740078304156352"><ele>631.5</ele><time>2026-04-22T07:59:46.999Z</time></trkpt><trkpt lat="42.91911524859001" lon="11.740254846824548"><ele>631.0</ele><time>2026-04-22T07:59:47.999Z</time></trkpt><trkpt lat="42.91908493447324" lon="11.740419375254607"><ele>630.5</ele><time>2026-04-22T07:59:48.999Z</time></trkpt><trkpt lat="42.919054431737095" lon="11.740583881407977"><ele>630.0</ele><time>2026-04-22T07:59:49.999Z</time></trkpt><trkpt lat="42.91902450891248" lon="11.740745923952373"><ele>630.0</ele><time>2026-04-22T07:59:50.999Z</time></trkpt><trkpt lat="42.91899320806136" lon="11.740912588880619"><ele>630.0</ele><time>2026-04-22T07:59:51.999Z</time></trkpt><trkpt lat="42.91896155960112" lon="11.741081822870733"><ele>630.0</ele><time>2026-04-22T07:59:52.999Z</time></trkpt><trkpt lat="42.91892908354068" lon="11.741255482263762"><ele>630.0</ele><time>2026-04-22T07:59:54Z</time></trkpt><trkpt lat="42.918896836483526" lon="11.741432163514505"><ele>629.5</ele><time>2026-04-22T07:59:55Z</time></trkpt><trkpt lat="42.91886352981453" lon="11.741616933040685"><ele>629.0</ele><time>2026-04-22T07:59:56Z</time></trkpt><trkpt lat="42.91884264172668" lon="11.741813254387973"><ele>628.5</ele><time>2026-04-22T07:59:57Z</time></trkpt><trkpt lat="42.91880059855436" lon="11.74200813976229"><ele>628.0</ele><time>2026-04-22T07:59:58Z</time></trkpt><trkpt lat="42.918766317857674" lon="11.742202871690441"><ele>625.0</ele><time>2026-04-22T07:59:59Z</time></trkpt><trkpt lat="42.918742303676936" lon="11.742400740276187"><ele>622.0</ele><time>2026-04-22T08:00:00Z</time></trkpt><trkpt lat="42.91871704655004" lon="11.74260349561151"><ele>619.0</ele><time>2026-04-22T08:00:01Z</time></trkpt><trkpt lat="42.918707250715535" lon="11.742812734449851"><ele>618.0</ele><time>2026-04-22T08:00:02Z</time></trkpt><trkpt lat="42.91871486037858" lon="11.743024250892686"><ele>617.0</ele><time>2026-04-22T08:00:03Z</time></trkpt><trkpt lat="42.91873638045965" lon="11.743240472188331"><ele>616.0</ele><time>2026-04-22T08:00:04Z</time></trkpt><trkpt lat="42.91877359847194" lon="11.743454756742478"><ele>616.3333333333334</ele><time>2026-04-22T08:00:05Z</time></trkpt><trkpt lat="42.91882657498242" lon="11.743665373386847"><ele>616.6666666666666</ele><time>2026-04-22T08:00:06Z</time></trkpt><trkpt lat="42.9188914059326" lon="11.743869106912248"><ele>617.0</ele><time>2026-04-22T08:00:07Z</time></trkpt><trkpt lat="42.918971178658296" lon="11.744062049216524"><ele>617.0</ele><time>2026-04-22T08:00:08Z</time></trkpt><trkpt lat="42.9190563342469" lon="11.744243252827891"><ele>617.0</ele><time>2026-04-22T08:00:09Z</time></trkpt><trkpt lat="42.91914186533812" lon="11.744422552693983"><ele>617.0</ele><time>2026-04-22T08:00:10Z</time></trkpt><trkpt lat="42.91922586374616" lon="11.74459480018307"><ele>614.3333333333333</ele><time>2026-04-22T08:00:11Z</time></trkpt><trkpt lat="42.919317567177345" lon="11.744761904649943"><ele>611.6666666666666</ele><time>2026-04-22T08:00:12Z</time></trkpt><trkpt lat="42.91941447940397" lon="11.744925409766568"><ele>609.0</ele><time>2026-04-22T08:00:13Z</time></trkpt><trkpt lat="42.91950934633165" lon="11.745088387926467"><ele>609.25</ele><time>2026-04-22T08:00:14Z</time></trkpt><trkpt lat="42.91959954263565" lon="11.745253662365219"><ele>609.5</ele><time>2026-04-22T08:00:15Z</time></trkpt><trkpt lat="42.919677933105106" lon="11.745423743461336"><ele>609.75</ele><time>2026-04-22T08:00:16Z</time></trkpt><trkpt lat="42.91972266645305" lon="11.745610044965998"><ele>610.0</ele><time>2026-04-22T08:00:17Z</time></trkpt><trkpt lat="42.91975671557868" lon="11.745803881207486"><ele>610.0</ele><time>2026-04-22T08:00:18Z</time></trkpt><trkpt lat="42.91978475680274" lon="11.74600461485024"><ele>610.0</ele><time>2026-04-22T08:00:19Z</time></trkpt><trkpt lat="42.91981125260775" lon="11.74620739910288"><ele>610.0</ele><time>2026-04-22T08:00:20Z</time></trkpt><trkpt lat="42.91983760523414" lon="11.746404526051862"><ele>610.0</ele><time>2026-04-22T08:00:21Z</time></trkpt><trkpt lat="42.91987752160629" lon="11.746590649547748"><ele>610.5</ele><time>2026-04-22T08:00:22Z</time></trkpt><trkpt lat="42.91990153770282" lon="11.746770255157395"><ele>611.0</ele><time>2026-04-22T08:00:23Z</time></trkpt><trkpt lat="42.91992278690095" lon="11.74693404259556"><ele>611.5</ele><time>2026-04-22T08:00:24Z</time></trkpt><trkpt lat="42.91993980509152" lon="11.747088042978046"><ele>612.0</ele><time>2026-04-22T08:00:25Z</time></trkpt><trkpt lat="42.9199455468933" lon="11.747248547904867"><ele>612.0</ele><time>2026-04-22T08:00:26Z</time></trkpt><trkpt lat="42.91991149802043" lon="11.74741141112072"><ele>612.0</ele><time>2026-04-22T08:00:27Z</time></trkpt><trkpt lat="42.919863363169206" lon="11.74757022951761"><ele>612.0</ele><time>2026-04-22T08:00:28Z</time></trkpt><trkpt lat="42.91978489994556" lon="11.747708944680936"><ele>612.0</ele><time>2026-04-22T08:00:29Z</time></trkpt><trkpt lat="42.91968287169715" lon="11.747820548205768"><ele>610.0</ele><time>2026-04-22T08:00:29.999Z</time></trkpt><trkpt lat="42.919566703054905" lon="11.74793363018864"><ele>608.0</ele><time>2026-04-22T08:00:30.999Z</time></trkpt><trkpt lat="42.919442667754254" lon="11.748049345779336"><ele>606.0</ele><time>2026-04-22T08:00:31.999Z</time></trkpt><trkpt lat="42.919322466533416" lon="11.748187197343084"><ele>606.3333333333334</ele><time>2026-04-22T08:00:32.999Z</time></trkpt><trkpt lat="42.91918842580184" lon="11.74831116086499"><ele>606.6666666666667</ele><time>2026-04-22T08:00:33.999Z</time></trkpt><trkpt lat="42.91905455859763" lon="11.748437349287354"><ele>607.0</ele><time>2026-04-22T08:00:34.999Z</time></trkpt><trkpt lat="42.918918191132654" lon="11.748563425454318"><ele>605.6666666666667</ele><time>2026-04-22T08:00:35.999Z</time></trkpt><trkpt lat="42.91878444662672" lon="11.748684710297848"><ele>604.3333333333334</ele><time>2026-04-22T08:00:36.999Z</time></trkpt><trkpt lat="42.9186564317007" lon="11.748805675280376"><ele>603.0</ele><time>2026-04-22T08:00:37.999Z</time></trkpt><trkpt lat="42.9185354559664" lon="11.748933412262119"><ele>603.0</ele><time>2026-04-22T08:00:38.999Z</time></trkpt><trkpt lat="42.91842490258846" lon="11.749076324868323"><ele>603.0</ele><time>2026-04-22T08:00:39.999Z</time></trkpt><trkpt lat="42.918319244423394" lon="11.749230798860228"><ele>603.0</ele><time>2026-04-22T08:00:40.999Z</time></trkpt><trkpt lat="42.91822115212667" lon="11.749393148618791"><ele>604.3333333333334</ele><time>2026-04-22T08:00:41.999Z</time></trkpt><trkpt lat="42.91811904506636" lon="11.749556043619284"><ele>605.6666666666667</ele><time>2026-04-22T08:00:42.999Z</time></trkpt><trkpt lat="42.918018438059086" lon="11.749715420454587"><ele>607.0</ele><time>2026-04-22T08:00:43.999Z</time></trkpt><trkpt lat="42.91791677418607" lon="11.749880616148928"><ele>607.0</ele><time>2026-04-22T08:00:44.999Z</time></trkpt><trkpt lat="42.91780342387026" lon="11.750031512625625"><ele>607.0</ele><time>2026-04-22T08:00:45.999Z</time></trkpt><trkpt lat="42.917700244404706" lon="11.75019464726544"><ele>607.0</ele><time>2026-04-22T08:00:46.999Z</time></trkpt><trkpt lat="42.91759951393166" lon="11.750353909953938"><ele>609.6666666666667</ele><time>2026-04-22T08:00:47.999Z</time></trkpt><trkpt lat="42.91750479722471" lon="11.750537749127378"><ele>612.3333333333334</ele><time>2026-04-22T08:00:48.999Z</time></trkpt><trkpt lat="42.91740223637178" lon="11.75069962824044"><ele>615.0</ele><time>2026-04-22T08:00:49.999Z</time></trkpt><trkpt lat="42.91728779945081" lon="11.750855914223141"><ele>615.0</ele><time>2026-04-22T08:00:50.999Z</time></trkpt><trkpt lat="42.91720087663493" lon="11.751040622399975"><ele>615.0</ele><time>2026-04-22T08:00:51.999Z</time></trkpt><trkpt lat="42.9171642052012" lon="11.751248078790708"><ele>615.0</ele><time>2026-04-22T08:00:52.999Z</time></trkpt><trkpt lat="42.917134321801036" lon="11.751441941910958"><ele>615.75</ele><time>2026-04-22T08:00:53.999Z</time></trkpt><trkpt lat="42.917122222801176" lon="11.751638594137894"><ele>616.5</ele><time>2026-04-22T08:00:54.999Z</time></trkpt><trkpt lat="42.91709412297322" lon="11.75183203646276"><ele>617.25</ele><time>2026-04-22T08:00:55.999Z</time></trkpt><trkpt lat="42.91700939052112" lon="11.751983455652319"><ele>618.0</ele><time>2026-04-22T08:00:56.999Z</time></trkpt><trkpt lat="42.91690997444296" lon="11.752124116676175"><ele>618.0</ele><time>2026-04-22T08:00:57.999Z</time></trkpt><trkpt lat="42.91679807988659" lon="11.752261591514502"><ele>618.0</ele><time>2026-04-22T08:00:58.999Z</time></trkpt><trkpt lat="42.91668154339936" lon="11.752401285882872"><ele>618.0</ele><time>2026-04-22T08:00:59.999Z</time></trkpt><trkpt lat="42.91656274638766" lon="11.752546034480364"><ele>622.3333333333334</ele><time>2026-04-22T08:01:00.999Z</time></trkpt><trkpt lat="42.91645780337133" lon="11.75270933339005"><ele>626.6666666666667</ele><time>2026-04-22T08:01:01.999Z</time></trkpt><trkpt lat="42.916358932177474" lon="11.752873918828488"><ele>631.0</ele><time>2026-04-22T08:01:02.999Z</time></trkpt><trkpt lat="42.91628484178105" lon="11.75306428323494"><ele>631.0</ele><time>2026-04-22T08:01:03.999Z</time></trkpt><trkpt lat="42.91623411718996" lon="11.753269089775348"><ele>631.0</ele><time>2026-04-22T08:01:04.999Z</time></trkpt><trkpt lat="42.916204629353565" lon="11.753485233958338"><ele>631.0</ele><time>2026-04-22T08:01:05.999Z</time></trkpt><trkpt lat="42.91617785018964" lon="11.753701695815609"><ele>630.5</ele><time>2026-04-22T08:01:06.999Z</time></trkpt><trkpt lat="42.916140160021975" lon="11.75414925165246"><ele>630.0</ele><time>2026-04-22T08:01:08.999Z</time></trkpt><trkpt lat="42.916137245941336" lon="11.754379303990767"><ele>631.6666666666666</ele><time>2026-04-22T08:01:09.999Z</time></trkpt><trkpt lat="42.916117731237705" lon="11.754606208128706"><ele>633.3333333333333</ele><time>2026-04-22T08:01:10.999Z</time></trkpt><trkpt lat="42.9160996202366" lon="11.754834102429173"><ele>635.0</ele><time>2026-04-22T08:01:11.999Z</time></trkpt><trkpt lat="42.91606507733937" lon="11.755061355502676"><ele>636.6666666666666</ele><time>2026-04-22T08:01:12.999Z</time></trkpt><trkpt lat="42.91604704266672" lon="11.755287272104493"><ele>638.3333333333334</ele><time>2026-04-22T08:01:13.999Z</time></trkpt><trkpt lat="42.916042176227776" lon="11.755523922602126"><ele>640.0</ele><time>2026-04-22T08:01:14.999Z</time></trkpt><trkpt lat="42.9160217817427" lon="11.755759495035718"><ele>640.0</ele><time>2026-04-22T08:01:15.999Z</time></trkpt><trkpt lat="42.915976929099095" lon="11.755994743494519"><ele>640.0</ele><time>2026-04-22T08:01:16.999Z</time></trkpt><trkpt lat="42.91594159297055" lon="11.756237523764234"><ele>640.0</ele><time>2026-04-22T08:01:17.999Z</time></trkpt><trkpt lat="42.91590175502762" lon="11.756488408819267"><ele>645.0</ele><time>2026-04-22T08:01:18.999Z</time></trkpt><trkpt lat="42.9158592197935" lon="11.756731776454417"><ele>650.0</ele><time>2026-04-22T08:01:19.999Z</time></trkpt><trkpt lat="42.915817780074896" lon="11.756980789622855"><ele>655.0</ele><time>2026-04-22T08:01:20.999Z</time></trkpt><trkpt lat="42.91579053383775" lon="11.75720396469478"><ele>656.6</ele><time>2026-04-22T08:01:21.999Z</time></trkpt><trkpt lat="42.91571047479104" lon="11.757378135330866"><ele>658.2</ele><time>2026-04-22T08:01:22.999Z</time></trkpt><trkpt lat="42.91562790438852" lon="11.757478193686218"><ele>659.8</ele><time>2026-04-22T08:01:23.999Z</time></trkpt><trkpt lat="42.91554337816907" lon="11.75751541334474"><ele>661.4</ele><time>2026-04-22T08:01:24.999Z</time></trkpt><trkpt lat="42.91545483602446" lon="11.757541401913002"><ele>663.0</ele><time>2026-04-22T08:01:25.999Z</time></trkpt><trkpt lat="42.9153586089055" lon="11.75754353265303"><ele>663.0</ele><time>2026-04-22T08:01:26.999Z</time></trkpt><trkpt lat="42.91524616932044" lon="11.757559462954191"><ele>663.0</ele><time>2026-04-22T08:01:27.999Z</time></trkpt><trkpt lat="42.915132792581154" lon="11.757621695096027"><ele>663.0</ele><time>2026-04-22T08:01:28.999Z</time></trkpt><trkpt lat="42.915032901627974" lon="11.75770477149078"><ele>663.0</ele><time>2026-04-22T08:01:29.999Z</time></trkpt><trkpt lat="42.91496490360819" lon="11.757824763766472"><ele>665.5</ele><time>2026-04-22T08:01:30.999Z</time></trkpt><trkpt lat="42.914917579775185" lon="11.75796763651688"><ele>668.0</ele><time>2026-04-22T08:01:31.999Z</time></trkpt><trkpt lat="42.91486395484199" lon="11.758127150029686"><ele>670.5</ele><time>2026-04-22T08:01:32.999Z</time></trkpt><trkpt lat="42.914771813432864" lon="11.758257143611395"><ele>673.0</ele><time>2026-04-22T08:01:33.999Z</time></trkpt><trkpt lat="42.91467825495371" lon="11.758387378110045"><ele>673.0</ele><time>2026-04-22T08:01:34.999Z</time></trkpt><trkpt lat="42.91458500124792" lon="11.758534541646656"><ele>673.0</ele><time>2026-04-22T08:01:35.999Z</time></trkpt><trkpt lat="42.9144750398813" lon="11.758667360736094"><ele>673.0</ele><time>2026-04-22T08:01:36.999Z</time></trkpt><trkpt lat="42.9143701427768" lon="11.758795170916782"><ele>673.0</ele><time>2026-04-22T08:01:37.999Z</time></trkpt><trkpt lat="42.91427914724076" lon="11.758932863942716"><ele>674.0</ele><time>2026-04-22T08:01:38.999Z</time></trkpt><trkpt lat="42.914224982068205" lon="11.759101447990197"><ele>675.0</ele><time>2026-04-22T08:01:39.999Z</time></trkpt><trkpt lat="42.91421440222004" lon="11.759308399306335"><ele>676.0</ele><time>2026-04-22T08:01:40.999Z</time></trkpt><trkpt lat="42.914164622249146" lon="11.75949569196577"><ele>677.0</ele><time>2026-04-22T08:01:41.999Z</time></trkpt><trkpt lat="42.91411065650356" lon="11.75968940119974"><ele>680.0</ele><time>2026-04-22T08:01:42.999Z</time></trkpt><trkpt lat="42.91404156624806" lon="11.759881040817353"><ele>683.0</ele><time>2026-04-22T08:01:43.999Z</time></trkpt><trkpt lat="42.913975969128195" lon="11.76009134883123"><ele>686.0</ele><time>2026-04-22T08:01:44.999Z</time></trkpt><trkpt lat="42.913894429565566" lon="11.760268945361405"><ele>687.5</ele><time>2026-04-22T08:01:45.999Z</time></trkpt><trkpt lat="42.9138143030517" lon="11.760441463892128"><ele>689.0</ele><time>2026-04-22T08:01:46.999Z</time></trkpt><trkpt lat="42.913750935167975" lon="11.760607206963526"><ele>690.5</ele><time>2026-04-22T08:01:47.999Z</time></trkpt><trkpt lat="42.91372772725964" lon="11.760760481350152"><ele>692.0</ele><time>2026-04-22T08:01:48.999Z</time></trkpt><trkpt lat="42.9137417891969" lon="11.760890664797742"><ele>692.0</ele><time>2026-04-22T08:01:49.999Z</time></trkpt><trkpt lat="42.913778485052134" lon="11.761012423981418"><ele>692.0</ele><time>2026-04-22T08:01:50.999Z</time></trkpt><trkpt lat="42.91383414021333" lon="11.761131294897202"><ele>692.0</ele><time>2026-04-22T08:01:51.999Z</time></trkpt><trkpt lat="42.913902749698146" lon="11.761254885843702"><ele>692.0</ele><time>2026-04-22T08:01:52.999Z</time></trkpt><trkpt lat="42.91395148689318" lon="11.761404633683757"><ele>692.0</ele><time>2026-04-22T08:01:53.999Z</time></trkpt><trkpt lat="42.91400766585189" lon="11.761541183330245"><ele>691.75</ele><time>2026-04-22T08:01:54.999Z</time></trkpt><trkpt lat="42.914020730988284" lon="11.761704693133334"><ele>691.5</ele><time>2026-04-22T08:01:55.999Z</time></trkpt><trkpt lat="42.91400078465968" lon="11.761870556274157"><ele>691.25</ele><time>2026-04-22T08:01:56.999Z</time></trkpt><trkpt lat="42.91392999988544" lon="11.762014171603699"><ele>691.0</ele><time>2026-04-22T08:01:57.999Z</time></trkpt><trkpt lat="42.91385316553079" lon="11.76215738962832"><ele>690.3333333333334</ele><time>2026-04-22T08:01:58.999Z</time></trkpt><trkpt lat="42.91378151409142" lon="11.762326392870804"><ele>689.6666666666666</ele><time>2026-04-22T08:02:00Z</time></trkpt><trkpt lat="42.913692233641626" lon="11.762492619542646"><ele>689.0</ele><time>2026-04-22T08:02:01Z</time></trkpt><trkpt lat="42.91358625404698" lon="11.76265661474631"><ele>687.6666666666666</ele><time>2026-04-22T08:02:02Z</time></trkpt><trkpt lat="42.913489603806156" lon="11.76283870231144"><ele>686.3333333333334</ele><time>2026-04-22T08:02:03Z</time></trkpt><trkpt lat="42.91338875173261" lon="11.763028705959783"><ele>685.0</ele><time>2026-04-22T08:02:04Z</time></trkpt><trkpt lat="42.913287695799276" lon="11.763219093764135"><ele>688.75</ele><time>2026-04-22T08:02:05Z</time></trkpt><trkpt lat="42.91319784685495" lon="11.76338881655681"><ele>692.5</ele><time>2026-04-22T08:02:06Z</time></trkpt><trkpt lat="42.91312718562055" lon="11.763547618020628"><ele>696.25</ele><time>2026-04-22T08:02:07Z</time></trkpt><trkpt lat="42.913032557306394" lon="11.763666613089752"><ele>700.0</ele><time>2026-04-22T08:02:08Z</time></trkpt><trkpt lat="42.912918178550655" lon="11.763739998307017"><ele>700.75</ele><time>2026-04-22T08:02:09Z</time></trkpt><trkpt lat="42.91279808990899" lon="11.763769375116455"><ele>701.5</ele><time>2026-04-22T08:02:10Z</time></trkpt><trkpt lat="42.9126752914655" lon="11.76372091457582"><ele>702.25</ele><time>2026-04-22T08:02:11Z</time></trkpt><trkpt lat="42.91254130497058" lon="11.7637051833408"><ele>703.0</ele><time>2026-04-22T08:02:12Z</time></trkpt><trkpt lat="42.91240640100444" lon="11.76365124447434"><ele>704.6666666666667</ele><time>2026-04-22T08:02:13Z</time></trkpt><trkpt lat="42.91226360403201" lon="11.763601091012143"><ele>706.3333333333334</ele><time>2026-04-22T08:02:14Z</time></trkpt><trkpt lat="42.91211454271868" lon="11.763552945711245"><ele>708.0</ele><time>2026-04-22T08:02:15Z</time></trkpt><trkpt lat="42.911960007275" lon="11.763507424277869"><ele>708.0</ele><time>2026-04-22T08:02:16Z</time></trkpt><trkpt lat="42.911800129587235" lon="11.763473710195377"><ele>708.0</ele><time>2026-04-22T08:02:17Z</time></trkpt><trkpt lat="42.911638485546156" lon="11.76345443192946"><ele>708.0</ele><time>2026-04-22T08:02:18Z</time></trkpt><trkpt lat="42.91147828420886" lon="11.763449341441884"><ele>710.3333333333334</ele><time>2026-04-22T08:02:19Z</time></trkpt><trkpt lat="42.91132119837848" lon="11.763454474155388"><ele>712.6666666666667</ele><time>2026-04-22T08:02:20Z</time></trkpt><trkpt lat="42.911170897220146" lon="11.763484991778059"><ele>715.0</ele><time>2026-04-22T08:02:21Z</time></trkpt><trkpt lat="42.91102526467829" lon="11.763546345962414"><ele>718.6666666666667</ele><time>2026-04-22T08:02:22Z</time></trkpt><trkpt lat="42.91088463545112" lon="11.763630770683315"><ele>722.3333333333334</ele><time>2026-04-22T08:02:23Z</time></trkpt><trkpt lat="42.91074929435163" lon="11.76373573183716"><ele>726.0</ele><time>2026-04-22T08:02:24Z</time></trkpt><trkpt lat="42.91060354762423" lon="11.763824511112471"><ele>726.0</ele><time>2026-04-22T08:02:25Z</time></trkpt><trkpt lat="42.91047401401204" lon="11.763944648020288"><ele>726.0</ele><time>2026-04-22T08:02:26Z</time></trkpt><trkpt lat="42.91033554662149" lon="11.764044243871064"><ele>726.0</ele><time>2026-04-22T08:02:27Z</time></trkpt><trkpt lat="42.91019755951703" lon="11.764147596859791"><ele>727.3333333333334</ele><time>2026-04-22T08:02:28Z</time></trkpt><trkpt lat="42.910058585775374" lon="11.76424433059481"><ele>728.6666666666667</ele><time>2026-04-22T08:02:29Z</time></trkpt><trkpt lat="42.90991088313303" lon="11.764322475443109"><ele>730.0</ele><time>2026-04-22T08:02:30Z</time></trkpt><trkpt lat="42.90975512720106" lon="11.764354548121844"><ele>730.0</ele><time>2026-04-22T08:02:31Z</time></trkpt><trkpt lat="42.90959956334536" lon="11.764360909524182"><ele>730.0</ele><time>2026-04-22T08:02:32Z</time></trkpt><trkpt lat="42.90944135239818" lon="11.764340087608163"><ele>730.0</ele><time>2026-04-22T08:02:33Z</time></trkpt><trkpt lat="42.90927740759355" lon="11.764327186708156"><ele>731.3333333333334</ele><time>2026-04-22T08:02:34Z</time></trkpt><trkpt lat="42.9091068732941" lon="11.764280642072821"><ele>732.6666666666666</ele><time>2026-04-22T08:02:35Z</time></trkpt><trkpt lat="42.90893000329445" lon="11.76424387009127"><ele>734.0</ele><time>2026-04-22T08:02:36Z</time></trkpt><trkpt lat="42.90875331685765" lon="11.76421356148374"><ele>734.0</ele><time>2026-04-22T08:02:37Z</time></trkpt><trkpt lat="42.90857609967676" lon="11.764178059811607"><ele>734.0</ele><time>2026-04-22T08:02:38Z</time></trkpt><trkpt lat="42.908400555343825" lon="11.76414649671755"><ele>734.0</ele><time>2026-04-22T08:02:39Z</time></trkpt><trkpt lat="42.90821778395467" lon="11.764112558846048"><ele>736.0</ele><time>2026-04-22T08:02:40Z</time></trkpt><trkpt lat="42.90804417591338" lon="11.76407935145955"><ele>738.0</ele><time>2026-04-22T08:02:41Z</time></trkpt><trkpt lat="42.90786879835905" lon="11.764048592371232"><ele>740.0</ele><time>2026-04-22T08:02:42Z</time></trkpt><trkpt lat="42.907690751793304" lon="11.76402834376302"><ele>742.0</ele><time>2026-04-22T08:02:42.999Z</time></trkpt><trkpt lat="42.90751930807613" lon="11.76402167119236"><ele>744.0</ele><time>2026-04-22T08:02:43.999Z</time></trkpt><trkpt lat="42.90735192047244" lon="11.764019703176105"><ele>746.0</ele><time>2026-04-22T08:02:44.999Z</time></trkpt><trkpt lat="42.907187727542045" lon="11.764010282516"><ele>746.0</ele><time>2026-04-22T08:02:45.999Z</time></trkpt><trkpt lat="42.90702644647424" lon="11.764001594447938"><ele>746.0</ele><time>2026-04-22T08:02:46.999Z</time></trkpt><trkpt lat="42.90686359637212" lon="11.764001597388875"><ele>746.0</ele><time>2026-04-22T08:02:47.999Z</time></trkpt><trkpt lat="42.906701019621394" lon="11.764014702926017"><ele>748.3333333333333</ele><time>2026-04-22T08:02:48.999Z</time></trkpt><trkpt lat="42.90653879497028" lon="11.764049298551443"><ele>750.6666666666666</ele><time>2026-04-22T08:02:49.999Z</time></trkpt><trkpt lat="42.906372435186896" lon="11.764078742462086"><ele>753.0</ele><time>2026-04-22T08:02:50.999Z</time></trkpt><trkpt lat="42.90620334560235" lon="11.764129062769825"><ele>753.0</ele><time>2026-04-22T08:02:51.999Z</time></trkpt><trkpt lat="42.90603333310174" lon="11.764181622092783"><ele>753.0</ele><time>2026-04-22T08:02:52.999Z</time></trkpt><trkpt lat="42.90586215692932" lon="11.76425732966185"><ele>753.0</ele><time>2026-04-22T08:02:53.999Z</time></trkpt><trkpt lat="42.905689522191565" lon="11.764314486650314"><ele>755.0</ele><time>2026-04-22T08:02:54.999Z</time></trkpt><trkpt lat="42.90551886249911" lon="11.764381493794994"><ele>757.0</ele><time>2026-04-22T08:02:55.999Z</time></trkpt><trkpt lat="42.90535817051539" lon="11.76445831769692"><ele>759.0</ele><time>2026-04-22T08:02:56.999Z</time></trkpt><trkpt lat="42.905214958724464" lon="11.764533821896801"><ele>758.75</ele><time>2026-04-22T08:02:57.999Z</time></trkpt><trkpt lat="42.90507734485851" lon="11.7645988631205"><ele>758.5</ele><time>2026-04-22T08:02:58.999Z</time></trkpt><trkpt lat="42.90497814073093" lon="11.76472851744014"><ele>758.25</ele><time>2026-04-22T08:02:59.999Z</time></trkpt><trkpt lat="42.90489242943277" lon="11.764870054997376"><ele>758.0</ele><time>2026-04-22T08:03:00.999Z</time></trkpt><trkpt lat="42.90482779278609" lon="11.765034914895008"><ele>759.75</ele><time>2026-04-22T08:03:01.999Z</time></trkpt><trkpt lat="42.9047816155665" lon="11.76521283963627"><ele>761.5</ele><time>2026-04-22T08:03:02.999Z</time></trkpt><trkpt lat="42.90472355894884" lon="11.7653949053504"><ele>763.25</ele><time>2026-04-22T08:03:03.999Z</time></trkpt><trkpt lat="42.90467726219023" lon="11.765588460835183"><ele>765.0</ele><time>2026-04-22T08:03:04.999Z</time></trkpt><trkpt lat="42.904640023993416" lon="11.765771161365532"><ele>765.0</ele><time>2026-04-22T08:03:05.999Z</time></trkpt><trkpt lat="42.90457608345258" lon="11.7659180251229"><ele>765.0</ele><time>2026-04-22T08:03:06.999Z</time></trkpt><trkpt lat="42.904490580745026" lon="11.766020315176375"><ele>765.0</ele><time>2026-04-22T08:03:07.999Z</time></trkpt><trkpt lat="42.90438915367271" lon="11.766099570447363"><ele>765.0</ele><time>2026-04-22T08:03:08.999Z</time></trkpt><trkpt lat="42.90427031259442" lon="11.766140188075363"><ele>765.25</ele><time>2026-04-22T08:03:09.999Z</time></trkpt><trkpt lat="42.90415204717238" lon="11.766113727868023"><ele>765.5</ele><time>2026-04-22T08:03:10.999Z</time></trkpt><trkpt lat="42.90403872971425" lon="11.766063912134399"><ele>765.75</ele><time>2026-04-22T08:03:11.999Z</time></trkpt><trkpt lat="42.90392022417325" lon="11.765978992172569"><ele>766.0</ele><time>2026-04-22T08:03:12.999Z</time></trkpt><trkpt lat="42.90377841594451" lon="11.765899261786771"><ele>766.6666666666667</ele><time>2026-04-22T08:03:13.999Z</time></trkpt><trkpt lat="42.90363907272124" lon="11.765795182702911"><ele>767.3333333333334</ele><time>2026-04-22T08:03:14.999Z</time></trkpt><trkpt lat="42.9035006262761" lon="11.76569585007964"><ele>768.0</ele><time>2026-04-22T08:03:15.999Z</time></trkpt><trkpt lat="42.903358727865516" lon="11.765591082385418"><ele>768.0</ele><time>2026-04-22T08:03:16.999Z</time></trkpt><trkpt lat="42.90320826291555" lon="11.765479020386273"><ele>768.0</ele><time>2026-04-22T08:03:17.999Z</time></trkpt><trkpt lat="42.9030629208409" lon="11.765368769643386"><ele>768.0</ele><time>2026-04-22T08:03:18.999Z</time></trkpt><trkpt lat="42.90290723466878" lon="11.765263267412644"><ele>768.6666666666667</ele><time>2026-04-22T08:03:19.999Z</time></trkpt><trkpt lat="42.90273907223229" lon="11.76517326400354"><ele>769.3333333333334</ele><time>2026-04-22T08:03:20.999Z</time></trkpt><trkpt lat="42.902568043895506" lon="11.765099276162136"><ele>770.0</ele><time>2026-04-22T08:03:21.999Z</time></trkpt><trkpt lat="42.90238853972479" lon="11.765028004351327"><ele>770.0</ele><time>2026-04-22T08:03:22.999Z</time></trkpt><trkpt lat="42.902211875725236" lon="11.76496133538602"><ele>770.0</ele><time>2026-04-22T08:03:23.999Z</time></trkpt><trkpt lat="42.90204842682628" lon="11.764899112819243"><ele>770.0</ele><time>2026-04-22T08:03:24.999Z</time></trkpt><trkpt lat="42.901898243180035" lon="11.764822537481072"><ele>770.0</ele><time>2026-04-22T08:03:25.999Z</time></trkpt><trkpt lat="42.90177527415906" lon="11.764707482095979"><ele>770.0</ele><time>2026-04-22T08:03:26.999Z</time></trkpt><trkpt lat="42.901658796615834" lon="11.7645723316291"><ele>770.0</ele><time>2026-04-22T08:03:27.999Z</time></trkpt><trkpt lat="42.90154337919506" lon="11.764432363638463"><ele>770.6666666666667</ele><time>2026-04-22T08:03:28.999Z</time></trkpt><trkpt lat="42.90144701857867" lon="11.76426139703926"><ele>771.3333333333333</ele><time>2026-04-22T08:03:29.999Z</time></trkpt><trkpt lat="42.90134863039885" lon="11.764087315144055"><ele>772.0</ele><time>2026-04-22T08:03:30.999Z</time></trkpt><trkpt lat="42.90123958269836" lon="11.7639196533706"><ele>772.0</ele><time>2026-04-22T08:03:31.999Z</time></trkpt><trkpt lat="42.90113349970015" lon="11.76375044155963"><ele>772.0</ele><time>2026-04-22T08:03:32.999Z</time></trkpt><trkpt lat="42.90103324979331" lon="11.763588672777908"><ele>772.0</ele><time>2026-04-22T08:03:33.999Z</time></trkpt><trkpt lat="42.90093093243458" lon="11.763448175943115"><ele>772.6666666666666</ele><time>2026-04-22T08:03:34.999Z</time></trkpt><trkpt lat="42.90080733950855" lon="11.763336997377474"><ele>773.3333333333333</ele><time>2026-04-22T08:03:35.999Z</time></trkpt><trkpt lat="42.90066619062964" lon="11.763260616826123"><ele>774.0</ele><time>2026-04-22T08:03:36.999Z</time></trkpt><trkpt lat="42.90050400071737" lon="11.763234053106087"><ele>774.0</ele><time>2026-04-22T08:03:37.999Z</time></trkpt><trkpt lat="42.90034740041731" lon="11.763213562889991"><ele>774.0</ele><time>2026-04-22T08:03:38.999Z</time></trkpt><trkpt lat="42.90018029502764" lon="11.763196617569841"><ele>774.0</ele><time>2026-04-22T08:03:39.999Z</time></trkpt><trkpt lat="42.90000894776494" lon="11.763176597267735"><ele>774.0</ele><time>2026-04-22T08:03:40.999Z</time></trkpt><trkpt lat="42.899837725010215" lon="11.763156301008063"><ele>774.0</ele><time>2026-04-22T08:03:41.999Z</time></trkpt><trkpt lat="42.89966592412268" lon="11.763134651228656"><ele>774.0</ele><time>2026-04-22T08:03:42.999Z</time></trkpt><trkpt lat="42.89948822883281" lon="11.763115526263842"><ele>774.0</ele><time>2026-04-22T08:03:43.999Z</time></trkpt><trkpt lat="42.899308792167254" lon="11.763091176033734"><ele>774.0</ele><time>2026-04-22T08:03:44.999Z</time></trkpt><trkpt lat="42.89913487337091" lon="11.763067671529857"><ele>774.0</ele><time>2026-04-22T08:03:45.999Z</time></trkpt><trkpt lat="42.89895969664422" lon="11.763052136661734"><ele>774.0</ele><time>2026-04-22T08:03:46.999Z</time></trkpt><trkpt lat="42.89878668501635" lon="11.76303590106141"><ele>774.0</ele><time>2026-04-22T08:03:47.999Z</time></trkpt><trkpt lat="42.89862063595781" lon="11.763012593913906"><ele>774.0</ele><time>2026-04-22T08:03:48.999Z</time></trkpt><trkpt lat="42.898453840997014" lon="11.762989064694212"><ele>773.3333333333333</ele><time>2026-04-22T08:03:49.999Z</time></trkpt><trkpt lat="42.89829157649531" lon="11.762969002549246"><ele>772.6666666666666</ele><time>2026-04-22T08:03:50.999Z</time></trkpt><trkpt lat="42.89813663470391" lon="11.762948511737061"><ele>772.0</ele><time>2026-04-22T08:03:51.999Z</time></trkpt><trkpt lat="42.89798483734798" lon="11.762931264217665"><ele>772.0</ele><time>2026-04-22T08:03:52.999Z</time></trkpt><trkpt lat="42.89783501584227" lon="11.762915108450157"><ele>772.0</ele><time>2026-04-22T08:03:53.999Z</time></trkpt><trkpt lat="42.897683992893676" lon="11.762900725517628"><ele>772.0</ele><time>2026-04-22T08:03:54.999Z</time></trkpt><trkpt lat="42.89753522666404" lon="11.76288162722123"><ele>770.5</ele><time>2026-04-22T08:03:55.999Z</time></trkpt><trkpt lat="42.897393806104475" lon="11.762878788866564"><ele>769.0</ele><time>2026-04-22T08:03:56.999Z</time></trkpt><trkpt lat="42.89726112001761" lon="11.76290234563966"><ele>767.5</ele><time>2026-04-22T08:03:57.999Z</time></trkpt><trkpt lat="42.89713237119512" lon="11.76295624787897"><ele>766.0</ele><time>2026-04-22T08:03:58.999Z</time></trkpt><trkpt lat="42.89700605369359" lon="11.763036443204081"><ele>766.0</ele><time>2026-04-22T08:03:59.999Z</time></trkpt><trkpt lat="42.896879914723534" lon="11.763143259195816"><ele>766.0</ele><time>2026-04-22T08:04:00.999Z</time></trkpt><trkpt lat="42.896742005309804" lon="11.76325346964657"><ele>766.0</ele><time>2026-04-22T08:04:01.999Z</time></trkpt><trkpt lat="42.89660105634774" lon="11.763363083291724"><ele>765.0</ele><time>2026-04-22T08:04:02.999Z</time></trkpt><trkpt lat="42.8964570485023" lon="11.763475110828328"><ele>764.0</ele><time>2026-04-22T08:04:03.999Z</time></trkpt><trkpt lat="42.896310014106675" lon="11.763591530292699"><ele>763.0</ele><time>2026-04-22T08:04:05Z</time></trkpt><trkpt lat="42.89616471331478" lon="11.763707176638317"><ele>763.0</ele><time>2026-04-22T08:04:06Z</time></trkpt><trkpt lat="42.89601000083447" lon="11.763803828950529"><ele>763.0</ele><time>2026-04-22T08:04:07Z</time></trkpt><trkpt lat="42.89586301732663" lon="11.763918112433233"><ele>763.0</ele><time>2026-04-22T08:04:08Z</time></trkpt><trkpt lat="42.89571686146813" lon="11.764031752396797"><ele>758.6666666666667</ele><time>2026-04-22T08:04:09Z</time></trkpt><trkpt lat="42.89558197226681" lon="11.7641614036247"><ele>754.3333333333334</ele><time>2026-04-22T08:04:10Z</time></trkpt><trkpt lat="42.895449507066374" lon="11.76426487775015"><ele>750.0</ele><time>2026-04-22T08:04:11Z</time></trkpt><trkpt lat="42.89531633525942" lon="11.764357415094365"><ele>750.25</ele><time>2026-04-22T08:04:12Z</time></trkpt><trkpt lat="42.895192402362106" lon="11.764459808830381"><ele>750.5</ele><time>2026-04-22T08:04:13Z</time></trkpt><trkpt lat="42.895064996219695" lon="11.764560904455085"><ele>750.75</ele><time>2026-04-22T08:04:14Z</time></trkpt><trkpt lat="42.89493243105579" lon="11.764663685489179"><ele>751.0</ele><time>2026-04-22T08:04:15Z</time></trkpt><trkpt lat="42.89479801449029" lon="11.76476468869843"><ele>751.0</ele><time>2026-04-22T08:04:16Z</time></trkpt><trkpt lat="42.89465647884628" lon="11.764869462008216"><ele>751.0</ele><time>2026-04-22T08:04:17Z</time></trkpt><trkpt lat="42.894508207862806" lon="11.764964751381115"><ele>751.0</ele><time>2026-04-22T08:04:18Z</time></trkpt><trkpt lat="42.89435296251608" lon="11.765052042554116"><ele>748.5</ele><time>2026-04-22T08:04:19Z</time></trkpt><trkpt lat="42.89420347203473" lon="11.7651328622474"><ele>746.0</ele><time>2026-04-22T08:04:20Z</time></trkpt><trkpt lat="42.89406481537636" lon="11.765211932404897"><ele>743.5</ele><time>2026-04-22T08:04:21Z</time></trkpt><trkpt lat="42.89394669096972" lon="11.765303312626742"><ele>741.0</ele><time>2026-04-22T08:04:22Z</time></trkpt><trkpt lat="42.89384340490444" lon="11.765408422486916"><ele>741.0</ele><time>2026-04-22T08:04:23Z</time></trkpt><trkpt lat="42.893762759994836" lon="11.765542571335185"><ele>741.0</ele><time>2026-04-22T08:04:24Z</time></trkpt><trkpt lat="42.89370988515121" lon="11.765702506107829"><ele>741.0</ele><time>2026-04-22T08:04:25Z</time></trkpt><trkpt lat="42.89369405081278" lon="11.7658919058083"><ele>741.0</ele><time>2026-04-22T08:04:26Z</time></trkpt><trkpt lat="42.89369344207232" lon="11.766086935048099"><ele>740.6666666666666</ele><time>2026-04-22T08:04:27Z</time></trkpt><trkpt lat="42.89371597171117" lon="11.766286431215896"><ele>740.3333333333333</ele><time>2026-04-22T08:04:28Z</time></trkpt><trkpt lat="42.89374961153952" lon="11.766491183178939"><ele>740.0</ele><time>2026-04-22T08:04:29Z</time></trkpt><trkpt lat="42.89378106179733" lon="11.766703314674348"><ele>739.3333333333333</ele><time>2026-04-22T08:04:30Z</time></trkpt><trkpt lat="42.89381106870278" lon="11.766924245590747"><ele>738.6666666666666</ele><time>2026-04-22T08:04:31Z</time></trkpt><trkpt lat="42.89384204774454" lon="11.767154211874798"><ele>738.0</ele><time>2026-04-22T08:04:32Z</time></trkpt><trkpt lat="42.893867586441246" lon="11.767368855365554"><ele>738.0</ele><time>2026-04-22T08:04:33Z</time></trkpt><trkpt lat="42.8938835151132" lon="11.76757511128667"><ele>738.0</ele><time>2026-04-22T08:04:34Z</time></trkpt><trkpt lat="42.893881403313614" lon="11.767773441189268"><ele>738.0</ele><time>2026-04-22T08:04:35Z</time></trkpt><trkpt lat="42.89383928530326" lon="11.767955065779308"><ele>738.0</ele><time>2026-04-22T08:04:36Z</time></trkpt><trkpt lat="42.893799403742754" lon="11.768128167411945"><ele>737.3333333333334</ele><time>2026-04-22T08:04:37Z</time></trkpt><trkpt lat="42.89377199620659" lon="11.768321809122835"><ele>736.6666666666667</ele><time>2026-04-22T08:04:38Z</time></trkpt><trkpt lat="42.893728956934204" lon="11.76852476040793"><ele>736.0</ele><time>2026-04-22T08:04:39Z</time></trkpt><trkpt lat="42.89368560504688" lon="11.768730091046757"><ele>736.0</ele><time>2026-04-22T08:04:40Z</time></trkpt><trkpt lat="42.89364156798323" lon="11.768928445329918"><ele>736.0</ele><time>2026-04-22T08:04:41Z</time></trkpt><trkpt lat="42.89360243953759" lon="11.769117861396149"><ele>736.0</ele><time>2026-04-22T08:04:42Z</time></trkpt><trkpt lat="42.89356788406641" lon="11.769298019837242"><ele>736.0</ele><time>2026-04-22T08:04:43Z</time></trkpt><trkpt lat="42.89354048003015" lon="11.769464181945988"><ele>735.0</ele><time>2026-04-22T08:04:44Z</time></trkpt><trkpt lat="42.893534279606904" lon="11.769626763852761"><ele>734.0</ele><time>2026-04-22T08:04:45Z</time></trkpt><trkpt lat="42.8935539396413" lon="11.769780895358263"><ele>733.0</ele><time>2026-04-22T08:04:46Z</time></trkpt><trkpt lat="42.893577209651404" lon="11.769941701650737"><ele>732.0</ele><time>2026-04-22T08:04:47Z</time></trkpt><trkpt lat="42.89365681443767" lon="11.770083654292415"><ele>730.25</ele><time>2026-04-22T08:04:48Z</time></trkpt><trkpt lat="42.893734838991634" lon="11.7702355255415"><ele>728.5</ele><time>2026-04-22T08:04:49Z</time></trkpt><trkpt lat="42.89381736780604" lon="11.7703921121373"><ele>726.75</ele><time>2026-04-22T08:04:50Z</time></trkpt><trkpt lat="42.89390402649972" lon="11.770558231536407"><ele>725.0</ele><time>2026-04-22T08:04:51Z</time></trkpt><trkpt lat="42.89398717839646" lon="11.770730478779527"><ele>725.0</ele><time>2026-04-22T08:04:52Z</time></trkpt><trkpt lat="42.89406336526099" lon="11.770916349256872"><ele>725.0</ele><time>2026-04-22T08:04:53Z</time></trkpt><trkpt lat="42.89412969806483" lon="11.771115217118824"><ele>725.0</ele><time>2026-04-22T08:04:54Z</time></trkpt><trkpt lat="42.894241697320254" lon="11.771525525807629"><ele>726.6666666666666</ele><time>2026-04-22T08:04:56Z</time></trkpt><trkpt lat="42.89429893281704" lon="11.771736704733128"><ele>728.3333333333334</ele><time>2026-04-22T08:04:57Z</time></trkpt><trkpt lat="42.894362227585496" lon="11.771953073250039"><ele>730.0</ele><time>2026-04-22T08:04:58Z</time></trkpt><trkpt lat="42.89442929722619" lon="11.772168681141641"><ele>730.0</ele><time>2026-04-22T08:04:59Z</time></trkpt><trkpt lat="42.894479424079" lon="11.772396989688694"><ele>730.0</ele><time>2026-04-22T08:05:00Z</time></trkpt><trkpt lat="42.89455048079153" lon="11.772619818728172"><ele>730.0</ele><time>2026-04-22T08:05:01Z</time></trkpt><trkpt lat="42.894637701018816" lon="11.77282325104738"><ele>728.0</ele><time>2026-04-22T08:05:01.999Z</time></trkpt><trkpt lat="42.89470662463791" lon="11.773019539530598"><ele>726.0</ele><time>2026-04-22T08:05:02.999Z</time></trkpt><trkpt lat="42.8947731808831" lon="11.773201787212177"><ele>724.0</ele><time>2026-04-22T08:05:03.999Z</time></trkpt><trkpt lat="42.89483974399852" lon="11.773374605935857"><ele>724.25</ele><time>2026-04-22T08:05:04.999Z</time></trkpt><trkpt lat="42.8948985326735" lon="11.77354196781125"><ele>724.5</ele><time>2026-04-22T08:05:05.999Z</time></trkpt><trkpt lat="42.89492957953272" lon="11.773712169443527"><ele>724.75</ele><time>2026-04-22T08:05:06.999Z</time></trkpt><trkpt lat="42.894928075558354" lon="11.773880717981918"><ele>725.0</ele><time>2026-04-22T08:05:07.999Z</time></trkpt><trkpt lat="42.89489200509462" lon="11.774032930213147"><ele>725.0</ele><time>2026-04-22T08:05:08.999Z</time></trkpt><trkpt lat="42.89481053577026" lon="11.774151196836337"><ele>725.0</ele><time>2026-04-22T08:05:09.999Z</time></trkpt><trkpt lat="42.89472125442255" lon="11.774270144438335"><ele>725.0</ele><time>2026-04-22T08:05:10.999Z</time></trkpt><trkpt lat="42.894636665876774" lon="11.774408090296255"><ele>725.0</ele><time>2026-04-22T08:05:11.999Z</time></trkpt><trkpt lat="42.894550091857404" lon="11.774525789422345"><ele>725.8</ele><time>2026-04-22T08:05:12.999Z</time></trkpt><trkpt lat="42.894470501412286" lon="11.774642133728323"><ele>726.6</ele><time>2026-04-22T08:05:13.999Z</time></trkpt><trkpt lat="42.89439156957717" lon="11.774750003910766"><ele>727.4000000000001</ele><time>2026-04-22T08:05:14.999Z</time></trkpt><trkpt lat="42.89431173437825" lon="11.774833377981148"><ele>728.2</ele><time>2026-04-22T08:05:15.999Z</time></trkpt><trkpt lat="42.89422884519815" lon="11.774891327116363"><ele>729.0</ele><time>2026-04-22T08:05:16.999Z</time></trkpt><trkpt lat="42.89414093056213" lon="11.7749276022877"><ele>726.6</ele><time>2026-04-22T08:05:17.999Z</time></trkpt><trkpt lat="42.89404661559188" lon="11.774942811984763"><ele>724.2</ele><time>2026-04-22T08:05:18.999Z</time></trkpt><trkpt lat="42.893942831514906" lon="11.774960062715119"><ele>721.8000000000001</ele><time>2026-04-22T08:05:19.999Z</time></trkpt><trkpt lat="42.89383430799616" lon="11.774991103620382"><ele>719.4000000000001</ele><time>2026-04-22T08:05:20.999Z</time></trkpt><trkpt lat="42.893721173079584" lon="11.775032917302113"><ele>717.0</ele><time>2026-04-22T08:05:21.999Z</time></trkpt><trkpt lat="42.89360195341235" lon="11.775095860099182"><ele>717.0</ele><time>2026-04-22T08:05:22.999Z</time></trkpt><trkpt lat="42.89347815797462" lon="11.775171302641327"><ele>717.0</ele><time>2026-04-22T08:05:23.999Z</time></trkpt><trkpt lat="42.893353247674916" lon="11.775251021884538"><ele>717.0</ele><time>2026-04-22T08:05:24.999Z</time></trkpt><trkpt lat="42.89323102793171" lon="11.775326997561743"><ele>717.0</ele><time>2026-04-22T08:05:25.999Z</time></trkpt><trkpt lat="42.89311763771916" lon="11.775392233299772"><ele>716.5</ele><time>2026-04-22T08:05:26.999Z</time></trkpt><trkpt lat="42.89301714972562" lon="11.775409542915638"><ele>716.0</ele><time>2026-04-22T08:05:27.999Z</time></trkpt><trkpt lat="42.89294405329441" lon="11.775422635089983"><ele>715.5</ele><time>2026-04-22T08:05:28.999Z</time></trkpt><trkpt lat="42.892876527578146" lon="11.775420553651943"><ele>715.0</ele><time>2026-04-22T08:05:29.999Z</time></trkpt><trkpt lat="42.892775156757104" lon="11.775476340860466"><ele>714.5</ele><time>2026-04-22T08:05:30.999Z</time></trkpt><trkpt lat="42.892720470436636" lon="11.775536990233682"><ele>714.0</ele><time>2026-04-22T08:05:31.999Z</time></trkpt><trkpt lat="42.89265415542888" lon="11.775603149447512"><ele>712.1666666666666</ele><time>2026-04-22T08:05:32.999Z</time></trkpt><trkpt lat="42.89258489058144" lon="11.775672885567452"><ele>710.3333333333334</ele><time>2026-04-22T08:05:33.999Z</time></trkpt><trkpt lat="42.89251619333868" lon="11.77574347129863"><ele>708.5</ele><time>2026-04-22T08:05:34.999Z</time></trkpt><trkpt lat="42.89243914347665" lon="11.775825571339677"><ele>706.6666666666667</ele><time>2026-04-22T08:05:35.999Z</time></trkpt><trkpt lat="42.892375013252526" lon="11.775896731493503"><ele>704.8333333333334</ele><time>2026-04-22T08:05:36.999Z</time></trkpt><trkpt lat="42.89230482209177" lon="11.775976550141458"><ele>703.0</ele><time>2026-04-22T08:05:37.999Z</time></trkpt><trkpt lat="42.89223832849427" lon="11.776053042482156"><ele>703.0</ele><time>2026-04-22T08:05:38.999Z</time></trkpt><trkpt lat="42.89216826955912" lon="11.776134007487663"><ele>703.0</ele><time>2026-04-22T08:05:39.999Z</time></trkpt><trkpt lat="42.892100551065454" lon="11.776214744557087"><ele>703.0</ele><time>2026-04-22T08:05:40.999Z</time></trkpt><trkpt lat="42.89203492339599" lon="11.776292926389427"><ele>703.0</ele><time>2026-04-22T08:05:41.999Z</time></trkpt><trkpt lat="42.89197212965031" lon="11.77636730471095"><ele>703.0</ele><time>2026-04-22T08:05:42.999Z</time></trkpt><trkpt lat="42.89191271803346" lon="11.776437056163298"><ele>703.0</ele><time>2026-04-22T08:05:43.999Z</time></trkpt><trkpt lat="42.891858727815794" lon="11.776522586074137"><ele>703.0</ele><time>2026-04-22T08:05:44.999Z</time></trkpt><trkpt lat="42.8917994803784" lon="11.7765621242508"><ele>703.0</ele><time>2026-04-22T08:05:45.999Z</time></trkpt><trkpt lat="42.891749898156576" lon="11.776638596278767"><ele>703.0</ele><time>2026-04-22T08:05:47.999Z</time></trkpt><trkpt lat="42.891663307603466" lon="11.776699879330943"><ele>703.0</ele><time>2026-04-22T08:06:32Z</time></trkpt><trkpt lat="42.89157330112842" lon="11.77680718389471"><ele>703.0</ele><time>2026-04-22T08:06:34Z</time></trkpt><trkpt lat="42.89151895374516" lon="11.776854451527436"><ele>703.0</ele><time>2026-04-22T08:06:35Z</time></trkpt><trkpt lat="42.89145592119342" lon="11.776895825003646"><ele>701.2</ele><time>2026-04-22T08:06:36Z</time></trkpt><trkpt lat="42.891379489241594" lon="11.776947976941743"><ele>699.4</ele><time>2026-04-22T08:06:37Z</time></trkpt><trkpt lat="42.891287701620094" lon="11.776997080096946"><ele>697.6</ele><time>2026-04-22T08:06:38Z</time></trkpt><trkpt lat="42.891191029878314" lon="11.777030307825825"><ele>695.8000000000001</ele><time>2026-04-22T08:06:39Z</time></trkpt><trkpt lat="42.891097208979396" lon="11.777074758535878"><ele>694.0</ele><time>2026-04-22T08:06:40Z</time></trkpt><trkpt lat="42.89100422619193" lon="11.777118761336062"><ele>691.6</ele><time>2026-04-22T08:06:41Z</time></trkpt><trkpt lat="42.89090796902289" lon="11.77716172714126"><ele>689.2</ele><time>2026-04-22T08:06:42Z</time></trkpt><trkpt lat="42.89081734128772" lon="11.777199060772391"><ele>686.8000000000001</ele><time>2026-04-22T08:06:43Z</time></trkpt><trkpt lat="42.89071983336145" lon="11.777234156478839"><ele>684.4000000000001</ele><time>2026-04-22T08:06:44Z</time></trkpt><trkpt lat="42.890618764314" lon="11.777274509182906"><ele>682.0</ele><time>2026-04-22T08:06:45Z</time></trkpt><trkpt lat="42.89052956205571" lon="11.777316530439059"><ele>682.0</ele><time>2026-04-22T08:06:46Z</time></trkpt><trkpt lat="42.89043688852912" lon="11.777363255983781"><ele>682.0</ele><time>2026-04-22T08:06:47Z</time></trkpt><trkpt lat="42.89034574797227" lon="11.777418388576539"><ele>682.0</ele><time>2026-04-22T08:06:48Z</time></trkpt><trkpt lat="42.89025520615511" lon="11.77748754004472"><ele>682.0</ele><time>2026-04-22T08:06:49Z</time></trkpt><trkpt lat="42.8901681056291" lon="11.777555893343612"><ele>682.0</ele><time>2026-04-22T08:06:50Z</time></trkpt><trkpt lat="42.890092710242286" lon="11.777614174472536"><ele>680.0</ele><time>2026-04-22T08:06:51Z</time></trkpt><trkpt lat="42.88999669456924" lon="11.7776773088745"><ele>678.0</ele><time>2026-04-22T08:06:52Z</time></trkpt><trkpt lat="42.889894872000504" lon="11.777740755032994"><ele>676.0</ele><time>2026-04-22T08:06:53Z</time></trkpt><trkpt lat="42.88980050112691" lon="11.777833307402087"><ele>674.0</ele><time>2026-04-22T08:06:54Z</time></trkpt><trkpt lat="42.88970174261514" lon="11.777903200231536"><ele>672.0</ele><time>2026-04-22T08:06:55Z</time></trkpt><trkpt lat="42.8896098679988" lon="11.77797630483742"><ele>672.0</ele><time>2026-04-22T08:06:56Z</time></trkpt><trkpt lat="42.889513451052494" lon="11.778045064563793"><ele>672.0</ele><time>2026-04-22T08:06:57Z</time></trkpt><trkpt lat="42.88940003788702" lon="11.77810555845367"><ele>672.0</ele><time>2026-04-22T08:06:58Z</time></trkpt><trkpt lat="42.889292712385206" lon="11.778186685959648"><ele>672.0</ele><time>2026-04-22T08:06:59Z</time></trkpt><trkpt lat="42.889181017282915" lon="11.778278636920573"><ele>668.25</ele><time>2026-04-22T08:07:00Z</time></trkpt><trkpt lat="42.88906841182608" lon="11.77837343250479"><ele>664.5</ele><time>2026-04-22T08:07:01Z</time></trkpt><trkpt lat="42.88895275467096" lon="11.778470798618157"><ele>660.75</ele><time>2026-04-22T08:07:02Z</time></trkpt><trkpt lat="42.88884631669369" lon="11.778579765794882"><ele>657.0</ele><time>2026-04-22T08:07:03Z</time></trkpt><trkpt lat="42.88873077631332" lon="11.778667450536014"><ele>657.0</ele><time>2026-04-22T08:07:04Z</time></trkpt><trkpt lat="42.888615519797284" lon="11.778757941089165"><ele>657.0</ele><time>2026-04-22T08:07:05Z</time></trkpt><trkpt lat="42.88849813458442" lon="11.778843727093152"><ele>657.0</ele><time>2026-04-22T08:07:06Z</time></trkpt><trkpt lat="42.8883849421123" lon="11.77893541941037"><ele>657.0</ele><time>2026-04-22T08:07:07Z</time></trkpt><trkpt lat="42.88827105375339" lon="11.77902100717095"><ele>654.5</ele><time>2026-04-22T08:07:08Z</time></trkpt><trkpt lat="42.88815797445699" lon="11.779116221423909"><ele>652.0</ele><time>2026-04-22T08:07:09Z</time></trkpt><trkpt lat="42.88803806572947" lon="11.779204830634667"><ele>649.5</ele><time>2026-04-22T08:07:10Z</time></trkpt><trkpt lat="42.88791561919368" lon="11.779296361069546"><ele>647.0</ele><time>2026-04-22T08:07:11Z</time></trkpt><trkpt lat="42.88780069199174" lon="11.779384086492225"><ele>647.0</ele><time>2026-04-22T08:07:11.999Z</time></trkpt><trkpt lat="42.88767883632145" lon="11.779455138400456"><ele>647.0</ele><time>2026-04-22T08:07:12.999Z</time></trkpt><trkpt lat="42.88755413747154" lon="11.779500624131678"><ele>647.0</ele><time>2026-04-22T08:07:13.999Z</time></trkpt><trkpt lat="42.88741769642939" lon="11.77950155957363"><ele>647.0</ele><time>2026-04-22T08:07:14.999Z</time></trkpt><trkpt lat="42.88729046499732" lon="11.7795034044495"><ele>644.75</ele><time>2026-04-22T08:07:15.999Z</time></trkpt><trkpt lat="42.88716560007325" lon="11.779498608628844"><ele>642.5</ele><time>2026-04-22T08:07:16.999Z</time></trkpt><trkpt lat="42.8870416380118" lon="11.77950500585031"><ele>640.25</ele><time>2026-04-22T08:07:17.999Z</time></trkpt><trkpt lat="42.886918374350394" lon="11.77949857407175"><ele>638.0</ele><time>2026-04-22T08:07:18.999Z</time></trkpt><trkpt lat="42.886789420696715" lon="11.779491628125017"><ele>636.0</ele><time>2026-04-22T08:07:19.999Z</time></trkpt><trkpt lat="42.88666117310108" lon="11.77951903316661"><ele>634.0</ele><time>2026-04-22T08:07:20.999Z</time></trkpt><trkpt lat="42.88653146799428" lon="11.779557531907155"><ele>632.0</ele><time>2026-04-22T08:07:21.999Z</time></trkpt><trkpt lat="42.88641101955013" lon="11.779583101860263"><ele>630.0</ele><time>2026-04-22T08:07:22.999Z</time></trkpt><trkpt lat="42.88628003133725" lon="11.779620998235172"><ele>630.0</ele><time>2026-04-22T08:07:23.999Z</time></trkpt><trkpt lat="42.88614827960205" lon="11.779679583462741"><ele>630.0</ele><time>2026-04-22T08:07:24.999Z</time></trkpt><trkpt lat="42.88602480698963" lon="11.779723279799015"><ele>630.0</ele><time>2026-04-22T08:07:25.999Z</time></trkpt><trkpt lat="42.8858819728523" lon="11.779756929121245"><ele>630.0</ele><time>2026-04-22T08:07:26.999Z</time></trkpt><trkpt lat="42.88574593079979" lon="11.7798171619499"><ele>627.0</ele><time>2026-04-22T08:07:27.999Z</time></trkpt><trkpt lat="42.88561037455961" lon="11.779866598844535"><ele>624.0</ele><time>2026-04-22T08:07:28.999Z</time></trkpt><trkpt lat="42.88547810595406" lon="11.77990826047"><ele>621.0</ele><time>2026-04-22T08:07:29.999Z</time></trkpt><trkpt lat="42.885343723413854" lon="11.779946280671668"><ele>618.0</ele><time>2026-04-22T08:07:30.999Z</time></trkpt><trkpt lat="42.88521794624261" lon="11.779973947647834"><ele>615.0</ele><time>2026-04-22T08:07:31.999Z</time></trkpt><trkpt lat="42.88509119730877" lon="11.779987434510911"><ele>612.0</ele><time>2026-04-22T08:07:32.999Z</time></trkpt><trkpt lat="42.88482199000021" lon="11.78001283965588"><ele>609.0</ele><time>2026-04-22T08:07:34.999Z</time></trkpt><trkpt lat="42.884675801597496" lon="11.78003999971307"><ele>609.0</ele><time>2026-04-22T08:07:35.999Z</time></trkpt><trkpt lat="42.88452291866566" lon="11.780059594871242"><ele>609.0</ele><time>2026-04-22T08:07:36.999Z</time></trkpt><trkpt lat="42.88436731722859" lon="11.780069151408535"><ele>609.0</ele><time>2026-04-22T08:07:37.999Z</time></trkpt><trkpt lat="42.8842049845219" lon="11.780083825402977"><ele>607.6666666666666</ele><time>2026-04-22T08:07:38.999Z</time></trkpt><trkpt lat="42.884042310966436" lon="11.78010662728479"><ele>606.3333333333333</ele><time>2026-04-22T08:07:39.999Z</time></trkpt><trkpt lat="42.883888830128186" lon="11.78012707278855"><ele>605.0</ele><time>2026-04-22T08:07:40.999Z</time></trkpt><trkpt lat="42.883740059816375" lon="11.780159063750764"><ele>603.5</ele><time>2026-04-22T08:07:41.999Z</time></trkpt><trkpt lat="42.883606571407434" lon="11.780204394319561"><ele>602.0</ele><time>2026-04-22T08:07:42.999Z</time></trkpt><trkpt lat="42.88349175586296" lon="11.780261064941211"><ele>600.5</ele><time>2026-04-22T08:07:43.999Z</time></trkpt><trkpt lat="42.88338398410369" lon="11.780329506152878"><ele>599.0</ele><time>2026-04-22T08:07:44.999Z</time></trkpt><trkpt lat="42.88327443716052" lon="11.780409976919318"><ele>598.25</ele><time>2026-04-22T08:07:45.999Z</time></trkpt><trkpt lat="42.88315451460915" lon="11.780495711547022"><ele>597.5</ele><time>2026-04-22T08:07:46.999Z</time></trkpt><trkpt lat="42.88303751913556" lon="11.780572687248833"><ele>596.75</ele><time>2026-04-22T08:07:47.999Z</time></trkpt><trkpt lat="42.88292605689041" lon="11.780651024941408"><ele>596.0</ele><time>2026-04-22T08:07:48.999Z</time></trkpt><trkpt lat="42.882819019588695" lon="11.780724104572734"><ele>596.0</ele><time>2026-04-22T08:07:49.999Z</time></trkpt><trkpt lat="42.882720891808184" lon="11.780783482459876"><ele>596.0</ele><time>2026-04-22T08:07:50.999Z</time></trkpt><trkpt lat="42.88263789077641" lon="11.780828657936414"><ele>596.0</ele><time>2026-04-22T08:07:51.999Z</time></trkpt><trkpt lat="42.88256109697303" lon="11.780858113752068"><ele>596.0</ele><time>2026-04-22T08:07:52.999Z</time></trkpt><trkpt lat="42.882436787040895" lon="11.780817622884419"><ele>596.0</ele><time>2026-04-22T08:07:54.999Z</time></trkpt><trkpt lat="42.882372297927546" lon="11.780784270630782"><ele>595.25</ele><time>2026-04-22T08:07:55.999Z</time></trkpt><trkpt lat="42.88229547044404" lon="11.780732347385191"><ele>594.5</ele><time>2026-04-22T08:07:56.999Z</time></trkpt><trkpt lat="42.882217268014266" lon="11.78065823860429"><ele>593.75</ele><time>2026-04-22T08:07:57.999Z</time></trkpt><trkpt lat="42.88204370442821" lon="11.78045770788386"><ele>593.0</ele><time>2026-04-22T08:07:59.999Z</time></trkpt><trkpt lat="42.88195976643361" lon="11.780368074195122"><ele>593.0</ele><time>2026-04-22T08:08:00.999Z</time></trkpt><trkpt lat="42.88187196094026" lon="11.780304758329843"><ele>593.0</ele><time>2026-04-22T08:08:01.999Z</time></trkpt><trkpt lat="42.881792082247486" lon="11.780237997211774"><ele>593.0</ele><time>2026-04-22T08:08:02.999Z</time></trkpt><trkpt lat="42.8817186731259" lon="11.780163475519183"><ele>593.0</ele><time>2026-04-22T08:08:03.999Z</time></trkpt><trkpt lat="42.88161806297773" lon="11.780118889519091"><ele>593.0</ele><time>2026-04-22T08:08:04.999Z</time></trkpt><trkpt lat="42.88151222209031" lon="11.780079538073512"><ele>591.25</ele><time>2026-04-22T08:08:05.999Z</time></trkpt><trkpt lat="42.88139706749297" lon="11.78004149703133"><ele>589.5</ele><time>2026-04-22T08:08:06.999Z</time></trkpt><trkpt lat="42.88126936233254" lon="11.780013171038231"><ele>587.75</ele><time>2026-04-22T08:08:07.999Z</time></trkpt><trkpt lat="42.88115831110872" lon="11.779992011510194"><ele>586.0</ele><time>2026-04-22T08:08:08.999Z</time></trkpt><trkpt lat="42.881040575097444" lon="11.779973881939304"><ele>582.75</ele><time>2026-04-22T08:08:09.999Z</time></trkpt><trkpt lat="42.88092025713689" lon="11.779975493731756"><ele>579.5</ele><time>2026-04-22T08:08:10.999Z</time></trkpt><trkpt lat="42.88079872618975" lon="11.77997288234953"><ele>576.25</ele><time>2026-04-22T08:08:11.999Z</time></trkpt><trkpt lat="42.880680849900195" lon="11.779991067603767"><ele>573.0</ele><time>2026-04-22T08:08:12.999Z</time></trkpt><trkpt lat="42.88055124512506" lon="11.780017691144968"><ele>573.0</ele><time>2026-04-22T08:08:13.999Z</time></trkpt><trkpt lat="42.880420772070075" lon="11.78003947517124"><ele>573.0</ele><time>2026-04-22T08:08:14.999Z</time></trkpt><trkpt lat="42.88028034854438" lon="11.780073922521174"><ele>573.0</ele><time>2026-04-22T08:08:16Z</time></trkpt><trkpt lat="42.88013105496504" lon="11.780113269434267"><ele>573.0</ele><time>2026-04-22T08:08:17Z</time></trkpt><trkpt lat="42.879976181450665" lon="11.780153706355861"><ele>570.3333333333334</ele><time>2026-04-22T08:08:18Z</time></trkpt><trkpt lat="42.87981138263234" lon="11.780168718434833"><ele>567.6666666666667</ele><time>2026-04-22T08:08:19Z</time></trkpt><trkpt lat="42.87965514459896" lon="11.780240274229438"><ele>565.0</ele><time>2026-04-22T08:08:20Z</time></trkpt><trkpt lat="42.879510203029845" lon="11.780286721354639"><ele>565.5</ele><time>2026-04-22T08:08:21Z</time></trkpt><trkpt lat="42.87937879734163" lon="11.780348845170725"><ele>566.0</ele><time>2026-04-22T08:08:22Z</time></trkpt><trkpt lat="42.87926269073834" lon="11.78035593343445"><ele>566.5</ele><time>2026-04-22T08:08:23Z</time></trkpt><trkpt lat="42.879159445177734" lon="11.780357401980007"><ele>567.0</ele><time>2026-04-22T08:08:24Z</time></trkpt><trkpt lat="42.87905959730016" lon="11.780333081664784"><ele>567.0</ele><time>2026-04-22T08:08:25Z</time></trkpt><trkpt lat="42.878958906219495" lon="11.78029293397058"><ele>567.0</ele><time>2026-04-22T08:08:26Z</time></trkpt><trkpt lat="42.87885808545593" lon="11.780196765192068"><ele>567.0</ele><time>2026-04-22T08:08:27Z</time></trkpt><trkpt lat="42.87875799448589" lon="11.780092883540092"><ele>567.0</ele><time>2026-04-22T08:08:28Z</time></trkpt><trkpt lat="42.87866015080709" lon="11.780012996502123"><ele>566.25</ele><time>2026-04-22T08:08:29Z</time></trkpt><trkpt lat="42.8785601529061" lon="11.779960577148504"><ele>565.5</ele><time>2026-04-22T08:08:30Z</time></trkpt><trkpt lat="42.87844631657066" lon="11.779902477963057"><ele>564.75</ele><time>2026-04-22T08:08:31Z</time></trkpt><trkpt lat="42.87831672601412" lon="11.779849062369657"><ele>564.0</ele><time>2026-04-22T08:08:32Z</time></trkpt><trkpt lat="42.87818496687132" lon="11.779801173508789"><ele>565.5</ele><time>2026-04-22T08:08:33Z</time></trkpt><trkpt lat="42.87805331301524" lon="11.779752905645276"><ele>567.0</ele><time>2026-04-22T08:08:34Z</time></trkpt><trkpt lat="42.87792128166757" lon="11.779689830351337"><ele>568.5</ele><time>2026-04-22T08:08:35Z</time></trkpt><trkpt lat="42.87779466092845" lon="11.779679200068772"><ele>570.0</ele><time>2026-04-22T08:08:36Z</time></trkpt><trkpt lat="42.87767594409673" lon="11.779661584941191"><ele>569.0</ele><time>2026-04-22T08:08:37Z</time></trkpt><trkpt lat="42.8775535053512" lon="11.77966226746352"><ele>568.0</ele><time>2026-04-22T08:08:38Z</time></trkpt><trkpt lat="42.87742696835193" lon="11.779674850407304"><ele>567.0</ele><time>2026-04-22T08:08:39Z</time></trkpt><trkpt lat="42.877285006772354" lon="11.7796983790046"><ele>566.0</ele><time>2026-04-22T08:08:40Z</time></trkpt><trkpt lat="42.87713972067828" lon="11.779729110217287"><ele>566.0</ele><time>2026-04-22T08:08:41Z</time></trkpt><trkpt lat="42.8769896413432" lon="11.779758426519825"><ele>566.0</ele><time>2026-04-22T08:08:42Z</time></trkpt><trkpt lat="42.87684324962114" lon="11.779783406178101"><ele>566.0</ele><time>2026-04-22T08:08:43Z</time></trkpt><trkpt lat="42.87669818439852" lon="11.779819206734988"><ele>566.0</ele><time>2026-04-22T08:08:44Z</time></trkpt><trkpt lat="42.87655015285123" lon="11.779890811586716"><ele>565.3333333333333</ele><time>2026-04-22T08:08:45Z</time></trkpt><trkpt lat="42.876407808750706" lon="11.77998491607699"><ele>564.6666666666666</ele><time>2026-04-22T08:08:46Z</time></trkpt><trkpt lat="42.87627442740925" lon="11.78008505323399"><ele>564.0</ele><time>2026-04-22T08:08:47Z</time></trkpt><trkpt lat="42.87614955697671" lon="11.780198048719901"><ele>565.3333333333334</ele><time>2026-04-22T08:08:48Z</time></trkpt><trkpt lat="42.87601836361676" lon="11.780309414006073"><ele>566.6666666666667</ele><time>2026-04-22T08:08:49Z</time></trkpt><trkpt lat="42.87591055869744" lon="11.78044014304568"><ele>568.0</ele><time>2026-04-22T08:08:50Z</time></trkpt><trkpt lat="42.875823654317" lon="11.780624045133566"><ele>568.0</ele><time>2026-04-22T08:08:51Z</time></trkpt><trkpt lat="42.87574834330438" lon="11.780805127409701"><ele>568.0</ele><time>2026-04-22T08:08:52Z</time></trkpt><trkpt lat="42.87568707513414" lon="11.780994962615827"><ele>568.0</ele><time>2026-04-22T08:08:53Z</time></trkpt><trkpt lat="42.87562248077783" lon="11.781159892598705"><ele>568.0</ele><time>2026-04-22T08:08:54Z</time></trkpt><trkpt lat="42.87554722959075" lon="11.781317620816546"><ele>568.0</ele><time>2026-04-22T08:08:55Z</time></trkpt><trkpt lat="42.8754471285209" lon="11.781430884569286"><ele>568.0</ele><time>2026-04-22T08:08:56Z</time></trkpt><trkpt lat="42.87534508561743" lon="11.781549217816078"><ele>568.0</ele><time>2026-04-22T08:08:57Z</time></trkpt><trkpt lat="42.87524095820626" lon="11.78165536665213"><ele>568.0</ele><time>2026-04-22T08:08:58Z</time></trkpt><trkpt lat="42.87513432685608" lon="11.781761899147666"><ele>571.0</ele><time>2026-04-22T08:08:59Z</time></trkpt><trkpt lat="42.8750255537089" lon="11.781870571475542"><ele>574.0</ele><time>2026-04-22T08:09:00Z</time></trkpt><trkpt lat="42.874914886020456" lon="11.781981136664827"><ele>577.0</ele><time>2026-04-22T08:09:01Z</time></trkpt><trkpt lat="42.87480309559029" lon="11.782092823500475"><ele>580.0</ele><time>2026-04-22T08:09:02Z</time></trkpt><trkpt lat="42.874695503685935" lon="11.782198056333085"><ele>580.0</ele><time>2026-04-22T08:09:03Z</time></trkpt><trkpt lat="42.874588698915325" lon="11.782280749823325"><ele>580.0</ele><time>2026-04-22T08:09:04Z</time></trkpt><trkpt lat="42.874496753957345" lon="11.782355115198492"><ele>580.0</ele><time>2026-04-22T08:09:05Z</time></trkpt><trkpt lat="42.87439683713006" lon="11.782381149435418"><ele>580.0</ele><time>2026-04-22T08:09:06Z</time></trkpt><trkpt lat="42.874295871062856" lon="11.782387126998266"><ele>580.0</ele><time>2026-04-22T08:09:07Z</time></trkpt><trkpt lat="42.87417878283356" lon="11.78237032356685"><ele>582.2</ele><time>2026-04-22T08:09:08Z</time></trkpt><trkpt lat="42.87408175726322" lon="11.782311809282964"><ele>584.4</ele><time>2026-04-22T08:09:09Z</time></trkpt><trkpt lat="42.873990352921425" lon="11.782243962080601"><ele>586.6</ele><time>2026-04-22T08:09:10Z</time></trkpt><trkpt lat="42.87390742642039" lon="11.782169264591477"><ele>588.8</ele><time>2026-04-22T08:09:11Z</time></trkpt><trkpt lat="42.873826072733735" lon="11.782092494392888"><ele>591.0</ele><time>2026-04-22T08:09:12Z</time></trkpt><trkpt lat="42.87374183955723" lon="11.782006879528838"><ele>591.0</ele><time>2026-04-22T08:09:13Z</time></trkpt><trkpt lat="42.87365083863319" lon="11.781918655317345"><ele>591.0</ele><time>2026-04-22T08:09:14Z</time></trkpt><trkpt lat="42.87358862369577" lon="11.781784761566676"><ele>591.0</ele><time>2026-04-22T08:09:15Z</time></trkpt><trkpt lat="42.87352393586464" lon="11.781636646383227"><ele>591.0</ele><time>2026-04-22T08:09:16Z</time></trkpt><trkpt lat="42.87345002642823" lon="11.781485685209372"><ele>588.25</ele><time>2026-04-22T08:09:17Z</time></trkpt><trkpt lat="42.87340416481934" lon="11.781309111567252"><ele>585.5</ele><time>2026-04-22T08:09:18Z</time></trkpt><trkpt lat="42.87336659002484" lon="11.781130144723868"><ele>582.75</ele><time>2026-04-22T08:09:19Z</time></trkpt><trkpt lat="42.87334267441548" lon="11.780943473071023"><ele>580.0</ele><time>2026-04-22T08:09:20Z</time></trkpt><trkpt lat="42.87323492574243" lon="11.780590423240513"><ele>579.25</ele><time>2026-04-22T08:09:22Z</time></trkpt><trkpt lat="42.87316656981123" lon="11.78041952666013"><ele>578.5</ele><time>2026-04-22T08:09:23Z</time></trkpt><trkpt lat="42.873070916117165" lon="11.780258166150716"><ele>577.75</ele><time>2026-04-22T08:09:24Z</time></trkpt><trkpt lat="42.87296390498602" lon="11.780107498994987"><ele>577.0</ele><time>2026-04-22T08:09:25Z</time></trkpt><trkpt lat="42.87286058889761" lon="11.779983856575143"><ele>577.5</ele><time>2026-04-22T08:09:26Z</time></trkpt><trkpt lat="42.87276379048616" lon="11.779898627807938"><ele>578.0</ele><time>2026-04-22T08:09:27Z</time></trkpt><trkpt lat="42.87266106515774" lon="11.779834886212297"><ele>578.5</ele><time>2026-04-22T08:09:28Z</time></trkpt><trkpt lat="42.872545421056586" lon="11.779775367451487"><ele>579.0</ele><time>2026-04-22T08:09:29Z</time></trkpt><trkpt lat="42.87242451063821" lon="11.779690155453746"><ele>579.0</ele><time>2026-04-22T08:09:30Z</time></trkpt><trkpt lat="42.87228723930191" lon="11.779644091054003"><ele>579.0</ele><time>2026-04-22T08:09:31Z</time></trkpt><trkpt lat="42.87214537431404" lon="11.779626796038192"><ele>579.0</ele><time>2026-04-22T08:09:31.999Z</time></trkpt><trkpt lat="42.87201001560353" lon="11.779647994219394"><ele>579.0</ele><time>2026-04-22T08:09:32.999Z</time></trkpt><trkpt lat="42.87187200550583" lon="11.779673870609123"><ele>580.0</ele><time>2026-04-22T08:09:33.999Z</time></trkpt><trkpt lat="42.87173621189144" lon="11.779716389413437"><ele>581.0</ele><time>2026-04-22T08:09:34.999Z</time></trkpt><trkpt lat="42.87162227226243" lon="11.77975890483293"><ele>582.0</ele><time>2026-04-22T08:09:35.999Z</time></trkpt><trkpt lat="42.871523661370524" lon="11.7798071308385"><ele>583.0</ele><time>2026-04-22T08:09:36.999Z</time></trkpt><trkpt lat="42.87143115339889" lon="11.779854214969205"><ele>583.0</ele><time>2026-04-22T08:09:37.999Z</time></trkpt><trkpt lat="42.871350533807494" lon="11.779911693171288"><ele>583.0</ele><time>2026-04-22T08:09:38.999Z</time></trkpt><trkpt lat="42.871257754504995" lon="11.77992882521742"><ele>583.0</ele><time>2026-04-22T08:09:39.999Z</time></trkpt><trkpt lat="42.87117757280826" lon="11.779945257193575"><ele>583.0</ele><time>2026-04-22T08:09:40.999Z</time></trkpt><trkpt lat="42.871103806367664" lon="11.77994947138313"><ele>583.0</ele><time>2026-04-22T08:09:41.999Z</time></trkpt><trkpt lat="42.871036763520046" lon="11.779950007768925"><ele>583.0</ele><time>2026-04-22T08:09:42.999Z</time></trkpt><trkpt lat="42.87092295447344" lon="11.779939123620204"><ele>584.1999999999999</ele><time>2026-04-22T08:09:44.999Z</time></trkpt><trkpt lat="42.87085360201156" lon="11.779946197935491"><ele>585.4</ele><time>2026-04-22T08:09:45.999Z</time></trkpt><trkpt lat="42.870702270151995" lon="11.77989241147356"><ele>586.5999999999999</ele><time>2026-04-22T08:09:47.999Z</time></trkpt><trkpt lat="42.870624557923385" lon="11.779864756851426"><ele>587.8</ele><time>2026-04-22T08:09:48.999Z</time></trkpt><trkpt lat="42.87054713279075" lon="11.779842288433048"><ele>589.0</ele><time>2026-04-22T08:09:49.999Z</time></trkpt><trkpt lat="42.87045831765489" lon="11.779818580030957"><ele>589.0</ele><time>2026-04-22T08:09:50.999Z</time></trkpt><trkpt lat="42.87037391415559" lon="11.779791111595399"><ele>589.0</ele><time>2026-04-22T08:09:51.999Z</time></trkpt><trkpt lat="42.870268061300585" lon="11.779818245269746"><ele>589.0</ele><time>2026-04-22T08:09:52.999Z</time></trkpt><trkpt lat="42.8701617488874" lon="11.779826719651913"><ele>589.0</ele><time>2026-04-22T08:09:53.999Z</time></trkpt><trkpt lat="42.870040622611654" lon="11.779849009776674"><ele>589.0</ele><time>2026-04-22T08:09:54.999Z</time></trkpt><trkpt lat="42.8699113071141" lon="11.779892541334481"><ele>588.75</ele><time>2026-04-22T08:09:55.999Z</time></trkpt><trkpt lat="42.86977356534943" lon="11.779949897863503"><ele>588.5</ele><time>2026-04-22T08:09:56.999Z</time></trkpt><trkpt lat="42.86964805547631" lon="11.779999428970735"><ele>588.25</ele><time>2026-04-22T08:09:57.999Z</time></trkpt><trkpt lat="42.869529288337404" lon="11.7800466564134"><ele>588.0</ele><time>2026-04-22T08:09:58.999Z</time></trkpt><trkpt lat="42.86941473705368" lon="11.780088890527512"><ele>588.0</ele><time>2026-04-22T08:09:59.999Z</time></trkpt><trkpt lat="42.86930171660032" lon="11.780153313219271"><ele>588.0</ele><time>2026-04-22T08:10:00.999Z</time></trkpt><trkpt lat="42.86919395316609" lon="11.780238994610365"><ele>588.0</ele><time>2026-04-22T08:10:01.999Z</time></trkpt><trkpt lat="42.86909526544573" lon="11.780333014402817"><ele>588.0</ele><time>2026-04-22T08:10:02.999Z</time></trkpt><trkpt lat="42.86901840509836" lon="11.780425133544622"><ele>585.8</ele><time>2026-04-22T08:10:03.999Z</time></trkpt><trkpt lat="42.868954854461435" lon="11.780533182416312"><ele>583.5999999999999</ele><time>2026-04-22T08:10:04.999Z</time></trkpt><trkpt lat="42.86889662591429" lon="11.780649260434165"><ele>581.4000000000001</ele><time>2026-04-22T08:10:05.999Z</time></trkpt><trkpt lat="42.86882778141859" lon="11.780760321089897"><ele>579.2</ele><time>2026-04-22T08:10:06.999Z</time></trkpt><trkpt lat="42.86877205382353" lon="11.780867794694245"><ele>577.0</ele><time>2026-04-22T08:10:07.999Z</time></trkpt><trkpt lat="42.868717400122115" lon="11.780989359783836"><ele>573.8333333333334</ele><time>2026-04-22T08:10:08.999Z</time></trkpt><trkpt lat="42.86869779540892" lon="11.781120212241724"><ele>570.6666666666667</ele><time>2026-04-22T08:10:09.999Z</time></trkpt><trkpt lat="42.86866877890181" lon="11.78123498303086"><ele>567.5</ele><time>2026-04-22T08:10:10.999Z</time></trkpt><trkpt lat="42.868636041385024" lon="11.781344850062037"><ele>564.3333333333334</ele><time>2026-04-22T08:10:11.999Z</time></trkpt><trkpt lat="42.868595012369155" lon="11.781450921594102"><ele>561.1666666666666</ele><time>2026-04-22T08:10:12.999Z</time></trkpt><trkpt lat="42.86852788468626" lon="11.781516777323732"><ele>558.0</ele><time>2026-04-22T08:10:13.999Z</time></trkpt><trkpt lat="42.868468073631774" lon="11.781593239238651"><ele>559.6</ele><time>2026-04-22T08:10:14.999Z</time></trkpt><trkpt lat="42.86838862128878" lon="11.781635154032717"><ele>561.1999999999999</ele><time>2026-04-22T08:10:15.999Z</time></trkpt><trkpt lat="42.86831009685633" lon="11.78167004312523"><ele>562.8</ele><time>2026-04-22T08:10:16.999Z</time></trkpt><trkpt lat="42.868215597521456" lon="11.781708539511381"><ele>564.4</ele><time>2026-04-22T08:10:17.999Z</time></trkpt><trkpt lat="42.86811255127954" lon="11.781744712931006"><ele>566.0</ele><time>2026-04-22T08:10:18.999Z</time></trkpt><trkpt lat="42.86800317315316" lon="11.781776487238128"><ele>566.0</ele><time>2026-04-22T08:10:19.999Z</time></trkpt><trkpt lat="42.86790124328039" lon="11.781803275607624"><ele>566.0</ele><time>2026-04-22T08:10:20.999Z</time></trkpt><trkpt lat="42.86780567452137" lon="11.78181218209549"><ele>566.0</ele><time>2026-04-22T08:10:22Z</time></trkpt><trkpt lat="42.86771490040491" lon="11.78176368379534"><ele>566.0</ele><time>2026-04-22T08:10:23Z</time></trkpt><trkpt lat="42.86761532712216" lon="11.781741131480011"><ele>566.0</ele><time>2026-04-22T08:10:24Z</time></trkpt><trkpt lat="42.867538348973305" lon="11.781652842739211"><ele>564.0</ele><time>2026-04-22T08:10:25Z</time></trkpt><trkpt lat="42.86744675404212" lon="11.781616276470173"><ele>562.0</ele><time>2026-04-22T08:10:26Z</time></trkpt><trkpt lat="42.86735138787145" lon="11.781555969547636"><ele>560.0</ele><time>2026-04-22T08:10:27Z</time></trkpt><trkpt lat="42.86724546788416" lon="11.781523272993159"><ele>558.0</ele><time>2026-04-22T08:10:28Z</time></trkpt><trkpt lat="42.8671289697703" lon="11.781507772167569"><ele>556.0</ele><time>2026-04-22T08:10:29Z</time></trkpt><trkpt lat="42.867012497493384" lon="11.781509567309836"><ele>556.0</ele><time>2026-04-22T08:10:30Z</time></trkpt><trkpt lat="42.866911939142426" lon="11.78153997133625"><ele>556.0</ele><time>2026-04-22T08:10:31Z</time></trkpt><trkpt lat="42.86681482581433" lon="11.781591382408296"><ele>556.0</ele><time>2026-04-22T08:10:32Z</time></trkpt><trkpt lat="42.86672430555509" lon="11.781673727225753"><ele>556.0</ele><time>2026-04-22T08:10:33Z</time></trkpt><trkpt lat="42.866625369984284" lon="11.781741725061986"><ele>556.0</ele><time>2026-04-22T08:10:34Z</time></trkpt><trkpt lat="42.866531810523014" lon="11.781824864155636"><ele>552.0</ele><time>2026-04-22T08:10:35Z</time></trkpt><trkpt lat="42.86644159552243" lon="11.781904799793232"><ele>548.0</ele><time>2026-04-22T08:10:36Z</time></trkpt><trkpt lat="42.86634818242223" lon="11.781985013570006"><ele>544.0</ele><time>2026-04-22T08:10:37Z</time></trkpt><trkpt lat="42.866242268286655" lon="11.782073214929186"><ele>540.0</ele><time>2026-04-22T08:10:38Z</time></trkpt><trkpt lat="42.86613409427683" lon="11.782177310843212"><ele>540.0</ele><time>2026-04-22T08:10:39Z</time></trkpt><trkpt lat="42.86604167550393" lon="11.782287938692134"><ele>540.0</ele><time>2026-04-22T08:10:40Z</time></trkpt><trkpt lat="42.865960741695766" lon="11.782417485536515"><ele>540.0</ele><time>2026-04-22T08:10:41Z</time></trkpt><trkpt lat="42.86590071777064" lon="11.782540557695468"><ele>540.0</ele><time>2026-04-22T08:10:42Z</time></trkpt><trkpt lat="42.86584850966226" lon="11.782696110914316"><ele>537.25</ele><time>2026-04-22T08:10:43Z</time></trkpt><trkpt lat="42.86578623836676" lon="11.782852522870405"><ele>534.5</ele><time>2026-04-22T08:10:44Z</time></trkpt><trkpt lat="42.865716875431204" lon="11.783030445575056"><ele>531.75</ele><time>2026-04-22T08:10:45Z</time></trkpt><trkpt lat="42.86564215344083" lon="11.78322035709073"><ele>529.0</ele><time>2026-04-22T08:10:46Z</time></trkpt><trkpt lat="42.86555898279652" lon="11.783406118909198"><ele>526.5</ele><time>2026-04-22T08:10:47Z</time></trkpt><trkpt lat="42.8654767274714" lon="11.783576477582082"><ele>524.0</ele><time>2026-04-22T08:10:48Z</time></trkpt><trkpt lat="42.86539041775178" lon="11.783749994288005"><ele>521.5</ele><time>2026-04-22T08:10:49Z</time></trkpt><trkpt lat="42.865311633830295" lon="11.783902338726326"><ele>519.0</ele><time>2026-04-22T08:10:50Z</time></trkpt><trkpt lat="42.865229239746" lon="11.784051453076875"><ele>519.0</ele><time>2026-04-22T08:10:51Z</time></trkpt><trkpt lat="42.865144106923545" lon="11.784204837987005"><ele>519.0</ele><time>2026-04-22T08:10:52Z</time></trkpt><trkpt lat="42.865034567488344" lon="11.784341277480655"><ele>519.0</ele><time>2026-04-22T08:10:53Z</time></trkpt><trkpt lat="42.86493016167472" lon="11.784496558526591"><ele>519.0</ele><time>2026-04-22T08:10:54Z</time></trkpt><trkpt lat="42.864810215695606" lon="11.784675929377922"><ele>519.0</ele><time>2026-04-22T08:10:55Z</time></trkpt><trkpt lat="42.86468874549057" lon="11.78486147698859"><ele>519.0</ele><time>2026-04-22T08:10:56Z</time></trkpt><trkpt lat="42.86456783533464" lon="11.785074824786639"><ele>519.0</ele><time>2026-04-22T08:10:57Z</time></trkpt><trkpt lat="42.864461268898616" lon="11.785292094955413"><ele>519.0</ele><time>2026-04-22T08:10:58Z</time></trkpt><trkpt lat="42.86437282026921" lon="11.785480453658112"><ele>519.0</ele><time>2026-04-22T08:10:59Z</time></trkpt><trkpt lat="42.864315425660365" lon="11.78566903703297"><ele>519.0</ele><time>2026-04-22T08:11:00Z</time></trkpt><trkpt lat="42.86421914995127" lon="11.785825423788124"><ele>521.2</ele><time>2026-04-22T08:11:01Z</time></trkpt><trkpt lat="42.864139498979824" lon="11.785963900154991"><ele>523.4</ele><time>2026-04-22T08:11:02Z</time></trkpt><trkpt lat="42.86405269947532" lon="11.78607065988869"><ele>525.6</ele><time>2026-04-22T08:11:03Z</time></trkpt><trkpt lat="42.86397290724796" lon="11.7861523091599"><ele>527.8</ele><time>2026-04-22T08:11:04Z</time></trkpt><trkpt lat="42.86387115102801" lon="11.786173317594919"><ele>530.0</ele><time>2026-04-22T08:11:05Z</time></trkpt><trkpt lat="42.86378162271871" lon="11.78621632643586"><ele>530.0</ele><time>2026-04-22T08:11:06Z</time></trkpt><trkpt lat="42.863664869700834" lon="11.78620729992058"><ele>530.0</ele><time>2026-04-22T08:11:07Z</time></trkpt><trkpt lat="42.8635577707533" lon="11.786265683012413"><ele>530.0</ele><time>2026-04-22T08:11:08Z</time></trkpt><trkpt lat="42.8634393577294" lon="11.786357011936843"><ele>530.0</ele><time>2026-04-22T08:11:09Z</time></trkpt><trkpt lat="42.86332085035327" lon="11.78642223470011"><ele>531.75</ele><time>2026-04-22T08:11:10Z</time></trkpt><trkpt lat="42.863187174689045" lon="11.786528249924237"><ele>533.5</ele><time>2026-04-22T08:11:11Z</time></trkpt><trkpt lat="42.863078055715874" lon="11.786610052360333"><ele>535.25</ele><time>2026-04-22T08:11:12Z</time></trkpt><trkpt lat="42.86297720559521" lon="11.786675216508335"><ele>537.0</ele><time>2026-04-22T08:11:13Z</time></trkpt><trkpt lat="42.86287839523798" lon="11.786740299937684"><ele>537.0</ele><time>2026-04-22T08:11:14Z</time></trkpt><trkpt lat="42.8627739956538" lon="11.786818054149219"><ele>537.0</ele><time>2026-04-22T08:11:15Z</time></trkpt><trkpt lat="42.8626719117678" lon="11.786876514247915"><ele>537.0</ele><time>2026-04-22T08:11:16Z</time></trkpt><trkpt lat="42.86259215808622" lon="11.786955478437125"><ele>537.0</ele><time>2026-04-22T08:11:17Z</time></trkpt><trkpt lat="42.862507365223905" lon="11.787014032027978"><ele>537.0</ele><time>2026-04-22T08:11:18Z</time></trkpt><trkpt lat="42.8624198920415" lon="11.787077974134087"><ele>535.5</ele><time>2026-04-22T08:11:19Z</time></trkpt><trkpt lat="42.86232614629496" lon="11.787135123668541"><ele>534.0</ele><time>2026-04-22T08:11:20Z</time></trkpt><trkpt lat="42.86222250578079" lon="11.787196974558226"><ele>532.5</ele><time>2026-04-22T08:11:21Z</time></trkpt><trkpt lat="42.86210766254018" lon="11.787257489051397"><ele>531.0</ele><time>2026-04-22T08:11:22Z</time></trkpt><trkpt lat="42.86198950039694" lon="11.78731590895067"><ele>531.0</ele><time>2026-04-22T08:11:23Z</time></trkpt><trkpt lat="42.86187326860767" lon="11.787346957206902"><ele>531.0</ele><time>2026-04-22T08:11:24Z</time></trkpt><trkpt lat="42.86175394079304" lon="11.787401326669563"><ele>531.0</ele><time>2026-04-22T08:11:25Z</time></trkpt><trkpt lat="42.86162207133293" lon="11.78746141049779"><ele>531.0</ele><time>2026-04-22T08:11:26Z</time></trkpt><trkpt lat="42.86148522797978" lon="11.787540061829176"><ele>530.3333333333334</ele><time>2026-04-22T08:11:27Z</time></trkpt><trkpt lat="42.86133477136318" lon="11.78760144990016"><ele>529.6666666666667</ele><time>2026-04-22T08:11:28Z</time></trkpt><trkpt lat="42.861178576807085" lon="11.787629743364274"><ele>529.0</ele><time>2026-04-22T08:11:29Z</time></trkpt><trkpt lat="42.861016037866996" lon="11.7876710436716"><ele>525.6666666666667</ele><time>2026-04-22T08:11:30Z</time></trkpt><trkpt lat="42.860848111604504" lon="11.787710563639994"><ele>522.3333333333334</ele><time>2026-04-22T08:11:31Z</time></trkpt><trkpt lat="42.86070122559212" lon="11.787742825115656"><ele>519.0</ele><time>2026-04-22T08:11:32Z</time></trkpt><trkpt lat="42.86053927628122" lon="11.787776888886825"><ele>519.0</ele><time>2026-04-22T08:11:33Z</time></trkpt><trkpt lat="42.8603881722016" lon="11.787798043148872"><ele>519.0</ele><time>2026-04-22T08:11:34Z</time></trkpt><trkpt lat="42.860225185195176" lon="11.787807070288581"><ele>519.0</ele><time>2026-04-22T08:11:35Z</time></trkpt><trkpt lat="42.8600648335507" lon="11.787815981534532"><ele>520.0</ele><time>2026-04-22T08:11:36Z</time></trkpt><trkpt lat="42.85990811033831" lon="11.787852089584728"><ele>521.0</ele><time>2026-04-22T08:11:37Z</time></trkpt><trkpt lat="42.85975149912913" lon="11.787867710662136"><ele>522.0</ele><time>2026-04-22T08:11:38Z</time></trkpt><trkpt lat="42.85960580660086" lon="11.787880850715766"><ele>522.0</ele><time>2026-04-22T08:11:39Z</time></trkpt><trkpt lat="42.859477181539766" lon="11.787872187088668"><ele>522.0</ele><time>2026-04-22T08:11:40Z</time></trkpt><trkpt lat="42.85936571617837" lon="11.78789478637626"><ele>522.0</ele><time>2026-04-22T08:11:41Z</time></trkpt><trkpt lat="42.85925372045379" lon="11.787871760892754"><ele>522.0</ele><time>2026-04-22T08:11:41.999Z</time></trkpt><trkpt lat="42.85901218963192" lon="11.787802318124271"><ele>521.75</ele><time>2026-04-22T08:11:43.999Z</time></trkpt><trkpt lat="42.85887425754747" lon="11.787794619076493"><ele>521.5</ele><time>2026-04-22T08:11:44.999Z</time></trkpt><trkpt lat="42.858744466294404" lon="11.787745668225538"><ele>521.25</ele><time>2026-04-22T08:11:45.999Z</time></trkpt><trkpt lat="42.85861466451706" lon="11.787701242349083"><ele>521.0</ele><time>2026-04-22T08:11:46.999Z</time></trkpt><trkpt lat="42.85848809490606" lon="11.787667112053489"><ele>519.25</ele><time>2026-04-22T08:11:47.999Z</time></trkpt><trkpt lat="42.858368721855385" lon="11.787633898082545"><ele>517.5</ele><time>2026-04-22T08:11:48.999Z</time></trkpt><trkpt lat="42.858253243300624" lon="11.787591263471604"><ele>515.75</ele><time>2026-04-22T08:11:49.999Z</time></trkpt><trkpt lat="42.858117779043376" lon="11.787524869133506"><ele>514.0</ele><time>2026-04-22T08:11:50.999Z</time></trkpt><trkpt lat="42.85797990738002" lon="11.787460372841593"><ele>514.0</ele><time>2026-04-22T08:11:51.999Z</time></trkpt><trkpt lat="42.85783776009112" lon="11.787396484984033"><ele>514.0</ele><time>2026-04-22T08:11:52.999Z</time></trkpt><trkpt lat="42.85769465394917" lon="11.787338002138908"><ele>514.0</ele><time>2026-04-22T08:11:53.999Z</time></trkpt><trkpt lat="42.85755224487195" lon="11.787283265408579"><ele>514.0</ele><time>2026-04-22T08:11:54.999Z</time></trkpt><trkpt lat="42.85742061758771" lon="11.787238264629563"><ele>514.25</ele><time>2026-04-22T08:11:55.999Z</time></trkpt><trkpt lat="42.857293839865626" lon="11.787209210792163"><ele>514.5</ele><time>2026-04-22T08:11:56.999Z</time></trkpt><trkpt lat="42.857172946333165" lon="11.787197594771465"><ele>514.75</ele><time>2026-04-22T08:11:57.999Z</time></trkpt><trkpt lat="42.857056775673044" lon="11.787205973923855"><ele>515.0</ele><time>2026-04-22T08:11:58.999Z</time></trkpt><trkpt lat="42.856946322076666" lon="11.787237380900203"><ele>515.0</ele><time>2026-04-22T08:11:59.999Z</time></trkpt><trkpt lat="42.856835743567686" lon="11.787286371234178"><ele>515.0</ele><time>2026-04-22T08:12:00.999Z</time></trkpt><trkpt lat="42.856724604871346" lon="11.787345083264913"><ele>515.0</ele><time>2026-04-22T08:12:01.999Z</time></trkpt><trkpt lat="42.856614876737595" lon="11.787402294852033"><ele>515.0</ele><time>2026-04-22T08:12:02.999Z</time></trkpt><trkpt lat="42.856506190162" lon="11.787456008912743"><ele>513.0</ele><time>2026-04-22T08:12:03.999Z</time></trkpt><trkpt lat="42.85641958985105" lon="11.787500444486756"><ele>511.0</ele><time>2026-04-22T08:12:04.999Z</time></trkpt><trkpt lat="42.85633900372552" lon="11.78757683895544"><ele>509.0</ele><time>2026-04-22T08:12:05.999Z</time></trkpt><trkpt lat="42.85628351293478" lon="11.787686770644088"><ele>507.0</ele><time>2026-04-22T08:12:06.999Z</time></trkpt><trkpt lat="42.85623912048253" lon="11.787806289538866"><ele>505.0</ele><time>2026-04-22T08:12:07.999Z</time></trkpt><trkpt lat="42.85622053361549" lon="11.787914749714686"><ele>505.00000000000006</ele><time>2026-04-22T08:12:08.999Z</time></trkpt><trkpt lat="42.856199235666544" lon="11.788020219901009"><ele>505.0</ele><time>2026-04-22T08:12:09.999Z</time></trkpt><trkpt lat="42.85620203197858" lon="11.78812880725289"><ele>505.0</ele><time>2026-04-22T08:12:10.999Z</time></trkpt><trkpt lat="42.85622137619738" lon="11.788247009247888"><ele>505.0</ele><time>2026-04-22T08:12:11.999Z</time></trkpt><trkpt lat="42.85623053707803" lon="11.788349738483191"><ele>505.00000000000006</ele><time>2026-04-22T08:12:12.999Z</time></trkpt><trkpt lat="42.856244199359125" lon="11.788452766591083"><ele>505.0</ele><time>2026-04-22T08:12:13.999Z</time></trkpt><trkpt lat="42.85621448262529" lon="11.788560092745689"><ele>504.1666666666667</ele><time>2026-04-22T08:12:14.999Z</time></trkpt><trkpt lat="42.856167083678514" lon="11.788662259040423"><ele>503.33333333333337</ele><time>2026-04-22T08:12:15.999Z</time></trkpt><trkpt lat="42.85611602172648" lon="11.788730181809669"><ele>502.5</ele><time>2026-04-22T08:12:16.999Z</time></trkpt><trkpt lat="42.85604706307719" lon="11.788773418245434"><ele>501.66666666666663</ele><time>2026-04-22T08:12:17.999Z</time></trkpt><trkpt lat="42.855976492967656" lon="11.788791420864197"><ele>500.8333333333333</ele><time>2026-04-22T08:12:18.999Z</time></trkpt><trkpt lat="42.855905639278674" lon="11.788777294258004"><ele>500.0</ele><time>2026-04-22T08:12:19.999Z</time></trkpt><trkpt lat="42.855839696860244" lon="11.788742417171083"><ele>498.3333333333333</ele><time>2026-04-22T08:12:20.999Z</time></trkpt><trkpt lat="42.85576216039708" lon="11.78873575831943"><ele>496.66666666666663</ele><time>2026-04-22T08:12:21.999Z</time></trkpt><trkpt lat="42.85567720859528" lon="11.788686644537385"><ele>495.0</ele><time>2026-04-22T08:12:22.999Z</time></trkpt><trkpt lat="42.85557318952502" lon="11.78866751781471"><ele>493.33333333333337</ele><time>2026-04-22T08:12:23.999Z</time></trkpt><trkpt lat="42.85548707531165" lon="11.788632502011993"><ele>491.6666666666667</ele><time>2026-04-22T08:12:24.999Z</time></trkpt><trkpt lat="42.855412438914016" lon="11.788588409048586"><ele>490.0</ele><time>2026-04-22T08:12:25.999Z</time></trkpt><trkpt lat="42.855336332103334" lon="11.788567263724229"><ele>490.0</ele><time>2026-04-22T08:12:26.999Z</time></trkpt><trkpt lat="42.8552537221939" lon="11.788555067120118"><ele>490.0</ele><time>2026-04-22T08:12:28Z</time></trkpt><trkpt lat="42.85515486277175" lon="11.78856020419361"><ele>490.0</ele><time>2026-04-22T08:12:29Z</time></trkpt><trkpt lat="42.85505336886163" lon="11.788592104882108"><ele>490.0</ele><time>2026-04-22T08:12:30Z</time></trkpt><trkpt lat="42.854972221022564" lon="11.788667640627834"><ele>490.0</ele><time>2026-04-22T08:12:31Z</time></trkpt><trkpt lat="42.854891147234184" lon="11.788740186978076"><ele>488.0</ele><time>2026-04-22T08:12:32Z</time></trkpt><trkpt lat="42.85481648077334" lon="11.788826952629222"><ele>486.0</ele><time>2026-04-22T08:12:33Z</time></trkpt><trkpt lat="42.8547379440708" lon="11.788898417878055"><ele>484.0</ele><time>2026-04-22T08:12:34Z</time></trkpt><trkpt lat="42.85467491282998" lon="11.789003044126662"><ele>482.0</ele><time>2026-04-22T08:12:35Z</time></trkpt><trkpt lat="42.854628765983136" lon="11.789146739576054"><ele>480.0</ele><time>2026-04-22T08:12:36Z</time></trkpt><trkpt lat="42.85458493052739" lon="11.789272634724503"><ele>478.4</ele><time>2026-04-22T08:12:37Z</time></trkpt><trkpt lat="42.85453767961088" lon="11.78940950748909"><ele>476.8</ele><time>2026-04-22T08:12:38Z</time></trkpt><trkpt lat="42.854472006752395" lon="11.789518294845132"><ele>475.20000000000005</ele><time>2026-04-22T08:12:39Z</time></trkpt><trkpt lat="42.85440855451633" lon="11.78963413034975"><ele>473.6</ele><time>2026-04-22T08:12:40Z</time></trkpt><trkpt lat="42.85435351052307" lon="11.789735615054488"><ele>472.0</ele><time>2026-04-22T08:12:41Z</time></trkpt><trkpt lat="42.85430542898596" lon="11.789823469073728"><ele>471.33333333333337</ele><time>2026-04-22T08:12:42Z</time></trkpt><trkpt lat="42.85426084211378" lon="11.789921559815603"><ele>470.6666666666667</ele><time>2026-04-22T08:12:43Z</time></trkpt><trkpt lat="42.854196394540175" lon="11.789968287274807"><ele>470.0</ele><time>2026-04-22T08:12:44Z</time></trkpt><trkpt lat="42.854133686468614" lon="11.790024111618926"><ele>469.33333333333337</ele><time>2026-04-22T08:12:45Z</time></trkpt><trkpt lat="42.854066798750836" lon="11.79006504838905"><ele>468.6666666666667</ele><time>2026-04-22T08:12:46Z</time></trkpt><trkpt lat="42.85400303712522" lon="11.790143816472854"><ele>468.0</ele><time>2026-04-22T08:12:47Z</time></trkpt><trkpt lat="42.85394092813262" lon="11.79022181779929"><ele>465.79999999999995</ele><time>2026-04-22T08:12:48Z</time></trkpt><trkpt lat="42.8538941456912" lon="11.790326795953279"><ele>463.59999999999997</ele><time>2026-04-22T08:12:49Z</time></trkpt><trkpt lat="42.85385472865307" lon="11.790453438609086"><ele>461.40000000000003</ele><time>2026-04-22T08:12:50Z</time></trkpt><trkpt lat="42.8538380007985" lon="11.790582696341023"><ele>459.20000000000005</ele><time>2026-04-22T08:12:51Z</time></trkpt><trkpt lat="42.85382812382594" lon="11.790703692138585"><ele>457.0</ele><time>2026-04-22T08:12:52Z</time></trkpt><trkpt lat="42.8538147020274" lon="11.79083202085826"><ele>457.00000000000006</ele><time>2026-04-22T08:12:53Z</time></trkpt><trkpt lat="42.853801985133025" lon="11.79094262025491"><ele>457.0</ele><time>2026-04-22T08:12:54Z</time></trkpt><trkpt lat="42.853780056554854" lon="11.791048462106083"><ele>457.0</ele><time>2026-04-22T08:12:55Z</time></trkpt><trkpt lat="42.853738847791796" lon="11.791139248933355"><ele>457.0</ele><time>2026-04-22T08:12:56Z</time></trkpt><trkpt lat="42.85366462924237" lon="11.791205782179167"><ele>457.00000000000006</ele><time>2026-04-22T08:12:57Z</time></trkpt><trkpt lat="42.853601102695436" lon="11.791262366819302"><ele>457.0</ele><time>2026-04-22T08:12:58Z</time></trkpt><trkpt lat="42.85353061237269" lon="11.791291553474565"><ele>454.1666666666667</ele><time>2026-04-22T08:12:59Z</time></trkpt><trkpt lat="42.85344316731961" lon="11.79131555195896"><ele>451.33333333333337</ele><time>2026-04-22T08:13:00Z</time></trkpt><trkpt lat="42.85336850124085" lon="11.791305558632766"><ele>448.5</ele><time>2026-04-22T08:13:01Z</time></trkpt><trkpt lat="42.853291087077004" lon="11.7913027752518"><ele>445.66666666666663</ele><time>2026-04-22T08:13:02Z</time></trkpt><trkpt lat="42.85322185094227" lon="11.791234184511847"><ele>442.8333333333333</ele><time>2026-04-22T08:13:03Z</time></trkpt><trkpt lat="42.85314293756231" lon="11.791165143306173"><ele>440.0</ele><time>2026-04-22T08:13:04Z</time></trkpt><trkpt lat="42.85307269516583" lon="11.791082906962762"><ele>439.99999999999994</ele><time>2026-04-22T08:13:05Z</time></trkpt><trkpt lat="42.853006605218454" lon="11.791018446255471"><ele>440.0</ele><time>2026-04-22T08:13:06Z</time></trkpt><trkpt lat="42.85294738157318" lon="11.790982940253201"><ele>440.0</ele><time>2026-04-22T08:13:07Z</time></trkpt><trkpt lat="42.8528762996689" lon="11.790993650916482"><ele>440.0</ele><time>2026-04-22T08:13:08Z</time></trkpt><trkpt lat="42.852824786505906" lon="11.791068218022296"><ele>439.99999999999994</ele><time>2026-04-22T08:13:09Z</time></trkpt><trkpt lat="42.852778109701184" lon="11.79113060068316"><ele>440.0</ele><time>2026-04-22T08:13:10Z</time></trkpt><trkpt lat="42.85280366105697" lon="11.79125529264153"><ele>439.99999999999994</ele><time>2026-04-22T08:13:11Z</time></trkpt><trkpt lat="42.85281289028934" lon="11.791343994192383"><ele>440.0</ele><time>2026-04-22T08:13:12Z</time></trkpt><trkpt lat="42.8528723977906" lon="11.79144379933162"><ele>440.0</ele><time>2026-04-22T08:13:13Z</time></trkpt><trkpt lat="42.852920432648965" lon="11.791539952039422"><ele>440.0</ele><time>2026-04-22T08:13:14Z</time></trkpt><trkpt lat="42.852975457360046" lon="11.791613406669205"><ele>439.99999999999994</ele><time>2026-04-22T08:13:15Z</time></trkpt><trkpt lat="42.85304293896804" lon="11.791692768570403"><ele>440.0</ele><time>2026-04-22T08:13:16Z</time></trkpt><trkpt lat="42.85311463996642" lon="11.791777292059853"><ele>437.99999999999994</ele><time>2026-04-22T08:13:17Z</time></trkpt><trkpt lat="42.853179193264474" lon="11.791845936232214"><ele>436.0</ele><time>2026-04-22T08:13:18Z</time></trkpt><trkpt lat="42.85322996925021" lon="11.79191454011072"><ele>434.0</ele><time>2026-04-22T08:13:19Z</time></trkpt><trkpt lat="42.853254929567335" lon="11.791997403731823"><ele>432.0</ele><time>2026-04-22T08:13:20Z</time></trkpt><trkpt lat="42.853252432267396" lon="11.792102364967768"><ele>430.0</ele><time>2026-04-22T08:13:21Z</time></trkpt><trkpt lat="42.85321510526905" lon="11.792181953736018"><ele>427.99999999999994</ele><time>2026-04-22T08:13:22Z</time></trkpt><trkpt lat="42.85314851881623" lon="11.792228397192853"><ele>426.0</ele><time>2026-04-22T08:13:23Z</time></trkpt><trkpt lat="42.85307171140122" lon="11.79224325980728"><ele>426.0</ele><time>2026-04-22T08:13:24Z</time></trkpt><trkpt lat="42.852983679448435" lon="11.792197029672538"><ele>426.0</ele><time>2026-04-22T08:13:25Z</time></trkpt><trkpt lat="42.852904647750506" lon="11.792160521407439"><ele>426.0</ele><time>2026-04-22T08:13:26Z</time></trkpt><trkpt lat="42.852818774701525" lon="11.792123482033558"><ele>426.0</ele><time>2026-04-22T08:13:27Z</time></trkpt><trkpt lat="42.85273936403866" lon="11.792086784609262"><ele>426.0</ele><time>2026-04-22T08:13:28Z</time></trkpt><trkpt lat="42.85264859838174" lon="11.792034884965386"><ele>426.20000000000005</ele><time>2026-04-22T08:13:29Z</time></trkpt><trkpt lat="42.85255271820306" lon="11.791963408928702"><ele>426.40000000000003</ele><time>2026-04-22T08:13:30Z</time></trkpt><trkpt lat="42.85247476110186" lon="11.791887308115346"><ele>426.6</ele><time>2026-04-22T08:13:31Z</time></trkpt><trkpt lat="42.85238369441098" lon="11.79179320354066"><ele>426.8</ele><time>2026-04-22T08:13:32Z</time></trkpt><trkpt lat="42.85228412427778" lon="11.79169946221126"><ele>427.0</ele><time>2026-04-22T08:13:33Z</time></trkpt><trkpt lat="42.85221283087268" lon="11.791573180539212"><ele>427.00000000000006</ele><time>2026-04-22T08:13:34Z</time></trkpt><trkpt lat="42.8521320034794" lon="11.79149175098459"><ele>427.0</ele><time>2026-04-22T08:13:35Z</time></trkpt><trkpt lat="42.85206634535671" lon="11.791414594119065"><ele>427.0</ele><time>2026-04-22T08:13:36Z</time></trkpt><trkpt lat="42.8519876527719" lon="11.791357696106054"><ele>427.0</ele><time>2026-04-22T08:13:37Z</time></trkpt><trkpt lat="42.85191166374737" lon="11.791327676690706"><ele>427.00000000000006</ele><time>2026-04-22T08:13:38Z</time></trkpt><trkpt lat="42.851838190851865" lon="11.791330525513828"><ele>427.0</ele><time>2026-04-22T08:13:39Z</time></trkpt><trkpt lat="42.85175910446439" lon="11.79135654932213"><ele>425.0</ele><time>2026-04-22T08:13:40Z</time></trkpt><trkpt lat="42.8516951601942" lon="11.791396384445852"><ele>423.0</ele><time>2026-04-22T08:13:41Z</time></trkpt><trkpt lat="42.85164003726662" lon="11.791463358308299"><ele>421.0</ele><time>2026-04-22T08:13:42Z</time></trkpt><trkpt lat="42.851609354814876" lon="11.791545187610215"><ele>419.0</ele><time>2026-04-22T08:13:43Z</time></trkpt><trkpt lat="42.85160313292293" lon="11.79164161679062"><ele>417.0</ele><time>2026-04-22T08:13:44Z</time></trkpt><trkpt lat="42.85161775722347" lon="11.791734384110466"><ele>415.0</ele><time>2026-04-22T08:13:45Z</time></trkpt><trkpt lat="42.85164652446969" lon="11.791826669965609"><ele>413.0</ele><time>2026-04-22T08:13:46Z</time></trkpt><trkpt lat="42.85169097042845" lon="11.791920804426441"><ele>414.0</ele><time>2026-04-22T08:13:47Z</time></trkpt><trkpt lat="42.85175332647463" lon="11.792023347088456"><ele>415.0</ele><time>2026-04-22T08:13:48Z</time></trkpt><trkpt lat="42.85183038049699" lon="11.792122175276573"><ele>416.0</ele><time>2026-04-22T08:13:49Z</time></trkpt><trkpt lat="42.851910828851025" lon="11.792233719983738"><ele>417.0</ele><time>2026-04-22T08:13:50Z</time></trkpt><trkpt lat="42.85199126585808" lon="11.7923380214544"><ele>418.0</ele><time>2026-04-22T08:13:51Z</time></trkpt><trkpt lat="42.85205711147757" lon="11.792420995841594"><ele>418.00000000000006</ele><time>2026-04-22T08:13:52Z</time></trkpt><trkpt lat="42.85208967731695" lon="11.792521344443456"><ele>418.0</ele><time>2026-04-22T08:13:53Z</time></trkpt><trkpt lat="42.85211271700536" lon="11.792608590915815"><ele>418.0</ele><time>2026-04-22T08:13:54Z</time></trkpt><trkpt lat="42.85207343576538" lon="11.792745166070645"><ele>418.0</ele><time>2026-04-22T08:13:56Z</time></trkpt><trkpt lat="42.8520200195669" lon="11.79280014206945"><ele>418.00000000000006</ele><time>2026-04-22T08:13:57Z</time></trkpt><trkpt lat="42.85194404772263" lon="11.792810341572947"><ele>418.0</ele><time>2026-04-22T08:13:57.999Z</time></trkpt><trkpt lat="42.85186893144192" lon="11.792768040945088"><ele>418.00000000000006</ele><time>2026-04-22T08:13:58.999Z</time></trkpt><trkpt lat="42.85180573307986" lon="11.792660651683644"><ele>418.0</ele><time>2026-04-22T08:13:59.999Z</time></trkpt><trkpt lat="42.85173439971559" lon="11.792609535434547"><ele>418.0</ele><time>2026-04-22T08:14:00.999Z</time></trkpt><trkpt lat="42.85165908273099" lon="11.792637730283653"><ele>418.0</ele><time>2026-04-22T08:14:01.999Z</time></trkpt><trkpt lat="42.851585668168134" lon="11.792661401467555"><ele>418.00000000000006</ele><time>2026-04-22T08:14:02.999Z</time></trkpt><trkpt lat="42.851539522701486" lon="11.792770518984767"><ele>418.0</ele><time>2026-04-22T08:14:03.999Z</time></trkpt><trkpt lat="42.85149933468599" lon="11.792850520514804"><ele>414.4</ele><time>2026-04-22T08:14:04.999Z</time></trkpt><trkpt lat="42.851535581688374" lon="11.792971079809849"><ele>410.79999999999995</ele><time>2026-04-22T08:14:05.999Z</time></trkpt><trkpt lat="42.85157514497772" lon="11.793085638010101"><ele>407.2</ele><time>2026-04-22T08:14:06.999Z</time></trkpt><trkpt lat="42.85164778030269" lon="11.793203944206647"><ele>403.6</ele><time>2026-04-22T08:14:07.999Z</time></trkpt><trkpt lat="42.851729569104045" lon="11.793306269241649"><ele>400.0</ele><time>2026-04-22T08:14:08.999Z</time></trkpt><trkpt lat="42.851786406497844" lon="11.79340603486047"><ele>398.33333333333337</ele><time>2026-04-22T08:14:09.999Z</time></trkpt><trkpt lat="42.85179493729123" lon="11.793514975616212"><ele>396.6666666666667</ele><time>2026-04-22T08:14:10.999Z</time></trkpt><trkpt lat="42.85177970756471" lon="11.793691728018816"><ele>395.0</ele><time>2026-04-22T08:14:12.999Z</time></trkpt><trkpt lat="42.85175356316321" lon="11.793791953896278"><ele>393.33333333333337</ele><time>2026-04-22T08:14:13.999Z</time></trkpt><trkpt lat="42.85169926206553" lon="11.79385227107274"><ele>391.6666666666667</ele><time>2026-04-22T08:14:14.999Z</time></trkpt><trkpt lat="42.85163761874161" lon="11.793896788886096"><ele>390.0</ele><time>2026-04-22T08:14:15.999Z</time></trkpt><trkpt lat="42.85156338218278" lon="11.793913715133439"><ele>389.6</ele><time>2026-04-22T08:14:16.999Z</time></trkpt><trkpt lat="42.85147177780593" lon="11.79389916753759"><ele>389.2</ele><time>2026-04-22T08:14:17.999Z</time></trkpt><trkpt lat="42.85138011359289" lon="11.793884182880689"><ele>388.79999999999995</ele><time>2026-04-22T08:14:18.999Z</time></trkpt><trkpt lat="42.85127779912481" lon="11.793858774491282"><ele>388.4</ele><time>2026-04-22T08:14:19.999Z</time></trkpt><trkpt lat="42.85117618424518" lon="11.793826087383431"><ele>388.0</ele><time>2026-04-22T08:14:20.999Z</time></trkpt><trkpt lat="42.851094921001675" lon="11.793794930110867"><ele>388.00000000000006</ele><time>2026-04-22T08:14:21.999Z</time></trkpt><trkpt lat="42.851021982874094" lon="11.79375781700998"><ele>388.0</ele><time>2026-04-22T08:14:22.999Z</time></trkpt><trkpt lat="42.85093801894646" lon="11.793708124614941"><ele>388.0</ele><time>2026-04-22T08:14:23.999Z</time></trkpt><trkpt lat="42.85087507118308" lon="11.793623449530854"><ele>388.0</ele><time>2026-04-22T08:14:24.999Z</time></trkpt><trkpt lat="42.85084474961992" lon="11.793501959294453"><ele>388.00000000000006</ele><time>2026-04-22T08:14:25.999Z</time></trkpt><trkpt lat="42.85083904537925" lon="11.793399171450075"><ele>388.0</ele><time>2026-04-22T08:14:26.999Z</time></trkpt><trkpt lat="42.85082670819527" lon="11.79328820515244"><ele>387.79999999999995</ele><time>2026-04-22T08:14:27.999Z</time></trkpt><trkpt lat="42.85080530913918" lon="11.793145774312617"><ele>387.6</ele><time>2026-04-22T08:14:28.999Z</time></trkpt><trkpt lat="42.850775884284865" lon="11.79303589476329"><ele>387.4</ele><time>2026-04-22T08:14:29.999Z</time></trkpt><trkpt lat="42.850708594967315" lon="11.792957024802247"><ele>387.20000000000005</ele><time>2026-04-22T08:14:30.999Z</time></trkpt><trkpt lat="42.850633685343155" lon="11.792882404754696"><ele>387.0</ele><time>2026-04-22T08:14:31.999Z</time></trkpt><trkpt lat="42.85054697614493" lon="11.792860246661014"><ele>387.0</ele><time>2026-04-22T08:14:32.999Z</time></trkpt><trkpt lat="42.85046880492669" lon="11.792847028079047"><ele>387.0</ele><time>2026-04-22T08:14:34Z</time></trkpt><trkpt lat="42.85038803259625" lon="11.792844966769325"><ele>387.0</ele><time>2026-04-22T08:14:35Z</time></trkpt><trkpt lat="42.85030503052599" lon="11.792850781374216"><ele>387.0</ele><time>2026-04-22T08:14:36Z</time></trkpt><trkpt lat="42.85020779508122" lon="11.792854384048695"><ele>387.0</ele><time>2026-04-22T08:14:37Z</time></trkpt><trkpt lat="42.850123096085596" lon="11.792843824331372"><ele>387.0</ele><time>2026-04-22T08:14:38Z</time></trkpt><trkpt lat="42.85005539292543" lon="11.79280523029348"><ele>385.20000000000005</ele><time>2026-04-22T08:14:39Z</time></trkpt><trkpt lat="42.849993074122914" lon="11.792743837966631"><ele>383.4</ele><time>2026-04-22T08:14:40Z</time></trkpt><trkpt lat="42.849959357852725" lon="11.792640288639364"><ele>381.6</ele><time>2026-04-22T08:14:41Z</time></trkpt><trkpt lat="42.84992349596193" lon="11.792529948095154"><ele>379.79999999999995</ele><time>2026-04-22T08:14:42Z</time></trkpt><trkpt lat="42.84988331858161" lon="11.79240594857014"><ele>378.0</ele><time>2026-04-22T08:14:43Z</time></trkpt><trkpt lat="42.84983640613799" lon="11.792279036064702"><ele>378.0</ele><time>2026-04-22T08:14:44Z</time></trkpt><trkpt lat="42.84977227741116" lon="11.792171423746172"><ele>378.0</ele><time>2026-04-22T08:14:45Z</time></trkpt><trkpt lat="42.84970527186473" lon="11.792052878935378"><ele>378.0</ele><time>2026-04-22T08:14:46Z</time></trkpt><trkpt lat="42.84962464085365" lon="11.791931302229008"><ele>378.0</ele><time>2026-04-22T08:14:47Z</time></trkpt><trkpt lat="42.84953783430217" lon="11.791815905352417"><ele>379.0</ele><time>2026-04-22T08:14:48Z</time></trkpt><trkpt lat="42.849446329523026" lon="11.791715520750023"><ele>380.0</ele><time>2026-04-22T08:14:49Z</time></trkpt><trkpt lat="42.84935906156514" lon="11.791631119634035"><ele>381.0</ele><time>2026-04-22T08:14:50Z</time></trkpt><trkpt lat="42.84927816947141" lon="11.791542826655036"><ele>382.0</ele><time>2026-04-22T08:14:51Z</time></trkpt><trkpt lat="42.849194858534595" lon="11.791442876339339"><ele>383.0</ele><time>2026-04-22T08:14:52Z</time></trkpt><trkpt lat="42.84910151008017" lon="11.791340040219266"><ele>381.2</ele><time>2026-04-22T08:14:53Z</time></trkpt><trkpt lat="42.849008881115665" lon="11.79122558983955"><ele>379.4</ele><time>2026-04-22T08:14:54Z</time></trkpt><trkpt lat="42.84894128717406" lon="11.79110473487279"><ele>377.59999999999997</ele><time>2026-04-22T08:14:55Z</time></trkpt><trkpt lat="42.84887167996547" lon="11.791000133309064"><ele>375.79999999999995</ele><time>2026-04-22T08:14:56Z</time></trkpt><trkpt lat="42.848812729148605" lon="11.790898493639109"><ele>374.0</ele><time>2026-04-22T08:14:57Z</time></trkpt><trkpt lat="42.84875705416699" lon="11.79079072747932"><ele>374.0</ele><time>2026-04-22T08:14:58Z</time></trkpt><trkpt lat="42.8486893261919" lon="11.790685208766423"><ele>374.0</ele><time>2026-04-22T08:14:59Z</time></trkpt><trkpt lat="42.848652528561075" lon="11.790558342676762"><ele>374.0</ele><time>2026-04-22T08:15:00Z</time></trkpt><trkpt lat="42.84859168959912" lon="11.79045160188015"><ele>374.0</ele><time>2026-04-22T08:15:01Z</time></trkpt><trkpt lat="42.848549289333455" lon="11.790331343500032"><ele>374.0</ele><time>2026-04-22T08:15:02Z</time></trkpt><trkpt lat="42.848505196650834" lon="11.790215162568686"><ele>370.6</ele><time>2026-04-22T08:15:03Z</time></trkpt><trkpt lat="42.84844690544419" lon="11.790110246163284"><ele>367.2</ele><time>2026-04-22T08:15:04Z</time></trkpt><trkpt lat="42.848376286156025" lon="11.790032745684286"><ele>363.8</ele><time>2026-04-22T08:15:05Z</time></trkpt><trkpt lat="42.848294971761064" lon="11.78998328311416"><ele>360.40000000000003</ele><time>2026-04-22T08:15:06Z</time></trkpt><trkpt lat="42.84819856136015" lon="11.789953974538335"><ele>357.0</ele><time>2026-04-22T08:15:07Z</time></trkpt><trkpt lat="42.84810623629703" lon="11.78995172476001"><ele>357.0</ele><time>2026-04-22T08:15:08Z</time></trkpt><trkpt lat="42.84801191206474" lon="11.789972351837182"><ele>357.0</ele><time>2026-04-22T08:15:09Z</time></trkpt><trkpt lat="42.84792746500814" lon="11.790020880251816"><ele>357.0</ele><time>2026-04-22T08:15:10Z</time></trkpt><trkpt lat="42.84786442455576" lon="11.790093257267642"><ele>357.0</ele><time>2026-04-22T08:15:11Z</time></trkpt><trkpt lat="42.84778949196808" lon="11.790161360630664"><ele>357.0</ele><time>2026-04-22T08:15:12Z</time></trkpt><trkpt lat="42.847719714190816" lon="11.790237011218588"><ele>357.0</ele><time>2026-04-22T08:15:13Z</time></trkpt><trkpt lat="42.847645230865794" lon="11.790311498208993"><ele>354.8333333333333</ele><time>2026-04-22T08:15:14Z</time></trkpt><trkpt lat="42.84758699377702" lon="11.79037094393425"><ele>352.6666666666667</ele><time>2026-04-22T08:15:15Z</time></trkpt><trkpt lat="42.84750775648855" lon="11.79033202369126"><ele>350.5</ele><time>2026-04-22T08:15:16Z</time></trkpt><trkpt lat="42.847375868345395" lon="11.790252121943965"><ele>348.33333333333337</ele><time>2026-04-22T08:15:18Z</time></trkpt><trkpt lat="42.84731569126547" lon="11.79020316554556"><ele>346.1666666666667</ele><time>2026-04-22T08:15:19Z</time></trkpt><trkpt lat="42.847253174160215" lon="11.790149641968215"><ele>344.0</ele><time>2026-04-22T08:15:20Z</time></trkpt><trkpt lat="42.8471962959217" lon="11.790087414122366"><ele>344.0</ele><time>2026-04-22T08:15:21Z</time></trkpt><trkpt lat="42.84714974337835" lon="11.790026870234295"><ele>344.0</ele><time>2026-04-22T08:15:22Z</time></trkpt><trkpt lat="42.84709095290422" lon="11.789885144898246"><ele>344.0</ele><time>2026-04-22T08:15:24Z</time></trkpt><trkpt lat="42.847056510430924" lon="11.78971099206864"><ele>344.0</ele><time>2026-04-22T08:15:26Z</time></trkpt><trkpt lat="42.847042858822476" lon="11.789607433210348"><ele>344.0</ele><time>2026-04-22T08:15:27Z</time></trkpt><trkpt lat="42.84703643029656" lon="11.789483069699084"><ele>344.0</ele><time>2026-04-22T08:15:28Z</time></trkpt><trkpt lat="42.84705804388548" lon="11.789367223210862"><ele>344.0</ele><time>2026-04-22T08:15:29Z</time></trkpt><trkpt lat="42.84704539851106" lon="11.789266094806921"><ele>344.0</ele><time>2026-04-22T08:15:30Z</time></trkpt><trkpt lat="42.84704558579109" lon="11.789170228639131"><ele>344.0</ele><time>2026-04-22T08:15:31Z</time></trkpt><trkpt lat="42.84703901603365" lon="11.789075446770564"><ele>344.0</ele><time>2026-04-22T08:15:32Z</time></trkpt><trkpt lat="42.846980854250425" lon="11.789008890320257"><ele>344.0</ele><time>2026-04-22T08:15:33Z</time></trkpt><trkpt lat="42.8468976120035" lon="11.788978743007803"><ele>343.6</ele><time>2026-04-22T08:15:34Z</time></trkpt><trkpt lat="42.84680292036618" lon="11.789015642666776"><ele>343.2</ele><time>2026-04-22T08:15:35Z</time></trkpt><trkpt lat="42.84670080125496" lon="11.789046313106157"><ele>342.8</ele><time>2026-04-22T08:15:36Z</time></trkpt><trkpt lat="42.8465976550731" lon="11.789069701406627"><ele>342.40000000000003</ele><time>2026-04-22T08:15:37Z</time></trkpt><trkpt lat="42.84649254275534" lon="11.789024605936342"><ele>342.0</ele><time>2026-04-22T08:15:38Z</time></trkpt><trkpt lat="42.846387851613414" lon="11.78897142439992"><ele>338.0</ele><time>2026-04-22T08:15:39Z</time></trkpt><trkpt lat="42.84626814219765" lon="11.788907372565163"><ele>334.0</ele><time>2026-04-22T08:15:40Z</time></trkpt><trkpt lat="42.84615405482569" lon="11.788850228540303"><ele>330.0</ele><time>2026-04-22T08:15:41Z</time></trkpt><trkpt lat="42.8460487826599" lon="11.788822996296444"><ele>326.0</ele><time>2026-04-22T08:15:42Z</time></trkpt><trkpt lat="42.84595422784577" lon="11.788773247847606"><ele>324.75</ele><time>2026-04-22T08:15:43Z</time></trkpt><trkpt lat="42.84585271218395" lon="11.788746653941985"><ele>323.5</ele><time>2026-04-22T08:15:44Z</time></trkpt><trkpt lat="42.84574112179814" lon="11.788754004188686"><ele>322.25</ele><time>2026-04-22T08:15:45Z</time></trkpt><trkpt lat="42.845619655449255" lon="11.788752266683563"><ele>321.0</ele><time>2026-04-22T08:15:46Z</time></trkpt><trkpt lat="42.845492057757916" lon="11.788713607210411"><ele>321.0</ele><time>2026-04-22T08:15:47Z</time></trkpt><trkpt lat="42.84535822195469" lon="11.788684855812114"><ele>321.0</ele><time>2026-04-22T08:15:48Z</time></trkpt><trkpt lat="42.84523282816744" lon="11.788650338638517"><ele>321.0</ele><time>2026-04-22T08:15:49Z</time></trkpt><trkpt lat="42.845104108869464" lon="11.788615094074759"><ele>321.0</ele><time>2026-04-22T08:15:50Z</time></trkpt><trkpt lat="42.84497559690047" lon="11.788591414504264"><ele>320.2</ele><time>2026-04-22T08:15:51Z</time></trkpt><trkpt lat="42.84486330860124" lon="11.788556288339842"><ele>319.40000000000003</ele><time>2026-04-22T08:15:52Z</time></trkpt><trkpt lat="42.84475654924624" lon="11.788541011500293"><ele>318.6</ele><time>2026-04-22T08:15:53Z</time></trkpt><trkpt lat="42.844671153175" lon="11.78851640860448"><ele>317.8</ele><time>2026-04-22T08:15:54Z</time></trkpt><trkpt lat="42.844594977714685" lon="11.788566705596466"><ele>317.0</ele><time>2026-04-22T08:15:55Z</time></trkpt><trkpt lat="42.84450704038252" lon="11.788606308804853"><ele>317.0</ele><time>2026-04-22T08:15:56Z</time></trkpt><trkpt lat="42.84440522971117" lon="11.788655480731991"><ele>317.0</ele><time>2026-04-22T08:15:57Z</time></trkpt><trkpt lat="42.84430498708871" lon="11.788708834724195"><ele>317.0</ele><time>2026-04-22T08:15:58Z</time></trkpt><trkpt lat="42.844200046183886" lon="11.788766300948659"><ele>317.0</ele><time>2026-04-22T08:15:59Z</time></trkpt><trkpt lat="42.84408877700722" lon="11.78882097617265"><ele>317.0</ele><time>2026-04-22T08:16:00Z</time></trkpt><trkpt lat="42.84399537826383" lon="11.788874518562379"><ele>316.4</ele><time>2026-04-22T08:16:01Z</time></trkpt><trkpt lat="42.843899008832885" lon="11.788941648644194"><ele>315.79999999999995</ele><time>2026-04-22T08:16:02Z</time></trkpt><trkpt lat="42.84380112058204" lon="11.789004844078924"><ele>315.2</ele><time>2026-04-22T08:16:03Z</time></trkpt><trkpt lat="42.84370977502864" lon="11.789039912431504"><ele>314.59999999999997</ele><time>2026-04-22T08:16:04Z</time></trkpt><trkpt lat="42.84362508914571" lon="11.789062369346174"><ele>314.0</ele><time>2026-04-22T08:16:05Z</time></trkpt><trkpt lat="42.843534764605494" lon="11.789068671718942"><ele>313.75</ele><time>2026-04-22T08:16:06Z</time></trkpt><trkpt lat="42.84343841307962" lon="11.789039430875805"><ele>313.5</ele><time>2026-04-22T08:16:07Z</time></trkpt><trkpt lat="42.8433224347821" lon="11.78904279899003"><ele>313.25</ele><time>2026-04-22T08:16:08Z</time></trkpt><trkpt lat="42.84320222874835" lon="11.789035195582512"><ele>313.0</ele><time>2026-04-22T08:16:09Z</time></trkpt><trkpt lat="42.84308917106745" lon="11.788994264451196"><ele>313.0</ele><time>2026-04-22T08:16:10Z</time></trkpt><trkpt lat="42.84296724796589" lon="11.788955025891813"><ele>313.0</ele><time>2026-04-22T08:16:11Z</time></trkpt><trkpt lat="42.84283992829098" lon="11.788911209673174"><ele>313.0</ele><time>2026-04-22T08:16:11.999Z</time></trkpt><trkpt lat="42.84270433207471" lon="11.788861204098517"><ele>313.0</ele><time>2026-04-22T08:16:12.999Z</time></trkpt><trkpt lat="42.842572085268" lon="11.788805248624307"><ele>312.5</ele><time>2026-04-22T08:16:13.999Z</time></trkpt><trkpt lat="42.84244334488259" lon="11.788754517006467"><ele>312.0</ele><time>2026-04-22T08:16:14.999Z</time></trkpt><trkpt lat="42.842316314191" lon="11.788701720439736"><ele>311.5</ele><time>2026-04-22T08:16:15.999Z</time></trkpt><trkpt lat="42.84218741285791" lon="11.788651787922658"><ele>311.0</ele><time>2026-04-22T08:16:16.999Z</time></trkpt><trkpt lat="42.84206237874181" lon="11.788593718791354"><ele>311.0</ele><time>2026-04-22T08:16:17.999Z</time></trkpt><trkpt lat="42.84194763191501" lon="11.788548404275476"><ele>311.0</ele><time>2026-04-22T08:16:18.999Z</time></trkpt><trkpt lat="42.84184109436325" lon="11.788503871835866"><ele>311.0</ele><time>2026-04-22T08:16:19.999Z</time></trkpt><trkpt lat="42.841772303455905" lon="11.788443628582316"><ele>311.0</ele><time>2026-04-22T08:16:20.999Z</time></trkpt><trkpt lat="42.84170839490437" lon="11.788358198902074"><ele>311.0</ele><time>2026-04-22T08:16:21.999Z</time></trkpt><trkpt lat="42.84165232351649" lon="11.788250490068007"><ele>311.0</ele><time>2026-04-22T08:16:22.999Z</time></trkpt><trkpt lat="42.84161531888898" lon="11.788098565170252"><ele>311.0</ele><time>2026-04-22T08:16:23.999Z</time></trkpt><trkpt lat="42.841559710268726" lon="11.787945500653027"><ele>311.0</ele><time>2026-04-22T08:16:24.999Z</time></trkpt><trkpt lat="42.84151765159764" lon="11.787772299411724"><ele>311.0</ele><time>2026-04-22T08:16:25.999Z</time></trkpt><trkpt lat="42.84148151365431" lon="11.787592551289062"><ele>311.0</ele><time>2026-04-22T08:16:26.999Z</time></trkpt><trkpt lat="42.84143592422769" lon="11.787415792735084"><ele>311.0</ele><time>2026-04-22T08:16:27.999Z</time></trkpt><trkpt lat="42.84139226171042" lon="11.787240106791188"><ele>311.0</ele><time>2026-04-22T08:16:28.999Z</time></trkpt><trkpt lat="42.841377978049195" lon="11.78705007634447"><ele>311.0</ele><time>2026-04-22T08:16:29.999Z</time></trkpt><trkpt lat="42.84131773982199" lon="11.786868785837175"><ele>312.5</ele><time>2026-04-22T08:16:30.999Z</time></trkpt><trkpt lat="42.8412729917213" lon="11.786686414815858"><ele>314.0</ele><time>2026-04-22T08:16:31.999Z</time></trkpt><trkpt lat="42.84122345997266" lon="11.786509288037914"><ele>315.5</ele><time>2026-04-22T08:16:32.999Z</time></trkpt><trkpt lat="42.841209831395346" lon="11.78632435401799"><ele>317.0</ele><time>2026-04-22T08:16:33.999Z</time></trkpt><trkpt lat="42.84118777444135" lon="11.786145327726642"><ele>319.5</ele><time>2026-04-22T08:16:34.999Z</time></trkpt><trkpt lat="42.841171505034644" lon="11.785970527158096"><ele>322.0</ele><time>2026-04-22T08:16:35.999Z</time></trkpt><trkpt lat="42.84115108592057" lon="11.785797779473995"><ele>324.5</ele><time>2026-04-22T08:16:36.999Z</time></trkpt><trkpt lat="42.84111879211923" lon="11.785635166928307"><ele>327.0</ele><time>2026-04-22T08:16:37.999Z</time></trkpt><trkpt lat="42.8410621346978" lon="11.785486753876459"><ele>327.0</ele><time>2026-04-22T08:16:39Z</time></trkpt><trkpt lat="42.84099232610902" lon="11.785356819986657"><ele>327.0</ele><time>2026-04-22T08:16:40Z</time></trkpt><trkpt lat="42.84089813164765" lon="11.78525594121236"><ele>327.0</ele><time>2026-04-22T08:16:41Z</time></trkpt><trkpt lat="42.84081743711773" lon="11.785133260349967"><ele>327.0</ele><time>2026-04-22T08:16:42Z</time></trkpt><trkpt lat="42.840741705643495" lon="11.784992503011178"><ele>325.75</ele><time>2026-04-22T08:16:43Z</time></trkpt><trkpt lat="42.84064914449056" lon="11.784866955001899"><ele>324.5</ele><time>2026-04-22T08:16:44Z</time></trkpt><trkpt lat="42.84055348579437" lon="11.78472159977747"><ele>323.25</ele><time>2026-04-22T08:16:45Z</time></trkpt><trkpt lat="42.840462163784395" lon="11.784568751357805"><ele>322.0</ele><time>2026-04-22T08:16:46Z</time></trkpt><trkpt lat="42.840329967760596" lon="11.784466920681396"><ele>322.0</ele><time>2026-04-22T08:16:47Z</time></trkpt><trkpt lat="42.840188245606335" lon="11.784377546959913"><ele>322.0</ele><time>2026-04-22T08:16:48Z</time></trkpt><trkpt lat="42.84003978465029" lon="11.784302621180629"><ele>322.0</ele><time>2026-04-22T08:16:49Z</time></trkpt><trkpt lat="42.839894474818855" lon="11.784235010081431"><ele>321.0</ele><time>2026-04-22T08:16:50Z</time></trkpt><trkpt lat="42.839746159440175" lon="11.78414974981819"><ele>320.0</ele><time>2026-04-22T08:16:51Z</time></trkpt><trkpt lat="42.83959812469096" lon="11.784058657495775"><ele>319.0</ele><time>2026-04-22T08:16:52Z</time></trkpt><trkpt lat="42.839451556411454" lon="11.783973820307034"><ele>319.0</ele><time>2026-04-22T08:16:53Z</time></trkpt><trkpt lat="42.83930314185687" lon="11.783893815134299"><ele>319.0</ele><time>2026-04-22T08:16:54Z</time></trkpt><trkpt lat="42.83915987131084" lon="11.783789551024158"><ele>319.0</ele><time>2026-04-22T08:16:55Z</time></trkpt><trkpt lat="42.839003465563515" lon="11.783710545291678"><ele>317.3333333333333</ele><time>2026-04-22T08:16:56Z</time></trkpt><trkpt lat="42.8388385137058" lon="11.783648811337526"><ele>315.6666666666667</ele><time>2026-04-22T08:16:57Z</time></trkpt><trkpt lat="42.83868471536256" lon="11.783564594602165"><ele>314.0</ele><time>2026-04-22T08:16:58Z</time></trkpt><trkpt lat="42.838534252474965" lon="11.783475848144622"><ele>315.0</ele><time>2026-04-22T08:16:59Z</time></trkpt><trkpt lat="42.83837994226769" lon="11.783378660336071"><ele>316.0</ele><time>2026-04-22T08:17:00Z</time></trkpt><trkpt lat="42.83823016270314" lon="11.783278964782822"><ele>317.0</ele><time>2026-04-22T08:17:01Z</time></trkpt><trkpt lat="42.838087108911594" lon="11.78317605928263"><ele>317.0</ele><time>2026-04-22T08:17:02Z</time></trkpt><trkpt lat="42.83796007771674" lon="11.783057537540898"><ele>317.0</ele><time>2026-04-22T08:17:03Z</time></trkpt><trkpt lat="42.83782577705224" lon="11.782985349720267"><ele>317.0</ele><time>2026-04-22T08:17:04Z</time></trkpt><trkpt lat="42.837697186962515" lon="11.782889446055679"><ele>317.0</ele><time>2026-04-22T08:17:05Z</time></trkpt><trkpt lat="42.837562772504356" lon="11.78279158088435"><ele>316.5</ele><time>2026-04-22T08:17:06Z</time></trkpt><trkpt lat="42.83744117996505" lon="11.78267069309767"><ele>316.0</ele><time>2026-04-22T08:17:07Z</time></trkpt><trkpt lat="42.837308878792896" lon="11.782610952942626"><ele>315.5</ele><time>2026-04-22T08:17:08Z</time></trkpt><trkpt lat="42.83719671837578" lon="11.782538332308436"><ele>315.0</ele><time>2026-04-22T08:17:09Z</time></trkpt><trkpt lat="42.83706943695376" lon="11.782478555593357"><ele>315.0</ele><time>2026-04-22T08:17:10Z</time></trkpt><trkpt lat="42.83694433361241" lon="11.782402356485056"><ele>315.0</ele><time>2026-04-22T08:17:11Z</time></trkpt><trkpt lat="42.836698514169214" lon="11.782236542947443"><ele>315.0</ele><time>2026-04-22T08:17:13Z</time></trkpt><trkpt lat="42.83658438085155" lon="11.782136927222485"><ele>313.75</ele><time>2026-04-22T08:17:14Z</time></trkpt><trkpt lat="42.836472195656064" lon="11.782030891202433"><ele>312.5</ele><time>2026-04-22T08:17:15Z</time></trkpt><trkpt lat="42.83636470445512" lon="11.781898574749425"><ele>311.25</ele><time>2026-04-22T08:17:16Z</time></trkpt><trkpt lat="42.83626616451869" lon="11.781754954836877"><ele>310.0</ele><time>2026-04-22T08:17:17Z</time></trkpt><trkpt lat="42.83618435203038" lon="11.78160888371832"><ele>312.5</ele><time>2026-04-22T08:17:18Z</time></trkpt><trkpt lat="42.836125322905666" lon="11.781466672719356"><ele>315.0</ele><time>2026-04-22T08:17:19Z</time></trkpt><trkpt lat="42.836113417491056" lon="11.78131595629147"><ele>317.5</ele><time>2026-04-22T08:17:20Z</time></trkpt><trkpt lat="42.83609158029916" lon="11.781161302998916"><ele>320.0</ele><time>2026-04-22T08:17:21Z</time></trkpt><trkpt lat="42.83607474162647" lon="11.781011457322155"><ele>321.0</ele><time>2026-04-22T08:17:22Z</time></trkpt><trkpt lat="42.83603904164015" lon="11.78083508427817"><ele>322.0</ele><time>2026-04-22T08:17:23Z</time></trkpt><trkpt lat="42.83595734597072" lon="11.78069374498599"><ele>323.0</ele><time>2026-04-22T08:17:24Z</time></trkpt><trkpt lat="42.83587969796918" lon="11.78057924722936"><ele>324.0</ele><time>2026-04-22T08:17:25Z</time></trkpt><trkpt lat="42.83578847524851" lon="11.78050748588994"><ele>320.75</ele><time>2026-04-22T08:17:26Z</time></trkpt><trkpt lat="42.8356797636733" lon="11.780451064899072"><ele>317.5</ele><time>2026-04-22T08:17:27Z</time></trkpt><trkpt lat="42.835559850859255" lon="11.780418261901499"><ele>314.25</ele><time>2026-04-22T08:17:28Z</time></trkpt><trkpt lat="42.83542787315495" lon="11.780401950425476"><ele>311.0</ele><time>2026-04-22T08:17:29Z</time></trkpt><trkpt lat="42.83528714822747" lon="11.780394269008841"><ele>311.0</ele><time>2026-04-22T08:17:30Z</time></trkpt><trkpt lat="42.83514706271903" lon="11.780350280837697"><ele>311.0</ele><time>2026-04-22T08:17:31Z</time></trkpt><trkpt lat="42.83500144038948" lon="11.780349215943412"><ele>311.0</ele><time>2026-04-22T08:17:32Z</time></trkpt><trkpt lat="42.834851771429484" lon="11.780326081594463"><ele>311.0</ele><time>2026-04-22T08:17:33Z</time></trkpt><trkpt lat="42.834709787845455" lon="11.780284787130345"><ele>310.5</ele><time>2026-04-22T08:17:34Z</time></trkpt><trkpt lat="42.834582442860196" lon="11.78025471135696"><ele>310.0</ele><time>2026-04-22T08:17:35Z</time></trkpt><trkpt lat="42.83446221631054" lon="11.780224653681305"><ele>309.5</ele><time>2026-04-22T08:17:36Z</time></trkpt><trkpt lat="42.834344171333456" lon="11.780188722857726"><ele>309.0</ele><time>2026-04-22T08:17:37Z</time></trkpt><trkpt lat="42.83408216561883" lon="11.780092820796847"><ele>309.0</ele><time>2026-04-22T08:17:39Z</time></trkpt><trkpt lat="42.83393569512496" lon="11.780019726385232"><ele>309.0</ele><time>2026-04-22T08:17:40Z</time></trkpt><trkpt lat="42.83380648952086" lon="11.779923027448868"><ele>309.0</ele><time>2026-04-22T08:17:41Z</time></trkpt><trkpt lat="42.8336837967169" lon="11.779838897070759"><ele>309.0</ele><time>2026-04-22T08:17:42Z</time></trkpt><trkpt lat="42.83357336789689" lon="11.779749915945757"><ele>309.0</ele><time>2026-04-22T08:17:43Z</time></trkpt><trkpt lat="42.83347252274968" lon="11.779646965104094"><ele>309.0</ele><time>2026-04-22T08:17:44Z</time></trkpt><trkpt lat="42.83338113756391" lon="11.779540275341917"><ele>309.0</ele><time>2026-04-22T08:17:45Z</time></trkpt><trkpt lat="42.833298798668395" lon="11.779436213753275"><ele>309.0</ele><time>2026-04-22T08:17:46Z</time></trkpt><trkpt lat="42.83321783679843" lon="11.779341886470348"><ele>307.75</ele><time>2026-04-22T08:17:47Z</time></trkpt><trkpt lat="42.833127147478166" lon="11.779216730816133"><ele>306.5</ele><time>2026-04-22T08:17:48Z</time></trkpt><trkpt lat="42.833032825605365" lon="11.779083801749714"><ele>305.25</ele><time>2026-04-22T08:17:49Z</time></trkpt><trkpt lat="42.832937000571846" lon="11.778956200814404"><ele>304.0</ele><time>2026-04-22T08:17:50Z</time></trkpt><trkpt lat="42.8328360448754" lon="11.778820330947802"><ele>304.0</ele><time>2026-04-22T08:17:51Z</time></trkpt><trkpt lat="42.83272737479806" lon="11.778673275039063"><ele>304.0</ele><time>2026-04-22T08:17:52Z</time></trkpt><trkpt lat="42.832615103282855" lon="11.778515826046217"><ele>304.0</ele><time>2026-04-22T08:17:53Z</time></trkpt><trkpt lat="42.832503104450254" lon="11.778359340138758"><ele>303.0</ele><time>2026-04-22T08:17:54Z</time></trkpt><trkpt lat="42.83238654179539" lon="11.778211984763916"><ele>302.0</ele><time>2026-04-22T08:17:55Z</time></trkpt><trkpt lat="42.832284215002105" lon="11.778063131034223"><ele>301.0</ele><time>2026-04-22T08:17:56Z</time></trkpt><trkpt lat="42.83217803393009" lon="11.777913443909608"><ele>301.0</ele><time>2026-04-22T08:17:57Z</time></trkpt><trkpt lat="42.832077953892856" lon="11.777765618454294"><ele>301.0</ele><time>2026-04-22T08:17:58Z</time></trkpt><trkpt lat="42.831949146905366" lon="11.777644410613917"><ele>301.0</ele><time>2026-04-22T08:17:59Z</time></trkpt><trkpt lat="42.831800144472915" lon="11.777539523769994"><ele>300.66666666666663</ele><time>2026-04-22T08:18:00Z</time></trkpt><trkpt lat="42.83162971924752" lon="11.777448314476631"><ele>300.3333333333333</ele><time>2026-04-22T08:18:01Z</time></trkpt><trkpt lat="42.83145375942146" lon="11.777386646875511"><ele>300.0</ele><time>2026-04-22T08:18:02Z</time></trkpt><trkpt lat="42.83128145924881" lon="11.77731056577415"><ele>300.0</ele><time>2026-04-22T08:18:03Z</time></trkpt><trkpt lat="42.83108629688002" lon="11.777249408583137"><ele>300.0</ele><time>2026-04-22T08:18:04Z</time></trkpt><trkpt lat="42.83088073528344" lon="11.777198627693162"><ele>300.0</ele><time>2026-04-22T08:18:05Z</time></trkpt><trkpt lat="42.83067628219765" lon="11.777120143192548"><ele>299.3333333333333</ele><time>2026-04-22T08:18:06Z</time></trkpt><trkpt lat="42.830467362865924" lon="11.77706745132837"><ele>298.66666666666663</ele><time>2026-04-22T08:18:07Z</time></trkpt><trkpt lat="42.830249725820124" lon="11.777035997888655"><ele>298.0</ele><time>2026-04-22T08:18:08Z</time></trkpt><trkpt lat="42.83003392258983" lon="11.776978060258141"><ele>297.66666666666663</ele><time>2026-04-22T08:18:09Z</time></trkpt><trkpt lat="42.82982412905595" lon="11.776902760086694"><ele>297.3333333333333</ele><time>2026-04-22T08:18:10Z</time></trkpt><trkpt lat="42.82961270995507" lon="11.776846392362492"><ele>297.0</ele><time>2026-04-22T08:18:11Z</time></trkpt><trkpt lat="42.829399749942496" lon="11.776791066812429"><ele>298.0</ele><time>2026-04-22T08:18:12Z</time></trkpt><trkpt lat="42.82919199885045" lon="11.776739093314161"><ele>299.0</ele><time>2026-04-22T08:18:13Z</time></trkpt><trkpt lat="42.82898715336496" lon="11.77668784673413"><ele>300.0</ele><time>2026-04-22T08:18:14Z</time></trkpt><trkpt lat="42.82879378004119" lon="11.77663947008972"><ele>300.0</ele><time>2026-04-22T08:18:15Z</time></trkpt><trkpt lat="42.82861415512278" lon="11.776594532972172"><ele>300.0</ele><time>2026-04-22T08:18:16Z</time></trkpt><trkpt lat="42.82843774244755" lon="11.776550399515461"><ele>300.0</ele><time>2026-04-22T08:18:17Z</time></trkpt><trkpt lat="42.82826651598517" lon="11.776507565139113"><ele>299.3333333333333</ele><time>2026-04-22T08:18:18Z</time></trkpt><trkpt lat="42.828101579608216" lon="11.77646820305021"><ele>298.66666666666663</ele><time>2026-04-22T08:18:19Z</time></trkpt><trkpt lat="42.82793988259493" lon="11.776434638633889"><ele>298.0</ele><time>2026-04-22T08:18:19.999Z</time></trkpt><trkpt lat="42.827790404433166" lon="11.776420894741541"><ele>298.0</ele><time>2026-04-22T08:18:20.999Z</time></trkpt><trkpt lat="42.827651516071924" lon="11.776470875344522"><ele>298.0</ele><time>2026-04-22T08:18:21.999Z</time></trkpt><trkpt lat="42.82750888432587" lon="11.776532767343012"><ele>298.0</ele><time>2026-04-22T08:18:22.999Z</time></trkpt><trkpt lat="42.82734934714898" lon="11.776608615604582"><ele>298.0</ele><time>2026-04-22T08:18:23.999Z</time></trkpt><trkpt lat="42.82718341931051" lon="11.776720743707132"><ele>298.0</ele><time>2026-04-22T08:18:24.999Z</time></trkpt><trkpt lat="42.827014800041624" lon="11.776843939436953"><ele>298.0</ele><time>2026-04-22T08:18:25.999Z</time></trkpt><trkpt lat="42.82685847216133" lon="11.77695487130982"><ele>298.0</ele><time>2026-04-22T08:18:26.999Z</time></trkpt><trkpt lat="42.82671665067991" lon="11.777055592307665"><ele>298.0</ele><time>2026-04-22T08:18:27.999Z</time></trkpt><trkpt lat="42.82658686850527" lon="11.777148316255007"><ele>298.0</ele><time>2026-04-22T08:18:28.999Z</time></trkpt><trkpt lat="42.82647437991358" lon="11.777226165620714"><ele>298.0</ele><time>2026-04-22T08:18:29.999Z</time></trkpt><trkpt lat="42.82637048071255" lon="11.777297618332174"><ele>298.0</ele><time>2026-04-22T08:18:30.999Z</time></trkpt><trkpt lat="42.82627230004791" lon="11.777362729284434"><ele>298.0</ele><time>2026-04-22T08:18:31.999Z</time></trkpt><trkpt lat="42.82618045535299" lon="11.7774181076086"><ele>298.0</ele><time>2026-04-22T08:18:32.999Z</time></trkpt><trkpt lat="42.82608991590334" lon="11.77746806304305"><ele>298.0</ele><time>2026-04-22T08:18:33.999Z</time></trkpt><trkpt lat="42.82599687906451" lon="11.777515428541129"><ele>298.0</ele><time>2026-04-22T08:18:34.999Z</time></trkpt><trkpt lat="42.82590836592168" lon="11.777557932841335"><ele>297.66666666666663</ele><time>2026-04-22T08:18:35.999Z</time></trkpt><trkpt lat="42.82582595262342" lon="11.777597078103192"><ele>297.3333333333333</ele><time>2026-04-22T08:18:36.999Z</time></trkpt><trkpt lat="42.82575384057728" lon="11.777628854432816"><ele>297.0</ele><time>2026-04-22T08:18:37.999Z</time></trkpt><trkpt lat="42.825686616777475" lon="11.777654886994249"><ele>296.6666666666667</ele><time>2026-04-22T08:18:38.999Z</time></trkpt><trkpt lat="42.82559471818481" lon="11.777683917428922"><ele>296.33333333333337</ele><time>2026-04-22T08:18:40.999Z</time></trkpt><trkpt lat="42.82553128869419" lon="11.777679375563752"><ele>296.0</ele><time>2026-04-22T08:18:44Z</time></trkpt><trkpt lat="42.82547227090456" lon="11.777524624473482"><ele>296.0</ele><time>2026-04-22T08:18:46Z</time></trkpt><trkpt lat="42.82545361831362" lon="11.777424796363446"><ele>296.0</ele><time>2026-04-22T08:18:47Z</time></trkpt><trkpt lat="42.82543458045837" lon="11.777310204446307"><ele>296.0</ele><time>2026-04-22T08:18:48Z</time></trkpt><trkpt lat="42.825408862351495" lon="11.777187018520742"><ele>296.0</ele><time>2026-04-22T08:18:49Z</time></trkpt><trkpt lat="42.8253733278663" lon="11.77704758431073"><ele>296.0</ele><time>2026-04-22T08:18:50Z</time></trkpt><trkpt lat="42.82532965250083" lon="11.776903769871339"><ele>295.5</ele><time>2026-04-22T08:18:51Z</time></trkpt><trkpt lat="42.82528589596309" lon="11.77674997441136"><ele>295.0</ele><time>2026-04-22T08:18:52Z</time></trkpt><trkpt lat="42.82523956331511" lon="11.776591464115356"><ele>294.5</ele><time>2026-04-22T08:18:53Z</time></trkpt><trkpt lat="42.825189532390276" lon="11.776431184168885"><ele>294.0</ele><time>2026-04-22T08:18:54Z</time></trkpt><trkpt lat="42.82513886433152" lon="11.776265129610097"><ele>294.0</ele><time>2026-04-22T08:18:55Z</time></trkpt><trkpt lat="42.82508721543868" lon="11.776092806717228"><ele>294.0</ele><time>2026-04-22T08:18:56Z</time></trkpt><trkpt lat="42.82503478302894" lon="11.775913226330001"><ele>294.0</ele><time>2026-04-22T08:18:57Z</time></trkpt><trkpt lat="42.82497890438827" lon="11.775727687071752"><ele>294.0</ele><time>2026-04-22T08:18:58Z</time></trkpt><trkpt lat="42.82491908640526" lon="11.775535848076784"><ele>295.0</ele><time>2026-04-22T08:18:59Z</time></trkpt><trkpt lat="42.82485749791911" lon="11.77533762377814"><ele>296.0</ele><time>2026-04-22T08:19:00Z</time></trkpt><trkpt lat="42.82479577130207" lon="11.775134887638021"><ele>297.0</ele><time>2026-04-22T08:19:01Z</time></trkpt><trkpt lat="42.82473451044924" lon="11.774931227549054"><ele>297.6666666666667</ele><time>2026-04-22T08:19:02Z</time></trkpt><trkpt lat="42.82467165976171" lon="11.774726563682927"><ele>298.33333333333337</ele><time>2026-04-22T08:19:03Z</time></trkpt><trkpt lat="42.824608205674124" lon="11.774514119957555"><ele>299.0</ele><time>2026-04-22T08:19:04Z</time></trkpt><trkpt lat="42.8245426260075" lon="11.774294515555942"><ele>300.33333333333337</ele><time>2026-04-22T08:19:05Z</time></trkpt><trkpt lat="42.8244764753024" lon="11.774075289547891"><ele>301.6666666666667</ele><time>2026-04-22T08:19:06Z</time></trkpt><trkpt lat="42.824415713105" lon="11.773871843632019"><ele>303.0</ele><time>2026-04-22T08:19:07Z</time></trkpt><trkpt lat="42.82435885335463" lon="11.773680657049324"><ele>301.25</ele><time>2026-04-22T08:19:08Z</time></trkpt><trkpt lat="42.824307229190914" lon="11.773499517923465"><ele>299.5</ele><time>2026-04-22T08:19:09Z</time></trkpt><trkpt lat="42.824253958396355" lon="11.773331587130713"><ele>297.75</ele><time>2026-04-22T08:19:10Z</time></trkpt><trkpt lat="42.82420288960013" lon="11.773173666993793"><ele>296.0</ele><time>2026-04-22T08:19:11Z</time></trkpt><trkpt lat="42.82415738802348" lon="11.773021611564271"><ele>296.0</ele><time>2026-04-22T08:19:12Z</time></trkpt><trkpt lat="42.82411298332037" lon="11.772869610568522"><ele>296.0</ele><time>2026-04-22T08:19:13Z</time></trkpt><trkpt lat="42.82406440031345" lon="11.772707444105793"><ele>296.0</ele><time>2026-04-22T08:19:14Z</time></trkpt><trkpt lat="42.82401269111616" lon="11.772535349193461"><ele>296.0</ele><time>2026-04-22T08:19:15Z</time></trkpt><trkpt lat="42.82395937445464" lon="11.772357464965797"><ele>296.0</ele><time>2026-04-22T08:19:16Z</time></trkpt><trkpt lat="42.823905763206405" lon="11.772170572688214"><ele>296.0</ele><time>2026-04-22T08:19:17Z</time></trkpt><trkpt lat="42.82385400349912" lon="11.771974054803742"><ele>296.0</ele><time>2026-04-22T08:19:18Z</time></trkpt><trkpt lat="42.82380741284931" lon="11.771769218519065"><ele>296.33333333333337</ele><time>2026-04-22T08:19:19Z</time></trkpt><trkpt lat="42.82376573254532" lon="11.771556139846705"><ele>296.6666666666667</ele><time>2026-04-22T08:19:20Z</time></trkpt><trkpt lat="42.82373398484303" lon="11.77134259298668"><ele>297.0</ele><time>2026-04-22T08:19:21Z</time></trkpt><trkpt lat="42.82371241143243" lon="11.77114157816311"><ele>296.75</ele><time>2026-04-22T08:19:22Z</time></trkpt><trkpt lat="42.82369741615149" lon="11.770952684368314"><ele>296.5</ele><time>2026-04-22T08:19:23Z</time></trkpt><trkpt lat="42.82368794749906" lon="11.770773262930325"><ele>296.25</ele><time>2026-04-22T08:19:24Z</time></trkpt><trkpt lat="42.82368378923661" lon="11.770614839306795"><ele>296.0</ele><time>2026-04-22T08:19:25Z</time></trkpt><trkpt lat="42.8236791754794" lon="11.770475498046315"><ele>296.0</ele><time>2026-04-22T08:19:26Z</time></trkpt><trkpt lat="42.82369145324562" lon="11.770364867234516"><ele>296.0</ele><time>2026-04-22T08:19:27Z</time></trkpt><trkpt lat="42.82369351904836" lon="11.770272706162446"><ele>296.0</ele><time>2026-04-22T08:19:28Z</time></trkpt><trkpt lat="42.82353228647705" lon="11.770156325739142"><ele>296.0</ele><time>2026-04-22T08:19:30Z</time></trkpt><trkpt lat="42.82344410193765" lon="11.770098636069674"><ele>296.0</ele><time>2026-04-22T08:19:31Z</time></trkpt><trkpt lat="42.82337597175638" lon="11.769998553959756"><ele>296.0</ele><time>2026-04-22T08:19:32Z</time></trkpt><trkpt lat="42.82329051373835" lon="11.76991201422125"><ele>296.0</ele><time>2026-04-22T08:19:33Z</time></trkpt><trkpt lat="42.82321120755847" lon="11.769795695247529"><ele>296.0</ele><time>2026-04-22T08:19:34Z</time></trkpt><trkpt lat="42.82314210263917" lon="11.769654960525775"><ele>296.0</ele><time>2026-04-22T08:19:35Z</time></trkpt><trkpt lat="42.823082257199864" lon="11.769484559255437"><ele>295.75</ele><time>2026-04-22T08:19:36Z</time></trkpt><trkpt lat="42.823028989687515" lon="11.769306916495974"><ele>295.5</ele><time>2026-04-22T08:19:37Z</time></trkpt><trkpt lat="42.82297278053486" lon="11.769122179371092"><ele>295.25</ele><time>2026-04-22T08:19:38Z</time></trkpt><trkpt lat="42.822914922596695" lon="11.768931325031984"><ele>295.0</ele><time>2026-04-22T08:19:39Z</time></trkpt><trkpt lat="42.82285593425968" lon="11.768736150170428"><ele>295.0</ele><time>2026-04-22T08:19:40Z</time></trkpt><trkpt lat="42.82279594819984" lon="11.768533996404155"><ele>295.0</ele><time>2026-04-22T08:19:41Z</time></trkpt><trkpt lat="42.82273802803537" lon="11.768323938795252"><ele>295.0</ele><time>2026-04-22T08:19:42Z</time></trkpt><trkpt lat="42.82268248824123" lon="11.76811212665777"><ele>295.0</ele><time>2026-04-22T08:19:43Z</time></trkpt><trkpt lat="42.822637344402494" lon="11.767892308951533"><ele>295.0</ele><time>2026-04-22T08:19:44Z</time></trkpt><trkpt lat="42.82261099607297" lon="11.767664547406975"><ele>295.0</ele><time>2026-04-22T08:19:45Z</time></trkpt><trkpt lat="42.82259472695155" lon="11.767436466967155"><ele>295.0</ele><time>2026-04-22T08:19:46Z</time></trkpt><trkpt lat="42.82257858240875" lon="11.767208266043816"><ele>295.0</ele><time>2026-04-22T08:19:47Z</time></trkpt><trkpt lat="42.8225507395108" lon="11.766986041808753"><ele>295.0</ele><time>2026-04-22T08:19:48Z</time></trkpt><trkpt lat="42.82250100630152" lon="11.766778185357557"><ele>296.0</ele><time>2026-04-22T08:19:49Z</time></trkpt><trkpt lat="42.822421642155" lon="11.766583661974428"><ele>297.0</ele><time>2026-04-22T08:19:50Z</time></trkpt><trkpt lat="42.82232152221787" lon="11.76641442748052"><ele>298.0</ele><time>2026-04-22T08:19:51Z</time></trkpt><trkpt lat="42.82220473856379" lon="11.766267739025984"><ele>298.0</ele><time>2026-04-22T08:19:52Z</time></trkpt><trkpt lat="42.82207195182653" lon="11.766156097714564"><ele>298.0</ele><time>2026-04-22T08:19:53Z</time></trkpt><trkpt lat="42.82194026222774" lon="11.766032812935729"><ele>298.0</ele><time>2026-04-22T08:19:54Z</time></trkpt><trkpt lat="42.82181035789798" lon="11.765916253380585"><ele>296.0</ele><time>2026-04-22T08:19:55Z</time></trkpt><trkpt lat="42.821541532204186" lon="11.76567045549799"><ele>294.0</ele><time>2026-04-22T08:19:57Z</time></trkpt><trkpt lat="42.821404373504436" lon="11.7655432234395"><ele>294.0</ele><time>2026-04-22T08:19:58Z</time></trkpt><trkpt lat="42.82126705203155" lon="11.765423834367393"><ele>294.0</ele><time>2026-04-22T08:19:59Z</time></trkpt><trkpt lat="42.82112852472521" lon="11.765301718570344"><ele>294.0</ele><time>2026-04-22T08:20:00Z</time></trkpt><trkpt lat="42.820990217707" lon="11.765182153452384"><ele>295.0</ele><time>2026-04-22T08:20:01Z</time></trkpt><trkpt lat="42.82085676875169" lon="11.765056771828396"><ele>296.0</ele><time>2026-04-22T08:20:02Z</time></trkpt><trkpt lat="42.820726954572486" lon="11.764927677786764"><ele>297.0</ele><time>2026-04-22T08:20:03Z</time></trkpt><trkpt lat="42.82060731271488" lon="11.764781328703663"><ele>297.0</ele><time>2026-04-22T08:20:04Z</time></trkpt><trkpt lat="42.82050742562742" lon="11.764626628252643"><ele>297.0</ele><time>2026-04-22T08:20:05Z</time></trkpt><trkpt lat="42.82043023980184" lon="11.764461467086424"><ele>297.0</ele><time>2026-04-22T08:20:06Z</time></trkpt><trkpt lat="42.82037715626724" lon="11.76429163876624"><ele>297.0</ele><time>2026-04-22T08:20:07Z</time></trkpt><trkpt lat="42.8203663504383" lon="11.764112016850541"><ele>297.0</ele><time>2026-04-22T08:20:08Z</time></trkpt><trkpt lat="42.82035729468964" lon="11.763934492032607"><ele>297.0</ele><time>2026-04-22T08:20:09Z</time></trkpt><trkpt lat="42.82036507520685" lon="11.763763741420847"><ele>297.0</ele><time>2026-04-22T08:20:10Z</time></trkpt><trkpt lat="42.820380477825104" lon="11.763603922538309"><ele>297.0</ele><time>2026-04-22T08:20:11Z</time></trkpt><trkpt lat="42.82038520985377" lon="11.763459415773449"><ele>297.0</ele><time>2026-04-22T08:20:12Z</time></trkpt><trkpt lat="42.82039245476527" lon="11.763329133732785"><ele>297.0</ele><time>2026-04-22T08:20:13Z</time></trkpt><trkpt lat="42.82041875970383" lon="11.763230197541073"><ele>297.0</ele><time>2026-04-22T08:20:14Z</time></trkpt><trkpt lat="42.820304662215676" lon="11.76311237773157"><ele>297.0</ele><time>2026-04-22T08:20:15Z</time></trkpt><trkpt lat="42.82022541956977" lon="11.763007545862868"><ele>297.0</ele><time>2026-04-22T08:20:16Z</time></trkpt><trkpt lat="42.82013579170422" lon="11.762895426059792"><ele>297.25</ele><time>2026-04-22T08:20:17Z</time></trkpt><trkpt lat="42.8200366216382" lon="11.762770432530797"><ele>297.5</ele><time>2026-04-22T08:20:18Z</time></trkpt><trkpt lat="42.8199329336677" lon="11.76263875244462"><ele>297.75</ele><time>2026-04-22T08:20:19Z</time></trkpt><trkpt lat="42.81982862398218" lon="11.762511243003804"><ele>298.0</ele><time>2026-04-22T08:20:20Z</time></trkpt><trkpt lat="42.819717206269225" lon="11.762411933863577"><ele>298.0</ele><time>2026-04-22T08:20:21Z</time></trkpt><trkpt lat="42.819589267372976" lon="11.76235138801557"><ele>298.0</ele><time>2026-04-22T08:20:22Z</time></trkpt><trkpt lat="42.819459937327096" lon="11.76233530613565"><ele>298.0</ele><time>2026-04-22T08:20:23Z</time></trkpt><trkpt lat="42.81933282423302" lon="11.762355254330139"><ele>298.0</ele><time>2026-04-22T08:20:24Z</time></trkpt><trkpt lat="42.819205207408835" lon="11.7623871989776"><ele>298.0</ele><time>2026-04-22T08:20:25Z</time></trkpt><trkpt lat="42.81907108248547" lon="11.762406691578276"><ele>298.0</ele><time>2026-04-22T08:20:26Z</time></trkpt><trkpt lat="42.8189352644546" lon="11.762428454981965"><ele>298.0</ele><time>2026-04-22T08:20:27Z</time></trkpt><trkpt lat="42.8187960396805" lon="11.762447122062325"><ele>298.0</ele><time>2026-04-22T08:20:28Z</time></trkpt><trkpt lat="42.81866483226439" lon="11.76245347870714"><ele>298.0</ele><time>2026-04-22T08:20:29Z</time></trkpt><trkpt lat="42.81852915702514" lon="11.762430203706685"><ele>298.0</ele><time>2026-04-22T08:20:30Z</time></trkpt><trkpt lat="42.81839913626693" lon="11.762369399648023"><ele>298.0</ele><time>2026-04-22T08:20:31Z</time></trkpt><trkpt lat="42.81828395675157" lon="11.762258544003082"><ele>298.0</ele><time>2026-04-22T08:20:32Z</time></trkpt><trkpt lat="42.81819398560464" lon="11.762106741111332"><ele>298.0</ele><time>2026-04-22T08:20:33Z</time></trkpt><trkpt lat="42.81809683214526" lon="11.76195650620352"><ele>298.0</ele><time>2026-04-22T08:20:34Z</time></trkpt><trkpt lat="42.81798623252748" lon="11.761809447928627"><ele>298.0</ele><time>2026-04-22T08:20:35Z</time></trkpt><trkpt lat="42.81788582760313" lon="11.761646178830057"><ele>298.3333333333333</ele><time>2026-04-22T08:20:35.999Z</time></trkpt><trkpt lat="42.817779798020055" lon="11.761479362594182"><ele>298.6666666666667</ele><time>2026-04-22T08:20:36.999Z</time></trkpt><trkpt lat="42.81766860199279" lon="11.761304568891946"><ele>299.0</ele><time>2026-04-22T08:20:37.999Z</time></trkpt><trkpt lat="42.817554183699166" lon="11.761127616545199"><ele>299.0</ele><time>2026-04-22T08:20:38.999Z</time></trkpt><trkpt lat="42.81743545092005" lon="11.760947212072669"><ele>299.0</ele><time>2026-04-22T08:20:39.999Z</time></trkpt><trkpt lat="42.817305440337336" lon="11.760783033057056"><ele>299.0</ele><time>2026-04-22T08:20:40.999Z</time></trkpt><trkpt lat="42.817157250045454" lon="11.760632673661586"><ele>299.0</ele><time>2026-04-22T08:20:41.999Z</time></trkpt><trkpt lat="42.8170002119665" lon="11.760504771420932"><ele>299.0</ele><time>2026-04-22T08:20:42.999Z</time></trkpt><trkpt lat="42.8168394285885" lon="11.76039434367315"><ele>299.0</ele><time>2026-04-22T08:20:43.999Z</time></trkpt><trkpt lat="42.81667361281762" lon="11.760284366148843"><ele>299.33333333333337</ele><time>2026-04-22T08:20:44.999Z</time></trkpt><trkpt lat="42.81650862483071" lon="11.760165125102432"><ele>299.6666666666667</ele><time>2026-04-22T08:20:45.999Z</time></trkpt><trkpt lat="42.81633952643329" lon="11.76004299445852"><ele>300.0</ele><time>2026-04-22T08:20:46.999Z</time></trkpt><trkpt lat="42.81616817922752" lon="11.759927224088038"><ele>300.0</ele><time>2026-04-22T08:20:47.999Z</time></trkpt><trkpt lat="42.81599760741551" lon="11.759809816148694"><ele>300.0</ele><time>2026-04-22T08:20:49.001Z</time></trkpt><trkpt lat="42.815826513487764" lon="11.759689802145903"><ele>300.0</ele><time>2026-04-22T08:20:50.001Z</time></trkpt><trkpt lat="42.815654251652866" lon="11.759568962031018"><ele>301.0</ele><time>2026-04-22T08:20:51.001Z</time></trkpt><trkpt lat="42.8154789380167" lon="11.7594472134621"><ele>302.0</ele><time>2026-04-22T08:20:52.001Z</time></trkpt><trkpt lat="42.81529866405893" lon="11.759324637860296"><ele>303.0</ele><time>2026-04-22T08:20:53.001Z</time></trkpt><trkpt lat="42.81511688757368" lon="11.75919831792018"><ele>303.3333333333333</ele><time>2026-04-22T08:20:54.001Z</time></trkpt><trkpt lat="42.81493083955044" lon="11.759066053961488"><ele>303.66666666666663</ele><time>2026-04-22T08:20:55.001Z</time></trkpt><trkpt lat="42.81473930458064" lon="11.758932479587774"><ele>304.0</ele><time>2026-04-22T08:20:56.001Z</time></trkpt><trkpt lat="42.81454512534973" lon="11.75879750656811"><ele>304.0</ele><time>2026-04-22T08:20:57.001Z</time></trkpt><trkpt lat="42.8143488285758" lon="11.758656594644199"><ele>304.0</ele><time>2026-04-22T08:20:58.001Z</time></trkpt><trkpt lat="42.8141515477328" lon="11.758515938373955"><ele>304.0</ele><time>2026-04-22T08:20:59.001Z</time></trkpt><trkpt lat="42.81395200316851" lon="11.758375146547225"><ele>304.0</ele><time>2026-04-22T08:21:00.001Z</time></trkpt><trkpt lat="42.813750275636224" lon="11.758232094901022"><ele>304.0</ele><time>2026-04-22T08:21:01.001Z</time></trkpt><trkpt lat="42.813549224651915" lon="11.758092428821614"><ele>305.5</ele><time>2026-04-22T08:21:02.001Z</time></trkpt><trkpt lat="42.813346087654566" lon="11.757956722236306"><ele>307.0</ele><time>2026-04-22T08:21:03.001Z</time></trkpt><trkpt lat="42.8131437005345" lon="11.757822418324567"><ele>306.5</ele><time>2026-04-22T08:21:04Z</time></trkpt><trkpt lat="42.81294050081561" lon="11.757682300971272"><ele>306.0</ele><time>2026-04-22T08:21:05Z</time></trkpt><trkpt lat="42.812738049901576" lon="11.757540845136804"><ele>308.0</ele><time>2026-04-22T08:21:06Z</time></trkpt><trkpt lat="42.81253716374099" lon="11.757399206043008"><ele>310.0</ele><time>2026-04-22T08:21:07Z</time></trkpt><trkpt lat="42.81233530729321" lon="11.757257600520411"><ele>310.0</ele><time>2026-04-22T08:21:08Z</time></trkpt><trkpt lat="42.81213233859759" lon="11.757121509409007"><ele>310.0</ele><time>2026-04-22T08:21:09Z</time></trkpt><trkpt lat="42.81192727844737" lon="11.756998957914442"><ele>310.66666666666663</ele><time>2026-04-22T08:21:10Z</time></trkpt><trkpt lat="42.81171818549682" lon="11.756888575691402"><ele>311.3333333333333</ele><time>2026-04-22T08:21:11Z</time></trkpt><trkpt lat="42.811505768048654" lon="11.756794135786572"><ele>312.0</ele><time>2026-04-22T08:21:12Z</time></trkpt><trkpt lat="42.81128943554373" lon="11.756702453945202"><ele>312.3333333333333</ele><time>2026-04-22T08:21:13Z</time></trkpt><trkpt lat="42.811081698041896" lon="11.756601796801414"><ele>312.66666666666663</ele><time>2026-04-22T08:21:14Z</time></trkpt><trkpt lat="42.81088287519984" lon="11.756488746593908"><ele>313.0</ele><time>2026-04-22T08:21:15Z</time></trkpt><trkpt lat="42.81069086019432" lon="11.75635665981561"><ele>314.0</ele><time>2026-04-22T08:21:16Z</time></trkpt><trkpt lat="42.81050333888541" lon="11.756214867815462"><ele>315.0</ele><time>2026-04-22T08:21:17Z</time></trkpt><trkpt lat="42.81031731676981" lon="11.756070297657315"><ele>316.0</ele><time>2026-04-22T08:21:18Z</time></trkpt><trkpt lat="42.810132760902064" lon="11.755924755752712"><ele>317.66666666666663</ele><time>2026-04-22T08:21:19Z</time></trkpt><trkpt lat="42.80995080872545" lon="11.755779637755614"><ele>319.3333333333333</ele><time>2026-04-22T08:21:20Z</time></trkpt><trkpt lat="42.80977778460324" lon="11.755626688160321"><ele>321.0</ele><time>2026-04-22T08:21:21Z</time></trkpt><trkpt lat="42.80961197533486" lon="11.755459474148122"><ele>321.0</ele><time>2026-04-22T08:21:22Z</time></trkpt><trkpt lat="42.80947589079751" lon="11.75524564378699"><ele>321.0</ele><time>2026-04-22T08:21:23Z</time></trkpt><trkpt lat="42.80932539709976" lon="11.75504978083067"><ele>321.0</ele><time>2026-04-22T08:21:24Z</time></trkpt><trkpt lat="42.80918883740511" lon="11.754836738898245"><ele>321.3333333333333</ele><time>2026-04-22T08:21:25Z</time></trkpt><trkpt lat="42.80904294045382" lon="11.754659030982237"><ele>321.66666666666663</ele><time>2026-04-22T08:21:26Z</time></trkpt><trkpt lat="42.80887905816357" lon="11.754496653628566"><ele>322.0</ele><time>2026-04-22T08:21:27Z</time></trkpt><trkpt lat="42.80870815130314" lon="11.754360360095076"><ele>322.0</ele><time>2026-04-22T08:21:28Z</time></trkpt><trkpt lat="42.80853000822059" lon="11.754227874848443"><ele>322.0</ele><time>2026-04-22T08:21:29Z</time></trkpt><trkpt lat="42.808356848214316" lon="11.754085579920094"><ele>322.0</ele><time>2026-04-22T08:21:30Z</time></trkpt><trkpt lat="42.8081801716648" lon="11.753945902683773"><ele>326.3333333333333</ele><time>2026-04-22T08:21:31Z</time></trkpt><trkpt lat="42.80800012166653" lon="11.75381526113293"><ele>330.6666666666667</ele><time>2026-04-22T08:21:32Z</time></trkpt><trkpt lat="42.807829342895786" lon="11.753656687426423"><ele>335.0</ele><time>2026-04-22T08:21:33Z</time></trkpt><trkpt lat="42.8076460989629" lon="11.753536534364715"><ele>336.33333333333337</ele><time>2026-04-22T08:21:34Z</time></trkpt><trkpt lat="42.80746916741172" lon="11.753388448646218"><ele>337.6666666666667</ele><time>2026-04-22T08:21:34.999Z</time></trkpt><trkpt lat="42.80729234319495" lon="11.753239956772946"><ele>339.0</ele><time>2026-04-22T08:21:35.999Z</time></trkpt><trkpt lat="42.80711569747871" lon="11.753083684672344"><ele>339.0</ele><time>2026-04-22T08:21:36.999Z</time></trkpt><trkpt lat="42.806964608897204" lon="11.75291164776813"><ele>339.0</ele><time>2026-04-22T08:21:37.999Z</time></trkpt><trkpt lat="42.806813169514626" lon="11.752783358412632"><ele>339.0</ele><time>2026-04-22T08:21:38.999Z</time></trkpt><trkpt lat="42.80668172939207" lon="11.752659137524745"><ele>341.0</ele><time>2026-04-22T08:21:39.999Z</time></trkpt><trkpt lat="42.80655509635668" lon="11.752584790578668"><ele>343.0</ele><time>2026-04-22T08:21:40.999Z</time></trkpt><trkpt lat="42.80642824821142" lon="11.752559642368128"><ele>345.0</ele><time>2026-04-22T08:21:41.999Z</time></trkpt><trkpt lat="42.806306949055106" lon="11.752580900931864"><ele>347.0</ele><time>2026-04-22T08:21:42.999Z</time></trkpt><trkpt lat="42.80619457169278" lon="11.752648935511331"><ele>347.5</ele><time>2026-04-22T08:21:43.999Z</time></trkpt><trkpt lat="42.80607924688466" lon="11.75275493969551"><ele>348.0</ele><time>2026-04-22T08:21:44.999Z</time></trkpt><trkpt lat="42.805963256224565" lon="11.752883790239428"><ele>348.5</ele><time>2026-04-22T08:21:45.999Z</time></trkpt><trkpt lat="42.80584763917987" lon="11.753009824861865"><ele>349.0</ele><time>2026-04-22T08:21:46.999Z</time></trkpt><trkpt lat="42.80573902566591" lon="11.753106069262193"><ele>349.5</ele><time>2026-04-22T08:21:47.999Z</time></trkpt><trkpt lat="42.80562512268682" lon="11.753163396912436"><ele>350.0</ele><time>2026-04-22T08:21:48.999Z</time></trkpt><trkpt lat="42.80549946107101" lon="11.753137061133213"><ele>350.5</ele><time>2026-04-22T08:21:49.999Z</time></trkpt><trkpt lat="42.805373572081606" lon="11.753094339281727"><ele>351.0</ele><time>2026-04-22T08:21:50.999Z</time></trkpt><trkpt lat="42.80523219308146" lon="11.753060888310639"><ele>350.6666666666667</ele><time>2026-04-22T08:21:51.999Z</time></trkpt><trkpt lat="42.80508902048786" lon="11.752993450324457"><ele>350.33333333333337</ele><time>2026-04-22T08:21:52.999Z</time></trkpt><trkpt lat="42.80493465194977" lon="11.752961753786382"><ele>350.0</ele><time>2026-04-22T08:21:53.999Z</time></trkpt><trkpt lat="42.80477871953221" lon="11.75296748604853"><ele>350.0</ele><time>2026-04-22T08:21:54.999Z</time></trkpt><trkpt lat="42.80464163243425" lon="11.753008410300273"><ele>350.0</ele><time>2026-04-22T08:21:55.999Z</time></trkpt><trkpt lat="42.80450813828342" lon="11.753069147303279"><ele>350.0</ele><time>2026-04-22T08:21:56.999Z</time></trkpt><trkpt lat="42.80437772389791" lon="11.753128908016604"><ele>350.0</ele><time>2026-04-22T08:21:57.999Z</time></trkpt><trkpt lat="42.8042535979328" lon="11.753151755927638"><ele>350.0</ele><time>2026-04-22T08:21:58.999Z</time></trkpt><trkpt lat="42.804141223138046" lon="11.753103392227462"><ele>350.0</ele><time>2026-04-22T08:21:59.999Z</time></trkpt><trkpt lat="42.8040418771821" lon="11.753035419293564"><ele>350.0</ele><time>2026-04-22T08:22:00.999Z</time></trkpt><trkpt lat="42.803956998864706" lon="11.75292999863326"><ele>350.0</ele><time>2026-04-22T08:22:01.999Z</time></trkpt><trkpt lat="42.80385919362168" lon="11.752835185818068"><ele>350.0</ele><time>2026-04-22T08:22:02.999Z</time></trkpt><trkpt lat="42.80377322901354" lon="11.752717811150294"><ele>350.0</ele><time>2026-04-22T08:22:03.999Z</time></trkpt><trkpt lat="42.80367014556732" lon="11.752613452712074"><ele>350.0</ele><time>2026-04-22T08:22:04.999Z</time></trkpt><trkpt lat="42.803553392524975" lon="11.752531166177581"><ele>350.0</ele><time>2026-04-22T08:22:05.999Z</time></trkpt><trkpt lat="42.8034222913486" lon="11.752481327767832"><ele>350.33333333333337</ele><time>2026-04-22T08:22:06.999Z</time></trkpt><trkpt lat="42.803276949752416" lon="11.752464868305115"><ele>350.6666666666667</ele><time>2026-04-22T08:22:07.999Z</time></trkpt><trkpt lat="42.80312297382731" lon="11.752465502609002"><ele>351.0</ele><time>2026-04-22T08:22:08.999Z</time></trkpt><trkpt lat="42.802966158498364" lon="11.752473618542316"><ele>351.0</ele><time>2026-04-22T08:22:09.999Z</time></trkpt><trkpt lat="42.802803399710776" lon="11.752512854337164"><ele>351.0</ele><time>2026-04-22T08:22:10.999Z</time></trkpt><trkpt lat="42.80263950614922" lon="11.752570473880468"><ele>351.0</ele><time>2026-04-22T08:22:11.999Z</time></trkpt><trkpt lat="42.80246839761876" lon="11.752611618231072"><ele>351.6666666666667</ele><time>2026-04-22T08:22:12.999Z</time></trkpt><trkpt lat="42.8023015081553" lon="11.752699271410064"><ele>352.33333333333337</ele><time>2026-04-22T08:22:13.999Z</time></trkpt><trkpt lat="42.802138036072215" lon="11.752760242260983"><ele>353.0</ele><time>2026-04-22T08:22:14.999Z</time></trkpt><trkpt lat="42.801974330703295" lon="11.75282155756378"><ele>352.6666666666667</ele><time>2026-04-22T08:22:15.999Z</time></trkpt><trkpt lat="42.80179931698399" lon="11.752882164618093"><ele>352.3333333333333</ele><time>2026-04-22T08:22:16.999Z</time></trkpt><trkpt lat="42.80162051885329" lon="11.752948730897641"><ele>352.0</ele><time>2026-04-22T08:22:17.999Z</time></trkpt><trkpt lat="42.801446402650015" lon="11.75301803764845"><ele>352.0</ele><time>2026-04-22T08:22:18.999Z</time></trkpt><trkpt lat="42.80127540453183" lon="11.753086344540097"><ele>352.0</ele><time>2026-04-22T08:22:19.999Z</time></trkpt><trkpt lat="42.80110424611841" lon="11.753122789349343"><ele>352.0</ele><time>2026-04-22T08:22:20.999Z</time></trkpt><trkpt lat="42.800948614912734" lon="11.753078898450205"><ele>351.3333333333333</ele><time>2026-04-22T08:22:21.999Z</time></trkpt><trkpt lat="42.80079729664479" lon="11.753020120863948"><ele>350.6666666666667</ele><time>2026-04-22T08:22:22.999Z</time></trkpt><trkpt lat="42.80064139647791" lon="11.752949972444561"><ele>350.0</ele><time>2026-04-22T08:22:23.999Z</time></trkpt><trkpt lat="42.800477537121964" lon="11.75289340223634"><ele>350.0</ele><time>2026-04-22T08:22:24.999Z</time></trkpt><trkpt lat="42.80031638999442" lon="11.752806910914376"><ele>350.0</ele><time>2026-04-22T08:22:25.999Z</time></trkpt><trkpt lat="42.80015043219035" lon="11.752725652370085"><ele>350.0</ele><time>2026-04-22T08:22:26.999Z</time></trkpt><trkpt lat="42.799981680164336" lon="11.752646584354856"><ele>351.6666666666667</ele><time>2026-04-22T08:22:27.999Z</time></trkpt><trkpt lat="42.79980605563932" lon="11.752562788521344"><ele>353.3333333333333</ele><time>2026-04-22T08:22:28.999Z</time></trkpt><trkpt lat="42.799629728400895" lon="11.752481139606953"><ele>355.0</ele><time>2026-04-22T08:22:29.999Z</time></trkpt><trkpt lat="42.79944965208555" lon="11.752395983522089"><ele>356.5</ele><time>2026-04-22T08:22:30.999Z</time></trkpt><trkpt lat="42.79927199442915" lon="11.752312755659702"><ele>358.0</ele><time>2026-04-22T08:22:31.999Z</time></trkpt><trkpt lat="42.79890110483819" lon="11.752161312404144"><ele>358.0</ele><time>2026-04-22T08:22:33.999Z</time></trkpt><trkpt lat="42.7987154720683" lon="11.752089653810067"><ele>358.0</ele><time>2026-04-22T08:22:34.999Z</time></trkpt><trkpt lat="42.79853161583524" lon="11.752015434059109"><ele>358.0</ele><time>2026-04-22T08:22:35.999Z</time></trkpt><trkpt lat="42.79834343492528" lon="11.75194192375186"><ele>358.3333333333333</ele><time>2026-04-22T08:22:36.999Z</time></trkpt><trkpt lat="42.79815084466482" lon="11.751876659748513"><ele>358.6666666666667</ele><time>2026-04-22T08:22:37.999Z</time></trkpt><trkpt lat="42.79795787635077" lon="11.751814073370005"><ele>359.0</ele><time>2026-04-22T08:22:38.999Z</time></trkpt><trkpt lat="42.79775962086648" lon="11.751764187637228"><ele>358.33333333333337</ele><time>2026-04-22T08:22:39.999Z</time></trkpt><trkpt lat="42.79756435785735" lon="11.751712145709748"><ele>357.6666666666667</ele><time>2026-04-22T08:22:40.999Z</time></trkpt><trkpt lat="42.79736948778851" lon="11.751660415780268"><ele>357.0</ele><time>2026-04-22T08:22:41.999Z</time></trkpt><trkpt lat="42.79717580759067" lon="11.751610584519225"><ele>357.0</ele><time>2026-04-22T08:22:42.999Z</time></trkpt><trkpt lat="42.796986719047005" lon="11.751565374991403"><ele>357.0</ele><time>2026-04-22T08:22:43.999Z</time></trkpt><trkpt lat="42.796788441012396" lon="11.751514688233925"><ele>357.0</ele><time>2026-04-22T08:22:44.999Z</time></trkpt><trkpt lat="42.79658726524813" lon="11.75147173608518"><ele>357.6666666666667</ele><time>2026-04-22T08:22:45.999Z</time></trkpt><trkpt lat="42.79639334303727" lon="11.751438269687506"><ele>358.33333333333337</ele><time>2026-04-22T08:22:46.999Z</time></trkpt><trkpt lat="42.79619604193824" lon="11.751392840673127"><ele>359.0</ele><time>2026-04-22T08:22:47.999Z</time></trkpt><trkpt lat="42.79599383898869" lon="11.751340117810143"><ele>357.6666666666667</ele><time>2026-04-22T08:22:48.999Z</time></trkpt><trkpt lat="42.795789947783874" lon="11.75128856459312"><ele>356.3333333333333</ele><time>2026-04-22T08:22:49.998Z</time></trkpt><trkpt lat="42.79558221143763" lon="11.751239285722145"><ele>355.0</ele><time>2026-04-22T08:22:50.998Z</time></trkpt><trkpt lat="42.7953696445245" lon="11.751188182022108"><ele>354.3333333333333</ele><time>2026-04-22T08:22:51.998Z</time></trkpt><trkpt lat="42.79515544297579" lon="11.751139711615272"><ele>353.6666666666667</ele><time>2026-04-22T08:22:52.998Z</time></trkpt><trkpt lat="42.794935409994046" lon="11.751088201606786"><ele>353.0</ele><time>2026-04-22T08:22:53.998Z</time></trkpt><trkpt lat="42.79471659834679" lon="11.75103700550064"><ele>353.0</ele><time>2026-04-22T08:22:55Z</time></trkpt><trkpt lat="42.79450120440782" lon="11.750985797812108"><ele>353.0</ele><time>2026-04-22T08:22:56Z</time></trkpt><trkpt lat="42.79428258180842" lon="11.750930441579582"><ele>353.0</ele><time>2026-04-22T08:22:57Z</time></trkpt><trkpt lat="42.79406575130471" lon="11.750881158904159"><ele>352.6666666666667</ele><time>2026-04-22T08:22:58Z</time></trkpt><trkpt lat="42.793849808647224" lon="11.750831110488036"><ele>352.3333333333333</ele><time>2026-04-22T08:22:59Z</time></trkpt><trkpt lat="42.793635429679725" lon="11.750778305793666"><ele>352.0</ele><time>2026-04-22T08:23:00Z</time></trkpt><trkpt lat="42.79341928207328" lon="11.75072139842466"><ele>352.0</ele><time>2026-04-22T08:23:01Z</time></trkpt><trkpt lat="42.79320842040486" lon="11.750668668957358"><ele>352.0</ele><time>2026-04-22T08:23:02Z</time></trkpt><trkpt lat="42.7930111645525" lon="11.750624482299468"><ele>352.0</ele><time>2026-04-22T08:23:03Z</time></trkpt><trkpt lat="42.79282907367671" lon="11.7505779039504"><ele>353.0</ele><time>2026-04-22T08:23:04Z</time></trkpt><trkpt lat="42.792654630249935" lon="11.750533259625607"><ele>354.0</ele><time>2026-04-22T08:23:05Z</time></trkpt><trkpt lat="42.79231623037293" lon="11.750448175154427"><ele>354.0</ele><time>2026-04-22T08:23:07Z</time></trkpt><trkpt lat="42.7921448805139" lon="11.750407775796857"><ele>354.0</ele><time>2026-04-22T08:23:08Z</time></trkpt><trkpt lat="42.79197353210214" lon="11.750370328605346"><ele>354.0</ele><time>2026-04-22T08:23:09Z</time></trkpt><trkpt lat="42.79179742360913" lon="11.750330106575234"><ele>353.6666666666667</ele><time>2026-04-22T08:23:10Z</time></trkpt><trkpt lat="42.79162364215152" lon="11.750292715185608"><ele>353.33333333333337</ele><time>2026-04-22T08:23:11Z</time></trkpt><trkpt lat="42.791447022496556" lon="11.750250306218694"><ele>353.0</ele><time>2026-04-22T08:23:12Z</time></trkpt><trkpt lat="42.791264612231345" lon="11.750206572407722"><ele>354.33333333333337</ele><time>2026-04-22T08:23:13Z</time></trkpt><trkpt lat="42.79107189288421" lon="11.750158526226901"><ele>355.6666666666667</ele><time>2026-04-22T08:23:14Z</time></trkpt><trkpt lat="42.79088081959667" lon="11.75011214716381"><ele>357.0</ele><time>2026-04-22T08:23:15Z</time></trkpt><trkpt lat="42.79068965049488" lon="11.750065775318536"><ele>357.0</ele><time>2026-04-22T08:23:16Z</time></trkpt><trkpt lat="42.790504004917146" lon="11.750023644201702"><ele>357.0</ele><time>2026-04-22T08:23:17Z</time></trkpt><trkpt lat="42.79033414012176" lon="11.749982675718663"><ele>357.0</ele><time>2026-04-22T08:23:18Z</time></trkpt><trkpt lat="42.790176232208616" lon="11.749947351802438"><ele>357.40000000000003</ele><time>2026-04-22T08:23:19Z</time></trkpt><trkpt lat="42.79003555377804" lon="11.749918252023079"><ele>357.8</ele><time>2026-04-22T08:23:20Z</time></trkpt><trkpt lat="42.78992700448944" lon="11.749872289993878"><ele>358.2</ele><time>2026-04-22T08:23:20.999Z</time></trkpt><trkpt lat="42.78984862936504" lon="11.74985349994602"><ele>358.6</ele><time>2026-04-22T08:23:21.999Z</time></trkpt><trkpt lat="42.78973570467639" lon="11.749854709004266"><ele>359.0</ele><time>2026-04-22T08:23:24.999Z</time></trkpt><trkpt lat="42.789654421800684" lon="11.750238711035234"><ele>357.25</ele><time>2026-04-22T08:23:25.999Z</time></trkpt><trkpt lat="42.789589798299204" lon="11.750374330349437"><ele>355.5</ele><time>2026-04-22T08:23:26.999Z</time></trkpt><trkpt lat="42.78951504285494" lon="11.750528403318619"><ele>353.75</ele><time>2026-04-22T08:23:27.999Z</time></trkpt><trkpt lat="42.789440155086965" lon="11.750692137451447"><ele>352.0</ele><time>2026-04-22T08:23:28.999Z</time></trkpt><trkpt lat="42.78937059763518" lon="11.750866623543583"><ele>351.75</ele><time>2026-04-22T08:23:29.999Z</time></trkpt><trkpt lat="42.789301173083324" lon="11.751043603721568"><ele>351.5</ele><time>2026-04-22T08:23:30.999Z</time></trkpt><trkpt lat="42.789234194629536" lon="11.75121908728033"><ele>351.25</ele><time>2026-04-22T08:23:31.999Z</time></trkpt><trkpt lat="42.78915613319588" lon="11.751388745149743"><ele>351.0</ele><time>2026-04-22T08:23:32.999Z</time></trkpt><trkpt lat="42.78907998627745" lon="11.751579091228534"><ele>351.0</ele><time>2026-04-22T08:23:33.999Z</time></trkpt><trkpt lat="42.788997960499294" lon="11.751778447354594"><ele>351.0</ele><time>2026-04-22T08:23:34.999Z</time></trkpt><trkpt lat="42.78891134342975" lon="11.751983875840795"><ele>351.0</ele><time>2026-04-22T08:23:35.999Z</time></trkpt><trkpt lat="42.78882256320305" lon="11.75219628668656"><ele>349.6666666666667</ele><time>2026-04-22T08:23:36.999Z</time></trkpt><trkpt lat="42.788731266129645" lon="11.752412492922572"><ele>348.33333333333337</ele><time>2026-04-22T08:23:37.999Z</time></trkpt><trkpt lat="42.788639839257435" lon="11.752631462645834"><ele>347.0</ele><time>2026-04-22T08:23:38.999Z</time></trkpt><trkpt lat="42.78854747724727" lon="11.752854657840738"><ele>347.0</ele><time>2026-04-22T08:23:39.999Z</time></trkpt><trkpt lat="42.78845454503306" lon="11.753073593489978"><ele>347.0</ele><time>2026-04-22T08:23:40.999Z</time></trkpt><trkpt lat="42.788361922678035" lon="11.753284325400111"><ele>347.0</ele><time>2026-04-22T08:23:41.999Z</time></trkpt><trkpt lat="42.78827308464253" lon="11.75350227284246"><ele>346.6666666666667</ele><time>2026-04-22T08:23:42.999Z</time></trkpt><trkpt lat="42.788182806418234" lon="11.753704893179178"><ele>346.3333333333333</ele><time>2026-04-22T08:23:43.999Z</time></trkpt><trkpt lat="42.78809645757801" lon="11.753910773372352"><ele>346.0</ele><time>2026-04-22T08:23:44.999Z</time></trkpt><trkpt lat="42.78793406348258" lon="11.754295126078492"><ele>345.3333333333333</ele><time>2026-04-22T08:23:46.999Z</time></trkpt><trkpt lat="42.78785290156575" lon="11.754490214719045"><ele>344.6666666666667</ele><time>2026-04-22T08:23:47.999Z</time></trkpt><trkpt lat="42.78777231165044" lon="11.75468965767898"><ele>344.0</ele><time>2026-04-22T08:23:48.999Z</time></trkpt><trkpt lat="42.78768667806281" lon="11.754884111796274"><ele>344.0</ele><time>2026-04-22T08:23:49.999Z</time></trkpt><trkpt lat="42.78759814020102" lon="11.755093573442954"><ele>344.0</ele><time>2026-04-22T08:23:50.999Z</time></trkpt><trkpt lat="42.78751331099673" lon="11.755306237803604"><ele>344.0</ele><time>2026-04-22T08:23:51.999Z</time></trkpt><trkpt lat="42.78742450902508" lon="11.755525804626432"><ele>344.0</ele><time>2026-04-22T08:23:52.999Z</time></trkpt><trkpt lat="42.78734743756174" lon="11.75573253387594"><ele>344.0</ele><time>2026-04-22T08:23:53.999Z</time></trkpt><trkpt lat="42.787270562731486" lon="11.755920689943034"><ele>344.0</ele><time>2026-04-22T08:23:54.999Z</time></trkpt><trkpt lat="42.78719722857072" lon="11.756096569651037"><ele>344.25</ele><time>2026-04-22T08:23:55.999Z</time></trkpt><trkpt lat="42.787131585396224" lon="11.75626169804935"><ele>344.5</ele><time>2026-04-22T08:23:56.999Z</time></trkpt><trkpt lat="42.787066708696564" lon="11.756420627809725"><ele>344.75</ele><time>2026-04-22T08:23:57.999Z</time></trkpt><trkpt lat="42.787014854364536" lon="11.756549317013965"><ele>345.0</ele><time>2026-04-22T08:23:58.999Z</time></trkpt><trkpt lat="42.78695993960021" lon="11.756680534424355"><ele>345.0</ele><time>2026-04-22T08:23:59.999Z</time></trkpt><trkpt lat="42.786908314461606" lon="11.75679868416164"><ele>345.0</ele><time>2026-04-22T08:24:00.999Z</time></trkpt><trkpt lat="42.786844258135524" lon="11.756931881612838"><ele>345.0</ele><time>2026-04-22T08:24:01.999Z</time></trkpt><trkpt lat="42.786787280855336" lon="11.757064446202993"><ele>345.0</ele><time>2026-04-22T08:24:02.999Z</time></trkpt><trkpt lat="42.78673658032744" lon="11.757187236007672"><ele>345.0</ele><time>2026-04-22T08:24:03.999Z</time></trkpt><trkpt lat="42.78668623240943" lon="11.757296701574885"><ele>344.4</ele><time>2026-04-22T08:24:04.999Z</time></trkpt><trkpt lat="42.786631251615105" lon="11.75739814963833"><ele>343.8</ele><time>2026-04-22T08:24:05.999Z</time></trkpt><trkpt lat="42.78659099256328" lon="11.7574884612431"><ele>343.20000000000005</ele><time>2026-04-22T08:24:06.999Z</time></trkpt><trkpt lat="42.78656719624295" lon="11.75768086416945"><ele>342.6</ele><time>2026-04-22T08:24:08.999Z</time></trkpt><trkpt lat="42.78656989414977" lon="11.757837183627874"><ele>342.0</ele><time>2026-04-22T08:24:10.999Z</time></trkpt><trkpt lat="42.78659721926686" lon="11.757980463240212"><ele>341.20000000000005</ele><time>2026-04-22T08:24:12.999Z</time></trkpt><trkpt lat="42.78660882188936" lon="11.758087395494284"><ele>340.4</ele><time>2026-04-22T08:24:13.999Z</time></trkpt><trkpt lat="42.78662244897562" lon="11.758212740133645"><ele>339.6</ele><time>2026-04-22T08:24:14.999Z</time></trkpt><trkpt lat="42.78664174436518" lon="11.758326816812316"><ele>338.79999999999995</ele><time>2026-04-22T08:24:15.999Z</time></trkpt><trkpt lat="42.78665227099317" lon="11.758464317513818"><ele>338.0</ele><time>2026-04-22T08:24:16.999Z</time></trkpt><trkpt lat="42.78666520287814" lon="11.758607629747619"><ele>336.59999999999997</ele><time>2026-04-22T08:24:17.999Z</time></trkpt><trkpt lat="42.78667811093733" lon="11.758742406372031"><ele>335.2</ele><time>2026-04-22T08:24:18.999Z</time></trkpt><trkpt lat="42.7866881791775" lon="11.75889711947756"><ele>333.8</ele><time>2026-04-22T08:24:19.999Z</time></trkpt><trkpt lat="42.78669333868892" lon="11.759041717176576"><ele>332.4</ele><time>2026-04-22T08:24:20.999Z</time></trkpt><trkpt lat="42.786706746743334" lon="11.759191724258642"><ele>331.0</ele><time>2026-04-22T08:24:21.999Z</time></trkpt><trkpt lat="42.78672263227281" lon="11.759320959124668"><ele>330.0</ele><time>2026-04-22T08:24:22.999Z</time></trkpt><trkpt lat="42.786732993418575" lon="11.759452602554049"><ele>329.0</ele><time>2026-04-22T08:24:23.999Z</time></trkpt><trkpt lat="42.78674586571908" lon="11.75959047347396"><ele>328.0</ele><time>2026-04-22T08:24:24.999Z</time></trkpt><trkpt lat="42.78674251688749" lon="11.759735069089308"><ele>327.0</ele><time>2026-04-22T08:24:25.999Z</time></trkpt><trkpt lat="42.78675281825388" lon="11.759882314358112"><ele>326.0</ele><time>2026-04-22T08:24:26.999Z</time></trkpt><trkpt lat="42.78676478596807" lon="11.760034588144645"><ele>326.0</ele><time>2026-04-22T08:24:27.999Z</time></trkpt><trkpt lat="42.78678157644884" lon="11.760195795969878"><ele>326.0</ele><time>2026-04-22T08:24:28.999Z</time></trkpt><trkpt lat="42.78680174394898" lon="11.760366612525239"><ele>326.0</ele><time>2026-04-22T08:24:29.999Z</time></trkpt><trkpt lat="42.78681923902288" lon="11.760530664260656"><ele>326.0</ele><time>2026-04-22T08:24:30.999Z</time></trkpt><trkpt lat="42.786835951990895" lon="11.760701507839272"><ele>327.75</ele><time>2026-04-22T08:24:31.999Z</time></trkpt><trkpt lat="42.78685263342076" lon="11.760874552550439"><ele>329.5</ele><time>2026-04-22T08:24:32.999Z</time></trkpt><trkpt lat="42.78687113805001" lon="11.761071434282192"><ele>331.25</ele><time>2026-04-22T08:24:33.999Z</time></trkpt><trkpt lat="42.7868905110685" lon="11.761277554777978"><ele>333.0</ele><time>2026-04-22T08:24:34.999Z</time></trkpt><trkpt lat="42.78691139536246" lon="11.761499754531235"><ele>333.0</ele><time>2026-04-22T08:24:35.999Z</time></trkpt><trkpt lat="42.78693469632466" lon="11.761747667123798"><ele>333.0</ele><time>2026-04-22T08:24:36.999Z</time></trkpt><trkpt lat="42.78695781688818" lon="11.76199366015697"><ele>333.0</ele><time>2026-04-22T08:24:37.999Z</time></trkpt><trkpt lat="42.78698051082416" lon="11.762247121156125"><ele>332.6666666666667</ele><time>2026-04-22T08:24:38.999Z</time></trkpt><trkpt lat="42.78700285519043" lon="11.762497794164076"><ele>332.33333333333337</ele><time>2026-04-22T08:24:39.999Z</time></trkpt><trkpt lat="42.787025181122274" lon="11.76274826029297"><ele>332.0</ele><time>2026-04-22T08:24:40.999Z</time></trkpt><trkpt lat="42.787046113878255" lon="11.762987415745906"><ele>332.0</ele><time>2026-04-22T08:24:41.999Z</time></trkpt><trkpt lat="42.78706723546021" lon="11.763230275068484"><ele>332.0</ele><time>2026-04-22T08:24:42.999Z</time></trkpt><trkpt lat="42.78708760952704" lon="11.763464540600971"><ele>332.0</ele><time>2026-04-22T08:24:43.999Z</time></trkpt><trkpt lat="42.78710640725712" lon="11.763680680361281"><ele>331.0</ele><time>2026-04-22T08:24:44.999Z</time></trkpt><trkpt lat="42.78712596524932" lon="11.76389775038963"><ele>330.0</ele><time>2026-04-22T08:24:45.999Z</time></trkpt><trkpt lat="42.787145439544204" lon="11.764109592485429"><ele>329.0</ele><time>2026-04-22T08:24:46.999Z</time></trkpt><trkpt lat="42.78716345237728" lon="11.764305766185398"><ele>327.5</ele><time>2026-04-22T08:24:47.999Z</time></trkpt><trkpt lat="42.78717881866274" lon="11.76447692223723"><ele>326.0</ele><time>2026-04-22T08:24:48.999Z</time></trkpt><trkpt lat="42.7871958596004" lon="11.764666731312966"><ele>324.5</ele><time>2026-04-22T08:24:49.999Z</time></trkpt><trkpt lat="42.787212598667416" lon="11.764863207888244"><ele>323.0</ele><time>2026-04-22T08:24:50.999Z</time></trkpt><trkpt lat="42.787230813919955" lon="11.76507451149485"><ele>320.0</ele><time>2026-04-22T08:24:51.999Z</time></trkpt><trkpt lat="42.787253300141565" lon="11.765297763525258"><ele>317.0</ele><time>2026-04-22T08:24:52.999Z</time></trkpt><trkpt lat="42.78728045065859" lon="11.765527728119299"><ele>314.0</ele><time>2026-04-22T08:24:53.999Z</time></trkpt><trkpt lat="42.78730716469909" lon="11.765739773573756"><ele>314.0</ele><time>2026-04-22T08:24:54.999Z</time></trkpt><trkpt lat="42.787332152501406" lon="11.76594391526532"><ele>314.0</ele><time>2026-04-22T08:24:55.999Z</time></trkpt><trkpt lat="42.787367338630666" lon="11.766143917172574"><ele>314.0</ele><time>2026-04-22T08:24:56.999Z</time></trkpt><trkpt lat="42.78736823908809" lon="11.766359777856138"><ele>312.33333333333337</ele><time>2026-04-22T08:24:57.999Z</time></trkpt><trkpt lat="42.787381089360004" lon="11.766579051381626"><ele>310.6666666666667</ele><time>2026-04-22T08:24:58.999Z</time></trkpt><trkpt lat="42.78739070681856" lon="11.766797764525872"><ele>309.0</ele><time>2026-04-22T08:24:59.999Z</time></trkpt><trkpt lat="42.78739921050791" lon="11.767022031276317"><ele>308.6666666666667</ele><time>2026-04-22T08:25:01Z</time></trkpt><trkpt lat="42.78740824655056" lon="11.767260337458014"><ele>308.33333333333337</ele><time>2026-04-22T08:25:02Z</time></trkpt><trkpt lat="42.787417158479535" lon="11.76750206704518"><ele>308.0</ele><time>2026-04-22T08:25:03Z</time></trkpt><trkpt lat="42.787425651760124" lon="11.76773456010182"><ele>307.6666666666667</ele><time>2026-04-22T08:25:04Z</time></trkpt><trkpt lat="42.78743429876968" lon="11.767971261256816"><ele>307.3333333333333</ele><time>2026-04-22T08:25:05Z</time></trkpt><trkpt lat="42.787443235682915" lon="11.76821589817309"><ele>307.0</ele><time>2026-04-22T08:25:06Z</time></trkpt><trkpt lat="42.78745182610043" lon="11.7684510506604"><ele>306.66666666666663</ele><time>2026-04-22T08:25:07Z</time></trkpt><trkpt lat="42.787460613710294" lon="11.768691600488468"><ele>306.3333333333333</ele><time>2026-04-22T08:25:08Z</time></trkpt><trkpt lat="42.78746936463001" lon="11.768931146203492"><ele>306.0</ele><time>2026-04-22T08:25:09Z</time></trkpt><trkpt lat="42.78747799139898" lon="11.769161771583601"><ele>306.0</ele><time>2026-04-22T08:25:10Z</time></trkpt><trkpt lat="42.787486907680965" lon="11.769398295730692"><ele>306.0</ele><time>2026-04-22T08:25:11Z</time></trkpt><trkpt lat="42.787495942391025" lon="11.769637961515086"><ele>306.0</ele><time>2026-04-22T08:25:12Z</time></trkpt><trkpt lat="42.787504581018354" lon="11.769867120336276"><ele>306.0</ele><time>2026-04-22T08:25:13Z</time></trkpt><trkpt lat="42.78751301211768" lon="11.770094584597425"><ele>306.0</ele><time>2026-04-22T08:25:14Z</time></trkpt><trkpt lat="42.78752039338095" lon="11.770314944796487"><ele>306.0</ele><time>2026-04-22T08:25:15Z</time></trkpt><trkpt lat="42.787527784994445" lon="11.770535613788546"><ele>305.3333333333333</ele><time>2026-04-22T08:25:16Z</time></trkpt><trkpt lat="42.78753553487893" lon="11.770764981171029"><ele>304.66666666666663</ele><time>2026-04-22T08:25:17Z</time></trkpt><trkpt lat="42.78754402337044" lon="11.770985965057328"><ele>304.0</ele><time>2026-04-22T08:25:18Z</time></trkpt><trkpt lat="42.787553728370675" lon="11.771187560171567"><ele>303.5</ele><time>2026-04-22T08:25:19Z</time></trkpt><trkpt lat="42.78756290293202" lon="11.771367693691493"><ele>303.0</ele><time>2026-04-22T08:25:20Z</time></trkpt><trkpt lat="42.78757172088337" lon="11.771540825974338"><ele>302.5</ele><time>2026-04-22T08:25:21Z</time></trkpt><trkpt lat="42.7875789299364" lon="11.771698897163363"><ele>302.0</ele><time>2026-04-22T08:25:22Z</time></trkpt><trkpt lat="42.78758476471807" lon="11.771864086203452"><ele>302.0</ele><time>2026-04-22T08:25:23Z</time></trkpt><trkpt lat="42.78758623744666" lon="11.772002539005785"><ele>302.0</ele><time>2026-04-22T08:25:24Z</time></trkpt><trkpt lat="42.78758031090229" lon="11.7721583848003"><ele>302.0</ele><time>2026-04-22T08:25:25Z</time></trkpt><trkpt lat="42.78756287261313" lon="11.772306481510045"><ele>302.0</ele><time>2026-04-22T08:25:26Z</time></trkpt><trkpt lat="42.787521600769956" lon="11.772559938407092"><ele>302.0</ele><time>2026-04-22T08:25:28Z</time></trkpt><trkpt lat="42.787508141582705" lon="11.772673092832358"><ele>302.0</ele><time>2026-04-22T08:25:29Z</time></trkpt><trkpt lat="42.78748425189408" lon="11.77281546783194"><ele>302.0</ele><time>2026-04-22T08:25:30Z</time></trkpt><trkpt lat="42.787460071193514" lon="11.772949617069672"><ele>302.0</ele><time>2026-04-22T08:25:31Z</time></trkpt><trkpt lat="42.78742969622088" lon="11.773092009933826"><ele>302.0</ele><time>2026-04-22T08:25:31.999Z</time></trkpt><trkpt lat="42.7874071800526" lon="11.773253486126535"><ele>301.5</ele><time>2026-04-22T08:25:32.999Z</time></trkpt><trkpt lat="42.787387173728014" lon="11.77340442024945"><ele>301.0</ele><time>2026-04-22T08:25:33.999Z</time></trkpt><trkpt lat="42.78735620693294" lon="11.773555312935263"><ele>300.5</ele><time>2026-04-22T08:25:34.999Z</time></trkpt><trkpt lat="42.787328599589976" lon="11.773712881996355"><ele>300.0</ele><time>2026-04-22T08:25:35.999Z</time></trkpt><trkpt lat="42.78730152999164" lon="11.77385930007555"><ele>299.75</ele><time>2026-04-22T08:25:36.999Z</time></trkpt><trkpt lat="42.78727064020825" lon="11.774009939446298"><ele>299.5</ele><time>2026-04-22T08:25:37.999Z</time></trkpt><trkpt lat="42.78724129327791" lon="11.77416361608034"><ele>299.25</ele><time>2026-04-22T08:25:38.999Z</time></trkpt><trkpt lat="42.7872163181339" lon="11.774319443648642"><ele>299.0</ele><time>2026-04-22T08:25:39.999Z</time></trkpt><trkpt lat="42.78718664842276" lon="11.774472966972956"><ele>299.0</ele><time>2026-04-22T08:25:40.999Z</time></trkpt><trkpt lat="42.78715274440827" lon="11.774621402702712"><ele>299.0</ele><time>2026-04-22T08:25:41.999Z</time></trkpt><trkpt lat="42.78712864029238" lon="11.774760720317877"><ele>299.0</ele><time>2026-04-22T08:25:42.999Z</time></trkpt><trkpt lat="42.787089065562036" lon="11.774878954951976"><ele>299.0</ele><time>2026-04-22T08:25:43.999Z</time></trkpt><trkpt lat="42.78706276950647" lon="11.774997072460582"><ele>299.0</ele><time>2026-04-22T08:25:44.999Z</time></trkpt><trkpt lat="42.7870411728046" lon="11.775119484401184"><ele>299.0</ele><time>2026-04-22T08:25:45.999Z</time></trkpt><trkpt lat="42.78702690066611" lon="11.775249644248417"><ele>299.0</ele><time>2026-04-22T08:25:46.999Z</time></trkpt><trkpt lat="42.78703350615876" lon="11.77537899505901"><ele>299.0</ele><time>2026-04-22T08:25:47.999Z</time></trkpt><trkpt lat="42.78702987273951" lon="11.775512841804046"><ele>299.0</ele><time>2026-04-22T08:25:48.999Z</time></trkpt><trkpt lat="42.78709195261615" lon="11.775661804467425"><ele>299.0</ele><time>2026-04-22T08:25:49.999Z</time></trkpt><trkpt lat="42.78714945277445" lon="11.775820435839828"><ele>299.0</ele><time>2026-04-22T08:25:50.999Z</time></trkpt><trkpt lat="42.7872071619336" lon="11.77598898566204"><ele>299.0</ele><time>2026-04-22T08:25:51.999Z</time></trkpt><trkpt lat="42.7872775207761" lon="11.77614786539301"><ele>299.0</ele><time>2026-04-22T08:25:52.999Z</time></trkpt><trkpt lat="42.787327877193995" lon="11.776295022971414"><ele>299.0</ele><time>2026-04-22T08:25:53.999Z</time></trkpt><trkpt lat="42.787386181395405" lon="11.776421032178089"><ele>299.2</ele><time>2026-04-22T08:25:54.999Z</time></trkpt><trkpt lat="42.78743165937622" lon="11.776535378530031"><ele>299.4</ele><time>2026-04-22T08:25:55.999Z</time></trkpt><trkpt lat="42.78743288213971" lon="11.776629456880862"><ele>299.6</ele><time>2026-04-22T08:25:56.999Z</time></trkpt><trkpt lat="42.787452279619025" lon="11.776757499978457"><ele>299.8</ele><time>2026-04-22T08:25:58.999Z</time></trkpt><trkpt lat="42.78758968315716" lon="11.776773187908683"><ele>300.0</ele><time>2026-04-22T08:25:59.999Z</time></trkpt><trkpt lat="42.7876718390952" lon="11.776801476849291"><ele>299.8</ele><time>2026-04-22T08:26:00.999Z</time></trkpt><trkpt lat="42.78777433060794" lon="11.776847835173694"><ele>299.6</ele><time>2026-04-22T08:26:01.999Z</time></trkpt><trkpt lat="42.78787807680617" lon="11.776910401053135"><ele>299.4</ele><time>2026-04-22T08:26:02.999Z</time></trkpt><trkpt lat="42.787961659120214" lon="11.777012784125677"><ele>299.2</ele><time>2026-04-22T08:26:03.999Z</time></trkpt><trkpt lat="42.78802792833895" lon="11.77710925943998"><ele>299.0</ele><time>2026-04-22T08:26:04.999Z</time></trkpt><trkpt lat="42.78808167268083" lon="11.777211060224488"><ele>298.8</ele><time>2026-04-22T08:26:05.999Z</time></trkpt><trkpt lat="42.788130620242036" lon="11.777324653930526"><ele>298.59999999999997</ele><time>2026-04-22T08:26:06.999Z</time></trkpt><trkpt lat="42.78812535568667" lon="11.777453168152876"><ele>298.4</ele><time>2026-04-22T08:26:07.999Z</time></trkpt><trkpt lat="42.7881202056612" lon="11.777590315505963"><ele>298.2</ele><time>2026-04-22T08:26:08.999Z</time></trkpt><trkpt lat="42.78810690338743" lon="11.777745287135424"><ele>298.0</ele><time>2026-04-22T08:26:09.999Z</time></trkpt><trkpt lat="42.78810663214135" lon="11.777910383148793"><ele>298.0</ele><time>2026-04-22T08:26:10.999Z</time></trkpt><trkpt lat="42.788088919352475" lon="11.778062319944066"><ele>298.0</ele><time>2026-04-22T08:26:11.999Z</time></trkpt><trkpt lat="42.78807197873393" lon="11.778234400542594"><ele>298.0</ele><time>2026-04-22T08:26:12.999Z</time></trkpt><trkpt lat="42.788037118142675" lon="11.778406241150687"><ele>298.0</ele><time>2026-04-22T08:26:13.999Z</time></trkpt><trkpt lat="42.78801834357653" lon="11.778576743793796"><ele>298.25</ele><time>2026-04-22T08:26:14.999Z</time></trkpt><trkpt lat="42.78799987239996" lon="11.77874449100913"><ele>298.5</ele><time>2026-04-22T08:26:15.999Z</time></trkpt><trkpt lat="42.78798125578775" lon="11.778912505654656"><ele>298.75</ele><time>2026-04-22T08:26:16.999Z</time></trkpt><trkpt lat="42.78796292746298" lon="11.779077058643908"><ele>299.0</ele><time>2026-04-22T08:26:17.999Z</time></trkpt><trkpt lat="42.7879444276674" lon="11.779243150960413"><ele>300.0</ele><time>2026-04-22T08:26:18.999Z</time></trkpt><trkpt lat="42.78792789706476" lon="11.779391563758612"><ele>301.0</ele><time>2026-04-22T08:26:19.999Z</time></trkpt><trkpt lat="42.78791166979036" lon="11.779537253451503"><ele>302.0</ele><time>2026-04-22T08:26:20.999Z</time></trkpt><trkpt lat="42.78789638891705" lon="11.779674445838639"><ele>303.0</ele><time>2026-04-22T08:26:21.999Z</time></trkpt><trkpt lat="42.78787969680764" lon="11.77982430882167"><ele>304.0</ele><time>2026-04-22T08:26:22.999Z</time></trkpt><trkpt lat="42.78786494541616" lon="11.779957418965093"><ele>304.0</ele><time>2026-04-22T08:26:23.999Z</time></trkpt><trkpt lat="42.78784982010179" lon="11.780096211449068"><ele>304.0</ele><time>2026-04-22T08:26:24.999Z</time></trkpt><trkpt lat="42.78783486957034" lon="11.780233400379977"><ele>304.0</ele><time>2026-04-22T08:26:25.999Z</time></trkpt><trkpt lat="42.787819249003704" lon="11.780376737722072"><ele>304.0</ele><time>2026-04-22T08:26:26.999Z</time></trkpt><trkpt lat="42.78782195690982" lon="11.780506355609758"><ele>304.0</ele><time>2026-04-22T08:26:27.999Z</time></trkpt><trkpt lat="42.78779131580818" lon="11.780639542400767"><ele>305.2</ele><time>2026-04-22T08:26:28.999Z</time></trkpt><trkpt lat="42.78777591007823" lon="11.78078804243169"><ele>306.4</ele><time>2026-04-22T08:26:29.999Z</time></trkpt><trkpt lat="42.787761032994815" lon="11.780931446724912"><ele>307.6</ele><time>2026-04-22T08:26:30.999Z</time></trkpt><trkpt lat="42.7877446748885" lon="11.781089127065986"><ele>308.8</ele><time>2026-04-22T08:26:31.999Z</time></trkpt><trkpt lat="42.787729571500165" lon="11.781231723961344"><ele>310.0</ele><time>2026-04-22T08:26:32.999Z</time></trkpt><trkpt lat="42.787714455348194" lon="11.781366000885317"><ele>310.2</ele><time>2026-04-22T08:26:33.999Z</time></trkpt><trkpt lat="42.787699194656476" lon="11.781501561399136"><ele>310.4</ele><time>2026-04-22T08:26:34.999Z</time></trkpt><trkpt lat="42.787683423969504" lon="11.781641652406835"><ele>310.6</ele><time>2026-04-22T08:26:35.999Z</time></trkpt><trkpt lat="42.78768385311057" lon="11.781777946872028"><ele>310.8</ele><time>2026-04-22T08:26:36.999Z</time></trkpt><trkpt lat="42.78766809066239" lon="11.78192474745567"><ele>311.0</ele><time>2026-04-22T08:26:37.999Z</time></trkpt><trkpt lat="42.78763694329268" lon="11.782056105478642"><ele>311.0</ele><time>2026-04-22T08:26:38.999Z</time></trkpt><trkpt lat="42.787635758050584" lon="11.782208433978699"><ele>311.0</ele><time>2026-04-22T08:26:39.999Z</time></trkpt><trkpt lat="42.78761866365218" lon="11.782347444049652"><ele>311.0</ele><time>2026-04-22T08:26:40.999Z</time></trkpt><trkpt lat="42.787602268096244" lon="11.782490495441923"><ele>311.0</ele><time>2026-04-22T08:26:41.999Z</time></trkpt><trkpt lat="42.78759075951087" lon="11.782636437415944"><ele>311.0</ele><time>2026-04-22T08:26:42.999Z</time></trkpt><trkpt lat="42.78757128812851" lon="11.782777520031038"><ele>311.2</ele><time>2026-04-22T08:26:43.999Z</time></trkpt><trkpt lat="42.78755828435233" lon="11.782917086774606"><ele>311.40000000000003</ele><time>2026-04-22T08:26:44.999Z</time></trkpt><trkpt lat="42.787531609255524" lon="11.78304612238422"><ele>311.6</ele><time>2026-04-22T08:26:45.999Z</time></trkpt><trkpt lat="42.78749884727394" lon="11.783166805501978"><ele>311.8</ele><time>2026-04-22T08:26:46.999Z</time></trkpt><trkpt lat="42.78750237481707" lon="11.783349116085871"><ele>312.0</ele><time>2026-04-22T08:26:47.999Z</time></trkpt><trkpt lat="42.787497597637866" lon="11.783507061464253"><ele>313.0</ele><time>2026-04-22T08:26:48.999Z</time></trkpt><trkpt lat="42.78749668307875" lon="11.783663451390947"><ele>314.0</ele><time>2026-04-22T08:26:49.999Z</time></trkpt><trkpt lat="42.787496244455866" lon="11.78381969943032"><ele>315.0</ele><time>2026-04-22T08:26:50.999Z</time></trkpt><trkpt lat="42.78749743147498" lon="11.783971228406108"><ele>316.0</ele><time>2026-04-22T08:26:51.999Z</time></trkpt><trkpt lat="42.78749894525584" lon="11.784108879582258"><ele>317.0</ele><time>2026-04-22T08:26:52.999Z</time></trkpt><trkpt lat="42.78750044799027" lon="11.784245526563646"><ele>317.2</ele><time>2026-04-22T08:26:53.999Z</time></trkpt><trkpt lat="42.787501929403355" lon="11.784380234616098"><ele>317.4</ele><time>2026-04-22T08:26:54.999Z</time></trkpt><trkpt lat="42.787503871402116" lon="11.784517565553731"><ele>317.6</ele><time>2026-04-22T08:26:55.999Z</time></trkpt><trkpt lat="42.78750553007259" lon="11.784653360367725"><ele>317.8</ele><time>2026-04-22T08:26:56.999Z</time></trkpt><trkpt lat="42.787506774357446" lon="11.784784092820358"><ele>318.0</ele><time>2026-04-22T08:26:57.999Z</time></trkpt><trkpt lat="42.787508036823425" lon="11.784920829074316"><ele>318.0</ele><time>2026-04-22T08:26:58.999Z</time></trkpt><trkpt lat="42.78750898047026" lon="11.785063666298138"><ele>318.0</ele><time>2026-04-22T08:26:59.999Z</time></trkpt><trkpt lat="42.787509903251184" lon="11.78520334464885"><ele>318.0</ele><time>2026-04-22T08:27:00.999Z</time></trkpt><trkpt lat="42.787510817297026" lon="11.785341701711278"><ele>318.0</ele><time>2026-04-22T08:27:01.999Z</time></trkpt><trkpt lat="42.78751177993544" lon="11.785487413517137"><ele>318.0</ele><time>2026-04-22T08:27:02.999Z</time></trkpt><trkpt lat="42.78751281100382" lon="11.785643483710684"><ele>318.0</ele><time>2026-04-22T08:27:03.999Z</time></trkpt><trkpt lat="42.78751386698164" lon="11.785803324081824"><ele>318.0</ele><time>2026-04-22T08:27:04.999Z</time></trkpt><trkpt lat="42.78751496499312" lon="11.785969526963205"><ele>318.0</ele><time>2026-04-22T08:27:05.999Z</time></trkpt><trkpt lat="42.78751610465595" lon="11.786142034719193"><ele>318.0</ele><time>2026-04-22T08:27:07Z</time></trkpt><trkpt lat="42.78751727096409" lon="11.786318574901623"><ele>319.0</ele><time>2026-04-22T08:27:08Z</time></trkpt><trkpt lat="42.78752172789058" lon="11.7866617928626"><ele>320.0</ele><time>2026-04-22T08:27:10Z</time></trkpt><trkpt lat="42.78752626415923" lon="11.786813448147159"><ele>321.0</ele><time>2026-04-22T08:27:11Z</time></trkpt><trkpt lat="42.78753774099795" lon="11.786957803864933"><ele>322.0</ele><time>2026-04-22T08:27:12Z</time></trkpt><trkpt lat="42.78755110995307" lon="11.787100934197875"><ele>323.0</ele><time>2026-04-22T08:27:13Z</time></trkpt><trkpt lat="42.78755403619652" lon="11.787256942279447"><ele>324.0</ele><time>2026-04-22T08:27:14Z</time></trkpt><trkpt lat="42.78754074890739" lon="11.787391995613548"><ele>325.0</ele><time>2026-04-22T08:27:15Z</time></trkpt><trkpt lat="42.78754302062293" lon="11.787534536028517"><ele>326.0</ele><time>2026-04-22T08:27:16Z</time></trkpt><trkpt lat="42.78754596561082" lon="11.78766233136553"><ele>326.4</ele><time>2026-04-22T08:27:17Z</time></trkpt><trkpt lat="42.787565957714015" lon="11.787804527141214"><ele>326.8</ele><time>2026-04-22T08:27:18Z</time></trkpt><trkpt lat="42.78755924892139" lon="11.787935177924034"><ele>327.2</ele><time>2026-04-22T08:27:19Z</time></trkpt><trkpt lat="42.787569592931426" lon="11.788079725878072"><ele>327.59999999999997</ele><time>2026-04-22T08:27:20Z</time></trkpt><trkpt lat="42.787586481968766" lon="11.788191626476268"><ele>328.0</ele><time>2026-04-22T08:27:21Z</time></trkpt><trkpt lat="42.78761948984461" lon="11.788323658280415"><ele>328.0</ele><time>2026-04-22T08:27:22Z</time></trkpt><trkpt lat="42.78764622232424" lon="11.788468601902172"><ele>328.0</ele><time>2026-04-22T08:27:23Z</time></trkpt><trkpt lat="42.78771813314209" lon="11.788615286908625"><ele>328.0</ele><time>2026-04-22T08:27:24Z</time></trkpt><trkpt lat="42.78777287302648" lon="11.788784460869408"><ele>328.0</ele><time>2026-04-22T08:27:25Z</time></trkpt><trkpt lat="42.78781875252153" lon="11.788939686547481"><ele>329.0</ele><time>2026-04-22T08:27:27Z</time></trkpt><trkpt lat="42.78779868769764" lon="11.789047909575736"><ele>330.0</ele><time>2026-04-22T08:27:28Z</time></trkpt><trkpt lat="42.7877890668892" lon="11.789155596608802"><ele>331.0</ele><time>2026-04-22T08:27:29Z</time></trkpt><trkpt lat="42.78775675617619" lon="11.789246958434141"><ele>332.0</ele><time>2026-04-22T08:27:30Z</time></trkpt><trkpt lat="42.78770150179978" lon="11.789317900308214"><ele>333.0</ele><time>2026-04-22T08:27:31Z</time></trkpt><trkpt lat="42.78763337048191" lon="11.789408544071051"><ele>334.0</ele><time>2026-04-22T08:27:32Z</time></trkpt><trkpt lat="42.7875488745642" lon="11.789482603365684"><ele>334.25</ele><time>2026-04-22T08:27:33Z</time></trkpt><trkpt lat="42.78745647102403" lon="11.78952085616133"><ele>334.5</ele><time>2026-04-22T08:27:34Z</time></trkpt><trkpt lat="42.78734886558726" lon="11.7895643139899"><ele>334.75</ele><time>2026-04-22T08:27:35Z</time></trkpt><trkpt lat="42.787237551142454" lon="11.78960580765885"><ele>335.0</ele><time>2026-04-22T08:27:36Z</time></trkpt><trkpt lat="42.7871142985829" lon="11.789651015459325"><ele>335.0</ele><time>2026-04-22T08:27:37Z</time></trkpt><trkpt lat="42.786993284210475" lon="11.78970084259619"><ele>335.0</ele><time>2026-04-22T08:27:38Z</time></trkpt><trkpt lat="42.786903768365285" lon="11.78976265736436"><ele>335.0</ele><time>2026-04-22T08:27:38.999Z</time></trkpt><trkpt lat="42.78682964797427" lon="11.78979773055809"><ele>335.0</ele><time>2026-04-22T08:27:39.999Z</time></trkpt><trkpt lat="42.78675708045355" lon="11.789850361362605"><ele>335.0</ele><time>2026-04-22T08:27:40.999Z</time></trkpt><trkpt lat="42.78669620316385" lon="11.789916744687568"><ele>336.4</ele><time>2026-04-22T08:27:41.999Z</time></trkpt><trkpt lat="42.786628721898715" lon="11.789995174568018"><ele>337.8</ele><time>2026-04-22T08:27:42.999Z</time></trkpt><trkpt lat="42.78660301228127" lon="11.790120305757776"><ele>339.20000000000005</ele><time>2026-04-22T08:27:43.999Z</time></trkpt><trkpt lat="42.78658381520155" lon="11.790251039802257"><ele>340.6</ele><time>2026-04-22T08:27:44.999Z</time></trkpt><trkpt lat="42.786572569791424" lon="11.790382773976038"><ele>342.0</ele><time>2026-04-22T08:27:45.999Z</time></trkpt><trkpt lat="42.78657743834748" lon="11.790508914940803"><ele>342.20000000000005</ele><time>2026-04-22T08:27:46.999Z</time></trkpt><trkpt lat="42.78659772598782" lon="11.790609717983733"><ele>342.4</ele><time>2026-04-22T08:27:47.999Z</time></trkpt><trkpt lat="42.78663055952277" lon="11.790713944945134"><ele>342.6</ele><time>2026-04-22T08:27:48.999Z</time></trkpt><trkpt lat="42.78666677913386" lon="11.790829172085573"><ele>342.79999999999995</ele><time>2026-04-22T08:27:49.999Z</time></trkpt><trkpt lat="42.786684556517045" lon="11.79093703430757"><ele>343.0</ele><time>2026-04-22T08:27:50.999Z</time></trkpt><trkpt lat="42.786688181340196" lon="11.79110428683483"><ele>343.2</ele><time>2026-04-22T08:27:52.999Z</time></trkpt><trkpt lat="42.786674190069505" lon="11.791190415509709"><ele>343.4</ele><time>2026-04-22T08:27:53.999Z</time></trkpt><trkpt lat="42.7866179888041" lon="11.791337623369191"><ele>343.59999999999997</ele><time>2026-04-22T08:27:55.999Z</time></trkpt><trkpt lat="42.7865686561339" lon="11.791414827755684"><ele>343.79999999999995</ele><time>2026-04-22T08:27:56.999Z</time></trkpt><trkpt lat="42.786518032963244" lon="11.791487724997788"><ele>344.0</ele><time>2026-04-22T08:27:57.999Z</time></trkpt><trkpt lat="42.78640195680551" lon="11.791551954952894"><ele>344.0</ele><time>2026-04-22T08:27:59.999Z</time></trkpt><trkpt lat="42.78629146916773" lon="11.791526492322614"><ele>344.0</ele><time>2026-04-22T08:28:01.999Z</time></trkpt><trkpt lat="42.786217806492104" lon="11.791405265516074"><ele>344.0</ele><time>2026-04-22T08:28:03.999Z</time></trkpt><trkpt lat="42.786182807125286" lon="11.791322804729841"><ele>344.0</ele><time>2026-04-22T08:28:04.999Z</time></trkpt><trkpt lat="42.78615744144939" lon="11.79123464384387"><ele>344.0</ele><time>2026-04-22T08:28:05.999Z</time></trkpt><trkpt lat="42.786142860458995" lon="11.791120716838908"><ele>343.79999999999995</ele><time>2026-04-22T08:28:06.999Z</time></trkpt><trkpt lat="42.786125932470576" lon="11.790978281676587"><ele>343.59999999999997</ele><time>2026-04-22T08:28:07.999Z</time></trkpt><trkpt lat="42.786110220737726" lon="11.790871485241626"><ele>343.4</ele><time>2026-04-22T08:28:08.999Z</time></trkpt><trkpt lat="42.786075871820096" lon="11.790785773522403"><ele>343.2</ele><time>2026-04-22T08:28:09.999Z</time></trkpt><trkpt lat="42.785991529254346" lon="11.79070016698241"><ele>343.0</ele><time>2026-04-22T08:28:11.999Z</time></trkpt><trkpt lat="42.7858798069633" lon="11.790752388854136"><ele>345.66666666666663</ele><time>2026-04-22T08:28:13.999Z</time></trkpt><trkpt lat="42.785836805029476" lon="11.790827769168267"><ele>348.3333333333333</ele><time>2026-04-22T08:28:14.999Z</time></trkpt><trkpt lat="42.78581198916021" lon="11.790928538815624"><ele>351.0</ele><time>2026-04-22T08:28:15.999Z</time></trkpt><trkpt lat="42.78583244362714" lon="11.79103511249389"><ele>353.6666666666667</ele><time>2026-04-22T08:28:16.999Z</time></trkpt><trkpt lat="42.78585234307845" lon="11.791153210047838"><ele>356.33333333333337</ele><time>2026-04-22T08:28:17.999Z</time></trkpt><trkpt lat="42.785851775753414" lon="11.791267147884511"><ele>359.0</ele><time>2026-04-22T08:28:18.999Z</time></trkpt><trkpt lat="42.78584058098667" lon="11.791377186614293"><ele>359.4</ele><time>2026-04-22T08:28:19.999Z</time></trkpt><trkpt lat="42.785786067062766" lon="11.791496895866505"><ele>359.79999999999995</ele><time>2026-04-22T08:28:21.999Z</time></trkpt><trkpt lat="42.78571802319679" lon="11.791619481219536"><ele>360.20000000000005</ele><time>2026-04-22T08:28:23.999Z</time></trkpt><trkpt lat="42.785631708535284" lon="11.791559328925235"><ele>360.6</ele><time>2026-04-22T08:28:25.999Z</time></trkpt><trkpt lat="42.78558578318761" lon="11.79143977181773"><ele>361.0</ele><time>2026-04-22T08:28:27.999Z</time></trkpt><trkpt lat="42.78555658049153" lon="11.791281019021733"><ele>361.0</ele><time>2026-04-22T08:28:29.999Z</time></trkpt><trkpt lat="42.78552928235589" lon="11.791190483557997"><ele>361.0</ele><time>2026-04-22T08:28:30.999Z</time></trkpt><trkpt lat="42.78549160964" lon="11.791099647323959"><ele>361.0</ele><time>2026-04-22T08:28:31.999Z</time></trkpt><trkpt lat="42.78544300940568" lon="11.791026013504823"><ele>361.0</ele><time>2026-04-22T08:28:32.999Z</time></trkpt><trkpt lat="42.785256332443666" lon="11.790984477977819"><ele>361.0</ele><time>2026-04-22T08:28:35.999Z</time></trkpt><trkpt lat="42.78520940317477" lon="11.791054484521466"><ele>361.0</ele><time>2026-04-22T08:28:36.999Z</time></trkpt><trkpt lat="42.78518814705256" lon="11.791160028436682"><ele>361.0</ele><time>2026-04-22T08:28:37.999Z</time></trkpt><trkpt lat="42.7852490103998" lon="11.79133006948255"><ele>361.0</ele><time>2026-04-22T08:28:39.999Z</time></trkpt><trkpt lat="42.78529896234523" lon="11.791410852532534"><ele>361.0</ele><time>2026-04-22T08:28:40.999Z</time></trkpt><trkpt lat="42.78534479902116" lon="11.791493483135053"><ele>361.0</ele><time>2026-04-22T08:28:41.999Z</time></trkpt><trkpt lat="42.785368388003874" lon="11.791573924688945"><ele>361.0</ele><time>2026-04-22T08:28:42.999Z</time></trkpt><trkpt lat="42.785360641293586" lon="11.791746773309796"><ele>361.0</ele><time>2026-04-22T08:28:44.999Z</time></trkpt><trkpt lat="42.78531991464233" lon="11.791813169982358"><ele>361.0</ele><time>2026-04-22T08:28:45.999Z</time></trkpt><trkpt lat="42.78528689463253" lon="11.791895747644007"><ele>361.0</ele><time>2026-04-22T08:28:46.999Z</time></trkpt><trkpt lat="42.785216953500026" lon="11.791939751341992"><ele>361.0</ele><time>2026-04-22T08:28:47.999Z</time></trkpt><trkpt lat="42.78513190986246" lon="11.791987610296662"><ele>361.0</ele><time>2026-04-22T08:28:48.999Z</time></trkpt><trkpt lat="42.78505925474983" lon="11.79207107109549"><ele>361.0</ele><time>2026-04-22T08:28:49.999Z</time></trkpt><trkpt lat="42.78496995148515" lon="11.792150382876551"><ele>362.4</ele><time>2026-04-22T08:28:50.999Z</time></trkpt><trkpt lat="42.784894454949224" lon="11.792255380086106"><ele>363.8</ele><time>2026-04-22T08:28:51.999Z</time></trkpt><trkpt lat="42.78484279822345" lon="11.792361767362356"><ele>365.2</ele><time>2026-04-22T08:28:52.999Z</time></trkpt><trkpt lat="42.784793736763966" lon="11.792477014951706"><ele>366.59999999999997</ele><time>2026-04-22T08:28:53.999Z</time></trkpt><trkpt lat="42.78475127535075" lon="11.792600862722711"><ele>368.0</ele><time>2026-04-22T08:28:54.999Z</time></trkpt><trkpt lat="42.78471140708351" lon="11.792734363814265"><ele>368.0</ele><time>2026-04-22T08:28:55.999Z</time></trkpt><trkpt lat="42.78468926770153" lon="11.792862926013225"><ele>368.0</ele><time>2026-04-22T08:28:56.999Z</time></trkpt><trkpt lat="42.78466346649571" lon="11.793001862696963"><ele>368.0</ele><time>2026-04-22T08:28:57.999Z</time></trkpt><trkpt lat="42.7846488497842" lon="11.79312508712137"><ele>368.0</ele><time>2026-04-22T08:28:58.999Z</time></trkpt><trkpt lat="42.78462907276302" lon="11.793237367447508"><ele>368.0</ele><time>2026-04-22T08:28:59.999Z</time></trkpt><trkpt lat="42.78460560307902" lon="11.793330347233928"><ele>368.0</ele><time>2026-04-22T08:29:00.999Z</time></trkpt><trkpt lat="42.78455909917933" lon="11.793419359892283"><ele>368.0</ele><time>2026-04-22T08:29:01.999Z</time></trkpt><trkpt lat="42.784516656301186" lon="11.793500094961793"><ele>368.0</ele><time>2026-04-22T08:29:02.999Z</time></trkpt><trkpt lat="42.78445897788331" lon="11.79358341928963"><ele>368.0</ele><time>2026-04-22T08:29:03.999Z</time></trkpt><trkpt lat="42.784398970570216" lon="11.793676359378024"><ele>368.0</ele><time>2026-04-22T08:29:04.999Z</time></trkpt><trkpt lat="42.78435537060358" lon="11.793764741368657"><ele>368.0</ele><time>2026-04-22T08:29:05.999Z</time></trkpt><trkpt lat="42.78432531613499" lon="11.793867573991212"><ele>370.2</ele><time>2026-04-22T08:29:06.999Z</time></trkpt><trkpt lat="42.78426623525942" lon="11.793962559406605"><ele>372.4</ele><time>2026-04-22T08:29:07.999Z</time></trkpt><trkpt lat="42.78420903028864" lon="11.794081671276988"><ele>374.59999999999997</ele><time>2026-04-22T08:29:08.999Z</time></trkpt><trkpt lat="42.78414793437449" lon="11.794201443032959"><ele>376.79999999999995</ele><time>2026-04-22T08:29:09.999Z</time></trkpt><trkpt lat="42.78408442901129" lon="11.794320292194655"><ele>379.0</ele><time>2026-04-22T08:29:10.999Z</time></trkpt><trkpt lat="42.784020708148056" lon="11.794429101341633"><ele>379.0</ele><time>2026-04-22T08:29:11.999Z</time></trkpt><trkpt lat="42.78396166220339" lon="11.794520651905625"><ele>379.0</ele><time>2026-04-22T08:29:13Z</time></trkpt><trkpt lat="42.783908381006086" lon="11.794594770647661"><ele>379.0</ele><time>2026-04-22T08:29:14Z</time></trkpt><trkpt lat="42.783826259919245" lon="11.794671152411192"><ele>379.0</ele><time>2026-04-22T08:29:16Z</time></trkpt><trkpt lat="42.78373486903929" lon="11.794690952860925"><ele>379.0</ele><time>2026-04-22T08:29:18Z</time></trkpt><trkpt lat="42.783663982057874" lon="11.794644709705773"><ele>379.0</ele><time>2026-04-22T08:29:20Z</time></trkpt><trkpt lat="42.783644254364205" lon="11.794525402184487"><ele>379.0</ele><time>2026-04-22T08:29:22Z</time></trkpt><trkpt lat="42.783684139890575" lon="11.794403306392184"><ele>379.0</ele><time>2026-04-22T08:29:24Z</time></trkpt><trkpt lat="42.78371161270528" lon="11.79432523808222"><ele>379.0</ele><time>2026-04-22T08:29:25Z</time></trkpt><trkpt lat="42.78374320126089" lon="11.794230989758573"><ele>379.0</ele><time>2026-04-22T08:29:25.999Z</time></trkpt><trkpt lat="42.783778867957764" lon="11.794119592342435"><ele>379.0</ele><time>2026-04-22T08:29:26.999Z</time></trkpt><trkpt lat="42.783816817738995" lon="11.79400106426797"><ele>379.0</ele><time>2026-04-22T08:29:27.999Z</time></trkpt><trkpt lat="42.78385767478214" lon="11.79387558827093"><ele>379.8333333333333</ele><time>2026-04-22T08:29:29Z</time></trkpt><trkpt lat="42.783888066599715" lon="11.793762800891335"><ele>380.66666666666663</ele><time>2026-04-22T08:29:30Z</time></trkpt><trkpt lat="42.783886338559945" lon="11.793657691564784"><ele>381.5</ele><time>2026-04-22T08:29:31Z</time></trkpt><trkpt lat="42.7838664416203" lon="11.793497957024845"><ele>382.3333333333333</ele><time>2026-04-22T08:29:33Z</time></trkpt><trkpt lat="42.7838010118869" lon="11.793448068182338"><ele>383.1666666666667</ele><time>2026-04-22T08:29:34Z</time></trkpt><trkpt lat="42.783740579163585" lon="11.793383998094905"><ele>384.0</ele><time>2026-04-22T08:29:35Z</time></trkpt><trkpt lat="42.78366640450173" lon="11.793377439720166"><ele>384.79999999999995</ele><time>2026-04-22T08:29:36Z</time></trkpt><trkpt lat="42.78358208481692" lon="11.793408129858182"><ele>385.59999999999997</ele><time>2026-04-22T08:29:37Z</time></trkpt><trkpt lat="42.78352997372605" lon="11.793498363799056"><ele>386.4</ele><time>2026-04-22T08:29:38Z</time></trkpt><trkpt lat="42.78349052161529" lon="11.793583300551578"><ele>387.2</ele><time>2026-04-22T08:29:39Z</time></trkpt><trkpt lat="42.78345372911998" lon="11.793718359758703"><ele>388.0</ele><time>2026-04-22T08:29:40Z</time></trkpt><trkpt lat="42.78341821168792" lon="11.79385497088247"><ele>390.2</ele><time>2026-04-22T08:29:41Z</time></trkpt><trkpt lat="42.783363276408195" lon="11.793946034720742"><ele>392.4</ele><time>2026-04-22T08:29:42Z</time></trkpt><trkpt lat="42.78332020676176" lon="11.79401147588371"><ele>394.59999999999997</ele><time>2026-04-22T08:29:43Z</time></trkpt><trkpt lat="42.78323015948911" lon="11.794072475041492"><ele>396.79999999999995</ele><time>2026-04-22T08:29:45Z</time></trkpt><trkpt lat="42.783174513532316" lon="11.794016078482619"><ele>399.0</ele><time>2026-04-22T08:29:46Z</time></trkpt><trkpt lat="42.783077902480215" lon="11.793885878738749"><ele>399.0</ele><time>2026-04-22T08:29:47.999Z</time></trkpt><trkpt lat="42.78306486754913" lon="11.793742824596904"><ele>399.0</ele><time>2026-04-22T08:29:49.999Z</time></trkpt><trkpt lat="42.783095208638485" lon="11.793645711102123"><ele>399.0</ele><time>2026-04-22T08:29:50.999Z</time></trkpt><trkpt lat="42.78313555899443" lon="11.79353038131629"><ele>399.0</ele><time>2026-04-22T08:29:51.999Z</time></trkpt><trkpt lat="42.7831831340289" lon="11.793428697708244"><ele>399.0</ele><time>2026-04-22T08:29:52.999Z</time></trkpt><trkpt lat="42.78322905974078" lon="11.793325492518226"><ele>399.6666666666667</ele><time>2026-04-22T08:29:53.999Z</time></trkpt><trkpt lat="42.78326766657853" lon="11.793217591958111"><ele>400.33333333333337</ele><time>2026-04-22T08:29:54.999Z</time></trkpt><trkpt lat="42.783312707822724" lon="11.793112004166012"><ele>401.0</ele><time>2026-04-22T08:29:55.999Z</time></trkpt><trkpt lat="42.783362210503135" lon="11.793007282313614"><ele>401.6666666666667</ele><time>2026-04-22T08:29:56.999Z</time></trkpt><trkpt lat="42.78340317609243" lon="11.792906520500248"><ele>402.33333333333337</ele><time>2026-04-22T08:29:57.999Z</time></trkpt><trkpt lat="42.78342283660576" lon="11.792811785271011"><ele>403.0</ele><time>2026-04-22T08:29:58.999Z</time></trkpt><trkpt lat="42.78339956622821" lon="11.79266986607214"><ele>403.0</ele><time>2026-04-22T08:30:00.999Z</time></trkpt><trkpt lat="42.78329189146455" lon="11.79259569301519"><ele>403.0</ele><time>2026-04-22T08:30:02.999Z</time></trkpt><trkpt lat="42.783217916444315" lon="11.792654660718236"><ele>403.0</ele><time>2026-04-22T08:30:03.999Z</time></trkpt><trkpt lat="42.78313873690136" lon="11.792740215790586"><ele>403.0</ele><time>2026-04-22T08:30:04.999Z</time></trkpt><trkpt lat="42.78304259812575" lon="11.792855495619017"><ele>403.0</ele><time>2026-04-22T08:30:05.999Z</time></trkpt><trkpt lat="42.78296201432441" lon="11.792977761842838"><ele>403.33333333333337</ele><time>2026-04-22T08:30:06.999Z</time></trkpt><trkpt lat="42.78291375888636" lon="11.793095030976263"><ele>403.6666666666667</ele><time>2026-04-22T08:30:07.999Z</time></trkpt><trkpt lat="42.78288002654166" lon="11.793195138881357"><ele>404.0</ele><time>2026-04-22T08:30:08.999Z</time></trkpt><trkpt lat="42.78285926587006" lon="11.793319992350131"><ele>404.33333333333337</ele><time>2026-04-22T08:30:09.999Z</time></trkpt><trkpt lat="42.78284293920756" lon="11.793426382928656"><ele>404.6666666666667</ele><time>2026-04-22T08:30:10.999Z</time></trkpt><trkpt lat="42.78281127640418" lon="11.793537222179026"><ele>405.0</ele><time>2026-04-22T08:30:11.999Z</time></trkpt><trkpt lat="42.78276656280715" lon="11.793624472776289"><ele>405.8</ele><time>2026-04-22T08:30:12.999Z</time></trkpt><trkpt lat="42.782707385876336" lon="11.793674388310707"><ele>406.6</ele><time>2026-04-22T08:30:13.999Z</time></trkpt><trkpt lat="42.78262949843407" lon="11.793675169306235"><ele>407.4</ele><time>2026-04-22T08:30:14.999Z</time></trkpt><trkpt lat="42.78254095576628" lon="11.793721134312289"><ele>408.2</ele><time>2026-04-22T08:30:15.999Z</time></trkpt><trkpt lat="42.78244998354648" lon="11.793786940008253"><ele>409.0</ele><time>2026-04-22T08:30:16.999Z</time></trkpt><trkpt lat="42.78234842946372" lon="11.793839407746743"><ele>409.0</ele><time>2026-04-22T08:30:17.999Z</time></trkpt><trkpt lat="42.7822613193986" lon="11.793913284114183"><ele>409.0</ele><time>2026-04-22T08:30:18.999Z</time></trkpt><trkpt lat="42.782160686498145" lon="11.793949504823232"><ele>409.0</ele><time>2026-04-22T08:30:19.999Z</time></trkpt><trkpt lat="42.782061422330266" lon="11.794004323887705"><ele>409.0</ele><time>2026-04-22T08:30:20.999Z</time></trkpt><trkpt lat="42.78195755442594" lon="11.794065414377322"><ele>409.0</ele><time>2026-04-22T08:30:21.999Z</time></trkpt><trkpt lat="42.78186077332452" lon="11.7941488069619"><ele>409.75</ele><time>2026-04-22T08:30:22.999Z</time></trkpt><trkpt lat="42.78175591055539" lon="11.794206651656737"><ele>410.5</ele><time>2026-04-22T08:30:23.999Z</time></trkpt><trkpt lat="42.78165008765207" lon="11.794267814072024"><ele>411.25</ele><time>2026-04-22T08:30:24.999Z</time></trkpt><trkpt lat="42.781541205686956" lon="11.794332953787222"><ele>412.0</ele><time>2026-04-22T08:30:25.999Z</time></trkpt><trkpt lat="42.781434578072286" lon="11.794406607384426"><ele>412.0</ele><time>2026-04-22T08:30:26.999Z</time></trkpt><trkpt lat="42.781336686901945" lon="11.79449657466893"><ele>412.0</ele><time>2026-04-22T08:30:27.999Z</time></trkpt><trkpt lat="42.78123905677029" lon="11.794606812713587"><ele>412.0</ele><time>2026-04-22T08:30:28.999Z</time></trkpt><trkpt lat="42.781139022788764" lon="11.794719299552598"><ele>412.0</ele><time>2026-04-22T08:30:29.999Z</time></trkpt><trkpt lat="42.781040160908184" lon="11.79483749678327"><ele>414.5</ele><time>2026-04-22T08:30:30.999Z</time></trkpt><trkpt lat="42.78093554387994" lon="11.794956787727832"><ele>417.0</ele><time>2026-04-22T08:30:31.999Z</time></trkpt><trkpt lat="42.780829687287174" lon="11.79508086573393"><ele>419.5</ele><time>2026-04-22T08:30:32.999Z</time></trkpt><trkpt lat="42.78072574808701" lon="11.795204004408774"><ele>422.0</ele><time>2026-04-22T08:30:33.999Z</time></trkpt><trkpt lat="42.780628596601254" lon="11.795309611548815"><ele>422.40000000000003</ele><time>2026-04-22T08:30:34.999Z</time></trkpt><trkpt lat="42.78053522327165" lon="11.795392956114618"><ele>422.8</ele><time>2026-04-22T08:30:35.999Z</time></trkpt><trkpt lat="42.780436815558055" lon="11.795463841180732"><ele>423.2</ele><time>2026-04-22T08:30:36.999Z</time></trkpt><trkpt lat="42.780330505802645" lon="11.795520093281116"><ele>423.6</ele><time>2026-04-22T08:30:37.999Z</time></trkpt><trkpt lat="42.780221022771194" lon="11.79553288497476"><ele>424.0</ele><time>2026-04-22T08:30:38.999Z</time></trkpt><trkpt lat="42.78012154822417" lon="11.795576758464"><ele>424.0</ele><time>2026-04-22T08:30:39.999Z</time></trkpt><trkpt lat="42.78000817460456" lon="11.795610202408236"><ele>424.0</ele><time>2026-04-22T08:30:40.999Z</time></trkpt><trkpt lat="42.779894227035186" lon="11.795640984623098"><ele>424.0</ele><time>2026-04-22T08:30:41.999Z</time></trkpt><trkpt lat="42.77978978586397" lon="11.795687967410052"><ele>424.0</ele><time>2026-04-22T08:30:42.999Z</time></trkpt><trkpt lat="42.779704217458125" lon="11.795741680705431"><ele>424.0</ele><time>2026-04-22T08:30:43.999Z</time></trkpt><trkpt lat="42.779627450491375" lon="11.795807860852419"><ele>424.0</ele><time>2026-04-22T08:30:44.999Z</time></trkpt><trkpt lat="42.77956660116247" lon="11.795887029959655"><ele>424.0</ele><time>2026-04-22T08:30:45.999Z</time></trkpt><trkpt lat="42.779498578977666" lon="11.795993762138911"><ele>424.0</ele><time>2026-04-22T08:30:46.999Z</time></trkpt><trkpt lat="42.77943862254598" lon="11.79611561110132"><ele>424.0</ele><time>2026-04-22T08:30:47.999Z</time></trkpt><trkpt lat="42.77938386355789" lon="11.796255231116938"><ele>424.0</ele><time>2026-04-22T08:30:48.999Z</time></trkpt><trkpt lat="42.77934425060942" lon="11.79640141532775"><ele>421.79999999999995</ele><time>2026-04-22T08:30:49.999Z</time></trkpt><trkpt lat="42.779310975138074" lon="11.796543772129649"><ele>419.59999999999997</ele><time>2026-04-22T08:30:50.999Z</time></trkpt><trkpt lat="42.77928971344213" lon="11.796665665414439"><ele>417.4</ele><time>2026-04-22T08:30:51.999Z</time></trkpt><trkpt lat="42.77928676623953" lon="11.79677975985345"><ele>415.2</ele><time>2026-04-22T08:30:52.999Z</time></trkpt><trkpt lat="42.779299859445004" lon="11.796891949009627"><ele>413.0</ele><time>2026-04-22T08:30:53.999Z</time></trkpt><trkpt lat="42.77932393998999" lon="11.797023624894349"><ele>412.79999999999995</ele><time>2026-04-22T08:30:54.999Z</time></trkpt><trkpt lat="42.77936620273114" lon="11.797154661084646"><ele>412.6</ele><time>2026-04-22T08:30:55.999Z</time></trkpt><trkpt lat="42.7794186369716" lon="11.797291505838883"><ele>412.4</ele><time>2026-04-22T08:30:56.999Z</time></trkpt><trkpt lat="42.77946894132228" lon="11.79740865259119"><ele>412.20000000000005</ele><time>2026-04-22T08:30:57.999Z</time></trkpt><trkpt lat="42.77950818374545" lon="11.797513345586433"><ele>412.0</ele><time>2026-04-22T08:30:58.999Z</time></trkpt><trkpt lat="42.77954363639345" lon="11.797622610560484"><ele>410.6666666666667</ele><time>2026-04-22T08:30:59.999Z</time></trkpt><trkpt lat="42.77955914865175" lon="11.797715637855996"><ele>409.33333333333337</ele><time>2026-04-22T08:31:00.999Z</time></trkpt><trkpt lat="42.779532031794325" lon="11.797816469247248"><ele>408.0</ele><time>2026-04-22T08:31:01.999Z</time></trkpt><trkpt lat="42.77950503715092" lon="11.797909106958409"><ele>406.66666666666663</ele><time>2026-04-22T08:31:02.999Z</time></trkpt><trkpt lat="42.779461558551176" lon="11.79801675399119"><ele>405.3333333333333</ele><time>2026-04-22T08:31:03.999Z</time></trkpt><trkpt lat="42.77940993271568" lon="11.798102043957654"><ele>404.0</ele><time>2026-04-22T08:31:04.999Z</time></trkpt><trkpt lat="42.77934242930152" lon="11.798196258566634"><ele>404.0</ele><time>2026-04-22T08:31:05.999Z</time></trkpt><trkpt lat="42.779257435732" lon="11.79831512004858"><ele>404.0</ele><time>2026-04-22T08:31:06.999Z</time></trkpt><trkpt lat="42.77917168043105" lon="11.798434394093322"><ele>404.0</ele><time>2026-04-22T08:31:07.999Z</time></trkpt><trkpt lat="42.77909522420218" lon="11.798559008653204"><ele>404.0</ele><time>2026-04-22T08:31:08.999Z</time></trkpt><trkpt lat="42.779025128253274" lon="11.798658643517362"><ele>402.2</ele><time>2026-04-22T08:31:09.999Z</time></trkpt><trkpt lat="42.778968704680025" lon="11.79875676016909"><ele>400.4</ele><time>2026-04-22T08:31:10.999Z</time></trkpt><trkpt lat="42.77890916562642" lon="11.798838607900922"><ele>398.6</ele><time>2026-04-22T08:31:11.999Z</time></trkpt><trkpt lat="42.77884744520409" lon="11.798917121071296"><ele>396.8</ele><time>2026-04-22T08:31:12.999Z</time></trkpt><trkpt lat="42.77876581428203" lon="11.799009031979583"><ele>395.0</ele><time>2026-04-22T08:31:13.999Z</time></trkpt><trkpt lat="42.77868491456935" lon="11.799107639704307"><ele>395.0</ele><time>2026-04-22T08:31:14.999Z</time></trkpt><trkpt lat="42.77859999968997" lon="11.79920061568823"><ele>395.0</ele><time>2026-04-22T08:31:15.999Z</time></trkpt><trkpt lat="42.778488190644005" lon="11.799261549769534"><ele>395.0</ele><time>2026-04-22T08:31:16.999Z</time></trkpt><trkpt lat="42.77837401050162" lon="11.799312296173218"><ele>395.0</ele><time>2026-04-22T08:31:18Z</time></trkpt><trkpt lat="42.778252572027434" lon="11.799373542271923"><ele>395.5</ele><time>2026-04-22T08:31:19Z</time></trkpt><trkpt lat="42.77813472037243" lon="11.799461901712377"><ele>396.0</ele><time>2026-04-22T08:31:20Z</time></trkpt><trkpt lat="42.77801611533272" lon="11.799541634555961"><ele>396.5</ele><time>2026-04-22T08:31:21Z</time></trkpt><trkpt lat="42.77790285708609" lon="11.79963516810318"><ele>397.0</ele><time>2026-04-22T08:31:22Z</time></trkpt><trkpt lat="42.77778845427997" lon="11.799720042385738"><ele>397.0</ele><time>2026-04-22T08:31:23Z</time></trkpt><trkpt lat="42.777686399400935" lon="11.799811710030003"><ele>397.0</ele><time>2026-04-22T08:31:24Z</time></trkpt><trkpt lat="42.777590698326755" lon="11.799899025759217"><ele>397.0</ele><time>2026-04-22T08:31:25Z</time></trkpt><trkpt lat="42.77749190808037" lon="11.800012484599636"><ele>397.0</ele><time>2026-04-22T08:31:26Z</time></trkpt><trkpt lat="42.77738076265309" lon="11.80011328667855"><ele>396.0</ele><time>2026-04-22T08:31:27Z</time></trkpt><trkpt lat="42.777263886761354" lon="11.80021672895045"><ele>395.0</ele><time>2026-04-22T08:31:28Z</time></trkpt><trkpt lat="42.777135459967525" lon="11.800323174358795"><ele>394.0</ele><time>2026-04-22T08:31:29Z</time></trkpt><trkpt lat="42.77701262508435" lon="11.800430026890817"><ele>393.0</ele><time>2026-04-22T08:31:30Z</time></trkpt><trkpt lat="42.776884782622446" lon="11.800529855908952"><ele>395.5</ele><time>2026-04-22T08:31:31Z</time></trkpt><trkpt lat="42.77676216641303" lon="11.800639005454679"><ele>398.0</ele><time>2026-04-22T08:31:32Z</time></trkpt><trkpt lat="42.776624476471824" lon="11.800730751596847"><ele>400.5</ele><time>2026-04-22T08:31:33Z</time></trkpt><trkpt lat="42.77650964704228" lon="11.800849587778814"><ele>403.0</ele><time>2026-04-22T08:31:34Z</time></trkpt><trkpt lat="42.7763946027071" lon="11.800933510605246"><ele>401.6666666666667</ele><time>2026-04-22T08:31:35Z</time></trkpt><trkpt lat="42.776243683489405" lon="11.801071917916424"><ele>400.33333333333337</ele><time>2026-04-22T08:31:36Z</time></trkpt><trkpt lat="42.776112089063055" lon="11.801184223512227"><ele>399.0</ele><time>2026-04-22T08:31:37Z</time></trkpt><trkpt lat="42.7759927537084" lon="11.801281516265835"><ele>399.0</ele><time>2026-04-22T08:31:38Z</time></trkpt><trkpt lat="42.775882643839914" lon="11.80137955948787"><ele>399.0</ele><time>2026-04-22T08:31:39Z</time></trkpt><trkpt lat="42.77578108838639" lon="11.801480146967414"><ele>399.0</ele><time>2026-04-22T08:31:40Z</time></trkpt><trkpt lat="42.7756806733677" lon="11.801595059888239"><ele>399.0</ele><time>2026-04-22T08:31:41Z</time></trkpt><trkpt lat="42.77558066030395" lon="11.801701927271964"><ele>399.0</ele><time>2026-04-22T08:31:42Z</time></trkpt><trkpt lat="42.77548322004717" lon="11.80178477911461"><ele>399.0</ele><time>2026-04-22T08:31:43Z</time></trkpt><trkpt lat="42.77538849237546" lon="11.801850207288538"><ele>399.0</ele><time>2026-04-22T08:31:44Z</time></trkpt><trkpt lat="42.77528758790893" lon="11.801850103560175"><ele>399.0</ele><time>2026-04-22T08:31:45Z</time></trkpt><trkpt lat="42.775173089668804" lon="11.801852970041274"><ele>399.0</ele><time>2026-04-22T08:31:46Z</time></trkpt><trkpt lat="42.77505675755309" lon="11.801817944755113"><ele>399.0</ele><time>2026-04-22T08:31:47Z</time></trkpt><trkpt lat="42.774917391185554" lon="11.801757556327653"><ele>399.0</ele><time>2026-04-22T08:31:48Z</time></trkpt><trkpt lat="42.77476503943537" lon="11.801686679507748"><ele>399.0</ele><time>2026-04-22T08:31:49Z</time></trkpt><trkpt lat="42.7746075886878" lon="11.80161285953042"><ele>399.0</ele><time>2026-04-22T08:31:50Z</time></trkpt><trkpt lat="42.77444698503771" lon="11.801537263086349"><ele>399.0</ele><time>2026-04-22T08:31:51Z</time></trkpt><trkpt lat="42.774303370008234" lon="11.801469556540887"><ele>399.0</ele><time>2026-04-22T08:31:52Z</time></trkpt><trkpt lat="42.77416857208478" lon="11.80141407418451"><ele>399.0</ele><time>2026-04-22T08:31:53Z</time></trkpt><trkpt lat="42.77404409683273" lon="11.80138217308006"><ele>399.0</ele><time>2026-04-22T08:31:54Z</time></trkpt><trkpt lat="42.77391533583345" lon="11.801384970684117"><ele>399.0</ele><time>2026-04-22T08:31:55Z</time></trkpt><trkpt lat="42.773780787600224" lon="11.801387978694502"><ele>399.0</ele><time>2026-04-22T08:31:56Z</time></trkpt><trkpt lat="42.77363579210173" lon="11.801399888484744"><ele>399.0</ele><time>2026-04-22T08:31:57Z</time></trkpt><trkpt lat="42.773480425237615" lon="11.801419776858696"><ele>399.0</ele><time>2026-04-22T08:31:58Z</time></trkpt><trkpt lat="42.773329655845686" lon="11.80143295061274"><ele>399.0</ele><time>2026-04-22T08:31:59Z</time></trkpt><trkpt lat="42.77317485322051" lon="11.801450320593885"><ele>399.0</ele><time>2026-04-22T08:32:00Z</time></trkpt><trkpt lat="42.77301803044146" lon="11.801444102791208"><ele>399.0</ele><time>2026-04-22T08:32:01Z</time></trkpt><trkpt lat="42.772859000103175" lon="11.801460214600096"><ele>399.0</ele><time>2026-04-22T08:32:02Z</time></trkpt><trkpt lat="42.772702908162636" lon="11.801498208147946"><ele>400.25</ele><time>2026-04-22T08:32:02.999Z</time></trkpt><trkpt lat="42.77254540932408" lon="11.801489300614808"><ele>401.5</ele><time>2026-04-22T08:32:03.999Z</time></trkpt><trkpt lat="42.77239642259783" lon="11.801501175043773"><ele>402.75</ele><time>2026-04-22T08:32:04.999Z</time></trkpt><trkpt lat="42.772260734080106" lon="11.801532251854999"><ele>404.0</ele><time>2026-04-22T08:32:05.999Z</time></trkpt><trkpt lat="42.77213094018676" lon="11.801521198194498"><ele>404.0</ele><time>2026-04-22T08:32:06.999Z</time></trkpt><trkpt lat="42.772015712138895" lon="11.80155681015002"><ele>404.0</ele><time>2026-04-22T08:32:07.999Z</time></trkpt><trkpt lat="42.771916614702874" lon="11.801576076293868"><ele>404.0</ele><time>2026-04-22T08:32:08.999Z</time></trkpt><trkpt lat="42.77182600141125" lon="11.801615404141595"><ele>404.0</ele><time>2026-04-22T08:32:09.999Z</time></trkpt><trkpt lat="42.77173726046568" lon="11.801664856620873"><ele>404.0</ele><time>2026-04-22T08:32:10.999Z</time></trkpt><trkpt lat="42.771682364080135" lon="11.801781258603917"><ele>402.6</ele><time>2026-04-22T08:32:11.999Z</time></trkpt><trkpt lat="42.77163562488063" lon="11.801906276739178"><ele>401.2</ele><time>2026-04-22T08:32:12.999Z</time></trkpt><trkpt lat="42.77161107056347" lon="11.802048737027818"><ele>399.8</ele><time>2026-04-22T08:32:13.999Z</time></trkpt><trkpt lat="42.77159946487335" lon="11.802206205810299"><ele>398.40000000000003</ele><time>2026-04-22T08:32:14.999Z</time></trkpt><trkpt lat="42.771585239419565" lon="11.802365312106197"><ele>397.0</ele><time>2026-04-22T08:32:15.999Z</time></trkpt><trkpt lat="42.77155610585916" lon="11.802520294174162"><ele>395.5</ele><time>2026-04-22T08:32:16.999Z</time></trkpt><trkpt lat="42.771507836418174" lon="11.802676615742959"><ele>394.0</ele><time>2026-04-22T08:32:17.999Z</time></trkpt><trkpt lat="42.771436327166064" lon="11.802814499939188"><ele>392.5</ele><time>2026-04-22T08:32:18.999Z</time></trkpt><trkpt lat="42.77140482403974" lon="11.802959912198935"><ele>391.0</ele><time>2026-04-22T08:32:19.999Z</time></trkpt><trkpt lat="42.77135978734392" lon="11.803081499308412"><ele>391.00000000000006</ele><time>2026-04-22T08:32:20.999Z</time></trkpt><trkpt lat="42.77135976223039" lon="11.80322369351276"><ele>391.0</ele><time>2026-04-22T08:32:21.999Z</time></trkpt><trkpt lat="42.77135745690817" lon="11.803349756096976"><ele>391.0</ele><time>2026-04-22T08:32:22.999Z</time></trkpt><trkpt lat="42.77135621097665" lon="11.8034623085449"><ele>391.0</ele><time>2026-04-22T08:32:23.999Z</time></trkpt><trkpt lat="42.77133814218661" lon="11.803570317935215"><ele>391.00000000000006</ele><time>2026-04-22T08:32:24.999Z</time></trkpt><trkpt lat="42.77130131968557" lon="11.803655406224586"><ele>391.0</ele><time>2026-04-22T08:32:25.999Z</time></trkpt><trkpt lat="42.77122585888699" lon="11.803702720148754"><ele>391.6</ele><time>2026-04-22T08:32:26.999Z</time></trkpt><trkpt lat="42.77115450321482" lon="11.803738377663134"><ele>392.20000000000005</ele><time>2026-04-22T08:32:27.999Z</time></trkpt><trkpt lat="42.771072535374216" lon="11.80380396611816"><ele>392.79999999999995</ele><time>2026-04-22T08:32:28.999Z</time></trkpt><trkpt lat="42.77099797935432" lon="11.803882958509936"><ele>393.4</ele><time>2026-04-22T08:32:29.999Z</time></trkpt><trkpt lat="42.770938991413544" lon="11.80399085199469"><ele>394.0</ele><time>2026-04-22T08:32:30.999Z</time></trkpt><trkpt lat="42.7709083271971" lon="11.804110095956803"><ele>394.0</ele><time>2026-04-22T08:32:31.999Z</time></trkpt><trkpt lat="42.77090511788957" lon="11.804256014580877"><ele>394.0</ele><time>2026-04-22T08:32:32.999Z</time></trkpt><trkpt lat="42.77086778352523" lon="11.80439516611846"><ele>394.0</ele><time>2026-04-22T08:32:33.999Z</time></trkpt><trkpt lat="42.77084562824296" lon="11.80455018258115"><ele>394.0</ele><time>2026-04-22T08:32:34.999Z</time></trkpt><trkpt lat="42.770789133383516" lon="11.804694470087858"><ele>391.75</ele><time>2026-04-22T08:32:35.999Z</time></trkpt><trkpt lat="42.77070620828179" lon="11.804809640568198"><ele>389.5</ele><time>2026-04-22T08:32:36.999Z</time></trkpt><trkpt lat="42.77062489214408" lon="11.804907410965441"><ele>387.25</ele><time>2026-04-22T08:32:37.999Z</time></trkpt><trkpt lat="42.77053018522054" lon="11.804990313054635"><ele>385.0</ele><time>2026-04-22T08:32:38.999Z</time></trkpt><trkpt lat="42.77042085099708" lon="11.805069067062862"><ele>385.0</ele><time>2026-04-22T08:32:39.999Z</time></trkpt><trkpt lat="42.77030408213189" lon="11.80514242060371"><ele>385.0</ele><time>2026-04-22T08:32:40.999Z</time></trkpt><trkpt lat="42.77018362293878" lon="11.8052099933935"><ele>385.0</ele><time>2026-04-22T08:32:41.999Z</time></trkpt><trkpt lat="42.77005876699475" lon="11.805284082325823"><ele>385.0</ele><time>2026-04-22T08:32:42.999Z</time></trkpt><trkpt lat="42.769945608602626" lon="11.80538911193974"><ele>383.75</ele><time>2026-04-22T08:32:43.999Z</time></trkpt><trkpt lat="42.76982659232467" lon="11.805484299671624"><ele>382.5</ele><time>2026-04-22T08:32:44.999Z</time></trkpt><trkpt lat="42.76970741502317" lon="11.805592744216442"><ele>381.25</ele><time>2026-04-22T08:32:45.999Z</time></trkpt><trkpt lat="42.76958316631544" lon="11.805699612999316"><ele>380.0</ele><time>2026-04-22T08:32:46.999Z</time></trkpt><trkpt lat="42.76946118621922" lon="11.805813616545757"><ele>379.33333333333337</ele><time>2026-04-22T08:32:47.999Z</time></trkpt><trkpt lat="42.7693424057207" lon="11.80593708528998"><ele>378.6666666666667</ele><time>2026-04-22T08:32:48.999Z</time></trkpt><trkpt lat="42.769228133012916" lon="11.806074052703773"><ele>378.0</ele><time>2026-04-22T08:32:49.999Z</time></trkpt><trkpt lat="42.769119008578436" lon="11.806223805007548"><ele>378.0</ele><time>2026-04-22T08:32:50.999Z</time></trkpt><trkpt lat="42.76901295950451" lon="11.806376066790694"><ele>378.0</ele><time>2026-04-22T08:32:51.999Z</time></trkpt><trkpt lat="42.768914877470515" lon="11.806535423066707"><ele>378.0</ele><time>2026-04-22T08:32:52.999Z</time></trkpt><trkpt lat="42.76883066359366" lon="11.806708269499728"><ele>376.6666666666667</ele><time>2026-04-22T08:32:53.999Z</time></trkpt><trkpt lat="42.76876274084004" lon="11.806895286780204"><ele>375.33333333333337</ele><time>2026-04-22T08:32:54.999Z</time></trkpt><trkpt lat="42.768713814923146" lon="11.807094842699334"><ele>374.0</ele><time>2026-04-22T08:32:55.999Z</time></trkpt><trkpt lat="42.768673762270765" lon="11.807298555567359"><ele>374.0</ele><time>2026-04-22T08:32:56.999Z</time></trkpt><trkpt lat="42.768632259446505" lon="11.807500866423906"><ele>374.0</ele><time>2026-04-22T08:32:57.999Z</time></trkpt><trkpt lat="42.7685917393942" lon="11.807704697071086"><ele>374.0</ele><time>2026-04-22T08:32:58.999Z</time></trkpt><trkpt lat="42.768551995576026" lon="11.807904997427316"><ele>376.75</ele><time>2026-04-22T08:32:59.999Z</time></trkpt><trkpt lat="42.76850515476976" lon="11.80808378197206"><ele>379.5</ele><time>2026-04-22T08:33:00.999Z</time></trkpt><trkpt lat="42.768441184205955" lon="11.808231819183174"><ele>382.25</ele><time>2026-04-22T08:33:01.999Z</time></trkpt><trkpt lat="42.768359554074515" lon="11.808356532609169"><ele>385.0</ele><time>2026-04-22T08:33:02.999Z</time></trkpt><trkpt lat="42.76824924481755" lon="11.808444606646164"><ele>385.0</ele><time>2026-04-22T08:33:03.999Z</time></trkpt><trkpt lat="42.768154837550526" lon="11.808561038419153"><ele>385.0</ele><time>2026-04-22T08:33:04.999Z</time></trkpt><trkpt lat="42.76805693844666" lon="11.808664123635038"><ele>385.0</ele><time>2026-04-22T08:33:05.999Z</time></trkpt><trkpt lat="42.76798134747385" lon="11.808768896777705"><ele>385.0</ele><time>2026-04-22T08:33:06.999Z</time></trkpt><trkpt lat="42.76793237646383" lon="11.808879537006671"><ele>385.0</ele><time>2026-04-22T08:33:07.999Z</time></trkpt><trkpt lat="42.76789679625241" lon="11.809000260662945"><ele>385.0</ele><time>2026-04-22T08:33:08.999Z</time></trkpt><trkpt lat="42.767916593212455" lon="11.809138220426997"><ele>385.0</ele><time>2026-04-22T08:33:09.999Z</time></trkpt><trkpt lat="42.76793880538436" lon="11.809267434010346"><ele>385.0</ele><time>2026-04-22T08:33:10.999Z</time></trkpt><trkpt lat="42.767999963686556" lon="11.809388480084648"><ele>385.0</ele><time>2026-04-22T08:33:11.999Z</time></trkpt><trkpt lat="42.76808175638552" lon="11.809497954171755"><ele>385.75</ele><time>2026-04-22T08:33:12.999Z</time></trkpt><trkpt lat="42.768171859120244" lon="11.809606108068948"><ele>386.5</ele><time>2026-04-22T08:33:13.999Z</time></trkpt><trkpt lat="42.768249098897385" lon="11.80974110456782"><ele>387.25</ele><time>2026-04-22T08:33:14.999Z</time></trkpt><trkpt lat="42.76828128846613" lon="11.809914547830765"><ele>388.0</ele><time>2026-04-22T08:33:15.999Z</time></trkpt><trkpt lat="42.76832442683746" lon="11.81009962728491"><ele>387.6666666666667</ele><time>2026-04-22T08:33:16.999Z</time></trkpt><trkpt lat="42.76837004756011" lon="11.810284145601905"><ele>387.33333333333337</ele><time>2026-04-22T08:33:17.999Z</time></trkpt><trkpt lat="42.768431734538304" lon="11.810475712159214"><ele>387.0</ele><time>2026-04-22T08:33:18.999Z</time></trkpt><trkpt lat="42.76848133259639" lon="11.810680690214209"><ele>386.66666666666663</ele><time>2026-04-22T08:33:19.999Z</time></trkpt><trkpt lat="42.76853177869823" lon="11.810886943168054"><ele>386.3333333333333</ele><time>2026-04-22T08:33:20.999Z</time></trkpt><trkpt lat="42.76857690126102" lon="11.811093360421935"><ele>386.0</ele><time>2026-04-22T08:33:21.999Z</time></trkpt><trkpt lat="42.76860575895049" lon="11.811298158289567"><ele>386.0</ele><time>2026-04-22T08:33:23Z</time></trkpt><trkpt lat="42.768616156135174" lon="11.81148931444687"><ele>386.0</ele><time>2026-04-22T08:33:24Z</time></trkpt><trkpt lat="42.768604791950146" lon="11.81166975211096"><ele>386.0</ele><time>2026-04-22T08:33:25Z</time></trkpt><trkpt lat="42.76858363960349" lon="11.81184574687433"><ele>386.0</ele><time>2026-04-22T08:33:26Z</time></trkpt><trkpt lat="42.768543738637604" lon="11.812022844784524"><ele>388.25</ele><time>2026-04-22T08:33:27Z</time></trkpt><trkpt lat="42.76849143425459" lon="11.812197159865505"><ele>390.5</ele><time>2026-04-22T08:33:28Z</time></trkpt><trkpt lat="42.76844212527237" lon="11.812375830485593"><ele>392.75</ele><time>2026-04-22T08:33:29Z</time></trkpt><trkpt lat="42.76839065618736" lon="11.812554378651644"><ele>395.0</ele><time>2026-04-22T08:33:30Z</time></trkpt><trkpt lat="42.76833720984314" lon="11.812734516662141"><ele>398.25</ele><time>2026-04-22T08:33:31Z</time></trkpt><trkpt lat="42.76826384655802" lon="11.812905758653141"><ele>401.5</ele><time>2026-04-22T08:33:32Z</time></trkpt><trkpt lat="42.76819927756047" lon="11.81307840655956"><ele>404.75</ele><time>2026-04-22T08:33:33Z</time></trkpt><trkpt lat="42.76811665240405" lon="11.81323454312273"><ele>408.0</ele><time>2026-04-22T08:33:34Z</time></trkpt><trkpt lat="42.76801825702683" lon="11.813376497115515"><ele>408.0</ele><time>2026-04-22T08:33:35Z</time></trkpt><trkpt lat="42.76790617996821" lon="11.813497004628669"><ele>408.0</ele><time>2026-04-22T08:33:36Z</time></trkpt><trkpt lat="42.76778479682633" lon="11.813586272107973"><ele>408.0</ele><time>2026-04-22T08:33:37Z</time></trkpt><trkpt lat="42.76766422144596" lon="11.813664188436118"><ele>408.0</ele><time>2026-04-22T08:33:38Z</time></trkpt><trkpt lat="42.76755123273878" lon="11.813756578647467"><ele>407.75</ele><time>2026-04-22T08:33:39Z</time></trkpt><trkpt lat="42.76743476374597" lon="11.813859672135328"><ele>407.5</ele><time>2026-04-22T08:33:40Z</time></trkpt><trkpt lat="42.76732927509014" lon="11.813981304851708"><ele>407.25</ele><time>2026-04-22T08:33:41Z</time></trkpt><trkpt lat="42.767218363633646" lon="11.814088718933387"><ele>407.0</ele><time>2026-04-22T08:33:42Z</time></trkpt><trkpt lat="42.76714133190726" lon="11.814216073707245"><ele>406.0</ele><time>2026-04-22T08:33:43Z</time></trkpt><trkpt lat="42.76709205842943" lon="11.814345602461092"><ele>405.0</ele><time>2026-04-22T08:33:44Z</time></trkpt><trkpt lat="42.76706791641056" lon="11.81448877383115"><ele>404.0</ele><time>2026-04-22T08:33:45Z</time></trkpt><trkpt lat="42.767065553537314" lon="11.814652994207"><ele>403.0</ele><time>2026-04-22T08:33:46Z</time></trkpt><trkpt lat="42.76707428983938" lon="11.81482798898127"><ele>403.0</ele><time>2026-04-22T08:33:47Z</time></trkpt><trkpt lat="42.767083432001364" lon="11.815004752839656"><ele>403.0</ele><time>2026-04-22T08:33:48Z</time></trkpt><trkpt lat="42.767084401236836" lon="11.81518713261092"><ele>403.0</ele><time>2026-04-22T08:33:49Z</time></trkpt><trkpt lat="42.76706252556642" lon="11.815376403117398"><ele>403.0</ele><time>2026-04-22T08:33:50Z</time></trkpt><trkpt lat="42.76702823741735" lon="11.815574352253915"><ele>401.25</ele><time>2026-04-22T08:33:51Z</time></trkpt><trkpt lat="42.76699054173774" lon="11.815765490565601"><ele>399.5</ele><time>2026-04-22T08:33:52Z</time></trkpt><trkpt lat="42.76695428665464" lon="11.815949432504867"><ele>397.75</ele><time>2026-04-22T08:33:53Z</time></trkpt><trkpt lat="42.76692711075575" lon="11.816127929420762"><ele>396.0</ele><time>2026-04-22T08:33:54Z</time></trkpt><trkpt lat="42.76692944115253" lon="11.816308384587055"><ele>393.75</ele><time>2026-04-22T08:33:55Z</time></trkpt><trkpt lat="42.766940871132455" lon="11.81649954615819"><ele>391.5</ele><time>2026-04-22T08:33:56Z</time></trkpt><trkpt lat="42.766963089932794" lon="11.81669817799012"><ele>389.25</ele><time>2026-04-22T08:33:57Z</time></trkpt><trkpt lat="42.76696713627701" lon="11.816893666587394"><ele>387.0</ele><time>2026-04-22T08:33:58Z</time></trkpt><trkpt lat="42.76694647686931" lon="11.817079580366729"><ele>388.25</ele><time>2026-04-22T08:33:59Z</time></trkpt><trkpt lat="42.76690838438105" lon="11.817263593379888"><ele>389.5</ele><time>2026-04-22T08:34:00Z</time></trkpt><trkpt lat="42.76685010448012" lon="11.81743893854828"><ele>390.75</ele><time>2026-04-22T08:34:01Z</time></trkpt><trkpt lat="42.766771511982576" lon="11.817598731980297"><ele>392.0</ele><time>2026-04-22T08:34:02Z</time></trkpt><trkpt lat="42.766671156369235" lon="11.817728772867309"><ele>392.5</ele><time>2026-04-22T08:34:03Z</time></trkpt><trkpt lat="42.76655343687716" lon="11.817826912459237"><ele>393.0</ele><time>2026-04-22T08:34:04Z</time></trkpt><trkpt lat="42.766419420716154" lon="11.817914928309461"><ele>393.5</ele><time>2026-04-22T08:34:05Z</time></trkpt><trkpt lat="42.7662775611235" lon="11.818006630343461"><ele>394.0</ele><time>2026-04-22T08:34:06Z</time></trkpt><trkpt lat="42.766124831193565" lon="11.818099788108297"><ele>395.6666666666667</ele><time>2026-04-22T08:34:07Z</time></trkpt><trkpt lat="42.765958323445986" lon="11.81817116338281"><ele>397.33333333333337</ele><time>2026-04-22T08:34:08Z</time></trkpt><trkpt lat="42.765808125171404" lon="11.818278723679143"><ele>399.0</ele><time>2026-04-22T08:34:09Z</time></trkpt><trkpt lat="42.76566429844784" lon="11.818404933821189"><ele>404.0</ele><time>2026-04-22T08:34:10Z</time></trkpt><trkpt lat="42.76552506630371" lon="11.81853013637127"><ele>409.0</ele><time>2026-04-22T08:34:11Z</time></trkpt><trkpt lat="42.765385563401665" lon="11.81866098822667"><ele>414.0</ele><time>2026-04-22T08:34:12Z</time></trkpt><trkpt lat="42.765214542605186" lon="11.81873592197582"><ele>412.0</ele><time>2026-04-22T08:34:13Z</time></trkpt><trkpt lat="42.76504769042915" lon="11.818832918959174"><ele>410.0</ele><time>2026-04-22T08:34:14Z</time></trkpt><trkpt lat="42.76488466979163" lon="11.81896639867318"><ele>408.0</ele><time>2026-04-22T08:34:15Z</time></trkpt><trkpt lat="42.764720521887604" lon="11.819087632627074"><ele>408.0</ele><time>2026-04-22T08:34:16Z</time></trkpt><trkpt lat="42.76456016142605" lon="11.819219560549248"><ele>408.0</ele><time>2026-04-22T08:34:16.999Z</time></trkpt><trkpt lat="42.76440454906225" lon="11.819344297431753"><ele>408.0</ele><time>2026-04-22T08:34:17.999Z</time></trkpt><trkpt lat="42.76425818438849" lon="11.819444361821619"><ele>408.0</ele><time>2026-04-22T08:34:18.999Z</time></trkpt><trkpt lat="42.764138969138344" lon="11.819504791857396"><ele>408.0</ele><time>2026-04-22T08:34:19.999Z</time></trkpt><trkpt lat="42.76403354268645" lon="11.819495365364755"><ele>408.0</ele><time>2026-04-22T08:34:20.999Z</time></trkpt><trkpt lat="42.763928178024464" lon="11.819500374789683"><ele>408.0</ele><time>2026-04-22T08:34:21.999Z</time></trkpt><trkpt lat="42.76381893044788" lon="11.819549375084422"><ele>408.0</ele><time>2026-04-22T08:34:22.999Z</time></trkpt><trkpt lat="42.76370985526467" lon="11.819606184474186"><ele>408.0</ele><time>2026-04-22T08:34:23.999Z</time></trkpt><trkpt lat="42.76361399463708" lon="11.819697896060825"><ele>408.0</ele><time>2026-04-22T08:34:24.999Z</time></trkpt><trkpt lat="42.76353903942218" lon="11.819825196646734"><ele>408.0</ele><time>2026-04-22T08:34:25.999Z</time></trkpt><trkpt lat="42.76348370575046" lon="11.819969433522038"><ele>406.25</ele><time>2026-04-22T08:34:26.999Z</time></trkpt><trkpt lat="42.763427768661025" lon="11.820125227484565"><ele>404.5</ele><time>2026-04-22T08:34:27.999Z</time></trkpt><trkpt lat="42.76334499790889" lon="11.820267543137232"><ele>402.75</ele><time>2026-04-22T08:34:28.999Z</time></trkpt><trkpt lat="42.76323947588294" lon="11.820392426413473"><ele>401.0</ele><time>2026-04-22T08:34:29.999Z</time></trkpt><trkpt lat="42.763122206697965" lon="11.820503906642225"><ele>400.66666666666663</ele><time>2026-04-22T08:34:30.999Z</time></trkpt><trkpt lat="42.76299491027414" lon="11.820620696721639"><ele>400.33333333333337</ele><time>2026-04-22T08:34:31.999Z</time></trkpt><trkpt lat="42.762861621785156" lon="11.820746392942043"><ele>400.0</ele><time>2026-04-22T08:34:32.999Z</time></trkpt><trkpt lat="42.762714657682245" lon="11.820869233819929"><ele>396.6666666666667</ele><time>2026-04-22T08:34:33.999Z</time></trkpt><trkpt lat="42.76256591798244" lon="11.82099270765476"><ele>393.33333333333337</ele><time>2026-04-22T08:34:34.999Z</time></trkpt><trkpt lat="42.762424772432965" lon="11.821105272644242"><ele>390.0</ele><time>2026-04-22T08:34:35.999Z</time></trkpt><trkpt lat="42.76228407031003" lon="11.821212299970611"><ele>390.0</ele><time>2026-04-22T08:34:36.999Z</time></trkpt><trkpt lat="42.76214486231934" lon="11.821312674331079"><ele>390.0</ele><time>2026-04-22T08:34:37.999Z</time></trkpt><trkpt lat="42.76201078240017" lon="11.821412287371658"><ele>390.0</ele><time>2026-04-22T08:34:38.999Z</time></trkpt><trkpt lat="42.76187769157185" lon="11.821505210633559"><ele>389.0</ele><time>2026-04-22T08:34:39.999Z</time></trkpt><trkpt lat="42.76174402770932" lon="11.821591273615336"><ele>388.0</ele><time>2026-04-22T08:34:40.999Z</time></trkpt><trkpt lat="42.76160893609256" lon="11.821668497166723"><ele>387.0</ele><time>2026-04-22T08:34:41.999Z</time></trkpt><trkpt lat="42.76147619558175" lon="11.821738194525706"><ele>386.0</ele><time>2026-04-22T08:34:42.999Z</time></trkpt><trkpt lat="42.76135211080555" lon="11.821801406358757"><ele>386.20000000000005</ele><time>2026-04-22T08:34:43.999Z</time></trkpt><trkpt lat="42.761248503612165" lon="11.82186148020409"><ele>386.40000000000003</ele><time>2026-04-22T08:34:44.999Z</time></trkpt><trkpt lat="42.761165746518344" lon="11.821931239589299"><ele>386.6</ele><time>2026-04-22T08:34:45.999Z</time></trkpt><trkpt lat="42.761100576103665" lon="11.82203380316625"><ele>386.8</ele><time>2026-04-22T08:34:46.999Z</time></trkpt><trkpt lat="42.76104895318303" lon="11.822156690639957"><ele>387.0</ele><time>2026-04-22T08:34:47.999Z</time></trkpt><trkpt lat="42.761008441924865" lon="11.82230892174437"><ele>384.6</ele><time>2026-04-22T08:34:48.999Z</time></trkpt><trkpt lat="42.76098491439476" lon="11.822476800584486"><ele>382.20000000000005</ele><time>2026-04-22T08:34:49.999Z</time></trkpt><trkpt lat="42.76098295979953" lon="11.822621903533946"><ele>379.8</ele><time>2026-04-22T08:34:50.999Z</time></trkpt><trkpt lat="42.761006245081084" lon="11.82276385276871"><ele>377.4</ele><time>2026-04-22T08:34:51.999Z</time></trkpt><trkpt lat="42.76104780597896" lon="11.822893201307123"><ele>375.0</ele><time>2026-04-22T08:34:52.999Z</time></trkpt><trkpt lat="42.76109440714803" lon="11.823003030373682"><ele>375.0</ele><time>2026-04-22T08:34:53.999Z</time></trkpt><trkpt lat="42.76111942245581" lon="11.823115056883266"><ele>375.0</ele><time>2026-04-22T08:34:54.999Z</time></trkpt><trkpt lat="42.76111748235507" lon="11.823214273853106"><ele>375.0</ele><time>2026-04-22T08:34:55.999Z</time></trkpt><trkpt lat="42.761087002842494" lon="11.823294425218176"><ele>375.0</ele><time>2026-04-22T08:34:56.999Z</time></trkpt><trkpt lat="42.761031560345835" lon="11.823350359993531"><ele>375.0</ele><time>2026-04-22T08:34:57.999Z</time></trkpt><trkpt lat="42.76096967126355" lon="11.823378845221994"><ele>375.0</ele><time>2026-04-22T08:34:58.999Z</time></trkpt><trkpt lat="42.760903872464766" lon="11.823405589426295"><ele>375.0</ele><time>2026-04-22T08:34:59.999Z</time></trkpt><trkpt lat="42.76081929064264" lon="11.823441656598812"><ele>374.0</ele><time>2026-04-22T08:35:00.999Z</time></trkpt><trkpt lat="42.760724251137816" lon="11.823491054088992"><ele>373.0</ele><time>2026-04-22T08:35:01.999Z</time></trkpt><trkpt lat="42.76067002373586" lon="11.823618185824378"><ele>372.0</ele><time>2026-04-22T08:35:02.999Z</time></trkpt><trkpt lat="42.760631052177466" lon="11.823744077754707"><ele>371.0</ele><time>2026-04-22T08:35:03.999Z</time></trkpt><trkpt lat="42.76061200189701" lon="11.823850466457165"><ele>370.0</ele><time>2026-04-22T08:35:04.999Z</time></trkpt><trkpt lat="42.76059948259704" lon="11.823939483175211"><ele>370.0</ele><time>2026-04-22T08:35:05.999Z</time></trkpt><trkpt lat="42.76060832957012" lon="11.82407680510907"><ele>370.0</ele><time>2026-04-22T08:35:07.999Z</time></trkpt><trkpt lat="42.760632573588985" lon="11.824238643886316"><ele>370.0</ele><time>2026-04-22T08:35:09.999Z</time></trkpt><trkpt lat="42.760670100862036" lon="11.824342166190238"><ele>370.0</ele><time>2026-04-22T08:35:10.999Z</time></trkpt><trkpt lat="42.76066708288934" lon="11.824476081134543"><ele>370.0</ele><time>2026-04-22T08:35:11.999Z</time></trkpt><trkpt lat="42.76063545330201" lon="11.824604450925563"><ele>368.0</ele><time>2026-04-22T08:35:12.999Z</time></trkpt><trkpt lat="42.76057564368291" lon="11.824716851276026"><ele>366.0</ele><time>2026-04-22T08:35:13.999Z</time></trkpt><trkpt lat="42.760481167371225" lon="11.824793998378045"><ele>364.0</ele><time>2026-04-22T08:35:14.999Z</time></trkpt><trkpt lat="42.760388703704585" lon="11.824890227922882"><ele>362.0</ele><time>2026-04-22T08:35:15.999Z</time></trkpt><trkpt lat="42.76029981307063" lon="11.825001404175902"><ele>360.0</ele><time>2026-04-22T08:35:16.999Z</time></trkpt><trkpt lat="42.76020580638304" lon="11.825109497197174"><ele>363.25</ele><time>2026-04-22T08:35:17.999Z</time></trkpt><trkpt lat="42.76011716922771" lon="11.82522817459151"><ele>366.5</ele><time>2026-04-22T08:35:18.999Z</time></trkpt><trkpt lat="42.760036497887256" lon="11.825350866885012"><ele>369.75</ele><time>2026-04-22T08:35:19.999Z</time></trkpt><trkpt lat="42.75996393421268" lon="11.825469392182892"><ele>373.0</ele><time>2026-04-22T08:35:20.999Z</time></trkpt><trkpt lat="42.759899437162" lon="11.825584694945452"><ele>373.0</ele><time>2026-04-22T08:35:21.999Z</time></trkpt><trkpt lat="42.75983268683224" lon="11.825715237014274"><ele>373.0</ele><time>2026-04-22T08:35:22.999Z</time></trkpt><trkpt lat="42.75976594211814" lon="11.82586064888744"><ele>373.0</ele><time>2026-04-22T08:35:23.999Z</time></trkpt><trkpt lat="42.75969561976722" lon="11.826014571985409"><ele>373.0</ele><time>2026-04-22T08:35:24.999Z</time></trkpt><trkpt lat="42.75962583741492" lon="11.826169137966591"><ele>370.75</ele><time>2026-04-22T08:35:25.999Z</time></trkpt><trkpt lat="42.7595591805385" lon="11.826330851153124"><ele>368.5</ele><time>2026-04-22T08:35:26.999Z</time></trkpt><trkpt lat="42.75948396745984" lon="11.826494849017605"><ele>366.25</ele><time>2026-04-22T08:35:27.999Z</time></trkpt><trkpt lat="42.759427673559124" lon="11.826676486028502"><ele>364.0</ele><time>2026-04-22T08:35:29Z</time></trkpt><trkpt lat="42.759376861380055" lon="11.826852970531316"><ele>367.5</ele><time>2026-04-22T08:35:30Z</time></trkpt><trkpt lat="42.75934027826533" lon="11.82703479288219"><ele>371.0</ele><time>2026-04-22T08:35:31Z</time></trkpt><trkpt lat="42.75928871509303" lon="11.827208547944846"><ele>374.5</ele><time>2026-04-22T08:35:32Z</time></trkpt><trkpt lat="42.75923253316675" lon="11.827375498787294"><ele>378.0</ele><time>2026-04-22T08:35:33Z</time></trkpt><trkpt lat="42.75917651618213" lon="11.827535095084821"><ele>373.5</ele><time>2026-04-22T08:35:34Z</time></trkpt><trkpt lat="42.75912081931367" lon="11.827693018713168"><ele>369.0</ele><time>2026-04-22T08:35:35Z</time></trkpt><trkpt lat="42.759063741821244" lon="11.827848801636238"><ele>364.5</ele><time>2026-04-22T08:35:36Z</time></trkpt><trkpt lat="42.75900214141187" lon="11.827999885564973"><ele>360.0</ele><time>2026-04-22T08:35:37Z</time></trkpt><trkpt lat="42.758938150213275" lon="11.82814691861099"><ele>360.0</ele><time>2026-04-22T08:35:38Z</time></trkpt><trkpt lat="42.75887078063098" lon="11.82828731209522"><ele>360.0</ele><time>2026-04-22T08:35:39Z</time></trkpt><trkpt lat="42.75880438910946" lon="11.828415848842472"><ele>360.0</ele><time>2026-04-22T08:35:40Z</time></trkpt><trkpt lat="42.75874718420109" lon="11.828529829044513"><ele>360.0</ele><time>2026-04-22T08:35:41Z</time></trkpt><trkpt lat="42.7587126557623" lon="11.82863410882143"><ele>360.0</ele><time>2026-04-22T08:35:42Z</time></trkpt><trkpt lat="42.758699774778215" lon="11.828734747435275"><ele>359.1666666666667</ele><time>2026-04-22T08:35:43Z</time></trkpt><trkpt lat="42.75870278099185" lon="11.82883496161594"><ele>358.3333333333333</ele><time>2026-04-22T08:35:44Z</time></trkpt><trkpt lat="42.75872358919724" lon="11.828922035706016"><ele>357.5</ele><time>2026-04-22T08:35:45Z</time></trkpt><trkpt lat="42.75873837781477" lon="11.829016098141683"><ele>356.66666666666663</ele><time>2026-04-22T08:35:46Z</time></trkpt><trkpt lat="42.75878743924769" lon="11.829122514949146"><ele>355.8333333333333</ele><time>2026-04-22T08:35:47Z</time></trkpt><trkpt lat="42.75884446886017" lon="11.829244851796908"><ele>355.0</ele><time>2026-04-22T08:35:48Z</time></trkpt><trkpt lat="42.75890690716045" lon="11.829376005056915"><ele>358.0</ele><time>2026-04-22T08:35:49Z</time></trkpt><trkpt lat="42.75896068131316" lon="11.829515931077644"><ele>361.0</ele><time>2026-04-22T08:35:50Z</time></trkpt><trkpt lat="42.759007900147246" lon="11.829670751935174"><ele>364.0</ele><time>2026-04-22T08:35:51Z</time></trkpt><trkpt lat="42.759041438582386" lon="11.829833205019037"><ele>367.0</ele><time>2026-04-22T08:35:52Z</time></trkpt><trkpt lat="42.75907389664422" lon="11.830008425718084"><ele>369.75</ele><time>2026-04-22T08:35:53Z</time></trkpt><trkpt lat="42.75912446409803" lon="11.830183570143381"><ele>372.5</ele><time>2026-04-22T08:35:54Z</time></trkpt><trkpt lat="42.75916306934649" lon="11.830367466435561"><ele>375.25</ele><time>2026-04-22T08:35:55Z</time></trkpt><trkpt lat="42.75920160868335" lon="11.830560762124977"><ele>378.0</ele><time>2026-04-22T08:35:56Z</time></trkpt><trkpt lat="42.759295702428794" lon="11.830733686607376"><ele>372.3333333333333</ele><time>2026-04-22T08:35:57Z</time></trkpt><trkpt lat="42.7593870927466" lon="11.83090566270354"><ele>366.66666666666663</ele><time>2026-04-22T08:35:58Z</time></trkpt><trkpt lat="42.75949038305136" lon="11.831073017074589"><ele>361.0</ele><time>2026-04-22T08:35:59Z</time></trkpt><trkpt lat="42.75959767991693" lon="11.831242751464897"><ele>361.0</ele><time>2026-04-22T08:36:00Z</time></trkpt><trkpt lat="42.7596901667164" lon="11.831423732641023"><ele>361.0</ele><time>2026-04-22T08:36:01Z</time></trkpt><trkpt lat="42.75980360217156" lon="11.831575179891782"><ele>361.0</ele><time>2026-04-22T08:36:02Z</time></trkpt><trkpt lat="42.75991021635554" lon="11.831737506151674"><ele>359.0</ele><time>2026-04-22T08:36:03Z</time></trkpt><trkpt lat="42.76002319861966" lon="11.831888930569718"><ele>357.0</ele><time>2026-04-22T08:36:04Z</time></trkpt><trkpt lat="42.76012871733685" lon="11.832059140067619"><ele>355.0</ele><time>2026-04-22T08:36:05Z</time></trkpt><trkpt lat="42.76024443065495" lon="11.832204306167181"><ele>353.0</ele><time>2026-04-22T08:36:06Z</time></trkpt><trkpt lat="42.76035824121251" lon="11.832335383341228"><ele>351.0</ele><time>2026-04-22T08:36:07Z</time></trkpt><trkpt lat="42.76046444724673" lon="11.832453238974663"><ele>349.0</ele><time>2026-04-22T08:36:08Z</time></trkpt><trkpt lat="42.76058384298903" lon="11.832555886382458"><ele>347.0</ele><time>2026-04-22T08:36:09Z</time></trkpt><trkpt lat="42.76069067875773" lon="11.832672674750446"><ele>347.0</ele><time>2026-04-22T08:36:10Z</time></trkpt><trkpt lat="42.76080087118239" lon="11.832791407983633"><ele>347.0</ele><time>2026-04-22T08:36:11Z</time></trkpt><trkpt lat="42.76091447938563" lon="11.832904488081098"><ele>347.0</ele><time>2026-04-22T08:36:12Z</time></trkpt><trkpt lat="42.76102614335738" lon="11.833014914685675"><ele>347.0</ele><time>2026-04-22T08:36:13Z</time></trkpt><trkpt lat="42.76113802983545" lon="11.833123149504795"><ele>347.75</ele><time>2026-04-22T08:36:14Z</time></trkpt><trkpt lat="42.76124094664423" lon="11.83323667317128"><ele>348.5</ele><time>2026-04-22T08:36:15Z</time></trkpt><trkpt lat="42.76135718479481" lon="11.833305085088742"><ele>349.25</ele><time>2026-04-22T08:36:16Z</time></trkpt><trkpt lat="42.76149501981256" lon="11.83340536299227"><ele>350.0</ele><time>2026-04-22T08:36:17Z</time></trkpt><trkpt lat="42.761638203878974" lon="11.833475064883256"><ele>350.25</ele><time>2026-04-22T08:36:18Z</time></trkpt><trkpt lat="42.761777217866666" lon="11.833519828471607"><ele>350.5</ele><time>2026-04-22T08:36:19Z</time></trkpt><trkpt lat="42.76190515971422" lon="11.833551260709404"><ele>350.75</ele><time>2026-04-22T08:36:20Z</time></trkpt><trkpt lat="42.76202508517301" lon="11.833565312583346"><ele>351.0</ele><time>2026-04-22T08:36:21Z</time></trkpt><trkpt lat="42.762142111530736" lon="11.833551242692455"><ele>349.75</ele><time>2026-04-22T08:36:22Z</time></trkpt><trkpt lat="42.762264649444205" lon="11.83351056726311"><ele>348.5</ele><time>2026-04-22T08:36:23Z</time></trkpt><trkpt lat="42.762380546658335" lon="11.83345115625582"><ele>347.25</ele><time>2026-04-22T08:36:24Z</time></trkpt><trkpt lat="42.76248631335655" lon="11.833382663323516"><ele>346.0</ele><time>2026-04-22T08:36:25Z</time></trkpt><trkpt lat="42.76260688352246" lon="11.833342167529121"><ele>343.25</ele><time>2026-04-22T08:36:26Z</time></trkpt><trkpt lat="42.76270828044253" lon="11.83333800632111"><ele>340.5</ele><time>2026-04-22T08:36:27Z</time></trkpt><trkpt lat="42.76281279097665" lon="11.833379954491853"><ele>337.75</ele><time>2026-04-22T08:36:28Z</time></trkpt><trkpt lat="42.762919863795126" lon="11.833453445657675"><ele>335.0</ele><time>2026-04-22T08:36:28.999Z</time></trkpt><trkpt lat="42.76302594366579" lon="11.83357258509952"><ele>335.0</ele><time>2026-04-22T08:36:29.999Z</time></trkpt><trkpt lat="42.76314486079402" lon="11.833692273354579"><ele>335.0</ele><time>2026-04-22T08:36:30.999Z</time></trkpt><trkpt lat="42.76325562509595" lon="11.833817395031291"><ele>335.0</ele><time>2026-04-22T08:36:31.999Z</time></trkpt><trkpt lat="42.76336323258335" lon="11.83395750378844"><ele>335.0</ele><time>2026-04-22T08:36:32.999Z</time></trkpt><trkpt lat="42.763461181920476" lon="11.834122581773578"><ele>328.33333333333337</ele><time>2026-04-22T08:36:33.999Z</time></trkpt><trkpt lat="42.763550474709106" lon="11.834295235655157"><ele>321.6666666666667</ele><time>2026-04-22T08:36:34.999Z</time></trkpt><trkpt lat="42.76363194161679" lon="11.834468143967072"><ele>315.0</ele><time>2026-04-22T08:36:35.999Z</time></trkpt><trkpt lat="42.76370955329478" lon="11.834645296775168"><ele>315.0</ele><time>2026-04-22T08:36:36.999Z</time></trkpt><trkpt lat="42.76378342088653" lon="11.834815027104133"><ele>315.0</ele><time>2026-04-22T08:36:37.999Z</time></trkpt><trkpt lat="42.76386004188695" lon="11.834972582688934"><ele>315.0</ele><time>2026-04-22T08:36:38.999Z</time></trkpt><trkpt lat="42.76392813655655" lon="11.8351336068128"><ele>315.0</ele><time>2026-04-22T08:36:39.999Z</time></trkpt><trkpt lat="42.764033304654724" lon="11.835251973952532"><ele>315.0</ele><time>2026-04-22T08:36:40.999Z</time></trkpt><trkpt lat="42.764140947488606" lon="11.835352179814171"><ele>315.0</ele><time>2026-04-22T08:36:41.999Z</time></trkpt><trkpt lat="42.76426035816727" lon="11.835421017443304"><ele>315.0</ele><time>2026-04-22T08:36:42.999Z</time></trkpt><trkpt lat="42.764374849142285" lon="11.835472240285474"><ele>315.0</ele><time>2026-04-22T08:36:43.999Z</time></trkpt><trkpt lat="42.76447214847897" lon="11.835529780451571"><ele>312.8333333333333</ele><time>2026-04-22T08:36:44.999Z</time></trkpt><trkpt lat="42.76454983622962" lon="11.835599884172588"><ele>310.6666666666667</ele><time>2026-04-22T08:36:45.999Z</time></trkpt><trkpt lat="42.76460406639944" lon="11.835688940630336"><ele>308.5</ele><time>2026-04-22T08:36:46.999Z</time></trkpt><trkpt lat="42.764627053127796" lon="11.835793906617234"><ele>306.33333333333337</ele><time>2026-04-22T08:36:47.999Z</time></trkpt><trkpt lat="42.76461399260517" lon="11.835902952148983"><ele>304.1666666666667</ele><time>2026-04-22T08:36:48.999Z</time></trkpt><trkpt lat="42.764575645957336" lon="11.836015017256102"><ele>302.0</ele><time>2026-04-22T08:36:49.999Z</time></trkpt><trkpt lat="42.764513349732134" lon="11.836103538952516"><ele>302.5</ele><time>2026-04-22T08:36:50.999Z</time></trkpt><trkpt lat="42.76442111501495" lon="11.836173736797372"><ele>303.0</ele><time>2026-04-22T08:36:51.999Z</time></trkpt><trkpt lat="42.764319103332014" lon="11.83623270491884"><ele>303.5</ele><time>2026-04-22T08:36:52.999Z</time></trkpt><trkpt lat="42.76419600914902" lon="11.83628630867776"><ele>304.0</ele><time>2026-04-22T08:36:53.999Z</time></trkpt><trkpt lat="42.76406195863568" lon="11.83634397659476"><ele>304.0</ele><time>2026-04-22T08:36:54.999Z</time></trkpt><trkpt lat="42.763923475258835" lon="11.83642384923131"><ele>304.0</ele><time>2026-04-22T08:36:55.999Z</time></trkpt><trkpt lat="42.76379940877255" lon="11.836520594213214"><ele>304.0</ele><time>2026-04-22T08:36:56.999Z</time></trkpt><trkpt lat="42.76367720570373" lon="11.836633773116606"><ele>304.0</ele><time>2026-04-22T08:36:57.999Z</time></trkpt><trkpt lat="42.76355982301655" lon="11.836750277333353"><ele>301.0</ele><time>2026-04-22T08:36:58.999Z</time></trkpt><trkpt lat="42.76344203511444" lon="11.8368523880425"><ele>298.0</ele><time>2026-04-22T08:36:59.999Z</time></trkpt><trkpt lat="42.763324897964644" lon="11.836939997426086"><ele>295.0</ele><time>2026-04-22T08:37:00.999Z</time></trkpt><trkpt lat="42.76319257259267" lon="11.83701387933829"><ele>292.0</ele><time>2026-04-22T08:37:01.999Z</time></trkpt><trkpt lat="42.7630443096032" lon="11.837069584382785"><ele>292.0</ele><time>2026-04-22T08:37:02.999Z</time></trkpt><trkpt lat="42.76289036561693" lon="11.837119414914005"><ele>292.0</ele><time>2026-04-22T08:37:03.999Z</time></trkpt><trkpt lat="42.76273640484674" lon="11.837171284030102"><ele>292.0</ele><time>2026-04-22T08:37:04.999Z</time></trkpt><trkpt lat="42.76259030463547" lon="11.83722568438006"><ele>292.0</ele><time>2026-04-22T08:37:05.999Z</time></trkpt><trkpt lat="42.76245228946033" lon="11.837288646395725"><ele>292.0</ele><time>2026-04-22T08:37:06.999Z</time></trkpt><trkpt lat="42.76232741232011" lon="11.837365502429886"><ele>292.0</ele><time>2026-04-22T08:37:07.999Z</time></trkpt><trkpt lat="42.76221591703004" lon="11.837455048760614"><ele>292.0</ele><time>2026-04-22T08:37:08.999Z</time></trkpt><trkpt lat="42.76211154725022" lon="11.837547268803272"><ele>292.0</ele><time>2026-04-22T08:37:09.999Z</time></trkpt><trkpt lat="42.76201005199923" lon="11.837624852552144"><ele>292.0</ele><time>2026-04-22T08:37:10.999Z</time></trkpt><trkpt lat="42.7619123200802" lon="11.83769189025649"><ele>292.0</ele><time>2026-04-22T08:37:11.999Z</time></trkpt><trkpt lat="42.761805274820084" lon="11.837747950478896"><ele>292.0</ele><time>2026-04-22T08:37:12.999Z</time></trkpt><trkpt lat="42.76167446522732" lon="11.837790097840923"><ele>290.0</ele><time>2026-04-22T08:37:13.999Z</time></trkpt><trkpt lat="42.76152170763739" lon="11.837812602708276"><ele>288.0</ele><time>2026-04-22T08:37:14.999Z</time></trkpt><trkpt lat="42.76136564768721" lon="11.837819792543309"><ele>286.0</ele><time>2026-04-22T08:37:15.999Z</time></trkpt><trkpt lat="42.761217009686774" lon="11.837806316263652"><ele>286.0</ele><time>2026-04-22T08:37:16.999Z</time></trkpt><trkpt lat="42.76107737145654" lon="11.837791641734336"><ele>286.0</ele><time>2026-04-22T08:37:17.999Z</time></trkpt><trkpt lat="42.760942872583186" lon="11.837796347569238"><ele>286.0</ele><time>2026-04-22T08:37:18.999Z</time></trkpt><trkpt lat="42.76081126980429" lon="11.837812324647226"><ele>286.0</ele><time>2026-04-22T08:37:19.999Z</time></trkpt><trkpt lat="42.76068049558856" lon="11.83784097304785"><ele>284.0</ele><time>2026-04-22T08:37:20.999Z</time></trkpt><trkpt lat="42.76055191447453" lon="11.837904076560669"><ele>282.0</ele><time>2026-04-22T08:37:21.999Z</time></trkpt><trkpt lat="42.76044085678292" lon="11.837998853738782"><ele>280.0</ele><time>2026-04-22T08:37:22.999Z</time></trkpt><trkpt lat="42.760345629269736" lon="11.83811880907571"><ele>278.0</ele><time>2026-04-22T08:37:23.999Z</time></trkpt><trkpt lat="42.760269403568735" lon="11.838257544783348"><ele>277.6666666666667</ele><time>2026-04-22T08:37:24.999Z</time></trkpt><trkpt lat="42.760198072444744" lon="11.838422663846032"><ele>277.3333333333333</ele><time>2026-04-22T08:37:25.999Z</time></trkpt><trkpt lat="42.76011486918953" lon="11.83860277132772"><ele>277.0</ele><time>2026-04-22T08:37:26.999Z</time></trkpt><trkpt lat="42.76002906700044" lon="11.838789685078906"><ele>274.0</ele><time>2026-04-22T08:37:27.999Z</time></trkpt><trkpt lat="42.75994582080205" lon="11.838975583685865"><ele>271.0</ele><time>2026-04-22T08:37:28.999Z</time></trkpt><trkpt lat="42.759865339338916" lon="11.839159304260676"><ele>268.0</ele><time>2026-04-22T08:37:29.999Z</time></trkpt><trkpt lat="42.75978950332525" lon="11.839336228416803"><ele>266.25</ele><time>2026-04-22T08:37:30.999Z</time></trkpt><trkpt lat="42.75971281686273" lon="11.839513791668878"><ele>264.5</ele><time>2026-04-22T08:37:31.999Z</time></trkpt><trkpt lat="42.7596379371434" lon="11.839684972678572"><ele>262.75</ele><time>2026-04-22T08:37:32.999Z</time></trkpt><trkpt lat="42.75956110251945" lon="11.839852710167504"><ele>261.0</ele><time>2026-04-22T08:37:33.999Z</time></trkpt><trkpt lat="42.75947985999486" lon="11.840020991863238"><ele>259.6666666666667</ele><time>2026-04-22T08:37:35Z</time></trkpt><trkpt lat="42.75939267474259" lon="11.840181673477787"><ele>258.33333333333337</ele><time>2026-04-22T08:37:36Z</time></trkpt><trkpt lat="42.75929986930879" lon="11.840342902597445"><ele>257.0</ele><time>2026-04-22T08:37:37Z</time></trkpt><trkpt lat="42.75919097532788" lon="11.840513880126318"><ele>257.0</ele><time>2026-04-22T08:37:38Z</time></trkpt><trkpt lat="42.759082896910115" lon="11.840685846192118"><ele>257.0</ele><time>2026-04-22T08:37:39Z</time></trkpt><trkpt lat="42.75896236910495" lon="11.840855083447964"><ele>257.0</ele><time>2026-04-22T08:37:40Z</time></trkpt><trkpt lat="42.758832132763246" lon="11.841022954567343"><ele>257.33333333333337</ele><time>2026-04-22T08:37:41Z</time></trkpt><trkpt lat="42.758698988858136" lon="11.841193564971409"><ele>257.6666666666667</ele><time>2026-04-22T08:37:42Z</time></trkpt><trkpt lat="42.75857388839841" lon="11.84135818682908"><ele>258.0</ele><time>2026-04-22T08:37:43Z</time></trkpt><trkpt lat="42.75845101037785" lon="11.841519541587417"><ele>258.0</ele><time>2026-04-22T08:37:44Z</time></trkpt><trkpt lat="42.758326062684844" lon="11.841674778252697"><ele>258.0</ele><time>2026-04-22T08:37:45Z</time></trkpt><trkpt lat="42.758198878533946" lon="11.84183939244545"><ele>258.0</ele><time>2026-04-22T08:37:46Z</time></trkpt><trkpt lat="42.758079020709935" lon="11.84200400583442"><ele>258.3333333333333</ele><time>2026-04-22T08:37:47Z</time></trkpt><trkpt lat="42.75796245218318" lon="11.842163174368258"><ele>258.66666666666663</ele><time>2026-04-22T08:37:48Z</time></trkpt><trkpt lat="42.75784573202226" lon="11.842314303001432"><ele>259.0</ele><time>2026-04-22T08:37:49Z</time></trkpt><trkpt lat="42.757727381881125" lon="11.84247043549716"><ele>259.75</ele><time>2026-04-22T08:37:50Z</time></trkpt><trkpt lat="42.757616612264705" lon="11.842615461302401"><ele>260.5</ele><time>2026-04-22T08:37:51Z</time></trkpt><trkpt lat="42.75752235667252" lon="11.842748744651663"><ele>261.25</ele><time>2026-04-22T08:37:52Z</time></trkpt><trkpt lat="42.75744968922744" lon="11.842869399763288"><ele>262.0</ele><time>2026-04-22T08:37:53Z</time></trkpt><trkpt lat="42.75738651662553" lon="11.842984766103593"><ele>264.0</ele><time>2026-04-22T08:37:54Z</time></trkpt><trkpt lat="42.757402323143204" lon="11.843142068010229"><ele>266.0</ele><time>2026-04-22T08:37:55Z</time></trkpt><trkpt lat="42.757445092254386" lon="11.843282209880842"><ele>268.0</ele><time>2026-04-22T08:37:56Z</time></trkpt><trkpt lat="42.7574984826305" lon="11.843408110214593"><ele>270.0</ele><time>2026-04-22T08:37:57Z</time></trkpt><trkpt lat="42.75757940610246" lon="11.843540141813847"><ele>271.0</ele><time>2026-04-22T08:37:58Z</time></trkpt><trkpt lat="42.757672199153326" lon="11.843677214351509"><ele>272.0</ele><time>2026-04-22T08:37:59Z</time></trkpt><trkpt lat="42.75777466898815" lon="11.843825609879389"><ele>273.0</ele><time>2026-04-22T08:38:00Z</time></trkpt><trkpt lat="42.75788519170089" lon="11.843965146233892"><ele>274.0</ele><time>2026-04-22T08:38:01Z</time></trkpt><trkpt lat="42.75799927051251" lon="11.844096457669762"><ele>274.0</ele><time>2026-04-22T08:38:02Z</time></trkpt><trkpt lat="42.758120660709054" lon="11.84423081135612"><ele>274.0</ele><time>2026-04-22T08:38:03Z</time></trkpt><trkpt lat="42.75824557697601" lon="11.844366586145012"><ele>274.0</ele><time>2026-04-22T08:38:04Z</time></trkpt><trkpt lat="42.7583689053398" lon="11.84451803545642"><ele>274.66666666666663</ele><time>2026-04-22T08:38:05Z</time></trkpt><trkpt lat="42.75848948102745" lon="11.844659640180819"><ele>275.3333333333333</ele><time>2026-04-22T08:38:06Z</time></trkpt><trkpt lat="42.75861222336814" lon="11.84479716692747"><ele>276.0</ele><time>2026-04-22T08:38:07Z</time></trkpt><trkpt lat="42.75872580920801" lon="11.844925997597791"><ele>276.0</ele><time>2026-04-22T08:38:08Z</time></trkpt><trkpt lat="42.75882369044918" lon="11.845047789689342"><ele>276.0</ele><time>2026-04-22T08:38:09Z</time></trkpt><trkpt lat="42.75891052332199" lon="11.845164773545626"><ele>276.0</ele><time>2026-04-22T08:38:10Z</time></trkpt><trkpt lat="42.758984653602546" lon="11.84527897768942"><ele>276.0</ele><time>2026-04-22T08:38:11Z</time></trkpt><trkpt lat="42.75905033514029" lon="11.84538713566628"><ele>274.8</ele><time>2026-04-22T08:38:12Z</time></trkpt><trkpt lat="42.759113468489524" lon="11.845494057873067"><ele>273.6</ele><time>2026-04-22T08:38:13Z</time></trkpt><trkpt lat="42.75918336646008" lon="11.845610817826316"><ele>272.4</ele><time>2026-04-22T08:38:14Z</time></trkpt><trkpt lat="42.759251832616066" lon="11.845722223746614"><ele>271.2</ele><time>2026-04-22T08:38:15Z</time></trkpt><trkpt lat="42.759319488107515" lon="11.845838092808226"><ele>270.0</ele><time>2026-04-22T08:38:16Z</time></trkpt><trkpt lat="42.75938268887419" lon="11.845947196674546"><ele>269.8</ele><time>2026-04-22T08:38:17Z</time></trkpt><trkpt lat="42.75944089553602" lon="11.846051607753884"><ele>269.6</ele><time>2026-04-22T08:38:18Z</time></trkpt><trkpt lat="42.759495716155016" lon="11.846154209334017"><ele>269.4</ele><time>2026-04-22T08:38:19Z</time></trkpt><trkpt lat="42.75953087476844" lon="11.84627347607072"><ele>269.2</ele><time>2026-04-22T08:38:20Z</time></trkpt><trkpt lat="42.75957813893821" lon="11.846398560147831"><ele>269.0</ele><time>2026-04-22T08:38:21Z</time></trkpt><trkpt lat="42.75962147537632" lon="11.84654330428325"><ele>269.0</ele><time>2026-04-22T08:38:22Z</time></trkpt><trkpt lat="42.75966991529229" lon="11.846722724466103"><ele>269.0</ele><time>2026-04-22T08:38:23Z</time></trkpt><trkpt lat="42.75972071474434" lon="11.84690756305813"><ele>269.0</ele><time>2026-04-22T08:38:24Z</time></trkpt><trkpt lat="42.7597853618828" lon="11.847096120157586"><ele>269.0</ele><time>2026-04-22T08:38:25Z</time></trkpt><trkpt lat="42.75985741241349" lon="11.847290710878392"><ele>271.0</ele><time>2026-04-22T08:38:26Z</time></trkpt><trkpt lat="42.75992737232628" lon="11.847494633724603"><ele>273.0</ele><time>2026-04-22T08:38:27Z</time></trkpt><trkpt lat="42.75999705586823" lon="11.847697751337927"><ele>275.0</ele><time>2026-04-22T08:38:28Z</time></trkpt><trkpt lat="42.76007888707921" lon="11.847899456365177"><ele>275.0</ele><time>2026-04-22T08:38:29Z</time></trkpt><trkpt lat="42.76015299901402" lon="11.848112106689154"><ele>275.0</ele><time>2026-04-22T08:38:30Z</time></trkpt><trkpt lat="42.760230049454314" lon="11.848322273407735"><ele>275.0</ele><time>2026-04-22T08:38:31Z</time></trkpt><trkpt lat="42.76030203565172" lon="11.848523844662381"><ele>275.0</ele><time>2026-04-22T08:38:32Z</time></trkpt><trkpt lat="42.76036978609104" lon="11.848714213935816"><ele>275.0</ele><time>2026-04-22T08:38:33Z</time></trkpt><trkpt lat="42.76043179183238" lon="11.848892688956232"><ele>275.0</ele><time>2026-04-22T08:38:34Z</time></trkpt><trkpt lat="42.76050782321301" lon="11.849062880928583"><ele>275.0</ele><time>2026-04-22T08:38:35Z</time></trkpt><trkpt lat="42.76060251684902" lon="11.849222782558332"><ele>278.0</ele><time>2026-04-22T08:38:36Z</time></trkpt><trkpt lat="42.760706916972616" lon="11.849382537814297"><ele>281.0</ele><time>2026-04-22T08:38:37Z</time></trkpt><trkpt lat="42.760824825263825" lon="11.849537795801275"><ele>284.0</ele><time>2026-04-22T08:38:38Z</time></trkpt><trkpt lat="42.76095178741569" lon="11.849688032016944"><ele>279.0</ele><time>2026-04-22T08:38:39Z</time></trkpt><trkpt lat="42.76108574744156" lon="11.849823227148061"><ele>274.0</ele><time>2026-04-22T08:38:40Z</time></trkpt><trkpt lat="42.76121697169703" lon="11.849955392746857"><ele>269.0</ele><time>2026-04-22T08:38:41Z</time></trkpt><trkpt lat="42.76133877310611" lon="11.850083391551172"><ele>270.75</ele><time>2026-04-22T08:38:42Z</time></trkpt><trkpt lat="42.7614467080977" lon="11.850214516155859"><ele>272.5</ele><time>2026-04-22T08:38:43Z</time></trkpt><trkpt lat="42.76153530779034" lon="11.85036696950522"><ele>274.25</ele><time>2026-04-22T08:38:44Z</time></trkpt><trkpt lat="42.76161144465481" lon="11.850541448313159"><ele>276.0</ele><time>2026-04-22T08:38:45Z</time></trkpt><trkpt lat="42.761677462586725" lon="11.850732001905081"><ele>276.0</ele><time>2026-04-22T08:38:46Z</time></trkpt><trkpt lat="42.761730572116655" lon="11.850942917551162"><ele>276.0</ele><time>2026-04-22T08:38:47Z</time></trkpt><trkpt lat="42.76179045418566" lon="11.851148153406935"><ele>276.0</ele><time>2026-04-22T08:38:48Z</time></trkpt><trkpt lat="42.76185172127392" lon="11.85136053883999"><ele>274.6666666666667</ele><time>2026-04-22T08:38:49Z</time></trkpt><trkpt lat="42.76191239728766" lon="11.851568373300637"><ele>273.33333333333337</ele><time>2026-04-22T08:38:50Z</time></trkpt><trkpt lat="42.76196982339033" lon="11.851774345713231"><ele>272.0</ele><time>2026-04-22T08:38:51Z</time></trkpt><trkpt lat="42.762018855440175" lon="11.851975825820189"><ele>272.0</ele><time>2026-04-22T08:38:52Z</time></trkpt><trkpt lat="42.7620551412286" lon="11.852170147557533"><ele>272.0</ele><time>2026-04-22T08:38:53Z</time></trkpt><trkpt lat="42.762083442468175" lon="11.852369652083324"><ele>272.0</ele><time>2026-04-22T08:38:53.999Z</time></trkpt><trkpt lat="42.76210331778591" lon="11.852577088636837"><ele>269.5</ele><time>2026-04-22T08:38:54.999Z</time></trkpt><trkpt lat="42.76211732240961" lon="11.852805483349657"><ele>267.0</ele><time>2026-04-22T08:38:55.999Z</time></trkpt><trkpt lat="42.762154251107134" lon="11.853238694405007"><ele>267.0</ele><time>2026-04-22T08:38:57.999Z</time></trkpt><trkpt lat="42.762162015611395" lon="11.85344731100318"><ele>267.0</ele><time>2026-04-22T08:38:58.999Z</time></trkpt><trkpt lat="42.762176252558426" lon="11.8536562366627"><ele>267.0</ele><time>2026-04-22T08:38:59.999Z</time></trkpt><trkpt lat="42.762154828075765" lon="11.853865293841448"><ele>265.3333333333333</ele><time>2026-04-22T08:39:00.999Z</time></trkpt><trkpt lat="42.76214696057361" lon="11.854081437470029"><ele>263.66666666666663</ele><time>2026-04-22T08:39:01.999Z</time></trkpt><trkpt lat="42.76215298030681" lon="11.854300504841708"><ele>262.0</ele><time>2026-04-22T08:39:02.999Z</time></trkpt><trkpt lat="42.76218107155" lon="11.854529197882705"><ele>259.66666666666663</ele><time>2026-04-22T08:39:03.999Z</time></trkpt><trkpt lat="42.76219762694357" lon="11.854750513929961"><ele>257.3333333333333</ele><time>2026-04-22T08:39:04.999Z</time></trkpt><trkpt lat="42.76219875714022" lon="11.854968030402754"><ele>255.0</ele><time>2026-04-22T08:39:05.999Z</time></trkpt><trkpt lat="42.762214655441554" lon="11.85518316611347"><ele>254.0</ele><time>2026-04-22T08:39:06.999Z</time></trkpt><trkpt lat="42.76222913083934" lon="11.855386616066317"><ele>253.0</ele><time>2026-04-22T08:39:07.999Z</time></trkpt><trkpt lat="42.762242821372354" lon="11.855589718267181"><ele>252.0</ele><time>2026-04-22T08:39:08.999Z</time></trkpt><trkpt lat="42.76225617177786" lon="11.855787774389057"><ele>251.0</ele><time>2026-04-22T08:39:09.999Z</time></trkpt><trkpt lat="42.76226898770731" lon="11.855977584776932"><ele>250.5</ele><time>2026-04-22T08:39:10.999Z</time></trkpt><trkpt lat="42.76228136061263" lon="11.856158279517894"><ele>250.0</ele><time>2026-04-22T08:39:11.999Z</time></trkpt><trkpt lat="42.762293202849364" lon="11.856331224079455"><ele>249.5</ele><time>2026-04-22T08:39:12.999Z</time></trkpt><trkpt lat="42.7623040645704" lon="11.856489849496006"><ele>249.0</ele><time>2026-04-22T08:39:13.999Z</time></trkpt><trkpt lat="42.76232801323076" lon="11.856621829204654"><ele>249.0</ele><time>2026-04-22T08:39:14.999Z</time></trkpt><trkpt lat="42.76233281053498" lon="11.856719842768147"><ele>248.99999999999997</ele><time>2026-04-22T08:39:15.999Z</time></trkpt><trkpt lat="42.76233746468891" lon="11.856825120681082"><ele>248.99999999999997</ele><time>2026-04-22T08:39:17.999Z</time></trkpt><trkpt lat="42.76235409694809" lon="11.85691617845299"><ele>249.0</ele><time>2026-04-22T08:39:21.999Z</time></trkpt><trkpt lat="42.7624877575105" lon="11.85689145882642"><ele>249.0</ele><time>2026-04-22T08:39:24.999Z</time></trkpt><trkpt lat="42.762553106242294" lon="11.856795156558373"><ele>249.0</ele><time>2026-04-22T08:39:25.999Z</time></trkpt><trkpt lat="42.76263233100964" lon="11.856715225740016"><ele>249.0</ele><time>2026-04-22T08:39:26.999Z</time></trkpt><trkpt lat="42.762732569815945" lon="11.856622625975"><ele>249.0</ele><time>2026-04-22T08:39:27.999Z</time></trkpt><trkpt lat="42.762841554739126" lon="11.85654794518066"><ele>249.0</ele><time>2026-04-22T08:39:28.999Z</time></trkpt><trkpt lat="42.76296605332067" lon="11.856480254826026"><ele>248.5</ele><time>2026-04-22T08:39:29.999Z</time></trkpt><trkpt lat="42.76310049417974" lon="11.856416396528639"><ele>248.0</ele><time>2026-04-22T08:39:30.999Z</time></trkpt><trkpt lat="42.76324082674381" lon="11.856366592277812"><ele>247.5</ele><time>2026-04-22T08:39:31.999Z</time></trkpt><trkpt lat="42.76339371115376" lon="11.856334373291425"><ele>247.0</ele><time>2026-04-22T08:39:32.999Z</time></trkpt><trkpt lat="42.76355510054841" lon="11.85631963618913"><ele>246.66666666666666</ele><time>2026-04-22T08:39:33.999Z</time></trkpt><trkpt lat="42.76372542315889" lon="11.856314047436374"><ele>246.33333333333331</ele><time>2026-04-22T08:39:34.999Z</time></trkpt><trkpt lat="42.76390437795409" lon="11.856316869965418"><ele>246.0</ele><time>2026-04-22T08:39:35.999Z</time></trkpt><trkpt lat="42.76408636111285" lon="11.85632315229687"><ele>246.0</ele><time>2026-04-22T08:39:36.999Z</time></trkpt><trkpt lat="42.764261318445634" lon="11.856328257616196"><ele>246.0</ele><time>2026-04-22T08:39:37.999Z</time></trkpt><trkpt lat="42.764436750027684" lon="11.856329651033027"><ele>246.0</ele><time>2026-04-22T08:39:38.999Z</time></trkpt><trkpt lat="42.764612002230244" lon="11.856331060176778"><ele>246.33333333333331</ele><time>2026-04-22T08:39:39.999Z</time></trkpt><trkpt lat="42.7647913783807" lon="11.856333352862404"><ele>246.66666666666666</ele><time>2026-04-22T08:39:41Z</time></trkpt><trkpt lat="42.7649761713431" lon="11.856330917554631"><ele>247.0</ele><time>2026-04-22T08:39:42Z</time></trkpt><trkpt lat="42.7651680207697" lon="11.856328407309073"><ele>247.0</ele><time>2026-04-22T08:39:43Z</time></trkpt><trkpt lat="42.7653639369931" lon="11.856322813352982"><ele>247.0</ele><time>2026-04-22T08:39:44Z</time></trkpt><trkpt lat="42.76556149996533" lon="11.856311626352857"><ele>247.0</ele><time>2026-04-22T08:39:45Z</time></trkpt><trkpt lat="42.765763246648156" lon="11.856301871305922"><ele>247.0</ele><time>2026-04-22T08:39:46Z</time></trkpt><trkpt lat="42.76595536356427" lon="11.856286695005286"><ele>247.0</ele><time>2026-04-22T08:39:47Z</time></trkpt><trkpt lat="42.76614519150665" lon="11.856261451422931"><ele>247.0</ele><time>2026-04-22T08:39:48Z</time></trkpt><trkpt lat="42.76633304585925" lon="11.856227561168016"><ele>248.33333333333331</ele><time>2026-04-22T08:39:49Z</time></trkpt><trkpt lat="42.766520274323724" lon="11.85619230312529"><ele>249.66666666666669</ele><time>2026-04-22T08:39:50Z</time></trkpt><trkpt lat="42.76670462140037" lon="11.856154132364821"><ele>251.0</ele><time>2026-04-22T08:39:51Z</time></trkpt><trkpt lat="42.76690396991117" lon="11.856134260014503"><ele>251.66666666666669</ele><time>2026-04-22T08:39:52Z</time></trkpt><trkpt lat="42.76709028494253" lon="11.856105898311787"><ele>252.33333333333331</ele><time>2026-04-22T08:39:53Z</time></trkpt><trkpt lat="42.767274639903505" lon="11.856073058892353"><ele>253.0</ele><time>2026-04-22T08:39:54Z</time></trkpt><trkpt lat="42.76745904569181" lon="11.856047394103708"><ele>253.0</ele><time>2026-04-22T08:39:55Z</time></trkpt><trkpt lat="42.76764399805828" lon="11.856021085477197"><ele>253.0</ele><time>2026-04-22T08:39:56Z</time></trkpt><trkpt lat="42.76782724980318" lon="11.855995177053194"><ele>253.0</ele><time>2026-04-22T08:39:57Z</time></trkpt><trkpt lat="42.76801389071637" lon="11.855964001506251"><ele>253.66666666666666</ele><time>2026-04-22T08:39:58Z</time></trkpt><trkpt lat="42.7682006130991" lon="11.855931365291434"><ele>254.33333333333331</ele><time>2026-04-22T08:39:59Z</time></trkpt><trkpt lat="42.768391848173515" lon="11.855900625481668"><ele>255.0</ele><time>2026-04-22T08:40:00Z</time></trkpt><trkpt lat="42.76858295117746" lon="11.855870359232888"><ele>256.0</ele><time>2026-04-22T08:40:01Z</time></trkpt><trkpt lat="42.76877801063257" lon="11.855836071993409"><ele>257.0</ele><time>2026-04-22T08:40:02Z</time></trkpt><trkpt lat="42.76897290667958" lon="11.85579868990752"><ele>258.0</ele><time>2026-04-22T08:40:03Z</time></trkpt><trkpt lat="42.76917118150465" lon="11.855758826155515"><ele>258.3333333333333</ele><time>2026-04-22T08:40:04Z</time></trkpt><trkpt lat="42.769373200271865" lon="11.855726266848768"><ele>258.66666666666663</ele><time>2026-04-22T08:40:05Z</time></trkpt><trkpt lat="42.769574953404394" lon="11.855695924976827"><ele>259.0</ele><time>2026-04-22T08:40:06Z</time></trkpt><trkpt lat="42.76977844819312" lon="11.855661137290744"><ele>259.0</ele><time>2026-04-22T08:40:07Z</time></trkpt><trkpt lat="42.76998274903478" lon="11.855624710863516"><ele>259.0</ele><time>2026-04-22T08:40:08Z</time></trkpt><trkpt lat="42.77018556459182" lon="11.85558537976506"><ele>259.0</ele><time>2026-04-22T08:40:09Z</time></trkpt><trkpt lat="42.770380834146415" lon="11.855553451287994"><ele>259.66666666666663</ele><time>2026-04-22T08:40:10Z</time></trkpt><trkpt lat="42.770559052158674" lon="11.855513848116653"><ele>260.3333333333333</ele><time>2026-04-22T08:40:11Z</time></trkpt><trkpt lat="42.77071976278392" lon="11.855449267029366"><ele>261.0</ele><time>2026-04-22T08:40:12Z</time></trkpt><trkpt lat="42.77087401554581" lon="11.855331046914229"><ele>261.0</ele><time>2026-04-22T08:40:13Z</time></trkpt><trkpt lat="42.77101470017515" lon="11.855147764869288"><ele>261.0</ele><time>2026-04-22T08:40:14Z</time></trkpt><trkpt lat="42.77117726009235" lon="11.854992007648447"><ele>261.0</ele><time>2026-04-22T08:40:15Z</time></trkpt><trkpt lat="42.771236836549825" lon="11.854761652051454"><ele>262.0</ele><time>2026-04-22T08:40:16Z</time></trkpt><trkpt lat="42.77129900789783" lon="11.854517143260875"><ele>263.0</ele><time>2026-04-22T08:40:17Z</time></trkpt><trkpt lat="42.7713331701513" lon="11.854261088221113"><ele>264.0</ele><time>2026-04-22T08:40:18Z</time></trkpt><trkpt lat="42.771352215462095" lon="11.853996898017702"><ele>264.0</ele><time>2026-04-22T08:40:19Z</time></trkpt><trkpt lat="42.77137360000936" lon="11.853733893247185"><ele>264.0</ele><time>2026-04-22T08:40:20Z</time></trkpt><trkpt lat="42.77140262253377" lon="11.853484137579223"><ele>264.0</ele><time>2026-04-22T08:40:21Z</time></trkpt><trkpt lat="42.77143303308004" lon="11.853252000400643"><ele>263.75</ele><time>2026-04-22T08:40:22Z</time></trkpt><trkpt lat="42.77145961860441" lon="11.85303347219967"><ele>263.5</ele><time>2026-04-22T08:40:23Z</time></trkpt><trkpt lat="42.77148314722904" lon="11.852840686029973"><ele>263.25</ele><time>2026-04-22T08:40:24Z</time></trkpt><trkpt lat="42.77151605757093" lon="11.852686220456498"><ele>263.0</ele><time>2026-04-22T08:40:25Z</time></trkpt><trkpt lat="42.77158046900792" lon="11.852573570180304"><ele>263.75</ele><time>2026-04-22T08:40:26Z</time></trkpt><trkpt lat="42.77166658223196" lon="11.852470527090391"><ele>264.5</ele><time>2026-04-22T08:40:27Z</time></trkpt><trkpt lat="42.7717773749029" lon="11.852378106245789"><ele>265.25</ele><time>2026-04-22T08:40:28Z</time></trkpt><trkpt lat="42.77190213395115" lon="11.852309470902691"><ele>266.0</ele><time>2026-04-22T08:40:29Z</time></trkpt><trkpt lat="42.772032299448554" lon="11.852279806945388"><ele>268.0</ele><time>2026-04-22T08:40:30Z</time></trkpt><trkpt lat="42.772172127448364" lon="11.852310132174319"><ele>270.0</ele><time>2026-04-22T08:40:31Z</time></trkpt><trkpt lat="42.772474833519425" lon="11.852267823316184"><ele>272.0</ele><time>2026-04-22T08:40:33Z</time></trkpt><trkpt lat="42.77264316341961" lon="11.852260227538656"><ele>272.0</ele><time>2026-04-22T08:40:34Z</time></trkpt><trkpt lat="42.772819949370835" lon="11.852247957229478"><ele>272.0</ele><time>2026-04-22T08:40:35Z</time></trkpt><trkpt lat="42.773001204172026" lon="11.852240962479902"><ele>272.0</ele><time>2026-04-22T08:40:36Z</time></trkpt><trkpt lat="42.773188729849736" lon="11.852217211320248"><ele>272.0</ele><time>2026-04-22T08:40:37Z</time></trkpt><trkpt lat="42.77338799999345" lon="11.852202367375002"><ele>272.0</ele><time>2026-04-22T08:40:38Z</time></trkpt><trkpt lat="42.77358690762557" lon="11.852180662455215"><ele>272.0</ele><time>2026-04-22T08:40:39Z</time></trkpt><trkpt lat="42.77379057548345" lon="11.852157281556638"><ele>273.0</ele><time>2026-04-22T08:40:40Z</time></trkpt><trkpt lat="42.77398474664082" lon="11.852134542276334"><ele>274.0</ele><time>2026-04-22T08:40:41Z</time></trkpt><trkpt lat="42.77417695357724" lon="11.8521012089666"><ele>275.0</ele><time>2026-04-22T08:40:42Z</time></trkpt><trkpt lat="42.77437263266167" lon="11.852061028628446"><ele>276.6666666666667</ele><time>2026-04-22T08:40:43Z</time></trkpt><trkpt lat="42.774565052640234" lon="11.852011880229668"><ele>278.3333333333333</ele><time>2026-04-22T08:40:44Z</time></trkpt><trkpt lat="42.77475100069332" lon="11.851961654326296"><ele>280.0</ele><time>2026-04-22T08:40:45Z</time></trkpt><trkpt lat="42.77494049894999" lon="11.851917024654545"><ele>280.0</ele><time>2026-04-22T08:40:46Z</time></trkpt><trkpt lat="42.77511747708748" lon="11.851889956428646"><ele>280.0</ele><time>2026-04-22T08:40:47Z</time></trkpt><trkpt lat="42.775276709328274" lon="11.851898262157201"><ele>280.0</ele><time>2026-04-22T08:40:48Z</time></trkpt><trkpt lat="42.77542627649306" lon="11.851922815976533"><ele>281.66666666666663</ele><time>2026-04-22T08:40:49Z</time></trkpt><trkpt lat="42.77557870275274" lon="11.851965677246797"><ele>283.3333333333333</ele><time>2026-04-22T08:40:50Z</time></trkpt><trkpt lat="42.77573624794572" lon="11.852016376396683"><ele>285.0</ele><time>2026-04-22T08:40:51Z</time></trkpt><trkpt lat="42.77606920935745" lon="11.852101637473902"><ele>287.0</ele><time>2026-04-22T08:40:53Z</time></trkpt><trkpt lat="42.776248319614666" lon="11.852148621583696"><ele>289.0</ele><time>2026-04-22T08:40:54Z</time></trkpt><trkpt lat="42.77642510899411" lon="11.852197608318784"><ele>291.0</ele><time>2026-04-22T08:40:55Z</time></trkpt><trkpt lat="42.776602749078414" lon="11.852239358700349"><ele>291.0</ele><time>2026-04-22T08:40:56Z</time></trkpt><trkpt lat="42.776783167424476" lon="11.852280308199528"><ele>291.0</ele><time>2026-04-22T08:40:57Z</time></trkpt><trkpt lat="42.7769428795343" lon="11.852305497807665"><ele>291.0</ele><time>2026-04-22T08:40:58Z</time></trkpt><trkpt lat="42.777093632724664" lon="11.852304633862198"><ele>292.0</ele><time>2026-04-22T08:40:59Z</time></trkpt><trkpt lat="42.77724173084076" lon="11.852266949787742"><ele>293.0</ele><time>2026-04-22T08:41:00Z</time></trkpt><trkpt lat="42.777388714845266" lon="11.852196326022586"><ele>294.0</ele><time>2026-04-22T08:41:01Z</time></trkpt><trkpt lat="42.777535930621426" lon="11.852109993346968"><ele>294.0</ele><time>2026-04-22T08:41:02Z</time></trkpt><trkpt lat="42.777678142136274" lon="11.852033560488731"><ele>294.0</ele><time>2026-04-22T08:41:03Z</time></trkpt><trkpt lat="42.77782945796489" lon="11.851990460046474"><ele>294.0</ele><time>2026-04-22T08:41:04Z</time></trkpt><trkpt lat="42.77799583455626" lon="11.852006937856942"><ele>294.3333333333333</ele><time>2026-04-22T08:41:05Z</time></trkpt><trkpt lat="42.778162114242164" lon="11.8520252500276"><ele>294.66666666666663</ele><time>2026-04-22T08:41:06Z</time></trkpt><trkpt lat="42.77833200305869" lon="11.852030365198607"><ele>295.0</ele><time>2026-04-22T08:41:07Z</time></trkpt><trkpt lat="42.77849765992087" lon="11.85206098770946"><ele>294.75</ele><time>2026-04-22T08:41:07.999Z</time></trkpt><trkpt lat="42.77864783341584" lon="11.852076994488412"><ele>294.5</ele><time>2026-04-22T08:41:08.999Z</time></trkpt><trkpt lat="42.778783628735376" lon="11.852062992139468"><ele>294.25</ele><time>2026-04-22T08:41:09.999Z</time></trkpt><trkpt lat="42.77891943199961" lon="11.852004926098042"><ele>294.0</ele><time>2026-04-22T08:41:10.999Z</time></trkpt><trkpt lat="42.77904430230761" lon="11.851903878687295"><ele>295.0</ele><time>2026-04-22T08:41:11.999Z</time></trkpt><trkpt lat="42.77916794409159" lon="11.851775415610001"><ele>296.0</ele><time>2026-04-22T08:41:12.999Z</time></trkpt><trkpt lat="42.779282632776436" lon="11.851630963291365"><ele>297.0</ele><time>2026-04-22T08:41:13.999Z</time></trkpt><trkpt lat="42.77940169137749" lon="11.851483734202022"><ele>297.0</ele><time>2026-04-22T08:41:14.999Z</time></trkpt><trkpt lat="42.779515484483554" lon="11.851325632870102"><ele>297.0</ele><time>2026-04-22T08:41:15.999Z</time></trkpt><trkpt lat="42.77960288616933" lon="11.851149498318174"><ele>297.0</ele><time>2026-04-22T08:41:16.999Z</time></trkpt><trkpt lat="42.77966768889206" lon="11.850975331025367"><ele>299.6666666666667</ele><time>2026-04-22T08:41:17.999Z</time></trkpt><trkpt lat="42.77971685511058" lon="11.850789024002415"><ele>302.33333333333337</ele><time>2026-04-22T08:41:18.999Z</time></trkpt><trkpt lat="42.779759937082154" lon="11.850576071158974"><ele>305.0</ele><time>2026-04-22T08:41:19.999Z</time></trkpt><trkpt lat="42.77979496417153" lon="11.85035568296631"><ele>305.0</ele><time>2026-04-22T08:41:20.999Z</time></trkpt><trkpt lat="42.77982350438293" lon="11.850135451606807"><ele>305.0</ele><time>2026-04-22T08:41:21.999Z</time></trkpt><trkpt lat="42.779849248619776" lon="11.849915442929253"><ele>305.0</ele><time>2026-04-22T08:41:22.999Z</time></trkpt><trkpt lat="42.779877268398735" lon="11.849695989059256"><ele>306.25</ele><time>2026-04-22T08:41:23.999Z</time></trkpt><trkpt lat="42.779937262235066" lon="11.849513554292528"><ele>307.5</ele><time>2026-04-22T08:41:24.999Z</time></trkpt><trkpt lat="42.78000146246236" lon="11.849357578571716"><ele>308.75</ele><time>2026-04-22T08:41:25.999Z</time></trkpt><trkpt lat="42.78009479224236" lon="11.84921597458551"><ele>310.0</ele><time>2026-04-22T08:41:26.999Z</time></trkpt><trkpt lat="42.78020578180248" lon="11.849062033078408"><ele>310.3333333333333</ele><time>2026-04-22T08:41:27.999Z</time></trkpt><trkpt lat="42.78032256031961" lon="11.848899835719676"><ele>310.6666666666667</ele><time>2026-04-22T08:41:28.999Z</time></trkpt><trkpt lat="42.78042579953524" lon="11.848728933172765"><ele>311.0</ele><time>2026-04-22T08:41:29.999Z</time></trkpt><trkpt lat="42.780544359818606" lon="11.848570197399802"><ele>313.33333333333337</ele><time>2026-04-22T08:41:30.999Z</time></trkpt><trkpt lat="42.78065887237561" lon="11.848410800043851"><ele>315.6666666666667</ele><time>2026-04-22T08:41:31.999Z</time></trkpt><trkpt lat="42.780780248521886" lon="11.848261848472118"><ele>318.0</ele><time>2026-04-22T08:41:32.999Z</time></trkpt><trkpt lat="42.78091345300509" lon="11.848135908542641"><ele>316.6666666666667</ele><time>2026-04-22T08:41:33.999Z</time></trkpt><trkpt lat="42.78105424912605" lon="11.848021562076205"><ele>315.33333333333337</ele><time>2026-04-22T08:41:34.999Z</time></trkpt><trkpt lat="42.78119732223277" lon="11.847911138555046"><ele>314.0</ele><time>2026-04-22T08:41:35.999Z</time></trkpt><trkpt lat="42.7813490259136" lon="11.847795398813636"><ele>314.0</ele><time>2026-04-22T08:41:36.999Z</time></trkpt><trkpt lat="42.78149210741957" lon="11.847667691754928"><ele>314.0</ele><time>2026-04-22T08:41:37.999Z</time></trkpt><trkpt lat="42.78163912135035" lon="11.84753536445213"><ele>314.0</ele><time>2026-04-22T08:41:38.999Z</time></trkpt><trkpt lat="42.781786508964146" lon="11.847409618123612"><ele>317.6666666666667</ele><time>2026-04-22T08:41:39.999Z</time></trkpt><trkpt lat="42.781938565376045" lon="11.847286827641325"><ele>321.3333333333333</ele><time>2026-04-22T08:41:40.999Z</time></trkpt><trkpt lat="42.78209126010965" lon="11.847167489467418"><ele>325.0</ele><time>2026-04-22T08:41:41.999Z</time></trkpt><trkpt lat="42.78225323316517" lon="11.84707561062543"><ele>325.0</ele><time>2026-04-22T08:41:42.999Z</time></trkpt><trkpt lat="42.78240338458156" lon="11.846948926765311"><ele>325.0</ele><time>2026-04-22T08:41:43.999Z</time></trkpt><trkpt lat="42.78255933791671" lon="11.846847931960308"><ele>325.0</ele><time>2026-04-22T08:41:44.999Z</time></trkpt><trkpt lat="42.78271546099589" lon="11.846743670491932"><ele>326.0</ele><time>2026-04-22T08:41:45.999Z</time></trkpt><trkpt lat="42.78286759356012" lon="11.846636916268633"><ele>327.0</ele><time>2026-04-22T08:41:47Z</time></trkpt><trkpt lat="42.783014545318316" lon="11.846539105428882"><ele>328.0</ele><time>2026-04-22T08:41:48Z</time></trkpt><trkpt lat="42.78315415497112" lon="11.846447587876707"><ele>328.0</ele><time>2026-04-22T08:41:49Z</time></trkpt><trkpt lat="42.78329840090668" lon="11.846367337529212"><ele>328.0</ele><time>2026-04-22T08:41:50Z</time></trkpt><trkpt lat="42.7834420988051" lon="11.846306241723356"><ele>328.0</ele><time>2026-04-22T08:41:51Z</time></trkpt><trkpt lat="42.78359023092247" lon="11.846286686238821"><ele>329.25</ele><time>2026-04-22T08:41:52Z</time></trkpt><trkpt lat="42.78373917734848" lon="11.846260572035506"><ele>330.5</ele><time>2026-04-22T08:41:53Z</time></trkpt><trkpt lat="42.78387595735548" lon="11.846219856099445"><ele>331.75</ele><time>2026-04-22T08:41:54Z</time></trkpt><trkpt lat="42.78400166879659" lon="11.846199531511473"><ele>333.0</ele><time>2026-04-22T08:41:55Z</time></trkpt><trkpt lat="42.78410448853767" lon="11.846194534557885"><ele>333.0</ele><time>2026-04-22T08:41:56Z</time></trkpt><trkpt lat="42.78418449784423" lon="11.846232864021353"><ele>333.0</ele><time>2026-04-22T08:41:57Z</time></trkpt><trkpt lat="42.784241254471056" lon="11.846300224981723"><ele>333.0</ele><time>2026-04-22T08:41:58Z</time></trkpt><trkpt lat="42.784271295121904" lon="11.846393655557984"><ele>333.0</ele><time>2026-04-22T08:41:59Z</time></trkpt><trkpt lat="42.784267217752216" lon="11.846495141856078"><ele>333.0</ele><time>2026-04-22T08:42:00Z</time></trkpt><trkpt lat="42.784244842949086" lon="11.846631619549449"><ele>333.0</ele><time>2026-04-22T08:42:01Z</time></trkpt><trkpt lat="42.784189115985846" lon="11.846769667121407"><ele>334.75</ele><time>2026-04-22T08:42:02Z</time></trkpt><trkpt lat="42.784148478801754" lon="11.846924881557534"><ele>336.5</ele><time>2026-04-22T08:42:03Z</time></trkpt><trkpt lat="42.78411632477374" lon="11.847092749743393"><ele>338.25</ele><time>2026-04-22T08:42:04Z</time></trkpt><trkpt lat="42.78405973031" lon="11.847266569993675"><ele>340.0</ele><time>2026-04-22T08:42:05Z</time></trkpt><trkpt lat="42.78399904638093" lon="11.847442998718455"><ele>340.0</ele><time>2026-04-22T08:42:06Z</time></trkpt><trkpt lat="42.78390667119583" lon="11.847600605686456"><ele>340.0</ele><time>2026-04-22T08:42:07Z</time></trkpt><trkpt lat="42.783816604213754" lon="11.847776756862244"><ele>340.0</ele><time>2026-04-22T08:42:08Z</time></trkpt><trkpt lat="42.78373736230794" lon="11.847966172519737"><ele>340.3333333333333</ele><time>2026-04-22T08:42:09Z</time></trkpt><trkpt lat="42.78363999720926" lon="11.848155010048886"><ele>340.6666666666667</ele><time>2026-04-22T08:42:10Z</time></trkpt><trkpt lat="42.78353875241455" lon="11.84835509344694"><ele>341.0</ele><time>2026-04-22T08:42:11Z</time></trkpt><trkpt lat="42.78343872950812" lon="11.848555236858548"><ele>341.0</ele><time>2026-04-22T08:42:12Z</time></trkpt><trkpt lat="42.78333677806342" lon="11.848758896237449"><ele>341.0</ele><time>2026-04-22T08:42:13Z</time></trkpt><trkpt lat="42.78323932188929" lon="11.848954340780583"><ele>341.0</ele><time>2026-04-22T08:42:14Z</time></trkpt><trkpt lat="42.78314586441596" lon="11.849130926414807"><ele>341.0</ele><time>2026-04-22T08:42:15Z</time></trkpt><trkpt lat="42.78306204088734" lon="11.849286599699916"><ele>341.0</ele><time>2026-04-22T08:42:16Z</time></trkpt><trkpt lat="42.78298150612539" lon="11.849460452436345"><ele>341.0</ele><time>2026-04-22T08:42:17Z</time></trkpt><trkpt lat="42.782913324773396" lon="11.849652832276691"><ele>341.0</ele><time>2026-04-22T08:42:18Z</time></trkpt><trkpt lat="42.78285762862122" lon="11.849858391036536"><ele>344.33333333333337</ele><time>2026-04-22T08:42:19Z</time></trkpt><trkpt lat="42.782817154858506" lon="11.850071904232406"><ele>347.6666666666667</ele><time>2026-04-22T08:42:20Z</time></trkpt><trkpt lat="42.78278192992503" lon="11.850285992549203"><ele>351.0</ele><time>2026-04-22T08:42:21Z</time></trkpt><trkpt lat="42.782751588588546" lon="11.850507817082544"><ele>353.3333333333333</ele><time>2026-04-22T08:42:22Z</time></trkpt><trkpt lat="42.78273242150018" lon="11.850735723670931"><ele>355.66666666666663</ele><time>2026-04-22T08:42:23Z</time></trkpt><trkpt lat="42.782732447789186" lon="11.850946278657025"><ele>358.0</ele><time>2026-04-22T08:42:24Z</time></trkpt><trkpt lat="42.78273957691315" lon="11.851134171193978"><ele>358.0</ele><time>2026-04-22T08:42:25Z</time></trkpt><trkpt lat="42.78276803932757" lon="11.85128790201661"><ele>358.0</ele><time>2026-04-22T08:42:26Z</time></trkpt><trkpt lat="42.78282625208011" lon="11.85141923675295"><ele>358.0</ele><time>2026-04-22T08:42:27Z</time></trkpt><trkpt lat="42.782915370217545" lon="11.851528862845836"><ele>358.0</ele><time>2026-04-22T08:42:28Z</time></trkpt><trkpt lat="42.78302144640439" lon="11.8516375909555"><ele>358.0</ele><time>2026-04-22T08:42:29Z</time></trkpt><trkpt lat="42.78314042112263" lon="11.851755246190729"><ele>358.0</ele><time>2026-04-22T08:42:30Z</time></trkpt><trkpt lat="42.78326743857478" lon="11.851886828147963"><ele>358.0</ele><time>2026-04-22T08:42:31Z</time></trkpt><trkpt lat="42.78339458191949" lon="11.852024642145336"><ele>360.3333333333333</ele><time>2026-04-22T08:42:32Z</time></trkpt><trkpt lat="42.78351926349327" lon="11.852165688828686"><ele>362.6666666666667</ele><time>2026-04-22T08:42:33Z</time></trkpt><trkpt lat="42.78365135277523" lon="11.852314698634347"><ele>365.0</ele><time>2026-04-22T08:42:34Z</time></trkpt><trkpt lat="42.78378294688596" lon="11.852463387597165"><ele>365.0</ele><time>2026-04-22T08:42:35Z</time></trkpt><trkpt lat="42.783898107564795" lon="11.852582511117113"><ele>365.0</ele><time>2026-04-22T08:42:36Z</time></trkpt><trkpt lat="42.784006901026835" lon="11.852659780198032"><ele>365.0</ele><time>2026-04-22T08:42:37Z</time></trkpt><trkpt lat="42.78411838789955" lon="11.852681148390008"><ele>365.0</ele><time>2026-04-22T08:42:38Z</time></trkpt><trkpt lat="42.78425257453355" lon="11.852672943190623"><ele>362.0</ele><time>2026-04-22T08:42:39Z</time></trkpt><trkpt lat="42.78440638739503" lon="11.8526629106702"><ele>359.0</ele><time>2026-04-22T08:42:40Z</time></trkpt><trkpt lat="42.78456843625832" lon="11.852666554372762"><ele>356.0</ele><time>2026-04-22T08:42:41Z</time></trkpt><trkpt lat="42.78473407116937" lon="11.852691003741416"><ele>356.0</ele><time>2026-04-22T08:42:42Z</time></trkpt><trkpt lat="42.78489588036405" lon="11.852777732940455"><ele>356.0</ele><time>2026-04-22T08:42:43Z</time></trkpt><trkpt lat="42.785071188574705" lon="11.852837918412394"><ele>356.0</ele><time>2026-04-22T08:42:44Z</time></trkpt><trkpt lat="42.78524320535847" lon="11.852905734607969"><ele>359.33333333333337</ele><time>2026-04-22T08:42:45Z</time></trkpt><trkpt lat="42.785412094416785" lon="11.852951252016615"><ele>362.6666666666667</ele><time>2026-04-22T08:42:46Z</time></trkpt><trkpt lat="42.785589750046874" lon="11.852962082344625"><ele>366.0</ele><time>2026-04-22T08:42:47Z</time></trkpt><trkpt lat="42.78577662148075" lon="11.852952719968842"><ele>366.0</ele><time>2026-04-22T08:42:48Z</time></trkpt><trkpt lat="42.78595441773082" lon="11.852997424349544"><ele>366.0</ele><time>2026-04-22T08:42:49Z</time></trkpt><trkpt lat="42.78613659977883" lon="11.853059019724148"><ele>366.0</ele><time>2026-04-22T08:42:50Z</time></trkpt><trkpt lat="42.786324871443064" lon="11.85312259081069"><ele>369.3333333333333</ele><time>2026-04-22T08:42:51Z</time></trkpt><trkpt lat="42.78651531235316" lon="11.853179112293937"><ele>372.66666666666663</ele><time>2026-04-22T08:42:52Z</time></trkpt><trkpt lat="42.786705345310025" lon="11.85323837871265"><ele>376.0</ele><time>2026-04-22T08:42:53Z</time></trkpt><trkpt lat="42.78689553651094" lon="11.853299129852383"><ele>374.0</ele><time>2026-04-22T08:42:54Z</time></trkpt><trkpt lat="42.787084819205965" lon="11.853363251092219"><ele>372.0</ele><time>2026-04-22T08:42:55Z</time></trkpt><trkpt lat="42.78726919858993" lon="11.85342663798795"><ele>370.0</ele><time>2026-04-22T08:42:56Z</time></trkpt><trkpt lat="42.787439591055396" lon="11.853498735282187"><ele>370.0</ele><time>2026-04-22T08:42:57Z</time></trkpt><trkpt lat="42.7876005425616" lon="11.853593525753706"><ele>370.0</ele><time>2026-04-22T08:42:58Z</time></trkpt><trkpt lat="42.78774888325717" lon="11.853721475066328"><ele>370.0</ele><time>2026-04-22T08:42:59Z</time></trkpt><trkpt lat="42.7878939881469" lon="11.853871506101772"><ele>376.66666666666663</ele><time>2026-04-22T08:43:00Z</time></trkpt><trkpt lat="42.78804063948512" lon="11.854018738217832"><ele>383.3333333333333</ele><time>2026-04-22T08:43:01Z</time></trkpt><trkpt lat="42.78819165427124" lon="11.854156717410142"><ele>390.0</ele><time>2026-04-22T08:43:02Z</time></trkpt><trkpt lat="42.78834288601432" lon="11.85428285026117"><ele>389.66666666666663</ele><time>2026-04-22T08:43:03Z</time></trkpt><trkpt lat="42.78848040621806" lon="11.854398752207414"><ele>389.3333333333333</ele><time>2026-04-22T08:43:04Z</time></trkpt><trkpt lat="42.788615780565316" lon="11.854530686969763"><ele>389.0</ele><time>2026-04-22T08:43:05Z</time></trkpt><trkpt lat="42.788739138109655" lon="11.854647130432955"><ele>389.0</ele><time>2026-04-22T08:43:06Z</time></trkpt><trkpt lat="42.78885442569521" lon="11.85473859805728"><ele>389.0</ele><time>2026-04-22T08:43:07Z</time></trkpt><trkpt lat="42.788965586227974" lon="11.854797717160718"><ele>389.0</ele><time>2026-04-22T08:43:08Z</time></trkpt><trkpt lat="42.78908248940434" lon="11.854828374914526"><ele>389.0</ele><time>2026-04-22T08:43:09Z</time></trkpt><trkpt lat="42.78920782249183" lon="11.854837136024011"><ele>388.3333333333333</ele><time>2026-04-22T08:43:10Z</time></trkpt><trkpt lat="42.78934504405889" lon="11.85479282820898"><ele>387.66666666666663</ele><time>2026-04-22T08:43:11Z</time></trkpt><trkpt lat="42.78949276224247" lon="11.854729922636558"><ele>387.0</ele><time>2026-04-22T08:43:12Z</time></trkpt><trkpt lat="42.78965194668727" lon="11.854690765144193"><ele>387.0</ele><time>2026-04-22T08:43:13Z</time></trkpt><trkpt lat="42.78981180830226" lon="11.854633490548519"><ele>387.0</ele><time>2026-04-22T08:43:14Z</time></trkpt><trkpt lat="42.78996663972754" lon="11.854596018928687"><ele>387.0</ele><time>2026-04-22T08:43:15Z</time></trkpt><trkpt lat="42.79013003576903" lon="11.8545899084341"><ele>388.33333333333337</ele><time>2026-04-22T08:43:16Z</time></trkpt><trkpt lat="42.790300781792844" lon="11.854607696344925"><ele>389.6666666666667</ele><time>2026-04-22T08:43:17Z</time></trkpt><trkpt lat="42.79047538205928" lon="11.854636464048276"><ele>391.0</ele><time>2026-04-22T08:43:18Z</time></trkpt><trkpt lat="42.79064345080701" lon="11.854667234338915"><ele>391.0</ele><time>2026-04-22T08:43:19Z</time></trkpt><trkpt lat="42.79081730141421" lon="11.85467841012552"><ele>391.0</ele><time>2026-04-22T08:43:20Z</time></trkpt><trkpt lat="42.79097355275705" lon="11.854711560257135"><ele>391.0</ele><time>2026-04-22T08:43:21Z</time></trkpt><trkpt lat="42.79111777690822" lon="11.854765571226121"><ele>396.0</ele><time>2026-04-22T08:43:22Z</time></trkpt><trkpt lat="42.791253865373925" lon="11.854855534920434"><ele>401.0</ele><time>2026-04-22T08:43:23Z</time></trkpt><trkpt lat="42.791360070195154" lon="11.855006335938102"><ele>406.0</ele><time>2026-04-22T08:43:24Z</time></trkpt><trkpt lat="42.79149415936548" lon="11.855097189605496"><ele>408.5</ele><time>2026-04-22T08:43:25Z</time></trkpt><trkpt lat="42.791621645761595" lon="11.855155255779078"><ele>411.0</ele><time>2026-04-22T08:43:26Z</time></trkpt><trkpt lat="42.79173378004718" lon="11.855228775146715"><ele>413.5</ele><time>2026-04-22T08:43:26.999Z</time></trkpt><trkpt lat="42.79183240571274" lon="11.855350063508096"><ele>416.0</ele><time>2026-04-22T08:43:27.999Z</time></trkpt><trkpt lat="42.791925767704136" lon="11.855512416391083"><ele>416.0</ele><time>2026-04-22T08:43:28.999Z</time></trkpt><trkpt lat="42.79200707820688" lon="11.855686097847183"><ele>416.0</ele><time>2026-04-22T08:43:29.999Z</time></trkpt><trkpt lat="42.792092535097645" lon="11.855880348500222"><ele>416.0</ele><time>2026-04-22T08:43:30.999Z</time></trkpt><trkpt lat="42.792169911773804" lon="11.856065505438163"><ele>413.4</ele><time>2026-04-22T08:43:31.999Z</time></trkpt><trkpt lat="42.792234161405254" lon="11.856230714890597"><ele>410.8</ele><time>2026-04-22T08:43:32.999Z</time></trkpt><trkpt lat="42.792291216380214" lon="11.85634918770707"><ele>408.2</ele><time>2026-04-22T08:43:33.999Z</time></trkpt><trkpt lat="42.792354615681326" lon="11.856407482277302"><ele>405.59999999999997</ele><time>2026-04-22T08:43:34.999Z</time></trkpt><trkpt lat="42.79242760411979" lon="11.856415393709952"><ele>403.0</ele><time>2026-04-22T08:43:35.999Z</time></trkpt><trkpt lat="42.79249721040525" lon="11.856377234107136"><ele>403.0</ele><time>2026-04-22T08:43:36.999Z</time></trkpt><trkpt lat="42.792549279558074" lon="11.856296685657407"><ele>403.0</ele><time>2026-04-22T08:43:37.999Z</time></trkpt><trkpt lat="42.79257677076574" lon="11.856181609511461"><ele>403.0</ele><time>2026-04-22T08:43:38.999Z</time></trkpt><trkpt lat="42.79256935157545" lon="11.856050551828552"><ele>403.0</ele><time>2026-04-22T08:43:39.999Z</time></trkpt><trkpt lat="42.792530290497254" lon="11.855891811792697"><ele>403.0</ele><time>2026-04-22T08:43:40.999Z</time></trkpt><trkpt lat="42.792484689077995" lon="11.855711459373694"><ele>406.25</ele><time>2026-04-22T08:43:41.999Z</time></trkpt><trkpt lat="42.79246535632118" lon="11.855503049456427"><ele>409.5</ele><time>2026-04-22T08:43:42.999Z</time></trkpt><trkpt lat="42.79241200770368" lon="11.855313737417436"><ele>412.75</ele><time>2026-04-22T08:43:43.999Z</time></trkpt><trkpt lat="42.79235340048839" lon="11.85513699385299"><ele>416.0</ele><time>2026-04-22T08:43:44.999Z</time></trkpt><trkpt lat="42.7922610743179" lon="11.854982894622658"><ele>413.5</ele><time>2026-04-22T08:43:45.999Z</time></trkpt><trkpt lat="42.7921545099022" lon="11.85487343625064"><ele>411.0</ele><time>2026-04-22T08:43:46.999Z</time></trkpt><trkpt lat="42.792042467315525" lon="11.85481741669332"><ele>408.5</ele><time>2026-04-22T08:43:47.999Z</time></trkpt><trkpt lat="42.79192305027269" lon="11.85478916699834"><ele>406.0</ele><time>2026-04-22T08:43:48.999Z</time></trkpt><trkpt lat="42.791811989535574" lon="11.854732110758803"><ele>406.0</ele><time>2026-04-22T08:43:49.999Z</time></trkpt><trkpt lat="42.791740607917966" lon="11.85466667932257"><ele>406.0</ele><time>2026-04-22T08:43:50.999Z</time></trkpt><trkpt lat="42.79168239153753" lon="11.854561202029496"><ele>406.0</ele><time>2026-04-22T08:43:52Z</time></trkpt><trkpt lat="42.79161919481495" lon="11.854424708957405"><ele>406.0</ele><time>2026-04-22T08:43:53Z</time></trkpt><trkpt lat="42.79154311141826" lon="11.854284246962763"><ele>406.0</ele><time>2026-04-22T08:43:54Z</time></trkpt><trkpt lat="42.791474179482876" lon="11.854125792546474"><ele>408.75</ele><time>2026-04-22T08:43:55Z</time></trkpt><trkpt lat="42.791392881072625" lon="11.853988865026155"><ele>411.5</ele><time>2026-04-22T08:43:56Z</time></trkpt><trkpt lat="42.79128616667561" lon="11.853883409644911"><ele>414.25</ele><time>2026-04-22T08:43:57Z</time></trkpt><trkpt lat="42.791153802453074" lon="11.853816465994212"><ele>417.0</ele><time>2026-04-22T08:43:58Z</time></trkpt><trkpt lat="42.79100466893216" lon="11.853772641657239"><ele>417.0</ele><time>2026-04-22T08:43:59Z</time></trkpt><trkpt lat="42.79085543913759" lon="11.853725910493838"><ele>417.0</ele><time>2026-04-22T08:44:00Z</time></trkpt><trkpt lat="42.79069899656121" lon="11.853677498442046"><ele>417.0</ele><time>2026-04-22T08:44:01Z</time></trkpt><trkpt lat="42.79054071064014" lon="11.853628582848303"><ele>417.0</ele><time>2026-04-22T08:44:02Z</time></trkpt><trkpt lat="42.79038012767054" lon="11.853578799164897"><ele>417.0</ele><time>2026-04-22T08:44:03Z</time></trkpt><trkpt lat="42.79021580918393" lon="11.853527578816243"><ele>417.0</ele><time>2026-04-22T08:44:04Z</time></trkpt><trkpt lat="42.79005047232155" lon="11.853474964698325"><ele>426.66666666666663</ele><time>2026-04-22T08:44:05Z</time></trkpt><trkpt lat="42.789879489696794" lon="11.85342124125533"><ele>436.3333333333333</ele><time>2026-04-22T08:44:06Z</time></trkpt><trkpt lat="42.789706447819135" lon="11.853360568706005"><ele>446.0</ele><time>2026-04-22T08:44:07Z</time></trkpt><trkpt lat="42.78954783067054" lon="11.853298091751038"><ele>446.0</ele><time>2026-04-22T08:44:08Z</time></trkpt><trkpt lat="42.789411293385164" lon="11.853227027660916"><ele>446.0</ele><time>2026-04-22T08:44:09Z</time></trkpt><trkpt lat="42.789299463904726" lon="11.853135595642627"><ele>446.0</ele><time>2026-04-22T08:44:10Z</time></trkpt><trkpt lat="42.78922910456534" lon="11.8529889493905"><ele>446.0</ele><time>2026-04-22T08:44:11Z</time></trkpt><trkpt lat="42.78915410803172" lon="11.85283642005555"><ele>447.66666666666663</ele><time>2026-04-22T08:44:12Z</time></trkpt><trkpt lat="42.789063493356" lon="11.852681027198745"><ele>449.33333333333337</ele><time>2026-04-22T08:44:13Z</time></trkpt><trkpt lat="42.78897525961993" lon="11.852507269572675"><ele>451.0</ele><time>2026-04-22T08:44:14Z</time></trkpt><trkpt lat="42.78885599406217" lon="11.852359573088721"><ele>451.0</ele><time>2026-04-22T08:44:15Z</time></trkpt><trkpt lat="42.7887151022747" lon="11.852244246396841"><ele>451.0</ele><time>2026-04-22T08:44:16Z</time></trkpt><trkpt lat="42.788570316417896" lon="11.852152269371066"><ele>451.0</ele><time>2026-04-22T08:44:17Z</time></trkpt><trkpt lat="42.788407116646454" lon="11.852078184775202"><ele>446.6666666666667</ele><time>2026-04-22T08:44:18Z</time></trkpt><trkpt lat="42.78823169004266" lon="11.852031679882167"><ele>442.33333333333337</ele><time>2026-04-22T08:44:19Z</time></trkpt><trkpt lat="42.78807236928416" lon="11.851997656728418"><ele>438.0</ele><time>2026-04-22T08:44:20Z</time></trkpt><trkpt lat="42.787945317715035" lon="11.851967037861277"><ele>438.0</ele><time>2026-04-22T08:44:21Z</time></trkpt><trkpt lat="42.78784845251349" lon="11.851934323713339"><ele>437.99999999999994</ele><time>2026-04-22T08:44:22Z</time></trkpt><trkpt lat="42.78777202580644" lon="11.851858132691897"><ele>437.99999999999994</ele><time>2026-04-22T08:44:23Z</time></trkpt><trkpt lat="42.787706375855066" lon="11.851777393003358"><ele>438.0</ele><time>2026-04-22T08:44:24Z</time></trkpt><trkpt lat="42.78767809275587" lon="11.851657466501829"><ele>438.0</ele><time>2026-04-22T08:44:25Z</time></trkpt><trkpt lat="42.7876705878367" lon="11.851536068794562"><ele>441.4</ele><time>2026-04-22T08:44:26Z</time></trkpt><trkpt lat="42.78772310392424" lon="11.85142927568168"><ele>444.79999999999995</ele><time>2026-04-22T08:44:27Z</time></trkpt><trkpt lat="42.78780788253724" lon="11.851365186742258"><ele>448.2</ele><time>2026-04-22T08:44:28Z</time></trkpt><trkpt lat="42.787913637842685" lon="11.851379806716798"><ele>451.6</ele><time>2026-04-22T08:44:29Z</time></trkpt><trkpt lat="42.788021199704296" lon="11.851388125386828"><ele>455.0</ele><time>2026-04-22T08:44:30Z</time></trkpt><trkpt lat="42.7881483425393" lon="11.851392349783994"><ele>455.0</ele><time>2026-04-22T08:44:31Z</time></trkpt><trkpt lat="42.78828043660098" lon="11.851432039421002"><ele>455.0</ele><time>2026-04-22T08:44:32Z</time></trkpt><trkpt lat="42.78841519300715" lon="11.851489217139534"><ele>455.0</ele><time>2026-04-22T08:44:33Z</time></trkpt><trkpt lat="42.78856579284917" lon="11.851559317052521"><ele>455.0</ele><time>2026-04-22T08:44:34Z</time></trkpt><trkpt lat="42.78872008010245" lon="11.851626583351928"><ele>455.66666666666663</ele><time>2026-04-22T08:44:35Z</time></trkpt><trkpt lat="42.78888108246035" lon="11.851694807504021"><ele>456.33333333333337</ele><time>2026-04-22T08:44:36Z</time></trkpt><trkpt lat="42.78903835010365" lon="11.851774852998162"><ele>457.0</ele><time>2026-04-22T08:44:37Z</time></trkpt><trkpt lat="42.7891982754098" lon="11.851883446495034"><ele>459.0</ele><time>2026-04-22T08:44:38Z</time></trkpt><trkpt lat="42.78934844648205" lon="11.852008033376647"><ele>461.0</ele><time>2026-04-22T08:44:39Z</time></trkpt><trkpt lat="42.78948635206627" lon="11.852127679406705"><ele>463.0</ele><time>2026-04-22T08:44:40Z</time></trkpt><trkpt lat="42.789618720916124" lon="11.852231402739584"><ele>463.0</ele><time>2026-04-22T08:44:41Z</time></trkpt><trkpt lat="42.789757969112664" lon="11.852303204197401"><ele>463.0</ele><time>2026-04-22T08:44:42Z</time></trkpt><trkpt lat="42.78991192303984" lon="11.85234068708115"><ele>463.0</ele><time>2026-04-22T08:44:43Z</time></trkpt><trkpt lat="42.79007205690599" lon="11.852344577571735"><ele>464.0</ele><time>2026-04-22T08:44:44Z</time></trkpt><trkpt lat="42.790235788095316" lon="11.852320431314729"><ele>465.0</ele><time>2026-04-22T08:44:45Z</time></trkpt><trkpt lat="42.79039813338212" lon="11.852268379275978"><ele>466.0</ele><time>2026-04-22T08:44:46Z</time></trkpt><trkpt lat="42.79055391000893" lon="11.85218668326956"><ele>466.0</ele><time>2026-04-22T08:44:47Z</time></trkpt><trkpt lat="42.790715829704936" lon="11.852098096460411"><ele>466.0</ele><time>2026-04-22T08:44:48Z</time></trkpt><trkpt lat="42.790875596783074" lon="11.85202603884627"><ele>466.0</ele><time>2026-04-22T08:44:49Z</time></trkpt><trkpt lat="42.791039395787934" lon="11.851966022986886"><ele>467.6666666666667</ele><time>2026-04-22T08:44:50Z</time></trkpt><trkpt lat="42.791205879518564" lon="11.851916753138234"><ele>469.33333333333337</ele><time>2026-04-22T08:44:51Z</time></trkpt><trkpt lat="42.791377834380945" lon="11.851879997789936"><ele>471.0</ele><time>2026-04-22T08:44:52Z</time></trkpt><trkpt lat="42.79155284133995" lon="11.851845530735709"><ele>471.0</ele><time>2026-04-22T08:44:53Z</time></trkpt><trkpt lat="42.791727463412" lon="11.851812113778564"><ele>471.0</ele><time>2026-04-22T08:44:54Z</time></trkpt><trkpt lat="42.79190516790573" lon="11.851786128677563"><ele>471.0</ele><time>2026-04-22T08:44:55Z</time></trkpt><trkpt lat="42.792077612084086" lon="11.851764314824617"><ele>475.66666666666663</ele><time>2026-04-22T08:44:56Z</time></trkpt><trkpt lat="42.79223805706796" lon="11.851755428700631"><ele>480.3333333333333</ele><time>2026-04-22T08:44:57Z</time></trkpt><trkpt lat="42.7923872000865" lon="11.851772051770402"><ele>485.0</ele><time>2026-04-22T08:44:58Z</time></trkpt><trkpt lat="42.792525743065234" lon="11.851838379232808"><ele>490.0</ele><time>2026-04-22T08:44:59Z</time></trkpt><trkpt lat="42.79267554764738" lon="11.851881543089593"><ele>495.0</ele><time>2026-04-22T08:45:00Z</time></trkpt><trkpt lat="42.792826406904396" lon="11.85195004654407"><ele>500.0</ele><time>2026-04-22T08:45:01Z</time></trkpt><trkpt lat="42.792976091407425" lon="11.852014284721621"><ele>500.0</ele><time>2026-04-22T08:45:02Z</time></trkpt><trkpt lat="42.79312700419715" lon="11.852080941858292"><ele>500.0</ele><time>2026-04-22T08:45:03Z</time></trkpt><trkpt lat="42.79327120444042" lon="11.852129001117634"><ele>500.0</ele><time>2026-04-22T08:45:04Z</time></trkpt><trkpt lat="42.79340064653033" lon="11.852142112005794"><ele>500.0</ele><time>2026-04-22T08:45:05Z</time></trkpt><trkpt lat="42.793512003722604" lon="11.852109700168253"><ele>501.0</ele><time>2026-04-22T08:45:06Z</time></trkpt><trkpt lat="42.79361027143543" lon="11.852022545551037"><ele>502.0</ele><time>2026-04-22T08:45:07Z</time></trkpt><trkpt lat="42.79369376058012" lon="11.851896868853983"><ele>503.0</ele><time>2026-04-22T08:45:08Z</time></trkpt><trkpt lat="42.79376018448513" lon="11.851730744526371"><ele>504.0</ele><time>2026-04-22T08:45:09Z</time></trkpt><trkpt lat="42.793805219402905" lon="11.851567321400298"><ele>504.0</ele><time>2026-04-22T08:45:10Z</time></trkpt><trkpt lat="42.79385079276517" lon="11.851443446080529"><ele>504.0</ele><time>2026-04-22T08:45:11Z</time></trkpt><trkpt lat="42.79391519527345" lon="11.851378842549634"><ele>504.0</ele><time>2026-04-22T08:45:12Z</time></trkpt><trkpt lat="42.79399643656171" lon="11.851369087754637"><ele>504.0</ele><time>2026-04-22T08:45:13Z</time></trkpt><trkpt lat="42.79406917327174" lon="11.85143323932674"><ele>504.0</ele><time>2026-04-22T08:45:14Z</time></trkpt><trkpt lat="42.794135091515905" lon="11.851504703412237"><ele>504.0</ele><time>2026-04-22T08:45:15Z</time></trkpt><trkpt lat="42.79419057236633" lon="11.851635373151776"><ele>504.0</ele><time>2026-04-22T08:45:16Z</time></trkpt><trkpt lat="42.79427632286512" lon="11.851770438399106"><ele>504.0</ele><time>2026-04-22T08:45:17Z</time></trkpt><trkpt lat="42.79434900156291" lon="11.85192060079754"><ele>504.0</ele><time>2026-04-22T08:45:18Z</time></trkpt><trkpt lat="42.79444410270444" lon="11.852064003801853"><ele>504.0</ele><time>2026-04-22T08:45:19Z</time></trkpt><trkpt lat="42.7945569521476" lon="11.852189331049955"><ele>508.33333333333337</ele><time>2026-04-22T08:45:20Z</time></trkpt><trkpt lat="42.79469796906019" lon="11.852282300760344"><ele>512.6666666666667</ele><time>2026-04-22T08:45:21Z</time></trkpt><trkpt lat="42.794858878586226" lon="11.852355738565471"><ele>517.0</ele><time>2026-04-22T08:45:22Z</time></trkpt><trkpt lat="42.79502078944791" lon="11.852415225456054"><ele>519.0</ele><time>2026-04-22T08:45:23Z</time></trkpt><trkpt lat="42.79519256483804" lon="11.852489357246906"><ele>521.0</ele><time>2026-04-22T08:45:24Z</time></trkpt><trkpt lat="42.795365202983014" lon="11.852578160606914"><ele>523.0</ele><time>2026-04-22T08:45:25Z</time></trkpt><trkpt lat="42.795542516401035" lon="11.852674871965844"><ele>523.0</ele><time>2026-04-22T08:45:26Z</time></trkpt><trkpt lat="42.79572428288989" lon="11.852770850657695"><ele>523.0</ele><time>2026-04-22T08:45:27Z</time></trkpt><trkpt lat="42.795911059114765" lon="11.852868316586608"><ele>523.0</ele><time>2026-04-22T08:45:28Z</time></trkpt><trkpt lat="42.79609628369696" lon="11.852963847229237"><ele>520.3333333333334</ele><time>2026-04-22T08:45:29Z</time></trkpt><trkpt lat="42.796286096791306" lon="11.853071112725196"><ele>517.6666666666666</ele><time>2026-04-22T08:45:30Z</time></trkpt><trkpt lat="42.79647618672102" lon="11.853180101524716"><ele>515.0</ele><time>2026-04-22T08:45:31Z</time></trkpt><trkpt lat="42.796672413028865" lon="11.853279915559973"><ele>514.3333333333333</ele><time>2026-04-22T08:45:32Z</time></trkpt><trkpt lat="42.7968557206525" lon="11.853379287948801"><ele>513.6666666666666</ele><time>2026-04-22T08:45:33Z</time></trkpt><trkpt lat="42.79704035191973" lon="11.853484019218087"><ele>513.0</ele><time>2026-04-22T08:45:34Z</time></trkpt><trkpt lat="42.797225087030384" lon="11.853589338862212"><ele>516.3333333333334</ele><time>2026-04-22T08:45:35Z</time></trkpt><trkpt lat="42.797405289386795" lon="11.853689440821336"><ele>519.6666666666667</ele><time>2026-04-22T08:45:36Z</time></trkpt><trkpt lat="42.797584972268396" lon="11.853797106497787"><ele>523.0</ele><time>2026-04-22T08:45:37Z</time></trkpt><trkpt lat="42.7977575294227" lon="11.853911186912812"><ele>523.0</ele><time>2026-04-22T08:45:38Z</time></trkpt><trkpt lat="42.79792153364087" lon="11.85401822650914"><ele>523.0</ele><time>2026-04-22T08:45:39Z</time></trkpt><trkpt lat="42.798067893204056" lon="11.854113628804976"><ele>523.0</ele><time>2026-04-22T08:45:40Z</time></trkpt><trkpt lat="42.79818783404415" lon="11.854187325289283"><ele>523.0</ele><time>2026-04-22T08:45:41Z</time></trkpt><trkpt lat="42.79830574779699" lon="11.85423358355574"><ele>523.0</ele><time>2026-04-22T08:45:42Z</time></trkpt><trkpt lat="42.79841442847376" lon="11.854234416920281"><ele>523.0</ele><time>2026-04-22T08:45:43Z</time></trkpt><trkpt lat="42.79851345181127" lon="11.854180223410504"><ele>523.0</ele><time>2026-04-22T08:45:44Z</time></trkpt><trkpt lat="42.79861602120581" lon="11.854083554784488"><ele>521.5</ele><time>2026-04-22T08:45:45Z</time></trkpt><trkpt lat="42.79870790214487" lon="11.85394315298567"><ele>520.0</ele><time>2026-04-22T08:45:46Z</time></trkpt><trkpt lat="42.79877846533661" lon="11.853777102658514"><ele>518.5</ele><time>2026-04-22T08:45:47Z</time></trkpt><trkpt lat="42.7988249727792" lon="11.853581624177533"><ele>517.0</ele><time>2026-04-22T08:45:48Z</time></trkpt><trkpt lat="42.79885620244986" lon="11.853363754882093"><ele>517.0</ele><time>2026-04-22T08:45:48.999Z</time></trkpt><trkpt lat="42.79887844054023" lon="11.853135110763674"><ele>517.0</ele><time>2026-04-22T08:45:49.999Z</time></trkpt><trkpt lat="42.798906076356" lon="11.852903765042603"><ele>517.0</ele><time>2026-04-22T08:45:50.999Z</time></trkpt><trkpt lat="42.798947733519306" lon="11.852669171636277"><ele>519.0</ele><time>2026-04-22T08:45:51.999Z</time></trkpt><trkpt lat="42.79898694873827" lon="11.852430651784315"><ele>521.0</ele><time>2026-04-22T08:45:52.999Z</time></trkpt><trkpt lat="42.799025556873325" lon="11.852181616734324"><ele>523.0</ele><time>2026-04-22T08:45:53.999Z</time></trkpt><trkpt lat="42.79903828133899" lon="11.851952584301078"><ele>525.3333333333334</ele><time>2026-04-22T08:45:54.999Z</time></trkpt><trkpt lat="42.79903370618396" lon="11.851721502195396"><ele>527.6666666666666</ele><time>2026-04-22T08:45:55.999Z</time></trkpt><trkpt lat="42.799028813230244" lon="11.85149313450288"><ele>530.0</ele><time>2026-04-22T08:45:56.999Z</time></trkpt><trkpt lat="42.79903904828423" lon="11.851305679274521"><ele>530.0</ele><time>2026-04-22T08:45:58Z</time></trkpt><trkpt lat="42.799076747488726" lon="11.851154892934993"><ele>530.0</ele><time>2026-04-22T08:45:59Z</time></trkpt><trkpt lat="42.799159301222915" lon="11.851066278711805"><ele>530.0</ele><time>2026-04-22T08:46:00Z</time></trkpt><trkpt lat="42.799252972618845" lon="11.85097947816964"><ele>530.0</ele><time>2026-04-22T08:46:01Z</time></trkpt><trkpt lat="42.799351624052676" lon="11.85086631537872"><ele>531.0</ele><time>2026-04-22T08:46:02Z</time></trkpt><trkpt lat="42.79945626359765" lon="11.850757628508465"><ele>532.0</ele><time>2026-04-22T08:46:03Z</time></trkpt><trkpt lat="42.799543495195344" lon="11.85061286376828"><ele>533.0</ele><time>2026-04-22T08:46:04Z</time></trkpt><trkpt lat="42.799622873063676" lon="11.850431102731612"><ele>534.0</ele><time>2026-04-22T08:46:05Z</time></trkpt><trkpt lat="42.79970871892309" lon="11.850239194376256"><ele>537.5</ele><time>2026-04-22T08:46:06Z</time></trkpt><trkpt lat="42.79978889304239" lon="11.850058092707156"><ele>541.0</ele><time>2026-04-22T08:46:07Z</time></trkpt><trkpt lat="42.799868936744055" lon="11.849906111545183"><ele>544.5</ele><time>2026-04-22T08:46:08Z</time></trkpt><trkpt lat="42.79996365226386" lon="11.849818635743729"><ele>548.0</ele><time>2026-04-22T08:46:09Z</time></trkpt><trkpt lat="42.800068189014475" lon="11.849765925807109"><ele>547.75</ele><time>2026-04-22T08:46:10Z</time></trkpt><trkpt lat="42.800181476875835" lon="11.849753672474897"><ele>547.5</ele><time>2026-04-22T08:46:11Z</time></trkpt><trkpt lat="42.80030863976481" lon="11.849758284881295"><ele>547.25</ele><time>2026-04-22T08:46:12Z</time></trkpt><trkpt lat="42.800451401423985" lon="11.849755351531972"><ele>547.0</ele><time>2026-04-22T08:46:13Z</time></trkpt><trkpt lat="42.800594632422474" lon="11.849721092006913"><ele>547.0</ele><time>2026-04-22T08:46:14Z</time></trkpt><trkpt lat="42.80072883023228" lon="11.849635478018097"><ele>547.0</ele><time>2026-04-22T08:46:15Z</time></trkpt><trkpt lat="42.80085151261046" lon="11.849507117036202"><ele>547.0</ele><time>2026-04-22T08:46:16Z</time></trkpt><trkpt lat="42.80096673546545" lon="11.849381217733805"><ele>551.25</ele><time>2026-04-22T08:46:17Z</time></trkpt><trkpt lat="42.80108546787231" lon="11.849260431411672"><ele>555.5</ele><time>2026-04-22T08:46:18Z</time></trkpt><trkpt lat="42.80120276717942" lon="11.84916002193049"><ele>559.75</ele><time>2026-04-22T08:46:19Z</time></trkpt><trkpt lat="42.801318170926876" lon="11.849094351777255"><ele>564.0</ele><time>2026-04-22T08:46:20Z</time></trkpt><trkpt lat="42.80143596441067" lon="11.84906467981835"><ele>564.0</ele><time>2026-04-22T08:46:21Z</time></trkpt><trkpt lat="42.801567587459736" lon="11.849061273899562"><ele>564.0</ele><time>2026-04-22T08:46:22Z</time></trkpt><trkpt lat="42.801703252478966" lon="11.84908342564424"><ele>564.0</ele><time>2026-04-22T08:46:23Z</time></trkpt><trkpt lat="42.80184187216994" lon="11.849120527893074"><ele>564.0</ele><time>2026-04-22T08:46:24Z</time></trkpt><trkpt lat="42.802130179132824" lon="11.84924239982208"><ele>563.5</ele><time>2026-04-22T08:46:26Z</time></trkpt><trkpt lat="42.80225973728129" lon="11.849330992681336"><ele>563.0</ele><time>2026-04-22T08:46:27Z</time></trkpt><trkpt lat="42.80237766154677" lon="11.849448378073259"><ele>562.5</ele><time>2026-04-22T08:46:28Z</time></trkpt><trkpt lat="42.80248468298987" lon="11.849593455018733"><ele>562.0</ele><time>2026-04-22T08:46:29Z</time></trkpt><trkpt lat="42.80258194062876" lon="11.84976236075315"><ele>562.3333333333334</ele><time>2026-04-22T08:46:30Z</time></trkpt><trkpt lat="42.80268482298642" lon="11.849931975263031"><ele>562.6666666666666</ele><time>2026-04-22T08:46:31Z</time></trkpt><trkpt lat="42.80279581035475" lon="11.850110269837026"><ele>563.0</ele><time>2026-04-22T08:46:32Z</time></trkpt><trkpt lat="42.80289332425714" lon="11.850277544873396"><ele>563.0</ele><time>2026-04-22T08:46:33Z</time></trkpt><trkpt lat="42.8029779971195" lon="11.850434847060846"><ele>563.0</ele><time>2026-04-22T08:46:34Z</time></trkpt><trkpt lat="42.80305278548181" lon="11.850566586181595"><ele>563.0</ele><time>2026-04-22T08:46:35Z</time></trkpt><trkpt lat="42.80313639354992" lon="11.850652230525396"><ele>563.0</ele><time>2026-04-22T08:46:36Z</time></trkpt><trkpt lat="42.803233628364495" lon="11.850692809470939"><ele>563.0</ele><time>2026-04-22T08:46:37Z</time></trkpt><trkpt lat="42.803346068903586" lon="11.850680329399522"><ele>563.0</ele><time>2026-04-22T08:46:38Z</time></trkpt><trkpt lat="42.803471719953436" lon="11.850635871329128"><ele>563.0</ele><time>2026-04-22T08:46:39Z</time></trkpt><trkpt lat="42.803609186824175" lon="11.850562728452607"><ele>563.0</ele><time>2026-04-22T08:46:40Z</time></trkpt><trkpt lat="42.803749294828044" lon="11.850490001791231"><ele>563.5</ele><time>2026-04-22T08:46:41Z</time></trkpt><trkpt lat="42.8038834948519" lon="11.8504784636223"><ele>564.0</ele><time>2026-04-22T08:46:42Z</time></trkpt><trkpt lat="42.8040232644489" lon="11.850481787751752"><ele>564.5</ele><time>2026-04-22T08:46:43Z</time></trkpt><trkpt lat="42.80416551191294" lon="11.850538783688027"><ele>565.0</ele><time>2026-04-22T08:46:44Z</time></trkpt><trkpt lat="42.80430570131455" lon="11.85060847129606"><ele>568.0</ele><time>2026-04-22T08:46:45Z</time></trkpt><trkpt lat="42.804468030042464" lon="11.850674377597912"><ele>571.0</ele><time>2026-04-22T08:46:46Z</time></trkpt><trkpt lat="42.804635217373416" lon="11.850745030442006"><ele>574.0</ele><time>2026-04-22T08:46:47Z</time></trkpt><trkpt lat="42.80480953586349" lon="11.850818557382219"><ele>574.0</ele><time>2026-04-22T08:46:48Z</time></trkpt><trkpt lat="42.804989098277105" lon="11.850891989309064"><ele>574.0</ele><time>2026-04-22T08:46:49Z</time></trkpt><trkpt lat="42.80516296561669" lon="11.850966729343742"><ele>574.0</ele><time>2026-04-22T08:46:50Z</time></trkpt><trkpt lat="42.80533773993354" lon="11.851041261107746"><ele>570.6666666666667</ele><time>2026-04-22T08:46:51Z</time></trkpt><trkpt lat="42.80551541351478" lon="11.851113775342458"><ele>567.3333333333334</ele><time>2026-04-22T08:46:52Z</time></trkpt><trkpt lat="42.80568634915575" lon="11.851189780566656"><ele>564.0</ele><time>2026-04-22T08:46:53Z</time></trkpt><trkpt lat="42.80585038285338" lon="11.851267675025095"><ele>569.3333333333334</ele><time>2026-04-22T08:46:54Z</time></trkpt><trkpt lat="42.805998022019494" lon="11.851350677596288"><ele>574.6666666666667</ele><time>2026-04-22T08:46:55Z</time></trkpt><trkpt lat="42.806118255383154" lon="11.851482259917757"><ele>580.0</ele><time>2026-04-22T08:46:56Z</time></trkpt><trkpt lat="42.80624419399202" lon="11.851602994204706"><ele>580.0</ele><time>2026-04-22T08:46:57Z</time></trkpt><trkpt lat="42.80638034432915" lon="11.851709003818657"><ele>580.0</ele><time>2026-04-22T08:46:58Z</time></trkpt><trkpt lat="42.806503557123534" lon="11.851845261020948"><ele>580.0</ele><time>2026-04-22T08:46:59Z</time></trkpt><trkpt lat="42.806655063217164" lon="11.851947650546208"><ele>576.3333333333334</ele><time>2026-04-22T08:47:00Z</time></trkpt><trkpt lat="42.80679578997233" lon="11.852068614110287"><ele>572.6666666666666</ele><time>2026-04-22T08:47:01Z</time></trkpt><trkpt lat="42.8069347201045" lon="11.852200671424601"><ele>569.0</ele><time>2026-04-22T08:47:02Z</time></trkpt><trkpt lat="42.80703155253158" lon="11.85238360620871"><ele>569.0</ele><time>2026-04-22T08:47:03Z</time></trkpt><trkpt lat="42.80712859640988" lon="11.852558980840127"><ele>569.0</ele><time>2026-04-22T08:47:04Z</time></trkpt><trkpt lat="42.80723060350085" lon="11.85274329764841"><ele>569.0</ele><time>2026-04-22T08:47:05Z</time></trkpt><trkpt lat="42.80734124499179" lon="11.852909823349316"><ele>566.6666666666666</ele><time>2026-04-22T08:47:06Z</time></trkpt><trkpt lat="42.80744520825427" lon="11.853063589980254"><ele>564.3333333333334</ele><time>2026-04-22T08:47:07Z</time></trkpt><trkpt lat="42.80757090931387" lon="11.853207704813128"><ele>562.0</ele><time>2026-04-22T08:47:08Z</time></trkpt><trkpt lat="42.80771404907166" lon="11.853330516013797"><ele>562.0</ele><time>2026-04-22T08:47:09Z</time></trkpt><trkpt lat="42.80786737625413" lon="11.853439897668746"><ele>562.0</ele><time>2026-04-22T08:47:10Z</time></trkpt><trkpt lat="42.8080134044058" lon="11.853572697176451"><ele>562.0</ele><time>2026-04-22T08:47:11Z</time></trkpt><trkpt lat="42.808172471249875" lon="11.853689676849415"><ele>563.0</ele><time>2026-04-22T08:47:12Z</time></trkpt><trkpt lat="42.80833388882798" lon="11.853825226122416"><ele>564.0</ele><time>2026-04-22T08:47:13Z</time></trkpt><trkpt lat="42.808493289213885" lon="11.853964400542992"><ele>565.0</ele><time>2026-04-22T08:47:14Z</time></trkpt><trkpt lat="42.80865130978965" lon="11.854104178780027"><ele>565.3333333333334</ele><time>2026-04-22T08:47:15Z</time></trkpt><trkpt lat="42.808815108695974" lon="11.854240356964995"><ele>565.6666666666666</ele><time>2026-04-22T08:47:16Z</time></trkpt><trkpt lat="42.808980425894426" lon="11.854377127487558"><ele>566.0</ele><time>2026-04-22T08:47:17Z</time></trkpt><trkpt lat="42.809147611379764" lon="11.854513392495836"><ele>566.3333333333333</ele><time>2026-04-22T08:47:18Z</time></trkpt><trkpt lat="42.809309147616375" lon="11.854653289451978"><ele>566.6666666666666</ele><time>2026-04-22T08:47:19Z</time></trkpt><trkpt lat="42.80947604433693" lon="11.854801051949213"><ele>567.0</ele><time>2026-04-22T08:47:20Z</time></trkpt><trkpt lat="42.809644367883166" lon="11.854940833231566"><ele>567.0</ele><time>2026-04-22T08:47:21Z</time></trkpt><trkpt lat="42.80981810613003" lon="11.855087012068564"><ele>567.0</ele><time>2026-04-22T08:47:22Z</time></trkpt><trkpt lat="42.8099900107738" lon="11.855231095279713"><ele>567.0</ele><time>2026-04-22T08:47:23Z</time></trkpt><trkpt lat="42.81015813981246" lon="11.85537067594096"><ele>567.6666666666666</ele><time>2026-04-22T08:47:24Z</time></trkpt><trkpt lat="42.81032012646683" lon="11.855504016465357"><ele>568.3333333333333</ele><time>2026-04-22T08:47:25Z</time></trkpt><trkpt lat="42.81046185446352" lon="11.855648081083537"><ele>569.0</ele><time>2026-04-22T08:47:26Z</time></trkpt><trkpt lat="42.81061777697289" lon="11.855751033168772"><ele>569.0</ele><time>2026-04-22T08:47:27Z</time></trkpt><trkpt lat="42.810767671579946" lon="11.85587931458237"><ele>569.0</ele><time>2026-04-22T08:47:28Z</time></trkpt><trkpt lat="42.81091983460411" lon="11.856010791543662"><ele>569.0</ele><time>2026-04-22T08:47:29Z</time></trkpt><trkpt lat="42.811074749900904" lon="11.856154154880157"><ele>566.0</ele><time>2026-04-22T08:47:30Z</time></trkpt><trkpt lat="42.81122717043502" lon="11.856320411998784"><ele>563.0</ele><time>2026-04-22T08:47:31Z</time></trkpt><trkpt lat="42.811369129636624" lon="11.856496174173284"><ele>560.0</ele><time>2026-04-22T08:47:32Z</time></trkpt><trkpt lat="42.811497607615394" lon="11.856665722285827"><ele>559.6666666666666</ele><time>2026-04-22T08:47:33Z</time></trkpt><trkpt lat="42.81162138742623" lon="11.856834233069385"><ele>559.3333333333334</ele><time>2026-04-22T08:47:34Z</time></trkpt><trkpt lat="42.81174437450251" lon="11.856982152101477"><ele>559.0</ele><time>2026-04-22T08:47:35Z</time></trkpt><trkpt lat="42.811876807509" lon="11.857094669522247"><ele>559.0</ele><time>2026-04-22T08:47:36Z</time></trkpt><trkpt lat="42.812018469048006" lon="11.85717305703997"><ele>559.0</ele><time>2026-04-22T08:47:37Z</time></trkpt><trkpt lat="42.81217155115688" lon="11.857244099411693"><ele>559.0</ele><time>2026-04-22T08:47:38Z</time></trkpt><trkpt lat="42.81231297634804" lon="11.857319562994162"><ele>559.0</ele><time>2026-04-22T08:47:39Z</time></trkpt><trkpt lat="42.812441970795874" lon="11.857411477930398"><ele>559.0</ele><time>2026-04-22T08:47:40Z</time></trkpt><trkpt lat="42.81256291548237" lon="11.857529697114082"><ele>559.0</ele><time>2026-04-22T08:47:41Z</time></trkpt><trkpt lat="42.812657121869705" lon="11.857701177027252"><ele>556.6666666666667</ele><time>2026-04-22T08:47:42Z</time></trkpt><trkpt lat="42.81276151712735" lon="11.857875693610062"><ele>554.3333333333334</ele><time>2026-04-22T08:47:43Z</time></trkpt><trkpt lat="42.812854759475236" lon="11.858081318192935"><ele>552.0</ele><time>2026-04-22T08:47:44Z</time></trkpt><trkpt lat="42.8129498189548" lon="11.85831009380911"><ele>552.0</ele><time>2026-04-22T08:47:45Z</time></trkpt><trkpt lat="42.81304781464213" lon="11.85852997820446"><ele>552.0</ele><time>2026-04-22T08:47:46Z</time></trkpt><trkpt lat="42.813151804805784" lon="11.858747078486171"><ele>552.0</ele><time>2026-04-22T08:47:47Z</time></trkpt><trkpt lat="42.81326048999288" lon="11.85897414420717"><ele>552.0</ele><time>2026-04-22T08:47:48Z</time></trkpt><trkpt lat="42.81336916657001" lon="11.859203327272745"><ele>552.0</ele><time>2026-04-22T08:47:49Z</time></trkpt><trkpt lat="42.81347579287483" lon="11.859436686508463"><ele>552.0</ele><time>2026-04-22T08:47:50Z</time></trkpt><trkpt lat="42.81358763975985" lon="11.85966991354008"><ele>552.0</ele><time>2026-04-22T08:47:51Z</time></trkpt><trkpt lat="42.81370310770805" lon="11.85990674838025"><ele>552.0</ele><time>2026-04-22T08:47:52Z</time></trkpt><trkpt lat="42.813819049846785" lon="11.860147290993227"><ele>552.0</ele><time>2026-04-22T08:47:53Z</time></trkpt><trkpt lat="42.81392364727356" lon="11.86037049611792"><ele>552.0</ele><time>2026-04-22T08:47:54Z</time></trkpt><trkpt lat="42.814017133902745" lon="11.860576384885922"><ele>552.0</ele><time>2026-04-22T08:47:55Z</time></trkpt><trkpt lat="42.81410473054732" lon="11.860768362228358"><ele>552.0</ele><time>2026-04-22T08:47:56Z</time></trkpt><trkpt lat="42.81419461065626" lon="11.860954925875028"><ele>554.6666666666666</ele><time>2026-04-22T08:47:57Z</time></trkpt><trkpt lat="42.814286422425006" lon="11.861124946098402"><ele>557.3333333333333</ele><time>2026-04-22T08:47:58Z</time></trkpt><trkpt lat="42.814402103926" lon="11.861283305635569"><ele>560.0</ele><time>2026-04-22T08:47:59Z</time></trkpt><trkpt lat="42.81453744019455" lon="11.86140858272331"><ele>560.0</ele><time>2026-04-22T08:48:00Z</time></trkpt><trkpt lat="42.81469130130043" lon="11.861511566673652"><ele>560.0</ele><time>2026-04-22T08:48:01Z</time></trkpt><trkpt lat="42.81485045802147" lon="11.861602726357535"><ele>560.0</ele><time>2026-04-22T08:48:02Z</time></trkpt><trkpt lat="42.81501106344776" lon="11.861700976706533"><ele>562.6666666666666</ele><time>2026-04-22T08:48:03Z</time></trkpt><trkpt lat="42.815172030820406" lon="11.861811214762037"><ele>565.3333333333334</ele><time>2026-04-22T08:48:04Z</time></trkpt><trkpt lat="42.81532800059193" lon="11.8619218682783"><ele>568.0</ele><time>2026-04-22T08:48:05Z</time></trkpt><trkpt lat="42.8154784457683" lon="11.862042159301945"><ele>568.0</ele><time>2026-04-22T08:48:06Z</time></trkpt><trkpt lat="42.815613795948806" lon="11.86218065199749"><ele>568.0</ele><time>2026-04-22T08:48:07Z</time></trkpt><trkpt lat="42.81574385719276" lon="11.862346289659504"><ele>568.0</ele><time>2026-04-22T08:48:08Z</time></trkpt><trkpt lat="42.81586669138065" lon="11.862519672359495"><ele>569.0</ele><time>2026-04-22T08:48:09Z</time></trkpt><trkpt lat="42.815992164706905" lon="11.862697494351691"><ele>570.0</ele><time>2026-04-22T08:48:10Z</time></trkpt><trkpt lat="42.81611868145102" lon="11.862867736344153"><ele>571.0</ele><time>2026-04-22T08:48:11Z</time></trkpt><trkpt lat="42.81624906088876" lon="11.863044180295544"><ele>571.0</ele><time>2026-04-22T08:48:12Z</time></trkpt><trkpt lat="42.81637891601457" lon="11.863207904590023"><ele>571.0</ele><time>2026-04-22T08:48:13Z</time></trkpt><trkpt lat="42.81651083091029" lon="11.863380672292053"><ele>571.0</ele><time>2026-04-22T08:48:14Z</time></trkpt><trkpt lat="42.81664807606317" lon="11.86355410756777"><ele>571.6666666666667</ele><time>2026-04-22T08:48:15Z</time></trkpt><trkpt lat="42.81678460755875" lon="11.863725249956877"><ele>572.3333333333334</ele><time>2026-04-22T08:48:16Z</time></trkpt><trkpt lat="42.81692356606357" lon="11.863900019675704"><ele>573.0</ele><time>2026-04-22T08:48:17Z</time></trkpt><trkpt lat="42.817064439334075" lon="11.864074364351023"><ele>574.0</ele><time>2026-04-22T08:48:18Z</time></trkpt><trkpt lat="42.817208547725414" lon="11.864248566611959"><ele>575.0</ele><time>2026-04-22T08:48:19Z</time></trkpt><trkpt lat="42.817354479736984" lon="11.864429589935902"><ele>576.0</ele><time>2026-04-22T08:48:20Z</time></trkpt><trkpt lat="42.81749925398355" lon="11.86460834388076"><ele>576.0</ele><time>2026-04-22T08:48:21Z</time></trkpt><trkpt lat="42.81763827966974" lon="11.864793156926432"><ele>576.0</ele><time>2026-04-22T08:48:22Z</time></trkpt><trkpt lat="42.81777142992149" lon="11.864969225741294"><ele>576.0</ele><time>2026-04-22T08:48:23Z</time></trkpt><trkpt lat="42.81790182019975" lon="11.865119877889342"><ele>576.3333333333334</ele><time>2026-04-22T08:48:24Z</time></trkpt><trkpt lat="42.81804118713325" lon="11.865261705914115"><ele>576.6666666666667</ele><time>2026-04-22T08:48:25Z</time></trkpt><trkpt lat="42.81819824544002" lon="11.865362058715114"><ele>577.0</ele><time>2026-04-22T08:48:26Z</time></trkpt><trkpt lat="42.81835101937957" lon="11.86546342362523"><ele>577.0</ele><time>2026-04-22T08:48:27Z</time></trkpt><trkpt lat="42.818480900077724" lon="11.86559302175875"><ele>577.0</ele><time>2026-04-22T08:48:28Z</time></trkpt><trkpt lat="42.81860618352557" lon="11.865757459590938"><ele>577.0</ele><time>2026-04-22T08:48:29Z</time></trkpt><trkpt lat="42.818728881668974" lon="11.865921398942742"><ele>577.5</ele><time>2026-04-22T08:48:30Z</time></trkpt><trkpt lat="42.81886188526458" lon="11.866071994048662"><ele>578.0</ele><time>2026-04-22T08:48:31Z</time></trkpt><trkpt lat="42.81918102185" lon="11.866284092311275"><ele>575.0</ele><time>2026-04-22T08:48:33Z</time></trkpt><trkpt lat="42.81935419800375" lon="11.866384842891836"><ele>572.0</ele><time>2026-04-22T08:48:34Z</time></trkpt><trkpt lat="42.819528561950825" lon="11.866490207237257"><ele>569.0</ele><time>2026-04-22T08:48:35Z</time></trkpt><trkpt lat="42.81969631764569" lon="11.866595784124133"><ele>569.0</ele><time>2026-04-22T08:48:36Z</time></trkpt><trkpt lat="42.81985775627362" lon="11.866708443442187"><ele>569.0</ele><time>2026-04-22T08:48:37Z</time></trkpt><trkpt lat="42.82000393850088" lon="11.866831642547838"><ele>569.0</ele><time>2026-04-22T08:48:38Z</time></trkpt><trkpt lat="42.82012649147508" lon="11.86697746927625"><ele>567.0</ele><time>2026-04-22T08:48:39Z</time></trkpt><trkpt lat="42.8202335565469" lon="11.867152110510416"><ele>565.0</ele><time>2026-04-22T08:48:40Z</time></trkpt><trkpt lat="42.82032687603822" lon="11.867343161403461"><ele>563.0</ele><time>2026-04-22T08:48:41Z</time></trkpt><trkpt lat="42.82037450844588" lon="11.867536497462547"><ele>565.0</ele><time>2026-04-22T08:48:42Z</time></trkpt><trkpt lat="42.820391989993794" lon="11.867717490103052"><ele>567.0</ele><time>2026-04-22T08:48:43Z</time></trkpt><trkpt lat="42.82036254303668" lon="11.867894728493992"><ele>569.0</ele><time>2026-04-22T08:48:44Z</time></trkpt><trkpt lat="42.820337379114136" lon="11.868083227125018"><ele>571.0</ele><time>2026-04-22T08:48:45Z</time></trkpt><trkpt lat="42.820291419267974" lon="11.868273675759172"><ele>573.2</ele><time>2026-04-22T08:48:46Z</time></trkpt><trkpt lat="42.82026452337733" lon="11.868454385366222"><ele>575.4000000000001</ele><time>2026-04-22T08:48:47Z</time></trkpt><trkpt lat="42.82026988133155" lon="11.868601346633046"><ele>577.6</ele><time>2026-04-22T08:48:48Z</time></trkpt><trkpt lat="42.820304237987905" lon="11.868702487968038"><ele>579.8000000000001</ele><time>2026-04-22T08:48:49Z</time></trkpt><trkpt lat="42.820357568427895" lon="11.868769252751859"><ele>582.0</ele><time>2026-04-22T08:48:50Z</time></trkpt><trkpt lat="42.82041797274078" lon="11.868819217124177"><ele>582.0</ele><time>2026-04-22T08:48:51Z</time></trkpt><trkpt lat="42.8205079660988" lon="11.868836455963647"><ele>582.0</ele><time>2026-04-22T08:48:52Z</time></trkpt><trkpt lat="42.82061834762587" lon="11.86882975143844"><ele>582.0</ele><time>2026-04-22T08:48:53Z</time></trkpt><trkpt lat="42.820887914543285" lon="11.868820458619252"><ele>583.0</ele><time>2026-04-22T08:48:55Z</time></trkpt><trkpt lat="42.821041118354835" lon="11.868812368007532"><ele>584.0</ele><time>2026-04-22T08:48:56Z</time></trkpt><trkpt lat="42.8212047150128" lon="11.86879701910017"><ele>585.0</ele><time>2026-04-22T08:48:57Z</time></trkpt><trkpt lat="42.821367459911954" lon="11.868787757168699"><ele>585.0</ele><time>2026-04-22T08:48:58Z</time></trkpt><trkpt lat="42.82150454724131" lon="11.868789388833887"><ele>585.0</ele><time>2026-04-22T08:48:59Z</time></trkpt><trkpt lat="42.82161501530541" lon="11.868819838502212"><ele>585.0</ele><time>2026-04-22T08:49:00Z</time></trkpt><trkpt lat="42.8217116336262" lon="11.868893244488273"><ele>585.0</ele><time>2026-04-22T08:49:01Z</time></trkpt><trkpt lat="42.821784797275804" lon="11.869014205295217"><ele>583.75</ele><time>2026-04-22T08:49:02Z</time></trkpt><trkpt lat="42.82184692401555" lon="11.869164903084068"><ele>582.5</ele><time>2026-04-22T08:49:03Z</time></trkpt><trkpt lat="42.82191570409521" lon="11.869335759305422"><ele>581.25</ele><time>2026-04-22T08:49:04Z</time></trkpt><trkpt lat="42.82199551375369" lon="11.869506636202047"><ele>580.0</ele><time>2026-04-22T08:49:05Z</time></trkpt><trkpt lat="42.82208419970693" lon="11.869668523937456"><ele>583.25</ele><time>2026-04-22T08:49:06Z</time></trkpt><trkpt lat="42.82218260665414" lon="11.869810232791925"><ele>586.5</ele><time>2026-04-22T08:49:07Z</time></trkpt><trkpt lat="42.82228805934924" lon="11.8699438022137"><ele>589.75</ele><time>2026-04-22T08:49:08Z</time></trkpt><trkpt lat="42.822385770269904" lon="11.87007236607871"><ele>593.0</ele><time>2026-04-22T08:49:09Z</time></trkpt><trkpt lat="42.82245521821639" lon="11.870195369452107"><ele>595.0</ele><time>2026-04-22T08:49:10Z</time></trkpt><trkpt lat="42.82249894658484" lon="11.870301253403971"><ele>597.0</ele><time>2026-04-22T08:49:11Z</time></trkpt><trkpt lat="42.82253972314199" lon="11.870400072288644"><ele>599.0</ele><time>2026-04-22T08:49:12Z</time></trkpt><trkpt lat="42.82259267600627" lon="11.870501672915593"><ele>601.0</ele><time>2026-04-22T08:49:13Z</time></trkpt><trkpt lat="42.82266396477368" lon="11.870603301801392"><ele>603.0</ele><time>2026-04-22T08:49:14Z</time></trkpt><trkpt lat="42.82274084383881" lon="11.870712638594847"><ele>599.75</ele><time>2026-04-22T08:49:15Z</time></trkpt><trkpt lat="42.82281563482049" lon="11.87083260646836"><ele>596.5</ele><time>2026-04-22T08:49:16Z</time></trkpt><trkpt lat="42.82288019136552" lon="11.870972298091043"><ele>593.25</ele><time>2026-04-22T08:49:17Z</time></trkpt><trkpt lat="42.82293391951642" lon="11.871131662654992"><ele>590.0</ele><time>2026-04-22T08:49:18Z</time></trkpt><trkpt lat="42.82297972525033" lon="11.871300044492315"><ele>590.0</ele><time>2026-04-22T08:49:19Z</time></trkpt><trkpt lat="42.823021253250886" lon="11.87145357269675"><ele>590.0</ele><time>2026-04-22T08:49:20Z</time></trkpt><trkpt lat="42.82306674570608" lon="11.871606496121275"><ele>590.0</ele><time>2026-04-22T08:49:21Z</time></trkpt><trkpt lat="42.82311251240032" lon="11.87176319243723"><ele>590.0</ele><time>2026-04-22T08:49:22Z</time></trkpt><trkpt lat="42.82317050846794" lon="11.87190342620129"><ele>590.2</ele><time>2026-04-22T08:49:23Z</time></trkpt><trkpt lat="42.82323117237392" lon="11.87202435249797"><ele>590.4</ele><time>2026-04-22T08:49:24Z</time></trkpt><trkpt lat="42.82328818697287" lon="11.872145079599477"><ele>590.6</ele><time>2026-04-22T08:49:25Z</time></trkpt><trkpt lat="42.823330609445435" lon="11.872247403008346"><ele>590.8</ele><time>2026-04-22T08:49:26Z</time></trkpt><trkpt lat="42.82335024256063" lon="11.872346793359387"><ele>591.0</ele><time>2026-04-22T08:49:27Z</time></trkpt><trkpt lat="42.82332152064414" lon="11.872451866889843"><ele>591.0</ele><time>2026-04-22T08:49:28Z</time></trkpt><trkpt lat="42.82326785617509" lon="11.872544832637914"><ele>591.0</ele><time>2026-04-22T08:49:29Z</time></trkpt><trkpt lat="42.82320841803479" lon="11.87265957342932"><ele>591.0</ele><time>2026-04-22T08:49:30Z</time></trkpt><trkpt lat="42.823153894475674" lon="11.87279529983557"><ele>591.0</ele><time>2026-04-22T08:49:31Z</time></trkpt><trkpt lat="42.82308338901288" lon="11.872935725595907"><ele>591.0</ele><time>2026-04-22T08:49:32Z</time></trkpt><trkpt lat="42.82303074765059" lon="11.8730988061569"><ele>589.0</ele><time>2026-04-22T08:49:33Z</time></trkpt><trkpt lat="42.82299889914178" lon="11.873260827867815"><ele>587.0</ele><time>2026-04-22T08:49:34Z</time></trkpt><trkpt lat="42.82298942707683" lon="11.873416803784268"><ele>585.0</ele><time>2026-04-22T08:49:35Z</time></trkpt><trkpt lat="42.82296325645811" lon="11.87355641575946"><ele>583.0</ele><time>2026-04-22T08:49:36Z</time></trkpt><trkpt lat="42.82296658336337" lon="11.8736759368859"><ele>581.0</ele><time>2026-04-22T08:49:37Z</time></trkpt><trkpt lat="42.822980172530926" lon="11.873794592076669"><ele>579.5</ele><time>2026-04-22T08:49:38Z</time></trkpt><trkpt lat="42.82307694148424" lon="11.874003543283543"><ele>578.0</ele><time>2026-04-22T08:49:40Z</time></trkpt><trkpt lat="42.823133511082474" lon="11.874112054540698"><ele>576.5</ele><time>2026-04-22T08:49:41Z</time></trkpt><trkpt lat="42.823195400699746" lon="11.87423830832562"><ele>575.0</ele><time>2026-04-22T08:49:42Z</time></trkpt><trkpt lat="42.823265422796" lon="11.874353796925824"><ele>574.5</ele><time>2026-04-22T08:49:43Z</time></trkpt><trkpt lat="42.82334779043609" lon="11.874461481960347"><ele>574.0</ele><time>2026-04-22T08:49:44Z</time></trkpt><trkpt lat="42.82344485071471" lon="11.874557560358324"><ele>573.5</ele><time>2026-04-22T08:49:45Z</time></trkpt><trkpt lat="42.82355929511163" lon="11.874630620715994"><ele>573.0</ele><time>2026-04-22T08:49:46Z</time></trkpt><trkpt lat="42.823682097507145" lon="11.87469030411303"><ele>573.0</ele><time>2026-04-22T08:49:47Z</time></trkpt><trkpt lat="42.8238070190329" lon="11.874744890325935"><ele>573.0</ele><time>2026-04-22T08:49:48Z</time></trkpt><trkpt lat="42.823928740436585" lon="11.874800903815379"><ele>573.0</ele><time>2026-04-22T08:49:49Z</time></trkpt><trkpt lat="42.824043633577844" lon="11.874861887690026"><ele>573.0</ele><time>2026-04-22T08:49:50Z</time></trkpt><trkpt lat="42.824159017559296" lon="11.874935830231314"><ele>573.0</ele><time>2026-04-22T08:49:51Z</time></trkpt><trkpt lat="42.82427423084756" lon="11.875027525264095"><ele>573.0</ele><time>2026-04-22T08:49:52Z</time></trkpt><trkpt lat="42.82438991586293" lon="11.875126173011243"><ele>573.0</ele><time>2026-04-22T08:49:53Z</time></trkpt><trkpt lat="42.824494272414086" lon="11.875232002487657"><ele>573.0</ele><time>2026-04-22T08:49:54Z</time></trkpt><trkpt lat="42.824620352303825" lon="11.875343256624646"><ele>573.0</ele><time>2026-04-22T08:49:55Z</time></trkpt><trkpt lat="42.824737523291866" lon="11.8754555884428"><ele>573.0</ele><time>2026-04-22T08:49:56Z</time></trkpt><trkpt lat="42.82484516646796" lon="11.875563830963042"><ele>573.0</ele><time>2026-04-22T08:49:57Z</time></trkpt><trkpt lat="42.824939084867644" lon="11.875670846906157"><ele>573.0</ele><time>2026-04-22T08:49:58Z</time></trkpt><trkpt lat="42.8250174024737" lon="11.875792825761158"><ele>573.0</ele><time>2026-04-22T08:49:59Z</time></trkpt><trkpt lat="42.82506769041277" lon="11.875953764257781"><ele>573.0</ele><time>2026-04-22T08:50:00Z</time></trkpt><trkpt lat="42.8250667161431" lon="11.876133011232813"><ele>573.0</ele><time>2026-04-22T08:50:01Z</time></trkpt><trkpt lat="42.82509150209253" lon="11.876318703996162"><ele>573.0</ele><time>2026-04-22T08:50:02Z</time></trkpt><trkpt lat="42.82509895145568" lon="11.876511143987964"><ele>573.0</ele><time>2026-04-22T08:50:03Z</time></trkpt><trkpt lat="42.82511685314079" lon="11.87671030576467"><ele>573.0</ele><time>2026-04-22T08:50:04Z</time></trkpt><trkpt lat="42.82513715225749" lon="11.876913003425475"><ele>573.0</ele><time>2026-04-22T08:50:05Z</time></trkpt><trkpt lat="42.8251480532444" lon="11.877124163340904"><ele>582.3333333333334</ele><time>2026-04-22T08:50:06Z</time></trkpt><trkpt lat="42.82516632780312" lon="11.87733822534193"><ele>591.6666666666667</ele><time>2026-04-22T08:50:07Z</time></trkpt><trkpt lat="42.8251930383162" lon="11.877552705360966"><ele>601.0</ele><time>2026-04-22T08:50:08Z</time></trkpt><trkpt lat="42.82520597402376" lon="11.877769229851822"><ele>602.3333333333334</ele><time>2026-04-22T08:50:09Z</time></trkpt><trkpt lat="42.82520941363375" lon="11.877991956421493"><ele>603.6666666666666</ele><time>2026-04-22T08:50:10.001Z</time></trkpt><trkpt lat="42.825200984107624" lon="11.878217453261229"><ele>605.0</ele><time>2026-04-22T08:50:11.001Z</time></trkpt><trkpt lat="42.825184330011524" lon="11.878441460785114"><ele>606.5</ele><time>2026-04-22T08:50:12.001Z</time></trkpt><trkpt lat="42.82516405524326" lon="11.878647323766515"><ele>608.0</ele><time>2026-04-22T08:50:13.001Z</time></trkpt><trkpt lat="42.825138587772386" lon="11.878816711929025"><ele>609.5</ele><time>2026-04-22T08:50:14.001Z</time></trkpt><trkpt lat="42.825096822483765" lon="11.878968256331675"><ele>611.0</ele><time>2026-04-22T08:50:15.001Z</time></trkpt><trkpt lat="42.82503388664007" lon="11.879110082354948"><ele>610.0</ele><time>2026-04-22T08:50:16.001Z</time></trkpt><trkpt lat="42.824951113171444" lon="11.879233041641811"><ele>609.0</ele><time>2026-04-22T08:50:17.001Z</time></trkpt><trkpt lat="42.824838326869404" lon="11.879311917143742"><ele>608.0</ele><time>2026-04-22T08:50:18.001Z</time></trkpt><trkpt lat="42.82472013594727" lon="11.879368286877215"><ele>607.0</ele><time>2026-04-22T08:50:19.001Z</time></trkpt><trkpt lat="42.824585919749346" lon="11.879402723651731"><ele>607.0</ele><time>2026-04-22T08:50:20.001Z</time></trkpt><trkpt lat="42.82443988445053" lon="11.87939651934811"><ele>607.0</ele><time>2026-04-22T08:50:21.001Z</time></trkpt><trkpt lat="42.824287836403556" lon="11.879362631676436"><ele>607.0</ele><time>2026-04-22T08:50:22.001Z</time></trkpt><trkpt lat="42.824154953085035" lon="11.879339119922754"><ele>607.0</ele><time>2026-04-22T08:50:23.001Z</time></trkpt><trkpt lat="42.824045725374" lon="11.879325909099073"><ele>605.8000000000001</ele><time>2026-04-22T08:50:24.001Z</time></trkpt><trkpt lat="42.823951079814016" lon="11.879324599274732"><ele>604.6</ele><time>2026-04-22T08:50:25.001Z</time></trkpt><trkpt lat="42.82385916691668" lon="11.879272939549214"><ele>603.4000000000001</ele><time>2026-04-22T08:50:26.001Z</time></trkpt><trkpt lat="42.823767829752654" lon="11.879249920733292"><ele>602.2</ele><time>2026-04-22T08:50:27.001Z</time></trkpt><trkpt lat="42.823670569153734" lon="11.879256168795717"><ele>601.0</ele><time>2026-04-22T08:50:28.001Z</time></trkpt><trkpt lat="42.82355667913244" lon="11.879278378429538"><ele>601.25</ele><time>2026-04-22T08:50:29.001Z</time></trkpt><trkpt lat="42.82344219237936" lon="11.879324421295738"><ele>601.5</ele><time>2026-04-22T08:50:30.001Z</time></trkpt><trkpt lat="42.823319766292975" lon="11.879378585524321"><ele>601.75</ele><time>2026-04-22T08:50:31.001Z</time></trkpt><trkpt lat="42.82318991032509" lon="11.879428473392423"><ele>602.0</ele><time>2026-04-22T08:50:32Z</time></trkpt><trkpt lat="42.823053539924054" lon="11.879470537180833"><ele>602.0</ele><time>2026-04-22T08:50:33Z</time></trkpt><trkpt lat="42.82291845221743" lon="11.87952258757555"><ele>602.0</ele><time>2026-04-22T08:50:34Z</time></trkpt><trkpt lat="42.822780820682965" lon="11.87958173677984"><ele>602.0</ele><time>2026-04-22T08:50:34.999Z</time></trkpt><trkpt lat="42.82265413917837" lon="11.879666508273385"><ele>602.0</ele><time>2026-04-22T08:50:35.999Z</time></trkpt><trkpt lat="42.82253698520588" lon="11.87977331636987"><ele>602.0</ele><time>2026-04-22T08:50:36.999Z</time></trkpt><trkpt lat="42.82242637294773" lon="11.87989388544851"><ele>602.0</ele><time>2026-04-22T08:50:37.999Z</time></trkpt><trkpt lat="42.8222969000634" lon="11.879955222233258"><ele>602.0</ele><time>2026-04-22T08:50:38.999Z</time></trkpt><trkpt lat="42.82217868283979" lon="11.880041328357892"><ele>602.0</ele><time>2026-04-22T08:50:39.999Z</time></trkpt><trkpt lat="42.82207366189741" lon="11.880143911765797"><ele>603.25</ele><time>2026-04-22T08:50:40.999Z</time></trkpt><trkpt lat="42.82199155222404" lon="11.880293678023321"><ele>604.5</ele><time>2026-04-22T08:50:41.999Z</time></trkpt><trkpt lat="42.82192622069311" lon="11.880473261649907"><ele>605.75</ele><time>2026-04-22T08:50:42.999Z</time></trkpt><trkpt lat="42.82187485528111" lon="11.88067800832034"><ele>607.0</ele><time>2026-04-22T08:50:43.999Z</time></trkpt><trkpt lat="42.82181243676205" lon="11.880873731600305"><ele>614.3333333333334</ele><time>2026-04-22T08:50:44.999Z</time></trkpt><trkpt lat="42.82172271818229" lon="11.881052229482755"><ele>621.6666666666666</ele><time>2026-04-22T08:50:45.999Z</time></trkpt><trkpt lat="42.82161846414274" lon="11.881209022476625"><ele>629.0</ele><time>2026-04-22T08:50:46.999Z</time></trkpt><trkpt lat="42.82149865571193" lon="11.881327045990778"><ele>629.0</ele><time>2026-04-22T08:50:47.999Z</time></trkpt><trkpt lat="42.82135629089654" lon="11.8814007141491"><ele>629.0</ele><time>2026-04-22T08:50:48.999Z</time></trkpt><trkpt lat="42.821225547854986" lon="11.881510170751666"><ele>629.0</ele><time>2026-04-22T08:50:49.999Z</time></trkpt><trkpt lat="42.821082676056996" lon="11.881607223860993"><ele>627.0</ele><time>2026-04-22T08:50:50.999Z</time></trkpt><trkpt lat="42.82095044594594" lon="11.881724464977506"><ele>625.0</ele><time>2026-04-22T08:50:51.999Z</time></trkpt><trkpt lat="42.820828527464506" lon="11.881864350669671"><ele>623.0</ele><time>2026-04-22T08:50:52.999Z</time></trkpt><trkpt lat="42.82071556473022" lon="11.882018855862658"><ele>623.0</ele><time>2026-04-22T08:50:53.999Z</time></trkpt><trkpt lat="42.8206044178195" lon="11.882176855711931"><ele>623.0</ele><time>2026-04-22T08:50:54.999Z</time></trkpt><trkpt lat="42.8204887665556" lon="11.882334261950799"><ele>623.0</ele><time>2026-04-22T08:50:55.999Z</time></trkpt><trkpt lat="42.82037340609244" lon="11.882491690189362"><ele>621.0</ele><time>2026-04-22T08:50:56.999Z</time></trkpt><trkpt lat="42.82026917756983" lon="11.882637276504228"><ele>619.0</ele><time>2026-04-22T08:50:57.999Z</time></trkpt><trkpt lat="42.820170602572176" lon="11.882768375823549"><ele>617.0</ele><time>2026-04-22T08:50:58.999Z</time></trkpt><trkpt lat="42.820082881592164" lon="11.882884279102807"><ele>615.0</ele><time>2026-04-22T08:50:59.999Z</time></trkpt><trkpt lat="42.82001210068438" lon="11.883010039789509"><ele>615.0</ele><time>2026-04-22T08:51:00.999Z</time></trkpt><trkpt lat="42.819967962830965" lon="11.883160016082863"><ele>615.0</ele><time>2026-04-22T08:51:01.999Z</time></trkpt><trkpt lat="42.81995631566427" lon="11.883334228117738"><ele>615.0</ele><time>2026-04-22T08:51:02.999Z</time></trkpt><trkpt lat="42.81997865172561" lon="11.883528303777394"><ele>615.0</ele><time>2026-04-22T08:51:03.999Z</time></trkpt><trkpt lat="42.82002168043176" lon="11.883717462463103"><ele>616.0</ele><time>2026-04-22T08:51:04.999Z</time></trkpt><trkpt lat="42.82006665700786" lon="11.88391377620148"><ele>617.0</ele><time>2026-04-22T08:51:05.999Z</time></trkpt><trkpt lat="42.82009552107759" lon="11.884115257662291"><ele>618.0</ele><time>2026-04-22T08:51:06.999Z</time></trkpt><trkpt lat="42.820102893651885" lon="11.884310444945937"><ele>619.0</ele><time>2026-04-22T08:51:07.999Z</time></trkpt><trkpt lat="42.82009248107157" lon="11.884514467919693"><ele>620.3333333333334</ele><time>2026-04-22T08:51:08.999Z</time></trkpt><trkpt lat="42.82007546112181" lon="11.884717397321811"><ele>621.6666666666666</ele><time>2026-04-22T08:51:09.999Z</time></trkpt><trkpt lat="42.82005612227257" lon="11.884926175172541"><ele>623.0</ele><time>2026-04-22T08:51:10.999Z</time></trkpt><trkpt lat="42.8200340712907" lon="11.885136571784304"><ele>625.3333333333333</ele><time>2026-04-22T08:51:11.999Z</time></trkpt><trkpt lat="42.8199988242624" lon="11.88535299950248"><ele>627.6666666666666</ele><time>2026-04-22T08:51:12.999Z</time></trkpt><trkpt lat="42.819937000042195" lon="11.885546210138894"><ele>630.0</ele><time>2026-04-22T08:51:13.999Z</time></trkpt><trkpt lat="42.819846654599715" lon="11.885720152122643"><ele>630.0</ele><time>2026-04-22T08:51:14.999Z</time></trkpt><trkpt lat="42.819743067313404" lon="11.88588506424669"><ele>630.0</ele><time>2026-04-22T08:51:15.999Z</time></trkpt><trkpt lat="42.81964147724753" lon="11.886058045075693"><ele>630.0</ele><time>2026-04-22T08:51:16.999Z</time></trkpt><trkpt lat="42.81953336227446" lon="11.886242105178919"><ele>631.0</ele><time>2026-04-22T08:51:17.999Z</time></trkpt><trkpt lat="42.81942866897597" lon="11.886423675517019"><ele>632.0</ele><time>2026-04-22T08:51:18.999Z</time></trkpt><trkpt lat="42.81932154363084" lon="11.886603996976897"><ele>633.0</ele><time>2026-04-22T08:51:19.999Z</time></trkpt><trkpt lat="42.81920863295495" lon="11.886787916172743"><ele>633.0</ele><time>2026-04-22T08:51:20.999Z</time></trkpt><trkpt lat="42.81909202248107" lon="11.886979188468482"><ele>633.0</ele><time>2026-04-22T08:51:21.999Z</time></trkpt><trkpt lat="42.81897663327897" lon="11.887173252603194"><ele>633.0</ele><time>2026-04-22T08:51:22.999Z</time></trkpt><trkpt lat="42.818862240858536" lon="11.887369277031183"><ele>633.0</ele><time>2026-04-22T08:51:23.999Z</time></trkpt><trkpt lat="42.8187404358804" lon="11.887572084080519"><ele>633.0</ele><time>2026-04-22T08:51:24.999Z</time></trkpt><trkpt lat="42.81861644792518" lon="11.887781035264558"><ele>633.0</ele><time>2026-04-22T08:51:25.999Z</time></trkpt><trkpt lat="42.818492343495386" lon="11.887993497325876"><ele>632.6666666666666</ele><time>2026-04-22T08:51:26.999Z</time></trkpt><trkpt lat="42.81836438163114" lon="11.888213074147458"><ele>632.3333333333333</ele><time>2026-04-22T08:51:27.999Z</time></trkpt><trkpt lat="42.818235427263104" lon="11.888433015762887"><ele>632.0</ele><time>2026-04-22T08:51:28.999Z</time></trkpt><trkpt lat="42.818102894991405" lon="11.88865492083215"><ele>634.0</ele><time>2026-04-22T08:51:29.999Z</time></trkpt><trkpt lat="42.81797165189986" lon="11.888874859905563"><ele>636.0</ele><time>2026-04-22T08:51:30.999Z</time></trkpt><trkpt lat="42.81783884244872" lon="11.88909527244302"><ele>638.0</ele><time>2026-04-22T08:51:31.999Z</time></trkpt><trkpt lat="42.81770954697923" lon="11.889304739105718"><ele>640.6666666666666</ele><time>2026-04-22T08:51:32.999Z</time></trkpt><trkpt lat="42.817580333651904" lon="11.889501325570054"><ele>643.3333333333334</ele><time>2026-04-22T08:51:33.999Z</time></trkpt><trkpt lat="42.81745413048648" lon="11.889683345243764"><ele>646.0</ele><time>2026-04-22T08:51:34.999Z</time></trkpt><trkpt lat="42.8173362010561" lon="11.88984452449188"><ele>646.0</ele><time>2026-04-22T08:51:35.999Z</time></trkpt><trkpt lat="42.81723822771938" lon="11.889992723789879"><ele>646.0</ele><time>2026-04-22T08:51:36.999Z</time></trkpt><trkpt lat="42.81715587974831" lon="11.890131160768458"><ele>646.0</ele><time>2026-04-22T08:51:37.999Z</time></trkpt><trkpt lat="42.81714380642075" lon="11.890295710210655"><ele>646.0</ele><time>2026-04-22T08:51:38.999Z</time></trkpt><trkpt lat="42.817153398293115" lon="11.890453673107558"><ele>648.5</ele><time>2026-04-22T08:51:39.999Z</time></trkpt><trkpt lat="42.8171943664829" lon="11.89061654015206"><ele>651.0</ele><time>2026-04-22T08:51:40.999Z</time></trkpt><trkpt lat="42.8172590245698" lon="11.890781915639124"><ele>653.5</ele><time>2026-04-22T08:51:41.999Z</time></trkpt><trkpt lat="42.81732471595493" lon="11.890961013457337"><ele>656.0</ele><time>2026-04-22T08:51:42.999Z</time></trkpt><trkpt lat="42.81737952856784" lon="11.891160696724642"><ele>657.25</ele><time>2026-04-22T08:51:43.999Z</time></trkpt><trkpt lat="42.817406691100004" lon="11.891363924610978"><ele>658.5</ele><time>2026-04-22T08:51:44.999Z</time></trkpt><trkpt lat="42.81739730661098" lon="11.891558768475276"><ele>659.75</ele><time>2026-04-22T08:51:45.999Z</time></trkpt><trkpt lat="42.81734065882611" lon="11.89173477911326"><ele>661.0</ele><time>2026-04-22T08:51:46.999Z</time></trkpt><trkpt lat="42.81729025452374" lon="11.891922036893563"><ele>662.5</ele><time>2026-04-22T08:51:47.999Z</time></trkpt><trkpt lat="42.817233103963396" lon="11.892100314627806"><ele>664.0</ele><time>2026-04-22T08:51:48.999Z</time></trkpt><trkpt lat="42.817212032058464" lon="11.892289022271775"><ele>665.5</ele><time>2026-04-22T08:51:49.999Z</time></trkpt><trkpt lat="42.81722906365001" lon="11.892483908972084"><ele>667.0</ele><time>2026-04-22T08:51:50.999Z</time></trkpt><trkpt lat="42.81727854045997" lon="11.892661537843761"><ele>667.0</ele><time>2026-04-22T08:51:51.999Z</time></trkpt><trkpt lat="42.817358177530906" lon="11.892828863161688"><ele>667.0</ele><time>2026-04-22T08:51:52.999Z</time></trkpt><trkpt lat="42.81745984312168" lon="11.892992983412547"><ele>667.0</ele><time>2026-04-22T08:51:53.999Z</time></trkpt><trkpt lat="42.81756459233922" lon="11.893159792929255"><ele>668.3333333333334</ele><time>2026-04-22T08:51:54.999Z</time></trkpt><trkpt lat="42.817680627397294" lon="11.893335852378147"><ele>669.6666666666666</ele><time>2026-04-22T08:51:55.999Z</time></trkpt><trkpt lat="42.81780243314113" lon="11.89351987394879"><ele>671.0</ele><time>2026-04-22T08:51:56.999Z</time></trkpt><trkpt lat="42.81792404592163" lon="11.893703700512484"><ele>671.0</ele><time>2026-04-22T08:51:57.999Z</time></trkpt><trkpt lat="42.81805153078718" lon="11.893872263256357"><ele>671.0</ele><time>2026-04-22T08:51:58.999Z</time></trkpt><trkpt lat="42.8181752157409" lon="11.894008121452382"><ele>671.0</ele><time>2026-04-22T08:51:59.999Z</time></trkpt><trkpt lat="42.81829350656091" lon="11.894143053424264"><ele>671.0</ele><time>2026-04-22T08:52:00.999Z</time></trkpt><trkpt lat="42.81840706295529" lon="11.894292575119332"><ele>671.0</ele><time>2026-04-22T08:52:01.999Z</time></trkpt><trkpt lat="42.818501190008305" lon="11.89446272288366"><ele>671.0</ele><time>2026-04-22T08:52:02.999Z</time></trkpt><trkpt lat="42.8185657578412" lon="11.894662321610205"><ele>671.0</ele><time>2026-04-22T08:52:03.999Z</time></trkpt><trkpt lat="42.818603380255375" lon="11.894881286871898"><ele>671.0</ele><time>2026-04-22T08:52:04.999Z</time></trkpt><trkpt lat="42.81861509468646" lon="11.895117610251205"><ele>671.0</ele><time>2026-04-22T08:52:05.999Z</time></trkpt><trkpt lat="42.81862094582462" lon="11.895340740572447"><ele>672.3333333333333</ele><time>2026-04-22T08:52:06.999Z</time></trkpt><trkpt lat="42.81865013130157" lon="11.895562156176648"><ele>673.6666666666666</ele><time>2026-04-22T08:52:07.999Z</time></trkpt><trkpt lat="42.818702223158795" lon="11.895784263125169"><ele>675.0</ele><time>2026-04-22T08:52:08.999Z</time></trkpt><trkpt lat="42.818766366005235" lon="11.896012590551598"><ele>675.6666666666666</ele><time>2026-04-22T08:52:09.999Z</time></trkpt><trkpt lat="42.81883991746919" lon="11.896239890492327"><ele>676.3333333333333</ele><time>2026-04-22T08:52:10.999Z</time></trkpt><trkpt lat="42.81891264529203" lon="11.896480352408682"><ele>677.0</ele><time>2026-04-22T08:52:11.999Z</time></trkpt><trkpt lat="42.818981802215674" lon="11.896729460257719"><ele>678.3333333333333</ele><time>2026-04-22T08:52:12.999Z</time></trkpt><trkpt lat="42.81904801261794" lon="11.896989259032747"><ele>679.6666666666666</ele><time>2026-04-22T08:52:13.999Z</time></trkpt><trkpt lat="42.81911275117232" lon="11.897255512706217"><ele>681.0</ele><time>2026-04-22T08:52:15Z</time></trkpt><trkpt lat="42.819174597225754" lon="11.897525249398791"><ele>680.6666666666666</ele><time>2026-04-22T08:52:16Z</time></trkpt><trkpt lat="42.81923584572588" lon="11.89779848826622"><ele>680.3333333333333</ele><time>2026-04-22T08:52:17Z</time></trkpt><trkpt lat="42.819299257809654" lon="11.898067367505414"><ele>680.0</ele><time>2026-04-22T08:52:18Z</time></trkpt><trkpt lat="42.81936684705235" lon="11.898327283372213"><ele>680.3333333333333</ele><time>2026-04-22T08:52:19Z</time></trkpt><trkpt lat="42.81943124031935" lon="11.898590923951513"><ele>680.6666666666666</ele><time>2026-04-22T08:52:20Z</time></trkpt><trkpt lat="42.819495060927615" lon="11.898857527665095"><ele>681.0</ele><time>2026-04-22T08:52:21Z</time></trkpt><trkpt lat="42.81956102522117" lon="11.89912828781459"><ele>682.0</ele><time>2026-04-22T08:52:22Z</time></trkpt><trkpt lat="42.8196282736372" lon="11.899403082359349"><ele>683.0</ele><time>2026-04-22T08:52:23Z</time></trkpt><trkpt lat="42.819704906433465" lon="11.899672447156746"><ele>684.0</ele><time>2026-04-22T08:52:24Z</time></trkpt><trkpt lat="42.81979112888435" lon="11.89993742190303"><ele>686.6666666666666</ele><time>2026-04-22T08:52:25Z</time></trkpt><trkpt lat="42.819887437573776" lon="11.900191842216557"><ele>689.3333333333333</ele><time>2026-04-22T08:52:26Z</time></trkpt><trkpt lat="42.81998286815724" lon="11.90044029297934"><ele>692.0</ele><time>2026-04-22T08:52:27Z</time></trkpt><trkpt lat="42.82007343014036" lon="11.900673800936575"><ele>689.3333333333333</ele><time>2026-04-22T08:52:28Z</time></trkpt><trkpt lat="42.820156676261576" lon="11.900906094792736"><ele>686.6666666666666</ele><time>2026-04-22T08:52:29Z</time></trkpt><trkpt lat="42.82024743218402" lon="11.901138363207885"><ele>684.0</ele><time>2026-04-22T08:52:30Z</time></trkpt><trkpt lat="42.820352638295695" lon="11.901369031425036"><ele>684.0</ele><time>2026-04-22T08:52:31Z</time></trkpt><trkpt lat="42.82047185769013" lon="11.901592839404147"><ele>684.0</ele><time>2026-04-22T08:52:32Z</time></trkpt><trkpt lat="42.82060194743109" lon="11.901812780667974"><ele>684.0</ele><time>2026-04-22T08:52:33Z</time></trkpt><trkpt lat="42.82073221771946" lon="11.902028206051886"><ele>686.6666666666666</ele><time>2026-04-22T08:52:34Z</time></trkpt><trkpt lat="42.82086571761917" lon="11.902223989645108"><ele>689.3333333333333</ele><time>2026-04-22T08:52:35Z</time></trkpt><trkpt lat="42.82100193178128" lon="11.902394984307087"><ele>692.0</ele><time>2026-04-22T08:52:36Z</time></trkpt><trkpt lat="42.821145521977186" lon="11.902538856112946"><ele>698.3333333333333</ele><time>2026-04-22T08:52:37Z</time></trkpt><trkpt lat="42.82128958069853" lon="11.902644185182718"><ele>704.6666666666666</ele><time>2026-04-22T08:52:38Z</time></trkpt><trkpt lat="42.82144181003989" lon="11.902725486666661"><ele>711.0</ele><time>2026-04-22T08:52:39Z</time></trkpt><trkpt lat="42.82160084422819" lon="11.902779891995804"><ele>711.0</ele><time>2026-04-22T08:52:40Z</time></trkpt><trkpt lat="42.82176587281146" lon="11.90281370802903"><ele>711.0</ele><time>2026-04-22T08:52:41Z</time></trkpt><trkpt lat="42.82192762124834" lon="11.902850718439733"><ele>711.0</ele><time>2026-04-22T08:52:42Z</time></trkpt><trkpt lat="42.82206998499689" lon="11.902924565192517"><ele>706.3333333333334</ele><time>2026-04-22T08:52:43Z</time></trkpt><trkpt lat="42.822182304576295" lon="11.903062383860165"><ele>701.6666666666667</ele><time>2026-04-22T08:52:44Z</time></trkpt><trkpt lat="42.82229519324745" lon="11.903225149873718"><ele>697.0</ele><time>2026-04-22T08:52:45Z</time></trkpt><trkpt lat="42.822404244746025" lon="11.90339725513548"><ele>697.0</ele><time>2026-04-22T08:52:46Z</time></trkpt><trkpt lat="42.82251128136256" lon="11.903576582257525"><ele>697.0</ele><time>2026-04-22T08:52:47Z</time></trkpt><trkpt lat="42.822621711021405" lon="11.90374585241529"><ele>697.0</ele><time>2026-04-22T08:52:48Z</time></trkpt><trkpt lat="42.82269293058682" lon="11.903946704572762"><ele>697.0</ele><time>2026-04-22T08:52:49Z</time></trkpt><trkpt lat="42.82274794544612" lon="11.904158314322977"><ele>697.0</ele><time>2026-04-22T08:52:50Z</time></trkpt><trkpt lat="42.82278233605475" lon="11.904375002953833"><ele>697.0</ele><time>2026-04-22T08:52:51Z</time></trkpt><trkpt lat="42.82281121680433" lon="11.90456454278782"><ele>698.5</ele><time>2026-04-22T08:52:51.999Z</time></trkpt><trkpt lat="42.82287631332946" lon="11.904748511695807"><ele>700.0</ele><time>2026-04-22T08:52:52.999Z</time></trkpt><trkpt lat="42.822967265358564" lon="11.904900684986135"><ele>701.5</ele><time>2026-04-22T08:52:53.999Z</time></trkpt><trkpt lat="42.823077354818345" lon="11.905027141940884"><ele>703.0</ele><time>2026-04-22T08:52:54.999Z</time></trkpt><trkpt lat="42.82319961970162" lon="11.9051188272259"><ele>704.5</ele><time>2026-04-22T08:52:55.999Z</time></trkpt><trkpt lat="42.823329214811665" lon="11.905202805122839"><ele>706.0</ele><time>2026-04-22T08:52:56.999Z</time></trkpt><trkpt lat="42.82346757033071" lon="11.905275848677755"><ele>707.5</ele><time>2026-04-22T08:52:57.999Z</time></trkpt><trkpt lat="42.82361727075532" lon="11.905340332468096"><ele>709.0</ele><time>2026-04-22T08:52:58.999Z</time></trkpt><trkpt lat="42.82377384962182" lon="11.905376791565459"><ele>709.0</ele><time>2026-04-22T08:52:59.999Z</time></trkpt><trkpt lat="42.823936422270776" lon="11.90538589619241"><ele>709.0</ele><time>2026-04-22T08:53:00.999Z</time></trkpt><trkpt lat="42.824079971192425" lon="11.905383939521922"><ele>709.0</ele><time>2026-04-22T08:53:01.999Z</time></trkpt><trkpt lat="42.824216742700976" lon="11.905394725870316"><ele>709.0</ele><time>2026-04-22T08:53:02.999Z</time></trkpt><trkpt lat="42.82435349535534" lon="11.905427784656503"><ele>708.5</ele><time>2026-04-22T08:53:03.999Z</time></trkpt><trkpt lat="42.82448850109075" lon="11.905480728114751"><ele>708.0</ele><time>2026-04-22T08:53:04.999Z</time></trkpt><trkpt lat="42.82461767935341" lon="11.905552141479957"><ele>707.5</ele><time>2026-04-22T08:53:05.999Z</time></trkpt><trkpt lat="42.824737436992166" lon="11.905640892129774"><ele>707.0</ele><time>2026-04-22T08:53:06.999Z</time></trkpt><trkpt lat="42.824846317490305" lon="11.905744687262219"><ele>707.0</ele><time>2026-04-22T08:53:07.999Z</time></trkpt><trkpt lat="42.82494545220122" lon="11.905857354007185"><ele>707.0</ele><time>2026-04-22T08:53:08.999Z</time></trkpt><trkpt lat="42.825033711327976" lon="11.90598250238993"><ele>707.0</ele><time>2026-04-22T08:53:09.999Z</time></trkpt><trkpt lat="42.82511344051148" lon="11.906117641504803"><ele>707.0</ele><time>2026-04-22T08:53:10.999Z</time></trkpt><trkpt lat="42.825178031267434" lon="11.906244229721834"><ele>707.8333333333333</ele><time>2026-04-22T08:53:11.999Z</time></trkpt><trkpt lat="42.82523150903999" lon="11.906358703046033"><ele>708.6666666666666</ele><time>2026-04-22T08:53:12.999Z</time></trkpt><trkpt lat="42.82525702360119" lon="11.90645216722763"><ele>709.5</ele><time>2026-04-22T08:53:13.999Z</time></trkpt><trkpt lat="42.8252296476495" lon="11.906565833799274"><ele>710.3333333333334</ele><time>2026-04-22T08:53:15.999Z</time></trkpt><trkpt lat="42.82517307223223" lon="11.906606195052756"><ele>711.1666666666667</ele><time>2026-04-22T08:53:16.999Z</time></trkpt><trkpt lat="42.825089335751834" lon="11.906624886247892"><ele>712.0</ele><time>2026-04-22T08:53:17.999Z</time></trkpt><trkpt lat="42.82498875367665" lon="11.906643905893004"><ele>712.25</ele><time>2026-04-22T08:53:18.999Z</time></trkpt><trkpt lat="42.82488308328366" lon="11.90666966311594"><ele>712.5</ele><time>2026-04-22T08:53:19.999Z</time></trkpt><trkpt lat="42.82477424388532" lon="11.90670105539918"><ele>712.75</ele><time>2026-04-22T08:53:20.999Z</time></trkpt><trkpt lat="42.82465439191691" lon="11.906736455441314"><ele>713.0</ele><time>2026-04-22T08:53:21.999Z</time></trkpt><trkpt lat="42.82452466482401" lon="11.906773152660925"><ele>712.5</ele><time>2026-04-22T08:53:22.999Z</time></trkpt><trkpt lat="42.824386501425586" lon="11.906812272463219"><ele>712.0</ele><time>2026-04-22T08:53:23.999Z</time></trkpt><trkpt lat="42.824244246077654" lon="11.906848481131231"><ele>711.5</ele><time>2026-04-22T08:53:24.999Z</time></trkpt><trkpt lat="42.82410269921381" lon="11.906887118787402"><ele>711.0</ele><time>2026-04-22T08:53:25.999Z</time></trkpt><trkpt lat="42.82396130645685" lon="11.906938408784173"><ele>712.0</ele><time>2026-04-22T08:53:26.999Z</time></trkpt><trkpt lat="42.823823609080584" lon="11.907011282167083"><ele>713.0</ele><time>2026-04-22T08:53:27.999Z</time></trkpt><trkpt lat="42.82369705665788" lon="11.90710833828463"><ele>714.0</ele><time>2026-04-22T08:53:28.999Z</time></trkpt><trkpt lat="42.82357667003161" lon="11.907232722297094"><ele>715.0</ele><time>2026-04-22T08:53:29.999Z</time></trkpt><trkpt lat="42.82345674160364" lon="11.90736347152887"><ele>716.3333333333334</ele><time>2026-04-22T08:53:30.999Z</time></trkpt><trkpt lat="42.8233299843048" lon="11.907491496626449"><ele>717.6666666666666</ele><time>2026-04-22T08:53:31.999Z</time></trkpt><trkpt lat="42.823192759319845" lon="11.907610277961632"><ele>719.0</ele><time>2026-04-22T08:53:32.999Z</time></trkpt><trkpt lat="42.82304219895355" lon="11.90771041134477"><ele>716.6666666666666</ele><time>2026-04-22T08:53:33.999Z</time></trkpt><trkpt lat="42.82288526921973" lon="11.907792221319532"><ele>714.3333333333334</ele><time>2026-04-22T08:53:34.999Z</time></trkpt><trkpt lat="42.82271796868152" lon="11.907870783480012"><ele>712.0</ele><time>2026-04-22T08:53:35.999Z</time></trkpt><trkpt lat="42.82254430797396" lon="11.907950467863294"><ele>712.0</ele><time>2026-04-22T08:53:36.999Z</time></trkpt><trkpt lat="42.822372387534344" lon="11.908016793343114"><ele>712.0</ele><time>2026-04-22T08:53:37.999Z</time></trkpt><trkpt lat="42.822200118534326" lon="11.908057855044346"><ele>712.0</ele><time>2026-04-22T08:53:38.999Z</time></trkpt><trkpt lat="42.82203861845832" lon="11.908031704474887"><ele>712.0</ele><time>2026-04-22T08:53:39.999Z</time></trkpt><trkpt lat="42.82187862039837" lon="11.908007830820324"><ele>712.0</ele><time>2026-04-22T08:53:40.999Z</time></trkpt><trkpt lat="42.8217264678721" lon="11.907987723693568"><ele>712.0</ele><time>2026-04-22T08:53:41.999Z</time></trkpt><trkpt lat="42.821583676836774" lon="11.908001371258491"><ele>712.5</ele><time>2026-04-22T08:53:42.999Z</time></trkpt><trkpt lat="42.82145808105504" lon="11.908033138988774"><ele>713.0</ele><time>2026-04-22T08:53:43.999Z</time></trkpt><trkpt lat="42.82135562471714" lon="11.908109935623779"><ele>713.5</ele><time>2026-04-22T08:53:44.999Z</time></trkpt><trkpt lat="42.82128050006773" lon="11.908234817914314"><ele>714.0</ele><time>2026-04-22T08:53:45.999Z</time></trkpt><trkpt lat="42.821213862901196" lon="11.908393293053662"><ele>712.5</ele><time>2026-04-22T08:53:46.999Z</time></trkpt><trkpt lat="42.82116469836276" lon="11.908561403610017"><ele>711.0</ele><time>2026-04-22T08:53:47.999Z</time></trkpt><trkpt lat="42.82110213118373" lon="11.908729515311855"><ele>709.5</ele><time>2026-04-22T08:53:48.999Z</time></trkpt><trkpt lat="42.82098999623339" lon="11.908814581155939"><ele>708.0</ele><time>2026-04-22T08:53:49.999Z</time></trkpt><trkpt lat="42.82087507163781" lon="11.90889455378027"><ele>708.0</ele><time>2026-04-22T08:53:50.999Z</time></trkpt><trkpt lat="42.820746001384414" lon="11.908972018319835"><ele>708.0</ele><time>2026-04-22T08:53:51.999Z</time></trkpt><trkpt lat="42.82061240861665" lon="11.909069187802777"><ele>708.0</ele><time>2026-04-22T08:53:52.999Z</time></trkpt><trkpt lat="42.820473159257006" lon="11.909148027927499"><ele>708.0</ele><time>2026-04-22T08:53:53.999Z</time></trkpt><trkpt lat="42.820346311254454" lon="11.909237555344966"><ele>707.5999999999999</ele><time>2026-04-22T08:53:54.999Z</time></trkpt><trkpt lat="42.820224270117436" lon="11.909301673095495"><ele>707.1999999999999</ele><time>2026-04-22T08:53:55.999Z</time></trkpt><trkpt lat="42.82014383867744" lon="11.909388084277245"><ele>706.8</ele><time>2026-04-22T08:53:56.999Z</time></trkpt><trkpt lat="42.82009539443422" lon="11.909493265897948"><ele>706.4</ele><time>2026-04-22T08:53:57.999Z</time></trkpt><trkpt lat="42.82006471474144" lon="11.909575824916457"><ele>706.0</ele><time>2026-04-22T08:54:01.999Z</time></trkpt><trkpt lat="42.820037227201965" lon="11.909667961882512"><ele>706.0</ele><time>2026-04-22T08:54:39Z</time></trkpt><trkpt lat="42.820007426522075" lon="11.90974746665279"><ele>706.0</ele><time>2026-04-22T08:54:40Z</time></trkpt><trkpt lat="42.81998892203819" lon="11.909848019358119"><ele>706.0</ele><time>2026-04-22T08:54:41Z</time></trkpt><trkpt lat="42.819972597373415" lon="11.909952871845004"><ele>706.0</ele><time>2026-04-22T08:54:42Z</time></trkpt><trkpt lat="42.819951297133166" lon="11.91006857925812"><ele>706.0</ele><time>2026-04-22T08:54:43Z</time></trkpt><trkpt lat="42.819939859276545" lon="11.910196543285815"><ele>706.0</ele><time>2026-04-22T08:54:44Z</time></trkpt><trkpt lat="42.81989388664243" lon="11.910324287051122"><ele>704.25</ele><time>2026-04-22T08:54:45Z</time></trkpt><trkpt lat="42.81983868065555" lon="11.910449867908136"><ele>702.5</ele><time>2026-04-22T08:54:46Z</time></trkpt><trkpt lat="42.81976083133192" lon="11.910556849160356"><ele>700.75</ele><time>2026-04-22T08:54:47Z</time></trkpt><trkpt lat="42.819693771605124" lon="11.910698629705905"><ele>699.0</ele><time>2026-04-22T08:54:48Z</time></trkpt><trkpt lat="42.819587947628676" lon="11.910814360484201"><ele>696.5</ele><time>2026-04-22T08:54:49Z</time></trkpt><trkpt lat="42.81949469219801" lon="11.910954610994114"><ele>694.0</ele><time>2026-04-22T08:54:50Z</time></trkpt><trkpt lat="42.81938027072878" lon="11.91105692047359"><ele>691.5</ele><time>2026-04-22T08:54:51Z</time></trkpt><trkpt lat="42.81924296029023" lon="11.911128955304443"><ele>689.0</ele><time>2026-04-22T08:54:52Z</time></trkpt><trkpt lat="42.81910678571348" lon="11.911206865006285"><ele>689.0</ele><time>2026-04-22T08:54:53Z</time></trkpt><trkpt lat="42.81897118241593" lon="11.911285357990137"><ele>689.0</ele><time>2026-04-22T08:54:54Z</time></trkpt><trkpt lat="42.81882237759003" lon="11.911317823680761"><ele>689.0</ele><time>2026-04-22T08:54:55Z</time></trkpt><trkpt lat="42.818662063063535" lon="11.911327461565266"><ele>689.0</ele><time>2026-04-22T08:54:56Z</time></trkpt><trkpt lat="42.818498589023925" lon="11.911325877363902"><ele>689.0</ele><time>2026-04-22T08:54:57Z</time></trkpt><trkpt lat="42.81832970862046" lon="11.911338094206942"><ele>689.0</ele><time>2026-04-22T08:54:58Z</time></trkpt><trkpt lat="42.818159171200286" lon="11.91137282908812"><ele>689.0</ele><time>2026-04-22T08:54:59Z</time></trkpt><trkpt lat="42.81799712855088" lon="11.911415942000255"><ele>689.0</ele><time>2026-04-22T08:55:00Z</time></trkpt><trkpt lat="42.8178426071051" lon="11.911469165748159"><ele>689.0</ele><time>2026-04-22T08:55:01Z</time></trkpt><trkpt lat="42.817690558760624" lon="11.911517236548026"><ele>688.3333333333333</ele><time>2026-04-22T08:55:02Z</time></trkpt><trkpt lat="42.81756894664038" lon="11.911649231469331"><ele>687.6666666666666</ele><time>2026-04-22T08:55:02.999Z</time></trkpt><trkpt lat="42.817437304904885" lon="11.911785545258237"><ele>687.0</ele><time>2026-04-22T08:55:03.999Z</time></trkpt><trkpt lat="42.81730667621918" lon="11.911920130799544"><ele>683.6666666666666</ele><time>2026-04-22T08:55:04.999Z</time></trkpt><trkpt lat="42.81718418860471" lon="11.912048197630588"><ele>680.3333333333333</ele><time>2026-04-22T08:55:05.999Z</time></trkpt><trkpt lat="42.8170638850792" lon="11.912165096935475"><ele>677.0</ele><time>2026-04-22T08:55:06.999Z</time></trkpt><trkpt lat="42.8169824433589" lon="11.912335945574869"><ele>677.0</ele><time>2026-04-22T08:55:07.999Z</time></trkpt><trkpt lat="42.81691134706429" lon="11.91251004122282"><ele>677.0</ele><time>2026-04-22T08:55:08.999Z</time></trkpt><trkpt lat="42.8168702881482" lon="11.912710897470564"><ele>677.0</ele><time>2026-04-22T08:55:09.999Z</time></trkpt><trkpt lat="42.81684225517628" lon="11.912911609852642"><ele>677.0</ele><time>2026-04-22T08:55:10.999Z</time></trkpt><trkpt lat="42.81681939901949" lon="11.913102784998834"><ele>674.5</ele><time>2026-04-22T08:55:11.999Z</time></trkpt><trkpt lat="42.81681889198705" lon="11.913281936324585"><ele>672.0</ele><time>2026-04-22T08:55:12.999Z</time></trkpt><trkpt lat="42.8168484047406" lon="11.913449201034702"><ele>669.5</ele><time>2026-04-22T08:55:13.999Z</time></trkpt><trkpt lat="42.81691965726797" lon="11.913591147417794"><ele>667.0</ele><time>2026-04-22T08:55:14.999Z</time></trkpt><trkpt lat="42.81701278026369" lon="11.913710863655405"><ele>665.75</ele><time>2026-04-22T08:55:15.999Z</time></trkpt><trkpt lat="42.81711248808554" lon="11.913833401421257"><ele>664.5</ele><time>2026-04-22T08:55:16.999Z</time></trkpt><trkpt lat="42.81719426592579" lon="11.913958313570026"><ele>663.25</ele><time>2026-04-22T08:55:17.999Z</time></trkpt><trkpt lat="42.81725278933086" lon="11.914102056944103"><ele>662.0</ele><time>2026-04-22T08:55:18.999Z</time></trkpt><trkpt lat="42.81727179395558" lon="11.914255990376999"><ele>660.0</ele><time>2026-04-22T08:55:19.999Z</time></trkpt><trkpt lat="42.81723543348948" lon="11.914437221076097"><ele>658.0</ele><time>2026-04-22T08:55:20.999Z</time></trkpt><trkpt lat="42.817213862634496" lon="11.914649996373777"><ele>656.0</ele><time>2026-04-22T08:55:21.999Z</time></trkpt><trkpt lat="42.81724207087005" lon="11.914876462168369"><ele>653.6666666666666</ele><time>2026-04-22T08:55:22.999Z</time></trkpt><trkpt lat="42.81730393418859" lon="11.915094450315687"><ele>651.3333333333334</ele><time>2026-04-22T08:55:23.999Z</time></trkpt><trkpt lat="42.81734962723089" lon="11.91533389198071"><ele>649.0</ele><time>2026-04-22T08:55:24.999Z</time></trkpt><trkpt lat="42.817378282400995" lon="11.915580205221985"><ele>649.0</ele><time>2026-04-22T08:55:25.999Z</time></trkpt><trkpt lat="42.81739030891022" lon="11.915809112316316"><ele>649.0</ele><time>2026-04-22T08:55:26.999Z</time></trkpt><trkpt lat="42.81740292281594" lon="11.916021278506756"><ele>649.0</ele><time>2026-04-22T08:55:27.999Z</time></trkpt><trkpt lat="42.81742080824633" lon="11.916204231130388"><ele>648.0</ele><time>2026-04-22T08:55:28.999Z</time></trkpt><trkpt lat="42.817425899786436" lon="11.916343539917014"><ele>647.0</ele><time>2026-04-22T08:55:29.999Z</time></trkpt><trkpt lat="42.817400899390904" lon="11.916458633173361"><ele>646.0</ele><time>2026-04-22T08:55:30.999Z</time></trkpt><trkpt lat="42.81733594823694" lon="11.916554885134735"><ele>645.0</ele><time>2026-04-22T08:55:31.999Z</time></trkpt><trkpt lat="42.81724958404084" lon="11.916597061120509"><ele>644.0</ele><time>2026-04-22T08:55:32.999Z</time></trkpt><trkpt lat="42.81714622892036" lon="11.916608381622941"><ele>644.0</ele><time>2026-04-22T08:55:33.999Z</time></trkpt><trkpt lat="42.81702303004783" lon="11.916594176441105"><ele>644.0</ele><time>2026-04-22T08:55:34.999Z</time></trkpt><trkpt lat="42.816892281137264" lon="11.916570784965554"><ele>644.0</ele><time>2026-04-22T08:55:35.999Z</time></trkpt><trkpt lat="42.81674815952696" lon="11.916543304736924"><ele>644.0</ele><time>2026-04-22T08:55:36.999Z</time></trkpt><trkpt lat="42.81659120316877" lon="11.916517443780938"><ele>643.6666666666666</ele><time>2026-04-22T08:55:37.999Z</time></trkpt><trkpt lat="42.8164343439388" lon="11.91649804698302"><ele>643.3333333333334</ele><time>2026-04-22T08:55:38.999Z</time></trkpt><trkpt lat="42.81627279884088" lon="11.91649460447026"><ele>643.0</ele><time>2026-04-22T08:55:39.999Z</time></trkpt><trkpt lat="42.81610866623381" lon="11.916521889749063"><ele>642.3333333333334</ele><time>2026-04-22T08:55:40.999Z</time></trkpt><trkpt lat="42.81594497498164" lon="11.916584797738732"><ele>641.6666666666666</ele><time>2026-04-22T08:55:41.999Z</time></trkpt><trkpt lat="42.81578436914702" lon="11.916684095845236"><ele>641.0</ele><time>2026-04-22T08:55:42.999Z</time></trkpt><trkpt lat="42.815634102314185" lon="11.916809711380171"><ele>638.3333333333333</ele><time>2026-04-22T08:55:43.999Z</time></trkpt><trkpt lat="42.81549785986853" lon="11.916946084790757"><ele>635.6666666666666</ele><time>2026-04-22T08:55:44.999Z</time></trkpt><trkpt lat="42.81536554434254" lon="11.917079430457335"><ele>633.0</ele><time>2026-04-22T08:55:45.999Z</time></trkpt><trkpt lat="42.81522277138201" lon="11.917193750497203"><ele>635.0</ele><time>2026-04-22T08:55:46.999Z</time></trkpt><trkpt lat="42.81506165305005" lon="11.917278888652334"><ele>637.0</ele><time>2026-04-22T08:55:47.999Z</time></trkpt><trkpt lat="42.81489340055401" lon="11.917344555093745"><ele>639.0</ele><time>2026-04-22T08:55:48.999Z</time></trkpt><trkpt lat="42.814717866110996" lon="11.917403525129393"><ele>639.0</ele><time>2026-04-22T08:55:49.999Z</time></trkpt><trkpt lat="42.814536952701594" lon="11.917459647063845"><ele>639.0</ele><time>2026-04-22T08:55:50.999Z</time></trkpt><trkpt lat="42.81436003055937" lon="11.917516466935215"><ele>639.0</ele><time>2026-04-22T08:55:51.999Z</time></trkpt><trkpt lat="42.81418628596055" lon="11.91758205171422"><ele>638.3333333333334</ele><time>2026-04-22T08:55:52.999Z</time></trkpt><trkpt lat="42.81402185988027" lon="11.917674315213768"><ele>637.6666666666667</ele><time>2026-04-22T08:55:53.999Z</time></trkpt><trkpt lat="42.813874416497356" lon="11.917811422915022"><ele>637.0</ele><time>2026-04-22T08:55:54.999Z</time></trkpt><trkpt lat="42.81374726518256" lon="11.917994131454906"><ele>637.0</ele><time>2026-04-22T08:55:55.999Z</time></trkpt><trkpt lat="42.813616891102455" lon="11.918168716990408"><ele>637.0</ele><time>2026-04-22T08:55:56.999Z</time></trkpt><trkpt lat="42.813505484915204" lon="11.918345226797033"><ele>637.0</ele><time>2026-04-22T08:55:57.999Z</time></trkpt><trkpt lat="42.813371091049916" lon="11.91847289692742"><ele>635.6666666666667</ele><time>2026-04-22T08:55:58.999Z</time></trkpt><trkpt lat="42.81322752718113" lon="11.91856074208601"><ele>634.3333333333334</ele><time>2026-04-22T08:55:59.999Z</time></trkpt><trkpt lat="42.81307716499275" lon="11.918608276415533"><ele>633.0</ele><time>2026-04-22T08:56:00.999Z</time></trkpt><trkpt lat="42.81293767663825" lon="11.918680154384655"><ele>633.0</ele><time>2026-04-22T08:56:01.999Z</time></trkpt><trkpt lat="42.81282130651389" lon="11.918791023238127"><ele>633.0</ele><time>2026-04-22T08:56:02.999Z</time></trkpt><trkpt lat="42.81273481761611" lon="11.91894789408242"><ele>633.0</ele><time>2026-04-22T08:56:03.999Z</time></trkpt><trkpt lat="42.81267849815578" lon="11.919139376524578"><ele>633.0</ele><time>2026-04-22T08:56:04.999Z</time></trkpt><trkpt lat="42.81263719486025" lon="11.919348201928344"><ele>635.0</ele><time>2026-04-22T08:56:05.999Z</time></trkpt><trkpt lat="42.81261036365673" lon="11.919557159142844"><ele>637.0</ele><time>2026-04-22T08:56:06.999Z</time></trkpt><trkpt lat="42.81258005069661" lon="11.919774182681694"><ele>639.0</ele><time>2026-04-22T08:56:07.999Z</time></trkpt><trkpt lat="42.812616822165445" lon="11.919995618545233"><ele>633.3333333333334</ele><time>2026-04-22T08:56:08.999Z</time></trkpt><trkpt lat="42.81267372548154" lon="11.92020571461797"><ele>627.6666666666667</ele><time>2026-04-22T08:56:09.999Z</time></trkpt><trkpt lat="42.812753640054" lon="11.920409354535265"><ele>622.0</ele><time>2026-04-22T08:56:10.999Z</time></trkpt><trkpt lat="42.812833749905366" lon="11.920624590723843"><ele>622.0</ele><time>2026-04-22T08:56:11.999Z</time></trkpt><trkpt lat="42.81290908688279" lon="11.920831130557186"><ele>622.0</ele><time>2026-04-22T08:56:12.999Z</time></trkpt><trkpt lat="42.812984809068936" lon="11.921025146210484"><ele>622.0</ele><time>2026-04-22T08:56:13.999Z</time></trkpt><trkpt lat="42.8130536158209" lon="11.92120693248442"><ele>622.25</ele><time>2026-04-22T08:56:14.999Z</time></trkpt><trkpt lat="42.813116157441804" lon="11.921375472114805"><ele>622.5</ele><time>2026-04-22T08:56:15.999Z</time></trkpt><trkpt lat="42.81315473919825" lon="11.921546053154444"><ele>622.75</ele><time>2026-04-22T08:56:16.999Z</time></trkpt><trkpt lat="42.813196744488565" lon="11.921693458751495"><ele>623.0</ele><time>2026-04-22T08:56:17.999Z</time></trkpt><trkpt lat="42.8131884113776" lon="11.921846788986219"><ele>622.0</ele><time>2026-04-22T08:56:18.999Z</time></trkpt><trkpt lat="42.81314631833551" lon="11.921986439652517"><ele>621.0</ele><time>2026-04-22T08:56:19.999Z</time></trkpt><trkpt lat="42.813069259542125" lon="11.922106679450007"><ele>620.0</ele><time>2026-04-22T08:56:20.999Z</time></trkpt><trkpt lat="42.812961719765624" lon="11.922210949172124"><ele>619.0</ele><time>2026-04-22T08:56:21.999Z</time></trkpt><trkpt lat="42.81283462034382" lon="11.922310644261223"><ele>619.0</ele><time>2026-04-22T08:56:22.999Z</time></trkpt><trkpt lat="42.81269646132296" lon="11.922417052997954"><ele>619.0</ele><time>2026-04-22T08:56:23.999Z</time></trkpt><trkpt lat="42.81255030719691" lon="11.922523593279163"><ele>619.0</ele><time>2026-04-22T08:56:24.999Z</time></trkpt><trkpt lat="42.81239405344568" lon="11.92262311287753"><ele>616.3333333333334</ele><time>2026-04-22T08:56:26Z</time></trkpt><trkpt lat="42.81222491144149" lon="11.92271282352081"><ele>613.6666666666666</ele><time>2026-04-22T08:56:27Z</time></trkpt><trkpt lat="42.812047735887134" lon="11.922786589010395"><ele>611.0</ele><time>2026-04-22T08:56:28Z</time></trkpt><trkpt lat="42.81186633613085" lon="11.922848876274257"><ele>610.3333333333333</ele><time>2026-04-22T08:56:29Z</time></trkpt><trkpt lat="42.811688393141296" lon="11.922901987150755"><ele>609.6666666666666</ele><time>2026-04-22T08:56:30Z</time></trkpt><trkpt lat="42.81150255941423" lon="11.922940142236184"><ele>609.0</ele><time>2026-04-22T08:56:31Z</time></trkpt><trkpt lat="42.81131867992169" lon="11.92296215654404"><ele>609.0</ele><time>2026-04-22T08:56:32Z</time></trkpt><trkpt lat="42.81114963643812" lon="11.922959007050702"><ele>609.0</ele><time>2026-04-22T08:56:33Z</time></trkpt><trkpt lat="42.81097469511719" lon="11.922982282003051"><ele>609.0</ele><time>2026-04-22T08:56:34Z</time></trkpt><trkpt lat="42.810827559225935" lon="11.922987098625333"><ele>609.5</ele><time>2026-04-22T08:56:35Z</time></trkpt><trkpt lat="42.81069854928932" lon="11.923031389059698"><ele>610.0</ele><time>2026-04-22T08:56:36Z</time></trkpt><trkpt lat="42.81058069116166" lon="11.923138795847278"><ele>610.5</ele><time>2026-04-22T08:56:37Z</time></trkpt><trkpt lat="42.810476083041266" lon="11.923291142581602"><ele>611.0</ele><time>2026-04-22T08:56:38Z</time></trkpt><trkpt lat="42.81037320314953" lon="11.923473928441348"><ele>611.3333333333333</ele><time>2026-04-22T08:56:39Z</time></trkpt><trkpt lat="42.810272959029156" lon="11.923668482844741"><ele>611.6666666666666</ele><time>2026-04-22T08:56:40Z</time></trkpt><trkpt lat="42.810170193554306" lon="11.923847951327806"><ele>612.0</ele><time>2026-04-22T08:56:41Z</time></trkpt><trkpt lat="42.81006858474105" lon="11.924002444899347"><ele>612.0</ele><time>2026-04-22T08:56:42Z</time></trkpt><trkpt lat="42.809947887045844" lon="11.924136416881174"><ele>612.0</ele><time>2026-04-22T08:56:43Z</time></trkpt><trkpt lat="42.80981690442438" lon="11.924243964495098"><ele>612.0</ele><time>2026-04-22T08:56:44Z</time></trkpt><trkpt lat="42.809669194375395" lon="11.924288897789124"><ele>609.6666666666666</ele><time>2026-04-22T08:56:45Z</time></trkpt><trkpt lat="42.80951678465364" lon="11.924322198727138"><ele>607.3333333333333</ele><time>2026-04-22T08:56:46Z</time></trkpt><trkpt lat="42.809357498969455" lon="11.924369822917846"><ele>605.0</ele><time>2026-04-22T08:56:47Z</time></trkpt><trkpt lat="42.809204806312486" lon="11.924383410808012"><ele>605.0</ele><time>2026-04-22T08:56:48Z</time></trkpt><trkpt lat="42.80906853572226" lon="11.924412057974001"><ele>605.0</ele><time>2026-04-22T08:56:49Z</time></trkpt><trkpt lat="42.80894775348273" lon="11.92445906222049"><ele>605.0</ele><time>2026-04-22T08:56:50Z</time></trkpt><trkpt lat="42.80884614159579" lon="11.924542294403281"><ele>605.0</ele><time>2026-04-22T08:56:51Z</time></trkpt><trkpt lat="42.80876805283219" lon="11.924664365610974"><ele>605.0</ele><time>2026-04-22T08:56:52Z</time></trkpt><trkpt lat="42.80871328933921" lon="11.924812481858552"><ele>605.0</ele><time>2026-04-22T08:56:53Z</time></trkpt><trkpt lat="42.80866846735809" lon="11.924983607387365"><ele>605.0</ele><time>2026-04-22T08:56:54Z</time></trkpt><trkpt lat="42.80867298511432" lon="11.925175417148147"><ele>605.0</ele><time>2026-04-22T08:56:55Z</time></trkpt><trkpt lat="42.80871988825445" lon="11.925353297521525"><ele>605.5</ele><time>2026-04-22T08:56:56Z</time></trkpt><trkpt lat="42.808811216182306" lon="11.925494788954422"><ele>606.0</ele><time>2026-04-22T08:56:57Z</time></trkpt><trkpt lat="42.808905166657624" lon="11.925643218114448"><ele>606.5</ele><time>2026-04-22T08:56:58Z</time></trkpt><trkpt lat="42.80898848342243" lon="11.925812545258104"><ele>607.0</ele><time>2026-04-22T08:56:59Z</time></trkpt><trkpt lat="42.809074832477954" lon="11.925969370537638"><ele>608.0</ele><time>2026-04-22T08:57:00Z</time></trkpt><trkpt lat="42.8091599148687" lon="11.926125538557935"><ele>609.0</ele><time>2026-04-22T08:57:01Z</time></trkpt><trkpt lat="42.80921227731048" lon="11.92632178519431"><ele>610.0</ele><time>2026-04-22T08:57:02Z</time></trkpt><trkpt lat="42.809241141708256" lon="11.926530615241504"><ele>607.3333333333334</ele><time>2026-04-22T08:57:03Z</time></trkpt><trkpt lat="42.8092502091134" lon="11.926748768123966"><ele>604.6666666666666</ele><time>2026-04-22T08:57:04Z</time></trkpt><trkpt lat="42.80923499185953" lon="11.92695493713971"><ele>602.0</ele><time>2026-04-22T08:57:05Z</time></trkpt><trkpt lat="42.809197931340016" lon="11.92713727133554"><ele>602.0</ele><time>2026-04-22T08:57:06Z</time></trkpt><trkpt lat="42.80912061904293" lon="11.927244002481538"><ele>602.0</ele><time>2026-04-22T08:57:07Z</time></trkpt><trkpt lat="42.80906474523899" lon="11.927306864414165"><ele>602.0</ele><time>2026-04-22T08:57:08Z</time></trkpt><trkpt lat="42.80894489026749" lon="11.927361653497895"><ele>602.0</ele><time>2026-04-22T08:57:10Z</time></trkpt><trkpt lat="42.80884637221299" lon="11.927376150089248"><ele>602.0</ele><time>2026-04-22T08:57:11Z</time></trkpt><trkpt lat="42.808722809443715" lon="11.927407890739744"><ele>602.0</ele><time>2026-04-22T08:57:12Z</time></trkpt><trkpt lat="42.80858196531911" lon="11.92741843593289"><ele>602.0</ele><time>2026-04-22T08:57:13Z</time></trkpt><trkpt lat="42.80844880157406" lon="11.927435900870803"><ele>602.0</ele><time>2026-04-22T08:57:14Z</time></trkpt><trkpt lat="42.80833113863041" lon="11.927472996255409"><ele>602.0</ele><time>2026-04-22T08:57:14.999Z</time></trkpt><trkpt lat="42.808232057159124" lon="11.927548983032397"><ele>601.75</ele><time>2026-04-22T08:57:15.999Z</time></trkpt><trkpt lat="42.80816009311593" lon="11.927665256470513"><ele>601.5</ele><time>2026-04-22T08:57:16.999Z</time></trkpt><trkpt lat="42.8081238898374" lon="11.927811573500065"><ele>601.25</ele><time>2026-04-22T08:57:17.999Z</time></trkpt><trkpt lat="42.80812483252262" lon="11.927978128280488"><ele>601.0</ele><time>2026-04-22T08:57:18.999Z</time></trkpt><trkpt lat="42.80816226631932" lon="11.928142049567366"><ele>601.0</ele><time>2026-04-22T08:57:19.999Z</time></trkpt><trkpt lat="42.808230906763065" lon="11.92830420662341"><ele>601.0</ele><time>2026-04-22T08:57:20.999Z</time></trkpt><trkpt lat="42.80832897367491" lon="11.928476909844797"><ele>601.0</ele><time>2026-04-22T08:57:21.999Z</time></trkpt><trkpt lat="42.80843226719734" lon="11.928651439218704"><ele>596.0</ele><time>2026-04-22T08:57:22.999Z</time></trkpt><trkpt lat="42.8085348703349" lon="11.928819035775819"><ele>591.0</ele><time>2026-04-22T08:57:23.999Z</time></trkpt><trkpt lat="42.80864519616214" lon="11.928993231376099"><ele>586.0</ele><time>2026-04-22T08:57:24.999Z</time></trkpt><trkpt lat="42.808760412053054" lon="11.929174172127253"><ele>587.3333333333334</ele><time>2026-04-22T08:57:25.999Z</time></trkpt><trkpt lat="42.80887237896862" lon="11.929351996911178"><ele>588.6666666666666</ele><time>2026-04-22T08:57:26.999Z</time></trkpt><trkpt lat="42.808975762044625" lon="11.929520531591866"><ele>590.0</ele><time>2026-04-22T08:57:27.999Z</time></trkpt><trkpt lat="42.809070035474036" lon="11.929676922573124"><ele>590.0</ele><time>2026-04-22T08:57:28.999Z</time></trkpt><trkpt lat="42.809147529994235" lon="11.92981994757852"><ele>590.0</ele><time>2026-04-22T08:57:29.999Z</time></trkpt><trkpt lat="42.80920107270301" lon="11.929956204503624"><ele>590.0</ele><time>2026-04-22T08:57:30.999Z</time></trkpt><trkpt lat="42.80919846154246" lon="11.930096240757345"><ele>590.0</ele><time>2026-04-22T08:57:31.999Z</time></trkpt><trkpt lat="42.80917357714605" lon="11.930240729872772"><ele>588.0</ele><time>2026-04-22T08:57:32.999Z</time></trkpt><trkpt lat="42.80912187708762" lon="11.930399827570257"><ele>586.0</ele><time>2026-04-22T08:57:33.999Z</time></trkpt><trkpt lat="42.80905343240767" lon="11.930577988188801"><ele>584.0</ele><time>2026-04-22T08:57:34.999Z</time></trkpt><trkpt lat="42.808987653480024" lon="11.930775679705567"><ele>582.0</ele><time>2026-04-22T08:57:35.999Z</time></trkpt><trkpt lat="42.80890993101331" lon="11.930974470486497"><ele>580.0</ele><time>2026-04-22T08:57:36.999Z</time></trkpt><trkpt lat="42.80883972644235" lon="11.931170427731429"><ele>578.0</ele><time>2026-04-22T08:57:37.999Z</time></trkpt><trkpt lat="42.808769228357974" lon="11.931345178264948"><ele>576.0</ele><time>2026-04-22T08:57:38.999Z</time></trkpt><trkpt lat="42.80872977626948" lon="11.931535668717508"><ele>574.6666666666666</ele><time>2026-04-22T08:57:39.999Z</time></trkpt><trkpt lat="42.80874343112922" lon="11.931733429587142"><ele>573.3333333333333</ele><time>2026-04-22T08:57:40.999Z</time></trkpt><trkpt lat="42.80877508706358" lon="11.93192782729076"><ele>572.0</ele><time>2026-04-22T08:57:41.999Z</time></trkpt><trkpt lat="42.808827956140675" lon="11.932131181036134"><ele>572.0</ele><time>2026-04-22T08:57:42.999Z</time></trkpt><trkpt lat="42.808879599206456" lon="11.93234734851636"><ele>572.0</ele><time>2026-04-22T08:57:43.999Z</time></trkpt><trkpt lat="42.808930520858766" lon="11.932567328555443"><ele>572.0</ele><time>2026-04-22T08:57:44.999Z</time></trkpt><trkpt lat="42.80899311781683" lon="11.932778624670137"><ele>571.6666666666666</ele><time>2026-04-22T08:57:45.999Z</time></trkpt><trkpt lat="42.80907909012051" lon="11.932969826983665"><ele>571.3333333333334</ele><time>2026-04-22T08:57:46.999Z</time></trkpt><trkpt lat="42.809188668204534" lon="11.933151017081174"><ele>571.0</ele><time>2026-04-22T08:57:47.999Z</time></trkpt><trkpt lat="42.80931049854232" lon="11.933311999857613"><ele>569.3333333333334</ele><time>2026-04-22T08:57:48.999Z</time></trkpt><trkpt lat="42.80944464640686" lon="11.933468101595144"><ele>567.6666666666666</ele><time>2026-04-22T08:57:49.999Z</time></trkpt><trkpt lat="42.80958296798633" lon="11.933619954150215"><ele>566.0</ele><time>2026-04-22T08:57:50.999Z</time></trkpt><trkpt lat="42.80972430333563" lon="11.933782088792826"><ele>566.0</ele><time>2026-04-22T08:57:51.999Z</time></trkpt><trkpt lat="42.809861599748025" lon="11.933935804101356"><ele>566.0</ele><time>2026-04-22T08:57:52.999Z</time></trkpt><trkpt lat="42.80998783574945" lon="11.93408572965232"><ele>566.0</ele><time>2026-04-22T08:57:53.999Z</time></trkpt><trkpt lat="42.81010022394909" lon="11.93424065866971"><ele>567.3333333333333</ele><time>2026-04-22T08:57:54.999Z</time></trkpt><trkpt lat="42.810194674664444" lon="11.93440824897022"><ele>568.6666666666666</ele><time>2026-04-22T08:57:55.999Z</time></trkpt><trkpt lat="42.8102637503639" lon="11.934594285222898"><ele>570.0</ele><time>2026-04-22T08:57:56.999Z</time></trkpt><trkpt lat="42.81031283825196" lon="11.93479585679506"><ele>570.0</ele><time>2026-04-22T08:57:57.999Z</time></trkpt><trkpt lat="42.81035221649221" lon="11.935004649091143"><ele>570.0</ele><time>2026-04-22T08:57:58.999Z</time></trkpt><trkpt lat="42.81038596426727" lon="11.935215695608655"><ele>570.0</ele><time>2026-04-22T08:57:59.999Z</time></trkpt><trkpt lat="42.81039952486415" lon="11.935437752282699"><ele>570.6666666666666</ele><time>2026-04-22T08:58:00.999Z</time></trkpt><trkpt lat="42.810386211081735" lon="11.935663207593786"><ele>571.3333333333333</ele><time>2026-04-22T08:58:01.999Z</time></trkpt><trkpt lat="42.81034925433205" lon="11.935891298788517"><ele>572.0</ele><time>2026-04-22T08:58:02.999Z</time></trkpt><trkpt lat="42.8103027391939" lon="11.93611677678389"><ele>570.3333333333333</ele><time>2026-04-22T08:58:03.999Z</time></trkpt><trkpt lat="42.81025835202505" lon="11.936328336422358"><ele>568.6666666666666</ele><time>2026-04-22T08:58:04.999Z</time></trkpt><trkpt lat="42.810218754608954" lon="11.93653234756877"><ele>567.0</ele><time>2026-04-22T08:58:05.999Z</time></trkpt><trkpt lat="42.810185594059696" lon="11.936724639484598"><ele>565.0</ele><time>2026-04-22T08:58:06.999Z</time></trkpt><trkpt lat="42.81017431024465" lon="11.936908378662165"><ele>563.0</ele><time>2026-04-22T08:58:07.999Z</time></trkpt><trkpt lat="42.81019799532021" lon="11.937079185196255"><ele>561.0</ele><time>2026-04-22T08:58:08.999Z</time></trkpt><trkpt lat="42.810263147503115" lon="11.937239961679849"><ele>559.0</ele><time>2026-04-22T08:58:09.999Z</time></trkpt><trkpt lat="42.81035185445853" lon="11.937391576124627"><ele>559.0</ele><time>2026-04-22T08:58:10.999Z</time></trkpt><trkpt lat="42.81045334256372" lon="11.937531589879763"><ele>559.0</ele><time>2026-04-22T08:58:11.999Z</time></trkpt><trkpt lat="42.810540969857605" lon="11.937697753463588"><ele>559.0</ele><time>2026-04-22T08:58:12.999Z</time></trkpt><trkpt lat="42.81059839764442" lon="11.937890921697385"><ele>559.0</ele><time>2026-04-22T08:58:13.999Z</time></trkpt><trkpt lat="42.81063700342279" lon="11.938101223392458"><ele>557.6666666666667</ele><time>2026-04-22T08:58:14.999Z</time></trkpt><trkpt lat="42.81066433591563" lon="11.93832193406298"><ele>556.3333333333334</ele><time>2026-04-22T08:58:15.999Z</time></trkpt><trkpt lat="42.810654165537954" lon="11.938529969412961"><ele>555.0</ele><time>2026-04-22T08:58:16.999Z</time></trkpt><trkpt lat="42.81063830897435" lon="11.93871622125488"><ele>555.0</ele><time>2026-04-22T08:58:17.999Z</time></trkpt><trkpt lat="42.81058127402053" lon="11.93889351305066"><ele>555.0</ele><time>2026-04-22T08:58:18.999Z</time></trkpt><trkpt lat="42.81051193892045" lon="11.939078002848333"><ele>555.0</ele><time>2026-04-22T08:58:19.999Z</time></trkpt><trkpt lat="42.810435175253446" lon="11.939266014457848"><ele>554.6666666666666</ele><time>2026-04-22T08:58:20.999Z</time></trkpt><trkpt lat="42.81035482400628" lon="11.939465215516636"><ele>554.3333333333333</ele><time>2026-04-22T08:58:21.999Z</time></trkpt><trkpt lat="42.81028615137564" lon="11.939678303502529"><ele>554.0</ele><time>2026-04-22T08:58:22.999Z</time></trkpt><trkpt lat="42.81020424911609" lon="11.939885270630715"><ele>555.0</ele><time>2026-04-22T08:58:23.999Z</time></trkpt><trkpt lat="42.8101227265681" lon="11.94008719246324"><ele>556.0</ele><time>2026-04-22T08:58:24.999Z</time></trkpt><trkpt lat="42.810051858362904" lon="11.940272679173626"><ele>557.0</ele><time>2026-04-22T08:58:25.999Z</time></trkpt><trkpt lat="42.809993818486454" lon="11.940456639835425"><ele>557.0</ele><time>2026-04-22T08:58:26.999Z</time></trkpt><trkpt lat="42.809972395369755" lon="11.940632236683614"><ele>557.0</ele><time>2026-04-22T08:58:27.999Z</time></trkpt><trkpt lat="42.80997783532381" lon="11.940814097518393"><ele>557.0</ele><time>2026-04-22T08:58:28.999Z</time></trkpt><trkpt lat="42.81002158367644" lon="11.940989769337461"><ele>557.0</ele><time>2026-04-22T08:58:29.999Z</time></trkpt><trkpt lat="42.81008578934995" lon="11.941148733156538"><ele>557.6</ele><time>2026-04-22T08:58:31Z</time></trkpt><trkpt lat="42.810146875688545" lon="11.941284221920924"><ele>558.2</ele><time>2026-04-22T08:58:32Z</time></trkpt><trkpt lat="42.81016777504698" lon="11.94142877867257"><ele>558.8</ele><time>2026-04-22T08:58:33Z</time></trkpt><trkpt lat="42.81011711936086" lon="11.941565816717063"><ele>559.4</ele><time>2026-04-22T08:58:34Z</time></trkpt><trkpt lat="42.81004734963662" lon="11.941684069202825"><ele>560.0</ele><time>2026-04-22T08:58:35Z</time></trkpt><trkpt lat="42.809955611453695" lon="11.941798821113593"><ele>562.6666666666666</ele><time>2026-04-22T08:58:36Z</time></trkpt><trkpt lat="42.809851315229764" lon="11.941930435332253"><ele>565.3333333333334</ele><time>2026-04-22T08:58:37Z</time></trkpt><trkpt lat="42.809747171771214" lon="11.942089180036497"><ele>568.0</ele><time>2026-04-22T08:58:38Z</time></trkpt><trkpt lat="42.80963492346661" lon="11.942232702465997"><ele>568.0</ele><time>2026-04-22T08:58:39Z</time></trkpt><trkpt lat="42.809542352312505" lon="11.942364490380477"><ele>568.0</ele><time>2026-04-22T08:58:40Z</time></trkpt><trkpt lat="42.80947998296179" lon="11.94250284637322"><ele>568.0</ele><time>2026-04-22T08:58:41Z</time></trkpt><trkpt lat="42.80945632290905" lon="11.94266119774256"><ele>568.0</ele><time>2026-04-22T08:58:42Z</time></trkpt><trkpt lat="42.809460289702805" lon="11.942846630037053"><ele>568.25</ele><time>2026-04-22T08:58:43Z</time></trkpt><trkpt lat="42.80947581409204" lon="11.943050564932202"><ele>568.5</ele><time>2026-04-22T08:58:44Z</time></trkpt><trkpt lat="42.809490756004294" lon="11.943245241470812"><ele>568.75</ele><time>2026-04-22T08:58:45Z</time></trkpt><trkpt lat="42.80952081117318" lon="11.943417707408015"><ele>569.0</ele><time>2026-04-22T08:58:46Z</time></trkpt><trkpt lat="42.8095796158149" lon="11.943574191011487"><ele>568.0</ele><time>2026-04-22T08:58:47Z</time></trkpt><trkpt lat="42.80967486723033" lon="11.943712825018627"><ele>567.0</ele><time>2026-04-22T08:58:48Z</time></trkpt><trkpt lat="42.80978077870903" lon="11.943818965904065"><ele>566.0</ele><time>2026-04-22T08:58:49Z</time></trkpt><trkpt lat="42.809865809865066" lon="11.943917722117412"><ele>565.0</ele><time>2026-04-22T08:58:50Z</time></trkpt><trkpt lat="42.80990190575746" lon="11.944051343571145"><ele>565.0</ele><time>2026-04-22T08:58:51Z</time></trkpt><trkpt lat="42.80991586371354" lon="11.944197168372188"><ele>565.0</ele><time>2026-04-22T08:58:52Z</time></trkpt><trkpt lat="42.80989081928281" lon="11.944342275695812"><ele>565.0</ele><time>2026-04-22T08:58:53Z</time></trkpt><trkpt lat="42.809815156393135" lon="11.944466109870396"><ele>565.0</ele><time>2026-04-22T08:58:54Z</time></trkpt><trkpt lat="42.80975037305261" lon="11.944613769184922"><ele>565.0</ele><time>2026-04-22T08:58:55Z</time></trkpt><trkpt lat="42.80968492579228" lon="11.944782729564055"><ele>565.0</ele><time>2026-04-22T08:58:56Z</time></trkpt><trkpt lat="42.80960983317424" lon="11.944954412198207"><ele>565.0</ele><time>2026-04-22T08:58:57Z</time></trkpt><trkpt lat="42.809532005907954" lon="11.9451347846477"><ele>565.0</ele><time>2026-04-22T08:58:58Z</time></trkpt><trkpt lat="42.80945291933377" lon="11.945324204250568"><ele>566.0</ele><time>2026-04-22T08:58:59Z</time></trkpt><trkpt lat="42.80937127599063" lon="11.945519195662643"><ele>567.0</ele><time>2026-04-22T08:59:00Z</time></trkpt><trkpt lat="42.80928847950523" lon="11.945702041023724"><ele>568.0</ele><time>2026-04-22T08:59:01Z</time></trkpt><trkpt lat="42.809199197915454" lon="11.94586454304049"><ele>566.5</ele><time>2026-04-22T08:59:02Z</time></trkpt><trkpt lat="42.80910753069983" lon="11.946013909531535"><ele>565.0</ele><time>2026-04-22T08:59:03Z</time></trkpt><trkpt lat="42.809009747336994" lon="11.946148059464567"><ele>563.5</ele><time>2026-04-22T08:59:04Z</time></trkpt><trkpt lat="42.80889661892353" lon="11.946272897603523"><ele>562.0</ele><time>2026-04-22T08:59:05Z</time></trkpt><trkpt lat="42.808755008875195" lon="11.946350025256361"><ele>562.0</ele><time>2026-04-22T08:59:06Z</time></trkpt><trkpt lat="42.80861730220167" lon="11.946435855832268"><ele>562.0</ele><time>2026-04-22T08:59:07Z</time></trkpt><trkpt lat="42.808482509935985" lon="11.94651371020678"><ele>562.0</ele><time>2026-04-22T08:59:08Z</time></trkpt><trkpt lat="42.80836341259108" lon="11.946608219026867"><ele>562.0</ele><time>2026-04-22T08:59:09Z</time></trkpt><trkpt lat="42.80825332098853" lon="11.946695833614294"><ele>558.4</ele><time>2026-04-22T08:59:10Z</time></trkpt><trkpt lat="42.808169307017955" lon="11.946814193042325"><ele>554.8000000000001</ele><time>2026-04-22T08:59:11Z</time></trkpt><trkpt lat="42.8081246157464" lon="11.946950466635869"><ele>551.2</ele><time>2026-04-22T08:59:12Z</time></trkpt><trkpt lat="42.80811642882518" lon="11.947093660712623"><ele>547.6</ele><time>2026-04-22T08:59:13Z</time></trkpt><trkpt lat="42.80814947009035" lon="11.947227344688146"><ele>544.0</ele><time>2026-04-22T08:59:14Z</time></trkpt><trkpt lat="42.80822060477554" lon="11.947349672182412"><ele>544.0</ele><time>2026-04-22T08:59:15Z</time></trkpt><trkpt lat="42.80830778619228" lon="11.94747475994064"><ele>544.0</ele><time>2026-04-22T08:59:16Z</time></trkpt><trkpt lat="42.8083685101227" lon="11.947629960049996"><ele>544.0</ele><time>2026-04-22T08:59:17Z</time></trkpt><trkpt lat="42.80839714527795" lon="11.947785885202192"><ele>544.0</ele><time>2026-04-22T08:59:18Z</time></trkpt><trkpt lat="42.808383365317965" lon="11.947953756308896"><ele>541.75</ele><time>2026-04-22T08:59:19Z</time></trkpt><trkpt lat="42.80838004810055" lon="11.948116281400177"><ele>539.5</ele><time>2026-04-22T08:59:19.999Z</time></trkpt><trkpt lat="42.808410950439644" lon="11.948264040401408"><ele>537.25</ele><time>2026-04-22T08:59:20.999Z</time></trkpt><trkpt lat="42.80846101596611" lon="11.948394015257245"><ele>535.0</ele><time>2026-04-22T08:59:21.999Z</time></trkpt><trkpt lat="42.808552952054505" lon="11.948501354204213"><ele>535.0</ele><time>2026-04-22T08:59:22.999Z</time></trkpt><trkpt lat="42.80867125536844" lon="11.948594559812207"><ele>535.0</ele><time>2026-04-22T08:59:23.999Z</time></trkpt><trkpt lat="42.808795059390874" lon="11.94869518196247"><ele>535.0</ele><time>2026-04-22T08:59:24.999Z</time></trkpt><trkpt lat="42.808899954799216" lon="11.948815191830986"><ele>535.0</ele><time>2026-04-22T08:59:25.999Z</time></trkpt><trkpt lat="42.80899489039897" lon="11.948956444212337"><ele>535.0</ele><time>2026-04-22T08:59:26.999Z</time></trkpt><trkpt lat="42.80907415780524" lon="11.949118303770499"><ele>535.0</ele><time>2026-04-22T08:59:27.999Z</time></trkpt><trkpt lat="42.80913482169381" lon="11.949288929680435"><ele>535.0</ele><time>2026-04-22T08:59:28.999Z</time></trkpt><trkpt lat="42.80919944445789" lon="11.94943789686951"><ele>535.0</ele><time>2026-04-22T08:59:29.999Z</time></trkpt><trkpt lat="42.809292414982465" lon="11.949570385989839"><ele>531.3333333333334</ele><time>2026-04-22T08:59:30.999Z</time></trkpt><trkpt lat="42.809414919818146" lon="11.949678881100457"><ele>527.6666666666666</ele><time>2026-04-22T08:59:31.999Z</time></trkpt><trkpt lat="42.80955623046744" lon="11.949770548673877"><ele>524.0</ele><time>2026-04-22T08:59:32.999Z</time></trkpt><trkpt lat="42.80970279431714" lon="11.949849661437492"><ele>524.0</ele><time>2026-04-22T08:59:33.999Z</time></trkpt><trkpt lat="42.80985050665485" lon="11.949927320940999"><ele>524.0</ele><time>2026-04-22T08:59:34.999Z</time></trkpt><trkpt lat="42.810009441621055" lon="11.95001491716722"><ele>524.0</ele><time>2026-04-22T08:59:35.999Z</time></trkpt><trkpt lat="42.81017287566761" lon="11.95010791025116"><ele>519.6666666666666</ele><time>2026-04-22T08:59:36.999Z</time></trkpt><trkpt lat="42.81032572088646" lon="11.950197887462194"><ele>515.3333333333334</ele><time>2026-04-22T08:59:37.999Z</time></trkpt><trkpt lat="42.81047377852565" lon="11.950289397962415"><ele>511.0</ele><time>2026-04-22T08:59:38.999Z</time></trkpt><trkpt lat="42.810617061163946" lon="11.950376802043579"><ele>511.0</ele><time>2026-04-22T08:59:39.999Z</time></trkpt><trkpt lat="42.810756635164125" lon="11.950460046157115"><ele>511.0</ele><time>2026-04-22T08:59:40.999Z</time></trkpt><trkpt lat="42.810890208072955" lon="11.95055031442301"><ele>511.0</ele><time>2026-04-22T08:59:41.999Z</time></trkpt><trkpt lat="42.81101098432887" lon="11.950657532487785"><ele>511.0</ele><time>2026-04-22T08:59:42.999Z</time></trkpt><trkpt lat="42.81110353626437" lon="11.950817363560192"><ele>509.33333333333337</ele><time>2026-04-22T08:59:43.999Z</time></trkpt><trkpt lat="42.811216688699396" lon="11.950967378099037"><ele>507.66666666666663</ele><time>2026-04-22T08:59:44.999Z</time></trkpt><trkpt lat="42.81131047332226" lon="11.951148699012979"><ele>506.0</ele><time>2026-04-22T08:59:45.999Z</time></trkpt><trkpt lat="42.81139586646694" lon="11.951333991230824"><ele>506.0</ele><time>2026-04-22T08:59:46.999Z</time></trkpt><trkpt lat="42.81145448031124" lon="11.951546767556433"><ele>506.0</ele><time>2026-04-22T08:59:47.999Z</time></trkpt><trkpt lat="42.81151196243781" lon="11.951759440950955"><ele>506.0</ele><time>2026-04-22T08:59:48.999Z</time></trkpt><trkpt lat="42.81158128918262" lon="11.95195375315996"><ele>507.25</ele><time>2026-04-22T08:59:49.999Z</time></trkpt><trkpt lat="42.81163265174876" lon="11.952140702018973"><ele>508.5</ele><time>2026-04-22T08:59:50.999Z</time></trkpt><trkpt lat="42.81170361304066" lon="11.952300024697493"><ele>509.75</ele><time>2026-04-22T08:59:51.999Z</time></trkpt><trkpt lat="42.81179643495602" lon="11.952432609417505"><ele>511.0</ele><time>2026-04-22T08:59:52.999Z</time></trkpt><trkpt lat="42.81191379251192" lon="11.952538485524823"><ele>509.6666666666667</ele><time>2026-04-22T08:59:53.999Z</time></trkpt><trkpt lat="42.812044167093696" lon="11.952637038121512"><ele>508.33333333333337</ele><time>2026-04-22T08:59:54.999Z</time></trkpt><trkpt lat="42.81218190768738" lon="11.952744886034681"><ele>507.0</ele><time>2026-04-22T08:59:55.999Z</time></trkpt><trkpt lat="42.81231631071506" lon="11.952869997373426"><ele>507.0</ele><time>2026-04-22T08:59:56.999Z</time></trkpt><trkpt lat="42.81243560195581" lon="11.953015142737454"><ele>507.0</ele><time>2026-04-22T08:59:57.999Z</time></trkpt><trkpt lat="42.812542425234845" lon="11.953182751939638"><ele>507.0</ele><time>2026-04-22T08:59:58.999Z</time></trkpt><trkpt lat="42.812643764122846" lon="11.953364880233357"><ele>502.33333333333337</ele><time>2026-04-22T08:59:59.999Z</time></trkpt><trkpt lat="42.812736293019185" lon="11.95353851472409"><ele>497.6666666666667</ele><time>2026-04-22T09:00:00.999Z</time></trkpt><trkpt lat="42.81283004419048" lon="11.953708340802867"><ele>493.0</ele><time>2026-04-22T09:00:01.999Z</time></trkpt><trkpt lat="42.81292240980229" lon="11.953859972491085"><ele>493.0</ele><time>2026-04-22T09:00:02.999Z</time></trkpt><trkpt lat="42.812978371223096" lon="11.953993288743314"><ele>492.99999999999994</ele><time>2026-04-22T09:00:03.999Z</time></trkpt><trkpt lat="42.81299848431562" lon="11.95410870620297"><ele>492.99999999999994</ele><time>2026-04-22T09:00:04.999Z</time></trkpt><trkpt lat="42.812986585690254" lon="11.95424139797757"><ele>493.0</ele><time>2026-04-22T09:00:05.999Z</time></trkpt><trkpt lat="42.81295749641524" lon="11.95439633320399"><ele>493.0</ele><time>2026-04-22T09:00:06.999Z</time></trkpt><trkpt lat="42.81292296272762" lon="11.954569336293586"><ele>493.25</ele><time>2026-04-22T09:00:07.999Z</time></trkpt><trkpt lat="42.81283166403509" lon="11.954732926034142"><ele>493.5</ele><time>2026-04-22T09:00:08.999Z</time></trkpt><trkpt lat="42.8127347331029" lon="11.954885662226113"><ele>493.75</ele><time>2026-04-22T09:00:09.999Z</time></trkpt><trkpt lat="42.81264208936996" lon="11.955029217413335"><ele>494.0</ele><time>2026-04-22T09:00:10.999Z</time></trkpt><trkpt lat="42.81258488290533" lon="11.955176483424"><ele>494.0</ele><time>2026-04-22T09:00:11.999Z</time></trkpt><trkpt lat="42.81253363270255" lon="11.955331702246491"><ele>494.0</ele><time>2026-04-22T09:00:12.999Z</time></trkpt><trkpt lat="42.81252808261574" lon="11.95549910408768"><ele>494.0</ele><time>2026-04-22T09:00:13.999Z</time></trkpt><trkpt lat="42.812557014336356" lon="11.955672141222603"><ele>494.0</ele><time>2026-04-22T09:00:14.999Z</time></trkpt><trkpt lat="42.81259124474465" lon="11.955850286545548"><ele>492.25</ele><time>2026-04-22T09:00:15.999Z</time></trkpt><trkpt lat="42.81260676203824" lon="11.956046212160373"><ele>490.5</ele><time>2026-04-22T09:00:16.999Z</time></trkpt><trkpt lat="42.81257479266507" lon="11.956243427242416"><ele>488.75</ele><time>2026-04-22T09:00:17.999Z</time></trkpt><trkpt lat="42.81254481047923" lon="11.956436773135723"><ele>487.0</ele><time>2026-04-22T09:00:18.999Z</time></trkpt><trkpt lat="42.81249544680469" lon="11.95661776304372"><ele>484.0</ele><time>2026-04-22T09:00:19.999Z</time></trkpt><trkpt lat="42.81243570907577" lon="11.956784227992868"><ele>481.0</ele><time>2026-04-22T09:00:20.999Z</time></trkpt><trkpt lat="42.81236923324639" lon="11.956937724268068"><ele>478.0</ele><time>2026-04-22T09:00:21.999Z</time></trkpt><trkpt lat="42.81231579677505" lon="11.957086227139897"><ele>475.0</ele><time>2026-04-22T09:00:22.999Z</time></trkpt><trkpt lat="42.812304130963156" lon="11.957243620575905"><ele>475.0</ele><time>2026-04-22T09:00:23.999Z</time></trkpt><trkpt lat="42.812345187061226" lon="11.957408899403154"><ele>475.0</ele><time>2026-04-22T09:00:24.999Z</time></trkpt><trkpt lat="42.81239294022549" lon="11.957585202294137"><ele>475.0</ele><time>2026-04-22T09:00:25.999Z</time></trkpt><trkpt lat="42.81244980994375" lon="11.957766725628712"><ele>475.0</ele><time>2026-04-22T09:00:26.999Z</time></trkpt><trkpt lat="42.81251235225137" lon="11.957968917650337"><ele>472.6666666666667</ele><time>2026-04-22T09:00:27.999Z</time></trkpt><trkpt lat="42.81257580425038" lon="11.958168915400806"><ele>470.33333333333337</ele><time>2026-04-22T09:00:28.999Z</time></trkpt><trkpt lat="42.81263548565633" lon="11.958366081966515"><ele>468.0</ele><time>2026-04-22T09:00:29.999Z</time></trkpt><trkpt lat="42.812690865235446" lon="11.958556664935797"><ele>466.5</ele><time>2026-04-22T09:00:30.999Z</time></trkpt><trkpt lat="42.81274267607292" lon="11.958747546319298"><ele>465.0</ele><time>2026-04-22T09:00:31.999Z</time></trkpt><trkpt lat="42.812783109946494" lon="11.95893722733579"><ele>463.5</ele><time>2026-04-22T09:00:32.999Z</time></trkpt><trkpt lat="42.812812651203174" lon="11.959139895996767"><ele>462.0</ele><time>2026-04-22T09:00:33.999Z</time></trkpt><trkpt lat="42.81280345679172" lon="11.959352665628925"><ele>462.0</ele><time>2026-04-22T09:00:34.999Z</time></trkpt><trkpt lat="42.812789418773356" lon="11.95956162473649"><ele>462.0</ele><time>2026-04-22T09:00:35.999Z</time></trkpt><trkpt lat="42.812771982855544" lon="11.959779993555783"><ele>462.0</ele><time>2026-04-22T09:00:37Z</time></trkpt><trkpt lat="42.81272790744575" lon="11.959969246331378"><ele>460.75</ele><time>2026-04-22T09:00:38Z</time></trkpt><trkpt lat="42.81265209540502" lon="11.960144909366335"><ele>459.5</ele><time>2026-04-22T09:00:39Z</time></trkpt><trkpt lat="42.812587651770116" lon="11.960330787604212"><ele>458.25</ele><time>2026-04-22T09:00:40Z</time></trkpt><trkpt lat="42.81254822817349" lon="11.960517259015306"><ele>457.0</ele><time>2026-04-22T09:00:41Z</time></trkpt><trkpt lat="42.81251012063567" lon="11.960693472685334"><ele>457.0</ele><time>2026-04-22T09:00:42Z</time></trkpt><trkpt lat="42.81249388857007" lon="11.960864518649363"><ele>457.00000000000006</ele><time>2026-04-22T09:00:43Z</time></trkpt><trkpt lat="42.81250067960889" lon="11.961008251398715"><ele>457.00000000000006</ele><time>2026-04-22T09:00:44Z</time></trkpt><trkpt lat="42.81254001054104" lon="11.961141678402976"><ele>457.0</ele><time>2026-04-22T09:00:45Z</time></trkpt><trkpt lat="42.81261611658467" lon="11.961249718839543"><ele>457.0</ele><time>2026-04-22T09:00:46Z</time></trkpt><trkpt lat="42.812716617402025" lon="11.961344534892044"><ele>458.0</ele><time>2026-04-22T09:00:47Z</time></trkpt><trkpt lat="42.8128250806822" lon="11.961451076368524"><ele>459.0</ele><time>2026-04-22T09:00:48Z</time></trkpt><trkpt lat="42.812928712939694" lon="11.96157536746534"><ele>460.0</ele><time>2026-04-22T09:00:49Z</time></trkpt><trkpt lat="42.81302632468343" lon="11.96172263914237"><ele>461.0</ele><time>2026-04-22T09:00:50Z</time></trkpt><trkpt lat="42.81311260660493" lon="11.961882642986023"><ele>458.5</ele><time>2026-04-22T09:00:51Z</time></trkpt><trkpt lat="42.813188473827346" lon="11.962056227170937"><ele>456.0</ele><time>2026-04-22T09:00:52Z</time></trkpt><trkpt lat="42.81325478028102" lon="11.962227583536835"><ele>453.5</ele><time>2026-04-22T09:00:53Z</time></trkpt><trkpt lat="42.81331078359717" lon="11.962396709292127"><ele>451.0</ele><time>2026-04-22T09:00:54Z</time></trkpt><trkpt lat="42.81335739879795" lon="11.96256916457299"><ele>449.5</ele><time>2026-04-22T09:00:55Z</time></trkpt><trkpt lat="42.81338044731914" lon="11.962749052772171"><ele>448.0</ele><time>2026-04-22T09:00:56Z</time></trkpt><trkpt lat="42.813370776465284" lon="11.962922910033317"><ele>446.5</ele><time>2026-04-22T09:00:57Z</time></trkpt><trkpt lat="42.813345679473635" lon="11.963099152716024"><ele>445.0</ele><time>2026-04-22T09:00:58Z</time></trkpt><trkpt lat="42.81331123352016" lon="11.963284835583323"><ele>445.25</ele><time>2026-04-22T09:00:59Z</time></trkpt><trkpt lat="42.81326592110377" lon="11.963469478699347"><ele>445.5</ele><time>2026-04-22T09:01:00Z</time></trkpt><trkpt lat="42.81319678727628" lon="11.963650699972176"><ele>445.75</ele><time>2026-04-22T09:01:01Z</time></trkpt><trkpt lat="42.81311743796508" lon="11.96383376324642"><ele>446.0</ele><time>2026-04-22T09:01:02Z</time></trkpt><trkpt lat="42.81303173469576" lon="11.96401662859093"><ele>446.0</ele><time>2026-04-22T09:01:03Z</time></trkpt><trkpt lat="42.812954572079875" lon="11.964191263713596"><ele>446.0</ele><time>2026-04-22T09:01:04Z</time></trkpt><trkpt lat="42.81288057644002" lon="11.964355130460591"><ele>446.0</ele><time>2026-04-22T09:01:05Z</time></trkpt><trkpt lat="42.812797937003594" lon="11.96450708057289"><ele>446.0</ele><time>2026-04-22T09:01:06Z</time></trkpt><trkpt lat="42.812682562298875" lon="11.964627983471104"><ele>442.5</ele><time>2026-04-22T09:01:07Z</time></trkpt><trkpt lat="42.81257372275313" lon="11.964754494335466"><ele>439.0</ele><time>2026-04-22T09:01:08Z</time></trkpt><trkpt lat="42.81246821100827" lon="11.964882817360136"><ele>435.5</ele><time>2026-04-22T09:01:09Z</time></trkpt><trkpt lat="42.81237692019163" lon="11.965006982307525"><ele>432.0</ele><time>2026-04-22T09:01:10Z</time></trkpt><trkpt lat="42.81235144647929" lon="11.96516362820495"><ele>430.75</ele><time>2026-04-22T09:01:11Z</time></trkpt><trkpt lat="42.81233943328651" lon="11.965305051177262"><ele>429.5</ele><time>2026-04-22T09:01:12Z</time></trkpt><trkpt lat="42.81235396451815" lon="11.965458465458175"><ele>428.25</ele><time>2026-04-22T09:01:13Z</time></trkpt><trkpt lat="42.812376686808626" lon="11.96561962348216"><ele>427.0</ele><time>2026-04-22T09:01:14Z</time></trkpt><trkpt lat="42.81239823041599" lon="11.965793507121115"><ele>424.75</ele><time>2026-04-22T09:01:15Z</time></trkpt><trkpt lat="42.81241578739399" lon="11.965966400178923"><ele>422.5</ele><time>2026-04-22T09:01:16Z</time></trkpt><trkpt lat="42.812417673029124" lon="11.966152824399302"><ele>420.25</ele><time>2026-04-22T09:01:17Z</time></trkpt><trkpt lat="42.81244731900993" lon="11.966336423722959"><ele>418.0</ele><time>2026-04-22T09:01:18Z</time></trkpt><trkpt lat="42.81246282362482" lon="11.966530429098134"><ele>416.75</ele><time>2026-04-22T09:01:19Z</time></trkpt><trkpt lat="42.812478711727785" lon="11.96672179292552"><ele>415.5</ele><time>2026-04-22T09:01:20Z</time></trkpt><trkpt lat="42.81248839486475" lon="11.96691935821716"><ele>414.25</ele><time>2026-04-22T09:01:21Z</time></trkpt><trkpt lat="42.812495157454926" lon="11.967114953255557"><ele>413.0</ele><time>2026-04-22T09:01:22Z</time></trkpt><trkpt lat="42.81249736142652" lon="11.967305148259925"><ele>413.0</ele><time>2026-04-22T09:01:23Z</time></trkpt><trkpt lat="42.81249517561762" lon="11.967500295092496"><ele>413.0</ele><time>2026-04-22T09:01:23.999Z</time></trkpt><trkpt lat="42.81249631375454" lon="11.967690335933817"><ele>413.0</ele><time>2026-04-22T09:01:24.999Z</time></trkpt><trkpt lat="42.81249786246269" lon="11.967888539263756"><ele>413.0</ele><time>2026-04-22T09:01:25.999Z</time></trkpt><trkpt lat="42.81249766213752" lon="11.968089820156528"><ele>412.5</ele><time>2026-04-22T09:01:26.999Z</time></trkpt><trkpt lat="42.81249828902114" lon="11.968295382940141"><ele>412.0</ele><time>2026-04-22T09:01:27.999Z</time></trkpt><trkpt lat="42.81250283689643" lon="11.968499757961046"><ele>411.5</ele><time>2026-04-22T09:01:28.999Z</time></trkpt><trkpt lat="42.81249115750551" lon="11.968694365585078"><ele>411.0</ele><time>2026-04-22T09:01:29.999Z</time></trkpt><trkpt lat="42.81249545610215" lon="11.968876526355151"><ele>410.5</ele><time>2026-04-22T09:01:30.999Z</time></trkpt><trkpt lat="42.8125005650593" lon="11.969057423047428"><ele>410.0</ele><time>2026-04-22T09:01:31.999Z</time></trkpt><trkpt lat="42.81251539931281" lon="11.969226992397697"><ele>409.5</ele><time>2026-04-22T09:01:32.999Z</time></trkpt><trkpt lat="42.81252200043345" lon="11.969383266057223"><ele>409.0</ele><time>2026-04-22T09:01:33.999Z</time></trkpt><trkpt lat="42.812549693582014" lon="11.969515531542852"><ele>409.79999999999995</ele><time>2026-04-22T09:01:34.999Z</time></trkpt><trkpt lat="42.812599540494794" lon="11.96962796291582"><ele>410.59999999999997</ele><time>2026-04-22T09:01:35.999Z</time></trkpt><trkpt lat="42.812663174872895" lon="11.969743107990691"><ele>411.4</ele><time>2026-04-22T09:01:36.999Z</time></trkpt><trkpt lat="42.81274207706671" lon="11.969846802141545"><ele>412.2</ele><time>2026-04-22T09:01:37.999Z</time></trkpt><trkpt lat="42.81281896531837" lon="11.969941739434757"><ele>413.0</ele><time>2026-04-22T09:01:38.999Z</time></trkpt><trkpt lat="42.812889546537974" lon="11.970035357144607"><ele>415.59999999999997</ele><time>2026-04-22T09:01:39.999Z</time></trkpt><trkpt lat="42.81294306688536" lon="11.970116732158528"><ele>418.2</ele><time>2026-04-22T09:01:40.999Z</time></trkpt><trkpt lat="42.812984351538354" lon="11.970213008842215"><ele>420.8</ele><time>2026-04-22T09:01:41.999Z</time></trkpt><trkpt lat="42.81300506151878" lon="11.970332419939888"><ele>423.4</ele><time>2026-04-22T09:01:42.999Z</time></trkpt><trkpt lat="42.81299500712558" lon="11.970458641577867"><ele>426.0</ele><time>2026-04-22T09:01:43.999Z</time></trkpt><trkpt lat="42.81296684144757" lon="11.970610776420598"><ele>426.0</ele><time>2026-04-22T09:01:44.999Z</time></trkpt><trkpt lat="42.812932883509106" lon="11.970774318511417"><ele>426.0</ele><time>2026-04-22T09:01:45.999Z</time></trkpt><trkpt lat="42.81289909071612" lon="11.97093062706432"><ele>426.0</ele><time>2026-04-22T09:01:46.999Z</time></trkpt><trkpt lat="42.812882051826975" lon="11.971069917542726"><ele>426.0</ele><time>2026-04-22T09:01:47.999Z</time></trkpt><trkpt lat="42.8128956201245" lon="11.97118837231356"><ele>426.0</ele><time>2026-04-22T09:01:48.999Z</time></trkpt><trkpt lat="42.8129334341158" lon="11.971287436503987"><ele>428.3333333333333</ele><time>2026-04-22T09:01:49.999Z</time></trkpt><trkpt lat="42.81298312955014" lon="11.971348405230692"><ele>430.66666666666663</ele><time>2026-04-22T09:01:50.999Z</time></trkpt><trkpt lat="42.813082660269856" lon="11.971432833340854"><ele>433.0</ele><time>2026-04-22T09:01:52.999Z</time></trkpt><trkpt lat="42.81313470719368" lon="11.971488596728307"><ele>435.3333333333333</ele><time>2026-04-22T09:01:53.999Z</time></trkpt><trkpt lat="42.813187985660704" lon="11.971549625621423"><ele>437.66666666666663</ele><time>2026-04-22T09:01:54.999Z</time></trkpt><trkpt lat="42.81324555245936" lon="11.971607627649094"><ele>440.0</ele><time>2026-04-22T09:01:55.999Z</time></trkpt><trkpt lat="42.81330729515208" lon="11.971665222225912"><ele>440.16666666666663</ele><time>2026-04-22T09:01:56.999Z</time></trkpt><trkpt lat="42.81336957281036" lon="11.971726159586057"><ele>440.3333333333333</ele><time>2026-04-22T09:01:57.999Z</time></trkpt><trkpt lat="42.813425424264175" lon="11.971792429605534"><ele>440.5</ele><time>2026-04-22T09:01:58.999Z</time></trkpt><trkpt lat="42.81346787283533" lon="11.971862401894603"><ele>440.66666666666663</ele><time>2026-04-22T09:01:59.999Z</time></trkpt><trkpt lat="42.81349327405647" lon="11.97194126924536"><ele>440.8333333333333</ele><time>2026-04-22T09:02:00.999Z</time></trkpt><trkpt lat="42.81345879323816" lon="11.972080814965466"><ele>441.0</ele><time>2026-04-22T09:02:02.999Z</time></trkpt><trkpt lat="42.81335471672785" lon="11.972136186241677"><ele>441.0</ele><time>2026-04-22T09:02:04.999Z</time></trkpt><trkpt lat="42.813249869016715" lon="11.972224620422885"><ele>441.0</ele><time>2026-04-22T09:02:06.999Z</time></trkpt><trkpt lat="42.813184513064826" lon="11.972248166792909"><ele>441.0</ele><time>2026-04-22T09:02:07.999Z</time></trkpt><trkpt lat="42.81313698078426" lon="11.972327432041082"><ele>441.0</ele><time>2026-04-22T09:02:08.999Z</time></trkpt><trkpt lat="42.81308105747224" lon="11.972391499542558"><ele>441.0</ele><time>2026-04-22T09:02:09.999Z</time></trkpt><trkpt lat="42.81302465606786" lon="11.972458791195473"><ele>441.0</ele><time>2026-04-22T09:02:10.999Z</time></trkpt><trkpt lat="42.812973144454894" lon="11.97252869902033"><ele>439.6666666666667</ele><time>2026-04-22T09:02:11.999Z</time></trkpt><trkpt lat="42.81292190698891" lon="11.972600279653726"><ele>438.33333333333337</ele><time>2026-04-22T09:02:12.999Z</time></trkpt><trkpt lat="42.812869185434394" lon="11.972672393905603"><ele>437.0</ele><time>2026-04-22T09:02:13.999Z</time></trkpt><trkpt lat="42.81281150694851" lon="11.97274220545512"><ele>435.6666666666667</ele><time>2026-04-22T09:02:14.999Z</time></trkpt><trkpt lat="42.81275847584227" lon="11.97281682691167"><ele>434.33333333333337</ele><time>2026-04-22T09:02:15.999Z</time></trkpt><trkpt lat="42.81270270500928" lon="11.972892492158032"><ele>433.0</ele><time>2026-04-22T09:02:16.999Z</time></trkpt><trkpt lat="42.812642247927606" lon="11.972958092444328"><ele>433.33333333333337</ele><time>2026-04-22T09:02:17.999Z</time></trkpt><trkpt lat="42.812595881887376" lon="11.973020760792075"><ele>433.6666666666667</ele><time>2026-04-22T09:02:18.999Z</time></trkpt><trkpt lat="42.812544707594945" lon="11.973082140931036"><ele>434.0</ele><time>2026-04-22T09:02:19.999Z</time></trkpt><trkpt lat="42.81248984428151" lon="11.973150094347403"><ele>434.33333333333337</ele><time>2026-04-22T09:02:20.999Z</time></trkpt><trkpt lat="42.81243385134743" lon="11.973223693045595"><ele>434.6666666666667</ele><time>2026-04-22T09:02:21.999Z</time></trkpt><trkpt lat="42.812377017369826" lon="11.973304617417858"><ele>435.0</ele><time>2026-04-22T09:02:22.999Z</time></trkpt><trkpt lat="42.81231277499818" lon="11.97338786545573"><ele>435.0</ele><time>2026-04-22T09:02:23.999Z</time></trkpt><trkpt lat="42.81225028509371" lon="11.973472405209815"><ele>435.0</ele><time>2026-04-22T09:02:24.999Z</time></trkpt><trkpt lat="42.81218993854566" lon="11.973560783721327"><ele>435.0</ele><time>2026-04-22T09:02:25.999Z</time></trkpt><trkpt lat="42.81212011666546" lon="11.973640478025182"><ele>435.0</ele><time>2026-04-22T09:02:26.999Z</time></trkpt><trkpt lat="42.812050234562896" lon="11.973711785379097"><ele>435.0</ele><time>2026-04-22T09:02:27.999Z</time></trkpt><trkpt lat="42.81196694412447" lon="11.973745788314748"><ele>435.0</ele><time>2026-04-22T09:02:28.999Z</time></trkpt><trkpt lat="42.81188799425017" lon="11.973785194839582"><ele>437.3333333333333</ele><time>2026-04-22T09:02:29.999Z</time></trkpt><trkpt lat="42.81180920719997" lon="11.97382272551615"><ele>439.66666666666663</ele><time>2026-04-22T09:02:30.999Z</time></trkpt><trkpt lat="42.81174665695765" lon="11.97386870067246"><ele>442.0</ele><time>2026-04-22T09:02:31.999Z</time></trkpt><trkpt lat="42.81163766336636" lon="11.973901817628038"><ele>444.3333333333333</ele><time>2026-04-22T09:02:33.999Z</time></trkpt><trkpt lat="42.81155717779181" lon="11.973917921656104"><ele>446.66666666666663</ele><time>2026-04-22T09:02:35.999Z</time></trkpt><trkpt lat="42.81148451343867" lon="11.973909688040814"><ele>449.0</ele><time>2026-04-22T09:02:37.999Z</time></trkpt><trkpt lat="42.81139492000558" lon="11.973909643980255"><ele>448.99999999999994</ele><time>2026-04-22T09:02:39.999Z</time></trkpt><trkpt lat="42.81127877399155" lon="11.973916903091798"><ele>449.0</ele><time>2026-04-22T09:02:41.999Z</time></trkpt><trkpt lat="42.81120958066768" lon="11.973927400094238"><ele>449.0</ele><time>2026-04-22T09:02:43Z</time></trkpt><trkpt lat="42.81113555441658" lon="11.973939824253968"><ele>449.0</ele><time>2026-04-22T09:02:44Z</time></trkpt><trkpt lat="42.81106297497805" lon="11.973953541556273"><ele>448.99999999999994</ele><time>2026-04-22T09:02:45Z</time></trkpt><trkpt lat="42.81099207597934" lon="11.973963677429827"><ele>449.0</ele><time>2026-04-22T09:02:46Z</time></trkpt><trkpt lat="42.81092598482776" lon="11.973983138391835"><ele>448.6</ele><time>2026-04-22T09:02:47Z</time></trkpt><trkpt lat="42.81086038002274" lon="11.97400710127037"><ele>448.2</ele><time>2026-04-22T09:02:48Z</time></trkpt><trkpt lat="42.81074949464823" lon="11.974034727535912"><ele>447.80000000000007</ele><time>2026-04-22T09:02:50Z</time></trkpt><trkpt lat="42.81065336335742" lon="11.974108954271438"><ele>447.40000000000003</ele><time>2026-04-22T09:02:52Z</time></trkpt><trkpt lat="42.810591015912145" lon="11.97425116264524"><ele>447.0</ele><time>2026-04-22T09:02:54Z</time></trkpt><trkpt lat="42.81055459069164" lon="11.97433651355035"><ele>446.5</ele><time>2026-04-22T09:02:55Z</time></trkpt><trkpt lat="42.81051417560781" lon="11.974434821834105"><ele>446.0</ele><time>2026-04-22T09:02:56Z</time></trkpt><trkpt lat="42.8104725341974" lon="11.974538148174094"><ele>445.5</ele><time>2026-04-22T09:02:57Z</time></trkpt><trkpt lat="42.81043690591478" lon="11.974634399292487"><ele>445.0</ele><time>2026-04-22T09:02:58Z</time></trkpt><trkpt lat="42.81041426530458" lon="11.974734359784941"><ele>444.5</ele><time>2026-04-22T09:02:59Z</time></trkpt><trkpt lat="42.81040732894578" lon="11.974839990091388"><ele>444.0</ele><time>2026-04-22T09:03:00Z</time></trkpt><trkpt lat="42.81040986878045" lon="11.97493784011296"><ele>442.0</ele><time>2026-04-22T09:03:01Z</time></trkpt><trkpt lat="42.81041568754421" lon="11.975048699612422"><ele>440.0</ele><time>2026-04-22T09:03:02Z</time></trkpt><trkpt lat="42.8104169085447" lon="11.97517080028793"><ele>438.0</ele><time>2026-04-22T09:03:03Z</time></trkpt><trkpt lat="42.81041589159688" lon="11.975306425035317"><ele>436.0</ele><time>2026-04-22T09:03:04Z</time></trkpt><trkpt lat="42.81041657525688" lon="11.975448581836147"><ele>434.0</ele><time>2026-04-22T09:03:05Z</time></trkpt><trkpt lat="42.81041674681486" lon="11.97559598718589"><ele>434.0</ele><time>2026-04-22T09:03:06Z</time></trkpt><trkpt lat="42.8104150291134" lon="11.975748909734572"><ele>434.0</ele><time>2026-04-22T09:03:07Z</time></trkpt><trkpt lat="42.81040625069104" lon="11.975899569010048"><ele>434.0</ele><time>2026-04-22T09:03:08Z</time></trkpt><trkpt lat="42.8103908699559" lon="11.976041272686087"><ele>434.0</ele><time>2026-04-22T09:03:09Z</time></trkpt><trkpt lat="42.810351055380636" lon="11.976167161705401"><ele>434.0</ele><time>2026-04-22T09:03:10Z</time></trkpt><trkpt lat="42.81032199728169" lon="11.976296177361144"><ele>431.66666666666663</ele><time>2026-04-22T09:03:11Z</time></trkpt><trkpt lat="42.8102878843178" lon="11.976413336689196"><ele>429.3333333333333</ele><time>2026-04-22T09:03:12Z</time></trkpt><trkpt lat="42.810251011598965" lon="11.976526448003618"><ele>427.0</ele><time>2026-04-22T09:03:13Z</time></trkpt><trkpt lat="42.81018695724883" lon="11.976607307887454"><ele>424.66666666666663</ele><time>2026-04-22T09:03:14Z</time></trkpt><trkpt lat="42.81009681724852" lon="11.97661653284127"><ele>422.3333333333333</ele><time>2026-04-22T09:03:15Z</time></trkpt><trkpt lat="42.81001725872072" lon="11.976645189915436"><ele>420.0</ele><time>2026-04-22T09:03:16Z</time></trkpt><trkpt lat="42.809938413919674" lon="11.976669759162357"><ele>417.2</ele><time>2026-04-22T09:03:17Z</time></trkpt><trkpt lat="42.80985996319047" lon="11.976707896692464"><ele>414.4</ele><time>2026-04-22T09:03:18Z</time></trkpt><trkpt lat="42.809774201659984" lon="11.976771225050145"><ele>411.6</ele><time>2026-04-22T09:03:19Z</time></trkpt><trkpt lat="42.809689661460695" lon="11.976870417064065"><ele>408.8</ele><time>2026-04-22T09:03:20Z</time></trkpt><trkpt lat="42.80961497802784" lon="11.97698673254371"><ele>406.0</ele><time>2026-04-22T09:03:21Z</time></trkpt><trkpt lat="42.809557503399866" lon="11.977107223249583"><ele>406.0</ele><time>2026-04-22T09:03:22Z</time></trkpt><trkpt lat="42.80950219215882" lon="11.977224458645905"><ele>406.0</ele><time>2026-04-22T09:03:23Z</time></trkpt><trkpt lat="42.809441751864185" lon="11.977331942332437"><ele>406.0</ele><time>2026-04-22T09:03:24Z</time></trkpt><trkpt lat="42.80936189267475" lon="11.977405265019945"><ele>406.0</ele><time>2026-04-22T09:03:25Z</time></trkpt><trkpt lat="42.80927579883839" lon="11.977452157266336"><ele>406.0</ele><time>2026-04-22T09:03:26Z</time></trkpt><trkpt lat="42.80918493508676" lon="11.977486002204309"><ele>405.4</ele><time>2026-04-22T09:03:27Z</time></trkpt><trkpt lat="42.809091559338995" lon="11.97751819380041"><ele>404.8</ele><time>2026-04-22T09:03:28Z</time></trkpt><trkpt lat="42.809004220126944" lon="11.97757374834436"><ele>404.2</ele><time>2026-04-22T09:03:29Z</time></trkpt><trkpt lat="42.808937755318176" lon="11.977670814631384"><ele>403.59999999999997</ele><time>2026-04-22T09:03:30Z</time></trkpt><trkpt lat="42.80886305945349" lon="11.977763941644456"><ele>403.0</ele><time>2026-04-22T09:03:31Z</time></trkpt><trkpt lat="42.808802555586645" lon="11.977894083651487"><ele>402.25</ele><time>2026-04-22T09:03:32Z</time></trkpt><trkpt lat="42.80878303589822" lon="11.978060503264812"><ele>401.5</ele><time>2026-04-22T09:03:33Z</time></trkpt><trkpt lat="42.80877673270888" lon="11.978223387067004"><ele>400.75</ele><time>2026-04-22T09:03:34Z</time></trkpt><trkpt lat="42.80877737834171" lon="11.978411272866461"><ele>400.0</ele><time>2026-04-22T09:03:35Z</time></trkpt><trkpt lat="42.80877809068981" lon="11.978611115584705"><ele>397.75</ele><time>2026-04-22T09:03:36Z</time></trkpt><trkpt lat="42.80877535714737" lon="11.978804429931609"><ele>395.5</ele><time>2026-04-22T09:03:36.999Z</time></trkpt><trkpt lat="42.808741612229795" lon="11.978982727476561"><ele>393.25</ele><time>2026-04-22T09:03:37.999Z</time></trkpt><trkpt lat="42.80870191752944" lon="11.979147297510812"><ele>391.0</ele><time>2026-04-22T09:03:38.999Z</time></trkpt><trkpt lat="42.808647290961204" lon="11.979280660422631"><ele>390.8</ele><time>2026-04-22T09:03:39.999Z</time></trkpt><trkpt lat="42.80861089635035" lon="11.979407477953167"><ele>390.6</ele><time>2026-04-22T09:03:40.999Z</time></trkpt><trkpt lat="42.80859997118648" lon="11.979531774287208"><ele>390.4</ele><time>2026-04-22T09:03:41.999Z</time></trkpt><trkpt lat="42.80856874139275" lon="11.979637701575719"><ele>390.2</ele><time>2026-04-22T09:03:42.999Z</time></trkpt><trkpt lat="42.80858344961048" lon="11.979762551679208"><ele>390.0</ele><time>2026-04-22T09:03:43.999Z</time></trkpt><trkpt lat="42.808559907043794" lon="11.979902942572368"><ele>390.0</ele><time>2026-04-22T09:03:44.999Z</time></trkpt><trkpt lat="42.80853761259468" lon="11.980056619678285"><ele>390.0</ele><time>2026-04-22T09:03:45.999Z</time></trkpt><trkpt lat="42.8085010731387" lon="11.980217576514931"><ele>390.0</ele><time>2026-04-22T09:03:46.999Z</time></trkpt><trkpt lat="42.808455716721014" lon="11.980388164314595"><ele>390.0</ele><time>2026-04-22T09:03:47.999Z</time></trkpt><trkpt lat="42.808404492329565" lon="11.980569309189018"><ele>390.0</ele><time>2026-04-22T09:03:48.999Z</time></trkpt><trkpt lat="42.808351505351496" lon="11.98073822347449"><ele>390.0</ele><time>2026-04-22T09:03:49.999Z</time></trkpt><trkpt lat="42.80830667349438" lon="11.980905383859325"><ele>390.0</ele><time>2026-04-22T09:03:50.999Z</time></trkpt><trkpt lat="42.80825831559531" lon="11.981076110919092"><ele>390.0</ele><time>2026-04-22T09:03:51.999Z</time></trkpt><trkpt lat="42.8082077949318" lon="11.981247845512797"><ele>388.5</ele><time>2026-04-22T09:03:52.999Z</time></trkpt><trkpt lat="42.80815213795703" lon="11.981407544216104"><ele>387.0</ele><time>2026-04-22T09:03:53.999Z</time></trkpt><trkpt lat="42.80808577769497" lon="11.9815475939526"><ele>385.5</ele><time>2026-04-22T09:03:54.999Z</time></trkpt><trkpt lat="42.80800326846311" lon="11.981668889263826"><ele>384.0</ele><time>2026-04-22T09:03:55.999Z</time></trkpt><trkpt lat="42.80791141515667" lon="11.981775752418553"><ele>383.25</ele><time>2026-04-22T09:03:56.999Z</time></trkpt><trkpt lat="42.80780666007981" lon="11.981838950994078"><ele>382.5</ele><time>2026-04-22T09:03:57.999Z</time></trkpt><trkpt lat="42.80770080078572" lon="11.981898411319314"><ele>381.75</ele><time>2026-04-22T09:03:58.999Z</time></trkpt><trkpt lat="42.8075810469966" lon="11.98191418987225"><ele>381.0</ele><time>2026-04-22T09:03:59.999Z</time></trkpt><trkpt lat="42.80745270250492" lon="11.981913899749944"><ele>381.0</ele><time>2026-04-22T09:04:00.999Z</time></trkpt><trkpt lat="42.80731856062996" lon="11.981909550587089"><ele>381.0</ele><time>2026-04-22T09:04:01.999Z</time></trkpt><trkpt lat="42.80718861961861" lon="11.981908530945544"><ele>381.0</ele><time>2026-04-22T09:04:02.999Z</time></trkpt><trkpt lat="42.807062034712374" lon="11.981948101246344"><ele>381.0</ele><time>2026-04-22T09:04:03.999Z</time></trkpt><trkpt lat="42.806939594619976" lon="11.981992946435028"><ele>380.75</ele><time>2026-04-22T09:04:04.999Z</time></trkpt><trkpt lat="42.8068201146307" lon="11.98207008369227"><ele>380.5</ele><time>2026-04-22T09:04:05.999Z</time></trkpt><trkpt lat="42.80670628398498" lon="11.98215743674963"><ele>380.25</ele><time>2026-04-22T09:04:06.999Z</time></trkpt><trkpt lat="42.80659543028112" lon="11.982244579571258"><ele>380.0</ele><time>2026-04-22T09:04:07.999Z</time></trkpt><trkpt lat="42.8064956410861" lon="11.98234364060346"><ele>380.0</ele><time>2026-04-22T09:04:08.999Z</time></trkpt><trkpt lat="42.80640999432519" lon="11.982461644350916"><ele>380.0</ele><time>2026-04-22T09:04:09.999Z</time></trkpt><trkpt lat="42.806346693902796" lon="11.98259813812998"><ele>380.0</ele><time>2026-04-22T09:04:10.999Z</time></trkpt><trkpt lat="42.806317439782454" lon="11.982749333871883"><ele>380.0</ele><time>2026-04-22T09:04:11.999Z</time></trkpt><trkpt lat="42.80631725101889" lon="11.982905786052395"><ele>378.25</ele><time>2026-04-22T09:04:12.999Z</time></trkpt><trkpt lat="42.8063480976422" lon="11.983055656744936"><ele>376.5</ele><time>2026-04-22T09:04:13.999Z</time></trkpt><trkpt lat="42.80639770994713" lon="11.983203305005064"><ele>374.75</ele><time>2026-04-22T09:04:14.999Z</time></trkpt><trkpt lat="42.80646508666006" lon="11.983347102838097"><ele>373.0</ele><time>2026-04-22T09:04:15.999Z</time></trkpt><trkpt lat="42.80653469102232" lon="11.983500976685889"><ele>370.75</ele><time>2026-04-22T09:04:16.999Z</time></trkpt><trkpt lat="42.80660478314247" lon="11.983669156450912"><ele>368.5</ele><time>2026-04-22T09:04:17.999Z</time></trkpt><trkpt lat="42.80667448740918" lon="11.983848635479116"><ele>366.25</ele><time>2026-04-22T09:04:18.999Z</time></trkpt><trkpt lat="42.80673798637822" lon="11.984029232923715"><ele>364.0</ele><time>2026-04-22T09:04:19.999Z</time></trkpt><trkpt lat="42.80678799039574" lon="11.984210573590937"><ele>362.5</ele><time>2026-04-22T09:04:20.999Z</time></trkpt><trkpt lat="42.806821130639044" lon="11.984399937176038"><ele>361.0</ele><time>2026-04-22T09:04:21.999Z</time></trkpt><trkpt lat="42.806809398907795" lon="11.98459115262931"><ele>359.5</ele><time>2026-04-22T09:04:22.999Z</time></trkpt><trkpt lat="42.80680267237697" lon="11.984784367404886"><ele>358.0</ele><time>2026-04-22T09:04:23.999Z</time></trkpt><trkpt lat="42.80679055104817" lon="11.9849737311774"><ele>356.75</ele><time>2026-04-22T09:04:24.999Z</time></trkpt><trkpt lat="42.80679128250488" lon="11.985166772021966"><ele>355.5</ele><time>2026-04-22T09:04:25.999Z</time></trkpt><trkpt lat="42.80677266014958" lon="11.985356062561246"><ele>354.25</ele><time>2026-04-22T09:04:26.999Z</time></trkpt><trkpt lat="42.80675679393349" lon="11.985552550901575"><ele>353.0</ele><time>2026-04-22T09:04:27.999Z</time></trkpt><trkpt lat="42.80674361779795" lon="11.985756813758288"><ele>352.5</ele><time>2026-04-22T09:04:28.999Z</time></trkpt><trkpt lat="42.806727811322524" lon="11.985965582431282"><ele>352.0</ele><time>2026-04-22T09:04:29.999Z</time></trkpt><trkpt lat="42.80671093664009" lon="11.986163740914629"><ele>351.5</ele><time>2026-04-22T09:04:30.999Z</time></trkpt><trkpt lat="42.806691805662496" lon="11.986359982672202"><ele>351.0</ele><time>2026-04-22T09:04:31.999Z</time></trkpt><trkpt lat="42.80666366370032" lon="11.986553467965024"><ele>350.0</ele><time>2026-04-22T09:04:32.999Z</time></trkpt><trkpt lat="42.806625171386955" lon="11.986741662321451"><ele>349.0</ele><time>2026-04-22T09:04:33.999Z</time></trkpt><trkpt lat="42.806576735803496" lon="11.986935339211827"><ele>348.0</ele><time>2026-04-22T09:04:34.999Z</time></trkpt><trkpt lat="42.806529780692415" lon="11.98714327228799"><ele>348.0</ele><time>2026-04-22T09:04:35.999Z</time></trkpt><trkpt lat="42.80648765304836" lon="11.98736316119643"><ele>348.0</ele><time>2026-04-22T09:04:36.999Z</time></trkpt><trkpt lat="42.80643762381216" lon="11.987586742022577"><ele>348.0</ele><time>2026-04-22T09:04:37.999Z</time></trkpt><trkpt lat="42.80638952459308" lon="11.987798775074197"><ele>347.0</ele><time>2026-04-22T09:04:38.999Z</time></trkpt><trkpt lat="42.80634073289987" lon="11.988015605759736"><ele>346.0</ele><time>2026-04-22T09:04:39.999Z</time></trkpt><trkpt lat="42.80629450082596" lon="11.98823578870745"><ele>345.0</ele><time>2026-04-22T09:04:40.999Z</time></trkpt><trkpt lat="42.806231770708344" lon="11.988455910669082"><ele>344.0</ele><time>2026-04-22T09:04:41.999Z</time></trkpt><trkpt lat="42.80617999640352" lon="11.988693226910213"><ele>343.0</ele><time>2026-04-22T09:04:42.999Z</time></trkpt><trkpt lat="42.80612529163741" lon="11.9889439753063"><ele>342.0</ele><time>2026-04-22T09:04:43.999Z</time></trkpt><trkpt lat="42.806068557732104" lon="11.989204024395091"><ele>341.3333333333333</ele><time>2026-04-22T09:04:44.999Z</time></trkpt><trkpt lat="42.80601283223971" lon="11.989459960463252"><ele>340.66666666666663</ele><time>2026-04-22T09:04:45.999Z</time></trkpt><trkpt lat="42.80595788288772" lon="11.989714871415435"><ele>340.0</ele><time>2026-04-22T09:04:46.999Z</time></trkpt><trkpt lat="42.80591699555472" lon="11.989957913253702"><ele>343.0</ele><time>2026-04-22T09:04:47.999Z</time></trkpt><trkpt lat="42.80586066987724" lon="11.990184932930081"><ele>346.0</ele><time>2026-04-22T09:04:49Z</time></trkpt><trkpt lat="42.805817598946724" lon="11.990383714962269"><ele>349.0</ele><time>2026-04-22T09:04:50Z</time></trkpt><trkpt lat="42.80576505000355" lon="11.990566019203914"><ele>349.0</ele><time>2026-04-22T09:04:51Z</time></trkpt><trkpt lat="42.80569089393081" lon="11.990721879166534"><ele>349.0</ele><time>2026-04-22T09:04:52Z</time></trkpt><trkpt lat="42.80559008623346" lon="11.990854578610255"><ele>349.0</ele><time>2026-04-22T09:04:53Z</time></trkpt><trkpt lat="42.80546640710572" lon="11.990959310464412"><ele>349.0</ele><time>2026-04-22T09:04:54Z</time></trkpt><trkpt lat="42.80532830522365" lon="11.991027000971537"><ele>347.0</ele><time>2026-04-22T09:04:55Z</time></trkpt><trkpt lat="42.80517686542497" lon="11.991025080642626"><ele>345.0</ele><time>2026-04-22T09:04:56Z</time></trkpt><trkpt lat="42.80502649046159" lon="11.990995933507769"><ele>343.0</ele><time>2026-04-22T09:04:57Z</time></trkpt><trkpt lat="42.80486774565937" lon="11.990944464837163"><ele>348.3333333333333</ele><time>2026-04-22T09:04:58Z</time></trkpt><trkpt lat="42.8047067984824" lon="11.990892108389062"><ele>353.6666666666667</ele><time>2026-04-22T09:04:59Z</time></trkpt><trkpt lat="42.80456025516726" lon="11.990864874248656"><ele>359.0</ele><time>2026-04-22T09:05:00Z</time></trkpt><trkpt lat="42.80440900801837" lon="11.990850502130762"><ele>355.33333333333337</ele><time>2026-04-22T09:05:01Z</time></trkpt><trkpt lat="42.80426348992917" lon="11.990880378241291"><ele>351.6666666666667</ele><time>2026-04-22T09:05:02Z</time></trkpt><trkpt lat="42.8041151387001" lon="11.990937246883423"><ele>348.0</ele><time>2026-04-22T09:05:03Z</time></trkpt><trkpt lat="42.8039652068618" lon="11.991030274818232"><ele>348.0</ele><time>2026-04-22T09:05:04Z</time></trkpt><trkpt lat="42.80382582524439" lon="11.991166083339335"><ele>348.0</ele><time>2026-04-22T09:05:05Z</time></trkpt><trkpt lat="42.80369734053526" lon="11.991328300786249"><ele>348.0</ele><time>2026-04-22T09:05:06Z</time></trkpt><trkpt lat="42.803588730417246" lon="11.991507628176866"><ele>344.3333333333333</ele><time>2026-04-22T09:05:07Z</time></trkpt><trkpt lat="42.8034844652549" lon="11.991711124998831"><ele>340.66666666666663</ele><time>2026-04-22T09:05:08Z</time></trkpt><trkpt lat="42.80337497567332" lon="11.991897148381888"><ele>337.0</ele><time>2026-04-22T09:05:09Z</time></trkpt><trkpt lat="42.80327166694002" lon="11.992080626611525"><ele>337.0</ele><time>2026-04-22T09:05:10Z</time></trkpt><trkpt lat="42.803170025188756" lon="11.99226396969268"><ele>337.0</ele><time>2026-04-22T09:05:11Z</time></trkpt><trkpt lat="42.80306120818136" lon="11.992460254560203"><ele>337.0</ele><time>2026-04-22T09:05:12Z</time></trkpt><trkpt lat="42.80293940876188" lon="11.992676907096074"><ele>336.0</ele><time>2026-04-22T09:05:13Z</time></trkpt><trkpt lat="42.80280356269607" lon="11.992918875614983"><ele>335.0</ele><time>2026-04-22T09:05:14Z</time></trkpt><trkpt lat="42.80266026109045" lon="11.99315707498198"><ele>332.0</ele><time>2026-04-22T09:05:15Z</time></trkpt><trkpt lat="42.80252083456938" lon="11.99339318908949"><ele>329.0</ele><time>2026-04-22T09:05:16Z</time></trkpt><trkpt lat="42.80240158608506" lon="11.993632209863042"><ele>326.0</ele><time>2026-04-22T09:05:17Z</time></trkpt><trkpt lat="42.8022643715881" lon="11.993844176092326"><ele>326.0</ele><time>2026-04-22T09:05:18Z</time></trkpt><trkpt lat="42.802135717280585" lon="11.994061201951988"><ele>326.0</ele><time>2026-04-22T09:05:19Z</time></trkpt><trkpt lat="42.80200133771142" lon="11.994277962642986"><ele>326.0</ele><time>2026-04-22T09:05:20Z</time></trkpt><trkpt lat="42.80185817836569" lon="11.994487862727969"><ele>326.6666666666667</ele><time>2026-04-22T09:05:21Z</time></trkpt><trkpt lat="42.80170813439052" lon="11.99469140527143"><ele>327.3333333333333</ele><time>2026-04-22T09:05:22Z</time></trkpt><trkpt lat="42.801556772432214" lon="11.994893180581775"><ele>328.0</ele><time>2026-04-22T09:05:23Z</time></trkpt><trkpt lat="42.80139629492097" lon="11.995093011353918"><ele>329.0</ele><time>2026-04-22T09:05:24Z</time></trkpt><trkpt lat="42.80123044676321" lon="11.995288404728253"><ele>330.0</ele><time>2026-04-22T09:05:25Z</time></trkpt><trkpt lat="42.80105719854097" lon="11.995479253333436"><ele>331.0</ele><time>2026-04-22T09:05:26Z</time></trkpt><trkpt lat="42.800891054272064" lon="11.995665641112522"><ele>330.0</ele><time>2026-04-22T09:05:27Z</time></trkpt><trkpt lat="42.800732112979894" lon="11.995850584680666"><ele>329.0</ele><time>2026-04-22T09:05:28Z</time></trkpt><trkpt lat="42.80057737180048" lon="11.996024477794267"><ele>328.0</ele><time>2026-04-22T09:05:29Z</time></trkpt><trkpt lat="42.8004301683667" lon="11.996178359975685"><ele>328.0</ele><time>2026-04-22T09:05:30Z</time></trkpt><trkpt lat="42.80027037258671" lon="11.996283651920976"><ele>328.0</ele><time>2026-04-22T09:05:31Z</time></trkpt><trkpt lat="42.800111892374744" lon="11.99638039115095"><ele>328.0</ele><time>2026-04-22T09:05:32Z</time></trkpt><trkpt lat="42.799938828706075" lon="11.996455701173323"><ele>330.0</ele><time>2026-04-22T09:05:33Z</time></trkpt><trkpt lat="42.79976338531715" lon="11.99652069814386"><ele>332.0</ele><time>2026-04-22T09:05:34Z</time></trkpt><trkpt lat="42.79959249431271" lon="11.99660136008643"><ele>334.0</ele><time>2026-04-22T09:05:35Z</time></trkpt><trkpt lat="42.799417009270094" lon="11.996684063666091"><ele>332.3333333333333</ele><time>2026-04-22T09:05:36Z</time></trkpt><trkpt lat="42.79925190931619" lon="11.996774019733495"><ele>330.6666666666667</ele><time>2026-04-22T09:05:37Z</time></trkpt><trkpt lat="42.799091092620145" lon="11.996884949675849"><ele>329.0</ele><time>2026-04-22T09:05:38Z</time></trkpt><trkpt lat="42.79893581135854" lon="11.997013761576788"><ele>329.0</ele><time>2026-04-22T09:05:39Z</time></trkpt><trkpt lat="42.798763725066365" lon="11.99713297024573"><ele>329.0</ele><time>2026-04-22T09:05:40Z</time></trkpt><trkpt lat="42.798598457066525" lon="11.997275070976777"><ele>329.0</ele><time>2026-04-22T09:05:41Z</time></trkpt><trkpt lat="42.79842498104284" lon="11.997403019610752"><ele>325.6666666666667</ele><time>2026-04-22T09:05:42Z</time></trkpt><trkpt lat="42.798251095857324" lon="11.997537370568638"><ele>322.3333333333333</ele><time>2026-04-22T09:05:43Z</time></trkpt><trkpt lat="42.798076458313595" lon="11.997669870137608"><ele>319.0</ele><time>2026-04-22T09:05:44Z</time></trkpt><trkpt lat="42.79791057739071" lon="11.997802065278341"><ele>319.0</ele><time>2026-04-22T09:05:45Z</time></trkpt><trkpt lat="42.79774826268421" lon="11.997930422060358"><ele>319.0</ele><time>2026-04-22T09:05:46Z</time></trkpt><trkpt lat="42.79759068347064" lon="11.99806203208353"><ele>319.0</ele><time>2026-04-22T09:05:47Z</time></trkpt><trkpt lat="42.797435533053985" lon="11.998196363084471"><ele>316.3333333333333</ele><time>2026-04-22T09:05:48Z</time></trkpt><trkpt lat="42.79729947497782" lon="11.99836183616872"><ele>313.6666666666667</ele><time>2026-04-22T09:05:49Z</time></trkpt><trkpt lat="42.79717817807176" lon="11.998550177639924"><ele>311.0</ele><time>2026-04-22T09:05:50Z</time></trkpt><trkpt lat="42.79708296264045" lon="11.998762836690359"><ele>311.0</ele><time>2026-04-22T09:05:51Z</time></trkpt><trkpt lat="42.797006981682856" lon="11.999005360247121"><ele>311.0</ele><time>2026-04-22T09:05:52Z</time></trkpt><trkpt lat="42.79695723328515" lon="11.999256217637896"><ele>311.0</ele><time>2026-04-22T09:05:53Z</time></trkpt><trkpt lat="42.79691943774259" lon="11.999524552306038"><ele>310.0</ele><time>2026-04-22T09:05:53.999Z</time></trkpt><trkpt lat="42.796889251118024" lon="11.99979990758925"><ele>309.0</ele><time>2026-04-22T09:05:54.999Z</time></trkpt><trkpt lat="42.79686142896897" lon="12.000081282283476"><ele>308.0</ele><time>2026-04-22T09:05:55.999Z</time></trkpt><trkpt lat="42.7968299865189" lon="12.000367918094184"><ele>309.33333333333337</ele><time>2026-04-22T09:05:56.999Z</time></trkpt><trkpt lat="42.79679671406517" lon="12.000657613058419"><ele>310.6666666666667</ele><time>2026-04-22T09:05:57.999Z</time></trkpt><trkpt lat="42.79676571848858" lon="12.000948563347388"><ele>312.0</ele><time>2026-04-22T09:05:58.999Z</time></trkpt><trkpt lat="42.796732325982795" lon="12.001229028974441"><ele>312.0</ele><time>2026-04-22T09:05:59.999Z</time></trkpt><trkpt lat="42.79670110835931" lon="12.001514564558047"><ele>312.0</ele><time>2026-04-22T09:06:00.999Z</time></trkpt><trkpt lat="42.79667462015778" lon="12.001808022980596"><ele>312.0</ele><time>2026-04-22T09:06:01.999Z</time></trkpt><trkpt lat="42.79666440395556" lon="12.002098458986557"><ele>310.3333333333333</ele><time>2026-04-22T09:06:02.999Z</time></trkpt><trkpt lat="42.79666339197538" lon="12.00239217977403"><ele>308.66666666666663</ele><time>2026-04-22T09:06:03.999Z</time></trkpt><trkpt lat="42.79666429419533" lon="12.002703405759249"><ele>307.0</ele><time>2026-04-22T09:06:04.999Z</time></trkpt><trkpt lat="42.796661741990185" lon="12.003003937448169"><ele>304.0</ele><time>2026-04-22T09:06:05.999Z</time></trkpt><trkpt lat="42.79665922630039" lon="12.003306883144766"><ele>301.0</ele><time>2026-04-22T09:06:06.999Z</time></trkpt><trkpt lat="42.796657093690285" lon="12.003619810386246"><ele>299.0</ele><time>2026-04-22T09:06:07.999Z</time></trkpt><trkpt lat="42.79665492479348" lon="12.003934976900851"><ele>297.0</ele><time>2026-04-22T09:06:08.999Z</time></trkpt><trkpt lat="42.796652478011715" lon="12.004244762747781"><ele>294.0</ele><time>2026-04-22T09:06:09.999Z</time></trkpt><trkpt lat="42.79664883923842" lon="12.004569161366177"><ele>291.0</ele><time>2026-04-22T09:06:10.999Z</time></trkpt><trkpt lat="42.796649407402676" lon="12.004877997294544"><ele>288.5</ele><time>2026-04-22T09:06:11.999Z</time></trkpt><trkpt lat="42.79665473426836" lon="12.005196856781792"><ele>286.0</ele><time>2026-04-22T09:06:12.999Z</time></trkpt><trkpt lat="42.796658733756736" lon="12.005510427572096"><ele>286.0</ele><time>2026-04-22T09:06:13.999Z</time></trkpt><trkpt lat="42.79666541101274" lon="12.005821531116707"><ele>286.0</ele><time>2026-04-22T09:06:14.999Z</time></trkpt><trkpt lat="42.79667075807602" lon="12.006131853662682"><ele>283.5</ele><time>2026-04-22T09:06:15.999Z</time></trkpt><trkpt lat="42.79667584499182" lon="12.006444092863893"><ele>281.0</ele><time>2026-04-22T09:06:16.999Z</time></trkpt><trkpt lat="42.79668099199486" lon="12.006751203090626"><ele>280.33333333333337</ele><time>2026-04-22T09:06:17.999Z</time></trkpt><trkpt lat="42.796689169641525" lon="12.007038658867582"><ele>279.6666666666667</ele><time>2026-04-22T09:06:18.999Z</time></trkpt><trkpt lat="42.79669320680326" lon="12.007313013539092"><ele>279.0</ele><time>2026-04-22T09:06:19.999Z</time></trkpt><trkpt lat="42.79669413260672" lon="12.007577781593184"><ele>277.0</ele><time>2026-04-22T09:06:20.999Z</time></trkpt><trkpt lat="42.79668910275151" lon="12.007830154553304"><ele>275.0</ele><time>2026-04-22T09:06:21.999Z</time></trkpt><trkpt lat="42.7966449135597" lon="12.00806588362044"><ele>273.0</ele><time>2026-04-22T09:06:22.999Z</time></trkpt><trkpt lat="42.796608314869346" lon="12.008293912089371"><ele>273.3333333333333</ele><time>2026-04-22T09:06:23.999Z</time></trkpt><trkpt lat="42.796530043146554" lon="12.008485141158257"><ele>273.66666666666663</ele><time>2026-04-22T09:06:24.999Z</time></trkpt><trkpt lat="42.796468118947956" lon="12.008660722441554"><ele>274.0</ele><time>2026-04-22T09:06:25.999Z</time></trkpt><trkpt lat="42.79632260499724" lon="12.008781550753445"><ele>274.0</ele><time>2026-04-22T09:06:26.999Z</time></trkpt><trkpt lat="42.79618581952966" lon="12.008902715200717"><ele>274.0</ele><time>2026-04-22T09:06:27.999Z</time></trkpt><trkpt lat="42.79603281082944" lon="12.009000273382739"><ele>274.0</ele><time>2026-04-22T09:06:28.999Z</time></trkpt><trkpt lat="42.79587451555633" lon="12.009086094729003"><ele>273.66666666666663</ele><time>2026-04-22T09:06:29.999Z</time></trkpt><trkpt lat="42.7957216911949" lon="12.009181067707576"><ele>273.3333333333333</ele><time>2026-04-22T09:06:30.999Z</time></trkpt><trkpt lat="42.79559070341682" lon="12.009280585933823"><ele>273.0</ele><time>2026-04-22T09:06:31.999Z</time></trkpt><trkpt lat="42.79547873730769" lon="12.00939673116023"><ele>273.0</ele><time>2026-04-22T09:06:32.999Z</time></trkpt><trkpt lat="42.795379977944776" lon="12.009543847222137"><ele>273.0</ele><time>2026-04-22T09:06:33.999Z</time></trkpt><trkpt lat="42.795287297645" lon="12.009718410874862"><ele>273.0</ele><time>2026-04-22T09:06:34.999Z</time></trkpt><trkpt lat="42.79518983797062" lon="12.009895612714612"><ele>271.75</ele><time>2026-04-22T09:06:35.999Z</time></trkpt><trkpt lat="42.79509554587864" lon="12.010049798110071"><ele>270.5</ele><time>2026-04-22T09:06:36.999Z</time></trkpt><trkpt lat="42.79499817557264" lon="12.010191150355062"><ele>269.25</ele><time>2026-04-22T09:06:37.999Z</time></trkpt><trkpt lat="42.794882992013896" lon="12.010315752741073"><ele>268.0</ele><time>2026-04-22T09:06:38.999Z</time></trkpt><trkpt lat="42.79474156570609" lon="12.010413043256166"><ele>268.0</ele><time>2026-04-22T09:06:39.999Z</time></trkpt><trkpt lat="42.79457815684935" lon="12.010483527268809"><ele>268.0</ele><time>2026-04-22T09:06:40.999Z</time></trkpt><trkpt lat="42.794404514683855" lon="12.01052292059256"><ele>268.0</ele><time>2026-04-22T09:06:41.999Z</time></trkpt><trkpt lat="42.7942404222762" lon="12.010546314699681"><ele>266.0</ele><time>2026-04-22T09:06:42.999Z</time></trkpt><trkpt lat="42.7940897332545" lon="12.010565133452308"><ele>264.0</ele><time>2026-04-22T09:06:43.999Z</time></trkpt><trkpt lat="42.793954589766315" lon="12.010606030746377"><ele>262.0</ele><time>2026-04-22T09:06:44.999Z</time></trkpt><trkpt lat="42.793830730405006" lon="12.010674621855744"><ele>260.0</ele><time>2026-04-22T09:06:45.999Z</time></trkpt><trkpt lat="42.793730124766384" lon="12.010779005180563"><ele>261.75</ele><time>2026-04-22T09:06:46.999Z</time></trkpt><trkpt lat="42.793662380529895" lon="12.010919818440485"><ele>263.5</ele><time>2026-04-22T09:06:47.999Z</time></trkpt><trkpt lat="42.79363865237896" lon="12.011082159693485"><ele>265.25</ele><time>2026-04-22T09:06:48.999Z</time></trkpt><trkpt lat="42.793652449097834" lon="12.01124422363106"><ele>267.0</ele><time>2026-04-22T09:06:49.999Z</time></trkpt><trkpt lat="42.79369673336088" lon="12.011408823938043"><ele>267.0</ele><time>2026-04-22T09:06:50.999Z</time></trkpt><trkpt lat="42.79376317305471" lon="12.011578732129129"><ele>267.0</ele><time>2026-04-22T09:06:51.999Z</time></trkpt><trkpt lat="42.7938310941221" lon="12.01175666070432"><ele>267.0</ele><time>2026-04-22T09:06:52.999Z</time></trkpt><trkpt lat="42.79388023403219" lon="12.011949463718203"><ele>267.0</ele><time>2026-04-22T09:06:54Z</time></trkpt><trkpt lat="42.79390152272789" lon="12.01216240754028"><ele>265.3333333333333</ele><time>2026-04-22T09:06:55Z</time></trkpt><trkpt lat="42.79388929986834" lon="12.012378152369005"><ele>263.66666666666663</ele><time>2026-04-22T09:06:56Z</time></trkpt><trkpt lat="42.79384325174567" lon="12.012603471972522"><ele>262.0</ele><time>2026-04-22T09:06:57Z</time></trkpt><trkpt lat="42.79377537793099" lon="12.01283324071413"><ele>259.0</ele><time>2026-04-22T09:06:58Z</time></trkpt><trkpt lat="42.793701708796654" lon="12.013058542687299"><ele>256.0</ele><time>2026-04-22T09:06:59Z</time></trkpt><trkpt lat="42.79362333828938" lon="12.013291484605576"><ele>253.0</ele><time>2026-04-22T09:07:00Z</time></trkpt><trkpt lat="42.79354241389296" lon="12.013530317969604"><ele>252.33333333333331</ele><time>2026-04-22T09:07:01Z</time></trkpt><trkpt lat="42.79345037935231" lon="12.013763789359603"><ele>251.66666666666669</ele><time>2026-04-22T09:07:02Z</time></trkpt><trkpt lat="42.79333013263947" lon="12.013976265503016"><ele>251.0</ele><time>2026-04-22T09:07:03Z</time></trkpt><trkpt lat="42.793191612181" lon="12.014168621925194"><ele>251.0</ele><time>2026-04-22T09:07:04Z</time></trkpt><trkpt lat="42.793047946875475" lon="12.01434467750649"><ele>251.0</ele><time>2026-04-22T09:07:05Z</time></trkpt><trkpt lat="42.79289333408113" lon="12.014509733690902"><ele>251.0</ele><time>2026-04-22T09:07:06Z</time></trkpt><trkpt lat="42.792733292399184" lon="12.014666725551448"><ele>250.0</ele><time>2026-04-22T09:07:07Z</time></trkpt><trkpt lat="42.79256357802381" lon="12.014822841045744"><ele>249.0</ele><time>2026-04-22T09:07:08Z</time></trkpt><trkpt lat="42.79239445187412" lon="12.014990058849314"><ele>248.0</ele><time>2026-04-22T09:07:09Z</time></trkpt><trkpt lat="42.792223035218846" lon="12.0151609608199"><ele>248.0</ele><time>2026-04-22T09:07:10Z</time></trkpt><trkpt lat="42.79204691284436" lon="12.015329205718487"><ele>248.0</ele><time>2026-04-22T09:07:11Z</time></trkpt><trkpt lat="42.79186960147265" lon="12.015500204818956"><ele>248.0</ele><time>2026-04-22T09:07:12Z</time></trkpt><trkpt lat="42.79169202307242" lon="12.01567454852657"><ele>247.0</ele><time>2026-04-22T09:07:13Z</time></trkpt><trkpt lat="42.791511747828075" lon="12.015845559062893"><ele>246.0</ele><time>2026-04-22T09:07:14Z</time></trkpt><trkpt lat="42.79132738857604" lon="12.016011743544448"><ele>245.0</ele><time>2026-04-22T09:07:15Z</time></trkpt><trkpt lat="42.79114093836308" lon="12.016171307558775"><ele>246.33333333333334</ele><time>2026-04-22T09:07:16Z</time></trkpt><trkpt lat="42.790958718459315" lon="12.016327996420857"><ele>247.66666666666669</ele><time>2026-04-22T09:07:17Z</time></trkpt><trkpt lat="42.79077750734916" lon="12.01648107296093"><ele>249.0</ele><time>2026-04-22T09:07:18Z</time></trkpt><trkpt lat="42.79060699265707" lon="12.016620926338629"><ele>247.0</ele><time>2026-04-22T09:07:19Z</time></trkpt><trkpt lat="42.79043628844697" lon="12.016750326158274"><ele>245.0</ele><time>2026-04-22T09:07:20Z</time></trkpt><trkpt lat="42.79027146258305" lon="12.01687232436804"><ele>243.0</ele><time>2026-04-22T09:07:21Z</time></trkpt><trkpt lat="42.79011501943531" lon="12.016979333201881"><ele>242.33333333333331</ele><time>2026-04-22T09:07:22Z</time></trkpt><trkpt lat="42.78996212717215" lon="12.017058118320794"><ele>241.66666666666666</ele><time>2026-04-22T09:07:23Z</time></trkpt><trkpt lat="42.78980918094673" lon="12.017100356434725"><ele>241.0</ele><time>2026-04-22T09:07:24Z</time></trkpt><trkpt lat="42.78965447725271" lon="12.017112609892816"><ele>241.0</ele><time>2026-04-22T09:07:25Z</time></trkpt><trkpt lat="42.78951373875467" lon="12.017093020158883"><ele>241.0</ele><time>2026-04-22T09:07:26Z</time></trkpt><trkpt lat="42.78935085932702" lon="12.017051505531477"><ele>241.0</ele><time>2026-04-22T09:07:27Z</time></trkpt><trkpt lat="42.78920226173661" lon="12.01702429150416"><ele>239.25</ele><time>2026-04-22T09:07:28Z</time></trkpt><trkpt lat="42.78904888959532" lon="12.017013412295272"><ele>237.5</ele><time>2026-04-22T09:07:29Z</time></trkpt><trkpt lat="42.78891455097347" lon="12.017020001863678"><ele>235.75</ele><time>2026-04-22T09:07:30Z</time></trkpt><trkpt lat="42.78879770416066" lon="12.017062478780929"><ele>234.0</ele><time>2026-04-22T09:07:31Z</time></trkpt><trkpt lat="42.78869298216533" lon="12.017152227073183"><ele>234.0</ele><time>2026-04-22T09:07:32Z</time></trkpt><trkpt lat="42.788614652675435" lon="12.017280822060943"><ele>234.0</ele><time>2026-04-22T09:07:33Z</time></trkpt><trkpt lat="42.78856169351476" lon="12.017439498223116"><ele>234.0</ele><time>2026-04-22T09:07:34Z</time></trkpt><trkpt lat="42.78853768861586" lon="12.017620292122752"><ele>234.0</ele><time>2026-04-22T09:07:35Z</time></trkpt><trkpt lat="42.78853846363151" lon="12.017816770834854"><ele>234.33333333333331</ele><time>2026-04-22T09:07:36Z</time></trkpt><trkpt lat="42.78855748381847" lon="12.01801983705438"><ele>234.66666666666666</ele><time>2026-04-22T09:07:37Z</time></trkpt><trkpt lat="42.78857459042174" lon="12.018230338464832"><ele>235.0</ele><time>2026-04-22T09:07:38Z</time></trkpt><trkpt lat="42.788582136739734" lon="12.018443575350881"><ele>234.33333333333331</ele><time>2026-04-22T09:07:39Z</time></trkpt><trkpt lat="42.7885925883532" lon="12.0186723744055"><ele>233.66666666666669</ele><time>2026-04-22T09:07:40Z</time></trkpt><trkpt lat="42.7886013600011" lon="12.018885913430744"><ele>233.0</ele><time>2026-04-22T09:07:41Z</time></trkpt><trkpt lat="42.78861762867255" lon="12.019077456769434"><ele>232.25</ele><time>2026-04-22T09:07:42Z</time></trkpt><trkpt lat="42.788650823186266" lon="12.01926028463457"><ele>231.5</ele><time>2026-04-22T09:07:43Z</time></trkpt><trkpt lat="42.78871786680906" lon="12.01942636718115"><ele>230.75</ele><time>2026-04-22T09:07:44Z</time></trkpt><trkpt lat="42.788818852624075" lon="12.019592285076435"><ele>230.0</ele><time>2026-04-22T09:07:45Z</time></trkpt><trkpt lat="42.78893711755611" lon="12.019762192608475"><ele>230.0</ele><time>2026-04-22T09:07:46Z</time></trkpt><trkpt lat="42.789053675806265" lon="12.019931134505349"><ele>230.0</ele><time>2026-04-22T09:07:47Z</time></trkpt><trkpt lat="42.78915950308209" lon="12.020088569585932"><ele>230.0</ele><time>2026-04-22T09:07:48Z</time></trkpt><trkpt lat="42.78925594256012" lon="12.020256739267378"><ele>225.0</ele><time>2026-04-22T09:07:49Z</time></trkpt><trkpt lat="42.78934569607273" lon="12.020436708187457"><ele>220.0</ele><time>2026-04-22T09:07:50Z</time></trkpt><trkpt lat="42.78942558854804" lon="12.020634306866604"><ele>215.0</ele><time>2026-04-22T09:07:51Z</time></trkpt><trkpt lat="42.78945427313878" lon="12.020868321048235"><ele>212.66666666666669</ele><time>2026-04-22T09:07:52Z</time></trkpt><trkpt lat="42.78948133259688" lon="12.021114400002885"><ele>210.33333333333331</ele><time>2026-04-22T09:07:53Z</time></trkpt><trkpt lat="42.789520586476854" lon="12.021367334571385"><ele>208.0</ele><time>2026-04-22T09:07:54Z</time></trkpt><trkpt lat="42.78953923094226" lon="12.021630954239273"><ele>206.66666666666666</ele><time>2026-04-22T09:07:55Z</time></trkpt><trkpt lat="42.78956229171406" lon="12.021899350338813"><ele>205.33333333333331</ele><time>2026-04-22T09:07:56Z</time></trkpt><trkpt lat="42.789585660130086" lon="12.022146521688917"><ele>204.0</ele><time>2026-04-22T09:07:57Z</time></trkpt><trkpt lat="42.789599698384116" lon="12.022362703218407"><ele>204.25</ele><time>2026-04-22T09:07:58Z</time></trkpt><trkpt lat="42.78959063081992" lon="12.022554384586648"><ele>204.5</ele><time>2026-04-22T09:07:59Z</time></trkpt><trkpt lat="42.789556192630535" lon="12.022729163110842"><ele>204.75</ele><time>2026-04-22T09:08:00Z</time></trkpt><trkpt lat="42.78947661042574" lon="12.022878055994926"><ele>205.0</ele><time>2026-04-22T09:08:01Z</time></trkpt><trkpt lat="42.78939020719915" lon="12.023018746788"><ele>205.0</ele><time>2026-04-22T09:08:02Z</time></trkpt><trkpt lat="42.789265810531106" lon="12.0231345543122"><ele>205.0</ele><time>2026-04-22T09:08:03Z</time></trkpt><trkpt lat="42.78914480138555" lon="12.0232662815529"><ele>205.0</ele><time>2026-04-22T09:08:04Z</time></trkpt><trkpt lat="42.789016815119886" lon="12.023378391496331"><ele>204.5</ele><time>2026-04-22T09:08:05Z</time></trkpt><trkpt lat="42.78890513135405" lon="12.02349746515444"><ele>204.0</ele><time>2026-04-22T09:08:06Z</time></trkpt><trkpt lat="42.78880433170396" lon="12.023630938921194"><ele>203.5</ele><time>2026-04-22T09:08:07Z</time></trkpt><trkpt lat="42.78873270496158" lon="12.023779925623453"><ele>203.0</ele><time>2026-04-22T09:08:08Z</time></trkpt><trkpt lat="42.78868524946376" lon="12.023954073676892"><ele>201.0</ele><time>2026-04-22T09:08:09Z</time></trkpt><trkpt lat="42.78865431922427" lon="12.0241480903266"><ele>199.0</ele><time>2026-04-22T09:08:09.999Z</time></trkpt><trkpt lat="42.78861582299984" lon="12.024354249327201"><ele>197.0</ele><time>2026-04-22T09:08:10.999Z</time></trkpt><trkpt lat="42.788579140922344" lon="12.024576531365687"><ele>197.0</ele><time>2026-04-22T09:08:11.999Z</time></trkpt><trkpt lat="42.78854151217512" lon="12.024798802842454"><ele>197.0</ele><time>2026-04-22T09:08:12.999Z</time></trkpt><trkpt lat="42.78850008604718" lon="12.025006135280083"><ele>197.0</ele><time>2026-04-22T09:08:13.999Z</time></trkpt><trkpt lat="42.78845027982501" lon="12.025206364848085"><ele>197.33333333333334</ele><time>2026-04-22T09:08:14.999Z</time></trkpt><trkpt lat="42.788379268783565" lon="12.025413316051152"><ele>197.66666666666669</ele><time>2026-04-22T09:08:15.999Z</time></trkpt><trkpt lat="42.78830726935225" lon="12.02558971813589"><ele>198.0</ele><time>2026-04-22T09:08:16.999Z</time></trkpt><trkpt lat="42.78822064891649" lon="12.025742481339304"><ele>195.75</ele><time>2026-04-22T09:08:17.999Z</time></trkpt><trkpt lat="42.78812133497721" lon="12.025868026175544"><ele>193.5</ele><time>2026-04-22T09:08:18.999Z</time></trkpt><trkpt lat="42.78801216073053" lon="12.025950406972806"><ele>191.25</ele><time>2026-04-22T09:08:19.999Z</time></trkpt><trkpt lat="42.78789408556391" lon="12.025970747771003"><ele>189.0</ele><time>2026-04-22T09:08:20.999Z</time></trkpt><trkpt lat="42.78777865834481" lon="12.02597103142964"><ele>187.75</ele><time>2026-04-22T09:08:21.999Z</time></trkpt><trkpt lat="42.787666722168126" lon="12.025935097686"><ele>186.5</ele><time>2026-04-22T09:08:22.999Z</time></trkpt><trkpt lat="42.787558124969586" lon="12.02590605804752"><ele>185.25</ele><time>2026-04-22T09:08:23.999Z</time></trkpt><trkpt lat="42.787447540640336" lon="12.025861495691194"><ele>184.0</ele><time>2026-04-22T09:08:24.999Z</time></trkpt><trkpt lat="42.78733286097982" lon="12.025885056226228"><ele>184.0</ele><time>2026-04-22T09:08:25.999Z</time></trkpt><trkpt lat="42.78722329722106" lon="12.025961052078685"><ele>184.0</ele><time>2026-04-22T09:08:26.999Z</time></trkpt><trkpt lat="42.787111048112564" lon="12.026072608304968"><ele>184.0</ele><time>2026-04-22T09:08:27.999Z</time></trkpt><trkpt lat="42.787002739780185" lon="12.026203639200798"><ele>184.0</ele><time>2026-04-22T09:08:28.999Z</time></trkpt><trkpt lat="42.78690128368325" lon="12.026360167435408"><ele>180.0</ele><time>2026-04-22T09:08:29.999Z</time></trkpt><trkpt lat="42.78681107476756" lon="12.02653839650318"><ele>176.0</ele><time>2026-04-22T09:08:30.999Z</time></trkpt><trkpt lat="42.78673509977309" lon="12.026725936307495"><ele>172.0</ele><time>2026-04-22T09:08:31.999Z</time></trkpt><trkpt lat="42.786676170669416" lon="12.026913060086645"><ele>172.0</ele><time>2026-04-22T09:08:32.999Z</time></trkpt><trkpt lat="42.786617351836554" lon="12.02709346368361"><ele>172.0</ele><time>2026-04-22T09:08:33.999Z</time></trkpt><trkpt lat="42.786553184993" lon="12.0272496324998"><ele>172.0</ele><time>2026-04-22T09:08:34.999Z</time></trkpt><trkpt lat="42.78647123424614" lon="12.027391517095069"><ele>172.0</ele><time>2026-04-22T09:08:35.999Z</time></trkpt><trkpt lat="42.78635515706566" lon="12.027476062071054"><ele>171.75</ele><time>2026-04-22T09:08:36.999Z</time></trkpt><trkpt lat="42.78624179001114" lon="12.027574849736716"><ele>171.5</ele><time>2026-04-22T09:08:37.999Z</time></trkpt><trkpt lat="42.78613764838061" lon="12.027655498209944"><ele>171.25</ele><time>2026-04-22T09:08:38.999Z</time></trkpt><trkpt lat="42.786025763304046" lon="12.027742034333823"><ele>171.0</ele><time>2026-04-22T09:08:39.999Z</time></trkpt><trkpt lat="42.78591810557523" lon="12.02782686941916"><ele>170.25</ele><time>2026-04-22T09:08:40.999Z</time></trkpt><trkpt lat="42.78582237767011" lon="12.027913653539692"><ele>169.5</ele><time>2026-04-22T09:08:41.999Z</time></trkpt><trkpt lat="42.7857381190634" lon="12.028027948234195"><ele>168.75</ele><time>2026-04-22T09:08:42.999Z</time></trkpt><trkpt lat="42.785698630178956" lon="12.028145161900007"><ele>168.0</ele><time>2026-04-22T09:08:43.999Z</time></trkpt><trkpt lat="42.78567832483181" lon="12.028313402658291"><ele>168.0</ele><time>2026-04-22T09:08:44.999Z</time></trkpt><trkpt lat="42.78569092965235" lon="12.028449848310443"><ele>168.0</ele><time>2026-04-22T09:08:45.999Z</time></trkpt><trkpt lat="42.7857257023826" lon="12.02859334242099"><ele>168.0</ele><time>2026-04-22T09:08:46.999Z</time></trkpt><trkpt lat="42.785770395607805" lon="12.028739203995345"><ele>168.0</ele><time>2026-04-22T09:08:47.999Z</time></trkpt><trkpt lat="42.78581413149679" lon="12.028885604209817"><ele>168.0</ele><time>2026-04-22T09:08:48.999Z</time></trkpt><trkpt lat="42.78585715617383" lon="12.029019862973456"><ele>167.2</ele><time>2026-04-22T09:08:49.999Z</time></trkpt><trkpt lat="42.78589275380641" lon="12.029148056317311"><ele>166.4</ele><time>2026-04-22T09:08:50.999Z</time></trkpt><trkpt lat="42.785916494729754" lon="12.029259281869866"><ele>165.6</ele><time>2026-04-22T09:08:51.999Z</time></trkpt><trkpt lat="42.785916506686156" lon="12.0293620655154"><ele>164.79999999999998</ele><time>2026-04-22T09:08:52.999Z</time></trkpt><trkpt lat="42.78586440919952" lon="12.02954445011101"><ele>164.0</ele><time>2026-04-22T09:08:54.999Z</time></trkpt><trkpt lat="42.78589394523811" lon="12.029646315693782"><ele>164.0</ele><time>2026-04-22T09:08:55.999Z</time></trkpt><trkpt lat="42.78593479926152" lon="12.029728507026729"><ele>164.0</ele><time>2026-04-22T09:08:56.999Z</time></trkpt><trkpt lat="42.78604617061423" lon="12.02988157342511"><ele>164.0</ele><time>2026-04-22T09:08:58.999Z</time></trkpt><trkpt lat="42.78607470772042" lon="12.029984390475368"><ele>164.0</ele><time>2026-04-22T09:09:00Z</time></trkpt><trkpt lat="42.78605499586874" lon="12.030097779492968"><ele>164.0</ele><time>2026-04-22T09:09:01Z</time></trkpt><trkpt lat="42.78603086838112" lon="12.030214961251279"><ele>164.2</ele><time>2026-04-22T09:09:02Z</time></trkpt><trkpt lat="42.78601466570999" lon="12.030347013200204"><ele>164.39999999999998</ele><time>2026-04-22T09:09:03Z</time></trkpt><trkpt lat="42.785978340289766" lon="12.030477802373476"><ele>164.6</ele><time>2026-04-22T09:09:04Z</time></trkpt><trkpt lat="42.785941240422574" lon="12.030611485560247"><ele>164.8</ele><time>2026-04-22T09:09:05Z</time></trkpt><trkpt lat="42.785904485847325" lon="12.030746408096643"><ele>165.0</ele><time>2026-04-22T09:09:06Z</time></trkpt><trkpt lat="42.785866133691385" lon="12.030889412043903"><ele>165.75</ele><time>2026-04-22T09:09:07Z</time></trkpt><trkpt lat="42.78582283329428" lon="12.031033045594198"><ele>166.5</ele><time>2026-04-22T09:09:08Z</time></trkpt><trkpt lat="42.785767404614774" lon="12.031174960255044"><ele>167.25</ele><time>2026-04-22T09:09:09Z</time></trkpt><trkpt lat="42.78570207577338" lon="12.031310970073005"><ele>168.0</ele><time>2026-04-22T09:09:10Z</time></trkpt><trkpt lat="42.785631115787695" lon="12.031446025753796"><ele>168.0</ele><time>2026-04-22T09:09:11Z</time></trkpt><trkpt lat="42.78554890643465" lon="12.031572909084202"><ele>168.0</ele><time>2026-04-22T09:09:12Z</time></trkpt><trkpt lat="42.7854647763444" lon="12.031696895281934"><ele>168.0</ele><time>2026-04-22T09:09:13Z</time></trkpt><trkpt lat="42.78538184752223" lon="12.031821580125165"><ele>168.0</ele><time>2026-04-22T09:09:14Z</time></trkpt><trkpt lat="42.78530813781586" lon="12.03194426077577"><ele>167.75</ele><time>2026-04-22T09:09:15Z</time></trkpt><trkpt lat="42.78524116055838" lon="12.03207272632781"><ele>167.5</ele><time>2026-04-22T09:09:16Z</time></trkpt><trkpt lat="42.785174466479646" lon="12.032210244630022"><ele>167.25</ele><time>2026-04-22T09:09:17Z</time></trkpt><trkpt lat="42.78510765514161" lon="12.032352607544423"><ele>167.0</ele><time>2026-04-22T09:09:18Z</time></trkpt><trkpt lat="42.78503858534813" lon="12.032499333488346"><ele>166.75</ele><time>2026-04-22T09:09:19Z</time></trkpt><trkpt lat="42.78497159248796" lon="12.032648151119076"><ele>166.5</ele><time>2026-04-22T09:09:20Z</time></trkpt><trkpt lat="42.78490506429576" lon="12.032792022955931"><ele>166.25</ele><time>2026-04-22T09:09:21Z</time></trkpt><trkpt lat="42.78484085257443" lon="12.032936405983932"><ele>166.0</ele><time>2026-04-22T09:09:22Z</time></trkpt><trkpt lat="42.784777214207246" lon="12.033078970610516"><ele>165.66666666666669</ele><time>2026-04-22T09:09:23Z</time></trkpt><trkpt lat="42.7846561896522" lon="12.033348878146393"><ele>165.33333333333334</ele><time>2026-04-22T09:09:25Z</time></trkpt><trkpt lat="42.78459923756127" lon="12.033479216826215"><ele>165.0</ele><time>2026-04-22T09:09:26Z</time></trkpt><trkpt lat="42.78454003443611" lon="12.033611269015223"><ele>165.0</ele><time>2026-04-22T09:09:27Z</time></trkpt><trkpt lat="42.784479949062806" lon="12.033743923739003"><ele>165.0</ele><time>2026-04-22T09:09:28Z</time></trkpt><trkpt lat="42.7844207313598" lon="12.033876291404411"><ele>165.0</ele><time>2026-04-22T09:09:29Z</time></trkpt><trkpt lat="42.78436190261867" lon="12.03400281884838"><ele>165.0</ele><time>2026-04-22T09:09:30Z</time></trkpt><trkpt lat="42.78430754583356" lon="12.034120475568933"><ele>165.0</ele><time>2026-04-22T09:09:31Z</time></trkpt><trkpt lat="42.784254913190374" lon="12.03422566257676"><ele>165.0</ele><time>2026-04-22T09:09:32Z</time></trkpt><trkpt lat="42.78420331915216" lon="12.03432749223404"><ele>165.0</ele><time>2026-04-22T09:09:33Z</time></trkpt><trkpt lat="42.784156910892456" lon="12.034422358441663"><ele>165.0</ele><time>2026-04-22T09:09:34Z</time></trkpt><trkpt lat="42.78411737716535" lon="12.034510826437876"><ele>165.0</ele><time>2026-04-22T09:09:35Z</time></trkpt><trkpt lat="42.7840800445436" lon="12.0345972889654"><ele>165.0</ele><time>2026-04-22T09:09:36Z</time></trkpt><trkpt lat="42.7840454393288" lon="12.034680247825536"><ele>165.0</ele><time>2026-04-22T09:09:37Z</time></trkpt><trkpt lat="42.78400501165682" lon="12.034763100262618"><ele>165.0</ele><time>2026-04-22T09:09:38Z</time></trkpt><trkpt lat="42.783966925277134" lon="12.034836522057676"><ele>165.0</ele><time>2026-04-22T09:09:39Z</time></trkpt><trkpt lat="42.783901076448316" lon="12.034970067442128"><ele>165.0</ele><time>2026-04-22T09:09:41Z</time></trkpt><trkpt lat="42.78384711093151" lon="12.035083272995115"><ele>165.0</ele><time>2026-04-22T09:09:43Z</time></trkpt><trkpt lat="42.78380893834472" lon="12.03520746684815"><ele>165.0</ele><time>2026-04-22T09:09:45Z</time></trkpt><trkpt lat="42.78374060530778" lon="12.035329425417352"><ele>165.14285714285717</ele><time>2026-04-22T09:09:47Z</time></trkpt><trkpt lat="42.78369580200369" lon="12.035468825439876"><ele>165.28571428571428</ele><time>2026-04-22T09:09:49Z</time></trkpt><trkpt lat="42.783662474564935" lon="12.035543228178161"><ele>165.42857142857144</ele><time>2026-04-22T09:09:50Z</time></trkpt><trkpt lat="42.78362831429424" lon="12.035622082352457"><ele>165.57142857142858</ele><time>2026-04-22T09:09:51Z</time></trkpt><trkpt lat="42.783593370603896" lon="12.035700122829342"><ele>165.71428571428572</ele><time>2026-04-22T09:09:52Z</time></trkpt><trkpt lat="42.78355813925625" lon="12.035777799334983"><ele>165.85714285714286</ele><time>2026-04-22T09:09:53Z</time></trkpt><trkpt lat="42.78352395154589" lon="12.035851328377603"><ele>166.0</ele><time>2026-04-22T09:09:54Z</time></trkpt><trkpt lat="42.78349091149222" lon="12.035924463823948"><ele>165.5</ele><time>2026-04-22T09:09:55Z</time></trkpt><trkpt lat="42.78342571790383" lon="12.036074391082714"><ele>165.0</ele><time>2026-04-22T09:09:57Z</time></trkpt><trkpt lat="42.783394923972125" lon="12.036149483010158"><ele>164.5</ele><time>2026-04-22T09:09:58Z</time></trkpt><trkpt lat="42.78336525866938" lon="12.03622650409247"><ele>164.0</ele><time>2026-04-22T09:09:59Z</time></trkpt><trkpt lat="42.78333736756743" lon="12.03631090294013"><ele>163.5</ele><time>2026-04-22T09:10:00Z</time></trkpt><trkpt lat="42.783309533137206" lon="12.036396810911748"><ele>163.0</ele><time>2026-04-22T09:10:01Z</time></trkpt><trkpt lat="42.78328857282905" lon="12.036482904485464"><ele>163.0</ele><time>2026-04-22T09:10:02Z</time></trkpt><trkpt lat="42.78327099661614" lon="12.036567005272369"><ele>163.0</ele><time>2026-04-22T09:10:03Z</time></trkpt><trkpt lat="42.78323933238568" lon="12.036710333399775"><ele>163.0</ele><time>2026-04-22T09:10:05Z</time></trkpt><trkpt lat="42.78318028996184" lon="12.036856359818866"><ele>163.0</ele><time>2026-04-22T09:10:08Z</time></trkpt><trkpt lat="42.783170880437915" lon="12.036959151648"><ele>163.0</ele><time>2026-04-22T09:10:10Z</time></trkpt><trkpt lat="42.78315894171334" lon="12.037061149769322"><ele>163.0</ele><time>2026-04-22T09:10:16Z</time></trkpt><trkpt lat="42.783149255844435" lon="12.03715955307984"><ele>163.0</ele><time>2026-04-22T09:10:28.999Z</time></trkpt><trkpt lat="42.7834089934267" lon="12.037164066616315"><ele>163.0</ele><time>2026-04-22T09:11:37Z</time></trkpt><trkpt lat="42.78381274690014" lon="12.037250242947625"><ele>164.33333333333334</ele><time>2026-04-22T09:11:41Z</time></trkpt><trkpt lat="42.78387123715128" lon="12.037203352577206"><ele>165.66666666666666</ele><time>2026-04-22T09:11:42Z</time></trkpt><trkpt lat="42.78399496705107" lon="12.037141095223328"><ele>167.0</ele><time>2026-04-22T09:11:43Z</time></trkpt><trkpt lat="42.78426406773656" lon="12.037143728687303"><ele>163.0</ele><time>2026-04-22T09:11:47.033Z</time></trkpt><trkpt lat="42.78323927060818" lon="12.037013953331426"><ele>167.0</ele><time>2026-04-22T09:11:58.786Z</time></trkpt><trkpt lat="42.783742554884526" lon="12.036936018455672"><ele>167.0</ele><time>2026-04-22T09:12:20.027Z</time></trkpt><trkpt lat="42.783659637498694" lon="12.036971562805489"><ele>167.0</ele><time>2026-04-22T09:12:24.027Z</time></trkpt><trkpt lat="42.783451731224" lon="12.037031173824468"><ele>167.0</ele><time>2026-04-22T09:12:25.025Z</time></trkpt><trkpt lat="42.78337799677158" lon="12.037065866350849"><ele>167.0</ele><time>2026-04-22T09:12:38.018Z</time></trkpt><trkpt lat="42.78324783972853" lon="12.037046267783776"><ele>166.0</ele><time>2026-04-22T09:13:35.014Z</time></trkpt><trkpt lat="42.78314657745219" lon="12.03694466619567"><ele>165.0</ele><time>2026-04-22T09:15:42.017Z</time></trkpt><trkpt lat="42.783033453158765" lon="12.037079406600384"><ele>164.0</ele><time>2026-04-22T09:17:46Z</time></trkpt><trkpt lat="42.78315528304748" lon="12.037002154333859"><ele>163.0</ele><time>2026-04-22T09:19:08Z</time></trkpt><trkpt lat="42.78324398371769" lon="12.03700883455201"><ele>163.0</ele><time>2026-04-22T09:24:46Z</time></trkpt><trkpt lat="42.78333013391568" lon="12.037018588871069"><ele>163.0</ele><time>2026-04-22T09:24:51Z</time></trkpt><trkpt lat="42.78339166597263" lon="12.037088678500554"><ele>163.0</ele><time>2026-04-22T09:25:02.999Z</time></trkpt><trkpt lat="42.783545122149384" lon="12.037288788874168"><ele>163.0</ele><time>2026-04-22T09:25:56.999Z</time></trkpt><trkpt lat="42.78349678394501" lon="12.037092898633603"><ele>163.0</ele><time>2026-04-22T09:27:28.999Z</time></trkpt><trkpt lat="42.783415422878136" lon="12.037085669467036"><ele>163.0</ele><time>2026-04-22T09:27:38.999Z</time></trkpt><trkpt lat="42.78337659817026" lon="12.037013687563757"><ele>163.0</ele><time>2026-04-22T09:27:44.999Z</time></trkpt><trkpt lat="42.78330323418663" lon="12.037008854098111"><ele>163.0</ele><time>2026-04-22T09:27:50.999Z</time></trkpt><trkpt lat="42.78323558475704" lon="12.03699842800095"><ele>163.0</ele><time>2026-04-22T09:27:56.999Z</time></trkpt><trkpt lat="42.78334431287413" lon="12.037060197990343"><ele>163.0</ele><time>2026-04-22T09:34:01.999Z</time></trkpt><trkpt lat="42.783274775059226" lon="12.037047170065799"><ele>163.0</ele><time>2026-04-22T09:34:04.999Z</time></trkpt><trkpt lat="42.78334699880035" lon="12.0370939927166"><ele>163.0</ele><time>2026-04-22T09:36:42.999Z</time></trkpt><trkpt lat="42.78328554326686" lon="12.037008873797518"><ele>163.0</ele><time>2026-04-22T09:37:52.488Z</time></trkpt><trkpt lat="42.78322453812075" lon="12.037030285608425"><ele>163.0</ele><time>2026-04-22T09:38:04.458Z</time></trkpt><trkpt lat="42.78334214101158" lon="12.037105040254664"><ele>163.0</ele><time>2026-04-22T09:52:32.999Z</time></trkpt><trkpt lat="42.78325844122172" lon="12.037041826714384"><ele>163.0</ele><time>2026-04-22T09:53:22.999Z</time></trkpt><trkpt lat="42.78319172984234" lon="12.036991112238514"><ele>163.0</ele><time>2026-04-22T09:54:18.999Z</time></trkpt><trkpt lat="42.783126686635434" lon="12.03698101989794"><ele>163.0</ele><time>2026-04-22T09:54:25.999Z</time></trkpt><trkpt lat="42.78318690560024" lon="12.037021274338995"><ele>163.0</ele><time>2026-04-22T09:56:19Z</time></trkpt><trkpt lat="42.783262065879235" lon="12.037087298233825"><ele>163.0</ele><time>2026-04-22T09:56:25Z</time></trkpt><trkpt lat="42.78319943887541" lon="12.037057880384326"><ele>163.0</ele><time>2026-04-22T10:01:34.999Z</time></trkpt><trkpt lat="42.783205827804" lon="12.036969461052054"><ele>163.0</ele><time>2026-04-22T10:01:36.999Z</time></trkpt><trkpt lat="42.78322083732116" lon="12.036866857566103"><ele>163.0</ele><time>2026-04-22T10:01:38.999Z</time></trkpt><trkpt lat="42.78316195868755" lon="12.036781503406079"><ele>163.0</ele><time>2026-04-22T10:01:40.999Z</time></trkpt><trkpt lat="42.78309306521246" lon="12.036757121724582"><ele>163.0</ele><time>2026-04-22T10:01:41.999Z</time></trkpt><trkpt lat="42.78300978124541" lon="12.036736345517191"><ele>163.0</ele><time>2026-04-22T10:01:42.999Z</time></trkpt><trkpt lat="42.78292626619189" lon="12.036708153101657"><ele>163.0</ele><time>2026-04-22T10:01:43.999Z</time></trkpt><trkpt lat="42.78284712976372" lon="12.036680890367993"><ele>163.0</ele><time>2026-04-22T10:01:44.999Z</time></trkpt><trkpt lat="42.78275772046021" lon="12.036646813457194"><ele>162.0</ele><time>2026-04-22T10:01:45.999Z</time></trkpt><trkpt lat="42.78265946917949" lon="12.036604238686444"><ele>161.0</ele><time>2026-04-22T10:01:46.999Z</time></trkpt><trkpt lat="42.782552925735516" lon="12.036554974539646"><ele>160.0</ele><time>2026-04-22T10:01:47.999Z</time></trkpt><trkpt lat="42.78243974019448" lon="12.036500752242548"><ele>159.0</ele><time>2026-04-22T10:01:48.999Z</time></trkpt><trkpt lat="42.782322182825794" lon="12.03644082389938"><ele>159.0</ele><time>2026-04-22T10:01:49.999Z</time></trkpt><trkpt lat="42.782197717419464" lon="12.036370588160713"><ele>159.0</ele><time>2026-04-22T10:01:50.999Z</time></trkpt><trkpt lat="42.78207255618747" lon="12.036292614784363"><ele>159.0</ele><time>2026-04-22T10:01:51.999Z</time></trkpt><trkpt lat="42.7819420982633" lon="12.036205768461313"><ele>159.0</ele><time>2026-04-22T10:01:52.999Z</time></trkpt><trkpt lat="42.78180044207943" lon="12.036120560817874"><ele>158.66666666666666</ele><time>2026-04-22T10:01:53.999Z</time></trkpt><trkpt lat="42.78165512517327" lon="12.036028818023668"><ele>158.33333333333331</ele><time>2026-04-22T10:01:54.999Z</time></trkpt><trkpt lat="42.7815176799361" lon="12.035944728353293"><ele>158.0</ele><time>2026-04-22T10:01:55.999Z</time></trkpt><trkpt lat="42.781386416608896" lon="12.035866612404257"><ele>158.0</ele><time>2026-04-22T10:01:56.999Z</time></trkpt><trkpt lat="42.781264333960884" lon="12.03579338412864"><ele>158.0</ele><time>2026-04-22T10:01:57.999Z</time></trkpt><trkpt lat="42.78115434873935" lon="12.035726471231692"><ele>158.0</ele><time>2026-04-22T10:01:58.999Z</time></trkpt><trkpt lat="42.781046324182356" lon="12.035660669690598"><ele>158.0</ele><time>2026-04-22T10:01:59.999Z</time></trkpt><trkpt lat="42.78093195996499" lon="12.035587043406695"><ele>157.75</ele><time>2026-04-22T10:02:00.999Z</time></trkpt><trkpt lat="42.78081505244523" lon="12.035510652851722"><ele>157.5</ele><time>2026-04-22T10:02:01.999Z</time></trkpt><trkpt lat="42.780691847657806" lon="12.035434317145734"><ele>157.25</ele><time>2026-04-22T10:02:02.999Z</time></trkpt><trkpt lat="42.780566579635895" lon="12.035354155533811"><ele>157.0</ele><time>2026-04-22T10:02:03.999Z</time></trkpt><trkpt lat="42.78043551555491" lon="12.035276965916998"><ele>157.0</ele><time>2026-04-22T10:02:04.999Z</time></trkpt><trkpt lat="42.780310987188884" lon="12.03520385234846"><ele>157.0</ele><time>2026-04-22T10:02:05.999Z</time></trkpt><trkpt lat="42.780190397419545" lon="12.035130426944486"><ele>157.0</ele><time>2026-04-22T10:02:06.999Z</time></trkpt><trkpt lat="42.78007344066945" lon="12.035060081308984"><ele>157.0</ele><time>2026-04-22T10:02:07.999Z</time></trkpt><trkpt lat="42.77995959939024" lon="12.034990884193565"><ele>157.25</ele><time>2026-04-22T10:02:08.999Z</time></trkpt><trkpt lat="42.77985992415565" lon="12.034905358543117"><ele>157.5</ele><time>2026-04-22T10:02:09.999Z</time></trkpt><trkpt lat="42.779749651001204" lon="12.034862241052066"><ele>157.75</ele><time>2026-04-22T10:02:10.999Z</time></trkpt><trkpt lat="42.779647392373626" lon="12.034799243222638"><ele>158.0</ele><time>2026-04-22T10:02:11.999Z</time></trkpt><trkpt lat="42.77954908303417" lon="12.03473458890456"><ele>158.0</ele><time>2026-04-22T10:02:12.999Z</time></trkpt><trkpt lat="42.779454080393556" lon="12.034678645295681"><ele>158.0</ele><time>2026-04-22T10:02:13.999Z</time></trkpt><trkpt lat="42.77936127238979" lon="12.034621485230572"><ele>158.0</ele><time>2026-04-22T10:02:15Z</time></trkpt><trkpt lat="42.77926966759593" lon="12.034569357953975"><ele>158.0</ele><time>2026-04-22T10:02:16Z</time></trkpt><trkpt lat="42.7791796641748" lon="12.034513514556759"><ele>158.0</ele><time>2026-04-22T10:02:17Z</time></trkpt><trkpt lat="42.77907058319796" lon="12.034504734260015"><ele>158.0</ele><time>2026-04-22T10:02:18Z</time></trkpt><trkpt lat="42.77895551310375" lon="12.03455955681897"><ele>158.0</ele><time>2026-04-22T10:02:19Z</time></trkpt><trkpt lat="42.77883133250958" lon="12.034636654507702"><ele>158.0</ele><time>2026-04-22T10:02:20Z</time></trkpt><trkpt lat="42.77868257468388" lon="12.034708619812589"><ele>158.0</ele><time>2026-04-22T10:02:21Z</time></trkpt><trkpt lat="42.778552854635294" lon="12.034805877557233"><ele>157.75</ele><time>2026-04-22T10:02:22Z</time></trkpt><trkpt lat="42.778420031362025" lon="12.03485344416378"><ele>157.5</ele><time>2026-04-22T10:02:23Z</time></trkpt><trkpt lat="42.7782829069759" lon="12.034863023648844"><ele>157.25</ele><time>2026-04-22T10:02:24Z</time></trkpt><trkpt lat="42.77814624206173" lon="12.034818698592204"><ele>157.0</ele><time>2026-04-22T10:02:25Z</time></trkpt><trkpt lat="42.77800659912362" lon="12.034738868060245"><ele>157.0</ele><time>2026-04-22T10:02:26Z</time></trkpt><trkpt lat="42.77786336533406" lon="12.034633316692078"><ele>157.0</ele><time>2026-04-22T10:02:27Z</time></trkpt><trkpt lat="42.777698811144695" lon="12.034512311796423"><ele>157.0</ele><time>2026-04-22T10:02:28Z</time></trkpt><trkpt lat="42.77754047211341" lon="12.034382885642003"><ele>155.66666666666669</ele><time>2026-04-22T10:02:29Z</time></trkpt><trkpt lat="42.7773968346415" lon="12.03432868510729"><ele>154.33333333333334</ele><time>2026-04-22T10:02:30Z</time></trkpt><trkpt lat="42.777222124745656" lon="12.034216196048378"><ele>153.0</ele><time>2026-04-22T10:02:31Z</time></trkpt><trkpt lat="42.777041463160245" lon="12.034123748684099"><ele>152.66666666666666</ele><time>2026-04-22T10:02:32Z</time></trkpt><trkpt lat="42.776865170945456" lon="12.034006448344078"><ele>152.33333333333331</ele><time>2026-04-22T10:02:33Z</time></trkpt><trkpt lat="42.776684380152496" lon="12.033890691615865"><ele>152.0</ele><time>2026-04-22T10:02:34Z</time></trkpt><trkpt lat="42.77650599212214" lon="12.033769102608526"><ele>152.0</ele><time>2026-04-22T10:02:35Z</time></trkpt><trkpt lat="42.77632445895482" lon="12.033669988208588"><ele>152.0</ele><time>2026-04-22T10:02:36Z</time></trkpt><trkpt lat="42.77613610422016" lon="12.033585181351633"><ele>152.0</ele><time>2026-04-22T10:02:37Z</time></trkpt><trkpt lat="42.775941947950756" lon="12.033537603831464"><ele>152.0</ele><time>2026-04-22T10:02:38Z</time></trkpt><trkpt lat="42.77574669556694" lon="12.033531491691656"><ele>152.0</ele><time>2026-04-22T10:02:39Z</time></trkpt><trkpt lat="42.77555122669344" lon="12.033571760323618"><ele>152.0</ele><time>2026-04-22T10:02:40Z</time></trkpt><trkpt lat="42.7753546936755" lon="12.03365393156757"><ele>152.33333333333331</ele><time>2026-04-22T10:02:41Z</time></trkpt><trkpt lat="42.77515715179876" lon="12.033761258234984"><ele>152.66666666666666</ele><time>2026-04-22T10:02:42Z</time></trkpt><trkpt lat="42.7749607874962" lon="12.033860292180897"><ele>153.0</ele><time>2026-04-22T10:02:43Z</time></trkpt><trkpt lat="42.77475983033422" lon="12.033948629676132"><ele>153.0</ele><time>2026-04-22T10:02:44Z</time></trkpt><trkpt lat="42.77455636796637" lon="12.03403485921639"><ele>153.0</ele><time>2026-04-22T10:02:45Z</time></trkpt><trkpt lat="42.77435276120657" lon="12.034123294131767"><ele>153.0</ele><time>2026-04-22T10:02:46Z</time></trkpt><trkpt lat="42.77414888795296" lon="12.034209815503182"><ele>152.66666666666666</ele><time>2026-04-22T10:02:47Z</time></trkpt><trkpt lat="42.77395025713597" lon="12.034296730879447"><ele>152.33333333333331</ele><time>2026-04-22T10:02:48Z</time></trkpt><trkpt lat="42.77376214503484" lon="12.034377797517864"><ele>152.0</ele><time>2026-04-22T10:02:49Z</time></trkpt><trkpt lat="42.77357314236149" lon="12.034436755514594"><ele>152.66666666666666</ele><time>2026-04-22T10:02:50Z</time></trkpt><trkpt lat="42.773372366002334" lon="12.034439502730267"><ele>153.33333333333334</ele><time>2026-04-22T10:02:51Z</time></trkpt><trkpt lat="42.77317109939433" lon="12.034424326428601"><ele>154.0</ele><time>2026-04-22T10:02:52Z</time></trkpt><trkpt lat="42.772969516477595" lon="12.034384221494937"><ele>154.0</ele><time>2026-04-22T10:02:53Z</time></trkpt><trkpt lat="42.772747093499866" lon="12.034333534099517"><ele>154.0</ele><time>2026-04-22T10:02:54Z</time></trkpt><trkpt lat="42.77254935615361" lon="12.034277435730875"><ele>154.0</ele><time>2026-04-22T10:02:55Z</time></trkpt><trkpt lat="42.77232832886919" lon="12.034248775612985"><ele>154.0</ele><time>2026-04-22T10:02:56Z</time></trkpt><trkpt lat="42.77212739929955" lon="12.034197901793087"><ele>154.0</ele><time>2026-04-22T10:02:57Z</time></trkpt><trkpt lat="42.77191551007605" lon="12.034132038378102"><ele>154.0</ele><time>2026-04-22T10:02:57.999Z</time></trkpt><trkpt lat="42.77169948229313" lon="12.03409582625574"><ele>156.0</ele><time>2026-04-22T10:02:58.999Z</time></trkpt><trkpt lat="42.771483080717296" lon="12.034041559217671"><ele>158.0</ele><time>2026-04-22T10:02:59.999Z</time></trkpt><trkpt lat="42.77126876737912" lon="12.033989439224397"><ele>160.0</ele><time>2026-04-22T10:03:00.999Z</time></trkpt><trkpt lat="42.77103931099921" lon="12.033950670803678"><ele>163.66666666666669</ele><time>2026-04-22T10:03:01.999Z</time></trkpt><trkpt lat="42.77081439545456" lon="12.033952566653884"><ele>167.33333333333334</ele><time>2026-04-22T10:03:02.999Z</time></trkpt><trkpt lat="42.7705968087667" lon="12.033969006798491"><ele>171.0</ele><time>2026-04-22T10:03:03.999Z</time></trkpt><trkpt lat="42.77037325928356" lon="12.034012357786008"><ele>168.0</ele><time>2026-04-22T10:03:04.999Z</time></trkpt><trkpt lat="42.76995083597271" lon="12.034077026042628"><ele>165.0</ele><time>2026-04-22T10:03:06.999Z</time></trkpt><trkpt lat="42.76976327791135" lon="12.034153371605884"><ele>165.0</ele><time>2026-04-22T10:03:07.999Z</time></trkpt><trkpt lat="42.76957358518618" lon="12.034269113823466"><ele>165.0</ele><time>2026-04-22T10:03:08.999Z</time></trkpt><trkpt lat="42.76938874193092" lon="12.034402830487625"><ele>165.0</ele><time>2026-04-22T10:03:09.999Z</time></trkpt><trkpt lat="42.76920215151129" lon="12.034530689175554"><ele>168.66666666666666</ele><time>2026-04-22T10:03:10.999Z</time></trkpt><trkpt lat="42.76901372946642" lon="12.034663155807044"><ele>172.33333333333331</ele><time>2026-04-22T10:03:11.999Z</time></trkpt><trkpt lat="42.768837096853595" lon="12.034796525720912"><ele>176.0</ele><time>2026-04-22T10:03:12.999Z</time></trkpt><trkpt lat="42.7686935173995" lon="12.034934655501658"><ele>175.4</ele><time>2026-04-22T10:03:13.999Z</time></trkpt><trkpt lat="42.76857705217393" lon="12.035066917449717"><ele>174.8</ele><time>2026-04-22T10:03:14.999Z</time></trkpt><trkpt lat="42.7684889929593" lon="12.035167567441395"><ele>174.20000000000002</ele><time>2026-04-22T10:03:15.999Z</time></trkpt><trkpt lat="42.768413935378334" lon="12.035202181434103"><ele>173.60000000000002</ele><time>2026-04-22T10:03:16.999Z</time></trkpt><trkpt lat="42.768349861071876" lon="12.035189098612362"><ele>173.0</ele><time>2026-04-22T10:03:17.999Z</time></trkpt><trkpt lat="42.76829420188746" lon="12.03514639924777"><ele>173.0</ele><time>2026-04-22T10:03:19.999Z</time></trkpt><trkpt lat="42.76823755086733" lon="12.035102403845197"><ele>173.0</ele><time>2026-04-22T10:03:21.999Z</time></trkpt><trkpt lat="42.76814660117755" lon="12.035216861684285"><ele>173.0</ele><time>2026-04-22T10:03:22.999Z</time></trkpt><trkpt lat="42.768081865192165" lon="12.03534113969614"><ele>173.0</ele><time>2026-04-22T10:03:23.999Z</time></trkpt><trkpt lat="42.76802474682437" lon="12.035497140826505"><ele>173.0</ele><time>2026-04-22T10:03:24.999Z</time></trkpt><trkpt lat="42.767969921827415" lon="12.035665316105092"><ele>169.66666666666666</ele><time>2026-04-22T10:03:25.999Z</time></trkpt><trkpt lat="42.767905479604885" lon="12.03584752594146"><ele>166.33333333333334</ele><time>2026-04-22T10:03:26.999Z</time></trkpt><trkpt lat="42.76783223937666" lon="12.036051667145264"><ele>163.0</ele><time>2026-04-22T10:03:27.999Z</time></trkpt><trkpt lat="42.76774954461658" lon="12.036265641170074"><ele>164.66666666666669</ele><time>2026-04-22T10:03:28.999Z</time></trkpt><trkpt lat="42.76766723864952" lon="12.036485453362054"><ele>166.33333333333334</ele><time>2026-04-22T10:03:29.999Z</time></trkpt><trkpt lat="42.7675752912698" lon="12.036720419677067"><ele>168.0</ele><time>2026-04-22T10:03:30.999Z</time></trkpt><trkpt lat="42.76748923454863" lon="12.036957286219886"><ele>168.0</ele><time>2026-04-22T10:03:31.999Z</time></trkpt><trkpt lat="42.76740635553155" lon="12.037196661858644"><ele>168.0</ele><time>2026-04-22T10:03:32.999Z</time></trkpt><trkpt lat="42.76734191096241" lon="12.037420033720325"><ele>168.0</ele><time>2026-04-22T10:03:33.999Z</time></trkpt><trkpt lat="42.76728820714911" lon="12.037621639780554"><ele>167.0</ele><time>2026-04-22T10:03:34.999Z</time></trkpt><trkpt lat="42.76723950922151" lon="12.037800008178323"><ele>166.0</ele><time>2026-04-22T10:03:35.999Z</time></trkpt><trkpt lat="42.76719197405325" lon="12.037961625673875"><ele>165.0</ele><time>2026-04-22T10:03:36.999Z</time></trkpt><trkpt lat="42.76715273750506" lon="12.03809975732385"><ele>164.0</ele><time>2026-04-22T10:03:37.999Z</time></trkpt><trkpt lat="42.76712164241172" lon="12.038210696643318"><ele>164.0</ele><time>2026-04-22T10:03:38.999Z</time></trkpt><trkpt lat="42.76710075582761" lon="12.03829331514738"><ele>164.0</ele><time>2026-04-22T10:03:39.999Z</time></trkpt><trkpt lat="42.76707369056512" lon="12.03839015310111"><ele>164.0</ele><time>2026-04-22T10:03:41.999Z</time></trkpt><trkpt lat="42.767039541856455" lon="12.038493751641813"><ele>164.0</ele><time>2026-04-22T10:03:44.999Z</time></trkpt><trkpt lat="42.76711968716904" lon="12.038546408796112"><ele>164.0</ele><time>2026-04-22T10:03:45.999Z</time></trkpt><trkpt lat="42.767174652069876" lon="12.03858911369964"><ele>164.0</ele><time>2026-04-22T10:03:47.999Z</time></trkpt><trkpt lat="42.767244137792616" lon="12.038462801824553"><ele>163.99999999999997</ele><time>2026-04-22T10:03:48.999Z</time></trkpt><trkpt lat="42.76727801363772" lon="12.038384090538127"><ele>164.0</ele><time>2026-04-22T10:03:50.999Z</time></trkpt><trkpt lat="42.767223308664086" lon="12.038339382086448"><ele>164.0</ele><time>2026-04-22T10:05:32.999Z</time></trkpt><trkpt lat="42.767281673967595" lon="12.038376520145942"><ele>164.0</ele><time>2026-04-22T10:05:44.999Z</time></trkpt><trkpt lat="42.767290797700554" lon="12.038259352261402"><ele>164.0</ele><time>2026-04-22T10:06:27Z</time></trkpt><trkpt lat="42.7672813517703" lon="12.038149353996111"><ele>163.99999999999997</ele><time>2026-04-22T10:06:29Z</time></trkpt><trkpt lat="42.76724005199627" lon="12.03806274018672"><ele>164.0</ele><time>2026-04-22T10:06:32Z</time></trkpt><trkpt lat="42.76715856388933" lon="12.03808065145449"><ele>164.0</ele><time>2026-04-22T10:06:35Z</time></trkpt><trkpt lat="42.767120881965596" lon="12.03815695821723"><ele>164.0</ele><time>2026-04-22T10:06:36Z</time></trkpt><trkpt lat="42.76709385618129" lon="12.038279457502007"><ele>164.0</ele><time>2026-04-22T10:06:37Z</time></trkpt><trkpt lat="42.76705829013011" lon="12.038412393736825"><ele>164.0</ele><time>2026-04-22T10:06:38Z</time></trkpt><trkpt lat="42.76701860894916" lon="12.038548269270812"><ele>164.0</ele><time>2026-04-22T10:06:39Z</time></trkpt><trkpt lat="42.766975609736036" lon="12.038704768206602"><ele>163.75</ele><time>2026-04-22T10:06:40Z</time></trkpt><trkpt lat="42.76693246267823" lon="12.038865816704092"><ele>163.5</ele><time>2026-04-22T10:06:41Z</time></trkpt><trkpt lat="42.76688975046181" lon="12.039026598801703"><ele>163.25</ele><time>2026-04-22T10:06:42Z</time></trkpt><trkpt lat="42.766842712804824" lon="12.039197717778752"><ele>163.0</ele><time>2026-04-22T10:06:43Z</time></trkpt><trkpt lat="42.76679408410172" lon="12.039371162119869"><ele>163.0</ele><time>2026-04-22T10:06:44Z</time></trkpt><trkpt lat="42.76673845478257" lon="12.039552734971203"><ele>163.0</ele><time>2026-04-22T10:06:45Z</time></trkpt><trkpt lat="42.76668147123176" lon="12.03973677465651"><ele>163.0</ele><time>2026-04-22T10:06:46Z</time></trkpt><trkpt lat="42.76662110476353" lon="12.039931626535465"><ele>163.0</ele><time>2026-04-22T10:06:47Z</time></trkpt><trkpt lat="42.766562154846255" lon="12.040134300427615"><ele>163.0</ele><time>2026-04-22T10:06:48Z</time></trkpt><trkpt lat="42.76651233944498" lon="12.040324125514934"><ele>163.0</ele><time>2026-04-22T10:06:49Z</time></trkpt><trkpt lat="42.76645769862496" lon="12.040513507948889"><ele>163.0</ele><time>2026-04-22T10:06:50Z</time></trkpt><trkpt lat="42.76634403441713" lon="12.040906356454"><ele>161.66666666666669</ele><time>2026-04-22T10:06:52Z</time></trkpt><trkpt lat="42.76628206214203" lon="12.041117160421797"><ele>160.33333333333334</ele><time>2026-04-22T10:06:53Z</time></trkpt><trkpt lat="42.766223160405936" lon="12.041332208257991"><ele>159.0</ele><time>2026-04-22T10:06:54Z</time></trkpt><trkpt lat="42.766162656076695" lon="12.041556849947852"><ele>159.33333333333334</ele><time>2026-04-22T10:06:55Z</time></trkpt><trkpt lat="42.76610349390173" lon="12.041785913405015"><ele>159.66666666666669</ele><time>2026-04-22T10:06:56Z</time></trkpt><trkpt lat="42.76604483633817" lon="12.04202189395799"><ele>160.0</ele><time>2026-04-22T10:06:57Z</time></trkpt><trkpt lat="42.7659832822357" lon="12.042262866745084"><ele>158.66666666666669</ele><time>2026-04-22T10:06:58Z</time></trkpt><trkpt lat="42.7659203797084" lon="12.04250545843107"><ele>157.33333333333334</ele><time>2026-04-22T10:06:59Z</time></trkpt><trkpt lat="42.76585679065092" lon="12.04275465760661"><ele>156.0</ele><time>2026-04-22T10:07:00Z</time></trkpt><trkpt lat="42.76579257988816" lon="12.04300538855236"><ele>156.0</ele><time>2026-04-22T10:07:01Z</time></trkpt><trkpt lat="42.76572475986327" lon="12.043267917601973"><ele>156.0</ele><time>2026-04-22T10:07:02Z</time></trkpt><trkpt lat="42.76564873885992" lon="12.04353063186716"><ele>156.0</ele><time>2026-04-22T10:07:03Z</time></trkpt><trkpt lat="42.76560078972983" lon="12.043795621625751"><ele>155.33333333333334</ele><time>2026-04-22T10:07:04Z</time></trkpt><trkpt lat="42.76552665854192" lon="12.044071228881494"><ele>154.66666666666669</ele><time>2026-04-22T10:07:05Z</time></trkpt><trkpt lat="42.76545672022714" lon="12.044353784475131"><ele>154.0</ele><time>2026-04-22T10:07:06Z</time></trkpt><trkpt lat="42.76538395646197" lon="12.044640673667862"><ele>153.66666666666669</ele><time>2026-04-22T10:07:07Z</time></trkpt><trkpt lat="42.76531340578386" lon="12.044925530285992"><ele>153.33333333333334</ele><time>2026-04-22T10:07:08Z</time></trkpt><trkpt lat="42.76523680288192" lon="12.0452176238747"><ele>153.0</ele><time>2026-04-22T10:07:09Z</time></trkpt><trkpt lat="42.76516176565861" lon="12.045514070418278"><ele>153.5</ele><time>2026-04-22T10:07:10Z</time></trkpt><trkpt lat="42.765090618559285" lon="12.045809830305117"><ele>154.0</ele><time>2026-04-22T10:07:11Z</time></trkpt><trkpt lat="42.76501722204328" lon="12.046107788364335"><ele>154.0</ele><time>2026-04-22T10:07:12Z</time></trkpt><trkpt lat="42.76494472637396" lon="12.046408405437587"><ele>154.0</ele><time>2026-04-22T10:07:13Z</time></trkpt><trkpt lat="42.7648720477905" lon="12.046708463377865"><ele>152.5</ele><time>2026-04-22T10:07:14Z</time></trkpt><trkpt lat="42.76480208788589" lon="12.047004956762205"><ele>151.0</ele><time>2026-04-22T10:07:15Z</time></trkpt><trkpt lat="42.76472824126216" lon="12.047306096664235"><ele>150.0</ele><time>2026-04-22T10:07:16Z</time></trkpt><trkpt lat="42.76465398797844" lon="12.047607492025385"><ele>149.0</ele><time>2026-04-22T10:07:17Z</time></trkpt><trkpt lat="42.76457621196389" lon="12.047911764974602"><ele>149.0</ele><time>2026-04-22T10:07:18Z</time></trkpt><trkpt lat="42.764503495081755" lon="12.048212960820663"><ele>149.0</ele><time>2026-04-22T10:07:19Z</time></trkpt><trkpt lat="42.76442868487448" lon="12.048514303841959"><ele>150.5</ele><time>2026-04-22T10:07:20Z</time></trkpt><trkpt lat="42.76435108201753" lon="12.048814049379914"><ele>152.0</ele><time>2026-04-22T10:07:21Z</time></trkpt><trkpt lat="42.76427139124631" lon="12.049108832869655"><ele>151.0</ele><time>2026-04-22T10:07:22Z</time></trkpt><trkpt lat="42.764181441879664" lon="12.049398733171664"><ele>150.0</ele><time>2026-04-22T10:07:23Z</time></trkpt><trkpt lat="42.764069787464514" lon="12.049683685785185"><ele>150.0</ele><time>2026-04-22T10:07:24Z</time></trkpt><trkpt lat="42.763932894081044" lon="12.049930482047525"><ele>150.0</ele><time>2026-04-22T10:07:25Z</time></trkpt><trkpt lat="42.76378802464365" lon="12.050175422093517"><ele>149.5</ele><time>2026-04-22T10:07:26Z</time></trkpt><trkpt lat="42.76363086852309" lon="12.050415594383722"><ele>149.0</ele><time>2026-04-22T10:07:27Z</time></trkpt><trkpt lat="42.76347323650798" lon="12.050659381892286"><ele>149.5</ele><time>2026-04-22T10:07:28Z</time></trkpt><trkpt lat="42.76330245864861" lon="12.0508863773357"><ele>150.0</ele><time>2026-04-22T10:07:29Z</time></trkpt><trkpt lat="42.76312889158521" lon="12.051117238750647"><ele>150.0</ele><time>2026-04-22T10:07:30Z</time></trkpt><trkpt lat="42.76295859481496" lon="12.05135244899021"><ele>150.0</ele><time>2026-04-22T10:07:31Z</time></trkpt><trkpt lat="42.76278247501601" lon="12.051589785739823"><ele>149.0</ele><time>2026-04-22T10:07:32Z</time></trkpt><trkpt lat="42.762607581764044" lon="12.051835032435633"><ele>148.0</ele><time>2026-04-22T10:07:33Z</time></trkpt><trkpt lat="42.76242931172247" lon="12.052080227657555"><ele>148.0</ele><time>2026-04-22T10:07:34Z</time></trkpt><trkpt lat="42.76224799056713" lon="12.052328700532916"><ele>148.0</ele><time>2026-04-22T10:07:35Z</time></trkpt><trkpt lat="42.762067536588226" lon="12.052581429830513"><ele>147.5</ele><time>2026-04-22T10:07:36Z</time></trkpt><trkpt lat="42.7618867042379" lon="12.052837943531554"><ele>147.0</ele><time>2026-04-22T10:07:37Z</time></trkpt><trkpt lat="42.76171109335751" lon="12.053099926930768"><ele>147.0</ele><time>2026-04-22T10:07:38Z</time></trkpt><trkpt lat="42.76153527748888" lon="12.05336640045481"><ele>147.0</ele><time>2026-04-22T10:07:39Z</time></trkpt><trkpt lat="42.76135912843005" lon="12.053637188253461"><ele>147.0</ele><time>2026-04-22T10:07:40Z</time></trkpt><trkpt lat="42.76118923410412" lon="12.053907962341158"><ele>147.0</ele><time>2026-04-22T10:07:41Z</time></trkpt><trkpt lat="42.76102053992759" lon="12.054181342383215"><ele>148.0</ele><time>2026-04-22T10:07:42Z</time></trkpt><trkpt lat="42.76085213901375" lon="12.054457817169517"><ele>149.0</ele><time>2026-04-22T10:07:43Z</time></trkpt><trkpt lat="42.760687469573" lon="12.054730911441482"><ele>148.0</ele><time>2026-04-22T10:07:44Z</time></trkpt><trkpt lat="42.76052352256678" lon="12.055002622573381"><ele>147.0</ele><time>2026-04-22T10:07:45Z</time></trkpt><trkpt lat="42.76036790276788" lon="12.055273853627494"><ele>147.0</ele><time>2026-04-22T10:07:46Z</time></trkpt><trkpt lat="42.7602111133383" lon="12.055550562701525"><ele>147.0</ele><time>2026-04-22T10:07:47Z</time></trkpt><trkpt lat="42.76005278429999" lon="12.055829946615162"><ele>148.0</ele><time>2026-04-22T10:07:48Z</time></trkpt><trkpt lat="42.75989973608531" lon="12.056111516823544"><ele>149.0</ele><time>2026-04-22T10:07:49Z</time></trkpt><trkpt lat="42.75975092162695" lon="12.056396317063733"><ele>148.5</ele><time>2026-04-22T10:07:50Z</time></trkpt><trkpt lat="42.75960187715453" lon="12.056684805260236"><ele>148.0</ele><time>2026-04-22T10:07:51Z</time></trkpt><trkpt lat="42.759457485707806" lon="12.056969196924715"><ele>148.5</ele><time>2026-04-22T10:07:52Z</time></trkpt><trkpt lat="42.759312792685215" lon="12.057254819350847"><ele>149.0</ele><time>2026-04-22T10:07:53Z</time></trkpt><trkpt lat="42.759169066751305" lon="12.057547164462633"><ele>149.0</ele><time>2026-04-22T10:07:54Z</time></trkpt><trkpt lat="42.75902960829961" lon="12.05784045987819"><ele>149.0</ele><time>2026-04-22T10:07:55Z</time></trkpt><trkpt lat="42.75889478200429" lon="12.058126719024115"><ele>149.0</ele><time>2026-04-22T10:07:56Z</time></trkpt><trkpt lat="42.75875990759455" lon="12.058412017097801"><ele>149.0</ele><time>2026-04-22T10:07:57Z</time></trkpt><trkpt lat="42.758627793567086" lon="12.058688948582331"><ele>151.0</ele><time>2026-04-22T10:07:58Z</time></trkpt><trkpt lat="42.75849866121242" lon="12.058962043438926"><ele>153.0</ele><time>2026-04-22T10:07:58.999Z</time></trkpt><trkpt lat="42.75838209264686" lon="12.059218849774245"><ele>153.0</ele><time>2026-04-22T10:07:59.999Z</time></trkpt><trkpt lat="42.758270357444985" lon="12.059456758339977"><ele>153.0</ele><time>2026-04-22T10:08:00.999Z</time></trkpt><trkpt lat="42.75815574784683" lon="12.059691063439283"><ele>153.0</ele><time>2026-04-22T10:08:01.999Z</time></trkpt><trkpt lat="42.75803682280903" lon="12.059924217453878"><ele>151.66666666666666</ele><time>2026-04-22T10:08:02.999Z</time></trkpt><trkpt lat="42.757912798923435" lon="12.06015056741712"><ele>150.33333333333331</ele><time>2026-04-22T10:08:03.999Z</time></trkpt><trkpt lat="42.75778428801254" lon="12.060360746817569"><ele>149.0</ele><time>2026-04-22T10:08:04.999Z</time></trkpt><trkpt lat="42.757637000533194" lon="12.060557791615217"><ele>151.0</ele><time>2026-04-22T10:08:05.999Z</time></trkpt><trkpt lat="42.75748082180702" lon="12.060741060762343"><ele>153.0</ele><time>2026-04-22T10:08:06.999Z</time></trkpt><trkpt lat="42.757322941801476" lon="12.06093471344801"><ele>155.0</ele><time>2026-04-22T10:08:07.999Z</time></trkpt><trkpt lat="42.75716006368121" lon="12.061129137632932"><ele>155.0</ele><time>2026-04-22T10:08:08.999Z</time></trkpt><trkpt lat="42.75700268973271" lon="12.061326306858993"><ele>155.0</ele><time>2026-04-22T10:08:09.999Z</time></trkpt><trkpt lat="42.756841469684446" lon="12.061530063287332"><ele>155.0</ele><time>2026-04-22T10:08:10.999Z</time></trkpt><trkpt lat="42.75667778970222" lon="12.061736211963824"><ele>157.0</ele><time>2026-04-22T10:08:11.999Z</time></trkpt><trkpt lat="42.756516635978535" lon="12.061935330498692"><ele>159.0</ele><time>2026-04-22T10:08:12.999Z</time></trkpt><trkpt lat="42.75635701243465" lon="12.062140046596037"><ele>161.0</ele><time>2026-04-22T10:08:13.999Z</time></trkpt><trkpt lat="42.756198457811784" lon="12.062346178501205"><ele>161.0</ele><time>2026-04-22T10:08:14.999Z</time></trkpt><trkpt lat="42.756036164074104" lon="12.062552676546415"><ele>161.0</ele><time>2026-04-22T10:08:15.999Z</time></trkpt><trkpt lat="42.75587693276688" lon="12.06275249095192"><ele>161.0</ele><time>2026-04-22T10:08:16.999Z</time></trkpt><trkpt lat="42.75572019688127" lon="12.062954678593197"><ele>161.0</ele><time>2026-04-22T10:08:17.999Z</time></trkpt><trkpt lat="42.75556033494242" lon="12.063158566337657"><ele>161.0</ele><time>2026-04-22T10:08:18.999Z</time></trkpt><trkpt lat="42.755401486950745" lon="12.063357147410187"><ele>161.0</ele><time>2026-04-22T10:08:19.999Z</time></trkpt><trkpt lat="42.75523859016112" lon="12.06355926459326"><ele>159.66666666666666</ele><time>2026-04-22T10:08:20.999Z</time></trkpt><trkpt lat="42.75507937869578" lon="12.06376131000146"><ele>158.33333333333334</ele><time>2026-04-22T10:08:21.999Z</time></trkpt><trkpt lat="42.754917911042845" lon="12.063964787405416"><ele>157.0</ele><time>2026-04-22T10:08:22.999Z</time></trkpt><trkpt lat="42.754754395028385" lon="12.06416842066471"><ele>154.0</ele><time>2026-04-22T10:08:23.999Z</time></trkpt><trkpt lat="42.75458739625743" lon="12.064374074170304"><ele>151.0</ele><time>2026-04-22T10:08:24.999Z</time></trkpt><trkpt lat="42.75442027521103" lon="12.06458170480892"><ele>151.5</ele><time>2026-04-22T10:08:25.999Z</time></trkpt><trkpt lat="42.754250102541526" lon="12.064794001463017"><ele>152.0</ele><time>2026-04-22T10:08:26.999Z</time></trkpt><trkpt lat="42.7540797959632" lon="12.065010034846592"><ele>152.0</ele><time>2026-04-22T10:08:27.999Z</time></trkpt><trkpt lat="42.7539060544967" lon="12.065224830070923"><ele>152.0</ele><time>2026-04-22T10:08:28.999Z</time></trkpt><trkpt lat="42.75373475556373" lon="12.065441081261124"><ele>152.0</ele><time>2026-04-22T10:08:29.999Z</time></trkpt><trkpt lat="42.75356226182537" lon="12.06565940880734"><ele>152.0</ele><time>2026-04-22T10:08:30.999Z</time></trkpt><trkpt lat="42.75338612988221" lon="12.065879581220011"><ele>152.0</ele><time>2026-04-22T10:08:31.999Z</time></trkpt><trkpt lat="42.75320670837423" lon="12.066089887074922"><ele>152.0</ele><time>2026-04-22T10:08:33Z</time></trkpt><trkpt lat="42.7530185376267" lon="12.066294793262943"><ele>152.0</ele><time>2026-04-22T10:08:34Z</time></trkpt><trkpt lat="42.752820189003465" lon="12.066476421826971"><ele>152.0</ele><time>2026-04-22T10:08:35Z</time></trkpt><trkpt lat="42.75260970092628" lon="12.06663585802422"><ele>151.5</ele><time>2026-04-22T10:08:36Z</time></trkpt><trkpt lat="42.75239172330086" lon="12.066769192590002"><ele>151.0</ele><time>2026-04-22T10:08:37Z</time></trkpt><trkpt lat="42.752170907421785" lon="12.06690436800988"><ele>151.0</ele><time>2026-04-22T10:08:38Z</time></trkpt><trkpt lat="42.751952452599475" lon="12.067044144545214"><ele>151.0</ele><time>2026-04-22T10:08:39Z</time></trkpt><trkpt lat="42.751736158771116" lon="12.067184018147225"><ele>151.5</ele><time>2026-04-22T10:08:40Z</time></trkpt><trkpt lat="42.7515230614679" lon="12.06733071120949"><ele>152.0</ele><time>2026-04-22T10:08:41Z</time></trkpt><trkpt lat="42.75131586634574" lon="12.067492016033436"><ele>151.5</ele><time>2026-04-22T10:08:42Z</time></trkpt><trkpt lat="42.751101562146516" lon="12.067653012860289"><ele>151.0</ele><time>2026-04-22T10:08:43Z</time></trkpt><trkpt lat="42.750884436920664" lon="12.067810483534588"><ele>151.0</ele><time>2026-04-22T10:08:44Z</time></trkpt><trkpt lat="42.75066116590187" lon="12.067963111941564"><ele>151.0</ele><time>2026-04-22T10:08:45Z</time></trkpt><trkpt lat="42.750438047555704" lon="12.068116722708172"><ele>151.0</ele><time>2026-04-22T10:08:46Z</time></trkpt><trkpt lat="42.75020988914515" lon="12.068273478915971"><ele>151.0</ele><time>2026-04-22T10:08:47Z</time></trkpt><trkpt lat="42.749976002294744" lon="12.068432294735603"><ele>150.5</ele><time>2026-04-22T10:08:48Z</time></trkpt><trkpt lat="42.749742967538424" lon="12.06859310237842"><ele>150.0</ele><time>2026-04-22T10:08:49Z</time></trkpt><trkpt lat="42.74950608862762" lon="12.068756121772335"><ele>151.0</ele><time>2026-04-22T10:08:50Z</time></trkpt><trkpt lat="42.74926738418069" lon="12.068922378509466"><ele>152.0</ele><time>2026-04-22T10:08:51Z</time></trkpt><trkpt lat="42.74903076579129" lon="12.069089710604826"><ele>152.0</ele><time>2026-04-22T10:08:52Z</time></trkpt><trkpt lat="42.7488042609516" lon="12.06925598840538"><ele>152.0</ele><time>2026-04-22T10:08:53Z</time></trkpt><trkpt lat="42.748592065535135" lon="12.069431567001484"><ele>154.5</ele><time>2026-04-22T10:08:54Z</time></trkpt><trkpt lat="42.748384629940595" lon="12.069615316502771"><ele>157.0</ele><time>2026-04-22T10:08:55Z</time></trkpt><trkpt lat="42.74819311175715" lon="12.069799650216128"><ele>157.0</ele><time>2026-04-22T10:08:56Z</time></trkpt><trkpt lat="42.74800631452336" lon="12.069970835452924"><ele>157.0</ele><time>2026-04-22T10:08:57Z</time></trkpt><trkpt lat="42.74782676671706" lon="12.070132738371154"><ele>157.0</ele><time>2026-04-22T10:08:58Z</time></trkpt><trkpt lat="42.74764832291162" lon="12.070283764198988"><ele>157.0</ele><time>2026-04-22T10:08:59Z</time></trkpt><trkpt lat="42.74746942292544" lon="12.070400486110334"><ele>157.0</ele><time>2026-04-22T10:09:00Z</time></trkpt><trkpt lat="42.74729092155562" lon="12.070484261142148"><ele>157.0</ele><time>2026-04-22T10:09:01Z</time></trkpt><trkpt lat="42.74711883494079" lon="12.07056075735007"><ele>157.0</ele><time>2026-04-22T10:09:02Z</time></trkpt><trkpt lat="42.746935934483254" lon="12.070634839725091"><ele>157.0</ele><time>2026-04-22T10:09:03Z</time></trkpt><trkpt lat="42.746761816764156" lon="12.07072312177954"><ele>157.0</ele><time>2026-04-22T10:09:04Z</time></trkpt><trkpt lat="42.74659059117071" lon="12.070818443767987"><ele>155.66666666666669</ele><time>2026-04-22T10:09:05Z</time></trkpt><trkpt lat="42.746418685748665" lon="12.070902783928116"><ele>154.33333333333334</ele><time>2026-04-22T10:09:06Z</time></trkpt><trkpt lat="42.74623737243981" lon="12.070980571385057"><ele>153.0</ele><time>2026-04-22T10:09:07Z</time></trkpt><trkpt lat="42.74605368692548" lon="12.071039449270824"><ele>154.33333333333334</ele><time>2026-04-22T10:09:08Z</time></trkpt><trkpt lat="42.745862788400245" lon="12.07109465858379"><ele>155.66666666666669</ele><time>2026-04-22T10:09:09Z</time></trkpt><trkpt lat="42.745667957980196" lon="12.07115122261472"><ele>157.0</ele><time>2026-04-22T10:09:10Z</time></trkpt><trkpt lat="42.7454841776457" lon="12.071215008679864"><ele>157.0</ele><time>2026-04-22T10:09:11Z</time></trkpt><trkpt lat="42.74528520937899" lon="12.07127851632965"><ele>157.0</ele><time>2026-04-22T10:09:12Z</time></trkpt><trkpt lat="42.745091025826824" lon="12.071343183926887"><ele>157.0</ele><time>2026-04-22T10:09:13Z</time></trkpt><trkpt lat="42.744892708087264" lon="12.071416623019456"><ele>157.0</ele><time>2026-04-22T10:09:14Z</time></trkpt><trkpt lat="42.74469592210036" lon="12.07150924094182"><ele>157.0</ele><time>2026-04-22T10:09:15Z</time></trkpt><trkpt lat="42.74449769873744" lon="12.071614225287464"><ele>157.0</ele><time>2026-04-22T10:09:16Z</time></trkpt><trkpt lat="42.74430239234766" lon="12.071722404645493"><ele>156.33333333333334</ele><time>2026-04-22T10:09:17Z</time></trkpt><trkpt lat="42.74411188536455" lon="12.071832708650186"><ele>155.66666666666666</ele><time>2026-04-22T10:09:18Z</time></trkpt><trkpt lat="42.74392115103342" lon="12.071948735075638"><ele>155.0</ele><time>2026-04-22T10:09:19Z</time></trkpt><trkpt lat="42.74372762614639" lon="12.072071997196783"><ele>155.0</ele><time>2026-04-22T10:09:20Z</time></trkpt><trkpt lat="42.74353506713953" lon="12.072202423441706"><ele>155.0</ele><time>2026-04-22T10:09:21Z</time></trkpt><trkpt lat="42.743345530540246" lon="12.072338258918878"><ele>155.0</ele><time>2026-04-22T10:09:22Z</time></trkpt><trkpt lat="42.743157198555124" lon="12.072475298459318"><ele>155.0</ele><time>2026-04-22T10:09:23Z</time></trkpt><trkpt lat="42.74296885384971" lon="12.072611327141509"><ele>155.0</ele><time>2026-04-22T10:09:24Z</time></trkpt><trkpt lat="42.74277897126631" lon="12.07274922146551"><ele>155.0</ele><time>2026-04-22T10:09:25Z</time></trkpt><trkpt lat="42.74258980278363" lon="12.072885747111226"><ele>155.66666666666666</ele><time>2026-04-22T10:09:26Z</time></trkpt><trkpt lat="42.74239890798263" lon="12.073022609590005"><ele>156.33333333333334</ele><time>2026-04-22T10:09:27Z</time></trkpt><trkpt lat="42.74220767695448" lon="12.073163515085712"><ele>157.0</ele><time>2026-04-22T10:09:28Z</time></trkpt><trkpt lat="42.74201749831463" lon="12.07331078168791"><ele>156.33333333333334</ele><time>2026-04-22T10:09:29Z</time></trkpt><trkpt lat="42.741831320014306" lon="12.073467815742148"><ele>155.66666666666666</ele><time>2026-04-22T10:09:30Z</time></trkpt><trkpt lat="42.741653992880934" lon="12.073635819257785"><ele>155.0</ele><time>2026-04-22T10:09:31Z</time></trkpt><trkpt lat="42.74148444802082" lon="12.073818166585589"><ele>155.0</ele><time>2026-04-22T10:09:32Z</time></trkpt><trkpt lat="42.74131739433842" lon="12.074000054856702"><ele>155.0</ele><time>2026-04-22T10:09:33Z</time></trkpt><trkpt lat="42.74116253007938" lon="12.074168403684839"><ele>155.0</ele><time>2026-04-22T10:09:34Z</time></trkpt><trkpt lat="42.74102863760691" lon="12.074316626471685"><ele>155.0</ele><time>2026-04-22T10:09:35Z</time></trkpt><trkpt lat="42.74091042167461" lon="12.074440630343629"><ele>155.0</ele><time>2026-04-22T10:09:36Z</time></trkpt><trkpt lat="42.7408045615892" lon="12.074549104324566"><ele>155.0</ele><time>2026-04-22T10:09:37Z</time></trkpt><trkpt lat="42.740704406355675" lon="12.074646664033633"><ele>155.0</ele><time>2026-04-22T10:09:38Z</time></trkpt><trkpt lat="42.7406092180219" lon="12.0747398318262"><ele>155.0</ele><time>2026-04-22T10:09:39Z</time></trkpt><trkpt lat="42.74052038976158" lon="12.074833697394402"><ele>155.0</ele><time>2026-04-22T10:09:40Z</time></trkpt><trkpt lat="42.74043708871779" lon="12.074934301951423"><ele>155.0</ele><time>2026-04-22T10:09:41Z</time></trkpt><trkpt lat="42.7403518820467" lon="12.07503968670752"><ele>155.0</ele><time>2026-04-22T10:09:42Z</time></trkpt><trkpt lat="42.740265478147876" lon="12.07513786957684"><ele>154.8</ele><time>2026-04-22T10:09:43Z</time></trkpt><trkpt lat="42.740183290213366" lon="12.075222389564468"><ele>154.6</ele><time>2026-04-22T10:09:44Z</time></trkpt><trkpt lat="42.74010198587805" lon="12.075307013186656"><ele>154.4</ele><time>2026-04-22T10:09:45Z</time></trkpt><trkpt lat="42.740020073911126" lon="12.075391899508059"><ele>154.2</ele><time>2026-04-22T10:09:46Z</time></trkpt><trkpt lat="42.73993666466829" lon="12.07547465986419"><ele>154.0</ele><time>2026-04-22T10:09:47Z</time></trkpt><trkpt lat="42.73985234913194" lon="12.075561793044576"><ele>154.0</ele><time>2026-04-22T10:09:48Z</time></trkpt><trkpt lat="42.73976712216359" lon="12.07565002866824"><ele>154.0</ele><time>2026-04-22T10:09:49Z</time></trkpt><trkpt lat="42.73967525124784" lon="12.075733990361943"><ele>154.0</ele><time>2026-04-22T10:09:50Z</time></trkpt><trkpt lat="42.73957935063023" lon="12.075816604182208"><ele>154.0</ele><time>2026-04-22T10:09:51Z</time></trkpt><trkpt lat="42.73948141129277" lon="12.075898191554245"><ele>154.0</ele><time>2026-04-22T10:09:52Z</time></trkpt><trkpt lat="42.739383066951596" lon="12.07597876592905"><ele>154.5</ele><time>2026-04-22T10:09:53Z</time></trkpt><trkpt lat="42.73928404439372" lon="12.076060030938631"><ele>155.0</ele><time>2026-04-22T10:09:54Z</time></trkpt><trkpt lat="42.739183724418396" lon="12.076141523456325"><ele>155.5</ele><time>2026-04-22T10:09:55Z</time></trkpt><trkpt lat="42.73908010410693" lon="12.076224309950351"><ele>156.0</ele><time>2026-04-22T10:09:56Z</time></trkpt><trkpt lat="42.73897432490854" lon="12.076310622805284"><ele>156.0</ele><time>2026-04-22T10:09:57Z</time></trkpt><trkpt lat="42.73886682661313" lon="12.07639938307595"><ele>156.0</ele><time>2026-04-22T10:09:58Z</time></trkpt><trkpt lat="42.73875815029199" lon="12.076488090390656"><ele>156.0</ele><time>2026-04-22T10:09:59Z</time></trkpt><trkpt lat="42.73864603071638" lon="12.076578783405502"><ele>156.0</ele><time>2026-04-22T10:10:00Z</time></trkpt><trkpt lat="42.73853095893414" lon="12.076671291017396"><ele>155.75</ele><time>2026-04-22T10:10:01Z</time></trkpt><trkpt lat="42.73841170906135" lon="12.076770766433635"><ele>155.5</ele><time>2026-04-22T10:10:02Z</time></trkpt><trkpt lat="42.73828647046551" lon="12.076881883983225"><ele>155.25</ele><time>2026-04-22T10:10:03Z</time></trkpt><trkpt lat="42.73815819578685" lon="12.077008143453224"><ele>155.0</ele><time>2026-04-22T10:10:04Z</time></trkpt><trkpt lat="42.73802365180883" lon="12.077149436746211"><ele>155.0</ele><time>2026-04-22T10:10:05Z</time></trkpt><trkpt lat="42.73787943454629" lon="12.077297766421802"><ele>155.0</ele><time>2026-04-22T10:10:06Z</time></trkpt><trkpt lat="42.7377250794701" lon="12.077453213517629"><ele>155.0</ele><time>2026-04-22T10:10:07Z</time></trkpt><trkpt lat="42.737566154716376" lon="12.077613756280472"><ele>154.0</ele><time>2026-04-22T10:10:08Z</time></trkpt><trkpt lat="42.737401969384685" lon="12.077785096262748"><ele>153.0</ele><time>2026-04-22T10:10:09Z</time></trkpt><trkpt lat="42.73724152555793" lon="12.07796966657634"><ele>152.0</ele><time>2026-04-22T10:10:10Z</time></trkpt><trkpt lat="42.73709017157801" lon="12.078165762197036"><ele>152.33333333333331</ele><time>2026-04-22T10:10:11Z</time></trkpt><trkpt lat="42.736958576480674" lon="12.078394203344061"><ele>152.66666666666666</ele><time>2026-04-22T10:10:12Z</time></trkpt><trkpt lat="42.73682735141147" lon="12.07864277535856"><ele>153.0</ele><time>2026-04-22T10:10:13Z</time></trkpt><trkpt lat="42.736704144129945" lon="12.078880917497894"><ele>153.33333333333334</ele><time>2026-04-22T10:10:14Z</time></trkpt><trkpt lat="42.73657911762309" lon="12.079118639308895"><ele>153.66666666666669</ele><time>2026-04-22T10:10:14.999Z</time></trkpt><trkpt lat="42.736456260716" lon="12.079354661236074"><ele>154.0</ele><time>2026-04-22T10:10:15.999Z</time></trkpt><trkpt lat="42.73633916797053" lon="12.079581660190097"><ele>154.0</ele><time>2026-04-22T10:10:16.999Z</time></trkpt><trkpt lat="42.73622175183406" lon="12.07980268144406"><ele>154.0</ele><time>2026-04-22T10:10:17.999Z</time></trkpt><trkpt lat="42.73610480770614" lon="12.08002135412589"><ele>154.0</ele><time>2026-04-22T10:10:18.999Z</time></trkpt><trkpt lat="42.73598704955462" lon="12.080239042980569"><ele>154.0</ele><time>2026-04-22T10:10:19.999Z</time></trkpt><trkpt lat="42.735871337268264" lon="12.080455399854387"><ele>154.0</ele><time>2026-04-22T10:10:20.999Z</time></trkpt><trkpt lat="42.735751910529935" lon="12.080666520871153"><ele>154.0</ele><time>2026-04-22T10:10:21.999Z</time></trkpt><trkpt lat="42.73563269972385" lon="12.080877975697518"><ele>154.0</ele><time>2026-04-22T10:10:22.999Z</time></trkpt><trkpt lat="42.73552111442467" lon="12.081087117259784"><ele>154.0</ele><time>2026-04-22T10:10:23.999Z</time></trkpt><trkpt lat="42.73541259340775" lon="12.081293863695844"><ele>154.0</ele><time>2026-04-22T10:10:24.999Z</time></trkpt><trkpt lat="42.73530158994586" lon="12.081498954557496"><ele>153.66666666666669</ele><time>2026-04-22T10:10:25.999Z</time></trkpt><trkpt lat="42.73518858680945" lon="12.081705626827096"><ele>153.33333333333334</ele><time>2026-04-22T10:10:26.999Z</time></trkpt><trkpt lat="42.735073834908384" lon="12.081921601778117"><ele>153.0</ele><time>2026-04-22T10:10:27.999Z</time></trkpt><trkpt lat="42.734960146432" lon="12.08214192752503"><ele>153.0</ele><time>2026-04-22T10:10:28.999Z</time></trkpt><trkpt lat="42.73484487833938" lon="12.082364473129655"><ele>153.0</ele><time>2026-04-22T10:10:29.999Z</time></trkpt><trkpt lat="42.73472692673657" lon="12.082586340717576"><ele>153.0</ele><time>2026-04-22T10:10:30.999Z</time></trkpt><trkpt lat="42.734606180041375" lon="12.082813789363879"><ele>152.66666666666666</ele><time>2026-04-22T10:10:31.999Z</time></trkpt><trkpt lat="42.734487924232944" lon="12.083039316914876"><ele>152.33333333333331</ele><time>2026-04-22T10:10:32.999Z</time></trkpt><trkpt lat="42.7343687685948" lon="12.083264229548897"><ele>152.0</ele><time>2026-04-22T10:10:33.999Z</time></trkpt><trkpt lat="42.734256904131904" lon="12.083484657719435"><ele>152.0</ele><time>2026-04-22T10:10:34.999Z</time></trkpt><trkpt lat="42.73415380690102" lon="12.08369464832424"><ele>152.0</ele><time>2026-04-22T10:10:35.999Z</time></trkpt><trkpt lat="42.73405645715724" lon="12.083911249491026"><ele>152.0</ele><time>2026-04-22T10:10:36.999Z</time></trkpt><trkpt lat="42.73397767145051" lon="12.084149278295936"><ele>151.66666666666666</ele><time>2026-04-22T10:10:37.999Z</time></trkpt><trkpt lat="42.73390342439989" lon="12.08439527079762"><ele>151.33333333333334</ele><time>2026-04-22T10:10:39Z</time></trkpt><trkpt lat="42.7338947522438" lon="12.084624960322172"><ele>151.0</ele><time>2026-04-22T10:10:40Z</time></trkpt><trkpt lat="42.73384861942967" lon="12.0848725724703"><ele>150.66666666666669</ele><time>2026-04-22T10:10:41Z</time></trkpt><trkpt lat="42.73379870853126" lon="12.085116040767796"><ele>150.33333333333334</ele><time>2026-04-22T10:10:42Z</time></trkpt><trkpt lat="42.73375279307936" lon="12.085345462881365"><ele>150.0</ele><time>2026-04-22T10:10:43Z</time></trkpt><trkpt lat="42.733684005257466" lon="12.08556567757666"><ele>150.0</ele><time>2026-04-22T10:10:44Z</time></trkpt><trkpt lat="42.733614169057326" lon="12.085793220486389"><ele>150.0</ele><time>2026-04-22T10:10:45Z</time></trkpt><trkpt lat="42.73353410195777" lon="12.086024399866385"><ele>150.0</ele><time>2026-04-22T10:10:46Z</time></trkpt><trkpt lat="42.73344279188167" lon="12.086258400071015"><ele>151.0</ele><time>2026-04-22T10:10:47Z</time></trkpt><trkpt lat="42.73334767928849" lon="12.0864909037448"><ele>152.0</ele><time>2026-04-22T10:10:48Z</time></trkpt><trkpt lat="42.733265334290174" lon="12.086736445002208"><ele>153.0</ele><time>2026-04-22T10:10:49Z</time></trkpt><trkpt lat="42.73316729224038" lon="12.08696546521513"><ele>153.0</ele><time>2026-04-22T10:10:50Z</time></trkpt><trkpt lat="42.73307096925755" lon="12.087185778801343"><ele>153.0</ele><time>2026-04-22T10:10:51Z</time></trkpt><trkpt lat="42.732979980715655" lon="12.087399257703405"><ele>153.0</ele><time>2026-04-22T10:10:52Z</time></trkpt><trkpt lat="42.73288725225126" lon="12.087589833265833"><ele>153.0</ele><time>2026-04-22T10:10:53Z</time></trkpt><trkpt lat="42.73278582724679" lon="12.087761335890724"><ele>153.0</ele><time>2026-04-22T10:10:54Z</time></trkpt><trkpt lat="42.732675840926476" lon="12.087941039209662"><ele>153.0</ele><time>2026-04-22T10:10:55Z</time></trkpt><trkpt lat="42.732553650107505" lon="12.088118782423425"><ele>154.33333333333334</ele><time>2026-04-22T10:10:56Z</time></trkpt><trkpt lat="42.73242389617082" lon="12.088291486857223"><ele>155.66666666666669</ele><time>2026-04-22T10:10:57Z</time></trkpt><trkpt lat="42.73229628645101" lon="12.088473186612365"><ele>157.0</ele><time>2026-04-22T10:10:58Z</time></trkpt><trkpt lat="42.7321694627602" lon="12.08866493148053"><ele>157.0</ele><time>2026-04-22T10:10:59Z</time></trkpt><trkpt lat="42.732048799093114" lon="12.08885205126895"><ele>157.0</ele><time>2026-04-22T10:11:00Z</time></trkpt><trkpt lat="42.731927223354624" lon="12.08904193883645"><ele>157.0</ele><time>2026-04-22T10:11:01Z</time></trkpt><trkpt lat="42.73182424726782" lon="12.089219297767539"><ele>157.25</ele><time>2026-04-22T10:11:02Z</time></trkpt><trkpt lat="42.73174066377498" lon="12.08937548828758"><ele>157.5</ele><time>2026-04-22T10:11:03Z</time></trkpt><trkpt lat="42.731639726584056" lon="12.089527462701033"><ele>157.75</ele><time>2026-04-22T10:11:04Z</time></trkpt><trkpt lat="42.73154206411583" lon="12.08967295339848"><ele>158.0</ele><time>2026-04-22T10:11:05Z</time></trkpt><trkpt lat="42.73143205907452" lon="12.089821048582808"><ele>156.75</ele><time>2026-04-22T10:11:06Z</time></trkpt><trkpt lat="42.73132092217127" lon="12.08996479113141"><ele>155.5</ele><time>2026-04-22T10:11:07Z</time></trkpt><trkpt lat="42.73121498797096" lon="12.090091941335933"><ele>154.25</ele><time>2026-04-22T10:11:08Z</time></trkpt><trkpt lat="42.73111900795275" lon="12.090202748754866"><ele>153.0</ele><time>2026-04-22T10:11:09Z</time></trkpt><trkpt lat="42.73102607829832" lon="12.090319751451762"><ele>152.75</ele><time>2026-04-22T10:11:10Z</time></trkpt><trkpt lat="42.73093141045827" lon="12.09043403290099"><ele>152.5</ele><time>2026-04-22T10:11:11Z</time></trkpt><trkpt lat="42.73082810251024" lon="12.090555386887907"><ele>152.25</ele><time>2026-04-22T10:11:12Z</time></trkpt><trkpt lat="42.73072618044973" lon="12.090686873142857"><ele>152.0</ele><time>2026-04-22T10:11:13Z</time></trkpt><trkpt lat="42.730630078387804" lon="12.090809057369132"><ele>151.75</ele><time>2026-04-22T10:11:14Z</time></trkpt><trkpt lat="42.730541493632344" lon="12.090920923106584"><ele>151.5</ele><time>2026-04-22T10:11:15Z</time></trkpt><trkpt lat="42.730449974693286" lon="12.091041303940132"><ele>151.25</ele><time>2026-04-22T10:11:16Z</time></trkpt><trkpt lat="42.73034862819347" lon="12.091169264641444"><ele>151.0</ele><time>2026-04-22T10:11:17Z</time></trkpt><trkpt lat="42.730243450573006" lon="12.091294624422487"><ele>150.75</ele><time>2026-04-22T10:11:18Z</time></trkpt><trkpt lat="42.730147665768826" lon="12.091409501005478"><ele>150.5</ele><time>2026-04-22T10:11:19Z</time></trkpt><trkpt lat="42.73005318574399" lon="12.091513311349276"><ele>150.25</ele><time>2026-04-22T10:11:20Z</time></trkpt><trkpt lat="42.72995348895693" lon="12.09160025642343"><ele>150.0</ele><time>2026-04-22T10:11:21Z</time></trkpt><trkpt lat="42.72984684316334" lon="12.09168385114689"><ele>150.0</ele><time>2026-04-22T10:11:22Z</time></trkpt><trkpt lat="42.72973148852868" lon="12.091767662980509"><ele>150.0</ele><time>2026-04-22T10:11:23Z</time></trkpt><trkpt lat="42.72960692231716" lon="12.091850712156639"><ele>150.0</ele><time>2026-04-22T10:11:24Z</time></trkpt><trkpt lat="42.72947567608634" lon="12.091929879959402"><ele>150.0</ele><time>2026-04-22T10:11:25Z</time></trkpt><trkpt lat="42.7293396197423" lon="12.092007484641604"><ele>149.25</ele><time>2026-04-22T10:11:26Z</time></trkpt><trkpt lat="42.72920197179774" lon="12.092085551831095"><ele>148.5</ele><time>2026-04-22T10:11:27Z</time></trkpt><trkpt lat="42.72907320938396" lon="12.092178244567918"><ele>147.75</ele><time>2026-04-22T10:11:28Z</time></trkpt><trkpt lat="42.72895889958505" lon="12.092275103529763"><ele>147.0</ele><time>2026-04-22T10:11:29Z</time></trkpt><trkpt lat="42.72886015079797" lon="12.092371228433022"><ele>147.0</ele><time>2026-04-22T10:11:30Z</time></trkpt><trkpt lat="42.72877199351021" lon="12.092457138983873"><ele>147.0</ele><time>2026-04-22T10:11:31Z</time></trkpt><trkpt lat="42.72868820793125" lon="12.092537660086581"><ele>147.0</ele><time>2026-04-22T10:11:32Z</time></trkpt><trkpt lat="42.728606716149145" lon="12.092612926672702"><ele>147.0</ele><time>2026-04-22T10:11:33Z</time></trkpt><trkpt lat="42.728523569726576" lon="12.092686353631578"><ele>147.0</ele><time>2026-04-22T10:11:34Z</time></trkpt><trkpt lat="42.7284402171024" lon="12.092759248836991"><ele>147.0</ele><time>2026-04-22T10:11:35Z</time></trkpt><trkpt lat="42.72835996919439" lon="12.092836994770643"><ele>147.0</ele><time>2026-04-22T10:11:36Z</time></trkpt><trkpt lat="42.72826912167736" lon="12.09292448566671"><ele>147.0</ele><time>2026-04-22T10:11:37Z</time></trkpt><trkpt lat="42.72817328353785" lon="12.093011746453074"><ele>147.0</ele><time>2026-04-22T10:11:38Z</time></trkpt><trkpt lat="42.728074670436" lon="12.093103338429442"><ele>147.0</ele><time>2026-04-22T10:11:39Z</time></trkpt><trkpt lat="42.72796987074536" lon="12.093195736398119"><ele>147.0</ele><time>2026-04-22T10:11:40Z</time></trkpt><trkpt lat="42.7278623517891" lon="12.093285370098066"><ele>147.0</ele><time>2026-04-22T10:11:41Z</time></trkpt><trkpt lat="42.727753135798054" lon="12.093371954010163"><ele>147.0</ele><time>2026-04-22T10:11:42Z</time></trkpt><trkpt lat="42.72764940739142" lon="12.093455745978721"><ele>147.0</ele><time>2026-04-22T10:11:43Z</time></trkpt><trkpt lat="42.727547162323255" lon="12.09353600164125"><ele>147.0</ele><time>2026-04-22T10:11:44Z</time></trkpt><trkpt lat="42.72743972578401" lon="12.093617978814827"><ele>147.0</ele><time>2026-04-22T10:11:45Z</time></trkpt><trkpt lat="42.727329215152" lon="12.09370302584046"><ele>147.0</ele><time>2026-04-22T10:11:46Z</time></trkpt><trkpt lat="42.72721701930807" lon="12.09379536464443"><ele>147.0</ele><time>2026-04-22T10:11:47Z</time></trkpt><trkpt lat="42.7271047281784" lon="12.093888992385372"><ele>147.0</ele><time>2026-04-22T10:11:48Z</time></trkpt><trkpt lat="42.72699442033097" lon="12.093981709587046"><ele>147.0</ele><time>2026-04-22T10:11:49Z</time></trkpt><trkpt lat="42.7268885496124" lon="12.09408174754696"><ele>147.0</ele><time>2026-04-22T10:11:50Z</time></trkpt><trkpt lat="42.72678941797772" lon="12.094185509118697"><ele>147.0</ele><time>2026-04-22T10:11:51Z</time></trkpt><trkpt lat="42.72669879940077" lon="12.09427912717"><ele>146.79999999999998</ele><time>2026-04-22T10:11:52Z</time></trkpt><trkpt lat="42.72661319801236" lon="12.094364300870167"><ele>146.6</ele><time>2026-04-22T10:11:53Z</time></trkpt><trkpt lat="42.72653469128643" lon="12.094444084826247"><ele>146.39999999999998</ele><time>2026-04-22T10:11:54Z</time></trkpt><trkpt lat="42.72645889110889" lon="12.094517541319696"><ele>146.2</ele><time>2026-04-22T10:11:55Z</time></trkpt><trkpt lat="42.72637975787468" lon="12.094592223308078"><ele>146.0</ele><time>2026-04-22T10:11:56Z</time></trkpt><trkpt lat="42.726298380559015" lon="12.094670171040073"><ele>146.0</ele><time>2026-04-22T10:11:57Z</time></trkpt><trkpt lat="42.72622108471849" lon="12.094747813374015"><ele>146.0</ele><time>2026-04-22T10:11:58Z</time></trkpt><trkpt lat="42.7261438740545" lon="12.094823044464288"><ele>146.0</ele><time>2026-04-22T10:11:59Z</time></trkpt><trkpt lat="42.72606423904852" lon="12.094903600140553"><ele>146.0</ele><time>2026-04-22T10:12:00Z</time></trkpt><trkpt lat="42.72598486104623" lon="12.094988968355628"><ele>146.0</ele><time>2026-04-22T10:12:01Z</time></trkpt><trkpt lat="42.72590213818717" lon="12.095073687894125"><ele>146.6</ele><time>2026-04-22T10:12:02Z</time></trkpt><trkpt lat="42.72581678897835" lon="12.095158723702147"><ele>147.2</ele><time>2026-04-22T10:12:03Z</time></trkpt><trkpt lat="42.72573813163462" lon="12.095244123884347"><ele>147.8</ele><time>2026-04-22T10:12:04Z</time></trkpt><trkpt lat="42.72565738331438" lon="12.095331730374015"><ele>148.4</ele><time>2026-04-22T10:12:05Z</time></trkpt><trkpt lat="42.725584773260636" lon="12.09541075914855"><ele>149.0</ele><time>2026-04-22T10:12:06Z</time></trkpt><trkpt lat="42.72551561450559" lon="12.095488796469066"><ele>149.0</ele><time>2026-04-22T10:12:07Z</time></trkpt><trkpt lat="42.72544766531822" lon="12.095564464411916"><ele>149.0</ele><time>2026-04-22T10:12:08Z</time></trkpt><trkpt lat="42.725379403250514" lon="12.095643014973666"><ele>149.0</ele><time>2026-04-22T10:12:09Z</time></trkpt><trkpt lat="42.725308745789675" lon="12.095726933750203"><ele>149.0</ele><time>2026-04-22T10:12:10Z</time></trkpt><trkpt lat="42.72524006375753" lon="12.095810200101976"><ele>149.0</ele><time>2026-04-22T10:12:11Z</time></trkpt><trkpt lat="42.72517121146905" lon="12.095890133594525"><ele>149.28571428571428</ele><time>2026-04-22T10:12:12Z</time></trkpt><trkpt lat="42.7251146161827" lon="12.095968002854544"><ele>149.57142857142856</ele><time>2026-04-22T10:12:13Z</time></trkpt><trkpt lat="42.725063112351016" lon="12.096037791061795"><ele>149.85714285714286</ele><time>2026-04-22T10:12:14Z</time></trkpt><trkpt lat="42.72501236340337" lon="12.096108705613977"><ele>150.14285714285714</ele><time>2026-04-22T10:12:15Z</time></trkpt><trkpt lat="42.72495779654508" lon="12.096177983412963"><ele>150.42857142857144</ele><time>2026-04-22T10:12:16Z</time></trkpt><trkpt lat="42.72490643347968" lon="12.096240956864477"><ele>150.71428571428572</ele><time>2026-04-22T10:12:17Z</time></trkpt><trkpt lat="42.72485606704161" lon="12.096304724435694"><ele>151.0</ele><time>2026-04-22T10:12:18Z</time></trkpt><trkpt lat="42.724797199827385" lon="12.096376292562558"><ele>151.0</ele><time>2026-04-22T10:12:19Z</time></trkpt><trkpt lat="42.724728015420446" lon="12.096429911939547"><ele>151.0</ele><time>2026-04-22T10:12:20Z</time></trkpt><trkpt lat="42.724682328409095" lon="12.096520064823217"><ele>151.0</ele><time>2026-04-22T10:12:21Z</time></trkpt><trkpt lat="42.72460531567968" lon="12.096612073885193"><ele>151.0</ele><time>2026-04-22T10:12:23Z</time></trkpt><trkpt lat="42.72454484583108" lon="12.096664224591766"><ele>151.0</ele><time>2026-04-22T10:12:26Z</time></trkpt><trkpt lat="42.72444852165665" lon="12.096762681399618"><ele>153.5</ele><time>2026-04-22T10:12:28Z</time></trkpt><trkpt lat="42.72439337540219" lon="12.096835111941921"><ele>156.0</ele><time>2026-04-22T10:12:29Z</time></trkpt><trkpt lat="42.724315872715785" lon="12.096928832252647"><ele>158.5</ele><time>2026-04-22T10:12:30Z</time></trkpt><trkpt lat="42.7242351217375" lon="12.097043247869987"><ele>161.0</ele><time>2026-04-22T10:12:31Z</time></trkpt><trkpt lat="42.724127923518665" lon="12.097201222766149"><ele>161.0</ele><time>2026-04-22T10:12:32Z</time></trkpt><trkpt lat="42.72401544621628" lon="12.097336034307096"><ele>161.0</ele><time>2026-04-22T10:12:33Z</time></trkpt><trkpt lat="42.72389631307696" lon="12.097483081072408"><ele>161.0</ele><time>2026-04-22T10:12:34Z</time></trkpt><trkpt lat="42.72377182722668" lon="12.097628212510541"><ele>161.0</ele><time>2026-04-22T10:12:35Z</time></trkpt><trkpt lat="42.72364917324411" lon="12.097770684282718"><ele>161.0</ele><time>2026-04-22T10:12:36Z</time></trkpt><trkpt lat="42.72352748159708" lon="12.097906444057495"><ele>161.0</ele><time>2026-04-22T10:12:37Z</time></trkpt><trkpt lat="42.723399551716184" lon="12.098043402405306"><ele>162.33333333333331</ele><time>2026-04-22T10:12:38Z</time></trkpt><trkpt lat="42.72326724409587" lon="12.09818585945274"><ele>163.66666666666666</ele><time>2026-04-22T10:12:39Z</time></trkpt><trkpt lat="42.72314134342249" lon="12.098336392875972"><ele>165.0</ele><time>2026-04-22T10:12:40Z</time></trkpt><trkpt lat="42.723029631104225" lon="12.098486227729396"><ele>165.0</ele><time>2026-04-22T10:12:41Z</time></trkpt><trkpt lat="42.72293601214998" lon="12.09862100149878"><ele>165.0</ele><time>2026-04-22T10:12:42Z</time></trkpt><trkpt lat="42.72285619882285" lon="12.098731813213378"><ele>165.0</ele><time>2026-04-22T10:12:43Z</time></trkpt><trkpt lat="42.72278542039487" lon="12.09882981315599"><ele>165.0</ele><time>2026-04-22T10:12:44Z</time></trkpt><trkpt lat="42.72272070030397" lon="12.098920653655686"><ele>165.0</ele><time>2026-04-22T10:12:45Z</time></trkpt><trkpt lat="42.72265782482263" lon="12.099008604248075"><ele>167.16666666666666</ele><time>2026-04-22T10:12:46Z</time></trkpt><trkpt lat="42.722589725196464" lon="12.099093593604229"><ele>169.33333333333334</ele><time>2026-04-22T10:12:47Z</time></trkpt><trkpt lat="42.72252960571608" lon="12.099176329292481"><ele>171.5</ele><time>2026-04-22T10:12:48Z</time></trkpt><trkpt lat="42.72246827235015" lon="12.099259984610129"><ele>173.66666666666669</ele><time>2026-04-22T10:12:49Z</time></trkpt><trkpt lat="42.72240581427699" lon="12.099344257929605"><ele>175.83333333333334</ele><time>2026-04-22T10:12:50Z</time></trkpt><trkpt lat="42.72234448050752" lon="12.09942933011708"><ele>178.0</ele><time>2026-04-22T10:12:51Z</time></trkpt><trkpt lat="42.72228198418351" lon="12.099514685220138"><ele>178.0</ele><time>2026-04-22T10:12:52Z</time></trkpt><trkpt lat="42.72222079163044" lon="12.099598761021678"><ele>178.0</ele><time>2026-04-22T10:12:53Z</time></trkpt><trkpt lat="42.72215638427499" lon="12.099685906863598"><ele>178.0</ele><time>2026-04-22T10:12:54Z</time></trkpt><trkpt lat="42.72209030600988" lon="12.099767973939242"><ele>178.0</ele><time>2026-04-22T10:12:55Z</time></trkpt><trkpt lat="42.7220212078674" lon="12.099847351846133"><ele>178.0</ele><time>2026-04-22T10:12:56Z</time></trkpt><trkpt lat="42.7219505738925" lon="12.099930494212018"><ele>180.8</ele><time>2026-04-22T10:12:57Z</time></trkpt><trkpt lat="42.72188177545456" lon="12.100013990845996"><ele>183.60000000000002</ele><time>2026-04-22T10:12:58Z</time></trkpt><trkpt lat="42.72181112707526" lon="12.1000948326334"><ele>186.39999999999998</ele><time>2026-04-22T10:12:59Z</time></trkpt><trkpt lat="42.72173840612244" lon="12.100181970401819"><ele>189.2</ele><time>2026-04-22T10:13:00Z</time></trkpt><trkpt lat="42.72163739978771" lon="12.100270072863568"><ele>192.0</ele><time>2026-04-22T10:13:01Z</time></trkpt><trkpt lat="42.72151688101929" lon="12.100416354378957"><ele>192.0</ele><time>2026-04-22T10:13:02Z</time></trkpt><trkpt lat="42.72140202485224" lon="12.100582949511288"><ele>192.0</ele><time>2026-04-22T10:13:03Z</time></trkpt><trkpt lat="42.721270170876515" lon="12.10074211522058"><ele>192.0</ele><time>2026-04-22T10:13:04Z</time></trkpt><trkpt lat="42.72112755850066" lon="12.100931319519567"><ele>196.33333333333331</ele><time>2026-04-22T10:13:05Z</time></trkpt><trkpt lat="42.720975399280135" lon="12.101146941629743"><ele>200.66666666666666</ele><time>2026-04-22T10:13:06Z</time></trkpt><trkpt lat="42.72082705424851" lon="12.101311569306057"><ele>205.0</ele><time>2026-04-22T10:13:07Z</time></trkpt><trkpt lat="42.72072435986808" lon="12.101478064755499"><ele>208.5</ele><time>2026-04-22T10:13:08Z</time></trkpt><trkpt lat="42.720623519808726" lon="12.10161265629457"><ele>212.0</ele><time>2026-04-22T10:13:09Z</time></trkpt><trkpt lat="42.72052432521795" lon="12.101747691537769"><ele>215.5</ele><time>2026-04-22T10:13:10Z</time></trkpt><trkpt lat="42.72042146751487" lon="12.101845712586218"><ele>219.0</ele><time>2026-04-22T10:13:11Z</time></trkpt><trkpt lat="42.72031512331985" lon="12.101896904946454"><ele>221.0</ele><time>2026-04-22T10:13:12Z</time></trkpt><trkpt lat="42.720211015823125" lon="12.101938793949229"><ele>222.99999999999997</ele><time>2026-04-22T10:13:13Z</time></trkpt><trkpt lat="42.72010963401136" lon="12.101999262174346"><ele>224.99999999999997</ele><time>2026-04-22T10:13:14Z</time></trkpt><trkpt lat="42.720021743185406" lon="12.102057163613797"><ele>227.0</ele><time>2026-04-22T10:13:15Z</time></trkpt><trkpt lat="42.719960386790405" lon="12.10208771183438"><ele>229.0</ele><time>2026-04-22T10:13:16Z</time></trkpt><trkpt lat="42.71982676778609" lon="12.102094563973136"><ele>229.0</ele><time>2026-04-22T10:13:18Z</time></trkpt><trkpt lat="42.71971199713916" lon="12.102083105605585"><ele>229.0</ele><time>2026-04-22T10:13:19Z</time></trkpt><trkpt lat="42.719581211408084" lon="12.102092355451864"><ele>229.0</ele><time>2026-04-22T10:13:20Z</time></trkpt><trkpt lat="42.71946351620765" lon="12.10213049656047"><ele>229.0</ele><time>2026-04-22T10:13:21Z</time></trkpt><trkpt lat="42.719378203546185" lon="12.102187740638508"><ele>229.79999999999998</ele><time>2026-04-22T10:13:22Z</time></trkpt><trkpt lat="42.71931610414993" lon="12.102250280311928"><ele>230.59999999999997</ele><time>2026-04-22T10:13:23Z</time></trkpt><trkpt lat="42.719251064872196" lon="12.10233934579322"><ele>231.4</ele><time>2026-04-22T10:13:24Z</time></trkpt><trkpt lat="42.71915013215253" lon="12.102436341320384"><ele>232.2</ele><time>2026-04-22T10:13:25Z</time></trkpt><trkpt lat="42.719034139975484" lon="12.102561935347545"><ele>233.0</ele><time>2026-04-22T10:13:26Z</time></trkpt><trkpt lat="42.7189139724838" lon="12.102705241812572"><ele>236.5</ele><time>2026-04-22T10:13:27Z</time></trkpt><trkpt lat="42.718798000970665" lon="12.102830754569343"><ele>240.0</ele><time>2026-04-22T10:13:28Z</time></trkpt><trkpt lat="42.71870707631795" lon="12.102938801247419"><ele>243.5</ele><time>2026-04-22T10:13:29Z</time></trkpt><trkpt lat="42.71861360741644" lon="12.103049573414236"><ele>247.0</ele><time>2026-04-22T10:13:30Z</time></trkpt><trkpt lat="42.718521667019445" lon="12.103156294227512"><ele>251.0</ele><time>2026-04-22T10:13:31Z</time></trkpt><trkpt lat="42.718441920133266" lon="12.103285222705633"><ele>255.0</ele><time>2026-04-22T10:13:32Z</time></trkpt><trkpt lat="42.71837088575494" lon="12.103417203686533"><ele>259.0</ele><time>2026-04-22T10:13:33Z</time></trkpt><trkpt lat="42.71831499527363" lon="12.103545841073185"><ele>263.0</ele><time>2026-04-22T10:13:34Z</time></trkpt><trkpt lat="42.71825836442901" lon="12.10363534163127"><ele>267.0</ele><time>2026-04-22T10:13:35Z</time></trkpt><trkpt lat="42.71817367016805" lon="12.103685384442601"><ele>267.0</ele><time>2026-04-22T10:13:36Z</time></trkpt><trkpt lat="42.71808513490926" lon="12.103698044834442"><ele>267.0</ele><time>2026-04-22T10:13:37Z</time></trkpt><trkpt lat="42.71799801208025" lon="12.1036928941965"><ele>267.0</ele><time>2026-04-22T10:13:38Z</time></trkpt><trkpt lat="42.71791726144013" lon="12.103687527029392"><ele>267.0</ele><time>2026-04-22T10:13:39Z</time></trkpt><trkpt lat="42.7178395183821" lon="12.10365319879481"><ele>267.0</ele><time>2026-04-22T10:13:40Z</time></trkpt><trkpt lat="42.717780538054946" lon="12.103616917081519"><ele>267.0</ele><time>2026-04-22T10:13:41Z</time></trkpt><trkpt lat="42.717663663242625" lon="12.103598044169855"><ele>265.5</ele><time>2026-04-22T10:13:43Z</time></trkpt><trkpt lat="42.717585787194885" lon="12.103663126149149"><ele>264.0</ele><time>2026-04-22T10:13:45Z</time></trkpt><trkpt lat="42.71755980619243" lon="12.103850773625924"><ele>262.5</ele><time>2026-04-22T10:13:50Z</time></trkpt><trkpt lat="42.71743649779555" lon="12.1040796762202"><ele>261.0</ele><time>2026-04-22T10:13:52Z</time></trkpt><trkpt lat="42.71739800074661" lon="12.104220865139029"><ele>264.2</ele><time>2026-04-22T10:13:53Z</time></trkpt><trkpt lat="42.71736393622984" lon="12.104359346044422"><ele>267.40000000000003</ele><time>2026-04-22T10:13:54Z</time></trkpt><trkpt lat="42.717330675256314" lon="12.104500736275995"><ele>270.6</ele><time>2026-04-22T10:13:55Z</time></trkpt><trkpt lat="42.71729762103344" lon="12.104642057178864"><ele>273.8</ele><time>2026-04-22T10:13:56Z</time></trkpt><trkpt lat="42.717262035839035" lon="12.10478425973451"><ele>277.0</ele><time>2026-04-22T10:13:57Z</time></trkpt><trkpt lat="42.717225361999546" lon="12.104921773596462"><ele>311.0</ele><time>2026-04-22T10:13:58Z</time></trkpt><trkpt lat="42.71732161297295" lon="12.106888478196174"><ele>311.0</ele><time>2026-04-22T10:16:43.999Z</time></trkpt><trkpt lat="42.717377273356426" lon="12.106786774027727"><ele>311.0</ele><time>2026-04-22T10:16:46.999Z</time></trkpt><trkpt lat="42.717419515065444" lon="12.106717232111134"><ele>311.0</ele><time>2026-04-22T10:16:48.999Z</time></trkpt><trkpt lat="42.717467273517755" lon="12.106612482292718"><ele>311.0</ele><time>2026-04-22T10:16:51.999Z</time></trkpt><trkpt lat="42.717524049452756" lon="12.106557884677263"><ele>311.0</ele><time>2026-04-22T10:16:54.999Z</time></trkpt><trkpt lat="42.71762912122455" lon="12.106657480702573"><ele>311.0</ele><time>2026-04-22T10:16:57.999Z</time></trkpt><trkpt lat="42.717690406935255" lon="12.10671689089902"><ele>311.1666666666667</ele><time>2026-04-22T10:16:59.999Z</time></trkpt><trkpt lat="42.71775741823453" lon="12.106778624536407"><ele>311.33333333333337</ele><time>2026-04-22T10:17:01.999Z</time></trkpt><trkpt lat="42.717827565942514" lon="12.106855402302985"><ele>311.5</ele><time>2026-04-22T10:17:03.999Z</time></trkpt><trkpt lat="42.717891132414245" lon="12.10694134048993"><ele>311.6666666666667</ele><time>2026-04-22T10:17:05.999Z</time></trkpt><trkpt lat="42.71795456732102" lon="12.107007257270403"><ele>311.8333333333333</ele><time>2026-04-22T10:17:07.999Z</time></trkpt><trkpt lat="42.71801714372631" lon="12.107081747247515"><ele>312.0</ele><time>2026-04-22T10:17:10.999Z</time></trkpt><trkpt lat="42.71807139700141" lon="12.107172476832265"><ele>312.0</ele><time>2026-04-22T10:17:12.999Z</time></trkpt><trkpt lat="42.718143784684585" lon="12.107261263869228"><ele>312.0</ele><time>2026-04-22T10:17:14.999Z</time></trkpt><trkpt lat="42.718177685004555" lon="12.107375715037033"><ele>312.0</ele><time>2026-04-22T10:17:16.999Z</time></trkpt><trkpt lat="42.71820976337379" lon="12.107481241756311"><ele>312.0</ele><time>2026-04-22T10:17:18.999Z</time></trkpt><trkpt lat="42.71824917834524" lon="12.107564309210591"><ele>312.0</ele><time>2026-04-22T10:17:20.999Z</time></trkpt><trkpt lat="42.71828043506192" lon="12.107666597544316"><ele>312.0</ele><time>2026-04-22T10:17:22.999Z</time></trkpt><trkpt lat="42.718315356832086" lon="12.10774561371219"><ele>312.5</ele><time>2026-04-22T10:17:24.999Z</time></trkpt><trkpt lat="42.718359810680425" lon="12.107844802359306"><ele>313.0</ele><time>2026-04-22T10:17:27.999Z</time></trkpt><trkpt lat="42.71840293519487" lon="12.107912862913093"><ele>313.5</ele><time>2026-04-22T10:17:30.999Z</time></trkpt><trkpt lat="42.71850170076922" lon="12.107783940011775"><ele>314.0</ele><time>2026-04-22T10:17:35.999Z</time></trkpt><trkpt lat="42.718510848540255" lon="12.107656672707465"><ele>314.5</ele><time>2026-04-22T10:17:38.999Z</time></trkpt><trkpt lat="42.718522025488326" lon="12.107570688955636"><ele>315.0</ele><time>2026-04-22T10:17:40.999Z</time></trkpt><trkpt lat="42.71853348097616" lon="12.107479819792172"><ele>314.7142857142857</ele><time>2026-04-22T10:17:42.999Z</time></trkpt><trkpt lat="42.718552296272804" lon="12.107393808204169"><ele>314.42857142857144</ele><time>2026-04-22T10:17:44.999Z</time></trkpt><trkpt lat="42.71857475798633" lon="12.10729958246215"><ele>314.1428571428571</ele><time>2026-04-22T10:17:46.999Z</time></trkpt><trkpt lat="42.71858622903049" lon="12.107182959627606"><ele>313.8571428571429</ele><time>2026-04-22T10:17:49.999Z</time></trkpt><trkpt lat="42.71859729395291" lon="12.107090865151934"><ele>313.57142857142856</ele><time>2026-04-22T10:17:51.999Z</time></trkpt><trkpt lat="42.7186135362988" lon="12.107001037024903"><ele>313.2857142857143</ele><time>2026-04-22T10:17:53.999Z</time></trkpt><trkpt lat="42.71861969857892" lon="12.10690493794935"><ele>313.0</ele><time>2026-04-22T10:17:55.999Z</time></trkpt><trkpt lat="42.71863604456216" lon="12.10680652435442"><ele>313.0</ele><time>2026-04-22T10:17:58.999Z</time></trkpt><trkpt lat="42.718645593871564" lon="12.10670786775475"><ele>313.0</ele><time>2026-04-22T10:18:01.999Z</time></trkpt><trkpt lat="42.718654784573204" lon="12.106614920449621"><ele>313.0</ele><time>2026-04-22T10:18:05.999Z</time></trkpt><trkpt lat="42.71866082242342" lon="12.106524703699774"><ele>313.0</ele><time>2026-04-22T10:18:08.999Z</time></trkpt><trkpt lat="42.71867760166883" lon="12.106438247882696"><ele>313.0</ele><time>2026-04-22T10:18:12.999Z</time></trkpt><trkpt lat="42.718684457101425" lon="12.106314197278078"><ele>313.0</ele><time>2026-04-22T10:18:16.999Z</time></trkpt><trkpt lat="42.718638336734834" lon="12.106178266003758"><ele>312.16666666666663</ele><time>2026-04-22T10:18:19.999Z</time></trkpt><trkpt lat="42.71862109815781" lon="12.106083226435938"><ele>311.3333333333333</ele><time>2026-04-22T10:18:21.999Z</time></trkpt><trkpt lat="42.71860524501325" lon="12.105996444041379"><ele>310.5</ele><time>2026-04-22T10:18:23.999Z</time></trkpt><trkpt lat="42.7185925987634" lon="12.105895870965966"><ele>309.6666666666667</ele><time>2026-04-22T10:18:25.999Z</time></trkpt><trkpt lat="42.71856065348238" lon="12.105788119831818"><ele>308.83333333333337</ele><time>2026-04-22T10:18:27.999Z</time></trkpt><trkpt lat="42.71852147846961" lon="12.105689209525654"><ele>308.0</ele><time>2026-04-22T10:18:29.999Z</time></trkpt><trkpt lat="42.718492431540696" lon="12.105576303812635"><ele>306.0</ele><time>2026-04-22T10:18:31.999Z</time></trkpt><trkpt lat="42.718459993305984" lon="12.10547568366427"><ele>304.0</ele><time>2026-04-22T10:18:33.999Z</time></trkpt><trkpt lat="42.71842552435332" lon="12.10537627686278"><ele>302.0</ele><time>2026-04-22T10:18:35.999Z</time></trkpt><trkpt lat="42.71840465289246" lon="12.105275360614588"><ele>300.0</ele><time>2026-04-22T10:18:37.999Z</time></trkpt><trkpt lat="42.718398393479774" lon="12.105156358392364"><ele>298.0</ele><time>2026-04-22T10:18:39.999Z</time></trkpt><trkpt lat="42.718389423399294" lon="12.105043086979219"><ele>296.0</ele><time>2026-04-22T10:18:41.999Z</time></trkpt><trkpt lat="42.71837622789529" lon="12.104919187106278"><ele>294.0</ele><time>2026-04-22T10:18:43.999Z</time></trkpt><trkpt lat="42.718351649929595" lon="12.104793063978468"><ele>292.0</ele><time>2026-04-22T10:18:45.999Z</time></trkpt><trkpt lat="42.71831775154155" lon="12.104666015156596"><ele>290.0</ele><time>2026-04-22T10:18:47.999Z</time></trkpt><trkpt lat="42.71827620112296" lon="12.104548644059925"><ele>288.0</ele><time>2026-04-22T10:18:49.999Z</time></trkpt><trkpt lat="42.718234974621794" lon="12.104440818469032"><ele>286.0</ele><time>2026-04-22T10:18:51.999Z</time></trkpt><trkpt lat="42.718184130063634" lon="12.10432959919869"><ele>286.0</ele><time>2026-04-22T10:18:53.999Z</time></trkpt><trkpt lat="42.7181345288862" lon="12.104229585082315"><ele>286.0</ele><time>2026-04-22T10:18:55.999Z</time></trkpt><trkpt lat="42.71807987925545" lon="12.10413301464077"><ele>286.0</ele><time>2026-04-22T10:18:57.999Z</time></trkpt><trkpt lat="42.71803585574114" lon="12.10403539094121"><ele>286.0</ele><time>2026-04-22T10:18:59.999Z</time></trkpt><trkpt lat="42.71800447983709" lon="12.103960103788438"><ele>286.0</ele><time>2026-04-22T10:19:01.999Z</time></trkpt><trkpt lat="42.717988384834015" lon="12.103864682617923"><ele>286.0</ele><time>2026-04-22T10:19:03.999Z</time></trkpt><trkpt lat="42.717949162126885" lon="12.10376078086089"><ele>282.2</ele><time>2026-04-22T10:19:06.999Z</time></trkpt><trkpt lat="42.71791734943588" lon="12.10365342844788"><ele>278.40000000000003</ele><time>2026-04-22T10:19:08.999Z</time></trkpt><trkpt lat="42.717780188330394" lon="12.103629178511643"><ele>274.6</ele><time>2026-04-22T10:19:09.999Z</time></trkpt><trkpt lat="42.71767460411756" lon="12.103558368415833"><ele>270.8</ele><time>2026-04-22T10:19:11.999Z</time></trkpt><trkpt lat="42.71761154736272" lon="12.103518271120715"><ele>267.0</ele><time>2026-04-22T10:19:12.999Z</time></trkpt><trkpt lat="42.717535665682675" lon="12.103481833964974"><ele>266.0</ele><time>2026-04-22T10:19:13.999Z</time></trkpt><trkpt lat="42.71744916827481" lon="12.103470147319733"><ele>265.0</ele><time>2026-04-22T10:19:14.999Z</time></trkpt><trkpt lat="42.717371916766716" lon="12.103492629772575"><ele>264.0</ele><time>2026-04-22T10:19:15.999Z</time></trkpt><trkpt lat="42.71729751394711" lon="12.103535924382955"><ele>263.0</ele><time>2026-04-22T10:19:16.999Z</time></trkpt><trkpt lat="42.71723657577725" lon="12.103597385650595"><ele>262.0</ele><time>2026-04-22T10:19:17.999Z</time></trkpt><trkpt lat="42.717180954304474" lon="12.103671246248128"><ele>261.0</ele><time>2026-04-22T10:19:18.999Z</time></trkpt><trkpt lat="42.717128780143355" lon="12.103754684836172"><ele>261.0</ele><time>2026-04-22T10:19:19.999Z</time></trkpt><trkpt lat="42.71707985476755" lon="12.103846542006108"><ele>261.0</ele><time>2026-04-22T10:19:20.999Z</time></trkpt><trkpt lat="42.717021021227055" lon="12.103950727395116"><ele>261.0</ele><time>2026-04-22T10:19:21.999Z</time></trkpt><trkpt lat="42.71694830928128" lon="12.10406819736175"><ele>261.0</ele><time>2026-04-22T10:19:22.999Z</time></trkpt><trkpt lat="42.71686765483535" lon="12.104192415273005"><ele>261.0</ele><time>2026-04-22T10:19:23.999Z</time></trkpt><trkpt lat="42.71678351279447" lon="12.1043324831631"><ele>260.0</ele><time>2026-04-22T10:19:24.999Z</time></trkpt><trkpt lat="42.71669491321383" lon="12.104479622251409"><ele>259.0</ele><time>2026-04-22T10:19:25.999Z</time></trkpt><trkpt lat="42.716609106424926" lon="12.104624421604491"><ele>258.0</ele><time>2026-04-22T10:19:26.999Z</time></trkpt><trkpt lat="42.71650902327965" lon="12.10475728698304"><ele>257.0</ele><time>2026-04-22T10:19:27.999Z</time></trkpt><trkpt lat="42.71642881524099" lon="12.104917253517538"><ele>259.25</ele><time>2026-04-22T10:19:28.999Z</time></trkpt><trkpt lat="42.716332988346196" lon="12.105067661842158"><ele>261.5</ele><time>2026-04-22T10:19:29.999Z</time></trkpt><trkpt lat="42.71623521865531" lon="12.1052182427353"><ele>263.75</ele><time>2026-04-22T10:19:30.999Z</time></trkpt><trkpt lat="42.71613535024534" lon="12.105363220652935"><ele>266.0</ele><time>2026-04-22T10:19:31.999Z</time></trkpt><trkpt lat="42.716036673146554" lon="12.105499493644551"><ele>263.5</ele><time>2026-04-22T10:19:32.999Z</time></trkpt><trkpt lat="42.715942027353556" lon="12.105623520296373"><ele>261.0</ele><time>2026-04-22T10:19:33.999Z</time></trkpt><trkpt lat="42.71584741778176" lon="12.105740189899464"><ele>258.5</ele><time>2026-04-22T10:19:34.999Z</time></trkpt><trkpt lat="42.715749685537986" lon="12.105853107319861"><ele>256.0</ele><time>2026-04-22T10:19:35.999Z</time></trkpt><trkpt lat="42.71564064544218" lon="12.105982630000767"><ele>256.0</ele><time>2026-04-22T10:19:36.999Z</time></trkpt><trkpt lat="42.7155322629958" lon="12.106123520144868"><ele>256.0</ele><time>2026-04-22T10:19:37.999Z</time></trkpt><trkpt lat="42.71543507602151" lon="12.106261523125378"><ele>256.0</ele><time>2026-04-22T10:19:38.999Z</time></trkpt><trkpt lat="42.71534658458828" lon="12.106390298044076"><ele>256.0</ele><time>2026-04-22T10:19:39.999Z</time></trkpt><trkpt lat="42.71526718284824" lon="12.106507947859132"><ele>253.66666666666666</ele><time>2026-04-22T10:19:40.999Z</time></trkpt><trkpt lat="42.715197519899036" lon="12.106608985424973"><ele>251.33333333333331</ele><time>2026-04-22T10:19:41.999Z</time></trkpt><trkpt lat="42.71512481852395" lon="12.106674255179234"><ele>249.0</ele><time>2026-04-22T10:19:42.999Z</time></trkpt><trkpt lat="42.71507674171216" lon="12.10675062672247"><ele>246.66666666666669</ele><time>2026-04-22T10:19:43.999Z</time></trkpt><trkpt lat="42.71501523198011" lon="12.106769110014852"><ele>244.33333333333334</ele><time>2026-04-22T10:19:44.999Z</time></trkpt><trkpt lat="42.7149259103087" lon="12.106667880969683"><ele>242.0</ele><time>2026-04-22T10:19:46.999Z</time></trkpt><trkpt lat="42.714929937931245" lon="12.106574897094195"><ele>239.25</ele><time>2026-04-22T10:19:47.999Z</time></trkpt><trkpt lat="42.7149846116441" lon="12.106491480583015"><ele>236.5</ele><time>2026-04-22T10:19:48.999Z</time></trkpt><trkpt lat="42.715040126437735" lon="12.106347138117584"><ele>233.75</ele><time>2026-04-22T10:19:49.999Z</time></trkpt><trkpt lat="42.715125801670744" lon="12.10618780340593"><ele>231.0</ele><time>2026-04-22T10:19:50.999Z</time></trkpt><trkpt lat="42.71520723884729" lon="12.10601697532723"><ele>235.66666666666669</ele><time>2026-04-22T10:19:51.999Z</time></trkpt><trkpt lat="42.71529864862639" lon="12.105814965137933"><ele>240.33333333333334</ele><time>2026-04-22T10:19:52.999Z</time></trkpt><trkpt lat="42.71538752677564" lon="12.10560100792521"><ele>245.0</ele><time>2026-04-22T10:19:53.999Z</time></trkpt><trkpt lat="42.715463511874475" lon="12.105367100216103"><ele>245.0</ele><time>2026-04-22T10:19:54.999Z</time></trkpt><trkpt lat="42.71551996927224" lon="12.105133683659563"><ele>245.0</ele><time>2026-04-22T10:19:55.999Z</time></trkpt><trkpt lat="42.715570989024876" lon="12.104911193482176"><ele>245.0</ele><time>2026-04-22T10:19:56.999Z</time></trkpt><trkpt lat="42.71561650825915" lon="12.104701888261294"><ele>241.33333333333334</ele><time>2026-04-22T10:19:57.999Z</time></trkpt><trkpt lat="42.71565185691579" lon="12.104497153305742"><ele>237.66666666666669</ele><time>2026-04-22T10:19:58.999Z</time></trkpt><trkpt lat="42.71566546720411" lon="12.104295352502929"><ele>234.0</ele><time>2026-04-22T10:19:59.999Z</time></trkpt><trkpt lat="42.715677957230014" lon="12.1040925287373"><ele>232.25</ele><time>2026-04-22T10:20:00.999Z</time></trkpt><trkpt lat="42.71570804251959" lon="12.103903346004047"><ele>230.5</ele><time>2026-04-22T10:20:01.999Z</time></trkpt><trkpt lat="42.71575384987948" lon="12.103716459150004"><ele>228.75</ele><time>2026-04-22T10:20:02.999Z</time></trkpt><trkpt lat="42.715811320081364" lon="12.103532538475076"><ele>227.0</ele><time>2026-04-22T10:20:03.999Z</time></trkpt><trkpt lat="42.715871794742895" lon="12.103353095703506"><ele>228.75</ele><time>2026-04-22T10:20:04.999Z</time></trkpt><trkpt lat="42.715929909100716" lon="12.103185716778103"><ele>230.5</ele><time>2026-04-22T10:20:05.999Z</time></trkpt><trkpt lat="42.71598563083743" lon="12.103026493747375"><ele>232.25</ele><time>2026-04-22T10:20:06.999Z</time></trkpt><trkpt lat="42.71604119054258" lon="12.102872407033267"><ele>234.0</ele><time>2026-04-22T10:20:07.999Z</time></trkpt><trkpt lat="42.71610258081652" lon="12.10272119124839"><ele>234.0</ele><time>2026-04-22T10:20:08.999Z</time></trkpt><trkpt lat="42.71617146681267" lon="12.1025670407229"><ele>234.0</ele><time>2026-04-22T10:20:09.999Z</time></trkpt><trkpt lat="42.7163178282113" lon="12.102260563528004"><ele>234.0</ele><time>2026-04-22T10:20:11.999Z</time></trkpt><trkpt lat="42.716386162434006" lon="12.102107502616773"><ele>231.25</ele><time>2026-04-22T10:20:12.999Z</time></trkpt><trkpt lat="42.716446056629785" lon="12.101953029011035"><ele>228.5</ele><time>2026-04-22T10:20:13.999Z</time></trkpt><trkpt lat="42.71649346161625" lon="12.101809763263363"><ele>225.75</ele><time>2026-04-22T10:20:14.999Z</time></trkpt><trkpt lat="42.71653685004532" lon="12.10167615030462"><ele>223.0</ele><time>2026-04-22T10:20:15.999Z</time></trkpt><trkpt lat="42.71657663016482" lon="12.101546972570873"><ele>222.16666666666666</ele><time>2026-04-22T10:20:16.999Z</time></trkpt><trkpt lat="42.71661060657198" lon="12.101423503352908"><ele>221.33333333333331</ele><time>2026-04-22T10:20:17.999Z</time></trkpt><trkpt lat="42.71663295646572" lon="12.101305333088122"><ele>220.5</ele><time>2026-04-22T10:20:18.999Z</time></trkpt><trkpt lat="42.71664134469056" lon="12.101191303991358"><ele>219.66666666666669</ele><time>2026-04-22T10:20:19.999Z</time></trkpt><trkpt lat="42.71663364035762" lon="12.101083314838132"><ele>218.83333333333334</ele><time>2026-04-22T10:20:20.999Z</time></trkpt><trkpt lat="42.71661913012312" lon="12.100962931716655"><ele>218.0</ele><time>2026-04-22T10:20:21.999Z</time></trkpt><trkpt lat="42.71660411036783" lon="12.10083391675814"><ele>216.60000000000002</ele><time>2026-04-22T10:20:22.999Z</time></trkpt><trkpt lat="42.71658491665008" lon="12.10071542420346"><ele>215.20000000000002</ele><time>2026-04-22T10:20:23.999Z</time></trkpt><trkpt lat="42.71656458171631" lon="12.100601944589785"><ele>213.8</ele><time>2026-04-22T10:20:24.999Z</time></trkpt><trkpt lat="42.71654959581313" lon="12.100505222755244"><ele>212.4</ele><time>2026-04-22T10:20:25.999Z</time></trkpt><trkpt lat="42.71655795012876" lon="12.100338271685093"><ele>211.0</ele><time>2026-04-22T10:20:27.999Z</time></trkpt><trkpt lat="42.716620602986026" lon="12.100199385324332"><ele>210.99999999999997</ele><time>2026-04-22T10:20:29.999Z</time></trkpt><trkpt lat="42.71665937544788" lon="12.10012966868449"><ele>211.0</ele><time>2026-04-22T10:20:30.999Z</time></trkpt><trkpt lat="42.71669737840777" lon="12.100046761536571"><ele>211.0</ele><time>2026-04-22T10:20:31.999Z</time></trkpt><trkpt lat="42.71673501448401" lon="12.099951768886905"><ele>211.0</ele><time>2026-04-22T10:20:32.999Z</time></trkpt><trkpt lat="42.71676331267819" lon="12.099844950619781"><ele>210.99999999999997</ele><time>2026-04-22T10:20:33.999Z</time></trkpt><trkpt lat="42.71677821064491" lon="12.099737865639446"><ele>211.0</ele><time>2026-04-22T10:20:34.999Z</time></trkpt><trkpt lat="42.71677862495753" lon="12.099636386704661"><ele>211.66666666666666</ele><time>2026-04-22T10:20:35.999Z</time></trkpt><trkpt lat="42.71677383194782" lon="12.099547485967102"><ele>212.33333333333331</ele><time>2026-04-22T10:20:36.999Z</time></trkpt><trkpt lat="42.716771636307456" lon="12.099404849846078"><ele>213.0</ele><time>2026-04-22T10:20:38.999Z</time></trkpt><trkpt lat="42.71678916918971" lon="12.099304795438796"><ele>213.66666666666669</ele><time>2026-04-22T10:20:40.999Z</time></trkpt><trkpt lat="42.71681280448925" lon="12.09921572577409"><ele>214.33333333333334</ele><time>2026-04-22T10:20:43.999Z</time></trkpt><trkpt lat="42.71687365174553" lon="12.099108885324153"><ele>215.0</ele><time>2026-04-22T10:20:45.999Z</time></trkpt><trkpt lat="42.71691369117432" lon="12.098957414308368"><ele>213.50000000000003</ele><time>2026-04-22T10:20:47.999Z</time></trkpt><trkpt lat="42.71684971008683" lon="12.098844096286696"><ele>212.0</ele><time>2026-04-22T10:20:48.999Z</time></trkpt><trkpt lat="42.716813550865744" lon="12.098758166895351"><ele>210.5</ele><time>2026-04-22T10:20:49.999Z</time></trkpt><trkpt lat="42.716766634626154" lon="12.098675806037628"><ele>209.0</ele><time>2026-04-22T10:20:50.999Z</time></trkpt><trkpt lat="42.716708022748655" lon="12.098603588140165"><ele>207.50000000000003</ele><time>2026-04-22T10:20:51.999Z</time></trkpt><trkpt lat="42.71664316809724" lon="12.098546427932568"><ele>206.0</ele><time>2026-04-22T10:20:52.999Z</time></trkpt><trkpt lat="42.71657231812979" lon="12.098506761012507"><ele>206.00000000000003</ele><time>2026-04-22T10:20:53.999Z</time></trkpt><trkpt lat="42.7164972607501" lon="12.098480157470862"><ele>206.0</ele><time>2026-04-22T10:20:54.999Z</time></trkpt><trkpt lat="42.7164190991049" lon="12.09845694446991"><ele>206.0</ele><time>2026-04-22T10:20:55.999Z</time></trkpt><trkpt lat="42.716334747550015" lon="12.098428464906117"><ele>206.0</ele><time>2026-04-22T10:20:56.999Z</time></trkpt><trkpt lat="42.71624905051457" lon="12.098400597535202"><ele>206.00000000000003</ele><time>2026-04-22T10:20:57.999Z</time></trkpt><trkpt lat="42.71615435663001" lon="12.098362769361714"><ele>206.0</ele><time>2026-04-22T10:20:58.999Z</time></trkpt><trkpt lat="42.71605549110482" lon="12.098325499432196"><ele>204.4</ele><time>2026-04-22T10:20:59.999Z</time></trkpt><trkpt lat="42.715949393670414" lon="12.098290258574671"><ele>202.8</ele><time>2026-04-22T10:21:00.999Z</time></trkpt><trkpt lat="42.715837900647564" lon="12.098258924294967"><ele>201.20000000000002</ele><time>2026-04-22T10:21:01.999Z</time></trkpt><trkpt lat="42.71572732432967" lon="12.09824378159414"><ele>199.60000000000002</ele><time>2026-04-22T10:21:02.999Z</time></trkpt><trkpt lat="42.71562025435078" lon="12.098237006672447"><ele>198.0</ele><time>2026-04-22T10:21:03.999Z</time></trkpt><trkpt lat="42.71551602835207" lon="12.098246146884556"><ele>197.66666666666669</ele><time>2026-04-22T10:21:04.999Z</time></trkpt><trkpt lat="42.71541458993139" lon="12.098269240796952"><ele>197.33333333333334</ele><time>2026-04-22T10:21:05.999Z</time></trkpt><trkpt lat="42.71541458993139" lon="12.098269240796952"><ele>197.0</ele><time>2026-04-22T10:21:05.999Z</time></trkpt><trkpt lat="42.714096620795615" lon="12.101389898912636"><ele>195.8</ele><time>2026-04-22T10:21:30.999Z</time></trkpt><trkpt lat="42.71406699926128" lon="12.10150851485706"><ele>194.6</ele><time>2026-04-22T10:21:31.999Z</time></trkpt><trkpt lat="42.71403709482871" lon="12.101627399618929"><ele>193.4</ele><time>2026-04-22T10:21:33Z</time></trkpt><trkpt lat="42.71400595196131" lon="12.101746508399643"><ele>192.20000000000002</ele><time>2026-04-22T10:21:34Z</time></trkpt><trkpt lat="42.71397480038822" lon="12.101870392154675"><ele>191.0</ele><time>2026-04-22T10:21:35Z</time></trkpt><trkpt lat="42.71394268736561" lon="12.101999801873855"><ele>191.0</ele><time>2026-04-22T10:21:36Z</time></trkpt><trkpt lat="42.713908832425545" lon="12.102133926078785"><ele>191.0</ele><time>2026-04-22T10:21:37Z</time></trkpt><trkpt lat="42.713873543274495" lon="12.10227279971744"><ele>191.0</ele><time>2026-04-22T10:21:38Z</time></trkpt><trkpt lat="42.7138357090054" lon="12.102414708962478"><ele>191.0</ele><time>2026-04-22T10:21:39Z</time></trkpt><trkpt lat="42.713795870206454" lon="12.102562150045884"><ele>191.0</ele><time>2026-04-22T10:21:40Z</time></trkpt><trkpt lat="42.71375668715692" lon="12.102717099502176"><ele>191.0</ele><time>2026-04-22T10:21:41Z</time></trkpt><trkpt lat="42.71371490608779" lon="12.10287523310793"><ele>191.0</ele><time>2026-04-22T10:21:42Z</time></trkpt><trkpt lat="42.713670722612065" lon="12.103036480437382"><ele>191.0</ele><time>2026-04-22T10:21:43Z</time></trkpt><trkpt lat="42.71362601055739" lon="12.103199801120011"><ele>191.0</ele><time>2026-04-22T10:21:44Z</time></trkpt><trkpt lat="42.71358165910065" lon="12.103366414018007"><ele>190.5</ele><time>2026-04-22T10:21:45Z</time></trkpt><trkpt lat="42.71353410208769" lon="12.103534894846296"><ele>190.0</ele><time>2026-04-22T10:21:46Z</time></trkpt><trkpt lat="42.713480273314396" lon="12.103704588761737"><ele>189.5</ele><time>2026-04-22T10:21:47Z</time></trkpt><trkpt lat="42.713424433455934" lon="12.103872113198209"><ele>189.0</ele><time>2026-04-22T10:21:48Z</time></trkpt><trkpt lat="42.713363239253006" lon="12.104033678113066"><ele>189.0</ele><time>2026-04-22T10:21:49Z</time></trkpt><trkpt lat="42.71330392505906" lon="12.104180179134142"><ele>189.0</ele><time>2026-04-22T10:21:50Z</time></trkpt><trkpt lat="42.713246740037896" lon="12.104320286546766"><ele>189.0</ele><time>2026-04-22T10:21:51Z</time></trkpt><trkpt lat="42.71319187523463" lon="12.104456591565228"><ele>189.0</ele><time>2026-04-22T10:21:52Z</time></trkpt><trkpt lat="42.713135814802975" lon="12.104593974490623"><ele>189.0</ele><time>2026-04-22T10:21:53Z</time></trkpt><trkpt lat="42.713078587777474" lon="12.104730578864974"><ele>189.0</ele><time>2026-04-22T10:21:54Z</time></trkpt><trkpt lat="42.713017003023644" lon="12.10486591428325"><ele>189.0</ele><time>2026-04-22T10:21:55Z</time></trkpt><trkpt lat="42.71295024380144" lon="12.104998652792228"><ele>189.0</ele><time>2026-04-22T10:21:56Z</time></trkpt><trkpt lat="42.71287828708515" lon="12.105125519276738"><ele>188.6</ele><time>2026-04-22T10:21:57Z</time></trkpt><trkpt lat="42.71280525783304" lon="12.105242702252962"><ele>188.2</ele><time>2026-04-22T10:21:58Z</time></trkpt><trkpt lat="42.71273850238666" lon="12.105356063946246"><ele>187.79999999999998</ele><time>2026-04-22T10:21:59Z</time></trkpt><trkpt lat="42.71268113502077" lon="12.105478705511233"><ele>187.39999999999998</ele><time>2026-04-22T10:22:00Z</time></trkpt><trkpt lat="42.71263173718137" lon="12.105621980838743"><ele>187.0</ele><time>2026-04-22T10:22:01Z</time></trkpt><trkpt lat="42.71259098263649" lon="12.105781954571121"><ele>187.0</ele><time>2026-04-22T10:22:02Z</time></trkpt><trkpt lat="42.712559608178694" lon="12.105953791356939"><ele>187.0</ele><time>2026-04-22T10:22:03Z</time></trkpt><trkpt lat="42.71253175810619" lon="12.10613879762566"><ele>187.0</ele><time>2026-04-22T10:22:04Z</time></trkpt><trkpt lat="42.71249698260186" lon="12.106329196630034"><ele>187.0</ele><time>2026-04-22T10:22:05Z</time></trkpt><trkpt lat="42.712461097640144" lon="12.106524902569408"><ele>187.25</ele><time>2026-04-22T10:22:06Z</time></trkpt><trkpt lat="42.712425107774024" lon="12.106720585461009"><ele>187.5</ele><time>2026-04-22T10:22:07Z</time></trkpt><trkpt lat="42.71238680655898" lon="12.106914518800062"><ele>187.75</ele><time>2026-04-22T10:22:08Z</time></trkpt><trkpt lat="42.71234640716747" lon="12.107105557648206"><ele>188.0</ele><time>2026-04-22T10:22:09Z</time></trkpt><trkpt lat="42.71230662650949" lon="12.107293232148917"><ele>188.5</ele><time>2026-04-22T10:22:10Z</time></trkpt><trkpt lat="42.71226360372585" lon="12.107478115075098"><ele>189.0</ele><time>2026-04-22T10:22:11Z</time></trkpt><trkpt lat="42.712220613607805" lon="12.107668462091544"><ele>189.5</ele><time>2026-04-22T10:22:12Z</time></trkpt><trkpt lat="42.71217821932689" lon="12.107860819478041"><ele>190.0</ele><time>2026-04-22T10:22:13Z</time></trkpt><trkpt lat="42.71213806926458" lon="12.10805229655613"><ele>190.0</ele><time>2026-04-22T10:22:14Z</time></trkpt><trkpt lat="42.712104360043476" lon="12.108232336684623"><ele>190.0</ele><time>2026-04-22T10:22:15Z</time></trkpt><trkpt lat="42.71207441089911" lon="12.108407469375146"><ele>190.0</ele><time>2026-04-22T10:22:16Z</time></trkpt><trkpt lat="42.71204377816042" lon="12.10858777576049"><ele>190.0</ele><time>2026-04-22T10:22:17Z</time></trkpt><trkpt lat="42.712014556945576" lon="12.108760731164788"><ele>191.0</ele><time>2026-04-22T10:22:18Z</time></trkpt><trkpt lat="42.71198823801902" lon="12.108926071953814"><ele>192.0</ele><time>2026-04-22T10:22:19Z</time></trkpt><trkpt lat="42.711965162469305" lon="12.109085777120141"><ele>193.0</ele><time>2026-04-22T10:22:20Z</time></trkpt><trkpt lat="42.71194968665534" lon="12.109242910955759"><ele>194.0</ele><time>2026-04-22T10:22:21Z</time></trkpt><trkpt lat="42.71194340717845" lon="12.109404579949016"><ele>194.0</ele><time>2026-04-22T10:22:22Z</time></trkpt><trkpt lat="42.71194441920773" lon="12.109568253223191"><ele>194.0</ele><time>2026-04-22T10:22:23Z</time></trkpt><trkpt lat="42.71194887103924" lon="12.109724633923449"><ele>194.0</ele><time>2026-04-22T10:22:24Z</time></trkpt><trkpt lat="42.71195838316983" lon="12.109875870068544"><ele>194.0</ele><time>2026-04-22T10:22:24.999Z</time></trkpt><trkpt lat="42.71196777746343" lon="12.11002793962674"><ele>194.0</ele><time>2026-04-22T10:22:25.999Z</time></trkpt><trkpt lat="42.711978105495746" lon="12.110182433192373"><ele>194.0</ele><time>2026-04-22T10:22:26.999Z</time></trkpt><trkpt lat="42.71198875418897" lon="12.110339360574828"><ele>194.0</ele><time>2026-04-22T10:22:27.999Z</time></trkpt><trkpt lat="42.711997441095086" lon="12.110489670162098"><ele>194.0</ele><time>2026-04-22T10:22:28.999Z</time></trkpt><trkpt lat="42.71200550062824" lon="12.110634408496828"><ele>194.0</ele><time>2026-04-22T10:22:29.999Z</time></trkpt><trkpt lat="42.71201507113896" lon="12.11077679871883"><ele>193.39999999999998</ele><time>2026-04-22T10:22:30.999Z</time></trkpt><trkpt lat="42.71202923235261" lon="12.110922679878186"><ele>192.8</ele><time>2026-04-22T10:22:31.999Z</time></trkpt><trkpt lat="42.71204792274229" lon="12.111073195174361"><ele>192.2</ele><time>2026-04-22T10:22:32.999Z</time></trkpt><trkpt lat="42.71207370262435" lon="12.111215323873061"><ele>191.60000000000002</ele><time>2026-04-22T10:22:33.999Z</time></trkpt><trkpt lat="42.712099416420024" lon="12.111348735616126"><ele>191.0</ele><time>2026-04-22T10:22:34.999Z</time></trkpt><trkpt lat="42.71212528568291" lon="12.11147911213635"><ele>190.60000000000002</ele><time>2026-04-22T10:22:35.999Z</time></trkpt><trkpt lat="42.71214903537267" lon="12.111606072744692"><ele>190.2</ele><time>2026-04-22T10:22:36.999Z</time></trkpt><trkpt lat="42.71216967225291" lon="12.111735938120574"><ele>189.8</ele><time>2026-04-22T10:22:37.999Z</time></trkpt><trkpt lat="42.71218248087525" lon="12.111870738246573"><ele>189.39999999999998</ele><time>2026-04-22T10:22:38.999Z</time></trkpt><trkpt lat="42.71218886679209" lon="12.11201265167992"><ele>189.0</ele><time>2026-04-22T10:22:39.999Z</time></trkpt><trkpt lat="42.712179179976644" lon="12.112158986899082"><ele>189.0</ele><time>2026-04-22T10:22:40.999Z</time></trkpt><trkpt lat="42.71215420738568" lon="12.112299677691784"><ele>189.0</ele><time>2026-04-22T10:22:41.999Z</time></trkpt><trkpt lat="42.71212828476177" lon="12.11242084312903"><ele>189.0</ele><time>2026-04-22T10:22:42.999Z</time></trkpt><trkpt lat="42.71210136794163" lon="12.112548981241487"><ele>189.0</ele><time>2026-04-22T10:22:43.999Z</time></trkpt><trkpt lat="42.7120677692242" lon="12.112672894745364"><ele>189.0</ele><time>2026-04-22T10:22:44.999Z</time></trkpt><trkpt lat="42.712037317488985" lon="12.1128020137709"><ele>188.2</ele><time>2026-04-22T10:22:45.999Z</time></trkpt><trkpt lat="42.71200675159099" lon="12.112944199571766"><ele>187.39999999999998</ele><time>2026-04-22T10:22:46.999Z</time></trkpt><trkpt lat="42.71197474361273" lon="12.113092474002412"><ele>186.6</ele><time>2026-04-22T10:22:47.999Z</time></trkpt><trkpt lat="42.711947848903314" lon="12.113234164162424"><ele>185.8</ele><time>2026-04-22T10:22:48.999Z</time></trkpt><trkpt lat="42.71193567883819" lon="12.113374208902007"><ele>185.0</ele><time>2026-04-22T10:22:49.999Z</time></trkpt><trkpt lat="42.71193821054933" lon="12.113518535306508"><ele>183.25</ele><time>2026-04-22T10:22:50.999Z</time></trkpt><trkpt lat="42.71196862928547" lon="12.113664706843558"><ele>181.5</ele><time>2026-04-22T10:22:51.999Z</time></trkpt><trkpt lat="42.71201411190088" lon="12.113810284495623"><ele>179.75</ele><time>2026-04-22T10:22:52.999Z</time></trkpt><trkpt lat="42.71206692683945" lon="12.113959772772866"><ele>178.0</ele><time>2026-04-22T10:22:53.999Z</time></trkpt><trkpt lat="42.71212645222645" lon="12.114118451246128"><ele>176.75</ele><time>2026-04-22T10:22:54.999Z</time></trkpt><trkpt lat="42.71219176182002" lon="12.114278808526272"><ele>175.5</ele><time>2026-04-22T10:22:55.999Z</time></trkpt><trkpt lat="42.712258928377196" lon="12.114447894384076"><ele>174.25</ele><time>2026-04-22T10:22:56.999Z</time></trkpt><trkpt lat="42.71232677320477" lon="12.114625694821406"><ele>173.0</ele><time>2026-04-22T10:22:57.999Z</time></trkpt><trkpt lat="42.712397503080325" lon="12.114807268234529"><ele>171.66666666666666</ele><time>2026-04-22T10:22:58.999Z</time></trkpt><trkpt lat="42.71246961107654" lon="12.114992547040863"><ele>170.33333333333334</ele><time>2026-04-22T10:22:59.999Z</time></trkpt><trkpt lat="42.7125409504321" lon="12.115176990421428"><ele>169.0</ele><time>2026-04-22T10:23:00.999Z</time></trkpt><trkpt lat="42.71260839945424" lon="12.11535174138356"><ele>169.0</ele><time>2026-04-22T10:23:01.999Z</time></trkpt><trkpt lat="42.71266839494924" lon="12.115524498875018"><ele>169.0</ele><time>2026-04-22T10:23:02.999Z</time></trkpt><trkpt lat="42.71271841577408" lon="12.115691610430524"><ele>169.0</ele><time>2026-04-22T10:23:03.999Z</time></trkpt><trkpt lat="42.71276188031056" lon="12.115856899941091"><ele>169.0</ele><time>2026-04-22T10:23:04.999Z</time></trkpt><trkpt lat="42.71279426818175" lon="12.116021804543307"><ele>170.75</ele><time>2026-04-22T10:23:05.999Z</time></trkpt><trkpt lat="42.71282537580563" lon="12.11618470852192"><ele>172.5</ele><time>2026-04-22T10:23:06.999Z</time></trkpt><trkpt lat="42.712858322515146" lon="12.116343052675433"><ele>174.25</ele><time>2026-04-22T10:23:07.999Z</time></trkpt><trkpt lat="42.71289043273725" lon="12.116502978796456"><ele>176.0</ele><time>2026-04-22T10:23:08.999Z</time></trkpt><trkpt lat="42.712923074087044" lon="12.11666373157916"><ele>176.0</ele><time>2026-04-22T10:23:09.999Z</time></trkpt><trkpt lat="42.71295645056465" lon="12.116819125453945"><ele>176.0</ele><time>2026-04-22T10:23:10.999Z</time></trkpt><trkpt lat="42.712989773801546" lon="12.116967336584333"><ele>176.0</ele><time>2026-04-22T10:23:11.999Z</time></trkpt><trkpt lat="42.71302242625308" lon="12.117117488385588"><ele>176.0</ele><time>2026-04-22T10:23:12.999Z</time></trkpt><trkpt lat="42.71305773378003" lon="12.117267185973793"><ele>174.75</ele><time>2026-04-22T10:23:13.999Z</time></trkpt><trkpt lat="42.71309482510844" lon="12.11742495494117"><ele>173.5</ele><time>2026-04-22T10:23:14.999Z</time></trkpt><trkpt lat="42.71313244756292" lon="12.11758728864473"><ele>172.25</ele><time>2026-04-22T10:23:15.999Z</time></trkpt><trkpt lat="42.7131702043246" lon="12.117752201661643"><ele>171.0</ele><time>2026-04-22T10:23:16.999Z</time></trkpt><trkpt lat="42.71320733888579" lon="12.117918557365135"><ele>171.0</ele><time>2026-04-22T10:23:17.999Z</time></trkpt><trkpt lat="42.71323900143075" lon="12.11807995585117"><ele>171.0</ele><time>2026-04-22T10:23:18.999Z</time></trkpt><trkpt lat="42.7132687466293" lon="12.11823686229476"><ele>171.0</ele><time>2026-04-22T10:23:19.999Z</time></trkpt><trkpt lat="42.71329841913187" lon="12.118388610937599"><ele>171.0</ele><time>2026-04-22T10:23:20.999Z</time></trkpt><trkpt lat="42.7133278663079" lon="12.11853550841831"><ele>169.4</ele><time>2026-04-22T10:23:21.999Z</time></trkpt><trkpt lat="42.71335550750877" lon="12.11867790291134"><ele>167.8</ele><time>2026-04-22T10:23:23Z</time></trkpt><trkpt lat="42.71338649416662" lon="12.118820128775772"><ele>166.20000000000002</ele><time>2026-04-22T10:23:24Z</time></trkpt><trkpt lat="42.713425528804784" lon="12.118962672705148"><ele>164.60000000000002</ele><time>2026-04-22T10:23:25Z</time></trkpt><trkpt lat="42.713466427320945" lon="12.119101027459005"><ele>163.0</ele><time>2026-04-22T10:23:26Z</time></trkpt><trkpt lat="42.71351038052368" lon="12.119226537598147"><ele>164.0</ele><time>2026-04-22T10:23:27Z</time></trkpt><trkpt lat="42.713553807266166" lon="12.119342090066812"><ele>165.0</ele><time>2026-04-22T10:23:28Z</time></trkpt><trkpt lat="42.713590264937274" lon="12.119448955798914"><ele>166.0</ele><time>2026-04-22T10:23:29Z</time></trkpt><trkpt lat="42.71362396948455" lon="12.119545908742696"><ele>167.0</ele><time>2026-04-22T10:23:30Z</time></trkpt><trkpt lat="42.71365360292446" lon="12.119637116913243"><ele>168.0</ele><time>2026-04-22T10:23:31Z</time></trkpt><trkpt lat="42.71368360228093" lon="12.119728808424998"><ele>169.0</ele><time>2026-04-22T10:23:32Z</time></trkpt><trkpt lat="42.71371275754522" lon="12.119828124837962"><ele>167.5</ele><time>2026-04-22T10:23:33Z</time></trkpt><trkpt lat="42.71374493038781" lon="12.119939873564624"><ele>166.0</ele><time>2026-04-22T10:23:34Z</time></trkpt><trkpt lat="42.71378063640923" lon="12.120049682492363"><ele>164.5</ele><time>2026-04-22T10:23:35Z</time></trkpt><trkpt lat="42.71382079280801" lon="12.120155280501162"><ele>163.0</ele><time>2026-04-22T10:23:36Z</time></trkpt><trkpt lat="42.71386104522559" lon="12.120241884145502"><ele>161.5</ele><time>2026-04-22T10:23:37Z</time></trkpt><trkpt lat="42.713898728514" lon="12.12031568672753"><ele>160.0</ele><time>2026-04-22T10:23:38Z</time></trkpt><trkpt lat="42.71393644337241" lon="12.120387469392616"><ele>160.0</ele><time>2026-04-22T10:23:39Z</time></trkpt><trkpt lat="42.71397900893867" lon="12.12046726695031"><ele>160.0</ele><time>2026-04-22T10:23:40Z</time></trkpt><trkpt lat="42.714027244081336" lon="12.120556272558826"><ele>160.0</ele><time>2026-04-22T10:23:41Z</time></trkpt><trkpt lat="42.71408306462963" lon="12.120650720829197"><ele>160.0</ele><time>2026-04-22T10:23:42Z</time></trkpt><trkpt lat="42.71414338227866" lon="12.120751258838297"><ele>160.0</ele><time>2026-04-22T10:23:43Z</time></trkpt><trkpt lat="42.71420785901027" lon="12.120858912246389"><ele>160.0</ele><time>2026-04-22T10:23:44Z</time></trkpt><trkpt lat="42.714274439767" lon="12.120966526422198"><ele>160.4</ele><time>2026-04-22T10:23:45Z</time></trkpt><trkpt lat="42.71434389791979" lon="12.121078644656675"><ele>160.8</ele><time>2026-04-22T10:23:46Z</time></trkpt><trkpt lat="42.714415529164945" lon="12.121185497574995"><ele>161.2</ele><time>2026-04-22T10:23:47Z</time></trkpt><trkpt lat="42.714490179933584" lon="12.121291187178157"><ele>161.6</ele><time>2026-04-22T10:23:48Z</time></trkpt><trkpt lat="42.714572293868684" lon="12.121398917229929"><ele>162.0</ele><time>2026-04-22T10:23:49Z</time></trkpt><trkpt lat="42.714656333382756" lon="12.121511594116262"><ele>159.5</ele><time>2026-04-22T10:23:50Z</time></trkpt><trkpt lat="42.714743868343824" lon="12.121626390331771"><ele>157.0</ele><time>2026-04-22T10:23:51Z</time></trkpt><trkpt lat="42.71482871333167" lon="12.12174167356851"><ele>154.5</ele><time>2026-04-22T10:23:52Z</time></trkpt><trkpt lat="42.71491014701236" lon="12.121853146824078"><ele>152.0</ele><time>2026-04-22T10:23:53Z</time></trkpt><trkpt lat="42.71499836054477" lon="12.121967128886322"><ele>152.0</ele><time>2026-04-22T10:23:54Z</time></trkpt><trkpt lat="42.7150884354868" lon="12.122079265637183"><ele>152.0</ele><time>2026-04-22T10:23:55Z</time></trkpt><trkpt lat="42.71517600460106" lon="12.122189927166623"><ele>152.0</ele><time>2026-04-22T10:23:56Z</time></trkpt><trkpt lat="42.71526177291175" lon="12.12230243555683"><ele>152.0</ele><time>2026-04-22T10:23:57Z</time></trkpt><trkpt lat="42.71534584871396" lon="12.122415220598192"><ele>151.75</ele><time>2026-04-22T10:23:58Z</time></trkpt><trkpt lat="42.71543349622665" lon="12.122525962845856"><ele>151.5</ele><time>2026-04-22T10:23:59Z</time></trkpt><trkpt lat="42.71552104637691" lon="12.122638437544436"><ele>151.25</ele><time>2026-04-22T10:24:00Z</time></trkpt><trkpt lat="42.71561062396404" lon="12.122756358679512"><ele>151.0</ele><time>2026-04-22T10:24:01Z</time></trkpt><trkpt lat="42.71569730229249" lon="12.122878175108054"><ele>151.0</ele><time>2026-04-22T10:24:02Z</time></trkpt><trkpt lat="42.71577224646778" lon="12.123004092142356"><ele>151.0</ele><time>2026-04-22T10:24:03Z</time></trkpt><trkpt lat="42.715841710601055" lon="12.123132764152482"><ele>151.0</ele><time>2026-04-22T10:24:04Z</time></trkpt><trkpt lat="42.71590310231761" lon="12.123265192144205"><ele>151.0</ele><time>2026-04-22T10:24:05Z</time></trkpt><trkpt lat="42.71595812828698" lon="12.123400332891288"><ele>148.5</ele><time>2026-04-22T10:24:06Z</time></trkpt><trkpt lat="42.716013634038106" lon="12.12353669835197"><ele>146.0</ele><time>2026-04-22T10:24:07Z</time></trkpt><trkpt lat="42.71607680051495" lon="12.123674295705305"><ele>143.5</ele><time>2026-04-22T10:24:08Z</time></trkpt><trkpt lat="42.71615690226859" lon="12.123812406320646"><ele>141.0</ele><time>2026-04-22T10:24:09Z</time></trkpt><trkpt lat="42.716258450807196" lon="12.1239479655151"><ele>140.25</ele><time>2026-04-22T10:24:10Z</time></trkpt><trkpt lat="42.71635567357172" lon="12.124074245502353"><ele>139.5</ele><time>2026-04-22T10:24:11Z</time></trkpt><trkpt lat="42.716473821356615" lon="12.124204670104007"><ele>138.75</ele><time>2026-04-22T10:24:12Z</time></trkpt><trkpt lat="42.71660914429483" lon="12.124323007963763"><ele>138.0</ele><time>2026-04-22T10:24:13Z</time></trkpt><trkpt lat="42.71674128635086" lon="12.124440903791376"><ele>138.0</ele><time>2026-04-22T10:24:14Z</time></trkpt><trkpt lat="42.716868868286085" lon="12.124555764959375"><ele>138.0</ele><time>2026-04-22T10:24:15Z</time></trkpt><trkpt lat="42.71699245192227" lon="12.124670389251683"><ele>138.0</ele><time>2026-04-22T10:24:16Z</time></trkpt><trkpt lat="42.71711637519316" lon="12.124784752197035"><ele>138.33333333333334</ele><time>2026-04-22T10:24:17Z</time></trkpt><trkpt lat="42.71724061900958" lon="12.124901375163468"><ele>138.66666666666669</ele><time>2026-04-22T10:24:18Z</time></trkpt><trkpt lat="42.71736412453339" lon="12.125021122904323"><ele>139.0</ele><time>2026-04-22T10:24:19Z</time></trkpt><trkpt lat="42.7174918185424" lon="12.125149036562256"><ele>139.0</ele><time>2026-04-22T10:24:20Z</time></trkpt><trkpt lat="42.71761838411472" lon="12.125277546131757"><ele>139.0</ele><time>2026-04-22T10:24:21Z</time></trkpt><trkpt lat="42.717740575429275" lon="12.125400172704392"><ele>139.0</ele><time>2026-04-22T10:24:22Z</time></trkpt><trkpt lat="42.71786641721439" lon="12.125538142840027"><ele>139.0</ele><time>2026-04-22T10:24:23Z</time></trkpt><trkpt lat="42.71799032574316" lon="12.125668637772256"><ele>139.0</ele><time>2026-04-22T10:24:24Z</time></trkpt><trkpt lat="42.71811359070063" lon="12.125795156859695"><ele>139.0</ele><time>2026-04-22T10:24:25Z</time></trkpt><trkpt lat="42.718235410879004" lon="12.125929438685072"><ele>139.0</ele><time>2026-04-22T10:24:26Z</time></trkpt><trkpt lat="42.718353662564525" lon="12.1260614378226"><ele>139.0</ele><time>2026-04-22T10:24:27Z</time></trkpt><trkpt lat="42.71847044443042" lon="12.126184162062618"><ele>139.0</ele><time>2026-04-22T10:24:28Z</time></trkpt><trkpt lat="42.71858250332385" lon="12.126308233222012"><ele>139.0</ele><time>2026-04-22T10:24:29Z</time></trkpt><trkpt lat="42.71869559264977" lon="12.126433422509201"><ele>137.66666666666669</ele><time>2026-04-22T10:24:30Z</time></trkpt><trkpt lat="42.71881465096968" lon="12.126556174562126"><ele>136.33333333333334</ele><time>2026-04-22T10:24:31Z</time></trkpt><trkpt lat="42.718935271160795" lon="12.126684881781836"><ele>135.0</ele><time>2026-04-22T10:24:32Z</time></trkpt><trkpt lat="42.71905475478338" lon="12.126827398923458"><ele>134.33333333333334</ele><time>2026-04-22T10:24:33Z</time></trkpt><trkpt lat="42.719165506271274" lon="12.126979384178073"><ele>133.66666666666669</ele><time>2026-04-22T10:24:34Z</time></trkpt><trkpt lat="42.71927066473287" lon="12.127143465183288"><ele>133.0</ele><time>2026-04-22T10:24:35Z</time></trkpt><trkpt lat="42.71937022094577" lon="12.127315812200989"><ele>132.33333333333334</ele><time>2026-04-22T10:24:36Z</time></trkpt><trkpt lat="42.71946281367988" lon="12.127498110963966"><ele>131.66666666666666</ele><time>2026-04-22T10:24:37Z</time></trkpt><trkpt lat="42.71954713240032" lon="12.12768988116651"><ele>131.0</ele><time>2026-04-22T10:24:38Z</time></trkpt><trkpt lat="42.719619243692925" lon="12.127890127871606"><ele>131.0</ele><time>2026-04-22T10:24:39Z</time></trkpt><trkpt lat="42.71967651383743" lon="12.128099473473192"><ele>131.0</ele><time>2026-04-22T10:24:40Z</time></trkpt><trkpt lat="42.71972190795083" lon="12.128316743077205"><ele>131.0</ele><time>2026-04-22T10:24:41Z</time></trkpt><trkpt lat="42.71975513795924" lon="12.1285224891587"><ele>131.0</ele><time>2026-04-22T10:24:42Z</time></trkpt><trkpt lat="42.719778112113374" lon="12.128734373255421"><ele>131.0</ele><time>2026-04-22T10:24:43Z</time></trkpt><trkpt lat="42.719789440863636" lon="12.128930994212102"><ele>131.0</ele><time>2026-04-22T10:24:44Z</time></trkpt><trkpt lat="42.7197963287953" lon="12.129127732400708"><ele>131.0</ele><time>2026-04-22T10:24:45Z</time></trkpt><trkpt lat="42.71980147989688" lon="12.129326818761243"><ele>130.33333333333331</ele><time>2026-04-22T10:24:46Z</time></trkpt><trkpt lat="42.71981230998483" lon="12.129532237374045"><ele>129.66666666666666</ele><time>2026-04-22T10:24:47Z</time></trkpt><trkpt lat="42.71982638884696" lon="12.129742165003513"><ele>129.0</ele><time>2026-04-22T10:24:48Z</time></trkpt><trkpt lat="42.71980806939755" lon="12.12995203443095"><ele>127.66666666666666</ele><time>2026-04-22T10:24:49Z</time></trkpt><trkpt lat="42.71979443922466" lon="12.130165059186847"><ele>126.33333333333333</ele><time>2026-04-22T10:24:50Z</time></trkpt><trkpt lat="42.71978679454098" lon="12.13036705654928"><ele>125.0</ele><time>2026-04-22T10:24:51Z</time></trkpt><trkpt lat="42.7197767706384" lon="12.130565703980533"><ele>125.0</ele><time>2026-04-22T10:24:52Z</time></trkpt><trkpt lat="42.71977305777296" lon="12.130772822388789"><ele>125.0</ele><time>2026-04-22T10:24:53Z</time></trkpt><trkpt lat="42.7197696480835" lon="12.130982180485502"><ele>125.0</ele><time>2026-04-22T10:24:54Z</time></trkpt><trkpt lat="42.71976592817369" lon="12.131197218161509"><ele>125.0</ele><time>2026-04-22T10:24:55Z</time></trkpt><trkpt lat="42.71976090604938" lon="12.131400779366873"><ele>125.0</ele><time>2026-04-22T10:24:56Z</time></trkpt><trkpt lat="42.719756550800156" lon="12.131602374801224"><ele>125.0</ele><time>2026-04-22T10:24:57Z</time></trkpt><trkpt lat="42.7197579120149" lon="12.131801027061185"><ele>125.0</ele><time>2026-04-22T10:24:58Z</time></trkpt><trkpt lat="42.7197723376219" lon="12.13199943535854"><ele>125.0</ele><time>2026-04-22T10:24:59Z</time></trkpt><trkpt lat="42.71984470150354" lon="12.132407433292459"><ele>125.0</ele><time>2026-04-22T10:25:01Z</time></trkpt><trkpt lat="42.719901740573476" lon="12.132614450536892"><ele>125.0</ele><time>2026-04-22T10:25:02Z</time></trkpt><trkpt lat="42.71997296060599" lon="12.132815456330768"><ele>125.0</ele><time>2026-04-22T10:25:03Z</time></trkpt><trkpt lat="42.72005891923306" lon="12.133003216958974"><ele>125.0</ele><time>2026-04-22T10:25:04Z</time></trkpt><trkpt lat="42.7201500012077" lon="12.13316260804687"><ele>123.25</ele><time>2026-04-22T10:25:05Z</time></trkpt><trkpt lat="42.720246385435196" lon="12.133311008483245"><ele>121.5</ele><time>2026-04-22T10:25:06Z</time></trkpt><trkpt lat="42.720344274816256" lon="12.133446275075597"><ele>119.75</ele><time>2026-04-22T10:25:07Z</time></trkpt><trkpt lat="42.720442921037375" lon="12.133566366247278"><ele>118.0</ele><time>2026-04-22T10:25:08Z</time></trkpt><trkpt lat="42.72054352656815" lon="12.133668602343365"><ele>118.0</ele><time>2026-04-22T10:25:09Z</time></trkpt><trkpt lat="42.72068820662538" lon="12.133758672781447"><ele>118.0</ele><time>2026-04-22T10:25:10Z</time></trkpt><trkpt lat="42.720807926038766" lon="12.133809799866746"><ele>118.0</ele><time>2026-04-22T10:25:11Z</time></trkpt><trkpt lat="42.72081638571656" lon="12.133924708566918"><ele>118.0</ele><time>2026-04-22T10:25:12Z</time></trkpt><trkpt lat="42.720922643956996" lon="12.134017247864245"><ele>118.00000000000001</ele><time>2026-04-22T10:25:14Z</time></trkpt><trkpt lat="42.72099938910814" lon="12.134096115960778"><ele>118.0</ele><time>2026-04-22T10:25:16Z</time></trkpt><trkpt lat="42.72105723370325" lon="12.134145192580288"><ele>118.0</ele><time>2026-04-22T10:25:18Z</time></trkpt><trkpt lat="42.72112742782186" lon="12.134211713358555"><ele>118.0</ele><time>2026-04-22T10:25:26Z</time></trkpt><trkpt lat="42.72118422543156" lon="12.134268469514662"><ele>118.00000000000001</ele><time>2026-04-22T10:25:29Z</time></trkpt><trkpt lat="42.721245370421826" lon="12.134347171431246"><ele>118.0</ele><time>2026-04-22T10:25:32Z</time></trkpt><trkpt lat="42.72128031557012" lon="12.134464372776351"><ele>117.60000000000001</ele><time>2026-04-22T10:25:34Z</time></trkpt><trkpt lat="42.721289344620736" lon="12.134585128395415"><ele>117.20000000000002</ele><time>2026-04-22T10:25:35Z</time></trkpt><trkpt lat="42.72129206730715" lon="12.134720410732829"><ele>116.8</ele><time>2026-04-22T10:25:36Z</time></trkpt><trkpt lat="42.72128999543378" lon="12.134868827626484"><ele>116.4</ele><time>2026-04-22T10:25:37Z</time></trkpt><trkpt lat="42.72128549681506" lon="12.135027187938684"><ele>116.0</ele><time>2026-04-22T10:25:38Z</time></trkpt><trkpt lat="42.72127608944409" lon="12.135195137511204"><ele>116.0</ele><time>2026-04-22T10:25:39Z</time></trkpt><trkpt lat="42.72125407914103" lon="12.13537117680261"><ele>116.0</ele><time>2026-04-22T10:25:40Z</time></trkpt><trkpt lat="42.721217796192555" lon="12.135549838640392"><ele>116.0</ele><time>2026-04-22T10:25:41Z</time></trkpt><trkpt lat="42.721169037007186" lon="12.135720021805128"><ele>116.0</ele><time>2026-04-22T10:25:42Z</time></trkpt><trkpt lat="42.721109193098435" lon="12.135887749991102"><ele>116.0</ele><time>2026-04-22T10:25:43Z</time></trkpt><trkpt lat="42.72103468377878" lon="12.136047800376616"><ele>116.0</ele><time>2026-04-22T10:25:44Z</time></trkpt><trkpt lat="42.72094737881806" lon="12.13620266349304"><ele>116.0</ele><time>2026-04-22T10:25:45Z</time></trkpt><trkpt lat="42.72085171379857" lon="12.13635394634737"><ele>116.0</ele><time>2026-04-22T10:25:46Z</time></trkpt><trkpt lat="42.72074892099077" lon="12.136496335959027"><ele>116.0</ele><time>2026-04-22T10:25:47Z</time></trkpt><trkpt lat="42.72064305998953" lon="12.136640547696846"><ele>116.0</ele><time>2026-04-22T10:25:48Z</time></trkpt><trkpt lat="42.72054301669236" lon="12.136790298574349"><ele>116.0</ele><time>2026-04-22T10:25:49Z</time></trkpt><trkpt lat="42.72045088372485" lon="12.136941173326951"><ele>116.0</ele><time>2026-04-22T10:25:50Z</time></trkpt><trkpt lat="42.72036926227042" lon="12.137086362607539"><ele>116.0</ele><time>2026-04-22T10:25:51Z</time></trkpt><trkpt lat="42.7202837497247" lon="12.13723661249475"><ele>116.0</ele><time>2026-04-22T10:25:52Z</time></trkpt><trkpt lat="42.72019551719603" lon="12.13738621066367"><ele>116.0</ele><time>2026-04-22T10:25:53Z</time></trkpt><trkpt lat="42.720114321068635" lon="12.13753147482368"><ele>116.0</ele><time>2026-04-22T10:25:54Z</time></trkpt><trkpt lat="42.72003730668721" lon="12.13766707486083"><ele>116.0</ele><time>2026-04-22T10:25:55Z</time></trkpt><trkpt lat="42.71996348052219" lon="12.137791175933774"><ele>116.0</ele><time>2026-04-22T10:25:56Z</time></trkpt><trkpt lat="42.719896654771034" lon="12.137909273531037"><ele>116.0</ele><time>2026-04-22T10:25:57Z</time></trkpt><trkpt lat="42.71983116444194" lon="12.138021995009575"><ele>116.0</ele><time>2026-04-22T10:25:58Z</time></trkpt><trkpt lat="42.719773835693445" lon="12.138128736627182"><ele>116.0</ele><time>2026-04-22T10:25:59Z</time></trkpt><trkpt lat="42.719713096102936" lon="12.138227869475493"><ele>115.49999999999999</ele><time>2026-04-22T10:26:00Z</time></trkpt><trkpt lat="42.71965725192827" lon="12.138317461239032"><ele>115.0</ele><time>2026-04-22T10:26:01Z</time></trkpt><trkpt lat="42.71961539654363" lon="12.138396362313513"><ele>114.5</ele><time>2026-04-22T10:26:02Z</time></trkpt><trkpt lat="42.7195767338316" lon="12.138468669551216"><ele>114.0</ele><time>2026-04-22T10:26:03Z</time></trkpt><trkpt lat="42.719507591923914" lon="12.138577748306865"><ele>113.49999999999999</ele><time>2026-04-22T10:26:05Z</time></trkpt><trkpt lat="42.71946535894358" lon="12.138645962781224"><ele>113.0</ele><time>2026-04-22T10:26:06Z</time></trkpt><trkpt lat="42.71941387867357" lon="12.138732947191228"><ele>113.60000000000001</ele><time>2026-04-22T10:26:07Z</time></trkpt><trkpt lat="42.71935371109521" lon="12.13883684313567"><ele>114.20000000000002</ele><time>2026-04-22T10:26:08Z</time></trkpt><trkpt lat="42.71928953403114" lon="12.13895532888932"><ele>114.8</ele><time>2026-04-22T10:26:09Z</time></trkpt><trkpt lat="42.71922504871914" lon="12.139071130442252"><ele>115.4</ele><time>2026-04-22T10:26:10Z</time></trkpt><trkpt lat="42.71915862607345" lon="12.13919219988687"><ele>116.0</ele><time>2026-04-22T10:26:11Z</time></trkpt><trkpt lat="42.719088766340306" lon="12.139320874801044"><ele>116.0</ele><time>2026-04-22T10:26:12Z</time></trkpt><trkpt lat="42.719018088026665" lon="12.139446778877783"><ele>116.0</ele><time>2026-04-22T10:26:13Z</time></trkpt><trkpt lat="42.718950274830064" lon="12.13956931987496"><ele>116.0</ele><time>2026-04-22T10:26:14Z</time></trkpt><trkpt lat="42.71888237245546" lon="12.13969010716193"><ele>116.0</ele><time>2026-04-22T10:26:15Z</time></trkpt><trkpt lat="42.71881244935434" lon="12.139809079328296"><ele>115.6</ele><time>2026-04-22T10:26:16Z</time></trkpt><trkpt lat="42.71874523927671" lon="12.139923143340495"><ele>115.19999999999999</ele><time>2026-04-22T10:26:17Z</time></trkpt><trkpt lat="42.718673163295996" lon="12.14003763102957"><ele>114.80000000000001</ele><time>2026-04-22T10:26:18Z</time></trkpt><trkpt lat="42.71860280777306" lon="12.140151757474484"><ele>114.4</ele><time>2026-04-22T10:26:19Z</time></trkpt><trkpt lat="42.718532180691014" lon="12.140267728954948"><ele>114.0</ele><time>2026-04-22T10:26:20Z</time></trkpt><trkpt lat="42.71845971030369" lon="12.140384754197047"><ele>113.4</ele><time>2026-04-22T10:26:21Z</time></trkpt><trkpt lat="42.718390502324326" lon="12.140496375955502"><ele>112.80000000000001</ele><time>2026-04-22T10:26:22Z</time></trkpt><trkpt lat="42.718325745038726" lon="12.140599805473872"><ele>112.19999999999999</ele><time>2026-04-22T10:26:23Z</time></trkpt><trkpt lat="42.71826278643211" lon="12.140699428084076"><ele>111.6</ele><time>2026-04-22T10:26:24Z</time></trkpt><trkpt lat="42.718209396921324" lon="12.140790897421919"><ele>111.0</ele><time>2026-04-22T10:26:25Z</time></trkpt><trkpt lat="42.71816292399009" lon="12.140883094872"><ele>111.0</ele><time>2026-04-22T10:26:26Z</time></trkpt><trkpt lat="42.7181164901293" lon="12.14096740644309"><ele>111.0</ele><time>2026-04-22T10:26:27Z</time></trkpt><trkpt lat="42.71808428368855" lon="12.141042963875645"><ele>111.0</ele><time>2026-04-22T10:26:28Z</time></trkpt><trkpt lat="42.7180465462943" lon="12.141118846188366"><ele>111.0</ele><time>2026-04-22T10:26:29Z</time></trkpt><trkpt lat="42.71799605823015" lon="12.141189054233132"><ele>111.0</ele><time>2026-04-22T10:26:30Z</time></trkpt><trkpt lat="42.7179384115072" lon="12.14125104302962"><ele>111.0</ele><time>2026-04-22T10:26:31Z</time></trkpt><trkpt lat="42.71787984139782" lon="12.141320324538766"><ele>111.0</ele><time>2026-04-22T10:26:32Z</time></trkpt><trkpt lat="42.717814585570174" lon="12.141427344662384"><ele>111.0</ele><time>2026-04-22T10:26:33Z</time></trkpt><trkpt lat="42.717753013455564" lon="12.141541331298981"><ele>111.0</ele><time>2026-04-22T10:26:34Z</time></trkpt><trkpt lat="42.71767892701009" lon="12.141654623016818"><ele>111.0</ele><time>2026-04-22T10:26:35Z</time></trkpt><trkpt lat="42.71759402750663" lon="12.141771811281528"><ele>111.0</ele><time>2026-04-22T10:26:36Z</time></trkpt><trkpt lat="42.71751043671728" lon="12.141900322360726"><ele>111.5</ele><time>2026-04-22T10:26:37Z</time></trkpt><trkpt lat="42.71742348568031" lon="12.14204254965467"><ele>112.0</ele><time>2026-04-22T10:26:38Z</time></trkpt><trkpt lat="42.71733623983601" lon="12.142185622907087"><ele>112.5</ele><time>2026-04-22T10:26:39Z</time></trkpt><trkpt lat="42.71724844360963" lon="12.142336025770156"><ele>113.0</ele><time>2026-04-22T10:26:40Z</time></trkpt><trkpt lat="42.71716082702063" lon="12.142485828880243"><ele>113.0</ele><time>2026-04-22T10:26:41Z</time></trkpt><trkpt lat="42.71707822696549" lon="12.142622369545755"><ele>113.0</ele><time>2026-04-22T10:26:42Z</time></trkpt><trkpt lat="42.7170001348282" lon="12.142750080542047"><ele>113.0</ele><time>2026-04-22T10:26:43Z</time></trkpt><trkpt lat="42.716924981551166" lon="12.142875065776364"><ele>113.0</ele><time>2026-04-22T10:26:44Z</time></trkpt><trkpt lat="42.71684533873613" lon="12.143003168700336"><ele>113.25</ele><time>2026-04-22T10:26:45Z</time></trkpt><trkpt lat="42.71676281149367" lon="12.143137605800858"><ele>113.5</ele><time>2026-04-22T10:26:46Z</time></trkpt><trkpt lat="42.71668038874368" lon="12.14327560442004"><ele>113.75</ele><time>2026-04-22T10:26:47Z</time></trkpt><trkpt lat="42.716594606539324" lon="12.143419019785677"><ele>114.0</ele><time>2026-04-22T10:26:48Z</time></trkpt><trkpt lat="42.71650757695445" lon="12.14356444412887"><ele>114.25</ele><time>2026-04-22T10:26:49Z</time></trkpt><trkpt lat="42.71641709656544" lon="12.14371179393454"><ele>114.5</ele><time>2026-04-22T10:26:50Z</time></trkpt><trkpt lat="42.71632518629572" lon="12.143861903613834"><ele>114.75</ele><time>2026-04-22T10:26:51Z</time></trkpt><trkpt lat="42.7162342953282" lon="12.144017353976551"><ele>115.0</ele><time>2026-04-22T10:26:52Z</time></trkpt><trkpt lat="42.71614200467698" lon="12.144171044100373"><ele>114.33333333333334</ele><time>2026-04-22T10:26:53Z</time></trkpt><trkpt lat="42.716043788393314" lon="12.144331908463174"><ele>113.66666666666666</ele><time>2026-04-22T10:26:54Z</time></trkpt><trkpt lat="42.7159451769406" lon="12.14449307499015"><ele>113.0</ele><time>2026-04-22T10:26:55Z</time></trkpt><trkpt lat="42.71584742015461" lon="12.14465558881942"><ele>113.0</ele><time>2026-04-22T10:26:56Z</time></trkpt><trkpt lat="42.715748926530395" lon="12.144820075089136"><ele>113.0</ele><time>2026-04-22T10:26:57Z</time></trkpt><trkpt lat="42.71564981431504" lon="12.14498482964955"><ele>113.0</ele><time>2026-04-22T10:26:58Z</time></trkpt><trkpt lat="42.71555143156927" lon="12.145151334634916"><ele>113.0</ele><time>2026-04-22T10:26:59Z</time></trkpt><trkpt lat="42.71545337401872" lon="12.14531604125024"><ele>113.0</ele><time>2026-04-22T10:27:00Z</time></trkpt><trkpt lat="42.715355408806666" lon="12.145479853819582"><ele>113.0</ele><time>2026-04-22T10:27:01Z</time></trkpt><trkpt lat="42.71525235449952" lon="12.14564603962431"><ele>112.66666666666666</ele><time>2026-04-22T10:27:02Z</time></trkpt><trkpt lat="42.71515471658949" lon="12.145812820258552"><ele>112.33333333333334</ele><time>2026-04-22T10:27:03Z</time></trkpt><trkpt lat="42.71505484645889" lon="12.145980501694385"><ele>112.0</ele><time>2026-04-22T10:27:04Z</time></trkpt><trkpt lat="42.714953630014946" lon="12.146149731707276"><ele>112.0</ele><time>2026-04-22T10:27:05Z</time></trkpt><trkpt lat="42.714855064838275" lon="12.146309498756562"><ele>112.0</ele><time>2026-04-22T10:27:06Z</time></trkpt><trkpt lat="42.71474372625285" lon="12.14646553488582"><ele>112.0</ele><time>2026-04-22T10:27:07Z</time></trkpt><trkpt lat="42.71463332020328" lon="12.146601126428036"><ele>112.25</ele><time>2026-04-22T10:27:08Z</time></trkpt><trkpt lat="42.71452368842635" lon="12.146731301690773"><ele>112.5</ele><time>2026-04-22T10:27:09Z</time></trkpt><trkpt lat="42.71441186704924" lon="12.1468611991025"><ele>112.75</ele><time>2026-04-22T10:27:10Z</time></trkpt><trkpt lat="42.71430366721379" lon="12.146992140251141"><ele>113.0</ele><time>2026-04-22T10:27:11Z</time></trkpt><trkpt lat="42.71419387952705" lon="12.147120818544709"><ele>114.0</ele><time>2026-04-22T10:27:12Z</time></trkpt><trkpt lat="42.71407938222989" lon="12.147255572721424"><ele>115.0</ele><time>2026-04-22T10:27:13Z</time></trkpt><trkpt lat="42.71396673631889" lon="12.147397510834834"><ele>116.0</ele><time>2026-04-22T10:27:14Z</time></trkpt><trkpt lat="42.71384965469863" lon="12.147542501452987"><ele>116.0</ele><time>2026-04-22T10:27:15Z</time></trkpt><trkpt lat="42.71373249456928" lon="12.14768976347546"><ele>116.0</ele><time>2026-04-22T10:27:16Z</time></trkpt><trkpt lat="42.71361975806389" lon="12.147838090399647"><ele>116.0</ele><time>2026-04-22T10:27:17Z</time></trkpt><trkpt lat="42.71349941952668" lon="12.147991943662682"><ele>116.0</ele><time>2026-04-22T10:27:18Z</time></trkpt><trkpt lat="42.71338143211214" lon="12.148145089242153"><ele>116.0</ele><time>2026-04-22T10:27:19Z</time></trkpt><trkpt lat="42.71326438117785" lon="12.148314622760914"><ele>116.0</ele><time>2026-04-22T10:27:20Z</time></trkpt><trkpt lat="42.713153828377685" lon="12.14849148363715"><ele>116.0</ele><time>2026-04-22T10:27:21Z</time></trkpt><trkpt lat="42.7130731381792" lon="12.148708091037623"><ele>116.0</ele><time>2026-04-22T10:27:22Z</time></trkpt><trkpt lat="42.71298799884449" lon="12.148944970951833"><ele>116.0</ele><time>2026-04-22T10:27:23Z</time></trkpt><trkpt lat="42.71292188472939" lon="12.149181453002525"><ele>115.66666666666666</ele><time>2026-04-22T10:27:24Z</time></trkpt><trkpt lat="42.71285008387134" lon="12.149420481117502"><ele>115.33333333333334</ele><time>2026-04-22T10:27:25Z</time></trkpt><trkpt lat="42.71277773298597" lon="12.149662242062544"><ele>115.0</ele><time>2026-04-22T10:27:26Z</time></trkpt><trkpt lat="42.71267492021093" lon="12.149868249821829"><ele>114.33333333333334</ele><time>2026-04-22T10:27:27Z</time></trkpt><trkpt lat="42.71254831742585" lon="12.150063221763851"><ele>113.66666666666666</ele><time>2026-04-22T10:27:28Z</time></trkpt><trkpt lat="42.7124189330318" lon="12.150250982560241"><ele>113.0</ele><time>2026-04-22T10:27:29Z</time></trkpt><trkpt lat="42.71229138037374" lon="12.150443355127535"><ele>113.0</ele><time>2026-04-22T10:27:30Z</time></trkpt><trkpt lat="42.71216972338506" lon="12.150647496596497"><ele>113.0</ele><time>2026-04-22T10:27:31Z</time></trkpt><trkpt lat="42.71205248511232" lon="12.150863468571613"><ele>113.0</ele><time>2026-04-22T10:27:32Z</time></trkpt><trkpt lat="42.71194527903937" lon="12.151084084321564"><ele>113.66666666666666</ele><time>2026-04-22T10:27:33Z</time></trkpt><trkpt lat="42.71184129170501" lon="12.15130831249916"><ele>114.33333333333334</ele><time>2026-04-22T10:27:34Z</time></trkpt><trkpt lat="42.711739824631415" lon="12.151529557299462"><ele>115.0</ele><time>2026-04-22T10:27:35Z</time></trkpt><trkpt lat="42.71163841207534" lon="12.151752225296752"><ele>113.66666666666667</ele><time>2026-04-22T10:27:36Z</time></trkpt><trkpt lat="42.71153761528602" lon="12.15197415553735"><ele>112.33333333333334</ele><time>2026-04-22T10:27:37Z</time></trkpt><trkpt lat="42.711436387315665" lon="12.152192433130136"><ele>111.0</ele><time>2026-04-22T10:27:38Z</time></trkpt><trkpt lat="42.71133351599154" lon="12.152410142705907"><ele>111.0</ele><time>2026-04-22T10:27:39Z</time></trkpt><trkpt lat="42.71123190873544" lon="12.15262552092222"><ele>111.0</ele><time>2026-04-22T10:27:40Z</time></trkpt><trkpt lat="42.71113030852103" lon="12.152844514634273"><ele>111.0</ele><time>2026-04-22T10:27:41Z</time></trkpt><trkpt lat="42.71102544374243" lon="12.153066756124753"><ele>110.33333333333334</ele><time>2026-04-22T10:27:42Z</time></trkpt><trkpt lat="42.71091090338513" lon="12.153281598699358"><ele>109.66666666666667</ele><time>2026-04-22T10:27:43Z</time></trkpt><trkpt lat="42.710782967764004" lon="12.153484141852305"><ele>109.0</ele><time>2026-04-22T10:27:44Z</time></trkpt><trkpt lat="42.7106454223948" lon="12.1536724836902"><ele>109.0</ele><time>2026-04-22T10:27:45Z</time></trkpt><trkpt lat="42.7104942673217" lon="12.15384946096568"><ele>109.0</ele><time>2026-04-22T10:27:46Z</time></trkpt><trkpt lat="42.71034429169602" lon="12.154026238383802"><ele>109.0</ele><time>2026-04-22T10:27:47Z</time></trkpt><trkpt lat="42.71019168060813" lon="12.154206870034852"><ele>110.33333333333334</ele><time>2026-04-22T10:27:48Z</time></trkpt><trkpt lat="42.71003962010954" lon="12.154389550201046"><ele>111.66666666666666</ele><time>2026-04-22T10:27:49Z</time></trkpt><trkpt lat="42.70988780329354" lon="12.154569282231671"><ele>113.0</ele><time>2026-04-22T10:27:50Z</time></trkpt><trkpt lat="42.70973806473142" lon="12.154747688735709"><ele>113.66666666666666</ele><time>2026-04-22T10:27:51Z</time></trkpt><trkpt lat="42.709591689001265" lon="12.154925790705008"><ele>114.33333333333334</ele><time>2026-04-22T10:27:52Z</time></trkpt><trkpt lat="42.7094453667051" lon="12.15509962239356"><ele>115.0</ele><time>2026-04-22T10:27:53Z</time></trkpt><trkpt lat="42.70929588442648" lon="12.155271666777562"><ele>115.0</ele><time>2026-04-22T10:27:54Z</time></trkpt><trkpt lat="42.70914748109564" lon="12.155441854667883"><ele>115.0</ele><time>2026-04-22T10:27:55Z</time></trkpt><trkpt lat="42.709000327845885" lon="12.155617109187945"><ele>115.0</ele><time>2026-04-22T10:27:56Z</time></trkpt><trkpt lat="42.70885330554798" lon="12.155792955359024"><ele>115.33333333333334</ele><time>2026-04-22T10:27:57Z</time></trkpt><trkpt lat="42.70870699385507" lon="12.155967854926951"><ele>115.66666666666666</ele><time>2026-04-22T10:27:58Z</time></trkpt><trkpt lat="42.708562202303945" lon="12.15614651247293"><ele>116.0</ele><time>2026-04-22T10:27:59Z</time></trkpt><trkpt lat="42.70841418036242" lon="12.15632540601662"><ele>116.0</ele><time>2026-04-22T10:28:00Z</time></trkpt><trkpt lat="42.708263951434205" lon="12.15651467521184"><ele>116.0</ele><time>2026-04-22T10:28:01Z</time></trkpt><trkpt lat="42.70810551645217" lon="12.156717319548159"><ele>116.0</ele><time>2026-04-22T10:28:02Z</time></trkpt><trkpt lat="42.7079394174319" lon="12.156920743719631"><ele>117.0</ele><time>2026-04-22T10:28:03Z</time></trkpt><trkpt lat="42.70776819476252" lon="12.157120836272835"><ele>118.0</ele><time>2026-04-22T10:28:04Z</time></trkpt><trkpt lat="42.70759808411524" lon="12.157315565038706"><ele>119.0</ele><time>2026-04-22T10:28:05Z</time></trkpt><trkpt lat="42.7074286645226" lon="12.157508091858281"><ele>116.66666666666666</ele><time>2026-04-22T10:28:06Z</time></trkpt><trkpt lat="42.70725874114342" lon="12.157702736112203"><ele>114.33333333333334</ele><time>2026-04-22T10:28:07Z</time></trkpt><trkpt lat="42.707085868584706" lon="12.15790161077971"><ele>112.0</ele><time>2026-04-22T10:28:08Z</time></trkpt><trkpt lat="42.706913405402474" lon="12.158107136524176"><ele>112.0</ele><time>2026-04-22T10:28:09Z</time></trkpt><trkpt lat="42.706740855728164" lon="12.158314020509756"><ele>112.0</ele><time>2026-04-22T10:28:10Z</time></trkpt><trkpt lat="42.70656738276712" lon="12.158528330970062"><ele>112.0</ele><time>2026-04-22T10:28:11Z</time></trkpt><trkpt lat="42.706401211248405" lon="12.158753125377535"><ele>112.0</ele><time>2026-04-22T10:28:12Z</time></trkpt><trkpt lat="42.706245108486684" lon="12.158991961709505"><ele>112.5</ele><time>2026-04-22T10:28:13Z</time></trkpt><trkpt lat="42.70609445915448" lon="12.15923454945183"><ele>113.0</ele><time>2026-04-22T10:28:14Z</time></trkpt><trkpt lat="42.70594972575372" lon="12.159493672113816"><ele>113.0</ele><time>2026-04-22T10:28:15Z</time></trkpt><trkpt lat="42.70581616013337" lon="12.159752319787176"><ele>113.0</ele><time>2026-04-22T10:28:16Z</time></trkpt><trkpt lat="42.7056858841137" lon="12.160014767319613"><ele>111.0</ele><time>2026-04-22T10:28:17Z</time></trkpt><trkpt lat="42.70555955819901" lon="12.160276844401496"><ele>109.0</ele><time>2026-04-22T10:28:18Z</time></trkpt><trkpt lat="42.70543084639663" lon="12.160530749668"><ele>108.5</ele><time>2026-04-22T10:28:19Z</time></trkpt><trkpt lat="42.705297834532985" lon="12.160781410705129"><ele>108.0</ele><time>2026-04-22T10:28:20Z</time></trkpt><trkpt lat="42.70516857169164" lon="12.161030318695273"><ele>108.66666666666666</ele><time>2026-04-22T10:28:21Z</time></trkpt><trkpt lat="42.70505260886611" lon="12.161292034253023"><ele>109.33333333333333</ele><time>2026-04-22T10:28:22Z</time></trkpt><trkpt lat="42.7049496529053" lon="12.161560427052004"><ele>110.0</ele><time>2026-04-22T10:28:23Z</time></trkpt><trkpt lat="42.70485902249163" lon="12.161832273026528"><ele>110.0</ele><time>2026-04-22T10:28:24Z</time></trkpt><trkpt lat="42.704758485602824" lon="12.162101428218572"><ele>110.0</ele><time>2026-04-22T10:28:25Z</time></trkpt><trkpt lat="42.704645501483625" lon="12.162352071668241"><ele>110.0</ele><time>2026-04-22T10:28:26Z</time></trkpt><trkpt lat="42.70452478320468" lon="12.162599550005261"><ele>110.33333333333333</ele><time>2026-04-22T10:28:27Z</time></trkpt><trkpt lat="42.7043953177183" lon="12.162840618530003"><ele>110.66666666666666</ele><time>2026-04-22T10:28:28Z</time></trkpt><trkpt lat="42.704272965914676" lon="12.163080824947262"><ele>111.0</ele><time>2026-04-22T10:28:29Z</time></trkpt><trkpt lat="42.704159471814016" lon="12.16332539366879"><ele>111.0</ele><time>2026-04-22T10:28:30Z</time></trkpt><trkpt lat="42.70405759293694" lon="12.163580017397567"><ele>111.0</ele><time>2026-04-22T10:28:31Z</time></trkpt><trkpt lat="42.703965006821065" lon="12.163844300338491"><ele>111.0</ele><time>2026-04-22T10:28:32Z</time></trkpt><trkpt lat="42.703874101828546" lon="12.16411335268805"><ele>110.66666666666666</ele><time>2026-04-22T10:28:33Z</time></trkpt><trkpt lat="42.70378575763768" lon="12.164385530775055"><ele>110.33333333333333</ele><time>2026-04-22T10:28:34Z</time></trkpt><trkpt lat="42.70369509428079" lon="12.164660435184294"><ele>110.0</ele><time>2026-04-22T10:28:35Z</time></trkpt><trkpt lat="42.70360038543553" lon="12.164938860780934"><ele>115.5</ele><time>2026-04-22T10:28:36Z</time></trkpt><trkpt lat="42.70350660940483" lon="12.165215578751836"><ele>121.0</ele><time>2026-04-22T10:28:37Z</time></trkpt><trkpt lat="42.703409249377856" lon="12.1654949957554"><ele>117.5</ele><time>2026-04-22T10:28:38Z</time></trkpt><trkpt lat="42.703313087902565" lon="12.165775530335623"><ele>114.0</ele><time>2026-04-22T10:28:39Z</time></trkpt><trkpt lat="42.70321357629279" lon="12.166052189495153"><ele>114.0</ele><time>2026-04-22T10:28:40Z</time></trkpt><trkpt lat="42.70312001162084" lon="12.166332036250028"><ele>114.0</ele><time>2026-04-22T10:28:41Z</time></trkpt><trkpt lat="42.703026943756434" lon="12.166609969504684"><ele>111.5</ele><time>2026-04-22T10:28:42Z</time></trkpt><trkpt lat="42.70293190908527" lon="12.166888938383867"><ele>109.0</ele><time>2026-04-22T10:28:43Z</time></trkpt><trkpt lat="42.70284386516497" lon="12.16716946991859"><ele>107.33333333333334</ele><time>2026-04-22T10:28:44Z</time></trkpt><trkpt lat="42.702758099819214" lon="12.16744957858067"><ele>105.66666666666666</ele><time>2026-04-22T10:28:45Z</time></trkpt><trkpt lat="42.70267691970295" lon="12.167731454382032"><ele>104.0</ele><time>2026-04-22T10:28:46Z</time></trkpt><trkpt lat="42.70260107379963" lon="12.168013862894451"><ele>108.33333333333333</ele><time>2026-04-22T10:28:47Z</time></trkpt><trkpt lat="42.702529283324786" lon="12.168300035556355"><ele>112.66666666666666</ele><time>2026-04-22T10:28:48Z</time></trkpt><trkpt lat="42.70246411919771" lon="12.168589040254602"><ele>117.0</ele><time>2026-04-22T10:28:49Z</time></trkpt><trkpt lat="42.70239254311894" lon="12.16887272482995"><ele>114.66666666666666</ele><time>2026-04-22T10:28:50Z</time></trkpt><trkpt lat="42.70232047056617" lon="12.169151731783135"><ele>112.33333333333333</ele><time>2026-04-22T10:28:51Z</time></trkpt><trkpt lat="42.70225009654419" lon="12.169434407737818"><ele>110.0</ele><time>2026-04-22T10:28:52Z</time></trkpt><trkpt lat="42.70217910576975" lon="12.169709562418461"><ele>108.66666666666666</ele><time>2026-04-22T10:28:53Z</time></trkpt><trkpt lat="42.70210660458542" lon="12.169994800134885"><ele>107.33333333333334</ele><time>2026-04-22T10:28:54Z</time></trkpt><trkpt lat="42.70203725385041" lon="12.170275734456544"><ele>106.0</ele><time>2026-04-22T10:28:55Z</time></trkpt><trkpt lat="42.70197309287871" lon="12.170557523404591"><ele>110.0</ele><time>2026-04-22T10:28:56Z</time></trkpt><trkpt lat="42.70190971927276" lon="12.170833721757385"><ele>114.0</ele><time>2026-04-22T10:28:57Z</time></trkpt><trkpt lat="42.701847956823464" lon="12.171115587614523"><ele>118.0</ele><time>2026-04-22T10:28:58Z</time></trkpt><trkpt lat="42.70178413329823" lon="12.171394219793834"><ele>115.66666666666667</ele><time>2026-04-22T10:28:59Z</time></trkpt><trkpt lat="42.701720285276444" lon="12.171671558001101"><ele>113.33333333333334</ele><time>2026-04-22T10:29:00Z</time></trkpt><trkpt lat="42.701659140398355" lon="12.171950710121495"><ele>111.0</ele><time>2026-04-22T10:29:01Z</time></trkpt><trkpt lat="42.70159802523552" lon="12.172226888718093"><ele>110.33333333333334</ele><time>2026-04-22T10:29:02Z</time></trkpt><trkpt lat="42.701535985363776" lon="12.172507645170043"><ele>109.66666666666667</ele><time>2026-04-22T10:29:03Z</time></trkpt><trkpt lat="42.701474881045634" lon="12.172782763651018"><ele>109.0</ele><time>2026-04-22T10:29:04Z</time></trkpt><trkpt lat="42.70141099224986" lon="12.17306681054026"><ele>108.66666666666667</ele><time>2026-04-22T10:29:05Z</time></trkpt><trkpt lat="42.70134657449834" lon="12.173344052838479"><ele>108.33333333333334</ele><time>2026-04-22T10:29:06Z</time></trkpt><trkpt lat="42.701275716612436" lon="12.173622637270727"><ele>108.0</ele><time>2026-04-22T10:29:07Z</time></trkpt><trkpt lat="42.70119591749781" lon="12.173900713472575"><ele>107.66666666666666</ele><time>2026-04-22T10:29:08Z</time></trkpt><trkpt lat="42.70110020083148" lon="12.174163167082996"><ele>107.33333333333333</ele><time>2026-04-22T10:29:09Z</time></trkpt><trkpt lat="42.70099374417842" lon="12.174425285819275"><ele>107.0</ele><time>2026-04-22T10:29:10Z</time></trkpt><trkpt lat="42.70088651210294" lon="12.174681566815973"><ele>107.66666666666666</ele><time>2026-04-22T10:29:11Z</time></trkpt><trkpt lat="42.700783122751524" lon="12.174939676788245"><ele>108.33333333333334</ele><time>2026-04-22T10:29:12Z</time></trkpt><trkpt lat="42.70067945469762" lon="12.175201776014791"><ele>109.0</ele><time>2026-04-22T10:29:13Z</time></trkpt><trkpt lat="42.7005758095599" lon="12.175463464277922"><ele>108.0</ele><time>2026-04-22T10:29:14Z</time></trkpt><trkpt lat="42.70047181462683" lon="12.175726534826667"><ele>107.0</ele><time>2026-04-22T10:29:15Z</time></trkpt><trkpt lat="42.70036818318101" lon="12.17598086521043"><ele>106.0</ele><time>2026-04-22T10:29:16Z</time></trkpt><trkpt lat="42.700263404242406" lon="12.176240184218017"><ele>107.66666666666667</ele><time>2026-04-22T10:29:17Z</time></trkpt><trkpt lat="42.70015792822754" lon="12.176503029670991"><ele>109.33333333333334</ele><time>2026-04-22T10:29:18Z</time></trkpt><trkpt lat="42.70005425538743" lon="12.176761246126308"><ele>111.0</ele><time>2026-04-22T10:29:19Z</time></trkpt><trkpt lat="42.69995264595925" lon="12.177020404881308"><ele>111.0</ele><time>2026-04-22T10:29:20Z</time></trkpt><trkpt lat="42.699847812201526" lon="12.177283683864044"><ele>111.0</ele><time>2026-04-22T10:29:21Z</time></trkpt><trkpt lat="42.699745199866896" lon="12.177542995139559"><ele>111.0</ele><time>2026-04-22T10:29:22Z</time></trkpt><trkpt lat="42.69964367428338" lon="12.177804795419666"><ele>111.0</ele><time>2026-04-22T10:29:23Z</time></trkpt><trkpt lat="42.69954425251879" lon="12.178063113796512"><ele>111.0</ele><time>2026-04-22T10:29:24Z</time></trkpt><trkpt lat="42.699438922389355" lon="12.178324554558351"><ele>111.0</ele><time>2026-04-22T10:29:25Z</time></trkpt><trkpt lat="42.69933881117742" lon="12.178580262801688"><ele>111.0</ele><time>2026-04-22T10:29:26Z</time></trkpt><trkpt lat="42.699236570852975" lon="12.178839796997513"><ele>111.0</ele><time>2026-04-22T10:29:27Z</time></trkpt><trkpt lat="42.69913236071631" lon="12.179098283345098"><ele>111.0</ele><time>2026-04-22T10:29:28Z</time></trkpt><trkpt lat="42.69903023452063" lon="12.179358354135948"><ele>109.33333333333334</ele><time>2026-04-22T10:29:29Z</time></trkpt><trkpt lat="42.698929245076634" lon="12.179616832236219"><ele>107.66666666666667</ele><time>2026-04-22T10:29:30Z</time></trkpt><trkpt lat="42.698827740365836" lon="12.179878972498617"><ele>106.0</ele><time>2026-04-22T10:29:31Z</time></trkpt><trkpt lat="42.698729436204765" lon="12.180136919808037"><ele>106.33333333333334</ele><time>2026-04-22T10:29:32Z</time></trkpt><trkpt lat="42.69862633506578" lon="12.180397312011488"><ele>106.66666666666666</ele><time>2026-04-22T10:29:33Z</time></trkpt><trkpt lat="42.69852369039408" lon="12.180656996307093"><ele>107.0</ele><time>2026-04-22T10:29:34Z</time></trkpt><trkpt lat="42.698421377547746" lon="12.18092214406037"><ele>107.0</ele><time>2026-04-22T10:29:35Z</time></trkpt><trkpt lat="42.698316899697645" lon="12.181184481330629"><ele>107.0</ele><time>2026-04-22T10:29:36Z</time></trkpt><trkpt lat="42.69821499200798" lon="12.181437225727855"><ele>107.0</ele><time>2026-04-22T10:29:37Z</time></trkpt><trkpt lat="42.69812304977159" lon="12.181670338801661"><ele>106.0</ele><time>2026-04-22T10:29:38Z</time></trkpt><trkpt lat="42.69803876288075" lon="12.181879572533097"><ele>105.0</ele><time>2026-04-22T10:29:39Z</time></trkpt><trkpt lat="42.697963568187454" lon="12.182060583603423"><ele>104.0</ele><time>2026-04-22T10:29:40Z</time></trkpt><trkpt lat="42.697891403639844" lon="12.182247099378372"><ele>103.66666666666666</ele><time>2026-04-22T10:29:41Z</time></trkpt><trkpt lat="42.6978140693328" lon="12.18245330783996"><ele>103.33333333333334</ele><time>2026-04-22T10:29:42Z</time></trkpt><trkpt lat="42.69773277345151" lon="12.182668526492183"><ele>103.0</ele><time>2026-04-22T10:29:43Z</time></trkpt><trkpt lat="42.697643215706044" lon="12.18289371943632"><ele>103.66666666666667</ele><time>2026-04-22T10:29:44Z</time></trkpt><trkpt lat="42.6975574779996" lon="12.18311884818761"><ele>104.33333333333334</ele><time>2026-04-22T10:29:45Z</time></trkpt><trkpt lat="42.697469526548936" lon="12.183349711226082"><ele>105.0</ele><time>2026-04-22T10:29:46Z</time></trkpt><trkpt lat="42.697373788142976" lon="12.183589432475005"><ele>105.0</ele><time>2026-04-22T10:29:47Z</time></trkpt><trkpt lat="42.69728734969261" lon="12.18382708316889"><ele>105.0</ele><time>2026-04-22T10:29:48Z</time></trkpt><trkpt lat="42.697203742783316" lon="12.184069994311077"><ele>105.0</ele><time>2026-04-22T10:29:49Z</time></trkpt><trkpt lat="42.697126481445316" lon="12.184305941173328"><ele>104.66666666666666</ele><time>2026-04-22T10:29:50Z</time></trkpt><trkpt lat="42.697049920135335" lon="12.18454265619959"><ele>104.33333333333333</ele><time>2026-04-22T10:29:51Z</time></trkpt><trkpt lat="42.6969826235188" lon="12.184756157841326"><ele>104.0</ele><time>2026-04-22T10:29:52Z</time></trkpt><trkpt lat="42.69691037772871" lon="12.184973590490992"><ele>104.66666666666666</ele><time>2026-04-22T10:29:53Z</time></trkpt><trkpt lat="42.69684794464049" lon="12.18517470399608"><ele>105.33333333333334</ele><time>2026-04-22T10:29:54Z</time></trkpt><trkpt lat="42.69679327389687" lon="12.18537090481333"><ele>106.0</ele><time>2026-04-22T10:29:55Z</time></trkpt><trkpt lat="42.69673659100371" lon="12.18556164942807"><ele>106.0</ele><time>2026-04-22T10:29:56Z</time></trkpt><trkpt lat="42.69667884217798" lon="12.185728460678801"><ele>106.0</ele><time>2026-04-22T10:29:57Z</time></trkpt><trkpt lat="42.69662329924016" lon="12.185885728433604"><ele>106.0</ele><time>2026-04-22T10:29:58Z</time></trkpt><trkpt lat="42.696571023478064" lon="12.186041814790553"><ele>106.0</ele><time>2026-04-22T10:29:59Z</time></trkpt><trkpt lat="42.69651818445397" lon="12.186201282576654"><ele>106.0</ele><time>2026-04-22T10:30:00Z</time></trkpt><trkpt lat="42.69646045827248" lon="12.186375495720077"><ele>106.0</ele><time>2026-04-22T10:30:01Z</time></trkpt><trkpt lat="42.6964008587809" lon="12.186556298934208"><ele>106.0</ele><time>2026-04-22T10:30:02Z</time></trkpt><trkpt lat="42.69634320417832" lon="12.186737074648518"><ele>106.0</ele><time>2026-04-22T10:30:03Z</time></trkpt><trkpt lat="42.69629127546128" lon="12.186906721016582"><ele>106.0</ele><time>2026-04-22T10:30:04Z</time></trkpt><trkpt lat="42.69624784806135" lon="12.18706534882083"><ele>106.0</ele><time>2026-04-22T10:30:05Z</time></trkpt><trkpt lat="42.69621184969148" lon="12.187210855270484"><ele>106.0</ele><time>2026-04-22T10:30:06Z</time></trkpt><trkpt lat="42.69618030343702" lon="12.1873552298491"><ele>106.0</ele><time>2026-04-22T10:30:07Z</time></trkpt><trkpt lat="42.696155679856865" lon="12.18750130419527"><ele>105.6</ele><time>2026-04-22T10:30:08Z</time></trkpt><trkpt lat="42.6961342427819" lon="12.187644930685845"><ele>105.19999999999999</ele><time>2026-04-22T10:30:09Z</time></trkpt><trkpt lat="42.69611724233984" lon="12.187787774687711"><ele>104.80000000000001</ele><time>2026-04-22T10:30:10Z</time></trkpt><trkpt lat="42.69610780428242" lon="12.187923749663243"><ele>104.4</ele><time>2026-04-22T10:30:11Z</time></trkpt><trkpt lat="42.696100665656616" lon="12.188039376255654"><ele>104.0</ele><time>2026-04-22T10:30:12Z</time></trkpt><trkpt lat="42.69609475362723" lon="12.188154764063153"><ele>107.99999999999999</ele><time>2026-04-22T10:30:13Z</time></trkpt><trkpt lat="42.696083052874215" lon="12.188281491864931"><ele>112.0</ele><time>2026-04-22T10:30:14Z</time></trkpt><trkpt lat="42.696067620447856" lon="12.188401856056274"><ele>116.0</ele><time>2026-04-22T10:30:15Z</time></trkpt><trkpt lat="42.69604581526787" lon="12.188515183372752"><ele>120.0</ele><time>2026-04-22T10:30:16Z</time></trkpt><trkpt lat="42.69601514388827" lon="12.188615242793945"><ele>123.99999999999999</ele><time>2026-04-22T10:30:17Z</time></trkpt><trkpt lat="42.695972210798175" lon="12.188716247307024"><ele>128.0</ele><time>2026-04-22T10:30:18Z</time></trkpt><trkpt lat="42.69593032463484" lon="12.188811218430246"><ele>128.0</ele><time>2026-04-22T10:30:19Z</time></trkpt><trkpt lat="42.695889347714015" lon="12.188895553802652"><ele>127.99999999999999</ele><time>2026-04-22T10:30:20Z</time></trkpt><trkpt lat="42.69585187935733" lon="12.188969420869803"><ele>128.0</ele><time>2026-04-22T10:30:21Z</time></trkpt><trkpt lat="42.695812774440725" lon="12.189037597122727"><ele>128.0</ele><time>2026-04-22T10:30:22Z</time></trkpt><trkpt lat="42.69577092615311" lon="12.189110919030615"><ele>127.99999999999999</ele><time>2026-04-22T10:30:23Z</time></trkpt><trkpt lat="42.69571993898633" lon="12.189195959854404"><ele>128.0</ele><time>2026-04-22T10:30:24Z</time></trkpt><trkpt lat="42.69566727535117" lon="12.189284185827566"><ele>128.0</ele><time>2026-04-22T10:30:25Z</time></trkpt><trkpt lat="42.6956191822151" lon="12.189371510734928"><ele>125.83333333333333</ele><time>2026-04-22T10:30:26Z</time></trkpt><trkpt lat="42.69557213649543" lon="12.189452612517888"><ele>123.66666666666666</ele><time>2026-04-22T10:30:27Z</time></trkpt><trkpt lat="42.695519609336124" lon="12.18953367100721"><ele>121.5</ele><time>2026-04-22T10:30:28Z</time></trkpt><trkpt lat="42.6954631257338" lon="12.189610961381247"><ele>119.33333333333334</ele><time>2026-04-22T10:30:29Z</time></trkpt><trkpt lat="42.69540666637344" lon="12.189681505432562"><ele>117.16666666666667</ele><time>2026-04-22T10:30:30Z</time></trkpt><trkpt lat="42.69534569058092" lon="12.189749890127503"><ele>115.0</ele><time>2026-04-22T10:30:31Z</time></trkpt><trkpt lat="42.69528694660881" lon="12.189806370884602"><ele>115.83333333333334</ele><time>2026-04-22T10:30:32Z</time></trkpt><trkpt lat="42.69522863674602" lon="12.189872263526702"><ele>116.66666666666667</ele><time>2026-04-22T10:30:33Z</time></trkpt><trkpt lat="42.6951711808843" lon="12.189922185174014"><ele>117.5</ele><time>2026-04-22T10:30:34Z</time></trkpt><trkpt lat="42.69511216444889" lon="12.1899891243026"><ele>118.33333333333334</ele><time>2026-04-22T10:30:35Z</time></trkpt><trkpt lat="42.6950358748566" lon="12.190059628431499"><ele>119.16666666666667</ele><time>2026-04-22T10:30:36Z</time></trkpt><trkpt lat="42.6949640789997" lon="12.190104656630528"><ele>120.0</ele><time>2026-04-22T10:30:37Z</time></trkpt><trkpt lat="42.69488506463887" lon="12.190119977691182"><ele>120.0</ele><time>2026-04-22T10:30:38Z</time></trkpt><trkpt lat="42.69480647344727" lon="12.190113284228946"><ele>120.0</ele><time>2026-04-22T10:30:39Z</time></trkpt><trkpt lat="42.69472917863616" lon="12.190109631094511"><ele>120.0</ele><time>2026-04-22T10:30:40Z</time></trkpt><trkpt lat="42.69464766220927" lon="12.19011623431398"><ele>120.0</ele><time>2026-04-22T10:30:41Z</time></trkpt><trkpt lat="42.69457645415385" lon="12.19015112598929"><ele>120.0</ele><time>2026-04-22T10:30:42Z</time></trkpt><trkpt lat="42.69451927023342" lon="12.190234624757165"><ele>120.0</ele><time>2026-04-22T10:30:43Z</time></trkpt><trkpt lat="42.69447026247981" lon="12.190340309680694"><ele>120.0</ele><time>2026-04-22T10:30:44Z</time></trkpt><trkpt lat="42.6944279507669" lon="12.190457674684103"><ele>120.0</ele><time>2026-04-22T10:30:45Z</time></trkpt><trkpt lat="42.69438351457999" lon="12.190586366163995"><ele>120.0</ele><time>2026-04-22T10:30:46Z</time></trkpt><trkpt lat="42.69433541231952" lon="12.190719378514208"><ele>120.0</ele><time>2026-04-22T10:30:47Z</time></trkpt><trkpt lat="42.694281662204645" lon="12.190860934667594"><ele>120.0</ele><time>2026-04-22T10:30:48Z</time></trkpt><trkpt lat="42.69423099411105" lon="12.190996259900896"><ele>120.33333333333333</ele><time>2026-04-22T10:30:49Z</time></trkpt><trkpt lat="42.69418520156131" lon="12.191136359599657"><ele>120.66666666666666</ele><time>2026-04-22T10:30:50Z</time></trkpt><trkpt lat="42.69414335662897" lon="12.191254895019341"><ele>121.0</ele><time>2026-04-22T10:30:51Z</time></trkpt><trkpt lat="42.69410424468803" lon="12.191349438128572"><ele>121.33333333333333</ele><time>2026-04-22T10:30:52Z</time></trkpt><trkpt lat="42.69406848308933" lon="12.191445602857982"><ele>121.66666666666666</ele><time>2026-04-22T10:30:53Z</time></trkpt><trkpt lat="42.69403356696985" lon="12.191534268615149"><ele>122.0</ele><time>2026-04-22T10:30:54Z</time></trkpt><trkpt lat="42.69400312955694" lon="12.191617146660276"><ele>119.49999999999999</ele><time>2026-04-22T10:30:55Z</time></trkpt><trkpt lat="42.69397597398495" lon="12.191696661810116"><ele>117.0</ele><time>2026-04-22T10:30:56Z</time></trkpt><trkpt lat="42.693942839076705" lon="12.191784624994032"><ele>114.5</ele><time>2026-04-22T10:30:57Z</time></trkpt><trkpt lat="42.69390714308038" lon="12.191885706988426"><ele>112.0</ele><time>2026-04-22T10:30:58Z</time></trkpt><trkpt lat="42.69386192973582" lon="12.191997632217126"><ele>109.49999999999999</ele><time>2026-04-22T10:30:59Z</time></trkpt><trkpt lat="42.69381432464921" lon="12.1921178028929"><ele>107.0</ele><time>2026-04-22T10:31:00Z</time></trkpt><trkpt lat="42.693766420861124" lon="12.192244605452522"><ele>105.0</ele><time>2026-04-22T10:31:01Z</time></trkpt><trkpt lat="42.69371794944362" lon="12.192382937390336"><ele>103.0</ele><time>2026-04-22T10:31:02Z</time></trkpt><trkpt lat="42.69366091664354" lon="12.19253510688934"><ele>101.0</ele><time>2026-04-22T10:31:03Z</time></trkpt><trkpt lat="42.69360237642233" lon="12.192688055273988"><ele>99.0</ele><time>2026-04-22T10:31:04Z</time></trkpt><trkpt lat="42.69354405701214" lon="12.192837243356195"><ele>103.4</ele><time>2026-04-22T10:31:05Z</time></trkpt><trkpt lat="42.693489672531406" lon="12.192974471773317"><ele>107.80000000000001</ele><time>2026-04-22T10:31:06Z</time></trkpt><trkpt lat="42.693440196517386" lon="12.193110859338585"><ele>112.19999999999999</ele><time>2026-04-22T10:31:07Z</time></trkpt><trkpt lat="42.693395906235004" lon="12.193245385176024"><ele>116.6</ele><time>2026-04-22T10:31:08Z</time></trkpt><trkpt lat="42.69336231835685" lon="12.19338691571882"><ele>121.0</ele><time>2026-04-22T10:31:09Z</time></trkpt><trkpt lat="42.69334986085059" lon="12.193539446582637"><ele>121.0</ele><time>2026-04-22T10:31:10Z</time></trkpt><trkpt lat="42.69335960356215" lon="12.19369548058032"><ele>121.0</ele><time>2026-04-22T10:31:11Z</time></trkpt><trkpt lat="42.6933862076998" lon="12.193850993684705"><ele>121.0</ele><time>2026-04-22T10:31:12Z</time></trkpt><trkpt lat="42.693416524295216" lon="12.194011752357659"><ele>121.0</ele><time>2026-04-22T10:31:13Z</time></trkpt><trkpt lat="42.69344457692034" lon="12.194172618741304"><ele>122.25</ele><time>2026-04-22T10:31:14Z</time></trkpt><trkpt lat="42.693469207188066" lon="12.194342491251973"><ele>123.5</ele><time>2026-04-22T10:31:15Z</time></trkpt><trkpt lat="42.69348295397948" lon="12.194503248956673"><ele>124.75</ele><time>2026-04-22T10:31:16Z</time></trkpt><trkpt lat="42.69348281509452" lon="12.194657421337723"><ele>126.0</ele><time>2026-04-22T10:31:17Z</time></trkpt><trkpt lat="42.69346790684877" lon="12.194819038054474"><ele>126.25</ele><time>2026-04-22T10:31:18Z</time></trkpt><trkpt lat="42.693444760337364" lon="12.194988314644494"><ele>126.5</ele><time>2026-04-22T10:31:19Z</time></trkpt><trkpt lat="42.693417698985435" lon="12.195161529417218"><ele>126.75</ele><time>2026-04-22T10:31:20Z</time></trkpt><trkpt lat="42.69339106489695" lon="12.195328608480361"><ele>127.0</ele><time>2026-04-22T10:31:21Z</time></trkpt><trkpt lat="42.6933645999191" lon="12.19550006589023"><ele>127.0</ele><time>2026-04-22T10:31:22Z</time></trkpt><trkpt lat="42.693337949902215" lon="12.19565947781998"><ele>127.0</ele><time>2026-04-22T10:31:23Z</time></trkpt><trkpt lat="42.69331242695418" lon="12.195814887212832"><ele>127.0</ele><time>2026-04-22T10:31:24Z</time></trkpt><trkpt lat="42.69328537948782" lon="12.19596383764788"><ele>127.0</ele><time>2026-04-22T10:31:25Z</time></trkpt><trkpt lat="42.69325197139833" lon="12.196110800381224"><ele>124.5</ele><time>2026-04-22T10:31:26Z</time></trkpt><trkpt lat="42.69320957851454" lon="12.196263884336984"><ele>122.0</ele><time>2026-04-22T10:31:27Z</time></trkpt><trkpt lat="42.69315464684025" lon="12.196421215882555"><ele>119.5</ele><time>2026-04-22T10:31:28Z</time></trkpt><trkpt lat="42.69309083562939" lon="12.196575506133932"><ele>117.0</ele><time>2026-04-22T10:31:29Z</time></trkpt><trkpt lat="42.69302154411554" lon="12.196725766269973"><ele>114.0</ele><time>2026-04-22T10:31:30Z</time></trkpt><trkpt lat="42.692953722692494" lon="12.196868818366145"><ele>111.0</ele><time>2026-04-22T10:31:31Z</time></trkpt><trkpt lat="42.69288875472211" lon="12.197005237667078"><ele>108.0</ele><time>2026-04-22T10:31:32Z</time></trkpt><trkpt lat="42.69281036155973" lon="12.197123915473982"><ele>105.0</ele><time>2026-04-22T10:31:33Z</time></trkpt><trkpt lat="42.692742567748425" lon="12.197264845140158"><ele>107.75</ele><time>2026-04-22T10:31:34Z</time></trkpt><trkpt lat="42.6926724852797" lon="12.197410532458608"><ele>110.5</ele><time>2026-04-22T10:31:35Z</time></trkpt><trkpt lat="42.69260332746786" lon="12.19755498797969"><ele>113.25</ele><time>2026-04-22T10:31:36Z</time></trkpt><trkpt lat="42.692532951865815" lon="12.197702527065761"><ele>116.0</ele><time>2026-04-22T10:31:37Z</time></trkpt><trkpt lat="42.69246006401264" lon="12.197855332955411"><ele>116.0</ele><time>2026-04-22T10:31:38Z</time></trkpt><trkpt lat="42.69238355011569" lon="12.198018834708458"><ele>116.0</ele><time>2026-04-22T10:31:39.001Z</time></trkpt><trkpt lat="42.69230357931762" lon="12.1981896445085"><ele>116.0</ele><time>2026-04-22T10:31:40.001Z</time></trkpt><trkpt lat="42.69221505033186" lon="12.198379271127665"><ele>113.0</ele><time>2026-04-22T10:31:41.001Z</time></trkpt><trkpt lat="42.69211538349894" lon="12.198593227716033"><ele>110.0</ele><time>2026-04-22T10:31:42.001Z</time></trkpt><trkpt lat="42.6920129013142" lon="12.198813228083205"><ele>107.0</ele><time>2026-04-22T10:31:43.001Z</time></trkpt><trkpt lat="42.691918526535375" lon="12.199017403392775"><ele>107.0</ele><time>2026-04-22T10:31:44.001Z</time></trkpt><trkpt lat="42.69184429721908" lon="12.199218224459969"><ele>107.0</ele><time>2026-04-22T10:31:45.001Z</time></trkpt><trkpt lat="42.69175759834463" lon="12.199390957415622"><ele>107.0</ele><time>2026-04-22T10:31:46.001Z</time></trkpt><trkpt lat="42.691641888957754" lon="12.199556872855307"><ele>107.0</ele><time>2026-04-22T10:31:47.001Z</time></trkpt><trkpt lat="42.69151430142565" lon="12.199753424142289"><ele>107.0</ele><time>2026-04-22T10:31:48.001Z</time></trkpt><trkpt lat="42.691380835714426" lon="12.199952968067333"><ele>107.0</ele><time>2026-04-22T10:31:49.001Z</time></trkpt><trkpt lat="42.69124417184038" lon="12.200157051006316"><ele>106.66666666666666</ele><time>2026-04-22T10:31:50.001Z</time></trkpt><trkpt lat="42.69111341203994" lon="12.20035231726173"><ele>106.33333333333334</ele><time>2026-04-22T10:31:51.001Z</time></trkpt><trkpt lat="42.69098593275827" lon="12.20054432507667"><ele>106.0</ele><time>2026-04-22T10:31:52.001Z</time></trkpt><trkpt lat="42.69085885615785" lon="12.200735839588924"><ele>105.0</ele><time>2026-04-22T10:31:53.001Z</time></trkpt><trkpt lat="42.69073212241288" lon="12.200926391497534"><ele>104.0</ele><time>2026-04-22T10:31:54.001Z</time></trkpt><trkpt lat="42.69060899391848" lon="12.201111599511925"><ele>103.0</ele><time>2026-04-22T10:31:55Z</time></trkpt><trkpt lat="42.690495772863116" lon="12.201282646710322"><ele>103.0</ele><time>2026-04-22T10:31:56Z</time></trkpt><trkpt lat="42.6903964334602" lon="12.201463664704322"><ele>103.0</ele><time>2026-04-22T10:31:57Z</time></trkpt><trkpt lat="42.690278047802494" lon="12.201602407925845"><ele>103.0</ele><time>2026-04-22T10:31:58Z</time></trkpt><trkpt lat="42.69015947939371" lon="12.201758570240267"><ele>103.0</ele><time>2026-04-22T10:31:59Z</time></trkpt><trkpt lat="42.69003656473257" lon="12.201898241911415"><ele>103.0</ele><time>2026-04-22T10:32:00Z</time></trkpt><trkpt lat="42.689899503691606" lon="12.20203884938644"><ele>103.0</ele><time>2026-04-22T10:32:01Z</time></trkpt><trkpt lat="42.68974689522114" lon="12.20214859518141"><ele>103.0</ele><time>2026-04-22T10:32:02Z</time></trkpt><trkpt lat="42.68959319091821" lon="12.202244221731025"><ele>103.0</ele><time>2026-04-22T10:32:03Z</time></trkpt><trkpt lat="42.68943453421706" lon="12.202339546821072"><ele>103.0</ele><time>2026-04-22T10:32:04Z</time></trkpt><trkpt lat="42.68927812499552" lon="12.202429954786849"><ele>102.66666666666667</ele><time>2026-04-22T10:32:05Z</time></trkpt><trkpt lat="42.689129018299546" lon="12.20252068902065"><ele>102.33333333333334</ele><time>2026-04-22T10:32:06Z</time></trkpt><trkpt lat="42.688982640174665" lon="12.202603521980588"><ele>102.0</ele><time>2026-04-22T10:32:07Z</time></trkpt><trkpt lat="42.688833714762005" lon="12.202695218010636"><ele>102.0</ele><time>2026-04-22T10:32:08Z</time></trkpt><trkpt lat="42.688681561604454" lon="12.202781518609159"><ele>102.0</ele><time>2026-04-22T10:32:09Z</time></trkpt><trkpt lat="42.688531549452385" lon="12.202871041380702"><ele>102.0</ele><time>2026-04-22T10:32:10Z</time></trkpt><trkpt lat="42.68838267953561" lon="12.202963233351579"><ele>102.0</ele><time>2026-04-22T10:32:11Z</time></trkpt><trkpt lat="42.6882285064568" lon="12.203054180292416"><ele>102.0</ele><time>2026-04-22T10:32:12Z</time></trkpt><trkpt lat="42.68807962358602" lon="12.203144317192997"><ele>102.0</ele><time>2026-04-22T10:32:13Z</time></trkpt><trkpt lat="42.68793148700849" lon="12.203211133089813"><ele>102.0</ele><time>2026-04-22T10:32:14Z</time></trkpt><trkpt lat="42.68779281547534" lon="12.20330352293408"><ele>102.0</ele><time>2026-04-22T10:32:15Z</time></trkpt><trkpt lat="42.687672146731195" lon="12.2034268350089"><ele>102.0</ele><time>2026-04-22T10:32:16Z</time></trkpt><trkpt lat="42.687550242283464" lon="12.203543267108492"><ele>102.0</ele><time>2026-04-22T10:32:17Z</time></trkpt><trkpt lat="42.68743980028348" lon="12.203663663279698"><ele>102.0</ele><time>2026-04-22T10:32:18Z</time></trkpt><trkpt lat="42.68734075147062" lon="12.203778594129822"><ele>102.0</ele><time>2026-04-22T10:32:19Z</time></trkpt><trkpt lat="42.68725325009641" lon="12.20388793255394"><ele>102.0</ele><time>2026-04-22T10:32:20Z</time></trkpt><trkpt lat="42.68717700304951" lon="12.20399256730886"><ele>101.6</ele><time>2026-04-22T10:32:21Z</time></trkpt><trkpt lat="42.68712067207543" lon="12.204108899326044"><ele>101.19999999999999</ele><time>2026-04-22T10:32:22Z</time></trkpt><trkpt lat="42.68709777753027" lon="12.204232597735531"><ele>100.8</ele><time>2026-04-22T10:32:23Z</time></trkpt><trkpt lat="42.687099436482875" lon="12.204351763766002"><ele>100.4</ele><time>2026-04-22T10:32:24Z</time></trkpt><trkpt lat="42.68712620984066" lon="12.204475234944924"><ele>100.0</ele><time>2026-04-22T10:32:25Z</time></trkpt><trkpt lat="42.68716895639795" lon="12.204607260572185"><ele>100.0</ele><time>2026-04-22T10:32:26Z</time></trkpt><trkpt lat="42.68721829510954" lon="12.204751727393838"><ele>100.0</ele><time>2026-04-22T10:32:27Z</time></trkpt><trkpt lat="42.68726633580828" lon="12.204903772398296"><ele>100.0</ele><time>2026-04-22T10:32:28Z</time></trkpt><trkpt lat="42.68732234883441" lon="12.205063787331214"><ele>100.0</ele><time>2026-04-22T10:32:29Z</time></trkpt><trkpt lat="42.68737432380255" lon="12.205276672658652"><ele>100.0</ele><time>2026-04-22T10:32:30Z</time></trkpt><trkpt lat="42.68745626140997" lon="12.205490950579772"><ele>100.0</ele><time>2026-04-22T10:32:31Z</time></trkpt><trkpt lat="42.687513520051375" lon="12.205696601127647"><ele>100.0</ele><time>2026-04-22T10:32:32Z</time></trkpt><trkpt lat="42.687565979133" lon="12.205877731062994"><ele>99.75</ele><time>2026-04-22T10:32:33Z</time></trkpt><trkpt lat="42.68761464704767" lon="12.206042959015948"><ele>99.5</ele><time>2026-04-22T10:32:34Z</time></trkpt><trkpt lat="42.687664812412194" lon="12.206204910128799"><ele>99.25</ele><time>2026-04-22T10:32:35Z</time></trkpt><trkpt lat="42.68771765644258" lon="12.20637515373722"><ele>99.0</ele><time>2026-04-22T10:32:36Z</time></trkpt><trkpt lat="42.68777861528099" lon="12.206557778278203"><ele>99.0</ele><time>2026-04-22T10:32:37Z</time></trkpt><trkpt lat="42.68783605661302" lon="12.206771755710083"><ele>99.0</ele><time>2026-04-22T10:32:38Z</time></trkpt><trkpt lat="42.68790328800458" lon="12.206988868119751"><ele>99.0</ele><time>2026-04-22T10:32:39Z</time></trkpt><trkpt lat="42.687967008353084" lon="12.207194325386387"><ele>98.66666666666666</ele><time>2026-04-22T10:32:40Z</time></trkpt><trkpt lat="42.68803777478785" lon="12.207422613139764"><ele>98.33333333333333</ele><time>2026-04-22T10:32:41Z</time></trkpt><trkpt lat="42.68811165516331" lon="12.207661004581762"><ele>98.0</ele><time>2026-04-22T10:32:42Z</time></trkpt><trkpt lat="42.68818685134029" lon="12.207903641748963"><ele>98.0</ele><time>2026-04-22T10:32:43Z</time></trkpt><trkpt lat="42.68825700355216" lon="12.208130003425218"><ele>98.0</ele><time>2026-04-22T10:32:44Z</time></trkpt><trkpt lat="42.68832218886918" lon="12.208340395809444"><ele>98.0</ele><time>2026-04-22T10:32:45.001Z</time></trkpt><trkpt lat="42.68838614686811" lon="12.208546856739828"><ele>97.25</ele><time>2026-04-22T10:32:46Z</time></trkpt><trkpt lat="42.68844814874842" lon="12.208747003170462"><ele>96.5</ele><time>2026-04-22T10:32:47Z</time></trkpt><trkpt lat="42.68852088332687" lon="12.208925440123641"><ele>95.75</ele><time>2026-04-22T10:32:48Z</time></trkpt><trkpt lat="42.68857378494469" lon="12.209098133277159"><ele>95.0</ele><time>2026-04-22T10:32:49Z</time></trkpt><trkpt lat="42.68861726312963" lon="12.209248601243095"><ele>97.6</ele><time>2026-04-22T10:32:50Z</time></trkpt><trkpt lat="42.688660010083225" lon="12.209381996901406"><ele>100.2</ele><time>2026-04-22T10:32:51Z</time></trkpt><trkpt lat="42.68869928146053" lon="12.209505855936886"><ele>102.80000000000001</ele><time>2026-04-22T10:32:52Z</time></trkpt><trkpt lat="42.68873156808746" lon="12.209642872802474"><ele>105.4</ele><time>2026-04-22T10:32:53Z</time></trkpt><trkpt lat="42.688761462642375" lon="12.209813700623362"><ele>108.0</ele><time>2026-04-22T10:32:54Z</time></trkpt><trkpt lat="42.68875344664308" lon="12.209983742132673"><ele>109.0</ele><time>2026-04-22T10:32:55Z</time></trkpt><trkpt lat="42.68875197979271" lon="12.210136480491217"><ele>110.00000000000001</ele><time>2026-04-22T10:32:56Z</time></trkpt><trkpt lat="42.68874954169624" lon="12.210272956889671"><ele>111.00000000000001</ele><time>2026-04-22T10:32:57Z</time></trkpt><trkpt lat="42.68874624888139" lon="12.210402188123407"><ele>112.0</ele><time>2026-04-22T10:32:58Z</time></trkpt><trkpt lat="42.68874267154806" lon="12.210512134509635"><ele>113.0</ele><time>2026-04-22T10:32:59Z</time></trkpt><trkpt lat="42.68873807733527" lon="12.21063548609144"><ele>114.0</ele><time>2026-04-22T10:33:00Z</time></trkpt><trkpt lat="42.68873355937394" lon="12.210723777808772"><ele>115.00000000000001</ele><time>2026-04-22T10:33:01Z</time></trkpt><trkpt lat="42.68871335385645" lon="12.210867454868874"><ele>116.00000000000001</ele><time>2026-04-22T10:33:03Z</time></trkpt><trkpt lat="42.68867891822632" lon="12.21101033982037"><ele>117.0</ele><time>2026-04-22T10:33:05Z</time></trkpt><trkpt lat="42.688658772481084" lon="12.21111738415774"><ele>118.0</ele><time>2026-04-22T10:33:08Z</time></trkpt><trkpt lat="42.68881964959545" lon="12.2112220496065"><ele>118.0</ele><time>2026-04-22T10:33:09Z</time></trkpt><trkpt lat="42.68888069185642" lon="12.211243498288077"><ele>118.00000000000001</ele><time>2026-04-22T10:33:10Z</time></trkpt><trkpt lat="42.688998091577865" lon="12.211283366390338"><ele>118.00000000000001</ele><time>2026-04-22T10:33:12Z</time></trkpt><trkpt lat="42.68906235330278" lon="12.211323769097223"><ele>118.0</ele><time>2026-04-22T10:33:13Z</time></trkpt><trkpt lat="42.68917418657799" lon="12.211393427203646"><ele>118.0</ele><time>2026-04-22T10:33:15Z</time></trkpt><trkpt lat="42.6892447203341" lon="12.211437750091306"><ele>118.0</ele><time>2026-04-22T10:33:16Z</time></trkpt><trkpt lat="42.689314833331665" lon="12.211482268158132"><ele>118.00000000000001</ele><time>2026-04-22T10:33:17Z</time></trkpt><trkpt lat="42.689389853018945" lon="12.211532238646637"><ele>118.00000000000001</ele><time>2026-04-22T10:33:18Z</time></trkpt><trkpt lat="42.68947027939836" lon="12.211582057745677"><ele>118.0</ele><time>2026-04-22T10:33:19Z</time></trkpt><trkpt lat="42.689570448608855" lon="12.211665408544736"><ele>118.0</ele><time>2026-04-22T10:33:20Z</time></trkpt><trkpt lat="42.68969164519141" lon="12.211743153977277"><ele>120.25</ele><time>2026-04-22T10:33:21Z</time></trkpt><trkpt lat="42.68981373377469" lon="12.211821471619624"><ele>122.5</ele><time>2026-04-22T10:33:22Z</time></trkpt><trkpt lat="42.689944735739836" lon="12.211905507036734"><ele>124.75</ele><time>2026-04-22T10:33:23Z</time></trkpt><trkpt lat="42.6900843571726" lon="12.211994629008544"><ele>127.0</ele><time>2026-04-22T10:33:24Z</time></trkpt><trkpt lat="42.690239044615744" lon="12.212070416109235"><ele>127.66666666666667</ele><time>2026-04-22T10:33:25Z</time></trkpt><trkpt lat="42.690381033350626" lon="12.212171391895565"><ele>128.33333333333334</ele><time>2026-04-22T10:33:26Z</time></trkpt><trkpt lat="42.690530799091604" lon="12.212268877153315"><ele>129.0</ele><time>2026-04-22T10:33:27Z</time></trkpt><trkpt lat="42.690682450382084" lon="12.212367828090127"><ele>129.33333333333334</ele><time>2026-04-22T10:33:28Z</time></trkpt><trkpt lat="42.690838078410074" lon="12.212471922374972"><ele>129.66666666666669</ele><time>2026-04-22T10:33:29Z</time></trkpt><trkpt lat="42.690993728809154" lon="12.212576352423316"><ele>130.0</ele><time>2026-04-22T10:33:30Z</time></trkpt><trkpt lat="42.691151849319475" lon="12.212678414699889"><ele>130.0</ele><time>2026-04-22T10:33:31Z</time></trkpt><trkpt lat="42.6913163405136" lon="12.21279021510185"><ele>130.0</ele><time>2026-04-22T10:33:32Z</time></trkpt><trkpt lat="42.69148459415594" lon="12.212902031453927"><ele>130.0</ele><time>2026-04-22T10:33:33Z</time></trkpt><trkpt lat="42.69165454102838" lon="12.213010535768682"><ele>130.0</ele><time>2026-04-22T10:33:34Z</time></trkpt><trkpt lat="42.69182964588121" lon="12.213120420963534"><ele>130.0</ele><time>2026-04-22T10:33:35Z</time></trkpt><trkpt lat="42.692004058788044" lon="12.213233251333317"><ele>130.0</ele><time>2026-04-22T10:33:36Z</time></trkpt><trkpt lat="42.69217710195016" lon="12.21334265318482"><ele>131.0</ele><time>2026-04-22T10:33:37Z</time></trkpt><trkpt lat="42.69234540244431" lon="12.213451502719982"><ele>132.0</ele><time>2026-04-22T10:33:38Z</time></trkpt><trkpt lat="42.692517419667034" lon="12.213565138569987"><ele>133.0</ele><time>2026-04-22T10:33:39Z</time></trkpt><trkpt lat="42.69268543650078" lon="12.2136736137805"><ele>133.66666666666669</ele><time>2026-04-22T10:33:40Z</time></trkpt><trkpt lat="42.69284820878185" lon="12.213779262448064"><ele>134.33333333333334</ele><time>2026-04-22T10:33:41Z</time></trkpt><trkpt lat="42.693004271209716" lon="12.21387661462766"><ele>135.0</ele><time>2026-04-22T10:33:42Z</time></trkpt><trkpt lat="42.693162221584934" lon="12.213993366172337"><ele>135.66666666666666</ele><time>2026-04-22T10:33:43Z</time></trkpt><trkpt lat="42.69331123759755" lon="12.21412318279114"><ele>136.33333333333331</ele><time>2026-04-22T10:33:44.001Z</time></trkpt><trkpt lat="42.6934544583963" lon="12.21427685787597"><ele>137.0</ele><time>2026-04-22T10:33:45.001Z</time></trkpt><trkpt lat="42.69358677502486" lon="12.214449430046361"><ele>136.33333333333331</ele><time>2026-04-22T10:33:46.001Z</time></trkpt><trkpt lat="42.69371339677625" lon="12.214643543027748"><ele>135.66666666666666</ele><time>2026-04-22T10:33:47.001Z</time></trkpt><trkpt lat="42.693831125642454" lon="12.214851091998515"><ele>135.0</ele><time>2026-04-22T10:33:48.001Z</time></trkpt><trkpt lat="42.69393829724" lon="12.215072212581648"><ele>136.33333333333334</ele><time>2026-04-22T10:33:49.001Z</time></trkpt><trkpt lat="42.69402785613104" lon="12.215299730055802"><ele>137.66666666666669</ele><time>2026-04-22T10:33:50.001Z</time></trkpt><trkpt lat="42.69414584854045" lon="12.21557809886425"><ele>139.0</ele><time>2026-04-22T10:33:51.001Z</time></trkpt><trkpt lat="42.6942528789022" lon="12.215825600910973"><ele>138.66666666666669</ele><time>2026-04-22T10:33:52.001Z</time></trkpt><trkpt lat="42.694362027157354" lon="12.216079503802616"><ele>138.33333333333334</ele><time>2026-04-22T10:33:53.001Z</time></trkpt><trkpt lat="42.694470952684725" lon="12.21633389515502"><ele>138.0</ele><time>2026-04-22T10:33:54.001Z</time></trkpt><trkpt lat="42.694580503831936" lon="12.216589880460372"><ele>139.0</ele><time>2026-04-22T10:33:55.001Z</time></trkpt><trkpt lat="42.694688808821006" lon="12.216842215866306"><ele>140.0</ele><time>2026-04-22T10:33:56.001Z</time></trkpt><trkpt lat="42.69478184715645" lon="12.217075391499709"><ele>141.0</ele><time>2026-04-22T10:33:57.001Z</time></trkpt><trkpt lat="42.69484225506559" lon="12.217278872460582"><ele>141.0</ele><time>2026-04-22T10:33:58.001Z</time></trkpt><trkpt lat="42.69487624681646" lon="12.217483930103343"><ele>141.0</ele><time>2026-04-22T10:33:59.001Z</time></trkpt><trkpt lat="42.69487185446174" lon="12.217700634562851"><ele>141.0</ele><time>2026-04-22T10:34:00.001Z</time></trkpt><trkpt lat="42.69484942332813" lon="12.217938547808261"><ele>141.33333333333334</ele><time>2026-04-22T10:34:01.001Z</time></trkpt><trkpt lat="42.694825733897076" lon="12.218199827911391"><ele>141.66666666666669</ele><time>2026-04-22T10:34:02.001Z</time></trkpt><trkpt lat="42.694804965967315" lon="12.218463555293136"><ele>142.0</ele><time>2026-04-22T10:34:03.001Z</time></trkpt><trkpt lat="42.69479176232927" lon="12.218714705132234"><ele>142.0</ele><time>2026-04-22T10:34:04.001Z</time></trkpt><trkpt lat="42.69479053837792" lon="12.218950943684552"><ele>142.0</ele><time>2026-04-22T10:34:05.001Z</time></trkpt><trkpt lat="42.694813586768895" lon="12.219166786242088"><ele>142.0</ele><time>2026-04-22T10:34:06.001Z</time></trkpt><trkpt lat="42.69486917548618" lon="12.219360064817801"><ele>143.0</ele><time>2026-04-22T10:34:07.001Z</time></trkpt><trkpt lat="42.694956902412045" lon="12.219531542403157"><ele>144.0</ele><time>2026-04-22T10:34:08.001Z</time></trkpt><trkpt lat="42.695083546073704" lon="12.21967334694913"><ele>145.0</ele><time>2026-04-22T10:34:09.001Z</time></trkpt><trkpt lat="42.6952341259202" lon="12.219772773146989"><ele>145.66666666666669</ele><time>2026-04-22T10:34:10Z</time></trkpt><trkpt lat="42.6954029303013" lon="12.219827454554633"><ele>146.33333333333334</ele><time>2026-04-22T10:34:11Z</time></trkpt><trkpt lat="42.69557759252853" lon="12.219874273055838"><ele>147.0</ele><time>2026-04-22T10:34:12Z</time></trkpt><trkpt lat="42.6957476812432" lon="12.219946324917135"><ele>147.0</ele><time>2026-04-22T10:34:13Z</time></trkpt><trkpt lat="42.695913257939516" lon="12.220049500100224"><ele>147.0</ele><time>2026-04-22T10:34:14Z</time></trkpt><trkpt lat="42.69606481003131" lon="12.22018853904669"><ele>147.0</ele><time>2026-04-22T10:34:15Z</time></trkpt><trkpt lat="42.69621925176074" lon="12.220349953998687"><ele>146.66666666666666</ele><time>2026-04-22T10:34:16Z</time></trkpt><trkpt lat="42.69638165533447" lon="12.220526474403597"><ele>146.33333333333331</ele><time>2026-04-22T10:34:17Z</time></trkpt><trkpt lat="42.696549900158615" lon="12.220710557915709"><ele>146.0</ele><time>2026-04-22T10:34:18Z</time></trkpt><trkpt lat="42.69672198008212" lon="12.220903105781213"><ele>146.0</ele><time>2026-04-22T10:34:19Z</time></trkpt><trkpt lat="42.69689761589101" lon="12.2211054771378"><ele>146.0</ele><time>2026-04-22T10:34:20Z</time></trkpt><trkpt lat="42.69704059588963" lon="12.221190865482479"><ele>146.0</ele><time>2026-04-22T10:34:21Z</time></trkpt><trkpt lat="42.697208201089126" lon="12.221381511183221"><ele>144.33333333333331</ele><time>2026-04-22T10:34:22Z</time></trkpt><trkpt lat="42.697355546102806" lon="12.221563879151171"><ele>142.66666666666666</ele><time>2026-04-22T10:34:23Z</time></trkpt><trkpt lat="42.69749085229321" lon="12.221740533354929"><ele>141.0</ele><time>2026-04-22T10:34:24Z</time></trkpt><trkpt lat="42.697619515447734" lon="12.22190695202988"><ele>141.0</ele><time>2026-04-22T10:34:25Z</time></trkpt><trkpt lat="42.697731261242" lon="12.22209080232437"><ele>141.0</ele><time>2026-04-22T10:34:26Z</time></trkpt><trkpt lat="42.69785363485215" lon="12.222256585033183"><ele>141.0</ele><time>2026-04-22T10:34:27Z</time></trkpt><trkpt lat="42.69791400628388" lon="12.222450783638337"><ele>139.0</ele><time>2026-04-22T10:34:28Z</time></trkpt><trkpt lat="42.697950341642155" lon="12.222645107509692"><ele>137.0</ele><time>2026-04-22T10:34:29Z</time></trkpt><trkpt lat="42.69792700403651" lon="12.222838680886122"><ele>135.0</ele><time>2026-04-22T10:34:30Z</time></trkpt><trkpt lat="42.69788543737556" lon="12.223060564684674"><ele>133.33333333333334</ele><time>2026-04-22T10:34:31Z</time></trkpt><trkpt lat="42.69783735657542" lon="12.22331204679861"><ele>131.66666666666669</ele><time>2026-04-22T10:34:32Z</time></trkpt><trkpt lat="42.69780847627612" lon="12.223585554940154"><ele>130.0</ele><time>2026-04-22T10:34:33Z</time></trkpt><trkpt lat="42.69778141522116" lon="12.22385693468387"><ele>129.66666666666669</ele><time>2026-04-22T10:34:34Z</time></trkpt><trkpt lat="42.69778578827932" lon="12.224133801942207"><ele>129.33333333333334</ele><time>2026-04-22T10:34:35Z</time></trkpt><trkpt lat="42.69783361276284" lon="12.22440944657006"><ele>129.0</ele><time>2026-04-22T10:34:36Z</time></trkpt><trkpt lat="42.69790934121564" lon="12.22469090191962"><ele>129.66666666666666</ele><time>2026-04-22T10:34:37Z</time></trkpt><trkpt lat="42.69799113184291" lon="12.224973501876104"><ele>130.33333333333331</ele><time>2026-04-22T10:34:38Z</time></trkpt><trkpt lat="42.698092424140974" lon="12.225238957591717"><ele>131.0</ele><time>2026-04-22T10:34:39Z</time></trkpt><trkpt lat="42.69822481902704" lon="12.225483360222876"><ele>132.33333333333331</ele><time>2026-04-22T10:34:40Z</time></trkpt><trkpt lat="42.69837131493055" lon="12.225698269205889"><ele>133.66666666666666</ele><time>2026-04-22T10:34:41Z</time></trkpt><trkpt lat="42.6985314829243" lon="12.225872444504672"><ele>135.0</ele><time>2026-04-22T10:34:42Z</time></trkpt><trkpt lat="42.69870176691752" lon="12.226006430704091"><ele>130.66666666666666</ele><time>2026-04-22T10:34:43Z</time></trkpt><trkpt lat="42.698849508755586" lon="12.2261199998218"><ele>126.33333333333333</ele><time>2026-04-22T10:34:44Z</time></trkpt><trkpt lat="42.698923748721406" lon="12.226286421736637"><ele>122.0</ele><time>2026-04-22T10:34:45Z</time></trkpt><trkpt lat="42.698976902274126" lon="12.226473414514537"><ele>123.66666666666666</ele><time>2026-04-22T10:34:46Z</time></trkpt><trkpt lat="42.69899807115302" lon="12.226683471095887"><ele>125.33333333333334</ele><time>2026-04-22T10:34:47Z</time></trkpt><trkpt lat="42.698988987397236" lon="12.22690479629796"><ele>127.0</ele><time>2026-04-22T10:34:48Z</time></trkpt><trkpt lat="42.69895677373441" lon="12.22713761044004"><ele>127.33333333333334</ele><time>2026-04-22T10:34:49Z</time></trkpt><trkpt lat="42.69891697421621" lon="12.227386489647001"><ele>127.66666666666666</ele><time>2026-04-22T10:34:50Z</time></trkpt><trkpt lat="42.698878479754995" lon="12.227641952660585"><ele>128.0</ele><time>2026-04-22T10:34:51Z</time></trkpt><trkpt lat="42.69886713457113" lon="12.227893172494822"><ele>128.33333333333331</ele><time>2026-04-22T10:34:52Z</time></trkpt><trkpt lat="42.698862755617945" lon="12.228151641557758"><ele>128.66666666666666</ele><time>2026-04-22T10:34:53Z</time></trkpt><trkpt lat="42.698893571999086" lon="12.228413709479137"><ele>129.0</ele><time>2026-04-22T10:34:54Z</time></trkpt><trkpt lat="42.698939776833356" lon="12.228683566904062"><ele>129.0</ele><time>2026-04-22T10:34:55Z</time></trkpt><trkpt lat="42.69895216010512" lon="12.228957024666025"><ele>129.0</ele><time>2026-04-22T10:34:56Z</time></trkpt><trkpt lat="42.69893814990212" lon="12.229222746762245"><ele>129.0</ele><time>2026-04-22T10:34:57Z</time></trkpt><trkpt lat="42.69893560057146" lon="12.229462811685321"><ele>130.33333333333334</ele><time>2026-04-22T10:34:58Z</time></trkpt><trkpt lat="42.69892818530278" lon="12.229696254893794"><ele>131.66666666666669</ele><time>2026-04-22T10:34:59Z</time></trkpt><trkpt lat="42.69896878627119" lon="12.229922609565278"><ele>133.0</ele><time>2026-04-22T10:35:00Z</time></trkpt><trkpt lat="42.69905472062684" lon="12.230145594319223"><ele>134.33333333333334</ele><time>2026-04-22T10:35:01Z</time></trkpt><trkpt lat="42.6991505811312" lon="12.230362826696558"><ele>135.66666666666666</ele><time>2026-04-22T10:35:02Z</time></trkpt><trkpt lat="42.69919822862047" lon="12.230592071569447"><ele>137.0</ele><time>2026-04-22T10:35:03Z</time></trkpt><trkpt lat="42.699217541858474" lon="12.230830003932576"><ele>139.33333333333331</ele><time>2026-04-22T10:35:04Z</time></trkpt><trkpt lat="42.69921356063529" lon="12.231084117125377"><ele>141.66666666666666</ele><time>2026-04-22T10:35:05Z</time></trkpt><trkpt lat="42.69924521260837" lon="12.231329569777326"><ele>144.0</ele><time>2026-04-22T10:35:06Z</time></trkpt><trkpt lat="42.69923865310852" lon="12.231546165202111"><ele>144.0</ele><time>2026-04-22T10:35:07Z</time></trkpt><trkpt lat="42.699226478651966" lon="12.231739271155789"><ele>144.0</ele><time>2026-04-22T10:35:08Z</time></trkpt><trkpt lat="42.69916931788208" lon="12.231916146004469"><ele>144.0</ele><time>2026-04-22T10:35:09Z</time></trkpt><trkpt lat="42.699079143389525" lon="12.232098857199802"><ele>144.0</ele><time>2026-04-22T10:35:10Z</time></trkpt><trkpt lat="42.698976651601456" lon="12.23230443444352"><ele>143.33333333333334</ele><time>2026-04-22T10:35:11Z</time></trkpt><trkpt lat="42.69887611313612" lon="12.232535550465785"><ele>142.66666666666669</ele><time>2026-04-22T10:35:12Z</time></trkpt><trkpt lat="42.69876567359765" lon="12.23275952221142"><ele>142.0</ele><time>2026-04-22T10:35:13Z</time></trkpt><trkpt lat="42.69864136295146" lon="12.23296170678809"><ele>145.33333333333334</ele><time>2026-04-22T10:35:14Z</time></trkpt><trkpt lat="42.69852342181432" lon="12.233171783895251"><ele>148.66666666666666</ele><time>2026-04-22T10:35:15Z</time></trkpt><trkpt lat="42.69839235015814" lon="12.233368813784633"><ele>152.0</ele><time>2026-04-22T10:35:16Z</time></trkpt><trkpt lat="42.69826242291416" lon="12.233568279624363"><ele>152.0</ele><time>2026-04-22T10:35:17Z</time></trkpt><trkpt lat="42.69816929149889" lon="12.233799207478203"><ele>152.0</ele><time>2026-04-22T10:35:18Z</time></trkpt><trkpt lat="42.698123756498035" lon="12.234023208747352"><ele>152.0</ele><time>2026-04-22T10:35:19Z</time></trkpt><trkpt lat="42.698094857489785" lon="12.234276696967035"><ele>149.0</ele><time>2026-04-22T10:35:20Z</time></trkpt><trkpt lat="42.69806874246434" lon="12.234536681199987"><ele>146.0</ele><time>2026-04-22T10:35:21Z</time></trkpt><trkpt lat="42.69803965740762" lon="12.234812959818754"><ele>143.0</ele><time>2026-04-22T10:35:22Z</time></trkpt><trkpt lat="42.69800553402617" lon="12.235097655221347"><ele>140.66666666666666</ele><time>2026-04-22T10:35:23Z</time></trkpt><trkpt lat="42.69796895280299" lon="12.235390031251455"><ele>138.33333333333334</ele><time>2026-04-22T10:35:24Z</time></trkpt><trkpt lat="42.6979352965779" lon="12.235688076617208"><ele>136.0</ele><time>2026-04-22T10:35:25Z</time></trkpt><trkpt lat="42.69790577943312" lon="12.235986152695563"><ele>136.0</ele><time>2026-04-22T10:35:26Z</time></trkpt><trkpt lat="42.69787581510495" lon="12.236294781979977"><ele>136.0</ele><time>2026-04-22T10:35:27Z</time></trkpt><trkpt lat="42.69785806906038" lon="12.236605501519362"><ele>136.0</ele><time>2026-04-22T10:35:28Z</time></trkpt><trkpt lat="42.69786269308523" lon="12.236910114703985"><ele>136.0</ele><time>2026-04-22T10:35:29Z</time></trkpt><trkpt lat="42.69788848361682" lon="12.23719534401753"><ele>136.0</ele><time>2026-04-22T10:35:30Z</time></trkpt><trkpt lat="42.6979157379623" lon="12.237466177498815"><ele>136.0</ele><time>2026-04-22T10:35:31Z</time></trkpt><trkpt lat="42.69792481763781" lon="12.237734207851931"><ele>136.0</ele><time>2026-04-22T10:35:32Z</time></trkpt><trkpt lat="42.69788910549424" lon="12.237998248002128"><ele>136.0</ele><time>2026-04-22T10:35:33Z</time></trkpt><trkpt lat="42.697866766135775" lon="12.238265340890582"><ele>136.33333333333334</ele><time>2026-04-22T10:35:34Z</time></trkpt><trkpt lat="42.6978628887884" lon="12.238538751336064"><ele>136.66666666666666</ele><time>2026-04-22T10:35:35Z</time></trkpt><trkpt lat="42.69785258378399" lon="12.238790597458925"><ele>137.0</ele><time>2026-04-22T10:35:36Z</time></trkpt><trkpt lat="42.69785843301212" lon="12.239036139249567"><ele>136.33333333333331</ele><time>2026-04-22T10:35:37Z</time></trkpt><trkpt lat="42.69790946852105" lon="12.239263222274108"><ele>135.66666666666666</ele><time>2026-04-22T10:35:38Z</time></trkpt><trkpt lat="42.697986245184644" lon="12.23948488043657"><ele>135.0</ele><time>2026-04-22T10:35:39Z</time></trkpt><trkpt lat="42.698084265131484" lon="12.239691623712964"><ele>135.0</ele><time>2026-04-22T10:35:40Z</time></trkpt><trkpt lat="42.698195142750514" lon="12.239895443430523"><ele>135.0</ele><time>2026-04-22T10:35:41Z</time></trkpt><trkpt lat="42.6983044292833" lon="12.240107576418266"><ele>135.0</ele><time>2026-04-22T10:35:42Z</time></trkpt><trkpt lat="42.698410244777335" lon="12.240330258386397"><ele>135.0</ele><time>2026-04-22T10:35:43Z</time></trkpt><trkpt lat="42.69851592382726" lon="12.240559569996096"><ele>135.0</ele><time>2026-04-22T10:35:44Z</time></trkpt><trkpt lat="42.69862055742687" lon="12.240780799598964"><ele>135.0</ele><time>2026-04-22T10:35:45Z</time></trkpt><trkpt lat="42.69872049334661" lon="12.24100068510432"><ele>136.0</ele><time>2026-04-22T10:35:46Z</time></trkpt><trkpt lat="42.69880857655891" lon="12.241199435558102"><ele>137.0</ele><time>2026-04-22T10:35:47Z</time></trkpt><trkpt lat="42.698868024230194" lon="12.241384948925601"><ele>138.0</ele><time>2026-04-22T10:35:48Z</time></trkpt><trkpt lat="42.6988549379999" lon="12.241559165713824"><ele>139.0</ele><time>2026-04-22T10:35:49Z</time></trkpt><trkpt lat="42.69881682543258" lon="12.241710667203526"><ele>142.0</ele><time>2026-04-22T10:35:50.001Z</time></trkpt><trkpt lat="42.69876135857352" lon="12.241887862572039"><ele>145.0</ele><time>2026-04-22T10:35:51.001Z</time></trkpt><trkpt lat="42.69870931626763" lon="12.242097823854559"><ele>148.0</ele><time>2026-04-22T10:35:52.001Z</time></trkpt><trkpt lat="42.69863184878283" lon="12.242311241888425"><ele>147.0</ele><time>2026-04-22T10:35:53.001Z</time></trkpt><trkpt lat="42.6985600409214" lon="12.242539331178296"><ele>146.0</ele><time>2026-04-22T10:35:54.001Z</time></trkpt><trkpt lat="42.69848390587892" lon="12.242784139223726"><ele>145.0</ele><time>2026-04-22T10:35:55.001Z</time></trkpt><trkpt lat="42.69840562580662" lon="12.243036240152227"><ele>146.33333333333334</ele><time>2026-04-22T10:35:56.001Z</time></trkpt><trkpt lat="42.69832404044893" lon="12.24329039658096"><ele>147.66666666666666</ele><time>2026-04-22T10:35:57.001Z</time></trkpt><trkpt lat="42.69823943215662" lon="12.243545695018357"><ele>149.0</ele><time>2026-04-22T10:35:58.001Z</time></trkpt><trkpt lat="42.69815275258524" lon="12.243799697383222"><ele>149.33333333333331</ele><time>2026-04-22T10:35:59.001Z</time></trkpt><trkpt lat="42.69807547763934" lon="12.244056373947336"><ele>149.66666666666666</ele><time>2026-04-22T10:36:00.001Z</time></trkpt><trkpt lat="42.69800650629972" lon="12.244324494595551"><ele>150.0</ele><time>2026-04-22T10:36:01.001Z</time></trkpt><trkpt lat="42.697962725754856" lon="12.244604333204054"><ele>149.33333333333334</ele><time>2026-04-22T10:36:02.001Z</time></trkpt><trkpt lat="42.69794478617928" lon="12.244893853316992"><ele>148.66666666666669</ele><time>2026-04-22T10:36:03.001Z</time></trkpt><trkpt lat="42.69794600160812" lon="12.24517505777604"><ele>148.0</ele><time>2026-04-22T10:36:04.001Z</time></trkpt><trkpt lat="42.69797351543307" lon="12.245452515864956"><ele>147.33333333333334</ele><time>2026-04-22T10:36:05.001Z</time></trkpt><trkpt lat="42.698019946340736" lon="12.245730312542147"><ele>146.66666666666666</ele><time>2026-04-22T10:36:06.001Z</time></trkpt><trkpt lat="42.698079906181256" lon="12.24600234232779"><ele>146.0</ele><time>2026-04-22T10:36:07.001Z</time></trkpt><trkpt lat="42.69814051648339" lon="12.246275730708117"><ele>147.33333333333331</ele><time>2026-04-22T10:36:08.001Z</time></trkpt><trkpt lat="42.69820040578237" lon="12.24653935740201"><ele>148.66666666666666</ele><time>2026-04-22T10:36:09.001Z</time></trkpt><trkpt lat="42.69824854056384" lon="12.246781553206121"><ele>150.0</ele><time>2026-04-22T10:36:10.001Z</time></trkpt><trkpt lat="42.69828931509849" lon="12.246989201453275"><ele>150.0</ele><time>2026-04-22T10:36:11Z</time></trkpt><trkpt lat="42.69833089509173" lon="12.24717768823581"><ele>150.0</ele><time>2026-04-22T10:36:12Z</time></trkpt><trkpt lat="42.69838481851563" lon="12.247340130327974"><ele>150.0</ele><time>2026-04-22T10:36:13Z</time></trkpt><trkpt lat="42.69846426816716" lon="12.24746295299597"><ele>150.0</ele><time>2026-04-22T10:36:14Z</time></trkpt><trkpt lat="42.6985700247856" lon="12.247529163429776"><ele>151.5</ele><time>2026-04-22T10:36:15Z</time></trkpt><trkpt lat="42.69868786108727" lon="12.24753049648512"><ele>153.0</ele><time>2026-04-22T10:36:16Z</time></trkpt><trkpt lat="42.69880128412623" lon="12.2474838048262"><ele>154.5</ele><time>2026-04-22T10:36:17Z</time></trkpt><trkpt lat="42.698912938402756" lon="12.247399987578452"><ele>156.0</ele><time>2026-04-22T10:36:18Z</time></trkpt><trkpt lat="42.69903743590376" lon="12.247302457562109"><ele>156.5</ele><time>2026-04-22T10:36:19Z</time></trkpt><trkpt lat="42.69916297566568" lon="12.247220232233568"><ele>157.0</ele><time>2026-04-22T10:36:20Z</time></trkpt><trkpt lat="42.699274228881926" lon="12.247166977932578"><ele>157.5</ele><time>2026-04-22T10:36:21Z</time></trkpt><trkpt lat="42.6993801861386" lon="12.247152661132148"><ele>158.0</ele><time>2026-04-22T10:36:22Z</time></trkpt><trkpt lat="42.69947835309785" lon="12.247212559634546"><ele>158.20000000000002</ele><time>2026-04-22T10:36:23Z</time></trkpt><trkpt lat="42.69954377081251" lon="12.247318425689114"><ele>158.4</ele><time>2026-04-22T10:36:24Z</time></trkpt><trkpt lat="42.69957282944582" lon="12.24744272026515"><ele>158.60000000000002</ele><time>2026-04-22T10:36:25Z</time></trkpt><trkpt lat="42.6995370949344" lon="12.247590215367797"><ele>158.8</ele><time>2026-04-22T10:36:26Z</time></trkpt><trkpt lat="42.69949039062006" lon="12.247746328221847"><ele>159.0</ele><time>2026-04-22T10:36:27Z</time></trkpt><trkpt lat="42.69945366370825" lon="12.247940938294432"><ele>161.0</ele><time>2026-04-22T10:36:28Z</time></trkpt><trkpt lat="42.69938675908597" lon="12.248145840503234"><ele>163.0</ele><time>2026-04-22T10:36:29Z</time></trkpt><trkpt lat="42.6993223266118" lon="12.24836997974014"><ele>165.0</ele><time>2026-04-22T10:36:30Z</time></trkpt><trkpt lat="42.699258841034464" lon="12.248611954807371"><ele>165.0</ele><time>2026-04-22T10:36:31Z</time></trkpt><trkpt lat="42.69919990432826" lon="12.248840938076176"><ele>165.0</ele><time>2026-04-22T10:36:32Z</time></trkpt><trkpt lat="42.69913353501923" lon="12.24908540553973"><ele>165.0</ele><time>2026-04-22T10:36:33Z</time></trkpt><trkpt lat="42.699065896709065" lon="12.249332701264194"><ele>166.0</ele><time>2026-04-22T10:36:34Z</time></trkpt><trkpt lat="42.69899587845987" lon="12.24959851410939"><ele>167.0</ele><time>2026-04-22T10:36:35Z</time></trkpt><trkpt lat="42.698943796127296" lon="12.24984969524832"><ele>168.0</ele><time>2026-04-22T10:36:36Z</time></trkpt><trkpt lat="42.69891077003698" lon="12.250114249613206"><ele>168.0</ele><time>2026-04-22T10:36:37Z</time></trkpt><trkpt lat="42.69890574183956" lon="12.25038734434819"><ele>168.0</ele><time>2026-04-22T10:36:38Z</time></trkpt><trkpt lat="42.69889865657544" lon="12.250666093394566"><ele>168.0</ele><time>2026-04-22T10:36:39Z</time></trkpt><trkpt lat="42.69885566694012" lon="12.250931763785816"><ele>168.0</ele><time>2026-04-22T10:36:40Z</time></trkpt><trkpt lat="42.69880989888947" lon="12.251167065340793"><ele>168.0</ele><time>2026-04-22T10:36:41Z</time></trkpt><trkpt lat="42.69877731090439" lon="12.251383625543811"><ele>168.0</ele><time>2026-04-22T10:36:42Z</time></trkpt><trkpt lat="42.69876300370289" lon="12.251591101046658"><ele>168.66666666666666</ele><time>2026-04-22T10:36:43Z</time></trkpt><trkpt lat="42.6987864873512" lon="12.25181519488658"><ele>169.33333333333331</ele><time>2026-04-22T10:36:44Z</time></trkpt><trkpt lat="42.698851242363354" lon="12.252035313302622"><ele>170.0</ele><time>2026-04-22T10:36:45Z</time></trkpt><trkpt lat="42.69894060789399" lon="12.252241645117678"><ele>174.66666666666666</ele><time>2026-04-22T10:36:46Z</time></trkpt><trkpt lat="42.69906819663263" lon="12.252404096539975"><ele>179.33333333333334</ele><time>2026-04-22T10:36:47Z</time></trkpt><trkpt lat="42.6992279155952" lon="12.252554600274635"><ele>184.0</ele><time>2026-04-22T10:36:48Z</time></trkpt><trkpt lat="42.69939138294572" lon="12.252716040367327"><ele>186.0</ele><time>2026-04-22T10:36:49Z</time></trkpt><trkpt lat="42.6995552243931" lon="12.252880907346546"><ele>188.0</ele><time>2026-04-22T10:36:50Z</time></trkpt><trkpt lat="42.69972089369073" lon="12.253027513770919"><ele>190.0</ele><time>2026-04-22T10:36:51Z</time></trkpt><trkpt lat="42.69988099161925" lon="12.253134948790462"><ele>190.0</ele><time>2026-04-22T10:36:52Z</time></trkpt><trkpt lat="42.700041792252456" lon="12.253218688977027"><ele>190.0</ele><time>2026-04-22T10:36:53Z</time></trkpt><trkpt lat="42.70018607760135" lon="12.25330161059603"><ele>190.0</ele><time>2026-04-22T10:36:54Z</time></trkpt><trkpt lat="42.70031020145772" lon="12.253431424112131"><ele>186.33333333333334</ele><time>2026-04-22T10:36:55Z</time></trkpt><trkpt lat="42.7004241094351" lon="12.25361845493348"><ele>182.66666666666666</ele><time>2026-04-22T10:36:56Z</time></trkpt><trkpt lat="42.70053071079106" lon="12.253824256002192"><ele>179.0</ele><time>2026-04-22T10:36:57Z</time></trkpt><trkpt lat="42.700595781425285" lon="12.254056256883198"><ele>179.0</ele><time>2026-04-22T10:36:58Z</time></trkpt><trkpt lat="42.700639129163434" lon="12.254304647211434"><ele>179.0</ele><time>2026-04-22T10:36:59Z</time></trkpt><trkpt lat="42.70069669768286" lon="12.254565641076672"><ele>179.0</ele><time>2026-04-22T10:37:00Z</time></trkpt><trkpt lat="42.70073805298459" lon="12.254824695268896"><ele>181.66666666666666</ele><time>2026-04-22T10:37:01Z</time></trkpt><trkpt lat="42.70078346297782" lon="12.255055049212453"><ele>184.33333333333334</ele><time>2026-04-22T10:37:02Z</time></trkpt><trkpt lat="42.70084600327138" lon="12.255246588516904"><ele>187.0</ele><time>2026-04-22T10:37:03Z</time></trkpt><trkpt lat="42.70094437324704" lon="12.255397361803979"><ele>187.0</ele><time>2026-04-22T10:37:04Z</time></trkpt><trkpt lat="42.701069086981356" lon="12.255491743906001"><ele>187.0</ele><time>2026-04-22T10:37:05Z</time></trkpt><trkpt lat="42.70121985109994" lon="12.255545274063556"><ele>187.0</ele><time>2026-04-22T10:37:06Z</time></trkpt><trkpt lat="42.70138266867827" lon="12.25559047538192"><ele>186.5</ele><time>2026-04-22T10:37:07Z</time></trkpt><trkpt lat="42.70151975511392" lon="12.25566389947851"><ele>186.0</ele><time>2026-04-22T10:37:08Z</time></trkpt><trkpt lat="42.70163064648493" lon="12.255799034616727"><ele>185.5</ele><time>2026-04-22T10:37:09Z</time></trkpt><trkpt lat="42.701684310284804" lon="12.255989771257667"><ele>185.0</ele><time>2026-04-22T10:37:10Z</time></trkpt><trkpt lat="42.7017449871575" lon="12.256175089778901"><ele>185.0</ele><time>2026-04-22T10:37:11Z</time></trkpt><trkpt lat="42.70180797668261" lon="12.256369407897116"><ele>185.0</ele><time>2026-04-22T10:37:12Z</time></trkpt><trkpt lat="42.701912654596285" lon="12.25654683063443"><ele>185.0</ele><time>2026-04-22T10:37:13Z</time></trkpt><trkpt lat="42.70206485236217" lon="12.256690019086461"><ele>180.0</ele><time>2026-04-22T10:37:14Z</time></trkpt><trkpt lat="42.702246951713086" lon="12.256781537173664"><ele>175.0</ele><time>2026-04-22T10:37:15Z</time></trkpt><trkpt lat="42.70243236000466" lon="12.256873848641431"><ele>170.0</ele><time>2026-04-22T10:37:16Z</time></trkpt><trkpt lat="42.70262054786706" lon="12.25699416252545"><ele>170.33333333333331</ele><time>2026-04-22T10:37:17Z</time></trkpt><trkpt lat="42.70281289538495" lon="12.257130244636368"><ele>170.66666666666666</ele><time>2026-04-22T10:37:18Z</time></trkpt><trkpt lat="42.703008986823185" lon="12.257265974931817"><ele>171.0</ele><time>2026-04-22T10:37:19Z</time></trkpt><trkpt lat="42.70321248442684" lon="12.257394978557713"><ele>171.0</ele><time>2026-04-22T10:37:20Z</time></trkpt><trkpt lat="42.703420587626674" lon="12.257505665000176"><ele>171.0</ele><time>2026-04-22T10:37:21Z</time></trkpt><trkpt lat="42.70382639190397" lon="12.257714167846935"><ele>167.0</ele><time>2026-04-22T10:37:23Z</time></trkpt><trkpt lat="42.70401305018539" lon="12.257810851033293"><ele>163.0</ele><time>2026-04-22T10:37:24Z</time></trkpt><trkpt lat="42.70419639368331" lon="12.257879245471992"><ele>159.0</ele><time>2026-04-22T10:37:25Z</time></trkpt><trkpt lat="42.704382283019044" lon="12.257917099253989"><ele>156.0</ele><time>2026-04-22T10:37:26Z</time></trkpt><trkpt lat="42.704552670290774" lon="12.257937096248291"><ele>153.0</ele><time>2026-04-22T10:37:27Z</time></trkpt><trkpt lat="42.70470697366174" lon="12.257989265771785"><ele>150.0</ele><time>2026-04-22T10:37:28Z</time></trkpt><trkpt lat="42.70483256349195" lon="12.25810077642622"><ele>152.25</ele><time>2026-04-22T10:37:29Z</time></trkpt><trkpt lat="42.70496510767008" lon="12.258180783717867"><ele>154.5</ele><time>2026-04-22T10:37:30Z</time></trkpt><trkpt lat="42.70508932961226" lon="12.258285894692582"><ele>156.75</ele><time>2026-04-22T10:37:31Z</time></trkpt><trkpt lat="42.705217014264164" lon="12.25838902980001"><ele>159.0</ele><time>2026-04-22T10:37:32Z</time></trkpt><trkpt lat="42.70535070698273" lon="12.258482853176181"><ele>159.0</ele><time>2026-04-22T10:37:33Z</time></trkpt><trkpt lat="42.70549057049472" lon="12.25856367463894"><ele>159.0</ele><time>2026-04-22T10:37:34Z</time></trkpt><trkpt lat="42.705633702013664" lon="12.258630260750419"><ele>159.0</ele><time>2026-04-22T10:37:35Z</time></trkpt><trkpt lat="42.70578883281963" lon="12.258694627802777"><ele>159.0</ele><time>2026-04-22T10:37:36Z</time></trkpt><trkpt lat="42.7059547096502" lon="12.258759726595757"><ele>159.0</ele><time>2026-04-22T10:37:37Z</time></trkpt><trkpt lat="42.70612699206266" lon="12.258831660806115"><ele>159.0</ele><time>2026-04-22T10:37:38Z</time></trkpt><trkpt lat="42.706300360508095" lon="12.258901837100854"><ele>163.66666666666666</ele><time>2026-04-22T10:37:39Z</time></trkpt><trkpt lat="42.70648188481572" lon="12.258972949186829"><ele>168.33333333333331</ele><time>2026-04-22T10:37:40Z</time></trkpt><trkpt lat="42.706661276647615" lon="12.259043627194524"><ele>173.0</ele><time>2026-04-22T10:37:41Z</time></trkpt><trkpt lat="42.70684724137339" lon="12.259116137230043"><ele>169.66666666666666</ele><time>2026-04-22T10:37:42Z</time></trkpt><trkpt lat="42.70703776486038" lon="12.259190425467331"><ele>166.33333333333334</ele><time>2026-04-22T10:37:43Z</time></trkpt><trkpt lat="42.70722313735905" lon="12.259258345041003"><ele>163.0</ele><time>2026-04-22T10:37:44Z</time></trkpt><trkpt lat="42.707403889083565" lon="12.2593281921059"><ele>163.0</ele><time>2026-04-22T10:37:45Z</time></trkpt><trkpt lat="42.707581813581335" lon="12.259390890252051"><ele>163.0</ele><time>2026-04-22T10:37:46Z</time></trkpt><trkpt lat="42.70774880568284" lon="12.259455363487785"><ele>163.0</ele><time>2026-04-22T10:37:47Z</time></trkpt><trkpt lat="42.7079046300094" lon="12.25951846443559"><ele>163.5</ele><time>2026-04-22T10:37:48Z</time></trkpt><trkpt lat="42.708041283703494" lon="12.25957386167734"><ele>164.0</ele><time>2026-04-22T10:37:49Z</time></trkpt><trkpt lat="42.708162038940806" lon="12.259629790460503"><ele>164.5</ele><time>2026-04-22T10:37:50Z</time></trkpt><trkpt lat="42.70826825807054" lon="12.2597053734112"><ele>165.0</ele><time>2026-04-22T10:37:51Z</time></trkpt><trkpt lat="42.70836344112091" lon="12.259815782694142"><ele>165.0</ele><time>2026-04-22T10:37:52Z</time></trkpt><trkpt lat="42.70844707842303" lon="12.259965295208442"><ele>165.0</ele><time>2026-04-22T10:37:53Z</time></trkpt><trkpt lat="42.70848483620893" lon="12.260151010955868"><ele>165.0</ele><time>2026-04-22T10:37:54Z</time></trkpt><trkpt lat="42.70850320411138" lon="12.260343430722859"><ele>165.0</ele><time>2026-04-22T10:37:55Z</time></trkpt><trkpt lat="42.70848264879768" lon="12.26053792199333"><ele>164.33333333333334</ele><time>2026-04-22T10:37:56.001Z</time></trkpt><trkpt lat="42.708422798455054" lon="12.260729176392065"><ele>163.66666666666669</ele><time>2026-04-22T10:37:57.001Z</time></trkpt><trkpt lat="42.70834264430146" lon="12.260917007301453"><ele>163.0</ele><time>2026-04-22T10:37:58.001Z</time></trkpt><trkpt lat="42.70825663097531" lon="12.261123293588144"><ele>163.0</ele><time>2026-04-22T10:37:59.001Z</time></trkpt><trkpt lat="42.708164104857914" lon="12.261335768034751"><ele>163.0</ele><time>2026-04-22T10:38:00.001Z</time></trkpt><trkpt lat="42.70806426229813" lon="12.26156941929294"><ele>163.0</ele><time>2026-04-22T10:38:01.001Z</time></trkpt><trkpt lat="42.70796703307611" lon="12.261791376875001"><ele>162.33333333333334</ele><time>2026-04-22T10:38:02.001Z</time></trkpt><trkpt lat="42.70787143421165" lon="12.261993480783758"><ele>161.66666666666666</ele><time>2026-04-22T10:38:03.001Z</time></trkpt><trkpt lat="42.707788230840954" lon="12.26218758316035"><ele>161.0</ele><time>2026-04-22T10:38:04.001Z</time></trkpt><trkpt lat="42.70770959545503" lon="12.262373126382409"><ele>161.0</ele><time>2026-04-22T10:38:05.001Z</time></trkpt><trkpt lat="42.70763644239298" lon="12.262553501116058"><ele>161.0</ele><time>2026-04-22T10:38:06.001Z</time></trkpt><trkpt lat="42.70758137228834" lon="12.26273265029032"><ele>161.0</ele><time>2026-04-22T10:38:07Z</time></trkpt><trkpt lat="42.70757356321171" lon="12.262909836582702"><ele>161.0</ele><time>2026-04-22T10:38:08Z</time></trkpt><trkpt lat="42.70761489506277" lon="12.263078222249044"><ele>159.25</ele><time>2026-04-22T10:38:09Z</time></trkpt><trkpt lat="42.70769807051302" lon="12.263212857551956"><ele>157.5</ele><time>2026-04-22T10:38:10Z</time></trkpt><trkpt lat="42.70781470462259" lon="12.263315467826247"><ele>155.75</ele><time>2026-04-22T10:38:11Z</time></trkpt><trkpt lat="42.70795341049074" lon="12.263378821961217"><ele>154.0</ele><time>2026-04-22T10:38:12Z</time></trkpt><trkpt lat="42.70812196947161" lon="12.263411396408188"><ele>152.66666666666669</ele><time>2026-04-22T10:38:13Z</time></trkpt><trkpt lat="42.70830059628878" lon="12.263450844298905"><ele>151.33333333333334</ele><time>2026-04-22T10:38:14Z</time></trkpt><trkpt lat="42.708484351744545" lon="12.263495682175199"><ele>150.0</ele><time>2026-04-22T10:38:15Z</time></trkpt><trkpt lat="42.70867271735318" lon="12.26355065868337"><ele>148.66666666666666</ele><time>2026-04-22T10:38:16Z</time></trkpt><trkpt lat="42.70886788459073" lon="12.263605264991233"><ele>147.33333333333331</ele><time>2026-04-22T10:38:17Z</time></trkpt><trkpt lat="42.70906639516409" lon="12.263662631789568"><ele>146.0</ele><time>2026-04-22T10:38:17.999Z</time></trkpt><trkpt lat="42.709263397956626" lon="12.263714442275424"><ele>145.33333333333331</ele><time>2026-04-22T10:38:18.999Z</time></trkpt><trkpt lat="42.709460208438394" lon="12.263773323334895"><ele>144.66666666666666</ele><time>2026-04-22T10:38:19.999Z</time></trkpt><trkpt lat="42.70966085146416" lon="12.263826308607188"><ele>144.0</ele><time>2026-04-22T10:38:20.999Z</time></trkpt><trkpt lat="42.70986204246142" lon="12.263878883004177"><ele>144.0</ele><time>2026-04-22T10:38:21.999Z</time></trkpt><trkpt lat="42.71006423079679" lon="12.263934031484025"><ele>144.0</ele><time>2026-04-22T10:38:22.999Z</time></trkpt><trkpt lat="42.71026453094554" lon="12.263990941519902"><ele>144.0</ele><time>2026-04-22T10:38:23.999Z</time></trkpt><trkpt lat="42.71046462011538" lon="12.264049870629218"><ele>147.0</ele><time>2026-04-22T10:38:24.999Z</time></trkpt><trkpt lat="42.71065960547018" lon="12.264110917015914"><ele>150.0</ele><time>2026-04-22T10:38:25.999Z</time></trkpt><trkpt lat="42.710838296599704" lon="12.26416665356965"><ele>153.0</ele><time>2026-04-22T10:38:26.999Z</time></trkpt><trkpt lat="42.71100885612002" lon="12.264214338857665"><ele>151.33333333333334</ele><time>2026-04-22T10:38:27.999Z</time></trkpt><trkpt lat="42.71117723762437" lon="12.264264930757816"><ele>149.66666666666669</ele><time>2026-04-22T10:38:28.999Z</time></trkpt><trkpt lat="42.71134412656769" lon="12.264322156664269"><ele>148.0</ele><time>2026-04-22T10:38:29.999Z</time></trkpt><trkpt lat="42.711511462560786" lon="12.264402029175404"><ele>148.0</ele><time>2026-04-22T10:38:30.999Z</time></trkpt><trkpt lat="42.71167955449198" lon="12.26448244830628"><ele>148.0</ele><time>2026-04-22T10:38:31.999Z</time></trkpt><trkpt lat="42.71184156051721" lon="12.264558394497609"><ele>148.0</ele><time>2026-04-22T10:38:32.999Z</time></trkpt><trkpt lat="42.712008305738934" lon="12.264641972235976"><ele>148.0</ele><time>2026-04-22T10:38:33.999Z</time></trkpt><trkpt lat="42.71217608088591" lon="12.26472489347165"><ele>148.0</ele><time>2026-04-22T10:38:34.999Z</time></trkpt><trkpt lat="42.71234132557185" lon="12.264806096095379"><ele>148.0</ele><time>2026-04-22T10:38:35.999Z</time></trkpt><trkpt lat="42.71251241075706" lon="12.264892049902866"><ele>148.0</ele><time>2026-04-22T10:38:36.999Z</time></trkpt><trkpt lat="42.712674746188625" lon="12.26497928464464"><ele>148.0</ele><time>2026-04-22T10:38:37.999Z</time></trkpt><trkpt lat="42.71284670960091" lon="12.265065092924406"><ele>148.0</ele><time>2026-04-22T10:38:38.999Z</time></trkpt><trkpt lat="42.71301485346302" lon="12.265148469139216"><ele>147.66666666666669</ele><time>2026-04-22T10:38:39.999Z</time></trkpt><trkpt lat="42.713185196866995" lon="12.265237609229636"><ele>147.33333333333334</ele><time>2026-04-22T10:38:40.999Z</time></trkpt><trkpt lat="42.713356279616384" lon="12.265326388569918"><ele>147.0</ele><time>2026-04-22T10:38:41.999Z</time></trkpt><trkpt lat="42.71352433131006" lon="12.265412418879587"><ele>148.0</ele><time>2026-04-22T10:38:42.999Z</time></trkpt><trkpt lat="42.71369477199131" lon="12.265499919360854"><ele>149.0</ele><time>2026-04-22T10:38:43.999Z</time></trkpt><trkpt lat="42.71386808043333" lon="12.265587208932432"><ele>150.0</ele><time>2026-04-22T10:38:44.999Z</time></trkpt><trkpt lat="42.71403639142955" lon="12.26566831261679"><ele>150.0</ele><time>2026-04-22T10:38:45.999Z</time></trkpt><trkpt lat="42.71420414074624" lon="12.265754528739897"><ele>150.0</ele><time>2026-04-22T10:38:46.999Z</time></trkpt><trkpt lat="42.71436549606739" lon="12.2658421127603"><ele>150.0</ele><time>2026-04-22T10:38:47.999Z</time></trkpt><trkpt lat="42.714516277217214" lon="12.265905174026207"><ele>150.0</ele><time>2026-04-22T10:38:48.999Z</time></trkpt><trkpt lat="42.71466546994634" lon="12.26594745452745"><ele>150.0</ele><time>2026-04-22T10:38:49.999Z</time></trkpt><trkpt lat="42.714801313968685" lon="12.265962149061473"><ele>150.0</ele><time>2026-04-22T10:38:50.999Z</time></trkpt><trkpt lat="42.71497297058729" lon="12.26591144709861"><ele>150.0</ele><time>2026-04-22T10:38:51.999Z</time></trkpt><trkpt lat="42.71514199301226" lon="12.265793674746991"><ele>150.0</ele><time>2026-04-22T10:38:52.999Z</time></trkpt><trkpt lat="42.71532733845892" lon="12.265647730651084"><ele>150.0</ele><time>2026-04-22T10:38:53.999Z</time></trkpt><trkpt lat="42.71552086064932" lon="12.265493250956075"><ele>148.5</ele><time>2026-04-22T10:38:54.999Z</time></trkpt><trkpt lat="42.715714333788505" lon="12.265349968898743"><ele>147.0</ele><time>2026-04-22T10:38:55.999Z</time></trkpt><trkpt lat="42.71591832226373" lon="12.265199974993159"><ele>149.5</ele><time>2026-04-22T10:38:56.999Z</time></trkpt><trkpt lat="42.7161294042502" lon="12.265052854913554"><ele>152.0</ele><time>2026-04-22T10:38:57.999Z</time></trkpt><trkpt lat="42.716332931291014" lon="12.264914688710235"><ele>150.0</ele><time>2026-04-22T10:38:58.999Z</time></trkpt><trkpt lat="42.716537357858314" lon="12.264772040510087"><ele>148.0</ele><time>2026-04-22T10:38:59.999Z</time></trkpt><trkpt lat="42.71674636259492" lon="12.26463468014991"><ele>149.5</ele><time>2026-04-22T10:39:00.999Z</time></trkpt><trkpt lat="42.716957530423564" lon="12.264498311210792"><ele>151.0</ele><time>2026-04-22T10:39:01.999Z</time></trkpt><trkpt lat="42.71716901764102" lon="12.264357438839868"><ele>151.0</ele><time>2026-04-22T10:39:02.999Z</time></trkpt><trkpt lat="42.71737782214355" lon="12.264213602204075"><ele>151.0</ele><time>2026-04-22T10:39:03.999Z</time></trkpt><trkpt lat="42.71758825186655" lon="12.264064852438255"><ele>151.0</ele><time>2026-04-22T10:39:04.999Z</time></trkpt><trkpt lat="42.71780040403365" lon="12.263916828418084"><ele>151.0</ele><time>2026-04-22T10:39:05.999Z</time></trkpt><trkpt lat="42.71801516392831" lon="12.263775927636539"><ele>151.0</ele><time>2026-04-22T10:39:06.999Z</time></trkpt><trkpt lat="42.718230419186604" lon="12.263638103878408"><ele>151.0</ele><time>2026-04-22T10:39:07.999Z</time></trkpt><trkpt lat="42.718441715373594" lon="12.263496459695872"><ele>156.0</ele><time>2026-04-22T10:39:08.999Z</time></trkpt><trkpt lat="42.718650755541816" lon="12.263351379135795"><ele>161.0</ele><time>2026-04-22T10:39:09.999Z</time></trkpt><trkpt lat="42.71885522607894" lon="12.26321181763115"><ele>160.66666666666666</ele><time>2026-04-22T10:39:10.999Z</time></trkpt><trkpt lat="42.71905755366417" lon="12.263075081773433"><ele>160.33333333333334</ele><time>2026-04-22T10:39:11.999Z</time></trkpt><trkpt lat="42.71925368399489" lon="12.262942953233297"><ele>160.0</ele><time>2026-04-22T10:39:12.999Z</time></trkpt><trkpt lat="42.71958441274825" lon="12.2627166200314"><ele>160.0</ele><time>2026-04-22T10:39:14.999Z</time></trkpt><trkpt lat="42.71974076309407" lon="12.262614111239674"><ele>160.0</ele><time>2026-04-22T10:39:15.999Z</time></trkpt><trkpt lat="42.71989247072722" lon="12.262513602374584"><ele>160.0</ele><time>2026-04-22T10:39:16.999Z</time></trkpt><trkpt lat="42.720034397085655" lon="12.262420144523887"><ele>160.0</ele><time>2026-04-22T10:39:17.999Z</time></trkpt><trkpt lat="42.72017324780924" lon="12.262323426763016"><ele>160.0</ele><time>2026-04-22T10:39:18.999Z</time></trkpt><trkpt lat="42.720316634799545" lon="12.262238203113617"><ele>160.0</ele><time>2026-04-22T10:39:19.999Z</time></trkpt><trkpt lat="42.720463999707775" lon="12.262148594492658"><ele>159.66666666666669</ele><time>2026-04-22T10:39:20.999Z</time></trkpt><trkpt lat="42.72061396722541" lon="12.262084892460338"><ele>159.33333333333334</ele><time>2026-04-22T10:39:21.999Z</time></trkpt><trkpt lat="42.72077829108908" lon="12.262049741573968"><ele>159.0</ele><time>2026-04-22T10:39:22.999Z</time></trkpt><trkpt lat="42.72094888546957" lon="12.26203249302626"><ele>160.33333333333334</ele><time>2026-04-22T10:39:23.999Z</time></trkpt><trkpt lat="42.721129450673175" lon="12.262026057519854"><ele>161.66666666666669</ele><time>2026-04-22T10:39:24.999Z</time></trkpt><trkpt lat="42.72131076139087" lon="12.262011900341339"><ele>163.0</ele><time>2026-04-22T10:39:25.999Z</time></trkpt><trkpt lat="42.721501233457815" lon="12.261997321091757"><ele>163.0</ele><time>2026-04-22T10:39:26.999Z</time></trkpt><trkpt lat="42.72169593383764" lon="12.261982009130874"><ele>163.0</ele><time>2026-04-22T10:39:27.999Z</time></trkpt><trkpt lat="42.721890674685575" lon="12.261961787731448"><ele>163.0</ele><time>2026-04-22T10:39:28.999Z</time></trkpt><trkpt lat="42.72209217347599" lon="12.261942742999032"><ele>165.0</ele><time>2026-04-22T10:39:29.999Z</time></trkpt><trkpt lat="42.72249691823651" lon="12.26190707726689"><ele>167.0</ele><time>2026-04-22T10:39:31.999Z</time></trkpt><trkpt lat="42.7227018176507" lon="12.261893022580372"><ele>167.33333333333331</ele><time>2026-04-22T10:39:32.999Z</time></trkpt><trkpt lat="42.72290175149739" lon="12.261872666223198"><ele>167.66666666666666</ele><time>2026-04-22T10:39:33.999Z</time></trkpt><trkpt lat="42.72309204539792" lon="12.261857863505771"><ele>168.0</ele><time>2026-04-22T10:39:34.999Z</time></trkpt><trkpt lat="42.72327135174812" lon="12.261854802159288"><ele>168.0</ele><time>2026-04-22T10:39:35.999Z</time></trkpt><trkpt lat="42.72343359133817" lon="12.261836389015677"><ele>168.0</ele><time>2026-04-22T10:39:36.999Z</time></trkpt><trkpt lat="42.723583602888304" lon="12.261833461282338"><ele>168.0</ele><time>2026-04-22T10:39:37.999Z</time></trkpt><trkpt lat="42.72372297846932" lon="12.261836738600667"><ele>168.25</ele><time>2026-04-22T10:39:38.999Z</time></trkpt><trkpt lat="42.72385340667145" lon="12.261867964890348"><ele>168.5</ele><time>2026-04-22T10:39:39.999Z</time></trkpt><trkpt lat="42.72397270874975" lon="12.261918023859659"><ele>168.75</ele><time>2026-04-22T10:39:40.999Z</time></trkpt><trkpt lat="42.72408808363483" lon="12.261990029712187"><ele>169.0</ele><time>2026-04-22T10:39:41.999Z</time></trkpt><trkpt lat="42.7241946797836" lon="12.262082171587123"><ele>169.0</ele><time>2026-04-22T10:39:42.999Z</time></trkpt><trkpt lat="42.724293823575735" lon="12.26219222786589"><ele>169.0</ele><time>2026-04-22T10:39:43.999Z</time></trkpt><trkpt lat="42.72438795348351" lon="12.262320726169657"><ele>169.0</ele><time>2026-04-22T10:39:44.999Z</time></trkpt><trkpt lat="42.72447577389229" lon="12.262464235834011"><ele>169.0</ele><time>2026-04-22T10:39:45.999Z</time></trkpt><trkpt lat="42.724564093243764" lon="12.262631712045911"><ele>168.33333333333334</ele><time>2026-04-22T10:39:46.999Z</time></trkpt><trkpt lat="42.72465165536094" lon="12.262799862882424"><ele>167.66666666666666</ele><time>2026-04-22T10:39:47.999Z</time></trkpt><trkpt lat="42.724742237023804" lon="12.26296963749629"><ele>167.0</ele><time>2026-04-22T10:39:48.999Z</time></trkpt><trkpt lat="42.72483776019379" lon="12.263136949213365"><ele>170.0</ele><time>2026-04-22T10:39:49.999Z</time></trkpt><trkpt lat="42.724930854180364" lon="12.263297576286273"><ele>173.0</ele><time>2026-04-22T10:39:50.999Z</time></trkpt><trkpt lat="42.72501556975119" lon="12.263447096262627"><ele>176.0</ele><time>2026-04-22T10:39:51.999Z</time></trkpt><trkpt lat="42.72509214500389" lon="12.263593774050609"><ele>179.0</ele><time>2026-04-22T10:39:52.999Z</time></trkpt><trkpt lat="42.72517312877483" lon="12.263749276113918"><ele>176.66666666666666</ele><time>2026-04-22T10:39:53.999Z</time></trkpt><trkpt lat="42.72526388148551" lon="12.263915202031288"><ele>174.33333333333334</ele><time>2026-04-22T10:39:54.999Z</time></trkpt><trkpt lat="42.725359187002816" lon="12.264087938921472"><ele>172.0</ele><time>2026-04-22T10:39:55.999Z</time></trkpt><trkpt lat="42.725455530927" lon="12.264258153944143"><ele>172.0</ele><time>2026-04-22T10:39:56.999Z</time></trkpt><trkpt lat="42.7255565255097" lon="12.26443482872119"><ele>172.0</ele><time>2026-04-22T10:39:57.999Z</time></trkpt><trkpt lat="42.72565266519632" lon="12.264606421536142"><ele>172.0</ele><time>2026-04-22T10:39:58.999Z</time></trkpt><trkpt lat="42.725824313675886" lon="12.264911877117893"><ele>170.6</ele><time>2026-04-22T10:40:00.999Z</time></trkpt><trkpt lat="42.72589760419152" lon="12.26504527325489"><ele>169.2</ele><time>2026-04-22T10:40:02Z</time></trkpt><trkpt lat="42.725959413014905" lon="12.265170934821976"><ele>167.8</ele><time>2026-04-22T10:40:03Z</time></trkpt><trkpt lat="42.72600760818441" lon="12.265267449790635"><ele>166.4</ele><time>2026-04-22T10:40:04Z</time></trkpt><trkpt lat="42.72607115427397" lon="12.265328702709002"><ele>165.0</ele><time>2026-04-22T10:40:06Z</time></trkpt><trkpt lat="42.72604764431467" lon="12.265209959085597"><ele>166.75</ele><time>2026-04-22T10:40:09Z</time></trkpt><trkpt lat="42.725987376125595" lon="12.265106649456348"><ele>168.5</ele><time>2026-04-22T10:40:10Z</time></trkpt><trkpt lat="42.72587018367455" lon="12.264943258844339"><ele>170.25</ele><time>2026-04-22T10:40:11Z</time></trkpt><trkpt lat="42.725758096374065" lon="12.26479326668944"><ele>172.0</ele><time>2026-04-22T10:40:12Z</time></trkpt><trkpt lat="42.725647980926645" lon="12.264602157159919"><ele>172.0</ele><time>2026-04-22T10:40:13Z</time></trkpt><trkpt lat="42.7255250289889" lon="12.264409108520761"><ele>172.0</ele><time>2026-04-22T10:40:14Z</time></trkpt><trkpt lat="42.725429123986885" lon="12.26418749072167"><ele>172.0</ele><time>2026-04-22T10:40:15Z</time></trkpt><trkpt lat="42.725339420973505" lon="12.263956008185382"><ele>174.33333333333334</ele><time>2026-04-22T10:40:16Z</time></trkpt><trkpt lat="42.725220988474234" lon="12.263717476542864"><ele>176.66666666666666</ele><time>2026-04-22T10:40:17Z</time></trkpt><trkpt lat="42.72507213630253" lon="12.263494624652257"><ele>179.0</ele><time>2026-04-22T10:40:18Z</time></trkpt><trkpt lat="42.72493379312586" lon="12.26327867077243"><ele>175.0</ele><time>2026-04-22T10:40:19Z</time></trkpt><trkpt lat="42.72481126292974" lon="12.263060067071114"><ele>171.0</ele><time>2026-04-22T10:40:20Z</time></trkpt><trkpt lat="42.72469893547078" lon="12.262847148248072"><ele>167.0</ele><time>2026-04-22T10:40:21Z</time></trkpt><trkpt lat="42.72459291275403" lon="12.262637392211335"><ele>167.0</ele><time>2026-04-22T10:40:22Z</time></trkpt><trkpt lat="42.72448293167274" lon="12.262444837930436"><ele>167.0</ele><time>2026-04-22T10:40:23Z</time></trkpt><trkpt lat="42.72437313078419" lon="12.262266978407778"><ele>167.0</ele><time>2026-04-22T10:40:24Z</time></trkpt><trkpt lat="42.72425943396867" lon="12.262101742725909"><ele>167.66666666666666</ele><time>2026-04-22T10:40:25Z</time></trkpt><trkpt lat="42.72412437958463" lon="12.261974805747533"><ele>168.33333333333334</ele><time>2026-04-22T10:40:26Z</time></trkpt><trkpt lat="42.723968273918885" lon="12.261873243285581"><ele>169.0</ele><time>2026-04-22T10:40:27Z</time></trkpt><trkpt lat="42.72379647918306" lon="12.261808362653634"><ele>169.0</ele><time>2026-04-22T10:40:28Z</time></trkpt><trkpt lat="42.723617124674114" lon="12.261789448297383"><ele>169.0</ele><time>2026-04-22T10:40:29Z</time></trkpt><trkpt lat="42.72343553291455" lon="12.261796825017923"><ele>169.0</ele><time>2026-04-22T10:40:30Z</time></trkpt><trkpt lat="42.72326306051278" lon="12.26182043325897"><ele>168.75</ele><time>2026-04-22T10:40:31Z</time></trkpt><trkpt lat="42.72311203611554" lon="12.261817873078465"><ele>168.5</ele><time>2026-04-22T10:40:32Z</time></trkpt><trkpt lat="42.72298821102243" lon="12.261828613980692"><ele>168.25</ele><time>2026-04-22T10:40:33Z</time></trkpt><trkpt lat="42.722896882000626" lon="12.261836536147662"><ele>168.0</ele><time>2026-04-22T10:40:34Z</time></trkpt><trkpt lat="42.72281351043139" lon="12.261865837356607"><ele>168.0</ele><time>2026-04-22T10:40:35Z</time></trkpt><trkpt lat="42.722743394889505" lon="12.261872574242046"><ele>168.0</ele><time>2026-04-22T10:40:36Z</time></trkpt><trkpt lat="42.722667088095264" lon="12.261857608058483"><ele>168.0</ele><time>2026-04-22T10:40:38Z</time></trkpt><trkpt lat="42.722715697862256" lon="12.262048300250274"><ele>168.0</ele><time>2026-04-22T10:40:41Z</time></trkpt><trkpt lat="42.722832921489065" lon="12.262154230525224"><ele>168.0</ele><time>2026-04-22T10:40:43Z</time></trkpt><trkpt lat="42.72290120941189" lon="12.262216210081283"><ele>168.0</ele><time>2026-04-22T10:40:44Z</time></trkpt><trkpt lat="42.72296981101825" lon="12.262269699769531"><ele>168.0</ele><time>2026-04-22T10:40:45Z</time></trkpt><trkpt lat="42.723042762650465" lon="12.262295463763259"><ele>168.0</ele><time>2026-04-22T10:40:46Z</time></trkpt><trkpt lat="42.723140148500164" lon="12.262317761620112"><ele>168.0</ele><time>2026-04-22T10:40:47Z</time></trkpt><trkpt lat="42.723271894713875" lon="12.262354976003289"><ele>168.0</ele><time>2026-04-22T10:40:48Z</time></trkpt><trkpt lat="42.723399407678" lon="12.262392940253703"><ele>171.0</ele><time>2026-04-22T10:40:49Z</time></trkpt><trkpt lat="42.723516847109856" lon="12.262419979050932"><ele>174.0</ele><time>2026-04-22T10:40:50Z</time></trkpt><trkpt lat="42.72363493968064" lon="12.262458818082319"><ele>177.0</ele><time>2026-04-22T10:40:51Z</time></trkpt><trkpt lat="42.72375165737785" lon="12.262506568333345"><ele>180.0</ele><time>2026-04-22T10:40:52Z</time></trkpt><trkpt lat="42.72386156706692" lon="12.262546854844"><ele>180.4</ele><time>2026-04-22T10:40:53Z</time></trkpt><trkpt lat="42.72396512698111" lon="12.26258837212512"><ele>180.8</ele><time>2026-04-22T10:40:54Z</time></trkpt><trkpt lat="42.72406763572278" lon="12.262644927027015"><ele>181.2</ele><time>2026-04-22T10:40:55Z</time></trkpt><trkpt lat="42.724146986847025" lon="12.262736428676744"><ele>181.6</ele><time>2026-04-22T10:40:56Z</time></trkpt><trkpt lat="42.724227678425294" lon="12.262814530263833"><ele>182.0</ele><time>2026-04-22T10:40:57Z</time></trkpt><trkpt lat="42.72428814737506" lon="12.262933895155191"><ele>182.0</ele><time>2026-04-22T10:40:58Z</time></trkpt><trkpt lat="42.72434452802908" lon="12.263067463756366"><ele>182.0</ele><time>2026-04-22T10:40:59Z</time></trkpt><trkpt lat="42.724405930483584" lon="12.26320148291869"><ele>182.0</ele><time>2026-04-22T10:41:00Z</time></trkpt><trkpt lat="42.724456148881835" lon="12.263326553522711"><ele>182.0</ele><time>2026-04-22T10:41:01Z</time></trkpt><trkpt lat="42.72448969718882" lon="12.263463529448112"><ele>182.0</ele><time>2026-04-22T10:41:02Z</time></trkpt><trkpt lat="42.724515120935614" lon="12.263611430581593"><ele>181.39999999999998</ele><time>2026-04-22T10:41:03Z</time></trkpt><trkpt lat="42.724527319928605" lon="12.263753378700521"><ele>180.79999999999998</ele><time>2026-04-22T10:41:04Z</time></trkpt><trkpt lat="42.72453836753982" lon="12.263857492916948"><ele>180.2</ele><time>2026-04-22T10:41:05Z</time></trkpt><trkpt lat="42.72452743726478" lon="12.263974088253208"><ele>179.6</ele><time>2026-04-22T10:41:07Z</time></trkpt><trkpt lat="42.724444446257884" lon="12.263911842071218"><ele>179.0</ele><time>2026-04-22T10:41:10Z</time></trkpt><trkpt lat="42.724377308705606" lon="12.263738774475229"><ele>182.0</ele><time>2026-04-22T10:41:12Z</time></trkpt><trkpt lat="42.724315798508904" lon="12.263664720336326"><ele>185.0</ele><time>2026-04-22T10:41:13Z</time></trkpt><trkpt lat="42.724255467942726" lon="12.26360824163881"><ele>188.0</ele><time>2026-04-22T10:41:14Z</time></trkpt><trkpt lat="42.72416716532296" lon="12.26360205931319"><ele>191.0</ele><time>2026-04-22T10:41:15Z</time></trkpt><trkpt lat="42.724073596436185" lon="12.263621143201858"><ele>194.00000000000003</ele><time>2026-04-22T10:41:16Z</time></trkpt><trkpt lat="42.72397298730384" lon="12.263629200315782"><ele>197.0</ele><time>2026-04-22T10:41:17Z</time></trkpt><trkpt lat="42.723856691246574" lon="12.263652952313441"><ele>197.0</ele><time>2026-04-22T10:41:18Z</time></trkpt><trkpt lat="42.72373524650694" lon="12.263664782677242"><ele>197.0</ele><time>2026-04-22T10:41:19Z</time></trkpt><trkpt lat="42.72362014793989" lon="12.263698029233854"><ele>197.0</ele><time>2026-04-22T10:41:19.999Z</time></trkpt><trkpt lat="42.72352145789671" lon="12.26374274941451"><ele>197.0</ele><time>2026-04-22T10:41:20.999Z</time></trkpt><trkpt lat="42.72345507391965" lon="12.263810562588644"><ele>197.0</ele><time>2026-04-22T10:41:21.999Z</time></trkpt><trkpt lat="42.72337639731379" lon="12.263863583314393"><ele>196.8</ele><time>2026-04-22T10:41:22.999Z</time></trkpt><trkpt lat="42.723291373483825" lon="12.263943631850585"><ele>196.6</ele><time>2026-04-22T10:41:23.999Z</time></trkpt><trkpt lat="42.72322200827521" lon="12.264032990617004"><ele>196.4</ele><time>2026-04-22T10:41:24.999Z</time></trkpt><trkpt lat="42.723190018887806" lon="12.264109576662875"><ele>196.20000000000002</ele><time>2026-04-22T10:41:25.999Z</time></trkpt><trkpt lat="42.72323028932176" lon="12.26423516846787"><ele>196.0</ele><time>2026-04-22T10:41:27.999Z</time></trkpt><trkpt lat="42.72333380986719" lon="12.26425168215038"><ele>198.33333333333331</ele><time>2026-04-22T10:41:29.999Z</time></trkpt><trkpt lat="42.7234112690723" lon="12.264235059367302"><ele>200.66666666666666</ele><time>2026-04-22T10:41:30.999Z</time></trkpt><trkpt lat="42.72350616395344" lon="12.26425277381001"><ele>203.0</ele><time>2026-04-22T10:41:31.999Z</time></trkpt><trkpt lat="42.72357800177597" lon="12.26426132029499"><ele>205.33333333333331</ele><time>2026-04-22T10:41:32.999Z</time></trkpt><trkpt lat="42.723650056203724" lon="12.26426797007046"><ele>207.66666666666666</ele><time>2026-04-22T10:41:33.999Z</time></trkpt><trkpt lat="42.72374314213874" lon="12.264299319996484"><ele>210.0</ele><time>2026-04-22T10:41:34.999Z</time></trkpt><trkpt lat="42.72381426390123" lon="12.264339195527157"><ele>210.0</ele><time>2026-04-22T10:41:35.999Z</time></trkpt><trkpt lat="42.72388737920143" lon="12.264469983363215"><ele>210.0</ele><time>2026-04-22T10:41:37.999Z</time></trkpt><trkpt lat="42.72393491083136" lon="12.26458007940255"><ele>210.0</ele><time>2026-04-22T10:41:38.999Z</time></trkpt><trkpt lat="42.72399746061406" lon="12.264698098332955"><ele>210.0</ele><time>2026-04-22T10:41:39.999Z</time></trkpt><trkpt lat="42.724077386429414" lon="12.264820471798995"><ele>210.0</ele><time>2026-04-22T10:41:40.999Z</time></trkpt><trkpt lat="42.724147716241845" lon="12.264913943225563"><ele>214.2</ele><time>2026-04-22T10:41:41.999Z</time></trkpt><trkpt lat="42.724202078495686" lon="12.264981689552284"><ele>218.4</ele><time>2026-04-22T10:41:42.999Z</time></trkpt><trkpt lat="42.724283036973155" lon="12.265019310548984"><ele>222.60000000000002</ele><time>2026-04-22T10:41:43.999Z</time></trkpt><trkpt lat="42.724332052307936" lon="12.265079178452556"><ele>226.8</ele><time>2026-04-22T10:41:44.999Z</time></trkpt><trkpt lat="42.724369470656775" lon="12.265236913094625"><ele>231.0</ele><time>2026-04-22T10:41:46.999Z</time></trkpt><trkpt lat="42.7242729632226" lon="12.265185937874271"><ele>231.0</ele><time>2026-04-22T10:41:48.999Z</time></trkpt><trkpt lat="42.72413306573913" lon="12.26518546154304"><ele>231.0</ele><time>2026-04-22T10:41:50.999Z</time></trkpt><trkpt lat="42.72403526216417" lon="12.26516117077967"><ele>231.0</ele><time>2026-04-22T10:41:51.999Z</time></trkpt><trkpt lat="42.72393261172612" lon="12.265173739554138"><ele>231.0</ele><time>2026-04-22T10:41:52.999Z</time></trkpt><trkpt lat="42.723822136377805" lon="12.265207059996381"><ele>231.0</ele><time>2026-04-22T10:41:53.999Z</time></trkpt><trkpt lat="42.723701941134195" lon="12.265230261879328"><ele>231.00000000000003</ele><time>2026-04-22T10:41:54.999Z</time></trkpt><trkpt lat="42.72360050006643" lon="12.26522923150582"><ele>231.00000000000003</ele><time>2026-04-22T10:41:55.999Z</time></trkpt><trkpt lat="42.723506529431965" lon="12.265279384462925"><ele>231.0</ele><time>2026-04-22T10:41:56.999Z</time></trkpt><trkpt lat="42.72343715457545" lon="12.26530767518203"><ele>231.0</ele><time>2026-04-22T10:41:57.999Z</time></trkpt><trkpt lat="42.72338989681543" lon="12.265365136679042"><ele>231.5</ele><time>2026-04-22T10:41:58.999Z</time></trkpt><trkpt lat="42.72334737296133" lon="12.265442479420727"><ele>232.0</ele><time>2026-04-22T10:41:59.999Z</time></trkpt><trkpt lat="42.7233196650396" lon="12.265541804801268"><ele>232.5</ele><time>2026-04-22T10:42:00.999Z</time></trkpt><trkpt lat="42.72332010312577" lon="12.265646964636488"><ele>233.0</ele><time>2026-04-22T10:42:01.999Z</time></trkpt><trkpt lat="42.723346887845494" lon="12.26574452440796"><ele>233.5</ele><time>2026-04-22T10:42:02.999Z</time></trkpt><trkpt lat="42.72339089375877" lon="12.265832849491007"><ele>234.0</ele><time>2026-04-22T10:42:03.999Z</time></trkpt><trkpt lat="42.723437930477346" lon="12.26593180532422"><ele>236.75</ele><time>2026-04-22T10:42:04.999Z</time></trkpt><trkpt lat="42.72350796312357" lon="12.266074426677774"><ele>239.5</ele><time>2026-04-22T10:42:05.999Z</time></trkpt><trkpt lat="42.723579136530255" lon="12.266202875294246"><ele>242.25</ele><time>2026-04-22T10:42:06.999Z</time></trkpt><trkpt lat="42.72363741660714" lon="12.266351683308523"><ele>245.0</ele><time>2026-04-22T10:42:08Z</time></trkpt><trkpt lat="42.72366942496439" lon="12.266471995289576"><ele>246.8</ele><time>2026-04-22T10:42:09Z</time></trkpt><trkpt lat="42.723655598172485" lon="12.266564311203357"><ele>248.6</ele><time>2026-04-22T10:42:10Z</time></trkpt><trkpt lat="42.723610904201024" lon="12.266640343982615"><ele>250.39999999999998</ele><time>2026-04-22T10:42:11Z</time></trkpt><trkpt lat="42.72349973055723" lon="12.26677519484798"><ele>252.2</ele><time>2026-04-22T10:42:13Z</time></trkpt><trkpt lat="42.72342666573946" lon="12.266884365573237"><ele>254.0</ele><time>2026-04-22T10:42:14Z</time></trkpt><trkpt lat="42.723380329315866" lon="12.26700389234137"><ele>254.0</ele><time>2026-04-22T10:42:15Z</time></trkpt><trkpt lat="42.723365639686" lon="12.267133180801261"><ele>253.99999999999997</ele><time>2026-04-22T10:42:16Z</time></trkpt><trkpt lat="42.72341521817743" lon="12.267278089931136"><ele>253.99999999999997</ele><time>2026-04-22T10:42:17Z</time></trkpt><trkpt lat="42.72344533981151" lon="12.267411170491945"><ele>254.0</ele><time>2026-04-22T10:42:18Z</time></trkpt><trkpt lat="42.72347595846396" lon="12.26757480326894"><ele>254.0</ele><time>2026-04-22T10:42:19Z</time></trkpt><trkpt lat="42.72349655429596" lon="12.267729108465856"><ele>256.4</ele><time>2026-04-22T10:42:20Z</time></trkpt><trkpt lat="42.723512962847565" lon="12.267890993447327"><ele>258.79999999999995</ele><time>2026-04-22T10:42:21Z</time></trkpt><trkpt lat="42.72352625120549" lon="12.268051893262882"><ele>261.20000000000005</ele><time>2026-04-22T10:42:22Z</time></trkpt><trkpt lat="42.7235415468811" lon="12.268172435644363"><ele>263.6</ele><time>2026-04-22T10:42:23Z</time></trkpt><trkpt lat="42.72354642557224" lon="12.268282061065763"><ele>266.0</ele><time>2026-04-22T10:42:24Z</time></trkpt><trkpt lat="42.72352205843472" lon="12.268370902208165"><ele>267.5</ele><time>2026-04-22T10:42:25Z</time></trkpt><trkpt lat="42.723460617236164" lon="12.268417813971674"><ele>269.0</ele><time>2026-04-22T10:42:26Z</time></trkpt><trkpt lat="42.7233842527554" lon="12.268411112442903"><ele>270.5</ele><time>2026-04-22T10:42:27Z</time></trkpt><trkpt lat="42.72330686226582" lon="12.268414589965817"><ele>272.0</ele><time>2026-04-22T10:42:28Z</time></trkpt><trkpt lat="42.723206158429264" lon="12.268443998355636"><ele>273.5</ele><time>2026-04-22T10:42:29Z</time></trkpt><trkpt lat="42.7230962512505" lon="12.268490661306663"><ele>275.0</ele><time>2026-04-22T10:42:30Z</time></trkpt><trkpt lat="42.72300478884984" lon="12.268593551133693"><ele>275.0</ele><time>2026-04-22T10:42:31Z</time></trkpt><trkpt lat="42.722956479073275" lon="12.268756656486886"><ele>275.0</ele><time>2026-04-22T10:42:32Z</time></trkpt><trkpt lat="42.72289819504146" lon="12.268915528772515"><ele>275.0</ele><time>2026-04-22T10:42:33Z</time></trkpt><trkpt lat="42.72282544100401" lon="12.269090615993456"><ele>275.0</ele><time>2026-04-22T10:42:34Z</time></trkpt><trkpt lat="42.722748268473474" lon="12.269275567086035"><ele>275.6666666666667</ele><time>2026-04-22T10:42:35Z</time></trkpt><trkpt lat="42.722671383321895" lon="12.269478638723422"><ele>276.3333333333333</ele><time>2026-04-22T10:42:36Z</time></trkpt><trkpt lat="42.722595960036415" lon="12.269677737476787"><ele>277.0</ele><time>2026-04-22T10:42:37Z</time></trkpt><trkpt lat="42.72252987716094" lon="12.269849772589092"><ele>281.2</ele><time>2026-04-22T10:42:38Z</time></trkpt><trkpt lat="42.72247173793655" lon="12.269995292689103"><ele>285.4</ele><time>2026-04-22T10:42:39Z</time></trkpt><trkpt lat="42.722417901376836" lon="12.270120445719668"><ele>289.6</ele><time>2026-04-22T10:42:40Z</time></trkpt><trkpt lat="42.72237069873208" lon="12.270198695312086"><ele>293.8</ele><time>2026-04-22T10:42:41Z</time></trkpt><trkpt lat="42.722401983652546" lon="12.27030718031613"><ele>298.0</ele><time>2026-04-22T10:42:43Z</time></trkpt><trkpt lat="42.72248268885164" lon="12.270268661601028"><ele>298.0</ele><time>2026-04-22T10:42:45Z</time></trkpt><trkpt lat="42.722531940425036" lon="12.270191700948958"><ele>298.0</ele><time>2026-04-22T10:42:46Z</time></trkpt><trkpt lat="42.72261120132418" lon="12.270109462696416"><ele>298.0</ele><time>2026-04-22T10:42:47Z</time></trkpt><trkpt lat="42.72267478500985" lon="12.269991577678892"><ele>298.0</ele><time>2026-04-22T10:42:48Z</time></trkpt><trkpt lat="42.72277190663115" lon="12.269889120392817"><ele>298.0</ele><time>2026-04-22T10:42:49Z</time></trkpt><trkpt lat="42.72288512013244" lon="12.269778850602524"><ele>296.6</ele><time>2026-04-22T10:42:50Z</time></trkpt><trkpt lat="42.72299170216569" lon="12.269655965873872"><ele>295.20000000000005</ele><time>2026-04-22T10:42:51Z</time></trkpt><trkpt lat="42.723081661466345" lon="12.269579930262777"><ele>293.8</ele><time>2026-04-22T10:42:52Z</time></trkpt><trkpt lat="42.72313940073658" lon="12.26953915962797"><ele>292.40000000000003</ele><time>2026-04-22T10:42:53Z</time></trkpt><trkpt lat="42.72320973689432" lon="12.26962211163266"><ele>291.0</ele><time>2026-04-22T10:42:56Z</time></trkpt><trkpt lat="42.72313055794197" lon="12.269699554317517"><ele>291.0</ele><time>2026-04-22T10:42:58Z</time></trkpt><trkpt lat="42.723073364660834" lon="12.269767603970513"><ele>291.0</ele><time>2026-04-22T10:42:59Z</time></trkpt><trkpt lat="42.72300567370001" lon="12.269872735894548"><ele>291.0</ele><time>2026-04-22T10:43:00Z</time></trkpt><trkpt lat="42.72292169941674" lon="12.269984406156617"><ele>291.0</ele><time>2026-04-22T10:43:01Z</time></trkpt><trkpt lat="42.7228401192934" lon="12.270121802425942"><ele>291.0</ele><time>2026-04-22T10:43:02Z</time></trkpt><trkpt lat="42.72274222518355" lon="12.270235688176165"><ele>292.75</ele><time>2026-04-22T10:43:03Z</time></trkpt><trkpt lat="42.72266419551027" lon="12.270367043604983"><ele>294.5</ele><time>2026-04-22T10:43:04Z</time></trkpt><trkpt lat="42.72260187941887" lon="12.270526533552474"><ele>296.25</ele><time>2026-04-22T10:43:05Z</time></trkpt><trkpt lat="42.72253912234725" lon="12.27068553751684"><ele>298.0</ele><time>2026-04-22T10:43:06Z</time></trkpt><trkpt lat="42.722491048966184" lon="12.270834046769492"><ele>301.4</ele><time>2026-04-22T10:43:07Z</time></trkpt><trkpt lat="42.7224559422986" lon="12.270951352909252"><ele>304.8</ele><time>2026-04-22T10:43:08Z</time></trkpt><trkpt lat="42.722499954859806" lon="12.2710814643536"><ele>308.2</ele><time>2026-04-22T10:43:11Z</time></trkpt><trkpt lat="42.72258434490392" lon="12.27104580164064"><ele>311.6</ele><time>2026-04-22T10:43:13Z</time></trkpt><trkpt lat="42.72262699308534" lon="12.270909643199476"><ele>315.0</ele><time>2026-04-22T10:43:15Z</time></trkpt><trkpt lat="42.722686670059886" lon="12.270842283083537"><ele>315.2</ele><time>2026-04-22T10:43:16Z</time></trkpt><trkpt lat="42.72275370288509" lon="12.270774996191017"><ele>315.4</ele><time>2026-04-22T10:43:17Z</time></trkpt><trkpt lat="42.7228315081076" lon="12.27070250719088"><ele>315.6</ele><time>2026-04-22T10:43:18Z</time></trkpt><trkpt lat="42.72292892237744" lon="12.270641240355891"><ele>315.8</ele><time>2026-04-22T10:43:19Z</time></trkpt><trkpt lat="42.723033226872346" lon="12.2705807388537"><ele>316.0</ele><time>2026-04-22T10:43:20Z</time></trkpt><trkpt lat="42.7231255569417" lon="12.270533837334417"><ele>316.0</ele><time>2026-04-22T10:43:21Z</time></trkpt><trkpt lat="42.723210495515765" lon="12.270510974402294"><ele>316.0</ele><time>2026-04-22T10:43:22Z</time></trkpt><trkpt lat="42.72332732370807" lon="12.27049130583135"><ele>316.0</ele><time>2026-04-22T10:43:24Z</time></trkpt><trkpt lat="42.72338761394724" lon="12.27053701094567"><ele>316.0</ele><time>2026-04-22T10:43:25Z</time></trkpt><trkpt lat="42.72345353121698" lon="12.270592785773243"><ele>316.0</ele><time>2026-04-22T10:43:26Z</time></trkpt><trkpt lat="42.723512721982615" lon="12.270661876263155"><ele>316.0</ele><time>2026-04-22T10:43:27Z</time></trkpt><trkpt lat="42.72353403996704" lon="12.27076586236839"><ele>320.3333333333333</ele><time>2026-04-22T10:43:29Z</time></trkpt><trkpt lat="42.7234524739532" lon="12.27078725464744"><ele>324.66666666666663</ele><time>2026-04-22T10:43:32Z</time></trkpt><trkpt lat="42.723385172664216" lon="12.27070535389971"><ele>329.0</ele><time>2026-04-22T10:43:34Z</time></trkpt><trkpt lat="42.723309593664986" lon="12.270678457241903"><ele>333.3333333333333</ele><time>2026-04-22T10:43:34.999Z</time></trkpt><trkpt lat="42.723237769657416" lon="12.270703382223441"><ele>337.6666666666667</ele><time>2026-04-22T10:43:35.999Z</time></trkpt><trkpt lat="42.72317012679911" lon="12.270725951742342"><ele>342.0</ele><time>2026-04-22T10:43:36.999Z</time></trkpt><trkpt lat="42.72313080726227" lon="12.270816253650528"><ele>342.0</ele><time>2026-04-22T10:43:37.999Z</time></trkpt><trkpt lat="42.72310192971131" lon="12.27096791808422"><ele>342.0</ele><time>2026-04-22T10:43:39.999Z</time></trkpt><trkpt lat="42.723075543112195" lon="12.271079142676221"><ele>342.0</ele><time>2026-04-22T10:43:41.999Z</time></trkpt><trkpt lat="42.72306642831784" lon="12.271180656263821"><ele>342.0</ele><time>2026-04-22T10:43:48.999Z</time></trkpt><trkpt lat="42.72303965393469" lon="12.27130093502967"><ele>342.0</ele><time>2026-04-22T10:43:49.999Z</time></trkpt><trkpt lat="42.723038115257296" lon="12.271436971534737"><ele>344.8</ele><time>2026-04-22T10:43:50.999Z</time></trkpt><trkpt lat="42.72305652692873" lon="12.271570384123036"><ele>347.6</ele><time>2026-04-22T10:43:51.999Z</time></trkpt><trkpt lat="42.72308481959981" lon="12.271701220199574"><ele>350.40000000000003</ele><time>2026-04-22T10:43:52.999Z</time></trkpt><trkpt lat="42.72313012612986" lon="12.271813576876415"><ele>353.20000000000005</ele><time>2026-04-22T10:43:53.999Z</time></trkpt><trkpt lat="42.723199525431674" lon="12.271918811806605"><ele>356.0</ele><time>2026-04-22T10:43:54.999Z</time></trkpt><trkpt lat="42.72327909706857" lon="12.272002386260054"><ele>356.0</ele><time>2026-04-22T10:43:55.999Z</time></trkpt><trkpt lat="42.723369183716116" lon="12.27207567307516"><ele>356.0</ele><time>2026-04-22T10:43:56.999Z</time></trkpt><trkpt lat="42.72346472275763" lon="12.272153335191804"><ele>356.0</ele><time>2026-04-22T10:43:57.999Z</time></trkpt><trkpt lat="42.723567460129544" lon="12.272227378549541"><ele>356.0</ele><time>2026-04-22T10:43:58.999Z</time></trkpt><trkpt lat="42.72366573179794" lon="12.272304782735986"><ele>356.0</ele><time>2026-04-22T10:43:59.999Z</time></trkpt><trkpt lat="42.72376703137923" lon="12.27238743900885"><ele>356.83333333333337</ele><time>2026-04-22T10:44:00.999Z</time></trkpt><trkpt lat="42.72385708386463" lon="12.272470868812185"><ele>357.6666666666667</ele><time>2026-04-22T10:44:01.999Z</time></trkpt><trkpt lat="42.72391493526509" lon="12.272532168427137"><ele>358.5</ele><time>2026-04-22T10:44:02.999Z</time></trkpt><trkpt lat="42.723984038795926" lon="12.27256291067817"><ele>359.3333333333333</ele><time>2026-04-22T10:44:03.999Z</time></trkpt><trkpt lat="42.724085088923125" lon="12.27257766055402"><ele>360.16666666666663</ele><time>2026-04-22T10:44:05.999Z</time></trkpt><trkpt lat="42.72414969623779" lon="12.272664632304805"><ele>361.0</ele><time>2026-04-22T10:44:07.999Z</time></trkpt><trkpt lat="42.72416959115017" lon="12.27275372888311"><ele>361.0</ele><time>2026-04-22T10:44:08.999Z</time></trkpt><trkpt lat="42.72419108290382" lon="12.27287060941412"><ele>361.0</ele><time>2026-04-22T10:44:09.999Z</time></trkpt><trkpt lat="42.724218932364856" lon="12.273008786315735"><ele>361.0</ele><time>2026-04-22T10:44:10.999Z</time></trkpt><trkpt lat="42.72425828415599" lon="12.273157638489932"><ele>361.0</ele><time>2026-04-22T10:44:11.999Z</time></trkpt><trkpt lat="42.72429703739594" lon="12.27329904166056"><ele>361.0</ele><time>2026-04-22T10:44:12.999Z</time></trkpt><trkpt lat="42.7243351348735" lon="12.27345712751688"><ele>361.0</ele><time>2026-04-22T10:44:13.999Z</time></trkpt><trkpt lat="42.7243811787982" lon="12.273617375453922"><ele>361.0</ele><time>2026-04-22T10:44:14.999Z</time></trkpt><trkpt lat="42.72442314578326" lon="12.273774366352418"><ele>361.0</ele><time>2026-04-22T10:44:15.999Z</time></trkpt><trkpt lat="42.7244590326932" lon="12.273935845537771"><ele>361.0</ele><time>2026-04-22T10:44:16.999Z</time></trkpt><trkpt lat="42.72449546065888" lon="12.274106905125766"><ele>361.0</ele><time>2026-04-22T10:44:17.999Z</time></trkpt><trkpt lat="42.72452725288062" lon="12.274273587604917"><ele>361.0</ele><time>2026-04-22T10:44:19Z</time></trkpt><trkpt lat="42.724560559754075" lon="12.274436854346032"><ele>361.0</ele><time>2026-04-22T10:44:20Z</time></trkpt><trkpt lat="42.72459255391392" lon="12.274596308520334"><ele>361.0</ele><time>2026-04-22T10:44:21Z</time></trkpt><trkpt lat="42.724623430054926" lon="12.274759381604458"><ele>364.25</ele><time>2026-04-22T10:44:22Z</time></trkpt><trkpt lat="42.72466045818381" lon="12.274916630824615"><ele>367.5</ele><time>2026-04-22T10:44:23Z</time></trkpt><trkpt lat="42.72468993091259" lon="12.275071564970757"><ele>370.75</ele><time>2026-04-22T10:44:24Z</time></trkpt><trkpt lat="42.72472163085171" lon="12.275244490591996"><ele>374.0</ele><time>2026-04-22T10:44:25Z</time></trkpt><trkpt lat="42.72475047809124" lon="12.275417641200606"><ele>374.0</ele><time>2026-04-22T10:44:26Z</time></trkpt><trkpt lat="42.72478371032401" lon="12.275591576556476"><ele>374.0</ele><time>2026-04-22T10:44:27Z</time></trkpt><trkpt lat="42.724820668402536" lon="12.275762983317708"><ele>374.0</ele><time>2026-04-22T10:44:28Z</time></trkpt><trkpt lat="42.724847724385384" lon="12.275934051592191"><ele>374.0</ele><time>2026-04-22T10:44:29Z</time></trkpt><trkpt lat="42.72488007462616" lon="12.276107359958216"><ele>375.5</ele><time>2026-04-22T10:44:30Z</time></trkpt><trkpt lat="42.72489681131571" lon="12.27628721192681"><ele>377.0</ele><time>2026-04-22T10:44:31Z</time></trkpt><trkpt lat="42.72493270559434" lon="12.276470591558375"><ele>378.5</ele><time>2026-04-22T10:44:32Z</time></trkpt><trkpt lat="42.72497681897706" lon="12.276653094959071"><ele>380.0</ele><time>2026-04-22T10:44:33Z</time></trkpt><trkpt lat="42.72501660216292" lon="12.276842352837214"><ele>380.5</ele><time>2026-04-22T10:44:34Z</time></trkpt><trkpt lat="42.72505145220896" lon="12.277037877626505"><ele>381.0</ele><time>2026-04-22T10:44:35Z</time></trkpt><trkpt lat="42.72508716248305" lon="12.277232874171222"><ele>381.5</ele><time>2026-04-22T10:44:36Z</time></trkpt><trkpt lat="42.72511723904088" lon="12.27741983946372"><ele>382.0</ele><time>2026-04-22T10:44:37Z</time></trkpt><trkpt lat="42.725150783281066" lon="12.277605121039791"><ele>381.75</ele><time>2026-04-22T10:44:38Z</time></trkpt><trkpt lat="42.72519326917806" lon="12.277796460509142"><ele>381.5</ele><time>2026-04-22T10:44:39Z</time></trkpt><trkpt lat="42.72523028446192" lon="12.277980684569782"><ele>381.25</ele><time>2026-04-22T10:44:40Z</time></trkpt><trkpt lat="42.72526601195528" lon="12.278161234061502"><ele>381.0</ele><time>2026-04-22T10:44:41Z</time></trkpt><trkpt lat="42.7253017143534" lon="12.27833765464332"><ele>381.0</ele><time>2026-04-22T10:44:42Z</time></trkpt><trkpt lat="42.72534341852251" lon="12.278517781534278"><ele>381.0</ele><time>2026-04-22T10:44:43Z</time></trkpt><trkpt lat="42.72537482439946" lon="12.278701480957466"><ele>381.0</ele><time>2026-04-22T10:44:44Z</time></trkpt><trkpt lat="42.72540990773237" lon="12.278890092249663"><ele>381.0</ele><time>2026-04-22T10:44:45Z</time></trkpt><trkpt lat="42.725443745146954" lon="12.27909413207066"><ele>383.66666666666663</ele><time>2026-04-22T10:44:46Z</time></trkpt><trkpt lat="42.725486689579256" lon="12.279306050677738"><ele>386.3333333333333</ele><time>2026-04-22T10:44:47Z</time></trkpt><trkpt lat="42.72552232281815" lon="12.279510861316963"><ele>389.0</ele><time>2026-04-22T10:44:48Z</time></trkpt><trkpt lat="42.725552472613415" lon="12.279695361481588"><ele>391.25</ele><time>2026-04-22T10:44:49Z</time></trkpt><trkpt lat="42.72558153244338" lon="12.279860582411155"><ele>393.5</ele><time>2026-04-22T10:44:50Z</time></trkpt><trkpt lat="42.72560562090458" lon="12.280003309399518"><ele>395.75</ele><time>2026-04-22T10:44:51Z</time></trkpt><trkpt lat="42.72559839971992" lon="12.280147869567386"><ele>398.0</ele><time>2026-04-22T10:44:52Z</time></trkpt><trkpt lat="42.7255601904176" lon="12.280296900907958"><ele>398.0</ele><time>2026-04-22T10:44:53Z</time></trkpt><trkpt lat="42.72552452325501" lon="12.28045260107577"><ele>398.0</ele><time>2026-04-22T10:44:54Z</time></trkpt><trkpt lat="42.725511400519096" lon="12.280635312730617"><ele>398.0</ele><time>2026-04-22T10:44:55Z</time></trkpt><trkpt lat="42.72549163466301" lon="12.280814394988294"><ele>398.0</ele><time>2026-04-22T10:44:56Z</time></trkpt><trkpt lat="42.725468290077615" lon="12.280983590643888"><ele>400.75</ele><time>2026-04-22T10:44:57Z</time></trkpt><trkpt lat="42.72544199175751" lon="12.281155074648039"><ele>403.5</ele><time>2026-04-22T10:44:58Z</time></trkpt><trkpt lat="42.72541064918165" lon="12.28132680955543"><ele>406.25</ele><time>2026-04-22T10:44:59Z</time></trkpt><trkpt lat="42.72537626669516" lon="12.281495761878604"><ele>409.0</ele><time>2026-04-22T10:45:00Z</time></trkpt><trkpt lat="42.72533029574845" lon="12.281647551315322"><ele>409.6666666666667</ele><time>2026-04-22T10:45:01Z</time></trkpt><trkpt lat="42.72528429527701" lon="12.281744555299607"><ele>410.33333333333337</ele><time>2026-04-22T10:45:02Z</time></trkpt><trkpt lat="42.72521669300505" lon="12.281738105698045"><ele>411.0</ele><time>2026-04-22T10:45:03Z</time></trkpt><trkpt lat="42.725154273331924" lon="12.281749551888323"><ele>411.66666666666663</ele><time>2026-04-22T10:45:04Z</time></trkpt><trkpt lat="42.7250682024622" lon="12.281842191244671"><ele>412.3333333333333</ele><time>2026-04-22T10:45:05Z</time></trkpt><trkpt lat="42.72496006943177" lon="12.281869394834404"><ele>413.0</ele><time>2026-04-22T10:45:06Z</time></trkpt><trkpt lat="42.72485131231738" lon="12.281892891428983"><ele>412.99999999999994</ele><time>2026-04-22T10:45:07Z</time></trkpt><trkpt lat="42.724767462710695" lon="12.281917374093581"><ele>413.0</ele><time>2026-04-22T10:45:08Z</time></trkpt><trkpt lat="42.72468428657458" lon="12.281897012360993"><ele>413.0</ele><time>2026-04-22T10:45:09Z</time></trkpt><trkpt lat="42.72461102387763" lon="12.28193726463559"><ele>413.0</ele><time>2026-04-22T10:45:10Z</time></trkpt><trkpt lat="42.7245733279738" lon="12.282053534227638"><ele>412.99999999999994</ele><time>2026-04-22T10:45:11Z</time></trkpt><trkpt lat="42.724528864489166" lon="12.282148282411448"><ele>413.0</ele><time>2026-04-22T10:45:12Z</time></trkpt><trkpt lat="42.72449778862189" lon="12.282284673034047"><ele>412.25</ele><time>2026-04-22T10:45:13Z</time></trkpt><trkpt lat="42.72444320483388" lon="12.28243852079033"><ele>411.5</ele><time>2026-04-22T10:45:14Z</time></trkpt><trkpt lat="42.724401206837044" lon="12.282612489264405"><ele>410.75</ele><time>2026-04-22T10:45:15Z</time></trkpt><trkpt lat="42.72437139532694" lon="12.282793909617205"><ele>410.0</ele><time>2026-04-22T10:45:16Z</time></trkpt><trkpt lat="42.72432600711341" lon="12.282960674478081"><ele>410.25</ele><time>2026-04-22T10:45:17Z</time></trkpt><trkpt lat="42.72428149183733" lon="12.283132321684784"><ele>410.5</ele><time>2026-04-22T10:45:18Z</time></trkpt><trkpt lat="42.72423971755537" lon="12.28330007791464"><ele>410.75</ele><time>2026-04-22T10:45:19Z</time></trkpt><trkpt lat="42.72418753834939" lon="12.283483040865631"><ele>411.0</ele><time>2026-04-22T10:45:20Z</time></trkpt><trkpt lat="42.724151807132465" lon="12.283674445604767"><ele>411.0</ele><time>2026-04-22T10:45:21Z</time></trkpt><trkpt lat="42.724126947526095" lon="12.283869183441963"><ele>411.0</ele><time>2026-04-22T10:45:22Z</time></trkpt><trkpt lat="42.72407607863967" lon="12.28405199702307"><ele>411.0</ele><time>2026-04-22T10:45:23Z</time></trkpt><trkpt lat="42.72402219536167" lon="12.284218010925377"><ele>411.0</ele><time>2026-04-22T10:45:24Z</time></trkpt><trkpt lat="42.72396134361126" lon="12.28436648350049"><ele>411.0</ele><time>2026-04-22T10:45:25Z</time></trkpt><trkpt lat="42.723879219847966" lon="12.284477686857139"><ele>411.0</ele><time>2026-04-22T10:45:26Z</time></trkpt><trkpt lat="42.72381352153418" lon="12.284548636739498"><ele>411.0</ele><time>2026-04-22T10:45:27Z</time></trkpt><trkpt lat="42.72375370398664" lon="12.284615696056282"><ele>411.0</ele><time>2026-04-22T10:45:28Z</time></trkpt><trkpt lat="42.723689481496805" lon="12.284682284184026"><ele>411.0</ele><time>2026-04-22T10:45:29Z</time></trkpt><trkpt lat="42.723607742416135" lon="12.284749905376884"><ele>410.25</ele><time>2026-04-22T10:45:30Z</time></trkpt><trkpt lat="42.7235074717213" lon="12.284837067263414"><ele>409.5</ele><time>2026-04-22T10:45:31Z</time></trkpt><trkpt lat="42.723399230166834" lon="12.284940657180151"><ele>408.75</ele><time>2026-04-22T10:45:32Z</time></trkpt><trkpt lat="42.72328980506829" lon="12.285051157220629"><ele>408.0</ele><time>2026-04-22T10:45:33Z</time></trkpt><trkpt lat="42.72318970327322" lon="12.28514427420313"><ele>408.0</ele><time>2026-04-22T10:45:34Z</time></trkpt><trkpt lat="42.72309196456899" lon="12.28523038583283"><ele>408.0</ele><time>2026-04-22T10:45:35Z</time></trkpt><trkpt lat="42.72299924592961" lon="12.285304555460554"><ele>408.0</ele><time>2026-04-22T10:45:36Z</time></trkpt><trkpt lat="42.72289986517981" lon="12.285377855400215"><ele>408.0</ele><time>2026-04-22T10:45:37Z</time></trkpt><trkpt lat="42.722799793083404" lon="12.285445957674424"><ele>408.0</ele><time>2026-04-22T10:45:38Z</time></trkpt><trkpt lat="42.722699724910974" lon="12.28551801362546"><ele>407.0</ele><time>2026-04-22T10:45:39Z</time></trkpt><trkpt lat="42.72260125069841" lon="12.28558906866839"><ele>406.0</ele><time>2026-04-22T10:45:40Z</time></trkpt><trkpt lat="42.72251344843344" lon="12.285652138870228"><ele>405.0</ele><time>2026-04-22T10:45:41Z</time></trkpt><trkpt lat="42.72242829203664" lon="12.285709435999054"><ele>404.0</ele><time>2026-04-22T10:45:42Z</time></trkpt><trkpt lat="42.72235305306437" lon="12.28577164386058"><ele>403.0</ele><time>2026-04-22T10:45:43Z</time></trkpt><trkpt lat="42.722301073399564" lon="12.285850124488311"><ele>403.0</ele><time>2026-04-22T10:45:44Z</time></trkpt><trkpt lat="42.722239882968" lon="12.285991766787584"><ele>403.0</ele><time>2026-04-22T10:45:45Z</time></trkpt><trkpt lat="42.7221636995949" lon="12.286115321724331"><ele>403.0</ele><time>2026-04-22T10:45:46Z</time></trkpt><trkpt lat="42.72206046536481" lon="12.286228326829397"><ele>403.0</ele><time>2026-04-22T10:45:47Z</time></trkpt><trkpt lat="42.72196714740649" lon="12.286377044118975"><ele>402.0</ele><time>2026-04-22T10:45:48Z</time></trkpt><trkpt lat="42.72189345591408" lon="12.286550276507109"><ele>401.0</ele><time>2026-04-22T10:45:49Z</time></trkpt><trkpt lat="42.72180660405539" lon="12.286719596453064"><ele>400.0</ele><time>2026-04-22T10:45:50Z</time></trkpt><trkpt lat="42.72171932192214" lon="12.286882562907097"><ele>399.0</ele><time>2026-04-22T10:45:51Z</time></trkpt><trkpt lat="42.72162416104664" lon="12.287035296596416"><ele>399.0</ele><time>2026-04-22T10:45:52Z</time></trkpt><trkpt lat="42.72152460359382" lon="12.287188413964165"><ele>399.0</ele><time>2026-04-22T10:45:53Z</time></trkpt><trkpt lat="42.7214319462649" lon="12.287333248929228"><ele>399.0</ele><time>2026-04-22T10:45:54Z</time></trkpt><trkpt lat="42.721340288196146" lon="12.287464108215335"><ele>399.0</ele><time>2026-04-22T10:45:55Z</time></trkpt><trkpt lat="42.72125217136692" lon="12.28760294627565"><ele>399.0</ele><time>2026-04-22T10:45:56Z</time></trkpt><trkpt lat="42.721168963807756" lon="12.287751955617027"><ele>399.0</ele><time>2026-04-22T10:45:57Z</time></trkpt><trkpt lat="42.72108715104654" lon="12.287899220932772"><ele>399.0</ele><time>2026-04-22T10:45:58Z</time></trkpt><trkpt lat="42.72101626550916" lon="12.288029768107833"><ele>399.0</ele><time>2026-04-22T10:45:59Z</time></trkpt><trkpt lat="42.72096972412706" lon="12.288155806510462"><ele>402.2</ele><time>2026-04-22T10:46:00Z</time></trkpt><trkpt lat="42.7209453340242" lon="12.288282243354613"><ele>405.4</ele><time>2026-04-22T10:46:01Z</time></trkpt><trkpt lat="42.72094127510143" lon="12.28840160177636"><ele>408.6</ele><time>2026-04-22T10:46:02Z</time></trkpt><trkpt lat="42.72094923410119" lon="12.288527611629757"><ele>411.8</ele><time>2026-04-22T10:46:03Z</time></trkpt><trkpt lat="42.72092787129155" lon="12.288638718802481"><ele>415.0</ele><time>2026-04-22T10:46:04Z</time></trkpt><trkpt lat="42.72088237171596" lon="12.288743119186586"><ele>415.00000000000006</ele><time>2026-04-22T10:46:06Z</time></trkpt><trkpt lat="42.72082686166893" lon="12.28868968323376"><ele>415.0</ele><time>2026-04-22T10:46:07Z</time></trkpt><trkpt lat="42.72076964258172" lon="12.288598196533217"><ele>415.0</ele><time>2026-04-22T10:46:09Z</time></trkpt><trkpt lat="42.72076205247119" lon="12.288507553941296"><ele>415.0</ele><time>2026-04-22T10:46:10Z</time></trkpt><trkpt lat="42.720718890599564" lon="12.28837886794997"><ele>415.00000000000006</ele><time>2026-04-22T10:46:11Z</time></trkpt><trkpt lat="42.720655027255766" lon="12.288245161697779"><ele>415.0</ele><time>2026-04-22T10:46:12Z</time></trkpt><trkpt lat="42.72056105351469" lon="12.288133250633862"><ele>413.4</ele><time>2026-04-22T10:46:13Z</time></trkpt><trkpt lat="42.72048304821361" lon="12.288049622696139"><ele>411.8</ele><time>2026-04-22T10:46:14Z</time></trkpt><trkpt lat="42.720387919097284" lon="12.287965290540827"><ele>410.20000000000005</ele><time>2026-04-22T10:46:15Z</time></trkpt><trkpt lat="42.72028682126813" lon="12.287884858020876"><ele>408.6</ele><time>2026-04-22T10:46:16Z</time></trkpt><trkpt lat="42.720187918184266" lon="12.287816130923918"><ele>407.0</ele><time>2026-04-22T10:46:17Z</time></trkpt><trkpt lat="42.72007622273102" lon="12.287757510797913"><ele>407.0</ele><time>2026-04-22T10:46:18Z</time></trkpt><trkpt lat="42.719967612707045" lon="12.28773201295258"><ele>407.0</ele><time>2026-04-22T10:46:19Z</time></trkpt><trkpt lat="42.71984339651655" lon="12.287729538296562"><ele>407.0</ele><time>2026-04-22T10:46:20Z</time></trkpt><trkpt lat="42.719715816150035" lon="12.287743141433126"><ele>407.0</ele><time>2026-04-22T10:46:21Z</time></trkpt><trkpt lat="42.71958129445891" lon="12.287745153302032"><ele>407.0</ele><time>2026-04-22T10:46:22Z</time></trkpt><trkpt lat="42.71945722040446" lon="12.287717388148685"><ele>407.0</ele><time>2026-04-22T10:46:23Z</time></trkpt><trkpt lat="42.71934251967221" lon="12.28767720923319"><ele>407.0</ele><time>2026-04-22T10:46:24Z</time></trkpt><trkpt lat="42.719248488950626" lon="12.287643536013388"><ele>407.0</ele><time>2026-04-22T10:46:25Z</time></trkpt><trkpt lat="42.71914445924033" lon="12.28763080019926"><ele>407.0</ele><time>2026-04-22T10:46:26Z</time></trkpt><trkpt lat="42.719023535715095" lon="12.287654073084108"><ele>409.75</ele><time>2026-04-22T10:46:27Z</time></trkpt><trkpt lat="42.718900084096646" lon="12.287677353559626"><ele>412.5</ele><time>2026-04-22T10:46:28Z</time></trkpt><trkpt lat="42.718779514801675" lon="12.287700088878557"><ele>415.25</ele><time>2026-04-22T10:46:29Z</time></trkpt><trkpt lat="42.718651442784676" lon="12.28771935581763"><ele>418.0</ele><time>2026-04-22T10:46:30Z</time></trkpt><trkpt lat="42.71852099885016" lon="12.287735151051525"><ele>419.75</ele><time>2026-04-22T10:46:31Z</time></trkpt><trkpt lat="42.71838862420523" lon="12.287748421490372"><ele>421.5</ele><time>2026-04-22T10:46:32Z</time></trkpt><trkpt lat="42.718257187875366" lon="12.287757486370841"><ele>423.25</ele><time>2026-04-22T10:46:33Z</time></trkpt><trkpt lat="42.71813307753576" lon="12.28775675888455"><ele>425.0</ele><time>2026-04-22T10:46:34Z</time></trkpt><trkpt lat="42.71791267435653" lon="12.28768773557964"><ele>425.0</ele><time>2026-04-22T10:46:36Z</time></trkpt><trkpt lat="42.717793876861954" lon="12.28764108169326"><ele>425.0</ele><time>2026-04-22T10:46:37Z</time></trkpt><trkpt lat="42.71767506300455" lon="12.287604912955649"><ele>425.0</ele><time>2026-04-22T10:46:38Z</time></trkpt><trkpt lat="42.71755250449313" lon="12.287591711791041"><ele>425.0</ele><time>2026-04-22T10:46:39Z</time></trkpt><trkpt lat="42.71742384705186" lon="12.287588685171846"><ele>426.8</ele><time>2026-04-22T10:46:40Z</time></trkpt><trkpt lat="42.71731182700833" lon="12.287606716385973"><ele>428.6</ele><time>2026-04-22T10:46:41Z</time></trkpt><trkpt lat="42.71722229177729" lon="12.287593670066265"><ele>430.4</ele><time>2026-04-22T10:46:42Z</time></trkpt><trkpt lat="42.71715768166338" lon="12.287531282027318"><ele>432.2</ele><time>2026-04-22T10:46:43Z</time></trkpt><trkpt lat="42.71708476088477" lon="12.287476753985121"><ele>434.0</ele><time>2026-04-22T10:46:44Z</time></trkpt><trkpt lat="42.71698781307574" lon="12.287416766755598"><ele>436.25</ele><time>2026-04-22T10:46:45Z</time></trkpt><trkpt lat="42.71688258752764" lon="12.287357408475097"><ele>438.5</ele><time>2026-04-22T10:46:46Z</time></trkpt><trkpt lat="42.71677538784332" lon="12.287317233402755"><ele>440.75</ele><time>2026-04-22T10:46:47Z</time></trkpt><trkpt lat="42.71667110620067" lon="12.287284891547694"><ele>443.0</ele><time>2026-04-22T10:46:48Z</time></trkpt><trkpt lat="42.716549326469156" lon="12.287303358436708"><ele>443.0</ele><time>2026-04-22T10:46:49Z</time></trkpt><trkpt lat="42.71642190673229" lon="12.28732598719975"><ele>443.0</ele><time>2026-04-22T10:46:50Z</time></trkpt><trkpt lat="42.716279157505134" lon="12.287358562306327"><ele>443.0</ele><time>2026-04-22T10:46:51Z</time></trkpt><trkpt lat="42.71612522755572" lon="12.287395983329453"><ele>443.0</ele><time>2026-04-22T10:46:52Z</time></trkpt><trkpt lat="42.71596973216737" lon="12.287433784900912"><ele>442.66666666666663</ele><time>2026-04-22T10:46:53Z</time></trkpt><trkpt lat="42.71580813361208" lon="12.287473443052926"><ele>442.33333333333337</ele><time>2026-04-22T10:46:54Z</time></trkpt><trkpt lat="42.71564151010344" lon="12.28751640099489"><ele>442.0</ele><time>2026-04-22T10:46:55Z</time></trkpt><trkpt lat="42.71548711958512" lon="12.287561296211905"><ele>442.0</ele><time>2026-04-22T10:46:56Z</time></trkpt><trkpt lat="42.71533701859836" lon="12.287609427081128"><ele>442.0</ele><time>2026-04-22T10:46:57Z</time></trkpt><trkpt lat="42.715201358556214" lon="12.287661008082159"><ele>442.0</ele><time>2026-04-22T10:46:58Z</time></trkpt><trkpt lat="42.715066081695284" lon="12.287729824756271"><ele>442.0</ele><time>2026-04-22T10:46:59Z</time></trkpt><trkpt lat="42.71494123385398" lon="12.287834227761305"><ele>440.5</ele><time>2026-04-22T10:47:00Z</time></trkpt><trkpt lat="42.71480140406874" lon="12.287894919160363"><ele>439.0</ele><time>2026-04-22T10:47:01Z</time></trkpt><trkpt lat="42.71466316870465" lon="12.287974885976395"><ele>437.5</ele><time>2026-04-22T10:47:02Z</time></trkpt><trkpt lat="42.714523826087394" lon="12.288051312166415"><ele>436.0</ele><time>2026-04-22T10:47:03Z</time></trkpt><trkpt lat="42.71438494786625" lon="12.288122195797106"><ele>438.4</ele><time>2026-04-22T10:47:04Z</time></trkpt><trkpt lat="42.71425377105773" lon="12.28818455749148"><ele>440.8</ele><time>2026-04-22T10:47:05Z</time></trkpt><trkpt lat="42.714136785057995" lon="12.288237395314944"><ele>443.19999999999993</ele><time>2026-04-22T10:47:06Z</time></trkpt><trkpt lat="42.71403967668208" lon="12.28828341428164"><ele>445.59999999999997</ele><time>2026-04-22T10:47:07Z</time></trkpt><trkpt lat="42.7139792760087" lon="12.288318348778315"><ele>448.0</ele><time>2026-04-22T10:47:08Z</time></trkpt><trkpt lat="42.713868264488205" lon="12.288401280235766"><ele>448.0</ele><time>2026-04-22T10:47:10Z</time></trkpt><trkpt lat="42.7138052556575" lon="12.288478862879856"><ele>448.0</ele><time>2026-04-22T10:47:11Z</time></trkpt><trkpt lat="42.71370628740848" lon="12.288536337040398"><ele>448.0</ele><time>2026-04-22T10:47:12Z</time></trkpt><trkpt lat="42.71358919932568" lon="12.288596446025734"><ele>448.0</ele><time>2026-04-22T10:47:13Z</time></trkpt><trkpt lat="42.71346189025969" lon="12.288651578798975"><ele>446.0</ele><time>2026-04-22T10:47:14Z</time></trkpt><trkpt lat="42.71332059363578" lon="12.288714582144758"><ele>444.0</ele><time>2026-04-22T10:47:15Z</time></trkpt><trkpt lat="42.713168688520675" lon="12.288779242634153"><ele>442.0</ele><time>2026-04-22T10:47:16Z</time></trkpt><trkpt lat="42.713010418604654" lon="12.28880598059317"><ele>442.0</ele><time>2026-04-22T10:47:17Z</time></trkpt><trkpt lat="42.71287479456096" lon="12.288849681054181"><ele>442.0</ele><time>2026-04-22T10:47:18Z</time></trkpt><trkpt lat="42.712758392438595" lon="12.288908403325966"><ele>442.0</ele><time>2026-04-22T10:47:19Z</time></trkpt><trkpt lat="42.71263753575596" lon="12.288974269353867"><ele>442.0</ele><time>2026-04-22T10:47:20Z</time></trkpt><trkpt lat="42.71251450140561" lon="12.289069848013577"><ele>446.6666666666667</ele><time>2026-04-22T10:47:21Z</time></trkpt><trkpt lat="42.71238802110857" lon="12.289175500856715"><ele>451.33333333333337</ele><time>2026-04-22T10:47:22Z</time></trkpt><trkpt lat="42.712262978107816" lon="12.289288243245883"><ele>456.0</ele><time>2026-04-22T10:47:23Z</time></trkpt><trkpt lat="42.71211675881502" lon="12.289382977209844"><ele>456.0</ele><time>2026-04-22T10:47:24Z</time></trkpt><trkpt lat="42.71198300836617" lon="12.28948081694684"><ele>456.0</ele><time>2026-04-22T10:47:25Z</time></trkpt><trkpt lat="42.71185652124475" lon="12.289557821643816"><ele>456.0</ele><time>2026-04-22T10:47:26Z</time></trkpt><trkpt lat="42.71174796340109" lon="12.289631648854993"><ele>456.0</ele><time>2026-04-22T10:47:27Z</time></trkpt><trkpt lat="42.711653361428645" lon="12.289620832544772"><ele>455.6</ele><time>2026-04-22T10:47:28Z</time></trkpt><trkpt lat="42.71155341917378" lon="12.289566948389124"><ele>455.20000000000005</ele><time>2026-04-22T10:47:30Z</time></trkpt><trkpt lat="42.71147394348533" lon="12.289559553143544"><ele>454.79999999999995</ele><time>2026-04-22T10:47:32Z</time></trkpt><trkpt lat="42.71140477267072" lon="12.2897007214493"><ele>454.4</ele><time>2026-04-22T10:47:33Z</time></trkpt><trkpt lat="42.711331950206315" lon="12.289817510774775"><ele>454.0</ele><time>2026-04-22T10:47:34Z</time></trkpt><trkpt lat="42.71123532932199" lon="12.289887579521167"><ele>456.5</ele><time>2026-04-22T10:47:35Z</time></trkpt><trkpt lat="42.71113073148087" lon="12.29000648271231"><ele>459.0</ele><time>2026-04-22T10:47:36Z</time></trkpt><trkpt lat="42.71100794173239" lon="12.29006596592373"><ele>461.5</ele><time>2026-04-22T10:47:37Z</time></trkpt><trkpt lat="42.71088543707146" lon="12.290074859537514"><ele>464.0</ele><time>2026-04-22T10:47:38Z</time></trkpt><trkpt lat="42.71075098734487" lon="12.290042471915521"><ele>464.0</ele><time>2026-04-22T10:47:39Z</time></trkpt><trkpt lat="42.71059643857235" lon="12.290002442466863"><ele>464.0</ele><time>2026-04-22T10:47:40Z</time></trkpt><trkpt lat="42.710425637937924" lon="12.289981834470899"><ele>464.0</ele><time>2026-04-22T10:47:41Z</time></trkpt><trkpt lat="42.71025903184232" lon="12.289964719420793"><ele>466.0</ele><time>2026-04-22T10:47:42Z</time></trkpt><trkpt lat="42.71009227921128" lon="12.289985381951679"><ele>468.0</ele><time>2026-04-22T10:47:43Z</time></trkpt><trkpt lat="42.7099185937644" lon="12.290011013748938"><ele>470.0</ele><time>2026-04-22T10:47:44Z</time></trkpt><trkpt lat="42.70974988248652" lon="12.290033958408605"><ele>470.0</ele><time>2026-04-22T10:47:45Z</time></trkpt><trkpt lat="42.709591413562414" lon="12.2901250165279"><ele>470.0</ele><time>2026-04-22T10:47:46Z</time></trkpt><trkpt lat="42.70943599952924" lon="12.290164919069564"><ele>470.0</ele><time>2026-04-22T10:47:47Z</time></trkpt><trkpt lat="42.70931163445441" lon="12.290169818261885"><ele>471.5</ele><time>2026-04-22T10:47:48Z</time></trkpt><trkpt lat="42.7092016148067" lon="12.290124299060933"><ele>473.0</ele><time>2026-04-22T10:47:49Z</time></trkpt><trkpt lat="42.709088016107316" lon="12.290052192772462"><ele>474.5</ele><time>2026-04-22T10:47:50Z</time></trkpt><trkpt lat="42.708950390394975" lon="12.289965106629467"><ele>476.0</ele><time>2026-04-22T10:47:51Z</time></trkpt><trkpt lat="42.70880981440368" lon="12.289914849004042"><ele>476.0</ele><time>2026-04-22T10:47:52Z</time></trkpt><trkpt lat="42.70866708962273" lon="12.289901535885887"><ele>476.0</ele><time>2026-04-22T10:47:53Z</time></trkpt><trkpt lat="42.70851291559555" lon="12.289938276160704"><ele>476.0</ele><time>2026-04-22T10:47:54Z</time></trkpt><trkpt lat="42.708361155395146" lon="12.290012507071948"><ele>476.66666666666663</ele><time>2026-04-22T10:47:55Z</time></trkpt><trkpt lat="42.70822545654599" lon="12.29009548456248"><ele>477.33333333333337</ele><time>2026-04-22T10:47:56Z</time></trkpt><trkpt lat="42.70812585582869" lon="12.29026380929915"><ele>478.0</ele><time>2026-04-22T10:47:57Z</time></trkpt><trkpt lat="42.70801705533521" lon="12.290426252208855"><ele>482.6666666666667</ele><time>2026-04-22T10:47:58Z</time></trkpt><trkpt lat="42.70791360481422" lon="12.290596359729552"><ele>487.33333333333337</ele><time>2026-04-22T10:47:59Z</time></trkpt><trkpt lat="42.70781672949351" lon="12.290778315638752"><ele>492.0</ele><time>2026-04-22T10:48:00Z</time></trkpt><trkpt lat="42.707754848711154" lon="12.290957146944672"><ele>491.0</ele><time>2026-04-22T10:48:01Z</time></trkpt><trkpt lat="42.70772467327546" lon="12.291094639589732"><ele>490.00000000000006</ele><time>2026-04-22T10:48:02Z</time></trkpt><trkpt lat="42.707723995824495" lon="12.291213922027417"><ele>489.00000000000006</ele><time>2026-04-22T10:48:03Z</time></trkpt><trkpt lat="42.707740103580264" lon="12.291342629592885"><ele>488.0</ele><time>2026-04-22T10:48:04Z</time></trkpt><trkpt lat="42.70774020246891" lon="12.29148876060097"><ele>487.0</ele><time>2026-04-22T10:48:05Z</time></trkpt><trkpt lat="42.707758475986566" lon="12.291645370616841"><ele>487.0</ele><time>2026-04-22T10:48:06Z</time></trkpt><trkpt lat="42.70774896592663" lon="12.291806519010938"><ele>487.0</ele><time>2026-04-22T10:48:07Z</time></trkpt><trkpt lat="42.70769928872969" lon="12.291964971497329"><ele>487.0</ele><time>2026-04-22T10:48:08Z</time></trkpt><trkpt lat="42.707639143254134" lon="12.292124512811498"><ele>487.0</ele><time>2026-04-22T10:48:09Z</time></trkpt><trkpt lat="42.707577752867124" lon="12.292292544630534"><ele>490.5</ele><time>2026-04-22T10:48:10Z</time></trkpt><trkpt lat="42.70750146739468" lon="12.292451899934823"><ele>494.0</ele><time>2026-04-22T10:48:11Z</time></trkpt><trkpt lat="42.70741025869633" lon="12.29259598720512"><ele>497.5</ele><time>2026-04-22T10:48:12Z</time></trkpt><trkpt lat="42.70729895633226" lon="12.292705487280779"><ele>501.0</ele><time>2026-04-22T10:48:13Z</time></trkpt><trkpt lat="42.70718118387566" lon="12.292793668846713"><ele>501.0</ele><time>2026-04-22T10:48:14Z</time></trkpt><trkpt lat="42.707061639043985" lon="12.292844495834867"><ele>501.0</ele><time>2026-04-22T10:48:15Z</time></trkpt><trkpt lat="42.706936793324374" lon="12.292869394261565"><ele>501.0</ele><time>2026-04-22T10:48:16Z</time></trkpt><trkpt lat="42.70681895820546" lon="12.292872520152375"><ele>501.0</ele><time>2026-04-22T10:48:17Z</time></trkpt><trkpt lat="42.70669429396292" lon="12.292845519531014"><ele>500.75</ele><time>2026-04-22T10:48:18Z</time></trkpt><trkpt lat="42.70656873696954" lon="12.292789649910196"><ele>500.5</ele><time>2026-04-22T10:48:19Z</time></trkpt><trkpt lat="42.70643389816082" lon="12.292739549132696"><ele>500.25</ele><time>2026-04-22T10:48:20Z</time></trkpt><trkpt lat="42.70631971368438" lon="12.292668229479405"><ele>500.0</ele><time>2026-04-22T10:48:21Z</time></trkpt><trkpt lat="42.70622450427523" lon="12.292608065571214"><ele>499.99999999999994</ele><time>2026-04-22T10:48:22Z</time></trkpt><trkpt lat="42.70614009333739" lon="12.292586797451397"><ele>500.0</ele><time>2026-04-22T10:48:23Z</time></trkpt><trkpt lat="42.706066024998364" lon="12.292617105956342"><ele>500.0</ele><time>2026-04-22T10:48:24Z</time></trkpt><trkpt lat="42.70601065154202" lon="12.292698292088028"><ele>500.0</ele><time>2026-04-22T10:48:25Z</time></trkpt><trkpt lat="42.70598005684619" lon="12.292816904708564"><ele>499.99999999999994</ele><time>2026-04-22T10:48:26Z</time></trkpt><trkpt lat="42.70596884123892" lon="12.292966897582295"><ele>500.0</ele><time>2026-04-22T10:48:27Z</time></trkpt><trkpt lat="42.705927300239885" lon="12.29313256908076"><ele>500.25</ele><time>2026-04-22T10:48:28Z</time></trkpt><trkpt lat="42.70590297381454" lon="12.293307191092048"><ele>500.5</ele><time>2026-04-22T10:48:29Z</time></trkpt><trkpt lat="42.70589563395527" lon="12.293485599396513"><ele>500.75</ele><time>2026-04-22T10:48:30Z</time></trkpt><trkpt lat="42.70586721617727" lon="12.293666451053385"><ele>501.0</ele><time>2026-04-22T10:48:31Z</time></trkpt><trkpt lat="42.70581115938209" lon="12.293841722101158"><ele>504.0</ele><time>2026-04-22T10:48:32Z</time></trkpt><trkpt lat="42.705786392432564" lon="12.294007898694591"><ele>507.0</ele><time>2026-04-22T10:48:33Z</time></trkpt><trkpt lat="42.70575609026033" lon="12.294170978373272"><ele>510.0</ele><time>2026-04-22T10:48:34Z</time></trkpt><trkpt lat="42.70575137852592" lon="12.294348214225082"><ele>513.0</ele><time>2026-04-22T10:48:35Z</time></trkpt><trkpt lat="42.70576099292102" lon="12.294536852251547"><ele>513.0</ele><time>2026-04-22T10:48:36Z</time></trkpt><trkpt lat="42.70577119463552" lon="12.294731008946119"><ele>513.0</ele><time>2026-04-22T10:48:37Z</time></trkpt><trkpt lat="42.70577646971009" lon="12.294903344267055"><ele>513.0</ele><time>2026-04-22T10:48:38Z</time></trkpt><trkpt lat="42.70579974321748" lon="12.295059271630455"><ele>513.0</ele><time>2026-04-22T10:48:39Z</time></trkpt><trkpt lat="42.70585051211076" lon="12.29521007530137"><ele>512.75</ele><time>2026-04-22T10:48:40Z</time></trkpt><trkpt lat="42.70592743648473" lon="12.295362297785827"><ele>512.5</ele><time>2026-04-22T10:48:41Z</time></trkpt><trkpt lat="42.7060208184187" lon="12.295518687676918"><ele>512.25</ele><time>2026-04-22T10:48:42Z</time></trkpt><trkpt lat="42.70612704001347" lon="12.295672521829687"><ele>512.0</ele><time>2026-04-22T10:48:43Z</time></trkpt><trkpt lat="42.70624083191124" lon="12.295818879493309"><ele>517.6666666666666</ele><time>2026-04-22T10:48:44Z</time></trkpt><trkpt lat="42.70635445483842" lon="12.295984570282904"><ele>523.3333333333334</ele><time>2026-04-22T10:48:45Z</time></trkpt><trkpt lat="42.70647381153724" lon="12.296151304297293"><ele>529.0</ele><time>2026-04-22T10:48:46Z</time></trkpt><trkpt lat="42.70660981342039" lon="12.296316972561232"><ele>529.3333333333334</ele><time>2026-04-22T10:48:47Z</time></trkpt><trkpt lat="42.70675902712333" lon="12.29647087884221"><ele>529.6666666666666</ele><time>2026-04-22T10:48:48Z</time></trkpt><trkpt lat="42.70690306913575" lon="12.296628872856388"><ele>530.0</ele><time>2026-04-22T10:48:49Z</time></trkpt><trkpt lat="42.70704701886725" lon="12.296799350886708"><ele>530.0</ele><time>2026-04-22T10:48:50Z</time></trkpt><trkpt lat="42.7071930731165" lon="12.296975147978134"><ele>530.0</ele><time>2026-04-22T10:48:51Z</time></trkpt><trkpt lat="42.70733901994733" lon="12.297146923212281"><ele>530.0</ele><time>2026-04-22T10:48:52Z</time></trkpt><trkpt lat="42.707478306362574" lon="12.297309053115917"><ele>531.0</ele><time>2026-04-22T10:48:53Z</time></trkpt><trkpt lat="42.70760450974811" lon="12.29746750169801"><ele>532.0</ele><time>2026-04-22T10:48:54Z</time></trkpt><trkpt lat="42.707704461146854" lon="12.297641744939112"><ele>533.0</ele><time>2026-04-22T10:48:55Z</time></trkpt><trkpt lat="42.70779863577351" lon="12.29778170814797"><ele>533.0</ele><time>2026-04-22T10:48:56Z</time></trkpt><trkpt lat="42.707838792852435" lon="12.297949751898617"><ele>533.0</ele><time>2026-04-22T10:48:57Z</time></trkpt><trkpt lat="42.707867452141336" lon="12.298108168397915"><ele>533.0</ele><time>2026-04-22T10:48:58Z</time></trkpt><trkpt lat="42.7078779669341" lon="12.298270574063313"><ele>533.0</ele><time>2026-04-22T10:48:59Z</time></trkpt><trkpt lat="42.70785794559163" lon="12.29840657045744"><ele>533.0</ele><time>2026-04-22T10:49:00Z</time></trkpt><trkpt lat="42.707820477878435" lon="12.29853887035403"><ele>533.0</ele><time>2026-04-22T10:49:01Z</time></trkpt><trkpt lat="42.707760936231345" lon="12.298682179295715"><ele>533.0</ele><time>2026-04-22T10:49:02Z</time></trkpt><trkpt lat="42.70769082675082" lon="12.298846952828288"><ele>533.0</ele><time>2026-04-22T10:49:03Z</time></trkpt><trkpt lat="42.70761194039635" lon="12.299016527386133"><ele>533.0</ele><time>2026-04-22T10:49:04Z</time></trkpt><trkpt lat="42.70752042513826" lon="12.299180138060693"><ele>533.0</ele><time>2026-04-22T10:49:05Z</time></trkpt><trkpt lat="42.70741800608175" lon="12.29932012419011"><ele>533.0</ele><time>2026-04-22T10:49:06Z</time></trkpt><trkpt lat="42.70730285343213" lon="12.299419405368186"><ele>533.0</ele><time>2026-04-22T10:49:07Z</time></trkpt><trkpt lat="42.70716476247069" lon="12.299530142554165"><ele>533.0</ele><time>2026-04-22T10:49:08Z</time></trkpt><trkpt lat="42.70702492050698" lon="12.299640283623688"><ele>533.0</ele><time>2026-04-22T10:49:09Z</time></trkpt><trkpt lat="42.706878622685444" lon="12.299755528011506"><ele>533.0</ele><time>2026-04-22T10:49:10Z</time></trkpt><trkpt lat="42.706719918562534" lon="12.299875157123846"><ele>536.6666666666666</ele><time>2026-04-22T10:49:11Z</time></trkpt><trkpt lat="42.706568379946006" lon="12.299981739368354"><ele>540.3333333333334</ele><time>2026-04-22T10:49:12Z</time></trkpt><trkpt lat="42.70640400888958" lon="12.300077298090415"><ele>544.0</ele><time>2026-04-22T10:49:13Z</time></trkpt><trkpt lat="42.70623544594753" lon="12.300164206862144"><ele>544.0</ele><time>2026-04-22T10:49:14Z</time></trkpt><trkpt lat="42.706064317757125" lon="12.300247145648246"><ele>544.0</ele><time>2026-04-22T10:49:15Z</time></trkpt><trkpt lat="42.70589319254163" lon="12.300324817965445"><ele>544.0</ele><time>2026-04-22T10:49:16Z</time></trkpt><trkpt lat="42.70571823385811" lon="12.300398961398582"><ele>544.0</ele><time>2026-04-22T10:49:17Z</time></trkpt><trkpt lat="42.70553878759555" lon="12.300470727898766"><ele>544.0</ele><time>2026-04-22T10:49:18Z</time></trkpt><trkpt lat="42.705372801433626" lon="12.300535807883232"><ele>544.0</ele><time>2026-04-22T10:49:19Z</time></trkpt><trkpt lat="42.7052187187963" lon="12.300593414960785"><ele>549.6666666666667</ele><time>2026-04-22T10:49:20Z</time></trkpt><trkpt lat="42.705068729439176" lon="12.300631785070772"><ele>555.3333333333334</ele><time>2026-04-22T10:49:21Z</time></trkpt><trkpt lat="42.70490807013945" lon="12.300639120558237"><ele>561.0</ele><time>2026-04-22T10:49:22Z</time></trkpt><trkpt lat="42.704762986541574" lon="12.30064192373452"><ele>561.0</ele><time>2026-04-22T10:49:23Z</time></trkpt><trkpt lat="42.704638988048835" lon="12.30066681493338"><ele>561.0</ele><time>2026-04-22T10:49:24Z</time></trkpt><trkpt lat="42.704532401468256" lon="12.300670020617426"><ele>561.0</ele><time>2026-04-22T10:49:25Z</time></trkpt><trkpt lat="42.7044405688131" lon="12.300699968547166"><ele>561.0</ele><time>2026-04-22T10:49:26Z</time></trkpt><trkpt lat="42.704382026270466" lon="12.300764578780607"><ele>561.0</ele><time>2026-04-22T10:49:27Z</time></trkpt><trkpt lat="42.70434329409473" lon="12.300833206194985"><ele>561.0</ele><time>2026-04-22T10:49:28Z</time></trkpt><trkpt lat="42.70435718426104" lon="12.300949198874765"><ele>561.0</ele><time>2026-04-22T10:49:29Z</time></trkpt><trkpt lat="42.70445146244247" lon="12.301022827985395"><ele>561.0</ele><time>2026-04-22T10:49:30Z</time></trkpt><trkpt lat="42.70455463769471" lon="12.301078275746335"><ele>561.0</ele><time>2026-04-22T10:49:31Z</time></trkpt><trkpt lat="42.70467289204689" lon="12.301138489137175"><ele>561.0</ele><time>2026-04-22T10:49:32Z</time></trkpt><trkpt lat="42.704786399148794" lon="12.30121850180709"><ele>561.0</ele><time>2026-04-22T10:49:33Z</time></trkpt><trkpt lat="42.704900327597436" lon="12.301318060323897"><ele>561.0</ele><time>2026-04-22T10:49:34Z</time></trkpt><trkpt lat="42.70501721814753" lon="12.30144283145867"><ele>561.0</ele><time>2026-04-22T10:49:35Z</time></trkpt><trkpt lat="42.705128834539565" lon="12.301585361000553"><ele>561.0</ele><time>2026-04-22T10:49:36Z</time></trkpt><trkpt lat="42.705226957716846" lon="12.301736869272002"><ele>564.0</ele><time>2026-04-22T10:49:37Z</time></trkpt><trkpt lat="42.70531922767086" lon="12.30190290615269"><ele>567.0</ele><time>2026-04-22T10:49:38Z</time></trkpt><trkpt lat="42.70539502328752" lon="12.302087731738974"><ele>570.0</ele><time>2026-04-22T10:49:39Z</time></trkpt><trkpt lat="42.70548216645754" lon="12.30226861515351"><ele>573.0</ele><time>2026-04-22T10:49:40Z</time></trkpt><trkpt lat="42.70556415485153" lon="12.302456080161617"><ele>576.0</ele><time>2026-04-22T10:49:41Z</time></trkpt><trkpt lat="42.70564212111932" lon="12.30265030107589"><ele>579.0</ele><time>2026-04-22T10:49:42Z</time></trkpt><trkpt lat="42.705726173267564" lon="12.302845457224793"><ele>579.0</ele><time>2026-04-22T10:49:43Z</time></trkpt><trkpt lat="42.7058245061236" lon="12.302999130455621"><ele>579.0</ele><time>2026-04-22T10:49:44Z</time></trkpt><trkpt lat="42.70590607046916" lon="12.303121911194161"><ele>579.0</ele><time>2026-04-22T10:49:45Z</time></trkpt><trkpt lat="42.70595639774329" lon="12.303234383474813"><ele>579.0</ele><time>2026-04-22T10:49:46Z</time></trkpt><trkpt lat="42.70598319176302" lon="12.30331273947844"><ele>579.0</ele><time>2026-04-22T10:49:47Z</time></trkpt><trkpt lat="42.70593769527434" lon="12.303438089740407"><ele>581.0</ele><time>2026-04-22T10:49:49Z</time></trkpt><trkpt lat="42.70586991570376" lon="12.303457008601129"><ele>583.0</ele><time>2026-04-22T10:49:50Z</time></trkpt><trkpt lat="42.705782436317065" lon="12.30341574705822"><ele>585.0</ele><time>2026-04-22T10:49:51Z</time></trkpt><trkpt lat="42.70568584546124" lon="12.303334650945699"><ele>587.0</ele><time>2026-04-22T10:49:52Z</time></trkpt><trkpt lat="42.7055837935125" lon="12.303228362454702"><ele>589.0</ele><time>2026-04-22T10:49:53Z</time></trkpt><trkpt lat="42.70547402020227" lon="12.303128154769386"><ele>589.25</ele><time>2026-04-22T10:49:54Z</time></trkpt><trkpt lat="42.7053564138493" lon="12.303041453990382"><ele>589.5</ele><time>2026-04-22T10:49:55Z</time></trkpt><trkpt lat="42.70522465498822" lon="12.302950187648323"><ele>589.75</ele><time>2026-04-22T10:49:56Z</time></trkpt><trkpt lat="42.705082585488725" lon="12.302862101978436"><ele>590.0</ele><time>2026-04-22T10:49:57Z</time></trkpt><trkpt lat="42.70493158344379" lon="12.302787885123248"><ele>590.0</ele><time>2026-04-22T10:49:58Z</time></trkpt><trkpt lat="42.704775191145096" lon="12.302741906159783"><ele>590.0</ele><time>2026-04-22T10:49:59Z</time></trkpt><trkpt lat="42.7046040614366" lon="12.302717688796871"><ele>590.0</ele><time>2026-04-22T10:50:00Z</time></trkpt><trkpt lat="42.70442906188156" lon="12.302700672468678"><ele>592.3333333333333</ele><time>2026-04-22T10:50:01Z</time></trkpt><trkpt lat="42.70424387806929" lon="12.30268501775873"><ele>594.6666666666666</ele><time>2026-04-22T10:50:02Z</time></trkpt><trkpt lat="42.70405866214472" lon="12.302678095185584"><ele>597.0</ele><time>2026-04-22T10:50:03Z</time></trkpt><trkpt lat="42.70388810453693" lon="12.302703549548383"><ele>597.0</ele><time>2026-04-22T10:50:04Z</time></trkpt><trkpt lat="42.70372012759556" lon="12.302759636736107"><ele>597.0</ele><time>2026-04-22T10:50:05Z</time></trkpt><trkpt lat="42.70356023948312" lon="12.302843669855477"><ele>597.0</ele><time>2026-04-22T10:50:06Z</time></trkpt><trkpt lat="42.70339446233129" lon="12.302931731588828"><ele>595.3333333333334</ele><time>2026-04-22T10:50:07Z</time></trkpt><trkpt lat="42.703235441490165" lon="12.30302172911315"><ele>593.6666666666667</ele><time>2026-04-22T10:50:08Z</time></trkpt><trkpt lat="42.703068095928316" lon="12.303100293868713"><ele>592.0</ele><time>2026-04-22T10:50:09Z</time></trkpt><trkpt lat="42.702921647732964" lon="12.303167501941338"><ele>598.0</ele><time>2026-04-22T10:50:10Z</time></trkpt><trkpt lat="42.70280151284347" lon="12.30323256692733"><ele>604.0</ele><time>2026-04-22T10:50:11Z</time></trkpt><trkpt lat="42.70271690806784" lon="12.303311686403214"><ele>610.0</ele><time>2026-04-22T10:50:12Z</time></trkpt><trkpt lat="42.702668766735805" lon="12.303420159474781"><ele>616.0</ele><time>2026-04-22T10:50:13Z</time></trkpt><trkpt lat="42.70265190917754" lon="12.303557287182308"><ele>622.0</ele><time>2026-04-22T10:50:14Z</time></trkpt><trkpt lat="42.702647093118244" lon="12.303702508918803"><ele>622.0</ele><time>2026-04-22T10:50:15Z</time></trkpt><trkpt lat="42.70261162041167" lon="12.303815371642038"><ele>622.0</ele><time>2026-04-22T10:50:16Z</time></trkpt><trkpt lat="42.70254648479546" lon="12.303870319691248"><ele>622.0</ele><time>2026-04-22T10:50:17Z</time></trkpt><trkpt lat="42.702457109584905" lon="12.303849748826687"><ele>622.0</ele><time>2026-04-22T10:50:18Z</time></trkpt><trkpt lat="42.702367315359254" lon="12.303769588479327"><ele>622.0</ele><time>2026-04-22T10:50:19Z</time></trkpt><trkpt lat="42.702261263889746" lon="12.303694735519802"><ele>622.0</ele><time>2026-04-22T10:50:20Z</time></trkpt><trkpt lat="42.70217318446706" lon="12.303540693685752"><ele>622.0</ele><time>2026-04-22T10:50:21Z</time></trkpt><trkpt lat="42.70208843428053" lon="12.303372505156737"><ele>622.0</ele><time>2026-04-22T10:50:22Z</time></trkpt><trkpt lat="42.702023971101504" lon="12.303195798311322"><ele>622.0</ele><time>2026-04-22T10:50:23Z</time></trkpt><trkpt lat="42.70195926062676" lon="12.303036896269683"><ele>623.0</ele><time>2026-04-22T10:50:24Z</time></trkpt><trkpt lat="42.70189233829771" lon="12.302902742693663"><ele>624.0</ele><time>2026-04-22T10:50:25Z</time></trkpt><trkpt lat="42.70179037420663" lon="12.302805966588316"><ele>625.0</ele><time>2026-04-22T10:50:26Z</time></trkpt><trkpt lat="42.701657279684106" lon="12.302730033124204"><ele>626.0</ele><time>2026-04-22T10:50:27Z</time></trkpt><trkpt lat="42.70150855668628" lon="12.302684042958688"><ele>626.0</ele><time>2026-04-22T10:50:28Z</time></trkpt><trkpt lat="42.70135416257709" lon="12.302673723433148"><ele>626.0</ele><time>2026-04-22T10:50:29Z</time></trkpt><trkpt lat="42.701195467095076" lon="12.302703840701666"><ele>626.0</ele><time>2026-04-22T10:50:30Z</time></trkpt><trkpt lat="42.70102845029112" lon="12.302754866515253"><ele>629.0</ele><time>2026-04-22T10:50:31Z</time></trkpt><trkpt lat="42.70086691247866" lon="12.302810468837707"><ele>632.0</ele><time>2026-04-22T10:50:32Z</time></trkpt><trkpt lat="42.70070201526431" lon="12.302867364239281"><ele>635.0</ele><time>2026-04-22T10:50:33Z</time></trkpt><trkpt lat="42.7005388034941" lon="12.302930165298234"><ele>635.0</ele><time>2026-04-22T10:50:34Z</time></trkpt><trkpt lat="42.70039164587994" lon="12.30301901156529"><ele>635.0</ele><time>2026-04-22T10:50:35Z</time></trkpt><trkpt lat="42.70025793766814" lon="12.303139313456608"><ele>635.0</ele><time>2026-04-22T10:50:36Z</time></trkpt><trkpt lat="42.70013647997977" lon="12.303284080648579"><ele>639.3333333333333</ele><time>2026-04-22T10:50:37Z</time></trkpt><trkpt lat="42.700027053764856" lon="12.303446967014827"><ele>643.6666666666666</ele><time>2026-04-22T10:50:38Z</time></trkpt><trkpt lat="42.69989527281591" lon="12.30361488611721"><ele>648.0</ele><time>2026-04-22T10:50:39Z</time></trkpt><trkpt lat="42.699748280013196" lon="12.303745615243054"><ele>648.0</ele><time>2026-04-22T10:50:40Z</time></trkpt><trkpt lat="42.69958808850687" lon="12.303875093529834"><ele>648.0</ele><time>2026-04-22T10:50:41Z</time></trkpt><trkpt lat="42.699441035482735" lon="12.304011655824938"><ele>648.0</ele><time>2026-04-22T10:50:42Z</time></trkpt><trkpt lat="42.69931634212038" lon="12.304154196998045"><ele>652.25</ele><time>2026-04-22T10:50:43Z</time></trkpt><trkpt lat="42.699203717741156" lon="12.304283082911022"><ele>656.5</ele><time>2026-04-22T10:50:44Z</time></trkpt><trkpt lat="42.69908564854405" lon="12.304339626171704"><ele>660.75</ele><time>2026-04-22T10:50:45Z</time></trkpt><trkpt lat="42.69897092310483" lon="12.304372694132992"><ele>665.0</ele><time>2026-04-22T10:50:46Z</time></trkpt><trkpt lat="42.698834684918666" lon="12.304295932819189"><ele>665.0</ele><time>2026-04-22T10:50:47Z</time></trkpt><trkpt lat="42.698677974796276" lon="12.304292534900712"><ele>665.0</ele><time>2026-04-22T10:50:48Z</time></trkpt><trkpt lat="42.6985155070973" lon="12.30427284459007"><ele>665.0</ele><time>2026-04-22T10:50:49Z</time></trkpt><trkpt lat="42.698362567203745" lon="12.304237176668352"><ele>668.6666666666666</ele><time>2026-04-22T10:50:50Z</time></trkpt><trkpt lat="42.6982053319519" lon="12.304193991455527"><ele>672.3333333333334</ele><time>2026-04-22T10:50:51Z</time></trkpt><trkpt lat="42.69804569508007" lon="12.304169173041801"><ele>676.0</ele><time>2026-04-22T10:50:52Z</time></trkpt><trkpt lat="42.69788715837671" lon="12.304125541871269"><ele>677.6666666666667</ele><time>2026-04-22T10:50:53Z</time></trkpt><trkpt lat="42.69773121280028" lon="12.304044097805537"><ele>679.3333333333334</ele><time>2026-04-22T10:50:54Z</time></trkpt><trkpt lat="42.697589202150915" lon="12.30395169797568"><ele>681.0</ele><time>2026-04-22T10:50:55Z</time></trkpt><trkpt lat="42.697457977773674" lon="12.303842976607253"><ele>681.0</ele><time>2026-04-22T10:50:56Z</time></trkpt><trkpt lat="42.697341465034185" lon="12.303710796699942"><ele>681.0</ele><time>2026-04-22T10:50:57Z</time></trkpt><trkpt lat="42.69723065967193" lon="12.303559848938937"><ele>681.0</ele><time>2026-04-22T10:50:58Z</time></trkpt><trkpt lat="42.69715915614794" lon="12.303419444973535"><ele>681.0</ele><time>2026-04-22T10:50:59Z</time></trkpt><trkpt lat="42.69711416801476" lon="12.303279184426742"><ele>681.0</ele><time>2026-04-22T10:51:00Z</time></trkpt><trkpt lat="42.69710122440601" lon="12.303124259120471"><ele>681.0</ele><time>2026-04-22T10:51:01Z</time></trkpt><trkpt lat="42.6971112542203" lon="12.302954830135475"><ele>681.0</ele><time>2026-04-22T10:51:02Z</time></trkpt><trkpt lat="42.697128774106176" lon="12.302770968298326"><ele>681.0</ele><time>2026-04-22T10:51:03Z</time></trkpt><trkpt lat="42.69714322027085" lon="12.302577620914578"><ele>682.25</ele><time>2026-04-22T10:51:04Z</time></trkpt><trkpt lat="42.697166545848674" lon="12.302395673663243"><ele>683.5</ele><time>2026-04-22T10:51:05Z</time></trkpt><trkpt lat="42.69718002969728" lon="12.302218209935141"><ele>684.75</ele><time>2026-04-22T10:51:06Z</time></trkpt><trkpt lat="42.697179163312484" lon="12.302054715761564"><ele>686.0</ele><time>2026-04-22T10:51:07Z</time></trkpt><trkpt lat="42.6971602030388" lon="12.301932001976308"><ele>686.1999999999999</ele><time>2026-04-22T10:51:08Z</time></trkpt><trkpt lat="42.697057481176" lon="12.301859124328521"><ele>686.4</ele><time>2026-04-22T10:51:10Z</time></trkpt><trkpt lat="42.69699633413628" lon="12.301881363146885"><ele>686.6</ele><time>2026-04-22T10:51:11Z</time></trkpt><trkpt lat="42.69694126156721" lon="12.301960551208706"><ele>686.8</ele><time>2026-04-22T10:51:12Z</time></trkpt><trkpt lat="42.69691810950014" lon="12.302082309044366"><ele>687.0</ele><time>2026-04-22T10:51:13Z</time></trkpt><trkpt lat="42.696929051441565" lon="12.302227306596668"><ele>694.0</ele><time>2026-04-22T10:51:14Z</time></trkpt><trkpt lat="42.69691567605599" lon="12.302392040236457"><ele>701.0</ele><time>2026-04-22T10:51:15Z</time></trkpt><trkpt lat="42.69687154324603" lon="12.302547119591283"><ele>708.0</ele><time>2026-04-22T10:51:16Z</time></trkpt><trkpt lat="42.69681160475072" lon="12.302715890310841"><ele>715.0</ele><time>2026-04-22T10:51:17Z</time></trkpt><trkpt lat="42.69674665436008" lon="12.302894196402093"><ele>713.5</ele><time>2026-04-22T10:51:18Z</time></trkpt><trkpt lat="42.69667645342793" lon="12.303084031459825"><ele>712.0</ele><time>2026-04-22T10:51:19Z</time></trkpt><trkpt lat="42.69660510975509" lon="12.303264389812421"><ele>710.5</ele><time>2026-04-22T10:51:20Z</time></trkpt><trkpt lat="42.69653651821971" lon="12.303413493308884"><ele>709.0</ele><time>2026-04-22T10:51:21Z</time></trkpt><trkpt lat="42.69646364311169" lon="12.303526870793014"><ele>709.0</ele><time>2026-04-22T10:51:22Z</time></trkpt><trkpt lat="42.69636746643912" lon="12.303604108298167"><ele>709.0</ele><time>2026-04-22T10:51:23Z</time></trkpt><trkpt lat="42.69626453974225" lon="12.303669913671461"><ele>709.0</ele><time>2026-04-22T10:51:24Z</time></trkpt><trkpt lat="42.696170472371264" lon="12.303720206468375"><ele>709.0</ele><time>2026-04-22T10:51:25Z</time></trkpt><trkpt lat="42.696081070713035" lon="12.303664738834682"><ele>709.0</ele><time>2026-04-22T10:51:26Z</time></trkpt><trkpt lat="42.695988845851325" lon="12.303607622326844"><ele>712.75</ele><time>2026-04-22T10:51:27Z</time></trkpt><trkpt lat="42.69587293845213" lon="12.3035372767404"><ele>716.5</ele><time>2026-04-22T10:51:28Z</time></trkpt><trkpt lat="42.695749786066" lon="12.303462534081719"><ele>720.25</ele><time>2026-04-22T10:51:29Z</time></trkpt><trkpt lat="42.695617051813095" lon="12.303382706242425"><ele>724.0</ele><time>2026-04-22T10:51:30Z</time></trkpt><trkpt lat="42.69546962631773" lon="12.303324527459155"><ele>724.0</ele><time>2026-04-22T10:51:31Z</time></trkpt><trkpt lat="42.69534227909712" lon="12.303257222106051"><ele>724.0</ele><time>2026-04-22T10:51:32Z</time></trkpt><trkpt lat="42.69523357981353" lon="12.303225523903194"><ele>724.0</ele><time>2026-04-22T10:51:33Z</time></trkpt><trkpt lat="42.695149231467866" lon="12.303213624422588"><ele>724.0</ele><time>2026-04-22T10:51:34Z</time></trkpt><trkpt lat="42.69508169651811" lon="12.30330226047013"><ele>724.0</ele><time>2026-04-22T10:51:35Z</time></trkpt><trkpt lat="42.695032665632105" lon="12.303385198705797"><ele>725.2</ele><time>2026-04-22T10:51:36Z</time></trkpt><trkpt lat="42.69502688517143" lon="12.303525393011602"><ele>726.4000000000001</ele><time>2026-04-22T10:51:37Z</time></trkpt><trkpt lat="42.69503031484515" lon="12.303648099811037"><ele>727.6</ele><time>2026-04-22T10:51:38Z</time></trkpt><trkpt lat="42.69503657842747" lon="12.303794540099565"><ele>728.8</ele><time>2026-04-22T10:51:39Z</time></trkpt><trkpt lat="42.695040091144286" lon="12.30394917781303"><ele>730.0</ele><time>2026-04-22T10:51:40Z</time></trkpt><trkpt lat="42.69503923205857" lon="12.304123813426871"><ele>730.5</ele><time>2026-04-22T10:51:41Z</time></trkpt><trkpt lat="42.69503983393296" lon="12.304298950378955"><ele>731.0</ele><time>2026-04-22T10:51:42Z</time></trkpt><trkpt lat="42.6950373415076" lon="12.304473525874824"><ele>731.5</ele><time>2026-04-22T10:51:43Z</time></trkpt><trkpt lat="42.695034645736555" lon="12.304639528639715"><ele>732.0</ele><time>2026-04-22T10:51:44Z</time></trkpt><trkpt lat="42.695009880926534" lon="12.304803419582969"><ele>732.4000000000001</ele><time>2026-04-22T10:51:45Z</time></trkpt><trkpt lat="42.69498514980108" lon="12.304946943715782"><ele>732.8000000000001</ele><time>2026-04-22T10:51:46Z</time></trkpt><trkpt lat="42.69494062957945" lon="12.305069029803098"><ele>733.2</ele><time>2026-04-22T10:51:47Z</time></trkpt><trkpt lat="42.694881825031175" lon="12.305186309359785"><ele>733.6</ele><time>2026-04-22T10:51:48Z</time></trkpt><trkpt lat="42.69481195436555" lon="12.305285155423055"><ele>734.0</ele><time>2026-04-22T10:51:49Z</time></trkpt><trkpt lat="42.69472115562902" lon="12.305362268670867"><ele>734.0</ele><time>2026-04-22T10:51:50Z</time></trkpt><trkpt lat="42.694605263281034" lon="12.305421077885075"><ele>734.0</ele><time>2026-04-22T10:51:51Z</time></trkpt><trkpt lat="42.6944938082647" lon="12.305522065323938"><ele>734.0</ele><time>2026-04-22T10:51:52Z</time></trkpt><trkpt lat="42.694377622890556" lon="12.305587017840912"><ele>734.0</ele><time>2026-04-22T10:51:53Z</time></trkpt><trkpt lat="42.69430440862928" lon="12.305697566799154"><ele>735.8333333333333</ele><time>2026-04-22T10:51:54Z</time></trkpt><trkpt lat="42.69425238040656" lon="12.305752587333364"><ele>737.6666666666666</ele><time>2026-04-22T10:51:55Z</time></trkpt><trkpt lat="42.694167818736865" lon="12.305738312693975"><ele>739.5</ele><time>2026-04-22T10:51:57Z</time></trkpt><trkpt lat="42.694101044647816" lon="12.30570348711109"><ele>741.3333333333334</ele><time>2026-04-22T10:51:58Z</time></trkpt><trkpt lat="42.694019521913745" lon="12.305624167172152"><ele>743.1666666666667</ele><time>2026-04-22T10:51:59Z</time></trkpt><trkpt lat="42.69390820321485" lon="12.305581017481227"><ele>745.0</ele><time>2026-04-22T10:52:00Z</time></trkpt><trkpt lat="42.693780177682235" lon="12.305500669649044"><ele>745.0</ele><time>2026-04-22T10:52:01Z</time></trkpt><trkpt lat="42.69363529653735" lon="12.305431865034121"><ele>745.0</ele><time>2026-04-22T10:52:02Z</time></trkpt><trkpt lat="42.693470281585725" lon="12.305367048327778"><ele>745.0</ele><time>2026-04-22T10:52:03Z</time></trkpt><trkpt lat="42.69329321300095" lon="12.305288459021948"><ele>740.3333333333334</ele><time>2026-04-22T10:52:04Z</time></trkpt><trkpt lat="42.693111510786075" lon="12.305207359810463"><ele>735.6666666666666</ele><time>2026-04-22T10:52:05Z</time></trkpt><trkpt lat="42.69295325895254" lon="12.305096391816607"><ele>731.0</ele><time>2026-04-22T10:52:06Z</time></trkpt><trkpt lat="42.69282426361546" lon="12.304959931221276"><ele>727.3333333333333</ele><time>2026-04-22T10:52:07Z</time></trkpt><trkpt lat="42.692691671873106" lon="12.304783146634048"><ele>723.6666666666666</ele><time>2026-04-22T10:52:08Z</time></trkpt><trkpt lat="42.69256994581887" lon="12.304603708435002"><ele>720.0</ele><time>2026-04-22T10:52:09Z</time></trkpt><trkpt lat="42.69244272134319" lon="12.30443769621668"><ele>720.0</ele><time>2026-04-22T10:52:10Z</time></trkpt><trkpt lat="42.69229948287321" lon="12.304290941784126"><ele>720.0</ele><time>2026-04-22T10:52:11Z</time></trkpt><trkpt lat="42.69213576541285" lon="12.304161826537232"><ele>720.0</ele><time>2026-04-22T10:52:12Z</time></trkpt><trkpt lat="42.691962540068836" lon="12.30405003769513"><ele>717.6666666666666</ele><time>2026-04-22T10:52:13Z</time></trkpt><trkpt lat="42.69179345655065" lon="12.303938636488665"><ele>715.3333333333333</ele><time>2026-04-22T10:52:14Z</time></trkpt><trkpt lat="42.691631027923755" lon="12.303831711849604"><ele>713.0</ele><time>2026-04-22T10:52:15Z</time></trkpt><trkpt lat="42.69147598777845" lon="12.303729312609583"><ele>713.0</ele><time>2026-04-22T10:52:16Z</time></trkpt><trkpt lat="42.69133856872098" lon="12.30363500458305"><ele>713.0</ele><time>2026-04-22T10:52:17Z</time></trkpt><trkpt lat="42.69121901770529" lon="12.303527448030206"><ele>713.0</ele><time>2026-04-22T10:52:18Z</time></trkpt><trkpt lat="42.691144572502886" lon="12.30336820410182"><ele>713.0</ele><time>2026-04-22T10:52:19Z</time></trkpt><trkpt lat="42.69108559178236" lon="12.303202217205808"><ele>717.0</ele><time>2026-04-22T10:52:20Z</time></trkpt><trkpt lat="42.69102256875424" lon="12.303025213861783"><ele>721.0</ele><time>2026-04-22T10:52:21Z</time></trkpt><trkpt lat="42.69097423883654" lon="12.302819368298051"><ele>725.0</ele><time>2026-04-22T10:52:22Z</time></trkpt><trkpt lat="42.69091727935119" lon="12.302617331553265"><ele>725.0</ele><time>2026-04-22T10:52:23Z</time></trkpt><trkpt lat="42.69085854098506" lon="12.302408692446733"><ele>725.0</ele><time>2026-04-22T10:52:24Z</time></trkpt><trkpt lat="42.69078665472046" lon="12.302203174202146"><ele>725.0</ele><time>2026-04-22T10:52:25Z</time></trkpt><trkpt lat="42.69067999498408" lon="12.30201934673508"><ele>724.6666666666666</ele><time>2026-04-22T10:52:26Z</time></trkpt><trkpt lat="42.69054033759761" lon="12.30185522775167"><ele>724.3333333333334</ele><time>2026-04-22T10:52:27Z</time></trkpt><trkpt lat="42.690382100117816" lon="12.301724709083144"><ele>724.0</ele><time>2026-04-22T10:52:28Z</time></trkpt><trkpt lat="42.69020636398954" lon="12.30162066806972"><ele>724.0</ele><time>2026-04-22T10:52:29Z</time></trkpt><trkpt lat="42.69002178166741" lon="12.301531597006298"><ele>724.0</ele><time>2026-04-22T10:52:30Z</time></trkpt><trkpt lat="42.68984097758149" lon="12.301453725349191"><ele>724.0</ele><time>2026-04-22T10:52:31Z</time></trkpt><trkpt lat="42.68966887599392" lon="12.301411839259366"><ele>724.0</ele><time>2026-04-22T10:52:32Z</time></trkpt><trkpt lat="42.68950307858574" lon="12.301422548023936"><ele>724.0</ele><time>2026-04-22T10:52:33Z</time></trkpt><trkpt lat="42.689341808821865" lon="12.301488840988654"><ele>724.0</ele><time>2026-04-22T10:52:34Z</time></trkpt><trkpt lat="42.689169521044406" lon="12.301592208562136"><ele>722.3333333333334</ele><time>2026-04-22T10:52:35Z</time></trkpt><trkpt lat="42.688977789989444" lon="12.301690562143321"><ele>720.6666666666666</ele><time>2026-04-22T10:52:36Z</time></trkpt><trkpt lat="42.68880458666092" lon="12.301810603316637"><ele>719.0</ele><time>2026-04-22T10:52:37Z</time></trkpt><trkpt lat="42.68863398738472" lon="12.301895234122643"><ele>716.25</ele><time>2026-04-22T10:52:38Z</time></trkpt><trkpt lat="42.688488772793484" lon="12.301966259323438"><ele>713.5</ele><time>2026-04-22T10:52:39.001Z</time></trkpt><trkpt lat="42.68835274087809" lon="12.302020105470685"><ele>710.75</ele><time>2026-04-22T10:52:40Z</time></trkpt><trkpt lat="42.68825631735335" lon="12.302028013547389"><ele>708.0</ele><time>2026-04-22T10:52:41Z</time></trkpt><trkpt lat="42.68818029880882" lon="12.301965193843774"><ele>708.0</ele><time>2026-04-22T10:52:42Z</time></trkpt><trkpt lat="42.688118156419065" lon="12.301906180875976"><ele>708.0</ele><time>2026-04-22T10:52:43Z</time></trkpt><trkpt lat="42.688112387988504" lon="12.30178033813691"><ele>708.0</ele><time>2026-04-22T10:52:44Z</time></trkpt><trkpt lat="42.688135522151086" lon="12.301668587752452"><ele>708.0</ele><time>2026-04-22T10:52:45Z</time></trkpt><trkpt lat="42.68821125767696" lon="12.301575610975238"><ele>708.0</ele><time>2026-04-22T10:52:46Z</time></trkpt><trkpt lat="42.6883164537129" lon="12.301529609176233"><ele>708.0</ele><time>2026-04-22T10:52:47Z</time></trkpt><trkpt lat="42.68845824724597" lon="12.301542056578004"><ele>708.0</ele><time>2026-04-22T10:52:48Z</time></trkpt><trkpt lat="42.688584720698756" lon="12.301543844188618"><ele>708.0</ele><time>2026-04-22T10:52:49Z</time></trkpt><trkpt lat="42.688694076324225" lon="12.301515449223121"><ele>708.0</ele><time>2026-04-22T10:52:50Z</time></trkpt><trkpt lat="42.68877786157308" lon="12.301448792674528"><ele>709.5999999999999</ele><time>2026-04-22T10:52:51Z</time></trkpt><trkpt lat="42.68883730137163" lon="12.3013485111674"><ele>711.1999999999999</ele><time>2026-04-22T10:52:52Z</time></trkpt><trkpt lat="42.68885809265873" lon="12.301217478277339"><ele>712.8</ele><time>2026-04-22T10:52:53Z</time></trkpt><trkpt lat="42.688831369037935" lon="12.301067365106462"><ele>714.4</ele><time>2026-04-22T10:52:54Z</time></trkpt><trkpt lat="42.68877357504061" lon="12.300892724631797"><ele>716.0</ele><time>2026-04-22T10:52:55Z</time></trkpt><trkpt lat="42.688723926824395" lon="12.300707968736386"><ele>715.0</ele><time>2026-04-22T10:52:56Z</time></trkpt><trkpt lat="42.688692127485844" lon="12.300532094008513"><ele>714.0</ele><time>2026-04-22T10:52:57Z</time></trkpt><trkpt lat="42.68870190353347" lon="12.300353269340937"><ele>713.0</ele><time>2026-04-22T10:52:58Z</time></trkpt><trkpt lat="42.68871847460912" lon="12.30018430422028"><ele>712.0</ele><time>2026-04-22T10:52:59Z</time></trkpt><trkpt lat="42.68874287765694" lon="12.300020000919496"><ele>712.0</ele><time>2026-04-22T10:53:00Z</time></trkpt><trkpt lat="42.688774159250386" lon="12.299862768266918"><ele>712.0</ele><time>2026-04-22T10:53:01Z</time></trkpt><trkpt lat="42.68881647093618" lon="12.299705982291636"><ele>712.0</ele><time>2026-04-22T10:53:02Z</time></trkpt><trkpt lat="42.68887672523468" lon="12.299540299413644"><ele>712.0</ele><time>2026-04-22T10:53:03Z</time></trkpt><trkpt lat="42.688953056714915" lon="12.299365364894419"><ele>706.3333333333334</ele><time>2026-04-22T10:53:04Z</time></trkpt><trkpt lat="42.68903422007416" lon="12.299168860433237"><ele>700.6666666666666</ele><time>2026-04-22T10:53:05Z</time></trkpt><trkpt lat="42.68913108430245" lon="12.298966206973278"><ele>695.0</ele><time>2026-04-22T10:53:06Z</time></trkpt><trkpt lat="42.68922546068778" lon="12.298754193803795"><ele>689.6666666666666</ele><time>2026-04-22T10:53:07Z</time></trkpt><trkpt lat="42.68931661403137" lon="12.298535500724212"><ele>684.3333333333334</ele><time>2026-04-22T10:53:08Z</time></trkpt><trkpt lat="42.689375172606965" lon="12.298295568281809"><ele>679.0</ele><time>2026-04-22T10:53:09Z</time></trkpt><trkpt lat="42.68941858007808" lon="12.298050703179511"><ele>684.3333333333334</ele><time>2026-04-22T10:53:10Z</time></trkpt><trkpt lat="42.689438349850946" lon="12.297805150873868"><ele>689.6666666666666</ele><time>2026-04-22T10:53:11Z</time></trkpt><trkpt lat="42.689445652203766" lon="12.297573188244998"><ele>695.0</ele><time>2026-04-22T10:53:12Z</time></trkpt><trkpt lat="42.68944435592209" lon="12.29734539271031"><ele>690.3333333333333</ele><time>2026-04-22T10:53:13Z</time></trkpt><trkpt lat="42.689432573199305" lon="12.297125555921397"><ele>685.6666666666666</ele><time>2026-04-22T10:53:14Z</time></trkpt><trkpt lat="42.68942120436137" lon="12.296916172220403"><ele>681.0</ele><time>2026-04-22T10:53:15Z</time></trkpt><trkpt lat="42.68945778335346" lon="12.296722760288205"><ele>681.0</ele><time>2026-04-22T10:53:16Z</time></trkpt><trkpt lat="42.689524648911494" lon="12.29655096156195"><ele>681.0</ele><time>2026-04-22T10:53:17Z</time></trkpt><trkpt lat="42.68961523090635" lon="12.296395000274506"><ele>681.0</ele><time>2026-04-22T10:53:18Z</time></trkpt><trkpt lat="42.68972722035774" lon="12.296232734069955"><ele>676.3333333333334</ele><time>2026-04-22T10:53:19Z</time></trkpt><trkpt lat="42.689841318736555" lon="12.296049400122108"><ele>671.6666666666667</ele><time>2026-04-22T10:53:20Z</time></trkpt><trkpt lat="42.68999239368986" lon="12.29590448793738"><ele>667.0</ele><time>2026-04-22T10:53:21Z</time></trkpt><trkpt lat="42.690146991092845" lon="12.295762335623364"><ele>668.3333333333334</ele><time>2026-04-22T10:53:22Z</time></trkpt><trkpt lat="42.69030648439217" lon="12.295655543783182"><ele>669.6666666666666</ele><time>2026-04-22T10:53:23Z</time></trkpt><trkpt lat="42.69046592115141" lon="12.295574568133782"><ele>671.0</ele><time>2026-04-22T10:53:24Z</time></trkpt><trkpt lat="42.69063308185698" lon="12.295539336839603"><ele>667.5</ele><time>2026-04-22T10:53:25Z</time></trkpt><trkpt lat="42.69078984107591" lon="12.295555554211541"><ele>664.0</ele><time>2026-04-22T10:53:26Z</time></trkpt><trkpt lat="42.69094934993185" lon="12.295580072305293"><ele>660.5</ele><time>2026-04-22T10:53:27Z</time></trkpt><trkpt lat="42.691074258692844" lon="12.295575937986785"><ele>657.0</ele><time>2026-04-22T10:53:28Z</time></trkpt><trkpt lat="42.6911837762951" lon="12.295558126081241"><ele>654.4000000000001</ele><time>2026-04-22T10:53:29Z</time></trkpt><trkpt lat="42.69127632455456" lon="12.295481009437353"><ele>651.8000000000001</ele><time>2026-04-22T10:53:30Z</time></trkpt><trkpt lat="42.69132100112122" lon="12.295352713970145"><ele>649.2</ele><time>2026-04-22T10:53:31Z</time></trkpt><trkpt lat="42.691337146217876" lon="12.295227125291957"><ele>646.6</ele><time>2026-04-22T10:53:32Z</time></trkpt><trkpt lat="42.69130646715699" lon="12.29511731127659"><ele>644.0</ele><time>2026-04-22T10:53:33Z</time></trkpt><trkpt lat="42.69127287655978" lon="12.29502035045465"><ele>644.0</ele><time>2026-04-22T10:53:34Z</time></trkpt><trkpt lat="42.69119265794109" lon="12.294886786212775"><ele>644.0</ele><time>2026-04-22T10:53:36Z</time></trkpt><trkpt lat="42.69110064921418" lon="12.294813081422982"><ele>644.0</ele><time>2026-04-22T10:53:38Z</time></trkpt><trkpt lat="42.69101434006274" lon="12.294761765632742"><ele>644.0</ele><time>2026-04-22T10:53:40Z</time></trkpt><trkpt lat="42.690942600452594" lon="12.29471945577995"><ele>644.0</ele><time>2026-04-22T10:53:41Z</time></trkpt><trkpt lat="42.6908512225861" lon="12.294667075560689"><ele>644.25</ele><time>2026-04-22T10:53:42Z</time></trkpt><trkpt lat="42.69074693319202" lon="12.294600930291313"><ele>644.5</ele><time>2026-04-22T10:53:43Z</time></trkpt><trkpt lat="42.690649268157685" lon="12.294497928109568"><ele>644.75</ele><time>2026-04-22T10:53:44Z</time></trkpt><trkpt lat="42.690573017616494" lon="12.294383218665304"><ele>645.0</ele><time>2026-04-22T10:53:45Z</time></trkpt><trkpt lat="42.69054077318568" lon="12.294239462509712"><ele>645.0</ele><time>2026-04-22T10:53:46Z</time></trkpt><trkpt lat="42.69054772501826" lon="12.29410290041658"><ele>645.0</ele><time>2026-04-22T10:53:47Z</time></trkpt><trkpt lat="42.690569682130196" lon="12.2939567171102"><ele>645.0</ele><time>2026-04-22T10:53:48Z</time></trkpt><trkpt lat="42.690615097138064" lon="12.293800792262557"><ele>645.0</ele><time>2026-04-22T10:53:49Z</time></trkpt><trkpt lat="42.69065355117497" lon="12.293648718484846"><ele>644.6</ele><time>2026-04-22T10:53:50Z</time></trkpt><trkpt lat="42.690679893240535" lon="12.293487209965377"><ele>644.2</ele><time>2026-04-22T10:53:51Z</time></trkpt><trkpt lat="42.690675625681344" lon="12.293348883035163"><ele>643.8</ele><time>2026-04-22T10:53:52Z</time></trkpt><trkpt lat="42.69062894767869" lon="12.2932249970104"><ele>643.4</ele><time>2026-04-22T10:53:53Z</time></trkpt><trkpt lat="42.69056314562059" lon="12.29312394494961"><ele>643.0</ele><time>2026-04-22T10:53:54Z</time></trkpt><trkpt lat="42.69049088809871" lon="12.293059201010234"><ele>642.5</ele><time>2026-04-22T10:53:55Z</time></trkpt><trkpt lat="42.69040923339496" lon="12.293040972756208"><ele>642.0</ele><time>2026-04-22T10:53:56Z</time></trkpt><trkpt lat="42.69033130893478" lon="12.293050589077477"><ele>641.5</ele><time>2026-04-22T10:53:57Z</time></trkpt><trkpt lat="42.69025949516009" lon="12.293088137030658"><ele>641.0</ele><time>2026-04-22T10:53:58Z</time></trkpt><trkpt lat="42.69019173753872" lon="12.293158963067466"><ele>640.5</ele><time>2026-04-22T10:53:59Z</time></trkpt><trkpt lat="42.69012307047237" lon="12.293261165799965"><ele>640.0</ele><time>2026-04-22T10:54:00Z</time></trkpt><trkpt lat="42.690056653461724" lon="12.293397524737893"><ele>639.5</ele><time>2026-04-22T10:54:01Z</time></trkpt><trkpt lat="42.69001070922926" lon="12.29356734272571"><ele>639.0</ele><time>2026-04-22T10:54:02Z</time></trkpt><trkpt lat="42.68997731807029" lon="12.293746228437739"><ele>638.5</ele><time>2026-04-22T10:54:03Z</time></trkpt><trkpt lat="42.68993070869007" lon="12.29392076259413"><ele>638.0</ele><time>2026-04-22T10:54:04Z</time></trkpt><trkpt lat="42.68985748098616" lon="12.29407280965079"><ele>639.0</ele><time>2026-04-22T10:54:05Z</time></trkpt><trkpt lat="42.68973976509958" lon="12.294172897057468"><ele>640.0</ele><time>2026-04-22T10:54:06Z</time></trkpt><trkpt lat="42.68960882066429" lon="12.294257587288463"><ele>641.0</ele><time>2026-04-22T10:54:07Z</time></trkpt><trkpt lat="42.68947119424264" lon="12.294349942181325"><ele>642.0</ele><time>2026-04-22T10:54:08Z</time></trkpt><trkpt lat="42.68932789521413" lon="12.294457922803888"><ele>640.3333333333334</ele><time>2026-04-22T10:54:09Z</time></trkpt><trkpt lat="42.68917788260363" lon="12.294569815766065"><ele>638.6666666666667</ele><time>2026-04-22T10:54:10Z</time></trkpt><trkpt lat="42.68902409873921" lon="12.294700811722153"><ele>637.0</ele><time>2026-04-22T10:54:11Z</time></trkpt><trkpt lat="42.68886975289855" lon="12.294840713864208"><ele>637.0</ele><time>2026-04-22T10:54:12Z</time></trkpt><trkpt lat="42.68872425326523" lon="12.294980585640976"><ele>637.0</ele><time>2026-04-22T10:54:13Z</time></trkpt><trkpt lat="42.68858880481449" lon="12.29511836674097"><ele>637.0</ele><time>2026-04-22T10:54:14Z</time></trkpt><trkpt lat="42.68847237415483" lon="12.295277471219869"><ele>631.0</ele><time>2026-04-22T10:54:15Z</time></trkpt><trkpt lat="42.688364191137325" lon="12.295465322008384"><ele>625.0</ele><time>2026-04-22T10:54:16Z</time></trkpt><trkpt lat="42.68829192354928" lon="12.295682548994941"><ele>619.0</ele><time>2026-04-22T10:54:17Z</time></trkpt><trkpt lat="42.68824953534974" lon="12.295912412902187"><ele>619.0</ele><time>2026-04-22T10:54:18Z</time></trkpt><trkpt lat="42.6882186122365" lon="12.296155128539468"><ele>619.0</ele><time>2026-04-22T10:54:19Z</time></trkpt><trkpt lat="42.68818960588643" lon="12.296380444025719"><ele>619.0</ele><time>2026-04-22T10:54:20Z</time></trkpt><trkpt lat="42.6881600519767" lon="12.296559970824868"><ele>620.8</ele><time>2026-04-22T10:54:21Z</time></trkpt><trkpt lat="42.68811233537339" lon="12.296693602527744"><ele>622.5999999999999</ele><time>2026-04-22T10:54:22Z</time></trkpt><trkpt lat="42.68803027989445" lon="12.29678508842974"><ele>624.4</ele><time>2026-04-22T10:54:23Z</time></trkpt><trkpt lat="42.687922913456596" lon="12.296826069036786"><ele>626.1999999999999</ele><time>2026-04-22T10:54:24Z</time></trkpt><trkpt lat="42.68781375428714" lon="12.296793021229833"><ele>628.0</ele><time>2026-04-22T10:54:25Z</time></trkpt><trkpt lat="42.687720655025124" lon="12.296706682108196"><ele>623.25</ele><time>2026-04-22T10:54:26Z</time></trkpt><trkpt lat="42.68761531429843" lon="12.296613761312624"><ele>618.5</ele><time>2026-04-22T10:54:27Z</time></trkpt><trkpt lat="42.68748263652054" lon="12.296546704373773"><ele>613.75</ele><time>2026-04-22T10:54:28Z</time></trkpt><trkpt lat="42.68733593230066" lon="12.296529285409044"><ele>609.0</ele><time>2026-04-22T10:54:29Z</time></trkpt><trkpt lat="42.687197325221945" lon="12.296574367849164"><ele>609.0</ele><time>2026-04-22T10:54:30Z</time></trkpt><trkpt lat="42.68707321504518" lon="12.29667386067249"><ele>609.0</ele><time>2026-04-22T10:54:31Z</time></trkpt><trkpt lat="42.68697050445195" lon="12.296821553607217"><ele>609.0</ele><time>2026-04-22T10:54:32Z</time></trkpt><trkpt lat="42.68690461794594" lon="12.297004156940904"><ele>609.0</ele><time>2026-04-22T10:54:33Z</time></trkpt><trkpt lat="42.68687379258057" lon="12.297205131415046"><ele>607.0</ele><time>2026-04-22T10:54:34Z</time></trkpt><trkpt lat="42.686870137553484" lon="12.29739600014989"><ele>605.0</ele><time>2026-04-22T10:54:35Z</time></trkpt><trkpt lat="42.686843796661854" lon="12.29754825984638"><ele>603.0</ele><time>2026-04-22T10:54:36Z</time></trkpt><trkpt lat="42.68676521077599" lon="12.297661159145042"><ele>601.0</ele><time>2026-04-22T10:54:37Z</time></trkpt><trkpt lat="42.68664351152739" lon="12.297654116853147"><ele>601.0</ele><time>2026-04-22T10:54:38Z</time></trkpt><trkpt lat="42.68653608929567" lon="12.29766416506024"><ele>601.0</ele><time>2026-04-22T10:54:39Z</time></trkpt><trkpt lat="42.68644004717012" lon="12.297593677869306"><ele>601.0</ele><time>2026-04-22T10:54:40Z</time></trkpt><trkpt lat="42.686320015699664" lon="12.297502270165825"><ele>601.0</ele><time>2026-04-22T10:54:41Z</time></trkpt><trkpt lat="42.686180503554475" lon="12.297414165636727"><ele>599.3333333333334</ele><time>2026-04-22T10:54:42Z</time></trkpt><trkpt lat="42.68603525201008" lon="12.29733081895444"><ele>597.6666666666666</ele><time>2026-04-22T10:54:43Z</time></trkpt><trkpt lat="42.68587070529605" lon="12.297289154946036"><ele>596.0</ele><time>2026-04-22T10:54:44.001Z</time></trkpt><trkpt lat="42.68568415454857" lon="12.297292053000797"><ele>596.0</ele><time>2026-04-22T10:54:45.001Z</time></trkpt><trkpt lat="42.685504775348505" lon="12.297335834953946"><ele>596.0</ele><time>2026-04-22T10:54:46.001Z</time></trkpt><trkpt lat="42.68534312445849" lon="12.29739250584396"><ele>596.0</ele><time>2026-04-22T10:54:47.001Z</time></trkpt><trkpt lat="42.68519766000264" lon="12.297482880869703"><ele>591.3333333333333</ele><time>2026-04-22T10:54:48.001Z</time></trkpt><trkpt lat="42.685061954088354" lon="12.297609705216233"><ele>586.6666666666666</ele><time>2026-04-22T10:54:49.001Z</time></trkpt><trkpt lat="42.68493146675207" lon="12.29777999999818"><ele>582.0</ele><time>2026-04-22T10:54:50.001Z</time></trkpt><trkpt lat="42.68480702781212" lon="12.29794988258474"><ele>579.3333333333334</ele><time>2026-04-22T10:54:51.001Z</time></trkpt><trkpt lat="42.684673216122064" lon="12.298125403950023"><ele>576.6666666666667</ele><time>2026-04-22T10:54:52.001Z</time></trkpt><trkpt lat="42.68454333074744" lon="12.298307588926363"><ele>574.0</ele><time>2026-04-22T10:54:53.001Z</time></trkpt><trkpt lat="42.68438931846512" lon="12.298469739999808"><ele>574.0</ele><time>2026-04-22T10:54:54.001Z</time></trkpt><trkpt lat="42.68422647064603" lon="12.29864690229391"><ele>574.0</ele><time>2026-04-22T10:54:55.001Z</time></trkpt><trkpt lat="42.68405889493615" lon="12.298821562540748"><ele>574.0</ele><time>2026-04-22T10:54:56.001Z</time></trkpt><trkpt lat="42.68388561026831" lon="12.299010455913368"><ele>570.3333333333334</ele><time>2026-04-22T10:54:57.001Z</time></trkpt><trkpt lat="42.68373009942673" lon="12.299236865300994"><ele>566.6666666666666</ele><time>2026-04-22T10:54:58.001Z</time></trkpt><trkpt lat="42.68358574176968" lon="12.299457306628037"><ele>563.0</ele><time>2026-04-22T10:54:59.001Z</time></trkpt><trkpt lat="42.683464637449035" lon="12.299688101773262"><ele>566.3333333333333</ele><time>2026-04-22T10:55:00.001Z</time></trkpt><trkpt lat="42.683332775796515" lon="12.299891092970464"><ele>569.6666666666666</ele><time>2026-04-22T10:55:01.001Z</time></trkpt><trkpt lat="42.68321531386121" lon="12.300062442345041"><ele>573.0</ele><time>2026-04-22T10:55:02.001Z</time></trkpt><trkpt lat="42.683084059592204" lon="12.300182961484966"><ele>573.0</ele><time>2026-04-22T10:55:03.001Z</time></trkpt><trkpt lat="42.682943332419065" lon="12.300292365372437"><ele>573.0</ele><time>2026-04-22T10:55:04.001Z</time></trkpt><trkpt lat="42.6828089710245" lon="12.300417768451446"><ele>573.0</ele><time>2026-04-22T10:55:05.001Z</time></trkpt><trkpt lat="42.682667303590584" lon="12.300549252323025"><ele>569.3333333333334</ele><time>2026-04-22T10:55:06.001Z</time></trkpt><trkpt lat="42.682536788212474" lon="12.300731771686213"><ele>565.6666666666667</ele><time>2026-04-22T10:55:07.001Z</time></trkpt><trkpt lat="42.682414080256436" lon="12.300927426288855"><ele>562.0</ele><time>2026-04-22T10:55:08.001Z</time></trkpt><trkpt lat="42.68230903567422" lon="12.301110757335032"><ele>562.0</ele><time>2026-04-22T10:55:09.001Z</time></trkpt><trkpt lat="42.68220894388282" lon="12.301291253249534"><ele>562.0</ele><time>2026-04-22T10:55:10.001Z</time></trkpt><trkpt lat="42.68212115463996" lon="12.301464446704845"><ele>562.0</ele><time>2026-04-22T10:55:11.001Z</time></trkpt><trkpt lat="42.68204447659469" lon="12.301619744242256"><ele>560.8000000000001</ele><time>2026-04-22T10:55:12.001Z</time></trkpt><trkpt lat="42.68197317106599" lon="12.301759633715122"><ele>559.6</ele><time>2026-04-22T10:55:13.001Z</time></trkpt><trkpt lat="42.68189509774674" lon="12.301870559258358"><ele>558.4000000000001</ele><time>2026-04-22T10:55:14.001Z</time></trkpt><trkpt lat="42.681795053170575" lon="12.30188924653899"><ele>557.2</ele><time>2026-04-22T10:55:15Z</time></trkpt><trkpt lat="42.68170470769671" lon="12.301912033263315"><ele>556.0</ele><time>2026-04-22T10:55:16Z</time></trkpt><trkpt lat="42.68161124909452" lon="12.301842061913252"><ele>556.0</ele><time>2026-04-22T10:55:17Z</time></trkpt><trkpt lat="42.681546880292885" lon="12.301738823165968"><ele>556.0</ele><time>2026-04-22T10:55:18Z</time></trkpt><trkpt lat="42.681512470786515" lon="12.301611727085291"><ele>556.0</ele><time>2026-04-22T10:55:19Z</time></trkpt><trkpt lat="42.68155253062008" lon="12.301472492990017"><ele>556.0</ele><time>2026-04-22T10:55:20Z</time></trkpt><trkpt lat="42.68159515638063" lon="12.301334532278972"><ele>556.0</ele><time>2026-04-22T10:55:21Z</time></trkpt><trkpt lat="42.681636223072346" lon="12.301165105284115"><ele>554.5</ele><time>2026-04-22T10:55:22Z</time></trkpt><trkpt lat="42.681700365381175" lon="12.300991144871302"><ele>553.0</ele><time>2026-04-22T10:55:23Z</time></trkpt><trkpt lat="42.681758758398075" lon="12.300796034696688"><ele>551.5</ele><time>2026-04-22T10:55:24Z</time></trkpt><trkpt lat="42.68179980980764" lon="12.300608155318885"><ele>550.0</ele><time>2026-04-22T10:55:25Z</time></trkpt><trkpt lat="42.681809110199175" lon="12.30042729643481"><ele>547.6666666666667</ele><time>2026-04-22T10:55:26Z</time></trkpt><trkpt lat="42.68177815889502" lon="12.30025073654416"><ele>545.3333333333334</ele><time>2026-04-22T10:55:27Z</time></trkpt><trkpt lat="42.68170171045811" lon="12.30006681854327"><ele>543.0</ele><time>2026-04-22T10:55:28Z</time></trkpt><trkpt lat="42.68159497657481" lon="12.299877781418008"><ele>539.6666666666666</ele><time>2026-04-22T10:55:29Z</time></trkpt><trkpt lat="42.681479221359176" lon="12.299674199628003"><ele>536.3333333333333</ele><time>2026-04-22T10:55:30Z</time></trkpt><trkpt lat="42.681383951172705" lon="12.299480035615018"><ele>533.0</ele><time>2026-04-22T10:55:31Z</time></trkpt><trkpt lat="42.681335128321216" lon="12.29926814737545"><ele>533.0</ele><time>2026-04-22T10:55:32Z</time></trkpt><trkpt lat="42.681287433705656" lon="12.299058062774916"><ele>533.0</ele><time>2026-04-22T10:55:33Z</time></trkpt><trkpt lat="42.68124683698513" lon="12.298828157133133"><ele>533.0</ele><time>2026-04-22T10:55:34Z</time></trkpt><trkpt lat="42.68117983592495" lon="12.29860222173599"><ele>531.6666666666666</ele><time>2026-04-22T10:55:35Z</time></trkpt><trkpt lat="42.68109459909827" lon="12.298374539617628"><ele>530.3333333333334</ele><time>2026-04-22T10:55:36Z</time></trkpt><trkpt lat="42.6809932649773" lon="12.298153228856629"><ele>529.0</ele><time>2026-04-22T10:55:37Z</time></trkpt><trkpt lat="42.68090182240201" lon="12.29794095631341"><ele>526.0</ele><time>2026-04-22T10:55:38Z</time></trkpt><trkpt lat="42.6808543145093" lon="12.297721052000158"><ele>523.0</ele><time>2026-04-22T10:55:39Z</time></trkpt><trkpt lat="42.68081387248771" lon="12.297497349384049"><ele>520.0</ele><time>2026-04-22T10:55:40Z</time></trkpt><trkpt lat="42.6808022137152" lon="12.29727132611376"><ele>517.5</ele><time>2026-04-22T10:55:41Z</time></trkpt><trkpt lat="42.680793380165916" lon="12.29704955612275"><ele>515.0</ele><time>2026-04-22T10:55:42Z</time></trkpt><trkpt lat="42.68075708371286" lon="12.296862654189711"><ele>512.5</ele><time>2026-04-22T10:55:43Z</time></trkpt><trkpt lat="42.680712874490105" lon="12.296716822317652"><ele>510.0</ele><time>2026-04-22T10:55:44Z</time></trkpt><trkpt lat="42.68063376961809" lon="12.296606620662622"><ele>510.0</ele><time>2026-04-22T10:55:45Z</time></trkpt><trkpt lat="42.68053573384405" lon="12.29654810972325"><ele>510.0</ele><time>2026-04-22T10:55:46Z</time></trkpt><trkpt lat="42.68043365555622" lon="12.296542314116548"><ele>510.0</ele><time>2026-04-22T10:55:47Z</time></trkpt><trkpt lat="42.68033692082525" lon="12.29658576244772"><ele>510.0</ele><time>2026-04-22T10:55:48Z</time></trkpt><trkpt lat="42.68019905234633" lon="12.296825821948952"><ele>509.25</ele><time>2026-04-22T10:55:50Z</time></trkpt><trkpt lat="42.68019380402492" lon="12.296996016987592"><ele>508.5</ele><time>2026-04-22T10:55:51Z</time></trkpt><trkpt lat="42.68024381561042" lon="12.297167085776522"><ele>507.75</ele><time>2026-04-22T10:55:52Z</time></trkpt><trkpt lat="42.68032522924371" lon="12.29733110942841"><ele>507.0</ele><time>2026-04-22T10:55:53Z</time></trkpt><trkpt lat="42.68039499008693" lon="12.297496129114085"><ele>508.0</ele><time>2026-04-22T10:55:54Z</time></trkpt><trkpt lat="42.68041433287961" lon="12.297636892931845"><ele>509.0</ele><time>2026-04-22T10:55:55Z</time></trkpt><trkpt lat="42.68040034379512" lon="12.297815330027127"><ele>510.0</ele><time>2026-04-22T10:55:56Z</time></trkpt><trkpt lat="42.68034284814232" lon="12.297952251274383"><ele>511.0</ele><time>2026-04-22T10:55:57Z</time></trkpt><trkpt lat="42.680239898926594" lon="12.298022571613675"><ele>511.0</ele><time>2026-04-22T10:55:58Z</time></trkpt><trkpt lat="42.68014266731048" lon="12.298043699242116"><ele>511.0</ele><time>2026-04-22T10:55:59Z</time></trkpt><trkpt lat="42.68004875071418" lon="12.298020029704638"><ele>511.0</ele><time>2026-04-22T10:56:00Z</time></trkpt><trkpt lat="42.67997941189755" lon="12.2978870887081"><ele>511.0</ele><time>2026-04-22T10:56:01Z</time></trkpt><trkpt lat="42.67987957600122" lon="12.297773189909346"><ele>511.0</ele><time>2026-04-22T10:56:02Z</time></trkpt><trkpt lat="42.679778328557944" lon="12.297624641022539"><ele>511.0</ele><time>2026-04-22T10:56:03Z</time></trkpt><trkpt lat="42.67965322856564" lon="12.297498975062274"><ele>511.0</ele><time>2026-04-22T10:56:04Z</time></trkpt><trkpt lat="42.679513879141474" lon="12.297415423740265"><ele>511.0</ele><time>2026-04-22T10:56:05Z</time></trkpt><trkpt lat="42.679372720251266" lon="12.297383976521594"><ele>509.5</ele><time>2026-04-22T10:56:06Z</time></trkpt><trkpt lat="42.679232707862326" lon="12.297418521716741"><ele>508.0</ele><time>2026-04-22T10:56:07Z</time></trkpt><trkpt lat="42.67910001242158" lon="12.297466625393719"><ele>506.5</ele><time>2026-04-22T10:56:08Z</time></trkpt><trkpt lat="42.67896299782541" lon="12.297490055445508"><ele>505.0</ele><time>2026-04-22T10:56:09Z</time></trkpt><trkpt lat="42.678829841323285" lon="12.29742783036518"><ele>501.33333333333337</ele><time>2026-04-22T10:56:10Z</time></trkpt><trkpt lat="42.67861999231431" lon="12.297220926401538"><ele>497.66666666666663</ele><time>2026-04-22T10:56:12Z</time></trkpt><trkpt lat="42.67852087672763" lon="12.297120029961"><ele>494.0</ele><time>2026-04-22T10:56:13Z</time></trkpt><trkpt lat="42.67843414313528" lon="12.297017733918874"><ele>494.0</ele><time>2026-04-22T10:56:14Z</time></trkpt><trkpt lat="42.678362325550616" lon="12.296941130075009"><ele>494.0</ele><time>2026-04-22T10:56:15Z</time></trkpt><trkpt lat="42.678307383878476" lon="12.29689747106685"><ele>494.0</ele><time>2026-04-22T10:56:16Z</time></trkpt><trkpt lat="42.67815510615411" lon="12.297041938669022"><ele>494.0</ele><time>2026-04-22T10:56:18Z</time></trkpt><trkpt lat="42.678079698371356" lon="12.297071651930183"><ele>494.0</ele><time>2026-04-22T10:56:19Z</time></trkpt><trkpt lat="42.678002366402616" lon="12.297072634785884"><ele>494.0</ele><time>2026-04-22T10:56:20Z</time></trkpt><trkpt lat="42.67792602565731" lon="12.297056173774855"><ele>494.0</ele><time>2026-04-22T10:56:21Z</time></trkpt><trkpt lat="42.677839499899754" lon="12.296968523905418"><ele>494.0</ele><time>2026-04-22T10:56:22Z</time></trkpt><trkpt lat="42.67773927128668" lon="12.296952041847693"><ele>494.0</ele><time>2026-04-22T10:56:23Z</time></trkpt><trkpt lat="42.67763140985851" lon="12.296938439852926"><ele>494.0</ele><time>2026-04-22T10:56:24Z</time></trkpt><trkpt lat="42.67751509234294" lon="12.296927001106253"><ele>495.6</ele><time>2026-04-22T10:56:25Z</time></trkpt><trkpt lat="42.677399882884686" lon="12.296928155097266"><ele>497.2</ele><time>2026-04-22T10:56:26Z</time></trkpt><trkpt lat="42.67729666188904" lon="12.296954626925787"><ele>498.80000000000007</ele><time>2026-04-22T10:56:27Z</time></trkpt><trkpt lat="42.677197228353556" lon="12.297003168790594"><ele>500.40000000000003</ele><time>2026-04-22T10:56:28Z</time></trkpt><trkpt lat="42.67710827529252" lon="12.29707045505458"><ele>502.0</ele><time>2026-04-22T10:56:29Z</time></trkpt><trkpt lat="42.677021428046736" lon="12.297109519634413"><ele>502.0</ele><time>2026-04-22T10:56:30Z</time></trkpt><trkpt lat="42.67694864014256" lon="12.297131297865457"><ele>502.00000000000006</ele><time>2026-04-22T10:56:31Z</time></trkpt><trkpt lat="42.676825139968045" lon="12.297113384291153"><ele>502.00000000000006</ele><time>2026-04-22T10:56:33Z</time></trkpt><trkpt lat="42.676743283573785" lon="12.297082599098063"><ele>502.0</ele><time>2026-04-22T10:56:34Z</time></trkpt><trkpt lat="42.67666300949426" lon="12.29705306678775"><ele>502.0</ele><time>2026-04-22T10:56:35Z</time></trkpt><trkpt lat="42.67657209325872" lon="12.297018382660022"><ele>502.8</ele><time>2026-04-22T10:56:36Z</time></trkpt><trkpt lat="42.67647703413632" lon="12.296982965091871"><ele>503.6</ele><time>2026-04-22T10:56:37Z</time></trkpt><trkpt lat="42.6763795528085" lon="12.29694674869309"><ele>504.40000000000003</ele><time>2026-04-22T10:56:38Z</time></trkpt><trkpt lat="42.67629937831857" lon="12.296913920997277"><ele>505.20000000000005</ele><time>2026-04-22T10:56:39Z</time></trkpt><trkpt lat="42.67621355611705" lon="12.296877556337124"><ele>506.0</ele><time>2026-04-22T10:56:40Z</time></trkpt><trkpt lat="42.676134178144004" lon="12.296844786442875"><ele>508.0</ele><time>2026-04-22T10:56:41Z</time></trkpt><trkpt lat="42.676055830767055" lon="12.296816140101578"><ele>510.0</ele><time>2026-04-22T10:56:42Z</time></trkpt><trkpt lat="42.67597805782733" lon="12.296791169400397"><ele>512.0</ele><time>2026-04-22T10:56:43Z</time></trkpt><trkpt lat="42.675885199052786" lon="12.296772377523052"><ele>514.0</ele><time>2026-04-22T10:56:44Z</time></trkpt><trkpt lat="42.67578634496007" lon="12.296774421264047"><ele>516.0</ele><time>2026-04-22T10:56:45Z</time></trkpt><trkpt lat="42.675680442951354" lon="12.296784815150756"><ele>516.0</ele><time>2026-04-22T10:56:46Z</time></trkpt><trkpt lat="42.67558130805316" lon="12.296799534061032"><ele>516.0</ele><time>2026-04-22T10:56:47Z</time></trkpt><trkpt lat="42.67549145957843" lon="12.296812767233442"><ele>516.0</ele><time>2026-04-22T10:56:48Z</time></trkpt><trkpt lat="42.67538596363273" lon="12.296827665804642"><ele>516.0</ele><time>2026-04-22T10:56:49Z</time></trkpt><trkpt lat="42.67528390997187" lon="12.296841064477858"><ele>516.0</ele><time>2026-04-22T10:56:50.001Z</time></trkpt><trkpt lat="42.67519167688579" lon="12.296853437715363"><ele>516.6</ele><time>2026-04-22T10:56:51.001Z</time></trkpt><trkpt lat="42.67508831583333" lon="12.296867621910447"><ele>517.2</ele><time>2026-04-22T10:56:52.001Z</time></trkpt><trkpt lat="42.67499468833437" lon="12.296882460946648"><ele>517.8</ele><time>2026-04-22T10:56:53.001Z</time></trkpt><trkpt lat="42.67490395321816" lon="12.296896841639233"><ele>518.4</ele><time>2026-04-22T10:56:54.001Z</time></trkpt><trkpt lat="42.67481104950707" lon="12.296915018875932"><ele>519.0</ele><time>2026-04-22T10:56:55.001Z</time></trkpt><trkpt lat="42.67472254449884" lon="12.296936153651087"><ele>519.0</ele><time>2026-04-22T10:56:56.001Z</time></trkpt><trkpt lat="42.67462593907192" lon="12.29696139305857"><ele>519.0</ele><time>2026-04-22T10:56:57.001Z</time></trkpt><trkpt lat="42.67453175175312" lon="12.296985986950439"><ele>519.0</ele><time>2026-04-22T10:56:58.001Z</time></trkpt><trkpt lat="42.67444884480252" lon="12.297007079233751"><ele>519.0</ele><time>2026-04-22T10:56:59.001Z</time></trkpt><trkpt lat="42.674358932546184" lon="12.297029953762964"><ele>519.0</ele><time>2026-04-22T10:57:00.001Z</time></trkpt><trkpt lat="42.674294135631875" lon="12.29706976119526"><ele>519.0</ele><time>2026-04-22T10:57:01.001Z</time></trkpt><trkpt lat="42.67418950027401" lon="12.29710394653514"><ele>519.0</ele><time>2026-04-22T10:57:02.001Z</time></trkpt><trkpt lat="42.674100692414505" lon="12.297135556933538"><ele>519.0</ele><time>2026-04-22T10:57:03.001Z</time></trkpt><trkpt lat="42.67400395329745" lon="12.29716678896066"><ele>519.0</ele><time>2026-04-22T10:57:04.001Z</time></trkpt><trkpt lat="42.67391113283497" lon="12.297233194091897"><ele>519.0</ele><time>2026-04-22T10:57:05.001Z</time></trkpt><trkpt lat="42.673820727429586" lon="12.297283226893676"><ele>519.0</ele><time>2026-04-22T10:57:06.001Z</time></trkpt><trkpt lat="42.67372686405997" lon="12.297350624481355"><ele>523.0</ele><time>2026-04-22T10:57:07.001Z</time></trkpt><trkpt lat="42.67362689286263" lon="12.297427118277113"><ele>527.0</ele><time>2026-04-22T10:57:08.001Z</time></trkpt><trkpt lat="42.67353292737352" lon="12.29749268337109"><ele>531.0</ele><time>2026-04-22T10:57:09.001Z</time></trkpt><trkpt lat="42.67342808785151" lon="12.297563062883128"><ele>535.0</ele><time>2026-04-22T10:57:10.001Z</time></trkpt><trkpt lat="42.67332890606185" lon="12.297625144316777"><ele>539.0</ele><time>2026-04-22T10:57:11.001Z</time></trkpt><trkpt lat="42.67324584043782" lon="12.297677100511672"><ele>539.0</ele><time>2026-04-22T10:57:12.001Z</time></trkpt><trkpt lat="42.673154692781466" lon="12.297748259773945"><ele>539.0</ele><time>2026-04-22T10:57:13.001Z</time></trkpt><trkpt lat="42.673072159532474" lon="12.297792981707895"><ele>539.0</ele><time>2026-04-22T10:57:14.001Z</time></trkpt><trkpt lat="42.67299073891029" lon="12.297880556295738"><ele>539.0</ele><time>2026-04-22T10:57:15.001Z</time></trkpt><trkpt lat="42.67288974222348" lon="12.29793300325461"><ele>539.0</ele><time>2026-04-22T10:57:16.001Z</time></trkpt><trkpt lat="42.67279800327625" lon="12.298003602097202"><ele>536.4</ele><time>2026-04-22T10:57:17.001Z</time></trkpt><trkpt lat="42.67270879258453" lon="12.29807011507739"><ele>533.8</ele><time>2026-04-22T10:57:18.001Z</time></trkpt><trkpt lat="42.67262299799897" lon="12.298157415089474"><ele>531.2</ele><time>2026-04-22T10:57:19.001Z</time></trkpt><trkpt lat="42.67253102150181" lon="12.298198645389123"><ele>528.6</ele><time>2026-04-22T10:57:20.001Z</time></trkpt><trkpt lat="42.67244302299516" lon="12.298262841149139"><ele>526.0</ele><time>2026-04-22T10:57:21.001Z</time></trkpt><trkpt lat="42.672362269652034" lon="12.298322578690875"><ele>530.5</ele><time>2026-04-22T10:57:22.001Z</time></trkpt><trkpt lat="42.672310753098266" lon="12.298386190708216"><ele>535.0</ele><time>2026-04-22T10:57:23.001Z</time></trkpt><trkpt lat="42.672251377123835" lon="12.298417096950669"><ele>539.5</ele><time>2026-04-22T10:57:24.001Z</time></trkpt><trkpt lat="42.67214027696637" lon="12.298534852701948"><ele>544.0</ele><time>2026-04-22T10:57:25.001Z</time></trkpt><trkpt lat="42.67207267911513" lon="12.298609178041481"><ele>548.5</ele><time>2026-04-22T10:57:26.001Z</time></trkpt><trkpt lat="42.67201121609813" lon="12.298689356141026"><ele>553.0</ele><time>2026-04-22T10:57:27.001Z</time></trkpt><trkpt lat="42.67194923851099" lon="12.298777208515167"><ele>553.6666666666667</ele><time>2026-04-22T10:57:28.001Z</time></trkpt><trkpt lat="42.671889484744156" lon="12.298863172888321"><ele>554.3333333333334</ele><time>2026-04-22T10:57:29Z</time></trkpt><trkpt lat="42.67182760723404" lon="12.298953816871215"><ele>555.0</ele><time>2026-04-22T10:57:30Z</time></trkpt><trkpt lat="42.67178218732805" lon="12.299039329136964"><ele>555.6666666666666</ele><time>2026-04-22T10:57:31Z</time></trkpt><trkpt lat="42.67174246567986" lon="12.299131147725152"><ele>556.3333333333333</ele><time>2026-04-22T10:57:32Z</time></trkpt><trkpt lat="42.671702782457885" lon="12.299223013607238"><ele>557.0</ele><time>2026-04-22T10:57:33Z</time></trkpt><trkpt lat="42.671643380144204" lon="12.299318769197049"><ele>557.0</ele><time>2026-04-22T10:57:34Z</time></trkpt><trkpt lat="42.67161081003101" lon="12.299429459242951"><ele>557.0</ele><time>2026-04-22T10:57:35Z</time></trkpt><trkpt lat="42.671574620803135" lon="12.299520896975725"><ele>557.0</ele><time>2026-04-22T10:57:36Z</time></trkpt><trkpt lat="42.67156902817744" lon="12.299675968517949"><ele>557.0</ele><time>2026-04-22T10:57:38Z</time></trkpt><trkpt lat="42.671548115768964" lon="12.299764407995992"><ele>557.0</ele><time>2026-04-22T10:57:39Z</time></trkpt><trkpt lat="42.67153445524541" lon="12.299873505035704"><ele>557.0</ele><time>2026-04-22T10:57:40Z</time></trkpt><trkpt lat="42.67151773794402" lon="12.299995327110695"><ele>560.6</ele><time>2026-04-22T10:57:41Z</time></trkpt><trkpt lat="42.671499502488224" lon="12.300124992234778"><ele>564.2</ele><time>2026-04-22T10:57:42Z</time></trkpt><trkpt lat="42.671473710305904" lon="12.300258402975373"><ele>567.8</ele><time>2026-04-22T10:57:43Z</time></trkpt><trkpt lat="42.671434159795055" lon="12.300377023418488"><ele>571.4</ele><time>2026-04-22T10:57:44Z</time></trkpt><trkpt lat="42.67138678525102" lon="12.300471317950516"><ele>575.0</ele><time>2026-04-22T10:57:45Z</time></trkpt><trkpt lat="42.67132176125886" lon="12.300526442713085"><ele>575.0</ele><time>2026-04-22T10:57:46Z</time></trkpt><trkpt lat="42.67123823012148" lon="12.300556116259205"><ele>575.0</ele><time>2026-04-22T10:57:47Z</time></trkpt><trkpt lat="42.6711688255362" lon="12.300617259294073"><ele>575.0</ele><time>2026-04-22T10:57:48Z</time></trkpt><trkpt lat="42.671106347530554" lon="12.300715626774325"><ele>575.0</ele><time>2026-04-22T10:57:49Z</time></trkpt><trkpt lat="42.671039940770555" lon="12.300792868814877"><ele>575.0</ele><time>2026-04-22T10:57:50Z</time></trkpt><trkpt lat="42.670989323987314" lon="12.30087308410703"><ele>575.0</ele><time>2026-04-22T10:57:51Z</time></trkpt><trkpt lat="42.67094357315776" lon="12.3010188370158"><ele>574.0</ele><time>2026-04-22T10:57:53Z</time></trkpt><trkpt lat="42.67088035004522" lon="12.301169246681491"><ele>573.0</ele><time>2026-04-22T10:57:55Z</time></trkpt><trkpt lat="42.670838066684844" lon="12.301290583074847"><ele>572.0</ele><time>2026-04-22T10:57:56Z</time></trkpt><trkpt lat="42.67082189841166" lon="12.301398339137487"><ele>571.0</ele><time>2026-04-22T10:57:57Z</time></trkpt><trkpt lat="42.67079027276391" lon="12.301499168335738"><ele>570.0</ele><time>2026-04-22T10:57:58Z</time></trkpt><trkpt lat="42.67075218263929" lon="12.301590858176391"><ele>572.6666666666666</ele><time>2026-04-22T10:57:59Z</time></trkpt><trkpt lat="42.67073170666475" lon="12.301692703281006"><ele>575.3333333333334</ele><time>2026-04-22T10:58:00Z</time></trkpt><trkpt lat="42.670718500048324" lon="12.301777791189561"><ele>578.0</ele><time>2026-04-22T10:58:01Z</time></trkpt><trkpt lat="42.6707088569756" lon="12.301868057405725"><ele>580.6666666666667</ele><time>2026-04-22T10:58:02Z</time></trkpt><trkpt lat="42.670715601644346" lon="12.301954171652147"><ele>583.3333333333334</ele><time>2026-04-22T10:58:03Z</time></trkpt><trkpt lat="42.67071139608834" lon="12.302129057366772"><ele>586.0</ele><time>2026-04-22T10:58:05Z</time></trkpt><trkpt lat="42.670697273930564" lon="12.302237011720454"><ele>587.3333333333334</ele><time>2026-04-22T10:58:06Z</time></trkpt><trkpt lat="42.67071366806786" lon="12.302335857790633"><ele>588.6666666666667</ele><time>2026-04-22T10:58:07Z</time></trkpt><trkpt lat="42.67071536843269" lon="12.302456099874325"><ele>590.0</ele><time>2026-04-22T10:58:08Z</time></trkpt><trkpt lat="42.670716073888116" lon="12.302578131373101"><ele>591.3333333333334</ele><time>2026-04-22T10:58:09Z</time></trkpt><trkpt lat="42.670705082119156" lon="12.302685281812341"><ele>592.6666666666666</ele><time>2026-04-22T10:58:10Z</time></trkpt><trkpt lat="42.670724839240776" lon="12.302803444200817"><ele>594.0</ele><time>2026-04-22T10:58:11Z</time></trkpt><trkpt lat="42.67072751767479" lon="12.302973280887503"><ele>594.0</ele><time>2026-04-22T10:58:13Z</time></trkpt><trkpt lat="42.670730237193965" lon="12.303065590619873"><ele>594.0</ele><time>2026-04-22T10:58:14Z</time></trkpt><trkpt lat="42.67074459320441" lon="12.303187286146878"><ele>594.0</ele><time>2026-04-22T10:58:15Z</time></trkpt><trkpt lat="42.670754686890184" lon="12.30329470758594"><ele>594.0</ele><time>2026-04-22T10:58:16Z</time></trkpt><trkpt lat="42.67076146911837" lon="12.303402105287432"><ele>594.0</ele><time>2026-04-22T10:58:17Z</time></trkpt><trkpt lat="42.670774466830004" lon="12.303502767877664"><ele>594.0</ele><time>2026-04-22T10:58:18Z</time></trkpt><trkpt lat="42.6707798153866" lon="12.303601946296103"><ele>595.0</ele><time>2026-04-22T10:58:19Z</time></trkpt><trkpt lat="42.67079117284768" lon="12.303707752100411"><ele>596.0</ele><time>2026-04-22T10:58:20Z</time></trkpt><trkpt lat="42.670805118710255" lon="12.303815140157381"><ele>597.0</ele><time>2026-04-22T10:58:21Z</time></trkpt><trkpt lat="42.67081676389788" lon="12.303914852372763"><ele>598.0</ele><time>2026-04-22T10:58:22Z</time></trkpt><trkpt lat="42.67080745658162" lon="12.304030848628518"><ele>599.0</ele><time>2026-04-22T10:58:23Z</time></trkpt><trkpt lat="42.670809170847534" lon="12.304160834204897"><ele>600.0</ele><time>2026-04-22T10:58:24Z</time></trkpt><trkpt lat="42.67082355556799" lon="12.304283193413635"><ele>600.8333333333334</ele><time>2026-04-22T10:58:25Z</time></trkpt><trkpt lat="42.670823711290836" lon="12.304392194109088"><ele>601.6666666666666</ele><time>2026-04-22T10:58:26Z</time></trkpt><trkpt lat="42.67082004317205" lon="12.304486370640864"><ele>602.5</ele><time>2026-04-22T10:58:27Z</time></trkpt><trkpt lat="42.67082857770326" lon="12.304580057465664"><ele>603.3333333333333</ele><time>2026-04-22T10:58:28Z</time></trkpt><trkpt lat="42.67082455911027" lon="12.304707905313162"><ele>604.1666666666666</ele><time>2026-04-22T10:58:29Z</time></trkpt><trkpt lat="42.670831307928054" lon="12.304816305913254"><ele>605.0</ele><time>2026-04-22T10:58:30Z</time></trkpt><trkpt lat="42.67083683077288" lon="12.30490501458373"><ele>606.6666666666666</ele><time>2026-04-22T10:58:31Z</time></trkpt><trkpt lat="42.670842788229166" lon="12.305014924903274"><ele>608.3333333333333</ele><time>2026-04-22T10:58:32Z</time></trkpt><trkpt lat="42.67085430995572" lon="12.305125683918963"><ele>610.0</ele><time>2026-04-22T10:58:33Z</time></trkpt><trkpt lat="42.67085519953271" lon="12.305232503364314"><ele>611.6666666666666</ele><time>2026-04-22T10:58:34Z</time></trkpt><trkpt lat="42.67083668424547" lon="12.30532550801757"><ele>613.3333333333334</ele><time>2026-04-22T10:58:35Z</time></trkpt><trkpt lat="42.670818725076074" lon="12.305417393324733"><ele>615.0</ele><time>2026-04-22T10:58:36Z</time></trkpt><trkpt lat="42.67077716661763" lon="12.305501211667439"><ele>615.0</ele><time>2026-04-22T10:58:37Z</time></trkpt><trkpt lat="42.67065432384599" lon="12.305568432823087"><ele>615.0</ele><time>2026-04-22T10:58:39Z</time></trkpt><trkpt lat="42.67057613600678" lon="12.305567562159483"><ele>615.0</ele><time>2026-04-22T10:58:40Z</time></trkpt><trkpt lat="42.670491164980604" lon="12.305534563980743"><ele>615.0</ele><time>2026-04-22T10:58:41Z</time></trkpt><trkpt lat="42.67039599425318" lon="12.305499774794791"><ele>615.0</ele><time>2026-04-22T10:58:42Z</time></trkpt><trkpt lat="42.67028466481579" lon="12.305485853760894"><ele>613.4</ele><time>2026-04-22T10:58:43Z</time></trkpt><trkpt lat="42.67017009278315" lon="12.305458948385693"><ele>611.8</ele><time>2026-04-22T10:58:44Z</time></trkpt><trkpt lat="42.67007183553777" lon="12.30542738714145"><ele>610.2</ele><time>2026-04-22T10:58:45Z</time></trkpt><trkpt lat="42.66996931890995" lon="12.305398492307306"><ele>608.6</ele><time>2026-04-22T10:58:46Z</time></trkpt><trkpt lat="42.669884862112085" lon="12.305392461980823"><ele>607.0</ele><time>2026-04-22T10:58:47Z</time></trkpt><trkpt lat="42.669786991260295" lon="12.305346220845003"><ele>607.0</ele><time>2026-04-22T10:58:48Z</time></trkpt><trkpt lat="42.6696896094265" lon="12.305317460077045"><ele>607.0</ele><time>2026-04-22T10:58:49Z</time></trkpt><trkpt lat="42.66960299841184" lon="12.305291880345262"><ele>607.0</ele><time>2026-04-22T10:58:50Z</time></trkpt><trkpt lat="42.669499834417884" lon="12.305284348753903"><ele>607.0</ele><time>2026-04-22T10:58:51Z</time></trkpt><trkpt lat="42.669408460991725" lon="12.305238673059602"><ele>607.0</ele><time>2026-04-22T10:58:52Z</time></trkpt><trkpt lat="42.669309465432235" lon="12.305215927752423"><ele>608.4</ele><time>2026-04-22T10:58:53Z</time></trkpt><trkpt lat="42.66921711835581" lon="12.305198008202995"><ele>609.8000000000001</ele><time>2026-04-22T10:58:54Z</time></trkpt><trkpt lat="42.66911448264781" lon="12.305208152839453"><ele>611.2</ele><time>2026-04-22T10:58:55Z</time></trkpt><trkpt lat="42.669029686600055" lon="12.30518803470734"><ele>612.6</ele><time>2026-04-22T10:58:56.001Z</time></trkpt><trkpt lat="42.668935516852414" lon="12.305190776944746"><ele>614.0</ele><time>2026-04-22T10:58:57.001Z</time></trkpt><trkpt lat="42.66886092953486" lon="12.30519923447527"><ele>614.0</ele><time>2026-04-22T10:58:58.001Z</time></trkpt><trkpt lat="42.66879065801694" lon="12.305240527297713"><ele>614.0</ele><time>2026-04-22T10:58:59.001Z</time></trkpt><trkpt lat="42.66872413500697" lon="12.305244136965744"><ele>614.0</ele><time>2026-04-22T10:59:00.001Z</time></trkpt><trkpt lat="42.66865124997701" lon="12.305259904110942"><ele>614.0</ele><time>2026-04-22T10:59:01.001Z</time></trkpt><trkpt lat="42.66856489786827" lon="12.305347765063138"><ele>614.0</ele><time>2026-04-22T10:59:02.001Z</time></trkpt><trkpt lat="42.66848610017233" lon="12.305415079338974"><ele>614.0</ele><time>2026-04-22T10:59:03.001Z</time></trkpt><trkpt lat="42.66841448109332" lon="12.30550268952018"><ele>616.8</ele><time>2026-04-22T10:59:04.001Z</time></trkpt><trkpt lat="42.66837689759915" lon="12.305658606796474"><ele>619.5999999999999</ele><time>2026-04-22T10:59:06.001Z</time></trkpt><trkpt lat="42.668393005802514" lon="12.305779835275814"><ele>622.4</ele><time>2026-04-22T10:59:08.001Z</time></trkpt><trkpt lat="42.668450486415594" lon="12.305858408938214"><ele>625.1999999999999</ele><time>2026-04-22T10:59:10.001Z</time></trkpt><trkpt lat="42.6685702575529" lon="12.305780135263614"><ele>628.0</ele><time>2026-04-22T10:59:13.001Z</time></trkpt><trkpt lat="42.66863265959141" lon="12.305717856030125"><ele>630.4</ele><time>2026-04-22T10:59:15.001Z</time></trkpt><trkpt lat="42.66866883301338" lon="12.305633274436834"><ele>632.8</ele><time>2026-04-22T10:59:17.001Z</time></trkpt><trkpt lat="42.66883201923517" lon="12.305610580754518"><ele>635.2</ele><time>2026-04-22T10:59:19.001Z</time></trkpt><trkpt lat="42.66890507605515" lon="12.30560205191418"><ele>637.6</ele><time>2026-04-22T10:59:20.001Z</time></trkpt><trkpt lat="42.668986916425695" lon="12.305667594736287"><ele>640.0</ele><time>2026-04-22T10:59:21.001Z</time></trkpt><trkpt lat="42.66904757342796" lon="12.305738749878993"><ele>640.0</ele><time>2026-04-22T10:59:22.001Z</time></trkpt><trkpt lat="42.66911327744895" lon="12.30576844885846"><ele>640.0</ele><time>2026-04-22T10:59:23.001Z</time></trkpt><trkpt lat="42.66918532789653" lon="12.305779176660664"><ele>640.0</ele><time>2026-04-22T10:59:24.001Z</time></trkpt><trkpt lat="42.66924040998666" lon="12.30583370218739"><ele>640.0</ele><time>2026-04-22T10:59:25.001Z</time></trkpt><trkpt lat="42.66936358186416" lon="12.305901549661233"><ele>640.0</ele><time>2026-04-22T10:59:27.001Z</time></trkpt><trkpt lat="42.669408272936586" lon="12.305962626076242"><ele>640.0</ele><time>2026-04-22T10:59:28.001Z</time></trkpt><trkpt lat="42.669520083857165" lon="12.306030791628993"><ele>638.6</ele><time>2026-04-22T10:59:30.001Z</time></trkpt><trkpt lat="42.66961462207759" lon="12.30613443336329"><ele>637.2</ele><time>2026-04-22T10:59:32.001Z</time></trkpt><trkpt lat="42.66972580397565" lon="12.306231786640366"><ele>635.8</ele><time>2026-04-22T10:59:34.001Z</time></trkpt><trkpt lat="42.669798384668965" lon="12.306268910198561"><ele>634.4</ele><time>2026-04-22T10:59:35.001Z</time></trkpt><trkpt lat="42.66986484661008" lon="12.306330766018432"><ele>633.0</ele><time>2026-04-22T10:59:36.001Z</time></trkpt><trkpt lat="42.66992704285984" lon="12.306384336538029"><ele>637.0</ele><time>2026-04-22T10:59:37.001Z</time></trkpt><trkpt lat="42.66999012181592" lon="12.306436695888967"><ele>641.0</ele><time>2026-04-22T10:59:38.001Z</time></trkpt><trkpt lat="42.67005230215526" lon="12.306490608234578"><ele>645.0</ele><time>2026-04-22T10:59:39.001Z</time></trkpt><trkpt lat="42.67011656585628" lon="12.30654419310074"><ele>649.0</ele><time>2026-04-22T10:59:40.001Z</time></trkpt><trkpt lat="42.67018095585019" lon="12.306599664543493"><ele>653.0</ele><time>2026-04-22T10:59:41.001Z</time></trkpt><trkpt lat="42.670254783041926" lon="12.306643791014329"><ele>657.0</ele><time>2026-04-22T10:59:42.001Z</time></trkpt><trkpt lat="42.670321294457906" lon="12.306676116128754"><ele>657.0</ele><time>2026-04-22T10:59:43.001Z</time></trkpt><trkpt lat="42.67040964195648" lon="12.30671522578491"><ele>657.0</ele><time>2026-04-22T10:59:44.001Z</time></trkpt><trkpt lat="42.670495853642656" lon="12.306751727765601"><ele>657.0</ele><time>2026-04-22T10:59:45.001Z</time></trkpt><trkpt lat="42.67057920031226" lon="12.306787879284755"><ele>657.0</ele><time>2026-04-22T10:59:46.001Z</time></trkpt><trkpt lat="42.670661810816874" lon="12.306818929116803"><ele>657.0</ele><time>2026-04-22T10:59:47.001Z</time></trkpt><trkpt lat="42.67073832290421" lon="12.306864218452652"><ele>657.0</ele><time>2026-04-22T10:59:48.001Z</time></trkpt><trkpt lat="42.670821646310834" lon="12.306871516437637"><ele>657.0</ele><time>2026-04-22T10:59:49.001Z</time></trkpt><trkpt lat="42.67088428268475" lon="12.306916278772464"><ele>657.0</ele><time>2026-04-22T10:59:50.001Z</time></trkpt><trkpt lat="42.67095869224757" lon="12.306942230261955"><ele>657.0</ele><time>2026-04-22T10:59:51.001Z</time></trkpt><trkpt lat="42.67103832114921" lon="12.306968081604795"><ele>657.0</ele><time>2026-04-22T10:59:52.001Z</time></trkpt><trkpt lat="42.67113172410489" lon="12.306985065991991"><ele>657.0</ele><time>2026-04-22T10:59:53.001Z</time></trkpt><trkpt lat="42.67122255538172" lon="12.306982482673055"><ele>657.0</ele><time>2026-04-22T10:59:54.001Z</time></trkpt><trkpt lat="42.671308468166515" lon="12.306972140782262"><ele>660.0</ele><time>2026-04-22T10:59:55.001Z</time></trkpt><trkpt lat="42.67139248264808" lon="12.306946278216104"><ele>663.0</ele><time>2026-04-22T10:59:56.001Z</time></trkpt><trkpt lat="42.67147627668023" lon="12.306910191081727"><ele>666.0</ele><time>2026-04-22T10:59:57.001Z</time></trkpt><trkpt lat="42.67155678462192" lon="12.306866583675527"><ele>669.0</ele><time>2026-04-22T10:59:58Z</time></trkpt><trkpt lat="42.67162303735577" lon="12.306782712204981"><ele>672.0</ele><time>2026-04-22T10:59:59Z</time></trkpt><trkpt lat="42.671697391245374" lon="12.306687562870216"><ele>672.0</ele><time>2026-04-22T11:00:00Z</time></trkpt><trkpt lat="42.67177204915866" lon="12.306607047067635"><ele>672.0</ele><time>2026-04-22T11:00:01Z</time></trkpt><trkpt lat="42.671823822110305" lon="12.306503688569158"><ele>672.0</ele><time>2026-04-22T11:00:02Z</time></trkpt><trkpt lat="42.671884885506685" lon="12.306414442927327"><ele>672.0</ele><time>2026-04-22T11:00:03Z</time></trkpt><trkpt lat="42.67194751460104" lon="12.306325264761577"><ele>672.0</ele><time>2026-04-22T11:00:04Z</time></trkpt><trkpt lat="42.672004144992876" lon="12.306233900180088"><ele>675.5</ele><time>2026-04-22T11:00:05Z</time></trkpt><trkpt lat="42.67205555301834" lon="12.30613509814367"><ele>679.0</ele><time>2026-04-22T11:00:06Z</time></trkpt><trkpt lat="42.672093726447464" lon="12.306026466044976"><ele>682.5</ele><time>2026-04-22T11:00:07Z</time></trkpt><trkpt lat="42.67214698093151" lon="12.305928790552443"><ele>686.0</ele><time>2026-04-22T11:00:08Z</time></trkpt><trkpt lat="42.672172041908276" lon="12.3058163254994"><ele>689.5</ele><time>2026-04-22T11:00:09Z</time></trkpt><trkpt lat="42.67220837632316" lon="12.305744610566263"><ele>693.0</ele><time>2026-04-22T11:00:10Z</time></trkpt><trkpt lat="42.672237332733836" lon="12.305602234236709"><ele>692.5999999999999</ele><time>2026-04-22T11:00:11Z</time></trkpt><trkpt lat="42.672260166642396" lon="12.30547707778226"><ele>692.1999999999999</ele><time>2026-04-22T11:00:12Z</time></trkpt><trkpt lat="42.672284157212516" lon="12.305354183339892"><ele>691.8</ele><time>2026-04-22T11:00:13Z</time></trkpt><trkpt lat="42.67231999388179" lon="12.305232413652874"><ele>691.4</ele><time>2026-04-22T11:00:14Z</time></trkpt><trkpt lat="42.67234445955756" lon="12.305097501559304"><ele>691.0</ele><time>2026-04-22T11:00:15Z</time></trkpt><trkpt lat="42.67236465054692" lon="12.304976932742878"><ele>691.0</ele><time>2026-04-22T11:00:16Z</time></trkpt><trkpt lat="42.672382928338706" lon="12.304865817804526"><ele>691.0</ele><time>2026-04-22T11:00:17Z</time></trkpt><trkpt lat="42.67239985453085" lon="12.304762919489995"><ele>691.0</ele><time>2026-04-22T11:00:18Z</time></trkpt><trkpt lat="42.67242545482211" lon="12.304581767907058"><ele>691.0</ele><time>2026-04-22T11:00:20Z</time></trkpt><trkpt lat="42.67244768781291" lon="12.304457341076397"><ele>691.0</ele><time>2026-04-22T11:00:21Z</time></trkpt><trkpt lat="42.67247813021166" lon="12.304348720247802"><ele>690.3333333333334</ele><time>2026-04-22T11:00:22Z</time></trkpt><trkpt lat="42.67250828129439" lon="12.304244813301992"><ele>689.6666666666667</ele><time>2026-04-22T11:00:23Z</time></trkpt><trkpt lat="42.67253675862081" lon="12.304138901765457"><ele>689.0</ele><time>2026-04-22T11:00:24Z</time></trkpt><trkpt lat="42.67256579763446" lon="12.304030139454914"><ele>688.3333333333334</ele><time>2026-04-22T11:00:25Z</time></trkpt><trkpt lat="42.67259916593316" lon="12.303906255187337"><ele>687.6666666666666</ele><time>2026-04-22T11:00:26Z</time></trkpt><trkpt lat="42.67262781222729" lon="12.303794795336623"><ele>687.0</ele><time>2026-04-22T11:00:27Z</time></trkpt><trkpt lat="42.67265163581323" lon="12.303698920846545"><ele>685.6666666666666</ele><time>2026-04-22T11:00:28Z</time></trkpt><trkpt lat="42.672681301404246" lon="12.303584756592763"><ele>684.3333333333334</ele><time>2026-04-22T11:00:29Z</time></trkpt><trkpt lat="42.67271987259944" lon="12.30347493303993"><ele>683.0</ele><time>2026-04-22T11:00:30Z</time></trkpt><trkpt lat="42.67276560118409" lon="12.303355579572965"><ele>681.6666666666667</ele><time>2026-04-22T11:00:31Z</time></trkpt><trkpt lat="42.6728142645356" lon="12.303275873095696"><ele>680.3333333333334</ele><time>2026-04-22T11:00:32Z</time></trkpt><trkpt lat="42.67286915460976" lon="12.303186883679585"><ele>679.0</ele><time>2026-04-22T11:00:33Z</time></trkpt><trkpt lat="42.67292069833181" lon="12.303112349239003"><ele>682.6</ele><time>2026-04-22T11:00:34Z</time></trkpt><trkpt lat="42.672978822983765" lon="12.303042164395782"><ele>686.2</ele><time>2026-04-22T11:00:35Z</time></trkpt><trkpt lat="42.67304393745004" lon="12.302945556998084"><ele>689.8000000000001</ele><time>2026-04-22T11:00:37Z</time></trkpt><trkpt lat="42.67317592930453" lon="12.302820827128043"><ele>693.4000000000001</ele><time>2026-04-22T11:00:39Z</time></trkpt><trkpt lat="42.67325097924515" lon="12.30273872026282"><ele>697.0</ele><time>2026-04-22T11:00:40Z</time></trkpt><trkpt lat="42.67331273845876" lon="12.302662554802552"><ele>697.0</ele><time>2026-04-22T11:00:41Z</time></trkpt><trkpt lat="42.673375493413445" lon="12.302576571343442"><ele>697.0</ele><time>2026-04-22T11:00:42Z</time></trkpt><trkpt lat="42.67343588521639" lon="12.30249691413761"><ele>697.0</ele><time>2026-04-22T11:00:43Z</time></trkpt><trkpt lat="42.67350560016265" lon="12.302449241504378"><ele>697.0</ele><time>2026-04-22T11:00:44Z</time></trkpt><trkpt lat="42.67356297511412" lon="12.302398956625726"><ele>697.0</ele><time>2026-04-22T11:00:45Z</time></trkpt><trkpt lat="42.67361987303563" lon="12.302361329492673"><ele>697.0</ele><time>2026-04-22T11:00:46Z</time></trkpt><trkpt lat="42.67373613400219" lon="12.302315653911963"><ele>700.3333333333334</ele><time>2026-04-22T11:00:48Z</time></trkpt><trkpt lat="42.673801528942114" lon="12.30230252457958"><ele>703.6666666666667</ele><time>2026-04-22T11:00:49Z</time></trkpt><trkpt lat="42.67387795021824" lon="12.302295258760886"><ele>707.0</ele><time>2026-04-22T11:00:50Z</time></trkpt><trkpt lat="42.67395982931552" lon="12.302276356792696"><ele>710.3333333333334</ele><time>2026-04-22T11:00:51Z</time></trkpt><trkpt lat="42.6740419168406" lon="12.302283349797474"><ele>713.6666666666666</ele><time>2026-04-22T11:00:52Z</time></trkpt><trkpt lat="42.67413511109325" lon="12.302287708268572"><ele>717.0</ele><time>2026-04-22T11:00:53Z</time></trkpt><trkpt lat="42.674228598412775" lon="12.302291110236906"><ele>717.0</ele><time>2026-04-22T11:00:54Z</time></trkpt><trkpt lat="42.67431912150103" lon="12.302260059325986"><ele>717.0</ele><time>2026-04-22T11:00:55Z</time></trkpt><trkpt lat="42.67441660911092" lon="12.302253665760873"><ele>717.0</ele><time>2026-04-22T11:00:56Z</time></trkpt><trkpt lat="42.674505744516445" lon="12.302201973235253"><ele>717.0</ele><time>2026-04-22T11:00:57Z</time></trkpt><trkpt lat="42.67458061083621" lon="12.302153248420177"><ele>717.0</ele><time>2026-04-22T11:00:58Z</time></trkpt><trkpt lat="42.67464110788902" lon="12.302103165175575"><ele>717.0</ele><time>2026-04-22T11:00:59Z</time></trkpt><trkpt lat="42.67475179718087" lon="12.302079059001535"><ele>715.6666666666666</ele><time>2026-04-22T11:01:01.001Z</time></trkpt><trkpt lat="42.674816555185394" lon="12.302183091177017"><ele>714.3333333333334</ele><time>2026-04-22T11:01:03.001Z</time></trkpt><trkpt lat="42.67486549127752" lon="12.3023373468025"><ele>713.0</ele><time>2026-04-22T11:01:05Z</time></trkpt><trkpt lat="42.67488727133841" lon="12.302426475379612"><ele>711.6666666666667</ele><time>2026-04-22T11:01:06Z</time></trkpt><trkpt lat="42.67490158703384" lon="12.302519807544531"><ele>710.3333333333334</ele><time>2026-04-22T11:01:07Z</time></trkpt><trkpt lat="42.67491739601822" lon="12.302615773109308"><ele>709.0</ele><time>2026-04-22T11:01:08Z</time></trkpt><trkpt lat="42.67493198710184" lon="12.302727314654453"><ele>709.0</ele><time>2026-04-22T11:01:09Z</time></trkpt><trkpt lat="42.674946568823096" lon="12.302855256383394"><ele>709.0</ele><time>2026-04-22T11:01:10Z</time></trkpt><trkpt lat="42.674945448181255" lon="12.302981888931196"><ele>709.0</ele><time>2026-04-22T11:01:11Z</time></trkpt><trkpt lat="42.6749224098019" lon="12.303103825647037"><ele>709.0</ele><time>2026-04-22T11:01:12Z</time></trkpt><trkpt lat="42.6748963117356" lon="12.30323873556556"><ele>709.0</ele><time>2026-04-22T11:01:13Z</time></trkpt><trkpt lat="42.67487423617862" lon="12.303380684690673"><ele>711.0</ele><time>2026-04-22T11:01:14Z</time></trkpt><trkpt lat="42.674852059274905" lon="12.3035276965978"><ele>713.0</ele><time>2026-04-22T11:01:15Z</time></trkpt><trkpt lat="42.674846252827834" lon="12.30368498830782"><ele>715.0</ele><time>2026-04-22T11:01:16Z</time></trkpt><trkpt lat="42.67483363038574" lon="12.30383919343432"><ele>717.0</ele><time>2026-04-22T11:01:17Z</time></trkpt><trkpt lat="42.67482255033004" lon="12.303997923140939"><ele>717.5</ele><time>2026-04-22T11:01:18Z</time></trkpt><trkpt lat="42.67480991923669" lon="12.304171355645517"><ele>718.0</ele><time>2026-04-22T11:01:19Z</time></trkpt><trkpt lat="42.67480519760693" lon="12.304321224000489"><ele>718.5</ele><time>2026-04-22T11:01:20Z</time></trkpt><trkpt lat="42.67480454209647" lon="12.304482194189688"><ele>719.0</ele><time>2026-04-22T11:01:21Z</time></trkpt><trkpt lat="42.67480648086565" lon="12.304655050493487"><ele>719.6</ele><time>2026-04-22T11:01:22Z</time></trkpt><trkpt lat="42.6747986072668" lon="12.30483233887763"><ele>720.2</ele><time>2026-04-22T11:01:23Z</time></trkpt><trkpt lat="42.67480244305692" lon="12.304999056123027"><ele>720.8000000000001</ele><time>2026-04-22T11:01:24Z</time></trkpt><trkpt lat="42.67480581385468" lon="12.305087419643677"><ele>721.4000000000001</ele><time>2026-04-22T11:01:25Z</time></trkpt><trkpt lat="42.67479171875873" lon="12.305221381756795"><ele>722.0</ele><time>2026-04-22T11:01:26Z</time></trkpt><trkpt lat="42.674805103792906" lon="12.305365712601914"><ele>722.0</ele><time>2026-04-22T11:01:27Z</time></trkpt><trkpt lat="42.67479399080595" lon="12.305508911636682"><ele>722.0</ele><time>2026-04-22T11:01:28Z</time></trkpt><trkpt lat="42.67477437526316" lon="12.305636933028712"><ele>722.0</ele><time>2026-04-22T11:01:29Z</time></trkpt><trkpt lat="42.674734162395396" lon="12.305746127390464"><ele>722.0</ele><time>2026-04-22T11:01:30Z</time></trkpt><trkpt lat="42.67469676165748" lon="12.305875230550892"><ele>722.0</ele><time>2026-04-22T11:01:31Z</time></trkpt><trkpt lat="42.67467506753084" lon="12.30598561741564"><ele>721.3333333333333</ele><time>2026-04-22T11:01:32Z</time></trkpt><trkpt lat="42.674635006230766" lon="12.306089092275034"><ele>720.6666666666666</ele><time>2026-04-22T11:01:33Z</time></trkpt><trkpt lat="42.67460649589491" lon="12.306204188057217"><ele>720.0</ele><time>2026-04-22T11:01:34Z</time></trkpt><trkpt lat="42.674550819449166" lon="12.306303954199151"><ele>719.3333333333334</ele><time>2026-04-22T11:01:35Z</time></trkpt><trkpt lat="42.67450607464041" lon="12.30639625436974"><ele>718.6666666666667</ele><time>2026-04-22T11:01:36Z</time></trkpt><trkpt lat="42.67447653022398" lon="12.306493024245725"><ele>718.0</ele><time>2026-04-22T11:01:37Z</time></trkpt><trkpt lat="42.67442158468608" lon="12.306562184143544"><ele>723.0</ele><time>2026-04-22T11:01:38Z</time></trkpt><trkpt lat="42.67437952661264" lon="12.306669458622352"><ele>728.0</ele><time>2026-04-22T11:01:39Z</time></trkpt><trkpt lat="42.674315827192494" lon="12.306759239489754"><ele>733.0</ele><time>2026-04-22T11:01:40Z</time></trkpt><trkpt lat="42.6742718625788" lon="12.306870447539305"><ele>738.0</ele><time>2026-04-22T11:01:41Z</time></trkpt><trkpt lat="42.67420940494122" lon="12.30698621359227"><ele>743.0</ele><time>2026-04-22T11:01:42Z</time></trkpt><trkpt lat="42.67414898732338" lon="12.307101632444759"><ele>743.0</ele><time>2026-04-22T11:01:43Z</time></trkpt><trkpt lat="42.6740763122409" lon="12.30719213832869"><ele>743.0</ele><time>2026-04-22T11:01:44Z</time></trkpt><trkpt lat="42.67400548987685" lon="12.307299942563459"><ele>743.0</ele><time>2026-04-22T11:01:45Z</time></trkpt><trkpt lat="42.67394876244906" lon="12.307384138487823"><ele>743.0</ele><time>2026-04-22T11:01:46Z</time></trkpt><trkpt lat="42.67388939206945" lon="12.307468540613236"><ele>743.0</ele><time>2026-04-22T11:01:47Z</time></trkpt><trkpt lat="42.67381484329414" lon="12.30756907339636"><ele>742.5999999999999</ele><time>2026-04-22T11:01:48Z</time></trkpt><trkpt lat="42.67373808185111" lon="12.307654054297464"><ele>742.1999999999999</ele><time>2026-04-22T11:01:49Z</time></trkpt><trkpt lat="42.67365362564907" lon="12.307729057923515"><ele>741.8</ele><time>2026-04-22T11:01:50Z</time></trkpt><trkpt lat="42.67357456773019" lon="12.307791002312234"><ele>741.4</ele><time>2026-04-22T11:01:51Z</time></trkpt><trkpt lat="42.67348231482726" lon="12.307863771006067"><ele>741.0</ele><time>2026-04-22T11:01:52Z</time></trkpt><trkpt lat="42.67339735596974" lon="12.307927696087352"><ele>741.0</ele><time>2026-04-22T11:01:53Z</time></trkpt><trkpt lat="42.67333802994212" lon="12.307994872884821"><ele>741.0</ele><time>2026-04-22T11:01:54Z</time></trkpt><trkpt lat="42.673277897825514" lon="12.308046601398186"><ele>741.0</ele><time>2026-04-22T11:01:55Z</time></trkpt><trkpt lat="42.6732238481698" lon="12.30817102813606"><ele>741.0</ele><time>2026-04-22T11:01:57Z</time></trkpt><trkpt lat="42.67321115526918" lon="12.308281212154595"><ele>741.0</ele><time>2026-04-22T11:01:59Z</time></trkpt><trkpt lat="42.67320067972136" lon="12.308477232892349"><ele>741.5</ele><time>2026-04-22T11:02:01Z</time></trkpt><trkpt lat="42.673215655764665" lon="12.30860169897664"><ele>742.0</ele><time>2026-04-22T11:02:02Z</time></trkpt><trkpt lat="42.67321894775464" lon="12.308721552947386"><ele>742.5</ele><time>2026-04-22T11:02:03Z</time></trkpt><trkpt lat="42.67321972878097" lon="12.30884042078628"><ele>743.0</ele><time>2026-04-22T11:02:04Z</time></trkpt><trkpt lat="42.67321895266785" lon="12.308966694145992"><ele>743.5</ele><time>2026-04-22T11:02:05Z</time></trkpt><trkpt lat="42.67322466623205" lon="12.3090687417548"><ele>744.0</ele><time>2026-04-22T11:02:06Z</time></trkpt><trkpt lat="42.67323046597156" lon="12.309182274512633"><ele>745.2</ele><time>2026-04-22T11:02:07Z</time></trkpt><trkpt lat="42.67324456281126" lon="12.309289354798544"><ele>746.4000000000001</ele><time>2026-04-22T11:02:07.999Z</time></trkpt><trkpt lat="42.673265714008586" lon="12.309426004799409"><ele>747.6</ele><time>2026-04-22T11:02:08.999Z</time></trkpt><trkpt lat="42.673285609011536" lon="12.309548343928642"><ele>748.8</ele><time>2026-04-22T11:02:09.999Z</time></trkpt><trkpt lat="42.67331331583148" lon="12.309671445987373"><ele>750.0</ele><time>2026-04-22T11:02:10.999Z</time></trkpt><trkpt lat="42.67333419230636" lon="12.309797611514783"><ele>750.5</ele><time>2026-04-22T11:02:11.999Z</time></trkpt><trkpt lat="42.67335676248008" lon="12.30993355318019"><ele>751.0</ele><time>2026-04-22T11:02:12.999Z</time></trkpt><trkpt lat="42.67336127409055" lon="12.31005293732061"><ele>751.5</ele><time>2026-04-22T11:02:13.999Z</time></trkpt><trkpt lat="42.673366308480475" lon="12.310153709039202"><ele>752.0</ele><time>2026-04-22T11:02:14.999Z</time></trkpt><trkpt lat="42.67336857412939" lon="12.310246487849293"><ele>752.5</ele><time>2026-04-22T11:02:15.999Z</time></trkpt><trkpt lat="42.67336355531983" lon="12.310337601758672"><ele>753.0</ele><time>2026-04-22T11:02:16.999Z</time></trkpt><trkpt lat="42.6733448223603" lon="12.31046837328533"><ele>753.5999999999999</ele><time>2026-04-22T11:02:17.999Z</time></trkpt><trkpt lat="42.67333110633574" lon="12.310613497827775"><ele>754.1999999999999</ele><time>2026-04-22T11:02:18.999Z</time></trkpt><trkpt lat="42.67330134676133" lon="12.310762096368387"><ele>754.8</ele><time>2026-04-22T11:02:19.999Z</time></trkpt><trkpt lat="42.673277931456965" lon="12.310913216764025"><ele>755.4</ele><time>2026-04-22T11:02:20.999Z</time></trkpt><trkpt lat="42.673257006434525" lon="12.311061352039903"><ele>756.0</ele><time>2026-04-22T11:02:21.999Z</time></trkpt><trkpt lat="42.673241425334155" lon="12.311220898072872"><ele>756.0</ele><time>2026-04-22T11:02:22.999Z</time></trkpt><trkpt lat="42.673225533859444" lon="12.311383445091785"><ele>756.0</ele><time>2026-04-22T11:02:23.999Z</time></trkpt><trkpt lat="42.67321349270457" lon="12.311553504649678"><ele>756.0</ele><time>2026-04-22T11:02:24.999Z</time></trkpt><trkpt lat="42.67320146088512" lon="12.311723559067842"><ele>756.0</ele><time>2026-04-22T11:02:25.999Z</time></trkpt><trkpt lat="42.67318342838059" lon="12.311892418769133"><ele>757.0</ele><time>2026-04-22T11:02:26.999Z</time></trkpt><trkpt lat="42.67317664336651" lon="12.312062619260539"><ele>758.0</ele><time>2026-04-22T11:02:27.999Z</time></trkpt><trkpt lat="42.67318252262018" lon="12.312232169094942"><ele>759.0</ele><time>2026-04-22T11:02:28.999Z</time></trkpt><trkpt lat="42.67317564126306" lon="12.312391810996006"><ele>760.0</ele><time>2026-04-22T11:02:29.999Z</time></trkpt><trkpt lat="42.673142887527675" lon="12.312513571186793"><ele>761.0</ele><time>2026-04-22T11:02:30.999Z</time></trkpt><trkpt lat="42.673122310872564" lon="12.312624555504705"><ele>762.0</ele><time>2026-04-22T11:02:31.999Z</time></trkpt><trkpt lat="42.67303305690152" lon="12.312724910741462"><ele>763.0</ele><time>2026-04-22T11:02:33.999Z</time></trkpt><trkpt lat="42.6729384045601" lon="12.312810684324896"><ele>764.0</ele><time>2026-04-22T11:02:35.999Z</time></trkpt><trkpt lat="42.67288319646624" lon="12.312933555062589"><ele>765.0</ele><time>2026-04-22T11:02:37.999Z</time></trkpt><trkpt lat="42.672926493648674" lon="12.313109686343015"><ele>766.0</ele><time>2026-04-22T11:02:39.999Z</time></trkpt><trkpt lat="42.67301020340805" lon="12.313165506064443"><ele>767.0</ele><time>2026-04-22T11:02:40.999Z</time></trkpt><trkpt lat="42.673065637005934" lon="12.313242266796774"><ele>768.0</ele><time>2026-04-22T11:02:41.999Z</time></trkpt><trkpt lat="42.67311763626692" lon="12.313317209089789"><ele>769.0</ele><time>2026-04-22T11:02:42.999Z</time></trkpt><trkpt lat="42.673164375025" lon="12.313412898753503"><ele>770.0</ele><time>2026-04-22T11:02:43.999Z</time></trkpt><trkpt lat="42.67318363490993" lon="12.313534197702698"><ele>771.0</ele><time>2026-04-22T11:02:44.999Z</time></trkpt><trkpt lat="42.673220385748344" lon="12.31366639421499"><ele>771.0</ele><time>2026-04-22T11:02:45.999Z</time></trkpt><trkpt lat="42.67326596014744" lon="12.313785374492666"><ele>771.0</ele><time>2026-04-22T11:02:46.999Z</time></trkpt><trkpt lat="42.67329953291442" lon="12.313910055165028"><ele>771.0</ele><time>2026-04-22T11:02:47.999Z</time></trkpt><trkpt lat="42.67335645761242" lon="12.314002355285096"><ele>771.0</ele><time>2026-04-22T11:02:48.999Z</time></trkpt><trkpt lat="42.673403026629835" lon="12.314088404481797"><ele>771.0</ele><time>2026-04-22T11:02:49.999Z</time></trkpt><trkpt lat="42.67348065743627" lon="12.314154913544227"><ele>771.0</ele><time>2026-04-22T11:02:50.999Z</time></trkpt><trkpt lat="42.6735293614129" lon="12.314225011258046"><ele>771.0</ele><time>2026-04-22T11:02:51.999Z</time></trkpt><trkpt lat="42.67356452462997" lon="12.314379435098044"><ele>771.0</ele><time>2026-04-22T11:02:53.999Z</time></trkpt><trkpt lat="42.673586925773364" lon="12.314570317086865"><ele>771.0</ele><time>2026-04-22T11:02:55.999Z</time></trkpt><trkpt lat="42.67360313824821" lon="12.314670457870701"><ele>771.0</ele><time>2026-04-22T11:02:56.999Z</time></trkpt><trkpt lat="42.67358964127945" lon="12.314784195279975"><ele>771.0</ele><time>2026-04-22T11:02:57.999Z</time></trkpt><trkpt lat="42.67358659180173" lon="12.314878165677253"><ele>771.0</ele><time>2026-04-22T11:02:58.999Z</time></trkpt><trkpt lat="42.673594966373344" lon="12.314995736641169"><ele>771.0</ele><time>2026-04-22T11:02:59.999Z</time></trkpt><trkpt lat="42.6735679449805" lon="12.315189098864847"><ele>771.0</ele><time>2026-04-22T11:03:01.999Z</time></trkpt><trkpt lat="42.67355166168358" lon="12.315283385979303"><ele>771.0</ele><time>2026-04-22T11:03:02.999Z</time></trkpt><trkpt lat="42.67352073366262" lon="12.315376069994489"><ele>771.0</ele><time>2026-04-22T11:03:03.999Z</time></trkpt><trkpt lat="42.673520835840876" lon="12.315467333481653"><ele>769.3333333333334</ele><time>2026-04-22T11:03:04.999Z</time></trkpt><trkpt lat="42.673473441710165" lon="12.31562024239"><ele>767.6666666666666</ele><time>2026-04-22T11:03:07Z</time></trkpt><trkpt lat="42.673454021695306" lon="12.315712890356606"><ele>766.0</ele><time>2026-04-22T11:03:08Z</time></trkpt><trkpt lat="42.673434023332966" lon="12.315803480216443"><ele>764.3333333333333</ele><time>2026-04-22T11:03:09Z</time></trkpt><trkpt lat="42.67341472156538" lon="12.315885145689045"><ele>762.6666666666666</ele><time>2026-04-22T11:03:10Z</time></trkpt><trkpt lat="42.673391957641684" lon="12.315976978248965"><ele>761.0</ele><time>2026-04-22T11:03:11Z</time></trkpt><trkpt lat="42.67335300397943" lon="12.316124455964868"><ele>761.0</ele><time>2026-04-22T11:03:13Z</time></trkpt><trkpt lat="42.67332739979923" lon="12.316274618210185"><ele>761.0</ele><time>2026-04-22T11:03:15Z</time></trkpt><trkpt lat="42.673275493811296" lon="12.316429208133513"><ele>761.0</ele><time>2026-04-22T11:03:17Z</time></trkpt><trkpt lat="42.67322553140808" lon="12.3165977992118"><ele>761.0</ele><time>2026-04-22T11:03:19Z</time></trkpt><trkpt lat="42.67319557779982" lon="12.316678048280943"><ele>761.0</ele><time>2026-04-22T11:03:20Z</time></trkpt><trkpt lat="42.67313154271032" lon="12.316806705081234"><ele>757.8</ele><time>2026-04-22T11:03:22Z</time></trkpt><trkpt lat="42.673060230479095" lon="12.31692086006066"><ele>754.5999999999999</ele><time>2026-04-22T11:03:24Z</time></trkpt><trkpt lat="42.67302912758969" lon="12.31700763737915"><ele>751.4</ele><time>2026-04-22T11:03:25Z</time></trkpt><trkpt lat="42.672983497191616" lon="12.317073497246124"><ele>748.2</ele><time>2026-04-22T11:03:26Z</time></trkpt><trkpt lat="42.67293442694314" lon="12.317147043193017"><ele>745.0</ele><time>2026-04-22T11:03:27Z</time></trkpt><trkpt lat="42.672875999711586" lon="12.317324352136612"><ele>746.1666666666667</ele><time>2026-04-22T11:03:29Z</time></trkpt><trkpt lat="42.672857212125066" lon="12.317435529762301"><ele>747.3333333333334</ele><time>2026-04-22T11:03:30Z</time></trkpt><trkpt lat="42.672844994291665" lon="12.317540345260488"><ele>748.5</ele><time>2026-04-22T11:03:31Z</time></trkpt><trkpt lat="42.67282702611076" lon="12.317650463514642"><ele>749.6666666666666</ele><time>2026-04-22T11:03:32Z</time></trkpt><trkpt lat="42.67280688762963" lon="12.317760182996535"><ele>750.8333333333333</ele><time>2026-04-22T11:03:33Z</time></trkpt><trkpt lat="42.67276549528281" lon="12.317857024072532"><ele>752.0</ele><time>2026-04-22T11:03:34Z</time></trkpt><trkpt lat="42.672738619397514" lon="12.317958538360639"><ele>752.0</ele><time>2026-04-22T11:03:35Z</time></trkpt><trkpt lat="42.67271203045114" lon="12.318052380936122"><ele>752.0</ele><time>2026-04-22T11:03:36Z</time></trkpt><trkpt lat="42.67268571873126" lon="12.318135105207089"><ele>752.0</ele><time>2026-04-22T11:03:37Z</time></trkpt><trkpt lat="42.67265467550327" lon="12.318224074003204"><ele>752.0</ele><time>2026-04-22T11:03:38Z</time></trkpt><trkpt lat="42.67257703639219" lon="12.318346793079153"><ele>752.0</ele><time>2026-04-22T11:03:40Z</time></trkpt><trkpt lat="42.6724832538372" lon="12.31842759043732"><ele>752.0</ele><time>2026-04-22T11:03:42Z</time></trkpt><trkpt lat="42.67242315107784" lon="12.31845530577541"><ele>748.6666666666666</ele><time>2026-04-22T11:03:43Z</time></trkpt><trkpt lat="42.672350539578964" lon="12.318494350963643"><ele>745.3333333333333</ele><time>2026-04-22T11:03:44Z</time></trkpt><trkpt lat="42.67228573513653" lon="12.318537606587407"><ele>742.0</ele><time>2026-04-22T11:03:45Z</time></trkpt><trkpt lat="42.67218991167996" lon="12.318574933150506"><ele>738.6666666666666</ele><time>2026-04-22T11:03:46Z</time></trkpt><trkpt lat="42.672115563541595" lon="12.318613142136089"><ele>735.3333333333334</ele><time>2026-04-22T11:03:47Z</time></trkpt><trkpt lat="42.67205378211139" lon="12.318669253214983"><ele>732.0</ele><time>2026-04-22T11:03:48Z</time></trkpt><trkpt lat="42.671991103284505" lon="12.318695218262352"><ele>733.1666666666666</ele><time>2026-04-22T11:03:49Z</time></trkpt><trkpt lat="42.67192568859717" lon="12.318723455209884"><ele>734.3333333333334</ele><time>2026-04-22T11:03:50Z</time></trkpt><trkpt lat="42.67186424950353" lon="12.318770272538876"><ele>735.5</ele><time>2026-04-22T11:03:51Z</time></trkpt><trkpt lat="42.67179503446983" lon="12.318824938921361"><ele>736.6666666666667</ele><time>2026-04-22T11:03:52Z</time></trkpt><trkpt lat="42.67173373888268" lon="12.318942322886215"><ele>737.8333333333334</ele><time>2026-04-22T11:03:54Z</time></trkpt><trkpt lat="42.6717563181224" lon="12.319095786177328"><ele>739.0</ele><time>2026-04-22T11:03:56Z</time></trkpt><trkpt lat="42.671854550705376" lon="12.319213705203097"><ele>739.0</ele><time>2026-04-22T11:03:58Z</time></trkpt><trkpt lat="42.67193285339186" lon="12.31925570704577"><ele>739.0</ele><time>2026-04-22T11:03:59Z</time></trkpt><trkpt lat="42.67201206773491" lon="12.319272338111766"><ele>739.0</ele><time>2026-04-22T11:04:00Z</time></trkpt><trkpt lat="42.672092253581965" lon="12.319313225186646"><ele>739.0</ele><time>2026-04-22T11:04:01Z</time></trkpt><trkpt lat="42.67216021946525" lon="12.319354714283277"><ele>739.0</ele><time>2026-04-22T11:04:02Z</time></trkpt><trkpt lat="42.67228801311229" lon="12.319419478886703"><ele>735.0</ele><time>2026-04-22T11:04:04Z</time></trkpt><trkpt lat="42.67236711383718" lon="12.319467779120453"><ele>731.0</ele><time>2026-04-22T11:04:05Z</time></trkpt><trkpt lat="42.67246247677473" lon="12.319518725431326"><ele>727.0</ele><time>2026-04-22T11:04:06Z</time></trkpt><trkpt lat="42.67254539634043" lon="12.319570303920427"><ele>723.0</ele><time>2026-04-22T11:04:07Z</time></trkpt><trkpt lat="42.67262524797947" lon="12.319608449293181"><ele>719.0</ele><time>2026-04-22T11:04:08Z</time></trkpt><trkpt lat="42.672713459238174" lon="12.319663706486093"><ele>716.6</ele><time>2026-04-22T11:04:09Z</time></trkpt><trkpt lat="42.67280301089366" lon="12.319727493483194"><ele>714.2</ele><time>2026-04-22T11:04:10Z</time></trkpt><trkpt lat="42.672882302562655" lon="12.319769416145666"><ele>711.8000000000001</ele><time>2026-04-22T11:04:11Z</time></trkpt><trkpt lat="42.6729699584399" lon="12.319815761107327"><ele>709.4000000000001</ele><time>2026-04-22T11:04:12Z</time></trkpt><trkpt lat="42.67304536519907" lon="12.31985562977623"><ele>707.0</ele><time>2026-04-22T11:04:13Z</time></trkpt><trkpt lat="42.673134056632364" lon="12.31988455305751"><ele>707.0</ele><time>2026-04-22T11:04:14Z</time></trkpt><trkpt lat="42.673225417336674" lon="12.319926930959822"><ele>707.0</ele><time>2026-04-22T11:04:14.999Z</time></trkpt><trkpt lat="42.67330891724226" lon="12.320000838688294"><ele>707.0</ele><time>2026-04-22T11:04:15.999Z</time></trkpt><trkpt lat="42.67337222437945" lon="12.32003932396578"><ele>707.0</ele><time>2026-04-22T11:04:16.999Z</time></trkpt><trkpt lat="42.67345424471953" lon="12.320090754237224"><ele>707.0</ele><time>2026-04-22T11:04:17.999Z</time></trkpt><trkpt lat="42.67351857700274" lon="12.320169785100504"><ele>707.0</ele><time>2026-04-22T11:04:18.999Z</time></trkpt><trkpt lat="42.67356710300551" lon="12.320260902695706"><ele>707.0</ele><time>2026-04-22T11:04:19.999Z</time></trkpt><trkpt lat="42.67356954309925" lon="12.320379589839852"><ele>707.0</ele><time>2026-04-22T11:04:20.999Z</time></trkpt><trkpt lat="42.673567972041965" lon="12.320483366074212"><ele>707.0</ele><time>2026-04-22T11:04:21.999Z</time></trkpt><trkpt lat="42.673567049178665" lon="12.320604909133365"><ele>707.0</ele><time>2026-04-22T11:04:22.999Z</time></trkpt><trkpt lat="42.673537492535644" lon="12.320723609846263"><ele>707.0</ele><time>2026-04-22T11:04:23.999Z</time></trkpt><trkpt lat="42.67349451739355" lon="12.320847935637591"><ele>707.0</ele><time>2026-04-22T11:04:24.999Z</time></trkpt><trkpt lat="42.67346520565396" lon="12.320966785320001"><ele>708.0</ele><time>2026-04-22T11:04:25.999Z</time></trkpt><trkpt lat="42.673452252956636" lon="12.321072368670432"><ele>709.0</ele><time>2026-04-22T11:04:26.999Z</time></trkpt><trkpt lat="42.673430709549464" lon="12.32116690708089"><ele>710.0</ele><time>2026-04-22T11:04:27.999Z</time></trkpt><trkpt lat="42.673464119361824" lon="12.321337125436752"><ele>711.0</ele><time>2026-04-22T11:04:29.999Z</time></trkpt><trkpt lat="42.673536919653806" lon="12.32136214696348"><ele>712.0</ele><time>2026-04-22T11:04:30.999Z</time></trkpt><trkpt lat="42.673621647250606" lon="12.321318148555518"><ele>713.0</ele><time>2026-04-22T11:04:31.999Z</time></trkpt><trkpt lat="42.67369515420168" lon="12.321273290284783"><ele>710.0</ele><time>2026-04-22T11:04:32.999Z</time></trkpt><trkpt lat="42.673769138209146" lon="12.32120310609555"><ele>707.0</ele><time>2026-04-22T11:04:33.999Z</time></trkpt><trkpt lat="42.673838715292426" lon="12.321102381556226"><ele>704.0</ele><time>2026-04-22T11:04:34.999Z</time></trkpt><trkpt lat="42.67391923841837" lon="12.32102293049353"><ele>701.0</ele><time>2026-04-22T11:04:35.999Z</time></trkpt><trkpt lat="42.67400269499804" lon="12.320937122673786"><ele>698.0</ele><time>2026-04-22T11:04:36.999Z</time></trkpt><trkpt lat="42.67409609662944" lon="12.320882252800413"><ele>698.0</ele><time>2026-04-22T11:04:37.999Z</time></trkpt><trkpt lat="42.67417641055991" lon="12.320824527338294"><ele>698.0</ele><time>2026-04-22T11:04:38.999Z</time></trkpt><trkpt lat="42.6742654518638" lon="12.320760136177212"><ele>698.0</ele><time>2026-04-22T11:04:39.999Z</time></trkpt><trkpt lat="42.6743317443331" lon="12.320714928313743"><ele>698.0</ele><time>2026-04-22T11:04:40.999Z</time></trkpt><trkpt lat="42.674408152250365" lon="12.320667272479337"><ele>698.0</ele><time>2026-04-22T11:04:41.999Z</time></trkpt><trkpt lat="42.67448686796596" lon="12.32063002824585"><ele>698.0</ele><time>2026-04-22T11:04:42.999Z</time></trkpt><trkpt lat="42.67455534714033" lon="12.320607768897762"><ele>698.0</ele><time>2026-04-22T11:04:43.999Z</time></trkpt><trkpt lat="42.6746399187929" lon="12.32059524269961"><ele>698.0</ele><time>2026-04-22T11:04:44.999Z</time></trkpt><trkpt lat="42.67471309607661" lon="12.320588135960854"><ele>698.0</ele><time>2026-04-22T11:04:45.999Z</time></trkpt><trkpt lat="42.674788043981884" lon="12.320588285453127"><ele>698.0</ele><time>2026-04-22T11:04:46.999Z</time></trkpt><trkpt lat="42.6748659649441" lon="12.320593713167481"><ele>698.0</ele><time>2026-04-22T11:04:47.999Z</time></trkpt><trkpt lat="42.67495726471455" lon="12.320600592804851"><ele>698.0</ele><time>2026-04-22T11:04:48.999Z</time></trkpt><trkpt lat="42.6750468726186" lon="12.32060151418781"><ele>698.0</ele><time>2026-04-22T11:04:49.999Z</time></trkpt><trkpt lat="42.67513388021841" lon="12.320592456911656"><ele>698.0</ele><time>2026-04-22T11:04:50.999Z</time></trkpt><trkpt lat="42.67521868431151" lon="12.320559302866487"><ele>698.0</ele><time>2026-04-22T11:04:51.999Z</time></trkpt><trkpt lat="42.67531292052007" lon="12.320556980156379"><ele>698.0</ele><time>2026-04-22T11:04:52.999Z</time></trkpt><trkpt lat="42.67540405247772" lon="12.320534224519582"><ele>698.0</ele><time>2026-04-22T11:04:53.999Z</time></trkpt><trkpt lat="42.67548362345338" lon="12.320519248507846"><ele>698.0</ele><time>2026-04-22T11:04:54.999Z</time></trkpt><trkpt lat="42.67554846056087" lon="12.320518895095677"><ele>695.4</ele><time>2026-04-22T11:04:55.999Z</time></trkpt><trkpt lat="42.67562102590609" lon="12.320527353847755"><ele>692.8</ele><time>2026-04-22T11:04:56.999Z</time></trkpt><trkpt lat="42.67573052364876" lon="12.32060395842665"><ele>690.2</ele><time>2026-04-22T11:04:58.999Z</time></trkpt><trkpt lat="42.675789184401275" lon="12.32065761741725"><ele>687.6</ele><time>2026-04-22T11:04:59.999Z</time></trkpt><trkpt lat="42.6758696418916" lon="12.320755902214232"><ele>685.0</ele><time>2026-04-22T11:05:01.999Z</time></trkpt><trkpt lat="42.67600742919215" lon="12.320813236275034"><ele>685.0</ele><time>2026-04-22T11:05:03.999Z</time></trkpt><trkpt lat="42.67608725424887" lon="12.320789055568403"><ele>685.0</ele><time>2026-04-22T11:05:04.999Z</time></trkpt><trkpt lat="42.67617883935677" lon="12.32075895616699"><ele>685.0</ele><time>2026-04-22T11:05:05.999Z</time></trkpt><trkpt lat="42.67626452038959" lon="12.32073999309146"><ele>685.0</ele><time>2026-04-22T11:05:06.999Z</time></trkpt><trkpt lat="42.67633787567059" lon="12.320729456712352"><ele>685.0</ele><time>2026-04-22T11:05:07.999Z</time></trkpt><trkpt lat="42.67643403668296" lon="12.32079162741944"><ele>685.0</ele><time>2026-04-22T11:05:09.999Z</time></trkpt><trkpt lat="42.67655008348064" lon="12.320870988846798"><ele>683.3333333333334</ele><time>2026-04-22T11:05:11.999Z</time></trkpt><trkpt lat="42.67660278299376" lon="12.320923530479158"><ele>681.6666666666667</ele><time>2026-04-22T11:05:13Z</time></trkpt><trkpt lat="42.676689503740405" lon="12.32103799770104"><ele>680.0</ele><time>2026-04-22T11:05:15Z</time></trkpt><trkpt lat="42.67672731996073" lon="12.321107436388946"><ele>678.3333333333334</ele><time>2026-04-22T11:05:16Z</time></trkpt><trkpt lat="42.67675217295119" lon="12.321196921187445"><ele>676.6666666666666</ele><time>2026-04-22T11:05:17Z</time></trkpt><trkpt lat="42.676778448467836" lon="12.321361651430989"><ele>675.0</ele><time>2026-04-22T11:05:19Z</time></trkpt><trkpt lat="42.67679238207816" lon="12.321517300789976"><ele>675.0</ele><time>2026-04-22T11:05:21Z</time></trkpt><trkpt lat="42.676804125046445" lon="12.321610947651108"><ele>675.0</ele><time>2026-04-22T11:05:22Z</time></trkpt><trkpt lat="42.6768309174174" lon="12.321703223589944"><ele>675.0</ele><time>2026-04-22T11:05:23Z</time></trkpt><trkpt lat="42.6768636831964" lon="12.321781394674911"><ele>675.0</ele><time>2026-04-22T11:05:24Z</time></trkpt><trkpt lat="42.67690568826065" lon="12.321848440893309"><ele>675.0</ele><time>2026-04-22T11:05:25Z</time></trkpt><trkpt lat="42.67698455942375" lon="12.321901414554832"><ele>675.0</ele><time>2026-04-22T11:05:26Z</time></trkpt><trkpt lat="42.67705579702118" lon="12.321943443442567"><ele>675.0</ele><time>2026-04-22T11:05:27Z</time></trkpt><trkpt lat="42.67713772739053" lon="12.321974716549043"><ele>671.8333333333334</ele><time>2026-04-22T11:05:28Z</time></trkpt><trkpt lat="42.67721363665011" lon="12.322019344705348"><ele>668.6666666666666</ele><time>2026-04-22T11:05:29Z</time></trkpt><trkpt lat="42.677277954656795" lon="12.322057158227384"><ele>665.5</ele><time>2026-04-22T11:05:30Z</time></trkpt><trkpt lat="42.677346529995745" lon="12.322097474714981"><ele>662.3333333333333</ele><time>2026-04-22T11:05:31Z</time></trkpt><trkpt lat="42.67741391585064" lon="12.322137091903755"><ele>659.1666666666666</ele><time>2026-04-22T11:05:32Z</time></trkpt><trkpt lat="42.67747283538684" lon="12.322183393806073"><ele>656.0</ele><time>2026-04-22T11:05:33Z</time></trkpt><trkpt lat="42.677540023673934" lon="12.322260544416196"><ele>656.0</ele><time>2026-04-22T11:05:34Z</time></trkpt><trkpt lat="42.67759582704316" lon="12.322340935841627"><ele>656.0</ele><time>2026-04-22T11:05:35Z</time></trkpt><trkpt lat="42.67757318358491" lon="12.32245375236118"><ele>656.0</ele><time>2026-04-22T11:05:36Z</time></trkpt><trkpt lat="42.67756344049866" lon="12.322576404286151"><ele>656.0</ele><time>2026-04-22T11:05:37Z</time></trkpt><trkpt lat="42.67754011406103" lon="12.32271190788364"><ele>656.0</ele><time>2026-04-22T11:05:38Z</time></trkpt><trkpt lat="42.67752086823152" lon="12.322859309476813"><ele>656.0</ele><time>2026-04-22T11:05:39Z</time></trkpt><trkpt lat="42.67751878229729" lon="12.322993423812706"><ele>656.0</ele><time>2026-04-22T11:05:40Z</time></trkpt><trkpt lat="42.67752719276079" lon="12.323115284030328"><ele>656.0</ele><time>2026-04-22T11:05:41Z</time></trkpt><trkpt lat="42.6775584755761" lon="12.323238799348596"><ele>656.0</ele><time>2026-04-22T11:05:42Z</time></trkpt><trkpt lat="42.67757345666042" lon="12.32335796859191"><ele>656.0</ele><time>2026-04-22T11:05:43Z</time></trkpt><trkpt lat="42.67757746854698" lon="12.323469428605495"><ele>655.8333333333333</ele><time>2026-04-22T11:05:44Z</time></trkpt><trkpt lat="42.67756959352682" lon="12.323589668436062"><ele>655.6666666666666</ele><time>2026-04-22T11:05:45Z</time></trkpt><trkpt lat="42.67755338589627" lon="12.323691024619674"><ele>655.5</ele><time>2026-04-22T11:05:46Z</time></trkpt><trkpt lat="42.67752754481918" lon="12.323792428281875"><ele>655.3333333333334</ele><time>2026-04-22T11:05:47Z</time></trkpt><trkpt lat="42.67749707135278" lon="12.323889515233061"><ele>655.1666666666667</ele><time>2026-04-22T11:05:48Z</time></trkpt><trkpt lat="42.677465392928994" lon="12.32398077744388"><ele>655.0</ele><time>2026-04-22T11:05:49Z</time></trkpt><trkpt lat="42.67742620218469" lon="12.324084889860979"><ele>653.5</ele><time>2026-04-22T11:05:50Z</time></trkpt><trkpt lat="42.67738907272418" lon="12.324182330501403"><ele>652.0</ele><time>2026-04-22T11:05:51Z</time></trkpt><trkpt lat="42.67735629310377" lon="12.324267871863318"><ele>650.5</ele><time>2026-04-22T11:05:52Z</time></trkpt><trkpt lat="42.67732051880157" lon="12.324362688896256"><ele>649.0</ele><time>2026-04-22T11:05:53Z</time></trkpt><trkpt lat="42.67729381254139" lon="12.324451590192282"><ele>647.5</ele><time>2026-04-22T11:05:54Z</time></trkpt><trkpt lat="42.6772693972269" lon="12.324549557536224"><ele>646.0</ele><time>2026-04-22T11:05:55Z</time></trkpt><trkpt lat="42.677233677476046" lon="12.324648575563543"><ele>643.8</ele><time>2026-04-22T11:05:56Z</time></trkpt><trkpt lat="42.67720215248366" lon="12.324765664549686"><ele>641.5999999999999</ele><time>2026-04-22T11:05:57Z</time></trkpt><trkpt lat="42.67716494027879" lon="12.324889737474509"><ele>639.4</ele><time>2026-04-22T11:05:58Z</time></trkpt><trkpt lat="42.67713073711802" lon="12.32501666866189"><ele>637.2</ele><time>2026-04-22T11:05:59Z</time></trkpt><trkpt lat="42.6771032293815" lon="12.325134558312701"><ele>635.0</ele><time>2026-04-22T11:06:00Z</time></trkpt><trkpt lat="42.677115687822045" lon="12.325247974128912"><ele>635.0</ele><time>2026-04-22T11:06:01Z</time></trkpt><trkpt lat="42.67714713821467" lon="12.325374674639807"><ele>635.0</ele><time>2026-04-22T11:06:02Z</time></trkpt><trkpt lat="42.67718951905734" lon="12.325489469520807"><ele>635.0</ele><time>2026-04-22T11:06:03Z</time></trkpt><trkpt lat="42.67721771923461" lon="12.325597511507679"><ele>635.0</ele><time>2026-04-22T11:06:04Z</time></trkpt><trkpt lat="42.677218428663664" lon="12.32570515201821"><ele>635.0</ele><time>2026-04-22T11:06:05Z</time></trkpt><trkpt lat="42.6771700868716" lon="12.32579719600419"><ele>635.0</ele><time>2026-04-22T11:06:06Z</time></trkpt><trkpt lat="42.67713748670299" lon="12.325902777240783"><ele>636.25</ele><time>2026-04-22T11:06:07Z</time></trkpt><trkpt lat="42.67707732459803" lon="12.326023158931061"><ele>637.5</ele><time>2026-04-22T11:06:08Z</time></trkpt><trkpt lat="42.6769815672557" lon="12.326154586349247"><ele>638.75</ele><time>2026-04-22T11:06:09Z</time></trkpt><trkpt lat="42.676882043196635" lon="12.326280791617409"><ele>640.0</ele><time>2026-04-22T11:06:10Z</time></trkpt><trkpt lat="42.67680946163367" lon="12.32642989615327"><ele>640.0</ele><time>2026-04-22T11:06:11Z</time></trkpt><trkpt lat="42.67674706534226" lon="12.326541787075668"><ele>640.0</ele><time>2026-04-22T11:06:12Z</time></trkpt><trkpt lat="42.67670683788128" lon="12.326652667849277"><ele>640.0</ele><time>2026-04-22T11:06:13Z</time></trkpt><trkpt lat="42.676672480523216" lon="12.326752331931171"><ele>640.0</ele><time>2026-04-22T11:06:14Z</time></trkpt><trkpt lat="42.67663547648913" lon="12.326848091381272"><ele>640.0</ele><time>2026-04-22T11:06:15Z</time></trkpt><trkpt lat="42.676586471284836" lon="12.32695193201209"><ele>640.0</ele><time>2026-04-22T11:06:16Z</time></trkpt><trkpt lat="42.67653973170324" lon="12.32708325795355"><ele>640.0</ele><time>2026-04-22T11:06:17Z</time></trkpt><trkpt lat="42.676490590267036" lon="12.327192814166896"><ele>640.0</ele><time>2026-04-22T11:06:18Z</time></trkpt><trkpt lat="42.67644434452319" lon="12.327289314812965"><ele>640.0</ele><time>2026-04-22T11:06:19Z</time></trkpt><trkpt lat="42.67634671264627" lon="12.327323437725319"><ele>640.0</ele><time>2026-04-22T11:06:20Z</time></trkpt><trkpt lat="42.67624832976557" lon="12.327365595466773"><ele>640.0</ele><time>2026-04-22T11:06:21Z</time></trkpt><trkpt lat="42.67613293282843" lon="12.327403079615303"><ele>640.6</ele><time>2026-04-22T11:06:22Z</time></trkpt><trkpt lat="42.67602303238525" lon="12.32744393897023"><ele>641.2</ele><time>2026-04-22T11:06:23Z</time></trkpt><trkpt lat="42.675928882388654" lon="12.327485406969972"><ele>641.8</ele><time>2026-04-22T11:06:24Z</time></trkpt><trkpt lat="42.67584667201864" lon="12.327541527713029"><ele>642.4</ele><time>2026-04-22T11:06:25Z</time></trkpt><trkpt lat="42.67578577822574" lon="12.327640915770889"><ele>643.0</ele><time>2026-04-22T11:06:26Z</time></trkpt><trkpt lat="42.67576993834939" lon="12.32776877352399"><ele>643.0</ele><time>2026-04-22T11:06:27Z</time></trkpt><trkpt lat="42.67581677847104" lon="12.327897029095936"><ele>643.0</ele><time>2026-04-22T11:06:28Z</time></trkpt><trkpt lat="42.675852623609956" lon="12.32803443941275"><ele>643.0</ele><time>2026-04-22T11:06:28.999Z</time></trkpt><trkpt lat="42.675836847950755" lon="12.328159824586525"><ele>643.0</ele><time>2026-04-22T11:06:29.999Z</time></trkpt><trkpt lat="42.67582272489587" lon="12.328269180482357"><ele>643.0</ele><time>2026-04-22T11:06:30.999Z</time></trkpt><trkpt lat="42.67579942225462" lon="12.328375542961673"><ele>641.4</ele><time>2026-04-22T11:06:31.999Z</time></trkpt><trkpt lat="42.67576341469979" lon="12.328493876696003"><ele>639.8</ele><time>2026-04-22T11:06:32.999Z</time></trkpt><trkpt lat="42.67571251913802" lon="12.328624423459088"><ele>638.2</ele><time>2026-04-22T11:06:33.999Z</time></trkpt><trkpt lat="42.67565874175011" lon="12.328738915546648"><ele>636.6</ele><time>2026-04-22T11:06:34.999Z</time></trkpt><trkpt lat="42.67559346320889" lon="12.328836556545967"><ele>635.0</ele><time>2026-04-22T11:06:35.999Z</time></trkpt><trkpt lat="42.67552191182208" lon="12.32889515277292"><ele>635.6</ele><time>2026-04-22T11:06:36.999Z</time></trkpt><trkpt lat="42.6754373372794" lon="12.328946808024615"><ele>636.2</ele><time>2026-04-22T11:06:37.999Z</time></trkpt><trkpt lat="42.67534169066684" lon="12.329013876211251"><ele>636.8</ele><time>2026-04-22T11:06:38.999Z</time></trkpt><trkpt lat="42.67524325818524" lon="12.32908199286277"><ele>637.4</ele><time>2026-04-22T11:06:39.999Z</time></trkpt><trkpt lat="42.67514918493367" lon="12.329166174025247"><ele>638.0</ele><time>2026-04-22T11:06:40.999Z</time></trkpt><trkpt lat="42.675071541542145" lon="12.329272533320873"><ele>638.0</ele><time>2026-04-22T11:06:41.999Z</time></trkpt><trkpt lat="42.6750204638817" lon="12.329367630314819"><ele>638.0</ele><time>2026-04-22T11:06:42.999Z</time></trkpt><trkpt lat="42.67503029405314" lon="12.329497701672567"><ele>638.0</ele><time>2026-04-22T11:06:43.999Z</time></trkpt><trkpt lat="42.67500734315119" lon="12.32963276010472"><ele>638.0</ele><time>2026-04-22T11:06:44.999Z</time></trkpt><trkpt lat="42.67498380343627" lon="12.329777227984936"><ele>638.0</ele><time>2026-04-22T11:06:45.999Z</time></trkpt><trkpt lat="42.674950347303614" lon="12.329926473695002"><ele>636.4</ele><time>2026-04-22T11:06:46.999Z</time></trkpt><trkpt lat="42.674910100185045" lon="12.330076235881455"><ele>634.8</ele><time>2026-04-22T11:06:47.999Z</time></trkpt><trkpt lat="42.67486422392962" lon="12.330207741753734"><ele>633.2</ele><time>2026-04-22T11:06:48.999Z</time></trkpt><trkpt lat="42.674806780717496" lon="12.330315957911735"><ele>631.6</ele><time>2026-04-22T11:06:49.999Z</time></trkpt><trkpt lat="42.67473602096744" lon="12.330404512974768"><ele>630.0</ele><time>2026-04-22T11:06:50.999Z</time></trkpt><trkpt lat="42.67466695446546" lon="12.330472788336287"><ele>630.0</ele><time>2026-04-22T11:06:51.999Z</time></trkpt><trkpt lat="42.674589554973466" lon="12.330519105065848"><ele>630.0</ele><time>2026-04-22T11:06:52.999Z</time></trkpt><trkpt lat="42.674502064009054" lon="12.330559746585546"><ele>630.0</ele><time>2026-04-22T11:06:53.999Z</time></trkpt><trkpt lat="42.67441170098506" lon="12.3306018165358"><ele>630.0</ele><time>2026-04-22T11:06:54.999Z</time></trkpt><trkpt lat="42.67430623534787" lon="12.330651588628616"><ele>630.0</ele><time>2026-04-22T11:06:55.999Z</time></trkpt><trkpt lat="42.67421636716321" lon="12.3307096251163"><ele>631.2</ele><time>2026-04-22T11:06:56.999Z</time></trkpt><trkpt lat="42.67414524814288" lon="12.330806882793212"><ele>632.4</ele><time>2026-04-22T11:06:57.999Z</time></trkpt><trkpt lat="42.674123059136" lon="12.330962665415809"><ele>633.6</ele><time>2026-04-22T11:06:58.999Z</time></trkpt><trkpt lat="42.674076182108124" lon="12.331094633843147"><ele>634.8</ele><time>2026-04-22T11:06:59.999Z</time></trkpt><trkpt lat="42.67404203321955" lon="12.331236643291268"><ele>636.0</ele><time>2026-04-22T11:07:00.999Z</time></trkpt><trkpt lat="42.674005309931985" lon="12.33137270151437"><ele>636.4</ele><time>2026-04-22T11:07:01.999Z</time></trkpt><trkpt lat="42.67395241020943" lon="12.33150226095691"><ele>636.8</ele><time>2026-04-22T11:07:02.999Z</time></trkpt><trkpt lat="42.67388274020853" lon="12.331607344447761"><ele>637.1999999999999</ele><time>2026-04-22T11:07:03.999Z</time></trkpt><trkpt lat="42.67379630890382" lon="12.33170087412134"><ele>637.6</ele><time>2026-04-22T11:07:04.999Z</time></trkpt><trkpt lat="42.6736969007125" lon="12.331778416523195"><ele>638.0</ele><time>2026-04-22T11:07:05.999Z</time></trkpt><trkpt lat="42.67358898316029" lon="12.331878433294287"><ele>638.0</ele><time>2026-04-22T11:07:06.999Z</time></trkpt><trkpt lat="42.673484943814486" lon="12.331982487695784"><ele>638.0</ele><time>2026-04-22T11:07:07.999Z</time></trkpt><trkpt lat="42.673365963088486" lon="12.332087718315483"><ele>638.0</ele><time>2026-04-22T11:07:08.999Z</time></trkpt><trkpt lat="42.67324283713311" lon="12.332181120818053"><ele>638.0</ele><time>2026-04-22T11:07:09.999Z</time></trkpt><trkpt lat="42.67312184863533" lon="12.332254420350436"><ele>637.5</ele><time>2026-04-22T11:07:10.999Z</time></trkpt><trkpt lat="42.67300875089556" lon="12.332312553654335"><ele>637.0</ele><time>2026-04-22T11:07:11.999Z</time></trkpt><trkpt lat="42.67289302886081" lon="12.332372962017592"><ele>636.5</ele><time>2026-04-22T11:07:12.999Z</time></trkpt><trkpt lat="42.672771593967674" lon="12.332439609357667"><ele>636.0</ele><time>2026-04-22T11:07:13.999Z</time></trkpt><trkpt lat="42.672646817175185" lon="12.332517874980534"><ele>635.75</ele><time>2026-04-22T11:07:14.999Z</time></trkpt><trkpt lat="42.67252896564402" lon="12.3325907571243"><ele>635.5</ele><time>2026-04-22T11:07:15.999Z</time></trkpt><trkpt lat="42.67242308394753" lon="12.332652152004007"><ele>635.25</ele><time>2026-04-22T11:07:16.999Z</time></trkpt><trkpt lat="42.67230532325839" lon="12.332740610402462"><ele>635.0</ele><time>2026-04-22T11:07:17.999Z</time></trkpt><trkpt lat="42.67220005821572" lon="12.332834730687113"><ele>635.0</ele><time>2026-04-22T11:07:19Z</time></trkpt><trkpt lat="42.67211071393653" lon="12.33295400871645"><ele>635.0</ele><time>2026-04-22T11:07:20Z</time></trkpt><trkpt lat="42.6720152163794" lon="12.333080495362976"><ele>635.0</ele><time>2026-04-22T11:07:21Z</time></trkpt><trkpt lat="42.67191534194577" lon="12.333230358325658"><ele>635.0</ele><time>2026-04-22T11:07:22Z</time></trkpt><trkpt lat="42.67180615868421" lon="12.333389839360127"><ele>634.0</ele><time>2026-04-22T11:07:23Z</time></trkpt><trkpt lat="42.67170120951517" lon="12.333574239506756"><ele>633.0</ele><time>2026-04-22T11:07:24Z</time></trkpt><trkpt lat="42.67158262613569" lon="12.333731052849469"><ele>632.0</ele><time>2026-04-22T11:07:25Z</time></trkpt><trkpt lat="42.671484910202366" lon="12.333915588684336"><ele>632.0</ele><time>2026-04-22T11:07:26Z</time></trkpt><trkpt lat="42.67137884082724" lon="12.334071647141652"><ele>632.0</ele><time>2026-04-22T11:07:27Z</time></trkpt><trkpt lat="42.671278224160886" lon="12.33423679680877"><ele>632.0</ele><time>2026-04-22T11:07:28Z</time></trkpt><trkpt lat="42.67117141798369" lon="12.334379730009516"><ele>628.0</ele><time>2026-04-22T11:07:29Z</time></trkpt><trkpt lat="42.67108934359239" lon="12.334546774785732"><ele>624.0</ele><time>2026-04-22T11:07:30Z</time></trkpt><trkpt lat="42.67098302922627" lon="12.33467165466364"><ele>620.0</ele><time>2026-04-22T11:07:31Z</time></trkpt><trkpt lat="42.670874831446646" lon="12.33478782315014"><ele>616.0</ele><time>2026-04-22T11:07:32Z</time></trkpt><trkpt lat="42.670763557628646" lon="12.334886150807346"><ele>615.75</ele><time>2026-04-22T11:07:33Z</time></trkpt><trkpt lat="42.670652611331995" lon="12.334984322260656"><ele>615.5</ele><time>2026-04-22T11:07:34Z</time></trkpt><trkpt lat="42.67055686535083" lon="12.335107680717394"><ele>615.25</ele><time>2026-04-22T11:07:35Z</time></trkpt><trkpt lat="42.67045545551509" lon="12.33522779013394"><ele>615.0</ele><time>2026-04-22T11:07:36Z</time></trkpt><trkpt lat="42.6703526580809" lon="12.335359059804535"><ele>612.25</ele><time>2026-04-22T11:07:37Z</time></trkpt><trkpt lat="42.67026092507708" lon="12.335484631643315"><ele>609.5</ele><time>2026-04-22T11:07:38Z</time></trkpt><trkpt lat="42.670173839443834" lon="12.335581087838436"><ele>606.75</ele><time>2026-04-22T11:07:39Z</time></trkpt><trkpt lat="42.67009188071702" lon="12.335682708306532"><ele>604.0</ele><time>2026-04-22T11:07:40Z</time></trkpt><trkpt lat="42.670017676868795" lon="12.335792851738782"><ele>603.5</ele><time>2026-04-22T11:07:41Z</time></trkpt><trkpt lat="42.66993285009119" lon="12.335894735863231"><ele>603.0</ele><time>2026-04-22T11:07:42Z</time></trkpt><trkpt lat="42.66984938255287" lon="12.336003850755036"><ele>602.5</ele><time>2026-04-22T11:07:43Z</time></trkpt><trkpt lat="42.66976589551357" lon="12.336113751605687"><ele>602.0</ele><time>2026-04-22T11:07:44Z</time></trkpt><trkpt lat="42.669682782175364" lon="12.336217688298984"><ele>602.0</ele><time>2026-04-22T11:07:45Z</time></trkpt><trkpt lat="42.669607097861444" lon="12.33631987046939"><ele>602.0</ele><time>2026-04-22T11:07:46Z</time></trkpt><trkpt lat="42.66953475370483" lon="12.336412735032562"><ele>602.0</ele><time>2026-04-22T11:07:47Z</time></trkpt><trkpt lat="42.66947486703541" lon="12.336514440437506"><ele>602.0</ele><time>2026-04-22T11:07:48Z</time></trkpt><trkpt lat="42.6694313984148" lon="12.336595773362378"><ele>602.0</ele><time>2026-04-22T11:07:49Z</time></trkpt><trkpt lat="42.669392456675936" lon="12.336696000456444"><ele>601.4</ele><time>2026-04-22T11:07:50Z</time></trkpt><trkpt lat="42.66938216111044" lon="12.336792160598264"><ele>600.8000000000001</ele><time>2026-04-22T11:07:51Z</time></trkpt><trkpt lat="42.66938254782657" lon="12.336925547047567"><ele>600.2</ele><time>2026-04-22T11:07:53Z</time></trkpt><trkpt lat="42.669506948532884" lon="12.336970113234377"><ele>599.6</ele><time>2026-04-22T11:07:54Z</time></trkpt><trkpt lat="42.66940965697755" lon="12.33699430391074"><ele>599.0</ele><time>2026-04-22T11:08:01Z</time></trkpt><trkpt lat="42.669334441910976" lon="12.336931993237016"><ele>597.0</ele><time>2026-04-22T11:08:03Z</time></trkpt><trkpt lat="42.66926367901526" lon="12.336822637678729"><ele>595.0</ele><time>2026-04-22T11:08:05Z</time></trkpt><trkpt lat="42.66920904759392" lon="12.33665608728044"><ele>593.0</ele><time>2026-04-22T11:08:07Z</time></trkpt><trkpt lat="42.66917207953743" lon="12.336545808548601"><ele>591.0</ele><time>2026-04-22T11:08:08Z</time></trkpt><trkpt lat="42.669130048282426" lon="12.336420717902197"><ele>589.0</ele><time>2026-04-22T11:08:09Z</time></trkpt><trkpt lat="42.66908058795727" lon="12.336286829312247"><ele>588.75</ele><time>2026-04-22T11:08:10Z</time></trkpt><trkpt lat="42.669018450560664" lon="12.336147621075765"><ele>588.5</ele><time>2026-04-22T11:08:11Z</time></trkpt><trkpt lat="42.668939271510794" lon="12.336014959835838"><ele>588.25</ele><time>2026-04-22T11:08:12Z</time></trkpt><trkpt lat="42.668839055909366" lon="12.33589837407133"><ele>588.0</ele><time>2026-04-22T11:08:13Z</time></trkpt><trkpt lat="42.66872634932137" lon="12.33578852954498"><ele>586.75</ele><time>2026-04-22T11:08:14Z</time></trkpt><trkpt lat="42.66858944377732" lon="12.33574916321227"><ele>585.5</ele><time>2026-04-22T11:08:15Z</time></trkpt><trkpt lat="42.66844648506564" lon="12.335728770717864"><ele>584.25</ele><time>2026-04-22T11:08:16Z</time></trkpt><trkpt lat="42.66829797290452" lon="12.335699636989434"><ele>583.0</ele><time>2026-04-22T11:08:17Z</time></trkpt><trkpt lat="42.66814232653388" lon="12.33569483205031"><ele>583.0</ele><time>2026-04-22T11:08:18Z</time></trkpt><trkpt lat="42.66798156578609" lon="12.335711688096403"><ele>583.0</ele><time>2026-04-22T11:08:19Z</time></trkpt><trkpt lat="42.66781709133842" lon="12.335704105471525"><ele>583.0</ele><time>2026-04-22T11:08:20Z</time></trkpt><trkpt lat="42.66764549862714" lon="12.335698559881806"><ele>583.6666666666667</ele><time>2026-04-22T11:08:21Z</time></trkpt><trkpt lat="42.667470886772364" lon="12.335692566377261"><ele>584.3333333333334</ele><time>2026-04-22T11:08:22Z</time></trkpt><trkpt lat="42.66729307231305" lon="12.335686544400126"><ele>585.0</ele><time>2026-04-22T11:08:23Z</time></trkpt><trkpt lat="42.66712307197049" lon="12.335678557607599"><ele>585.0</ele><time>2026-04-22T11:08:24Z</time></trkpt><trkpt lat="42.666950975964134" lon="12.335671258610557"><ele>585.0</ele><time>2026-04-22T11:08:25Z</time></trkpt><trkpt lat="42.666776019341576" lon="12.335662727608696"><ele>585.0</ele><time>2026-04-22T11:08:26Z</time></trkpt><trkpt lat="42.666599066953296" lon="12.335645375937913"><ele>584.3333333333334</ele><time>2026-04-22T11:08:27Z</time></trkpt><trkpt lat="42.66641731434708" lon="12.335623496645228"><ele>583.6666666666667</ele><time>2026-04-22T11:08:28Z</time></trkpt><trkpt lat="42.6662403538162" lon="12.335593452374846"><ele>583.0</ele><time>2026-04-22T11:08:29Z</time></trkpt><trkpt lat="42.66607239278775" lon="12.335555438896517"><ele>586.0</ele><time>2026-04-22T11:08:30Z</time></trkpt><trkpt lat="42.66592038771595" lon="12.33551038126138"><ele>589.0</ele><time>2026-04-22T11:08:31Z</time></trkpt><trkpt lat="42.665775221127205" lon="12.335450846440805"><ele>592.0</ele><time>2026-04-22T11:08:32Z</time></trkpt><trkpt lat="42.66562557854269" lon="12.335448046693257"><ele>592.0</ele><time>2026-04-22T11:08:33Z</time></trkpt><trkpt lat="42.665491316870835" lon="12.335508831794085"><ele>592.0</ele><time>2026-04-22T11:08:34Z</time></trkpt><trkpt lat="42.66538039799269" lon="12.335628010947163"><ele>592.0</ele><time>2026-04-22T11:08:35Z</time></trkpt><trkpt lat="42.66527391762579" lon="12.33575312259861"><ele>592.0</ele><time>2026-04-22T11:08:36Z</time></trkpt><trkpt lat="42.665163171652516" lon="12.335877286831986"><ele>589.3333333333334</ele><time>2026-04-22T11:08:37Z</time></trkpt><trkpt lat="42.66503546179969" lon="12.335983447312122"><ele>586.6666666666666</ele><time>2026-04-22T11:08:38Z</time></trkpt><trkpt lat="42.66488305270014" lon="12.336045789211516"><ele>584.0</ele><time>2026-04-22T11:08:39Z</time></trkpt><trkpt lat="42.66472418771961" lon="12.33609384552022"><ele>584.0</ele><time>2026-04-22T11:08:40Z</time></trkpt><trkpt lat="42.66455579456706" lon="12.336118068630944"><ele>584.0</ele><time>2026-04-22T11:08:41Z</time></trkpt><trkpt lat="42.66438850429105" lon="12.336165958791875"><ele>584.0</ele><time>2026-04-22T11:08:42Z</time></trkpt><trkpt lat="42.66421387761874" lon="12.336192014369956"><ele>586.3333333333333</ele><time>2026-04-22T11:08:43Z</time></trkpt><trkpt lat="42.66403600692493" lon="12.33621819648204"><ele>588.6666666666666</ele><time>2026-04-22T11:08:44Z</time></trkpt><trkpt lat="42.66385245497592" lon="12.336244952646656"><ele>591.0</ele><time>2026-04-22T11:08:45Z</time></trkpt><trkpt lat="42.66366362736444" lon="12.336274744544486"><ele>593.3333333333334</ele><time>2026-04-22T11:08:46Z</time></trkpt><trkpt lat="42.663471758836366" lon="12.33628421161877"><ele>595.6666666666667</ele><time>2026-04-22T11:08:47Z</time></trkpt><trkpt lat="42.66328620270031" lon="12.336314819116973"><ele>598.0</ele><time>2026-04-22T11:08:48Z</time></trkpt><trkpt lat="42.66311293688759" lon="12.336366958011922"><ele>591.3333333333334</ele><time>2026-04-22T11:08:49Z</time></trkpt><trkpt lat="42.662949966737" lon="12.336406594791482"><ele>584.6666666666666</ele><time>2026-04-22T11:08:50Z</time></trkpt><trkpt lat="42.662798198516334" lon="12.33648338613968"><ele>578.0</ele><time>2026-04-22T11:08:51Z</time></trkpt><trkpt lat="42.6626689273297" lon="12.336616695469766"><ele>578.0</ele><time>2026-04-22T11:08:52Z</time></trkpt><trkpt lat="42.662572596234945" lon="12.336781318391205"><ele>578.0</ele><time>2026-04-22T11:08:53Z</time></trkpt><trkpt lat="42.6625042331456" lon="12.336963033765276"><ele>578.0</ele><time>2026-04-22T11:08:54Z</time></trkpt><trkpt lat="42.66246932896286" lon="12.337158589108606"><ele>573.3333333333333</ele><time>2026-04-22T11:08:55Z</time></trkpt><trkpt lat="42.66244433174458" lon="12.33735801329795"><ele>568.6666666666666</ele><time>2026-04-22T11:08:56Z</time></trkpt><trkpt lat="42.662413207426404" lon="12.33756278456569"><ele>564.0</ele><time>2026-04-22T11:08:57Z</time></trkpt><trkpt lat="42.66237177680762" lon="12.33777595117776"><ele>564.0</ele><time>2026-04-22T11:08:58Z</time></trkpt><trkpt lat="42.66231755812945" lon="12.33797563542178"><ele>564.0</ele><time>2026-04-22T11:08:59Z</time></trkpt><trkpt lat="42.66221997364761" lon="12.338119922956546"><ele>564.0</ele><time>2026-04-22T11:09:00Z</time></trkpt><trkpt lat="42.66210334067282" lon="12.338199935289472"><ele>564.0</ele><time>2026-04-22T11:09:01Z</time></trkpt><trkpt lat="42.66199627777966" lon="12.338236780602667"><ele>564.25</ele><time>2026-04-22T11:09:02Z</time></trkpt><trkpt lat="42.661903080650205" lon="12.338209073416472"><ele>564.5</ele><time>2026-04-22T11:09:03Z</time></trkpt><trkpt lat="42.66179701079302" lon="12.338175335323866"><ele>564.75</ele><time>2026-04-22T11:09:04Z</time></trkpt><trkpt lat="42.66168713134638" lon="12.338074140803368"><ele>565.0</ele><time>2026-04-22T11:09:05Z</time></trkpt><trkpt lat="42.66157780140453" lon="12.337942022408031"><ele>565.0</ele><time>2026-04-22T11:09:06Z</time></trkpt><trkpt lat="42.66145057653029" lon="12.337815509673916"><ele>565.0</ele><time>2026-04-22T11:09:07Z</time></trkpt><trkpt lat="42.661313151954545" lon="12.337738489489217"><ele>565.0</ele><time>2026-04-22T11:09:08Z</time></trkpt><trkpt lat="42.661169839878546" lon="12.337718155354255"><ele>564.5</ele><time>2026-04-22T11:09:09Z</time></trkpt><trkpt lat="42.66103862077655" lon="12.337765669781705"><ele>564.0</ele><time>2026-04-22T11:09:10Z</time></trkpt><trkpt lat="42.66092337186237" lon="12.337875620274058"><ele>563.5</ele><time>2026-04-22T11:09:11Z</time></trkpt><trkpt lat="42.660813155731056" lon="12.338024333250093"><ele>563.0</ele><time>2026-04-22T11:09:12Z</time></trkpt><trkpt lat="42.660737122710316" lon="12.338213475301202"><ele>562.0</ele><time>2026-04-22T11:09:13Z</time></trkpt><trkpt lat="42.66065957899598" lon="12.33841488444296"><ele>561.0</ele><time>2026-04-22T11:09:14Z</time></trkpt><trkpt lat="42.6605820029063" lon="12.338617046836333"><ele>560.0</ele><time>2026-04-22T11:09:15Z</time></trkpt><trkpt lat="42.66047797731942" lon="12.33879920980618"><ele>558.3333333333333</ele><time>2026-04-22T11:09:16Z</time></trkpt><trkpt lat="42.66034512507245" lon="12.338954780352468"><ele>556.6666666666666</ele><time>2026-04-22T11:09:17Z</time></trkpt><trkpt lat="42.6601828865945" lon="12.339067423396722"><ele>555.0</ele><time>2026-04-22T11:09:18Z</time></trkpt><trkpt lat="42.66003021712522" lon="12.339200177239153"><ele>558.3333333333334</ele><time>2026-04-22T11:09:19Z</time></trkpt><trkpt lat="42.659864028182355" lon="12.339315803509187"><ele>561.6666666666667</ele><time>2026-04-22T11:09:20Z</time></trkpt><trkpt lat="42.6596917377563" lon="12.33943562970277"><ele>565.0</ele><time>2026-04-22T11:09:21Z</time></trkpt><trkpt lat="42.659515275612925" lon="12.339556543475435"><ele>563.6666666666667</ele><time>2026-04-22T11:09:22Z</time></trkpt><trkpt lat="42.659332538072064" lon="12.339681819524078"><ele>562.3333333333334</ele><time>2026-04-22T11:09:23Z</time></trkpt><trkpt lat="42.65914541863425" lon="12.339812464761211"><ele>561.0</ele><time>2026-04-22T11:09:24Z</time></trkpt><trkpt lat="42.65895825972916" lon="12.339941721189744"><ele>561.0</ele><time>2026-04-22T11:09:25Z</time></trkpt><trkpt lat="42.65876714658602" lon="12.340077382382828"><ele>561.0</ele><time>2026-04-22T11:09:26Z</time></trkpt><trkpt lat="42.65858101611503" lon="12.34021053657938"><ele>561.0</ele><time>2026-04-22T11:09:27Z</time></trkpt><trkpt lat="42.65839171752005" lon="12.340342255386105"><ele>559.6666666666666</ele><time>2026-04-22T11:09:28Z</time></trkpt><trkpt lat="42.65820101117896" lon="12.34047799580384"><ele>558.3333333333333</ele><time>2026-04-22T11:09:29Z</time></trkpt><trkpt lat="42.658007584997364" lon="12.340614166433902"><ele>557.0</ele><time>2026-04-22T11:09:30Z</time></trkpt><trkpt lat="42.65780777714572" lon="12.340749540557038"><ele>562.3333333333333</ele><time>2026-04-22T11:09:31Z</time></trkpt><trkpt lat="42.65760975254741" lon="12.340893323432958"><ele>567.6666666666666</ele><time>2026-04-22T11:09:32Z</time></trkpt><trkpt lat="42.65741182378479" lon="12.341035650355103"><ele>573.0</ele><time>2026-04-22T11:09:33Z</time></trkpt><trkpt lat="42.65720980176565" lon="12.341180505471254"><ele>573.0</ele><time>2026-04-22T11:09:34Z</time></trkpt><trkpt lat="42.65701009685206" lon="12.341320530043628"><ele>573.0</ele><time>2026-04-22T11:09:35Z</time></trkpt><trkpt lat="42.65680627971675" lon="12.341464266112322"><ele>571.0</ele><time>2026-04-22T11:09:36Z</time></trkpt><trkpt lat="42.65659249731428" lon="12.341591559489402"><ele>569.0</ele><time>2026-04-22T11:09:37Z</time></trkpt><trkpt lat="42.65641560097732" lon="12.341709051887129"><ele>567.0</ele><time>2026-04-22T11:09:38Z</time></trkpt><trkpt lat="42.65624949738887" lon="12.3418662872801"><ele>570.0</ele><time>2026-04-22T11:09:39Z</time></trkpt><trkpt lat="42.6560995281779" lon="12.342036130837592"><ele>573.0</ele><time>2026-04-22T11:09:40Z</time></trkpt><trkpt lat="42.65597007308895" lon="12.342247290786375"><ele>576.0</ele><time>2026-04-22T11:09:41Z</time></trkpt><trkpt lat="42.65583616201918" lon="12.342478914214551"><ele>576.0</ele><time>2026-04-22T11:09:42Z</time></trkpt><trkpt lat="42.65569992340341" lon="12.342699326641537"><ele>576.0</ele><time>2026-04-22T11:09:43Z</time></trkpt><trkpt lat="42.65554599834579" lon="12.342888916504924"><ele>576.0</ele><time>2026-04-22T11:09:44Z</time></trkpt><trkpt lat="42.65539983368819" lon="12.343094347123376"><ele>573.3333333333334</ele><time>2026-04-22T11:09:45Z</time></trkpt><trkpt lat="42.65529432401735" lon="12.343296178933102"><ele>570.6666666666667</ele><time>2026-04-22T11:09:46Z</time></trkpt><trkpt lat="42.655197341037926" lon="12.34349957782998"><ele>568.0</ele><time>2026-04-22T11:09:47Z</time></trkpt><trkpt lat="42.65515601601116" lon="12.34371505331215"><ele>573.0</ele><time>2026-04-22T11:09:48Z</time></trkpt><trkpt lat="42.655160879419256" lon="12.343956196590307"><ele>578.0</ele><time>2026-04-22T11:09:49Z</time></trkpt><trkpt lat="42.65519056021273" lon="12.344200137560216"><ele>583.0</ele><time>2026-04-22T11:09:50Z</time></trkpt><trkpt lat="42.655188985758166" lon="12.344456032464448"><ele>584.6666666666667</ele><time>2026-04-22T11:09:51Z</time></trkpt><trkpt lat="42.65519181284779" lon="12.344716781725552"><ele>586.3333333333334</ele><time>2026-04-22T11:09:52Z</time></trkpt><trkpt lat="42.65519553286745" lon="12.34496703373166"><ele>588.0</ele><time>2026-04-22T11:09:53Z</time></trkpt><trkpt lat="42.65521057124681" lon="12.34520814800699"><ele>588.0</ele><time>2026-04-22T11:09:54Z</time></trkpt><trkpt lat="42.65525223508191" lon="12.345426608097581"><ele>588.0</ele><time>2026-04-22T11:09:55Z</time></trkpt><trkpt lat="42.655336082160275" lon="12.345633191826078"><ele>588.0</ele><time>2026-04-22T11:09:56Z</time></trkpt><trkpt lat="42.65545033478999" lon="12.34581050899603"><ele>579.6666666666666</ele><time>2026-04-22T11:09:57Z</time></trkpt><trkpt lat="42.65557847405493" lon="12.345972155509958"><ele>571.3333333333333</ele><time>2026-04-22T11:09:58Z</time></trkpt><trkpt lat="42.65570622495696" lon="12.346134586622199"><ele>563.0</ele><time>2026-04-22T11:09:59Z</time></trkpt><trkpt lat="42.655816852131025" lon="12.346293113805517"><ele>565.0</ele><time>2026-04-22T11:10:00Z</time></trkpt><trkpt lat="42.65590791373393" lon="12.346465879770333"><ele>567.0</ele><time>2026-04-22T11:10:01Z</time></trkpt><trkpt lat="42.655975862415296" lon="12.346656585867777"><ele>569.0</ele><time>2026-04-22T11:10:02Z</time></trkpt><trkpt lat="42.65602080625832" lon="12.346850971263112"><ele>569.0</ele><time>2026-04-22T11:10:03Z</time></trkpt><trkpt lat="42.656039445972866" lon="12.347045144909094"><ele>569.0</ele><time>2026-04-22T11:10:04Z</time></trkpt><trkpt lat="42.65604458900113" lon="12.347235560334397"><ele>569.0</ele><time>2026-04-22T11:10:05Z</time></trkpt><trkpt lat="42.6560477742463" lon="12.347423667149165"><ele>569.0</ele><time>2026-04-22T11:10:06Z</time></trkpt><trkpt lat="42.65604655501727" lon="12.347608718048532"><ele>568.5</ele><time>2026-04-22T11:10:07Z</time></trkpt><trkpt lat="42.656041329592156" lon="12.347789237277125"><ele>568.0</ele><time>2026-04-22T11:10:08Z</time></trkpt><trkpt lat="42.656029031555086" lon="12.347956151342139"><ele>567.5</ele><time>2026-04-22T11:10:09Z</time></trkpt><trkpt lat="42.65600525822509" lon="12.348104313998428"><ele>567.0</ele><time>2026-04-22T11:10:10Z</time></trkpt><trkpt lat="42.65599069905798" lon="12.348237201969098"><ele>564.0</ele><time>2026-04-22T11:10:11Z</time></trkpt><trkpt lat="42.65589314646301" lon="12.348326088729838"><ele>561.0</ele><time>2026-04-22T11:10:12Z</time></trkpt><trkpt lat="42.655808903278526" lon="12.348397620014108"><ele>558.0</ele><time>2026-04-22T11:10:13Z</time></trkpt><trkpt lat="42.65571065345505" lon="12.348464773618803"><ele>555.0</ele><time>2026-04-22T11:10:14Z</time></trkpt><trkpt lat="42.65559447311752" lon="12.348537612564765"><ele>555.0</ele><time>2026-04-22T11:10:15Z</time></trkpt><trkpt lat="42.655467029569564" lon="12.348613622669257"><ele>555.0</ele><time>2026-04-22T11:10:16Z</time></trkpt><trkpt lat="42.65534715046563" lon="12.348691674053443"><ele>555.0</ele><time>2026-04-22T11:10:17Z</time></trkpt><trkpt lat="42.65524559485198" lon="12.3487719153591"><ele>555.0</ele><time>2026-04-22T11:10:18Z</time></trkpt><trkpt lat="42.65515570447258" lon="12.34886125960331"><ele>554.5</ele><time>2026-04-22T11:10:19Z</time></trkpt><trkpt lat="42.65508216094882" lon="12.34895871337332"><ele>554.0</ele><time>2026-04-22T11:10:20Z</time></trkpt><trkpt lat="42.65502339649515" lon="12.349063068798108"><ele>553.5</ele><time>2026-04-22T11:10:21Z</time></trkpt><trkpt lat="42.65497390250541" lon="12.349170910939733"><ele>553.0</ele><time>2026-04-22T11:10:22Z</time></trkpt><trkpt lat="42.65489563654962" lon="12.349384039235147"><ele>553.0</ele><time>2026-04-22T11:10:24Z</time></trkpt><trkpt lat="42.654866516169534" lon="12.349492111989207"><ele>553.0</ele><time>2026-04-22T11:10:25Z</time></trkpt><trkpt lat="42.65484204661953" lon="12.349597885481337"><ele>553.0</ele><time>2026-04-22T11:10:26Z</time></trkpt><trkpt lat="42.65482081460963" lon="12.349700213321189"><ele>553.0</ele><time>2026-04-22T11:10:27Z</time></trkpt><trkpt lat="42.65478367736874" lon="12.349829794124801"><ele>553.0</ele><time>2026-04-22T11:10:29Z</time></trkpt><trkpt lat="42.65484816500876" lon="12.349829322330555"><ele>553.0</ele><time>2026-04-22T11:10:34Z</time></trkpt><trkpt lat="42.654849598196336" lon="12.349741034122149"><ele>553.0</ele><time>2026-04-22T11:10:36Z</time></trkpt><trkpt lat="42.65485053421139" lon="12.349653794838783"><ele>553.0</ele><time>2026-04-22T11:10:37Z</time></trkpt><trkpt lat="42.654871133310756" lon="12.349548210062224"><ele>553.0</ele><time>2026-04-22T11:10:38Z</time></trkpt><trkpt lat="42.65489896134507" lon="12.349441996118966"><ele>553.0</ele><time>2026-04-22T11:10:39Z</time></trkpt><trkpt lat="42.65493729802427" lon="12.349312575828836"><ele>553.0</ele><time>2026-04-22T11:10:40Z</time></trkpt><trkpt lat="42.654983274093986" lon="12.349177093883641"><ele>553.0</ele><time>2026-04-22T11:10:41Z</time></trkpt><trkpt lat="42.65504802278371" lon="12.349040142161732"><ele>553.0</ele><time>2026-04-22T11:10:42Z</time></trkpt><trkpt lat="42.655123912341374" lon="12.348916040813329"><ele>553.0</ele><time>2026-04-22T11:10:43Z</time></trkpt><trkpt lat="42.65522288188145" lon="12.348801883419563"><ele>553.0</ele><time>2026-04-22T11:10:44Z</time></trkpt><trkpt lat="42.65534132674717" lon="12.348704618974676"><ele>553.0</ele><time>2026-04-22T11:10:45Z</time></trkpt><trkpt lat="42.65546655279217" lon="12.348624508168436"><ele>553.5</ele><time>2026-04-22T11:10:46Z</time></trkpt><trkpt lat="42.65559295580623" lon="12.34855576643849"><ele>554.0</ele><time>2026-04-22T11:10:47Z</time></trkpt><trkpt lat="42.655704063145905" lon="12.348489576893462"><ele>554.5</ele><time>2026-04-22T11:10:48Z</time></trkpt><trkpt lat="42.65580282884385" lon="12.348417719398366"><ele>555.0</ele><time>2026-04-22T11:10:49Z</time></trkpt><trkpt lat="42.65594467298054" lon="12.348257953035569"><ele>555.0</ele><time>2026-04-22T11:10:51Z</time></trkpt><trkpt lat="42.65599482745749" lon="12.348170889227333"><ele>555.0</ele><time>2026-04-22T11:10:52Z</time></trkpt><trkpt lat="42.65603269113648" lon="12.348084936397452"><ele>555.0</ele><time>2026-04-22T11:10:53Z</time></trkpt><trkpt lat="42.65606268429088" lon="12.347983544723117"><ele>555.0</ele><time>2026-04-22T11:10:55Z</time></trkpt><trkpt lat="42.65589444099327" lon="12.34807853041015"><ele>555.0</ele><time>2026-04-22T11:10:59Z</time></trkpt><trkpt lat="42.655786676478805" lon="12.348143539783214"><ele>555.0</ele><time>2026-04-22T11:11:01Z</time></trkpt><trkpt lat="42.65566708407172" lon="12.348156429862113"><ele>555.0</ele><time>2026-04-22T11:11:03Z</time></trkpt><trkpt lat="42.655534673155934" lon="12.348166306174415"><ele>555.0</ele><time>2026-04-22T11:11:05Z</time></trkpt><trkpt lat="42.655451964556356" lon="12.348178864044998"><ele>555.0</ele><time>2026-04-22T11:11:06Z</time></trkpt><trkpt lat="42.65537100946029" lon="12.34819546484689"><ele>555.0</ele><time>2026-04-22T11:11:07Z</time></trkpt><trkpt lat="42.65528985353643" lon="12.348217117865687"><ele>558.0</ele><time>2026-04-22T11:11:08Z</time></trkpt><trkpt lat="42.655193466970516" lon="12.34824748689692"><ele>561.0</ele><time>2026-04-22T11:11:09Z</time></trkpt><trkpt lat="42.65511073122513" lon="12.348289675799963"><ele>564.0</ele><time>2026-04-22T11:11:10Z</time></trkpt><trkpt lat="42.655025778154474" lon="12.348334936827735"><ele>567.0</ele><time>2026-04-22T11:11:11Z</time></trkpt><trkpt lat="42.65494156988202" lon="12.348381441262575"><ele>570.0</ele><time>2026-04-22T11:11:12Z</time></trkpt><trkpt lat="42.654850895774274" lon="12.348443398861622"><ele>570.0</ele><time>2026-04-22T11:11:13Z</time></trkpt><trkpt lat="42.65476503443129" lon="12.348514350036552"><ele>570.0</ele><time>2026-04-22T11:11:14Z</time></trkpt><trkpt lat="42.654654010490844" lon="12.348583564864763"><ele>570.0</ele><time>2026-04-22T11:11:15Z</time></trkpt><trkpt lat="42.65456546420597" lon="12.348679398078694"><ele>570.0</ele><time>2026-04-22T11:11:16Z</time></trkpt><trkpt lat="42.65448261041731" lon="12.348778691615658"><ele>570.0</ele><time>2026-04-22T11:11:17Z</time></trkpt><trkpt lat="42.65440413318237" lon="12.348866809874272"><ele>570.6666666666666</ele><time>2026-04-22T11:11:18Z</time></trkpt><trkpt lat="42.654331073452894" lon="12.348956065611409"><ele>571.3333333333334</ele><time>2026-04-22T11:11:19Z</time></trkpt><trkpt lat="42.654281302309954" lon="12.34903883811266"><ele>572.0</ele><time>2026-04-22T11:11:20Z</time></trkpt><trkpt lat="42.65422186661046" lon="12.349112820043615"><ele>572.6666666666667</ele><time>2026-04-22T11:11:21Z</time></trkpt><trkpt lat="42.65416326954222" lon="12.349151528184118"><ele>573.3333333333334</ele><time>2026-04-22T11:11:22Z</time></trkpt><trkpt lat="42.65405723719932" lon="12.349122458371879"><ele>574.0</ele><time>2026-04-22T11:11:24Z</time></trkpt><trkpt lat="42.653966068191735" lon="12.349065790530963"><ele>574.0</ele><time>2026-04-22T11:11:26Z</time></trkpt><trkpt lat="42.65390601510079" lon="12.348940593807374"><ele>574.0</ele><time>2026-04-22T11:11:28Z</time></trkpt><trkpt lat="42.65387050814007" lon="12.348865309247756"><ele>574.0</ele><time>2026-04-22T11:11:29Z</time></trkpt><trkpt lat="42.65382060839986" lon="12.348796045067761"><ele>574.0</ele><time>2026-04-22T11:11:30Z</time></trkpt><trkpt lat="42.65373981639136" lon="12.348768599062726"><ele>574.0</ele><time>2026-04-22T11:11:31Z</time></trkpt><trkpt lat="42.65364600155622" lon="12.348719176630395"><ele>574.0</ele><time>2026-04-22T11:11:32Z</time></trkpt><trkpt lat="42.653563747877016" lon="12.348657687423973"><ele>575.4</ele><time>2026-04-22T11:11:33Z</time></trkpt><trkpt lat="42.653470180042675" lon="12.348615396255449"><ele>576.8</ele><time>2026-04-22T11:11:34Z</time></trkpt><trkpt lat="42.65337786325612" lon="12.34856247615872"><ele>578.2</ele><time>2026-04-22T11:11:35Z</time></trkpt><trkpt lat="42.65329808362924" lon="12.348514975826568"><ele>579.6</ele><time>2026-04-22T11:11:36Z</time></trkpt><trkpt lat="42.653215826705804" lon="12.348484964756931"><ele>581.0</ele><time>2026-04-22T11:11:37Z</time></trkpt><trkpt lat="42.65312791264185" lon="12.348431214891592"><ele>581.0</ele><time>2026-04-22T11:11:38Z</time></trkpt><trkpt lat="42.65305064008854" lon="12.348353985434953"><ele>581.0</ele><time>2026-04-22T11:11:39Z</time></trkpt><trkpt lat="42.652969668862944" lon="12.348287807811689"><ele>581.0</ele><time>2026-04-22T11:11:40Z</time></trkpt><trkpt lat="42.65288071200723" lon="12.34821956290185"><ele>581.0</ele><time>2026-04-22T11:11:41Z</time></trkpt><trkpt lat="42.6528088834754" lon="12.348164303507254"><ele>581.0</ele><time>2026-04-22T11:11:42Z</time></trkpt><trkpt lat="42.6527505092126" lon="12.34811687851315"><ele>581.0</ele><time>2026-04-22T11:11:43Z</time></trkpt><trkpt lat="42.6526953277664" lon="12.348041905435796"><ele>579.3333333333333</ele><time>2026-04-22T11:11:44Z</time></trkpt><trkpt lat="42.65263436827695" lon="12.347988035013929"><ele>577.6666666666666</ele><time>2026-04-22T11:11:45Z</time></trkpt><trkpt lat="42.652564285672035" lon="12.347927390642734"><ele>576.0</ele><time>2026-04-22T11:11:46Z</time></trkpt><trkpt lat="42.65248025575731" lon="12.347890828714952"><ele>574.3333333333334</ele><time>2026-04-22T11:11:47Z</time></trkpt><trkpt lat="42.65240697801271" lon="12.347913322742489"><ele>572.6666666666667</ele><time>2026-04-22T11:11:48Z</time></trkpt><trkpt lat="42.65234387731088" lon="12.347985764624665"><ele>571.0</ele><time>2026-04-22T11:11:49Z</time></trkpt><trkpt lat="42.652283915897186" lon="12.348048246257116"><ele>571.0</ele><time>2026-04-22T11:11:50Z</time></trkpt><trkpt lat="42.65219923546632" lon="12.348121411460943"><ele>571.0</ele><time>2026-04-22T11:11:51Z</time></trkpt><trkpt lat="42.65213523622736" lon="12.348194912429475"><ele>571.0</ele><time>2026-04-22T11:11:52Z</time></trkpt><trkpt lat="42.652070252403476" lon="12.348298426519861"><ele>571.0</ele><time>2026-04-22T11:11:54Z</time></trkpt><trkpt lat="42.652009821286946" lon="12.348341828433336"><ele>571.0</ele><time>2026-04-22T11:11:55Z</time></trkpt><trkpt lat="42.651944030616214" lon="12.34841978586326"><ele>571.0</ele><time>2026-04-22T11:11:56Z</time></trkpt><trkpt lat="42.651863655496996" lon="12.348509598837746"><ele>576.0</ele><time>2026-04-22T11:11:57Z</time></trkpt><trkpt lat="42.651784516876745" lon="12.348574964140896"><ele>581.0</ele><time>2026-04-22T11:11:58Z</time></trkpt><trkpt lat="42.65171213664585" lon="12.348654148610539"><ele>586.0</ele><time>2026-04-22T11:11:59Z</time></trkpt><trkpt lat="42.65163591885264" lon="12.348710404260045"><ele>591.0</ele><time>2026-04-22T11:12:00Z</time></trkpt><trkpt lat="42.651561776460326" lon="12.348780879865627"><ele>596.0</ele><time>2026-04-22T11:12:01Z</time></trkpt><trkpt lat="42.651469693744204" lon="12.348832047240613"><ele>594.2</ele><time>2026-04-22T11:12:02Z</time></trkpt><trkpt lat="42.65138085712546" lon="12.348910298528509"><ele>592.4000000000001</ele><time>2026-04-22T11:12:03Z</time></trkpt><trkpt lat="42.65131947634474" lon="12.349015253832441"><ele>590.6</ele><time>2026-04-22T11:12:04Z</time></trkpt><trkpt lat="42.65123960647177" lon="12.34910571749381"><ele>588.8000000000001</ele><time>2026-04-22T11:12:05Z</time></trkpt><trkpt lat="42.65115752726146" lon="12.349105426428595"><ele>587.0</ele><time>2026-04-22T11:12:06Z</time></trkpt><trkpt lat="42.65108380425363" lon="12.349110359032618"><ele>587.0</ele><time>2026-04-22T11:12:07Z</time></trkpt><trkpt lat="42.65099357542683" lon="12.34910391107922"><ele>587.0</ele><time>2026-04-22T11:12:08Z</time></trkpt><trkpt lat="42.65087822172326" lon="12.349095056929249"><ele>587.0</ele><time>2026-04-22T11:12:09Z</time></trkpt><trkpt lat="42.650761284291775" lon="12.349092680649077"><ele>587.0</ele><time>2026-04-22T11:12:10Z</time></trkpt><trkpt lat="42.65063935098866" lon="12.349091892030966"><ele>587.0</ele><time>2026-04-22T11:12:11Z</time></trkpt><trkpt lat="42.650414759624375" lon="12.349094512571654"><ele>587.0</ele><time>2026-04-22T11:12:13Z</time></trkpt><trkpt lat="42.65031006629247" lon="12.349086230607297"><ele>587.0</ele><time>2026-04-22T11:12:14Z</time></trkpt><trkpt lat="42.650223796645086" lon="12.349074281803382"><ele>587.0</ele><time>2026-04-22T11:12:15Z</time></trkpt><trkpt lat="42.65011698660226" lon="12.349060374919855"><ele>587.0</ele><time>2026-04-22T11:12:16Z</time></trkpt><trkpt lat="42.65001032171833" lon="12.349049286854367"><ele>587.0</ele><time>2026-04-22T11:12:17Z</time></trkpt><trkpt lat="42.649888101145756" lon="12.34904288025381"><ele>585.0</ele><time>2026-04-22T11:12:18Z</time></trkpt><trkpt lat="42.6497824619011" lon="12.349050801978732"><ele>583.0</ele><time>2026-04-22T11:12:19Z</time></trkpt><trkpt lat="42.649669839113514" lon="12.349023137100513"><ele>581.0</ele><time>2026-04-22T11:12:20Z</time></trkpt><trkpt lat="42.649550368621306" lon="12.349003814174692"><ele>579.0</ele><time>2026-04-22T11:12:21Z</time></trkpt><trkpt lat="42.64942631834298" lon="12.348976404053406"><ele>576.25</ele><time>2026-04-22T11:12:22Z</time></trkpt><trkpt lat="42.649302539981754" lon="12.348962142849722"><ele>573.5</ele><time>2026-04-22T11:12:23Z</time></trkpt><trkpt lat="42.649184101571976" lon="12.348911729043872"><ele>570.75</ele><time>2026-04-22T11:12:24Z</time></trkpt><trkpt lat="42.649071403540994" lon="12.348857318004189"><ele>568.0</ele><time>2026-04-22T11:12:25Z</time></trkpt><trkpt lat="42.64895652877997" lon="12.348803923737078"><ele>573.0</ele><time>2026-04-22T11:12:26Z</time></trkpt><trkpt lat="42.64883202930555" lon="12.348762967707028"><ele>578.0</ele><time>2026-04-22T11:12:27Z</time></trkpt><trkpt lat="42.64870920391729" lon="12.348716293352734"><ele>583.0</ele><time>2026-04-22T11:12:28Z</time></trkpt><trkpt lat="42.64858497864786" lon="12.348667482820929"><ele>588.0</ele><time>2026-04-22T11:12:29Z</time></trkpt><trkpt lat="42.64846115621778" lon="12.348615724515083"><ele>588.0</ele><time>2026-04-22T11:12:30Z</time></trkpt><trkpt lat="42.6483413650937" lon="12.348568782411942"><ele>588.0</ele><time>2026-04-22T11:12:31Z</time></trkpt><trkpt lat="42.648222950931114" lon="12.348526169420161"><ele>588.0</ele><time>2026-04-22T11:12:32Z</time></trkpt><trkpt lat="42.64810222037125" lon="12.348487498021896"><ele>588.0</ele><time>2026-04-22T11:12:33Z</time></trkpt><trkpt lat="42.647984400557235" lon="12.348430615431388"><ele>588.0</ele><time>2026-04-22T11:12:34Z</time></trkpt><trkpt lat="42.64786326448861" lon="12.348378711470728"><ele>588.0</ele><time>2026-04-22T11:12:35Z</time></trkpt><trkpt lat="42.64774342887274" lon="12.348316137238337"><ele>588.0</ele><time>2026-04-22T11:12:36Z</time></trkpt><trkpt lat="42.6476361291253" lon="12.348249611210678"><ele>588.0</ele><time>2026-04-22T11:12:37Z</time></trkpt><trkpt lat="42.64753873368149" lon="12.348174922336685"><ele>590.75</ele><time>2026-04-22T11:12:38Z</time></trkpt><trkpt lat="42.64744348274008" lon="12.348088313454411"><ele>593.5</ele><time>2026-04-22T11:12:39Z</time></trkpt><trkpt lat="42.64733486746119" lon="12.347978341880438"><ele>596.25</ele><time>2026-04-22T11:12:40Z</time></trkpt><trkpt lat="42.647211470848966" lon="12.34786462903228"><ele>599.0</ele><time>2026-04-22T11:12:41Z</time></trkpt><trkpt lat="42.64708423472073" lon="12.347764894358845"><ele>592.5</ele><time>2026-04-22T11:12:42Z</time></trkpt><trkpt lat="42.64696048741849" lon="12.34766006902848"><ele>586.0</ele><time>2026-04-22T11:12:43Z</time></trkpt><trkpt lat="42.64684368867491" lon="12.347558958487037"><ele>579.5</ele><time>2026-04-22T11:12:44Z</time></trkpt><trkpt lat="42.64674629169798" lon="12.347474065568772"><ele>573.0</ele><time>2026-04-22T11:12:45Z</time></trkpt><trkpt lat="42.64665994853201" lon="12.347414530986592"><ele>573.0</ele><time>2026-04-22T11:12:46Z</time></trkpt><trkpt lat="42.646591067018306" lon="12.347347133034791"><ele>573.0</ele><time>2026-04-22T11:12:47Z</time></trkpt><trkpt lat="42.64652536658562" lon="12.347286876965521"><ele>573.0</ele><time>2026-04-22T11:12:48Z</time></trkpt><trkpt lat="42.646460518401035" lon="12.34721804778526"><ele>573.0</ele><time>2026-04-22T11:12:49Z</time></trkpt><trkpt lat="42.64640079091414" lon="12.3471475017606"><ele>573.0</ele><time>2026-04-22T11:12:50Z</time></trkpt><trkpt lat="42.6463440421318" lon="12.347075429065091"><ele>573.0</ele><time>2026-04-22T11:12:51Z</time></trkpt><trkpt lat="42.64628872906959" lon="12.34697478964012"><ele>577.4</ele><time>2026-04-22T11:12:52Z</time></trkpt><trkpt lat="42.64626239295312" lon="12.346882797084975"><ele>581.8</ele><time>2026-04-22T11:12:53Z</time></trkpt><trkpt lat="42.64627225728126" lon="12.346792986106959"><ele>586.2</ele><time>2026-04-22T11:12:54Z</time></trkpt><trkpt lat="42.646240068183594" lon="12.346642433471294"><ele>590.6</ele><time>2026-04-22T11:12:55Z</time></trkpt><trkpt lat="42.64623610117682" lon="12.346490316438553"><ele>595.0</ele><time>2026-04-22T11:12:56Z</time></trkpt><trkpt lat="42.64621900274913" lon="12.346340862506418"><ele>597.8</ele><time>2026-04-22T11:12:57Z</time></trkpt><trkpt lat="42.646218728318594" lon="12.346193404481472"><ele>600.6</ele><time>2026-04-22T11:12:58Z</time></trkpt><trkpt lat="42.64619567907915" lon="12.346059256439455"><ele>603.4</ele><time>2026-04-22T11:12:59Z</time></trkpt><trkpt lat="42.64617222427311" lon="12.345922612167127"><ele>606.2</ele><time>2026-04-22T11:13:00Z</time></trkpt><trkpt lat="42.646147325469826" lon="12.345783634081398"><ele>609.0</ele><time>2026-04-22T11:13:01Z</time></trkpt><trkpt lat="42.64613235820097" lon="12.345643512089273"><ele>609.75</ele><time>2026-04-22T11:13:02Z</time></trkpt><trkpt lat="42.64612778541951" lon="12.345489085750545"><ele>610.5</ele><time>2026-04-22T11:13:03Z</time></trkpt><trkpt lat="42.646122231522405" lon="12.345311796274961"><ele>611.25</ele><time>2026-04-22T11:13:04Z</time></trkpt><trkpt lat="42.64613322411508" lon="12.34512011014202"><ele>612.0</ele><time>2026-04-22T11:13:05Z</time></trkpt><trkpt lat="42.64611533091836" lon="12.344926893388667"><ele>611.5</ele><time>2026-04-22T11:13:06Z</time></trkpt><trkpt lat="42.64612542093438" lon="12.344747732790308"><ele>611.0</ele><time>2026-04-22T11:13:07Z</time></trkpt><trkpt lat="42.646166869344356" lon="12.344599123750504"><ele>610.5</ele><time>2026-04-22T11:13:08Z</time></trkpt><trkpt lat="42.64619081781313" lon="12.344452861980448"><ele>610.0</ele><time>2026-04-22T11:13:09Z</time></trkpt><trkpt lat="42.64620411806303" lon="12.344326237391037"><ele>610.0</ele><time>2026-04-22T11:13:10Z</time></trkpt><trkpt lat="42.64619469560445" lon="12.3442382077596"><ele>610.0</ele><time>2026-04-22T11:13:11Z</time></trkpt><trkpt lat="42.646140292082144" lon="12.34413664367615"><ele>610.0</ele><time>2026-04-22T11:13:13Z</time></trkpt><trkpt lat="42.646061670727974" lon="12.344097153276934"><ele>610.0</ele><time>2026-04-22T11:13:14Z</time></trkpt><trkpt lat="42.64595826199398" lon="12.344121405591018"><ele>610.0</ele><time>2026-04-22T11:13:15Z</time></trkpt><trkpt lat="42.64586045605325" lon="12.344146304918437"><ele>610.0</ele><time>2026-04-22T11:13:16Z</time></trkpt><trkpt lat="42.64577836588012" lon="12.344154191376107"><ele>611.6</ele><time>2026-04-22T11:13:17Z</time></trkpt><trkpt lat="42.645698504113675" lon="12.344141243081687"><ele>613.2</ele><time>2026-04-22T11:13:18Z</time></trkpt><trkpt lat="42.64563720759941" lon="12.344097539909553"><ele>614.8</ele><time>2026-04-22T11:13:19Z</time></trkpt><trkpt lat="42.6455796972367" lon="12.344003174782936"><ele>616.4</ele><time>2026-04-22T11:13:20Z</time></trkpt><trkpt lat="42.64549098893389" lon="12.343878216539435"><ele>618.0</ele><time>2026-04-22T11:13:21Z</time></trkpt><trkpt lat="42.645400187970715" lon="12.343797438802255"><ele>618.0</ele><time>2026-04-22T11:13:22Z</time></trkpt><trkpt lat="42.645304757211896" lon="12.343762661354603"><ele>618.0</ele><time>2026-04-22T11:13:23Z</time></trkpt><trkpt lat="42.645212651401806" lon="12.34377882322718"><ele>618.0</ele><time>2026-04-22T11:13:24Z</time></trkpt><trkpt lat="42.64513096901243" lon="12.34382250823637"><ele>618.0</ele><time>2026-04-22T11:13:25Z</time></trkpt><trkpt lat="42.64504450232817" lon="12.343897465181078"><ele>618.0</ele><time>2026-04-22T11:13:26Z</time></trkpt><trkpt lat="42.64495062706188" lon="12.343996872659716"><ele>613.4</ele><time>2026-04-22T11:13:27Z</time></trkpt><trkpt lat="42.644876346412325" lon="12.34412482380356"><ele>608.8</ele><time>2026-04-22T11:13:28Z</time></trkpt><trkpt lat="42.64484592535129" lon="12.344261785675897"><ele>604.2</ele><time>2026-04-22T11:13:29Z</time></trkpt><trkpt lat="42.64485130077643" lon="12.344390662187664"><ele>599.6</ele><time>2026-04-22T11:13:30Z</time></trkpt><trkpt lat="42.64487019175021" lon="12.34452652695248"><ele>595.0</ele><time>2026-04-22T11:13:31Z</time></trkpt><trkpt lat="42.64490097254413" lon="12.344674695928283"><ele>592.0</ele><time>2026-04-22T11:13:32Z</time></trkpt><trkpt lat="42.644929309983915" lon="12.344803812651557"><ele>589.0</ele><time>2026-04-22T11:13:33Z</time></trkpt><trkpt lat="42.644946852587076" lon="12.344897508205369"><ele>586.0</ele><time>2026-04-22T11:13:34Z</time></trkpt><trkpt lat="42.64494089358016" lon="12.344990749615965"><ele>583.0</ele><time>2026-04-22T11:13:35Z</time></trkpt><trkpt lat="42.644866283617915" lon="12.345087222553067"><ele>580.0</ele><time>2026-04-22T11:13:37Z</time></trkpt><trkpt lat="42.64474925377251" lon="12.345183810446345"><ele>580.0</ele><time>2026-04-22T11:13:39Z</time></trkpt><trkpt lat="42.64467782462391" lon="12.3452057549573"><ele>580.0</ele><time>2026-04-22T11:13:40Z</time></trkpt><trkpt lat="42.64461004448136" lon="12.345205112846068"><ele>580.0</ele><time>2026-04-22T11:13:41Z</time></trkpt><trkpt lat="42.64451949843061" lon="12.345224637815566"><ele>580.0</ele><time>2026-04-22T11:13:43Z</time></trkpt><trkpt lat="42.64442078892214" lon="12.345208794867494"><ele>580.0</ele><time>2026-04-22T11:13:46Z</time></trkpt><trkpt lat="42.644362325819586" lon="12.34517495905231"><ele>580.0</ele><time>2026-04-22T11:13:47Z</time></trkpt><trkpt lat="42.64430037158207" lon="12.345112408114106"><ele>580.4</ele><time>2026-04-22T11:13:48Z</time></trkpt><trkpt lat="42.64421918111329" lon="12.345024465855925"><ele>580.8</ele><time>2026-04-22T11:13:49Z</time></trkpt><trkpt lat="42.64414073550956" lon="12.34493065234435"><ele>581.2</ele><time>2026-04-22T11:13:50Z</time></trkpt><trkpt lat="42.64406695615907" lon="12.3448634763027"><ele>581.6</ele><time>2026-04-22T11:13:51Z</time></trkpt><trkpt lat="42.64399193955203" lon="12.344797765573073"><ele>582.0</ele><time>2026-04-22T11:13:52Z</time></trkpt><trkpt lat="42.643909527301844" lon="12.344758438251015"><ele>582.0</ele><time>2026-04-22T11:13:53Z</time></trkpt><trkpt lat="42.64382746381269" lon="12.344726733232962"><ele>582.0</ele><time>2026-04-22T11:13:54Z</time></trkpt><trkpt lat="42.64375468619647" lon="12.344677615875804"><ele>582.0</ele><time>2026-04-22T11:13:55Z</time></trkpt><trkpt lat="42.64367781092255" lon="12.34464724135841"><ele>582.0</ele><time>2026-04-22T11:13:56Z</time></trkpt><trkpt lat="42.643604138415995" lon="12.344619688770466"><ele>582.0</ele><time>2026-04-22T11:13:57Z</time></trkpt><trkpt lat="42.643538084825536" lon="12.344605868886537"><ele>582.0</ele><time>2026-04-22T11:13:58Z</time></trkpt><trkpt lat="42.64346901237371" lon="12.344616466924991"><ele>582.1666666666666</ele><time>2026-04-22T11:13:59Z</time></trkpt><trkpt lat="42.643403782118035" lon="12.344695944817987"><ele>582.3333333333334</ele><time>2026-04-22T11:14:00Z</time></trkpt><trkpt lat="42.6433844704725" lon="12.344802191562911"><ele>582.5</ele><time>2026-04-22T11:14:01Z</time></trkpt><trkpt lat="42.643410286382895" lon="12.344900558105639"><ele>582.6666666666667</ele><time>2026-04-22T11:14:02Z</time></trkpt><trkpt lat="42.643436577054715" lon="12.345002888199756"><ele>582.8333333333334</ele><time>2026-04-22T11:14:03Z</time></trkpt><trkpt lat="42.64347232796685" lon="12.34511829938588"><ele>583.0</ele><time>2026-04-22T11:14:04Z</time></trkpt><trkpt lat="42.6435071393941" lon="12.345225125412599"><ele>583.0</ele><time>2026-04-22T11:14:05Z</time></trkpt><trkpt lat="42.64352458073341" lon="12.345317713826445"><ele>583.0</ele><time>2026-04-22T11:14:06Z</time></trkpt><trkpt lat="42.64351539100026" lon="12.345417190057052"><ele>583.0</ele><time>2026-04-22T11:14:09Z</time></trkpt><trkpt lat="42.64337812445052" lon="12.34542529208766"><ele>583.0</ele><time>2026-04-22T11:14:10Z</time></trkpt><trkpt lat="42.64329528203848" lon="12.345425836278032"><ele>583.0</ele><time>2026-04-22T11:14:11Z</time></trkpt><trkpt lat="42.64319309657074" lon="12.34541381862555"><ele>583.0</ele><time>2026-04-22T11:14:12Z</time></trkpt><trkpt lat="42.6430868065271" lon="12.345403818681817"><ele>583.0</ele><time>2026-04-22T11:14:13Z</time></trkpt><trkpt lat="42.64296329648418" lon="12.345405018159221"><ele>583.0</ele><time>2026-04-22T11:14:14Z</time></trkpt><trkpt lat="42.64283629394172" lon="12.345431953562017"><ele>583.0</ele><time>2026-04-22T11:14:15Z</time></trkpt><trkpt lat="42.642706820858955" lon="12.345477283755665"><ele>587.25</ele><time>2026-04-22T11:14:16Z</time></trkpt><trkpt lat="42.64257146927175" lon="12.3455402714588"><ele>591.5</ele><time>2026-04-22T11:14:17Z</time></trkpt><trkpt lat="42.64244225078618" lon="12.345628724784088"><ele>595.75</ele><time>2026-04-22T11:14:18Z</time></trkpt><trkpt lat="42.64232712611204" lon="12.345720990187422"><ele>600.0</ele><time>2026-04-22T11:14:19Z</time></trkpt><trkpt lat="42.642232121959076" lon="12.345793006791432"><ele>600.0</ele><time>2026-04-22T11:14:20Z</time></trkpt><trkpt lat="42.64215706353024" lon="12.34582945364559"><ele>600.0</ele><time>2026-04-22T11:14:21Z</time></trkpt><trkpt lat="42.64207425413866" lon="12.345785792641433"><ele>600.0</ele><time>2026-04-22T11:14:23Z</time></trkpt><trkpt lat="42.64213428705819" lon="12.345621965992803"><ele>600.0</ele><time>2026-04-22T11:14:25Z</time></trkpt><trkpt lat="42.64219789852134" lon="12.345512000346124"><ele>600.0</ele><time>2026-04-22T11:14:26Z</time></trkpt><trkpt lat="42.64226427060034" lon="12.345403297488156"><ele>600.5</ele><time>2026-04-22T11:14:27Z</time></trkpt><trkpt lat="42.64233803888142" lon="12.345270417177307"><ele>601.0</ele><time>2026-04-22T11:14:28Z</time></trkpt><trkpt lat="42.64241701767778" lon="12.345121187625534"><ele>601.5</ele><time>2026-04-22T11:14:29Z</time></trkpt><trkpt lat="42.642491527564204" lon="12.34497748845767"><ele>602.0</ele><time>2026-04-22T11:14:30Z</time></trkpt><trkpt lat="42.64256042048706" lon="12.344858357497882"><ele>602.0</ele><time>2026-04-22T11:14:31Z</time></trkpt><trkpt lat="42.64262435228682" lon="12.344764810577724"><ele>602.0</ele><time>2026-04-22T11:14:32Z</time></trkpt><trkpt lat="42.64268278927216" lon="12.344689396906501"><ele>602.0</ele><time>2026-04-22T11:14:33Z</time></trkpt><trkpt lat="42.64271455220537" lon="12.344515768964685"><ele>602.0</ele><time>2026-04-22T11:14:35Z</time></trkpt><trkpt lat="42.6425507050515" lon="12.344450374993173"><ele>603.6</ele><time>2026-04-22T11:14:37Z</time></trkpt><trkpt lat="42.64238731734563" lon="12.34437401949908"><ele>605.2</ele><time>2026-04-22T11:14:39Z</time></trkpt><trkpt lat="42.642301574968656" lon="12.344377606177666"><ele>606.8</ele><time>2026-04-22T11:14:40Z</time></trkpt><trkpt lat="42.64223433713992" lon="12.344272916059417"><ele>608.4</ele><time>2026-04-22T11:14:42Z</time></trkpt><trkpt lat="42.64224324573023" lon="12.344182328900986"><ele>610.0</ele><time>2026-04-22T11:14:43Z</time></trkpt><trkpt lat="42.642300259832815" lon="12.344081178982648"><ele>610.0</ele><time>2026-04-22T11:14:44Z</time></trkpt><trkpt lat="42.64233210685038" lon="12.343944464196857"><ele>610.0</ele><time>2026-04-22T11:14:45Z</time></trkpt><trkpt lat="42.64238994188354" lon="12.343809811936"><ele>610.0</ele><time>2026-04-22T11:14:46Z</time></trkpt><trkpt lat="42.64246392778934" lon="12.343671717978307"><ele>610.0</ele><time>2026-04-22T11:14:47Z</time></trkpt><trkpt lat="42.64255033017785" lon="12.34358366137932"><ele>613.75</ele><time>2026-04-22T11:14:48Z</time></trkpt><trkpt lat="42.64265174654096" lon="12.343517784527233"><ele>617.5</ele><time>2026-04-22T11:14:49Z</time></trkpt><trkpt lat="42.64276472082738" lon="12.343517511709944"><ele>621.25</ele><time>2026-04-22T11:14:50Z</time></trkpt><trkpt lat="42.64289756184079" lon="12.343477755085667"><ele>625.0</ele><time>2026-04-22T11:14:51Z</time></trkpt><trkpt lat="42.64304626095505" lon="12.343457378945626"><ele>625.0</ele><time>2026-04-22T11:14:52Z</time></trkpt><trkpt lat="42.643167981120506" lon="12.343444350807443"><ele>625.0</ele><time>2026-04-22T11:14:53Z</time></trkpt><trkpt lat="42.64326077603612" lon="12.34342041441003"><ele>625.0</ele><time>2026-04-22T11:14:54Z</time></trkpt><trkpt lat="42.64337565999481" lon="12.343372738606535"><ele>625.0</ele><time>2026-04-22T11:14:55Z</time></trkpt><trkpt lat="42.64347080862448" lon="12.343300702667209"><ele>625.0</ele><time>2026-04-22T11:14:56Z</time></trkpt><trkpt lat="42.64356282612502" lon="12.343229524384345"><ele>624.2</ele><time>2026-04-22T11:14:57Z</time></trkpt><trkpt lat="42.64367118670525" lon="12.343171923366093"><ele>623.4</ele><time>2026-04-22T11:14:59Z</time></trkpt><trkpt lat="42.643788053102384" lon="12.343109816474175"><ele>622.6</ele><time>2026-04-22T11:15:05Z</time></trkpt><trkpt lat="42.64388682714449" lon="12.343110661120248"><ele>621.8</ele><time>2026-04-22T11:15:06Z</time></trkpt><trkpt lat="42.64395325368574" lon="12.343124965298058"><ele>621.0</ele><time>2026-04-22T11:15:07Z</time></trkpt><trkpt lat="42.64404942898298" lon="12.343140500472057"><ele>626.6</ele><time>2026-04-22T11:15:09Z</time></trkpt><trkpt lat="42.64404243325725" lon="12.342953949943528"><ele>632.2</ele><time>2026-04-22T11:15:14Z</time></trkpt><trkpt lat="42.64397285515136" lon="12.34295465036693"><ele>637.8000000000001</ele><time>2026-04-22T11:15:15Z</time></trkpt><trkpt lat="42.643910287219846" lon="12.342935131832935"><ele>643.4000000000001</ele><time>2026-04-22T11:15:16Z</time></trkpt><trkpt lat="42.6438255160513" lon="12.34290224414227"><ele>649.0</ele><time>2026-04-22T11:15:18Z</time></trkpt><trkpt lat="42.643708940796714" lon="12.342836858869873"><ele>649.0</ele><time>2026-04-22T11:15:20Z</time></trkpt><trkpt lat="42.643642266473904" lon="12.342803124947466"><ele>649.0</ele><time>2026-04-22T11:15:21Z</time></trkpt><trkpt lat="42.64356519790776" lon="12.342781793834707"><ele>649.0</ele><time>2026-04-22T11:15:22Z</time></trkpt><trkpt lat="42.64348880071777" lon="12.342779354856209"><ele>649.0</ele><time>2026-04-22T11:15:23Z</time></trkpt><trkpt lat="42.6433955567933" lon="12.342771523480447"><ele>649.0</ele><time>2026-04-22T11:15:24Z</time></trkpt><trkpt lat="42.64330991186311" lon="12.34277680221445"><ele>649.0</ele><time>2026-04-22T11:15:25Z</time></trkpt><trkpt lat="42.643174030119134" lon="12.342743888224627"><ele>650.5</ele><time>2026-04-22T11:15:27Z</time></trkpt><trkpt lat="42.643094096992655" lon="12.342717972886609"><ele>652.0</ele><time>2026-04-22T11:15:28Z</time></trkpt><trkpt lat="42.64301923431831" lon="12.34269201520523"><ele>653.5</ele><time>2026-04-22T11:15:29Z</time></trkpt><trkpt lat="42.642941453767115" lon="12.34266504573655"><ele>655.0</ele><time>2026-04-22T11:15:30Z</time></trkpt><trkpt lat="42.64284117476385" lon="12.342631536943268"><ele>656.5</ele><time>2026-04-22T11:15:31Z</time></trkpt><trkpt lat="42.64274080604424" lon="12.342606234736195"><ele>658.0</ele><time>2026-04-22T11:15:32Z</time></trkpt><trkpt lat="42.642640724873104" lon="12.342602801390267"><ele>658.4</ele><time>2026-04-22T11:15:33Z</time></trkpt><trkpt lat="42.642552710274245" lon="12.342535797267853"><ele>658.8</ele><time>2026-04-22T11:15:34Z</time></trkpt><trkpt lat="42.64249002678828" lon="12.342490137832835"><ele>659.2</ele><time>2026-04-22T11:15:35Z</time></trkpt><trkpt lat="42.642396203054574" lon="12.342414173713047"><ele>659.6</ele><time>2026-04-22T11:15:36Z</time></trkpt><trkpt lat="42.642301622851654" lon="12.34233474606697"><ele>660.0</ele><time>2026-04-22T11:15:37Z</time></trkpt><trkpt lat="42.64220155045176" lon="12.342264402272741"><ele>666.2</ele><time>2026-04-22T11:15:38Z</time></trkpt><trkpt lat="42.642106048570554" lon="12.342204889305673"><ele>672.4</ele><time>2026-04-22T11:15:39Z</time></trkpt><trkpt lat="42.64200629418439" lon="12.342139476554525"><ele>678.5999999999999</ele><time>2026-04-22T11:15:40Z</time></trkpt><trkpt lat="42.64191018814231" lon="12.34207864924471"><ele>684.8</ele><time>2026-04-22T11:15:41Z</time></trkpt><trkpt lat="42.64181817965964" lon="12.342027540942164"><ele>691.0</ele><time>2026-04-22T11:15:42Z</time></trkpt><trkpt lat="42.64170286809373" lon="12.341962658041405"><ele>691.5</ele><time>2026-04-22T11:15:43Z</time></trkpt><trkpt lat="42.64158018788413" lon="12.341927320459632"><ele>692.0</ele><time>2026-04-22T11:15:44Z</time></trkpt><trkpt lat="42.641459388314594" lon="12.341893581542028"><ele>692.5</ele><time>2026-04-22T11:15:45Z</time></trkpt><trkpt lat="42.64137449004385" lon="12.342051123526478"><ele>693.0</ele><time>2026-04-22T11:15:47Z</time></trkpt><trkpt lat="42.64133170713062" lon="12.34213503359384"><ele>693.5</ele><time>2026-04-22T11:15:48Z</time></trkpt><trkpt lat="42.641307608277096" lon="12.342229461303432"><ele>694.0</ele><time>2026-04-22T11:15:49Z</time></trkpt><trkpt lat="42.64130403530548" lon="12.34231831215696"><ele>694.5</ele><time>2026-04-22T11:15:50Z</time></trkpt><trkpt lat="42.641290364864744" lon="12.342428432136611"><ele>695.0</ele><time>2026-04-22T11:15:51Z</time></trkpt><trkpt lat="42.64120069384537" lon="12.342520234918476"><ele>695.5</ele><time>2026-04-22T11:15:53Z</time></trkpt><trkpt lat="42.641135597624086" lon="12.342534774994109"><ele>696.0</ele><time>2026-04-22T11:15:54Z</time></trkpt><trkpt lat="42.641063224662915" lon="12.34252101317934"><ele>696.0</ele><time>2026-04-22T11:15:55Z</time></trkpt><trkpt lat="42.64096539029314" lon="12.342494285741852"><ele>696.0</ele><time>2026-04-22T11:15:56Z</time></trkpt><trkpt lat="42.64086443518513" lon="12.342475285309698"><ele>696.0</ele><time>2026-04-22T11:15:57Z</time></trkpt><trkpt lat="42.64077272841172" lon="12.34248743521393"><ele>696.0</ele><time>2026-04-22T11:15:58Z</time></trkpt><trkpt lat="42.64071231232217" lon="12.342537300338359"><ele>696.0</ele><time>2026-04-22T11:15:59Z</time></trkpt><trkpt lat="42.64064208980246" lon="12.342678038626715"><ele>696.0</ele><time>2026-04-22T11:16:01Z</time></trkpt><trkpt lat="42.64061860889782" lon="12.342785743572726"><ele>696.0</ele><time>2026-04-22T11:16:02Z</time></trkpt><trkpt lat="42.64059109451477" lon="12.342899559877193"><ele>696.0</ele><time>2026-04-22T11:16:03Z</time></trkpt><trkpt lat="42.640540536747125" lon="12.34300884121854"><ele>696.0</ele><time>2026-04-22T11:16:04Z</time></trkpt><trkpt lat="42.640518575549486" lon="12.343157570878983"><ele>696.0</ele><time>2026-04-22T11:16:05Z</time></trkpt><trkpt lat="42.64048276454022" lon="12.343276132083917"><ele>698.1999999999999</ele><time>2026-04-22T11:16:06Z</time></trkpt><trkpt lat="42.64041924103598" lon="12.343350086129643"><ele>700.4</ele><time>2026-04-22T11:16:07Z</time></trkpt><trkpt lat="42.64030158567868" lon="12.343464916117659"><ele>702.6</ele><time>2026-04-22T11:16:09Z</time></trkpt><trkpt lat="42.6402306146713" lon="12.343474389480832"><ele>704.8</ele><time>2026-04-22T11:16:10Z</time></trkpt><trkpt lat="42.640153381962755" lon="12.343497288491271"><ele>707.0</ele><time>2026-04-22T11:16:11Z</time></trkpt><trkpt lat="42.64004309471012" lon="12.343525378894963"><ele>707.0</ele><time>2026-04-22T11:16:12Z</time></trkpt><trkpt lat="42.63992346623096" lon="12.343556256120332"><ele>707.0</ele><time>2026-04-22T11:16:13Z</time></trkpt><trkpt lat="42.639791182251074" lon="12.343597261434233"><ele>707.0</ele><time>2026-04-22T11:16:14Z</time></trkpt><trkpt lat="42.63968003420355" lon="12.34363828558978"><ele>707.0</ele><time>2026-04-22T11:16:15Z</time></trkpt><trkpt lat="42.639578484961206" lon="12.343678355053806"><ele>707.0</ele><time>2026-04-22T11:16:16Z</time></trkpt><trkpt lat="42.63950005804388" lon="12.343712633054281"><ele>707.0</ele><time>2026-04-22T11:16:17Z</time></trkpt><trkpt lat="42.63942586640702" lon="12.343748886620743"><ele>707.0</ele><time>2026-04-22T11:16:18Z</time></trkpt><trkpt lat="42.63934954940725" lon="12.343814013165138"><ele>707.0</ele><time>2026-04-22T11:16:19Z</time></trkpt><trkpt lat="42.6393002385377" lon="12.343889900737363"><ele>707.0</ele><time>2026-04-22T11:16:20Z</time></trkpt><trkpt lat="42.639294344670475" lon="12.344018846635239"><ele>707.0</ele><time>2026-04-22T11:16:21Z</time></trkpt><trkpt lat="42.639292532392616" lon="12.344138866275253"><ele>707.8</ele><time>2026-04-22T11:16:22Z</time></trkpt><trkpt lat="42.639307736002365" lon="12.344271282228881"><ele>708.6</ele><time>2026-04-22T11:16:23Z</time></trkpt><trkpt lat="42.639330755241026" lon="12.344390856805957"><ele>709.4</ele><time>2026-04-22T11:16:24Z</time></trkpt><trkpt lat="42.63933119844029" lon="12.344518641190339"><ele>710.1999999999999</ele><time>2026-04-22T11:16:25Z</time></trkpt><trkpt lat="42.6393451616553" lon="12.344630402205086"><ele>711.0</ele><time>2026-04-22T11:16:26Z</time></trkpt><trkpt lat="42.639338958935824" lon="12.34475571966438"><ele>711.0</ele><time>2026-04-22T11:16:27Z</time></trkpt><trkpt lat="42.639335726373304" lon="12.34487305285843"><ele>711.0</ele><time>2026-04-22T11:16:28Z</time></trkpt><trkpt lat="42.639355601981826" lon="12.344977141845575"><ele>711.0</ele><time>2026-04-22T11:16:29Z</time></trkpt><trkpt lat="42.63936103915286" lon="12.345094095806754"><ele>711.0</ele><time>2026-04-22T11:16:30Z</time></trkpt><trkpt lat="42.639369791452935" lon="12.345180680396176"><ele>711.0</ele><time>2026-04-22T11:16:31Z</time></trkpt><trkpt lat="42.63933217825663" lon="12.345271031856033"><ele>711.0</ele><time>2026-04-22T11:16:32Z</time></trkpt><trkpt lat="42.63929129991888" lon="12.345348130017161"><ele>711.0</ele><time>2026-04-22T11:16:33Z</time></trkpt><trkpt lat="42.63923783150083" lon="12.34545636753375"><ele>711.0</ele><time>2026-04-22T11:16:34Z</time></trkpt><trkpt lat="42.63917618423073" lon="12.345577218309947"><ele>711.0</ele><time>2026-04-22T11:16:35Z</time></trkpt><trkpt lat="42.63908977277031" lon="12.345706672341795"><ele>711.0</ele><time>2026-04-22T11:16:36Z</time></trkpt><trkpt lat="42.6390112714042" lon="12.345850802639337"><ele>708.0</ele><time>2026-04-22T11:16:37Z</time></trkpt><trkpt lat="42.63894525499649" lon="12.34600919925047"><ele>705.0</ele><time>2026-04-22T11:16:38Z</time></trkpt><trkpt lat="42.638896470654" lon="12.346177393430157"><ele>702.0</ele><time>2026-04-22T11:16:39Z</time></trkpt><trkpt lat="42.638883678452636" lon="12.346393451113906"><ele>699.0</ele><time>2026-04-22T11:16:40Z</time></trkpt><trkpt lat="42.63884427253318" lon="12.346583837457521"><ele>697.0</ele><time>2026-04-22T11:16:41Z</time></trkpt><trkpt lat="42.63882852858213" lon="12.346742865307101"><ele>695.0</ele><time>2026-04-22T11:16:42Z</time></trkpt><trkpt lat="42.638818255499" lon="12.346873983576597"><ele>693.0</ele><time>2026-04-22T11:16:43Z</time></trkpt><trkpt lat="42.638809089026196" lon="12.346990977834029"><ele>691.0</ele><time>2026-04-22T11:16:44Z</time></trkpt><trkpt lat="42.63880217506416" lon="12.347099239864209"><ele>689.0</ele><time>2026-04-22T11:16:45Z</time></trkpt><trkpt lat="42.63881442889283" lon="12.347203404055215"><ele>688.8333333333333</ele><time>2026-04-22T11:16:46Z</time></trkpt><trkpt lat="42.638799745911065" lon="12.347304585411868"><ele>688.6666666666666</ele><time>2026-04-22T11:16:47Z</time></trkpt><trkpt lat="42.63876637423293" lon="12.347382261325555"><ele>688.5</ele><time>2026-04-22T11:16:48Z</time></trkpt><trkpt lat="42.63870520527852" lon="12.347413059461163"><ele>688.3333333333334</ele><time>2026-04-22T11:16:49Z</time></trkpt><trkpt lat="42.63863301505019" lon="12.347355756522127"><ele>688.1666666666667</ele><time>2026-04-22T11:16:50Z</time></trkpt><trkpt lat="42.6385380071773" lon="12.347369627414635"><ele>688.0</ele><time>2026-04-22T11:16:51Z</time></trkpt><trkpt lat="42.63843945961038" lon="12.347398022983377"><ele>688.8</ele><time>2026-04-22T11:16:52Z</time></trkpt><trkpt lat="42.6383322378805" lon="12.347401494743226"><ele>689.5999999999999</ele><time>2026-04-22T11:16:53Z</time></trkpt><trkpt lat="42.638235369894986" lon="12.347456156557818"><ele>690.4000000000001</ele><time>2026-04-22T11:16:54Z</time></trkpt><trkpt lat="42.638136475993385" lon="12.347497939560373"><ele>691.2</ele><time>2026-04-22T11:16:55Z</time></trkpt><trkpt lat="42.63804398279738" lon="12.347589042111045"><ele>692.0</ele><time>2026-04-22T11:16:56Z</time></trkpt><trkpt lat="42.63797536371942" lon="12.347685681996479"><ele>692.0</ele><time>2026-04-22T11:16:57Z</time></trkpt><trkpt lat="42.637930707316436" lon="12.34776952376249"><ele>692.0</ele><time>2026-04-22T11:16:58Z</time></trkpt><trkpt lat="42.63783244290074" lon="12.347909334586301"><ele>692.0</ele><time>2026-04-22T11:16:59Z</time></trkpt><trkpt lat="42.63777775152854" lon="12.348019295634904"><ele>692.0</ele><time>2026-04-22T11:17:00Z</time></trkpt><trkpt lat="42.637692350270456" lon="12.34804588461062"><ele>692.0</ele><time>2026-04-22T11:17:01Z</time></trkpt><trkpt lat="42.637593355906326" lon="12.348066882555198"><ele>688.5</ele><time>2026-04-22T11:17:02Z</time></trkpt><trkpt lat="42.63748469002562" lon="12.34807416913369"><ele>685.0</ele><time>2026-04-22T11:17:03Z</time></trkpt><trkpt lat="42.637362532737804" lon="12.348093371093464"><ele>681.5</ele><time>2026-04-22T11:17:04Z</time></trkpt><trkpt lat="42.637245276909226" lon="12.348130855104246"><ele>678.0</ele><time>2026-04-22T11:17:05Z</time></trkpt><trkpt lat="42.63715192805753" lon="12.348191057456958"><ele>678.0</ele><time>2026-04-22T11:17:06Z</time></trkpt><trkpt lat="42.63706263930561" lon="12.348247472999988"><ele>678.0</ele><time>2026-04-22T11:17:07Z</time></trkpt><trkpt lat="42.636990837895674" lon="12.348319431731252"><ele>678.0</ele><time>2026-04-22T11:17:08Z</time></trkpt><trkpt lat="42.63694418168553" lon="12.348413704355593"><ele>678.0</ele><time>2026-04-22T11:17:09Z</time></trkpt><trkpt lat="42.636919644502875" lon="12.348518019402807"><ele>678.0</ele><time>2026-04-22T11:17:10Z</time></trkpt><trkpt lat="42.636890266167974" lon="12.348671024959648"><ele>676.1666666666666</ele><time>2026-04-22T11:17:11Z</time></trkpt><trkpt lat="42.63683100694892" lon="12.348744874134553"><ele>674.3333333333334</ele><time>2026-04-22T11:17:12Z</time></trkpt><trkpt lat="42.636777781115825" lon="12.348828756540142"><ele>672.5</ele><time>2026-04-22T11:17:13Z</time></trkpt><trkpt lat="42.63671936470429" lon="12.34889339194558"><ele>670.6666666666667</ele><time>2026-04-22T11:17:14Z</time></trkpt><trkpt lat="42.636655179941776" lon="12.348919467709838"><ele>668.8333333333334</ele><time>2026-04-22T11:17:15Z</time></trkpt><trkpt lat="42.636544341804054" lon="12.348933127681814"><ele>667.0</ele><time>2026-04-22T11:17:17Z</time></trkpt><trkpt lat="42.63647696727969" lon="12.34890709019084"><ele>667.0</ele><time>2026-04-22T11:17:18Z</time></trkpt><trkpt lat="42.63636851716459" lon="12.348892588057403"><ele>667.0</ele><time>2026-04-22T11:17:19Z</time></trkpt><trkpt lat="42.636248958797204" lon="12.348881116147103"><ele>667.0</ele><time>2026-04-22T11:17:20Z</time></trkpt><trkpt lat="42.636106295100994" lon="12.34888682813506"><ele>667.0</ele><time>2026-04-22T11:17:21Z</time></trkpt><trkpt lat="42.63594276688415" lon="12.348869354801074"><ele>672.0</ele><time>2026-04-22T11:17:22Z</time></trkpt><trkpt lat="42.63580621943115" lon="12.34882984888405"><ele>677.0</ele><time>2026-04-22T11:17:23Z</time></trkpt><trkpt lat="42.6356860474284" lon="12.348806527731957"><ele>682.0</ele><time>2026-04-22T11:17:24Z</time></trkpt><trkpt lat="42.63557440233268" lon="12.34878192285188"><ele>687.0</ele><time>2026-04-22T11:17:25Z</time></trkpt><trkpt lat="42.63546633024099" lon="12.34875335707337"><ele>687.0</ele><time>2026-04-22T11:17:26Z</time></trkpt><trkpt lat="42.635364715692006" lon="12.348718301801302"><ele>687.0</ele><time>2026-04-22T11:17:27Z</time></trkpt><trkpt lat="42.63527618120412" lon="12.34867402710663"><ele>687.0</ele><time>2026-04-22T11:17:28Z</time></trkpt><trkpt lat="42.63520044021225" lon="12.348626596607316"><ele>687.0</ele><time>2026-04-22T11:17:29Z</time></trkpt><trkpt lat="42.63511903051989" lon="12.348581299258296"><ele>687.0</ele><time>2026-04-22T11:17:30Z</time></trkpt><trkpt lat="42.635032399678835" lon="12.34853830360557"><ele>684.4000000000001</ele><time>2026-04-22T11:17:31Z</time></trkpt><trkpt lat="42.634944859340266" lon="12.348497004510602"><ele>681.8000000000001</ele><time>2026-04-22T11:17:32Z</time></trkpt><trkpt lat="42.63484223214482" lon="12.348458762468569"><ele>679.2</ele><time>2026-04-22T11:17:33Z</time></trkpt><trkpt lat="42.63474754152671" lon="12.348446330914722"><ele>676.6</ele><time>2026-04-22T11:17:34Z</time></trkpt><trkpt lat="42.63466387666956" lon="12.348424182514625"><ele>674.0</ele><time>2026-04-22T11:17:35Z</time></trkpt><trkpt lat="42.63457397908514" lon="12.348413018142711"><ele>671.4000000000001</ele><time>2026-04-22T11:17:36Z</time></trkpt><trkpt lat="42.634462610082004" lon="12.348439629332184"><ele>668.8</ele><time>2026-04-22T11:17:37Z</time></trkpt><trkpt lat="42.63436356142962" lon="12.34846686001811"><ele>666.2</ele><time>2026-04-22T11:17:38Z</time></trkpt><trkpt lat="42.63427823687123" lon="12.348469447155457"><ele>663.5999999999999</ele><time>2026-04-22T11:17:39Z</time></trkpt><trkpt lat="42.634199243413114" lon="12.348457654136121"><ele>661.0</ele><time>2026-04-22T11:17:40Z</time></trkpt><trkpt lat="42.63411490532869" lon="12.348419791301737"><ele>661.0</ele><time>2026-04-22T11:17:41Z</time></trkpt><trkpt lat="42.634050414702266" lon="12.348379042179854"><ele>661.0</ele><time>2026-04-22T11:17:42Z</time></trkpt><trkpt lat="42.63398146024879" lon="12.348317422501394"><ele>661.0</ele><time>2026-04-22T11:17:43Z</time></trkpt><trkpt lat="42.63390494779281" lon="12.348257764636228"><ele>661.0</ele><time>2026-04-22T11:17:44Z</time></trkpt><trkpt lat="42.633838057533694" lon="12.348238370166802"><ele>661.0</ele><time>2026-04-22T11:17:45Z</time></trkpt><trkpt lat="42.633711753868965" lon="12.348266532799089"><ele>661.0</ele><time>2026-04-22T11:17:47Z</time></trkpt><trkpt lat="42.633624704470634" lon="12.348307639662183"><ele>660.0</ele><time>2026-04-22T11:17:48Z</time></trkpt><trkpt lat="42.63351910875345" lon="12.348334078031002"><ele>659.0</ele><time>2026-04-22T11:17:49Z</time></trkpt><trkpt lat="42.63341052798293" lon="12.348369496939203"><ele>658.0</ele><time>2026-04-22T11:17:50Z</time></trkpt><trkpt lat="42.6333167275788" lon="12.348384537695257"><ele>657.0</ele><time>2026-04-22T11:17:51Z</time></trkpt><trkpt lat="42.63324780933579" lon="12.348370863849278"><ele>656.0</ele><time>2026-04-22T11:17:52Z</time></trkpt><trkpt lat="42.633179041500135" lon="12.348350409646875"><ele>656.0</ele><time>2026-04-22T11:17:53Z</time></trkpt><trkpt lat="42.63310588868607" lon="12.3483199577229"><ele>656.0</ele><time>2026-04-22T11:17:54Z</time></trkpt><trkpt lat="42.633024835161194" lon="12.3482838106738"><ele>656.0</ele><time>2026-04-22T11:17:55Z</time></trkpt><trkpt lat="42.63293429041693" lon="12.348236372990211"><ele>656.0</ele><time>2026-04-22T11:17:56Z</time></trkpt><trkpt lat="42.632842834149216" lon="12.348172958459248"><ele>656.0</ele><time>2026-04-22T11:17:57Z</time></trkpt><trkpt lat="42.632769778465025" lon="12.348101089992026"><ele>658.5999999999999</ele><time>2026-04-22T11:17:58Z</time></trkpt><trkpt lat="42.632709182814644" lon="12.348033923825309"><ele>661.2</ele><time>2026-04-22T11:17:59Z</time></trkpt><trkpt lat="42.63264910885814" lon="12.347968198003592"><ele>663.8</ele><time>2026-04-22T11:18:00Z</time></trkpt><trkpt lat="42.63256528595319" lon="12.347868105480524"><ele>666.4000000000001</ele><time>2026-04-22T11:18:02Z</time></trkpt><trkpt lat="42.632474152891746" lon="12.347765258167717"><ele>669.0</ele><time>2026-04-22T11:18:04Z</time></trkpt><trkpt lat="42.63240755052966" lon="12.347705715832339"><ele>669.0</ele><time>2026-04-22T11:18:05Z</time></trkpt><trkpt lat="42.632317961651246" lon="12.347669401653572"><ele>669.0</ele><time>2026-04-22T11:18:06Z</time></trkpt><trkpt lat="42.63220635729699" lon="12.34771205617095"><ele>669.0</ele><time>2026-04-22T11:18:07Z</time></trkpt><trkpt lat="42.632100649110654" lon="12.347681259847858"><ele>669.0</ele><time>2026-04-22T11:18:08Z</time></trkpt><trkpt lat="42.63201064451674" lon="12.347620250183288"><ele>669.0</ele><time>2026-04-22T11:18:09Z</time></trkpt><trkpt lat="42.631912153375936" lon="12.347530484612989"><ele>667.4000000000001</ele><time>2026-04-22T11:18:10Z</time></trkpt><trkpt lat="42.63181876751082" lon="12.347461735317003"><ele>665.8</ele><time>2026-04-22T11:18:11Z</time></trkpt><trkpt lat="42.63172195702677" lon="12.347436265204637"><ele>664.2</ele><time>2026-04-22T11:18:12Z</time></trkpt><trkpt lat="42.631614332470114" lon="12.347378584365089"><ele>662.5999999999999</ele><time>2026-04-22T11:18:13Z</time></trkpt><trkpt lat="42.63153160117419" lon="12.347377144672617"><ele>661.0</ele><time>2026-04-22T11:18:14Z</time></trkpt><trkpt lat="42.631447828980285" lon="12.347399064114857"><ele>661.0</ele><time>2026-04-22T11:18:15Z</time></trkpt><trkpt lat="42.63135880768638" lon="12.347482541538804"><ele>661.0</ele><time>2026-04-22T11:18:16Z</time></trkpt><trkpt lat="42.63124606552518" lon="12.347535211658395"><ele>661.0</ele><time>2026-04-22T11:18:17Z</time></trkpt><trkpt lat="42.63113970606848" lon="12.347598248249222"><ele>661.0</ele><time>2026-04-22T11:18:18Z</time></trkpt><trkpt lat="42.63102350352368" lon="12.34767950958601"><ele>663.75</ele><time>2026-04-22T11:18:19Z</time></trkpt><trkpt lat="42.630877645350324" lon="12.347719145936498"><ele>666.5</ele><time>2026-04-22T11:18:20Z</time></trkpt><trkpt lat="42.630766759388194" lon="12.347776465018725"><ele>669.25</ele><time>2026-04-22T11:18:21Z</time></trkpt><trkpt lat="42.630648574667624" lon="12.347879379083343"><ele>672.0</ele><time>2026-04-22T11:18:22Z</time></trkpt><trkpt lat="42.630556540904855" lon="12.347968821933161"><ele>672.3333333333334</ele><time>2026-04-22T11:18:23Z</time></trkpt><trkpt lat="42.63044977787983" lon="12.34804651487497"><ele>672.6666666666666</ele><time>2026-04-22T11:18:24Z</time></trkpt><trkpt lat="42.63038983045913" lon="12.3481214041834"><ele>673.0</ele><time>2026-04-22T11:18:25Z</time></trkpt><trkpt lat="42.63032871985532" lon="12.348150917624542"><ele>673.3333333333333</ele><time>2026-04-22T11:18:26Z</time></trkpt><trkpt lat="42.63024478786254" lon="12.348221426576838"><ele>673.6666666666666</ele><time>2026-04-22T11:18:27Z</time></trkpt><trkpt lat="42.63017793268482" lon="12.348282569916062"><ele>674.0</ele><time>2026-04-22T11:18:28Z</time></trkpt><trkpt lat="42.62998722286769" lon="12.348432891469669"><ele>674.0</ele><time>2026-04-22T11:18:29Z</time></trkpt><trkpt lat="42.62985814586957" lon="12.34849287307732"><ele>674.0</ele><time>2026-04-22T11:18:30Z</time></trkpt><trkpt lat="42.62975187095054" lon="12.34855329289875"><ele>674.0</ele><time>2026-04-22T11:18:31Z</time></trkpt><trkpt lat="42.62965438459557" lon="12.34860569842143"><ele>674.0</ele><time>2026-04-22T11:18:32Z</time></trkpt><trkpt lat="42.629580442732035" lon="12.348651917764972"><ele>674.0</ele><time>2026-04-22T11:18:33Z</time></trkpt><trkpt lat="42.62951631515377" lon="12.348714906855008"><ele>675.0</ele><time>2026-04-22T11:18:34Z</time></trkpt><trkpt lat="42.629466523118126" lon="12.348796057935486"><ele>676.0</ele><time>2026-04-22T11:18:35Z</time></trkpt><trkpt lat="42.6294226670077" lon="12.348899706110945"><ele>677.0</ele><time>2026-04-22T11:18:36Z</time></trkpt><trkpt lat="42.629364630924016" lon="12.34907448368491"><ele>678.0</ele><time>2026-04-22T11:18:37Z</time></trkpt><trkpt lat="42.62928693367672" lon="12.349159892425405"><ele>679.0</ele><time>2026-04-22T11:18:38Z</time></trkpt><trkpt lat="42.62920962385219" lon="12.349236556846948"><ele>679.0</ele><time>2026-04-22T11:18:39Z</time></trkpt><trkpt lat="42.62911739133317" lon="12.349315208176222"><ele>679.0</ele><time>2026-04-22T11:18:40Z</time></trkpt><trkpt lat="42.629032729780846" lon="12.349360102258224"><ele>679.0</ele><time>2026-04-22T11:18:41Z</time></trkpt><trkpt lat="42.62893757722423" lon="12.349433314469037"><ele>679.0</ele><time>2026-04-22T11:18:42Z</time></trkpt><trkpt lat="42.62884332663743" lon="12.349491367999326"><ele>679.0</ele><time>2026-04-22T11:18:43Z</time></trkpt><trkpt lat="42.62873625791541" lon="12.349534315456458"><ele>681.5</ele><time>2026-04-22T11:18:44Z</time></trkpt><trkpt lat="42.628611440093536" lon="12.349578195874665"><ele>684.0</ele><time>2026-04-22T11:18:45Z</time></trkpt><trkpt lat="42.628471609280915" lon="12.349633991506424"><ele>686.5</ele><time>2026-04-22T11:18:46Z</time></trkpt><trkpt lat="42.6283370345777" lon="12.34963342808734"><ele>689.0</ele><time>2026-04-22T11:18:47Z</time></trkpt><trkpt lat="42.62822175426267" lon="12.349636968280173"><ele>689.0</ele><time>2026-04-22T11:18:48Z</time></trkpt><trkpt lat="42.62814228705376" lon="12.349611676232024"><ele>689.0</ele><time>2026-04-22T11:18:49Z</time></trkpt><trkpt lat="42.62807460588019" lon="12.3495833906168"><ele>689.0</ele><time>2026-04-22T11:18:50Z</time></trkpt><trkpt lat="42.62800397368902" lon="12.349553347904562"><ele>689.0</ele><time>2026-04-22T11:18:51Z</time></trkpt><trkpt lat="42.62792704725631" lon="12.349514418329703"><ele>689.0</ele><time>2026-04-22T11:18:52Z</time></trkpt><trkpt lat="42.627844685165066" lon="12.349469003226483"><ele>689.0</ele><time>2026-04-22T11:18:53Z</time></trkpt><trkpt lat="42.62777930630601" lon="12.349379600972107"><ele>690.1666666666666</ele><time>2026-04-22T11:18:54Z</time></trkpt><trkpt lat="42.62770714776705" lon="12.349309527485502"><ele>691.3333333333333</ele><time>2026-04-22T11:18:55Z</time></trkpt><trkpt lat="42.62763622041773" lon="12.349252011374267"><ele>692.5</ele><time>2026-04-22T11:18:56Z</time></trkpt><trkpt lat="42.62756516836823" lon="12.34921134519099"><ele>693.6666666666666</ele><time>2026-04-22T11:18:57Z</time></trkpt><trkpt lat="42.62748757700307" lon="12.349157251707641"><ele>694.8333333333334</ele><time>2026-04-22T11:18:58Z</time></trkpt><trkpt lat="42.627428986531484" lon="12.349080521023449"><ele>696.0</ele><time>2026-04-22T11:18:59Z</time></trkpt><trkpt lat="42.62737298370888" lon="12.349018834082878"><ele>696.0</ele><time>2026-04-22T11:19:00Z</time></trkpt><trkpt lat="42.627361588792816" lon="12.348910765915281"><ele>696.0</ele><time>2026-04-22T11:19:03Z</time></trkpt><trkpt lat="42.62737530126833" lon="12.34880965360773"><ele>696.0</ele><time>2026-04-22T11:19:06Z</time></trkpt><trkpt lat="42.62747840539343" lon="12.348790866079263"><ele>696.0</ele><time>2026-04-22T11:19:09Z</time></trkpt><trkpt lat="42.62758060633717" lon="12.348768114396277"><ele>696.0</ele><time>2026-04-22T11:19:11Z</time></trkpt><trkpt lat="42.627671352753616" lon="12.348728990695655"><ele>698.4</ele><time>2026-04-22T11:19:13Z</time></trkpt><trkpt lat="42.62775452551929" lon="12.348621478031758"><ele>700.8</ele><time>2026-04-22T11:19:15Z</time></trkpt><trkpt lat="42.62780283731125" lon="12.348556461525275"><ele>703.1999999999999</ele><time>2026-04-22T11:19:17Z</time></trkpt><trkpt lat="42.627767383865326" lon="12.348647343386183"><ele>705.5999999999999</ele><time>2026-04-22T11:19:32Z</time></trkpt><trkpt lat="42.627733013758046" lon="12.348758019878298"><ele>708.0</ele><time>2026-04-22T11:19:35Z</time></trkpt><trkpt lat="42.62760680284281" lon="12.348798985524914"><ele>708.0</ele><time>2026-04-22T11:19:37Z</time></trkpt><trkpt lat="42.62754484926016" lon="12.348843503846242"><ele>708.0</ele><time>2026-04-22T11:19:39Z</time></trkpt><trkpt lat="42.6274605843811" lon="12.348809348865915"><ele>708.0</ele><time>2026-04-22T11:19:41Z</time></trkpt><trkpt lat="42.62736449414412" lon="12.348840917091954"><ele>708.0</ele><time>2026-04-22T11:19:44Z</time></trkpt><trkpt lat="42.62730419950286" lon="12.348929117662856"><ele>708.0</ele><time>2026-04-22T11:19:47Z</time></trkpt><trkpt lat="42.62737772820393" lon="12.34909096801714"><ele>705.5999999999999</ele><time>2026-04-22T11:19:50Z</time></trkpt><trkpt lat="42.62746694036879" lon="12.349175206563446"><ele>703.1999999999999</ele><time>2026-04-22T11:19:52Z</time></trkpt><trkpt lat="42.627565196756024" lon="12.349231243030536"><ele>700.8</ele><time>2026-04-22T11:19:54Z</time></trkpt><trkpt lat="42.62765487111345" lon="12.349298419279602"><ele>698.4</ele><time>2026-04-22T11:19:56Z</time></trkpt><trkpt lat="42.62772575004658" lon="12.349377875509385"><ele>696.0</ele><time>2026-04-22T11:19:58Z</time></trkpt><trkpt lat="42.6278037752823" lon="12.349487580574163"><ele>694.8333333333334</ele><time>2026-04-22T11:20:00Z</time></trkpt><trkpt lat="42.62786742972917" lon="12.349585958068038"><ele>693.6666666666666</ele><time>2026-04-22T11:20:02Z</time></trkpt><trkpt lat="42.62792165780178" lon="12.349684390410868"><ele>692.5</ele><time>2026-04-22T11:20:04Z</time></trkpt><trkpt lat="42.627964035226285" lon="12.349793597274008"><ele>691.3333333333333</ele><time>2026-04-22T11:20:06Z</time></trkpt><trkpt lat="42.6279956785124" lon="12.349900775120362"><ele>690.1666666666666</ele><time>2026-04-22T11:20:08Z</time></trkpt><trkpt lat="42.62798990061001" lon="12.350000483342528"><ele>689.0</ele><time>2026-04-22T11:20:10Z</time></trkpt><trkpt lat="42.62809345220703" lon="12.35016877145773"><ele>688.75</ele><time>2026-04-22T11:20:13Z</time></trkpt><trkpt lat="42.628065121307586" lon="12.350384016393372"><ele>688.5</ele><time>2026-04-22T11:20:15Z</time></trkpt><trkpt lat="42.6279852699212" lon="12.350544955970715"><ele>688.25</ele><time>2026-04-22T11:20:16Z</time></trkpt><trkpt lat="42.62792590167076" lon="12.350607241202727"><ele>688.0</ele><time>2026-04-22T11:20:17Z</time></trkpt><trkpt lat="42.62784942830115" lon="12.350683132899917"><ele>687.8333333333334</ele><time>2026-04-22T11:20:18Z</time></trkpt><trkpt lat="42.627752105077285" lon="12.350763218608577"><ele>687.6666666666667</ele><time>2026-04-22T11:20:20Z</time></trkpt><trkpt lat="42.62769384022908" lon="12.350811163787993"><ele>687.5</ele><time>2026-04-22T11:20:21Z</time></trkpt><trkpt lat="42.62761491841906" lon="12.350882529805807"><ele>687.3333333333334</ele><time>2026-04-22T11:20:23Z</time></trkpt><trkpt lat="42.62755002340961" lon="12.350933142449591"><ele>687.1666666666666</ele><time>2026-04-22T11:20:25Z</time></trkpt><trkpt lat="42.6274825056277" lon="12.35095477762299"><ele>687.0</ele><time>2026-04-22T11:20:27Z</time></trkpt><trkpt lat="42.62711601031368" lon="12.350400079669981"><ele>687.0</ele><time>2026-04-22T11:20:29Z</time></trkpt><trkpt lat="42.62704410531696" lon="12.350395162433317"><ele>687.0</ele><time>2026-04-22T11:20:44Z</time></trkpt><trkpt lat="42.62697806652229" lon="12.35038249980862"><ele>687.0</ele><time>2026-04-22T11:20:46Z</time></trkpt><trkpt lat="42.626907746021466" lon="12.35037168885709"><ele>687.0</ele><time>2026-04-22T11:20:48Z</time></trkpt><trkpt lat="42.626814386627494" lon="12.350332337638239"><ele>687.0</ele><time>2026-04-22T11:20:51Z</time></trkpt><trkpt lat="42.626731110321515" lon="12.350304507870831"><ele>687.0</ele><time>2026-04-22T11:20:53Z</time></trkpt><trkpt lat="42.62663613090409" lon="12.350264816886215"><ele>685.0</ele><time>2026-04-22T11:20:56Z</time></trkpt><trkpt lat="42.626558130756585" lon="12.350228874774075"><ele>683.0</ele><time>2026-04-22T11:20:59Z</time></trkpt><trkpt lat="42.6267134456638" lon="12.35029303903116"><ele>681.0</ele><time>2026-04-22T11:22:53Z</time></trkpt><trkpt lat="42.62677727776448" lon="12.350300174870561"><ele>679.0</ele><time>2026-04-22T11:22:54Z</time></trkpt><trkpt lat="42.626867657645846" lon="12.350355088119437"><ele>677.0</ele><time>2026-04-22T11:22:56Z</time></trkpt><trkpt lat="42.62695419594945" lon="12.350374455602182"><ele>679.0</ele><time>2026-04-22T11:22:58Z</time></trkpt><trkpt lat="42.62702044617484" lon="12.350374999284385"><ele>681.0</ele><time>2026-04-22T11:23:00Z</time></trkpt><trkpt lat="42.62712484535441" lon="12.350392063103158"><ele>683.0</ele><time>2026-04-22T11:23:02Z</time></trkpt><trkpt lat="42.62723050378504" lon="12.350403365025855"><ele>685.0</ele><time>2026-04-22T11:23:04Z</time></trkpt><trkpt lat="42.62732174233845" lon="12.350401034093506"><ele>687.0</ele><time>2026-04-22T11:23:06Z</time></trkpt><trkpt lat="42.62740759536933" lon="12.350386994630878"><ele>687.0</ele><time>2026-04-22T11:23:08Z</time></trkpt><trkpt lat="42.6274811342565" lon="12.350355860377372"><ele>687.0</ele><time>2026-04-22T11:23:09Z</time></trkpt><trkpt lat="42.62755538770284" lon="12.35032205729313"><ele>687.0</ele><time>2026-04-22T11:23:10Z</time></trkpt><trkpt lat="42.62762906149902" lon="12.350290221020432"><ele>687.0</ele><time>2026-04-22T11:23:11Z</time></trkpt><trkpt lat="42.627696281772735" lon="12.350242013655826"><ele>687.0</ele><time>2026-04-22T11:23:12Z</time></trkpt><trkpt lat="42.62780455353917" lon="12.350183629102089"><ele>687.0</ele><time>2026-04-22T11:23:14Z</time></trkpt><trkpt lat="42.62789323932803" lon="12.350134152311696"><ele>687.1666666666666</ele><time>2026-04-22T11:23:16Z</time></trkpt><trkpt lat="42.6279597927211" lon="12.3500721496579"><ele>687.3333333333334</ele><time>2026-04-22T11:23:18Z</time></trkpt><trkpt lat="42.6280345457623" lon="12.350079427246492"><ele>687.5</ele><time>2026-04-22T11:23:20Z</time></trkpt><trkpt lat="42.62809014188143" lon="12.35015952936574"><ele>687.6666666666667</ele><time>2026-04-22T11:23:22Z</time></trkpt><trkpt lat="42.62809955386254" lon="12.350266562406938"><ele>687.8333333333334</ele><time>2026-04-22T11:23:24Z</time></trkpt><trkpt lat="42.628079713838794" lon="12.350421155077822"><ele>688.0</ele><time>2026-04-22T11:23:26Z</time></trkpt><trkpt lat="42.628022382088915" lon="12.350579741645928"><ele>688.6666666666667</ele><time>2026-04-22T11:23:28Z</time></trkpt><trkpt lat="42.62796787944848" lon="12.350648187936232"><ele>689.3333333333334</ele><time>2026-04-22T11:23:29Z</time></trkpt><trkpt lat="42.627891727223975" lon="12.3506693008985"><ele>690.0</ele><time>2026-04-22T11:23:30Z</time></trkpt><trkpt lat="42.62783737772293" lon="12.350720095851747"><ele>690.6666666666666</ele><time>2026-04-22T11:23:31Z</time></trkpt><trkpt lat="42.627777086790005" lon="12.350769051146424"><ele>691.3333333333333</ele><time>2026-04-22T11:23:32Z</time></trkpt><trkpt lat="42.62771508087661" lon="12.35084410800384"><ele>692.0</ele><time>2026-04-22T11:23:33Z</time></trkpt><trkpt lat="42.62763823996684" lon="12.350900285944709"><ele>692.0</ele><time>2026-04-22T11:23:34Z</time></trkpt><trkpt lat="42.62756091720676" lon="12.35099141891137"><ele>692.0</ele><time>2026-04-22T11:23:35Z</time></trkpt><trkpt lat="42.627472845237456" lon="12.351068294260566"><ele>692.0</ele><time>2026-04-22T11:23:36Z</time></trkpt><trkpt lat="42.62739829779855" lon="12.35116106487628"><ele>692.0</ele><time>2026-04-22T11:23:37Z</time></trkpt><trkpt lat="42.62732047108541" lon="12.351232582397635"><ele>692.0</ele><time>2026-04-22T11:23:38Z</time></trkpt><trkpt lat="42.62724563048294" lon="12.351283733643847"><ele>692.0</ele><time>2026-04-22T11:23:39Z</time></trkpt><trkpt lat="42.6271782794543" lon="12.351322857055347"><ele>692.0</ele><time>2026-04-22T11:23:40Z</time></trkpt><trkpt lat="42.62710950813215" lon="12.35135666410017"><ele>692.0</ele><time>2026-04-22T11:23:41Z</time></trkpt><trkpt lat="42.62702198973565" lon="12.35139199263784"><ele>692.0</ele><time>2026-04-22T11:23:42Z</time></trkpt><trkpt lat="42.62692532162182" lon="12.351422089341726"><ele>692.0</ele><time>2026-04-22T11:23:43Z</time></trkpt><trkpt lat="42.626823699808014" lon="12.35144262105882"><ele>692.0</ele><time>2026-04-22T11:23:44Z</time></trkpt><trkpt lat="42.626714709902316" lon="12.351463441291918"><ele>693.8</ele><time>2026-04-22T11:23:45Z</time></trkpt><trkpt lat="42.626607407859716" lon="12.351492978337067"><ele>695.6</ele><time>2026-04-22T11:23:46Z</time></trkpt><trkpt lat="42.626504895330804" lon="12.35150622079363"><ele>697.4</ele><time>2026-04-22T11:23:47Z</time></trkpt><trkpt lat="42.626409233163976" lon="12.351496012332989"><ele>699.1999999999999</ele><time>2026-04-22T11:23:48Z</time></trkpt><trkpt lat="42.62630777221093" lon="12.351487452917008"><ele>701.0</ele><time>2026-04-22T11:23:49Z</time></trkpt><trkpt lat="42.626217890418864" lon="12.351474345132035"><ele>700.6666666666666</ele><time>2026-04-22T11:23:50Z</time></trkpt><trkpt lat="42.62614035559813" lon="12.351462962647721"><ele>700.3333333333333</ele><time>2026-04-22T11:23:51Z</time></trkpt><trkpt lat="42.626052770438655" lon="12.351456450693899"><ele>700.0</ele><time>2026-04-22T11:23:52Z</time></trkpt><trkpt lat="42.62596305368817" lon="12.351459505541872"><ele>699.6666666666666</ele><time>2026-04-22T11:23:53Z</time></trkpt><trkpt lat="42.6258681245857" lon="12.351461750693643"><ele>699.3333333333334</ele><time>2026-04-22T11:23:54Z</time></trkpt><trkpt lat="42.62577579581272" lon="12.351474402693363"><ele>699.0</ele><time>2026-04-22T11:23:55Z</time></trkpt><trkpt lat="42.62568907951922" lon="12.351492599640357"><ele>699.0</ele><time>2026-04-22T11:23:56Z</time></trkpt><trkpt lat="42.62561426774279" lon="12.351539672800232"><ele>699.0</ele><time>2026-04-22T11:23:57Z</time></trkpt><trkpt lat="42.62554681082469" lon="12.351593526827461"><ele>699.0</ele><time>2026-04-22T11:23:58Z</time></trkpt><trkpt lat="42.62549354873025" lon="12.351693100892717"><ele>699.0</ele><time>2026-04-22T11:23:59Z</time></trkpt><trkpt lat="42.625426902385215" lon="12.351797550197759"><ele>699.0</ele><time>2026-04-22T11:24:00Z</time></trkpt><trkpt lat="42.62533986248396" lon="12.351866903637053"><ele>698.75</ele><time>2026-04-22T11:24:01Z</time></trkpt><trkpt lat="42.62528081339954" lon="12.351930450760534"><ele>698.5</ele><time>2026-04-22T11:24:02Z</time></trkpt><trkpt lat="42.62519846935608" lon="12.352017107314687"><ele>698.25</ele><time>2026-04-22T11:24:03Z</time></trkpt><trkpt lat="42.62505123726189" lon="12.352158533751595"><ele>698.0</ele><time>2026-04-22T11:24:05.001Z</time></trkpt><trkpt lat="42.62493278693213" lon="12.352262843485557"><ele>697.9999999999999</ele><time>2026-04-22T11:24:07.001Z</time></trkpt><trkpt lat="42.62486678880144" lon="12.352321956481093"><ele>698.0</ele><time>2026-04-22T11:24:08.001Z</time></trkpt><trkpt lat="42.62479781560527" lon="12.352395285328331"><ele>698.0</ele><time>2026-04-22T11:24:09.001Z</time></trkpt><trkpt lat="42.6247517443208" lon="12.352482006173224"><ele>698.0</ele><time>2026-04-22T11:24:10.001Z</time></trkpt><trkpt lat="42.62471891432985" lon="12.352566267679782"><ele>698.0</ele><time>2026-04-22T11:24:11.001Z</time></trkpt><trkpt lat="42.62470269857838" lon="12.35265467155403"><ele>697.9999999999999</ele><time>2026-04-22T11:24:12.001Z</time></trkpt><trkpt lat="42.62470223063794" lon="12.35274110628482"><ele>698.0</ele><time>2026-04-22T11:24:13.001Z</time></trkpt><trkpt lat="42.62468082817611" lon="12.352912023825079"><ele>698.0</ele><time>2026-04-22T11:24:15.001Z</time></trkpt><trkpt lat="42.62465017879612" lon="12.353022967591416"><ele>698.0</ele><time>2026-04-22T11:24:16.001Z</time></trkpt><trkpt lat="42.624621255047" lon="12.353127618284741"><ele>698.0</ele><time>2026-04-22T11:24:17.001Z</time></trkpt><trkpt lat="42.62458297202694" lon="12.35327055149844"><ele>698.0</ele><time>2026-04-22T11:24:18.001Z</time></trkpt><trkpt lat="42.62455912400678" lon="12.35339547339544"><ele>698.0</ele><time>2026-04-22T11:24:19.001Z</time></trkpt><trkpt lat="42.624533941248714" lon="12.353494286534065"><ele>699.8</ele><time>2026-04-22T11:24:20.001Z</time></trkpt><trkpt lat="42.62451605759117" lon="12.35358218699471"><ele>701.5999999999999</ele><time>2026-04-22T11:24:21.001Z</time></trkpt><trkpt lat="42.624484077374454" lon="12.35371782276801"><ele>703.4000000000001</ele><time>2026-04-22T11:24:23.001Z</time></trkpt><trkpt lat="42.624454990494264" lon="12.353844565949034"><ele>705.2</ele><time>2026-04-22T11:24:25.001Z</time></trkpt><trkpt lat="42.62442079072924" lon="12.354005604722865"><ele>707.0</ele><time>2026-04-22T11:24:27.001Z</time></trkpt><trkpt lat="42.624394861038475" lon="12.354116032383189"><ele>702.8</ele><time>2026-04-22T11:24:28.001Z</time></trkpt><trkpt lat="42.624383531298065" lon="12.354229318361881"><ele>698.6</ele><time>2026-04-22T11:24:29.001Z</time></trkpt><trkpt lat="42.62436892860722" lon="12.354348915099287"><ele>694.4</ele><time>2026-04-22T11:24:30.001Z</time></trkpt><trkpt lat="42.624344841370075" lon="12.354477014206834"><ele>690.1999999999999</ele><time>2026-04-22T11:24:31.001Z</time></trkpt><trkpt lat="42.62430313170086" lon="12.354615398584734"><ele>686.0</ele><time>2026-04-22T11:24:32.001Z</time></trkpt><trkpt lat="42.62427640626062" lon="12.354737971676524"><ele>686.0</ele><time>2026-04-22T11:24:33.001Z</time></trkpt><trkpt lat="42.62425644984644" lon="12.354850349607654"><ele>686.0</ele><time>2026-04-22T11:24:34.001Z</time></trkpt><trkpt lat="42.62424338325806" lon="12.354956219982823"><ele>686.0</ele><time>2026-04-22T11:24:35.001Z</time></trkpt><trkpt lat="42.62423568562863" lon="12.355053845886122"><ele>686.0</ele><time>2026-04-22T11:24:36.001Z</time></trkpt><trkpt lat="42.62421679444471" lon="12.355148045906057"><ele>686.0</ele><time>2026-04-22T11:24:37.001Z</time></trkpt><trkpt lat="42.62419870744495" lon="12.3553100084273"><ele>686.0</ele><time>2026-04-22T11:24:39.001Z</time></trkpt><trkpt lat="42.624183683400965" lon="12.355464494611912"><ele>685.1999999999999</ele><time>2026-04-22T11:24:41.001Z</time></trkpt><trkpt lat="42.62418079425456" lon="12.355617685901995"><ele>684.4</ele><time>2026-04-22T11:24:43.001Z</time></trkpt><trkpt lat="42.624159539883024" lon="12.355779769219444"><ele>683.6</ele><time>2026-04-22T11:24:45Z</time></trkpt><trkpt lat="42.62414868001082" lon="12.35596352318932"><ele>682.8</ele><time>2026-04-22T11:24:47Z</time></trkpt><trkpt lat="42.62415916710047" lon="12.3560652606433"><ele>682.0</ele><time>2026-04-22T11:24:48Z</time></trkpt><trkpt lat="42.62415465709847" lon="12.356166459246305"><ele>682.0</ele><time>2026-04-22T11:24:49Z</time></trkpt><trkpt lat="42.62414075149236" lon="12.35634331924778"><ele>682.0</ele><time>2026-04-22T11:24:51Z</time></trkpt><trkpt lat="42.62415315415474" lon="12.356479314398975"><ele>682.0</ele><time>2026-04-22T11:24:53Z</time></trkpt><trkpt lat="42.62415269359996" lon="12.356606460674895"><ele>682.0</ele><time>2026-04-22T11:24:55Z</time></trkpt><trkpt lat="42.62417712207119" lon="12.356690822291919"><ele>682.0</ele><time>2026-04-22T11:24:56Z</time></trkpt><trkpt lat="42.62422035909645" lon="12.3567785838831"><ele>681.8333333333334</ele><time>2026-04-22T11:24:57Z</time></trkpt><trkpt lat="42.62426148248923" lon="12.356857080766051"><ele>681.6666666666667</ele><time>2026-04-22T11:24:58Z</time></trkpt><trkpt lat="42.62435305039729" lon="12.35697387830068"><ele>681.5</ele><time>2026-04-22T11:25:00Z</time></trkpt><trkpt lat="42.624405911342876" lon="12.35705706148599"><ele>681.3333333333334</ele><time>2026-04-22T11:25:01Z</time></trkpt><trkpt lat="42.62445387526036" lon="12.357137853849693"><ele>681.1666666666666</ele><time>2026-04-22T11:25:02Z</time></trkpt><trkpt lat="42.62450731420533" lon="12.35721920357198"><ele>681.0</ele><time>2026-04-22T11:25:03Z</time></trkpt><trkpt lat="42.62455182686676" lon="12.357298508600877"><ele>681.0</ele><time>2026-04-22T11:25:04Z</time></trkpt><trkpt lat="42.62459620633567" lon="12.3573970248914"><ele>681.0</ele><time>2026-04-22T11:25:05Z</time></trkpt><trkpt lat="42.62460341068329" lon="12.357490631948162"><ele>681.0</ele><time>2026-04-22T11:25:06Z</time></trkpt><trkpt lat="42.624634831004585" lon="12.357568405312048"><ele>681.0</ele><time>2026-04-22T11:25:07Z</time></trkpt><trkpt lat="42.62465492935157" lon="12.357677423658195"><ele>681.0</ele><time>2026-04-22T11:25:08Z</time></trkpt><trkpt lat="42.62467987556495" lon="12.357788466525035"><ele>681.0</ele><time>2026-04-22T11:25:09Z</time></trkpt><trkpt lat="42.624682279369246" lon="12.357883294394156"><ele>681.0</ele><time>2026-04-22T11:25:10Z</time></trkpt><trkpt lat="42.62470169159456" lon="12.357975713420164"><ele>681.0</ele><time>2026-04-22T11:25:11Z</time></trkpt><trkpt lat="42.62473535282619" lon="12.358073532125166"><ele>681.0</ele><time>2026-04-22T11:25:12Z</time></trkpt><trkpt lat="42.62473029562313" lon="12.358170876014375"><ele>681.0</ele><time>2026-04-22T11:25:13Z</time></trkpt><trkpt lat="42.62473969815871" lon="12.358277932678481"><ele>681.0</ele><time>2026-04-22T11:25:14Z</time></trkpt><trkpt lat="42.62475929968016" lon="12.358379275055647"><ele>681.0</ele><time>2026-04-22T11:25:15Z</time></trkpt><trkpt lat="42.624768181357936" lon="12.358479115028109"><ele>679.4</ele><time>2026-04-22T11:25:16Z</time></trkpt><trkpt lat="42.62477650165482" lon="12.35857290869465"><ele>677.8</ele><time>2026-04-22T11:25:17Z</time></trkpt><trkpt lat="42.624766447890714" lon="12.358732218477853"><ele>676.1999999999999</ele><time>2026-04-22T11:25:18.999Z</time></trkpt><trkpt lat="42.62476069291458" lon="12.358825138503564"><ele>674.5999999999999</ele><time>2026-04-22T11:25:19.999Z</time></trkpt><trkpt lat="42.62472939969307" lon="12.358967468674074"><ele>673.0</ele><time>2026-04-22T11:25:21.999Z</time></trkpt><trkpt lat="42.62471308644983" lon="12.359089707541697"><ele>671.0</ele><time>2026-04-22T11:25:23.999Z</time></trkpt><trkpt lat="42.62465436444428" lon="12.359262146259525"><ele>669.0</ele><time>2026-04-22T11:25:25.999Z</time></trkpt><trkpt lat="42.62463760141702" lon="12.359378422749417"><ele>667.0</ele><time>2026-04-22T11:25:26.999Z</time></trkpt><trkpt lat="42.62460339320803" lon="12.359547162529704"><ele>665.0</ele><time>2026-04-22T11:25:28.999Z</time></trkpt><trkpt lat="42.62457934529141" lon="12.359656298173135"><ele>663.0</ele><time>2026-04-22T11:25:29.999Z</time></trkpt><trkpt lat="42.62456098394063" lon="12.359774374428486"><ele>661.3333333333334</ele><time>2026-04-22T11:25:30.999Z</time></trkpt><trkpt lat="42.624527755828176" lon="12.359889040351435"><ele>659.6666666666666</ele><time>2026-04-22T11:25:31.999Z</time></trkpt><trkpt lat="42.624475823835255" lon="12.359991799272077"><ele>658.0</ele><time>2026-04-22T11:25:32.999Z</time></trkpt><trkpt lat="42.62443425168671" lon="12.360069931187873"><ele>656.3333333333333</ele><time>2026-04-22T11:25:33.999Z</time></trkpt><trkpt lat="42.62437789766741" lon="12.3601691586828"><ele>654.6666666666666</ele><time>2026-04-22T11:25:34.999Z</time></trkpt><trkpt lat="42.62432171518605" lon="12.360265098620273"><ele>653.0</ele><time>2026-04-22T11:25:35.999Z</time></trkpt><trkpt lat="42.62425115601971" lon="12.36037589995988"><ele>652.2</ele><time>2026-04-22T11:25:36.999Z</time></trkpt><trkpt lat="42.62418789375225" lon="12.360488998012956"><ele>651.4</ele><time>2026-04-22T11:25:37.999Z</time></trkpt><trkpt lat="42.62412952741623" lon="12.36056834980264"><ele>650.6</ele><time>2026-04-22T11:25:38.999Z</time></trkpt><trkpt lat="42.62406956310577" lon="12.360639012870772"><ele>649.8000000000001</ele><time>2026-04-22T11:25:39.999Z</time></trkpt><trkpt lat="42.62397174135247" lon="12.36075275637683"><ele>649.0</ele><time>2026-04-22T11:25:40.999Z</time></trkpt><trkpt lat="42.623885435393305" lon="12.360847621492493"><ele>648.5</ele><time>2026-04-22T11:25:41.999Z</time></trkpt><trkpt lat="42.623811804931435" lon="12.360896634281893"><ele>648.0</ele><time>2026-04-22T11:25:42.999Z</time></trkpt><trkpt lat="42.62373913126738" lon="12.360940046648249"><ele>647.5</ele><time>2026-04-22T11:25:43.999Z</time></trkpt><trkpt lat="42.62367411801064" lon="12.360975245759604"><ele>647.0</ele><time>2026-04-22T11:25:44.999Z</time></trkpt><trkpt lat="42.623556167462766" lon="12.361016162813094"><ele>646.5</ele><time>2026-04-22T11:25:46.999Z</time></trkpt><trkpt lat="42.62349032996658" lon="12.361047085643731"><ele>646.0</ele><time>2026-04-22T11:25:47.999Z</time></trkpt><trkpt lat="42.62337629026237" lon="12.361079207694754"><ele>644.8333333333334</ele><time>2026-04-22T11:25:49.999Z</time></trkpt><trkpt lat="42.62326988135911" lon="12.36116420085058"><ele>643.6666666666667</ele><time>2026-04-22T11:25:51.999Z</time></trkpt><trkpt lat="42.62321984687034" lon="12.361233680429386"><ele>642.5</ele><time>2026-04-22T11:25:52.999Z</time></trkpt><trkpt lat="42.62317425822518" lon="12.361319283885564"><ele>641.3333333333334</ele><time>2026-04-22T11:25:53.999Z</time></trkpt><trkpt lat="42.62314167219319" lon="12.361395085726018"><ele>640.1666666666666</ele><time>2026-04-22T11:25:54.999Z</time></trkpt><trkpt lat="42.62312075951184" lon="12.361481617171764"><ele>639.0</ele><time>2026-04-22T11:25:55.999Z</time></trkpt><trkpt lat="42.62309636072418" lon="12.361623252887501"><ele>638.5</ele><time>2026-04-22T11:25:57.999Z</time></trkpt><trkpt lat="42.62307179011674" lon="12.36176361301769"><ele>638.0</ele><time>2026-04-22T11:25:59.999Z</time></trkpt><trkpt lat="42.62305591280648" lon="12.361887321097232"><ele>637.5</ele><time>2026-04-22T11:26:01.999Z</time></trkpt><trkpt lat="42.62301602214385" lon="12.361984360090442"><ele>637.0</ele><time>2026-04-22T11:26:03.999Z</time></trkpt><trkpt lat="42.62298945647271" lon="12.362104244948155"><ele>636.5</ele><time>2026-04-22T11:26:05.999Z</time></trkpt><trkpt lat="42.622984095692416" lon="12.362207520866598"><ele>636.0</ele><time>2026-04-22T11:26:07.999Z</time></trkpt><trkpt lat="42.62295500252836" lon="12.362346550721098"><ele>634.5</ele><time>2026-04-22T11:26:10Z</time></trkpt><trkpt lat="42.622941205221935" lon="12.36244272064669"><ele>633.0</ele><time>2026-04-22T11:26:11Z</time></trkpt><trkpt lat="42.62290826668728" lon="12.36251666542152"><ele>631.5</ele><time>2026-04-22T11:26:12Z</time></trkpt><trkpt lat="42.622863555740516" lon="12.362617236479583"><ele>630.0</ele><time>2026-04-22T11:26:14Z</time></trkpt><trkpt lat="42.62281912794666" lon="12.362678990013977"><ele>628.5</ele><time>2026-04-22T11:26:15Z</time></trkpt><trkpt lat="42.6227074429955" lon="12.36274762490449"><ele>627.0</ele><time>2026-04-22T11:26:17Z</time></trkpt><trkpt lat="42.62263550767484" lon="12.362788023463777"><ele>626.0</ele><time>2026-04-22T11:26:18Z</time></trkpt><trkpt lat="42.62255840860326" lon="12.362828738149236"><ele>625.0</ele><time>2026-04-22T11:26:19Z</time></trkpt><trkpt lat="42.62247650722884" lon="12.362874563582555"><ele>624.0</ele><time>2026-04-22T11:26:20Z</time></trkpt><trkpt lat="42.62240187612176" lon="12.362921163701145"><ele>623.0</ele><time>2026-04-22T11:26:21Z</time></trkpt><trkpt lat="42.622341194185736" lon="12.362965096614962"><ele>622.0</ele><time>2026-04-22T11:26:22Z</time></trkpt><trkpt lat="42.622232353693704" lon="12.363066258052601"><ele>621.8000000000001</ele><time>2026-04-22T11:26:24Z</time></trkpt><trkpt lat="42.62216523719644" lon="12.363101995366632"><ele>621.6</ele><time>2026-04-22T11:26:25Z</time></trkpt><trkpt lat="42.622085848302476" lon="12.363167649661344"><ele>621.4000000000001</ele><time>2026-04-22T11:26:26Z</time></trkpt><trkpt lat="42.62201604559928" lon="12.36322537578562"><ele>621.2</ele><time>2026-04-22T11:26:27Z</time></trkpt><trkpt lat="42.621959803783746" lon="12.363296771589537"><ele>621.0</ele><time>2026-04-22T11:26:28Z</time></trkpt><trkpt lat="42.62183327017208" lon="12.3633912328781"><ele>619.5</ele><time>2026-04-22T11:26:30Z</time></trkpt><trkpt lat="42.62171700738438" lon="12.363489389049105"><ele>618.0</ele><time>2026-04-22T11:26:32Z</time></trkpt><trkpt lat="42.621660146496595" lon="12.363542309075022"><ele>616.5</ele><time>2026-04-22T11:26:33Z</time></trkpt><trkpt lat="42.62159798629152" lon="12.363582086767533"><ele>615.0</ele><time>2026-04-22T11:26:34Z</time></trkpt><trkpt lat="42.62155022651475" lon="12.363639452234908"><ele>613.5</ele><time>2026-04-22T11:26:35Z</time></trkpt><trkpt lat="42.62150162470083" lon="12.363709636708762"><ele>612.0</ele><time>2026-04-22T11:26:36Z</time></trkpt><trkpt lat="42.62142319457118" lon="12.363868230843204"><ele>611.7142857142857</ele><time>2026-04-22T11:26:38Z</time></trkpt><trkpt lat="42.62138250973643" lon="12.363939362563027"><ele>611.4285714285714</ele><time>2026-04-22T11:26:39Z</time></trkpt><trkpt lat="42.621345238686246" lon="12.364031720962831"><ele>611.1428571428571</ele><time>2026-04-22T11:26:40Z</time></trkpt><trkpt lat="42.621292477214396" lon="12.364110491523197"><ele>610.8571428571429</ele><time>2026-04-22T11:26:41Z</time></trkpt><trkpt lat="42.621251184260714" lon="12.364201826781457"><ele>610.5714285714286</ele><time>2026-04-22T11:26:42Z</time></trkpt><trkpt lat="42.621213376657664" lon="12.364286822175819"><ele>610.2857142857143</ele><time>2026-04-22T11:26:43Z</time></trkpt><trkpt lat="42.62117615193532" lon="12.36437050743388"><ele>610.0</ele><time>2026-04-22T11:26:44Z</time></trkpt><trkpt lat="42.62111795670579" lon="12.36451167746429"><ele>608.8</ele><time>2026-04-22T11:26:46Z</time></trkpt><trkpt lat="42.62107401103137" lon="12.364647878607498"><ele>607.6</ele><time>2026-04-22T11:26:48Z</time></trkpt><trkpt lat="42.62103824060347" lon="12.364800456070505"><ele>606.4</ele><time>2026-04-22T11:26:50Z</time></trkpt><trkpt lat="42.62098445846847" lon="12.364953552272583"><ele>605.2</ele><time>2026-04-22T11:26:52Z</time></trkpt><trkpt lat="42.6209433248549" lon="12.365029878745933"><ele>604.0</ele><time>2026-04-22T11:26:53Z</time></trkpt><trkpt lat="42.62089712582503" lon="12.365089365478882"><ele>602.6</ele><time>2026-04-22T11:26:54Z</time></trkpt><trkpt lat="42.620794676273526" lon="12.365175537140527"><ele>601.2</ele><time>2026-04-22T11:26:56Z</time></trkpt><trkpt lat="42.62068968486497" lon="12.365176255683808"><ele>599.8000000000001</ele><time>2026-04-22T11:26:58Z</time></trkpt><trkpt lat="42.620617796458326" lon="12.365205353566227"><ele>598.4</ele><time>2026-04-22T11:27:00Z</time></trkpt><trkpt lat="42.620500870766584" lon="12.365227029296483"><ele>597.0</ele><time>2026-04-22T11:27:01Z</time></trkpt><trkpt lat="42.62039240809766" lon="12.365300859278847"><ele>597.0</ele><time>2026-04-22T11:27:03Z</time></trkpt><trkpt lat="42.62034090563399" lon="12.365355019443282"><ele>597.0</ele><time>2026-04-22T11:27:04Z</time></trkpt><trkpt lat="42.62023759216009" lon="12.365466075249095"><ele>597.0</ele><time>2026-04-22T11:27:06Z</time></trkpt><trkpt lat="42.62019477655639" lon="12.365533021255017"><ele>597.0</ele><time>2026-04-22T11:27:07Z</time></trkpt><trkpt lat="42.62017197337154" lon="12.365675839910788"><ele>597.0</ele><time>2026-04-22T11:27:09Z</time></trkpt><trkpt lat="42.62012645298209" lon="12.365826598716101"><ele>593.4</ele><time>2026-04-22T11:27:11Z</time></trkpt><trkpt lat="42.62011464747541" lon="12.366001037453719"><ele>589.8000000000001</ele><time>2026-04-22T11:27:13Z</time></trkpt><trkpt lat="42.620099379888735" lon="12.366120602359823"><ele>586.2</ele><time>2026-04-22T11:27:14Z</time></trkpt><trkpt lat="42.62008258648627" lon="12.366239166444966"><ele>582.6</ele><time>2026-04-22T11:27:15Z</time></trkpt><trkpt lat="42.620070310602514" lon="12.366358037426437"><ele>579.0</ele><time>2026-04-22T11:27:16Z</time></trkpt><trkpt lat="42.62006486428959" lon="12.366473674129685"><ele>578.2</ele><time>2026-04-22T11:27:17Z</time></trkpt><trkpt lat="42.62003137859164" lon="12.36658768587537"><ele>577.4</ele><time>2026-04-22T11:27:18Z</time></trkpt><trkpt lat="42.62000896722683" lon="12.366694028461321"><ele>576.6</ele><time>2026-04-22T11:27:19Z</time></trkpt><trkpt lat="42.61997890263502" lon="12.366807421375558"><ele>575.8</ele><time>2026-04-22T11:27:20Z</time></trkpt><trkpt lat="42.61995401968996" lon="12.366943278850753"><ele>575.0</ele><time>2026-04-22T11:27:21Z</time></trkpt><trkpt lat="42.61990995316328" lon="12.367058819002207"><ele>575.0</ele><time>2026-04-22T11:27:22Z</time></trkpt><trkpt lat="42.61987847590651" lon="12.367161646054473"><ele>575.0</ele><time>2026-04-22T11:27:23Z</time></trkpt><trkpt lat="42.61983193145161" lon="12.367240526110765"><ele>575.0</ele><time>2026-04-22T11:27:24Z</time></trkpt><trkpt lat="42.61980405293586" lon="12.367326350362942"><ele>575.0</ele><time>2026-04-22T11:27:25Z</time></trkpt><trkpt lat="42.61979202096041" lon="12.367485700878218"><ele>575.0</ele><time>2026-04-22T11:27:26.999Z</time></trkpt><trkpt lat="42.61979311579764" lon="12.367707329971967"><ele>574.2</ele><time>2026-04-22T11:27:28.999Z</time></trkpt><trkpt lat="42.61980560143719" lon="12.36783376819665"><ele>573.4</ele><time>2026-04-22T11:27:29.999Z</time></trkpt><trkpt lat="42.619803265137726" lon="12.36796844470232"><ele>572.6</ele><time>2026-04-22T11:27:30.999Z</time></trkpt><trkpt lat="42.61981221763118" lon="12.368077886058838"><ele>571.8</ele><time>2026-04-22T11:27:31.999Z</time></trkpt><trkpt lat="42.619843825036725" lon="12.368219053449105"><ele>571.0</ele><time>2026-04-22T11:27:33.999Z</time></trkpt><trkpt lat="42.61995415040442" lon="12.368312036717633"><ele>569.5</ele><time>2026-04-22T11:27:35.999Z</time></trkpt><trkpt lat="42.62002854182558" lon="12.36834244302246"><ele>568.0</ele><time>2026-04-22T11:27:36.999Z</time></trkpt><trkpt lat="42.620112863025234" lon="12.368377910432425"><ele>566.5</ele><time>2026-04-22T11:27:37.999Z</time></trkpt><trkpt lat="42.62020064949449" lon="12.368431330999837"><ele>565.0</ele><time>2026-04-22T11:27:38.999Z</time></trkpt><trkpt lat="42.62027334453518" lon="12.36849045519472"><ele>563.5</ele><time>2026-04-22T11:27:39.999Z</time></trkpt><trkpt lat="42.62032909719466" lon="12.368568096451783"><ele>562.0</ele><time>2026-04-22T11:27:40.999Z</time></trkpt><trkpt lat="42.620394018174785" lon="12.368783329701158"><ele>562.3333333333334</ele><time>2026-04-22T11:27:42.999Z</time></trkpt><trkpt lat="42.62044905652007" lon="12.368911477045621"><ele>562.6666666666667</ele><time>2026-04-22T11:27:43.999Z</time></trkpt><trkpt lat="42.620514852069306" lon="12.36902096172784"><ele>563.0</ele><time>2026-04-22T11:27:44.999Z</time></trkpt><trkpt lat="42.62056358934307" lon="12.369114492370866"><ele>563.3333333333334</ele><time>2026-04-22T11:27:45.999Z</time></trkpt><trkpt lat="42.62059270223211" lon="12.369204224031034"><ele>563.6666666666666</ele><time>2026-04-22T11:27:46.999Z</time></trkpt><trkpt lat="42.6206432472494" lon="12.369275097322502"><ele>564.0</ele><time>2026-04-22T11:27:47.999Z</time></trkpt><trkpt lat="42.62069479950988" lon="12.369369968970668"><ele>564.0</ele><time>2026-04-22T11:27:48.999Z</time></trkpt><trkpt lat="42.6207566783461" lon="12.36945489591432"><ele>564.0</ele><time>2026-04-22T11:27:49.999Z</time></trkpt><trkpt lat="42.62081126796353" lon="12.369551936346406"><ele>564.0</ele><time>2026-04-22T11:27:50.999Z</time></trkpt><trkpt lat="42.62088603916764" lon="12.369622023744899"><ele>564.0</ele><time>2026-04-22T11:27:51.999Z</time></trkpt><trkpt lat="42.62094552383453" lon="12.369713450355723"><ele>564.0</ele><time>2026-04-22T11:27:52.999Z</time></trkpt><trkpt lat="42.62099831397114" lon="12.369815383970568"><ele>562.3333333333334</ele><time>2026-04-22T11:27:53.999Z</time></trkpt><trkpt lat="42.62105739847098" lon="12.36990945661474"><ele>560.6666666666666</ele><time>2026-04-22T11:27:54.999Z</time></trkpt><trkpt lat="42.621094842025386" lon="12.36997930340878"><ele>559.0</ele><time>2026-04-22T11:27:55.999Z</time></trkpt><trkpt lat="42.62112765090066" lon="12.37005261703322"><ele>557.3333333333333</ele><time>2026-04-22T11:27:56.999Z</time></trkpt><trkpt lat="42.62112954758464" lon="12.37020086994439"><ele>555.6666666666666</ele><time>2026-04-22T11:27:58.999Z</time></trkpt><trkpt lat="42.62111292287437" lon="12.370363109189729"><ele>554.0</ele><time>2026-04-22T11:28:00.999Z</time></trkpt><trkpt lat="42.62102732225879" lon="12.370464084695659"><ele>554.0</ele><time>2026-04-22T11:28:02.999Z</time></trkpt><trkpt lat="42.6209522259795" lon="12.37049591534448"><ele>554.0</ele><time>2026-04-22T11:28:03.999Z</time></trkpt><trkpt lat="42.62087678832889" lon="12.370521542608511"><ele>554.0</ele><time>2026-04-22T11:28:04.999Z</time></trkpt><trkpt lat="42.620778820161476" lon="12.370528943703777"><ele>554.0</ele><time>2026-04-22T11:28:05.999Z</time></trkpt><trkpt lat="42.620691289558124" lon="12.3705279161191"><ele>554.0</ele><time>2026-04-22T11:28:06.999Z</time></trkpt><trkpt lat="42.62059324777867" lon="12.370532323176436"><ele>554.0</ele><time>2026-04-22T11:28:07.999Z</time></trkpt><trkpt lat="42.62049392592842" lon="12.370569181661518"><ele>555.4</ele><time>2026-04-22T11:28:08.999Z</time></trkpt><trkpt lat="42.62038925673946" lon="12.370611343951452"><ele>556.8</ele><time>2026-04-22T11:28:09.999Z</time></trkpt><trkpt lat="42.620299446377466" lon="12.370650802821654"><ele>558.2</ele><time>2026-04-22T11:28:10.999Z</time></trkpt><trkpt lat="42.62020652051883" lon="12.370686084927968"><ele>559.6</ele><time>2026-04-22T11:28:11.999Z</time></trkpt><trkpt lat="42.6200966330073" lon="12.370708899335034"><ele>561.0</ele><time>2026-04-22T11:28:12.999Z</time></trkpt><trkpt lat="42.61997098727204" lon="12.370687487292841"><ele>561.25</ele><time>2026-04-22T11:28:13.999Z</time></trkpt><trkpt lat="42.61983313509701" lon="12.37069354623465"><ele>561.5</ele><time>2026-04-22T11:28:15Z</time></trkpt><trkpt lat="42.619677652913325" lon="12.37068814201934"><ele>561.75</ele><time>2026-04-22T11:28:16Z</time></trkpt><trkpt lat="42.61954314030708" lon="12.370701917856875"><ele>562.0</ele><time>2026-04-22T11:28:17Z</time></trkpt><trkpt lat="42.61943156338331" lon="12.370723314379829"><ele>561.5</ele><time>2026-04-22T11:28:18Z</time></trkpt><trkpt lat="42.61933320375132" lon="12.370760690144056"><ele>561.0</ele><time>2026-04-22T11:28:19Z</time></trkpt><trkpt lat="42.61922671643973" lon="12.37082909625675"><ele>560.5</ele><time>2026-04-22T11:28:20Z</time></trkpt><trkpt lat="42.61912266651104" lon="12.370914812193279"><ele>560.0</ele><time>2026-04-22T11:28:21Z</time></trkpt><trkpt lat="42.6190109483831" lon="12.371021093747272"><ele>560.0</ele><time>2026-04-22T11:28:22Z</time></trkpt><trkpt lat="42.618905130197" lon="12.371142469594034"><ele>560.0</ele><time>2026-04-22T11:28:23Z</time></trkpt><trkpt lat="42.618799760218145" lon="12.37128055052565"><ele>560.0</ele><time>2026-04-22T11:28:24Z</time></trkpt><trkpt lat="42.61869401262837" lon="12.371415350086528"><ele>560.0</ele><time>2026-04-22T11:28:25Z</time></trkpt><trkpt lat="42.61859587763426" lon="12.371544505625618"><ele>560.6</ele><time>2026-04-22T11:28:26Z</time></trkpt><trkpt lat="42.61852039758735" lon="12.371676817722637"><ele>561.2</ele><time>2026-04-22T11:28:27Z</time></trkpt><trkpt lat="42.618444503867394" lon="12.371783927450512"><ele>561.8</ele><time>2026-04-22T11:28:28Z</time></trkpt><trkpt lat="42.61838051587435" lon="12.37189730007142"><ele>562.4</ele><time>2026-04-22T11:28:29Z</time></trkpt><trkpt lat="42.61832789405416" lon="12.37202250535453"><ele>563.0</ele><time>2026-04-22T11:28:30Z</time></trkpt><trkpt lat="42.61828695645963" lon="12.37216359384043"><ele>564.4</ele><time>2026-04-22T11:28:31Z</time></trkpt><trkpt lat="42.61826428908238" lon="12.372300728872005"><ele>565.8</ele><time>2026-04-22T11:28:32Z</time></trkpt><trkpt lat="42.61823525503316" lon="12.372437477988361"><ele>567.2</ele><time>2026-04-22T11:28:33Z</time></trkpt><trkpt lat="42.618205813468485" lon="12.372579731358284"><ele>568.6</ele><time>2026-04-22T11:28:34Z</time></trkpt><trkpt lat="42.61819422363381" lon="12.372678401969976"><ele>570.0</ele><time>2026-04-22T11:28:35Z</time></trkpt><trkpt lat="42.61818230230211" lon="12.372768794500834"><ele>570.0</ele><time>2026-04-22T11:28:37Z</time></trkpt><trkpt lat="42.61815940852468" lon="12.372906277632786"><ele>570.0</ele><time>2026-04-22T11:28:39Z</time></trkpt><trkpt lat="42.61813112037898" lon="12.372999049097357"><ele>570.0</ele><time>2026-04-22T11:28:40Z</time></trkpt><trkpt lat="42.61809204380869" lon="12.373067213128405"><ele>570.0</ele><time>2026-04-22T11:28:41Z</time></trkpt><trkpt lat="42.618069934745144" lon="12.373155191864623"><ele>570.0</ele><time>2026-04-22T11:28:42Z</time></trkpt><trkpt lat="42.618007377857566" lon="12.373260665328148"><ele>570.0</ele><time>2026-04-22T11:28:43Z</time></trkpt><trkpt lat="42.61795843925146" lon="12.373383817490112"><ele>570.0</ele><time>2026-04-22T11:28:44Z</time></trkpt><trkpt lat="42.617888967406806" lon="12.373535167215994"><ele>570.0</ele><time>2026-04-22T11:28:45Z</time></trkpt><trkpt lat="42.61782394365402" lon="12.373671120300266"><ele>570.0</ele><time>2026-04-22T11:28:46Z</time></trkpt><trkpt lat="42.61777147195637" lon="12.37378772335538"><ele>570.0</ele><time>2026-04-22T11:28:47Z</time></trkpt><trkpt lat="42.61773228488184" lon="12.373886791555606"><ele>570.0</ele><time>2026-04-22T11:28:48Z</time></trkpt><trkpt lat="42.61771056431171" lon="12.373982913365506"><ele>570.0</ele><time>2026-04-22T11:28:49Z</time></trkpt><trkpt lat="42.61764952575434" lon="12.374114615834335"><ele>570.0</ele><time>2026-04-22T11:28:51Z</time></trkpt><trkpt lat="42.617623862285924" lon="12.374204762179728"><ele>570.0</ele><time>2026-04-22T11:28:52Z</time></trkpt><trkpt lat="42.61755572320865" lon="12.374302168807022"><ele>570.0</ele><time>2026-04-22T11:28:53Z</time></trkpt><trkpt lat="42.61749242514992" lon="12.374445980178878"><ele>570.0</ele><time>2026-04-22T11:28:54Z</time></trkpt><trkpt lat="42.61743831290813" lon="12.374564568026333"><ele>570.0</ele><time>2026-04-22T11:28:55Z</time></trkpt><trkpt lat="42.61738831043881" lon="12.374664272392346"><ele>570.0</ele><time>2026-04-22T11:28:56Z</time></trkpt><trkpt lat="42.61734692180486" lon="12.374768485153798"><ele>570.0</ele><time>2026-04-22T11:28:57Z</time></trkpt><trkpt lat="42.61729414120277" lon="12.37487302702734"><ele>570.0</ele><time>2026-04-22T11:28:58Z</time></trkpt><trkpt lat="42.61725596570028" lon="12.375017997704713"><ele>570.0</ele><time>2026-04-22T11:28:59Z</time></trkpt><trkpt lat="42.61722682536941" lon="12.37516793885294"><ele>570.4</ele><time>2026-04-22T11:29:00Z</time></trkpt><trkpt lat="42.617209875219224" lon="12.375309462470208"><ele>570.8</ele><time>2026-04-22T11:29:01Z</time></trkpt><trkpt lat="42.617202707698965" lon="12.375446522095713"><ele>571.2</ele><time>2026-04-22T11:29:02Z</time></trkpt><trkpt lat="42.61719807189386" lon="12.375566440452559"><ele>571.6</ele><time>2026-04-22T11:29:03Z</time></trkpt><trkpt lat="42.61720984389883" lon="12.37568278330936"><ele>572.0</ele><time>2026-04-22T11:29:04Z</time></trkpt><trkpt lat="42.61724930493004" lon="12.37579890464192"><ele>572.0</ele><time>2026-04-22T11:29:05Z</time></trkpt><trkpt lat="42.61731667506463" lon="12.37587389161617"><ele>572.0</ele><time>2026-04-22T11:29:06Z</time></trkpt><trkpt lat="42.617419015912525" lon="12.375918118263321"><ele>572.0</ele><time>2026-04-22T11:29:07Z</time></trkpt><trkpt lat="42.617490326012685" lon="12.3758911130915"><ele>572.0</ele><time>2026-04-22T11:29:08Z</time></trkpt><trkpt lat="42.61760630261872" lon="12.37585053127241"><ele>572.0</ele><time>2026-04-22T11:29:09Z</time></trkpt><trkpt lat="42.61769563743497" lon="12.375778349783046"><ele>572.0</ele><time>2026-04-22T11:29:10Z</time></trkpt><trkpt lat="42.61779843651558" lon="12.375726845431998"><ele>572.0</ele><time>2026-04-22T11:29:11Z</time></trkpt><trkpt lat="42.61790278378692" lon="12.37568461467753"><ele>572.0</ele><time>2026-04-22T11:29:12Z</time></trkpt><trkpt lat="42.61801807293783" lon="12.375645079202004"><ele>572.0</ele><time>2026-04-22T11:29:13Z</time></trkpt><trkpt lat="42.61811746615322" lon="12.37562376908838"><ele>572.0</ele><time>2026-04-22T11:29:14Z</time></trkpt><trkpt lat="42.618221562297336" lon="12.375628745524493"><ele>572.8000000000001</ele><time>2026-04-22T11:29:15Z</time></trkpt><trkpt lat="42.61832853278618" lon="12.375651931373879"><ele>573.6</ele><time>2026-04-22T11:29:16Z</time></trkpt><trkpt lat="42.61843813562346" lon="12.37563544778573"><ele>574.4000000000001</ele><time>2026-04-22T11:29:17Z</time></trkpt><trkpt lat="42.618544508808355" lon="12.375645411080205"><ele>575.2</ele><time>2026-04-22T11:29:18Z</time></trkpt><trkpt lat="42.61864731878414" lon="12.375612019369843"><ele>576.0</ele><time>2026-04-22T11:29:19Z</time></trkpt><trkpt lat="42.6187664059029" lon="12.375558449104668"><ele>576.2</ele><time>2026-04-22T11:29:20Z</time></trkpt><trkpt lat="42.61887768190115" lon="12.375509522901735"><ele>576.4000000000001</ele><time>2026-04-22T11:29:21Z</time></trkpt><trkpt lat="42.61896061399738" lon="12.37549577614851"><ele>576.6</ele><time>2026-04-22T11:29:22Z</time></trkpt><trkpt lat="42.61904648021725" lon="12.375509409712096"><ele>576.8000000000001</ele><time>2026-04-22T11:29:23Z</time></trkpt><trkpt lat="42.619135505998266" lon="12.3755323344799"><ele>577.0</ele><time>2026-04-22T11:29:24Z</time></trkpt><trkpt lat="42.61920989772766" lon="12.375572485763117"><ele>577.0</ele><time>2026-04-22T11:29:25Z</time></trkpt><trkpt lat="42.61927949059808" lon="12.37562169304755"><ele>577.0</ele><time>2026-04-22T11:29:26Z</time></trkpt><trkpt lat="42.61937124357703" lon="12.375667160264259"><ele>577.0</ele><time>2026-04-22T11:29:27Z</time></trkpt><trkpt lat="42.6194457975329" lon="12.375732596224438"><ele>577.0</ele><time>2026-04-22T11:29:27.999Z</time></trkpt><trkpt lat="42.61951503973648" lon="12.37580374086793"><ele>577.0</ele><time>2026-04-22T11:29:28.999Z</time></trkpt><trkpt lat="42.61956057935948" lon="12.375868057344915"><ele>577.0</ele><time>2026-04-22T11:29:29.999Z</time></trkpt><trkpt lat="42.61959148700625" lon="12.3760377135651"><ele>576.2</ele><time>2026-04-22T11:29:31.999Z</time></trkpt><trkpt lat="42.6196100321823" lon="12.376156249473462"><ele>575.4000000000001</ele><time>2026-04-22T11:29:32.999Z</time></trkpt><trkpt lat="42.6196390634707" lon="12.376311400739352"><ele>574.5999999999999</ele><time>2026-04-22T11:29:33.999Z</time></trkpt><trkpt lat="42.61967214322611" lon="12.376469447011992"><ele>573.8</ele><time>2026-04-22T11:29:34.999Z</time></trkpt><trkpt lat="42.61970651099291" lon="12.37662452284743"><ele>573.0</ele><time>2026-04-22T11:29:35.999Z</time></trkpt><trkpt lat="42.61975026105284" lon="12.376718968940654"><ele>573.0</ele><time>2026-04-22T11:29:36.999Z</time></trkpt><trkpt lat="42.61974487802503" lon="12.376837195328411"><ele>573.0</ele><time>2026-04-22T11:29:37.999Z</time></trkpt><trkpt lat="42.619751441788495" lon="12.37695192074467"><ele>573.0</ele><time>2026-04-22T11:29:38.999Z</time></trkpt><trkpt lat="42.61975732337142" lon="12.37707726715209"><ele>573.0</ele><time>2026-04-22T11:29:39.999Z</time></trkpt><trkpt lat="42.61977276465042" lon="12.37721810280897"><ele>573.0</ele><time>2026-04-22T11:29:40.999Z</time></trkpt><trkpt lat="42.61977539441452" lon="12.377359866600068"><ele>573.1999999999999</ele><time>2026-04-22T11:29:41.999Z</time></trkpt><trkpt lat="42.61977943075343" lon="12.377504421979094"><ele>573.4</ele><time>2026-04-22T11:29:42.999Z</time></trkpt><trkpt lat="42.61978555562212" lon="12.37763804428707"><ele>573.5999999999999</ele><time>2026-04-22T11:29:43.999Z</time></trkpt><trkpt lat="42.61980545955478" lon="12.377781353583563"><ele>573.8</ele><time>2026-04-22T11:29:44.999Z</time></trkpt><trkpt lat="42.61983815980167" lon="12.377913570738144"><ele>574.0</ele><time>2026-04-22T11:29:45.999Z</time></trkpt><trkpt lat="42.6198777747379" lon="12.378037103407149"><ele>574.0</ele><time>2026-04-22T11:29:46.999Z</time></trkpt><trkpt lat="42.6199094334929" lon="12.378146554187989"><ele>574.0</ele><time>2026-04-22T11:29:47.999Z</time></trkpt><trkpt lat="42.61993446331629" lon="12.37824924631081"><ele>574.0</ele><time>2026-04-22T11:29:48.999Z</time></trkpt><trkpt lat="42.61991164766119" lon="12.378349122723751"><ele>574.0</ele><time>2026-04-22T11:29:49.999Z</time></trkpt><trkpt lat="42.61987043840354" lon="12.378437284767543"><ele>574.0</ele><time>2026-04-22T11:29:50.999Z</time></trkpt><trkpt lat="42.61983513722568" lon="12.378510601113033"><ele>574.0</ele><time>2026-04-22T11:29:51.999Z</time></trkpt><trkpt lat="42.61977466118151" lon="12.378630112075756"><ele>574.0</ele><time>2026-04-22T11:29:52.999Z</time></trkpt><trkpt lat="42.61973408155985" lon="12.378713271388968"><ele>574.0</ele><time>2026-04-22T11:29:53.999Z</time></trkpt><trkpt lat="42.6197143197132" lon="12.378829254212889"><ele>574.0</ele><time>2026-04-22T11:29:54.999Z</time></trkpt><trkpt lat="42.61969184798981" lon="12.378934517232592"><ele>574.0</ele><time>2026-04-22T11:29:55.999Z</time></trkpt><trkpt lat="42.619679028614215" lon="12.379070161983309"><ele>574.0</ele><time>2026-04-22T11:29:56.999Z</time></trkpt><trkpt lat="42.619656388984914" lon="12.379202684313972"><ele>574.0</ele><time>2026-04-22T11:29:57.999Z</time></trkpt><trkpt lat="42.61963343247041" lon="12.379337403350455"><ele>572.0</ele><time>2026-04-22T11:29:58.999Z</time></trkpt><trkpt lat="42.61961596655535" lon="12.379438335560154"><ele>570.0</ele><time>2026-04-22T11:29:59.999Z</time></trkpt><trkpt lat="42.61959205756386" lon="12.37963800825263"><ele>568.0</ele><time>2026-04-22T11:30:00.999Z</time></trkpt><trkpt lat="42.619614019734385" lon="12.379779930413868"><ele>566.0</ele><time>2026-04-22T11:30:01.999Z</time></trkpt><trkpt lat="42.61961856086911" lon="12.379891044536077"><ele>564.0</ele><time>2026-04-22T11:30:02.999Z</time></trkpt><trkpt lat="42.61962032964364" lon="12.379987990021386"><ele>563.4</ele><time>2026-04-22T11:30:03.999Z</time></trkpt><trkpt lat="42.61964075572638" lon="12.380075042761938"><ele>562.8</ele><time>2026-04-22T11:30:04.999Z</time></trkpt><trkpt lat="42.619632347645215" lon="12.380238735074334"><ele>562.2</ele><time>2026-04-22T11:30:06.999Z</time></trkpt><trkpt lat="42.619558992127196" lon="12.380400577714095"><ele>561.6</ele><time>2026-04-22T11:30:08.999Z</time></trkpt><trkpt lat="42.619492255149815" lon="12.380467914795146"><ele>561.0</ele><time>2026-04-22T11:30:09.999Z</time></trkpt><trkpt lat="42.619410998171915" lon="12.380559919616315"><ele>564.8</ele><time>2026-04-22T11:30:10.999Z</time></trkpt><trkpt lat="42.61933565341693" lon="12.380672671944371"><ele>568.6</ele><time>2026-04-22T11:30:11.999Z</time></trkpt><trkpt lat="42.61925257929226" lon="12.380764222124494"><ele>572.4</ele><time>2026-04-22T11:30:12.999Z</time></trkpt><trkpt lat="42.61919072199902" lon="12.38083357356612"><ele>576.2</ele><time>2026-04-22T11:30:13.999Z</time></trkpt><trkpt lat="42.619101792516815" lon="12.380926155426629"><ele>580.0</ele><time>2026-04-22T11:30:15.999Z</time></trkpt><trkpt lat="42.619022512078125" lon="12.381002702175826"><ele>580.0</ele><time>2026-04-22T11:30:17.999Z</time></trkpt><trkpt lat="42.61895122255728" lon="12.381063113487592"><ele>580.0</ele><time>2026-04-22T11:30:20Z</time></trkpt><trkpt lat="42.61889722710357" lon="12.381114721779056"><ele>580.0</ele><time>2026-04-22T11:30:32Z</time></trkpt><trkpt lat="42.6188269749616" lon="12.38117293771083"><ele>580.0</ele><time>2026-04-22T11:30:33Z</time></trkpt><trkpt lat="42.61873746175582" lon="12.3812339963612"><ele>580.0</ele><time>2026-04-22T11:30:34Z</time></trkpt><trkpt lat="42.61868768270438" lon="12.38129968837568"><ele>580.0</ele><time>2026-04-22T11:30:35Z</time></trkpt><trkpt lat="42.61868559723639" lon="12.381400081759297"><ele>579.4</ele><time>2026-04-22T11:30:36Z</time></trkpt><trkpt lat="42.6186700330088" lon="12.381531923985115"><ele>578.8</ele><time>2026-04-22T11:30:38Z</time></trkpt><trkpt lat="42.61872027306842" lon="12.381605039618801"><ele>578.2</ele><time>2026-04-22T11:30:39Z</time></trkpt><trkpt lat="42.61884370984145" lon="12.381631308528789"><ele>577.6</ele><time>2026-04-22T11:30:40Z</time></trkpt><trkpt lat="42.61893152790743" lon="12.381622570605094"><ele>577.0</ele><time>2026-04-22T11:30:41Z</time></trkpt><trkpt lat="42.61900581621195" lon="12.381632015450057"><ele>577.0</ele><time>2026-04-22T11:30:42Z</time></trkpt><trkpt lat="42.6190722229806" lon="12.381670293090124"><ele>577.0</ele><time>2026-04-22T11:30:43Z</time></trkpt><trkpt lat="42.61917200254106" lon="12.38178047907983"><ele>577.0</ele><time>2026-04-22T11:30:45Z</time></trkpt><trkpt lat="42.61923116591732" lon="12.38188860158598"><ele>577.0</ele><time>2026-04-22T11:30:46Z</time></trkpt><trkpt lat="42.61928495121852" lon="12.38200681567974"><ele>577.0</ele><time>2026-04-22T11:30:47Z</time></trkpt><trkpt lat="42.619318095315606" lon="12.382102196950536"><ele>578.2</ele><time>2026-04-22T11:30:48Z</time></trkpt><trkpt lat="42.61933618058226" lon="12.382204026719373"><ele>579.4000000000001</ele><time>2026-04-22T11:30:49Z</time></trkpt><trkpt lat="42.619339108845125" lon="12.382296535620648"><ele>580.5999999999999</ele><time>2026-04-22T11:30:50Z</time></trkpt><trkpt lat="42.61933543056215" lon="12.382410309085206"><ele>581.8</ele><time>2026-04-22T11:30:51Z</time></trkpt><trkpt lat="42.61932405097036" lon="12.382516114777074"><ele>583.0</ele><time>2026-04-22T11:30:52Z</time></trkpt><trkpt lat="42.61926058954503" lon="12.382720503221954"><ele>583.0</ele><time>2026-04-22T11:30:54Z</time></trkpt><trkpt lat="42.61921066985588" lon="12.382827262575795"><ele>583.0</ele><time>2026-04-22T11:30:55Z</time></trkpt><trkpt lat="42.61915376477628" lon="12.382931350406416"><ele>583.0</ele><time>2026-04-22T11:30:56Z</time></trkpt><trkpt lat="42.6190962725978" lon="12.383046693116192"><ele>583.0</ele><time>2026-04-22T11:30:57Z</time></trkpt><trkpt lat="42.61905158224431" lon="12.383155472267326"><ele>583.0</ele><time>2026-04-22T11:30:58Z</time></trkpt><trkpt lat="42.619027287471226" lon="12.383266082286008"><ele>583.5</ele><time>2026-04-22T11:30:59Z</time></trkpt><trkpt lat="42.6189824553381" lon="12.383351324391557"><ele>584.0</ele><time>2026-04-22T11:31:00Z</time></trkpt><trkpt lat="42.618943757884985" lon="12.383465615511637"><ele>584.5</ele><time>2026-04-22T11:31:01Z</time></trkpt><trkpt lat="42.61890980690913" lon="12.383610456522877"><ele>585.0</ele><time>2026-04-22T11:31:02Z</time></trkpt><trkpt lat="42.618881752534115" lon="12.383709542272262"><ele>585.5</ele><time>2026-04-22T11:31:03Z</time></trkpt><trkpt lat="42.61883484373785" lon="12.38380114383349"><ele>586.0</ele><time>2026-04-22T11:31:04Z</time></trkpt><trkpt lat="42.618809006873086" lon="12.38389807460485"><ele>585.0</ele><time>2026-04-22T11:31:05Z</time></trkpt><trkpt lat="42.61877660373009" lon="12.384021778577024"><ele>584.0</ele><time>2026-04-22T11:31:06Z</time></trkpt><trkpt lat="42.61873827717446" lon="12.384104501914699"><ele>583.0</ele><time>2026-04-22T11:31:07Z</time></trkpt><trkpt lat="42.618705337716335" lon="12.384207979075944"><ele>582.0</ele><time>2026-04-22T11:31:08Z</time></trkpt><trkpt lat="42.618677678597905" lon="12.384296572585944"><ele>581.0</ele><time>2026-04-22T11:31:09Z</time></trkpt><trkpt lat="42.61864624920918" lon="12.384401637541238"><ele>580.0</ele><time>2026-04-22T11:31:10Z</time></trkpt><trkpt lat="42.61862084816516" lon="12.384486550781332"><ele>579.4285714285714</ele><time>2026-04-22T11:31:11Z</time></trkpt><trkpt lat="42.61859409338453" lon="12.384582496262967"><ele>578.8571428571429</ele><time>2026-04-22T11:31:12Z</time></trkpt><trkpt lat="42.61856764039743" lon="12.384677624927178"><ele>578.2857142857143</ele><time>2026-04-22T11:31:13Z</time></trkpt><trkpt lat="42.61854282340047" lon="12.384766870492854"><ele>577.7142857142858</ele><time>2026-04-22T11:31:14Z</time></trkpt><trkpt lat="42.61851810502621" lon="12.384855761018375"><ele>577.1428571428571</ele><time>2026-04-22T11:31:15Z</time></trkpt><trkpt lat="42.6184952624585" lon="12.384937906082955"><ele>576.5714285714287</ele><time>2026-04-22T11:31:16Z</time></trkpt><trkpt lat="42.6184884377883" lon="12.385023302173881"><ele>576.0</ele><time>2026-04-22T11:31:17Z</time></trkpt><trkpt lat="42.61844418121684" lon="12.3851639335618"><ele>575.0</ele><time>2026-04-22T11:31:19Z</time></trkpt><trkpt lat="42.618424015332415" lon="12.38525107949397"><ele>574.0</ele><time>2026-04-22T11:31:20Z</time></trkpt><trkpt lat="42.61837307959623" lon="12.385399356268541"><ele>573.0</ele><time>2026-04-22T11:31:22Z</time></trkpt><trkpt lat="42.61835054107053" lon="12.385496313131545"><ele>572.0</ele><time>2026-04-22T11:31:23Z</time></trkpt><trkpt lat="42.61833129616458" lon="12.38563858384695"><ele>571.0</ele><time>2026-04-22T11:31:25Z</time></trkpt><trkpt lat="42.61832936202361" lon="12.385775311480304"><ele>570.0</ele><time>2026-04-22T11:31:27Z</time></trkpt><trkpt lat="42.61833486614824" lon="12.38591892461511"><ele>569.0</ele><time>2026-04-22T11:31:29Z</time></trkpt><trkpt lat="42.61834913742672" lon="12.386004596199072"><ele>568.0</ele><time>2026-04-22T11:31:30Z</time></trkpt><trkpt lat="42.61835391880647" lon="12.386119787796318"><ele>567.0</ele><time>2026-04-22T11:31:31Z</time></trkpt><trkpt lat="42.61837034761817" lon="12.386206234343996"><ele>566.0</ele><time>2026-04-22T11:31:32Z</time></trkpt><trkpt lat="42.6183834163034" lon="12.386291214590766"><ele>565.0</ele><time>2026-04-22T11:31:33Z</time></trkpt><trkpt lat="42.61840120010829" lon="12.386374231425416"><ele>564.0</ele><time>2026-04-22T11:31:34Z</time></trkpt><trkpt lat="42.61842529606574" lon="12.386531670925905"><ele>562.4</ele><time>2026-04-22T11:31:36Z</time></trkpt><trkpt lat="42.61842640896945" lon="12.386659027977277"><ele>560.8</ele><time>2026-04-22T11:31:37Z</time></trkpt><trkpt lat="42.61844051812535" lon="12.386792282215405"><ele>559.2</ele><time>2026-04-22T11:31:38Z</time></trkpt><trkpt lat="42.61844870881745" lon="12.386918455060949"><ele>557.6</ele><time>2026-04-22T11:31:39Z</time></trkpt><trkpt lat="42.61845343194243" lon="12.38703102340117"><ele>556.0</ele><time>2026-04-22T11:31:40Z</time></trkpt><trkpt lat="42.618434870064526" lon="12.387167807434947"><ele>555.6</ele><time>2026-04-22T11:31:41Z</time></trkpt><trkpt lat="42.61840793663133" lon="12.387301458403954"><ele>555.2</ele><time>2026-04-22T11:31:41.999Z</time></trkpt><trkpt lat="42.61838239184413" lon="12.387444130399256"><ele>554.8</ele><time>2026-04-22T11:31:42.999Z</time></trkpt><trkpt lat="42.61837335647637" lon="12.387572233775323"><ele>554.4</ele><time>2026-04-22T11:31:43.999Z</time></trkpt><trkpt lat="42.61837290792845" lon="12.387695496657381"><ele>554.0</ele><time>2026-04-22T11:31:44.999Z</time></trkpt><trkpt lat="42.61837054465393" lon="12.387829062765316"><ele>554.0</ele><time>2026-04-22T11:31:45.999Z</time></trkpt><trkpt lat="42.61837174137554" lon="12.387974276296003"><ele>554.0</ele><time>2026-04-22T11:31:46.999Z</time></trkpt><trkpt lat="42.618381502577705" lon="12.388092825565009"><ele>554.0</ele><time>2026-04-22T11:31:47.999Z</time></trkpt><trkpt lat="42.618392866772155" lon="12.38821489243729"><ele>554.0</ele><time>2026-04-22T11:31:48.999Z</time></trkpt><trkpt lat="42.61838955986026" lon="12.388335073783884"><ele>554.0</ele><time>2026-04-22T11:31:49.999Z</time></trkpt><trkpt lat="42.61838801762889" lon="12.388465058743462"><ele>554.0</ele><time>2026-04-22T11:31:50.999Z</time></trkpt><trkpt lat="42.618385972274446" lon="12.388598367398263"><ele>554.0</ele><time>2026-04-22T11:31:51.999Z</time></trkpt><trkpt lat="42.61835635306539" lon="12.388747024229232"><ele>554.0</ele><time>2026-04-22T11:31:52.999Z</time></trkpt><trkpt lat="42.61833187074775" lon="12.388897810756715"><ele>554.0</ele><time>2026-04-22T11:31:53.999Z</time></trkpt><trkpt lat="42.61831808491474" lon="12.389070561166688"><ele>554.25</ele><time>2026-04-22T11:31:54.999Z</time></trkpt><trkpt lat="42.618313377393534" lon="12.389233643175796"><ele>554.5</ele><time>2026-04-22T11:31:55.999Z</time></trkpt><trkpt lat="42.61832035926535" lon="12.389388287415796"><ele>554.75</ele><time>2026-04-22T11:31:56.999Z</time></trkpt><trkpt lat="42.61833169788208" lon="12.38953261505756"><ele>555.0</ele><time>2026-04-22T11:31:57.999Z</time></trkpt><trkpt lat="42.6182982796717" lon="12.389679540750247"><ele>555.0</ele><time>2026-04-22T11:31:58.999Z</time></trkpt><trkpt lat="42.6182597477514" lon="12.389828827035867"><ele>555.0</ele><time>2026-04-22T11:31:59.999Z</time></trkpt><trkpt lat="42.61820446067811" lon="12.389975244269818"><ele>555.0</ele><time>2026-04-22T11:32:00.999Z</time></trkpt><trkpt lat="42.61814273142575" lon="12.39013119401817"><ele>555.0</ele><time>2026-04-22T11:32:01.999Z</time></trkpt><trkpt lat="42.61807481031267" lon="12.390306541605021"><ele>555.0</ele><time>2026-04-22T11:32:02.999Z</time></trkpt><trkpt lat="42.618011182370296" lon="12.390473406301725"><ele>555.0</ele><time>2026-04-22T11:32:03.999Z</time></trkpt><trkpt lat="42.61794593113276" lon="12.390634167394388"><ele>555.0</ele><time>2026-04-22T11:32:04.999Z</time></trkpt><trkpt lat="42.61788453288731" lon="12.390781576218757"><ele>555.0</ele><time>2026-04-22T11:32:05.999Z</time></trkpt><trkpt lat="42.617833414948656" lon="12.390913078912973"><ele>555.2</ele><time>2026-04-22T11:32:06.999Z</time></trkpt><trkpt lat="42.61780020888773" lon="12.391027572271318"><ele>555.4</ele><time>2026-04-22T11:32:07.999Z</time></trkpt><trkpt lat="42.61779145780801" lon="12.391126329290325"><ele>555.6</ele><time>2026-04-22T11:32:08.999Z</time></trkpt><trkpt lat="42.61784951478967" lon="12.391254306116915"><ele>555.8</ele><time>2026-04-22T11:32:10.999Z</time></trkpt><trkpt lat="42.61797268904786" lon="12.391316128171702"><ele>556.0</ele><time>2026-04-22T11:32:12.999Z</time></trkpt><trkpt lat="42.618048805587556" lon="12.391330460642264"><ele>556.0</ele><time>2026-04-22T11:32:13.999Z</time></trkpt><trkpt lat="42.61813042918338" lon="12.391304106951608"><ele>556.0</ele><time>2026-04-22T11:32:14.999Z</time></trkpt><trkpt lat="42.61821393238312" lon="12.391249107107024"><ele>556.0</ele><time>2026-04-22T11:32:15.999Z</time></trkpt><trkpt lat="42.61830329640624" lon="12.391189249519112"><ele>556.0</ele><time>2026-04-22T11:32:16.999Z</time></trkpt><trkpt lat="42.618373439770956" lon="12.391088279801524"><ele>556.0</ele><time>2026-04-22T11:32:17.999Z</time></trkpt><trkpt lat="42.618431999664146" lon="12.390986259527892"><ele>556.0</ele><time>2026-04-22T11:32:18.999Z</time></trkpt><trkpt lat="42.61849104850551" lon="12.390894051416602"><ele>556.0</ele><time>2026-04-22T11:32:19.999Z</time></trkpt><trkpt lat="42.61854610474668" lon="12.390821015850426"><ele>556.0</ele><time>2026-04-22T11:32:20.999Z</time></trkpt><trkpt lat="42.618615277936044" lon="12.39076637647306"><ele>556.0</ele><time>2026-04-22T11:32:21.999Z</time></trkpt><trkpt lat="42.61869037075501" lon="12.390739378309522"><ele>556.0</ele><time>2026-04-22T11:32:22.999Z</time></trkpt><trkpt lat="42.61878193393034" lon="12.390704784767284"><ele>556.0</ele><time>2026-04-22T11:32:23.999Z</time></trkpt><trkpt lat="42.618892617500904" lon="12.390666742970398"><ele>554.25</ele><time>2026-04-22T11:32:24.999Z</time></trkpt><trkpt lat="42.619017001279396" lon="12.390641064339155"><ele>552.5</ele><time>2026-04-22T11:32:26Z</time></trkpt><trkpt lat="42.619144863306005" lon="12.390616678367367"><ele>550.75</ele><time>2026-04-22T11:32:27Z</time></trkpt><trkpt lat="42.6192631150874" lon="12.390627139377235"><ele>549.0</ele><time>2026-04-22T11:32:28Z</time></trkpt><trkpt lat="42.61936732031718" lon="12.390629737776171"><ele>549.0</ele><time>2026-04-22T11:32:29Z</time></trkpt><trkpt lat="42.61945959541468" lon="12.390643959204915"><ele>549.0</ele><time>2026-04-22T11:32:30Z</time></trkpt><trkpt lat="42.619549815838326" lon="12.390647056769117"><ele>549.0</ele><time>2026-04-22T11:32:31Z</time></trkpt><trkpt lat="42.619628399854456" lon="12.390703798438725"><ele>549.0</ele><time>2026-04-22T11:32:32Z</time></trkpt><trkpt lat="42.61970279383853" lon="12.390747168986673"><ele>549.0</ele><time>2026-04-22T11:32:33Z</time></trkpt><trkpt lat="42.61977983880539" lon="12.390819167771955"><ele>549.0</ele><time>2026-04-22T11:32:34Z</time></trkpt><trkpt lat="42.61984938536903" lon="12.390905190756662"><ele>548.4</ele><time>2026-04-22T11:32:35Z</time></trkpt><trkpt lat="42.61989633571919" lon="12.39100900982029"><ele>547.8</ele><time>2026-04-22T11:32:36Z</time></trkpt><trkpt lat="42.619931596853704" lon="12.391122064310983"><ele>547.2</ele><time>2026-04-22T11:32:37Z</time></trkpt><trkpt lat="42.61995961296446" lon="12.391244303850446"><ele>546.6</ele><time>2026-04-22T11:32:38Z</time></trkpt><trkpt lat="42.61998945137794" lon="12.391374064339736"><ele>546.0</ele><time>2026-04-22T11:32:39Z</time></trkpt><trkpt lat="42.620017698101" lon="12.391492857086574"><ele>546.0</ele><time>2026-04-22T11:32:40Z</time></trkpt><trkpt lat="42.62004411863082" lon="12.391590736922419"><ele>546.0</ele><time>2026-04-22T11:32:41Z</time></trkpt><trkpt lat="42.620129458631716" lon="12.39170051584522"><ele>546.0</ele><time>2026-04-22T11:32:43Z</time></trkpt><trkpt lat="42.62020030648175" lon="12.391708772364282"><ele>546.0</ele><time>2026-04-22T11:32:44Z</time></trkpt><trkpt lat="42.62029108643186" lon="12.391737204623972"><ele>546.0</ele><time>2026-04-22T11:32:45Z</time></trkpt><trkpt lat="42.62036900560847" lon="12.391764617126649"><ele>546.0</ele><time>2026-04-22T11:32:46Z</time></trkpt><trkpt lat="42.62045703532566" lon="12.391803600146813"><ele>542.6</ele><time>2026-04-22T11:32:47Z</time></trkpt><trkpt lat="42.620554870385156" lon="12.39182741576975"><ele>539.2</ele><time>2026-04-22T11:32:48Z</time></trkpt><trkpt lat="42.62064635169438" lon="12.391879574198493"><ele>535.8</ele><time>2026-04-22T11:32:49Z</time></trkpt><trkpt lat="42.62072872369196" lon="12.391917743758405"><ele>532.4</ele><time>2026-04-22T11:32:50Z</time></trkpt><trkpt lat="42.620812572739005" lon="12.391952217694207"><ele>529.0</ele><time>2026-04-22T11:32:51Z</time></trkpt><trkpt lat="42.62089388995715" lon="12.392011008121909"><ele>529.0</ele><time>2026-04-22T11:32:52Z</time></trkpt><trkpt lat="42.62098092290914" lon="12.392086986419883"><ele>529.0</ele><time>2026-04-22T11:32:53Z</time></trkpt><trkpt lat="42.62106648237195" lon="12.39213950377645"><ele>529.0</ele><time>2026-04-22T11:32:54Z</time></trkpt><trkpt lat="42.62115214972985" lon="12.392172434335173"><ele>529.0</ele><time>2026-04-22T11:32:55Z</time></trkpt><trkpt lat="42.621236887560876" lon="12.392210484263229"><ele>529.0</ele><time>2026-04-22T11:32:56Z</time></trkpt><trkpt lat="42.62130795401233" lon="12.392263834887913"><ele>526.8333333333334</ele><time>2026-04-22T11:32:57Z</time></trkpt><trkpt lat="42.62135220761455" lon="12.392337609377732"><ele>524.6666666666667</ele><time>2026-04-22T11:32:58Z</time></trkpt><trkpt lat="42.62138801079517" lon="12.392433146457595"><ele>522.5</ele><time>2026-04-22T11:32:59Z</time></trkpt><trkpt lat="42.621392085836135" lon="12.39252696557511"><ele>520.3333333333334</ele><time>2026-04-22T11:33:00Z</time></trkpt><trkpt lat="42.62138614750665" lon="12.39261711024488"><ele>518.1666666666666</ele><time>2026-04-22T11:33:01Z</time></trkpt><trkpt lat="42.62135219551338" lon="12.392703714446892"><ele>516.0</ele><time>2026-04-22T11:33:02Z</time></trkpt><trkpt lat="42.62126674086687" lon="12.392773075788543"><ele>516.0</ele><time>2026-04-22T11:33:04Z</time></trkpt><trkpt lat="42.62119601300044" lon="12.392854673223688"><ele>516.0</ele><time>2026-04-22T11:33:05Z</time></trkpt><trkpt lat="42.62111189297221" lon="12.392964409651757"><ele>516.0</ele><time>2026-04-22T11:33:07Z</time></trkpt><trkpt lat="42.621047036252044" lon="12.39316318407746"><ele>516.0</ele><time>2026-04-22T11:33:08Z</time></trkpt><trkpt lat="42.621001819717165" lon="12.393290142769931"><ele>516.1666666666666</ele><time>2026-04-22T11:33:09Z</time></trkpt><trkpt lat="42.62095908375386" lon="12.393427284033978"><ele>516.3333333333334</ele><time>2026-04-22T11:33:10Z</time></trkpt><trkpt lat="42.620918748665545" lon="12.393544905211149"><ele>516.5</ele><time>2026-04-22T11:33:11Z</time></trkpt><trkpt lat="42.620880195141225" lon="12.393625322009237"><ele>516.6666666666667</ele><time>2026-04-22T11:33:12Z</time></trkpt><trkpt lat="42.62081527783601" lon="12.393693966646728"><ele>516.8333333333334</ele><time>2026-04-22T11:33:13Z</time></trkpt><trkpt lat="42.620754304096984" lon="12.393733771460482"><ele>517.0</ele><time>2026-04-22T11:33:14Z</time></trkpt><trkpt lat="42.62068931011521" lon="12.393737058763916"><ele>517.0</ele><time>2026-04-22T11:33:15Z</time></trkpt><trkpt lat="42.62060316113772" lon="12.393742585909392"><ele>517.0</ele><time>2026-04-22T11:33:16Z</time></trkpt><trkpt lat="42.62051467627684" lon="12.393792342960257"><ele>517.0</ele><time>2026-04-22T11:33:18Z</time></trkpt><trkpt lat="42.62051255389974" lon="12.393947057401661"><ele>517.0</ele><time>2026-04-22T11:33:20Z</time></trkpt><trkpt lat="42.620611170422116" lon="12.394053270382084"><ele>517.0</ele><time>2026-04-22T11:33:22Z</time></trkpt><trkpt lat="42.62070301265361" lon="12.394035933896872"><ele>514.2</ele><time>2026-04-22T11:33:23Z</time></trkpt><trkpt lat="42.62079667208717" lon="12.39402708955454"><ele>511.40000000000003</ele><time>2026-04-22T11:33:24Z</time></trkpt><trkpt lat="42.6208982206831" lon="12.394009757589307"><ele>508.59999999999997</ele><time>2026-04-22T11:33:25Z</time></trkpt><trkpt lat="42.621001507853" lon="12.394002856390804"><ele>505.79999999999995</ele><time>2026-04-22T11:33:26Z</time></trkpt><trkpt lat="42.62109322832353" lon="12.394009632421282"><ele>503.0</ele><time>2026-04-22T11:33:27Z</time></trkpt><trkpt lat="42.621181814125976" lon="12.393982256136022"><ele>503.59999999999997</ele><time>2026-04-22T11:33:28Z</time></trkpt><trkpt lat="42.621277622598804" lon="12.393913493034372"><ele>504.19999999999993</ele><time>2026-04-22T11:33:29Z</time></trkpt><trkpt lat="42.621372219655974" lon="12.393847392748443"><ele>504.8</ele><time>2026-04-22T11:33:30Z</time></trkpt><trkpt lat="42.621467530759105" lon="12.393852994820667"><ele>505.4</ele><time>2026-04-22T11:33:31Z</time></trkpt><trkpt lat="42.62156885326678" lon="12.393834823259278"><ele>506.0</ele><time>2026-04-22T11:33:32Z</time></trkpt><trkpt lat="42.62167246028633" lon="12.393904722615481"><ele>504.20000000000005</ele><time>2026-04-22T11:33:33Z</time></trkpt><trkpt lat="42.62178896512617" lon="12.393941038679278"><ele>502.40000000000003</ele><time>2026-04-22T11:33:34Z</time></trkpt><trkpt lat="42.62189140320865" lon="12.393958029794842"><ele>500.6</ele><time>2026-04-22T11:33:35Z</time></trkpt><trkpt lat="42.62198434788371" lon="12.393950340467725"><ele>498.8</ele><time>2026-04-22T11:33:36Z</time></trkpt><trkpt lat="42.622077406998315" lon="12.393969926491136"><ele>497.0</ele><time>2026-04-22T11:33:37Z</time></trkpt><trkpt lat="42.622167117374666" lon="12.393979467195269"><ele>496.16666666666663</ele><time>2026-04-22T11:33:38Z</time></trkpt><trkpt lat="42.62224727940298" lon="12.39399185694779"><ele>495.3333333333333</ele><time>2026-04-22T11:33:39Z</time></trkpt><trkpt lat="42.62235079436505" lon="12.394048728502502"><ele>494.5</ele><time>2026-04-22T11:33:40Z</time></trkpt><trkpt lat="42.622404683813066" lon="12.394125856002752"><ele>493.66666666666663</ele><time>2026-04-22T11:33:42Z</time></trkpt><trkpt lat="42.62244071009622" lon="12.394205000166812"><ele>492.8333333333333</ele><time>2026-04-22T11:33:43Z</time></trkpt><trkpt lat="42.6225025045173" lon="12.394303053581318"><ele>492.0</ele><time>2026-04-22T11:33:44Z</time></trkpt><trkpt lat="42.62257074013931" lon="12.394375655537708"><ele>492.0</ele><time>2026-04-22T11:33:45Z</time></trkpt><trkpt lat="42.62266316698411" lon="12.394408330104229"><ele>492.00000000000006</ele><time>2026-04-22T11:33:46Z</time></trkpt><trkpt lat="42.62274252646484" lon="12.394457450028002"><ele>492.00000000000006</ele><time>2026-04-22T11:33:47Z</time></trkpt><trkpt lat="42.622833797277586" lon="12.394505260594384"><ele>492.0</ele><time>2026-04-22T11:33:48Z</time></trkpt><trkpt lat="42.622925781843016" lon="12.394545572343949"><ele>492.0</ele><time>2026-04-22T11:33:49Z</time></trkpt><trkpt lat="42.62301329559279" lon="12.394563923400165"><ele>488.8</ele><time>2026-04-22T11:33:49.999Z</time></trkpt><trkpt lat="42.62309098027197" lon="12.394580909406002"><ele>485.6</ele><time>2026-04-22T11:33:50.999Z</time></trkpt><trkpt lat="42.62316643379366" lon="12.39459935780534"><ele>482.40000000000003</ele><time>2026-04-22T11:33:51.999Z</time></trkpt><trkpt lat="42.62324788938561" lon="12.39461545314639"><ele>479.20000000000005</ele><time>2026-04-22T11:33:52.999Z</time></trkpt><trkpt lat="42.623326460192814" lon="12.394622613898338"><ele>476.0</ele><time>2026-04-22T11:33:53.999Z</time></trkpt><trkpt lat="42.62348857921261" lon="12.3945745833557"><ele>476.0</ele><time>2026-04-22T11:33:55.999Z</time></trkpt><trkpt lat="42.62358146961856" lon="12.394543850528812"><ele>476.0</ele><time>2026-04-22T11:33:56.999Z</time></trkpt><trkpt lat="42.623663966588865" lon="12.39450646745144"><ele>476.0</ele><time>2026-04-22T11:33:57.999Z</time></trkpt><trkpt lat="42.62374904543445" lon="12.394497809601631"><ele>476.0</ele><time>2026-04-22T11:33:58.999Z</time></trkpt><trkpt lat="42.62384410111047" lon="12.394494758004251"><ele>476.0</ele><time>2026-04-22T11:33:59.999Z</time></trkpt><trkpt lat="42.62395401416309" lon="12.394485162114766"><ele>474.4</ele><time>2026-04-22T11:34:00.999Z</time></trkpt><trkpt lat="42.62406274458653" lon="12.394486846623861"><ele>472.8</ele><time>2026-04-22T11:34:01.999Z</time></trkpt><trkpt lat="42.62415290445621" lon="12.394478303653475"><ele>471.19999999999993</ele><time>2026-04-22T11:34:02.999Z</time></trkpt><trkpt lat="42.62424882338952" lon="12.3944686990485"><ele>469.59999999999997</ele><time>2026-04-22T11:34:03.999Z</time></trkpt><trkpt lat="42.624351621334654" lon="12.394459544517689"><ele>468.0</ele><time>2026-04-22T11:34:04.999Z</time></trkpt><trkpt lat="42.62445007222316" lon="12.394458909277802"><ele>466.79999999999995</ele><time>2026-04-22T11:34:05.999Z</time></trkpt><trkpt lat="42.62453404129333" lon="12.39449481521913"><ele>465.59999999999997</ele><time>2026-04-22T11:34:06.999Z</time></trkpt><trkpt lat="42.62461770512765" lon="12.3945210411317"><ele>464.40000000000003</ele><time>2026-04-22T11:34:07.999Z</time></trkpt><trkpt lat="42.62473805091081" lon="12.394576589789967"><ele>463.20000000000005</ele><time>2026-04-22T11:34:08.999Z</time></trkpt><trkpt lat="42.6248656066323" lon="12.394628033260172"><ele>462.0</ele><time>2026-04-22T11:34:09.999Z</time></trkpt><trkpt lat="42.624977109849944" lon="12.394661082219553"><ele>462.8333333333333</ele><time>2026-04-22T11:34:10.999Z</time></trkpt><trkpt lat="42.62508108407232" lon="12.394683840177606"><ele>463.66666666666663</ele><time>2026-04-22T11:34:11.999Z</time></trkpt><trkpt lat="42.6251678021897" lon="12.394687300957088"><ele>464.5</ele><time>2026-04-22T11:34:12.999Z</time></trkpt><trkpt lat="42.62524190503936" lon="12.394679210957573"><ele>465.3333333333333</ele><time>2026-04-22T11:34:13.999Z</time></trkpt><trkpt lat="42.62531283823115" lon="12.394683081573742"><ele>466.16666666666663</ele><time>2026-04-22T11:34:14.999Z</time></trkpt><trkpt lat="42.62534733485288" lon="12.394778969586266"><ele>467.0</ele><time>2026-04-22T11:34:15.999Z</time></trkpt><trkpt lat="42.62537082200774" lon="12.394859634066615"><ele>467.0</ele><time>2026-04-22T11:34:16.999Z</time></trkpt><trkpt lat="42.625373199824665" lon="12.395015336293051"><ele>467.00000000000006</ele><time>2026-04-22T11:34:18.999Z</time></trkpt><trkpt lat="42.6253416128298" lon="12.395116772100234"><ele>467.00000000000006</ele><time>2026-04-22T11:34:19.999Z</time></trkpt><trkpt lat="42.625285329446974" lon="12.39523427094651"><ele>467.0</ele><time>2026-04-22T11:34:20.999Z</time></trkpt><trkpt lat="42.625216168426086" lon="12.395383441743146"><ele>467.0</ele><time>2026-04-22T11:34:21.999Z</time></trkpt><trkpt lat="42.6251533938429" lon="12.395542796040141"><ele>466.0</ele><time>2026-04-22T11:34:22.999Z</time></trkpt><trkpt lat="42.62507145910308" lon="12.395687116976069"><ele>465.0</ele><time>2026-04-22T11:34:23.999Z</time></trkpt><trkpt lat="42.6249906699321" lon="12.395850480022212"><ele>464.0</ele><time>2026-04-22T11:34:24.999Z</time></trkpt><trkpt lat="42.62489980830096" lon="12.39599750646586"><ele>463.0</ele><time>2026-04-22T11:34:25.999Z</time></trkpt><trkpt lat="42.624798403655035" lon="12.396146698551394"><ele>463.0</ele><time>2026-04-22T11:34:26.999Z</time></trkpt><trkpt lat="42.62469769201262" lon="12.39628597630654"><ele>463.0</ele><time>2026-04-22T11:34:27.999Z</time></trkpt><trkpt lat="42.62459171984327" lon="12.396435911244128"><ele>463.0</ele><time>2026-04-22T11:34:28.999Z</time></trkpt><trkpt lat="42.62448678012435" lon="12.396623323265652"><ele>466.25</ele><time>2026-04-22T11:34:29.999Z</time></trkpt><trkpt lat="42.62440676541194" lon="12.396780743314528"><ele>469.5</ele><time>2026-04-22T11:34:30.999Z</time></trkpt><trkpt lat="42.624331535917015" lon="12.396956402023552"><ele>472.75</ele><time>2026-04-22T11:34:32Z</time></trkpt><trkpt lat="42.624262799062514" lon="12.397100561179444"><ele>476.0</ele><time>2026-04-22T11:34:33Z</time></trkpt><trkpt lat="42.62418622468977" lon="12.39722545573412"><ele>476.0</ele><time>2026-04-22T11:34:34Z</time></trkpt><trkpt lat="42.62408485733918" lon="12.397324595856022"><ele>476.0</ele><time>2026-04-22T11:34:35Z</time></trkpt><trkpt lat="42.62397120553889" lon="12.397444095236487"><ele>476.0</ele><time>2026-04-22T11:34:36Z</time></trkpt><trkpt lat="42.62389980112959" lon="12.397615245557498"><ele>476.0</ele><time>2026-04-22T11:34:37Z</time></trkpt><trkpt lat="42.62382520648321" lon="12.397787308087086"><ele>476.0</ele><time>2026-04-22T11:34:38Z</time></trkpt><trkpt lat="42.62373898432317" lon="12.39794532868086"><ele>476.0</ele><time>2026-04-22T11:34:39Z</time></trkpt><trkpt lat="42.623647574113654" lon="12.39811222508882"><ele>476.0</ele><time>2026-04-22T11:34:40Z</time></trkpt><trkpt lat="42.62353978478215" lon="12.39826077820689"><ele>477.66666666666663</ele><time>2026-04-22T11:34:41Z</time></trkpt><trkpt lat="42.62339273284109" lon="12.398421880413771"><ele>479.33333333333337</ele><time>2026-04-22T11:34:42Z</time></trkpt><trkpt lat="42.62326683201203" lon="12.398571879243507"><ele>481.0</ele><time>2026-04-22T11:34:43Z</time></trkpt><trkpt lat="42.62314955434907" lon="12.398736394193087"><ele>480.25</ele><time>2026-04-22T11:34:44Z</time></trkpt><trkpt lat="42.623044071641594" lon="12.398899934736733"><ele>479.5</ele><time>2026-04-22T11:34:45Z</time></trkpt><trkpt lat="42.622940009091685" lon="12.399061629101684"><ele>478.75</ele><time>2026-04-22T11:34:46Z</time></trkpt><trkpt lat="42.62285127436094" lon="12.399190072376154"><ele>478.0</ele><time>2026-04-22T11:34:47Z</time></trkpt><trkpt lat="42.622811058050345" lon="12.39933004363464"><ele>478.0</ele><time>2026-04-22T11:34:48Z</time></trkpt><trkpt lat="42.62277833052062" lon="12.399458067229018"><ele>477.99999999999994</ele><time>2026-04-22T11:34:49Z</time></trkpt><trkpt lat="42.62274471429105" lon="12.399562802245422"><ele>477.99999999999994</ele><time>2026-04-22T11:34:50Z</time></trkpt><trkpt lat="42.622705394649806" lon="12.399632310493663"><ele>478.0</ele><time>2026-04-22T11:34:51Z</time></trkpt><trkpt lat="42.622622819751506" lon="12.39971333500178"><ele>478.0</ele><time>2026-04-22T11:34:52Z</time></trkpt><trkpt lat="42.62252444852602" lon="12.399788049209985"><ele>474.75</ele><time>2026-04-22T11:34:53Z</time></trkpt><trkpt lat="42.62240675875209" lon="12.3998418967945"><ele>471.5</ele><time>2026-04-22T11:34:54Z</time></trkpt><trkpt lat="42.62229072235747" lon="12.399908831782291"><ele>468.25</ele><time>2026-04-22T11:34:55Z</time></trkpt><trkpt lat="42.622176969907024" lon="12.399951879050883"><ele>465.0</ele><time>2026-04-22T11:34:56Z</time></trkpt><trkpt lat="42.6220614644743" lon="12.399946484996587"><ele>464.75</ele><time>2026-04-22T11:34:57Z</time></trkpt><trkpt lat="42.6219517457083" lon="12.399902732247192"><ele>464.5</ele><time>2026-04-22T11:34:58Z</time></trkpt><trkpt lat="42.62181645711189" lon="12.399840023687341"><ele>464.25</ele><time>2026-04-22T11:34:59Z</time></trkpt><trkpt lat="42.621684249168176" lon="12.399771529108772"><ele>464.0</ele><time>2026-04-22T11:35:00Z</time></trkpt><trkpt lat="42.621542232263586" lon="12.399736560713754"><ele>464.0</ele><time>2026-04-22T11:35:01Z</time></trkpt><trkpt lat="42.621420007940806" lon="12.3996879457112"><ele>464.0</ele><time>2026-04-22T11:35:02Z</time></trkpt><trkpt lat="42.62131059577695" lon="12.399718162122173"><ele>464.0</ele><time>2026-04-22T11:35:03Z</time></trkpt><trkpt lat="42.621201730229984" lon="12.399747224317137"><ele>464.0</ele><time>2026-04-22T11:35:04Z</time></trkpt><trkpt lat="42.621086526990105" lon="12.399786315655046"><ele>464.5</ele><time>2026-04-22T11:35:05Z</time></trkpt><trkpt lat="42.620955667145644" lon="12.399794306404265"><ele>465.0</ele><time>2026-04-22T11:35:06Z</time></trkpt><trkpt lat="42.620821791949886" lon="12.399832512068626"><ele>465.5</ele><time>2026-04-22T11:35:07Z</time></trkpt><trkpt lat="42.62069899688207" lon="12.399905486577358"><ele>466.0</ele><time>2026-04-22T11:35:08Z</time></trkpt><trkpt lat="42.62061077638916" lon="12.400037638932933"><ele>466.0</ele><time>2026-04-22T11:35:09Z</time></trkpt><trkpt lat="42.62053122152945" lon="12.400199884632574"><ele>466.0</ele><time>2026-04-22T11:35:10Z</time></trkpt><trkpt lat="42.620481456980016" lon="12.400347751569155"><ele>466.0</ele><time>2026-04-22T11:35:11Z</time></trkpt><trkpt lat="42.62043345073876" lon="12.400519255686426"><ele>466.0</ele><time>2026-04-22T11:35:12Z</time></trkpt><trkpt lat="42.62040146515101" lon="12.40072249185323"><ele>465.25</ele><time>2026-04-22T11:35:13Z</time></trkpt><trkpt lat="42.62034992323524" lon="12.40089927165304"><ele>464.5</ele><time>2026-04-22T11:35:14Z</time></trkpt><trkpt lat="42.62029626306968" lon="12.401058397693363"><ele>463.75</ele><time>2026-04-22T11:35:15Z</time></trkpt><trkpt lat="42.620218566652994" lon="12.401188712838008"><ele>463.0</ele><time>2026-04-22T11:35:16Z</time></trkpt><trkpt lat="42.62012520668259" lon="12.401258364905493"><ele>464.4</ele><time>2026-04-22T11:35:17Z</time></trkpt><trkpt lat="42.62003011726395" lon="12.401290765683125"><ele>465.79999999999995</ele><time>2026-04-22T11:35:18Z</time></trkpt><trkpt lat="42.619939277907555" lon="12.4012810639982"><ele>467.2</ele><time>2026-04-22T11:35:19Z</time></trkpt><trkpt lat="42.61983264611995" lon="12.401290870705518"><ele>468.6</ele><time>2026-04-22T11:35:20Z</time></trkpt><trkpt lat="42.61972565010948" lon="12.401338801323275"><ele>470.0</ele><time>2026-04-22T11:35:21Z</time></trkpt><trkpt lat="42.61962541191983" lon="12.401346011700369"><ele>470.5</ele><time>2026-04-22T11:35:22Z</time></trkpt><trkpt lat="42.61952778157373" lon="12.40135176258798"><ele>471.0</ele><time>2026-04-22T11:35:23Z</time></trkpt><trkpt lat="42.61936866765516" lon="12.401435062646625"><ele>471.5</ele><time>2026-04-22T11:35:24Z</time></trkpt><trkpt lat="42.61927368166952" lon="12.401491840113172"><ele>472.0</ele><time>2026-04-22T11:35:25Z</time></trkpt><trkpt lat="42.61918979055855" lon="12.401548931402866"><ele>470.6</ele><time>2026-04-22T11:35:26Z</time></trkpt><trkpt lat="42.61912480719991" lon="12.401648100336924"><ele>469.20000000000005</ele><time>2026-04-22T11:35:27Z</time></trkpt><trkpt lat="42.619115448925065" lon="12.401788628337805"><ele>467.8</ele><time>2026-04-22T11:35:28Z</time></trkpt><trkpt lat="42.619080415595626" lon="12.401934466247537"><ele>466.4</ele><time>2026-04-22T11:35:29Z</time></trkpt><trkpt lat="42.619061924405415" lon="12.40210780309778"><ele>465.0</ele><time>2026-04-22T11:35:30Z</time></trkpt><trkpt lat="42.61903537280346" lon="12.402280231350487"><ele>464.0</ele><time>2026-04-22T11:35:31Z</time></trkpt><trkpt lat="42.618974451947565" lon="12.402397417165833"><ele>463.0</ele><time>2026-04-22T11:35:32Z</time></trkpt><trkpt lat="42.61889739822551" lon="12.402498593047842"><ele>462.0</ele><time>2026-04-22T11:35:33Z</time></trkpt><trkpt lat="42.61880578543548" lon="12.402625290447634"><ele>461.0</ele><time>2026-04-22T11:35:34Z</time></trkpt><trkpt lat="42.61871307102204" lon="12.402760040097023"><ele>461.0</ele><time>2026-04-22T11:35:35Z</time></trkpt><trkpt lat="42.61865373900013" lon="12.402904077661034"><ele>461.0</ele><time>2026-04-22T11:35:36Z</time></trkpt><trkpt lat="42.61860962175369" lon="12.403022716637523"><ele>461.0</ele><time>2026-04-22T11:35:37Z</time></trkpt><trkpt lat="42.618604476336444" lon="12.403151119923056"><ele>461.0</ele><time>2026-04-22T11:35:38Z</time></trkpt><trkpt lat="42.61865577888201" lon="12.403314183356402"><ele>461.0</ele><time>2026-04-22T11:35:39Z</time></trkpt><trkpt lat="42.618689697534755" lon="12.40342739130542"><ele>459.8333333333333</ele><time>2026-04-22T11:35:40Z</time></trkpt><trkpt lat="42.61873693554058" lon="12.403544290873025"><ele>458.66666666666663</ele><time>2026-04-22T11:35:41Z</time></trkpt><trkpt lat="42.618770634778855" lon="12.403644527632787"><ele>457.5</ele><time>2026-04-22T11:35:42Z</time></trkpt><trkpt lat="42.618771001272215" lon="12.403745358582306"><ele>456.33333333333337</ele><time>2026-04-22T11:35:43Z</time></trkpt><trkpt lat="42.618706162645275" lon="12.403816767223024"><ele>455.1666666666667</ele><time>2026-04-22T11:35:44Z</time></trkpt><trkpt lat="42.618639351413755" lon="12.403867240532369"><ele>454.0</ele><time>2026-04-22T11:35:45Z</time></trkpt><trkpt lat="42.61854235458659" lon="12.403895220182187"><ele>452.2</ele><time>2026-04-22T11:35:46Z</time></trkpt><trkpt lat="42.61845611539356" lon="12.403937727250929"><ele>450.4</ele><time>2026-04-22T11:35:47Z</time></trkpt><trkpt lat="42.618356744766444" lon="12.404005289697254"><ele>448.6</ele><time>2026-04-22T11:35:48Z</time></trkpt><trkpt lat="42.61828095754383" lon="12.404092486517952"><ele>446.8</ele><time>2026-04-22T11:35:49Z</time></trkpt><trkpt lat="42.61820224359842" lon="12.404176052218848"><ele>445.0</ele><time>2026-04-22T11:35:50Z</time></trkpt><trkpt lat="42.6180658960584" lon="12.404329721750525"><ele>445.00000000000006</ele><time>2026-04-22T11:35:52Z</time></trkpt><trkpt lat="42.61799516119617" lon="12.404424424581185"><ele>445.0</ele><time>2026-04-22T11:35:53Z</time></trkpt><trkpt lat="42.61792180101818" lon="12.404532338869231"><ele>445.0</ele><time>2026-04-22T11:35:54Z</time></trkpt><trkpt lat="42.617869082841914" lon="12.404614516934208"><ele>445.0</ele><time>2026-04-22T11:35:55Z</time></trkpt><trkpt lat="42.6178090599164" lon="12.404706488355048"><ele>445.00000000000006</ele><time>2026-04-22T11:35:56Z</time></trkpt><trkpt lat="42.617761900072196" lon="12.404777927396962"><ele>445.0</ele><time>2026-04-22T11:35:57Z</time></trkpt><trkpt lat="42.61771850177381" lon="12.40485973875286"><ele>444.8</ele><time>2026-04-22T11:35:58Z</time></trkpt><trkpt lat="42.61761603753007" lon="12.404877702115282"><ele>444.6</ele><time>2026-04-22T11:36:00Z</time></trkpt><trkpt lat="42.617542189837344" lon="12.404857931911934"><ele>444.4</ele><time>2026-04-22T11:36:02Z</time></trkpt><trkpt lat="42.61746215455312" lon="12.404799067586069"><ele>444.2</ele><time>2026-04-22T11:36:04Z</time></trkpt><trkpt lat="42.61736545774221" lon="12.40470684160463"><ele>444.0</ele><time>2026-04-22T11:36:06Z</time></trkpt><trkpt lat="42.61730263870646" lon="12.40465639681679"><ele>444.0</ele><time>2026-04-22T11:36:07Z</time></trkpt><trkpt lat="42.61722012955291" lon="12.404626917067656"><ele>444.0</ele><time>2026-04-22T11:36:08Z</time></trkpt><trkpt lat="42.617102403890364" lon="12.404516572896803"><ele>444.0</ele><time>2026-04-22T11:36:09.999Z</time></trkpt><trkpt lat="42.61699546035224" lon="12.404491940227983"><ele>444.0</ele><time>2026-04-22T11:36:10.999Z</time></trkpt><trkpt lat="42.616910562721955" lon="12.404437530814729"><ele>444.0</ele><time>2026-04-22T11:36:11.999Z</time></trkpt><trkpt lat="42.61681956105344" lon="12.404397309202277"><ele>443.6666666666667</ele><time>2026-04-22T11:36:12.999Z</time></trkpt><trkpt lat="42.61674795613497" lon="12.404373314009852"><ele>443.33333333333337</ele><time>2026-04-22T11:36:13.999Z</time></trkpt><trkpt lat="42.61667447850198" lon="12.404406831643895"><ele>443.0</ele><time>2026-04-22T11:36:14.999Z</time></trkpt><trkpt lat="42.616634229087445" lon="12.40451182910728"><ele>442.6666666666667</ele><time>2026-04-22T11:36:15.999Z</time></trkpt><trkpt lat="42.616599749191884" lon="12.40460473175079"><ele>442.33333333333337</ele><time>2026-04-22T11:36:16.999Z</time></trkpt><trkpt lat="42.616636843911266" lon="12.404741785571439"><ele>442.0</ele><time>2026-04-22T11:36:17.999Z</time></trkpt><trkpt lat="42.61667644514501" lon="12.404893443656643"><ele>440.20000000000005</ele><time>2026-04-22T11:36:18.999Z</time></trkpt><trkpt lat="42.61669288616501" lon="12.405072891799623"><ele>438.40000000000003</ele><time>2026-04-22T11:36:19.999Z</time></trkpt><trkpt lat="42.616721005598" lon="12.405217381936751"><ele>436.59999999999997</ele><time>2026-04-22T11:36:20.999Z</time></trkpt><trkpt lat="42.61670999185943" lon="12.405335712499463"><ele>434.79999999999995</ele><time>2026-04-22T11:36:21.999Z</time></trkpt><trkpt lat="42.61667671748552" lon="12.405453642648254"><ele>433.0</ele><time>2026-04-22T11:36:22.999Z</time></trkpt><trkpt lat="42.616594888061364" lon="12.405501421108529"><ele>431.0</ele><time>2026-04-22T11:36:23.999Z</time></trkpt><trkpt lat="42.61652332350528" lon="12.405537196730695"><ele>428.99999999999994</ele><time>2026-04-22T11:36:24.999Z</time></trkpt><trkpt lat="42.61645524142413" lon="12.40555069837507"><ele>427.0</ele><time>2026-04-22T11:36:25.999Z</time></trkpt><trkpt lat="42.61639718493297" lon="12.405592406325319"><ele>425.0</ele><time>2026-04-22T11:36:26.999Z</time></trkpt><trkpt lat="42.6162586275274" lon="12.405728215214545"><ele>423.0</ele><time>2026-04-22T11:36:28.999Z</time></trkpt><trkpt lat="42.616185117737935" lon="12.405859273541003"><ele>424.0</ele><time>2026-04-22T11:36:29.999Z</time></trkpt><trkpt lat="42.616150126483696" lon="12.40597376087948"><ele>425.0</ele><time>2026-04-22T11:36:30.999Z</time></trkpt><trkpt lat="42.616085893982664" lon="12.406116589098756"><ele>426.0</ele><time>2026-04-22T11:36:31.999Z</time></trkpt><trkpt lat="42.61602255198367" lon="12.4062692134308"><ele>427.0</ele><time>2026-04-22T11:36:32.999Z</time></trkpt><trkpt lat="42.61596117419358" lon="12.406412290319128"><ele>427.0</ele><time>2026-04-22T11:36:33.999Z</time></trkpt><trkpt lat="42.61590515676295" lon="12.406539366538345"><ele>427.0</ele><time>2026-04-22T11:36:34.999Z</time></trkpt><trkpt lat="42.615846950028164" lon="12.406664587982046"><ele>427.0</ele><time>2026-04-22T11:36:35.999Z</time></trkpt><trkpt lat="42.61578896243839" lon="12.406799958269174"><ele>427.0</ele><time>2026-04-22T11:36:36.999Z</time></trkpt><trkpt lat="42.61575261135535" lon="12.406950588557457"><ele>427.0</ele><time>2026-04-22T11:36:38Z</time></trkpt><trkpt lat="42.615728259009046" lon="12.407098397556135"><ele>427.00000000000006</ele><time>2026-04-22T11:36:39Z</time></trkpt><trkpt lat="42.6157358617221" lon="12.407236956775533"><ele>427.00000000000006</ele><time>2026-04-22T11:36:40Z</time></trkpt><trkpt lat="42.61575960125189" lon="12.40737857751337"><ele>427.0</ele><time>2026-04-22T11:36:41Z</time></trkpt><trkpt lat="42.61578484101559" lon="12.407540807628559"><ele>427.0</ele><time>2026-04-22T11:36:42Z</time></trkpt><trkpt lat="42.615808027370534" lon="12.40771328312544"><ele>425.75</ele><time>2026-04-22T11:36:43Z</time></trkpt><trkpt lat="42.61582698088429" lon="12.407875401339162"><ele>424.5</ele><time>2026-04-22T11:36:44Z</time></trkpt><trkpt lat="42.615826965943754" lon="12.408031784230454"><ele>423.25</ele><time>2026-04-22T11:36:45Z</time></trkpt><trkpt lat="42.61579830968578" lon="12.408179533906331"><ele>422.0</ele><time>2026-04-22T11:36:46Z</time></trkpt><trkpt lat="42.615726429253314" lon="12.408290297333822"><ele>420.6</ele><time>2026-04-22T11:36:47Z</time></trkpt><trkpt lat="42.61565337522158" lon="12.408399768446742"><ele>419.20000000000005</ele><time>2026-04-22T11:36:48Z</time></trkpt><trkpt lat="42.61558567117435" lon="12.408524559395943"><ele>417.8</ele><time>2026-04-22T11:36:49Z</time></trkpt><trkpt lat="42.61552548374893" lon="12.408620648712526"><ele>416.4</ele><time>2026-04-22T11:36:50Z</time></trkpt><trkpt lat="42.61550523674557" lon="12.408770842444676"><ele>415.0</ele><time>2026-04-22T11:36:51Z</time></trkpt><trkpt lat="42.61553332024228" lon="12.408912046643554"><ele>414.6</ele><time>2026-04-22T11:36:52Z</time></trkpt><trkpt lat="42.61557487716683" lon="12.409016157981396"><ele>414.2</ele><time>2026-04-22T11:36:53Z</time></trkpt><trkpt lat="42.615636048668144" lon="12.409132235905954"><ele>413.79999999999995</ele><time>2026-04-22T11:36:54Z</time></trkpt><trkpt lat="42.61573931640156" lon="12.409194550256826"><ele>413.4</ele><time>2026-04-22T11:36:55Z</time></trkpt><trkpt lat="42.615829345283785" lon="12.409252329616304"><ele>413.0</ele><time>2026-04-22T11:36:56Z</time></trkpt><trkpt lat="42.61594021342072" lon="12.409280123681992"><ele>413.0</ele><time>2026-04-22T11:36:57Z</time></trkpt><trkpt lat="42.61605898139029" lon="12.409281498852463"><ele>413.0</ele><time>2026-04-22T11:36:58Z</time></trkpt><trkpt lat="42.61616725657731" lon="12.409251896644937"><ele>413.0</ele><time>2026-04-22T11:36:59Z</time></trkpt><trkpt lat="42.61625928916333" lon="12.409200333218976"><ele>413.0</ele><time>2026-04-22T11:37:00Z</time></trkpt><trkpt lat="42.61632641845897" lon="12.40912007675392"><ele>413.0</ele><time>2026-04-22T11:37:01Z</time></trkpt><trkpt lat="42.6163660227152" lon="12.409004988634956"><ele>407.75</ele><time>2026-04-22T11:37:02Z</time></trkpt><trkpt lat="42.616399474548324" lon="12.408873152481208"><ele>402.5</ele><time>2026-04-22T11:37:03Z</time></trkpt><trkpt lat="42.616406640871546" lon="12.40870542494561"><ele>397.25</ele><time>2026-04-22T11:37:04Z</time></trkpt><trkpt lat="42.61641972660958" lon="12.408514563933926"><ele>392.0</ele><time>2026-04-22T11:37:05Z</time></trkpt><trkpt lat="42.61645029416217" lon="12.408307412595292"><ele>392.0</ele><time>2026-04-22T11:37:06Z</time></trkpt><trkpt lat="42.61647323067879" lon="12.40809598384214"><ele>392.0</ele><time>2026-04-22T11:37:07Z</time></trkpt><trkpt lat="42.616473758718065" lon="12.407873911304746"><ele>392.0</ele><time>2026-04-22T11:37:08Z</time></trkpt><trkpt lat="42.61643597008614" lon="12.40765539721032"><ele>392.5</ele><time>2026-04-22T11:37:09Z</time></trkpt><trkpt lat="42.61643476246866" lon="12.407450705171254"><ele>393.0</ele><time>2026-04-22T11:37:10Z</time></trkpt><trkpt lat="42.61644087343976" lon="12.407258170547594"><ele>393.5</ele><time>2026-04-22T11:37:11Z</time></trkpt><trkpt lat="42.61647934175874" lon="12.407094311249931"><ele>394.0</ele><time>2026-04-22T11:37:12Z</time></trkpt><trkpt lat="42.616539651303526" lon="12.40697304450781"><ele>395.2</ele><time>2026-04-22T11:37:13Z</time></trkpt><trkpt lat="42.61662290495107" lon="12.406905787730908"><ele>396.4</ele><time>2026-04-22T11:37:14Z</time></trkpt><trkpt lat="42.616726144793255" lon="12.406876955851798"><ele>397.6</ele><time>2026-04-22T11:37:15Z</time></trkpt><trkpt lat="42.61683014309838" lon="12.406933838355346"><ele>398.8</ele><time>2026-04-22T11:37:16Z</time></trkpt><trkpt lat="42.61692959096643" lon="12.406991208686817"><ele>400.0</ele><time>2026-04-22T11:37:17Z</time></trkpt><trkpt lat="42.617003541922195" lon="12.407076785978187"><ele>397.8</ele><time>2026-04-22T11:37:18Z</time></trkpt><trkpt lat="42.617061724820104" lon="12.407210240411313"><ele>395.6</ele><time>2026-04-22T11:37:19Z</time></trkpt><trkpt lat="42.61708191454784" lon="12.40732321509245"><ele>393.4</ele><time>2026-04-22T11:37:20Z</time></trkpt><trkpt lat="42.61709474107558" lon="12.407460069891625"><ele>391.2</ele><time>2026-04-22T11:37:21Z</time></trkpt><trkpt lat="42.61710199145564" lon="12.40760975399208"><ele>389.0</ele><time>2026-04-22T11:37:22Z</time></trkpt><trkpt lat="42.617116140009266" lon="12.407781158446332"><ele>389.0</ele><time>2026-04-22T11:37:23Z</time></trkpt><trkpt lat="42.61712993050072" lon="12.407974547976435"><ele>389.0</ele><time>2026-04-22T11:37:24Z</time></trkpt><trkpt lat="42.61713992901809" lon="12.408134724764194"><ele>389.0</ele><time>2026-04-22T11:37:25Z</time></trkpt><trkpt lat="42.61714071945947" lon="12.408309019060777"><ele>389.0</ele><time>2026-04-22T11:37:26Z</time></trkpt><trkpt lat="42.617146222268524" lon="12.408466372556843"><ele>385.79999999999995</ele><time>2026-04-22T11:37:27Z</time></trkpt><trkpt lat="42.61715823958541" lon="12.408616406161613"><ele>382.59999999999997</ele><time>2026-04-22T11:37:28Z</time></trkpt><trkpt lat="42.61717311654046" lon="12.408767616227443"><ele>379.4</ele><time>2026-04-22T11:37:29Z</time></trkpt><trkpt lat="42.61716084711056" lon="12.40891318565326"><ele>376.2</ele><time>2026-04-22T11:37:30Z</time></trkpt><trkpt lat="42.61715442710828" lon="12.40906719811218"><ele>373.0</ele><time>2026-04-22T11:37:31Z</time></trkpt><trkpt lat="42.617159394897875" lon="12.409251203100869"><ele>369.66666666666663</ele><time>2026-04-22T11:37:32Z</time></trkpt><trkpt lat="42.617135485677736" lon="12.409445028706703"><ele>366.3333333333333</ele><time>2026-04-22T11:37:33Z</time></trkpt><trkpt lat="42.61711542682978" lon="12.40965429583617"><ele>363.0</ele><time>2026-04-22T11:37:34Z</time></trkpt><trkpt lat="42.617096892535976" lon="12.409882160319524"><ele>361.6666666666667</ele><time>2026-04-22T11:37:35Z</time></trkpt><trkpt lat="42.617074553069614" lon="12.410117218195166"><ele>360.33333333333337</ele><time>2026-04-22T11:37:36Z</time></trkpt><trkpt lat="42.61705805486441" lon="12.410363946897482"><ele>359.0</ele><time>2026-04-22T11:37:37Z</time></trkpt><trkpt lat="42.61703440773489" lon="12.410614735463586"><ele>358.33333333333337</ele><time>2026-04-22T11:37:38Z</time></trkpt><trkpt lat="42.61702038093586" lon="12.410874416488355"><ele>357.6666666666667</ele><time>2026-04-22T11:37:39Z</time></trkpt><trkpt lat="42.61701909109108" lon="12.411119017730094"><ele>357.0</ele><time>2026-04-22T11:37:40Z</time></trkpt><trkpt lat="42.61701319171455" lon="12.411411941919889"><ele>356.0</ele><time>2026-04-22T11:37:41Z</time></trkpt><trkpt lat="42.61701032644938" lon="12.411679126801024"><ele>355.0</ele><time>2026-04-22T11:37:42Z</time></trkpt><trkpt lat="42.61700870768527" lon="12.411924895383105"><ele>354.0</ele><time>2026-04-22T11:37:43Z</time></trkpt><trkpt lat="42.61700571256645" lon="12.412150960962142"><ele>354.25</ele><time>2026-04-22T11:37:44Z</time></trkpt><trkpt lat="42.61700547868607" lon="12.412360528869735"><ele>354.5</ele><time>2026-04-22T11:37:45Z</time></trkpt><trkpt lat="42.61700369671637" lon="12.41255413956655"><ele>354.75</ele><time>2026-04-22T11:37:46Z</time></trkpt><trkpt lat="42.61700405315064" lon="12.412735973931387"><ele>355.0</ele><time>2026-04-22T11:37:47Z</time></trkpt><trkpt lat="42.61702824927079" lon="12.412899836550784"><ele>355.75</ele><time>2026-04-22T11:37:48Z</time></trkpt><trkpt lat="42.617080111441325" lon="12.413052536014257"><ele>356.5</ele><time>2026-04-22T11:37:49Z</time></trkpt><trkpt lat="42.61716615566842" lon="12.413189286146372"><ele>357.25</ele><time>2026-04-22T11:37:50Z</time></trkpt><trkpt lat="42.61725973698111" lon="12.413323043720284"><ele>358.0</ele><time>2026-04-22T11:37:51Z</time></trkpt><trkpt lat="42.61736147165849" lon="12.413451808925995"><ele>358.0</ele><time>2026-04-22T11:37:52Z</time></trkpt><trkpt lat="42.61746705892948" lon="12.413583142739549"><ele>358.0</ele><time>2026-04-22T11:37:53Z</time></trkpt><trkpt lat="42.617574365552265" lon="12.413727779620654"><ele>358.0</ele><time>2026-04-22T11:37:54Z</time></trkpt><trkpt lat="42.617682678492606" lon="12.41387980621923"><ele>356.3333333333333</ele><time>2026-04-22T11:37:55Z</time></trkpt><trkpt lat="42.61779373561762" lon="12.414028962586313"><ele>354.6666666666667</ele><time>2026-04-22T11:37:56Z</time></trkpt><trkpt lat="42.617919149903194" lon="12.41418083799608"><ele>353.0</ele><time>2026-04-22T11:37:57Z</time></trkpt><trkpt lat="42.61800848847024" lon="12.414326492280733"><ele>352.75</ele><time>2026-04-22T11:37:58Z</time></trkpt><trkpt lat="42.61809730384694" lon="12.414482703923879"><ele>352.5</ele><time>2026-04-22T11:37:59Z</time></trkpt><trkpt lat="42.618173344300885" lon="12.414651519159502"><ele>352.25</ele><time>2026-04-22T11:38:00Z</time></trkpt><trkpt lat="42.618223151745106" lon="12.414850219989013"><ele>352.0</ele><time>2026-04-22T11:38:01Z</time></trkpt><trkpt lat="42.6182757652017" lon="12.415052692276895"><ele>350.0</ele><time>2026-04-22T11:38:02Z</time></trkpt><trkpt lat="42.61834399541583" lon="12.415251323809038"><ele>348.0</ele><time>2026-04-22T11:38:03Z</time></trkpt><trkpt lat="42.61839853793526" lon="12.415460244238968"><ele>346.0</ele><time>2026-04-22T11:38:04Z</time></trkpt><trkpt lat="42.618442009152396" lon="12.41568209636287"><ele>344.3333333333333</ele><time>2026-04-22T11:38:05Z</time></trkpt><trkpt lat="42.61849972743389" lon="12.41589633736917"><ele>342.6666666666667</ele><time>2026-04-22T11:38:06Z</time></trkpt><trkpt lat="42.61857509145413" lon="12.416130629833193"><ele>341.0</ele><time>2026-04-22T11:38:07Z</time></trkpt><trkpt lat="42.61863408727741" lon="12.416351889710544"><ele>339.33333333333337</ele><time>2026-04-22T11:38:08Z</time></trkpt><trkpt lat="42.618695412853164" lon="12.416568164654542"><ele>337.6666666666667</ele><time>2026-04-22T11:38:09Z</time></trkpt><trkpt lat="42.618747561629746" lon="12.416781833689708"><ele>336.0</ele><time>2026-04-22T11:38:10Z</time></trkpt><trkpt lat="42.618792067384504" lon="12.417000526836748"><ele>335.6666666666667</ele><time>2026-04-22T11:38:11Z</time></trkpt><trkpt lat="42.61882083461785" lon="12.41723489581548"><ele>335.33333333333337</ele><time>2026-04-22T11:38:12Z</time></trkpt><trkpt lat="42.6188302268465" lon="12.417474845685021"><ele>335.0</ele><time>2026-04-22T11:38:13Z</time></trkpt><trkpt lat="42.618823104547545" lon="12.417728186080115"><ele>333.6666666666667</ele><time>2026-04-22T11:38:14Z</time></trkpt><trkpt lat="42.61880188191693" lon="12.417994585938152"><ele>332.3333333333333</ele><time>2026-04-22T11:38:15Z</time></trkpt><trkpt lat="42.618779616579864" lon="12.418273880047515"><ele>331.0</ele><time>2026-04-22T11:38:16Z</time></trkpt><trkpt lat="42.618765258313694" lon="12.418542401307429"><ele>331.0</ele><time>2026-04-22T11:38:17Z</time></trkpt><trkpt lat="42.61875159632576" lon="12.418823367089463"><ele>331.0</ele><time>2026-04-22T11:38:18Z</time></trkpt><trkpt lat="42.6187326381905" lon="12.419105877281396"><ele>331.0</ele><time>2026-04-22T11:38:19Z</time></trkpt><trkpt lat="42.618711215875365" lon="12.419373223364962"><ele>331.0</ele><time>2026-04-22T11:38:20Z</time></trkpt><trkpt lat="42.618687371634394" lon="12.419615809173616"><ele>331.0</ele><time>2026-04-22T11:38:21Z</time></trkpt><trkpt lat="42.61862515644374" lon="12.41984072684075"><ele>331.0</ele><time>2026-04-22T11:38:22Z</time></trkpt><trkpt lat="42.61854996805356" lon="12.420081716060611"><ele>330.66666666666663</ele><time>2026-04-22T11:38:23Z</time></trkpt><trkpt lat="42.61846277322727" lon="12.420264801302576"><ele>330.3333333333333</ele><time>2026-04-22T11:38:24Z</time></trkpt><trkpt lat="42.618371517741984" lon="12.420496705399854"><ele>330.0</ele><time>2026-04-22T11:38:25Z</time></trkpt><trkpt lat="42.61827853661019" lon="12.420736797916046"><ele>329.3333333333333</ele><time>2026-04-22T11:38:26Z</time></trkpt><trkpt lat="42.61820383865654" lon="12.420968222869975"><ele>328.66666666666663</ele><time>2026-04-22T11:38:27Z</time></trkpt><trkpt lat="42.61810657138535" lon="12.421215163140504"><ele>328.0</ele><time>2026-04-22T11:38:28Z</time></trkpt><trkpt lat="42.618014628473794" lon="12.421422997690465"><ele>327.3333333333333</ele><time>2026-04-22T11:38:29Z</time></trkpt><trkpt lat="42.61791496688298" lon="12.421693807609781"><ele>326.6666666666667</ele><time>2026-04-22T11:38:30Z</time></trkpt><trkpt lat="42.6178096766107" lon="12.421935688907139"><ele>326.0</ele><time>2026-04-22T11:38:31Z</time></trkpt><trkpt lat="42.61772271411358" lon="12.422212510921373"><ele>324.33333333333337</ele><time>2026-04-22T11:38:32Z</time></trkpt><trkpt lat="42.61764628466968" lon="12.422492260553613"><ele>322.6666666666667</ele><time>2026-04-22T11:38:32.999Z</time></trkpt><trkpt lat="42.617579451636345" lon="12.422786114794157"><ele>321.0</ele><time>2026-04-22T11:38:33.999Z</time></trkpt><trkpt lat="42.61750466613737" lon="12.42307792318643"><ele>320.0</ele><time>2026-04-22T11:38:34.999Z</time></trkpt><trkpt lat="42.61743651036742" lon="12.423378174616495"><ele>319.0</ele><time>2026-04-22T11:38:35.999Z</time></trkpt><trkpt lat="42.617364757445664" lon="12.42367867570868"><ele>319.0</ele><time>2026-04-22T11:38:36.999Z</time></trkpt><trkpt lat="42.61729246187732" lon="12.42398606801485"><ele>319.0</ele><time>2026-04-22T11:38:37.999Z</time></trkpt><trkpt lat="42.617220318576244" lon="12.424297497717628"><ele>319.0</ele><time>2026-04-22T11:38:38.999Z</time></trkpt><trkpt lat="42.61715048326142" lon="12.42460740308877"><ele>319.0</ele><time>2026-04-22T11:38:39.999Z</time></trkpt><trkpt lat="42.617084840052016" lon="12.424901709193405"><ele>319.0</ele><time>2026-04-22T11:38:40.999Z</time></trkpt><trkpt lat="42.61702426629063" lon="12.42516791467827"><ele>319.0</ele><time>2026-04-22T11:38:41.999Z</time></trkpt><trkpt lat="42.616967291078154" lon="12.42540876638627"><ele>319.0</ele><time>2026-04-22T11:38:42.999Z</time></trkpt><trkpt lat="42.61692673197216" lon="12.42561759322735"><ele>319.25</ele><time>2026-04-22T11:38:44Z</time></trkpt><trkpt lat="42.61691363006288" lon="12.425803675143827"><ele>319.5</ele><time>2026-04-22T11:38:45Z</time></trkpt><trkpt lat="42.61692863058963" lon="12.425968310386743"><ele>319.75</ele><time>2026-04-22T11:38:46Z</time></trkpt><trkpt lat="42.61697074749859" lon="12.426068423826555"><ele>320.0</ele><time>2026-04-22T11:38:47Z</time></trkpt><trkpt lat="42.61706763606886" lon="12.426173140973747"><ele>320.0</ele><time>2026-04-22T11:38:48Z</time></trkpt><trkpt lat="42.61717333832583" lon="12.426243255066531"><ele>320.0</ele><time>2026-04-22T11:38:49Z</time></trkpt><trkpt lat="42.61731445325796" lon="12.42635245249835"><ele>320.0</ele><time>2026-04-22T11:38:50Z</time></trkpt><trkpt lat="42.61747698137582" lon="12.426425237982567"><ele>319.6666666666667</ele><time>2026-04-22T11:38:51Z</time></trkpt><trkpt lat="42.61763390917012" lon="12.426508440315217"><ele>319.3333333333333</ele><time>2026-04-22T11:38:52Z</time></trkpt><trkpt lat="42.61777428947436" lon="12.426590805401139"><ele>319.0</ele><time>2026-04-22T11:38:53Z</time></trkpt><trkpt lat="42.61790033696533" lon="12.42667911639994"><ele>319.0</ele><time>2026-04-22T11:38:54Z</time></trkpt><trkpt lat="42.61799063666801" lon="12.426784721898443"><ele>319.0</ele><time>2026-04-22T11:38:55Z</time></trkpt><trkpt lat="42.61807313955702" lon="12.426875236150202"><ele>319.0</ele><time>2026-04-22T11:38:56Z</time></trkpt><trkpt lat="42.61814012550036" lon="12.426987864695628"><ele>319.0</ele><time>2026-04-22T11:38:57Z</time></trkpt><trkpt lat="42.61819942539191" lon="12.427057012010517"><ele>319.0</ele><time>2026-04-22T11:39:00Z</time></trkpt><trkpt lat="42.61832690036606" lon="12.426970223592981"><ele>319.0</ele><time>2026-04-22T11:39:02Z</time></trkpt><trkpt lat="42.61840271793044" lon="12.426881994026877"><ele>319.0</ele><time>2026-04-22T11:39:03Z</time></trkpt><trkpt lat="42.61848346687621" lon="12.426782415558987"><ele>319.0</ele><time>2026-04-22T11:39:04Z</time></trkpt><trkpt lat="42.618583240456594" lon="12.426669627395576"><ele>319.0</ele><time>2026-04-22T11:39:05Z</time></trkpt><trkpt lat="42.61868834523521" lon="12.426557850428182"><ele>319.0</ele><time>2026-04-22T11:39:06Z</time></trkpt><trkpt lat="42.61879736585367" lon="12.426439855871294"><ele>319.0</ele><time>2026-04-22T11:39:07Z</time></trkpt><trkpt lat="42.61891791362064" lon="12.426320804506537"><ele>319.0</ele><time>2026-04-22T11:39:08Z</time></trkpt><trkpt lat="42.619050074134655" lon="12.426194243890132"><ele>318.66666666666663</ele><time>2026-04-22T11:39:09Z</time></trkpt><trkpt lat="42.61917591643599" lon="12.426063747445136"><ele>318.3333333333333</ele><time>2026-04-22T11:39:10Z</time></trkpt><trkpt lat="42.61931574337812" lon="12.425928311626285"><ele>318.0</ele><time>2026-04-22T11:39:11Z</time></trkpt><trkpt lat="42.61944328303089" lon="12.425793635378348"><ele>318.3333333333333</ele><time>2026-04-22T11:39:12Z</time></trkpt><trkpt lat="42.61958065656602" lon="12.425653202871588"><ele>318.66666666666663</ele><time>2026-04-22T11:39:13Z</time></trkpt><trkpt lat="42.61971520282852" lon="12.425509826254295"><ele>319.0</ele><time>2026-04-22T11:39:14Z</time></trkpt><trkpt lat="42.61986034988318" lon="12.425361113293633"><ele>319.3333333333333</ele><time>2026-04-22T11:39:15Z</time></trkpt><trkpt lat="42.62000252350158" lon="12.425214232388972"><ele>319.6666666666667</ele><time>2026-04-22T11:39:16Z</time></trkpt><trkpt lat="42.62015096787151" lon="12.425061937983914"><ele>320.0</ele><time>2026-04-22T11:39:17Z</time></trkpt><trkpt lat="42.62029987819446" lon="12.424905657766876"><ele>320.0</ele><time>2026-04-22T11:39:18Z</time></trkpt><trkpt lat="42.62045195844812" lon="12.424748677713639"><ele>320.0</ele><time>2026-04-22T11:39:19Z</time></trkpt><trkpt lat="42.620605600593905" lon="12.424589156789404"><ele>320.0</ele><time>2026-04-22T11:39:20Z</time></trkpt><trkpt lat="42.62076265783039" lon="12.42443005069193"><ele>320.33333333333337</ele><time>2026-04-22T11:39:21Z</time></trkpt><trkpt lat="42.62091955503212" lon="12.424266131355298"><ele>320.6666666666667</ele><time>2026-04-22T11:39:22Z</time></trkpt><trkpt lat="42.62108722754189" lon="12.424088421482093"><ele>321.0</ele><time>2026-04-22T11:39:23Z</time></trkpt><trkpt lat="42.62125094884759" lon="12.423923130506015"><ele>321.3333333333333</ele><time>2026-04-22T11:39:24Z</time></trkpt><trkpt lat="42.62142061969185" lon="12.423748379675601"><ele>321.66666666666663</ele><time>2026-04-22T11:39:25Z</time></trkpt><trkpt lat="42.621593288104265" lon="12.423574604189916"><ele>322.0</ele><time>2026-04-22T11:39:26Z</time></trkpt><trkpt lat="42.621758003877446" lon="12.423402902660952"><ele>322.0</ele><time>2026-04-22T11:39:27Z</time></trkpt><trkpt lat="42.62191625713291" lon="12.42322797081308"><ele>322.0</ele><time>2026-04-22T11:39:28Z</time></trkpt><trkpt lat="42.62207147008311" lon="12.42303084455602"><ele>322.0</ele><time>2026-04-22T11:39:29Z</time></trkpt><trkpt lat="42.62221974916819" lon="12.422819945522642"><ele>322.0</ele><time>2026-04-22T11:39:30Z</time></trkpt><trkpt lat="42.62237822318864" lon="12.422613141104284"><ele>322.0</ele><time>2026-04-22T11:39:31Z</time></trkpt><trkpt lat="42.62247407476995" lon="12.422427197987686"><ele>322.0</ele><time>2026-04-22T11:39:32Z</time></trkpt><trkpt lat="42.62258880688607" lon="12.42225284102857"><ele>321.66666666666663</ele><time>2026-04-22T11:39:33Z</time></trkpt><trkpt lat="42.62270459977656" lon="12.422077637189933"><ele>321.3333333333333</ele><time>2026-04-22T11:39:34Z</time></trkpt><trkpt lat="42.62281200084227" lon="12.421895586861355"><ele>321.0</ele><time>2026-04-22T11:39:35Z</time></trkpt><trkpt lat="42.622920161151676" lon="12.421726253587508"><ele>321.0</ele><time>2026-04-22T11:39:36Z</time></trkpt><trkpt lat="42.6230208035574" lon="12.421565695943162"><ele>321.0</ele><time>2026-04-22T11:39:37Z</time></trkpt><trkpt lat="42.6231211892397" lon="12.421411361621416"><ele>321.0</ele><time>2026-04-22T11:39:38Z</time></trkpt><trkpt lat="42.6232193321875" lon="12.42125153389545"><ele>320.5</ele><time>2026-04-22T11:39:39Z</time></trkpt><trkpt lat="42.62342501056818" lon="12.420927096550939"><ele>320.0</ele><time>2026-04-22T11:39:41Z</time></trkpt><trkpt lat="42.623534643979056" lon="12.4207606390152"><ele>320.0</ele><time>2026-04-22T11:39:42Z</time></trkpt><trkpt lat="42.62364307582528" lon="12.420590342156967"><ele>320.0</ele><time>2026-04-22T11:39:43Z</time></trkpt><trkpt lat="42.623755319766566" lon="12.420405452902076"><ele>320.0</ele><time>2026-04-22T11:39:44Z</time></trkpt><trkpt lat="42.62387328803264" lon="12.42021778716868"><ele>320.33333333333337</ele><time>2026-04-22T11:39:45Z</time></trkpt><trkpt lat="42.62398306497638" lon="12.42004128317575"><ele>320.6666666666667</ele><time>2026-04-22T11:39:46Z</time></trkpt><trkpt lat="42.62407856513342" lon="12.419893221101642"><ele>321.0</ele><time>2026-04-22T11:39:47Z</time></trkpt><trkpt lat="42.62423399849392" lon="12.419691617045896"><ele>321.0</ele><time>2026-04-22T11:39:49Z</time></trkpt><trkpt lat="42.6242835851062" lon="12.41957999422169"><ele>321.0</ele><time>2026-04-22T11:39:51Z</time></trkpt><trkpt lat="42.62424125983784" lon="12.419647049257648"><ele>321.0</ele><time>2026-04-22T11:39:54Z</time></trkpt><trkpt lat="42.6240271012498" lon="12.419687125872999"><ele>321.0</ele><time>2026-04-22T11:39:55Z</time></trkpt><trkpt lat="42.624066084996585" lon="12.419782854328364"><ele>321.0</ele><time>2026-04-22T11:39:57Z</time></trkpt><trkpt lat="42.6240175395269" lon="12.41986495366774"><ele>321.0</ele><time>2026-04-22T11:39:59Z</time></trkpt><trkpt lat="42.6239856021816" lon="12.419955345587143"><ele>321.0</ele><time>2026-04-22T11:40:02Z</time></trkpt><trkpt lat="42.62403130859282" lon="12.420084811406657"><ele>321.0</ele><time>2026-04-22T11:40:05Z</time></trkpt><trkpt lat="42.62404634146613" lon="12.420170895634852"><ele>321.0</ele><time>2026-04-22T11:40:06Z</time></trkpt><trkpt lat="42.62408480541486" lon="12.420277191607566"><ele>321.0</ele><time>2026-04-22T11:40:07Z</time></trkpt><trkpt lat="42.624117886382706" lon="12.4204283264059"><ele>321.0</ele><time>2026-04-22T11:40:08Z</time></trkpt><trkpt lat="42.62414315984859" lon="12.42059749317838"><ele>321.0</ele><time>2026-04-22T11:40:09Z</time></trkpt><trkpt lat="42.62416370357004" lon="12.420782353485071"><ele>321.0</ele><time>2026-04-22T11:40:10Z</time></trkpt><trkpt lat="42.62419309930015" lon="12.420981710036852"><ele>321.0</ele><time>2026-04-22T11:40:11Z</time></trkpt><trkpt lat="42.624226019464416" lon="12.421181247154152"><ele>321.0</ele><time>2026-04-22T11:40:12Z</time></trkpt><trkpt lat="42.624257752709376" lon="12.421381213516781"><ele>321.0</ele><time>2026-04-22T11:40:13Z</time></trkpt><trkpt lat="42.624287315514565" lon="12.421577621685419"><ele>321.0</ele><time>2026-04-22T11:40:14Z</time></trkpt><trkpt lat="42.62431189931844" lon="12.421763843084184"><ele>321.0</ele><time>2026-04-22T11:40:15Z</time></trkpt><trkpt lat="42.62433737328139" lon="12.421948335620383"><ele>321.0</ele><time>2026-04-22T11:40:16Z</time></trkpt><trkpt lat="42.6243305933953" lon="12.422144709668977"><ele>321.0</ele><time>2026-04-22T11:40:17Z</time></trkpt><trkpt lat="42.624334335348486" lon="12.42234604645685"><ele>321.0</ele><time>2026-04-22T11:40:18Z</time></trkpt><trkpt lat="42.624331609979166" lon="12.422553008522565"><ele>321.0</ele><time>2026-04-22T11:40:19Z</time></trkpt><trkpt lat="42.62432609315725" lon="12.422762302993961"><ele>321.25</ele><time>2026-04-22T11:40:20Z</time></trkpt><trkpt lat="42.62433436785283" lon="12.422967425747746"><ele>321.5</ele><time>2026-04-22T11:40:21Z</time></trkpt><trkpt lat="42.6243216443905" lon="12.423168347654219"><ele>321.75</ele><time>2026-04-22T11:40:22Z</time></trkpt><trkpt lat="42.62431497004326" lon="12.423367214888719"><ele>322.0</ele><time>2026-04-22T11:40:23Z</time></trkpt><trkpt lat="42.62429948748441" lon="12.423567751465955"><ele>322.3333333333333</ele><time>2026-04-22T11:40:24Z</time></trkpt><trkpt lat="42.62426866670358" lon="12.42376388554412"><ele>322.6666666666667</ele><time>2026-04-22T11:40:25Z</time></trkpt><trkpt lat="42.624227196957605" lon="12.423960583189778"><ele>323.0</ele><time>2026-04-22T11:40:26Z</time></trkpt><trkpt lat="42.62418384569353" lon="12.424159121706571"><ele>324.0</ele><time>2026-04-22T11:40:27Z</time></trkpt><trkpt lat="42.62413059373181" lon="12.42436100334934"><ele>325.0</ele><time>2026-04-22T11:40:28Z</time></trkpt><trkpt lat="42.6240628510556" lon="12.424555156424706"><ele>326.0</ele><time>2026-04-22T11:40:29Z</time></trkpt><trkpt lat="42.62399640497624" lon="12.424758748293444"><ele>326.75</ele><time>2026-04-22T11:40:30Z</time></trkpt><trkpt lat="42.62394714946761" lon="12.424962123754286"><ele>327.5</ele><time>2026-04-22T11:40:31Z</time></trkpt><trkpt lat="42.62388049987776" lon="12.425130422834448"><ele>328.25</ele><time>2026-04-22T11:40:32Z</time></trkpt><trkpt lat="42.62384077260503" lon="12.425269831863364"><ele>329.0</ele><time>2026-04-22T11:40:33Z</time></trkpt><trkpt lat="42.62380373174894" lon="12.425403407452963"><ele>328.5</ele><time>2026-04-22T11:40:34Z</time></trkpt><trkpt lat="42.62375948328023" lon="12.425552470038957"><ele>328.0</ele><time>2026-04-22T11:40:35Z</time></trkpt><trkpt lat="42.62375066819395" lon="12.425734314738378"><ele>327.5</ele><time>2026-04-22T11:40:36Z</time></trkpt><trkpt lat="42.623722060685786" lon="12.425929199772378"><ele>327.0</ele><time>2026-04-22T11:40:37Z</time></trkpt><trkpt lat="42.623701627600035" lon="12.426134039584753"><ele>326.6666666666667</ele><time>2026-04-22T11:40:38Z</time></trkpt><trkpt lat="42.62368246191838" lon="12.426358768690488"><ele>326.33333333333337</ele><time>2026-04-22T11:40:39Z</time></trkpt><trkpt lat="42.623662599094644" lon="12.426582380426003"><ele>326.0</ele><time>2026-04-22T11:40:40Z</time></trkpt><trkpt lat="42.6236385388055" lon="12.426802606300404"><ele>326.0</ele><time>2026-04-22T11:40:41Z</time></trkpt><trkpt lat="42.62360632057057" lon="12.426990233978856"><ele>326.0</ele><time>2026-04-22T11:40:42Z</time></trkpt><trkpt lat="42.62352875583262" lon="12.427166398508911"><ele>326.0</ele><time>2026-04-22T11:40:43Z</time></trkpt><trkpt lat="42.623450177589845" lon="12.427345869101089"><ele>326.0</ele><time>2026-04-22T11:40:44Z</time></trkpt><trkpt lat="42.62336446619409" lon="12.427527934385814"><ele>326.0</ele><time>2026-04-22T11:40:45Z</time></trkpt><trkpt lat="42.623271103649955" lon="12.427723270580886"><ele>326.0</ele><time>2026-04-22T11:40:46Z</time></trkpt><trkpt lat="42.62317834078718" lon="12.427917352102725"><ele>326.0</ele><time>2026-04-22T11:40:47Z</time></trkpt><trkpt lat="42.62308025149765" lon="12.428124710000455"><ele>326.0</ele><time>2026-04-22T11:40:48Z</time></trkpt><trkpt lat="42.62298949579194" lon="12.428344094157293"><ele>326.0</ele><time>2026-04-22T11:40:49Z</time></trkpt><trkpt lat="42.62289016224227" lon="12.428557349298387"><ele>326.0</ele><time>2026-04-22T11:40:50Z</time></trkpt><trkpt lat="42.62281699903461" lon="12.428793095162769"><ele>325.33333333333337</ele><time>2026-04-22T11:40:51Z</time></trkpt><trkpt lat="42.62274394900957" lon="12.429018869910408"><ele>324.6666666666667</ele><time>2026-04-22T11:40:52Z</time></trkpt><trkpt lat="42.62269973634283" lon="12.429240001679164"><ele>324.0</ele><time>2026-04-22T11:40:53Z</time></trkpt><trkpt lat="42.62267541722985" lon="12.429500094841977"><ele>324.6666666666667</ele><time>2026-04-22T11:40:54Z</time></trkpt><trkpt lat="42.62264882023137" lon="12.429728386048033"><ele>325.33333333333337</ele><time>2026-04-22T11:40:55Z</time></trkpt><trkpt lat="42.62263702215623" lon="12.429947896328212"><ele>326.0</ele><time>2026-04-22T11:40:56Z</time></trkpt><trkpt lat="42.6226311089983" lon="12.43018321188195"><ele>326.0</ele><time>2026-04-22T11:40:57Z</time></trkpt><trkpt lat="42.62261499914431" lon="12.43041600615498"><ele>326.0</ele><time>2026-04-22T11:40:58Z</time></trkpt><trkpt lat="42.62260668989586" lon="12.430643947587813"><ele>326.0</ele><time>2026-04-22T11:40:59Z</time></trkpt><trkpt lat="42.62258974852514" lon="12.430884236756514"><ele>326.33333333333337</ele><time>2026-04-22T11:41:00Z</time></trkpt><trkpt lat="42.622578466354156" lon="12.431126418942027"><ele>326.6666666666667</ele><time>2026-04-22T11:41:01Z</time></trkpt><trkpt lat="42.62253937708601" lon="12.431366835636917"><ele>327.0</ele><time>2026-04-22T11:41:02Z</time></trkpt><trkpt lat="42.62250612298147" lon="12.431614061182355"><ele>327.0</ele><time>2026-04-22T11:41:03Z</time></trkpt><trkpt lat="42.622470166730466" lon="12.431853896521451"><ele>327.0</ele><time>2026-04-22T11:41:04Z</time></trkpt><trkpt lat="42.62243365036255" lon="12.432084529878379"><ele>327.0</ele><time>2026-04-22T11:41:05Z</time></trkpt><trkpt lat="42.62238991496508" lon="12.432348938734416"><ele>327.0</ele><time>2026-04-22T11:41:06Z</time></trkpt><trkpt lat="42.622346860765575" lon="12.432601363883117"><ele>327.0</ele><time>2026-04-22T11:41:07Z</time></trkpt><trkpt lat="42.622303032966386" lon="12.432856649060884"><ele>327.0</ele><time>2026-04-22T11:41:08Z</time></trkpt><trkpt lat="42.62226084903671" lon="12.433113264635287"><ele>327.0</ele><time>2026-04-22T11:41:09Z</time></trkpt><trkpt lat="42.622222069341746" lon="12.433379481191476"><ele>327.0</ele><time>2026-04-22T11:41:10Z</time></trkpt><trkpt lat="42.622188534034095" lon="12.43364717101611"><ele>327.0</ele><time>2026-04-22T11:41:11Z</time></trkpt><trkpt lat="42.62216548504591" lon="12.433918439588219"><ele>327.0</ele><time>2026-04-22T11:41:12Z</time></trkpt><trkpt lat="42.62217880700219" lon="12.434184298939755"><ele>327.0</ele><time>2026-04-22T11:41:13Z</time></trkpt><trkpt lat="42.62218051038992" lon="12.434439927718898"><ele>327.0</ele><time>2026-04-22T11:41:14Z</time></trkpt><trkpt lat="42.62217219908489" lon="12.434681140384269"><ele>327.0</ele><time>2026-04-22T11:41:15Z</time></trkpt><trkpt lat="42.6221773519874" lon="12.434917518401685"><ele>327.0</ele><time>2026-04-22T11:41:16Z</time></trkpt><trkpt lat="42.62218432387617" lon="12.43515456261072"><ele>327.0</ele><time>2026-04-22T11:41:17Z</time></trkpt><trkpt lat="42.622207601033004" lon="12.435402645881526"><ele>326.3333333333333</ele><time>2026-04-22T11:41:18Z</time></trkpt><trkpt lat="42.62221360291169" lon="12.435654568678403"><ele>325.66666666666663</ele><time>2026-04-22T11:41:19Z</time></trkpt><trkpt lat="42.62221228508939" lon="12.435904621253503"><ele>325.0</ele><time>2026-04-22T11:41:20Z</time></trkpt><trkpt lat="42.6222250953653" lon="12.43617970154834"><ele>325.0</ele><time>2026-04-22T11:41:21Z</time></trkpt><trkpt lat="42.62223115814376" lon="12.436445014210562"><ele>325.0</ele><time>2026-04-22T11:41:22Z</time></trkpt><trkpt lat="42.62223639751123" lon="12.436722672924002"><ele>325.0</ele><time>2026-04-22T11:41:23Z</time></trkpt><trkpt lat="42.62224598620358" lon="12.437007602493567"><ele>324.66666666666663</ele><time>2026-04-22T11:41:24Z</time></trkpt><trkpt lat="42.6222751800192" lon="12.437286321933652"><ele>324.3333333333333</ele><time>2026-04-22T11:41:25Z</time></trkpt><trkpt lat="42.622282161208794" lon="12.437562424142268"><ele>324.0</ele><time>2026-04-22T11:41:26Z</time></trkpt><trkpt lat="42.622312019290035" lon="12.437837942438167"><ele>323.6666666666667</ele><time>2026-04-22T11:41:27Z</time></trkpt><trkpt lat="42.62233217599409" lon="12.438119977969713"><ele>323.33333333333337</ele><time>2026-04-22T11:41:28Z</time></trkpt><trkpt lat="42.622332157758336" lon="12.438403315020121"><ele>323.0</ele><time>2026-04-22T11:41:29Z</time></trkpt><trkpt lat="42.62234802020128" lon="12.438690099296467"><ele>322.6666666666667</ele><time>2026-04-22T11:41:30Z</time></trkpt><trkpt lat="42.62236584277251" lon="12.438980459139705"><ele>322.3333333333333</ele><time>2026-04-22T11:41:31Z</time></trkpt><trkpt lat="42.6223851897875" lon="12.439264931899348"><ele>322.0</ele><time>2026-04-22T11:41:32Z</time></trkpt><trkpt lat="42.62240350404372" lon="12.439551505770854"><ele>322.3333333333333</ele><time>2026-04-22T11:41:33Z</time></trkpt><trkpt lat="42.62241863400182" lon="12.43981361540906"><ele>322.6666666666667</ele><time>2026-04-22T11:41:34Z</time></trkpt><trkpt lat="42.62243599992985" lon="12.440107511307792"><ele>323.0</ele><time>2026-04-22T11:41:35Z</time></trkpt><trkpt lat="42.62245126205143" lon="12.440362796473835"><ele>324.33333333333337</ele><time>2026-04-22T11:41:36Z</time></trkpt><trkpt lat="42.62246631436397" lon="12.440603367237525"><ele>325.6666666666667</ele><time>2026-04-22T11:41:37Z</time></trkpt><trkpt lat="42.62248178821302" lon="12.440823268254867"><ele>327.0</ele><time>2026-04-22T11:41:38Z</time></trkpt><trkpt lat="42.62244861625793" lon="12.441002905642282"><ele>327.0</ele><time>2026-04-22T11:41:39Z</time></trkpt><trkpt lat="42.62239780142206" lon="12.441159045082966"><ele>327.0</ele><time>2026-04-22T11:41:40Z</time></trkpt><trkpt lat="42.62232720505807" lon="12.441302429229706"><ele>327.0</ele><time>2026-04-22T11:41:41Z</time></trkpt><trkpt lat="42.622235981954915" lon="12.441440246871224"><ele>327.0</ele><time>2026-04-22T11:41:42Z</time></trkpt><trkpt lat="42.622132014833134" lon="12.441584903644593"><ele>328.25</ele><time>2026-04-22T11:41:43Z</time></trkpt><trkpt lat="42.62202484931966" lon="12.44174758422771"><ele>329.5</ele><time>2026-04-22T11:41:44Z</time></trkpt><trkpt lat="42.6219364415967" lon="12.441902011973443"><ele>330.75</ele><time>2026-04-22T11:41:45Z</time></trkpt><trkpt lat="42.62186408503157" lon="12.442063782052832"><ele>332.0</ele><time>2026-04-22T11:41:46Z</time></trkpt><trkpt lat="42.62181553840977" lon="12.442228772404416"><ele>333.0</ele><time>2026-04-22T11:41:47Z</time></trkpt><trkpt lat="42.62178972147305" lon="12.44240955500691"><ele>334.0</ele><time>2026-04-22T11:41:48Z</time></trkpt><trkpt lat="42.62180429991219" lon="12.44259125058292"><ele>335.0</ele><time>2026-04-22T11:41:49Z</time></trkpt><trkpt lat="42.62182408007222" lon="12.442788829746423"><ele>336.0</ele><time>2026-04-22T11:41:50Z</time></trkpt><trkpt lat="42.62186307734204" lon="12.44298916914006"><ele>337.0</ele><time>2026-04-22T11:41:51Z</time></trkpt><trkpt lat="42.621913530157514" lon="12.443194815319623"><ele>338.0</ele><time>2026-04-22T11:41:52Z</time></trkpt><trkpt lat="42.62194969955467" lon="12.44341408920995"><ele>339.0</ele><time>2026-04-22T11:41:53Z</time></trkpt><trkpt lat="42.6220075934159" lon="12.443606970119752"><ele>341.5</ele><time>2026-04-22T11:41:54Z</time></trkpt><trkpt lat="42.62205249660312" lon="12.44377413251375"><ele>344.0</ele><time>2026-04-22T11:41:55Z</time></trkpt><trkpt lat="42.62211515912229" lon="12.44394643909628"><ele>346.5</ele><time>2026-04-22T11:41:56Z</time></trkpt><trkpt lat="42.622202875666794" lon="12.444129842830684"><ele>349.0</ele><time>2026-04-22T11:41:57Z</time></trkpt><trkpt lat="42.62230971301915" lon="12.444316418732624"><ele>349.0</ele><time>2026-04-22T11:41:58Z</time></trkpt><trkpt lat="42.622424229418826" lon="12.444501790379741"><ele>349.0</ele><time>2026-04-22T11:41:59Z</time></trkpt><trkpt lat="42.62254124970988" lon="12.444676315599242"><ele>349.0</ele><time>2026-04-22T11:42:00Z</time></trkpt><trkpt lat="42.62265956248141" lon="12.444867491671213"><ele>349.0</ele><time>2026-04-22T11:42:01Z</time></trkpt><trkpt lat="42.622754373109274" lon="12.445042912466432"><ele>349.0</ele><time>2026-04-22T11:42:02Z</time></trkpt><trkpt lat="42.62283454244958" lon="12.445247163273706"><ele>349.0</ele><time>2026-04-22T11:42:03Z</time></trkpt><trkpt lat="42.62287123934313" lon="12.44547046692038"><ele>349.0</ele><time>2026-04-22T11:42:04Z</time></trkpt><trkpt lat="42.622909297737564" lon="12.445700547717543"><ele>349.0</ele><time>2026-04-22T11:42:05Z</time></trkpt><trkpt lat="42.622940365391415" lon="12.445926377415084"><ele>349.0</ele><time>2026-04-22T11:42:06Z</time></trkpt><trkpt lat="42.622972994090105" lon="12.446156316238037"><ele>350.66666666666663</ele><time>2026-04-22T11:42:07Z</time></trkpt><trkpt lat="42.62300871809773" lon="12.446410155469763"><ele>352.3333333333333</ele><time>2026-04-22T11:42:08Z</time></trkpt><trkpt lat="42.623045169917155" lon="12.446615686549807"><ele>354.0</ele><time>2026-04-22T11:42:09Z</time></trkpt><trkpt lat="42.623078925536284" lon="12.446839614367736"><ele>354.0</ele><time>2026-04-22T11:42:10Z</time></trkpt><trkpt lat="42.62310494198289" lon="12.44705995003676"><ele>354.0</ele><time>2026-04-22T11:42:11Z</time></trkpt><trkpt lat="42.62313027804766" lon="12.447285744639423"><ele>354.0</ele><time>2026-04-22T11:42:12Z</time></trkpt><trkpt lat="42.62316076530773" lon="12.447511906040193"><ele>355.3333333333333</ele><time>2026-04-22T11:42:13Z</time></trkpt><trkpt lat="42.62319339171511" lon="12.447751692356045"><ele>356.66666666666663</ele><time>2026-04-22T11:42:14Z</time></trkpt><trkpt lat="42.623208710508166" lon="12.447997667104497"><ele>358.0</ele><time>2026-04-22T11:42:15Z</time></trkpt><trkpt lat="42.62325633013962" lon="12.448243467142591"><ele>358.66666666666663</ele><time>2026-04-22T11:42:16Z</time></trkpt><trkpt lat="42.62328737293115" lon="12.448496380435554"><ele>359.3333333333333</ele><time>2026-04-22T11:42:17Z</time></trkpt><trkpt lat="42.62332576582272" lon="12.448762422972603"><ele>360.0</ele><time>2026-04-22T11:42:18Z</time></trkpt><trkpt lat="42.62337000021866" lon="12.449014474016787"><ele>360.0</ele><time>2026-04-22T11:42:19Z</time></trkpt><trkpt lat="42.62340812331872" lon="12.44927733016227"><ele>360.0</ele><time>2026-04-22T11:42:20Z</time></trkpt><trkpt lat="42.623471211324535" lon="12.449522784683197"><ele>360.0</ele><time>2026-04-22T11:42:21Z</time></trkpt><trkpt lat="42.62356198381953" lon="12.449750180343333"><ele>359.6666666666667</ele><time>2026-04-22T11:42:22Z</time></trkpt><trkpt lat="42.623639147446774" lon="12.449979494271359"><ele>359.33333333333337</ele><time>2026-04-22T11:42:23Z</time></trkpt><trkpt lat="42.623726057150044" lon="12.450205510125445"><ele>359.0</ele><time>2026-04-22T11:42:24Z</time></trkpt><trkpt lat="42.62381423427894" lon="12.450424592016379"><ele>360.33333333333337</ele><time>2026-04-22T11:42:25Z</time></trkpt><trkpt lat="42.623897811992386" lon="12.450655694590598"><ele>361.6666666666667</ele><time>2026-04-22T11:42:26Z</time></trkpt><trkpt lat="42.6239826904106" lon="12.450870219371845"><ele>363.0</ele><time>2026-04-22T11:42:27Z</time></trkpt><trkpt lat="42.62407163034404" lon="12.451082766082816"><ele>363.0</ele><time>2026-04-22T11:42:28Z</time></trkpt><trkpt lat="42.62416297735823" lon="12.451279773765371"><ele>363.0</ele><time>2026-04-22T11:42:29Z</time></trkpt><trkpt lat="42.62427282667943" lon="12.451483946363023"><ele>363.0</ele><time>2026-04-22T11:42:30Z</time></trkpt><trkpt lat="42.62439127450346" lon="12.451655603394581"><ele>362.0</ele><time>2026-04-22T11:42:31Z</time></trkpt><trkpt lat="42.62452383518936" lon="12.451813966163888"><ele>361.0</ele><time>2026-04-22T11:42:32Z</time></trkpt><trkpt lat="42.62465783106656" lon="12.451952843813642"><ele>360.0</ele><time>2026-04-22T11:42:33Z</time></trkpt><trkpt lat="42.62478357461362" lon="12.45208965655123"><ele>361.0</ele><time>2026-04-22T11:42:34Z</time></trkpt><trkpt lat="42.62491093720888" lon="12.452231485473488"><ele>362.0</ele><time>2026-04-22T11:42:35Z</time></trkpt><trkpt lat="42.62503165752931" lon="12.45236123067647"><ele>363.0</ele><time>2026-04-22T11:42:36Z</time></trkpt><trkpt lat="42.625137340914705" lon="12.452485212495521"><ele>363.0</ele><time>2026-04-22T11:42:37Z</time></trkpt><trkpt lat="42.6252251379397" lon="12.452600007347652"><ele>363.0</ele><time>2026-04-22T11:42:38Z</time></trkpt><trkpt lat="42.625291510769586" lon="12.452717197115897"><ele>363.0</ele><time>2026-04-22T11:42:39Z</time></trkpt><trkpt lat="42.625350394243405" lon="12.452840268211935"><ele>363.0</ele><time>2026-04-22T11:42:40Z</time></trkpt><trkpt lat="42.625403960527095" lon="12.452980746703162"><ele>362.5</ele><time>2026-04-22T11:42:41Z</time></trkpt><trkpt lat="42.625463276390484" lon="12.453141956587862"><ele>362.0</ele><time>2026-04-22T11:42:42Z</time></trkpt><trkpt lat="42.62553300227922" lon="12.453306554599143"><ele>361.5</ele><time>2026-04-22T11:42:43Z</time></trkpt><trkpt lat="42.625612272947606" lon="12.453476424581794"><ele>361.0</ele><time>2026-04-22T11:42:44Z</time></trkpt><trkpt lat="42.62567826897235" lon="12.453632283765709"><ele>361.0</ele><time>2026-04-22T11:42:45Z</time></trkpt><trkpt lat="42.625733469488985" lon="12.453765066492794"><ele>361.0</ele><time>2026-04-22T11:42:46Z</time></trkpt><trkpt lat="42.625784691386876" lon="12.453881608277516"><ele>361.0</ele><time>2026-04-22T11:42:47Z</time></trkpt><trkpt lat="42.6258479397016" lon="12.454006179469614"><ele>361.0</ele><time>2026-04-22T11:42:47.999Z</time></trkpt><trkpt lat="42.625915414453424" lon="12.454141406898898"><ele>361.0</ele><time>2026-04-22T11:42:48.999Z</time></trkpt><trkpt lat="42.6259884512714" lon="12.45428237967843"><ele>361.25</ele><time>2026-04-22T11:42:49.999Z</time></trkpt><trkpt lat="42.62606564379184" lon="12.454428714861953"><ele>361.5</ele><time>2026-04-22T11:42:50.999Z</time></trkpt><trkpt lat="42.626147892167175" lon="12.454582292617184"><ele>361.75</ele><time>2026-04-22T11:42:51.999Z</time></trkpt><trkpt lat="42.626234155117984" lon="12.454743156943412"><ele>362.0</ele><time>2026-04-22T11:42:52.999Z</time></trkpt><trkpt lat="42.62632293102913" lon="12.454908273038688"><ele>362.6666666666667</ele><time>2026-04-22T11:42:53.999Z</time></trkpt><trkpt lat="42.626420676332565" lon="12.455086027671868"><ele>363.3333333333333</ele><time>2026-04-22T11:42:55Z</time></trkpt><trkpt lat="42.62652195266859" lon="12.455259688368816"><ele>364.0</ele><time>2026-04-22T11:42:56Z</time></trkpt><trkpt lat="42.62662239304014" lon="12.455451934214217"><ele>363.0</ele><time>2026-04-22T11:42:57Z</time></trkpt><trkpt lat="42.62672053320974" lon="12.455637790433466"><ele>362.0</ele><time>2026-04-22T11:42:58Z</time></trkpt><trkpt lat="42.62680823207206" lon="12.455832353381316"><ele>361.0</ele><time>2026-04-22T11:42:59Z</time></trkpt><trkpt lat="42.62689550322918" lon="12.456022889036998"><ele>361.3333333333333</ele><time>2026-04-22T11:43:00Z</time></trkpt><trkpt lat="42.62698844280901" lon="12.456231889654193"><ele>361.6666666666667</ele><time>2026-04-22T11:43:01Z</time></trkpt><trkpt lat="42.62707613177832" lon="12.456425144399866"><ele>362.0</ele><time>2026-04-22T11:43:02Z</time></trkpt><trkpt lat="42.62716296978972" lon="12.456616638549132"><ele>362.0</ele><time>2026-04-22T11:43:03Z</time></trkpt><trkpt lat="42.62725028562697" lon="12.456808741715365"><ele>362.0</ele><time>2026-04-22T11:43:04Z</time></trkpt><trkpt lat="42.62732893949909" lon="12.457008830381815"><ele>362.0</ele><time>2026-04-22T11:43:05Z</time></trkpt><trkpt lat="42.627395986809596" lon="12.457201096179165"><ele>361.0</ele><time>2026-04-22T11:43:06Z</time></trkpt><trkpt lat="42.627456591170244" lon="12.457393155096831"><ele>360.0</ele><time>2026-04-22T11:43:07Z</time></trkpt><trkpt lat="42.62751626888941" lon="12.457588705334341"><ele>359.0</ele><time>2026-04-22T11:43:08Z</time></trkpt><trkpt lat="42.62756359040328" lon="12.457799000384089"><ele>359.0</ele><time>2026-04-22T11:43:09Z</time></trkpt><trkpt lat="42.62758471780454" lon="12.458021132809444"><ele>359.0</ele><time>2026-04-22T11:43:10Z</time></trkpt><trkpt lat="42.6276204121113" lon="12.458253461012633"><ele>359.0</ele><time>2026-04-22T11:43:11Z</time></trkpt><trkpt lat="42.62765669490929" lon="12.45848961977715"><ele>359.0</ele><time>2026-04-22T11:43:12Z</time></trkpt><trkpt lat="42.62768925408518" lon="12.458714217183422"><ele>359.0</ele><time>2026-04-22T11:43:13Z</time></trkpt><trkpt lat="42.627732159727174" lon="12.458925709359537"><ele>359.0</ele><time>2026-04-22T11:43:14Z</time></trkpt><trkpt lat="42.62777098130886" lon="12.459140613508973"><ele>359.75</ele><time>2026-04-22T11:43:15Z</time></trkpt><trkpt lat="42.62782725526003" lon="12.459311154146521"><ele>360.5</ele><time>2026-04-22T11:43:16Z</time></trkpt><trkpt lat="42.627903165749125" lon="12.459480815644847"><ele>361.25</ele><time>2026-04-22T11:43:17Z</time></trkpt><trkpt lat="42.627992274988" lon="12.45966333062257"><ele>362.0</ele><time>2026-04-22T11:43:18Z</time></trkpt><trkpt lat="42.62808305394606" lon="12.459859233991603"><ele>362.0</ele><time>2026-04-22T11:43:19Z</time></trkpt><trkpt lat="42.6281725592051" lon="12.460059547624128"><ele>362.0</ele><time>2026-04-22T11:43:20Z</time></trkpt><trkpt lat="42.62825958739915" lon="12.460263098243205"><ele>362.0</ele><time>2026-04-22T11:43:21Z</time></trkpt><trkpt lat="42.62834754152893" lon="12.46046419896669"><ele>362.0</ele><time>2026-04-22T11:43:22Z</time></trkpt><trkpt lat="42.62843230010335" lon="12.46065247437077"><ele>362.0</ele><time>2026-04-22T11:43:23Z</time></trkpt><trkpt lat="42.62851635744784" lon="12.460825402038223"><ele>362.0</ele><time>2026-04-22T11:43:24Z</time></trkpt><trkpt lat="42.6285848318865" lon="12.461014634948318"><ele>362.0</ele><time>2026-04-22T11:43:25Z</time></trkpt><trkpt lat="42.62863510100045" lon="12.46120312061106"><ele>362.0</ele><time>2026-04-22T11:43:26Z</time></trkpt><trkpt lat="42.62872097612879" lon="12.461369997767221"><ele>362.0</ele><time>2026-04-22T11:43:27Z</time></trkpt><trkpt lat="42.62880534968324" lon="12.461528965975202"><ele>362.0</ele><time>2026-04-22T11:43:28Z</time></trkpt><trkpt lat="42.628903849830905" lon="12.461676354851933"><ele>363.6666666666667</ele><time>2026-04-22T11:43:29Z</time></trkpt><trkpt lat="42.629014994518265" lon="12.461810221036156"><ele>365.3333333333333</ele><time>2026-04-22T11:43:30Z</time></trkpt><trkpt lat="42.62913296098964" lon="12.4619494316425"><ele>367.0</ele><time>2026-04-22T11:43:31Z</time></trkpt><trkpt lat="42.62925981555783" lon="12.462077281434421"><ele>367.3333333333333</ele><time>2026-04-22T11:43:32Z</time></trkpt><trkpt lat="42.62938658232608" lon="12.462213731730829"><ele>367.6666666666667</ele><time>2026-04-22T11:43:33Z</time></trkpt><trkpt lat="42.62950151514524" lon="12.462369889696921"><ele>368.0</ele><time>2026-04-22T11:43:34Z</time></trkpt><trkpt lat="42.6295864504972" lon="12.462540508525258"><ele>368.6666666666667</ele><time>2026-04-22T11:43:35Z</time></trkpt><trkpt lat="42.62967560328787" lon="12.46272748956043"><ele>369.3333333333333</ele><time>2026-04-22T11:43:36Z</time></trkpt><trkpt lat="42.629775316504706" lon="12.462916306795258"><ele>370.0</ele><time>2026-04-22T11:43:37Z</time></trkpt><trkpt lat="42.62986101096719" lon="12.463107713143089"><ele>371.0</ele><time>2026-04-22T11:43:38Z</time></trkpt><trkpt lat="42.629946683062464" lon="12.46330142530378"><ele>372.0</ele><time>2026-04-22T11:43:39Z</time></trkpt><trkpt lat="42.63002887788017" lon="12.463488108912706"><ele>373.0</ele><time>2026-04-22T11:43:40Z</time></trkpt><trkpt lat="42.630113991774046" lon="12.463683739214499"><ele>372.3333333333333</ele><time>2026-04-22T11:43:41Z</time></trkpt><trkpt lat="42.63018826596264" lon="12.463881720028116"><ele>371.6666666666667</ele><time>2026-04-22T11:43:42Z</time></trkpt><trkpt lat="42.630255830769194" lon="12.46409798377028"><ele>371.0</ele><time>2026-04-22T11:43:43Z</time></trkpt><trkpt lat="42.63031546901603" lon="12.464310283463103"><ele>371.0</ele><time>2026-04-22T11:43:44Z</time></trkpt><trkpt lat="42.63037167842422" lon="12.464538684512963"><ele>371.0</ele><time>2026-04-22T11:43:45Z</time></trkpt><trkpt lat="42.63043117780076" lon="12.464754972427846"><ele>371.0</ele><time>2026-04-22T11:43:46Z</time></trkpt><trkpt lat="42.63049324456829" lon="12.464973292200515"><ele>371.33333333333337</ele><time>2026-04-22T11:43:47Z</time></trkpt><trkpt lat="42.630556869345604" lon="12.465187121248327"><ele>371.6666666666667</ele><time>2026-04-22T11:43:48Z</time></trkpt><trkpt lat="42.63061941534559" lon="12.46539632034341"><ele>372.0</ele><time>2026-04-22T11:43:49Z</time></trkpt><trkpt lat="42.630684560281146" lon="12.465615774291944"><ele>372.0</ele><time>2026-04-22T11:43:50Z</time></trkpt><trkpt lat="42.63076239054201" lon="12.465825458443794"><ele>372.0</ele><time>2026-04-22T11:43:51Z</time></trkpt><trkpt lat="42.63085068185325" lon="12.466028078116455"><ele>372.0</ele><time>2026-04-22T11:43:52Z</time></trkpt><trkpt lat="42.6309436101145" lon="12.466239242118855"><ele>371.3333333333333</ele><time>2026-04-22T11:43:53Z</time></trkpt><trkpt lat="42.631034881831425" lon="12.466452649934995"><ele>370.66666666666663</ele><time>2026-04-22T11:43:54Z</time></trkpt><trkpt lat="42.631122493154884" lon="12.46666390247047"><ele>370.0</ele><time>2026-04-22T11:43:55Z</time></trkpt><trkpt lat="42.631201958837245" lon="12.466853675412546"><ele>370.0</ele><time>2026-04-22T11:43:56Z</time></trkpt><trkpt lat="42.63127990510633" lon="12.467076872376506"><ele>370.0</ele><time>2026-04-22T11:43:57Z</time></trkpt><trkpt lat="42.63134816023303" lon="12.467288000599314"><ele>370.0</ele><time>2026-04-22T11:43:58Z</time></trkpt><trkpt lat="42.63141203682337" lon="12.467493759699579"><ele>370.66666666666663</ele><time>2026-04-22T11:43:59Z</time></trkpt><trkpt lat="42.63147734393705" lon="12.467705408897764"><ele>371.3333333333333</ele><time>2026-04-22T11:44:00Z</time></trkpt><trkpt lat="42.63153836506235" lon="12.46792317926057"><ele>372.0</ele><time>2026-04-22T11:44:01Z</time></trkpt><trkpt lat="42.63159104089324" lon="12.46814272314815"><ele>372.0</ele><time>2026-04-22T11:44:02Z</time></trkpt><trkpt lat="42.63164211995153" lon="12.468368215429074"><ele>372.0</ele><time>2026-04-22T11:44:03Z</time></trkpt><trkpt lat="42.63169142006288" lon="12.468583367800049"><ele>372.0</ele><time>2026-04-22T11:44:04Z</time></trkpt><trkpt lat="42.63173613126409" lon="12.46880546877739"><ele>371.6666666666667</ele><time>2026-04-22T11:44:05Z</time></trkpt><trkpt lat="42.63178585015511" lon="12.46903061903744"><ele>371.33333333333337</ele><time>2026-04-22T11:44:06Z</time></trkpt><trkpt lat="42.631832941765154" lon="12.4692499580948"><ele>371.0</ele><time>2026-04-22T11:44:07Z</time></trkpt><trkpt lat="42.6318744533593" lon="12.4694510784124"><ele>371.5</ele><time>2026-04-22T11:44:08Z</time></trkpt><trkpt lat="42.631875617734" lon="12.469640253898612"><ele>372.0</ele><time>2026-04-22T11:44:09Z</time></trkpt><trkpt lat="42.63188567938492" lon="12.469837688426553"><ele>372.5</ele><time>2026-04-22T11:44:10Z</time></trkpt><trkpt lat="42.63185173317731" lon="12.470047257663882"><ele>373.0</ele><time>2026-04-22T11:44:11Z</time></trkpt><trkpt lat="42.631823010258806" lon="12.47025360307626"><ele>373.5</ele><time>2026-04-22T11:44:12Z</time></trkpt><trkpt lat="42.63179719228791" lon="12.470442586371723"><ele>374.0</ele><time>2026-04-22T11:44:13Z</time></trkpt><trkpt lat="42.63176279974028" lon="12.470626331876279"><ele>374.5</ele><time>2026-04-22T11:44:14Z</time></trkpt><trkpt lat="42.63175334715524" lon="12.47082492188659"><ele>375.0</ele><time>2026-04-22T11:44:15Z</time></trkpt><trkpt lat="42.631753347155424" lon="12.471037235265527"><ele>375.0</ele><time>2026-04-22T11:44:16Z</time></trkpt><trkpt lat="42.63177175103908" lon="12.471152722046655"><ele>375.0</ele><time>2026-04-22T11:44:17Z</time></trkpt><trkpt lat="42.63177941343388" lon="12.47129091306578"><ele>375.0</ele><time>2026-04-22T11:44:18Z</time></trkpt><trkpt lat="42.63177530693599" lon="12.471445748801795"><ele>375.0</ele><time>2026-04-22T11:44:19Z</time></trkpt><trkpt lat="42.63175772509174" lon="12.471614348908362"><ele>375.0</ele><time>2026-04-22T11:44:20Z</time></trkpt><trkpt lat="42.63174404829882" lon="12.47178804328987"><ele>375.25</ele><time>2026-04-22T11:44:21Z</time></trkpt><trkpt lat="42.63172133892693" lon="12.471963064612337"><ele>375.5</ele><time>2026-04-22T11:44:22Z</time></trkpt><trkpt lat="42.631691025251364" lon="12.47213021904924"><ele>375.75</ele><time>2026-04-22T11:44:23Z</time></trkpt><trkpt lat="42.63167405869681" lon="12.472309985335386"><ele>376.0</ele><time>2026-04-22T11:44:24Z</time></trkpt><trkpt lat="42.6316503537589" lon="12.472482953858608"><ele>376.25</ele><time>2026-04-22T11:44:25Z</time></trkpt><trkpt lat="42.63161483947331" lon="12.472634593080224"><ele>376.5</ele><time>2026-04-22T11:44:26Z</time></trkpt><trkpt lat="42.63154935769464" lon="12.472740322386102"><ele>376.75</ele><time>2026-04-22T11:44:27Z</time></trkpt><trkpt lat="42.63147457162912" lon="12.472843663354999"><ele>377.0</ele><time>2026-04-22T11:44:28Z</time></trkpt><trkpt lat="42.631394418205645" lon="12.47298488425276"><ele>377.40000000000003</ele><time>2026-04-22T11:44:29Z</time></trkpt><trkpt lat="42.63130073641241" lon="12.473080867422434"><ele>377.8</ele><time>2026-04-22T11:44:30Z</time></trkpt><trkpt lat="42.63120852488837" lon="12.4731818487227"><ele>378.2</ele><time>2026-04-22T11:44:31Z</time></trkpt><trkpt lat="42.63113527941417" lon="12.47328591288592"><ele>378.6</ele><time>2026-04-22T11:44:32Z</time></trkpt><trkpt lat="42.63108830624808" lon="12.473406822338525"><ele>379.0</ele><time>2026-04-22T11:44:33Z</time></trkpt><trkpt lat="42.631056716154404" lon="12.473516775825246"><ele>379.0</ele><time>2026-04-22T11:44:34Z</time></trkpt><trkpt lat="42.6310454547884" lon="12.473644801199395"><ele>379.0</ele><time>2026-04-22T11:44:35Z</time></trkpt><trkpt lat="42.63106952473828" lon="12.473795062919317"><ele>379.0</ele><time>2026-04-22T11:44:36Z</time></trkpt><trkpt lat="42.631107562408985" lon="12.473943974676356"><ele>379.0</ele><time>2026-04-22T11:44:37Z</time></trkpt><trkpt lat="42.63114895410443" lon="12.474097731947069"><ele>379.0</ele><time>2026-04-22T11:44:38Z</time></trkpt><trkpt lat="42.6311841292573" lon="12.474262020523982"><ele>379.0</ele><time>2026-04-22T11:44:39Z</time></trkpt><trkpt lat="42.63120427653843" lon="12.474408020492945"><ele>379.0</ele><time>2026-04-22T11:44:40Z</time></trkpt><trkpt lat="42.631222528997526" lon="12.474552354135199"><ele>379.0</ele><time>2026-04-22T11:44:41Z</time></trkpt><trkpt lat="42.631225356049924" lon="12.47468049031421"><ele>379.0</ele><time>2026-04-22T11:44:42Z</time></trkpt><trkpt lat="42.631221079384204" lon="12.474824600751955"><ele>379.0</ele><time>2026-04-22T11:44:43Z</time></trkpt><trkpt lat="42.631204767252754" lon="12.474982996652656"><ele>379.0</ele><time>2026-04-22T11:44:44Z</time></trkpt><trkpt lat="42.63119143735095" lon="12.475132140827212"><ele>379.0</ele><time>2026-04-22T11:44:45Z</time></trkpt><trkpt lat="42.6311490431252" lon="12.475291191152795"><ele>379.0</ele><time>2026-04-22T11:44:46Z</time></trkpt><trkpt lat="42.631132119592124" lon="12.475446826630609"><ele>379.0</ele><time>2026-04-22T11:44:47Z</time></trkpt><trkpt lat="42.631080888363336" lon="12.475601744713902"><ele>376.75</ele><time>2026-04-22T11:44:48Z</time></trkpt><trkpt lat="42.63103979940443" lon="12.475771874522856"><ele>374.5</ele><time>2026-04-22T11:44:49Z</time></trkpt><trkpt lat="42.63100556974335" lon="12.475950746849175"><ele>372.25</ele><time>2026-04-22T11:44:50Z</time></trkpt><trkpt lat="42.631008281447656" lon="12.476141619899229"><ele>370.0</ele><time>2026-04-22T11:44:51Z</time></trkpt><trkpt lat="42.63098333145078" lon="12.47633545006682"><ele>370.0</ele><time>2026-04-22T11:44:52Z</time></trkpt><trkpt lat="42.63097319125094" lon="12.47654954553729"><ele>370.0</ele><time>2026-04-22T11:44:53Z</time></trkpt><trkpt lat="42.630963315797516" lon="12.476773065920705"><ele>370.0</ele><time>2026-04-22T11:44:54Z</time></trkpt><trkpt lat="42.630968381440844" lon="12.477006664067694"><ele>371.3333333333333</ele><time>2026-04-22T11:44:55Z</time></trkpt><trkpt lat="42.6309416646121" lon="12.47724362368656"><ele>372.6666666666667</ele><time>2026-04-22T11:44:56Z</time></trkpt><trkpt lat="42.63094242756541" lon="12.477479705249323"><ele>374.0</ele><time>2026-04-22T11:44:57Z</time></trkpt><trkpt lat="42.63089903376378" lon="12.477705942007683"><ele>374.0</ele><time>2026-04-22T11:44:58Z</time></trkpt><trkpt lat="42.63085985133845" lon="12.477925638121578"><ele>374.0</ele><time>2026-04-22T11:44:59Z</time></trkpt><trkpt lat="42.63082444613945" lon="12.478147470307666"><ele>374.0</ele><time>2026-04-22T11:45:00Z</time></trkpt><trkpt lat="42.63079341805151" lon="12.478375332415505"><ele>376.0</ele><time>2026-04-22T11:45:01Z</time></trkpt><trkpt lat="42.63073662583415" lon="12.47859206153516"><ele>378.0</ele><time>2026-04-22T11:45:02Z</time></trkpt><trkpt lat="42.630647847919455" lon="12.47880128728931"><ele>380.0</ele><time>2026-04-22T11:45:03Z</time></trkpt><trkpt lat="42.63049369689964" lon="12.479246808926831"><ele>382.0</ele><time>2026-04-22T11:45:05Z</time></trkpt><trkpt lat="42.63039750664909" lon="12.479431490691416"><ele>384.0</ele><time>2026-04-22T11:45:06Z</time></trkpt><trkpt lat="42.630330068650714" lon="12.479624639086873"><ele>386.0</ele><time>2026-04-22T11:45:07Z</time></trkpt><trkpt lat="42.630254239459994" lon="12.479796560021777"><ele>388.3333333333333</ele><time>2026-04-22T11:45:08Z</time></trkpt><trkpt lat="42.63017740487042" lon="12.479962266322069"><ele>390.66666666666663</ele><time>2026-04-22T11:45:09Z</time></trkpt><trkpt lat="42.63010739679364" lon="12.480174123132945"><ele>393.0</ele><time>2026-04-22T11:45:10Z</time></trkpt><trkpt lat="42.63002207464607" lon="12.48036050275325"><ele>392.66666666666663</ele><time>2026-04-22T11:45:11Z</time></trkpt><trkpt lat="42.62994833033507" lon="12.480564254186985"><ele>392.3333333333333</ele><time>2026-04-22T11:45:12Z</time></trkpt><trkpt lat="42.62988056737432" lon="12.480759346377857"><ele>392.0</ele><time>2026-04-22T11:45:13Z</time></trkpt><trkpt lat="42.6298129486637" lon="12.480963096604391"><ele>392.0</ele><time>2026-04-22T11:45:14Z</time></trkpt><trkpt lat="42.62974371198616" lon="12.481180652067701"><ele>392.0</ele><time>2026-04-22T11:45:15Z</time></trkpt><trkpt lat="42.62968463309911" lon="12.481377245343873"><ele>392.0</ele><time>2026-04-22T11:45:16Z</time></trkpt><trkpt lat="42.62963469757659" lon="12.481564216287568"><ele>390.75</ele><time>2026-04-22T11:45:17Z</time></trkpt><trkpt lat="42.62958965868105" lon="12.481752848224405"><ele>389.5</ele><time>2026-04-22T11:45:18Z</time></trkpt><trkpt lat="42.62955282313311" lon="12.481922408832435"><ele>388.25</ele><time>2026-04-22T11:45:19Z</time></trkpt><trkpt lat="42.62951799421345" lon="12.482107167352927"><ele>387.0</ele><time>2026-04-22T11:45:20Z</time></trkpt><trkpt lat="42.62949440551518" lon="12.482333726699899"><ele>387.25</ele><time>2026-04-22T11:45:21Z</time></trkpt><trkpt lat="42.62948994137981" lon="12.482524900260941"><ele>387.5</ele><time>2026-04-22T11:45:22Z</time></trkpt><trkpt lat="42.629438256107136" lon="12.482716348694499"><ele>387.75</ele><time>2026-04-22T11:45:23Z</time></trkpt><trkpt lat="42.62938399721744" lon="12.482904947039962"><ele>388.0</ele><time>2026-04-22T11:45:24Z</time></trkpt><trkpt lat="42.62931939656634" lon="12.483101553267721"><ele>388.0</ele><time>2026-04-22T11:45:25Z</time></trkpt><trkpt lat="42.629251633606174" lon="12.483295762788496"><ele>388.0</ele><time>2026-04-22T11:45:26Z</time></trkpt><trkpt lat="42.62918643970836" lon="12.483497305844885"><ele>388.0</ele><time>2026-04-22T11:45:27Z</time></trkpt><trkpt lat="42.629130011110924" lon="12.483691557318924"><ele>388.0</ele><time>2026-04-22T11:45:28Z</time></trkpt><trkpt lat="42.6290568066652" lon="12.483866303532473"><ele>388.0</ele><time>2026-04-22T11:45:29Z</time></trkpt><trkpt lat="42.629019092242714" lon="12.484052023617535"><ele>388.0</ele><time>2026-04-22T11:45:30Z</time></trkpt><trkpt lat="42.62895353992646" lon="12.484203132623314"><ele>388.0</ele><time>2026-04-22T11:45:31Z</time></trkpt><trkpt lat="42.628907620179405" lon="12.484357351625269"><ele>388.0</ele><time>2026-04-22T11:45:32Z</time></trkpt><trkpt lat="42.62888744025283" lon="12.484508065374602"><ele>388.0</ele><time>2026-04-22T11:45:33Z</time></trkpt><trkpt lat="42.628868584063724" lon="12.484651628653301"><ele>388.0</ele><time>2026-04-22T11:45:34Z</time></trkpt><trkpt lat="42.62883583793627" lon="12.484971622392388"><ele>388.4</ele><time>2026-04-22T11:45:36Z</time></trkpt><trkpt lat="42.62882469271802" lon="12.485116085729235"><ele>388.79999999999995</ele><time>2026-04-22T11:45:37Z</time></trkpt><trkpt lat="42.62880768722451" lon="12.485246368026027"><ele>389.2</ele><time>2026-04-22T11:45:38Z</time></trkpt><trkpt lat="42.628779077305026" lon="12.485345761485824"><ele>389.6</ele><time>2026-04-22T11:45:39Z</time></trkpt><trkpt lat="42.62875959090352" lon="12.485543425053235"><ele>390.0</ele><time>2026-04-22T11:45:41Z</time></trkpt><trkpt lat="42.62876588934941" lon="12.485692238477226"><ele>390.25</ele><time>2026-04-22T11:45:42Z</time></trkpt><trkpt lat="42.62877692228533" lon="12.48586265572134"><ele>390.5</ele><time>2026-04-22T11:45:43Z</time></trkpt><trkpt lat="42.62879415404735" lon="12.486067363088399"><ele>390.75</ele><time>2026-04-22T11:45:44Z</time></trkpt><trkpt lat="42.628800809795464" lon="12.486277777841453"><ele>391.0</ele><time>2026-04-22T11:45:45Z</time></trkpt><trkpt lat="42.62879817420055" lon="12.486491550282274"><ele>391.0</ele><time>2026-04-22T11:45:46Z</time></trkpt><trkpt lat="42.62879490243871" lon="12.486707078735005"><ele>391.0</ele><time>2026-04-22T11:45:47Z</time></trkpt><trkpt lat="42.62879285133438" lon="12.486921965712"><ele>391.0</ele><time>2026-04-22T11:45:48Z</time></trkpt><trkpt lat="42.628788973052814" lon="12.487130933485519"><ele>391.0</ele><time>2026-04-22T11:45:49Z</time></trkpt><trkpt lat="42.62880366038361" lon="12.487329721932824"><ele>391.0</ele><time>2026-04-22T11:45:50Z</time></trkpt><trkpt lat="42.62880430862284" lon="12.487507861389204"><ele>391.0</ele><time>2026-04-22T11:45:51Z</time></trkpt><trkpt lat="42.628810243091166" lon="12.487679717983385"><ele>391.0</ele><time>2026-04-22T11:45:52Z</time></trkpt><trkpt lat="42.62881442283078" lon="12.48783426180893"><ele>390.8</ele><time>2026-04-22T11:45:53Z</time></trkpt><trkpt lat="42.628824895274086" lon="12.487979873570506"><ele>390.6</ele><time>2026-04-22T11:45:54Z</time></trkpt><trkpt lat="42.628832332530344" lon="12.488112028229448"><ele>390.4</ele><time>2026-04-22T11:45:55Z</time></trkpt><trkpt lat="42.62883720864708" lon="12.488235889984566"><ele>390.2</ele><time>2026-04-22T11:45:56Z</time></trkpt><trkpt lat="42.62884386296157" lon="12.488340553953561"><ele>390.0</ele><time>2026-04-22T11:45:57Z</time></trkpt><trkpt lat="42.62887353258425" lon="12.488459533644699"><ele>390.0</ele><time>2026-04-22T11:45:59Z</time></trkpt><trkpt lat="42.62902082699551" lon="12.488366490306124"><ele>390.0</ele><time>2026-04-22T11:46:04Z</time></trkpt><trkpt lat="42.62907842149342" lon="12.488257133785853"><ele>390.0</ele><time>2026-04-22T11:46:05Z</time></trkpt><trkpt lat="42.6291405393625" lon="12.488146740245933"><ele>390.0</ele><time>2026-04-22T11:46:06Z</time></trkpt><trkpt lat="42.62921937330838" lon="12.488024090715612"><ele>390.25</ele><time>2026-04-22T11:46:07Z</time></trkpt><trkpt lat="42.629301391896895" lon="12.487893957632815"><ele>390.5</ele><time>2026-04-22T11:46:08Z</time></trkpt><trkpt lat="42.62938346381399" lon="12.487741588974986"><ele>390.75</ele><time>2026-04-22T11:46:09Z</time></trkpt><trkpt lat="42.629460388147166" lon="12.487563872221196"><ele>391.0</ele><time>2026-04-22T11:46:10Z</time></trkpt><trkpt lat="42.629526971535796" lon="12.48737533351953"><ele>388.0</ele><time>2026-04-22T11:46:11Z</time></trkpt><trkpt lat="42.62959523902606" lon="12.487174709958111"><ele>385.0</ele><time>2026-04-22T11:46:12Z</time></trkpt><trkpt lat="42.629669350115115" lon="12.486969363005281"><ele>382.0</ele><time>2026-04-22T11:46:13Z</time></trkpt><trkpt lat="42.62974698695446" lon="12.486762511460968"><ele>382.0</ele><time>2026-04-22T11:46:14Z</time></trkpt><trkpt lat="42.62982248132249" lon="12.486556456322429"><ele>382.0</ele><time>2026-04-22T11:46:15Z</time></trkpt><trkpt lat="42.62989273490175" lon="12.486354487699085"><ele>382.0</ele><time>2026-04-22T11:46:16Z</time></trkpt><trkpt lat="42.62996644869173" lon="12.486162531354468"><ele>383.75</ele><time>2026-04-22T11:46:17Z</time></trkpt><trkpt lat="42.630030362148716" lon="12.48598447770432"><ele>385.5</ele><time>2026-04-22T11:46:18Z</time></trkpt><trkpt lat="42.630096075252034" lon="12.485812884286041"><ele>387.25</ele><time>2026-04-22T11:46:19Z</time></trkpt><trkpt lat="42.63015328686045" lon="12.48566040405847"><ele>389.0</ele><time>2026-04-22T11:46:20Z</time></trkpt><trkpt lat="42.6301910269166" lon="12.4854826387424"><ele>388.75</ele><time>2026-04-22T11:46:21Z</time></trkpt><trkpt lat="42.63020338834554" lon="12.485288622161143"><ele>388.5</ele><time>2026-04-22T11:46:22Z</time></trkpt><trkpt lat="42.63019135398905" lon="12.485089444020227"><ele>388.25</ele><time>2026-04-22T11:46:23Z</time></trkpt><trkpt lat="42.630165139209446" lon="12.48487781747024"><ele>388.0</ele><time>2026-04-22T11:46:24Z</time></trkpt><trkpt lat="42.630130509799294" lon="12.48464814304447"><ele>385.6666666666667</ele><time>2026-04-22T11:46:25Z</time></trkpt><trkpt lat="42.6300969421767" lon="12.484408941575577"><ele>383.33333333333337</ele><time>2026-04-22T11:46:26Z</time></trkpt><trkpt lat="42.63006599008082" lon="12.484157105385671"><ele>381.0</ele><time>2026-04-22T11:46:27Z</time></trkpt><trkpt lat="42.630037304004084" lon="12.483913740962024"><ele>380.3333333333333</ele><time>2026-04-22T11:46:28Z</time></trkpt><trkpt lat="42.63001399181098" lon="12.483684155247982"><ele>379.66666666666663</ele><time>2026-04-22T11:46:29Z</time></trkpt><trkpt lat="42.63000214013867" lon="12.483467314661015"><ele>379.0</ele><time>2026-04-22T11:46:30Z</time></trkpt><trkpt lat="42.63000463439347" lon="12.483262887037425"><ele>379.0</ele><time>2026-04-22T11:46:31Z</time></trkpt><trkpt lat="42.630047533679274" lon="12.483067371415315"><ele>379.0</ele><time>2026-04-22T11:46:32Z</time></trkpt><trkpt lat="42.63010628004564" lon="12.482903667007816"><ele>379.0</ele><time>2026-04-22T11:46:33Z</time></trkpt><trkpt lat="42.63019627008182" lon="12.482760102556245"><ele>379.0</ele><time>2026-04-22T11:46:34Z</time></trkpt><trkpt lat="42.630306451819976" lon="12.482636276898544"><ele>374.0</ele><time>2026-04-22T11:46:35Z</time></trkpt><trkpt lat="42.630426807689446" lon="12.482510234149588"><ele>369.0</ele><time>2026-04-22T11:46:36Z</time></trkpt><trkpt lat="42.630548399196655" lon="12.482378940577316"><ele>364.0</ele><time>2026-04-22T11:46:37Z</time></trkpt><trkpt lat="42.6306668830627" lon="12.482229577914309"><ele>366.66666666666663</ele><time>2026-04-22T11:46:38Z</time></trkpt><trkpt lat="42.630814300003166" lon="12.482073986851832"><ele>369.3333333333333</ele><time>2026-04-22T11:46:39Z</time></trkpt><trkpt lat="42.63096128209344" lon="12.48191606726001"><ele>372.0</ele><time>2026-04-22T11:46:40Z</time></trkpt><trkpt lat="42.631100966558385" lon="12.481767485884625"><ele>369.3333333333333</ele><time>2026-04-22T11:46:41Z</time></trkpt><trkpt lat="42.63123000255737" lon="12.481624787013798"><ele>366.66666666666663</ele><time>2026-04-22T11:46:42Z</time></trkpt><trkpt lat="42.631355355861686" lon="12.481506489173384"><ele>364.0</ele><time>2026-04-22T11:46:43Z</time></trkpt><trkpt lat="42.63148562892939" lon="12.481432501528102"><ele>364.0</ele><time>2026-04-22T11:46:44Z</time></trkpt><trkpt lat="42.631627162698734" lon="12.481409523581345"><ele>364.0</ele><time>2026-04-22T11:46:45Z</time></trkpt><trkpt lat="42.63177161003046" lon="12.481450571102007"><ele>364.0</ele><time>2026-04-22T11:46:46Z</time></trkpt><trkpt lat="42.631929097089284" lon="12.481464001134553"><ele>364.0</ele><time>2026-04-22T11:46:47Z</time></trkpt><trkpt lat="42.6320969504215" lon="12.481500546256342"><ele>362.3333333333333</ele><time>2026-04-22T11:46:48Z</time></trkpt><trkpt lat="42.63226038060079" lon="12.481552383457613"><ele>360.6666666666667</ele><time>2026-04-22T11:46:49Z</time></trkpt><trkpt lat="42.63243873947332" lon="12.481605719158333"><ele>359.0</ele><time>2026-04-22T11:46:50Z</time></trkpt><trkpt lat="42.63262495966085" lon="12.481643079164963"><ele>358.0</ele><time>2026-04-22T11:46:51Z</time></trkpt><trkpt lat="42.63283628015802" lon="12.4816736563462"><ele>357.0</ele><time>2026-04-22T11:46:52Z</time></trkpt><trkpt lat="42.6330209133667" lon="12.481716771783399"><ele>356.0</ele><time>2026-04-22T11:46:53Z</time></trkpt><trkpt lat="42.63320304762772" lon="12.481758502513605"><ele>356.0</ele><time>2026-04-22T11:46:54Z</time></trkpt><trkpt lat="42.63337223921726" lon="12.481789013858927"><ele>356.0</ele><time>2026-04-22T11:46:55Z</time></trkpt><trkpt lat="42.633526114058334" lon="12.481814733457773"><ele>356.0</ele><time>2026-04-22T11:46:56Z</time></trkpt><trkpt lat="42.63367585473469" lon="12.481862550483058"><ele>355.0</ele><time>2026-04-22T11:46:57Z</time></trkpt><trkpt lat="42.633821973521705" lon="12.481936395224306"><ele>354.0</ele><time>2026-04-22T11:46:58Z</time></trkpt><trkpt lat="42.633940130860786" lon="12.482025285581576"><ele>353.0</ele><time>2026-04-22T11:46:59Z</time></trkpt><trkpt lat="42.634027887991216" lon="12.482209840301335"><ele>351.0</ele><time>2026-04-22T11:47:00Z</time></trkpt><trkpt lat="42.63407320363756" lon="12.482365631192343"><ele>349.0</ele><time>2026-04-22T11:47:01Z</time></trkpt><trkpt lat="42.63413847228529" lon="12.482599260474757"><ele>347.0</ele><time>2026-04-22T11:47:02Z</time></trkpt><trkpt lat="42.634204407650195" lon="12.482842413396774"><ele>347.33333333333337</ele><time>2026-04-22T11:47:03Z</time></trkpt><trkpt lat="42.63427484258496" lon="12.483102159525755"><ele>347.6666666666667</ele><time>2026-04-22T11:47:04Z</time></trkpt><trkpt lat="42.634345840786864" lon="12.483363982802073"><ele>348.0</ele><time>2026-04-22T11:47:05Z</time></trkpt><trkpt lat="42.634428274707005" lon="12.48362698520956"><ele>346.3333333333333</ele><time>2026-04-22T11:47:06Z</time></trkpt><trkpt lat="42.634511041158426" lon="12.48392692188529"><ele>344.66666666666663</ele><time>2026-04-22T11:47:07Z</time></trkpt><trkpt lat="42.63457170753882" lon="12.484165307474706"><ele>343.0</ele><time>2026-04-22T11:47:08Z</time></trkpt><trkpt lat="42.63464154682578" lon="12.48442813564702"><ele>343.66666666666663</ele><time>2026-04-22T11:47:09Z</time></trkpt><trkpt lat="42.63470763704919" lon="12.484687252909879"><ele>344.3333333333333</ele><time>2026-04-22T11:47:10Z</time></trkpt><trkpt lat="42.634777154377865" lon="12.48493483009678"><ele>345.0</ele><time>2026-04-22T11:47:11Z</time></trkpt><trkpt lat="42.63483789247529" lon="12.485165551543677"><ele>345.0</ele><time>2026-04-22T11:47:12Z</time></trkpt><trkpt lat="42.63491736264319" lon="12.485371380291223"><ele>345.0</ele><time>2026-04-22T11:47:13Z</time></trkpt><trkpt lat="42.63502526074612" lon="12.48554474943816"><ele>345.0</ele><time>2026-04-22T11:47:14Z</time></trkpt><trkpt lat="42.63516755159894" lon="12.48567079800424"><ele>345.3333333333333</ele><time>2026-04-22T11:47:15Z</time></trkpt><trkpt lat="42.635309264992934" lon="12.48575562094009"><ele>345.66666666666663</ele><time>2026-04-22T11:47:16Z</time></trkpt><trkpt lat="42.63544943601502" lon="12.485825567421436"><ele>346.0</ele><time>2026-04-22T11:47:17Z</time></trkpt><trkpt lat="42.63560236544717" lon="12.485848356802899"><ele>346.0</ele><time>2026-04-22T11:47:18Z</time></trkpt><trkpt lat="42.63575757215377" lon="12.485828508953885"><ele>346.0</ele><time>2026-04-22T11:47:19Z</time></trkpt><trkpt lat="42.63590718176833" lon="12.48576258260322"><ele>346.0</ele><time>2026-04-22T11:47:20Z</time></trkpt><trkpt lat="42.63605566629482" lon="12.48566977981695"><ele>348.0</ele><time>2026-04-22T11:47:21Z</time></trkpt><trkpt lat="42.636199354217176" lon="12.485539948384655"><ele>350.0</ele><time>2026-04-22T11:47:22Z</time></trkpt><trkpt lat="42.636339038183195" lon="12.485376203308155"><ele>352.0</ele><time>2026-04-22T11:47:23Z</time></trkpt><trkpt lat="42.636489127515006" lon="12.485217002181807"><ele>352.0</ele><time>2026-04-22T11:47:24Z</time></trkpt><trkpt lat="42.63664326205726" lon="12.485070521052334"><ele>352.0</ele><time>2026-04-22T11:47:25Z</time></trkpt><trkpt lat="42.63679803770318" lon="12.484923965239068"><ele>352.0</ele><time>2026-04-22T11:47:26Z</time></trkpt><trkpt lat="42.636945496385884" lon="12.484808120823667"><ele>354.0</ele><time>2026-04-22T11:47:27Z</time></trkpt><trkpt lat="42.63709535475318" lon="12.48473864808829"><ele>356.0</ele><time>2026-04-22T11:47:28Z</time></trkpt><trkpt lat="42.63726369636149" lon="12.484726142210885"><ele>358.0</ele><time>2026-04-22T11:47:29Z</time></trkpt><trkpt lat="42.63744207880446" lon="12.484723675715298"><ele>358.0</ele><time>2026-04-22T11:47:30Z</time></trkpt><trkpt lat="42.637626394174035" lon="12.484727021228482"><ele>358.0</ele><time>2026-04-22T11:47:31Z</time></trkpt><trkpt lat="42.63780978752213" lon="12.484722787003287"><ele>358.0</ele><time>2026-04-22T11:47:32Z</time></trkpt><trkpt lat="42.63799949116944" lon="12.484734634959358"><ele>359.3333333333333</ele><time>2026-04-22T11:47:33Z</time></trkpt><trkpt lat="42.63819606006171" lon="12.48474483994741"><ele>360.6666666666667</ele><time>2026-04-22T11:47:34Z</time></trkpt><trkpt lat="42.63838854841928" lon="12.484773342070605"><ele>362.0</ele><time>2026-04-22T11:47:35Z</time></trkpt><trkpt lat="42.63859714137581" lon="12.48476726163096"><ele>364.33333333333337</ele><time>2026-04-22T11:47:36Z</time></trkpt><trkpt lat="42.638800106187134" lon="12.484781784346806"><ele>366.6666666666667</ele><time>2026-04-22T11:47:37Z</time></trkpt><trkpt lat="42.63899212550589" lon="12.484793781549369"><ele>369.0</ele><time>2026-04-22T11:47:38Z</time></trkpt><trkpt lat="42.63916507666172" lon="12.484790194685464"><ele>369.0</ele><time>2026-04-22T11:47:39Z</time></trkpt><trkpt lat="42.63931948501794" lon="12.484762991278389"><ele>369.0</ele><time>2026-04-22T11:47:40Z</time></trkpt><trkpt lat="42.63945349538698" lon="12.484691595032363"><ele>369.0</ele><time>2026-04-22T11:47:41Z</time></trkpt><trkpt lat="42.63961272441506" lon="12.484606163136663"><ele>371.0</ele><time>2026-04-22T11:47:42Z</time></trkpt><trkpt lat="42.63974913444145" lon="12.484499731595639"><ele>373.0</ele><time>2026-04-22T11:47:43Z</time></trkpt><trkpt lat="42.63986682955547" lon="12.484299963344238"><ele>375.0</ele><time>2026-04-22T11:47:44Z</time></trkpt><trkpt lat="42.63995455613668" lon="12.484084457476323"><ele>375.0</ele><time>2026-04-22T11:47:45Z</time></trkpt><trkpt lat="42.64002059800944" lon="12.483844935448516"><ele>375.0</ele><time>2026-04-22T11:47:46Z</time></trkpt><trkpt lat="42.640073278486554" lon="12.483591713233686"><ele>375.0</ele><time>2026-04-22T11:47:47Z</time></trkpt><trkpt lat="42.64012959530927" lon="12.483336303654424"><ele>375.0</ele><time>2026-04-22T11:47:48Z</time></trkpt><trkpt lat="42.640191658825835" lon="12.483105325262265"><ele>375.0</ele><time>2026-04-22T11:47:49Z</time></trkpt><trkpt lat="42.640251936009115" lon="12.48288813533456"><ele>375.0</ele><time>2026-04-22T11:47:50Z</time></trkpt><trkpt lat="42.640311437100635" lon="12.482680567540381"><ele>374.25</ele><time>2026-04-22T11:47:51Z</time></trkpt><trkpt lat="42.64035552625239" lon="12.482493298983103"><ele>373.5</ele><time>2026-04-22T11:47:52Z</time></trkpt><trkpt lat="42.64038845148576" lon="12.482349232145774"><ele>372.75</ele><time>2026-04-22T11:47:53Z</time></trkpt><trkpt lat="42.640403937300256" lon="12.482261553535151"><ele>372.0</ele><time>2026-04-22T11:47:54Z</time></trkpt><trkpt lat="42.6405368992717" lon="12.482284162094306"><ele>372.0</ele><time>2026-04-22T11:47:58Z</time></trkpt><trkpt lat="42.64057596344528" lon="12.482365968589384"><ele>372.0</ele><time>2026-04-22T11:47:59Z</time></trkpt><trkpt lat="42.64064569964973" lon="12.48243278073359"><ele>372.0</ele><time>2026-04-22T11:48:00Z</time></trkpt><trkpt lat="42.64071128459385" lon="12.482523300570728"><ele>372.0</ele><time>2026-04-22T11:48:01Z</time></trkpt><trkpt lat="42.64076939660287" lon="12.48261921642936"><ele>372.0</ele><time>2026-04-22T11:48:02Z</time></trkpt><trkpt lat="42.64081602299869" lon="12.482731839101723"><ele>372.0</ele><time>2026-04-22T11:48:03Z</time></trkpt><trkpt lat="42.640822871736056" lon="12.482873739331945"><ele>374.0</ele><time>2026-04-22T11:48:04Z</time></trkpt><trkpt lat="42.640830976674664" lon="12.483046201651694"><ele>376.0</ele><time>2026-04-22T11:48:05Z</time></trkpt><trkpt lat="42.640841155393865" lon="12.483218446790572"><ele>378.0</ele><time>2026-04-22T11:48:06Z</time></trkpt><trkpt lat="42.640865863739286" lon="12.48338647524747"><ele>380.0</ele><time>2026-04-22T11:48:07Z</time></trkpt><trkpt lat="42.640874194977556" lon="12.483564858633624"><ele>380.0</ele><time>2026-04-22T11:48:08Z</time></trkpt><trkpt lat="42.64088701482102" lon="12.483750164106704"><ele>380.0</ele><time>2026-04-22T11:48:09Z</time></trkpt><trkpt lat="42.6408947637404" lon="12.483941842649422"><ele>380.0</ele><time>2026-04-22T11:48:10Z</time></trkpt><trkpt lat="42.64090648332052" lon="12.484129358943125"><ele>380.0</ele><time>2026-04-22T11:48:11Z</time></trkpt><trkpt lat="42.640916478806666" lon="12.484321980796848"><ele>381.25</ele><time>2026-04-22T11:48:12Z</time></trkpt><trkpt lat="42.64092562296428" lon="12.484522038434832"><ele>382.5</ele><time>2026-04-22T11:48:13Z</time></trkpt><trkpt lat="42.640935084415815" lon="12.484723936132129"><ele>383.75</ele><time>2026-04-22T11:48:14Z</time></trkpt><trkpt lat="42.64094369073075" lon="12.484907948504343"><ele>385.0</ele><time>2026-04-22T11:48:15Z</time></trkpt><trkpt lat="42.640942698141835" lon="12.48506519111298"><ele>385.25</ele><time>2026-04-22T11:48:16Z</time></trkpt><trkpt lat="42.640929490663346" lon="12.485210081731518"><ele>385.5</ele><time>2026-04-22T11:48:17Z</time></trkpt><trkpt lat="42.640894269022894" lon="12.48534788289612"><ele>385.75</ele><time>2026-04-22T11:48:18Z</time></trkpt><trkpt lat="42.64076927438104" lon="12.485611912043346"><ele>386.0</ele><time>2026-04-22T11:48:20Z</time></trkpt><trkpt lat="42.64069146975369" lon="12.485752950413024"><ele>386.0</ele><time>2026-04-22T11:48:21Z</time></trkpt><trkpt lat="42.64061839856588" lon="12.485891620511893"><ele>386.0</ele><time>2026-04-22T11:48:22Z</time></trkpt><trkpt lat="42.64054271520107" lon="12.486020720664516"><ele>386.0</ele><time>2026-04-22T11:48:23Z</time></trkpt><trkpt lat="42.64044003041049" lon="12.486120462984466"><ele>386.0</ele><time>2026-04-22T11:48:24Z</time></trkpt><trkpt lat="42.64032363473565" lon="12.486216184042647"><ele>385.5</ele><time>2026-04-22T11:48:25Z</time></trkpt><trkpt lat="42.64019758473788" lon="12.486299561642179"><ele>385.0</ele><time>2026-04-22T11:48:26Z</time></trkpt><trkpt lat="42.64007471649145" lon="12.48639891532276"><ele>384.5</ele><time>2026-04-22T11:48:27Z</time></trkpt><trkpt lat="42.639960076448034" lon="12.486474231701187"><ele>384.0</ele><time>2026-04-22T11:48:28Z</time></trkpt><trkpt lat="42.63984711677375" lon="12.486521182217576"><ele>384.0</ele><time>2026-04-22T11:48:29Z</time></trkpt><trkpt lat="42.639751422305956" lon="12.486606444200962"><ele>384.0</ele><time>2026-04-22T11:48:30Z</time></trkpt><trkpt lat="42.63970881937848" lon="12.486753949056318"><ele>384.0</ele><time>2026-04-22T11:48:31Z</time></trkpt><trkpt lat="42.63967033017272" lon="12.486899672654337"><ele>384.0</ele><time>2026-04-22T11:48:32Z</time></trkpt><trkpt lat="42.63965527969578" lon="12.487063809994794"><ele>383.25</ele><time>2026-04-22T11:48:33Z</time></trkpt><trkpt lat="42.639663316558924" lon="12.487231003678565"><ele>382.5</ele><time>2026-04-22T11:48:34Z</time></trkpt><trkpt lat="42.63969125791011" lon="12.487406499637627"><ele>381.75</ele><time>2026-04-22T11:48:35Z</time></trkpt><trkpt lat="42.6397370075571" lon="12.487590206152339"><ele>381.0</ele><time>2026-04-22T11:48:36Z</time></trkpt><trkpt lat="42.63979714016999" lon="12.487779248973641"><ele>380.6666666666667</ele><time>2026-04-22T11:48:37Z</time></trkpt><trkpt lat="42.63985914631606" lon="12.48797461700739"><ele>380.33333333333337</ele><time>2026-04-22T11:48:38Z</time></trkpt><trkpt lat="42.63991935144776" lon="12.488177793969756"><ele>380.0</ele><time>2026-04-22T11:48:39Z</time></trkpt><trkpt lat="42.63996181834758" lon="12.48839433595564"><ele>380.0</ele><time>2026-04-22T11:48:40Z</time></trkpt><trkpt lat="42.639959854770346" lon="12.488611684010598"><ele>380.0</ele><time>2026-04-22T11:48:41Z</time></trkpt><trkpt lat="42.63995853077881" lon="12.488822340764715"><ele>380.0</ele><time>2026-04-22T11:48:42Z</time></trkpt><trkpt lat="42.639961234871116" lon="12.489040464618801"><ele>380.75</ele><time>2026-04-22T11:48:43Z</time></trkpt><trkpt lat="42.63991565513378" lon="12.489237171909007"><ele>381.5</ele><time>2026-04-22T11:48:44Z</time></trkpt><trkpt lat="42.639873762402026" lon="12.489418841721726"><ele>382.25</ele><time>2026-04-22T11:48:45Z</time></trkpt><trkpt lat="42.63983763898203" lon="12.489583490923295"><ele>383.0</ele><time>2026-04-22T11:48:46Z</time></trkpt><trkpt lat="42.63978206566292" lon="12.48972687927788"><ele>383.0</ele><time>2026-04-22T11:48:47Z</time></trkpt><trkpt lat="42.639723773515016" lon="12.489878047727629"><ele>383.0</ele><time>2026-04-22T11:48:48Z</time></trkpt><trkpt lat="42.63965984581244" lon="12.490040743365594"><ele>383.0</ele><time>2026-04-22T11:48:49Z</time></trkpt><trkpt lat="42.63959113687347" lon="12.490226607211875"><ele>383.0</ele><time>2026-04-22T11:48:50Z</time></trkpt><trkpt lat="42.639512808881435" lon="12.490377374984172"><ele>381.6666666666667</ele><time>2026-04-22T11:48:51Z</time></trkpt><trkpt lat="42.63941437187626" lon="12.490584686718053"><ele>380.3333333333333</ele><time>2026-04-22T11:48:52Z</time></trkpt><trkpt lat="42.639310694144335" lon="12.490800858104548"><ele>379.0</ele><time>2026-04-22T11:48:53Z</time></trkpt><trkpt lat="42.63923176260862" lon="12.490956752831263"><ele>379.0</ele><time>2026-04-22T11:48:54Z</time></trkpt><trkpt lat="42.63916939358062" lon="12.491097791686945"><ele>379.0</ele><time>2026-04-22T11:48:55Z</time></trkpt><trkpt lat="42.63904916553357" lon="12.491238086687755"><ele>379.0</ele><time>2026-04-22T11:48:56Z</time></trkpt><trkpt lat="42.63892498568227" lon="12.491356190886211"><ele>379.0</ele><time>2026-04-22T11:48:57Z</time></trkpt><trkpt lat="42.638848972129246" lon="12.491527379025683"><ele>379.0</ele><time>2026-04-22T11:48:58Z</time></trkpt><trkpt lat="42.6388256606611" lon="12.491721678647297"><ele>379.0</ele><time>2026-04-22T11:48:59Z</time></trkpt><trkpt lat="42.63879697515003" lon="12.49191515325159"><ele>379.0</ele><time>2026-04-22T11:49:00Z</time></trkpt><trkpt lat="42.638795028610645" lon="12.492134301179311"><ele>379.0</ele><time>2026-04-22T11:49:01Z</time></trkpt><trkpt lat="42.638817783300944" lon="12.492368673225624"><ele>379.0</ele><time>2026-04-22T11:49:02Z</time></trkpt><trkpt lat="42.63885119316011" lon="12.49260663426881"><ele>379.0</ele><time>2026-04-22T11:49:03Z</time></trkpt><trkpt lat="42.638898737179176" lon="12.492853597135223"><ele>381.3333333333333</ele><time>2026-04-22T11:49:04Z</time></trkpt><trkpt lat="42.638946666535084" lon="12.493109759076367"><ele>383.66666666666663</ele><time>2026-04-22T11:49:05Z</time></trkpt><trkpt lat="42.638981687945325" lon="12.493343442839132"><ele>386.0</ele><time>2026-04-22T11:49:06Z</time></trkpt><trkpt lat="42.63898498608014" lon="12.493563101640563"><ele>386.0</ele><time>2026-04-22T11:49:07Z</time></trkpt><trkpt lat="42.63899615203194" lon="12.493755012736807"><ele>386.0</ele><time>2026-04-22T11:49:08Z</time></trkpt><trkpt lat="42.63902486233958" lon="12.493930888294766"><ele>386.0</ele><time>2026-04-22T11:49:09Z</time></trkpt><trkpt lat="42.639020158841724" lon="12.494108993303385"><ele>386.0</ele><time>2026-04-22T11:49:10Z</time></trkpt><trkpt lat="42.63902721711984" lon="12.494482466851906"><ele>386.3333333333333</ele><time>2026-04-22T11:49:12Z</time></trkpt><trkpt lat="42.639016832352844" lon="12.494691500006853"><ele>386.66666666666663</ele><time>2026-04-22T11:49:13Z</time></trkpt><trkpt lat="42.63900495830418" lon="12.494912978877922"><ele>387.0</ele><time>2026-04-22T11:49:14Z</time></trkpt><trkpt lat="42.63899051455778" lon="12.495128880461957"><ele>387.0</ele><time>2026-04-22T11:49:15Z</time></trkpt><trkpt lat="42.63897229060651" lon="12.49534397772806"><ele>387.0</ele><time>2026-04-22T11:49:16Z</time></trkpt><trkpt lat="42.638972379723796" lon="12.495561564351675"><ele>387.0</ele><time>2026-04-22T11:49:17Z</time></trkpt><trkpt lat="42.63894900521466" lon="12.49577622307496"><ele>386.66666666666663</ele><time>2026-04-22T11:49:18Z</time></trkpt><trkpt lat="42.638924945763115" lon="12.496024325112518"><ele>386.3333333333333</ele><time>2026-04-22T11:49:19Z</time></trkpt><trkpt lat="42.63892424661885" lon="12.496226155131485"><ele>386.0</ele><time>2026-04-22T11:49:20Z</time></trkpt><trkpt lat="42.63888631229215" lon="12.496416693768843"><ele>384.3333333333333</ele><time>2026-04-22T11:49:21Z</time></trkpt><trkpt lat="42.63884465176625" lon="12.49666731506541"><ele>382.66666666666663</ele><time>2026-04-22T11:49:22Z</time></trkpt><trkpt lat="42.63878519040217" lon="12.496873871555332"><ele>381.0</ele><time>2026-04-22T11:49:23Z</time></trkpt><trkpt lat="42.638701931427384" lon="12.497060616318006"><ele>380.6666666666667</ele><time>2026-04-22T11:49:24Z</time></trkpt><trkpt lat="42.63860480536899" lon="12.49721715012617"><ele>380.33333333333337</ele><time>2026-04-22T11:49:25Z</time></trkpt><trkpt lat="42.63847078912887" lon="12.497387935410941"><ele>380.0</ele><time>2026-04-22T11:49:26Z</time></trkpt><trkpt lat="42.63833590270264" lon="12.497554686400907"><ele>380.0</ele><time>2026-04-22T11:49:27Z</time></trkpt><trkpt lat="42.638199240231884" lon="12.49772375946803"><ele>380.0</ele><time>2026-04-22T11:49:28Z</time></trkpt><trkpt lat="42.638066852378266" lon="12.497913250103071"><ele>380.0</ele><time>2026-04-22T11:49:29Z</time></trkpt><trkpt lat="42.63792682581046" lon="12.49808561924957"><ele>381.33333333333337</ele><time>2026-04-22T11:49:30Z</time></trkpt><trkpt lat="42.63779078000458" lon="12.498260748441458"><ele>382.6666666666667</ele><time>2026-04-22T11:49:31Z</time></trkpt><trkpt lat="42.63765039082465" lon="12.498440786219238"><ele>384.0</ele><time>2026-04-22T11:49:32Z</time></trkpt><trkpt lat="42.637510373967146" lon="12.498617757020355"><ele>385.66666666666663</ele><time>2026-04-22T11:49:33Z</time></trkpt><trkpt lat="42.6373600547128" lon="12.498776320173473"><ele>387.3333333333333</ele><time>2026-04-22T11:49:34Z</time></trkpt><trkpt lat="42.637221207017156" lon="12.498955177930412"><ele>389.0</ele><time>2026-04-22T11:49:35Z</time></trkpt><trkpt lat="42.637077552267044" lon="12.499135442160862"><ele>389.0</ele><time>2026-04-22T11:49:36Z</time></trkpt><trkpt lat="42.6369407967386" lon="12.499308233502868"><ele>389.0</ele><time>2026-04-22T11:49:37Z</time></trkpt><trkpt lat="42.636816367742576" lon="12.49946226440053"><ele>389.0</ele><time>2026-04-22T11:49:38Z</time></trkpt><trkpt lat="42.63670563379381" lon="12.499597892519404"><ele>389.4</ele><time>2026-04-22T11:49:39Z</time></trkpt><trkpt lat="42.636630003121425" lon="12.499721961307628"><ele>389.79999999999995</ele><time>2026-04-22T11:49:40Z</time></trkpt><trkpt lat="42.63654927528274" lon="12.499800039808651"><ele>390.20000000000005</ele><time>2026-04-22T11:49:41Z</time></trkpt><trkpt lat="42.63653188069104" lon="12.499929974756594"><ele>390.6</ele><time>2026-04-22T11:49:42Z</time></trkpt><trkpt lat="42.636512861903725" lon="12.500063253716037"><ele>391.0</ele><time>2026-04-22T11:49:43Z</time></trkpt><trkpt lat="42.63649802150375" lon="12.500203121905807"><ele>391.0</ele><time>2026-04-22T11:49:44Z</time></trkpt><trkpt lat="42.63645716933812" lon="12.500337231995854"><ele>391.0</ele><time>2026-04-22T11:49:45Z</time></trkpt><trkpt lat="42.63641587755362" lon="12.500465754567232"><ele>391.0</ele><time>2026-04-22T11:49:46Z</time></trkpt><trkpt lat="42.636358311728" lon="12.500576830258048"><ele>391.0</ele><time>2026-04-22T11:49:47Z</time></trkpt><trkpt lat="42.636285618474496" lon="12.500676923739178"><ele>391.0</ele><time>2026-04-22T11:49:48Z</time></trkpt><trkpt lat="42.636192970678046" lon="12.500774902557305"><ele>389.5</ele><time>2026-04-22T11:49:49Z</time></trkpt><trkpt lat="42.636087958317965" lon="12.500860251570698"><ele>388.0</ele><time>2026-04-22T11:49:50Z</time></trkpt><trkpt lat="42.635971114351655" lon="12.500938139754323"><ele>386.5</ele><time>2026-04-22T11:49:51Z</time></trkpt><trkpt lat="42.63586672180588" lon="12.500995294629652"><ele>385.0</ele><time>2026-04-22T11:49:52Z</time></trkpt><trkpt lat="42.63574439843021" lon="12.50099391285607"><ele>385.0</ele><time>2026-04-22T11:49:53Z</time></trkpt><trkpt lat="42.635607707280194" lon="12.50104177265136"><ele>385.0</ele><time>2026-04-22T11:49:54Z</time></trkpt><trkpt lat="42.635510992963006" lon="12.5011361028029"><ele>385.0</ele><time>2026-04-22T11:49:55Z</time></trkpt><trkpt lat="42.63540155205846" lon="12.50124050116772"><ele>385.0</ele><time>2026-04-22T11:49:56Z</time></trkpt><trkpt lat="42.63530226638873" lon="12.501359665711734"><ele>382.75</ele><time>2026-04-22T11:49:57Z</time></trkpt><trkpt lat="42.635224626341625" lon="12.501487306774287"><ele>380.5</ele><time>2026-04-22T11:49:58Z</time></trkpt><trkpt lat="42.635117033026816" lon="12.501569147932594"><ele>378.25</ele><time>2026-04-22T11:49:59Z</time></trkpt><trkpt lat="42.63501932706559" lon="12.501629630437181"><ele>376.0</ele><time>2026-04-22T11:50:00Z</time></trkpt><trkpt lat="42.63492091952075" lon="12.501692581324633"><ele>376.0</ele><time>2026-04-22T11:50:00.999Z</time></trkpt><trkpt lat="42.63483190807848" lon="12.50177059982528"><ele>376.0</ele><time>2026-04-22T11:50:01.999Z</time></trkpt><trkpt lat="42.63472340175538" lon="12.501814319800907"><ele>376.0</ele><time>2026-04-22T11:50:02.999Z</time></trkpt><trkpt lat="42.63461863553549" lon="12.501888501136156"><ele>376.0</ele><time>2026-04-22T11:50:03.999Z</time></trkpt><trkpt lat="42.6345374988149" lon="12.50197720895475"><ele>376.0</ele><time>2026-04-22T11:50:04.999Z</time></trkpt><trkpt lat="42.63445872974206" lon="12.502046803321427"><ele>373.25</ele><time>2026-04-22T11:50:05.999Z</time></trkpt><trkpt lat="42.63435072844657" lon="12.502177538257024"><ele>370.5</ele><time>2026-04-22T11:50:06.999Z</time></trkpt><trkpt lat="42.63424975919927" lon="12.502337552531198"><ele>367.75</ele><time>2026-04-22T11:50:07.999Z</time></trkpt><trkpt lat="42.63419202516746" lon="12.502456756868595"><ele>365.0</ele><time>2026-04-22T11:50:08.999Z</time></trkpt><trkpt lat="42.63412654133609" lon="12.502611561239618"><ele>365.0</ele><time>2026-04-22T11:50:09.999Z</time></trkpt><trkpt lat="42.6340609504832" lon="12.502775812870343"><ele>365.0</ele><time>2026-04-22T11:50:10.999Z</time></trkpt><trkpt lat="42.63402564155659" lon="12.502944426090908"><ele>365.0</ele><time>2026-04-22T11:50:11.999Z</time></trkpt><trkpt lat="42.63399986278465" lon="12.503110257973606"><ele>365.0</ele><time>2026-04-22T11:50:12.999Z</time></trkpt><trkpt lat="42.63398663100477" lon="12.503296185029061"><ele>361.75</ele><time>2026-04-22T11:50:13.999Z</time></trkpt><trkpt lat="42.633968634066655" lon="12.503466461281795"><ele>358.5</ele><time>2026-04-22T11:50:14.999Z</time></trkpt><trkpt lat="42.63393801384578" lon="12.503625156986661"><ele>355.25</ele><time>2026-04-22T11:50:15.999Z</time></trkpt><trkpt lat="42.6339085796852" lon="12.503787562637436"><ele>352.0</ele><time>2026-04-22T11:50:16.999Z</time></trkpt><trkpt lat="42.633884325753144" lon="12.503946507074106"><ele>349.8</ele><time>2026-04-22T11:50:17.999Z</time></trkpt><trkpt lat="42.63385840725477" lon="12.504105744382802"><ele>347.6</ele><time>2026-04-22T11:50:18.999Z</time></trkpt><trkpt lat="42.633834189834666" lon="12.504268434756888"><ele>345.40000000000003</ele><time>2026-04-22T11:50:19.999Z</time></trkpt><trkpt lat="42.63380162977468" lon="12.504371741680854"><ele>343.20000000000005</ele><time>2026-04-22T11:50:20.999Z</time></trkpt><trkpt lat="42.63378034766333" lon="12.504498332555233"><ele>341.0</ele><time>2026-04-22T11:50:21.999Z</time></trkpt><trkpt lat="42.63379169933761" lon="12.50465984596261"><ele>338.5</ele><time>2026-04-22T11:50:22.999Z</time></trkpt><trkpt lat="42.63380285063835" lon="12.504835738093478"><ele>336.0</ele><time>2026-04-22T11:50:23.999Z</time></trkpt><trkpt lat="42.63383691955569" lon="12.505002580932688"><ele>333.5</ele><time>2026-04-22T11:50:24.999Z</time></trkpt><trkpt lat="42.633864839307655" lon="12.505149248150325"><ele>331.0</ele><time>2026-04-22T11:50:25.999Z</time></trkpt><trkpt lat="42.6338883819315" lon="12.505292974835765"><ele>329.5</ele><time>2026-04-22T11:50:26.999Z</time></trkpt><trkpt lat="42.63389526336113" lon="12.505432043388195"><ele>328.0</ele><time>2026-04-22T11:50:27.999Z</time></trkpt><trkpt lat="42.633888766305134" lon="12.505640065899886"><ele>326.5</ele><time>2026-04-22T11:50:28.999Z</time></trkpt><trkpt lat="42.63387771536841" lon="12.505879722750146"><ele>325.0</ele><time>2026-04-22T11:50:29.999Z</time></trkpt><trkpt lat="42.63386737127463" lon="12.506033279771552"><ele>324.25</ele><time>2026-04-22T11:50:30.999Z</time></trkpt><trkpt lat="42.63384508881483" lon="12.506267157485123"><ele>323.5</ele><time>2026-04-22T11:50:31.999Z</time></trkpt><trkpt lat="42.633817880190875" lon="12.506423326357808"><ele>322.75</ele><time>2026-04-22T11:50:32.999Z</time></trkpt><trkpt lat="42.63377025773713" lon="12.50656612073136"><ele>322.0</ele><time>2026-04-22T11:50:33.999Z</time></trkpt><trkpt lat="42.6337010450841" lon="12.506732178997106"><ele>322.0</ele><time>2026-04-22T11:50:34.999Z</time></trkpt><trkpt lat="42.63365639672742" lon="12.506828976896374"><ele>322.0</ele><time>2026-04-22T11:50:35.999Z</time></trkpt><trkpt lat="42.633556270331965" lon="12.506997491436543"><ele>322.0</ele><time>2026-04-22T11:50:36.999Z</time></trkpt><trkpt lat="42.63345518685349" lon="12.507153459220495"><ele>322.0</ele><time>2026-04-22T11:50:37.999Z</time></trkpt><trkpt lat="42.63336773112983" lon="12.507267760775298"><ele>321.0</ele><time>2026-04-22T11:50:38.999Z</time></trkpt><trkpt lat="42.633270600457024" lon="12.507389006049348"><ele>320.0</ele><time>2026-04-22T11:50:39.999Z</time></trkpt><trkpt lat="42.63317012308893" lon="12.50751877194154"><ele>319.0</ele><time>2026-04-22T11:50:40.999Z</time></trkpt><trkpt lat="42.633065852137634" lon="12.507654937143434"><ele>318.0</ele><time>2026-04-22T11:50:41.999Z</time></trkpt><trkpt lat="42.632973715806315" lon="12.507813775076283"><ele>315.5</ele><time>2026-04-22T11:50:42.999Z</time></trkpt><trkpt lat="42.63287603083139" lon="12.507943044483792"><ele>313.0</ele><time>2026-04-22T11:50:43.999Z</time></trkpt><trkpt lat="42.63280011115075" lon="12.50807118405372"><ele>310.5</ele><time>2026-04-22T11:50:44.999Z</time></trkpt><trkpt lat="42.632758037342754" lon="12.508212518640931"><ele>308.0</ele><time>2026-04-22T11:50:45.999Z</time></trkpt><trkpt lat="42.632735794270886" lon="12.508367202398205"><ele>305.75</ele><time>2026-04-22T11:50:46.999Z</time></trkpt><trkpt lat="42.632707944759375" lon="12.508534583499413"><ele>303.5</ele><time>2026-04-22T11:50:47.999Z</time></trkpt><trkpt lat="42.63267329974187" lon="12.508714814262577"><ele>301.25</ele><time>2026-04-22T11:50:48.999Z</time></trkpt><trkpt lat="42.63264116648627" lon="12.508890873984397"><ele>299.0</ele><time>2026-04-22T11:50:49.999Z</time></trkpt><trkpt lat="42.632606480304894" lon="12.509072376146458"><ele>297.75</ele><time>2026-04-22T11:50:50.999Z</time></trkpt><trkpt lat="42.63257283409475" lon="12.509243338249707"><ele>296.5</ele><time>2026-04-22T11:50:51.999Z</time></trkpt><trkpt lat="42.63254335177731" lon="12.509386844656879"><ele>295.25</ele><time>2026-04-22T11:50:52.999Z</time></trkpt><trkpt lat="42.63251054009535" lon="12.509545423221178"><ele>294.0</ele><time>2026-04-22T11:50:53.999Z</time></trkpt><trkpt lat="42.63247720858254" lon="12.509715360653495"><ele>292.5</ele><time>2026-04-22T11:50:54.999Z</time></trkpt><trkpt lat="42.632438133299765" lon="12.50989398400882"><ele>291.0</ele><time>2026-04-22T11:50:55.999Z</time></trkpt><trkpt lat="42.63240088443189" lon="12.510062267468214"><ele>289.5</ele><time>2026-04-22T11:50:56.999Z</time></trkpt><trkpt lat="42.63236448767056" lon="12.510215756848774"><ele>288.0</ele><time>2026-04-22T11:50:57.999Z</time></trkpt><trkpt lat="42.632330751337726" lon="12.510371133235974"><ele>285.75</ele><time>2026-04-22T11:50:58.999Z</time></trkpt><trkpt lat="42.632295929198555" lon="12.51051526253554"><ele>283.5</ele><time>2026-04-22T11:50:59.999Z</time></trkpt><trkpt lat="42.63227450589383" lon="12.510673142469003"><ele>281.25</ele><time>2026-04-22T11:51:00.999Z</time></trkpt><trkpt lat="42.63224846885584" lon="12.510824184216654"><ele>279.0</ele><time>2026-04-22T11:51:01.999Z</time></trkpt><trkpt lat="42.6321630596546" lon="12.511069360963454"><ele>279.0</ele><time>2026-04-22T11:51:03.999Z</time></trkpt><trkpt lat="42.632135542436735" lon="12.511218800064137"><ele>279.0</ele><time>2026-04-22T11:51:04.999Z</time></trkpt><trkpt lat="42.63210798168479" lon="12.511348492338083"><ele>279.0</ele><time>2026-04-22T11:51:05.999Z</time></trkpt><trkpt lat="42.63210290190431" lon="12.511476413471017"><ele>279.0</ele><time>2026-04-22T11:51:06.999Z</time></trkpt><trkpt lat="42.632129493069904" lon="12.511595433252015"><ele>279.0</ele><time>2026-04-22T11:51:07.999Z</time></trkpt><trkpt lat="42.63217047891819" lon="12.511705607887256"><ele>277.0</ele><time>2026-04-22T11:51:08.999Z</time></trkpt><trkpt lat="42.632158843887424" lon="12.511827291189656"><ele>275.0</ele><time>2026-04-22T11:51:09.999Z</time></trkpt><trkpt lat="42.632154841046535" lon="12.511950483705185"><ele>273.0</ele><time>2026-04-22T11:51:10.999Z</time></trkpt><trkpt lat="42.632161675548026" lon="12.512071010094637"><ele>271.0</ele><time>2026-04-22T11:51:11.999Z</time></trkpt><trkpt lat="42.63214614326323" lon="12.512189676691703"><ele>269.0</ele><time>2026-04-22T11:51:12.999Z</time></trkpt><trkpt lat="42.63210568646339" lon="12.512318278469008"><ele>267.0</ele><time>2026-04-22T11:51:13.999Z</time></trkpt><trkpt lat="42.63207163485283" lon="12.512468529494543"><ele>265.0</ele><time>2026-04-22T11:51:14.999Z</time></trkpt><trkpt lat="42.63205516197467" lon="12.512593376807368"><ele>263.0</ele><time>2026-04-22T11:51:15.999Z</time></trkpt><trkpt lat="42.63201162778098" lon="12.512716553028726"><ele>261.0</ele><time>2026-04-22T11:51:16.999Z</time></trkpt><trkpt lat="42.6319990805229" lon="12.512858276637738"><ele>259.0</ele><time>2026-04-22T11:51:17.999Z</time></trkpt><trkpt lat="42.631974091514316" lon="12.512999263157642"><ele>257.4</ele><time>2026-04-22T11:51:19Z</time></trkpt><trkpt lat="42.63195080507249" lon="12.513147217312811"><ele>255.79999999999998</ele><time>2026-04-22T11:51:20Z</time></trkpt><trkpt lat="42.63192987881329" lon="12.513288570771698"><ele>254.20000000000002</ele><time>2026-04-22T11:51:21Z</time></trkpt><trkpt lat="42.6319046998099" lon="12.513435302091326"><ele>252.60000000000002</ele><time>2026-04-22T11:51:22Z</time></trkpt><trkpt lat="42.631877355110014" lon="12.513576831081451"><ele>251.0</ele><time>2026-04-22T11:51:23Z</time></trkpt><trkpt lat="42.63184803933207" lon="12.513722567619505"><ele>248.75</ele><time>2026-04-22T11:51:24Z</time></trkpt><trkpt lat="42.63181409155414" lon="12.513864624203926"><ele>246.5</ele><time>2026-04-22T11:51:25Z</time></trkpt><trkpt lat="42.631766318954746" lon="12.514003442995572"><ele>244.25</ele><time>2026-04-22T11:51:26Z</time></trkpt><trkpt lat="42.63173243532604" lon="12.514158849831528"><ele>242.0</ele><time>2026-04-22T11:51:27Z</time></trkpt><trkpt lat="42.631703670623274" lon="12.514312442202876"><ele>242.0</ele><time>2026-04-22T11:51:28Z</time></trkpt><trkpt lat="42.63168154047527" lon="12.514460130129278"><ele>242.0</ele><time>2026-04-22T11:51:29Z</time></trkpt><trkpt lat="42.631641939446176" lon="12.514570904633652"><ele>242.0</ele><time>2026-04-22T11:51:30Z</time></trkpt><trkpt lat="42.63161387195622" lon="12.514698271732543"><ele>242.0</ele><time>2026-04-22T11:51:31Z</time></trkpt><trkpt lat="42.63157657096881" lon="12.514851590921152"><ele>242.0</ele><time>2026-04-22T11:51:32Z</time></trkpt><trkpt lat="42.63150822075244" lon="12.515011064998587"><ele>240.2</ele><time>2026-04-22T11:51:33Z</time></trkpt><trkpt lat="42.63144586937609" lon="12.515146838456264"><ele>238.39999999999998</ele><time>2026-04-22T11:51:34Z</time></trkpt><trkpt lat="42.631386515533784" lon="12.515271789645846"><ele>236.60000000000002</ele><time>2026-04-22T11:51:35Z</time></trkpt><trkpt lat="42.63132887374821" lon="12.51539103280912"><ele>234.8</ele><time>2026-04-22T11:51:36Z</time></trkpt><trkpt lat="42.63126812053683" lon="12.51549787743611"><ele>233.0</ele><time>2026-04-22T11:51:36.999Z</time></trkpt><trkpt lat="42.63120217980304" lon="12.515595212192746"><ele>231.2</ele><time>2026-04-22T11:51:37.999Z</time></trkpt><trkpt lat="42.631124667113795" lon="12.515676489429426"><ele>229.4</ele><time>2026-04-22T11:51:38.999Z</time></trkpt><trkpt lat="42.631039006023705" lon="12.515750361596442"><ele>227.59999999999997</ele><time>2026-04-22T11:51:39.999Z</time></trkpt><trkpt lat="42.63094924784125" lon="12.515825403027282"><ele>225.79999999999998</ele><time>2026-04-22T11:51:40.999Z</time></trkpt><trkpt lat="42.63085574639961" lon="12.515902085515227"><ele>224.0</ele><time>2026-04-22T11:51:41.999Z</time></trkpt><trkpt lat="42.630741425582556" lon="12.515995842423562"><ele>224.0</ele><time>2026-04-22T11:51:42.999Z</time></trkpt><trkpt lat="42.63065936302607" lon="12.51606458582808"><ele>223.99999999999997</ele><time>2026-04-22T11:51:43.999Z</time></trkpt><trkpt lat="42.6305786353971" lon="12.51613556101618"><ele>223.99999999999997</ele><time>2026-04-22T11:51:44.999Z</time></trkpt><trkpt lat="42.63049589860442" lon="12.516212735098339"><ele>224.0</ele><time>2026-04-22T11:51:45.999Z</time></trkpt><trkpt lat="42.63042269873937" lon="12.51628616997889"><ele>224.0</ele><time>2026-04-22T11:51:46.999Z</time></trkpt><trkpt lat="42.630330862847394" lon="12.516373869711936"><ele>221.0</ele><time>2026-04-22T11:51:47.999Z</time></trkpt><trkpt lat="42.63024128036002" lon="12.516440230281349"><ele>217.99999999999997</ele><time>2026-04-22T11:51:48.999Z</time></trkpt><trkpt lat="42.63014235577047" lon="12.51649520789655"><ele>215.0</ele><time>2026-04-22T11:51:49.999Z</time></trkpt><trkpt lat="42.630032802613854" lon="12.516533364568284"><ele>212.0</ele><time>2026-04-22T11:51:50.999Z</time></trkpt><trkpt lat="42.629918468587334" lon="12.516559143903306"><ele>209.0</ele><time>2026-04-22T11:51:51.999Z</time></trkpt><trkpt lat="42.62979504890884" lon="12.51658158174902"><ele>209.0</ele><time>2026-04-22T11:51:52.999Z</time></trkpt><trkpt lat="42.62966923587976" lon="12.51660176396672"><ele>209.0</ele><time>2026-04-22T11:51:53.999Z</time></trkpt><trkpt lat="42.62954442280863" lon="12.516619822998258"><ele>209.0</ele><time>2026-04-22T11:51:54.999Z</time></trkpt><trkpt lat="42.629434805822946" lon="12.516635683332398"><ele>209.0</ele><time>2026-04-22T11:51:55.999Z</time></trkpt><trkpt lat="42.62933325237984" lon="12.516659759922225"><ele>204.66666666666669</ele><time>2026-04-22T11:51:56.999Z</time></trkpt><trkpt lat="42.6291875718699" lon="12.516684503828063"><ele>200.33333333333331</ele><time>2026-04-22T11:51:57.999Z</time></trkpt><trkpt lat="42.629001772634666" lon="12.516700653742506"><ele>196.0</ele><time>2026-04-22T11:51:58.999Z</time></trkpt><trkpt lat="42.628798861744855" lon="12.516740648153705"><ele>196.0</ele><time>2026-04-22T11:51:59.999Z</time></trkpt><trkpt lat="42.628678676727695" lon="12.51674961790574"><ele>196.0</ele><time>2026-04-22T11:52:00.999Z</time></trkpt><trkpt lat="42.628524701227725" lon="12.516772735459826"><ele>196.0</ele><time>2026-04-22T11:52:01.999Z</time></trkpt><trkpt lat="42.628370749108875" lon="12.51679546360802"><ele>196.0</ele><time>2026-04-22T11:52:02.999Z</time></trkpt><trkpt lat="42.62822560302106" lon="12.516818214233213"><ele>196.66666666666666</ele><time>2026-04-22T11:52:03.999Z</time></trkpt><trkpt lat="42.62807587382116" lon="12.516845953090844"><ele>197.33333333333331</ele><time>2026-04-22T11:52:04.999Z</time></trkpt><trkpt lat="42.62792175456248" lon="12.516879309475613"><ele>198.0</ele><time>2026-04-22T11:52:05.999Z</time></trkpt><trkpt lat="42.62776683794792" lon="12.516921499994236"><ele>198.0</ele><time>2026-04-22T11:52:06.999Z</time></trkpt><trkpt lat="42.62762351065857" lon="12.516984028905615"><ele>198.0</ele><time>2026-04-22T11:52:07.999Z</time></trkpt><trkpt lat="42.627480942386505" lon="12.517026925516342"><ele>198.0</ele><time>2026-04-22T11:52:08.999Z</time></trkpt><trkpt lat="42.627324734712865" lon="12.517051095928018"><ele>195.66666666666666</ele><time>2026-04-22T11:52:09.999Z</time></trkpt><trkpt lat="42.62716858581348" lon="12.517092268429167"><ele>193.33333333333331</ele><time>2026-04-22T11:52:10.999Z</time></trkpt><trkpt lat="42.6268999116216" lon="12.517211190981497"><ele>191.0</ele><time>2026-04-22T11:52:12.999Z</time></trkpt><trkpt lat="42.62679351966858" lon="12.517275273331007"><ele>191.0</ele><time>2026-04-22T11:52:13.999Z</time></trkpt><trkpt lat="42.62670462692651" lon="12.51733786909972"><ele>191.0</ele><time>2026-04-22T11:52:14.999Z</time></trkpt><trkpt lat="42.62661343607506" lon="12.517422859050031"><ele>191.0</ele><time>2026-04-22T11:52:15.999Z</time></trkpt><trkpt lat="42.626497589865686" lon="12.517500223306696"><ele>191.0</ele><time>2026-04-22T11:52:16.999Z</time></trkpt><trkpt lat="42.62636995739167" lon="12.517575188707614"><ele>191.0</ele><time>2026-04-22T11:52:17.999Z</time></trkpt><trkpt lat="42.6262324134698" lon="12.517651583290803"><ele>191.0</ele><time>2026-04-22T11:52:18.999Z</time></trkpt><trkpt lat="42.62608722921185" lon="12.517714203099578"><ele>191.0</ele><time>2026-04-22T11:52:19.999Z</time></trkpt><trkpt lat="42.62594420213441" lon="12.517768224916658"><ele>191.0</ele><time>2026-04-22T11:52:20.999Z</time></trkpt><trkpt lat="42.625819475008356" lon="12.51782612575475"><ele>191.0</ele><time>2026-04-22T11:52:21.999Z</time></trkpt><trkpt lat="42.62565689779512" lon="12.517859844660695"><ele>191.0</ele><time>2026-04-22T11:52:22.999Z</time></trkpt><trkpt lat="42.62551262514713" lon="12.517899193441169"><ele>191.0</ele><time>2026-04-22T11:52:23.999Z</time></trkpt><trkpt lat="42.625398190464146" lon="12.517895139585873"><ele>191.0</ele><time>2026-04-22T11:52:24.999Z</time></trkpt><trkpt lat="42.62528346970001" lon="12.517882726924395"><ele>190.8</ele><time>2026-04-22T11:52:25.999Z</time></trkpt><trkpt lat="42.62516520591059" lon="12.517853381117778"><ele>190.60000000000002</ele><time>2026-04-22T11:52:26.999Z</time></trkpt><trkpt lat="42.62504685499178" lon="12.517803390078905"><ele>190.4</ele><time>2026-04-22T11:52:27.999Z</time></trkpt><trkpt lat="42.62494931448717" lon="12.517755196926153"><ele>190.2</ele><time>2026-04-22T11:52:28.999Z</time></trkpt><trkpt lat="42.62488514863716" lon="12.517728822072636"><ele>190.0</ele><time>2026-04-22T11:52:29.999Z</time></trkpt><trkpt lat="42.62482827059794" lon="12.51780812613124"><ele>190.0</ele><time>2026-04-22T11:52:31.999Z</time></trkpt><trkpt lat="42.62481739363982" lon="12.517943046001632"><ele>190.0</ele><time>2026-04-22T11:52:33.999Z</time></trkpt><trkpt lat="42.62482452154771" lon="12.518029343533588"><ele>190.0</ele><time>2026-04-22T11:52:34.999Z</time></trkpt><trkpt lat="42.62484823040424" lon="12.518115053123086"><ele>190.0</ele><time>2026-04-22T11:52:35.999Z</time></trkpt><trkpt lat="42.624878620833066" lon="12.51822391373641"><ele>190.0</ele><time>2026-04-22T11:52:36.999Z</time></trkpt><trkpt lat="42.624910314365216" lon="12.518331001077959"><ele>190.0</ele><time>2026-04-22T11:52:37.999Z</time></trkpt><trkpt lat="42.624916209716616" lon="12.51845867732922"><ele>190.0</ele><time>2026-04-22T11:52:38.999Z</time></trkpt><trkpt lat="42.624948422989135" lon="12.518592887130989"><ele>190.0</ele><time>2026-04-22T11:52:39.999Z</time></trkpt><trkpt lat="42.62499901272414" lon="12.518712996838365"><ele>190.0</ele><time>2026-04-22T11:52:40.999Z</time></trkpt><trkpt lat="42.62501215493153" lon="12.518846720939848"><ele>190.0</ele><time>2026-04-22T11:52:41.999Z</time></trkpt><trkpt lat="42.62507492086723" lon="12.51897270501446"><ele>190.0</ele><time>2026-04-22T11:52:42.999Z</time></trkpt><trkpt lat="42.625127784312866" lon="12.5190376056237"><ele>190.83333333333334</ele><time>2026-04-22T11:52:43.999Z</time></trkpt><trkpt lat="42.625243945869286" lon="12.519050383668088"><ele>191.66666666666669</ele><time>2026-04-22T11:52:45.999Z</time></trkpt><trkpt lat="42.6253149070109" lon="12.519033136355114"><ele>192.5</ele><time>2026-04-22T11:52:46.999Z</time></trkpt><trkpt lat="42.625393694107615" lon="12.519027224520164"><ele>193.33333333333334</ele><time>2026-04-22T11:52:47.999Z</time></trkpt><trkpt lat="42.62547508066665" lon="12.519034562406118"><ele>194.16666666666666</ele><time>2026-04-22T11:52:48.999Z</time></trkpt><trkpt lat="42.625568475775225" lon="12.519062308777926"><ele>195.0</ele><time>2026-04-22T11:52:49.999Z</time></trkpt><trkpt lat="42.62564085989602" lon="12.519120242542146"><ele>196.8</ele><time>2026-04-22T11:52:50.999Z</time></trkpt><trkpt lat="42.62570932917994" lon="12.519160561488496"><ele>198.6</ele><time>2026-04-22T11:52:51.999Z</time></trkpt><trkpt lat="42.62581872868587" lon="12.519270994628553"><ele>200.39999999999998</ele><time>2026-04-22T11:52:53.999Z</time></trkpt><trkpt lat="42.62589146265599" lon="12.519348175265256"><ele>202.2</ele><time>2026-04-22T11:52:54.999Z</time></trkpt><trkpt lat="42.625963818093204" lon="12.519417929674065"><ele>204.0</ele><time>2026-04-22T11:52:55.999Z</time></trkpt><trkpt lat="42.626044694589" lon="12.519476658782281"><ele>204.0</ele><time>2026-04-22T11:52:56.999Z</time></trkpt><trkpt lat="42.626118378752196" lon="12.519547104580301"><ele>204.0</ele><time>2026-04-22T11:52:57.999Z</time></trkpt><trkpt lat="42.626196669142715" lon="12.519605430426516"><ele>204.0</ele><time>2026-04-22T11:52:58.999Z</time></trkpt><trkpt lat="42.62627082574011" lon="12.519638187729146"><ele>204.0</ele><time>2026-04-22T11:52:59.999Z</time></trkpt><trkpt lat="42.62641106357391" lon="12.519610640779922"><ele>204.0</ele><time>2026-04-22T11:53:01.999Z</time></trkpt><trkpt lat="42.62647797599959" lon="12.519567199870208"><ele>206.5</ele><time>2026-04-22T11:53:02.999Z</time></trkpt><trkpt lat="42.62656252773853" lon="12.519577637092322"><ele>209.0</ele><time>2026-04-22T11:53:04.999Z</time></trkpt><trkpt lat="42.62654424301092" lon="12.519699898736613"><ele>211.5</ele><time>2026-04-22T11:53:08.999Z</time></trkpt><trkpt lat="42.626496527194696" lon="12.519757051151748"><ele>214.0</ele><time>2026-04-22T11:53:09.999Z</time></trkpt><trkpt lat="42.6264540679413" lon="12.519832617819322"><ele>216.5</ele><time>2026-04-22T11:53:10.999Z</time></trkpt><trkpt lat="42.62642859531212" lon="12.519921030621404"><ele>219.0</ele><time>2026-04-22T11:53:11.999Z</time></trkpt><trkpt lat="42.626396172346624" lon="12.520036677020073"><ele>219.0</ele><time>2026-04-22T11:53:12.999Z</time></trkpt><trkpt lat="42.626366527400116" lon="12.520161770169596"><ele>218.99999999999997</ele><time>2026-04-22T11:53:13.999Z</time></trkpt><trkpt lat="42.62633980887857" lon="12.52028873722769"><ele>218.99999999999997</ele><time>2026-04-22T11:53:14.999Z</time></trkpt><trkpt lat="42.62631230699218" lon="12.520425171615642"><ele>219.0</ele><time>2026-04-22T11:53:15.999Z</time></trkpt><trkpt lat="42.62628686663735" lon="12.520561735197766"><ele>219.0</ele><time>2026-04-22T11:53:16.999Z</time></trkpt><trkpt lat="42.6262482046719" lon="12.520712108652775"><ele>219.5</ele><time>2026-04-22T11:53:17.999Z</time></trkpt><trkpt lat="42.62621388162337" lon="12.520873102107686"><ele>220.0</ele><time>2026-04-22T11:53:18.999Z</time></trkpt><trkpt lat="42.626178202854874" lon="12.521027028935636"><ele>220.5</ele><time>2026-04-22T11:53:19.999Z</time></trkpt><trkpt lat="42.62613901673803" lon="12.521193209317047"><ele>221.0</ele><time>2026-04-22T11:53:20.999Z</time></trkpt><trkpt lat="42.626104938558406" lon="12.521354454449423"><ele>222.4</ele><time>2026-04-22T11:53:21.999Z</time></trkpt><trkpt lat="42.626073169454415" lon="12.521479565959863"><ele>223.8</ele><time>2026-04-22T11:53:22.999Z</time></trkpt><trkpt lat="42.62604774845531" lon="12.521584642241905"><ele>225.20000000000002</ele><time>2026-04-22T11:53:23.999Z</time></trkpt><trkpt lat="42.62606929351949" lon="12.521672091585032"><ele>226.60000000000002</ele><time>2026-04-22T11:53:25Z</time></trkpt><trkpt lat="42.62614145291387" lon="12.521809975052014"><ele>228.0</ele><time>2026-04-22T11:53:27Z</time></trkpt><trkpt lat="42.62622022012459" lon="12.521865777452472"><ele>228.8</ele><time>2026-04-22T11:53:28Z</time></trkpt><trkpt lat="42.62630738375855" lon="12.52192160744328"><ele>229.60000000000002</ele><time>2026-04-22T11:53:29Z</time></trkpt><trkpt lat="42.62640664768693" lon="12.521980591070438"><ele>230.39999999999998</ele><time>2026-04-22T11:53:30Z</time></trkpt><trkpt lat="42.62650925823799" lon="12.52206227407533"><ele>231.2</ele><time>2026-04-22T11:53:31Z</time></trkpt><trkpt lat="42.62660969232149" lon="12.522145107478666"><ele>232.0</ele><time>2026-04-22T11:53:32Z</time></trkpt><trkpt lat="42.62670402812125" lon="12.522236866636462"><ele>232.33333333333331</ele><time>2026-04-22T11:53:33Z</time></trkpt><trkpt lat="42.626786960519155" lon="12.52230948955199"><ele>232.66666666666666</ele><time>2026-04-22T11:53:34Z</time></trkpt><trkpt lat="42.626850094566635" lon="12.52234551193312"><ele>233.0</ele><time>2026-04-22T11:53:35Z</time></trkpt><trkpt lat="42.62692581659595" lon="12.522328333281772"><ele>233.33333333333331</ele><time>2026-04-22T11:53:36Z</time></trkpt><trkpt lat="42.627004631667184" lon="12.52226837002998"><ele>233.66666666666666</ele><time>2026-04-22T11:53:37Z</time></trkpt><trkpt lat="42.62708149449559" lon="12.522172639292437"><ele>234.0</ele><time>2026-04-22T11:53:38Z</time></trkpt><trkpt lat="42.627163448199695" lon="12.522062965917646"><ele>234.0</ele><time>2026-04-22T11:53:39Z</time></trkpt><trkpt lat="42.62725146532574" lon="12.521984454916891"><ele>233.99999999999997</ele><time>2026-04-22T11:53:40Z</time></trkpt><trkpt lat="42.62731424678697" lon="12.521930097360695"><ele>233.99999999999997</ele><time>2026-04-22T11:53:41Z</time></trkpt><trkpt lat="42.62739965101114" lon="12.521891112450696"><ele>234.0</ele><time>2026-04-22T11:53:42Z</time></trkpt><trkpt lat="42.62749174465445" lon="12.521886179574356"><ele>234.0</ele><time>2026-04-22T11:53:43Z</time></trkpt><trkpt lat="42.62759451381866" lon="12.521882850454523"><ele>234.0</ele><time>2026-04-22T11:53:44Z</time></trkpt><trkpt lat="42.62770339914183" lon="12.521884239440514"><ele>234.0</ele><time>2026-04-22T11:53:45Z</time></trkpt><trkpt lat="42.627810298461874" lon="12.521888315850491"><ele>234.0</ele><time>2026-04-22T11:53:46Z</time></trkpt><trkpt lat="42.62793437519427" lon="12.521887974235245"><ele>234.0</ele><time>2026-04-22T11:53:47Z</time></trkpt><trkpt lat="42.628065211167545" lon="12.521894342881517"><ele>235.0</ele><time>2026-04-22T11:53:48Z</time></trkpt><trkpt lat="42.628200447062646" lon="12.521896578433894"><ele>236.0</ele><time>2026-04-22T11:53:49Z</time></trkpt><trkpt lat="42.628337718398306" lon="12.521899319086716"><ele>237.0</ele><time>2026-04-22T11:53:50Z</time></trkpt><trkpt lat="42.628458884655856" lon="12.521907894941968"><ele>238.0</ele><time>2026-04-22T11:53:51Z</time></trkpt><trkpt lat="42.628536764894776" lon="12.52195363034236"><ele>238.0</ele><time>2026-04-22T11:53:52Z</time></trkpt><trkpt lat="42.628610963395865" lon="12.522015555871837"><ele>238.0</ele><time>2026-04-22T11:53:54Z</time></trkpt><trkpt lat="42.62860808830711" lon="12.522158454579145"><ele>238.0</ele><time>2026-04-22T11:53:56Z</time></trkpt><trkpt lat="42.62861288057146" lon="12.522287962692118"><ele>238.0</ele><time>2026-04-22T11:53:58Z</time></trkpt><trkpt lat="42.628589166128634" lon="12.522484627498587"><ele>238.0</ele><time>2026-04-22T11:54:00Z</time></trkpt><trkpt lat="42.628569806665936" lon="12.522608647425953"><ele>240.0</ele><time>2026-04-22T11:54:01Z</time></trkpt><trkpt lat="42.62854839248607" lon="12.522762079243037"><ele>242.0</ele><time>2026-04-22T11:54:02Z</time></trkpt><trkpt lat="42.62852836772667" lon="12.522906774225339"><ele>244.0</ele><time>2026-04-22T11:54:03Z</time></trkpt><trkpt lat="42.628514951929624" lon="12.523048567642732"><ele>246.0</ele><time>2026-04-22T11:54:04Z</time></trkpt><trkpt lat="42.62850781327801" lon="12.523181549104434"><ele>248.0</ele><time>2026-04-22T11:54:05Z</time></trkpt><trkpt lat="42.62847913352118" lon="12.523364903199917"><ele>250.25</ele><time>2026-04-22T11:54:06Z</time></trkpt><trkpt lat="42.6284602060515" lon="12.52353766536685"><ele>252.5</ele><time>2026-04-22T11:54:06.999Z</time></trkpt><trkpt lat="42.62844180321268" lon="12.523709464588782"><ele>254.75</ele><time>2026-04-22T11:54:07.999Z</time></trkpt><trkpt lat="42.628422118845954" lon="12.523879345758523"><ele>257.0</ele><time>2026-04-22T11:54:08.999Z</time></trkpt><trkpt lat="42.62839633047646" lon="12.524047565995058"><ele>259.4</ele><time>2026-04-22T11:54:09.999Z</time></trkpt><trkpt lat="42.628382950011535" lon="12.52419532924353"><ele>261.79999999999995</ele><time>2026-04-22T11:54:10.999Z</time></trkpt><trkpt lat="42.62836880166729" lon="12.524348753786878"><ele>264.2</ele><time>2026-04-22T11:54:11.999Z</time></trkpt><trkpt lat="42.62834902170633" lon="12.524488947490767"><ele>266.59999999999997</ele><time>2026-04-22T11:54:12.999Z</time></trkpt><trkpt lat="42.62835258172299" lon="12.524600833545563"><ele>269.0</ele><time>2026-04-22T11:54:13.999Z</time></trkpt><trkpt lat="42.62843252459769" lon="12.524708893567196"><ele>270.8</ele><time>2026-04-22T11:54:15.999Z</time></trkpt><trkpt lat="42.62849872295973" lon="12.524748426934808"><ele>272.59999999999997</ele><time>2026-04-22T11:54:16.999Z</time></trkpt><trkpt lat="42.62858658234726" lon="12.524809606921323"><ele>274.4</ele><time>2026-04-22T11:54:17.999Z</time></trkpt><trkpt lat="42.62866275783622" lon="12.524878253137631"><ele>276.2</ele><time>2026-04-22T11:54:18.999Z</time></trkpt><trkpt lat="42.628749951465245" lon="12.52497702655335"><ele>278.0</ele><time>2026-04-22T11:54:19.999Z</time></trkpt><trkpt lat="42.628815565870454" lon="12.525050075515027"><ele>278.0</ele><time>2026-04-22T11:54:20.999Z</time></trkpt><trkpt lat="42.628863552095765" lon="12.525179389220499"><ele>278.0</ele><time>2026-04-22T11:54:22.999Z</time></trkpt><trkpt lat="42.628860101374144" lon="12.52526581684493"><ele>278.0</ele><time>2026-04-22T11:54:23.999Z</time></trkpt><trkpt lat="42.62882751936206" lon="12.525379135671244"><ele>278.0</ele><time>2026-04-22T11:54:24.999Z</time></trkpt><trkpt lat="42.628765903203025" lon="12.525494549842099"><ele>278.0</ele><time>2026-04-22T11:54:25.999Z</time></trkpt><trkpt lat="42.628708508092565" lon="12.525626252067026"><ele>279.33333333333337</ele><time>2026-04-22T11:54:26.999Z</time></trkpt><trkpt lat="42.628672173875415" lon="12.525727046910388"><ele>280.6666666666667</ele><time>2026-04-22T11:54:27.999Z</time></trkpt><trkpt lat="42.628614628522605" lon="12.525781914668057"><ele>282.0</ele><time>2026-04-22T11:54:28.999Z</time></trkpt><trkpt lat="42.6285598337576" lon="12.525827868868857"><ele>283.3333333333333</ele><time>2026-04-22T11:54:29.999Z</time></trkpt><trkpt lat="42.628485076316444" lon="12.525831561089346"><ele>284.66666666666663</ele><time>2026-04-22T11:54:30.999Z</time></trkpt><trkpt lat="42.62838452260053" lon="12.525879833514434"><ele>286.0</ele><time>2026-04-22T11:54:31.999Z</time></trkpt><trkpt lat="42.62830225073365" lon="12.525922760732087"><ele>287.0</ele><time>2026-04-22T11:54:32.999Z</time></trkpt><trkpt lat="42.62823233726652" lon="12.525978226354532"><ele>288.0</ele><time>2026-04-22T11:54:33.999Z</time></trkpt><trkpt lat="42.628151080148555" lon="12.526112173907999"><ele>289.0</ele><time>2026-04-22T11:54:35.999Z</time></trkpt><trkpt lat="42.62813320288741" lon="12.526221214760504"><ele>290.0</ele><time>2026-04-22T11:54:36.999Z</time></trkpt><trkpt lat="42.62811974739439" lon="12.526362076723757"><ele>291.0</ele><time>2026-04-22T11:54:37.999Z</time></trkpt><trkpt lat="42.62810400374473" lon="12.526502346639669"><ele>292.0</ele><time>2026-04-22T11:54:38.999Z</time></trkpt><trkpt lat="42.62808584148138" lon="12.526660393843496"><ele>293.0</ele><time>2026-04-22T11:54:39.999Z</time></trkpt><trkpt lat="42.6280695538963" lon="12.526795188258527"><ele>294.0</ele><time>2026-04-22T11:54:40.999Z</time></trkpt><trkpt lat="42.62801528068755" lon="12.526921619737509"><ele>295.0</ele><time>2026-04-22T11:54:42.999Z</time></trkpt><trkpt lat="42.627949293666205" lon="12.527017710525683"><ele>296.0</ele><time>2026-04-22T11:54:43.999Z</time></trkpt><trkpt lat="42.62788563214619" lon="12.527120542922757"><ele>296.33333333333337</ele><time>2026-04-22T11:54:44.999Z</time></trkpt><trkpt lat="42.627830805505425" lon="12.527251361914642"><ele>296.6666666666667</ele><time>2026-04-22T11:54:45.999Z</time></trkpt><trkpt lat="42.627793568624" lon="12.527369447989273"><ele>297.0</ele><time>2026-04-22T11:54:46.999Z</time></trkpt><trkpt lat="42.62774446262142" lon="12.527435523527792"><ele>297.3333333333333</ele><time>2026-04-22T11:54:47.999Z</time></trkpt><trkpt lat="42.62766757509774" lon="12.527444144592344"><ele>297.66666666666663</ele><time>2026-04-22T11:54:48.999Z</time></trkpt><trkpt lat="42.62758272073587" lon="12.527416349268393"><ele>298.0</ele><time>2026-04-22T11:54:49.999Z</time></trkpt><trkpt lat="42.627475422555555" lon="12.527416631333665"><ele>298.0</ele><time>2026-04-22T11:54:50.999Z</time></trkpt><trkpt lat="42.627365022077065" lon="12.52741770733212"><ele>298.0</ele><time>2026-04-22T11:54:51.999Z</time></trkpt><trkpt lat="42.62724244702267" lon="12.527435842563593"><ele>298.0</ele><time>2026-04-22T11:54:52.999Z</time></trkpt><trkpt lat="42.62712809066353" lon="12.527428484271564"><ele>298.0</ele><time>2026-04-22T11:54:53.999Z</time></trkpt><trkpt lat="42.62703127333782" lon="12.527407185859367"><ele>298.0</ele><time>2026-04-22T11:54:54.999Z</time></trkpt><trkpt lat="42.62694205221522" lon="12.527419556806512"><ele>298.0</ele><time>2026-04-22T11:54:55.999Z</time></trkpt><trkpt lat="42.6268447615983" lon="12.527395839495645"><ele>298.0</ele><time>2026-04-22T11:54:56.999Z</time></trkpt><trkpt lat="42.62672803870988" lon="12.527388738713395"><ele>298.0</ele><time>2026-04-22T11:54:57.999Z</time></trkpt><trkpt lat="42.62660741609964" lon="12.527384908443281"><ele>298.0</ele><time>2026-04-22T11:54:58.999Z</time></trkpt><trkpt lat="42.62648783881457" lon="12.527342927416099"><ele>298.0</ele><time>2026-04-22T11:54:59.999Z</time></trkpt><trkpt lat="42.6263527831159" lon="12.527410510226474"><ele>298.0</ele><time>2026-04-22T11:55:01.999Z</time></trkpt><trkpt lat="42.626261906475975" lon="12.527534622407163"><ele>298.0</ele><time>2026-04-22T11:55:03.999Z</time></trkpt><trkpt lat="42.62623451043684" lon="12.527631538834951"><ele>298.0</ele><time>2026-04-22T11:55:04.999Z</time></trkpt><trkpt lat="42.6262169963908" lon="12.527750428652697"><ele>298.0</ele><time>2026-04-22T11:55:05.999Z</time></trkpt><trkpt lat="42.626210415886405" lon="12.527872928314519"><ele>299.4</ele><time>2026-04-22T11:55:06.999Z</time></trkpt><trkpt lat="42.62619086611869" lon="12.528019859060157"><ele>300.8</ele><time>2026-04-22T11:55:07.999Z</time></trkpt><trkpt lat="42.626161705906554" lon="12.52816574721445"><ele>302.2</ele><time>2026-04-22T11:55:08.999Z</time></trkpt><trkpt lat="42.62613132738959" lon="12.528313739751045"><ele>303.6</ele><time>2026-04-22T11:55:09.999Z</time></trkpt><trkpt lat="42.626100902651025" lon="12.528458137938115"><ele>305.0</ele><time>2026-04-22T11:55:10.999Z</time></trkpt><trkpt lat="42.62607109433725" lon="12.528623085362959"><ele>310.0</ele><time>2026-04-22T11:55:11.999Z</time></trkpt><trkpt lat="42.62604888292391" lon="12.528812734358239"><ele>315.0</ele><time>2026-04-22T11:55:12.999Z</time></trkpt><trkpt lat="42.626021148641044" lon="12.528982125080939"><ele>320.0</ele><time>2026-04-22T11:55:13.999Z</time></trkpt><trkpt lat="42.625992693106625" lon="12.529123832447498"><ele>325.0</ele><time>2026-04-22T11:55:14.999Z</time></trkpt><trkpt lat="42.62598246134299" lon="12.529231924793205"><ele>325.0</ele><time>2026-04-22T11:55:15.999Z</time></trkpt><trkpt lat="42.62598464828157" lon="12.529324825496781"><ele>325.0</ele><time>2026-04-22T11:55:16.999Z</time></trkpt><trkpt lat="42.62601495751634" lon="12.529418375669616"><ele>325.0</ele><time>2026-04-22T11:55:17.999Z</time></trkpt><trkpt lat="42.62607427347635" lon="12.529520093530408"><ele>325.0</ele><time>2026-04-22T11:55:18.999Z</time></trkpt><trkpt lat="42.62613643079248" lon="12.529630221000925"><ele>325.0</ele><time>2026-04-22T11:55:19.999Z</time></trkpt><trkpt lat="42.626173658683754" lon="12.52974041753206"><ele>325.0</ele><time>2026-04-22T11:55:20.999Z</time></trkpt><trkpt lat="42.62616753862809" lon="12.529827086804795"><ele>325.0</ele><time>2026-04-22T11:55:22.999Z</time></trkpt><trkpt lat="42.626103932860886" lon="12.529753130077031"><ele>325.0</ele><time>2026-04-22T11:55:25.999Z</time></trkpt><trkpt lat="42.62605699568855" lon="12.529642881943065"><ele>325.0</ele><time>2026-04-22T11:55:27.999Z</time></trkpt><trkpt lat="42.62599580289598" lon="12.529529200637098"><ele>325.0</ele><time>2026-04-22T11:55:29.999Z</time></trkpt><trkpt lat="42.62594872346645" lon="12.52942638367032"><ele>325.0</ele><time>2026-04-22T11:55:32Z</time></trkpt><trkpt lat="42.62589041858636" lon="12.529363690589443"><ele>325.0</ele><time>2026-04-22T11:56:17Z</time></trkpt><trkpt lat="42.62596434400054" lon="12.529491348462328"><ele>326.0</ele><time>2026-04-22T11:56:36.999Z</time></trkpt><trkpt lat="42.62601738380933" lon="12.529564952447078"><ele>327.0</ele><time>2026-04-22T11:56:37.999Z</time></trkpt><trkpt lat="42.62605256795569" lon="12.529666865999067"><ele>328.0</ele><time>2026-04-22T11:56:38.999Z</time></trkpt><trkpt lat="42.6260888254978" lon="12.529747389814348"><ele>329.0</ele><time>2026-04-22T11:56:39.999Z</time></trkpt><trkpt lat="42.62613689056209" lon="12.529827081396471"><ele>330.0</ele><time>2026-04-22T11:56:40.999Z</time></trkpt><trkpt lat="42.62618927660117" lon="12.529891737667727"><ele>331.0</ele><time>2026-04-22T11:56:41.999Z</time></trkpt><trkpt lat="42.62624947191847" lon="12.529951215928595"><ele>332.0</ele><time>2026-04-22T11:56:42.999Z</time></trkpt><trkpt lat="42.6263011873064" lon="12.530008745333786"><ele>332.0</ele><time>2026-04-22T11:56:43.999Z</time></trkpt><trkpt lat="42.626357287840186" lon="12.53006772018061"><ele>332.0</ele><time>2026-04-22T11:56:44.999Z</time></trkpt><trkpt lat="42.62641811748986" lon="12.53012085523558"><ele>332.0</ele><time>2026-04-22T11:56:45.999Z</time></trkpt><trkpt lat="42.62648627717125" lon="12.53016322642831"><ele>332.0</ele><time>2026-04-22T11:56:46.999Z</time></trkpt><trkpt lat="42.62654714586993" lon="12.530226113277577"><ele>332.0</ele><time>2026-04-22T11:56:47.999Z</time></trkpt><trkpt lat="42.626622354456586" lon="12.530273351760945"><ele>332.0</ele><time>2026-04-22T11:56:48.999Z</time></trkpt><trkpt lat="42.626700517063306" lon="12.530317029295258"><ele>332.0</ele><time>2026-04-22T11:56:49.999Z</time></trkpt><trkpt lat="42.626779995032564" lon="12.530357529664178"><ele>332.0</ele><time>2026-04-22T11:56:50.999Z</time></trkpt><trkpt lat="42.62684808216866" lon="12.53037701006938"><ele>332.0</ele><time>2026-04-22T11:56:51.999Z</time></trkpt><trkpt lat="42.62691455235911" lon="12.530409686341828"><ele>332.0</ele><time>2026-04-22T11:56:52.999Z</time></trkpt><trkpt lat="42.62698416019556" lon="12.530497265624739"><ele>332.0</ele><time>2026-04-22T11:56:54.999Z</time></trkpt><trkpt lat="42.62695532482726" lon="12.530614136258242"><ele>332.0</ele><time>2026-04-22T11:56:56.999Z</time></trkpt><trkpt lat="42.62689553889109" lon="12.530654280186164"><ele>334.7142857142857</ele><time>2026-04-22T11:56:57.999Z</time></trkpt><trkpt lat="42.62683402888838" lon="12.530610628481787"><ele>337.42857142857144</ele><time>2026-04-22T11:56:58.999Z</time></trkpt><trkpt lat="42.62677421744002" lon="12.530573362188628"><ele>340.14285714285717</ele><time>2026-04-22T11:56:59.999Z</time></trkpt><trkpt lat="42.62670595736216" lon="12.530584915450225"><ele>342.8571428571429</ele><time>2026-04-22T11:57:00.999Z</time></trkpt><trkpt lat="42.62663363168005" lon="12.530585354475619"><ele>345.57142857142856</ele><time>2026-04-22T11:57:01.999Z</time></trkpt><trkpt lat="42.62655918141368" lon="12.530587326115798"><ele>348.28571428571433</ele><time>2026-04-22T11:57:02.999Z</time></trkpt><trkpt lat="42.62648251715302" lon="12.53057702585576"><ele>351.0</ele><time>2026-04-22T11:57:03.999Z</time></trkpt><trkpt lat="42.626413355670095" lon="12.530558587364013"><ele>351.0</ele><time>2026-04-22T11:57:04.999Z</time></trkpt><trkpt lat="42.62634569859653" lon="12.530528739811755"><ele>351.0</ele><time>2026-04-22T11:57:05.999Z</time></trkpt><trkpt lat="42.62627000168071" lon="12.530486433157638"><ele>351.0</ele><time>2026-04-22T11:57:06.999Z</time></trkpt><trkpt lat="42.626199167700946" lon="12.530424277455825"><ele>351.0</ele><time>2026-04-22T11:57:07.999Z</time></trkpt><trkpt lat="42.626119950192496" lon="12.530375912438068"><ele>351.0</ele><time>2026-04-22T11:57:08.999Z</time></trkpt><trkpt lat="42.626033467798855" lon="12.530337816223147"><ele>351.0</ele><time>2026-04-22T11:57:09.999Z</time></trkpt><trkpt lat="42.625950342699795" lon="12.530318828646697"><ele>350.8333333333333</ele><time>2026-04-22T11:57:10.999Z</time></trkpt><trkpt lat="42.625883161451895" lon="12.530347509758988"><ele>350.6666666666667</ele><time>2026-04-22T11:57:11.999Z</time></trkpt><trkpt lat="42.62582840616636" lon="12.530429398788929"><ele>350.5</ele><time>2026-04-22T11:57:12.999Z</time></trkpt><trkpt lat="42.625812232663414" lon="12.530538283220736"><ele>350.33333333333337</ele><time>2026-04-22T11:57:13.999Z</time></trkpt><trkpt lat="42.62585794423721" lon="12.53066374093664"><ele>350.1666666666667</ele><time>2026-04-22T11:57:14.999Z</time></trkpt><trkpt lat="42.62590422886716" lon="12.530782599804564"><ele>350.0</ele><time>2026-04-22T11:57:15.999Z</time></trkpt><trkpt lat="42.62594773046903" lon="12.530933888555788"><ele>350.0</ele><time>2026-04-22T11:57:16.999Z</time></trkpt><trkpt lat="42.62598195326199" lon="12.531082377331197"><ele>350.0</ele><time>2026-04-22T11:57:17.999Z</time></trkpt><trkpt lat="42.626018096829576" lon="12.531220921072418"><ele>350.0</ele><time>2026-04-22T11:57:18.999Z</time></trkpt><trkpt lat="42.6260612150588" lon="12.5313680797525"><ele>350.0</ele><time>2026-04-22T11:57:19.999Z</time></trkpt><trkpt lat="42.62610694130183" lon="12.531500204444782"><ele>350.0</ele><time>2026-04-22T11:57:20.999Z</time></trkpt><trkpt lat="42.62616388732007" lon="12.53161907208874"><ele>350.8</ele><time>2026-04-22T11:57:21.999Z</time></trkpt><trkpt lat="42.62623351594067" lon="12.531731273426683"><ele>351.6</ele><time>2026-04-22T11:57:22.999Z</time></trkpt><trkpt lat="42.626312064060514" lon="12.531807012955728"><ele>352.4</ele><time>2026-04-22T11:57:23.999Z</time></trkpt><trkpt lat="42.626399941247506" lon="12.531861512845078"><ele>353.2</ele><time>2026-04-22T11:57:24.999Z</time></trkpt><trkpt lat="42.626506435696236" lon="12.531884694892053"><ele>354.0</ele><time>2026-04-22T11:57:25.999Z</time></trkpt><trkpt lat="42.62663181119029" lon="12.531907330200289"><ele>354.0</ele><time>2026-04-22T11:57:26.999Z</time></trkpt><trkpt lat="42.626761981952804" lon="12.531939482342228"><ele>354.0</ele><time>2026-04-22T11:57:27.999Z</time></trkpt><trkpt lat="42.62687281108727" lon="12.532002144851797"><ele>354.0</ele><time>2026-04-22T11:57:28.999Z</time></trkpt><trkpt lat="42.626956099856436" lon="12.532091551344223"><ele>354.0</ele><time>2026-04-22T11:57:29.999Z</time></trkpt><trkpt lat="42.62699917916985" lon="12.532222381776778"><ele>354.75</ele><time>2026-04-22T11:57:30.999Z</time></trkpt><trkpt lat="42.62705852974069" lon="12.532351322748628"><ele>355.5</ele><time>2026-04-22T11:57:31.999Z</time></trkpt><trkpt lat="42.62710128698439" lon="12.53250760267121"><ele>356.25</ele><time>2026-04-22T11:57:32.999Z</time></trkpt><trkpt lat="42.627125990146624" lon="12.532678704180935"><ele>357.0</ele><time>2026-04-22T11:57:33.999Z</time></trkpt><trkpt lat="42.62715097323536" lon="12.532862942050066"><ele>356.5</ele><time>2026-04-22T11:57:34.999Z</time></trkpt><trkpt lat="42.627165294114704" lon="12.533046505339232"><ele>356.0</ele><time>2026-04-22T11:57:35.999Z</time></trkpt><trkpt lat="42.62718573958389" lon="12.53323472038819"><ele>355.5</ele><time>2026-04-22T11:57:37Z</time></trkpt><trkpt lat="42.627209428392966" lon="12.533435133227245"><ele>355.0</ele><time>2026-04-22T11:57:38Z</time></trkpt><trkpt lat="42.62723096187165" lon="12.533645731606663"><ele>355.0</ele><time>2026-04-22T11:57:39Z</time></trkpt><trkpt lat="42.627242124894565" lon="12.533865567464236"><ele>355.0</ele><time>2026-04-22T11:57:40Z</time></trkpt><trkpt lat="42.62724385003044" lon="12.534090744862334"><ele>355.0</ele><time>2026-04-22T11:57:41Z</time></trkpt><trkpt lat="42.627227880575575" lon="12.53430924748392"><ele>355.0</ele><time>2026-04-22T11:57:42Z</time></trkpt><trkpt lat="42.62722837769897" lon="12.534531261987249"><ele>355.0</ele><time>2026-04-22T11:57:43Z</time></trkpt><trkpt lat="42.62722930849857" lon="12.53476887021695"><ele>355.0</ele><time>2026-04-22T11:57:44Z</time></trkpt><trkpt lat="42.62723106314812" lon="12.534995629223888"><ele>355.66666666666663</ele><time>2026-04-22T11:57:45Z</time></trkpt><trkpt lat="42.627242716451626" lon="12.535211732165946"><ele>356.3333333333333</ele><time>2026-04-22T11:57:46Z</time></trkpt><trkpt lat="42.627231047758876" lon="12.535473878107533"><ele>357.0</ele><time>2026-04-22T11:57:47Z</time></trkpt><trkpt lat="42.62722888536059" lon="12.53570152497545"><ele>359.3333333333333</ele><time>2026-04-22T11:57:48Z</time></trkpt><trkpt lat="42.62724386452108" lon="12.535910134693527"><ele>361.66666666666663</ele><time>2026-04-22T11:57:49Z</time></trkpt><trkpt lat="42.627233853457454" lon="12.53611595583612"><ele>364.0</ele><time>2026-04-22T11:57:50Z</time></trkpt><trkpt lat="42.6272544088" lon="12.536319274889099"><ele>366.66666666666663</ele><time>2026-04-22T11:57:51Z</time></trkpt><trkpt lat="42.62730761488722" lon="12.536516771235194"><ele>369.3333333333333</ele><time>2026-04-22T11:57:52Z</time></trkpt><trkpt lat="42.62735462737766" lon="12.536715476304835"><ele>372.0</ele><time>2026-04-22T11:57:53Z</time></trkpt><trkpt lat="42.62737866620416" lon="12.536909695491222"><ele>373.0</ele><time>2026-04-22T11:57:54Z</time></trkpt><trkpt lat="42.627406447492504" lon="12.537083012536002"><ele>374.0</ele><time>2026-04-22T11:57:55Z</time></trkpt><trkpt lat="42.627448209434846" lon="12.537256809767074"><ele>375.0</ele><time>2026-04-22T11:57:56Z</time></trkpt><trkpt lat="42.62747104012762" lon="12.537440069312565"><ele>376.0</ele><time>2026-04-22T11:57:57Z</time></trkpt><trkpt lat="42.62749205768016" lon="12.537634313115085"><ele>376.0</ele><time>2026-04-22T11:57:58Z</time></trkpt><trkpt lat="42.627510635024514" lon="12.537835225455444"><ele>376.0</ele><time>2026-04-22T11:57:59Z</time></trkpt><trkpt lat="42.62752960942974" lon="12.538047015933332"><ele>376.0</ele><time>2026-04-22T11:58:00Z</time></trkpt><trkpt lat="42.627555165801354" lon="12.538265327399229"><ele>375.66666666666663</ele><time>2026-04-22T11:58:01Z</time></trkpt><trkpt lat="42.62758382008924" lon="12.538478756203848"><ele>375.3333333333333</ele><time>2026-04-22T11:58:02Z</time></trkpt><trkpt lat="42.62760520789461" lon="12.538710756085065"><ele>375.0</ele><time>2026-04-22T11:58:03Z</time></trkpt><trkpt lat="42.62762810315061" lon="12.538934490111743"><ele>374.6666666666667</ele><time>2026-04-22T11:58:04Z</time></trkpt><trkpt lat="42.62764394787105" lon="12.53915870224903"><ele>374.33333333333337</ele><time>2026-04-22T11:58:05Z</time></trkpt><trkpt lat="42.62766961803355" lon="12.539363917720435"><ele>374.0</ele><time>2026-04-22T11:58:06Z</time></trkpt><trkpt lat="42.62768763622608" lon="12.539548030759164"><ele>375.0</ele><time>2026-04-22T11:58:07Z</time></trkpt><trkpt lat="42.62771825313626" lon="12.53970936427927"><ele>376.0</ele><time>2026-04-22T11:58:08Z</time></trkpt><trkpt lat="42.62775555582879" lon="12.539873294213573"><ele>377.0</ele><time>2026-04-22T11:58:09Z</time></trkpt><trkpt lat="42.62786894378791" lon="12.540075634993896"><ele>378.0</ele><time>2026-04-22T11:58:11Z</time></trkpt><trkpt lat="42.6279338791853" lon="12.54021028838622"><ele>378.0</ele><time>2026-04-22T11:58:12Z</time></trkpt><trkpt lat="42.62797101867065" lon="12.540356742718677"><ele>378.0</ele><time>2026-04-22T11:58:13Z</time></trkpt><trkpt lat="42.628025284921215" lon="12.540461882056524"><ele>378.0</ele><time>2026-04-22T11:58:14Z</time></trkpt><trkpt lat="42.6280614408459" lon="12.540566240878723"><ele>378.0</ele><time>2026-04-22T11:58:15Z</time></trkpt><trkpt lat="42.62814001503099" lon="12.540734693317368"><ele>378.0</ele><time>2026-04-22T11:58:16Z</time></trkpt><trkpt lat="42.62822646867224" lon="12.5408963260051"><ele>379.6666666666667</ele><time>2026-04-22T11:58:17Z</time></trkpt><trkpt lat="42.62832209476886" lon="12.541080469105173"><ele>381.33333333333337</ele><time>2026-04-22T11:58:18Z</time></trkpt><trkpt lat="42.6284148415073" lon="12.541264352763235"><ele>383.0</ele><time>2026-04-22T11:58:19Z</time></trkpt><trkpt lat="42.62849582983506" lon="12.541432717674493"><ele>384.0</ele><time>2026-04-22T11:58:20Z</time></trkpt><trkpt lat="42.628601790132414" lon="12.541590868668754"><ele>385.0</ele><time>2026-04-22T11:58:21Z</time></trkpt><trkpt lat="42.62870810550402" lon="12.541743175919134"><ele>386.0</ele><time>2026-04-22T11:58:22Z</time></trkpt><trkpt lat="42.628771914300806" lon="12.541883902848056"><ele>387.0</ele><time>2026-04-22T11:58:23Z</time></trkpt><trkpt lat="42.62885612019077" lon="12.542007971931016"><ele>386.5</ele><time>2026-04-22T11:58:24Z</time></trkpt><trkpt lat="42.6289256028171" lon="12.542116911136123"><ele>386.0</ele><time>2026-04-22T11:58:25Z</time></trkpt><trkpt lat="42.629010581076585" lon="12.542201843969806"><ele>385.5</ele><time>2026-04-22T11:58:26Z</time></trkpt><trkpt lat="42.62911945885022" lon="12.542273116637984"><ele>385.0</ele><time>2026-04-22T11:58:27Z</time></trkpt><trkpt lat="42.629251240440595" lon="12.542406518140641"><ele>385.0</ele><time>2026-04-22T11:58:28Z</time></trkpt><trkpt lat="42.62936129003244" lon="12.542465340222462"><ele>385.0</ele><time>2026-04-22T11:58:29Z</time></trkpt><trkpt lat="42.629420186497114" lon="12.542606211870988"><ele>385.0</ele><time>2026-04-22T11:58:30Z</time></trkpt><trkpt lat="42.6295017824578" lon="12.54284545663686"><ele>385.0</ele><time>2026-04-22T11:58:32Z</time></trkpt><trkpt lat="42.62958257859361" lon="12.542969958487488"><ele>384.0</ele><time>2026-04-22T11:58:33.999Z</time></trkpt><trkpt lat="42.629654344497354" lon="12.543063793268436"><ele>383.0</ele><time>2026-04-22T11:58:34.999Z</time></trkpt><trkpt lat="42.62971305208241" lon="12.543202977358341"><ele>382.0</ele><time>2026-04-22T11:58:35.999Z</time></trkpt><trkpt lat="42.629795345532855" lon="12.543341808036859"><ele>381.0</ele><time>2026-04-22T11:58:36.999Z</time></trkpt><trkpt lat="42.629871504656876" lon="12.543499312530036"><ele>381.0</ele><time>2026-04-22T11:58:37.999Z</time></trkpt><trkpt lat="42.629948507066594" lon="12.543659627179467"><ele>381.0</ele><time>2026-04-22T11:58:38.999Z</time></trkpt><trkpt lat="42.63002292038194" lon="12.54380281068764"><ele>381.0</ele><time>2026-04-22T11:58:39.999Z</time></trkpt><trkpt lat="42.63008553719153" lon="12.543926600872004"><ele>381.0</ele><time>2026-04-22T11:58:40.999Z</time></trkpt><trkpt lat="42.630143822284026" lon="12.544046718267605"><ele>380.8333333333333</ele><time>2026-04-22T11:58:41.999Z</time></trkpt><trkpt lat="42.630201465224964" lon="12.544158112661034"><ele>380.6666666666667</ele><time>2026-04-22T11:58:42.999Z</time></trkpt><trkpt lat="42.63026174744046" lon="12.544269835295092"><ele>380.5</ele><time>2026-04-22T11:58:43.999Z</time></trkpt><trkpt lat="42.63031862020465" lon="12.544363161202405"><ele>380.33333333333337</ele><time>2026-04-22T11:58:44.999Z</time></trkpt><trkpt lat="42.630368346550036" lon="12.544432980159465"><ele>380.1666666666667</ele><time>2026-04-22T11:58:45.999Z</time></trkpt><trkpt lat="42.6304099168789" lon="12.544509207579043"><ele>380.0</ele><time>2026-04-22T11:58:46.999Z</time></trkpt><trkpt lat="42.630372732486435" lon="12.544673267254893"><ele>380.0</ele><time>2026-04-22T11:58:50.999Z</time></trkpt><trkpt lat="42.630337716701206" lon="12.544784589888014"><ele>380.0</ele><time>2026-04-22T11:58:51.999Z</time></trkpt><trkpt lat="42.63029802744485" lon="12.544918839704094"><ele>380.0</ele><time>2026-04-22T11:58:52.999Z</time></trkpt><trkpt lat="42.63025016233356" lon="12.545090908846836"><ele>380.0</ele><time>2026-04-22T11:58:53.999Z</time></trkpt><trkpt lat="42.63020511641701" lon="12.545264438406548"><ele>378.6666666666667</ele><time>2026-04-22T11:58:54.999Z</time></trkpt><trkpt lat="42.63015908946285" lon="12.545458402969267"><ele>377.3333333333333</ele><time>2026-04-22T11:58:55.999Z</time></trkpt><trkpt lat="42.6301158352692" lon="12.545659569077914"><ele>376.0</ele><time>2026-04-22T11:58:56.999Z</time></trkpt><trkpt lat="42.63007232183291" lon="12.545868053593283"><ele>376.0</ele><time>2026-04-22T11:58:57.999Z</time></trkpt><trkpt lat="42.6300278154743" lon="12.546082010989975"><ele>376.0</ele><time>2026-04-22T11:58:58.999Z</time></trkpt><trkpt lat="42.62999787460326" lon="12.546312715821083"><ele>376.0</ele><time>2026-04-22T11:58:59.999Z</time></trkpt><trkpt lat="42.629956364378316" lon="12.546517404922108"><ele>376.0</ele><time>2026-04-22T11:59:00.999Z</time></trkpt><trkpt lat="42.62991935129289" lon="12.546774897328337"><ele>376.0</ele><time>2026-04-22T11:59:01.999Z</time></trkpt><trkpt lat="42.62991255099381" lon="12.547025997900718"><ele>376.0</ele><time>2026-04-22T11:59:02.999Z</time></trkpt><trkpt lat="42.62992417491593" lon="12.54727480608168"><ele>376.0</ele><time>2026-04-22T11:59:03.999Z</time></trkpt><trkpt lat="42.629936837105184" lon="12.547499030355938"><ele>376.0</ele><time>2026-04-22T11:59:04.999Z</time></trkpt><trkpt lat="42.62995605801776" lon="12.547705316139337"><ele>376.0</ele><time>2026-04-22T11:59:05.999Z</time></trkpt><trkpt lat="42.629996740155896" lon="12.54788115164506"><ele>376.0</ele><time>2026-04-22T11:59:06.999Z</time></trkpt><trkpt lat="42.63008330683383" lon="12.548006444180984"><ele>376.0</ele><time>2026-04-22T11:59:07.999Z</time></trkpt><trkpt lat="42.630187018074345" lon="12.548102587758095"><ele>376.0</ele><time>2026-04-22T11:59:08.999Z</time></trkpt><trkpt lat="42.630298066360474" lon="12.548223870076887"><ele>376.0</ele><time>2026-04-22T11:59:09.999Z</time></trkpt><trkpt lat="42.6304194874254" lon="12.548344525481694"><ele>376.0</ele><time>2026-04-22T11:59:10.999Z</time></trkpt><trkpt lat="42.63052589773403" lon="12.548513659162543"><ele>376.0</ele><time>2026-04-22T11:59:11.999Z</time></trkpt><trkpt lat="42.63059152231508" lon="12.548728757733981"><ele>376.0</ele><time>2026-04-22T11:59:12.999Z</time></trkpt><trkpt lat="42.63066036187185" lon="12.548926604876554"><ele>377.25</ele><time>2026-04-22T11:59:13.999Z</time></trkpt><trkpt lat="42.63070355121839" lon="12.549106294632496"><ele>378.5</ele><time>2026-04-22T11:59:14.999Z</time></trkpt><trkpt lat="42.63070073578334" lon="12.549266821612818"><ele>379.75</ele><time>2026-04-22T11:59:15.999Z</time></trkpt><trkpt lat="42.630670875353815" lon="12.549407985721029"><ele>381.0</ele><time>2026-04-22T11:59:16.999Z</time></trkpt><trkpt lat="42.6306221908159" lon="12.549531833188189"><ele>379.5</ele><time>2026-04-22T11:59:17.999Z</time></trkpt><trkpt lat="42.630482321401246" lon="12.54987239225695"><ele>378.0</ele><time>2026-04-22T11:59:19.999Z</time></trkpt><trkpt lat="42.63040688302377" lon="12.550069245982268"><ele>378.0</ele><time>2026-04-22T11:59:20.999Z</time></trkpt><trkpt lat="42.63035250598413" lon="12.550297573683993"><ele>378.0</ele><time>2026-04-22T11:59:21.999Z</time></trkpt><trkpt lat="42.630296442843935" lon="12.55052730507294"><ele>378.0</ele><time>2026-04-22T11:59:22.999Z</time></trkpt><trkpt lat="42.63026826177122" lon="12.55074624801267"><ele>378.75</ele><time>2026-04-22T11:59:23.999Z</time></trkpt><trkpt lat="42.63027117426175" lon="12.550949680631668"><ele>379.5</ele><time>2026-04-22T11:59:24.999Z</time></trkpt><trkpt lat="42.630299069180715" lon="12.5511474871864"><ele>380.25</ele><time>2026-04-22T11:59:25.999Z</time></trkpt><trkpt lat="42.63034943528583" lon="12.551333501149962"><ele>381.0</ele><time>2026-04-22T11:59:26.999Z</time></trkpt><trkpt lat="42.630409432242125" lon="12.551530608899794"><ele>378.0</ele><time>2026-04-22T11:59:27.999Z</time></trkpt><trkpt lat="42.630473651202195" lon="12.551728866598733"><ele>375.0</ele><time>2026-04-22T11:59:28.999Z</time></trkpt><trkpt lat="42.63054864005843" lon="12.551930057327763"><ele>372.0</ele><time>2026-04-22T11:59:29.999Z</time></trkpt><trkpt lat="42.63063113320869" lon="12.552129807724159"><ele>372.0</ele><time>2026-04-22T11:59:30.999Z</time></trkpt><trkpt lat="42.63070996562501" lon="12.552311416660434"><ele>372.0</ele><time>2026-04-22T11:59:31.999Z</time></trkpt><trkpt lat="42.63076966961886" lon="12.552488348656546"><ele>372.0</ele><time>2026-04-22T11:59:32.999Z</time></trkpt><trkpt lat="42.630817085789374" lon="12.552659067369696"><ele>372.0</ele><time>2026-04-22T11:59:33.999Z</time></trkpt><trkpt lat="42.63085501534704" lon="12.552817637001022"><ele>372.40000000000003</ele><time>2026-04-22T11:59:34.999Z</time></trkpt><trkpt lat="42.63086926802657" lon="12.552961628683374"><ele>372.8</ele><time>2026-04-22T11:59:35.999Z</time></trkpt><trkpt lat="42.630879805357075" lon="12.553092059645044"><ele>373.2</ele><time>2026-04-22T11:59:36.999Z</time></trkpt><trkpt lat="42.630887344613896" lon="12.553191495847203"><ele>373.6</ele><time>2026-04-22T11:59:37.999Z</time></trkpt><trkpt lat="42.630875261957506" lon="12.55334633529491"><ele>374.0</ele><time>2026-04-22T11:59:40.999Z</time></trkpt><trkpt lat="42.631019213613946" lon="12.553372834096496"><ele>374.0</ele><time>2026-04-22T11:59:44Z</time></trkpt><trkpt lat="42.63108880430662" lon="12.553357557237021"><ele>374.0</ele><time>2026-04-22T11:59:45Z</time></trkpt><trkpt lat="42.631151296969726" lon="12.553342733969899"><ele>374.0</ele><time>2026-04-22T11:59:46Z</time></trkpt><trkpt lat="42.63126055995925" lon="12.553306117826034"><ele>374.0</ele><time>2026-04-22T11:59:48Z</time></trkpt><trkpt lat="42.63132906392985" lon="12.55325404671324"><ele>374.0</ele><time>2026-04-22T12:00:02Z</time></trkpt><trkpt lat="42.63143306946049" lon="12.553184710812749"><ele>374.0</ele><time>2026-04-22T12:00:04Z</time></trkpt><trkpt lat="42.631568978541225" lon="12.553135260417653"><ele>373.5</ele><time>2026-04-22T12:00:06Z</time></trkpt><trkpt lat="42.63162969230805" lon="12.553103244473732"><ele>373.0</ele><time>2026-04-22T12:00:07Z</time></trkpt><trkpt lat="42.63169788027346" lon="12.55306797370283"><ele>372.5</ele><time>2026-04-22T12:00:08Z</time></trkpt><trkpt lat="42.63177863388427" lon="12.553033846189726"><ele>372.0</ele><time>2026-04-22T12:00:09Z</time></trkpt><trkpt lat="42.631858163354316" lon="12.552982099695617"><ele>371.5</ele><time>2026-04-22T12:00:10Z</time></trkpt><trkpt lat="42.63195292631439" lon="12.55293630944224"><ele>371.0</ele><time>2026-04-22T12:00:11Z</time></trkpt><trkpt lat="42.63204256305833" lon="12.552882517071254"><ele>370.4</ele><time>2026-04-22T12:00:12Z</time></trkpt><trkpt lat="42.63212504688102" lon="12.552822773035832"><ele>369.8</ele><time>2026-04-22T12:00:13Z</time></trkpt><trkpt lat="42.63221220098809" lon="12.552749693663454"><ele>369.2</ele><time>2026-04-22T12:00:14Z</time></trkpt><trkpt lat="42.63229612626819" lon="12.552660141171202"><ele>368.59999999999997</ele><time>2026-04-22T12:00:15Z</time></trkpt><trkpt lat="42.63238516213613" lon="12.552568020686152"><ele>368.0</ele><time>2026-04-22T12:00:16Z</time></trkpt><trkpt lat="42.63253857295115" lon="12.552390121451388"><ele>368.0</ele><time>2026-04-22T12:00:18Z</time></trkpt><trkpt lat="42.632617466390556" lon="12.552294371212795"><ele>368.0</ele><time>2026-04-22T12:00:19Z</time></trkpt><trkpt lat="42.63270304372169" lon="12.55218359135539"><ele>368.0</ele><time>2026-04-22T12:00:20Z</time></trkpt><trkpt lat="42.63279835049222" lon="12.552067296083116"><ele>368.0</ele><time>2026-04-22T12:00:21Z</time></trkpt><trkpt lat="42.632891200104766" lon="12.55195201714321"><ele>367.75</ele><time>2026-04-22T12:00:22Z</time></trkpt><trkpt lat="42.632989990188904" lon="12.55183159012413"><ele>367.5</ele><time>2026-04-22T12:00:23Z</time></trkpt><trkpt lat="42.63308881373798" lon="12.551713691890033"><ele>367.25</ele><time>2026-04-22T12:00:24Z</time></trkpt><trkpt lat="42.6331906382602" lon="12.551584077316807"><ele>367.0</ele><time>2026-04-22T12:00:25Z</time></trkpt><trkpt lat="42.633296972101185" lon="12.551451876838488"><ele>367.0</ele><time>2026-04-22T12:00:26Z</time></trkpt><trkpt lat="42.63340352278575" lon="12.551323903939782"><ele>367.0</ele><time>2026-04-22T12:00:27Z</time></trkpt><trkpt lat="42.63350975727343" lon="12.551199172816577"><ele>367.0</ele><time>2026-04-22T12:00:28Z</time></trkpt><trkpt lat="42.63361526145113" lon="12.551071608112352"><ele>367.0</ele><time>2026-04-22T12:00:29Z</time></trkpt><trkpt lat="42.633721301818966" lon="12.550942585357648"><ele>367.0</ele><time>2026-04-22T12:00:30Z</time></trkpt><trkpt lat="42.633827207407585" lon="12.550811171412404"><ele>367.0</ele><time>2026-04-22T12:00:31Z</time></trkpt><trkpt lat="42.63393572550532" lon="12.5506787979733"><ele>367.0</ele><time>2026-04-22T12:00:32Z</time></trkpt><trkpt lat="42.63404526858176" lon="12.55054754074255"><ele>367.0</ele><time>2026-04-22T12:00:33Z</time></trkpt><trkpt lat="42.63415761966307" lon="12.550418797897146"><ele>366.5</ele><time>2026-04-22T12:00:34Z</time></trkpt><trkpt lat="42.6342713694873" lon="12.550292534011003"><ele>366.0</ele><time>2026-04-22T12:00:35Z</time></trkpt><trkpt lat="42.63438237802518" lon="12.55016634177988"><ele>365.5</ele><time>2026-04-22T12:00:36Z</time></trkpt><trkpt lat="42.63448941537026" lon="12.550042888098526"><ele>365.0</ele><time>2026-04-22T12:00:37Z</time></trkpt><trkpt lat="42.634596643529974" lon="12.549920956048805"><ele>365.0</ele><time>2026-04-22T12:00:38Z</time></trkpt><trkpt lat="42.63469976232966" lon="12.549801330200705"><ele>365.0</ele><time>2026-04-22T12:00:39Z</time></trkpt><trkpt lat="42.63480245662919" lon="12.549684044196601"><ele>365.0</ele><time>2026-04-22T12:00:40Z</time></trkpt><trkpt lat="42.63489718630922" lon="12.549581877331898"><ele>365.0</ele><time>2026-04-22T12:00:41Z</time></trkpt><trkpt lat="42.63498539553717" lon="12.549482074474438"><ele>365.2</ele><time>2026-04-22T12:00:42Z</time></trkpt><trkpt lat="42.635066705327056" lon="12.549389312338239"><ele>365.4</ele><time>2026-04-22T12:00:43Z</time></trkpt><trkpt lat="42.635149167070956" lon="12.549316638431536"><ele>365.6</ele><time>2026-04-22T12:00:43.999Z</time></trkpt><trkpt lat="42.635235650881825" lon="12.549286350922046"><ele>365.8</ele><time>2026-04-22T12:00:44.999Z</time></trkpt><trkpt lat="42.6353433340555" lon="12.549255148354861"><ele>366.0</ele><time>2026-04-22T12:00:45.999Z</time></trkpt><trkpt lat="42.63545791187795" lon="12.549221665225513"><ele>366.0</ele><time>2026-04-22T12:00:46.999Z</time></trkpt><trkpt lat="42.63553503902298" lon="12.549223535130947"><ele>366.0</ele><time>2026-04-22T12:00:47.999Z</time></trkpt><trkpt lat="42.63564812128509" lon="12.549294873745373"><ele>366.0</ele><time>2026-04-22T12:00:49.999Z</time></trkpt><trkpt lat="42.63571931962212" lon="12.549382128841446"><ele>366.0</ele><time>2026-04-22T12:00:50.999Z</time></trkpt><trkpt lat="42.635792508797614" lon="12.549449619094634"><ele>366.0</ele><time>2026-04-22T12:00:51.999Z</time></trkpt><trkpt lat="42.63588546620005" lon="12.549513347937097"><ele>366.8</ele><time>2026-04-22T12:00:52.999Z</time></trkpt><trkpt lat="42.63598293974659" lon="12.549560597803826"><ele>367.6</ele><time>2026-04-22T12:00:53.999Z</time></trkpt><trkpt lat="42.63607285964264" lon="12.549615235219424"><ele>368.4</ele><time>2026-04-22T12:00:54.999Z</time></trkpt><trkpt lat="42.6361606884597" lon="12.549680719766833"><ele>369.2</ele><time>2026-04-22T12:00:55.999Z</time></trkpt><trkpt lat="42.636246657693995" lon="12.549755306546704"><ele>370.0</ele><time>2026-04-22T12:00:56.999Z</time></trkpt><trkpt lat="42.63635841986306" lon="12.549847332325498"><ele>371.75</ele><time>2026-04-22T12:00:57.999Z</time></trkpt><trkpt lat="42.63646971371255" lon="12.549936777758573"><ele>373.5</ele><time>2026-04-22T12:00:58.999Z</time></trkpt><trkpt lat="42.636580041236584" lon="12.550034137607101"><ele>375.25</ele><time>2026-04-22T12:00:59.999Z</time></trkpt><trkpt lat="42.63668196707241" lon="12.55012811364394"><ele>377.0</ele><time>2026-04-22T12:01:00.999Z</time></trkpt><trkpt lat="42.63678713488446" lon="12.550236157873877"><ele>377.0</ele><time>2026-04-22T12:01:01.999Z</time></trkpt><trkpt lat="42.63688633351166" lon="12.55035184791802"><ele>377.0</ele><time>2026-04-22T12:01:02.999Z</time></trkpt><trkpt lat="42.636991466940586" lon="12.550466341571221"><ele>377.0</ele><time>2026-04-22T12:01:03.999Z</time></trkpt><trkpt lat="42.63709011326504" lon="12.550559218822196"><ele>377.0</ele><time>2026-04-22T12:01:04.999Z</time></trkpt><trkpt lat="42.637191205183555" lon="12.550634683551714"><ele>380.25</ele><time>2026-04-22T12:01:05.999Z</time></trkpt><trkpt lat="42.63728465201833" lon="12.55068789041066"><ele>383.5</ele><time>2026-04-22T12:01:06.999Z</time></trkpt><trkpt lat="42.63738573195493" lon="12.550746031209343"><ele>386.75</ele><time>2026-04-22T12:01:07.999Z</time></trkpt><trkpt lat="42.63749408309331" lon="12.550809878172428"><ele>390.0</ele><time>2026-04-22T12:01:08.999Z</time></trkpt><trkpt lat="42.63759862978497" lon="12.550894785232593"><ele>390.0</ele><time>2026-04-22T12:01:09.999Z</time></trkpt><trkpt lat="42.637695892084835" lon="12.550996834196875"><ele>390.0</ele><time>2026-04-22T12:01:10.999Z</time></trkpt><trkpt lat="42.637784815896815" lon="12.551114874125211"><ele>390.0</ele><time>2026-04-22T12:01:11.999Z</time></trkpt><trkpt lat="42.63788068238671" lon="12.551224272411353"><ele>390.0</ele><time>2026-04-22T12:01:12.999Z</time></trkpt><trkpt lat="42.63807546416189" lon="12.551394540253241"><ele>391.6666666666667</ele><time>2026-04-22T12:01:14.999Z</time></trkpt><trkpt lat="42.638174469401996" lon="12.551435388534385"><ele>393.33333333333337</ele><time>2026-04-22T12:01:15.999Z</time></trkpt><trkpt lat="42.63826583176941" lon="12.551452784617862"><ele>395.0</ele><time>2026-04-22T12:01:16.999Z</time></trkpt><trkpt lat="42.638338627477495" lon="12.551451635953764"><ele>396.6666666666667</ele><time>2026-04-22T12:01:17.999Z</time></trkpt><trkpt lat="42.638409319903616" lon="12.551430590546818"><ele>398.33333333333337</ele><time>2026-04-22T12:01:18.999Z</time></trkpt><trkpt lat="42.63848265746675" lon="12.551431961635114"><ele>400.0</ele><time>2026-04-22T12:01:19.999Z</time></trkpt><trkpt lat="42.638594961811314" lon="12.551369661041743"><ele>399.25</ele><time>2026-04-22T12:01:20.999Z</time></trkpt><trkpt lat="42.63872577250225" lon="12.55132058417346"><ele>398.5</ele><time>2026-04-22T12:01:21.999Z</time></trkpt><trkpt lat="42.63887095799774" lon="12.551274641408716"><ele>397.75</ele><time>2026-04-22T12:01:22.999Z</time></trkpt><trkpt lat="42.63900256239201" lon="12.55123306462266"><ele>397.0</ele><time>2026-04-22T12:01:23.999Z</time></trkpt><trkpt lat="42.63911801100984" lon="12.551188347975192"><ele>397.0</ele><time>2026-04-22T12:01:24.999Z</time></trkpt><trkpt lat="42.63922277883722" lon="12.55116814351395"><ele>397.0</ele><time>2026-04-22T12:01:25.999Z</time></trkpt><trkpt lat="42.63932186004027" lon="12.551189962983033"><ele>397.0</ele><time>2026-04-22T12:01:26.999Z</time></trkpt><trkpt lat="42.639430768116256" lon="12.55123074675965"><ele>397.0</ele><time>2026-04-22T12:01:27.999Z</time></trkpt><trkpt lat="42.63955387649186" lon="12.551242813056918"><ele>397.0</ele><time>2026-04-22T12:01:28.999Z</time></trkpt><trkpt lat="42.639697743075324" lon="12.551258830164382"><ele>401.5</ele><time>2026-04-22T12:01:29.999Z</time></trkpt><trkpt lat="42.63984509116552" lon="12.55126957118352"><ele>406.0</ele><time>2026-04-22T12:01:30.999Z</time></trkpt><trkpt lat="42.63997662153367" lon="12.551266556265563"><ele>410.5</ele><time>2026-04-22T12:01:31.999Z</time></trkpt><trkpt lat="42.64009218502603" lon="12.551257984711322"><ele>415.0</ele><time>2026-04-22T12:01:32.999Z</time></trkpt><trkpt lat="42.640207188768564" lon="12.551245917912096"><ele>415.8</ele><time>2026-04-22T12:01:33.999Z</time></trkpt><trkpt lat="42.64031896527421" lon="12.551245829576727"><ele>416.6</ele><time>2026-04-22T12:01:34.999Z</time></trkpt><trkpt lat="42.64041805673236" lon="12.55125291959602"><ele>417.4</ele><time>2026-04-22T12:01:35.999Z</time></trkpt><trkpt lat="42.64052389990542" lon="12.551263332933079"><ele>418.2</ele><time>2026-04-22T12:01:36.999Z</time></trkpt><trkpt lat="42.64065133771164" lon="12.551273563162024"><ele>419.0</ele><time>2026-04-22T12:01:37.999Z</time></trkpt><trkpt lat="42.64076507635605" lon="12.55127805517153"><ele>419.0</ele><time>2026-04-22T12:01:38.999Z</time></trkpt><trkpt lat="42.64086950053637" lon="12.551249531100959"><ele>419.0</ele><time>2026-04-22T12:01:39.999Z</time></trkpt><trkpt lat="42.640965730518346" lon="12.551196297124083"><ele>419.0</ele><time>2026-04-22T12:01:40.999Z</time></trkpt><trkpt lat="42.64106292001195" lon="12.551132713631437"><ele>419.0</ele><time>2026-04-22T12:01:41.999Z</time></trkpt><trkpt lat="42.641163001127104" lon="12.551053541866308"><ele>419.0</ele><time>2026-04-22T12:01:42.999Z</time></trkpt><trkpt lat="42.64126368763338" lon="12.550971941993998"><ele>418.0</ele><time>2026-04-22T12:01:43.999Z</time></trkpt><trkpt lat="42.64136174381612" lon="12.550892473729757"><ele>417.0</ele><time>2026-04-22T12:01:44.999Z</time></trkpt><trkpt lat="42.64144758792295" lon="12.550825565800519"><ele>416.0</ele><time>2026-04-22T12:01:45.999Z</time></trkpt><trkpt lat="42.641548991866436" lon="12.550759545425159"><ele>415.0</ele><time>2026-04-22T12:01:46.999Z</time></trkpt><trkpt lat="42.64163844826938" lon="12.550674743129292"><ele>414.0</ele><time>2026-04-22T12:01:47.999Z</time></trkpt><trkpt lat="42.64173368361832" lon="12.550636388494084"><ele>414.0</ele><time>2026-04-22T12:01:48.999Z</time></trkpt><trkpt lat="42.64184272163492" lon="12.550617231171325"><ele>414.0</ele><time>2026-04-22T12:01:49.999Z</time></trkpt><trkpt lat="42.64194900211414" lon="12.550625179820988"><ele>414.0</ele><time>2026-04-22T12:01:50.999Z</time></trkpt><trkpt lat="42.64205744839433" lon="12.550598292756346"><ele>414.0</ele><time>2026-04-22T12:01:51.999Z</time></trkpt><trkpt lat="42.64216676017051" lon="12.550536127232887"><ele>414.0</ele><time>2026-04-22T12:01:52.999Z</time></trkpt><trkpt lat="42.64228366710152" lon="12.55047075616515"><ele>414.4</ele><time>2026-04-22T12:01:53.999Z</time></trkpt><trkpt lat="42.64238734702235" lon="12.550458706687246"><ele>414.79999999999995</ele><time>2026-04-22T12:01:54.999Z</time></trkpt><trkpt lat="42.642473539043905" lon="12.550431483979644"><ele>415.20000000000005</ele><time>2026-04-22T12:01:55.999Z</time></trkpt><trkpt lat="42.64256593560757" lon="12.550407881465565"><ele>415.6</ele><time>2026-04-22T12:01:56.999Z</time></trkpt><trkpt lat="42.64267091730738" lon="12.550388583324196"><ele>416.0</ele><time>2026-04-22T12:01:57.999Z</time></trkpt><trkpt lat="42.64277337182458" lon="12.550384755158213"><ele>415.4</ele><time>2026-04-22T12:01:58.999Z</time></trkpt><trkpt lat="42.64287305030657" lon="12.550387582452005"><ele>414.8</ele><time>2026-04-22T12:01:59.999Z</time></trkpt><trkpt lat="42.64297196752181" lon="12.550385933163552"><ele>414.2</ele><time>2026-04-22T12:02:00.999Z</time></trkpt><trkpt lat="42.643068238595305" lon="12.55037618871"><ele>413.59999999999997</ele><time>2026-04-22T12:02:01.999Z</time></trkpt><trkpt lat="42.64317332399697" lon="12.55036125418125"><ele>413.0</ele><time>2026-04-22T12:02:02.999Z</time></trkpt><trkpt lat="42.64327219758269" lon="12.550344711607998"><ele>412.0</ele><time>2026-04-22T12:02:03.999Z</time></trkpt><trkpt lat="42.64336866427535" lon="12.550324631129405"><ele>411.0</ele><time>2026-04-22T12:02:04.999Z</time></trkpt><trkpt lat="42.64348865896904" lon="12.550293608543743"><ele>410.0</ele><time>2026-04-22T12:02:05.999Z</time></trkpt><trkpt lat="42.643611624735975" lon="12.550236187430619"><ele>409.0</ele><time>2026-04-22T12:02:06.999Z</time></trkpt><trkpt lat="42.64369872728716" lon="12.550184964558857"><ele>408.0</ele><time>2026-04-22T12:02:08Z</time></trkpt><trkpt lat="42.64379174947642" lon="12.55015019800244"><ele>407.5</ele><time>2026-04-22T12:02:09Z</time></trkpt><trkpt lat="42.64386994367566" lon="12.550142694990004"><ele>407.0</ele><time>2026-04-22T12:02:10Z</time></trkpt><trkpt lat="42.64394528352436" lon="12.550138662050276"><ele>406.5</ele><time>2026-04-22T12:02:11Z</time></trkpt><trkpt lat="42.64406815857305" lon="12.550144194365124"><ele>406.0</ele><time>2026-04-22T12:02:13Z</time></trkpt><trkpt lat="42.64414562940717" lon="12.550143017357023"><ele>405.5</ele><time>2026-04-22T12:02:14Z</time></trkpt><trkpt lat="42.64422704008497" lon="12.550154583517392"><ele>405.0</ele><time>2026-04-22T12:02:15Z</time></trkpt><trkpt lat="42.64431967597174" lon="12.550188009636635"><ele>405.0</ele><time>2026-04-22T12:02:16Z</time></trkpt><trkpt lat="42.644411901577435" lon="12.550214790460771"><ele>405.0</ele><time>2026-04-22T12:02:17Z</time></trkpt><trkpt lat="42.64450795042696" lon="12.55026042190981"><ele>405.0</ele><time>2026-04-22T12:02:18Z</time></trkpt><trkpt lat="42.64460130388814" lon="12.55031559271893"><ele>405.0</ele><time>2026-04-22T12:02:19Z</time></trkpt><trkpt lat="42.64468143471494" lon="12.550375345442907"><ele>405.0</ele><time>2026-04-22T12:02:20Z</time></trkpt><trkpt lat="42.644744019612524" lon="12.550437272788932"><ele>405.0</ele><time>2026-04-22T12:02:21Z</time></trkpt><trkpt lat="42.64480975467948" lon="12.550493988219591"><ele>405.0</ele><time>2026-04-22T12:02:22Z</time></trkpt><trkpt lat="42.64497806990048" lon="12.55059263380249"><ele>405.0</ele><time>2026-04-22T12:02:24Z</time></trkpt><trkpt lat="42.64507304788863" lon="12.550620118339218"><ele>405.0</ele><time>2026-04-22T12:02:25Z</time></trkpt><trkpt lat="42.64516380819465" lon="12.550628133393054"><ele>405.0</ele><time>2026-04-22T12:02:26Z</time></trkpt><trkpt lat="42.64523959269508" lon="12.550620110672087"><ele>403.6</ele><time>2026-04-22T12:02:27Z</time></trkpt><trkpt lat="42.64531532296257" lon="12.55063810246588"><ele>402.2</ele><time>2026-04-22T12:02:28Z</time></trkpt><trkpt lat="42.64539798391676" lon="12.550671412487647"><ele>400.79999999999995</ele><time>2026-04-22T12:02:29Z</time></trkpt><trkpt lat="42.64549356362779" lon="12.550727924901146"><ele>399.4</ele><time>2026-04-22T12:02:30Z</time></trkpt><trkpt lat="42.64559714905216" lon="12.55079257168259"><ele>398.0</ele><time>2026-04-22T12:02:31Z</time></trkpt><trkpt lat="42.64568008806575" lon="12.550848071830352"><ele>398.0</ele><time>2026-04-22T12:02:32Z</time></trkpt><trkpt lat="42.64575656508187" lon="12.550913082293365"><ele>398.0</ele><time>2026-04-22T12:02:33Z</time></trkpt><trkpt lat="42.64583006995452" lon="12.551015573196578"><ele>398.0</ele><time>2026-04-22T12:02:34Z</time></trkpt><trkpt lat="42.64591476876794" lon="12.55112864393598"><ele>398.0</ele><time>2026-04-22T12:02:35Z</time></trkpt><trkpt lat="42.64600701076679" lon="12.551227848501133"><ele>398.0</ele><time>2026-04-22T12:02:36Z</time></trkpt><trkpt lat="42.6461035248552" lon="12.551337395717335"><ele>398.5</ele><time>2026-04-22T12:02:37Z</time></trkpt><trkpt lat="42.64620226055004" lon="12.551471120588214"><ele>399.0</ele><time>2026-04-22T12:02:38Z</time></trkpt><trkpt lat="42.64628836035251" lon="12.551511664587922"><ele>399.5</ele><time>2026-04-22T12:02:39Z</time></trkpt><trkpt lat="42.646462248001036" lon="12.551620840497828"><ele>400.0</ele><time>2026-04-22T12:02:41Z</time></trkpt><trkpt lat="42.64657136734538" lon="12.551646127456968"><ele>400.0</ele><time>2026-04-22T12:02:43Z</time></trkpt><trkpt lat="42.64669599680467" lon="12.551537811107714"><ele>400.0</ele><time>2026-04-22T12:02:45Z</time></trkpt><trkpt lat="42.64678798021986" lon="12.551481296970943"><ele>400.0</ele><time>2026-04-22T12:02:46Z</time></trkpt><trkpt lat="42.64688113325247" lon="12.551431847805304"><ele>400.0</ele><time>2026-04-22T12:02:47Z</time></trkpt><trkpt lat="42.646962606351416" lon="12.551381844225375"><ele>400.0</ele><time>2026-04-22T12:02:48Z</time></trkpt><trkpt lat="42.647046797356744" lon="12.551335380314153"><ele>400.8</ele><time>2026-04-22T12:02:49Z</time></trkpt><trkpt lat="42.64713428365055" lon="12.55130580589697"><ele>401.6</ele><time>2026-04-22T12:02:50Z</time></trkpt><trkpt lat="42.64722631423173" lon="12.551275777643793"><ele>402.4</ele><time>2026-04-22T12:02:51Z</time></trkpt><trkpt lat="42.64731386630937" lon="12.551256533521837"><ele>403.2</ele><time>2026-04-22T12:02:52Z</time></trkpt><trkpt lat="42.64740074561918" lon="12.551236739563688"><ele>404.0</ele><time>2026-04-22T12:02:53Z</time></trkpt><trkpt lat="42.64749498354134" lon="12.551223576938856"><ele>404.0</ele><time>2026-04-22T12:02:54Z</time></trkpt><trkpt lat="42.647594250144806" lon="12.551228997059285"><ele>404.0</ele><time>2026-04-22T12:02:55Z</time></trkpt><trkpt lat="42.64768871917021" lon="12.551226507793375"><ele>404.0</ele><time>2026-04-22T12:02:56Z</time></trkpt><trkpt lat="42.647778665257185" lon="12.551218644452009"><ele>404.0</ele><time>2026-04-22T12:02:57Z</time></trkpt><trkpt lat="42.647875737222904" lon="12.551210984876684"><ele>404.0</ele><time>2026-04-22T12:02:58Z</time></trkpt><trkpt lat="42.647986466097166" lon="12.55122845690898"><ele>403.4</ele><time>2026-04-22T12:02:59Z</time></trkpt><trkpt lat="42.6480864231497" lon="12.551216154982217"><ele>402.79999999999995</ele><time>2026-04-22T12:03:00Z</time></trkpt><trkpt lat="42.64818354460659" lon="12.551231587675234"><ele>402.20000000000005</ele><time>2026-04-22T12:03:01Z</time></trkpt><trkpt lat="42.648266708230764" lon="12.551246883094237"><ele>401.6</ele><time>2026-04-22T12:03:02Z</time></trkpt><trkpt lat="42.64834857696168" lon="12.551261122685732"><ele>401.0</ele><time>2026-04-22T12:03:03Z</time></trkpt><trkpt lat="42.648528826211006" lon="12.55126877025209"><ele>401.0</ele><time>2026-04-22T12:03:05Z</time></trkpt><trkpt lat="42.64862108301284" lon="12.551279389851663"><ele>401.0</ele><time>2026-04-22T12:03:06Z</time></trkpt><trkpt lat="42.648738016625344" lon="12.55129098723987"><ele>401.0</ele><time>2026-04-22T12:03:07Z</time></trkpt><trkpt lat="42.64884524159269" lon="12.551289064847944"><ele>401.0</ele><time>2026-04-22T12:03:07.999Z</time></trkpt><trkpt lat="42.64895470735587" lon="12.551293434056802"><ele>401.0</ele><time>2026-04-22T12:03:08.999Z</time></trkpt><trkpt lat="42.64907385468488" lon="12.55133595356643"><ele>399.75</ele><time>2026-04-22T12:03:09.999Z</time></trkpt><trkpt lat="42.64920878466859" lon="12.55135810649753"><ele>398.5</ele><time>2026-04-22T12:03:10.999Z</time></trkpt><trkpt lat="42.6493343999105" lon="12.551368954724316"><ele>397.25</ele><time>2026-04-22T12:03:11.999Z</time></trkpt><trkpt lat="42.64944608520218" lon="12.551388823076339"><ele>396.0</ele><time>2026-04-22T12:03:12.999Z</time></trkpt><trkpt lat="42.649550202627395" lon="12.551410892302096"><ele>395.5</ele><time>2026-04-22T12:03:13.999Z</time></trkpt><trkpt lat="42.64964382826921" lon="12.55143873351221"><ele>395.0</ele><time>2026-04-22T12:03:14.999Z</time></trkpt><trkpt lat="42.64976404659394" lon="12.551465909482383"><ele>394.5</ele><time>2026-04-22T12:03:15.999Z</time></trkpt><trkpt lat="42.64984400701978" lon="12.55148872731115"><ele>394.0</ele><time>2026-04-22T12:03:16.999Z</time></trkpt><trkpt lat="42.649908112021464" lon="12.551507088351388"><ele>393.5</ele><time>2026-04-22T12:03:17.999Z</time></trkpt><trkpt lat="42.64998443088064" lon="12.551508517544137"><ele>393.0</ele><time>2026-04-22T12:03:19.999Z</time></trkpt><trkpt lat="42.64998883979536" lon="12.551641793585427"><ele>393.0</ele><time>2026-04-22T12:03:20.999Z</time></trkpt><trkpt lat="42.6500397339325" lon="12.551720078068058"><ele>393.0</ele><time>2026-04-22T12:03:21.999Z</time></trkpt><trkpt lat="42.65008672566699" lon="12.551809072058953"><ele>393.0</ele><time>2026-04-22T12:03:22.999Z</time></trkpt><trkpt lat="42.65013129482207" lon="12.551897362574534"><ele>393.0</ele><time>2026-04-22T12:03:23.999Z</time></trkpt><trkpt lat="42.65018187714856" lon="12.55200820247103"><ele>393.0</ele><time>2026-04-22T12:03:24.999Z</time></trkpt><trkpt lat="42.65023610392971" lon="12.552128652216105"><ele>393.0</ele><time>2026-04-22T12:03:25.999Z</time></trkpt><trkpt lat="42.65029130624457" lon="12.552248427830344"><ele>392.79999999999995</ele><time>2026-04-22T12:03:26.999Z</time></trkpt><trkpt lat="42.650344382194724" lon="12.552372700650174"><ele>392.6</ele><time>2026-04-22T12:03:27.999Z</time></trkpt><trkpt lat="42.65040417034428" lon="12.552494957015552"><ele>392.4</ele><time>2026-04-22T12:03:28.999Z</time></trkpt><trkpt lat="42.65046547759406" lon="12.55262588922259"><ele>392.20000000000005</ele><time>2026-04-22T12:03:29.999Z</time></trkpt><trkpt lat="42.650497221590804" lon="12.552768131861013"><ele>392.0</ele><time>2026-04-22T12:03:30.999Z</time></trkpt><trkpt lat="42.6505362757032" lon="12.552926862939074"><ele>392.0</ele><time>2026-04-22T12:03:31.999Z</time></trkpt><trkpt lat="42.65060067310905" lon="12.55308454627989"><ele>392.0</ele><time>2026-04-22T12:03:32.999Z</time></trkpt><trkpt lat="42.650656525505674" lon="12.553250610964387"><ele>392.0</ele><time>2026-04-22T12:03:33.999Z</time></trkpt><trkpt lat="42.65070211738417" lon="12.553391178062972"><ele>392.0</ele><time>2026-04-22T12:03:34.999Z</time></trkpt><trkpt lat="42.650739919578946" lon="12.553505448745472"><ele>392.0</ele><time>2026-04-22T12:03:35.999Z</time></trkpt><trkpt lat="42.65077161339775" lon="12.553605017222246"><ele>392.0</ele><time>2026-04-22T12:03:36.999Z</time></trkpt><trkpt lat="42.65080283823713" lon="12.553699786263671"><ele>392.0</ele><time>2026-04-22T12:03:37.999Z</time></trkpt><trkpt lat="42.65080655058272" lon="12.553790518460321"><ele>392.0</ele><time>2026-04-22T12:03:38.999Z</time></trkpt><trkpt lat="42.650818212679404" lon="12.553876239922419"><ele>392.0</ele><time>2026-04-22T12:03:39.999Z</time></trkpt><trkpt lat="42.650830118580565" lon="12.553974196663109"><ele>392.0</ele><time>2026-04-22T12:03:41.999Z</time></trkpt><trkpt lat="42.65083971028236" lon="12.554090975285071"><ele>392.0</ele><time>2026-04-22T12:03:44.999Z</time></trkpt><trkpt lat="42.65084906701405" lon="12.554234689365225"><ele>391.8</ele><time>2026-04-22T12:03:46.999Z</time></trkpt><trkpt lat="42.650834085650835" lon="12.554411815457204"><ele>391.6</ele><time>2026-04-22T12:03:48.999Z</time></trkpt><trkpt lat="42.650832832817635" lon="12.554529453000121"><ele>391.40000000000003</ele><time>2026-04-22T12:03:49.999Z</time></trkpt><trkpt lat="42.650832247236316" lon="12.554659470031815"><ele>391.20000000000005</ele><time>2026-04-22T12:03:50.999Z</time></trkpt><trkpt lat="42.65083415445547" lon="12.554781774769795"><ele>391.0</ele><time>2026-04-22T12:03:51.999Z</time></trkpt><trkpt lat="42.650839483508825" lon="12.554893830215445"><ele>390.1666666666667</ele><time>2026-04-22T12:03:52.999Z</time></trkpt><trkpt lat="42.65084594397787" lon="12.554982439866043"><ele>389.33333333333337</ele><time>2026-04-22T12:03:53.999Z</time></trkpt><trkpt lat="42.65085951867094" lon="12.555076419067085"><ele>388.5</ele><time>2026-04-22T12:03:55.999Z</time></trkpt><trkpt lat="42.650810318643224" lon="12.555198481455161"><ele>387.66666666666663</ele><time>2026-04-22T12:03:58.999Z</time></trkpt><trkpt lat="42.6508001280353" lon="12.555298898054216"><ele>386.8333333333333</ele><time>2026-04-22T12:03:59.999Z</time></trkpt><trkpt lat="42.650766813708536" lon="12.55541781398878"><ele>386.0</ele><time>2026-04-22T12:04:00.999Z</time></trkpt><trkpt lat="42.65080397067204" lon="12.555573127641514"><ele>385.0</ele><time>2026-04-22T12:04:01.999Z</time></trkpt><trkpt lat="42.65082624181281" lon="12.555796407239093"><ele>384.0</ele><time>2026-04-22T12:04:02.999Z</time></trkpt><trkpt lat="42.65086058086306" lon="12.55594783193046"><ele>383.0</ele><time>2026-04-22T12:04:03.999Z</time></trkpt><trkpt lat="42.65089012904575" lon="12.55612902586244"><ele>382.0</ele><time>2026-04-22T12:04:04.999Z</time></trkpt><trkpt lat="42.65092625905682" lon="12.556285316915881"><ele>382.0</ele><time>2026-04-22T12:04:06Z</time></trkpt><trkpt lat="42.65098764494653" lon="12.556435415566433"><ele>382.0</ele><time>2026-04-22T12:04:07Z</time></trkpt><trkpt lat="42.651078913210426" lon="12.556573060699968"><ele>382.0</ele><time>2026-04-22T12:04:08Z</time></trkpt><trkpt lat="42.65119875750476" lon="12.556682011047403"><ele>382.0</ele><time>2026-04-22T12:04:09Z</time></trkpt><trkpt lat="42.651351020211834" lon="12.556756124296248"><ele>382.0</ele><time>2026-04-22T12:04:10Z</time></trkpt><trkpt lat="42.6515172439933" lon="12.556811158631563"><ele>382.0</ele><time>2026-04-22T12:04:11Z</time></trkpt><trkpt lat="42.65169476624921" lon="12.556868729157745"><ele>382.0</ele><time>2026-04-22T12:04:12Z</time></trkpt><trkpt lat="42.65186896406438" lon="12.556944908787758"><ele>380.66666666666663</ele><time>2026-04-22T12:04:13Z</time></trkpt><trkpt lat="42.65204301079756" lon="12.557021238719397"><ele>379.3333333333333</ele><time>2026-04-22T12:04:14Z</time></trkpt><trkpt lat="42.65221762155497" lon="12.557091348512833"><ele>378.0</ele><time>2026-04-22T12:04:15Z</time></trkpt><trkpt lat="42.65236848717843" lon="12.557152458228524"><ele>378.0</ele><time>2026-04-22T12:04:16Z</time></trkpt><trkpt lat="42.65250628194476" lon="12.55721006262994"><ele>378.0</ele><time>2026-04-22T12:04:17Z</time></trkpt><trkpt lat="42.6526389952077" lon="12.557282435489924"><ele>378.0</ele><time>2026-04-22T12:04:18Z</time></trkpt><trkpt lat="42.65273555716097" lon="12.557372811705926"><ele>378.0</ele><time>2026-04-22T12:04:19Z</time></trkpt><trkpt lat="42.6528312729194" lon="12.557476353735735"><ele>378.0</ele><time>2026-04-22T12:04:20Z</time></trkpt><trkpt lat="42.65293191418796" lon="12.557612548352358"><ele>378.0</ele><time>2026-04-22T12:04:21Z</time></trkpt><trkpt lat="42.65303903700193" lon="12.5577561877914"><ele>378.0</ele><time>2026-04-22T12:04:22Z</time></trkpt><trkpt lat="42.65314406457" lon="12.557932142372938"><ele>379.6666666666667</ele><time>2026-04-22T12:04:23Z</time></trkpt><trkpt lat="42.653252514131665" lon="12.558133371414625"><ele>381.33333333333337</ele><time>2026-04-22T12:04:24Z</time></trkpt><trkpt lat="42.653355983926886" lon="12.558319324327005"><ele>383.0</ele><time>2026-04-22T12:04:25Z</time></trkpt><trkpt lat="42.65344831340236" lon="12.558483194574402"><ele>383.0</ele><time>2026-04-22T12:04:26Z</time></trkpt><trkpt lat="42.65350626600252" lon="12.558627796015534"><ele>383.0</ele><time>2026-04-22T12:04:27Z</time></trkpt><trkpt lat="42.653553905894796" lon="12.558804640464006"><ele>383.0</ele><time>2026-04-22T12:04:28Z</time></trkpt><trkpt lat="42.653643212118986" lon="12.55893478894471"><ele>383.0</ele><time>2026-04-22T12:04:29Z</time></trkpt><trkpt lat="42.65360444558247" lon="12.559128740389312"><ele>384.6666666666667</ele><time>2026-04-22T12:04:30Z</time></trkpt><trkpt lat="42.65355631021505" lon="12.55930767926219"><ele>386.33333333333337</ele><time>2026-04-22T12:04:31Z</time></trkpt><trkpt lat="42.653490759820265" lon="12.559518749854453"><ele>388.0</ele><time>2026-04-22T12:04:32Z</time></trkpt><trkpt lat="42.65342284856447" lon="12.559739641515483"><ele>388.0</ele><time>2026-04-22T12:04:33Z</time></trkpt><trkpt lat="42.65331852461028" lon="12.55996097035093"><ele>388.0</ele><time>2026-04-22T12:04:34Z</time></trkpt><trkpt lat="42.653253661600104" lon="12.560186912124374"><ele>388.0</ele><time>2026-04-22T12:04:35Z</time></trkpt><trkpt lat="42.65320751930924" lon="12.560410304944268"><ele>388.59999999999997</ele><time>2026-04-22T12:04:36Z</time></trkpt><trkpt lat="42.65316112573716" lon="12.560593202342396"><ele>389.2</ele><time>2026-04-22T12:04:37Z</time></trkpt><trkpt lat="42.65312348427469" lon="12.560745186384848"><ele>389.8</ele><time>2026-04-22T12:04:38Z</time></trkpt><trkpt lat="42.653110648578625" lon="12.560878811482997"><ele>390.4</ele><time>2026-04-22T12:04:39Z</time></trkpt><trkpt lat="42.6531511485733" lon="12.560978925634345"><ele>391.0</ele><time>2026-04-22T12:04:40Z</time></trkpt><trkpt lat="42.65319089536722" lon="12.561132600004413"><ele>392.0</ele><time>2026-04-22T12:04:41Z</time></trkpt><trkpt lat="42.653219767410086" lon="12.561316002875568"><ele>393.0</ele><time>2026-04-22T12:04:42Z</time></trkpt><trkpt lat="42.65324479495051" lon="12.56151636896572"><ele>394.0</ele><time>2026-04-22T12:04:43Z</time></trkpt><trkpt lat="42.65327479054433" lon="12.561738394575128"><ele>394.0</ele><time>2026-04-22T12:04:44Z</time></trkpt><trkpt lat="42.653305274342884" lon="12.561950864156872"><ele>394.0</ele><time>2026-04-22T12:04:45Z</time></trkpt><trkpt lat="42.65333911762626" lon="12.56213708474506"><ele>394.0</ele><time>2026-04-22T12:04:46Z</time></trkpt><trkpt lat="42.65336994255201" lon="12.562287984019175"><ele>394.0</ele><time>2026-04-22T12:04:47Z</time></trkpt><trkpt lat="42.653395979796116" lon="12.562430364355478"><ele>394.0</ele><time>2026-04-22T12:04:48Z</time></trkpt><trkpt lat="42.653495952225235" lon="12.56251325656189"><ele>394.0</ele><time>2026-04-22T12:04:49Z</time></trkpt><trkpt lat="42.653610646731885" lon="12.562548595407137"><ele>394.0</ele><time>2026-04-22T12:04:50Z</time></trkpt><trkpt lat="42.65375896246398" lon="12.562547568707444"><ele>394.0</ele><time>2026-04-22T12:04:51Z</time></trkpt><trkpt lat="42.6539143330821" lon="12.562555319092542"><ele>395.0</ele><time>2026-04-22T12:04:52Z</time></trkpt><trkpt lat="42.654076074685115" lon="12.562588549858148"><ele>396.0</ele><time>2026-04-22T12:04:53Z</time></trkpt><trkpt lat="42.6542301290822" lon="12.5626616062119"><ele>397.0</ele><time>2026-04-22T12:04:54Z</time></trkpt><trkpt lat="42.65436514605895" lon="12.562774688520944"><ele>399.6666666666667</ele><time>2026-04-22T12:04:55Z</time></trkpt><trkpt lat="42.65446861436425" lon="12.56293715122242"><ele>402.33333333333337</ele><time>2026-04-22T12:04:56Z</time></trkpt><trkpt lat="42.65456129513462" lon="12.563094081800761"><ele>405.0</ele><time>2026-04-22T12:04:57Z</time></trkpt><trkpt lat="42.65467760841489" lon="12.563267325142094"><ele>405.0</ele><time>2026-04-22T12:04:58Z</time></trkpt><trkpt lat="42.65477984282513" lon="12.563465057111078"><ele>405.0</ele><time>2026-04-22T12:04:59Z</time></trkpt><trkpt lat="42.654861373521996" lon="12.563711933196096"><ele>405.0</ele><time>2026-04-22T12:05:00Z</time></trkpt><trkpt lat="42.65495521622717" lon="12.563873082420233"><ele>410.33333333333337</ele><time>2026-04-22T12:05:01Z</time></trkpt><trkpt lat="42.655016395828625" lon="12.564039036953142"><ele>415.6666666666667</ele><time>2026-04-22T12:05:02Z</time></trkpt><trkpt lat="42.65505340023928" lon="12.56422373186737"><ele>421.0</ele><time>2026-04-22T12:05:03Z</time></trkpt><trkpt lat="42.65507886714713" lon="12.56462915033687"><ele>423.6666666666667</ele><time>2026-04-22T12:05:05Z</time></trkpt><trkpt lat="42.65510368707191" lon="12.564848966464515"><ele>426.33333333333337</ele><time>2026-04-22T12:05:06Z</time></trkpt><trkpt lat="42.65512139088919" lon="12.565089689689502"><ele>429.0</ele><time>2026-04-22T12:05:07Z</time></trkpt><trkpt lat="42.6551362028055" lon="12.565340752345335"><ele>430.33333333333337</ele><time>2026-04-22T12:05:08Z</time></trkpt><trkpt lat="42.65515166165824" lon="12.565594664896853"><ele>431.6666666666667</ele><time>2026-04-22T12:05:09Z</time></trkpt><trkpt lat="42.65516623749597" lon="12.565843223162444"><ele>433.0</ele><time>2026-04-22T12:05:10Z</time></trkpt><trkpt lat="42.655174168877515" lon="12.566093675782284"><ele>435.6666666666667</ele><time>2026-04-22T12:05:11Z</time></trkpt><trkpt lat="42.65517219815585" lon="12.566323722122988"><ele>438.33333333333337</ele><time>2026-04-22T12:05:12Z</time></trkpt><trkpt lat="42.65514409984053" lon="12.566519210426614"><ele>441.0</ele><time>2026-04-22T12:05:13Z</time></trkpt><trkpt lat="42.65509646109682" lon="12.5666931277282"><ele>441.0</ele><time>2026-04-22T12:05:14Z</time></trkpt><trkpt lat="42.655026251520155" lon="12.566875980918931"><ele>441.0</ele><time>2026-04-22T12:05:15Z</time></trkpt><trkpt lat="42.65494438729809" lon="12.567070489418743"><ele>441.0</ele><time>2026-04-22T12:05:16Z</time></trkpt><trkpt lat="42.65486126215265" lon="12.567277446042192"><ele>441.66666666666663</ele><time>2026-04-22T12:05:17Z</time></trkpt><trkpt lat="42.65479621050453" lon="12.567490914771442"><ele>442.3333333333333</ele><time>2026-04-22T12:05:18Z</time></trkpt><trkpt lat="42.65476685662069" lon="12.567721677339682"><ele>443.0</ele><time>2026-04-22T12:05:19Z</time></trkpt><trkpt lat="42.654752292386526" lon="12.567959660150722"><ele>444.0</ele><time>2026-04-22T12:05:20Z</time></trkpt><trkpt lat="42.65471404355229" lon="12.568176810327207"><ele>445.0</ele><time>2026-04-22T12:05:21Z</time></trkpt><trkpt lat="42.654692138429326" lon="12.568366780030832"><ele>446.0</ele><time>2026-04-22T12:05:22Z</time></trkpt><trkpt lat="42.654673791644456" lon="12.568533365401468"><ele>447.0</ele><time>2026-04-22T12:05:23Z</time></trkpt><trkpt lat="42.65468406636818" lon="12.568685337761542"><ele>449.3333333333333</ele><time>2026-04-22T12:05:24Z</time></trkpt><trkpt lat="42.65467197734792" lon="12.568815025103873"><ele>451.66666666666663</ele><time>2026-04-22T12:05:25Z</time></trkpt><trkpt lat="42.654697380282435" lon="12.568920254852513"><ele>454.0</ele><time>2026-04-22T12:05:26Z</time></trkpt><trkpt lat="42.65475605308424" lon="12.568978731105375"><ele>456.3333333333333</ele><time>2026-04-22T12:05:27Z</time></trkpt><trkpt lat="42.654828393275025" lon="12.56899941594494"><ele>458.66666666666663</ele><time>2026-04-22T12:05:28Z</time></trkpt><trkpt lat="42.65490311832591" lon="12.568981515852656"><ele>461.0</ele><time>2026-04-22T12:05:29Z</time></trkpt><trkpt lat="42.654965299419786" lon="12.56891904762158"><ele>461.0</ele><time>2026-04-22T12:05:30Z</time></trkpt><trkpt lat="42.65501834318431" lon="12.568820100245725"><ele>461.0</ele><time>2026-04-22T12:05:31Z</time></trkpt><trkpt lat="42.65508340251908" lon="12.568680910641278"><ele>461.0</ele><time>2026-04-22T12:05:32Z</time></trkpt><trkpt lat="42.65519090465074" lon="12.568556141923628"><ele>461.0</ele><time>2026-04-22T12:05:33Z</time></trkpt><trkpt lat="42.65528372761047" lon="12.568407013475301"><ele>461.5</ele><time>2026-04-22T12:05:34Z</time></trkpt><trkpt lat="42.65539326066415" lon="12.568273707028586"><ele>462.0</ele><time>2026-04-22T12:05:35Z</time></trkpt><trkpt lat="42.65547753688577" lon="12.56812491996748"><ele>462.5</ele><time>2026-04-22T12:05:36Z</time></trkpt><trkpt lat="42.655527849614195" lon="12.56793361068918"><ele>463.0</ele><time>2026-04-22T12:05:37Z</time></trkpt><trkpt lat="42.65556446255767" lon="12.567715921607688"><ele>463.0</ele><time>2026-04-22T12:05:38Z</time></trkpt><trkpt lat="42.655617587648926" lon="12.567524758301744"><ele>463.0</ele><time>2026-04-22T12:05:39Z</time></trkpt><trkpt lat="42.655658317549154" lon="12.567356019714898"><ele>463.0</ele><time>2026-04-22T12:05:40Z</time></trkpt><trkpt lat="42.65571637359103" lon="12.567217091422759"><ele>463.0</ele><time>2026-04-22T12:05:41Z</time></trkpt><trkpt lat="42.65585965814012" lon="12.56694539852264"><ele>459.75</ele><time>2026-04-22T12:05:43Z</time></trkpt><trkpt lat="42.65593779466837" lon="12.566802961586795"><ele>456.5</ele><time>2026-04-22T12:05:44Z</time></trkpt><trkpt lat="42.656010537064276" lon="12.566654267187038"><ele>453.25</ele><time>2026-04-22T12:05:45Z</time></trkpt><trkpt lat="42.65605982920615" lon="12.566501404334302"><ele>450.0</ele><time>2026-04-22T12:05:46Z</time></trkpt><trkpt lat="42.65608458826858" lon="12.566343027308323"><ele>451.6666666666667</ele><time>2026-04-22T12:05:47Z</time></trkpt><trkpt lat="42.65612152008883" lon="12.566199121331989"><ele>453.33333333333337</ele><time>2026-04-22T12:05:48Z</time></trkpt><trkpt lat="42.656143145536745" lon="12.566066853199958"><ele>455.0</ele><time>2026-04-22T12:05:49Z</time></trkpt><trkpt lat="42.65616276259969" lon="12.565946250639628"><ele>456.6666666666667</ele><time>2026-04-22T12:05:50Z</time></trkpt><trkpt lat="42.656179229109746" lon="12.565845017129153"><ele>458.33333333333337</ele><time>2026-04-22T12:05:51Z</time></trkpt><trkpt lat="42.65618120743109" lon="12.565751654735049"><ele>460.0</ele><time>2026-04-22T12:05:52Z</time></trkpt><trkpt lat="42.65623202569609" lon="12.565637871399593"><ele>460.0</ele><time>2026-04-22T12:05:54Z</time></trkpt><trkpt lat="42.65627657284211" lon="12.565561179647847"><ele>460.0</ele><time>2026-04-22T12:05:56Z</time></trkpt><trkpt lat="42.656338678755745" lon="12.565414254708859"><ele>460.0</ele><time>2026-04-22T12:05:58Z</time></trkpt><trkpt lat="42.65640654387159" lon="12.56537094699769"><ele>460.0</ele><time>2026-04-22T12:05:59Z</time></trkpt><trkpt lat="42.65645971371865" lon="12.565323198608858"><ele>460.0</ele><time>2026-04-22T12:06:00Z</time></trkpt><trkpt lat="42.65658427945849" lon="12.565287087648404"><ele>458.50000000000006</ele><time>2026-04-22T12:06:02Z</time></trkpt><trkpt lat="42.65664720988345" lon="12.565276450961543"><ele>457.0</ele><time>2026-04-22T12:06:03Z</time></trkpt><trkpt lat="42.65671285103593" lon="12.565274260271254"><ele>455.5</ele><time>2026-04-22T12:06:04Z</time></trkpt><trkpt lat="42.6567810007877" lon="12.565277045351056"><ele>454.0</ele><time>2026-04-22T12:06:05Z</time></trkpt><trkpt lat="42.65691830416902" lon="12.565297625373471"><ele>452.50000000000006</ele><time>2026-04-22T12:06:07Z</time></trkpt><trkpt lat="42.65696476722492" lon="12.565359997462638"><ele>451.0</ele><time>2026-04-22T12:06:08Z</time></trkpt><trkpt lat="42.656996882120296" lon="12.565454763901757"><ele>451.6</ele><time>2026-04-22T12:06:09Z</time></trkpt><trkpt lat="42.65703584237243" lon="12.565531397556766"><ele>452.20000000000005</ele><time>2026-04-22T12:06:10Z</time></trkpt><trkpt lat="42.65699173399837" lon="12.565701162639662"><ele>452.79999999999995</ele><time>2026-04-22T12:06:11Z</time></trkpt><trkpt lat="42.656997842869714" lon="12.56585964752286"><ele>453.4</ele><time>2026-04-22T12:06:12Z</time></trkpt><trkpt lat="42.657003001411766" lon="12.566031316046033"><ele>454.0</ele><time>2026-04-22T12:06:13Z</time></trkpt><trkpt lat="42.657004272239156" lon="12.566202822832457"><ele>454.0</ele><time>2026-04-22T12:06:14Z</time></trkpt><trkpt lat="42.65702876995932" lon="12.566379250067198"><ele>454.0</ele><time>2026-04-22T12:06:15Z</time></trkpt><trkpt lat="42.65702782753912" lon="12.566579978559236"><ele>454.0</ele><time>2026-04-22T12:06:16Z</time></trkpt><trkpt lat="42.65704056411038" lon="12.566741620035591"><ele>454.0</ele><time>2026-04-22T12:06:17Z</time></trkpt><trkpt lat="42.65705007130426" lon="12.566908347702533"><ele>461.0</ele><time>2026-04-22T12:06:18Z</time></trkpt><trkpt lat="42.65700785500339" lon="12.567220143238195"><ele>468.0</ele><time>2026-04-22T12:06:20Z</time></trkpt><trkpt lat="42.656962890654704" lon="12.567357976495103"><ele>475.0</ele><time>2026-04-22T12:06:21Z</time></trkpt><trkpt lat="42.656901217986125" lon="12.567497446485431"><ele>476.0</ele><time>2026-04-22T12:06:22Z</time></trkpt><trkpt lat="42.65686041564483" lon="12.567652625576642"><ele>477.0</ele><time>2026-04-22T12:06:23Z</time></trkpt><trkpt lat="42.65686032390417" lon="12.567814640433198"><ele>478.0</ele><time>2026-04-22T12:06:24Z</time></trkpt><trkpt lat="42.65685491966065" lon="12.567944376190459"><ele>479.0</ele><time>2026-04-22T12:06:25Z</time></trkpt><trkpt lat="42.65686888457509" lon="12.568052994930065"><ele>480.0</ele><time>2026-04-22T12:06:26Z</time></trkpt><trkpt lat="42.65695288166049" lon="12.56812635807272"><ele>479.0</ele><time>2026-04-22T12:06:28Z</time></trkpt><trkpt lat="42.65703446674294" lon="12.568018416370416"><ele>478.0</ele><time>2026-04-22T12:06:30Z</time></trkpt><trkpt lat="42.65708386459405" lon="12.567919825586298"><ele>477.0</ele><time>2026-04-22T12:06:31Z</time></trkpt><trkpt lat="42.65717760442538" lon="12.567824011950801"><ele>476.0</ele><time>2026-04-22T12:06:32Z</time></trkpt><trkpt lat="42.65728936469399" lon="12.567742677152557"><ele>475.0</ele><time>2026-04-22T12:06:33Z</time></trkpt><trkpt lat="42.65740081490136" lon="12.567662592228462"><ele>475.0</ele><time>2026-04-22T12:06:34Z</time></trkpt><trkpt lat="42.65751165695169" lon="12.567555568327963"><ele>475.0</ele><time>2026-04-22T12:06:35Z</time></trkpt><trkpt lat="42.657621833528495" lon="12.567432246527092"><ele>475.0</ele><time>2026-04-22T12:06:36Z</time></trkpt><trkpt lat="42.657726417014594" lon="12.56728586648089"><ele>475.0</ele><time>2026-04-22T12:06:37Z</time></trkpt><trkpt lat="42.65784971964974" lon="12.567129129832916"><ele>474.2</ele><time>2026-04-22T12:06:38Z</time></trkpt><trkpt lat="42.65793193115529" lon="12.567025522883604"><ele>473.4</ele><time>2026-04-22T12:06:39Z</time></trkpt><trkpt lat="42.65801571420972" lon="12.566931256496972"><ele>472.6</ele><time>2026-04-22T12:06:40Z</time></trkpt><trkpt lat="42.65811075776194" lon="12.566861479720945"><ele>471.8</ele><time>2026-04-22T12:06:41Z</time></trkpt><trkpt lat="42.65821244346264" lon="12.566819802733614"><ele>471.0</ele><time>2026-04-22T12:06:42Z</time></trkpt><trkpt lat="42.658305963483464" lon="12.566789713690294"><ele>471.0</ele><time>2026-04-22T12:06:43Z</time></trkpt><trkpt lat="42.65840197545786" lon="12.566766717487292"><ele>471.0</ele><time>2026-04-22T12:06:44Z</time></trkpt><trkpt lat="42.65848226058965" lon="12.566771262829102"><ele>471.0</ele><time>2026-04-22T12:06:45Z</time></trkpt><trkpt lat="42.6585440884769" lon="12.566796862233552"><ele>471.0</ele><time>2026-04-22T12:06:46Z</time></trkpt><trkpt lat="42.6586192086327" lon="12.5668691237758"><ele>471.0</ele><time>2026-04-22T12:06:47Z</time></trkpt><trkpt lat="42.658713013975216" lon="12.566925048397101"><ele>471.0</ele><time>2026-04-22T12:06:48Z</time></trkpt><trkpt lat="42.658832196915185" lon="12.566938089462003"><ele>472.25</ele><time>2026-04-22T12:06:49Z</time></trkpt><trkpt lat="42.658967850738065" lon="12.566873196726103"><ele>473.5</ele><time>2026-04-22T12:06:50Z</time></trkpt><trkpt lat="42.65911725680312" lon="12.566885577451158"><ele>474.75</ele><time>2026-04-22T12:06:51Z</time></trkpt><trkpt lat="42.65923588337366" lon="12.566854998471571"><ele>476.0</ele><time>2026-04-22T12:06:52Z</time></trkpt><trkpt lat="42.659430362045555" lon="12.566766334394115"><ele>476.20000000000005</ele><time>2026-04-22T12:06:54Z</time></trkpt><trkpt lat="42.659528158214044" lon="12.566800594265194"><ele>476.40000000000003</ele><time>2026-04-22T12:06:55Z</time></trkpt><trkpt lat="42.65959955509279" lon="12.566847635773932"><ele>476.6</ele><time>2026-04-22T12:06:56Z</time></trkpt><trkpt lat="42.65967178400231" lon="12.566914772342571"><ele>476.8</ele><time>2026-04-22T12:06:57Z</time></trkpt><trkpt lat="42.65973523592956" lon="12.56703805849545"><ele>477.0</ele><time>2026-04-22T12:06:58Z</time></trkpt><trkpt lat="42.659822180564085" lon="12.567135475920084"><ele>482.75</ele><time>2026-04-22T12:06:59Z</time></trkpt><trkpt lat="42.659886057204886" lon="12.567267557388478"><ele>488.5</ele><time>2026-04-22T12:07:00Z</time></trkpt><trkpt lat="42.65996664564157" lon="12.567394914640492"><ele>494.25</ele><time>2026-04-22T12:07:01Z</time></trkpt><trkpt lat="42.66004477125791" lon="12.567514833233144"><ele>500.0</ele><time>2026-04-22T12:07:02Z</time></trkpt><trkpt lat="42.66013931352498" lon="12.567646709872665"><ele>500.0</ele><time>2026-04-22T12:07:03Z</time></trkpt><trkpt lat="42.660232002259455" lon="12.567786614381822"><ele>500.0</ele><time>2026-04-22T12:07:04Z</time></trkpt><trkpt lat="42.660314869209245" lon="12.567931224472797"><ele>500.0</ele><time>2026-04-22T12:07:05Z</time></trkpt><trkpt lat="42.660417586313706" lon="12.568089527728777"><ele>500.0</ele><time>2026-04-22T12:07:06Z</time></trkpt><trkpt lat="42.660522263719905" lon="12.568213380254226"><ele>502.5</ele><time>2026-04-22T12:07:07Z</time></trkpt><trkpt lat="42.660603349495155" lon="12.568316847138902"><ele>505.0</ele><time>2026-04-22T12:07:08Z</time></trkpt><trkpt lat="42.66068637844245" lon="12.568396705934786"><ele>507.5</ele><time>2026-04-22T12:07:09Z</time></trkpt><trkpt lat="42.660805258996376" lon="12.568463953775577"><ele>510.0</ele><time>2026-04-22T12:07:10Z</time></trkpt><trkpt lat="42.660935179457134" lon="12.568492544231862"><ele>510.0</ele><time>2026-04-22T12:07:11Z</time></trkpt><trkpt lat="42.66105844747328" lon="12.568527593643491"><ele>510.0</ele><time>2026-04-22T12:07:12Z</time></trkpt><trkpt lat="42.661157392541966" lon="12.56855829600097"><ele>510.0</ele><time>2026-04-22T12:07:13Z</time></trkpt><trkpt lat="42.66123325661659" lon="12.568584289503795"><ele>510.0</ele><time>2026-04-22T12:07:14Z</time></trkpt><trkpt lat="42.66129375121202" lon="12.568507357800964"><ele>510.0</ele><time>2026-04-22T12:07:15Z</time></trkpt><trkpt lat="42.66131454572022" lon="12.568372187554742"><ele>513.25</ele><time>2026-04-22T12:07:16Z</time></trkpt><trkpt lat="42.661316937211616" lon="12.568242883035797"><ele>516.5</ele><time>2026-04-22T12:07:17Z</time></trkpt><trkpt lat="42.661304679169184" lon="12.568093093149006"><ele>519.75</ele><time>2026-04-22T12:07:18Z</time></trkpt><trkpt lat="42.661275606098826" lon="12.567920786689962"><ele>523.0</ele><time>2026-04-22T12:07:19Z</time></trkpt><trkpt lat="42.66122941488213" lon="12.567759122460567"><ele>523.0</ele><time>2026-04-22T12:07:20Z</time></trkpt><trkpt lat="42.66120998135978" lon="12.56760827435357"><ele>523.0</ele><time>2026-04-22T12:07:21Z</time></trkpt><trkpt lat="42.66120346346734" lon="12.56750715821119"><ele>523.0</ele><time>2026-04-22T12:07:22Z</time></trkpt><trkpt lat="42.66128868934077" lon="12.567458537396405"><ele>523.0</ele><time>2026-04-22T12:07:24Z</time></trkpt><trkpt lat="42.66137170101257" lon="12.567620966648272"><ele>523.0</ele><time>2026-04-22T12:07:26Z</time></trkpt><trkpt lat="42.661445958924816" lon="12.567734090448118"><ele>523.25</ele><time>2026-04-22T12:07:27Z</time></trkpt><trkpt lat="42.66151369916486" lon="12.567895346215021"><ele>523.5</ele><time>2026-04-22T12:07:28Z</time></trkpt><trkpt lat="42.6615396584317" lon="12.568065162554833"><ele>523.75</ele><time>2026-04-22T12:07:29Z</time></trkpt><trkpt lat="42.6615675045055" lon="12.56823631219365"><ele>524.0</ele><time>2026-04-22T12:07:30Z</time></trkpt><trkpt lat="42.66159385899471" lon="12.568467947990229"><ele>524.3333333333333</ele><time>2026-04-22T12:07:31Z</time></trkpt><trkpt lat="42.66163209056501" lon="12.568714532268789"><ele>524.6666666666666</ele><time>2026-04-22T12:07:32Z</time></trkpt><trkpt lat="42.661684630812594" lon="12.56890569762459"><ele>525.0</ele><time>2026-04-22T12:07:33Z</time></trkpt><trkpt lat="42.66171310891759" lon="12.569090604547094"><ele>525.0</ele><time>2026-04-22T12:07:34Z</time></trkpt><trkpt lat="42.661755047155765" lon="12.569251712706413"><ele>525.0</ele><time>2026-04-22T12:07:35Z</time></trkpt><trkpt lat="42.66180777704751" lon="12.569354269767333"><ele>525.0</ele><time>2026-04-22T12:07:36Z</time></trkpt><trkpt lat="42.661871688320424" lon="12.569431300791251"><ele>525.0</ele><time>2026-04-22T12:07:37Z</time></trkpt><trkpt lat="42.661968245443255" lon="12.569476463096334"><ele>525.0</ele><time>2026-04-22T12:07:38Z</time></trkpt><trkpt lat="42.66209283176111" lon="12.569490529666279"><ele>527.25</ele><time>2026-04-22T12:07:39Z</time></trkpt><trkpt lat="42.66221997056195" lon="12.569497511468288"><ele>529.5</ele><time>2026-04-22T12:07:40Z</time></trkpt><trkpt lat="42.66232593313778" lon="12.569533624538435"><ele>531.75</ele><time>2026-04-22T12:07:41Z</time></trkpt><trkpt lat="42.66243081530068" lon="12.569770848022927"><ele>534.0</ele><time>2026-04-22T12:07:43Z</time></trkpt><trkpt lat="42.66250122075097" lon="12.569932030651973"><ele>534.0</ele><time>2026-04-22T12:07:44Z</time></trkpt><trkpt lat="42.66255515914408" lon="12.570132252107639"><ele>534.0</ele><time>2026-04-22T12:07:45Z</time></trkpt><trkpt lat="42.66260931081768" lon="12.570342971882594"><ele>534.0</ele><time>2026-04-22T12:07:46Z</time></trkpt><trkpt lat="42.662680306158734" lon="12.570531581542403"><ele>533.6666666666666</ele><time>2026-04-22T12:07:47Z</time></trkpt><trkpt lat="42.662764904521744" lon="12.570719521880081"><ele>533.3333333333333</ele><time>2026-04-22T12:07:48Z</time></trkpt><trkpt lat="42.66286367377551" lon="12.570885502174024"><ele>533.0</ele><time>2026-04-22T12:07:49Z</time></trkpt><trkpt lat="42.662956816597315" lon="12.571011577531563"><ele>534.4</ele><time>2026-04-22T12:07:50Z</time></trkpt><trkpt lat="42.66302315517472" lon="12.571119497590201"><ele>535.8</ele><time>2026-04-22T12:07:51Z</time></trkpt><trkpt lat="42.66303732523238" lon="12.571203196387671"><ele>537.2</ele><time>2026-04-22T12:07:52Z</time></trkpt><trkpt lat="42.66299103087354" lon="12.571268202730604"><ele>538.6</ele><time>2026-04-22T12:07:53Z</time></trkpt><trkpt lat="42.66288953874364" lon="12.571353236345306"><ele>540.0</ele><time>2026-04-22T12:07:55Z</time></trkpt><trkpt lat="42.662747753514275" lon="12.571314445384358"><ele>540.0</ele><time>2026-04-22T12:07:56Z</time></trkpt><trkpt lat="42.66266277674573" lon="12.571406879092246"><ele>540.0</ele><time>2026-04-22T12:07:57Z</time></trkpt><trkpt lat="42.66262219421318" lon="12.57151161136403"><ele>540.0</ele><time>2026-04-22T12:07:58Z</time></trkpt><trkpt lat="42.662610035978155" lon="12.571647626172878"><ele>540.0</ele><time>2026-04-22T12:07:59Z</time></trkpt><trkpt lat="42.66261967382437" lon="12.571798909328104"><ele>540.0</ele><time>2026-04-22T12:08:00Z</time></trkpt><trkpt lat="42.66265863228925" lon="12.5719654947619"><ele>543.0</ele><time>2026-04-22T12:08:01Z</time></trkpt><trkpt lat="42.6626890082002" lon="12.572136442281876"><ele>546.0</ele><time>2026-04-22T12:08:02Z</time></trkpt><trkpt lat="42.66265377654657" lon="12.572300839729175"><ele>549.0</ele><time>2026-04-22T12:08:03Z</time></trkpt><trkpt lat="42.66260754429022" lon="12.572468154188211"><ele>552.0</ele><time>2026-04-22T12:08:04Z</time></trkpt><trkpt lat="42.66254395535938" lon="12.572635588751691"><ele>552.0</ele><time>2026-04-22T12:08:05Z</time></trkpt><trkpt lat="42.66251769540189" lon="12.572785713828665"><ele>552.0</ele><time>2026-04-22T12:08:06Z</time></trkpt><trkpt lat="42.66250178516571" lon="12.572915669349687"><ele>552.0</ele><time>2026-04-22T12:08:07Z</time></trkpt><trkpt lat="42.6625162878452" lon="12.573073891658941"><ele>552.0</ele><time>2026-04-22T12:08:08Z</time></trkpt><trkpt lat="42.66257740441632" lon="12.573196900775388"><ele>552.0</ele><time>2026-04-22T12:08:09Z</time></trkpt><trkpt lat="42.662655597682964" lon="12.57332877353819"><ele>553.0</ele><time>2026-04-22T12:08:10Z</time></trkpt><trkpt lat="42.662742222562315" lon="12.573453618087846"><ele>554.0</ele><time>2026-04-22T12:08:11Z</time></trkpt><trkpt lat="42.66283331706433" lon="12.573568217867463"><ele>555.0</ele><time>2026-04-22T12:08:12Z</time></trkpt><trkpt lat="42.662928692634765" lon="12.57370670414537"><ele>556.0</ele><time>2026-04-22T12:08:13Z</time></trkpt><trkpt lat="42.663018608972614" lon="12.57380824037869"><ele>559.0</ele><time>2026-04-22T12:08:14Z</time></trkpt><trkpt lat="42.66309820500697" lon="12.573887170259953"><ele>562.0</ele><time>2026-04-22T12:08:15Z</time></trkpt><trkpt lat="42.66316941098193" lon="12.573949560813517"><ele>565.0</ele><time>2026-04-22T12:08:16Z</time></trkpt><trkpt lat="42.663237783819945" lon="12.574013758502156"><ele>568.0</ele><time>2026-04-22T12:08:17Z</time></trkpt><trkpt lat="42.6632829827452" lon="12.574117282506053"><ele>571.0</ele><time>2026-04-22T12:08:19Z</time></trkpt><trkpt lat="42.66335058411541" lon="12.574254812501758"><ele>571.0</ele><time>2026-04-22T12:08:28Z</time></trkpt><trkpt lat="42.66335380259607" lon="12.574343221032354"><ele>571.0</ele><time>2026-04-22T12:08:29Z</time></trkpt><trkpt lat="42.663301768167635" lon="12.574450594908832"><ele>571.0</ele><time>2026-04-22T12:08:31Z</time></trkpt><trkpt lat="42.66323031707252" lon="12.574402328559712"><ele>571.0</ele><time>2026-04-22T12:08:32Z</time></trkpt><trkpt lat="42.66315915299002" lon="12.574341323480112"><ele>571.0</ele><time>2026-04-22T12:08:33Z</time></trkpt><trkpt lat="42.66305085891672" lon="12.574298036079439"><ele>571.0</ele><time>2026-04-22T12:08:34Z</time></trkpt><trkpt lat="42.66292363813052" lon="12.57429038094548"><ele>571.0</ele><time>2026-04-22T12:08:35Z</time></trkpt><trkpt lat="42.66280941010063" lon="12.574277266393045"><ele>571.0</ele><time>2026-04-22T12:08:36Z</time></trkpt><trkpt lat="42.66269038925513" lon="12.574271432736111"><ele>571.0</ele><time>2026-04-22T12:08:37Z</time></trkpt><trkpt lat="42.66258009582444" lon="12.574288306124533"><ele>571.0</ele><time>2026-04-22T12:08:38Z</time></trkpt><trkpt lat="42.66248505041343" lon="12.57433779376842"><ele>571.0</ele><time>2026-04-22T12:08:39Z</time></trkpt><trkpt lat="42.662415166065976" lon="12.574412708352835"><ele>570.1666666666667</ele><time>2026-04-22T12:08:40Z</time></trkpt><trkpt lat="42.66235551523211" lon="12.574507390092034"><ele>569.3333333333334</ele><time>2026-04-22T12:08:41Z</time></trkpt><trkpt lat="42.66231088157489" lon="12.574614578394144"><ele>568.5</ele><time>2026-04-22T12:08:42Z</time></trkpt><trkpt lat="42.66225048734547" lon="12.574694897636682"><ele>567.6666666666666</ele><time>2026-04-22T12:08:43Z</time></trkpt><trkpt lat="42.662192016341265" lon="12.574804936038642"><ele>566.8333333333333</ele><time>2026-04-22T12:08:44Z</time></trkpt><trkpt lat="42.66214018700911" lon="12.574868610243511"><ele>566.0</ele><time>2026-04-22T12:08:45Z</time></trkpt><trkpt lat="42.662134805991116" lon="12.574958885365495"><ele>570.4</ele><time>2026-04-22T12:08:46Z</time></trkpt><trkpt lat="42.66219702501285" lon="12.575056115828751"><ele>574.8</ele><time>2026-04-22T12:08:47Z</time></trkpt><trkpt lat="42.662293552222366" lon="12.575081481860195"><ele>579.1999999999999</ele><time>2026-04-22T12:08:48Z</time></trkpt><trkpt lat="42.662364104923384" lon="12.575077027280825"><ele>583.6</ele><time>2026-04-22T12:08:49Z</time></trkpt><trkpt lat="42.66243791541468" lon="12.575017840817138"><ele>588.0</ele><time>2026-04-22T12:08:50Z</time></trkpt><trkpt lat="42.662489479158545" lon="12.574836781334055"><ele>588.0</ele><time>2026-04-22T12:08:51Z</time></trkpt><trkpt lat="42.662588134887386" lon="12.574772155141453"><ele>588.0</ele><time>2026-04-22T12:08:52Z</time></trkpt><trkpt lat="42.66269046980795" lon="12.574751138758964"><ele>588.0</ele><time>2026-04-22T12:08:53Z</time></trkpt><trkpt lat="42.66279268243909" lon="12.574785652704092"><ele>588.0</ele><time>2026-04-22T12:08:54Z</time></trkpt><trkpt lat="42.66290056338281" lon="12.5748310406982"><ele>588.0</ele><time>2026-04-22T12:08:55Z</time></trkpt><trkpt lat="42.66299245571841" lon="12.574877033922714"><ele>586.75</ele><time>2026-04-22T12:08:56Z</time></trkpt><trkpt lat="42.66313096567939" lon="12.574952222877286"><ele>585.5</ele><time>2026-04-22T12:08:57Z</time></trkpt><trkpt lat="42.66325650432653" lon="12.575053834048243"><ele>584.25</ele><time>2026-04-22T12:08:58Z</time></trkpt><trkpt lat="42.663370894665356" lon="12.575155234119155"><ele>583.0</ele><time>2026-04-22T12:08:59Z</time></trkpt><trkpt lat="42.66350697888838" lon="12.575262386635496"><ele>586.5</ele><time>2026-04-22T12:09:00Z</time></trkpt><trkpt lat="42.663619469702766" lon="12.575367629434883"><ele>590.0</ele><time>2026-04-22T12:09:01Z</time></trkpt><trkpt lat="42.66374094625232" lon="12.575485141966087"><ele>593.5</ele><time>2026-04-22T12:09:02Z</time></trkpt><trkpt lat="42.663842155281884" lon="12.57565748275794"><ele>597.0</ele><time>2026-04-22T12:09:03Z</time></trkpt><trkpt lat="42.663945633000615" lon="12.575822538829316"><ele>597.0</ele><time>2026-04-22T12:09:04Z</time></trkpt><trkpt lat="42.664062509784245" lon="12.57598465939204"><ele>597.0</ele><time>2026-04-22T12:09:05Z</time></trkpt><trkpt lat="42.664153806060284" lon="12.57616259730511"><ele>597.0</ele><time>2026-04-22T12:09:06Z</time></trkpt><trkpt lat="42.66427060075287" lon="12.576354249210075"><ele>602.6666666666666</ele><time>2026-04-22T12:09:07Z</time></trkpt><trkpt lat="42.66438109712264" lon="12.57655746124792"><ele>608.3333333333333</ele><time>2026-04-22T12:09:08Z</time></trkpt><trkpt lat="42.66447946892451" lon="12.576743001575984"><ele>614.0</ele><time>2026-04-22T12:09:09Z</time></trkpt><trkpt lat="42.66458546214317" lon="12.576916264671485"><ele>616.25</ele><time>2026-04-22T12:09:10Z</time></trkpt><trkpt lat="42.6646842957952" lon="12.57705432581509"><ele>618.5</ele><time>2026-04-22T12:09:11Z</time></trkpt><trkpt lat="42.66475833893595" lon="12.57717087296398"><ele>620.75</ele><time>2026-04-22T12:09:12Z</time></trkpt><trkpt lat="42.664839063330774" lon="12.577295454434447"><ele>623.0</ele><time>2026-04-22T12:09:13Z</time></trkpt><trkpt lat="42.664909604889324" lon="12.57740595793526"><ele>623.0</ele><time>2026-04-22T12:09:14Z</time></trkpt><trkpt lat="42.66499370194757" lon="12.577496426083915"><ele>623.0</ele><time>2026-04-22T12:09:15Z</time></trkpt><trkpt lat="42.66507279486948" lon="12.57759567598908"><ele>623.0</ele><time>2026-04-22T12:09:16Z</time></trkpt><trkpt lat="42.665171654644084" lon="12.577680313815657"><ele>623.0</ele><time>2026-04-22T12:09:17Z</time></trkpt><trkpt lat="42.665265271215006" lon="12.577776273150118"><ele>623.0</ele><time>2026-04-22T12:09:18Z</time></trkpt><trkpt lat="42.66534059128278" lon="12.577866099342003"><ele>626.0</ele><time>2026-04-22T12:09:19Z</time></trkpt><trkpt lat="42.665392982519" lon="12.5779363396975"><ele>629.0</ele><time>2026-04-22T12:09:20Z</time></trkpt><trkpt lat="42.66545467956437" lon="12.578006688729408"><ele>632.0</ele><time>2026-04-22T12:09:21Z</time></trkpt><trkpt lat="42.665542078287494" lon="12.57799616298811"><ele>635.0</ele><time>2026-04-22T12:09:22Z</time></trkpt><trkpt lat="42.66561449203916" lon="12.57788338383357"><ele>638.0</ele><time>2026-04-22T12:09:23Z</time></trkpt><trkpt lat="42.665586498796216" lon="12.577716267872583"><ele>638.0</ele><time>2026-04-22T12:09:24Z</time></trkpt><trkpt lat="42.66558370195037" lon="12.577548101769107"><ele>638.0</ele><time>2026-04-22T12:09:25Z</time></trkpt><trkpt lat="42.66554964250686" lon="12.577362957254406"><ele>638.0</ele><time>2026-04-22T12:09:26Z</time></trkpt><trkpt lat="42.66550389361222" lon="12.577190433313623"><ele>638.0</ele><time>2026-04-22T12:09:27Z</time></trkpt><trkpt lat="42.665423771339796" lon="12.577019919259149"><ele>639.6666666666666</ele><time>2026-04-22T12:09:28Z</time></trkpt><trkpt lat="42.665376647746896" lon="12.57681383537806"><ele>641.3333333333334</ele><time>2026-04-22T12:09:29Z</time></trkpt><trkpt lat="42.665322901571244" lon="12.57661826666269"><ele>643.0</ele><time>2026-04-22T12:09:30Z</time></trkpt><trkpt lat="42.66528156886981" lon="12.576410832781576"><ele>635.75</ele><time>2026-04-22T12:09:31Z</time></trkpt><trkpt lat="42.665248960211606" lon="12.576210963594303"><ele>628.5</ele><time>2026-04-22T12:09:32Z</time></trkpt><trkpt lat="42.66523119274535" lon="12.576023385944382"><ele>621.25</ele><time>2026-04-22T12:09:33Z</time></trkpt><trkpt lat="42.66523847225947" lon="12.57586484998637"><ele>614.0</ele><time>2026-04-22T12:09:34Z</time></trkpt><trkpt lat="42.66527517457719" lon="12.575745493602556"><ele>619.0</ele><time>2026-04-22T12:09:35Z</time></trkpt><trkpt lat="42.66533283140708" lon="12.575651839743971"><ele>624.0</ele><time>2026-04-22T12:09:36Z</time></trkpt><trkpt lat="42.665411186357765" lon="12.575565022541307"><ele>629.0</ele><time>2026-04-22T12:09:37Z</time></trkpt><trkpt lat="42.66548036788659" lon="12.575506513609596"><ele>634.0</ele><time>2026-04-22T12:09:38Z</time></trkpt><trkpt lat="42.665568865978315" lon="12.575473738724884"><ele>639.0</ele><time>2026-04-22T12:09:39Z</time></trkpt><trkpt lat="42.66567242165499" lon="12.575458118975877"><ele>639.0</ele><time>2026-04-22T12:09:40Z</time></trkpt><trkpt lat="42.66578263812416" lon="12.575466698461476"><ele>639.0</ele><time>2026-04-22T12:09:41Z</time></trkpt><trkpt lat="42.665905258771545" lon="12.575493950739487"><ele>639.0</ele><time>2026-04-22T12:09:42Z</time></trkpt><trkpt lat="42.666025706090515" lon="12.575554921194962"><ele>639.0</ele><time>2026-04-22T12:09:43Z</time></trkpt><trkpt lat="42.666149330482895" lon="12.575620803066798"><ele>641.8</ele><time>2026-04-22T12:09:44Z</time></trkpt><trkpt lat="42.66626697154922" lon="12.575646242957578"><ele>644.5999999999999</ele><time>2026-04-22T12:09:45Z</time></trkpt><trkpt lat="42.66635420183191" lon="12.575637629404113"><ele>647.4</ele><time>2026-04-22T12:09:46Z</time></trkpt><trkpt lat="42.66644331725961" lon="12.57561987050363"><ele>650.1999999999999</ele><time>2026-04-22T12:09:47Z</time></trkpt><trkpt lat="42.66652798843743" lon="12.57560426330093"><ele>653.0</ele><time>2026-04-22T12:09:48Z</time></trkpt><trkpt lat="42.6665073803158" lon="12.575703998278831"><ele>653.0</ele><time>2026-04-22T12:09:49Z</time></trkpt><trkpt lat="42.66641739266789" lon="12.575824332542528"><ele>653.0</ele><time>2026-04-22T12:09:51Z</time></trkpt><trkpt lat="42.666329626592116" lon="12.575782237107777"><ele>653.0</ele><time>2026-04-22T12:09:52Z</time></trkpt><trkpt lat="42.666219978111585" lon="12.575765560858208"><ele>653.0</ele><time>2026-04-22T12:09:53Z</time></trkpt><trkpt lat="42.66611259505277" lon="12.575730834064116"><ele>653.0</ele><time>2026-04-22T12:09:54Z</time></trkpt><trkpt lat="42.66599838857851" lon="12.575723191641037"><ele>650.1999999999999</ele><time>2026-04-22T12:09:55Z</time></trkpt><trkpt lat="42.665875000781675" lon="12.575710237049556"><ele>647.4</ele><time>2026-04-22T12:09:56Z</time></trkpt><trkpt lat="42.66577529182026" lon="12.575785229963609"><ele>644.5999999999999</ele><time>2026-04-22T12:09:57Z</time></trkpt><trkpt lat="42.66569539291631" lon="12.575878783507267"><ele>641.8</ele><time>2026-04-22T12:09:58Z</time></trkpt><trkpt lat="42.66566054114184" lon="12.575987605686036"><ele>639.0</ele><time>2026-04-22T12:09:59Z</time></trkpt><trkpt lat="42.66565978016292" lon="12.576117168045002"><ele>640.0</ele><time>2026-04-22T12:10:00Z</time></trkpt><trkpt lat="42.66569729730385" lon="12.576255983778868"><ele>641.0</ele><time>2026-04-22T12:10:01Z</time></trkpt><trkpt lat="42.665752167999806" lon="12.576413106366628"><ele>642.0</ele><time>2026-04-22T12:10:02Z</time></trkpt><trkpt lat="42.66583412807752" lon="12.576584850249947"><ele>643.0</ele><time>2026-04-22T12:10:03Z</time></trkpt><trkpt lat="42.66591914021674" lon="12.576717525248833"><ele>643.0</ele><time>2026-04-22T12:10:04Z</time></trkpt><trkpt lat="42.666003620541424" lon="12.576859823326139"><ele>643.0</ele><time>2026-04-22T12:10:05Z</time></trkpt><trkpt lat="42.66605398564486" lon="12.57701346410924"><ele>643.0</ele><time>2026-04-22T12:10:06Z</time></trkpt><trkpt lat="42.66611304026562" lon="12.57716693778406"><ele>643.0</ele><time>2026-04-22T12:10:07Z</time></trkpt><trkpt lat="42.666154618388106" lon="12.577356976774904"><ele>650.0</ele><time>2026-04-22T12:10:08Z</time></trkpt><trkpt lat="42.6662125796301" lon="12.577565769806382"><ele>657.0</ele><time>2026-04-22T12:10:09Z</time></trkpt><trkpt lat="42.6662760107073" lon="12.577778625900839"><ele>664.0</ele><time>2026-04-22T12:10:10Z</time></trkpt><trkpt lat="42.66633387767414" lon="12.578001227765798"><ele>664.0</ele><time>2026-04-22T12:10:11Z</time></trkpt><trkpt lat="42.666399467495" lon="12.57821748965894"><ele>664.0</ele><time>2026-04-22T12:10:12Z</time></trkpt><trkpt lat="42.66646908640096" lon="12.578434967902437"><ele>664.0</ele><time>2026-04-22T12:10:13Z</time></trkpt><trkpt lat="42.666540309767306" lon="12.57865143963402"><ele>663.0</ele><time>2026-04-22T12:10:14Z</time></trkpt><trkpt lat="42.666600370342834" lon="12.578866638540662"><ele>662.0</ele><time>2026-04-22T12:10:15Z</time></trkpt><trkpt lat="42.66665108164129" lon="12.579061664024508"><ele>661.0</ele><time>2026-04-22T12:10:16Z</time></trkpt><trkpt lat="42.666711126544186" lon="12.5792032594458"><ele>660.0</ele><time>2026-04-22T12:10:17Z</time></trkpt><trkpt lat="42.666801683397466" lon="12.579382040239748"><ele>664.3333333333334</ele><time>2026-04-22T12:10:18Z</time></trkpt><trkpt lat="42.666933758442205" lon="12.57956510599295"><ele>668.6666666666667</ele><time>2026-04-22T12:10:19Z</time></trkpt><trkpt lat="42.66708978421228" lon="12.579658460475638"><ele>673.0</ele><time>2026-04-22T12:10:20Z</time></trkpt><trkpt lat="42.66721417136867" lon="12.579712657689445"><ele>673.6666666666667</ele><time>2026-04-22T12:10:21Z</time></trkpt><trkpt lat="42.66737932276304" lon="12.579764948901408"><ele>674.3333333333334</ele><time>2026-04-22T12:10:22Z</time></trkpt><trkpt lat="42.667544469768764" lon="12.579834535108963"><ele>675.0</ele><time>2026-04-22T12:10:23Z</time></trkpt><trkpt lat="42.6677132108748" lon="12.579906186030106"><ele>677.3333333333334</ele><time>2026-04-22T12:10:24Z</time></trkpt><trkpt lat="42.667876058183666" lon="12.580005625392936"><ele>679.6666666666667</ele><time>2026-04-22T12:10:25Z</time></trkpt><trkpt lat="42.66802170016342" lon="12.580133259602304"><ele>682.0</ele><time>2026-04-22T12:10:26Z</time></trkpt><trkpt lat="42.66815323344853" lon="12.580277675018527"><ele>683.0</ele><time>2026-04-22T12:10:27Z</time></trkpt><trkpt lat="42.668286938490596" lon="12.580435546766267"><ele>684.0</ele><time>2026-04-22T12:10:28Z</time></trkpt><trkpt lat="42.66842291167412" lon="12.580595011109963"><ele>685.0</ele><time>2026-04-22T12:10:29Z</time></trkpt><trkpt lat="42.66855552833844" lon="12.580738965004329"><ele>685.75</ele><time>2026-04-22T12:10:30Z</time></trkpt><trkpt lat="42.668667062323806" lon="12.580865300495264"><ele>686.5</ele><time>2026-04-22T12:10:31Z</time></trkpt><trkpt lat="42.66876429453774" lon="12.58098220338509"><ele>687.25</ele><time>2026-04-22T12:10:32Z</time></trkpt><trkpt lat="42.668859531093794" lon="12.581108115255418"><ele>688.0</ele><time>2026-04-22T12:10:33Z</time></trkpt><trkpt lat="42.668954257829235" lon="12.581255612740337"><ele>688.3333333333334</ele><time>2026-04-22T12:10:34Z</time></trkpt><trkpt lat="42.669044619977775" lon="12.581421835210653"><ele>688.6666666666666</ele><time>2026-04-22T12:10:35Z</time></trkpt><trkpt lat="42.66910309871601" lon="12.581624933419235"><ele>689.0</ele><time>2026-04-22T12:10:36Z</time></trkpt><trkpt lat="42.669182280398786" lon="12.581835919208231"><ele>691.6666666666666</ele><time>2026-04-22T12:10:37Z</time></trkpt><trkpt lat="42.669239119222" lon="12.582052395976463"><ele>694.3333333333334</ele><time>2026-04-22T12:10:38Z</time></trkpt><trkpt lat="42.66930590026994" lon="12.582246956858052"><ele>697.0</ele><time>2026-04-22T12:10:39Z</time></trkpt><trkpt lat="42.66938250742102" lon="12.58241920717181"><ele>691.3333333333334</ele><time>2026-04-22T12:10:40Z</time></trkpt><trkpt lat="42.66946508922375" lon="12.582615258747843"><ele>685.6666666666666</ele><time>2026-04-22T12:10:41Z</time></trkpt><trkpt lat="42.66956049643682" lon="12.5827798130655"><ele>680.0</ele><time>2026-04-22T12:10:42Z</time></trkpt><trkpt lat="42.669654244174986" lon="12.582949610413863"><ele>680.0</ele><time>2026-04-22T12:10:43Z</time></trkpt><trkpt lat="42.6697420885675" lon="12.583096275409634"><ele>680.0</ele><time>2026-04-22T12:10:44Z</time></trkpt><trkpt lat="42.66982137190352" lon="12.583230934479527"><ele>680.0</ele><time>2026-04-22T12:10:45Z</time></trkpt><trkpt lat="42.669874786570375" lon="12.583373251267933"><ele>680.0</ele><time>2026-04-22T12:10:46Z</time></trkpt><trkpt lat="42.66990950794365" lon="12.583518261426356"><ele>680.0</ele><time>2026-04-22T12:10:47Z</time></trkpt><trkpt lat="42.66992278643266" lon="12.583676198115898"><ele>680.0</ele><time>2026-04-22T12:10:48Z</time></trkpt><trkpt lat="42.66993451764687" lon="12.58384719341589"><ele>680.0</ele><time>2026-04-22T12:10:49Z</time></trkpt><trkpt lat="42.66995718820594" lon="12.58402947437483"><ele>680.0</ele><time>2026-04-22T12:10:50Z</time></trkpt><trkpt lat="42.670008979957124" lon="12.584197904084439"><ele>680.3333333333333</ele><time>2026-04-22T12:10:51Z</time></trkpt><trkpt lat="42.67002706436223" lon="12.584345345836129"><ele>680.6666666666666</ele><time>2026-04-22T12:10:52Z</time></trkpt><trkpt lat="42.67005138902815" lon="12.58447593043964"><ele>681.0</ele><time>2026-04-22T12:10:53Z</time></trkpt><trkpt lat="42.6700275899721" lon="12.58457682772636"><ele>681.3333333333334</ele><time>2026-04-22T12:10:54Z</time></trkpt><trkpt lat="42.66998979067482" lon="12.584649602644928"><ele>681.6666666666667</ele><time>2026-04-22T12:10:55Z</time></trkpt><trkpt lat="42.669948143487034" lon="12.584753672213843"><ele>682.0</ele><time>2026-04-22T12:10:56Z</time></trkpt><trkpt lat="42.66990594016468" lon="12.584848656772419"><ele>682.2</ele><time>2026-04-22T12:10:57Z</time></trkpt><trkpt lat="42.66994760526242" lon="12.584997045996806"><ele>682.4000000000001</ele><time>2026-04-22T12:10:59Z</time></trkpt><trkpt lat="42.67001575506337" lon="12.58502603872439"><ele>682.5999999999999</ele><time>2026-04-22T12:11:00Z</time></trkpt><trkpt lat="42.67010885147758" lon="12.585013444528997"><ele>682.8</ele><time>2026-04-22T12:11:01Z</time></trkpt><trkpt lat="42.670214241127056" lon="12.585019063064637"><ele>683.0</ele><time>2026-04-22T12:11:02Z</time></trkpt><trkpt lat="42.67029257341216" lon="12.585097928475554"><ele>679.8</ele><time>2026-04-22T12:11:03Z</time></trkpt><trkpt lat="42.670372494930014" lon="12.58518383388059"><ele>676.5999999999999</ele><time>2026-04-22T12:11:04Z</time></trkpt><trkpt lat="42.6704520004847" lon="12.585290981719806"><ele>673.4000000000001</ele><time>2026-04-22T12:11:05Z</time></trkpt><trkpt lat="42.67052259904867" lon="12.585414989495103"><ele>670.2</ele><time>2026-04-22T12:11:06Z</time></trkpt><trkpt lat="42.6705921192104" lon="12.585547228441255"><ele>667.0</ele><time>2026-04-22T12:11:07Z</time></trkpt><trkpt lat="42.670631109051605" lon="12.585707470034391"><ele>667.0</ele><time>2026-04-22T12:11:08Z</time></trkpt><trkpt lat="42.67068040940649" lon="12.585860653483424"><ele>667.0</ele><time>2026-04-22T12:11:09Z</time></trkpt><trkpt lat="42.67074585519226" lon="12.585986904864258"><ele>667.0</ele><time>2026-04-22T12:11:10Z</time></trkpt><trkpt lat="42.67083662312569" lon="12.58610341910624"><ele>667.0</ele><time>2026-04-22T12:11:11Z</time></trkpt><trkpt lat="42.67092161515833" lon="12.586220402261224"><ele>668.75</ele><time>2026-04-22T12:11:12Z</time></trkpt><trkpt lat="42.67099323925149" lon="12.586340186096798"><ele>670.5</ele><time>2026-04-22T12:11:13Z</time></trkpt><trkpt lat="42.671049775297405" lon="12.58647554510589"><ele>672.25</ele><time>2026-04-22T12:11:14Z</time></trkpt><trkpt lat="42.67109710066379" lon="12.586618674652701"><ele>674.0</ele><time>2026-04-22T12:11:15Z</time></trkpt><trkpt lat="42.671136537254746" lon="12.586756860220923"><ele>669.0</ele><time>2026-04-22T12:11:16Z</time></trkpt><trkpt lat="42.67116710350037" lon="12.586891875152538"><ele>664.0</ele><time>2026-04-22T12:11:17Z</time></trkpt><trkpt lat="42.67119169906412" lon="12.587021898718879"><ele>659.0</ele><time>2026-04-22T12:11:18Z</time></trkpt><trkpt lat="42.67120867724441" lon="12.587156204582975"><ele>654.0</ele><time>2026-04-22T12:11:19Z</time></trkpt><trkpt lat="42.67122016301861" lon="12.587302924448752"><ele>649.0</ele><time>2026-04-22T12:11:20Z</time></trkpt><trkpt lat="42.67122594193975" lon="12.587457234759277"><ele>649.0</ele><time>2026-04-22T12:11:21Z</time></trkpt><trkpt lat="42.6712186085781" lon="12.587595375567327"><ele>649.0</ele><time>2026-04-22T12:11:22Z</time></trkpt><trkpt lat="42.67118527581482" lon="12.587698623234822"><ele>649.0</ele><time>2026-04-22T12:11:23Z</time></trkpt><trkpt lat="42.6711301222655" lon="12.587767262124034"><ele>649.0</ele><time>2026-04-22T12:11:24Z</time></trkpt><trkpt lat="42.67104309888633" lon="12.587755862316888"><ele>649.0</ele><time>2026-04-22T12:11:25Z</time></trkpt><trkpt lat="42.67095800114119" lon="12.58778217568907"><ele>649.0</ele><time>2026-04-22T12:11:26Z</time></trkpt><trkpt lat="42.67088036304762" lon="12.587822311812873"><ele>653.6</ele><time>2026-04-22T12:11:27Z</time></trkpt><trkpt lat="42.670829781028544" lon="12.58788525377655"><ele>658.2</ele><time>2026-04-22T12:11:28Z</time></trkpt><trkpt lat="42.670821780973796" lon="12.587986685967214"><ele>662.8000000000001</ele><time>2026-04-22T12:11:29Z</time></trkpt><trkpt lat="42.67084852786871" lon="12.58809988748391"><ele>667.4000000000001</ele><time>2026-04-22T12:11:30Z</time></trkpt><trkpt lat="42.6709087240619" lon="12.588222564078594"><ele>672.0</ele><time>2026-04-22T12:11:31Z</time></trkpt><trkpt lat="42.67097854041963" lon="12.58836809764073"><ele>672.0</ele><time>2026-04-22T12:11:32Z</time></trkpt><trkpt lat="42.67105564962229" lon="12.588514839004494"><ele>672.0</ele><time>2026-04-22T12:11:33Z</time></trkpt><trkpt lat="42.67114071943959" lon="12.58864035046599"><ele>672.0</ele><time>2026-04-22T12:11:34Z</time></trkpt><trkpt lat="42.67123485054266" lon="12.588737586735546"><ele>672.0</ele><time>2026-04-22T12:11:35Z</time></trkpt><trkpt lat="42.671324229685176" lon="12.58880477266895"><ele>670.4000000000001</ele><time>2026-04-22T12:11:36Z</time></trkpt><trkpt lat="42.67142406135734" lon="12.588840395463018"><ele>668.8000000000001</ele><time>2026-04-22T12:11:37Z</time></trkpt><trkpt lat="42.671527166919795" lon="12.588836121837671"><ele>667.2</ele><time>2026-04-22T12:11:38Z</time></trkpt><trkpt lat="42.671636168181294" lon="12.588803984345514"><ele>665.6</ele><time>2026-04-22T12:11:39Z</time></trkpt><trkpt lat="42.67174785502156" lon="12.588810070931936"><ele>664.0</ele><time>2026-04-22T12:11:40Z</time></trkpt><trkpt lat="42.671840992868304" lon="12.58890123903859"><ele>664.0</ele><time>2026-04-22T12:11:41Z</time></trkpt><trkpt lat="42.67191652347504" lon="12.588994469237532"><ele>664.0</ele><time>2026-04-22T12:11:42Z</time></trkpt><trkpt lat="42.67200018114106" lon="12.589089374480162"><ele>664.0</ele><time>2026-04-22T12:11:43Z</time></trkpt><trkpt lat="42.6720676757334" lon="12.58921480142431"><ele>664.0</ele><time>2026-04-22T12:11:44Z</time></trkpt><trkpt lat="42.67215413293733" lon="12.589323794315899"><ele>664.0</ele><time>2026-04-22T12:11:45Z</time></trkpt><trkpt lat="42.672266671346414" lon="12.589399971379313"><ele>661.25</ele><time>2026-04-22T12:11:46Z</time></trkpt><trkpt lat="42.672386434908425" lon="12.589442955397242"><ele>658.5</ele><time>2026-04-22T12:11:47Z</time></trkpt><trkpt lat="42.67252203043168" lon="12.589452479809237"><ele>655.75</ele><time>2026-04-22T12:11:48Z</time></trkpt><trkpt lat="42.67265258850101" lon="12.589449595660001"><ele>653.0</ele><time>2026-04-22T12:11:49Z</time></trkpt><trkpt lat="42.672779931788185" lon="12.589473396808582"><ele>649.75</ele><time>2026-04-22T12:11:50Z</time></trkpt><trkpt lat="42.67290837430882" lon="12.589496084649882"><ele>646.5</ele><time>2026-04-22T12:11:51Z</time></trkpt><trkpt lat="42.673040049111584" lon="12.589538849077751"><ele>643.25</ele><time>2026-04-22T12:11:52Z</time></trkpt><trkpt lat="42.673168758642575" lon="12.589556338077951"><ele>640.0</ele><time>2026-04-22T12:11:53Z</time></trkpt><trkpt lat="42.67329120542416" lon="12.589568194385903"><ele>640.4</ele><time>2026-04-22T12:11:54Z</time></trkpt><trkpt lat="42.673406795422906" lon="12.589578620230347"><ele>640.8</ele><time>2026-04-22T12:11:55Z</time></trkpt><trkpt lat="42.67350960915055" lon="12.58959433246599"><ele>641.2</ele><time>2026-04-22T12:11:56Z</time></trkpt><trkpt lat="42.67360760435341" lon="12.589623063919584"><ele>641.6</ele><time>2026-04-22T12:11:57Z</time></trkpt><trkpt lat="42.67370156390434" lon="12.589665822025053"><ele>642.0</ele><time>2026-04-22T12:11:58Z</time></trkpt><trkpt lat="42.67380323326717" lon="12.589727156188225"><ele>642.0</ele><time>2026-04-22T12:11:59Z</time></trkpt><trkpt lat="42.67390066249115" lon="12.58982743141942"><ele>642.0</ele><time>2026-04-22T12:12:00Z</time></trkpt><trkpt lat="42.67396596254803" lon="12.58997213411298"><ele>642.0</ele><time>2026-04-22T12:12:01Z</time></trkpt><trkpt lat="42.67402154226234" lon="12.590111390763948"><ele>642.0</ele><time>2026-04-22T12:12:02Z</time></trkpt><trkpt lat="42.674079009655486" lon="12.590256391254806"><ele>646.0</ele><time>2026-04-22T12:12:03Z</time></trkpt><trkpt lat="42.67414464779139" lon="12.590396611528115"><ele>650.0</ele><time>2026-04-22T12:12:04Z</time></trkpt><trkpt lat="42.67419505950816" lon="12.590553987316513"><ele>654.0</ele><time>2026-04-22T12:12:05Z</time></trkpt><trkpt lat="42.674250244018985" lon="12.590715342467991"><ele>658.0</ele><time>2026-04-22T12:12:06Z</time></trkpt><trkpt lat="42.67430541118102" lon="12.59088420269447"><ele>658.0</ele><time>2026-04-22T12:12:07Z</time></trkpt><trkpt lat="42.6743563563374" lon="12.591068092812534"><ele>658.0</ele><time>2026-04-22T12:12:08Z</time></trkpt><trkpt lat="42.67439931529914" lon="12.591252158011217"><ele>658.0</ele><time>2026-04-22T12:12:09Z</time></trkpt><trkpt lat="42.67444518474262" lon="12.591444719254818"><ele>658.0</ele><time>2026-04-22T12:12:10Z</time></trkpt><trkpt lat="42.67448604041462" lon="12.591632217726954"><ele>650.5</ele><time>2026-04-22T12:12:11Z</time></trkpt><trkpt lat="42.674513953483626" lon="12.59181465490471"><ele>643.0</ele><time>2026-04-22T12:12:12Z</time></trkpt><trkpt lat="42.674514891909524" lon="12.591993340379446"><ele>635.5</ele><time>2026-04-22T12:12:13Z</time></trkpt><trkpt lat="42.67453034756865" lon="12.592177238118524"><ele>628.0</ele><time>2026-04-22T12:12:14Z</time></trkpt><trkpt lat="42.674554398974905" lon="12.59236348771496"><ele>628.0</ele><time>2026-04-22T12:12:15Z</time></trkpt><trkpt lat="42.67457294621934" lon="12.592553416809087"><ele>628.0</ele><time>2026-04-22T12:12:16Z</time></trkpt><trkpt lat="42.67459224942775" lon="12.592740568988013"><ele>628.0</ele><time>2026-04-22T12:12:17Z</time></trkpt><trkpt lat="42.67461877869805" lon="12.592932590970275"><ele>628.0</ele><time>2026-04-22T12:12:18Z</time></trkpt><trkpt lat="42.67465343163488" lon="12.593121766741842"><ele>630.0</ele><time>2026-04-22T12:12:19Z</time></trkpt><trkpt lat="42.674704118086055" lon="12.593291975333205"><ele>632.0</ele><time>2026-04-22T12:12:20Z</time></trkpt><trkpt lat="42.67475090298872" lon="12.593448030034764"><ele>634.0</ele><time>2026-04-22T12:12:21Z</time></trkpt><trkpt lat="42.67480571157885" lon="12.5936000189283"><ele>636.0</ele><time>2026-04-22T12:12:22Z</time></trkpt><trkpt lat="42.67488708112362" lon="12.593719293931175"><ele>639.25</ele><time>2026-04-22T12:12:23Z</time></trkpt><trkpt lat="42.674962693151315" lon="12.593854898845544"><ele>642.5</ele><time>2026-04-22T12:12:24Z</time></trkpt><trkpt lat="42.675028723366644" lon="12.594018417616004"><ele>645.75</ele><time>2026-04-22T12:12:25Z</time></trkpt><trkpt lat="42.67507334107872" lon="12.594198715914747"><ele>649.0</ele><time>2026-04-22T12:12:26Z</time></trkpt><trkpt lat="42.67512108428255" lon="12.594382301297182"><ele>651.25</ele><time>2026-04-22T12:12:27Z</time></trkpt><trkpt lat="42.67515832683562" lon="12.594571739224877"><ele>653.5</ele><time>2026-04-22T12:12:28Z</time></trkpt><trkpt lat="42.67519230011741" lon="12.594761657318696"><ele>655.75</ele><time>2026-04-22T12:12:29Z</time></trkpt><trkpt lat="42.67520978115994" lon="12.594966415476879"><ele>658.0</ele><time>2026-04-22T12:12:30Z</time></trkpt><trkpt lat="42.67523206867419" lon="12.59515076604545"><ele>658.25</ele><time>2026-04-22T12:12:31Z</time></trkpt><trkpt lat="42.675243936904224" lon="12.595343162358066"><ele>658.5</ele><time>2026-04-22T12:12:32Z</time></trkpt><trkpt lat="42.675260860540284" lon="12.595521228237855"><ele>658.75</ele><time>2026-04-22T12:12:33Z</time></trkpt><trkpt lat="42.67526870641258" lon="12.595689582431502"><ele>659.0</ele><time>2026-04-22T12:12:34Z</time></trkpt><trkpt lat="42.67525252871271" lon="12.595852428964928"><ele>659.0</ele><time>2026-04-22T12:12:35Z</time></trkpt><trkpt lat="42.67524142698335" lon="12.596026054955127"><ele>659.0</ele><time>2026-04-22T12:12:36Z</time></trkpt><trkpt lat="42.67522631662465" lon="12.59621523167727"><ele>659.0</ele><time>2026-04-22T12:12:37Z</time></trkpt><trkpt lat="42.67520905416355" lon="12.596413983076676"><ele>659.0</ele><time>2026-04-22T12:12:38Z</time></trkpt><trkpt lat="42.675197694558086" lon="12.596603203197057"><ele>656.5</ele><time>2026-04-22T12:12:39Z</time></trkpt><trkpt lat="42.675198641489175" lon="12.596775404414183"><ele>654.0</ele><time>2026-04-22T12:12:40Z</time></trkpt><trkpt lat="42.67517851679963" lon="12.596929106694358"><ele>651.5</ele><time>2026-04-22T12:12:41Z</time></trkpt><trkpt lat="42.6751198935693" lon="12.597054495543563"><ele>649.0</ele><time>2026-04-22T12:12:42Z</time></trkpt><trkpt lat="42.67505521490646" lon="12.597170511335209"><ele>647.0</ele><time>2026-04-22T12:12:43Z</time></trkpt><trkpt lat="42.67498366107634" lon="12.597294883134326"><ele>645.0</ele><time>2026-04-22T12:12:44Z</time></trkpt><trkpt lat="42.67492522216431" lon="12.597415616982161"><ele>643.0</ele><time>2026-04-22T12:12:45Z</time></trkpt><trkpt lat="42.674881382277704" lon="12.597521018238227"><ele>641.0</ele><time>2026-04-22T12:12:46Z</time></trkpt><trkpt lat="42.67487247934551" lon="12.597613687740663"><ele>639.0</ele><time>2026-04-22T12:12:47Z</time></trkpt><trkpt lat="42.67495219866426" lon="12.597762463368065"><ele>640.25</ele><time>2026-04-22T12:12:49Z</time></trkpt><trkpt lat="42.67504410644934" lon="12.59784406820675"><ele>641.5</ele><time>2026-04-22T12:12:50Z</time></trkpt><trkpt lat="42.67513600443902" lon="12.597966948315975"><ele>642.75</ele><time>2026-04-22T12:12:51Z</time></trkpt><trkpt lat="42.67523954286589" lon="12.598068309773053"><ele>644.0</ele><time>2026-04-22T12:12:52Z</time></trkpt><trkpt lat="42.67534381883255" lon="12.598183062228118"><ele>636.5</ele><time>2026-04-22T12:12:53Z</time></trkpt><trkpt lat="42.67544235940784" lon="12.598315301165231"><ele>629.0</ele><time>2026-04-22T12:12:54Z</time></trkpt><trkpt lat="42.675518319768244" lon="12.598494222413818"><ele>621.5</ele><time>2026-04-22T12:12:55Z</time></trkpt><trkpt lat="42.67558972385345" lon="12.59868390684353"><ele>614.0</ele><time>2026-04-22T12:12:56Z</time></trkpt><trkpt lat="42.6756509870603" lon="12.598858871828641"><ele>614.0</ele><time>2026-04-22T12:12:57Z</time></trkpt><trkpt lat="42.67570319257108" lon="12.599018693582645"><ele>614.0</ele><time>2026-04-22T12:12:58Z</time></trkpt><trkpt lat="42.67574141532473" lon="12.599154069485884"><ele>614.0</ele><time>2026-04-22T12:12:59Z</time></trkpt><trkpt lat="42.67575582094477" lon="12.59926782559265"><ele>614.0</ele><time>2026-04-22T12:13:00Z</time></trkpt><trkpt lat="42.67573184959848" lon="12.599352077384156"><ele>614.0</ele><time>2026-04-22T12:13:01Z</time></trkpt><trkpt lat="42.67567663686833" lon="12.59941652452597"><ele>614.0</ele><time>2026-04-22T12:13:02Z</time></trkpt><trkpt lat="42.67558250821429" lon="12.599468236523247"><ele>614.0</ele><time>2026-04-22T12:13:03Z</time></trkpt><trkpt lat="42.675462989148706" lon="12.59951175544584"><ele>614.0</ele><time>2026-04-22T12:13:04Z</time></trkpt><trkpt lat="42.6753601069531" lon="12.599542543641672"><ele>614.0</ele><time>2026-04-22T12:13:05Z</time></trkpt><trkpt lat="42.67526434717191" lon="12.599540426239162"><ele>614.0</ele><time>2026-04-22T12:13:06Z</time></trkpt><trkpt lat="42.675183141440854" lon="12.599473578106338"><ele>616.0</ele><time>2026-04-22T12:13:07Z</time></trkpt><trkpt lat="42.67511584409803" lon="12.599387856131269"><ele>618.0</ele><time>2026-04-22T12:13:07.999Z</time></trkpt><trkpt lat="42.67502077510623" lon="12.599266464716456"><ele>620.0</ele><time>2026-04-22T12:13:08.999Z</time></trkpt><trkpt lat="42.674911020361904" lon="12.599145450606741"><ele>622.0</ele><time>2026-04-22T12:13:09.999Z</time></trkpt><trkpt lat="42.6747724837536" lon="12.599055959660246"><ele>622.0</ele><time>2026-04-22T12:13:10.999Z</time></trkpt><trkpt lat="42.67463168400053" lon="12.59899834260024"><ele>622.0</ele><time>2026-04-22T12:13:11.999Z</time></trkpt><trkpt lat="42.674478173882314" lon="12.5989410499982"><ele>622.0</ele><time>2026-04-22T12:13:12.999Z</time></trkpt><trkpt lat="42.67431940153438" lon="12.598886898397312"><ele>616.6666666666667</ele><time>2026-04-22T12:13:13.999Z</time></trkpt><trkpt lat="42.674164223981485" lon="12.598839239693424"><ele>611.3333333333334</ele><time>2026-04-22T12:13:14.999Z</time></trkpt><trkpt lat="42.67401846577794" lon="12.598800276506443"><ele>606.0</ele><time>2026-04-22T12:13:15.999Z</time></trkpt><trkpt lat="42.673875416621634" lon="12.598773198216183"><ele>606.0</ele><time>2026-04-22T12:13:16.999Z</time></trkpt><trkpt lat="42.6737370252441" lon="12.598768833531157"><ele>606.0</ele><time>2026-04-22T12:13:17.999Z</time></trkpt><trkpt lat="42.67359863477726" lon="12.5987896449178"><ele>606.0</ele><time>2026-04-22T12:13:18.999Z</time></trkpt><trkpt lat="42.67345401442965" lon="12.598826825265158"><ele>606.0</ele><time>2026-04-22T12:13:19.999Z</time></trkpt><trkpt lat="42.67330306847657" lon="12.59888330183519"><ele>607.0</ele><time>2026-04-22T12:13:20.999Z</time></trkpt><trkpt lat="42.67315974219941" lon="12.598978088516267"><ele>608.0</ele><time>2026-04-22T12:13:21.999Z</time></trkpt><trkpt lat="42.67301258672464" lon="12.59905789360803"><ele>609.0</ele><time>2026-04-22T12:13:22.999Z</time></trkpt><trkpt lat="42.672858850173974" lon="12.599135916723398"><ele>606.75</ele><time>2026-04-22T12:13:23.999Z</time></trkpt><trkpt lat="42.672728129343966" lon="12.59924648862643"><ele>604.5</ele><time>2026-04-22T12:13:24.999Z</time></trkpt><trkpt lat="42.672615210603034" lon="12.599380622724942"><ele>602.25</ele><time>2026-04-22T12:13:25.999Z</time></trkpt><trkpt lat="42.67250572641276" lon="12.599501311420893"><ele>600.0</ele><time>2026-04-22T12:13:26.999Z</time></trkpt><trkpt lat="42.672404172451465" lon="12.599624846811315"><ele>600.0</ele><time>2026-04-22T12:13:27.999Z</time></trkpt><trkpt lat="42.67231717852293" lon="12.599774690414272"><ele>600.0</ele><time>2026-04-22T12:13:28.999Z</time></trkpt><trkpt lat="42.672229417401866" lon="12.599937669133165"><ele>600.0</ele><time>2026-04-22T12:13:29.999Z</time></trkpt><trkpt lat="42.67213932455793" lon="12.60010634965549"><ele>600.0</ele><time>2026-04-22T12:13:30.999Z</time></trkpt><trkpt lat="42.67205747168856" lon="12.600264438183878"><ele>599.25</ele><time>2026-04-22T12:13:31.999Z</time></trkpt><trkpt lat="42.67198588925032" lon="12.60041168618006"><ele>598.5</ele><time>2026-04-22T12:13:32.999Z</time></trkpt><trkpt lat="42.67191633912252" lon="12.600540189895653"><ele>597.75</ele><time>2026-04-22T12:13:33.999Z</time></trkpt><trkpt lat="42.671838467435606" lon="12.600642666586644"><ele>597.0</ele><time>2026-04-22T12:13:34.999Z</time></trkpt><trkpt lat="42.67175370922528" lon="12.6007002723777"><ele>597.0</ele><time>2026-04-22T12:13:35.999Z</time></trkpt><trkpt lat="42.67165370547555" lon="12.600681702920607"><ele>597.0</ele><time>2026-04-22T12:13:36.999Z</time></trkpt><trkpt lat="42.67155781029274" lon="12.600687655488464"><ele>597.0</ele><time>2026-04-22T12:13:37.999Z</time></trkpt><trkpt lat="42.671448797351594" lon="12.600665950294987"><ele>597.0</ele><time>2026-04-22T12:13:38.999Z</time></trkpt><trkpt lat="42.671331954421376" lon="12.60062424020993"><ele>597.0</ele><time>2026-04-22T12:13:39.999Z</time></trkpt><trkpt lat="42.671203545746025" lon="12.600596281154298"><ele>596.25</ele><time>2026-04-22T12:13:40.999Z</time></trkpt><trkpt lat="42.671056302128065" lon="12.600576811209962"><ele>595.5</ele><time>2026-04-22T12:13:41.999Z</time></trkpt><trkpt lat="42.67090760014792" lon="12.600576507494456"><ele>594.75</ele><time>2026-04-22T12:13:42.999Z</time></trkpt><trkpt lat="42.670771449045226" lon="12.60058063361557"><ele>594.0</ele><time>2026-04-22T12:13:43.999Z</time></trkpt><trkpt lat="42.67064427372898" lon="12.600548948413335"><ele>594.0</ele><time>2026-04-22T12:13:44.999Z</time></trkpt><trkpt lat="42.67053364584232" lon="12.60049937919537"><ele>594.0</ele><time>2026-04-22T12:13:45.999Z</time></trkpt><trkpt lat="42.670453219187614" lon="12.600397739732228"><ele>594.0</ele><time>2026-04-22T12:13:46.999Z</time></trkpt><trkpt lat="42.67036610764162" lon="12.600339724007846"><ele>594.0</ele><time>2026-04-22T12:13:47.999Z</time></trkpt><trkpt lat="42.670308747912586" lon="12.600278037040765"><ele>594.0</ele><time>2026-04-22T12:13:48.999Z</time></trkpt><trkpt lat="42.67023256382436" lon="12.600281833468463"><ele>594.4</ele><time>2026-04-22T12:13:49.999Z</time></trkpt><trkpt lat="42.67016217077637" lon="12.600327715823841"><ele>594.8</ele><time>2026-04-22T12:13:50.999Z</time></trkpt><trkpt lat="42.67007639929082" lon="12.600409802669148"><ele>595.2</ele><time>2026-04-22T12:13:51.999Z</time></trkpt><trkpt lat="42.669982857853306" lon="12.60052304288229"><ele>595.6</ele><time>2026-04-22T12:13:52.999Z</time></trkpt><trkpt lat="42.66988618397283" lon="12.600638709856828"><ele>596.0</ele><time>2026-04-22T12:13:53.999Z</time></trkpt><trkpt lat="42.66978368449034" lon="12.600778107106708"><ele>596.0</ele><time>2026-04-22T12:13:54.999Z</time></trkpt><trkpt lat="42.66965881054405" lon="12.600902700110224"><ele>596.0</ele><time>2026-04-22T12:13:55.999Z</time></trkpt><trkpt lat="42.66953404619131" lon="12.601032186135168"><ele>596.0</ele><time>2026-04-22T12:13:56.999Z</time></trkpt><trkpt lat="42.66940346371811" lon="12.60115963629445"><ele>597.6666666666666</ele><time>2026-04-22T12:13:57.999Z</time></trkpt><trkpt lat="42.66927131740727" lon="12.601288275602169"><ele>599.3333333333334</ele><time>2026-04-22T12:13:58.999Z</time></trkpt><trkpt lat="42.669147726868836" lon="12.60143886825573"><ele>601.0</ele><time>2026-04-22T12:13:59.999Z</time></trkpt><trkpt lat="42.66903332492744" lon="12.601600683392283"><ele>601.0</ele><time>2026-04-22T12:14:00.999Z</time></trkpt><trkpt lat="42.66892784246481" lon="12.601785424029195"><ele>601.0</ele><time>2026-04-22T12:14:01.999Z</time></trkpt><trkpt lat="42.66883037020367" lon="12.601992459037591"><ele>601.0</ele><time>2026-04-22T12:14:02.999Z</time></trkpt><trkpt lat="42.66873606816056" lon="12.602196930915953"><ele>598.0</ele><time>2026-04-22T12:14:03.999Z</time></trkpt><trkpt lat="42.66865067265825" lon="12.602394250715168"><ele>595.0</ele><time>2026-04-22T12:14:04.999Z</time></trkpt><trkpt lat="42.66856836225312" lon="12.602583556796587"><ele>592.0</ele><time>2026-04-22T12:14:05.999Z</time></trkpt><trkpt lat="42.66850680486264" lon="12.602771767718641"><ele>594.0</ele><time>2026-04-22T12:14:06.999Z</time></trkpt><trkpt lat="42.66846309203708" lon="12.602961622392503"><ele>596.0</ele><time>2026-04-22T12:14:07.999Z</time></trkpt><trkpt lat="42.66844435167258" lon="12.603150756168878"><ele>598.0</ele><time>2026-04-22T12:14:08.999Z</time></trkpt><trkpt lat="42.668404784021504" lon="12.603312785849115"><ele>600.0</ele><time>2026-04-22T12:14:09.999Z</time></trkpt><trkpt lat="42.66832187772617" lon="12.603397740106464"><ele>600.0</ele><time>2026-04-22T12:14:10.999Z</time></trkpt><trkpt lat="42.668242062188085" lon="12.603486532977355"><ele>600.0</ele><time>2026-04-22T12:14:11.999Z</time></trkpt><trkpt lat="42.668158515730866" lon="12.60358600563167"><ele>600.0</ele><time>2026-04-22T12:14:12.999Z</time></trkpt><trkpt lat="42.668084731757986" lon="12.603702424026679"><ele>600.0</ele><time>2026-04-22T12:14:13.999Z</time></trkpt><trkpt lat="42.66802096850619" lon="12.603847820719588"><ele>599.25</ele><time>2026-04-22T12:14:14.999Z</time></trkpt><trkpt lat="42.668005517999575" lon="12.6040260655011"><ele>598.5</ele><time>2026-04-22T12:14:15.999Z</time></trkpt><trkpt lat="42.668029977779945" lon="12.60422562157936"><ele>597.75</ele><time>2026-04-22T12:14:16.999Z</time></trkpt><trkpt lat="42.66802761702571" lon="12.604413399259462"><ele>597.0</ele><time>2026-04-22T12:14:17.999Z</time></trkpt><trkpt lat="42.66800574820353" lon="12.604571408794587"><ele>597.0</ele><time>2026-04-22T12:14:18.999Z</time></trkpt><trkpt lat="42.667954764903534" lon="12.604726047462952"><ele>597.0</ele><time>2026-04-22T12:14:19.999Z</time></trkpt><trkpt lat="42.667900660520345" lon="12.604889449834289"><ele>597.0</ele><time>2026-04-22T12:14:20.999Z</time></trkpt><trkpt lat="42.66783971241284" lon="12.605071260936432"><ele>597.0</ele><time>2026-04-22T12:14:21.999Z</time></trkpt><trkpt lat="42.66776143362173" lon="12.605233540745814"><ele>598.5</ele><time>2026-04-22T12:14:22.999Z</time></trkpt><trkpt lat="42.66767725588275" lon="12.605375119545435"><ele>600.0</ele><time>2026-04-22T12:14:23.999Z</time></trkpt><trkpt lat="42.66756846163361" lon="12.605517189547486"><ele>601.5</ele><time>2026-04-22T12:14:24.999Z</time></trkpt><trkpt lat="42.667454443637126" lon="12.605657351765414"><ele>603.0</ele><time>2026-04-22T12:14:25.999Z</time></trkpt><trkpt lat="42.667337184166904" lon="12.605807346739452"><ele>603.0</ele><time>2026-04-22T12:14:26.999Z</time></trkpt><trkpt lat="42.667226842608635" lon="12.605956105841948"><ele>603.0</ele><time>2026-04-22T12:14:27.999Z</time></trkpt><trkpt lat="42.66713681218114" lon="12.606111995110448"><ele>603.0</ele><time>2026-04-22T12:14:28.999Z</time></trkpt><trkpt lat="42.667070205813665" lon="12.60644591785446"><ele>602.0</ele><time>2026-04-22T12:14:31Z</time></trkpt><trkpt lat="42.667060735943835" lon="12.606576914198262"><ele>601.0</ele><time>2026-04-22T12:14:32Z</time></trkpt><trkpt lat="42.667049979212045" lon="12.606679055553926"><ele>600.0</ele><time>2026-04-22T12:14:33Z</time></trkpt><trkpt lat="42.66671599582613" lon="12.606759282831796"><ele>601.75</ele><time>2026-04-22T12:14:35Z</time></trkpt><trkpt lat="42.66657910331237" lon="12.606781170566032"><ele>603.5</ele><time>2026-04-22T12:14:36Z</time></trkpt><trkpt lat="42.666435473880156" lon="12.6068139424433"><ele>605.25</ele><time>2026-04-22T12:14:37Z</time></trkpt><trkpt lat="42.66628633563781" lon="12.606860286079362"><ele>607.0</ele><time>2026-04-22T12:14:38Z</time></trkpt><trkpt lat="42.66614198641876" lon="12.606932468919872"><ele>607.3333333333334</ele><time>2026-04-22T12:14:39Z</time></trkpt><trkpt lat="42.665997044791524" lon="12.607008834274104"><ele>607.6666666666666</ele><time>2026-04-22T12:14:40Z</time></trkpt><trkpt lat="42.665854910392625" lon="12.607069271412996"><ele>608.0</ele><time>2026-04-22T12:14:41Z</time></trkpt><trkpt lat="42.66570448184262" lon="12.607163488687279"><ele>608.0</ele><time>2026-04-22T12:14:42Z</time></trkpt><trkpt lat="42.66556608685834" lon="12.607278398965478"><ele>608.0</ele><time>2026-04-22T12:14:43Z</time></trkpt><trkpt lat="42.6654361528614" lon="12.607416759200158"><ele>608.0</ele><time>2026-04-22T12:14:44Z</time></trkpt><trkpt lat="42.665301600088334" lon="12.607554608084314"><ele>610.6666666666666</ele><time>2026-04-22T12:14:45Z</time></trkpt><trkpt lat="42.665158982193056" lon="12.607688973126526"><ele>613.3333333333334</ele><time>2026-04-22T12:14:46Z</time></trkpt><trkpt lat="42.66503052815781" lon="12.607818897976946"><ele>616.0</ele><time>2026-04-22T12:14:47Z</time></trkpt><trkpt lat="42.664913392012245" lon="12.607947121474584"><ele>616.0</ele><time>2026-04-22T12:14:48Z</time></trkpt><trkpt lat="42.66479074925035" lon="12.608058770688192"><ele>616.0</ele><time>2026-04-22T12:14:49Z</time></trkpt><trkpt lat="42.66465556650001" lon="12.608154198965153"><ele>616.0</ele><time>2026-04-22T12:14:50Z</time></trkpt><trkpt lat="42.66452720457502" lon="12.608271548631894"><ele>620.75</ele><time>2026-04-22T12:14:51Z</time></trkpt><trkpt lat="42.6644013339222" lon="12.60839762420723"><ele>625.5</ele><time>2026-04-22T12:14:52Z</time></trkpt><trkpt lat="42.66427608248721" lon="12.608501502201118"><ele>630.25</ele><time>2026-04-22T12:14:53Z</time></trkpt><trkpt lat="42.66416088168856" lon="12.608572923057345"><ele>635.0</ele><time>2026-04-22T12:14:54Z</time></trkpt><trkpt lat="42.66408022549982" lon="12.608646778011932"><ele>633.6</ele><time>2026-04-22T12:14:55Z</time></trkpt><trkpt lat="42.664030257627616" lon="12.608744754748189"><ele>632.2</ele><time>2026-04-22T12:14:56Z</time></trkpt><trkpt lat="42.66401096908151" lon="12.608859943254181"><ele>630.8</ele><time>2026-04-22T12:14:57Z</time></trkpt><trkpt lat="42.66401882918117" lon="12.608993759025799"><ele>629.4</ele><time>2026-04-22T12:14:58Z</time></trkpt><trkpt lat="42.6640303224362" lon="12.609157621547011"><ele>628.0</ele><time>2026-04-22T12:14:59Z</time></trkpt><trkpt lat="42.664046165507244" lon="12.609310107796867"><ele>628.0</ele><time>2026-04-22T12:15:00Z</time></trkpt><trkpt lat="42.66408350436388" lon="12.60944740250543"><ele>628.0</ele><time>2026-04-22T12:15:01Z</time></trkpt><trkpt lat="42.66410313666205" lon="12.609572582769522"><ele>628.0</ele><time>2026-04-22T12:15:02Z</time></trkpt><trkpt lat="42.66409180444018" lon="12.609683054929134"><ele>628.0</ele><time>2026-04-22T12:15:03Z</time></trkpt><trkpt lat="42.66406622701345" lon="12.609789480775364"><ele>628.0</ele><time>2026-04-22T12:15:04Z</time></trkpt><trkpt lat="42.664034009040115" lon="12.609911205752718"><ele>628.6</ele><time>2026-04-22T12:15:05Z</time></trkpt><trkpt lat="42.66397371984351" lon="12.61002449246514"><ele>629.1999999999999</ele><time>2026-04-22T12:15:06Z</time></trkpt><trkpt lat="42.66390914783229" lon="12.610135339505172"><ele>629.8</ele><time>2026-04-22T12:15:07Z</time></trkpt><trkpt lat="42.663835603020935" lon="12.610252532213504"><ele>630.4</ele><time>2026-04-22T12:15:08Z</time></trkpt><trkpt lat="42.66375892877667" lon="12.610367239259283"><ele>631.0</ele><time>2026-04-22T12:15:09Z</time></trkpt><trkpt lat="42.66368192356244" lon="12.610450174850053"><ele>631.8333333333334</ele><time>2026-04-22T12:15:10Z</time></trkpt><trkpt lat="42.663628449831265" lon="12.610536514126991"><ele>632.6666666666667</ele><time>2026-04-22T12:15:11Z</time></trkpt><trkpt lat="42.663575006194826" lon="12.610605128157221"><ele>633.5</ele><time>2026-04-22T12:15:12Z</time></trkpt><trkpt lat="42.66351202312688" lon="12.610638165606193"><ele>634.3333333333334</ele><time>2026-04-22T12:15:13Z</time></trkpt><trkpt lat="42.663441860954514" lon="12.610614974838194"><ele>635.1666666666666</ele><time>2026-04-22T12:15:14Z</time></trkpt><trkpt lat="42.663366485583914" lon="12.61063598311015"><ele>636.0</ele><time>2026-04-22T12:15:15Z</time></trkpt><trkpt lat="42.663271892002086" lon="12.610620387877296"><ele>636.0</ele><time>2026-04-22T12:15:16Z</time></trkpt><trkpt lat="42.663157145059884" lon="12.610596241735088"><ele>636.0</ele><time>2026-04-22T12:15:17Z</time></trkpt><trkpt lat="42.66302668787142" lon="12.610574735606065"><ele>636.0</ele><time>2026-04-22T12:15:18Z</time></trkpt><trkpt lat="42.66288690480585" lon="12.61053193115703"><ele>636.0</ele><time>2026-04-22T12:15:19Z</time></trkpt><trkpt lat="42.66275678715038" lon="12.610528948453284"><ele>634.0</ele><time>2026-04-22T12:15:20Z</time></trkpt><trkpt lat="42.662632715253224" lon="12.610534764881548"><ele>632.0</ele><time>2026-04-22T12:15:21Z</time></trkpt><trkpt lat="42.66251017201228" lon="12.610550688337504"><ele>630.0</ele><time>2026-04-22T12:15:22Z</time></trkpt><trkpt lat="42.66239448775236" lon="12.610584347615584"><ele>628.0</ele><time>2026-04-22T12:15:23Z</time></trkpt><trkpt lat="42.662279519728614" lon="12.61064525606559"><ele>628.0</ele><time>2026-04-22T12:15:24Z</time></trkpt><trkpt lat="42.662162124914175" lon="12.610695378395798"><ele>628.0</ele><time>2026-04-22T12:15:25Z</time></trkpt><trkpt lat="42.66204779859752" lon="12.610738368432042"><ele>628.0</ele><time>2026-04-22T12:15:26Z</time></trkpt><trkpt lat="42.66194071834051" lon="12.610790739753055"><ele>628.0</ele><time>2026-04-22T12:15:27Z</time></trkpt><trkpt lat="42.661827055358536" lon="12.610869268988507"><ele>627.4</ele><time>2026-04-22T12:15:28Z</time></trkpt><trkpt lat="42.66172572474905" lon="12.610937566964601"><ele>626.8</ele><time>2026-04-22T12:15:29Z</time></trkpt><trkpt lat="42.66162981962205" lon="12.610990914763892"><ele>626.2</ele><time>2026-04-22T12:15:30Z</time></trkpt><trkpt lat="42.6615403013137" lon="12.611024146392063"><ele>625.6</ele><time>2026-04-22T12:15:31Z</time></trkpt><trkpt lat="42.66146335413991" lon="12.610987750988306"><ele>625.0</ele><time>2026-04-22T12:15:32Z</time></trkpt><trkpt lat="42.66145945993841" lon="12.610872623823454"><ele>625.0</ele><time>2026-04-22T12:15:33Z</time></trkpt><trkpt lat="42.66138653037016" lon="12.610714032240793"><ele>625.0</ele><time>2026-04-22T12:15:35Z</time></trkpt><trkpt lat="42.66131022034667" lon="12.610646986143415"><ele>625.0</ele><time>2026-04-22T12:15:36Z</time></trkpt><trkpt lat="42.66118782481681" lon="12.610671810187046"><ele>625.0</ele><time>2026-04-22T12:15:37Z</time></trkpt><trkpt lat="42.6610839264265" lon="12.610686368630045"><ele>625.4</ele><time>2026-04-22T12:15:38Z</time></trkpt><trkpt lat="42.66097554323171" lon="12.610715334627471"><ele>625.8</ele><time>2026-04-22T12:15:39Z</time></trkpt><trkpt lat="42.660875659149475" lon="12.610752379968568"><ele>626.2</ele><time>2026-04-22T12:15:40Z</time></trkpt><trkpt lat="42.66078626010421" lon="12.61082976798282"><ele>626.6</ele><time>2026-04-22T12:15:41Z</time></trkpt><trkpt lat="42.66073390690692" lon="12.610953929583685"><ele>627.0</ele><time>2026-04-22T12:15:42Z</time></trkpt><trkpt lat="42.66069079316363" lon="12.611072030679274"><ele>623.8000000000001</ele><time>2026-04-22T12:15:43Z</time></trkpt><trkpt lat="42.66065365076579" lon="12.611201568224594"><ele>620.6</ele><time>2026-04-22T12:15:44Z</time></trkpt><trkpt lat="42.66060692156573" lon="12.611340796503715"><ele>617.4000000000001</ele><time>2026-04-22T12:15:45Z</time></trkpt><trkpt lat="42.66054630541041" lon="12.611473002789408"><ele>614.2</ele><time>2026-04-22T12:15:46Z</time></trkpt><trkpt lat="42.66046966616979" lon="12.611591707667783"><ele>611.0</ele><time>2026-04-22T12:15:47Z</time></trkpt><trkpt lat="42.66037452578011" lon="12.611686503293026"><ele>609.75</ele><time>2026-04-22T12:15:48Z</time></trkpt><trkpt lat="42.66026479194477" lon="12.611764447263516"><ele>608.5</ele><time>2026-04-22T12:15:49Z</time></trkpt><trkpt lat="42.66014706438638" lon="12.611855703863531"><ele>607.25</ele><time>2026-04-22T12:15:50Z</time></trkpt><trkpt lat="42.66003930430385" lon="12.611956255075187"><ele>606.0</ele><time>2026-04-22T12:15:51Z</time></trkpt><trkpt lat="42.65996936974006" lon="12.612081007065429"><ele>606.0</ele><time>2026-04-22T12:15:52Z</time></trkpt><trkpt lat="42.659905255329605" lon="12.612206037966452"><ele>606.0</ele><time>2026-04-22T12:15:53Z</time></trkpt><trkpt lat="42.659854257633185" lon="12.612345932055703"><ele>606.0</ele><time>2026-04-22T12:15:54Z</time></trkpt><trkpt lat="42.65979499241113" lon="12.612496783244119"><ele>606.0</ele><time>2026-04-22T12:15:55Z</time></trkpt><trkpt lat="42.65973243996251" lon="12.612630488880198"><ele>606.0</ele><time>2026-04-22T12:15:56Z</time></trkpt><trkpt lat="42.65967475582315" lon="12.612751064802419"><ele>606.0</ele><time>2026-04-22T12:15:57Z</time></trkpt><trkpt lat="42.65962209923506" lon="12.61285888045348"><ele>606.0</ele><time>2026-04-22T12:15:58Z</time></trkpt><trkpt lat="42.65957271081295" lon="12.612960622672727"><ele>606.0</ele><time>2026-04-22T12:15:59Z</time></trkpt><trkpt lat="42.65951882149037" lon="12.613025172595139"><ele>606.0</ele><time>2026-04-22T12:16:00Z</time></trkpt><trkpt lat="42.65944436433973" lon="12.613116070640878"><ele>606.6666666666666</ele><time>2026-04-22T12:16:02Z</time></trkpt><trkpt lat="42.65943700074606" lon="12.613208541229316"><ele>607.3333333333334</ele><time>2026-04-22T12:40:04.999Z</time></trkpt><trkpt lat="42.65937053556781" lon="12.613204127849812"><ele>608.0</ele><time>2026-04-22T12:46:15Z</time></trkpt><trkpt lat="42.65930332752275" lon="12.613218009247344"><ele>608.6666666666667</ele><time>2026-04-22T12:46:16Z</time></trkpt><trkpt lat="42.659227545236675" lon="12.613255256642864"><ele>609.3333333333334</ele><time>2026-04-22T12:46:17Z</time></trkpt><trkpt lat="42.65916341972384" lon="12.613291821425712"><ele>610.0</ele><time>2026-04-22T12:46:18Z</time></trkpt><trkpt lat="42.65907833209213" lon="12.613439107326133"><ele>610.0</ele><time>2026-04-22T12:46:20Z</time></trkpt><trkpt lat="42.65909704736679" lon="12.613547268028183"><ele>610.0</ele><time>2026-04-22T12:46:21Z</time></trkpt><trkpt lat="42.65911405424639" lon="12.613660018401456"><ele>610.0</ele><time>2026-04-22T12:46:22Z</time></trkpt><trkpt lat="42.65912969194208" lon="12.613773782177288"><ele>610.0</ele><time>2026-04-22T12:46:23Z</time></trkpt><trkpt lat="42.65911951594595" lon="12.613880632098283"><ele>610.0</ele><time>2026-04-22T12:46:24Z</time></trkpt><trkpt lat="42.65907081404259" lon="12.613959040155791"><ele>610.0</ele><time>2026-04-22T12:46:25Z</time></trkpt><trkpt lat="42.659011708898326" lon="12.61401773361794"><ele>607.8</ele><time>2026-04-22T12:46:26Z</time></trkpt><trkpt lat="42.65895082527589" lon="12.614095058628036"><ele>605.6</ele><time>2026-04-22T12:46:27Z</time></trkpt><trkpt lat="42.65887904285581" lon="12.614174253800543"><ele>603.4</ele><time>2026-04-22T12:46:28Z</time></trkpt><trkpt lat="42.65881362536789" lon="12.614273485749525"><ele>601.2</ele><time>2026-04-22T12:46:29Z</time></trkpt><trkpt lat="42.65877109315414" lon="12.614382700919855"><ele>599.0</ele><time>2026-04-22T12:46:30Z</time></trkpt><trkpt lat="42.658732520875674" lon="12.61448726293472"><ele>595.5</ele><time>2026-04-22T12:46:31Z</time></trkpt><trkpt lat="42.65869831815582" lon="12.614605598196425"><ele>592.0</ele><time>2026-04-22T12:46:32Z</time></trkpt><trkpt lat="42.65862269506959" lon="12.61475226573225"><ele>588.5</ele><time>2026-04-22T12:46:33Z</time></trkpt><trkpt lat="42.65862631169361" lon="12.614879773110841"><ele>585.0</ele><time>2026-04-22T12:46:34Z</time></trkpt><trkpt lat="42.65859415302598" lon="12.615054564283913"><ele>588.0</ele><time>2026-04-22T12:46:35Z</time></trkpt><trkpt lat="42.65855997077328" lon="12.615224725163122"><ele>591.0</ele><time>2026-04-22T12:46:36Z</time></trkpt><trkpt lat="42.658527542269276" lon="12.615383579820255"><ele>594.0</ele><time>2026-04-22T12:46:37Z</time></trkpt><trkpt lat="42.6584947353274" lon="12.615541944870689"><ele>597.0</ele><time>2026-04-22T12:46:38Z</time></trkpt><trkpt lat="42.65847504105218" lon="12.615699221404006"><ele>597.0</ele><time>2026-04-22T12:46:39Z</time></trkpt><trkpt lat="42.65843780837324" lon="12.61585164586717"><ele>597.0</ele><time>2026-04-22T12:46:40Z</time></trkpt><trkpt lat="42.6584000621902" lon="12.615994307251205"><ele>597.0</ele><time>2026-04-22T12:46:41Z</time></trkpt><trkpt lat="42.658362752183706" lon="12.616127638143352"><ele>597.0</ele><time>2026-04-22T12:46:42Z</time></trkpt><trkpt lat="42.65831028571523" lon="12.61621432818437"><ele>597.0</ele><time>2026-04-22T12:46:43Z</time></trkpt><trkpt lat="42.658256178416806" lon="12.616302335367186"><ele>592.7142857142858</ele><time>2026-04-22T12:46:44Z</time></trkpt><trkpt lat="42.65819882990093" lon="12.61637923323398"><ele>588.4285714285714</ele><time>2026-04-22T12:46:45Z</time></trkpt><trkpt lat="42.65815361135556" lon="12.616463141301566"><ele>584.1428571428571</ele><time>2026-04-22T12:46:46Z</time></trkpt><trkpt lat="42.65810170496421" lon="12.616526634453292"><ele>579.8571428571429</ele><time>2026-04-22T12:46:47Z</time></trkpt><trkpt lat="42.658047739128996" lon="12.616583652452068"><ele>575.5714285714286</ele><time>2026-04-22T12:46:48Z</time></trkpt><trkpt lat="42.6579993122509" lon="12.616642189264521"><ele>571.2857142857143</ele><time>2026-04-22T12:46:49Z</time></trkpt><trkpt lat="42.657946556612025" lon="12.61671012116478"><ele>567.0</ele><time>2026-04-22T12:46:50Z</time></trkpt><trkpt lat="42.6578925445399" lon="12.616766925394684"><ele>567.0</ele><time>2026-04-22T12:46:51Z</time></trkpt><trkpt lat="42.65783714672615" lon="12.616828326205765"><ele>567.0</ele><time>2026-04-22T12:46:52Z</time></trkpt><trkpt lat="42.65777755725143" lon="12.616888582369057"><ele>567.0</ele><time>2026-04-22T12:46:53Z</time></trkpt><trkpt lat="42.65769226077643" lon="12.616959014890375"><ele>567.0</ele><time>2026-04-22T12:46:54Z</time></trkpt><trkpt lat="42.65761983138208" lon="12.617008438022184"><ele>567.0</ele><time>2026-04-22T12:46:55Z</time></trkpt><trkpt lat="42.65754486959367" lon="12.617093367722264"><ele>567.0</ele><time>2026-04-22T12:46:56Z</time></trkpt><trkpt lat="42.657467316414845" lon="12.617146897048604"><ele>567.4</ele><time>2026-04-22T12:46:57Z</time></trkpt><trkpt lat="42.657374770768904" lon="12.617187463122335"><ele>567.8000000000001</ele><time>2026-04-22T12:46:58Z</time></trkpt><trkpt lat="42.65730409250949" lon="12.617279449743531"><ele>568.2</ele><time>2026-04-22T12:46:59Z</time></trkpt><trkpt lat="42.657221402567615" lon="12.61737554817996"><ele>568.6</ele><time>2026-04-22T12:47:00Z</time></trkpt><trkpt lat="42.65715125619256" lon="12.617488830674967"><ele>569.0</ele><time>2026-04-22T12:47:01Z</time></trkpt><trkpt lat="42.65708114177609" lon="12.61759008699562"><ele>569.0</ele><time>2026-04-22T12:47:02Z</time></trkpt><trkpt lat="42.657014247541596" lon="12.617667025820134"><ele>569.0</ele><time>2026-04-22T12:47:03Z</time></trkpt><trkpt lat="42.65694503583169" lon="12.617744276998236"><ele>569.0</ele><time>2026-04-22T12:47:04Z</time></trkpt><trkpt lat="42.65686152240097" lon="12.617780597019529"><ele>569.0</ele><time>2026-04-22T12:47:05Z</time></trkpt><trkpt lat="42.656771493523955" lon="12.617820896772841"><ele>569.0</ele><time>2026-04-22T12:47:06Z</time></trkpt><trkpt lat="42.65667190886843" lon="12.61786121847626"><ele>566.0</ele><time>2026-04-22T12:47:07Z</time></trkpt><trkpt lat="42.65656195099092" lon="12.617934914152304"><ele>563.0</ele><time>2026-04-22T12:47:08Z</time></trkpt><trkpt lat="42.65645279955586" lon="12.617996682852564"><ele>560.0</ele><time>2026-04-22T12:47:09Z</time></trkpt><trkpt lat="42.656340286888806" lon="12.61807273096952"><ele>557.0</ele><time>2026-04-22T12:47:10Z</time></trkpt><trkpt lat="42.65623690240459" lon="12.618151726132965"><ele>557.0</ele><time>2026-04-22T12:47:11Z</time></trkpt><trkpt lat="42.65613417398441" lon="12.618225346054185"><ele>557.0</ele><time>2026-04-22T12:47:12Z</time></trkpt><trkpt lat="42.65602674718919" lon="12.618273329071991"><ele>557.0</ele><time>2026-04-22T12:47:13Z</time></trkpt><trkpt lat="42.65593468415044" lon="12.618359948966775"><ele>557.0</ele><time>2026-04-22T12:47:14Z</time></trkpt><trkpt lat="42.655813066792525" lon="12.61837427411978"><ele>560.5</ele><time>2026-04-22T12:47:15Z</time></trkpt><trkpt lat="42.65568906736619" lon="12.618386384201955"><ele>564.0</ele><time>2026-04-22T12:47:16Z</time></trkpt><trkpt lat="42.655562749529594" lon="12.61836850949527"><ele>567.5</ele><time>2026-04-22T12:47:18Z</time></trkpt><trkpt lat="42.655472236260465" lon="12.618347568250927"><ele>571.0</ele><time>2026-04-22T12:47:19Z</time></trkpt><trkpt lat="42.65536767300995" lon="12.6183167869296"><ele>571.4</ele><time>2026-04-22T12:47:20Z</time></trkpt><trkpt lat="42.65526831096908" lon="12.618278797152746"><ele>571.8</ele><time>2026-04-22T12:47:21Z</time></trkpt><trkpt lat="42.655167238168964" lon="12.618235273479122"><ele>572.1999999999999</ele><time>2026-04-22T12:47:22.001Z</time></trkpt><trkpt lat="42.655060346156816" lon="12.618178004141361"><ele>572.6</ele><time>2026-04-22T12:47:23.001Z</time></trkpt><trkpt lat="42.65496552794515" lon="12.618128626144786"><ele>573.0</ele><time>2026-04-22T12:47:24.001Z</time></trkpt><trkpt lat="42.654862659926124" lon="12.618103331822818"><ele>573.0</ele><time>2026-04-22T12:47:25.001Z</time></trkpt><trkpt lat="42.65479406203058" lon="12.618091456931772"><ele>573.0</ele><time>2026-04-22T12:47:26.001Z</time></trkpt><trkpt lat="42.654698302955346" lon="12.618223813455508"><ele>573.0</ele><time>2026-04-22T12:47:28.001Z</time></trkpt><trkpt lat="42.65463080352455" lon="12.61833739894695"><ele>573.0</ele><time>2026-04-22T12:47:29.001Z</time></trkpt><trkpt lat="42.65452485982339" lon="12.618402560635658"><ele>573.0</ele><time>2026-04-22T12:47:30.001Z</time></trkpt><trkpt lat="42.65441626452027" lon="12.618451922156558"><ele>573.6</ele><time>2026-04-22T12:47:31.001Z</time></trkpt><trkpt lat="42.65432690534395" lon="12.618496805819294"><ele>574.1999999999999</ele><time>2026-04-22T12:47:32.001Z</time></trkpt><trkpt lat="42.65421581361768" lon="12.61855214426105"><ele>574.8</ele><time>2026-04-22T12:47:33.001Z</time></trkpt><trkpt lat="42.65414818681696" lon="12.618584944018982"><ele>575.4</ele><time>2026-04-22T12:47:34.001Z</time></trkpt><trkpt lat="42.65401263118417" lon="12.618641366266038"><ele>576.0</ele><time>2026-04-22T12:47:35.001Z</time></trkpt><trkpt lat="42.65389243209197" lon="12.618702758498479"><ele>576.0</ele><time>2026-04-22T12:47:36.001Z</time></trkpt><trkpt lat="42.653745319411286" lon="12.61875235215768"><ele>576.0</ele><time>2026-04-22T12:47:37.001Z</time></trkpt><trkpt lat="42.65365299052371" lon="12.618783654025524"><ele>576.0</ele><time>2026-04-22T12:47:38.001Z</time></trkpt><trkpt lat="42.65348553065685" lon="12.61882281147567"><ele>576.0</ele><time>2026-04-22T12:47:39.001Z</time></trkpt><trkpt lat="42.65335824593383" lon="12.618897238782896"><ele>581.5</ele><time>2026-04-22T12:47:40.001Z</time></trkpt><trkpt lat="42.65323488564421" lon="12.61894705385807"><ele>587.0</ele><time>2026-04-22T12:47:41.001Z</time></trkpt><trkpt lat="42.65314616975611" lon="12.619020768604939"><ele>592.5</ele><time>2026-04-22T12:47:42.001Z</time></trkpt><trkpt lat="42.65302758005597" lon="12.619111752966017"><ele>598.0</ele><time>2026-04-22T12:47:43.001Z</time></trkpt><trkpt lat="42.65292811558804" lon="12.61919505823364"><ele>598.0</ele><time>2026-04-22T12:47:44.001Z</time></trkpt><trkpt lat="42.6528095915975" lon="12.619282318241188"><ele>598.0</ele><time>2026-04-22T12:47:45.001Z</time></trkpt><trkpt lat="42.65269188710389" lon="12.619341612602089"><ele>598.0</ele><time>2026-04-22T12:47:46.001Z</time></trkpt><trkpt lat="42.65258401630322" lon="12.619432687938932"><ele>598.0</ele><time>2026-04-22T12:47:47.001Z</time></trkpt><trkpt lat="42.652471472471994" lon="12.619493855654744"><ele>596.6</ele><time>2026-04-22T12:47:48.001Z</time></trkpt><trkpt lat="42.65237324354443" lon="12.619555915887542"><ele>595.1999999999999</ele><time>2026-04-22T12:47:49.001Z</time></trkpt><trkpt lat="42.65228457404646" lon="12.61962254508261"><ele>593.8</ele><time>2026-04-22T12:47:50.001Z</time></trkpt><trkpt lat="42.65219530578985" lon="12.619710643581623"><ele>592.4</ele><time>2026-04-22T12:47:51.001Z</time></trkpt><trkpt lat="42.652108863573524" lon="12.619834606684334"><ele>591.0</ele><time>2026-04-22T12:47:52.001Z</time></trkpt><trkpt lat="42.65203132112798" lon="12.619961615797177"><ele>591.2</ele><time>2026-04-22T12:47:53.001Z</time></trkpt><trkpt lat="42.65193038958114" lon="12.62003099126244"><ele>591.4000000000001</ele><time>2026-04-22T12:47:54.001Z</time></trkpt><trkpt lat="42.65183562244719" lon="12.620115852766157"><ele>591.6</ele><time>2026-04-22T12:47:55.001Z</time></trkpt><trkpt lat="42.65176579094317" lon="12.620210457108003"><ele>591.8000000000001</ele><time>2026-04-22T12:47:56.001Z</time></trkpt><trkpt lat="42.65169693389585" lon="12.620300178695066"><ele>592.0</ele><time>2026-04-22T12:47:57.001Z</time></trkpt><trkpt lat="42.651658364784254" lon="12.620408070333406"><ele>590.2</ele><time>2026-04-22T12:47:58Z</time></trkpt><trkpt lat="42.651629263609614" lon="12.620533048464205"><ele>588.4000000000001</ele><time>2026-04-22T12:47:59Z</time></trkpt><trkpt lat="42.65157269874248" lon="12.620648349760048"><ele>586.5999999999999</ele><time>2026-04-22T12:48:00Z</time></trkpt><trkpt lat="42.65155269928693" lon="12.620780308790328"><ele>584.8</ele><time>2026-04-22T12:48:01Z</time></trkpt><trkpt lat="42.65151106937547" lon="12.620890176129384"><ele>583.0</ele><time>2026-04-22T12:48:02Z</time></trkpt><trkpt lat="42.65150498913622" lon="12.62100941365839"><ele>583.0</ele><time>2026-04-22T12:48:03Z</time></trkpt><trkpt lat="42.65154697259714" lon="12.621127661785824"><ele>583.0</ele><time>2026-04-22T12:48:04Z</time></trkpt><trkpt lat="42.65164106653404" lon="12.621216797461491"><ele>583.0</ele><time>2026-04-22T12:48:05Z</time></trkpt><trkpt lat="42.65170952714338" lon="12.621317832286513"><ele>583.0</ele><time>2026-04-22T12:48:06Z</time></trkpt><trkpt lat="42.651772568932174" lon="12.621421555165645"><ele>583.0</ele><time>2026-04-22T12:48:07Z</time></trkpt><trkpt lat="42.65182169061842" lon="12.621542517383041"><ele>583.1999999999999</ele><time>2026-04-22T12:48:08Z</time></trkpt><trkpt lat="42.6518651283694" lon="12.621670870042005"><ele>583.4</ele><time>2026-04-22T12:48:09Z</time></trkpt><trkpt lat="42.65189058194497" lon="12.621822487314423"><ele>583.5999999999999</ele><time>2026-04-22T12:48:10Z</time></trkpt><trkpt lat="42.65190823245722" lon="12.621969586814247"><ele>583.8</ele><time>2026-04-22T12:48:11Z</time></trkpt><trkpt lat="42.651924599314434" lon="12.622108236741417"><ele>584.0</ele><time>2026-04-22T12:48:12Z</time></trkpt><trkpt lat="42.65195952111588" lon="12.62222772452756"><ele>578.4</ele><time>2026-04-22T12:48:13Z</time></trkpt><trkpt lat="42.65201962323591" lon="12.622348004781415"><ele>572.8</ele><time>2026-04-22T12:48:14Z</time></trkpt><trkpt lat="42.65210196949159" lon="12.622446803406422"><ele>567.2</ele><time>2026-04-22T12:48:15Z</time></trkpt><trkpt lat="42.652169058813136" lon="12.62252190569283"><ele>561.6</ele><time>2026-04-22T12:48:16Z</time></trkpt><trkpt lat="42.652204015288504" lon="12.62262840940055"><ele>556.0</ele><time>2026-04-22T12:48:17Z</time></trkpt><trkpt lat="42.65221939751312" lon="12.622749161339318"><ele>557.0</ele><time>2026-04-22T12:48:18Z</time></trkpt><trkpt lat="42.652205415238654" lon="12.622877672235727"><ele>558.0</ele><time>2026-04-22T12:48:19Z</time></trkpt><trkpt lat="42.65220809059178" lon="12.623022672414775"><ele>559.0</ele><time>2026-04-22T12:48:20Z</time></trkpt><trkpt lat="42.65220930896929" lon="12.623191692151025"><ele>560.0</ele><time>2026-04-22T12:48:21Z</time></trkpt><trkpt lat="42.65220335212873" lon="12.623347761434147"><ele>561.0</ele><time>2026-04-22T12:48:22Z</time></trkpt><trkpt lat="42.65223832041031" lon="12.623496762509754"><ele>561.0</ele><time>2026-04-22T12:48:23Z</time></trkpt><trkpt lat="42.65230788445141" lon="12.623605463463708"><ele>561.0</ele><time>2026-04-22T12:48:24Z</time></trkpt><trkpt lat="42.652388057272034" lon="12.623716786235804"><ele>561.0</ele><time>2026-04-22T12:48:25Z</time></trkpt><trkpt lat="42.652465324699705" lon="12.623831452358825"><ele>561.0</ele><time>2026-04-22T12:48:26Z</time></trkpt><trkpt lat="42.65249829137408" lon="12.62395005154488"><ele>561.0</ele><time>2026-04-22T12:48:27Z</time></trkpt><trkpt lat="42.65251387815629" lon="12.62405482632151"><ele>562.2</ele><time>2026-04-22T12:48:28Z</time></trkpt><trkpt lat="42.652523379585475" lon="12.62418814191465"><ele>563.4000000000001</ele><time>2026-04-22T12:48:29Z</time></trkpt><trkpt lat="42.65253457857413" lon="12.624322284836412"><ele>564.6</ele><time>2026-04-22T12:48:30Z</time></trkpt><trkpt lat="42.652546278601754" lon="12.62448386451176"><ele>565.8000000000001</ele><time>2026-04-22T12:48:31Z</time></trkpt><trkpt lat="42.652545573506515" lon="12.624639355518877"><ele>567.0</ele><time>2026-04-22T12:48:32Z</time></trkpt><trkpt lat="42.65255507493954" lon="12.62476314678185"><ele>567.2</ele><time>2026-04-22T12:48:33Z</time></trkpt><trkpt lat="42.65259239684624" lon="12.624847300157487"><ele>567.4000000000001</ele><time>2026-04-22T12:48:34Z</time></trkpt><trkpt lat="42.652681010193646" lon="12.624964418739452"><ele>567.5999999999999</ele><time>2026-04-22T12:48:36Z</time></trkpt><trkpt lat="42.65276080677568" lon="12.624999407120983"><ele>567.8</ele><time>2026-04-22T12:48:37Z</time></trkpt><trkpt lat="42.652852795385634" lon="12.625034654352364"><ele>568.0</ele><time>2026-04-22T12:48:38Z</time></trkpt><trkpt lat="42.6529508857607" lon="12.625074291400487"><ele>565.6</ele><time>2026-04-22T12:48:39Z</time></trkpt><trkpt lat="42.65305552624292" lon="12.62511197311367"><ele>563.1999999999999</ele><time>2026-04-22T12:48:40Z</time></trkpt><trkpt lat="42.65315461898469" lon="12.625144647912666"><ele>560.8</ele><time>2026-04-22T12:48:41Z</time></trkpt><trkpt lat="42.65325865372528" lon="12.625176012465639"><ele>558.4</ele><time>2026-04-22T12:48:42Z</time></trkpt><trkpt lat="42.653365071671985" lon="12.625203587677069"><ele>556.0</ele><time>2026-04-22T12:48:43Z</time></trkpt><trkpt lat="42.653470770225134" lon="12.625213877909184"><ele>556.0</ele><time>2026-04-22T12:48:44Z</time></trkpt><trkpt lat="42.653579509942425" lon="12.625227712653066"><ele>556.0</ele><time>2026-04-22T12:48:45Z</time></trkpt><trkpt lat="42.65367548214813" lon="12.62524969026909"><ele>556.0</ele><time>2026-04-22T12:48:46Z</time></trkpt><trkpt lat="42.65377106159477" lon="12.6252809564865"><ele>556.0</ele><time>2026-04-22T12:48:47Z</time></trkpt><trkpt lat="42.6539808852712" lon="12.625330119436647"><ele>554.5</ele><time>2026-04-22T12:48:49Z</time></trkpt><trkpt lat="42.654116135763296" lon="12.625358087383162"><ele>553.0</ele><time>2026-04-22T12:48:50Z</time></trkpt><trkpt lat="42.6542181958711" lon="12.625414299044461"><ele>551.5</ele><time>2026-04-22T12:48:51Z</time></trkpt><trkpt lat="42.6543733573238" lon="12.6254713918087"><ele>550.0</ele><time>2026-04-22T12:48:52Z</time></trkpt><trkpt lat="42.65449253245713" lon="12.625528853185056"><ele>549.6666666666667</ele><time>2026-04-22T12:48:53Z</time></trkpt><trkpt lat="42.65465481457965" lon="12.625583182743716"><ele>549.3333333333334</ele><time>2026-04-22T12:48:54Z</time></trkpt><trkpt lat="42.65480282431599" lon="12.625640154616562"><ele>549.0</ele><time>2026-04-22T12:48:55Z</time></trkpt><trkpt lat="42.654946431360095" lon="12.625694320262948"><ele>549.0</ele><time>2026-04-22T12:48:56Z</time></trkpt><trkpt lat="42.6550670862852" lon="12.625741308299652"><ele>549.0</ele><time>2026-04-22T12:48:57Z</time></trkpt><trkpt lat="42.65518347083444" lon="12.625787373714115"><ele>549.0</ele><time>2026-04-22T12:48:58Z</time></trkpt><trkpt lat="42.655274523541806" lon="12.625835187495165"><ele>549.0</ele><time>2026-04-22T12:48:59Z</time></trkpt><trkpt lat="42.65541892220013" lon="12.62584915552795"><ele>548.5</ele><time>2026-04-22T12:49:00Z</time></trkpt><trkpt lat="42.6555524716994" lon="12.625896797209192"><ele>548.0</ele><time>2026-04-22T12:49:01Z</time></trkpt><trkpt lat="42.65567233858696" lon="12.62596627790831"><ele>547.5</ele><time>2026-04-22T12:49:02Z</time></trkpt><trkpt lat="42.65578429014171" lon="12.62605560134602"><ele>547.0</ele><time>2026-04-22T12:49:03Z</time></trkpt><trkpt lat="42.655900437579525" lon="12.626147766632354"><ele>544.75</ele><time>2026-04-22T12:49:04Z</time></trkpt><trkpt lat="42.65601293349795" lon="12.626245507266106"><ele>542.5</ele><time>2026-04-22T12:49:05Z</time></trkpt><trkpt lat="42.65609173245136" lon="12.626379176553266"><ele>540.25</ele><time>2026-04-22T12:49:06Z</time></trkpt><trkpt lat="42.656222401724506" lon="12.62643978029414"><ele>538.0</ele><time>2026-04-22T12:49:07Z</time></trkpt><trkpt lat="42.65626722671437" lon="12.626681619761712"><ele>538.0</ele><time>2026-04-22T12:49:08Z</time></trkpt><trkpt lat="42.656479603384845" lon="12.626592457389387"><ele>538.0</ele><time>2026-04-22T12:49:09Z</time></trkpt><trkpt lat="42.656623944173" lon="12.62663604492734"><ele>538.0</ele><time>2026-04-22T12:49:10Z</time></trkpt><trkpt lat="42.65677048241153" lon="12.626659799181825"><ele>538.0</ele><time>2026-04-22T12:49:11Z</time></trkpt><trkpt lat="42.65686936919831" lon="12.626753275728271"><ele>538.0</ele><time>2026-04-22T12:49:12Z</time></trkpt><trkpt lat="42.657013714166794" lon="12.62680969435792"><ele>538.0</ele><time>2026-04-22T12:49:13Z</time></trkpt><trkpt lat="42.65712182723712" lon="12.62689209361988"><ele>538.0</ele><time>2026-04-22T12:49:14Z</time></trkpt><trkpt lat="42.657216285878555" lon="12.626962222392608"><ele>537.3333333333334</ele><time>2026-04-22T12:49:15Z</time></trkpt><trkpt lat="42.65727757603642" lon="12.627055852010646"><ele>536.6666666666667</ele><time>2026-04-22T12:49:16Z</time></trkpt><trkpt lat="42.6573170970992" lon="12.627153834566602"><ele>536.0</ele><time>2026-04-22T12:49:17Z</time></trkpt><trkpt lat="42.657352368760684" lon="12.627270920915851"><ele>535.3333333333334</ele><time>2026-04-22T12:49:19Z</time></trkpt><trkpt lat="42.65740623293056" lon="12.627332219330055"><ele>534.6666666666666</ele><time>2026-04-22T12:49:21Z</time></trkpt><trkpt lat="42.65744983311423" lon="12.627394961537727"><ele>534.0</ele><time>2026-04-22T12:49:22Z</time></trkpt><trkpt lat="42.657508976896516" lon="12.627473351863392"><ele>534.0</ele><time>2026-04-22T12:49:23Z</time></trkpt><trkpt lat="42.657588378610654" lon="12.62752671460151"><ele>534.0</ele><time>2026-04-22T12:49:24Z</time></trkpt><trkpt lat="42.65766603771743" lon="12.62754988523324"><ele>534.0</ele><time>2026-04-22T12:49:25Z</time></trkpt><trkpt lat="42.657761192697116" lon="12.627541530090493"><ele>534.0</ele><time>2026-04-22T12:49:26Z</time></trkpt><trkpt lat="42.65785622392994" lon="12.627499692569788"><ele>534.0</ele><time>2026-04-22T12:49:27Z</time></trkpt><trkpt lat="42.6579555419451" lon="12.62745274078079"><ele>532.8</ele><time>2026-04-22T12:49:28Z</time></trkpt><trkpt lat="42.6580605032576" lon="12.627438989441263"><ele>531.5999999999999</ele><time>2026-04-22T12:49:29Z</time></trkpt><trkpt lat="42.658149181527065" lon="12.62741771079574"><ele>530.4</ele><time>2026-04-22T12:49:30Z</time></trkpt><trkpt lat="42.65823487064322" lon="12.627427496798955"><ele>529.1999999999999</ele><time>2026-04-22T12:49:31Z</time></trkpt><trkpt lat="42.658331163887375" lon="12.627435387986996"><ele>528.0</ele><time>2026-04-22T12:49:32Z</time></trkpt><trkpt lat="42.65843714759754" lon="12.627445260154369"><ele>528.0</ele><time>2026-04-22T12:49:33Z</time></trkpt><trkpt lat="42.65854027413983" lon="12.627509635137791"><ele>528.0</ele><time>2026-04-22T12:49:34Z</time></trkpt><trkpt lat="42.65865849698571" lon="12.627526393476012"><ele>528.0</ele><time>2026-04-22T12:49:35Z</time></trkpt><trkpt lat="42.658775027742486" lon="12.627562620086387"><ele>528.0</ele><time>2026-04-22T12:49:36Z</time></trkpt><trkpt lat="42.65887990785938" lon="12.627591350048737"><ele>527.6</ele><time>2026-04-22T12:49:37Z</time></trkpt><trkpt lat="42.65897850632782" lon="12.627628398986431"><ele>527.1999999999999</ele><time>2026-04-22T12:49:38Z</time></trkpt><trkpt lat="42.659077948223604" lon="12.62767484889268"><ele>526.8</ele><time>2026-04-22T12:49:39Z</time></trkpt><trkpt lat="42.65915932975944" lon="12.627749566681086"><ele>526.4</ele><time>2026-04-22T12:49:40Z</time></trkpt><trkpt lat="42.65924774737839" lon="12.627840010634994"><ele>526.0</ele><time>2026-04-22T12:49:41Z</time></trkpt><trkpt lat="42.659315753055424" lon="12.627957081149303"><ele>526.0</ele><time>2026-04-22T12:49:42.001Z</time></trkpt><trkpt lat="42.659360485260834" lon="12.628095761185628"><ele>526.0</ele><time>2026-04-22T12:49:43.001Z</time></trkpt><trkpt lat="42.65942344159052" lon="12.628227541815034"><ele>526.0</ele><time>2026-04-22T12:49:44.001Z</time></trkpt><trkpt lat="42.65949075426855" lon="12.62836356369659"><ele>526.0</ele><time>2026-04-22T12:49:45.001Z</time></trkpt><trkpt lat="42.65955941682911" lon="12.628484282989922"><ele>522.5</ele><time>2026-04-22T12:49:46.001Z</time></trkpt><trkpt lat="42.659621559695125" lon="12.628593464834323"><ele>519.0</ele><time>2026-04-22T12:49:47.001Z</time></trkpt><trkpt lat="42.65961947275651" lon="12.628739136440863"><ele>515.5</ele><time>2026-04-22T12:49:49.001Z</time></trkpt><trkpt lat="42.65947207884428" lon="12.628794885374418"><ele>512.0</ele><time>2026-04-22T12:49:51.001Z</time></trkpt><trkpt lat="42.65936494897097" lon="12.62885376393322"><ele>512.0</ele><time>2026-04-22T12:49:52.001Z</time></trkpt><trkpt lat="42.65926163417965" lon="12.628913279099388"><ele>512.0</ele><time>2026-04-22T12:49:53.001Z</time></trkpt><trkpt lat="42.65915400374297" lon="12.628989187654419"><ele>512.0</ele><time>2026-04-22T12:49:54.001Z</time></trkpt><trkpt lat="42.65906366632351" lon="12.629084589431946"><ele>512.0</ele><time>2026-04-22T12:49:55.001Z</time></trkpt><trkpt lat="42.65900500613488" lon="12.62922499270519"><ele>512.0</ele><time>2026-04-22T12:49:56.001Z</time></trkpt><trkpt lat="42.658946625707806" lon="12.629357942263198"><ele>512.0</ele><time>2026-04-22T12:49:57.001Z</time></trkpt><trkpt lat="42.65887240846332" lon="12.62946161407621"><ele>512.0</ele><time>2026-04-22T12:49:58.001Z</time></trkpt><trkpt lat="42.65880416002933" lon="12.629549869912685"><ele>512.0</ele><time>2026-04-22T12:49:59.001Z</time></trkpt><trkpt lat="42.658727800016884" lon="12.629610989336575"><ele>512.0</ele><time>2026-04-22T12:50:00.001Z</time></trkpt><trkpt lat="42.658630525976925" lon="12.629629412334545"><ele>508.25</ele><time>2026-04-22T12:50:01.001Z</time></trkpt><trkpt lat="42.65852301306954" lon="12.62964637070426"><ele>504.5</ele><time>2026-04-22T12:50:02.001Z</time></trkpt><trkpt lat="42.65839551566215" lon="12.629663691677683"><ele>500.75</ele><time>2026-04-22T12:50:03.001Z</time></trkpt><trkpt lat="42.65826255804935" lon="12.629679067061593"><ele>497.0</ele><time>2026-04-22T12:50:04Z</time></trkpt><trkpt lat="42.65812641400124" lon="12.629688989043546"><ele>497.0</ele><time>2026-04-22T12:50:05Z</time></trkpt><trkpt lat="42.658003748553604" lon="12.629685257732792"><ele>497.0</ele><time>2026-04-22T12:50:06Z</time></trkpt><trkpt lat="42.65789532304672" lon="12.629662489744147"><ele>497.0</ele><time>2026-04-22T12:50:07Z</time></trkpt><trkpt lat="42.65778534250598" lon="12.629630922559208"><ele>497.0</ele><time>2026-04-22T12:50:08Z</time></trkpt><trkpt lat="42.65766766583534" lon="12.629580596391785"><ele>495.0</ele><time>2026-04-22T12:50:09Z</time></trkpt><trkpt lat="42.65754171275368" lon="12.629541261583803"><ele>493.0</ele><time>2026-04-22T12:50:10Z</time></trkpt><trkpt lat="42.65741487396625" lon="12.629504619196176"><ele>491.0</ele><time>2026-04-22T12:50:11Z</time></trkpt><trkpt lat="42.65729243173938" lon="12.629469247079355"><ele>489.0</ele><time>2026-04-22T12:50:12Z</time></trkpt><trkpt lat="42.65717777449624" lon="12.629459165773081"><ele>494.5</ele><time>2026-04-22T12:50:13Z</time></trkpt><trkpt lat="42.657065003331645" lon="12.629405448699018"><ele>500.0</ele><time>2026-04-22T12:50:14Z</time></trkpt><trkpt lat="42.65693657513553" lon="12.629404070776932"><ele>505.5</ele><time>2026-04-22T12:50:15Z</time></trkpt><trkpt lat="42.65678475853682" lon="12.629389034346104"><ele>511.0</ele><time>2026-04-22T12:50:16Z</time></trkpt><trkpt lat="42.65667347655546" lon="12.62941348295314"><ele>511.0</ele><time>2026-04-22T12:50:17Z</time></trkpt><trkpt lat="42.656560731033245" lon="12.629429066589466"><ele>511.0</ele><time>2026-04-22T12:50:18Z</time></trkpt><trkpt lat="42.65644426392848" lon="12.629418864099993"><ele>511.0</ele><time>2026-04-22T12:50:19Z</time></trkpt><trkpt lat="42.65632232012807" lon="12.629423073900497"><ele>511.0</ele><time>2026-04-22T12:50:20Z</time></trkpt><trkpt lat="42.65625318957848" lon="12.629399866063382"><ele>511.0</ele><time>2026-04-22T12:50:21Z</time></trkpt><trkpt lat="42.656168874870836" lon="12.629365316359117"><ele>508.4</ele><time>2026-04-22T12:50:22Z</time></trkpt><trkpt lat="42.656089681970265" lon="12.629331095233114"><ele>505.8</ele><time>2026-04-22T12:50:23Z</time></trkpt><trkpt lat="42.65602354012839" lon="12.629296922910914"><ele>503.19999999999993</ele><time>2026-04-22T12:50:24Z</time></trkpt><trkpt lat="42.65591770785296" lon="12.629238443888907"><ele>500.59999999999997</ele><time>2026-04-22T12:50:26Z</time></trkpt><trkpt lat="42.65584293996806" lon="12.629190852679773"><ele>498.0</ele><time>2026-04-22T12:50:27Z</time></trkpt><trkpt lat="42.65575722640826" lon="12.629106005502358"><ele>498.0</ele><time>2026-04-22T12:50:28Z</time></trkpt><trkpt lat="42.65566494790915" lon="12.629017383700173"><ele>497.99999999999994</ele><time>2026-04-22T12:50:29Z</time></trkpt><trkpt lat="42.655580427846715" lon="12.62894393222616"><ele>497.99999999999994</ele><time>2026-04-22T12:50:30Z</time></trkpt><trkpt lat="42.65550221870207" lon="12.628875029457399"><ele>498.0</ele><time>2026-04-22T12:50:31Z</time></trkpt><trkpt lat="42.65545765314976" lon="12.628813902008195"><ele>498.0</ele><time>2026-04-22T12:50:32Z</time></trkpt><trkpt lat="42.655448977560056" lon="12.628673105964722"><ele>499.5</ele><time>2026-04-22T12:50:34Z</time></trkpt><trkpt lat="42.655468897211826" lon="12.62859143058673"><ele>501.0</ele><time>2026-04-22T12:50:35Z</time></trkpt><trkpt lat="42.65550488482099" lon="12.628495056012456"><ele>502.5</ele><time>2026-04-22T12:50:36Z</time></trkpt><trkpt lat="42.65554007964302" lon="12.62835811877778"><ele>504.0</ele><time>2026-04-22T12:50:37Z</time></trkpt><trkpt lat="42.65557414982373" lon="12.628226377969815"><ele>505.5</ele><time>2026-04-22T12:50:38Z</time></trkpt><trkpt lat="42.65560876360266" lon="12.628111283394404"><ele>507.0</ele><time>2026-04-22T12:50:39Z</time></trkpt><trkpt lat="42.655623296676865" lon="12.628023593955652"><ele>507.0</ele><time>2026-04-22T12:50:40Z</time></trkpt><trkpt lat="42.65557702656967" lon="12.627887179221359"><ele>507.00000000000006</ele><time>2026-04-22T12:50:42Z</time></trkpt><trkpt lat="42.65550934605412" lon="12.627863214495358"><ele>507.00000000000006</ele><time>2026-04-22T12:50:43Z</time></trkpt><trkpt lat="42.655436141475704" lon="12.627925263025652"><ele>507.0</ele><time>2026-04-22T12:50:44Z</time></trkpt><trkpt lat="42.65537817365542" lon="12.628026598118346"><ele>507.0</ele><time>2026-04-22T12:50:45Z</time></trkpt><trkpt lat="42.655285617366765" lon="12.628090070112505"><ele>503.25</ele><time>2026-04-22T12:50:46Z</time></trkpt><trkpt lat="42.65519071378465" lon="12.628143120758045"><ele>499.5</ele><time>2026-04-22T12:50:47Z</time></trkpt><trkpt lat="42.655086629377166" lon="12.628213507896303"><ele>495.75</ele><time>2026-04-22T12:50:48Z</time></trkpt><trkpt lat="42.65499304886944" lon="12.62830508373561"><ele>492.0</ele><time>2026-04-22T12:50:49Z</time></trkpt><trkpt lat="42.65490899951721" lon="12.628427774311376"><ele>492.0</ele><time>2026-04-22T12:50:50Z</time></trkpt><trkpt lat="42.6548514812245" lon="12.628548745007366"><ele>492.00000000000006</ele><time>2026-04-22T12:50:51Z</time></trkpt><trkpt lat="42.654778626525555" lon="12.62863752544164"><ele>492.00000000000006</ele><time>2026-04-22T12:50:52Z</time></trkpt><trkpt lat="42.654712737719805" lon="12.628726663662738"><ele>492.0</ele><time>2026-04-22T12:50:53Z</time></trkpt><trkpt lat="42.65462148681706" lon="12.628783637326821"><ele>492.0</ele><time>2026-04-22T12:50:54Z</time></trkpt><trkpt lat="42.6545317485196" lon="12.628810851905381"><ele>491.1666666666667</ele><time>2026-04-22T12:50:55Z</time></trkpt><trkpt lat="42.6544430454355" lon="12.628791611588214"><ele>490.33333333333337</ele><time>2026-04-22T12:50:56Z</time></trkpt><trkpt lat="42.6543533067097" lon="12.62874829131508"><ele>489.5</ele><time>2026-04-22T12:50:57Z</time></trkpt><trkpt lat="42.65427911508875" lon="12.628694559679118"><ele>488.6666666666667</ele><time>2026-04-22T12:50:58Z</time></trkpt><trkpt lat="42.65420382012475" lon="12.628632280052543"><ele>487.83333333333337</ele><time>2026-04-22T12:50:59Z</time></trkpt><trkpt lat="42.65412326480478" lon="12.628577847997798"><ele>487.0</ele><time>2026-04-22T12:51:00Z</time></trkpt><trkpt lat="42.65403408494876" lon="12.628546170391147"><ele>487.0</ele><time>2026-04-22T12:51:01Z</time></trkpt><trkpt lat="42.653907750477366" lon="12.628602110408838"><ele>487.0</ele><time>2026-04-22T12:51:02Z</time></trkpt><trkpt lat="42.653808450964064" lon="12.628684521024272"><ele>487.0</ele><time>2026-04-22T12:51:03Z</time></trkpt><trkpt lat="42.65372411744835" lon="12.62875913038884"><ele>487.0</ele><time>2026-04-22T12:51:04.001Z</time></trkpt><trkpt lat="42.6536686542359" lon="12.628915305262192"><ele>482.6</ele><time>2026-04-22T12:51:05.001Z</time></trkpt><trkpt lat="42.65360399867626" lon="12.629025450811659"><ele>478.20000000000005</ele><time>2026-04-22T12:51:06.001Z</time></trkpt><trkpt lat="42.65353784892728" lon="12.629108151685436"><ele>473.8</ele><time>2026-04-22T12:51:07.001Z</time></trkpt><trkpt lat="42.65345722586427" lon="12.62916113003553"><ele>469.4</ele><time>2026-04-22T12:51:08.001Z</time></trkpt><trkpt lat="42.65337642695003" lon="12.629195412993752"><ele>465.0</ele><time>2026-04-22T12:51:09.001Z</time></trkpt><trkpt lat="42.65329300737984" lon="12.629203195129024"><ele>465.0</ele><time>2026-04-22T12:51:10.001Z</time></trkpt><trkpt lat="42.653212011382315" lon="12.629174080983503"><ele>465.0</ele><time>2026-04-22T12:51:11.001Z</time></trkpt><trkpt lat="42.65315402360777" lon="12.629104821932193"><ele>465.0</ele><time>2026-04-22T12:51:12.001Z</time></trkpt><trkpt lat="42.65307160515181" lon="12.629026902402364"><ele>465.0</ele><time>2026-04-22T12:51:13.001Z</time></trkpt><trkpt lat="42.65298892293755" lon="12.628944610762211"><ele>465.0</ele><time>2026-04-22T12:51:14.001Z</time></trkpt><trkpt lat="42.65290774208238" lon="12.628890087041839"><ele>465.0</ele><time>2026-04-22T12:51:15.001Z</time></trkpt><trkpt lat="42.6528196999188" lon="12.628866176258885"><ele>465.0</ele><time>2026-04-22T12:51:16.001Z</time></trkpt><trkpt lat="42.652729354013076" lon="12.62892964489988"><ele>465.0</ele><time>2026-04-22T12:51:17.001Z</time></trkpt><trkpt lat="42.65264079841123" lon="12.629010196885057"><ele>465.0</ele><time>2026-04-22T12:51:18.001Z</time></trkpt><trkpt lat="42.65255520050225" lon="12.629090438233998"><ele>465.0</ele><time>2026-04-22T12:51:19.001Z</time></trkpt><trkpt lat="42.652473978282416" lon="12.629177749971921"><ele>464.2</ele><time>2026-04-22T12:51:20.001Z</time></trkpt><trkpt lat="42.65239587039956" lon="12.629270316103517"><ele>463.4</ele><time>2026-04-22T12:51:21.001Z</time></trkpt><trkpt lat="42.652329175023226" lon="12.629371716333171"><ele>462.6</ele><time>2026-04-22T12:51:22.001Z</time></trkpt><trkpt lat="42.65229354695884" lon="12.629503031989266"><ele>461.8</ele><time>2026-04-22T12:51:23.001Z</time></trkpt><trkpt lat="42.65231249070051" lon="12.629661579467442"><ele>461.0</ele><time>2026-04-22T12:51:24.001Z</time></trkpt><trkpt lat="42.65233523195839" lon="12.629793916828211"><ele>455.0</ele><time>2026-04-22T12:51:25.001Z</time></trkpt><trkpt lat="42.65235680272911" lon="12.62994970292689"><ele>449.0</ele><time>2026-04-22T12:51:26.001Z</time></trkpt><trkpt lat="42.65233494671303" lon="12.630124219586069"><ele>443.0</ele><time>2026-04-22T12:51:27.001Z</time></trkpt><trkpt lat="42.652341243306594" lon="12.630297693953459"><ele>437.0</ele><time>2026-04-22T12:51:28.001Z</time></trkpt><trkpt lat="42.65234476771034" lon="12.630482048714027"><ele>435.75</ele><time>2026-04-22T12:51:29.001Z</time></trkpt><trkpt lat="42.652376317516605" lon="12.630662059402184"><ele>434.5</ele><time>2026-04-22T12:51:30.001Z</time></trkpt><trkpt lat="42.652430212439754" lon="12.63082267684405"><ele>433.25</ele><time>2026-04-22T12:51:31.001Z</time></trkpt><trkpt lat="42.65248083421088" lon="12.630962329759251"><ele>432.0</ele><time>2026-04-22T12:51:32.001Z</time></trkpt><trkpt lat="42.652501981083375" lon="12.631080147949227"><ele>429.40000000000003</ele><time>2026-04-22T12:51:33.001Z</time></trkpt><trkpt lat="42.65246685565264" lon="12.631194323009128"><ele>426.80000000000007</ele><time>2026-04-22T12:51:34.001Z</time></trkpt><trkpt lat="42.652426364925674" lon="12.631293180113603"><ele>424.2</ele><time>2026-04-22T12:51:35.001Z</time></trkpt><trkpt lat="42.65238453283367" lon="12.631398154757917"><ele>421.6</ele><time>2026-04-22T12:51:36.001Z</time></trkpt><trkpt lat="42.652345000572176" lon="12.63150682221129"><ele>419.0</ele><time>2026-04-22T12:51:37.001Z</time></trkpt><trkpt lat="42.65228942856163" lon="12.631650983955739"><ele>419.0</ele><time>2026-04-22T12:51:38.001Z</time></trkpt><trkpt lat="42.65227009193363" lon="12.631803517874644"><ele>419.0</ele><time>2026-04-22T12:51:39.001Z</time></trkpt><trkpt lat="42.6522135050482" lon="12.631935063875671"><ele>419.0</ele><time>2026-04-22T12:51:40.001Z</time></trkpt><trkpt lat="42.65215762618747" lon="12.632054786943726"><ele>419.0</ele><time>2026-04-22T12:51:41.001Z</time></trkpt><trkpt lat="42.65210477773591" lon="12.632149383863206"><ele>419.0</ele><time>2026-04-22T12:51:42.001Z</time></trkpt><trkpt lat="42.65202124581672" lon="12.632150593148195"><ele>418.5</ele><time>2026-04-22T12:51:43.001Z</time></trkpt><trkpt lat="42.6519238507748" lon="12.632179653668322"><ele>418.0</ele><time>2026-04-22T12:51:44.001Z</time></trkpt><trkpt lat="42.65182266763598" lon="12.632241092745893"><ele>417.5</ele><time>2026-04-22T12:51:45.001Z</time></trkpt><trkpt lat="42.65177158582104" lon="12.632394673341151"><ele>417.0</ele><time>2026-04-22T12:51:46.001Z</time></trkpt><trkpt lat="42.65168791626321" lon="12.632503268387657"><ele>417.0</ele><time>2026-04-22T12:51:47.001Z</time></trkpt><trkpt lat="42.651601261207354" lon="12.632601784808717"><ele>417.0</ele><time>2026-04-22T12:51:48.001Z</time></trkpt><trkpt lat="42.65150143666025" lon="12.632685018777003"><ele>417.0</ele><time>2026-04-22T12:51:49.001Z</time></trkpt><trkpt lat="42.651386002903465" lon="12.632759353332622"><ele>417.0</ele><time>2026-04-22T12:51:50.001Z</time></trkpt><trkpt lat="42.65125689576859" lon="12.632844455695828"><ele>412.40000000000003</ele><time>2026-04-22T12:51:51.001Z</time></trkpt><trkpt lat="42.65113716681489" lon="12.632925105210505"><ele>407.8</ele><time>2026-04-22T12:51:52.001Z</time></trkpt><trkpt lat="42.65104058731807" lon="12.632998722405114"><ele>403.2</ele><time>2026-04-22T12:51:53.001Z</time></trkpt><trkpt lat="42.65095639003798" lon="12.633042607639767"><ele>398.6</ele><time>2026-04-22T12:51:54.001Z</time></trkpt><trkpt lat="42.650889590868516" lon="12.633066030089259"><ele>394.0</ele><time>2026-04-22T12:51:55.001Z</time></trkpt><trkpt lat="42.650830121145624" lon="12.633124225046764"><ele>394.0</ele><time>2026-04-22T12:51:57.001Z</time></trkpt><trkpt lat="42.650852887184996" lon="12.633207925707103"><ele>394.0</ele><time>2026-04-22T12:51:58.001Z</time></trkpt><trkpt lat="42.65092981716462" lon="12.633230820237282"><ele>394.0</ele><time>2026-04-22T12:51:59.001Z</time></trkpt><trkpt lat="42.651070476444715" lon="12.633211144990323"><ele>394.0</ele><time>2026-04-22T12:52:01.001Z</time></trkpt><trkpt lat="42.65118453838641" lon="12.633189441138418"><ele>394.0</ele><time>2026-04-22T12:52:02.001Z</time></trkpt><trkpt lat="42.65129840281332" lon="12.633184388136733"><ele>392.25</ele><time>2026-04-22T12:52:03.001Z</time></trkpt><trkpt lat="42.65141966245936" lon="12.633200347759159"><ele>390.5</ele><time>2026-04-22T12:52:04.001Z</time></trkpt><trkpt lat="42.65154253211269" lon="12.633229505677027"><ele>388.75</ele><time>2026-04-22T12:52:05.001Z</time></trkpt><trkpt lat="42.6516636213104" lon="12.633260947497018"><ele>387.0</ele><time>2026-04-22T12:52:06.001Z</time></trkpt><trkpt lat="42.65178406507128" lon="12.633293204501037"><ele>387.0</ele><time>2026-04-22T12:52:07.001Z</time></trkpt><trkpt lat="42.651904296559394" lon="12.633325688119585"><ele>387.0</ele><time>2026-04-22T12:52:08.001Z</time></trkpt><trkpt lat="42.65201851305342" lon="12.633388672337242"><ele>387.0</ele><time>2026-04-22T12:52:09.001Z</time></trkpt><trkpt lat="42.65213718793778" lon="12.633444330988391"><ele>387.0</ele><time>2026-04-22T12:52:10.001Z</time></trkpt><trkpt lat="42.65225947288969" lon="12.633487167444079"><ele>384.25</ele><time>2026-04-22T12:52:11.001Z</time></trkpt><trkpt lat="42.65237655801965" lon="12.633548337030527"><ele>381.5</ele><time>2026-04-22T12:52:12.001Z</time></trkpt><trkpt lat="42.65248951668396" lon="12.633609661640458"><ele>378.75</ele><time>2026-04-22T12:52:13.001Z</time></trkpt><trkpt lat="42.65259804013331" lon="12.633661005877348"><ele>376.0</ele><time>2026-04-22T12:52:14.001Z</time></trkpt><trkpt lat="42.652706238029175" lon="12.633704359823529"><ele>373.8333333333333</ele><time>2026-04-22T12:52:15.001Z</time></trkpt><trkpt lat="42.65281332811907" lon="12.6337338406237"><ele>371.66666666666663</ele><time>2026-04-22T12:52:16.001Z</time></trkpt><trkpt lat="42.652910955698026" lon="12.633768372340112"><ele>369.5</ele><time>2026-04-22T12:52:17.001Z</time></trkpt><trkpt lat="42.65298835492303" lon="12.63382041816315"><ele>367.3333333333333</ele><time>2026-04-22T12:52:18.001Z</time></trkpt><trkpt lat="42.653046583652554" lon="12.633885394180153"><ele>365.1666666666667</ele><time>2026-04-22T12:52:19.001Z</time></trkpt><trkpt lat="42.65309804137727" lon="12.63394708156534"><ele>363.0</ele><time>2026-04-22T12:52:20.001Z</time></trkpt><trkpt lat="42.653169686457986" lon="12.63398738340042"><ele>363.0</ele><time>2026-04-22T12:52:21.001Z</time></trkpt><trkpt lat="42.65326153504804" lon="12.634003556084293"><ele>363.0</ele><time>2026-04-22T12:52:22.001Z</time></trkpt><trkpt lat="42.65337791253428" lon="12.634014798851327"><ele>363.0</ele><time>2026-04-22T12:52:23.001Z</time></trkpt><trkpt lat="42.65350093926322" lon="12.63402351542889"><ele>363.0</ele><time>2026-04-22T12:52:24.001Z</time></trkpt><trkpt lat="42.65362522154162" lon="12.634034949151976"><ele>363.5</ele><time>2026-04-22T12:52:25.001Z</time></trkpt><trkpt lat="42.65376730785989" lon="12.634047011964038"><ele>364.0</ele><time>2026-04-22T12:52:26.001Z</time></trkpt><trkpt lat="42.653905807207344" lon="12.634049970562133"><ele>364.5</ele><time>2026-04-22T12:52:27.001Z</time></trkpt><trkpt lat="42.65404798076882" lon="12.634048154860693"><ele>365.0</ele><time>2026-04-22T12:52:28.001Z</time></trkpt><trkpt lat="42.6541797607443" lon="12.634033874339412"><ele>365.0</ele><time>2026-04-22T12:52:29.001Z</time></trkpt><trkpt lat="42.65430445268978" lon="12.634018313058508"><ele>365.0</ele><time>2026-04-22T12:52:30.001Z</time></trkpt><trkpt lat="42.65441512182197" lon="12.63401571129423"><ele>365.0</ele><time>2026-04-22T12:52:31.001Z</time></trkpt><trkpt lat="42.65450936292534" lon="12.634046403523126"><ele>365.0</ele><time>2026-04-22T12:52:32.001Z</time></trkpt><trkpt lat="42.65459505565375" lon="12.63410820972025"><ele>365.0</ele><time>2026-04-22T12:52:33.001Z</time></trkpt><trkpt lat="42.654666975254756" lon="12.634191818269947"><ele>365.0</ele><time>2026-04-22T12:52:34.001Z</time></trkpt><trkpt lat="42.654731846216784" lon="12.634304589628602"><ele>365.0</ele><time>2026-04-22T12:52:35.001Z</time></trkpt><trkpt lat="42.65476347522223" lon="12.634447872350496"><ele>365.0</ele><time>2026-04-22T12:52:36.001Z</time></trkpt><trkpt lat="42.654813504505526" lon="12.634605069641706"><ele>365.0</ele><time>2026-04-22T12:52:37.001Z</time></trkpt><trkpt lat="42.65487849931326" lon="12.634763663801023"><ele>365.0</ele><time>2026-04-22T12:52:38.001Z</time></trkpt><trkpt lat="42.6549224487504" lon="12.634920575062235"><ele>365.0</ele><time>2026-04-22T12:52:39.001Z</time></trkpt><trkpt lat="42.654951797342406" lon="12.635060690085062"><ele>365.0</ele><time>2026-04-22T12:52:40.001Z</time></trkpt><trkpt lat="42.65496751590599" lon="12.63519669871288"><ele>365.0</ele><time>2026-04-22T12:52:41.001Z</time></trkpt><trkpt lat="42.6549727201824" lon="12.635324511420105"><ele>365.0</ele><time>2026-04-22T12:52:42.001Z</time></trkpt><trkpt lat="42.65496580219811" lon="12.635416870127665"><ele>364.4</ele><time>2026-04-22T12:52:43.001Z</time></trkpt><trkpt lat="42.65494191910548" lon="12.63551963141535"><ele>363.8</ele><time>2026-04-22T12:52:46.001Z</time></trkpt><trkpt lat="42.655055649733605" lon="12.63561905032878"><ele>363.20000000000005</ele><time>2026-04-22T12:52:48.001Z</time></trkpt><trkpt lat="42.655134163426546" lon="12.635632231538958"><ele>362.6</ele><time>2026-04-22T12:52:49.001Z</time></trkpt><trkpt lat="42.6552170191259" lon="12.635649636978517"><ele>362.0</ele><time>2026-04-22T12:52:50.001Z</time></trkpt><trkpt lat="42.65529997901491" lon="12.635676851441668"><ele>362.0</ele><time>2026-04-22T12:52:51.001Z</time></trkpt><trkpt lat="42.65540637171509" lon="12.635710231115379"><ele>362.0</ele><time>2026-04-22T12:52:52.001Z</time></trkpt><trkpt lat="42.65552396763833" lon="12.635738881134602"><ele>362.0</ele><time>2026-04-22T12:52:53.001Z</time></trkpt><trkpt lat="42.65563935914194" lon="12.635767658719487"><ele>362.0</ele><time>2026-04-22T12:52:54.001Z</time></trkpt><trkpt lat="42.65576030563811" lon="12.635802161037317"><ele>362.0</ele><time>2026-04-22T12:52:55.001Z</time></trkpt><trkpt lat="42.655885820741176" lon="12.635844185947395"><ele>362.0</ele><time>2026-04-22T12:52:56.001Z</time></trkpt><trkpt lat="42.6560114107387" lon="12.635895472435827"><ele>362.0</ele><time>2026-04-22T12:52:57.001Z</time></trkpt><trkpt lat="42.656128411802285" lon="12.635968808042518"><ele>362.0</ele><time>2026-04-22T12:52:58.001Z</time></trkpt><trkpt lat="42.65623259150152" lon="12.636067055633136"><ele>361.75</ele><time>2026-04-22T12:52:59.001Z</time></trkpt><trkpt lat="42.656338858252106" lon="12.636177185900284"><ele>361.5</ele><time>2026-04-22T12:53:00.001Z</time></trkpt><trkpt lat="42.65644112127568" lon="12.636273986684492"><ele>361.25</ele><time>2026-04-22T12:53:01.001Z</time></trkpt><trkpt lat="42.65652378625785" lon="12.636329143262898"><ele>361.0</ele><time>2026-04-22T12:53:02.001Z</time></trkpt><trkpt lat="42.65664670502846" lon="12.636344887684864"><ele>361.0</ele><time>2026-04-22T12:53:04.001Z</time></trkpt><trkpt lat="42.65672508686407" lon="12.63627624577122"><ele>361.0</ele><time>2026-04-22T12:53:05.001Z</time></trkpt><trkpt lat="42.65682411990993" lon="12.636179831156037"><ele>361.0</ele><time>2026-04-22T12:53:06.001Z</time></trkpt><trkpt lat="42.656943456339924" lon="12.63607825813421"><ele>361.0</ele><time>2026-04-22T12:53:07.001Z</time></trkpt><trkpt lat="42.657058724441775" lon="12.635954516288669"><ele>362.0</ele><time>2026-04-22T12:53:08.001Z</time></trkpt><trkpt lat="42.657167714605315" lon="12.63584188489765"><ele>363.0</ele><time>2026-04-22T12:53:09.001Z</time></trkpt><trkpt lat="42.65724870316374" lon="12.635750263804555"><ele>364.0</ele><time>2026-04-22T12:53:10.001Z</time></trkpt><trkpt lat="42.65733875101433" lon="12.635708778841302"><ele>365.0</ele><time>2026-04-22T12:53:11.001Z</time></trkpt><trkpt lat="42.657427744070525" lon="12.635697425758947"><ele>366.0</ele><time>2026-04-22T12:53:12.001Z</time></trkpt><trkpt lat="42.65753964048633" lon="12.635705546672426"><ele>366.0</ele><time>2026-04-22T12:53:13.001Z</time></trkpt><trkpt lat="42.65766933586935" lon="12.635696945417024"><ele>366.0</ele><time>2026-04-22T12:53:14.001Z</time></trkpt><trkpt lat="42.65780272209798" lon="12.63571037883049"><ele>366.0</ele><time>2026-04-22T12:53:15.001Z</time></trkpt><trkpt lat="42.65794508023304" lon="12.63572668010722"><ele>366.0</ele><time>2026-04-22T12:53:16.001Z</time></trkpt><trkpt lat="42.65808312175927" lon="12.635739991236044"><ele>367.25</ele><time>2026-04-22T12:53:17.001Z</time></trkpt><trkpt lat="42.65822241634843" lon="12.635759119756715"><ele>368.5</ele><time>2026-04-22T12:53:18.001Z</time></trkpt><trkpt lat="42.65836605840717" lon="12.635780141431821"><ele>369.75</ele><time>2026-04-22T12:53:19.001Z</time></trkpt><trkpt lat="42.65851086944989" lon="12.635801650926295"><ele>371.0</ele><time>2026-04-22T12:53:20.001Z</time></trkpt><trkpt lat="42.658656009647196" lon="12.63582278957272"><ele>372.25</ele><time>2026-04-22T12:53:21.001Z</time></trkpt><trkpt lat="42.65880308867576" lon="12.635843323341065"><ele>373.5</ele><time>2026-04-22T12:53:22.001Z</time></trkpt><trkpt lat="42.658952942216445" lon="12.635843574386158"><ele>374.75</ele><time>2026-04-22T12:53:23.001Z</time></trkpt><trkpt lat="42.659095645222735" lon="12.63581694553126"><ele>376.0</ele><time>2026-04-22T12:53:24.001Z</time></trkpt><trkpt lat="42.65922891403596" lon="12.635780659561512"><ele>376.0</ele><time>2026-04-22T12:53:25.001Z</time></trkpt><trkpt lat="42.65935272516843" lon="12.635743443414658"><ele>376.0</ele><time>2026-04-22T12:53:26.001Z</time></trkpt><trkpt lat="42.659465353213484" lon="12.635719224276984"><ele>376.0</ele><time>2026-04-22T12:53:27.001Z</time></trkpt><trkpt lat="42.65956714620657" lon="12.635684741308298"><ele>376.0</ele><time>2026-04-22T12:53:28.001Z</time></trkpt><trkpt lat="42.65973149624952" lon="12.635628805739964"><ele>375.5</ele><time>2026-04-22T12:53:30.001Z</time></trkpt><trkpt lat="42.65980136111812" lon="12.635625571762228"><ele>375.0</ele><time>2026-04-22T12:53:31.001Z</time></trkpt><trkpt lat="42.6598582012181" lon="12.635666688345777"><ele>374.5</ele><time>2026-04-22T12:53:32.001Z</time></trkpt><trkpt lat="42.659943988905404" lon="12.635706173157045"><ele>374.0</ele><time>2026-04-22T12:53:33.001Z</time></trkpt><trkpt lat="42.66003402827221" lon="12.63571016295036"><ele>373.5</ele><time>2026-04-22T12:53:34.001Z</time></trkpt><trkpt lat="42.660129890594774" lon="12.635719567581134"><ele>373.0</ele><time>2026-04-22T12:53:35.001Z</time></trkpt><trkpt lat="42.660233005532824" lon="12.635722944601582"><ele>373.4</ele><time>2026-04-22T12:53:36.001Z</time></trkpt><trkpt lat="42.66034901243025" lon="12.635722668809848"><ele>373.79999999999995</ele><time>2026-04-22T12:53:37.001Z</time></trkpt><trkpt lat="42.66045869623366" lon="12.635719764949139"><ele>374.2</ele><time>2026-04-22T12:53:38.001Z</time></trkpt><trkpt lat="42.66056441124976" lon="12.635707048503772"><ele>374.6</ele><time>2026-04-22T12:53:39.001Z</time></trkpt><trkpt lat="42.66067068367367" lon="12.63567099356897"><ele>375.0</ele><time>2026-04-22T12:53:40.001Z</time></trkpt><trkpt lat="42.66078937261912" lon="12.635632932241165"><ele>375.0</ele><time>2026-04-22T12:53:41.001Z</time></trkpt><trkpt lat="42.660912676286884" lon="12.635595186207722"><ele>375.0</ele><time>2026-04-22T12:53:42.001Z</time></trkpt><trkpt lat="42.66102995092731" lon="12.635561483443633"><ele>375.0</ele><time>2026-04-22T12:53:43.001Z</time></trkpt><trkpt lat="42.66114126688574" lon="12.63554835179558"><ele>375.0</ele><time>2026-04-22T12:53:44.001Z</time></trkpt><trkpt lat="42.661257227186795" lon="12.635560124679499"><ele>376.0</ele><time>2026-04-22T12:53:45.001Z</time></trkpt><trkpt lat="42.66151762154664" lon="12.63559600282435"><ele>377.0</ele><time>2026-04-22T12:53:47.001Z</time></trkpt><trkpt lat="42.66164973032654" lon="12.63562288843145"><ele>378.0</ele><time>2026-04-22T12:53:48.001Z</time></trkpt><trkpt lat="42.66178298489005" lon="12.635647866576775"><ele>378.0</ele><time>2026-04-22T12:53:49.001Z</time></trkpt><trkpt lat="42.66191020305124" lon="12.635677158958828"><ele>378.0</ele><time>2026-04-22T12:53:50.001Z</time></trkpt><trkpt lat="42.66203458656979" lon="12.635680004294397"><ele>378.0</ele><time>2026-04-22T12:53:51.001Z</time></trkpt><trkpt lat="42.66216295294815" lon="12.635679944063728"><ele>378.0</ele><time>2026-04-22T12:53:52.001Z</time></trkpt><trkpt lat="42.66226827219648" lon="12.635698010911367"><ele>379.0</ele><time>2026-04-22T12:53:53.001Z</time></trkpt><trkpt lat="42.66237532776469" lon="12.635719963985386"><ele>380.0</ele><time>2026-04-22T12:53:54.001Z</time></trkpt><trkpt lat="42.662488332630225" lon="12.635746136679698"><ele>381.0</ele><time>2026-04-22T12:53:55.001Z</time></trkpt><trkpt lat="42.66261181665739" lon="12.635774442996022"><ele>382.0</ele><time>2026-04-22T12:53:56.001Z</time></trkpt><trkpt lat="42.66273318171005" lon="12.635805859895465"><ele>383.0</ele><time>2026-04-22T12:53:57.001Z</time></trkpt><trkpt lat="42.662847562541245" lon="12.63586529731551"><ele>384.0</ele><time>2026-04-22T12:53:58.001Z</time></trkpt><trkpt lat="42.662982882780476" lon="12.635880228836204"><ele>385.0</ele><time>2026-04-22T12:53:59.001Z</time></trkpt><trkpt lat="42.66310692522689" lon="12.635914497255218"><ele>386.0</ele><time>2026-04-22T12:54:00.001Z</time></trkpt><trkpt lat="42.66322905799661" lon="12.635938309977158"><ele>386.0</ele><time>2026-04-22T12:54:01.001Z</time></trkpt><trkpt lat="42.66334813863759" lon="12.635961023097462"><ele>386.0</ele><time>2026-04-22T12:54:02.001Z</time></trkpt><trkpt lat="42.66344601779655" lon="12.63598406543623"><ele>386.0</ele><time>2026-04-22T12:54:03.001Z</time></trkpt><trkpt lat="42.66355462285294" lon="12.635984066832727"><ele>386.0</ele><time>2026-04-22T12:54:04.001Z</time></trkpt><trkpt lat="42.66364586942552" lon="12.635985428830145"><ele>386.0</ele><time>2026-04-22T12:54:05.001Z</time></trkpt><trkpt lat="42.66375012237309" lon="12.635999072327907"><ele>385.25</ele><time>2026-04-22T12:54:06.001Z</time></trkpt><trkpt lat="42.663860438967376" lon="12.636024131383232"><ele>384.5</ele><time>2026-04-22T12:54:07.001Z</time></trkpt><trkpt lat="42.66397237351874" lon="12.636066791466156"><ele>383.75</ele><time>2026-04-22T12:54:08.001Z</time></trkpt><trkpt lat="42.66408905404033" lon="12.636109312420619"><ele>383.0</ele><time>2026-04-22T12:54:09.001Z</time></trkpt><trkpt lat="42.66420834633423" lon="12.636157090818369"><ele>383.0</ele><time>2026-04-22T12:54:10.001Z</time></trkpt><trkpt lat="42.6643060984986" lon="12.636196746885624"><ele>383.0</ele><time>2026-04-22T12:54:11.001Z</time></trkpt><trkpt lat="42.66439677910464" lon="12.636227483353714"><ele>383.0</ele><time>2026-04-22T12:54:12.001Z</time></trkpt><trkpt lat="42.66449659444952" lon="12.636260169526425"><ele>383.0</ele><time>2026-04-22T12:54:13.001Z</time></trkpt><trkpt lat="42.66460865353409" lon="12.63629975883583"><ele>383.0</ele><time>2026-04-22T12:54:14.001Z</time></trkpt><trkpt lat="42.66471227245943" lon="12.6363501648293"><ele>383.75</ele><time>2026-04-22T12:54:15.001Z</time></trkpt><trkpt lat="42.66480160901504" lon="12.63641485812445"><ele>384.5</ele><time>2026-04-22T12:54:16.001Z</time></trkpt><trkpt lat="42.664904223582575" lon="12.636484320903078"><ele>385.25</ele><time>2026-04-22T12:54:17.001Z</time></trkpt><trkpt lat="42.66501403462337" lon="12.636561539574776"><ele>386.0</ele><time>2026-04-22T12:54:18.001Z</time></trkpt><trkpt lat="42.665127841391346" lon="12.636635890014675"><ele>386.0</ele><time>2026-04-22T12:54:19.001Z</time></trkpt><trkpt lat="42.6652526477227" lon="12.636705251660636"><ele>386.0</ele><time>2026-04-22T12:54:20.001Z</time></trkpt><trkpt lat="42.66537524661497" lon="12.636781776101895"><ele>386.0</ele><time>2026-04-22T12:54:21.001Z</time></trkpt><trkpt lat="42.66549094239856" lon="12.636859683341141"><ele>386.0</ele><time>2026-04-22T12:54:22.001Z</time></trkpt><trkpt lat="42.66560216290569" lon="12.636924132400843"><ele>386.25</ele><time>2026-04-22T12:54:23.001Z</time></trkpt><trkpt lat="42.66571097601937" lon="12.636999501411443"><ele>386.5</ele><time>2026-04-22T12:54:24.001Z</time></trkpt><trkpt lat="42.665810831609676" lon="12.637068586544796"><ele>386.75</ele><time>2026-04-22T12:54:25.001Z</time></trkpt><trkpt lat="42.66590218151005" lon="12.63715623723723"><ele>387.0</ele><time>2026-04-22T12:54:26.001Z</time></trkpt><trkpt lat="42.666009675607484" lon="12.637211216176715"><ele>388.0</ele><time>2026-04-22T12:54:27.001Z</time></trkpt><trkpt lat="42.66611407601493" lon="12.637297407419977"><ele>389.0</ele><time>2026-04-22T12:54:28.001Z</time></trkpt><trkpt lat="42.66623239233946" lon="12.637382219804111"><ele>390.0</ele><time>2026-04-22T12:54:29.001Z</time></trkpt><trkpt lat="42.66635320198103" lon="12.63747360935979"><ele>391.0</ele><time>2026-04-22T12:54:30.001Z</time></trkpt><trkpt lat="42.66646858063058" lon="12.63756389393826"><ele>391.0</ele><time>2026-04-22T12:54:31.001Z</time></trkpt><trkpt lat="42.66657867067271" lon="12.637658592854779"><ele>391.0</ele><time>2026-04-22T12:54:32.001Z</time></trkpt><trkpt lat="42.66669640712133" lon="12.637750782397635"><ele>391.0</ele><time>2026-04-22T12:54:33.001Z</time></trkpt><trkpt lat="42.66681332147669" lon="12.637838688734316"><ele>391.0</ele><time>2026-04-22T12:54:34.001Z</time></trkpt><trkpt lat="42.666926679525396" lon="12.637922129609365"><ele>392.25</ele><time>2026-04-22T12:54:35.001Z</time></trkpt><trkpt lat="42.66704125832997" lon="12.638001091491954"><ele>393.5</ele><time>2026-04-22T12:54:36.001Z</time></trkpt><trkpt lat="42.66715570999164" lon="12.638088297646531"><ele>394.75</ele><time>2026-04-22T12:54:37.001Z</time></trkpt><trkpt lat="42.6672616851378" lon="12.638175881036101"><ele>396.0</ele><time>2026-04-22T12:54:38.001Z</time></trkpt><trkpt lat="42.66737197142782" lon="12.638263545407074"><ele>396.0</ele><time>2026-04-22T12:54:39.001Z</time></trkpt><trkpt lat="42.667490167056265" lon="12.638351055027844"><ele>396.0</ele><time>2026-04-22T12:54:40.001Z</time></trkpt><trkpt lat="42.66761126443093" lon="12.638443178425227"><ele>396.0</ele><time>2026-04-22T12:54:41.001Z</time></trkpt><trkpt lat="42.66772736828504" lon="12.638538642752044"><ele>396.0</ele><time>2026-04-22T12:54:42.001Z</time></trkpt><trkpt lat="42.667843235285105" lon="12.638629582189724"><ele>396.25</ele><time>2026-04-22T12:54:43.001Z</time></trkpt><trkpt lat="42.667959709855204" lon="12.638724106266398"><ele>396.5</ele><time>2026-04-22T12:54:44.001Z</time></trkpt><trkpt lat="42.668084174253536" lon="12.638816463105766"><ele>396.75</ele><time>2026-04-22T12:54:45.001Z</time></trkpt><trkpt lat="42.668200554105816" lon="12.638909284803042"><ele>397.0</ele><time>2026-04-22T12:54:46.001Z</time></trkpt><trkpt lat="42.66831059976695" lon="12.63900051791278"><ele>397.0</ele><time>2026-04-22T12:54:47.001Z</time></trkpt><trkpt lat="42.668442625822195" lon="12.639084598301281"><ele>397.0</ele><time>2026-04-22T12:54:48.001Z</time></trkpt><trkpt lat="42.66855547075251" lon="12.639168609717547"><ele>397.0</ele><time>2026-04-22T12:54:49.001Z</time></trkpt><trkpt lat="42.668672097606" lon="12.639257772437889"><ele>397.0</ele><time>2026-04-22T12:54:50.001Z</time></trkpt><trkpt lat="42.66879328834799" lon="12.639367655783035"><ele>398.25</ele><time>2026-04-22T12:54:51.001Z</time></trkpt><trkpt lat="42.668907952842545" lon="12.639450318243826"><ele>399.5</ele><time>2026-04-22T12:54:52.001Z</time></trkpt><trkpt lat="42.66901383828669" lon="12.639550936428957"><ele>400.75</ele><time>2026-04-22T12:54:53.001Z</time></trkpt><trkpt lat="42.66912724245696" lon="12.639646259702154"><ele>402.0</ele><time>2026-04-22T12:54:54.001Z</time></trkpt><trkpt lat="42.66924314723516" lon="12.639739978552074"><ele>402.0</ele><time>2026-04-22T12:54:55.001Z</time></trkpt><trkpt lat="42.66936050956133" lon="12.639846293515616"><ele>402.0</ele><time>2026-04-22T12:54:56.001Z</time></trkpt><trkpt lat="42.669481490320045" lon="12.639952339886767"><ele>402.0</ele><time>2026-04-22T12:54:57.001Z</time></trkpt><trkpt lat="42.66960425057781" lon="12.6400468814231"><ele>402.0</ele><time>2026-04-22T12:54:58.001Z</time></trkpt><trkpt lat="42.66972813775241" lon="12.640126697818507"><ele>402.8</ele><time>2026-04-22T12:54:59.001Z</time></trkpt><trkpt lat="42.66984783868275" lon="12.640186725310068"><ele>403.6</ele><time>2026-04-22T12:55:00.001Z</time></trkpt><trkpt lat="42.66994561965111" lon="12.640274474598085"><ele>404.40000000000003</ele><time>2026-04-22T12:55:01.001Z</time></trkpt><trkpt lat="42.67002793797121" lon="12.6403315303172"><ele>405.20000000000005</ele><time>2026-04-22T12:55:02.001Z</time></trkpt><trkpt lat="42.67009715993218" lon="12.640442656465881"><ele>406.0</ele><time>2026-04-22T12:55:04.001Z</time></trkpt><trkpt lat="42.66998562941353" lon="12.640517053640163"><ele>408.50000000000006</ele><time>2026-04-22T12:55:06.001Z</time></trkpt><trkpt lat="42.66993113629732" lon="12.640469850490424"><ele>411.0</ele><time>2026-04-22T12:55:07.001Z</time></trkpt><trkpt lat="42.66985622560344" lon="12.640458335192555"><ele>413.5</ele><time>2026-04-22T12:55:08.001Z</time></trkpt><trkpt lat="42.66976867308136" lon="12.640446602559035"><ele>416.0</ele><time>2026-04-22T12:55:09.001Z</time></trkpt><trkpt lat="42.66967727786266" lon="12.640453381586797"><ele>418.50000000000006</ele><time>2026-04-22T12:55:10.001Z</time></trkpt><trkpt lat="42.66958407123815" lon="12.640508293450079"><ele>421.0</ele><time>2026-04-22T12:55:11.001Z</time></trkpt><trkpt lat="42.66949429991064" lon="12.640564798328668"><ele>419.8</ele><time>2026-04-22T12:55:12.001Z</time></trkpt><trkpt lat="42.669427949417134" lon="12.640651462280054"><ele>418.6</ele><time>2026-04-22T12:55:13.001Z</time></trkpt><trkpt lat="42.66937999640445" lon="12.640759282121527"><ele>417.4</ele><time>2026-04-22T12:55:14.001Z</time></trkpt><trkpt lat="42.669320700450065" lon="12.640868434383744"><ele>416.2</ele><time>2026-04-22T12:55:15.001Z</time></trkpt><trkpt lat="42.669257291945485" lon="12.640978211377755"><ele>415.0</ele><time>2026-04-22T12:55:16.001Z</time></trkpt><trkpt lat="42.66919747094432" lon="12.641062405949336"><ele>415.00000000000006</ele><time>2026-04-22T12:55:17.001Z</time></trkpt><trkpt lat="42.66911991659542" lon="12.641085248732363"><ele>415.0</ele><time>2026-04-22T12:55:18.001Z</time></trkpt><trkpt lat="42.669043937803984" lon="12.64117468658152"><ele>415.0</ele><time>2026-04-22T12:55:20.001Z</time></trkpt><trkpt lat="42.669050983415424" lon="12.64126508296843"><ele>415.0</ele><time>2026-04-22T12:55:21.001Z</time></trkpt><trkpt lat="42.6691341764006" lon="12.641386589436939"><ele>415.00000000000006</ele><time>2026-04-22T12:55:23.001Z</time></trkpt><trkpt lat="42.669208382080264" lon="12.641391444683686"><ele>415.0</ele><time>2026-04-22T12:55:24.001Z</time></trkpt><trkpt lat="42.66928084266008" lon="12.641350165879526"><ele>416.00000000000006</ele><time>2026-04-22T12:55:25.001Z</time></trkpt><trkpt lat="42.669328545924536" lon="12.641272999875321"><ele>417.0</ele><time>2026-04-22T12:55:26.001Z</time></trkpt><trkpt lat="42.66938510844841" lon="12.641206420436669"><ele>418.0</ele><time>2026-04-22T12:55:27.001Z</time></trkpt><trkpt lat="42.66944928124321" lon="12.641153021753677"><ele>419.0</ele><time>2026-04-22T12:55:28.001Z</time></trkpt><trkpt lat="42.66952954394092" lon="12.641104962614337"><ele>420.00000000000006</ele><time>2026-04-22T12:55:29.001Z</time></trkpt><trkpt lat="42.66962430504581" lon="12.641062181011902"><ele>421.0</ele><time>2026-04-22T12:55:30.001Z</time></trkpt><trkpt lat="42.66972817112942" lon="12.641018049907998"><ele>421.0</ele><time>2026-04-22T12:55:31.001Z</time></trkpt><trkpt lat="42.669832509572224" lon="12.640974913139397"><ele>421.0</ele><time>2026-04-22T12:55:32.001Z</time></trkpt><trkpt lat="42.66990891157521" lon="12.64093451269585"><ele>421.0</ele><time>2026-04-22T12:55:33.001Z</time></trkpt><trkpt lat="42.66997411053573" lon="12.640910384300458"><ele>421.0</ele><time>2026-04-22T12:55:34.001Z</time></trkpt><trkpt lat="42.67007088700555" lon="12.640915739182356"><ele>421.0</ele><time>2026-04-22T12:55:36.001Z</time></trkpt><trkpt lat="42.670168014990466" lon="12.64092390999608"><ele>421.00000000000006</ele><time>2026-04-22T12:55:38.001Z</time></trkpt><trkpt lat="42.670246005954496" lon="12.640942860625273"><ele>421.0</ele><time>2026-04-22T12:55:39.001Z</time></trkpt><trkpt lat="42.67031675290164" lon="12.641030338833493"><ele>421.0</ele><time>2026-04-22T12:55:41.001Z</time></trkpt><trkpt lat="42.670238415020165" lon="12.641116411185855"><ele>421.0</ele><time>2026-04-22T12:55:43.001Z</time></trkpt><trkpt lat="42.67014141064299" lon="12.641103227713936"><ele>421.00000000000006</ele><time>2026-04-22T12:55:45.001Z</time></trkpt><trkpt lat="42.67006552110403" lon="12.641111333345737"><ele>421.0</ele><time>2026-04-22T12:55:46.001Z</time></trkpt><trkpt lat="42.669990685648436" lon="12.641124370147951"><ele>423.8</ele><time>2026-04-22T12:55:47.001Z</time></trkpt><trkpt lat="42.66991668550973" lon="12.641197966223178"><ele>426.6</ele><time>2026-04-22T12:55:48.001Z</time></trkpt><trkpt lat="42.669866984360425" lon="12.641306673247426"><ele>429.4</ele><time>2026-04-22T12:55:49.001Z</time></trkpt><trkpt lat="42.66982467763728" lon="12.641433574182612"><ele>432.2</ele><time>2026-04-22T12:55:50.001Z</time></trkpt><trkpt lat="42.669790673982476" lon="12.641585711859783"><ele>435.0</ele><time>2026-04-22T12:55:51.001Z</time></trkpt><trkpt lat="42.66974936782629" lon="12.641731315789446"><ele>435.0</ele><time>2026-04-22T12:55:52.001Z</time></trkpt><trkpt lat="42.669705579828864" lon="12.641870639757377"><ele>435.0</ele><time>2026-04-22T12:55:53.001Z</time></trkpt><trkpt lat="42.66965582418277" lon="12.642020464173228"><ele>435.0</ele><time>2026-04-22T12:55:54.001Z</time></trkpt><trkpt lat="42.66960985031172" lon="12.642150833910355"><ele>435.0</ele><time>2026-04-22T12:55:55.001Z</time></trkpt><trkpt lat="42.66956960335572" lon="12.642260630646383"><ele>435.0</ele><time>2026-04-22T12:55:56.001Z</time></trkpt><trkpt lat="42.669543971334754" lon="12.642357585467161"><ele>437.1666666666667</ele><time>2026-04-22T12:55:57.001Z</time></trkpt><trkpt lat="42.66947750588632" lon="12.642389051860306"><ele>439.33333333333337</ele><time>2026-04-22T12:55:58.001Z</time></trkpt><trkpt lat="42.669402612867415" lon="12.642401302228816"><ele>441.5</ele><time>2026-04-22T12:55:59.001Z</time></trkpt><trkpt lat="42.669324083348855" lon="12.642390956352807"><ele>443.6666666666667</ele><time>2026-04-22T12:56:00.001Z</time></trkpt><trkpt lat="42.66922566634768" lon="12.642381616844455"><ele>445.83333333333337</ele><time>2026-04-22T12:56:01.001Z</time></trkpt><trkpt lat="42.66912485103928" lon="12.642388889519536"><ele>448.0</ele><time>2026-04-22T12:56:02.002Z</time></trkpt><trkpt lat="42.669046177188015" lon="12.642356423194332"><ele>448.00000000000006</ele><time>2026-04-22T12:56:03.002Z</time></trkpt><trkpt lat="42.66897987269603" lon="12.642362965773465"><ele>448.0</ele><time>2026-04-22T12:56:04.002Z</time></trkpt><trkpt lat="42.668912531494314" lon="12.642462471677161"><ele>448.0</ele><time>2026-04-22T12:56:06.002Z</time></trkpt><trkpt lat="42.668949974810666" lon="12.642536548044314"><ele>448.0</ele><time>2026-04-22T12:56:07.002Z</time></trkpt><trkpt lat="42.669056719367475" lon="12.642561700677446"><ele>448.00000000000006</ele><time>2026-04-22T12:56:09.002Z</time></trkpt><trkpt lat="42.66912352656667" lon="12.642564766048098"><ele>448.0</ele><time>2026-04-22T12:56:10.002Z</time></trkpt><trkpt lat="42.66918981432413" lon="12.642566298669296"><ele>448.00000000000006</ele><time>2026-04-22T12:56:11.002Z</time></trkpt><trkpt lat="42.669255364318715" lon="12.64257937851071"><ele>448.0</ele><time>2026-04-22T12:56:12.002Z</time></trkpt><trkpt lat="42.669336255559266" lon="12.642599022751218"><ele>448.0</ele><time>2026-04-22T12:56:13.002Z</time></trkpt><trkpt lat="42.669421401878076" lon="12.642625360710696"><ele>448.0</ele><time>2026-04-22T12:56:14.002Z</time></trkpt><trkpt lat="42.66950149767088" lon="12.642659456414963"><ele>448.00000000000006</ele><time>2026-04-22T12:56:15.002Z</time></trkpt><trkpt lat="42.66958270034747" lon="12.642699347491472"><ele>448.0</ele><time>2026-04-22T12:56:16.002Z</time></trkpt><trkpt lat="42.66967249568615" lon="12.642754707324482"><ele>453.0</ele><time>2026-04-22T12:56:17.002Z</time></trkpt><trkpt lat="42.669750216432924" lon="12.642812454521495"><ele>457.99999999999994</ele><time>2026-04-22T12:56:18.002Z</time></trkpt><trkpt lat="42.66984802659395" lon="12.642841630726297"><ele>462.99999999999994</ele><time>2026-04-22T12:56:19.002Z</time></trkpt><trkpt lat="42.669953503435224" lon="12.642878736809095"><ele>468.0</ele><time>2026-04-22T12:56:20.002Z</time></trkpt><trkpt lat="42.67004918600183" lon="12.64289303571972"><ele>473.0</ele><time>2026-04-22T12:56:21.001Z</time></trkpt><trkpt lat="42.670159200998306" lon="12.642886771399686"><ele>473.0</ele><time>2026-04-22T12:56:22Z</time></trkpt><trkpt lat="42.67026410156502" lon="12.64290831914491"><ele>472.99999999999994</ele><time>2026-04-22T12:56:23Z</time></trkpt><trkpt lat="42.670363243135796" lon="12.64290401798791"><ele>472.99999999999994</ele><time>2026-04-22T12:56:24Z</time></trkpt><trkpt lat="42.67045595635061" lon="12.642879654109153"><ele>473.0</ele><time>2026-04-22T12:56:25Z</time></trkpt><trkpt lat="42.67052840278982" lon="12.642897477514305"><ele>473.0</ele><time>2026-04-22T12:56:26Z</time></trkpt><trkpt lat="42.67061552205258" lon="12.64294148869322"><ele>473.0</ele><time>2026-04-22T12:56:28Z</time></trkpt><trkpt lat="42.67061146851957" lon="12.643068568367541"><ele>472.99999999999994</ele><time>2026-04-22T12:56:30Z</time></trkpt><trkpt lat="42.67051883681941" lon="12.643083941571692"><ele>472.99999999999994</ele><time>2026-04-22T12:56:32Z</time></trkpt><trkpt lat="42.67037689072766" lon="12.64309921455782"><ele>473.0</ele><time>2026-04-22T12:56:34Z</time></trkpt><trkpt lat="42.67029985171175" lon="12.643092021909498"><ele>473.0</ele><time>2026-04-22T12:56:35Z</time></trkpt><trkpt lat="42.67022424996314" lon="12.643146049952797"><ele>472.99999999999994</ele><time>2026-04-22T12:56:37Z</time></trkpt><trkpt lat="42.670238711582996" lon="12.643275349249317"><ele>473.0</ele><time>2026-04-22T12:56:39Z</time></trkpt><trkpt lat="42.67028222600164" lon="12.643339258522461"><ele>473.0</ele><time>2026-04-22T12:56:40Z</time></trkpt><trkpt lat="42.67034166784302" lon="12.643367475012678"><ele>473.0</ele><time>2026-04-22T12:56:41Z</time></trkpt><trkpt lat="42.67042462871156" lon="12.643318172411814"><ele>472.99999999999994</ele><time>2026-04-22T12:56:42Z</time></trkpt><trkpt lat="42.67050395264695" lon="12.643279752256632"><ele>473.0</ele><time>2026-04-22T12:56:43Z</time></trkpt><trkpt lat="42.67059351819634" lon="12.643251034386456"><ele>473.2</ele><time>2026-04-22T12:56:44Z</time></trkpt><trkpt lat="42.67068941399718" lon="12.643249705379858"><ele>473.4</ele><time>2026-04-22T12:56:45Z</time></trkpt><trkpt lat="42.67079701818832" lon="12.643228164200588"><ele>473.59999999999997</ele><time>2026-04-22T12:56:46Z</time></trkpt><trkpt lat="42.67090461529095" lon="12.643200278834465"><ele>473.79999999999995</ele><time>2026-04-22T12:56:47Z</time></trkpt><trkpt lat="42.671008267124506" lon="12.643167723357205"><ele>474.0</ele><time>2026-04-22T12:56:48Z</time></trkpt><trkpt lat="42.671121707335786" lon="12.643132093648658"><ele>475.6</ele><time>2026-04-22T12:56:49Z</time></trkpt><trkpt lat="42.67123172979428" lon="12.643097525122124"><ele>477.2</ele><time>2026-04-22T12:56:50Z</time></trkpt><trkpt lat="42.67134093797131" lon="12.64306316683848"><ele>478.80000000000007</ele><time>2026-04-22T12:56:51Z</time></trkpt><trkpt lat="42.67143076781183" lon="12.643037180436888"><ele>480.40000000000003</ele><time>2026-04-22T12:56:52Z</time></trkpt><trkpt lat="42.67150128007431" lon="12.643029390382562"><ele>482.0</ele><time>2026-04-22T12:56:53Z</time></trkpt><trkpt lat="42.67161467955626" lon="12.643045903965549"><ele>481.99999999999994</ele><time>2026-04-22T12:56:54.999Z</time></trkpt><trkpt lat="42.671674277474274" lon="12.643107616869873"><ele>482.0</ele><time>2026-04-22T12:56:55.999Z</time></trkpt><trkpt lat="42.67173158641924" lon="12.643160409088237"><ele>482.0</ele><time>2026-04-22T12:56:56.999Z</time></trkpt><trkpt lat="42.67179529336615" lon="12.643217915601642"><ele>482.0</ele><time>2026-04-22T12:56:57.999Z</time></trkpt><trkpt lat="42.67185638521776" lon="12.643301494207451"><ele>481.99999999999994</ele><time>2026-04-22T12:56:58.999Z</time></trkpt><trkpt lat="42.671901382759735" lon="12.643415737014125"><ele>482.0</ele><time>2026-04-22T12:56:59.999Z</time></trkpt><trkpt lat="42.67194761784414" lon="12.643512265574657"><ele>483.8</ele><time>2026-04-22T12:57:00.999Z</time></trkpt><trkpt lat="42.67199420098317" lon="12.643606173005844"><ele>485.6</ele><time>2026-04-22T12:57:01.999Z</time></trkpt><trkpt lat="42.67204178844574" lon="12.643700895195042"><ele>487.40000000000003</ele><time>2026-04-22T12:57:02.999Z</time></trkpt><trkpt lat="42.67209552830574" lon="12.643802257966023"><ele>489.20000000000005</ele><time>2026-04-22T12:57:03.999Z</time></trkpt><trkpt lat="42.67213496802335" lon="12.643929393103537"><ele>491.0</ele><time>2026-04-22T12:57:04.999Z</time></trkpt><trkpt lat="42.672186091791374" lon="12.644032418623237"><ele>491.0</ele><time>2026-04-22T12:57:05.999Z</time></trkpt><trkpt lat="42.67226870122737" lon="12.644076129831198"><ele>491.0</ele><time>2026-04-22T12:57:06.999Z</time></trkpt><trkpt lat="42.67234509543759" lon="12.644107095423022"><ele>491.0</ele><time>2026-04-22T12:57:07.999Z</time></trkpt><trkpt lat="42.672438590017556" lon="12.644136013790197"><ele>491.0</ele><time>2026-04-22T12:57:08.999Z</time></trkpt><trkpt lat="42.67253867160414" lon="12.644153617414787"><ele>491.0</ele><time>2026-04-22T12:57:09.999Z</time></trkpt><trkpt lat="42.67265104815707" lon="12.644170343413544"><ele>490.99999999999994</ele><time>2026-04-22T12:57:10.999Z</time></trkpt><trkpt lat="42.67275497822018" lon="12.64412611384058"><ele>491.0</ele><time>2026-04-22T12:57:11.999Z</time></trkpt><trkpt lat="42.6728249903013" lon="12.644098551455725"><ele>491.0</ele><time>2026-04-22T12:57:12.999Z</time></trkpt><trkpt lat="42.67291288906368" lon="12.644096713536962"><ele>491.0</ele><time>2026-04-22T12:57:13.999Z</time></trkpt><trkpt lat="42.672986214755745" lon="12.644136177929857"><ele>490.99999999999994</ele><time>2026-04-22T12:57:14.999Z</time></trkpt><trkpt lat="42.67304530648326" lon="12.64422568301367"><ele>491.0</ele><time>2026-04-22T12:57:15.999Z</time></trkpt><trkpt lat="42.67312592649395" lon="12.644308442481858"><ele>490.0</ele><time>2026-04-22T12:57:16.999Z</time></trkpt><trkpt lat="42.6732311661635" lon="12.644381911499414"><ele>489.0</ele><time>2026-04-22T12:57:17.999Z</time></trkpt><trkpt lat="42.673329481055966" lon="12.644474086999699"><ele>488.0</ele><time>2026-04-22T12:57:18.999Z</time></trkpt><trkpt lat="42.673431574632104" lon="12.644569082406337"><ele>487.0</ele><time>2026-04-22T12:57:19.999Z</time></trkpt><trkpt lat="42.673539768306135" lon="12.644648931163816"><ele>492.25</ele><time>2026-04-22T12:57:20.999Z</time></trkpt><trkpt lat="42.67365464974533" lon="12.644721471313611"><ele>497.5</ele><time>2026-04-22T12:57:21.999Z</time></trkpt><trkpt lat="42.673781882087354" lon="12.644790712931641"><ele>502.75</ele><time>2026-04-22T12:57:22.999Z</time></trkpt><trkpt lat="42.67390510067499" lon="12.644836398568795"><ele>508.0</ele><time>2026-04-22T12:57:23.999Z</time></trkpt><trkpt lat="42.674026947469535" lon="12.644887738363524"><ele>508.0</ele><time>2026-04-22T12:57:24.999Z</time></trkpt><trkpt lat="42.67414279386595" lon="12.644930630509602"><ele>508.0</ele><time>2026-04-22T12:57:25.999Z</time></trkpt><trkpt lat="42.67426131716341" lon="12.644971688481753"><ele>508.0</ele><time>2026-04-22T12:57:26.999Z</time></trkpt><trkpt lat="42.67437753429881" lon="12.645012152508723"><ele>508.0</ele><time>2026-04-22T12:57:27.999Z</time></trkpt><trkpt lat="42.67451087908518" lon="12.645057345448722"><ele>508.0</ele><time>2026-04-22T12:57:28.999Z</time></trkpt><trkpt lat="42.674613195437914" lon="12.645053782792571"><ele>508.0</ele><time>2026-04-22T12:57:29.999Z</time></trkpt><trkpt lat="42.67473709852009" lon="12.64505559874076"><ele>508.0</ele><time>2026-04-22T12:57:30.999Z</time></trkpt><trkpt lat="42.67486056646192" lon="12.645045869091224"><ele>508.0</ele><time>2026-04-22T12:57:31.999Z</time></trkpt><trkpt lat="42.674976772093856" lon="12.645063854721883"><ele>508.0</ele><time>2026-04-22T12:57:32.999Z</time></trkpt><trkpt lat="42.675094163375796" lon="12.645067282666657"><ele>507.99999999999994</ele><time>2026-04-22T12:57:33.999Z</time></trkpt><trkpt lat="42.67520032933589" lon="12.645079446834236"><ele>507.99999999999994</ele><time>2026-04-22T12:57:34.999Z</time></trkpt><trkpt lat="42.67529310017404" lon="12.645103092737266"><ele>508.0</ele><time>2026-04-22T12:57:35.999Z</time></trkpt><trkpt lat="42.67539943845059" lon="12.645142690136089"><ele>508.0</ele><time>2026-04-22T12:57:36.999Z</time></trkpt><trkpt lat="42.67550496531943" lon="12.64518676067815"><ele>507.75</ele><time>2026-04-22T12:57:37.999Z</time></trkpt><trkpt lat="42.67562043499614" lon="12.645237738198803"><ele>507.5</ele><time>2026-04-22T12:57:38.999Z</time></trkpt><trkpt lat="42.67573660402855" lon="12.645273813680186"><ele>507.25</ele><time>2026-04-22T12:57:39.999Z</time></trkpt><trkpt lat="42.67586387714973" lon="12.645334676870165"><ele>507.0</ele><time>2026-04-22T12:57:40.999Z</time></trkpt><trkpt lat="42.6759856390279" lon="12.645393342788196"><ele>513.0</ele><time>2026-04-22T12:57:41.999Z</time></trkpt><trkpt lat="42.67611170694593" lon="12.645451139929785"><ele>519.0</ele><time>2026-04-22T12:57:42.999Z</time></trkpt><trkpt lat="42.67622962614962" lon="12.64550842790106"><ele>525.0</ele><time>2026-04-22T12:57:43.999Z</time></trkpt><trkpt lat="42.67635809970945" lon="12.645560832265755"><ele>531.0</ele><time>2026-04-22T12:57:44.999Z</time></trkpt><trkpt lat="42.67648338231407" lon="12.645624838901966"><ele>531.0</ele><time>2026-04-22T12:57:45.999Z</time></trkpt><trkpt lat="42.67661205996569" lon="12.645685874843508"><ele>531.0</ele><time>2026-04-22T12:57:46.999Z</time></trkpt><trkpt lat="42.67674729809234" lon="12.645745917347066"><ele>531.0</ele><time>2026-04-22T12:57:47.999Z</time></trkpt><trkpt lat="42.67688512464649" lon="12.645792741720829"><ele>531.0</ele><time>2026-04-22T12:57:48.999Z</time></trkpt><trkpt lat="42.67701924145193" lon="12.645849255146013"><ele>530.25</ele><time>2026-04-22T12:57:49.999Z</time></trkpt><trkpt lat="42.67714950657863" lon="12.645900051976094"><ele>529.5</ele><time>2026-04-22T12:57:50.999Z</time></trkpt><trkpt lat="42.6772815070277" lon="12.645952863500215"><ele>528.75</ele><time>2026-04-22T12:57:51.999Z</time></trkpt><trkpt lat="42.67740374774259" lon="12.646004757745468"><ele>528.0</ele><time>2026-04-22T12:57:52.999Z</time></trkpt><trkpt lat="42.67750995280395" lon="12.646051562958945"><ele>528.0</ele><time>2026-04-22T12:57:53.999Z</time></trkpt><trkpt lat="42.67760900051531" lon="12.64610954034605"><ele>528.0</ele><time>2026-04-22T12:57:54.999Z</time></trkpt><trkpt lat="42.677711801916224" lon="12.64613954780724"><ele>528.0</ele><time>2026-04-22T12:57:55.999Z</time></trkpt><trkpt lat="42.67782391579378" lon="12.646183992261726"><ele>528.0</ele><time>2026-04-22T12:57:56.999Z</time></trkpt><trkpt lat="42.67795225468476" lon="12.646217303628582"><ele>533.25</ele><time>2026-04-22T12:57:57.999Z</time></trkpt><trkpt lat="42.6780954232979" lon="12.646233836231765"><ele>538.5</ele><time>2026-04-22T12:57:59Z</time></trkpt><trkpt lat="42.67824596815898" lon="12.646233413049869"><ele>543.75</ele><time>2026-04-22T12:58:00Z</time></trkpt><trkpt lat="42.67838882897342" lon="12.646232631736686"><ele>549.0</ele><time>2026-04-22T12:58:01Z</time></trkpt><trkpt lat="42.67850834612525" lon="12.646239891310914"><ele>549.6</ele><time>2026-04-22T12:58:02Z</time></trkpt><trkpt lat="42.67861403649567" lon="12.646239331985853"><ele>550.2</ele><time>2026-04-22T12:58:03Z</time></trkpt><trkpt lat="42.67870053054706" lon="12.646223213124085"><ele>550.8000000000001</ele><time>2026-04-22T12:58:04Z</time></trkpt><trkpt lat="42.67878172506371" lon="12.646179340939266"><ele>551.4</ele><time>2026-04-22T12:58:05Z</time></trkpt><trkpt lat="42.67885191079701" lon="12.646077784539816"><ele>552.0</ele><time>2026-04-22T12:58:06Z</time></trkpt><trkpt lat="42.67892226976445" lon="12.645931337605523"><ele>549.8000000000001</ele><time>2026-04-22T12:58:07Z</time></trkpt><trkpt lat="42.67897715339656" lon="12.645753401498645"><ele>547.6</ele><time>2026-04-22T12:58:08Z</time></trkpt><trkpt lat="42.67901838207339" lon="12.645601362116333"><ele>545.4000000000001</ele><time>2026-04-22T12:58:09Z</time></trkpt><trkpt lat="42.679048463090915" lon="12.645473266622508"><ele>543.2</ele><time>2026-04-22T12:58:10Z</time></trkpt><trkpt lat="42.67908759711723" lon="12.645395542198584"><ele>541.0</ele><time>2026-04-22T12:58:11Z</time></trkpt><trkpt lat="42.679145900867695" lon="12.645330649140668"><ele>541.0</ele><time>2026-04-22T12:58:12Z</time></trkpt><trkpt lat="42.67920978183998" lon="12.645328763650317"><ele>541.0</ele><time>2026-04-22T12:58:13Z</time></trkpt><trkpt lat="42.67936631765673" lon="12.645307246273433"><ele>541.0</ele><time>2026-04-22T12:58:15Z</time></trkpt><trkpt lat="42.67947687685223" lon="12.645268607293104"><ele>541.0</ele><time>2026-04-22T12:58:16Z</time></trkpt><trkpt lat="42.67959236698258" lon="12.645248092686762"><ele>539.8</ele><time>2026-04-22T12:58:17Z</time></trkpt><trkpt lat="42.679714058821034" lon="12.645251880927939"><ele>538.6</ele><time>2026-04-22T12:58:18Z</time></trkpt><trkpt lat="42.67982438882588" lon="12.645256678013974"><ele>537.4</ele><time>2026-04-22T12:58:19Z</time></trkpt><trkpt lat="42.679933136073004" lon="12.645254298843813"><ele>536.2</ele><time>2026-04-22T12:58:20Z</time></trkpt><trkpt lat="42.68003285726467" lon="12.645279409966397"><ele>535.0</ele><time>2026-04-22T12:58:21Z</time></trkpt><trkpt lat="42.6801429494553" lon="12.645316123323182"><ele>538.6</ele><time>2026-04-22T12:58:22Z</time></trkpt><trkpt lat="42.680261166272864" lon="12.645347012123878"><ele>542.2</ele><time>2026-04-22T12:58:23Z</time></trkpt><trkpt lat="42.680375280980755" lon="12.645358193169224"><ele>545.8</ele><time>2026-04-22T12:58:24Z</time></trkpt><trkpt lat="42.680474543469586" lon="12.645356200823148"><ele>549.4</ele><time>2026-04-22T12:58:25Z</time></trkpt><trkpt lat="42.680552430045466" lon="12.645352842578491"><ele>553.0</ele><time>2026-04-22T12:58:26Z</time></trkpt><trkpt lat="42.68066384949125" lon="12.645357527944556"><ele>553.0</ele><time>2026-04-22T12:58:27.999Z</time></trkpt><trkpt lat="42.68071673688075" lon="12.64543974733845"><ele>553.0</ele><time>2026-04-22T12:58:28.999Z</time></trkpt><trkpt lat="42.68077389525693" lon="12.645504337903366"><ele>553.0</ele><time>2026-04-22T12:58:29.999Z</time></trkpt><trkpt lat="42.680839994481794" lon="12.645586771259133"><ele>553.0</ele><time>2026-04-22T12:58:31Z</time></trkpt><trkpt lat="42.680909044593896" lon="12.645680893947342"><ele>553.0</ele><time>2026-04-22T12:58:32Z</time></trkpt><trkpt lat="42.680974578372194" lon="12.645788979360878"><ele>553.0</ele><time>2026-04-22T12:58:33Z</time></trkpt><trkpt lat="42.681026389849265" lon="12.645919097330188"><ele>553.0</ele><time>2026-04-22T12:58:34Z</time></trkpt><trkpt lat="42.68107428198025" lon="12.646042561539609"><ele>553.0</ele><time>2026-04-22T12:58:35Z</time></trkpt><trkpt lat="42.681141992654524" lon="12.64617034903006"><ele>553.0</ele><time>2026-04-22T12:58:36Z</time></trkpt><trkpt lat="42.681255451155174" lon="12.64624551367814"><ele>553.0</ele><time>2026-04-22T12:58:37Z</time></trkpt><trkpt lat="42.68136172275273" lon="12.646313406681259"><ele>552.1999999999999</ele><time>2026-04-22T12:58:38Z</time></trkpt><trkpt lat="42.68147850903986" lon="12.646372677225438"><ele>551.4</ele><time>2026-04-22T12:58:39Z</time></trkpt><trkpt lat="42.68157398993617" lon="12.646450943008311"><ele>550.5999999999999</ele><time>2026-04-22T12:58:40Z</time></trkpt><trkpt lat="42.68161918925719" lon="12.646551120982776"><ele>549.8</ele><time>2026-04-22T12:58:41Z</time></trkpt><trkpt lat="42.68166829375619" lon="12.64668703356028"><ele>549.0</ele><time>2026-04-22T12:58:43Z</time></trkpt><trkpt lat="42.68164726387873" lon="12.646775843592117"><ele>549.0</ele><time>2026-04-22T12:58:44Z</time></trkpt><trkpt lat="42.681582324949495" lon="12.64686042324571"><ele>549.0</ele><time>2026-04-22T12:58:45Z</time></trkpt><trkpt lat="42.681528509397694" lon="12.64698543101419"><ele>549.0</ele><time>2026-04-22T12:58:46Z</time></trkpt><trkpt lat="42.68147647000097" lon="12.64711010675748"><ele>549.0</ele><time>2026-04-22T12:58:47Z</time></trkpt><trkpt lat="42.681414734559944" lon="12.647233081334212"><ele>549.0</ele><time>2026-04-22T12:58:48Z</time></trkpt><trkpt lat="42.681351596718166" lon="12.647333815568294"><ele>548.0</ele><time>2026-04-22T12:58:49Z</time></trkpt><trkpt lat="42.68128318246738" lon="12.64740167321241"><ele>547.0</ele><time>2026-04-22T12:58:50Z</time></trkpt><trkpt lat="42.681182321958794" lon="12.647482162676337"><ele>546.0</ele><time>2026-04-22T12:58:51Z</time></trkpt><trkpt lat="42.68109388246669" lon="12.647571922366394"><ele>545.0</ele><time>2026-04-22T12:58:52Z</time></trkpt><trkpt lat="42.68099405281704" lon="12.647649004477534"><ele>544.0</ele><time>2026-04-22T12:58:53Z</time></trkpt><trkpt lat="42.68088950449239" lon="12.647724275239712"><ele>546.5</ele><time>2026-04-22T12:58:54Z</time></trkpt><trkpt lat="42.680771027007594" lon="12.64778718208492"><ele>549.0</ele><time>2026-04-22T12:58:55Z</time></trkpt><trkpt lat="42.68063120700507" lon="12.647824766471942"><ele>551.5</ele><time>2026-04-22T12:58:56Z</time></trkpt><trkpt lat="42.68050039778819" lon="12.64789174825566"><ele>554.0</ele><time>2026-04-22T12:58:57Z</time></trkpt><trkpt lat="42.68035180254177" lon="12.647905497476216"><ele>556.5</ele><time>2026-04-22T12:58:58Z</time></trkpt><trkpt lat="42.680210755373736" lon="12.64792920002615"><ele>559.0</ele><time>2026-04-22T12:58:59Z</time></trkpt><trkpt lat="42.68006166880829" lon="12.647949966552538"><ele>561.5</ele><time>2026-04-22T12:59:00Z</time></trkpt><trkpt lat="42.679915452341994" lon="12.647970953200776"><ele>564.0</ele><time>2026-04-22T12:59:01Z</time></trkpt><trkpt lat="42.67980731244505" lon="12.647992405068678"><ele>564.0</ele><time>2026-04-22T12:59:02Z</time></trkpt><trkpt lat="42.67969863486718" lon="12.648047384419584"><ele>564.0</ele><time>2026-04-22T12:59:03Z</time></trkpt><trkpt lat="42.6796079097409" lon="12.648125458836692"><ele>564.0</ele><time>2026-04-22T12:59:04Z</time></trkpt><trkpt lat="42.67952347172478" lon="12.648230738692616"><ele>564.0</ele><time>2026-04-22T12:59:05Z</time></trkpt><trkpt lat="42.67943048575609" lon="12.648341546511306"><ele>564.5</ele><time>2026-04-22T12:59:06Z</time></trkpt><trkpt lat="42.67932035121881" lon="12.64843282230467"><ele>565.0</ele><time>2026-04-22T12:59:07Z</time></trkpt><trkpt lat="42.67920479113462" lon="12.64854625803318"><ele>565.5</ele><time>2026-04-22T12:59:08Z</time></trkpt><trkpt lat="42.67911962813557" lon="12.648645278198465"><ele>566.0</ele><time>2026-04-22T12:59:09Z</time></trkpt><trkpt lat="42.67903752839683" lon="12.648752488179891"><ele>566.0</ele><time>2026-04-22T12:59:10Z</time></trkpt><trkpt lat="42.67897247267819" lon="12.6488875404231"><ele>566.0</ele><time>2026-04-22T12:59:11Z</time></trkpt><trkpt lat="42.678883730495585" lon="12.648972020113524"><ele>566.0</ele><time>2026-04-22T12:59:12Z</time></trkpt><trkpt lat="42.67881813390936" lon="12.649039973814157"><ele>566.0</ele><time>2026-04-22T12:59:13Z</time></trkpt><trkpt lat="42.67873925789162" lon="12.64908592904681"><ele>566.0</ele><time>2026-04-22T12:59:14Z</time></trkpt><trkpt lat="42.67864651780665" lon="12.64910790091138"><ele>568.4</ele><time>2026-04-22T12:59:15Z</time></trkpt><trkpt lat="42.67853138831357" lon="12.649137264235264"><ele>570.8</ele><time>2026-04-22T12:59:16Z</time></trkpt><trkpt lat="42.678436087500764" lon="12.649187415140446"><ele>573.1999999999999</ele><time>2026-04-22T12:59:17Z</time></trkpt><trkpt lat="42.67834504037391" lon="12.649282083075503"><ele>575.6</ele><time>2026-04-22T12:59:18Z</time></trkpt><trkpt lat="42.67830414116828" lon="12.6494238634591"><ele>578.0</ele><time>2026-04-22T12:59:19Z</time></trkpt><trkpt lat="42.6782404649188" lon="12.64955249218221"><ele>578.0</ele><time>2026-04-22T12:59:20Z</time></trkpt><trkpt lat="42.67818792346055" lon="12.649708528089949"><ele>578.0</ele><time>2026-04-22T12:59:21Z</time></trkpt><trkpt lat="42.678137447152125" lon="12.649862698442059"><ele>578.0</ele><time>2026-04-22T12:59:22Z</time></trkpt><trkpt lat="42.67808788372633" lon="12.64999678980578"><ele>578.0</ele><time>2026-04-22T12:59:23Z</time></trkpt><trkpt lat="42.67801872085256" lon="12.650070256433281"><ele>578.0</ele><time>2026-04-22T12:59:24Z</time></trkpt><trkpt lat="42.67791599841573" lon="12.650084970786176"><ele>578.0</ele><time>2026-04-22T12:59:25Z</time></trkpt><trkpt lat="42.677806322070545" lon="12.650143008363912"><ele>578.0</ele><time>2026-04-22T12:59:26Z</time></trkpt><trkpt lat="42.677691277545435" lon="12.650214832671397"><ele>578.0</ele><time>2026-04-22T12:59:27Z</time></trkpt><trkpt lat="42.67756589615467" lon="12.650270335049738"><ele>578.0</ele><time>2026-04-22T12:59:28Z</time></trkpt><trkpt lat="42.67743729188242" lon="12.650319964563515"><ele>586.25</ele><time>2026-04-22T12:59:29Z</time></trkpt><trkpt lat="42.67729984149447" lon="12.650338475375907"><ele>594.5</ele><time>2026-04-22T12:59:30Z</time></trkpt><trkpt lat="42.677168506153656" lon="12.650388851712657"><ele>602.75</ele><time>2026-04-22T12:59:31Z</time></trkpt><trkpt lat="42.67706181763675" lon="12.650456901046445"><ele>611.0</ele><time>2026-04-22T12:59:32Z</time></trkpt><trkpt lat="42.6769731250256" lon="12.65052067059104"><ele>611.0</ele><time>2026-04-22T12:59:33Z</time></trkpt><trkpt lat="42.67690096907421" lon="12.650570895736347"><ele>611.0</ele><time>2026-04-22T12:59:34Z</time></trkpt><trkpt lat="42.67682794465883" lon="12.650618619716195"><ele>611.0</ele><time>2026-04-22T12:59:35Z</time></trkpt><trkpt lat="42.67674601137056" lon="12.650661071933243"><ele>611.0</ele><time>2026-04-22T12:59:36Z</time></trkpt><trkpt lat="42.67667799779835" lon="12.650666976266336"><ele>611.0</ele><time>2026-04-22T12:59:37Z</time></trkpt><trkpt lat="42.676591083953696" lon="12.65066367451904"><ele>611.0</ele><time>2026-04-22T12:59:38Z</time></trkpt><trkpt lat="42.67647641035069" lon="12.650657131026374"><ele>611.0</ele><time>2026-04-22T12:59:39Z</time></trkpt><trkpt lat="42.676351187820124" lon="12.650679004366316"><ele>611.0</ele><time>2026-04-22T12:59:40Z</time></trkpt><trkpt lat="42.67625919481234" lon="12.650746897736866"><ele>611.0</ele><time>2026-04-22T12:59:41Z</time></trkpt><trkpt lat="42.67617067591827" lon="12.650847370838177"><ele>611.0</ele><time>2026-04-22T12:59:42Z</time></trkpt><trkpt lat="42.676067804836876" lon="12.65093644046637"><ele>611.8</ele><time>2026-04-22T12:59:43Z</time></trkpt><trkpt lat="42.67596962409275" lon="12.65101198270657"><ele>612.6</ele><time>2026-04-22T12:59:44Z</time></trkpt><trkpt lat="42.675863538086496" lon="12.651048445993274"><ele>613.4</ele><time>2026-04-22T12:59:45Z</time></trkpt><trkpt lat="42.67577583876772" lon="12.650981483967197"><ele>614.2</ele><time>2026-04-22T12:59:46Z</time></trkpt><trkpt lat="42.67572038405134" lon="12.65091739807743"><ele>615.0</ele><time>2026-04-22T12:59:47Z</time></trkpt><trkpt lat="42.67565649760642" lon="12.650855645193333"><ele>615.0</ele><time>2026-04-22T12:59:48Z</time></trkpt><trkpt lat="42.67558649714747" lon="12.650760186243323"><ele>615.0</ele><time>2026-04-22T12:59:49Z</time></trkpt><trkpt lat="42.67549316417934" lon="12.650648463690237"><ele>615.0</ele><time>2026-04-22T12:59:50Z</time></trkpt><trkpt lat="42.67538855295306" lon="12.65055469094206"><ele>615.0</ele><time>2026-04-22T12:59:51Z</time></trkpt><trkpt lat="42.675277564883125" lon="12.650479757414267"><ele>619.5</ele><time>2026-04-22T12:59:52Z</time></trkpt><trkpt lat="42.675153136872446" lon="12.650435668611374"><ele>624.0</ele><time>2026-04-22T12:59:53Z</time></trkpt><trkpt lat="42.67501696273516" lon="12.650401479433379"><ele>628.5</ele><time>2026-04-22T12:59:54Z</time></trkpt><trkpt lat="42.674882706585194" lon="12.650375611477637"><ele>633.0</ele><time>2026-04-22T12:59:55Z</time></trkpt><trkpt lat="42.67475657110328" lon="12.650364812819586"><ele>633.0</ele><time>2026-04-22T12:59:56Z</time></trkpt><trkpt lat="42.67466903762032" lon="12.650379913538993"><ele>633.0</ele><time>2026-04-22T12:59:57Z</time></trkpt><trkpt lat="42.674556508362656" lon="12.650406080607073"><ele>633.0</ele><time>2026-04-22T12:59:58Z</time></trkpt><trkpt lat="42.674482706892185" lon="12.650470928828103"><ele>633.0</ele><time>2026-04-22T12:59:59Z</time></trkpt><trkpt lat="42.674416128158555" lon="12.650575283985576"><ele>633.0</ele><time>2026-04-22T13:00:00Z</time></trkpt><trkpt lat="42.67438002753793" lon="12.650693618273586"><ele>632.5</ele><time>2026-04-22T13:00:01Z</time></trkpt><trkpt lat="42.674326668232155" lon="12.650851153108297"><ele>632.0</ele><time>2026-04-22T13:00:02Z</time></trkpt><trkpt lat="42.67428082129533" lon="12.650965404380889"><ele>631.5</ele><time>2026-04-22T13:00:03Z</time></trkpt><trkpt lat="42.674197383435335" lon="12.651151569647642"><ele>631.0</ele><time>2026-04-22T13:00:04Z</time></trkpt><trkpt lat="42.674125576125775" lon="12.651268503387849"><ele>635.4</ele><time>2026-04-22T13:00:05Z</time></trkpt><trkpt lat="42.67404600569111" lon="12.651456646273159"><ele>639.8</ele><time>2026-04-22T13:00:06Z</time></trkpt><trkpt lat="42.67398684954753" lon="12.651586137173652"><ele>644.1999999999999</ele><time>2026-04-22T13:00:07Z</time></trkpt><trkpt lat="42.67391823591282" lon="12.651661316256229"><ele>648.6</ele><time>2026-04-22T13:00:08Z</time></trkpt><trkpt lat="42.67385020973821" lon="12.65171071075741"><ele>653.0</ele><time>2026-04-22T13:00:09Z</time></trkpt><trkpt lat="42.673779457262704" lon="12.65173000895972"><ele>653.0</ele><time>2026-04-22T13:00:10Z</time></trkpt><trkpt lat="42.67371610850636" lon="12.651700632969376"><ele>653.0</ele><time>2026-04-22T13:00:11Z</time></trkpt><trkpt lat="42.673676357448336" lon="12.651522135658237"><ele>653.0</ele><time>2026-04-22T13:00:13Z</time></trkpt><trkpt lat="42.67359765227542" lon="12.651410381595682"><ele>653.0</ele><time>2026-04-22T13:00:14Z</time></trkpt><trkpt lat="42.67350782922249" lon="12.651292933521399"><ele>653.0</ele><time>2026-04-22T13:00:15Z</time></trkpt><trkpt lat="42.67340876407505" lon="12.651195429116505"><ele>650.75</ele><time>2026-04-22T13:00:16Z</time></trkpt><trkpt lat="42.67330631763215" lon="12.651105351933804"><ele>648.5</ele><time>2026-04-22T13:00:17Z</time></trkpt><trkpt lat="42.67318025909153" lon="12.651042618905977"><ele>646.25</ele><time>2026-04-22T13:00:18Z</time></trkpt><trkpt lat="42.6730667711108" lon="12.650977153492779"><ele>644.0</ele><time>2026-04-22T13:00:19Z</time></trkpt><trkpt lat="42.672936581473635" lon="12.650946128935141"><ele>644.0</ele><time>2026-04-22T13:00:20Z</time></trkpt><trkpt lat="42.672803364012545" lon="12.65089332176721"><ele>644.0</ele><time>2026-04-22T13:00:21Z</time></trkpt><trkpt lat="42.67265137642614" lon="12.650864905103216"><ele>644.0</ele><time>2026-04-22T13:00:22Z</time></trkpt><trkpt lat="42.67250656113351" lon="12.650843454842258"><ele>644.0</ele><time>2026-04-22T13:00:23Z</time></trkpt><trkpt lat="42.672353517392786" lon="12.650836739288396"><ele>649.6666666666666</ele><time>2026-04-22T13:00:24Z</time></trkpt><trkpt lat="42.672194001612205" lon="12.650870265552479"><ele>655.3333333333334</ele><time>2026-04-22T13:00:25Z</time></trkpt><trkpt lat="42.67203125591466" lon="12.65086750213961"><ele>661.0</ele><time>2026-04-22T13:00:26Z</time></trkpt><trkpt lat="42.67187137241473" lon="12.650891942066409"><ele>662.6666666666667</ele><time>2026-04-22T13:00:27Z</time></trkpt><trkpt lat="42.67171229465458" lon="12.650919805287373"><ele>664.3333333333334</ele><time>2026-04-22T13:00:28Z</time></trkpt><trkpt lat="42.671553622795635" lon="12.6509539501081"><ele>666.0</ele><time>2026-04-22T13:00:29Z</time></trkpt><trkpt lat="42.67139750464004" lon="12.651005021656678"><ele>666.0</ele><time>2026-04-22T13:00:30Z</time></trkpt><trkpt lat="42.671249764465806" lon="12.651084872214252"><ele>666.0</ele><time>2026-04-22T13:00:31Z</time></trkpt><trkpt lat="42.67113644749065" lon="12.651142496013705"><ele>666.0</ele><time>2026-04-22T13:00:32Z</time></trkpt><trkpt lat="42.6709572375615" lon="12.651258844231359"><ele>675.3333333333334</ele><time>2026-04-22T13:00:33Z</time></trkpt><trkpt lat="42.670784512942376" lon="12.651370031391847"><ele>684.6666666666667</ele><time>2026-04-22T13:00:34Z</time></trkpt><trkpt lat="42.670591817329665" lon="12.651453679206687"><ele>694.0</ele><time>2026-04-22T13:00:35Z</time></trkpt><trkpt lat="42.67039645895848" lon="12.651554762391894"><ele>691.6666666666667</ele><time>2026-04-22T13:00:36Z</time></trkpt><trkpt lat="42.67021341361929" lon="12.65164573825486"><ele>689.3333333333334</ele><time>2026-04-22T13:00:37Z</time></trkpt><trkpt lat="42.67003350312734" lon="12.651718639260919"><ele>687.0</ele><time>2026-04-22T13:00:38Z</time></trkpt><trkpt lat="42.66986894568245" lon="12.651773879247441"><ele>687.0</ele><time>2026-04-22T13:00:39Z</time></trkpt><trkpt lat="42.66970505630764" lon="12.65182130229982"><ele>687.0</ele><time>2026-04-22T13:00:40Z</time></trkpt><trkpt lat="42.669531647566565" lon="12.651864074402646"><ele>687.0</ele><time>2026-04-22T13:00:41Z</time></trkpt><trkpt lat="42.66936283283236" lon="12.65190569585844"><ele>686.6666666666666</ele><time>2026-04-22T13:00:42Z</time></trkpt><trkpt lat="42.669166320701564" lon="12.651920650350256"><ele>686.3333333333333</ele><time>2026-04-22T13:00:43Z</time></trkpt><trkpt lat="42.668981383912495" lon="12.651942276891248"><ele>686.0</ele><time>2026-04-22T13:00:44Z</time></trkpt><trkpt lat="42.66881321406072" lon="12.65197829691092"><ele>691.0</ele><time>2026-04-22T13:00:45Z</time></trkpt><trkpt lat="42.66865970566818" lon="12.65204539926805"><ele>696.0</ele><time>2026-04-22T13:00:46Z</time></trkpt><trkpt lat="42.66851900826418" lon="12.652101691422688"><ele>701.0</ele><time>2026-04-22T13:00:47Z</time></trkpt><trkpt lat="42.668403263692966" lon="12.652169168201448"><ele>706.0</ele><time>2026-04-22T13:00:48Z</time></trkpt><trkpt lat="42.668313572055574" lon="12.652238420316964"><ele>706.0</ele><time>2026-04-22T13:00:49Z</time></trkpt><trkpt lat="42.66823916695425" lon="12.652316276504795"><ele>706.0</ele><time>2026-04-22T13:00:50Z</time></trkpt><trkpt lat="42.66814171733204" lon="12.652569113008381"><ele>706.0</ele><time>2026-04-22T13:00:52Z</time></trkpt><trkpt lat="42.66812452927156" lon="12.652733082676772"><ele>706.0</ele><time>2026-04-22T13:00:53Z</time></trkpt><trkpt lat="42.66813122910901" lon="12.652898462286158"><ele>708.0</ele><time>2026-04-22T13:00:54Z</time></trkpt><trkpt lat="42.66816442514322" lon="12.653073685770659"><ele>710.0</ele><time>2026-04-22T13:00:55Z</time></trkpt><trkpt lat="42.668220020260634" lon="12.653259706418886"><ele>712.0</ele><time>2026-04-22T13:00:56Z</time></trkpt><trkpt lat="42.66827460227137" lon="12.653454966911436"><ele>714.0</ele><time>2026-04-22T13:00:57Z</time></trkpt><trkpt lat="42.66830829205982" lon="12.653663721700436"><ele>714.6666666666666</ele><time>2026-04-22T13:00:58Z</time></trkpt><trkpt lat="42.66834615962558" lon="12.653862698077829"><ele>715.3333333333333</ele><time>2026-04-22T13:00:59Z</time></trkpt><trkpt lat="42.6683936673274" lon="12.654057309728431"><ele>716.0</ele><time>2026-04-22T13:01:00Z</time></trkpt><trkpt lat="42.66842539954828" lon="12.654255222614388"><ele>716.0</ele><time>2026-04-22T13:01:01Z</time></trkpt><trkpt lat="42.66846942193246" lon="12.654452282910706"><ele>716.0</ele><time>2026-04-22T13:01:02Z</time></trkpt><trkpt lat="42.668496079721514" lon="12.654658721126847"><ele>716.0</ele><time>2026-04-22T13:01:03Z</time></trkpt><trkpt lat="42.66854316819527" lon="12.654862503270845"><ele>722.5</ele><time>2026-04-22T13:01:04Z</time></trkpt><trkpt lat="42.66861016260368" lon="12.65505276704616"><ele>729.0</ele><time>2026-04-22T13:01:05Z</time></trkpt><trkpt lat="42.668691597626314" lon="12.655195040985008"><ele>735.5</ele><time>2026-04-22T13:01:06Z</time></trkpt><trkpt lat="42.66877663332151" lon="12.655321829051102"><ele>742.0</ele><time>2026-04-22T13:01:07Z</time></trkpt><trkpt lat="42.66888275521804" lon="12.655431754911712"><ele>742.0</ele><time>2026-04-22T13:01:08Z</time></trkpt><trkpt lat="42.66899008841322" lon="12.65554673276314"><ele>742.0</ele><time>2026-04-22T13:01:09Z</time></trkpt><trkpt lat="42.6691041283596" lon="12.655667843014859"><ele>742.0</ele><time>2026-04-22T13:01:10Z</time></trkpt><trkpt lat="42.66921584033406" lon="12.655795409898609"><ele>742.0</ele><time>2026-04-22T13:01:11Z</time></trkpt><trkpt lat="42.6693242051703" lon="12.655897941307893"><ele>742.0</ele><time>2026-04-22T13:01:12Z</time></trkpt><trkpt lat="42.66940171754751" lon="12.656032552982616"><ele>742.0</ele><time>2026-04-22T13:01:13Z</time></trkpt><trkpt lat="42.6695098207779" lon="12.65611396931349"><ele>742.0</ele><time>2026-04-22T13:01:14Z</time></trkpt><trkpt lat="42.66961512564643" lon="12.656193990970772"><ele>742.0</ele><time>2026-04-22T13:01:15Z</time></trkpt><trkpt lat="42.669724548470974" lon="12.656234497853688"><ele>743.0</ele><time>2026-04-22T13:01:16Z</time></trkpt><trkpt lat="42.66984522464341" lon="12.656268702736757"><ele>744.0</ele><time>2026-04-22T13:01:17Z</time></trkpt><trkpt lat="42.66992990615136" lon="12.65631993043085"><ele>745.0</ele><time>2026-04-22T13:01:18Z</time></trkpt><trkpt lat="42.67000320244313" lon="12.656350942314193"><ele>746.0</ele><time>2026-04-22T13:01:19Z</time></trkpt><trkpt lat="42.67007764454131" lon="12.656384217494208"><ele>747.0</ele><time>2026-04-22T13:01:21Z</time></trkpt><trkpt lat="42.67006645672388" lon="12.656506197202278"><ele>747.0</ele><time>2026-04-22T13:01:23Z</time></trkpt><trkpt lat="42.670053079469405" lon="12.65667225507602"><ele>747.0</ele><time>2026-04-22T13:01:25Z</time></trkpt><trkpt lat="42.67003486237479" lon="12.656780516457097"><ele>747.0</ele><time>2026-04-22T13:01:26Z</time></trkpt><trkpt lat="42.670012995402054" lon="12.656888683324976"><ele>747.0</ele><time>2026-04-22T13:01:27Z</time></trkpt><trkpt lat="42.669988042749694" lon="12.656982612750932"><ele>747.0</ele><time>2026-04-22T13:01:28Z</time></trkpt><trkpt lat="42.66996338410288" lon="12.657083771758103"><ele>747.0</ele><time>2026-04-22T13:01:29Z</time></trkpt><trkpt lat="42.66994467261899" lon="12.657170145067447"><ele>746.3333333333334</ele><time>2026-04-22T13:01:30Z</time></trkpt><trkpt lat="42.66996643002241" lon="12.6573020213024"><ele>745.6666666666666</ele><time>2026-04-22T13:01:32Z</time></trkpt><trkpt lat="42.67001566245297" lon="12.65736883695073"><ele>745.0</ele><time>2026-04-22T13:01:34Z</time></trkpt><trkpt lat="42.67005898833516" lon="12.65743900064971"><ele>744.3333333333333</ele><time>2026-04-22T13:01:35Z</time></trkpt><trkpt lat="42.67009267189824" lon="12.65754716349349"><ele>743.6666666666666</ele><time>2026-04-22T13:01:36Z</time></trkpt><trkpt lat="42.67014164916123" lon="12.657648060270116"><ele>743.0</ele><time>2026-04-22T13:01:37Z</time></trkpt><trkpt lat="42.6702025416486" lon="12.657745302744862"><ele>743.0</ele><time>2026-04-22T13:01:38Z</time></trkpt><trkpt lat="42.670260169346584" lon="12.657828763251217"><ele>743.0</ele><time>2026-04-22T13:01:39Z</time></trkpt><trkpt lat="42.670314435619865" lon="12.657904772882752"><ele>743.0</ele><time>2026-04-22T13:01:40Z</time></trkpt><trkpt lat="42.67036822750024" lon="12.657956813533238"><ele>743.0</ele><time>2026-04-22T13:01:41Z</time></trkpt><trkpt lat="42.67041444608864" lon="12.658026205198512"><ele>743.0</ele><time>2026-04-22T13:01:43Z</time></trkpt><trkpt lat="42.67050301055438" lon="12.658119701865438"><ele>743.0</ele><time>2026-04-22T13:01:45Z</time></trkpt><trkpt lat="42.67056659108139" lon="12.658160705122"><ele>742.0</ele><time>2026-04-22T13:01:46Z</time></trkpt><trkpt lat="42.67062464214017" lon="12.658230161263099"><ele>741.0</ele><time>2026-04-22T13:01:47Z</time></trkpt><trkpt lat="42.67067238740674" lon="12.65830006154879"><ele>740.0</ele><time>2026-04-22T13:01:48Z</time></trkpt><trkpt lat="42.670723567942815" lon="12.658383242465254"><ele>739.0</ele><time>2026-04-22T13:01:49Z</time></trkpt><trkpt lat="42.670775807967935" lon="12.658459199469489"><ele>738.0</ele><time>2026-04-22T13:01:50Z</time></trkpt><trkpt lat="42.67084061290596" lon="12.658531926401999"><ele>737.0</ele><time>2026-04-22T13:01:51Z</time></trkpt><trkpt lat="42.67088352861121" lon="12.658599005183126"><ele>737.0</ele><time>2026-04-22T13:01:52Z</time></trkpt><trkpt lat="42.67094257446714" lon="12.658678703513308"><ele>737.0</ele><time>2026-04-22T13:01:54Z</time></trkpt><trkpt lat="42.67096706297097" lon="12.658813977398012"><ele>737.0</ele><time>2026-04-22T13:01:56Z</time></trkpt><trkpt lat="42.670920537947914" lon="12.658960175789096"><ele>737.0</ele><time>2026-04-22T13:01:58Z</time></trkpt><trkpt lat="42.67088563070782" lon="12.659082350614353"><ele>737.0</ele><time>2026-04-22T13:01:59Z</time></trkpt><trkpt lat="42.670836379101836" lon="12.659206909654598"><ele>737.0</ele><time>2026-04-22T13:02:00Z</time></trkpt><trkpt lat="42.67084907340468" lon="12.659343674960585"><ele>737.0</ele><time>2026-04-22T13:02:01Z</time></trkpt><trkpt lat="42.67085777579118" lon="12.659459809847514"><ele>737.0</ele><time>2026-04-22T13:02:02Z</time></trkpt><trkpt lat="42.670874864773104" lon="12.659579724533947"><ele>737.0</ele><time>2026-04-22T13:02:03Z</time></trkpt><trkpt lat="42.67090043416632" lon="12.659684894472047"><ele>737.0</ele><time>2026-04-22T13:02:04Z</time></trkpt><trkpt lat="42.670939655149766" lon="12.659791405832967"><ele>737.0</ele><time>2026-04-22T13:02:05Z</time></trkpt><trkpt lat="42.67099516154309" lon="12.65986905423581"><ele>736.5</ele><time>2026-04-22T13:02:06Z</time></trkpt><trkpt lat="42.671056808771375" lon="12.659928270477371"><ele>736.0</ele><time>2026-04-22T13:02:07Z</time></trkpt><trkpt lat="42.671151603978345" lon="12.6599851569619"><ele>735.5</ele><time>2026-04-22T13:02:08Z</time></trkpt><trkpt lat="42.67124678265451" lon="12.660043488965188"><ele>735.0</ele><time>2026-04-22T13:02:09Z</time></trkpt><trkpt lat="42.671307411865385" lon="12.660090554886642"><ele>734.5</ele><time>2026-04-22T13:02:10Z</time></trkpt><trkpt lat="42.67135782038581" lon="12.660166023393577"><ele>734.0</ele><time>2026-04-22T13:02:11Z</time></trkpt><trkpt lat="42.67141777117849" lon="12.660242502992284"><ele>735.3333333333333</ele><time>2026-04-22T13:02:12Z</time></trkpt><trkpt lat="42.67149412903952" lon="12.660330043445507"><ele>736.6666666666666</ele><time>2026-04-22T13:02:13Z</time></trkpt><trkpt lat="42.67156523876805" lon="12.660416465627781"><ele>738.0</ele><time>2026-04-22T13:02:14Z</time></trkpt><trkpt lat="42.67161217788891" lon="12.66050318788227"><ele>739.3333333333334</ele><time>2026-04-22T13:02:15Z</time></trkpt><trkpt lat="42.67165626339485" lon="12.66060506165052"><ele>740.6666666666667</ele><time>2026-04-22T13:02:16Z</time></trkpt><trkpt lat="42.671694521488504" lon="12.660702983561368"><ele>742.0</ele><time>2026-04-22T13:02:17Z</time></trkpt><trkpt lat="42.671715507890745" lon="12.660791132921887"><ele>742.0</ele><time>2026-04-22T13:02:18Z</time></trkpt><trkpt lat="42.671702890240624" lon="12.660957190868137"><ele>742.0</ele><time>2026-04-22T13:02:20Z</time></trkpt><trkpt lat="42.671680627764935" lon="12.661082999989182"><ele>742.0</ele><time>2026-04-22T13:02:21Z</time></trkpt><trkpt lat="42.67164981070966" lon="12.661214752104684"><ele>742.0</ele><time>2026-04-22T13:02:22Z</time></trkpt><trkpt lat="42.671644243835686" lon="12.6613265043555"><ele>742.0</ele><time>2026-04-22T13:02:23Z</time></trkpt><trkpt lat="42.671680792616264" lon="12.661431512265718"><ele>743.3333333333334</ele><time>2026-04-22T13:02:24Z</time></trkpt><trkpt lat="42.67173852509015" lon="12.66152231980708"><ele>744.6666666666667</ele><time>2026-04-22T13:02:25Z</time></trkpt><trkpt lat="42.671793714165574" lon="12.661610332149166"><ele>746.0</ele><time>2026-04-22T13:02:26Z</time></trkpt><trkpt lat="42.671860508887136" lon="12.66168557224807"><ele>747.3333333333334</ele><time>2026-04-22T13:02:27Z</time></trkpt><trkpt lat="42.67193796166741" lon="12.661749914921563"><ele>748.6666666666666</ele><time>2026-04-22T13:02:28Z</time></trkpt><trkpt lat="42.67198613142609" lon="12.66182375073799"><ele>750.0</ele><time>2026-04-22T13:02:29Z</time></trkpt><trkpt lat="42.67202822593198" lon="12.661917075773987"><ele>747.5</ele><time>2026-04-22T13:02:30Z</time></trkpt><trkpt lat="42.67205483138464" lon="12.662020638048414"><ele>745.0</ele><time>2026-04-22T13:02:31Z</time></trkpt><trkpt lat="42.67205653536181" lon="12.662112370211299"><ele>742.5</ele><time>2026-04-22T13:02:32Z</time></trkpt><trkpt lat="42.672049185897045" lon="12.662214008807807"><ele>740.0</ele><time>2026-04-22T13:02:33Z</time></trkpt><trkpt lat="42.672024928804106" lon="12.662331662543634"><ele>737.5</ele><time>2026-04-22T13:02:34Z</time></trkpt><trkpt lat="42.67199489725983" lon="12.662490745640586"><ele>735.0</ele><time>2026-04-22T13:02:35Z</time></trkpt><trkpt lat="42.67198331610441" lon="12.662642055500113"><ele>735.0</ele><time>2026-04-22T13:02:36Z</time></trkpt><trkpt lat="42.67197079484416" lon="12.66275845411205"><ele>735.0</ele><time>2026-04-22T13:02:37Z</time></trkpt><trkpt lat="42.67194711248648" lon="12.662912442478913"><ele>735.0</ele><time>2026-04-22T13:02:39Z</time></trkpt><trkpt lat="42.67189154691143" lon="12.663015158557814"><ele>735.0</ele><time>2026-04-22T13:02:40Z</time></trkpt><trkpt lat="42.671823624371605" lon="12.66313901401255"><ele>735.0</ele><time>2026-04-22T13:02:41Z</time></trkpt><trkpt lat="42.67176768324285" lon="12.663241694577323"><ele>734.6666666666666</ele><time>2026-04-22T13:02:42Z</time></trkpt><trkpt lat="42.671716229936536" lon="12.663314640468672"><ele>734.3333333333334</ele><time>2026-04-22T13:02:43Z</time></trkpt><trkpt lat="42.67166695517229" lon="12.66337936984291"><ele>734.0</ele><time>2026-04-22T13:02:44Z</time></trkpt><trkpt lat="42.67160447118884" lon="12.663440578386854"><ele>733.6666666666667</ele><time>2026-04-22T13:02:45Z</time></trkpt><trkpt lat="42.67154985238311" lon="12.663512514145411"><ele>733.3333333333334</ele><time>2026-04-22T13:02:46Z</time></trkpt><trkpt lat="42.6714812351645" lon="12.663636726245489"><ele>733.0</ele><time>2026-04-22T13:02:47Z</time></trkpt><trkpt lat="42.671421396693866" lon="12.66374783543484"><ele>733.0</ele><time>2026-04-22T13:02:48Z</time></trkpt><trkpt lat="42.671361018536935" lon="12.663826122972804"><ele>733.0</ele><time>2026-04-22T13:02:49Z</time></trkpt><trkpt lat="42.67130064691651" lon="12.66388694382557"><ele>733.0</ele><time>2026-04-22T13:02:50Z</time></trkpt><trkpt lat="42.671214071805956" lon="12.663946588954916"><ele>733.0</ele><time>2026-04-22T13:02:51Z</time></trkpt><trkpt lat="42.67112518081348" lon="12.664020986747168"><ele>733.0</ele><time>2026-04-22T13:02:52Z</time></trkpt><trkpt lat="42.671039903693455" lon="12.664118517587465"><ele>734.8</ele><time>2026-04-22T13:02:53Z</time></trkpt><trkpt lat="42.67097133355434" lon="12.66421014515995"><ele>736.5999999999999</ele><time>2026-04-22T13:02:54Z</time></trkpt><trkpt lat="42.670915767482754" lon="12.664277748520508"><ele>738.4000000000001</ele><time>2026-04-22T13:02:55Z</time></trkpt><trkpt lat="42.67083958274004" lon="12.66433003011523"><ele>740.2</ele><time>2026-04-22T13:02:56Z</time></trkpt><trkpt lat="42.6707452694323" lon="12.664382731813756"><ele>742.0</ele><time>2026-04-22T13:02:57Z</time></trkpt><trkpt lat="42.67064572793335" lon="12.66444161905584"><ele>742.0</ele><time>2026-04-22T13:02:58Z</time></trkpt><trkpt lat="42.670560479786886" lon="12.6644881802369"><ele>742.0</ele><time>2026-04-22T13:02:59Z</time></trkpt><trkpt lat="42.670489096121045" lon="12.664515260627203"><ele>742.0</ele><time>2026-04-22T13:03:00Z</time></trkpt><trkpt lat="42.67040966121103" lon="12.664509884752055"><ele>742.0</ele><time>2026-04-22T13:03:01Z</time></trkpt><trkpt lat="42.67030162569012" lon="12.664506758810502"><ele>742.0</ele><time>2026-04-22T13:03:02Z</time></trkpt><trkpt lat="42.6701782623587" lon="12.66451557154307"><ele>742.0</ele><time>2026-04-22T13:03:03Z</time></trkpt><trkpt lat="42.6700474514286" lon="12.664517019849223"><ele>742.0</ele><time>2026-04-22T13:03:04Z</time></trkpt><trkpt lat="42.66991099705231" lon="12.664508469882147"><ele>742.0</ele><time>2026-04-22T13:03:05Z</time></trkpt><trkpt lat="42.669780265867665" lon="12.664501716442992"><ele>742.0</ele><time>2026-04-22T13:03:06Z</time></trkpt><trkpt lat="42.66966984363547" lon="12.664505339390846"><ele>742.0</ele><time>2026-04-22T13:03:07Z</time></trkpt><trkpt lat="42.669579460367004" lon="12.66451686902825"><ele>742.0</ele><time>2026-04-22T13:03:08Z</time></trkpt><trkpt lat="42.66947419725663" lon="12.66457486136123"><ele>742.0</ele><time>2026-04-22T13:03:10Z</time></trkpt><trkpt lat="42.669479129646305" lon="12.664729393151415"><ele>742.0</ele><time>2026-04-22T13:03:12Z</time></trkpt><trkpt lat="42.669577647846396" lon="12.66480027178546"><ele>742.0</ele><time>2026-04-22T13:03:14Z</time></trkpt><trkpt lat="42.669638359034494" lon="12.6648294107186"><ele>742.0</ele><time>2026-04-22T13:03:15Z</time></trkpt><trkpt lat="42.669729459306595" lon="12.664961663604235"><ele>742.0</ele><time>2026-04-22T13:03:17Z</time></trkpt><trkpt lat="42.669780478738325" lon="12.665067720044188"><ele>742.0</ele><time>2026-04-22T13:03:18Z</time></trkpt><trkpt lat="42.66982621114722" lon="12.66517378517863"><ele>742.0</ele><time>2026-04-22T13:03:19Z</time></trkpt><trkpt lat="42.669882171981136" lon="12.665307083382618"><ele>742.0</ele><time>2026-04-22T13:03:20Z</time></trkpt><trkpt lat="42.66993295621602" lon="12.66544459746654"><ele>742.6666666666667</ele><time>2026-04-22T13:03:21Z</time></trkpt><trkpt lat="42.669971646545676" lon="12.665555666134216"><ele>743.3333333333334</ele><time>2026-04-22T13:03:22Z</time></trkpt><trkpt lat="42.66999902442587" lon="12.665641750560798"><ele>744.0</ele><time>2026-04-22T13:03:23Z</time></trkpt><trkpt lat="42.67004733648362" lon="12.665707589500954"><ele>744.6666666666666</ele><time>2026-04-22T13:03:24Z</time></trkpt><trkpt lat="42.6701183063749" lon="12.6657577551285"><ele>745.3333333333333</ele><time>2026-04-22T13:03:25Z</time></trkpt><trkpt lat="42.67021000550262" lon="12.665772981759106"><ele>746.0</ele><time>2026-04-22T13:03:26Z</time></trkpt><trkpt lat="42.67030559092645" lon="12.665778634451497"><ele>746.0</ele><time>2026-04-22T13:03:27Z</time></trkpt><trkpt lat="42.670404712453326" lon="12.66577763846623"><ele>746.0</ele><time>2026-04-22T13:03:28Z</time></trkpt><trkpt lat="42.67048945299278" lon="12.665785645113953"><ele>746.0</ele><time>2026-04-22T13:03:29Z</time></trkpt><trkpt lat="42.670551651367006" lon="12.665814813075649"><ele>746.0</ele><time>2026-04-22T13:03:30Z</time></trkpt><trkpt lat="42.67060838143818" lon="12.66586259791426"><ele>746.0</ele><time>2026-04-22T13:03:31Z</time></trkpt><trkpt lat="42.670670157511935" lon="12.665914411697106"><ele>746.0</ele><time>2026-04-22T13:03:32Z</time></trkpt><trkpt lat="42.67073971078374" lon="12.665987762005809"><ele>746.0</ele><time>2026-04-22T13:03:33Z</time></trkpt><trkpt lat="42.67079737463033" lon="12.666099789801626"><ele>746.0</ele><time>2026-04-22T13:03:34Z</time></trkpt><trkpt lat="42.67084844666401" lon="12.666212906303313"><ele>746.0</ele><time>2026-04-22T13:03:35Z</time></trkpt><trkpt lat="42.670885426510026" lon="12.666330434103516"><ele>746.0</ele><time>2026-04-22T13:03:36Z</time></trkpt><trkpt lat="42.67092247280882" lon="12.666430694131225"><ele>746.0</ele><time>2026-04-22T13:03:37Z</time></trkpt><trkpt lat="42.670952529841514" lon="12.666520852928889"><ele>746.0</ele><time>2026-04-22T13:03:38Z</time></trkpt><trkpt lat="42.670972130501596" lon="12.666629656385204"><ele>748.0</ele><time>2026-04-22T13:03:39Z</time></trkpt><trkpt lat="42.670974533336214" lon="12.666729827856999"><ele>750.0</ele><time>2026-04-22T13:03:40Z</time></trkpt><trkpt lat="42.67095637244641" lon="12.666832485768207"><ele>752.0</ele><time>2026-04-22T13:03:41Z</time></trkpt><trkpt lat="42.670928494111436" lon="12.66694630583684"><ele>754.0</ele><time>2026-04-22T13:03:42Z</time></trkpt><trkpt lat="42.670893588733016" lon="12.667077252986857"><ele>756.0</ele><time>2026-04-22T13:03:43Z</time></trkpt><trkpt lat="42.67088287651856" lon="12.667205647351471"><ele>758.0</ele><time>2026-04-22T13:03:44Z</time></trkpt><trkpt lat="42.67090731625615" lon="12.667315547916447"><ele>757.2</ele><time>2026-04-22T13:03:45Z</time></trkpt><trkpt lat="42.670951773367484" lon="12.667437444349762"><ele>756.4</ele><time>2026-04-22T13:03:46Z</time></trkpt><trkpt lat="42.67101367592593" lon="12.667569220826946"><ele>755.6</ele><time>2026-04-22T13:03:47Z</time></trkpt><trkpt lat="42.671058264999026" lon="12.66770482397382"><ele>754.8000000000001</ele><time>2026-04-22T13:03:48Z</time></trkpt><trkpt lat="42.671093762983" lon="12.667835745546077"><ele>754.0</ele><time>2026-04-22T13:03:49Z</time></trkpt><trkpt lat="42.67112887385385" lon="12.667979343724031"><ele>754.0</ele><time>2026-04-22T13:03:50Z</time></trkpt><trkpt lat="42.671172542369604" lon="12.6681207486962"><ele>754.0</ele><time>2026-04-22T13:03:51Z</time></trkpt><trkpt lat="42.67123872270298" lon="12.668288853379538"><ele>754.0</ele><time>2026-04-22T13:03:52Z</time></trkpt><trkpt lat="42.671302779014" lon="12.668459776015279"><ele>754.0</ele><time>2026-04-22T13:03:53Z</time></trkpt><trkpt lat="42.67135492192645" lon="12.668638138696895"><ele>757.2</ele><time>2026-04-22T13:03:54Z</time></trkpt><trkpt lat="42.671406337002644" lon="12.668797125361255"><ele>760.4000000000001</ele><time>2026-04-22T13:03:55Z</time></trkpt><trkpt lat="42.671450450651996" lon="12.668927670589104"><ele>763.6</ele><time>2026-04-22T13:03:56Z</time></trkpt><trkpt lat="42.671481236188605" lon="12.669026702876797"><ele>766.8</ele><time>2026-04-22T13:03:57Z</time></trkpt><trkpt lat="42.671503351156666" lon="12.669113190029558"><ele>770.0</ele><time>2026-04-22T13:03:58Z</time></trkpt><trkpt lat="42.67152050848416" lon="12.669302986484361"><ele>770.0</ele><time>2026-04-22T13:04:00Z</time></trkpt><trkpt lat="42.671524450558174" lon="12.669422629104213"><ele>770.0</ele><time>2026-04-22T13:04:01Z</time></trkpt><trkpt lat="42.67152296669723" lon="12.669564234512796"><ele>770.0</ele><time>2026-04-22T13:04:02Z</time></trkpt><trkpt lat="42.67150385416907" lon="12.669686280782916"><ele>770.0</ele><time>2026-04-22T13:04:03Z</time></trkpt><trkpt lat="42.671465333707594" lon="12.66977931961989"><ele>770.0</ele><time>2026-04-22T13:04:04Z</time></trkpt><trkpt lat="42.67140802876695" lon="12.669886612806899"><ele>770.8</ele><time>2026-04-22T13:04:05Z</time></trkpt><trkpt lat="42.67135245803176" lon="12.669992231363965"><ele>771.6</ele><time>2026-04-22T13:04:06Z</time></trkpt><trkpt lat="42.67129117642155" lon="12.670107887267536"><ele>772.4000000000001</ele><time>2026-04-22T13:04:07Z</time></trkpt><trkpt lat="42.67123842486268" lon="12.670240013132846"><ele>773.2</ele><time>2026-04-22T13:04:08Z</time></trkpt><trkpt lat="42.671202482894884" lon="12.670384162842701"><ele>774.0</ele><time>2026-04-22T13:04:09Z</time></trkpt><trkpt lat="42.67118922162461" lon="12.670553868639105"><ele>774.0</ele><time>2026-04-22T13:04:10Z</time></trkpt><trkpt lat="42.67118851160536" lon="12.670727923469643"><ele>774.0</ele><time>2026-04-22T13:04:11Z</time></trkpt><trkpt lat="42.67119215269485" lon="12.67088872943077"><ele>774.0</ele><time>2026-04-22T13:04:12Z</time></trkpt><trkpt lat="42.67118106652443" lon="12.671040427362474"><ele>774.0</ele><time>2026-04-22T13:04:13Z</time></trkpt><trkpt lat="42.67117152199327" lon="12.671206965253122"><ele>775.0</ele><time>2026-04-22T13:04:14Z</time></trkpt><trkpt lat="42.6711669579509" lon="12.671357425077472"><ele>776.0</ele><time>2026-04-22T13:04:15Z</time></trkpt><trkpt lat="42.67116990579739" lon="12.671503455778502"><ele>777.0</ele><time>2026-04-22T13:04:16Z</time></trkpt><trkpt lat="42.671161748017106" lon="12.671626909597796"><ele>778.0</ele><time>2026-04-22T13:04:17Z</time></trkpt><trkpt lat="42.671141237876896" lon="12.671729668117864"><ele>779.0</ele><time>2026-04-22T13:04:18Z</time></trkpt><trkpt lat="42.67112225703262" lon="12.671815376253795"><ele>782.4000000000001</ele><time>2026-04-22T13:04:19Z</time></trkpt><trkpt lat="42.67108516688848" lon="12.671914926477605"><ele>785.8</ele><time>2026-04-22T13:04:20Z</time></trkpt><trkpt lat="42.67103169296719" lon="12.672015965445144"><ele>789.2</ele><time>2026-04-22T13:04:21Z</time></trkpt><trkpt lat="42.67096964134922" lon="12.672124337909821"><ele>792.5999999999999</ele><time>2026-04-22T13:04:22Z</time></trkpt><trkpt lat="42.670912369407375" lon="12.672235271442585"><ele>796.0</ele><time>2026-04-22T13:04:23Z</time></trkpt><trkpt lat="42.670854480374445" lon="12.672367515079353"><ele>796.0</ele><time>2026-04-22T13:04:24Z</time></trkpt><trkpt lat="42.670796366792224" lon="12.672511571673686"><ele>796.0</ele><time>2026-04-22T13:04:25Z</time></trkpt><trkpt lat="42.670753714545306" lon="12.672653091498828"><ele>796.0</ele><time>2026-04-22T13:04:26Z</time></trkpt><trkpt lat="42.670711436262614" lon="12.672753615925886"><ele>796.0</ele><time>2026-04-22T13:04:27Z</time></trkpt><trkpt lat="42.67066546615074" lon="12.672847131548743"><ele>796.0</ele><time>2026-04-22T13:04:28Z</time></trkpt><trkpt lat="42.67061154572823" lon="12.672953752513273"><ele>796.0</ele><time>2026-04-22T13:04:29Z</time></trkpt><trkpt lat="42.67058279508857" lon="12.673069814616555"><ele>796.0</ele><time>2026-04-22T13:04:30Z</time></trkpt><trkpt lat="42.670599869638664" lon="12.67320019305436"><ele>796.0</ele><time>2026-04-22T13:04:31Z</time></trkpt><trkpt lat="42.67064234911477" lon="12.673357046733726"><ele>796.0</ele><time>2026-04-22T13:04:32Z</time></trkpt><trkpt lat="42.6706858002439" lon="12.673510153513321"><ele>796.0</ele><time>2026-04-22T13:04:33Z</time></trkpt><trkpt lat="42.670727346532075" lon="12.673649206480945"><ele>797.5</ele><time>2026-04-22T13:04:34Z</time></trkpt><trkpt lat="42.67074166863741" lon="12.673781462118171"><ele>799.0</ele><time>2026-04-22T13:04:35Z</time></trkpt><trkpt lat="42.67073620525442" lon="12.673945291184257"><ele>800.5</ele><time>2026-04-22T13:04:36Z</time></trkpt><trkpt lat="42.67070419142202" lon="12.674099809615415"><ele>802.0</ele><time>2026-04-22T13:04:37Z</time></trkpt><trkpt lat="42.67069576799039" lon="12.674259783533111"><ele>802.0</ele><time>2026-04-22T13:04:38Z</time></trkpt><trkpt lat="42.670714639458694" lon="12.67440169615088"><ele>802.0</ele><time>2026-04-22T13:04:39Z</time></trkpt><trkpt lat="42.67074775029461" lon="12.674524846799986"><ele>802.0</ele><time>2026-04-22T13:04:40Z</time></trkpt><trkpt lat="42.67079050454664" lon="12.674607630776064"><ele>802.0</ele><time>2026-04-22T13:04:41Z</time></trkpt><trkpt lat="42.67077889229214" lon="12.67478181000329"><ele>802.0</ele><time>2026-04-22T13:04:43Z</time></trkpt><trkpt lat="42.67074707027882" lon="12.674904706200232"><ele>802.6</ele><time>2026-04-22T13:04:44Z</time></trkpt><trkpt lat="42.67074443190212" lon="12.675049692353554"><ele>803.2</ele><time>2026-04-22T13:04:45Z</time></trkpt><trkpt lat="42.67076213565859" lon="12.675204591422176"><ele>803.8</ele><time>2026-04-22T13:04:46Z</time></trkpt><trkpt lat="42.67076535984799" lon="12.67532333157467"><ele>804.4</ele><time>2026-04-22T13:04:47Z</time></trkpt><trkpt lat="42.67074628590136" lon="12.675423012301138"><ele>805.0</ele><time>2026-04-22T13:04:48Z</time></trkpt><trkpt lat="42.670701460569575" lon="12.675527695744263"><ele>802.8</ele><time>2026-04-22T13:04:49Z</time></trkpt><trkpt lat="42.67065376340586" lon="12.675627775575698"><ele>800.6</ele><time>2026-04-22T13:04:50Z</time></trkpt><trkpt lat="42.67059322943024" lon="12.675732779393014"><ele>798.4000000000001</ele><time>2026-04-22T13:04:51Z</time></trkpt><trkpt lat="42.670523891538686" lon="12.675840827061421"><ele>796.2</ele><time>2026-04-22T13:04:52Z</time></trkpt><trkpt lat="42.67046906931196" lon="12.67597427432736"><ele>794.0</ele><time>2026-04-22T13:04:53Z</time></trkpt><trkpt lat="42.670440713262096" lon="12.676101600678344"><ele>794.1666666666667</ele><time>2026-04-22T13:04:54Z</time></trkpt><trkpt lat="42.67041226412665" lon="12.676201616109"><ele>794.3333333333334</ele><time>2026-04-22T13:04:55Z</time></trkpt><trkpt lat="42.67036410235727" lon="12.676318839074355"><ele>794.5</ele><time>2026-04-22T13:04:56Z</time></trkpt><trkpt lat="42.670334752038514" lon="12.676413971214826"><ele>794.6666666666667</ele><time>2026-04-22T13:04:57Z</time></trkpt><trkpt lat="42.67032463893141" lon="12.676504539819978"><ele>794.8333333333334</ele><time>2026-04-22T13:04:58Z</time></trkpt><trkpt lat="42.67039689104472" lon="12.676615305659691"><ele>795.0</ele><time>2026-04-22T13:05:00Z</time></trkpt><trkpt lat="42.67048317208822" lon="12.676633812781931"><ele>795.0</ele><time>2026-04-22T13:05:01Z</time></trkpt><trkpt lat="42.67057186567629" lon="12.676642151632572"><ele>795.0</ele><time>2026-04-22T13:05:02Z</time></trkpt><trkpt lat="42.670760359316034" lon="12.676711539806147"><ele>795.0</ele><time>2026-04-22T13:05:04Z</time></trkpt><trkpt lat="42.6708370179171" lon="12.67673940613313"><ele>795.0</ele><time>2026-04-22T13:05:05Z</time></trkpt><trkpt lat="42.670906542391414" lon="12.676794480820362"><ele>795.0</ele><time>2026-04-22T13:05:06Z</time></trkpt><trkpt lat="42.67095407321762" lon="12.676868586649839"><ele>797.8</ele><time>2026-04-22T13:05:07Z</time></trkpt><trkpt lat="42.67099912450808" lon="12.676971584337698"><ele>800.6</ele><time>2026-04-22T13:05:08Z</time></trkpt><trkpt lat="42.67103785829224" lon="12.677092658193953"><ele>803.4000000000001</ele><time>2026-04-22T13:05:09Z</time></trkpt><trkpt lat="42.67105945956281" lon="12.677244892312313"><ele>806.2</ele><time>2026-04-22T13:05:10Z</time></trkpt><trkpt lat="42.67107584820435" lon="12.677382852573887"><ele>809.0</ele><time>2026-04-22T13:05:11Z</time></trkpt><trkpt lat="42.671103814731275" lon="12.677496852319264"><ele>806.3333333333334</ele><time>2026-04-22T13:05:12Z</time></trkpt><trkpt lat="42.6711369079846" lon="12.677601981910794"><ele>803.6666666666667</ele><time>2026-04-22T13:05:13Z</time></trkpt><trkpt lat="42.671166014577786" lon="12.677717628916561"><ele>801.0</ele><time>2026-04-22T13:05:14Z</time></trkpt><trkpt lat="42.67119580378677" lon="12.677828243365857"><ele>798.3333333333333</ele><time>2026-04-22T13:05:15Z</time></trkpt><trkpt lat="42.67121211016459" lon="12.677940191299482"><ele>795.6666666666666</ele><time>2026-04-22T13:05:16Z</time></trkpt><trkpt lat="42.67121442867572" lon="12.678050567091315"><ele>793.0</ele><time>2026-04-22T13:05:17Z</time></trkpt><trkpt lat="42.671247839088096" lon="12.678185294977736"><ele>793.0</ele><time>2026-04-22T13:05:19Z</time></trkpt><trkpt lat="42.671348439066726" lon="12.678188246781817"><ele>793.0</ele><time>2026-04-22T13:05:21Z</time></trkpt><trkpt lat="42.671419882345525" lon="12.678202633215355"><ele>793.0</ele><time>2026-04-22T13:05:22Z</time></trkpt><trkpt lat="42.67149618554147" lon="12.678228997486437"><ele>793.0</ele><time>2026-04-22T13:05:23Z</time></trkpt><trkpt lat="42.67158642745577" lon="12.678259417883842"><ele>793.0</ele><time>2026-04-22T13:05:24Z</time></trkpt><trkpt lat="42.67169000780701" lon="12.678303658305056"><ele>793.0</ele><time>2026-04-22T13:05:25Z</time></trkpt><trkpt lat="42.671885917281806" lon="12.67838331226551"><ele>793.0</ele><time>2026-04-22T13:05:27Z</time></trkpt><trkpt lat="42.67196565784951" lon="12.678431680683953"><ele>793.0</ele><time>2026-04-22T13:05:28Z</time></trkpt><trkpt lat="42.672051477274245" lon="12.678487028821275"><ele>793.0</ele><time>2026-04-22T13:05:29Z</time></trkpt><trkpt lat="42.67218540653452" lon="12.678586182855975"><ele>791.6666666666666</ele><time>2026-04-22T13:05:31Z</time></trkpt><trkpt lat="42.67225014775955" lon="12.67863066908145"><ele>790.3333333333333</ele><time>2026-04-22T13:05:32Z</time></trkpt><trkpt lat="42.67231543724132" lon="12.678677322446367"><ele>789.0</ele><time>2026-04-22T13:05:33Z</time></trkpt><trkpt lat="42.67239460255382" lon="12.678754434229386"><ele>787.6666666666667</ele><time>2026-04-22T13:05:35Z</time></trkpt><trkpt lat="42.6724322214843" lon="12.678827405442275"><ele>786.3333333333334</ele><time>2026-04-22T13:05:38Z</time></trkpt><trkpt lat="42.67242210629543" lon="12.678918785988648"><ele>785.0</ele><time>2026-04-22T13:05:41Z</time></trkpt><trkpt lat="42.67235691417683" lon="12.67897091125485"><ele>785.0</ele><time>2026-04-22T13:05:43Z</time></trkpt><trkpt lat="42.672268976136806" lon="12.679041738595442"><ele>785.0</ele><time>2026-04-22T13:05:45Z</time></trkpt><trkpt lat="42.67219015818029" lon="12.679157182832462"><ele>785.0</ele><time>2026-04-22T13:05:47Z</time></trkpt><trkpt lat="42.672121132457505" lon="12.679276190165924"><ele>785.0</ele><time>2026-04-22T13:05:49Z</time></trkpt><trkpt lat="42.67207142834074" lon="12.679330939187356"><ele>785.0</ele><time>2026-04-22T13:05:50Z</time></trkpt><trkpt lat="42.672007379965954" lon="12.679382413910764"><ele>783.8333333333334</ele><time>2026-04-22T13:05:51Z</time></trkpt><trkpt lat="42.67194524870994" lon="12.679443993326444"><ele>782.6666666666667</ele><time>2026-04-22T13:05:52Z</time></trkpt><trkpt lat="42.67189275720051" lon="12.679515954410375"><ele>781.5</ele><time>2026-04-22T13:05:53Z</time></trkpt><trkpt lat="42.67183486374992" lon="12.679579639895454"><ele>780.3333333333333</ele><time>2026-04-22T13:05:54Z</time></trkpt><trkpt lat="42.67177540794558" lon="12.679665747925718"><ele>779.1666666666666</ele><time>2026-04-22T13:05:55Z</time></trkpt><trkpt lat="42.67172716414639" lon="12.679770827151502"><ele>778.0</ele><time>2026-04-22T13:05:56Z</time></trkpt><trkpt lat="42.67167720570649" lon="12.679872907019563"><ele>781.6666666666666</ele><time>2026-04-22T13:05:57Z</time></trkpt><trkpt lat="42.67165744210434" lon="12.680013940429287"><ele>785.3333333333333</ele><time>2026-04-22T13:05:58Z</time></trkpt><trkpt lat="42.67162253852641" lon="12.680112748075832"><ele>789.0</ele><time>2026-04-22T13:05:59Z</time></trkpt><trkpt lat="42.671601266987366" lon="12.68021427225312"><ele>792.6666666666667</ele><time>2026-04-22T13:06:00Z</time></trkpt><trkpt lat="42.67158685367368" lon="12.680330481686099"><ele>796.3333333333334</ele><time>2026-04-22T13:06:01Z</time></trkpt><trkpt lat="42.67153375252576" lon="12.680415126876325"><ele>800.0</ele><time>2026-04-22T13:06:02Z</time></trkpt><trkpt lat="42.67148929624258" lon="12.680493520784685"><ele>800.0</ele><time>2026-04-22T13:06:03Z</time></trkpt><trkpt lat="42.67144798170621" lon="12.680597804532338"><ele>800.0</ele><time>2026-04-22T13:06:04Z</time></trkpt><trkpt lat="42.671399220056955" lon="12.680700760864054"><ele>800.0</ele><time>2026-04-22T13:06:05Z</time></trkpt><trkpt lat="42.67134151375766" lon="12.680803136105695"><ele>800.0</ele><time>2026-04-22T13:06:06Z</time></trkpt><trkpt lat="42.67128665670536" lon="12.680907340442637"><ele>800.0</ele><time>2026-04-22T13:06:07Z</time></trkpt><trkpt lat="42.671227556079465" lon="12.681017142733547"><ele>799.3333333333334</ele><time>2026-04-22T13:06:08Z</time></trkpt><trkpt lat="42.67118042003359" lon="12.681136736056438"><ele>798.6666666666667</ele><time>2026-04-22T13:06:09Z</time></trkpt><trkpt lat="42.67113798580757" lon="12.681254288337726"><ele>798.0</ele><time>2026-04-22T13:06:10Z</time></trkpt><trkpt lat="42.671097677530774" lon="12.681357870116493"><ele>797.3333333333333</ele><time>2026-04-22T13:06:11Z</time></trkpt><trkpt lat="42.6710603895682" lon="12.681468320486985"><ele>796.6666666666666</ele><time>2026-04-22T13:06:12Z</time></trkpt><trkpt lat="42.671023569286426" lon="12.681561521138645"><ele>796.0</ele><time>2026-04-22T13:06:13Z</time></trkpt><trkpt lat="42.67099054146262" lon="12.681646816440741"><ele>800.9999999999999</ele><time>2026-04-22T13:06:14Z</time></trkpt><trkpt lat="42.67094243865145" lon="12.681741285753025"><ele>806.0</ele><time>2026-04-22T13:06:15Z</time></trkpt><trkpt lat="42.67093628041851" lon="12.681854738424345"><ele>811.0</ele><time>2026-04-22T13:06:16Z</time></trkpt><trkpt lat="42.67091208442165" lon="12.681961882365234"><ele>816.0</ele><time>2026-04-22T13:06:17Z</time></trkpt><trkpt lat="42.670907752328354" lon="12.68208019035224"><ele>820.9999999999999</ele><time>2026-04-22T13:06:18Z</time></trkpt><trkpt lat="42.67087205144424" lon="12.682161975452601"><ele>826.0</ele><time>2026-04-22T13:06:19Z</time></trkpt><trkpt lat="42.67085223212403" lon="12.68225683308073"><ele>826.0</ele><time>2026-04-22T13:06:20Z</time></trkpt><trkpt lat="42.67080561585095" lon="12.68232505378897"><ele>826.0</ele><time>2026-04-22T13:06:21Z</time></trkpt><trkpt lat="42.670758677875455" lon="12.682406019311282"><ele>826.0</ele><time>2026-04-22T13:06:22Z</time></trkpt><trkpt lat="42.6707159105264" lon="12.682469099760613"><ele>826.0</ele><time>2026-04-22T13:06:23Z</time></trkpt><trkpt lat="42.67067496717845" lon="12.682554949955954"><ele>826.0</ele><time>2026-04-22T13:06:24Z</time></trkpt><trkpt lat="42.67064472890719" lon="12.682655058023546"><ele>826.0</ele><time>2026-04-22T13:06:25Z</time></trkpt><trkpt lat="42.670636998898004" lon="12.682756554777283"><ele>826.0</ele><time>2026-04-22T13:06:26Z</time></trkpt><trkpt lat="42.67061504256997" lon="12.682886261433298"><ele>825.9999999999999</ele><time>2026-04-22T13:06:27Z</time></trkpt><trkpt lat="42.67059471784423" lon="12.682994200769368"><ele>826.0</ele><time>2026-04-22T13:06:28Z</time></trkpt><trkpt lat="42.670577278208214" lon="12.683087150727344"><ele>826.0</ele><time>2026-04-22T13:06:29Z</time></trkpt><trkpt lat="42.670565074226616" lon="12.683206136122273"><ele>826.0</ele><time>2026-04-22T13:06:30Z</time></trkpt><trkpt lat="42.67054408103251" lon="12.683321141102194"><ele>825.9999999999999</ele><time>2026-04-22T13:06:31Z</time></trkpt><trkpt lat="42.670495119928766" lon="12.68345082097414"><ele>826.0</ele><time>2026-04-22T13:06:32Z</time></trkpt><trkpt lat="42.67046530439513" lon="12.683569143902538"><ele>826.4999999999999</ele><time>2026-04-22T13:06:33Z</time></trkpt><trkpt lat="42.67044068043478" lon="12.68366787091649"><ele>827.0</ele><time>2026-04-22T13:06:34Z</time></trkpt><trkpt lat="42.67042919107481" lon="12.683760711617706"><ele>827.5</ele><time>2026-04-22T13:06:35Z</time></trkpt><trkpt lat="42.6703841726084" lon="12.683843529877063"><ele>828.0</ele><time>2026-04-22T13:06:36Z</time></trkpt><trkpt lat="42.67033064487329" lon="12.683933666444178"><ele>828.4999999999999</ele><time>2026-04-22T13:06:37Z</time></trkpt><trkpt lat="42.67028134421724" lon="12.684038822204403"><ele>829.0</ele><time>2026-04-22T13:06:38Z</time></trkpt><trkpt lat="42.670250837362644" lon="12.68415638705689"><ele>831.2</ele><time>2026-04-22T13:06:39Z</time></trkpt><trkpt lat="42.67023509110635" lon="12.684262477247502"><ele>833.4000000000001</ele><time>2026-04-22T13:06:40Z</time></trkpt><trkpt lat="42.67024647264939" lon="12.684397799461896"><ele>835.6</ele><time>2026-04-22T13:06:41Z</time></trkpt><trkpt lat="42.6702682093987" lon="12.684533008619697"><ele>837.8</ele><time>2026-04-22T13:06:42Z</time></trkpt><trkpt lat="42.67029055180509" lon="12.68467198473755"><ele>840.0</ele><time>2026-04-22T13:06:43Z</time></trkpt><trkpt lat="42.6703132301629" lon="12.684810084039864"><ele>840.0</ele><time>2026-04-22T13:06:44Z</time></trkpt><trkpt lat="42.67033503753784" lon="12.68493052341682"><ele>840.0</ele><time>2026-04-22T13:06:45Z</time></trkpt><trkpt lat="42.670361721019944" lon="12.685051508580356"><ele>840.0</ele><time>2026-04-22T13:06:46Z</time></trkpt><trkpt lat="42.6703983958396" lon="12.68514031146077"><ele>840.0</ele><time>2026-04-22T13:06:47Z</time></trkpt><trkpt lat="42.67048874687189" lon="12.685199954710464"><ele>840.0</ele><time>2026-04-22T13:06:48Z</time></trkpt><trkpt lat="42.67058861766713" lon="12.685192311582231"><ele>840.0</ele><time>2026-04-22T13:06:49Z</time></trkpt><trkpt lat="42.670653236113736" lon="12.685222457734536"><ele>840.0</ele><time>2026-04-22T13:06:50Z</time></trkpt><trkpt lat="42.67072196110066" lon="12.685286147383849"><ele>840.0</ele><time>2026-04-22T13:06:52Z</time></trkpt><trkpt lat="42.67072145268784" lon="12.685388311123571"><ele>840.0</ele><time>2026-04-22T13:06:54Z</time></trkpt><trkpt lat="42.670668420278986" lon="12.685574662015641"><ele>840.0</ele><time>2026-04-22T13:06:56Z</time></trkpt><trkpt lat="42.6706221769036" lon="12.685691744766645"><ele>841.8</ele><time>2026-04-22T13:06:57Z</time></trkpt><trkpt lat="42.6705611635649" lon="12.685805486819872"><ele>843.6</ele><time>2026-04-22T13:06:58Z</time></trkpt><trkpt lat="42.67049194565212" lon="12.685926067483248"><ele>845.4000000000001</ele><time>2026-04-22T13:06:59Z</time></trkpt><trkpt lat="42.67042075848783" lon="12.686040837902596"><ele>847.2</ele><time>2026-04-22T13:07:00Z</time></trkpt><trkpt lat="42.670351799260345" lon="12.68611987741653"><ele>849.0</ele><time>2026-04-22T13:07:01Z</time></trkpt><trkpt lat="42.67028664728522" lon="12.68618426329861"><ele>851.3333333333334</ele><time>2026-04-22T13:07:02Z</time></trkpt><trkpt lat="42.67021105798079" lon="12.68630597630087"><ele>853.6666666666667</ele><time>2026-04-22T13:07:04Z</time></trkpt><trkpt lat="42.670165655934845" lon="12.686415496058189"><ele>856.0</ele><time>2026-04-22T13:07:05Z</time></trkpt><trkpt lat="42.670120147610575" lon="12.686482589944285"><ele>858.3333333333334</ele><time>2026-04-22T13:07:06Z</time></trkpt><trkpt lat="42.67007048156142" lon="12.686551558383854"><ele>860.6666666666667</ele><time>2026-04-22T13:07:07Z</time></trkpt><trkpt lat="42.670014703267356" lon="12.686628092722575"><ele>863.0</ele><time>2026-04-22T13:07:08Z</time></trkpt><trkpt lat="42.66994612882031" lon="12.686722184632284"><ele>863.0</ele><time>2026-04-22T13:07:09Z</time></trkpt><trkpt lat="42.669881721846274" lon="12.68682405451925"><ele>863.0</ele><time>2026-04-22T13:07:10Z</time></trkpt><trkpt lat="42.66982664912755" lon="12.686916528619628"><ele>863.0</ele><time>2026-04-22T13:07:11Z</time></trkpt><trkpt lat="42.66976017685451" lon="12.687016808607554"><ele>863.0</ele><time>2026-04-22T13:07:12Z</time></trkpt><trkpt lat="42.66970004338508" lon="12.687139698094398"><ele>863.0</ele><time>2026-04-22T13:07:13Z</time></trkpt><trkpt lat="42.66966147700541" lon="12.687271386375368"><ele>862.8333333333334</ele><time>2026-04-22T13:07:14Z</time></trkpt><trkpt lat="42.66962677606883" lon="12.687403318775804"><ele>862.6666666666667</ele><time>2026-04-22T13:07:15Z</time></trkpt><trkpt lat="42.669602881707036" lon="12.687525792117967"><ele>862.5</ele><time>2026-04-22T13:07:16Z</time></trkpt><trkpt lat="42.669576613524505" lon="12.687633009148643"><ele>862.3333333333333</ele><time>2026-04-22T13:07:17Z</time></trkpt><trkpt lat="42.66953072797983" lon="12.687728922534271"><ele>862.1666666666666</ele><time>2026-04-22T13:07:19Z</time></trkpt><trkpt lat="42.66946654091172" lon="12.687676407833901"><ele>862.0</ele><time>2026-04-22T13:07:21Z</time></trkpt><trkpt lat="42.66935727327526" lon="12.687617061771572"><ele>862.3333333333333</ele><time>2026-04-22T13:07:23Z</time></trkpt><trkpt lat="42.669291150527854" lon="12.68758583825315"><ele>862.6666666666666</ele><time>2026-04-22T13:07:24Z</time></trkpt><trkpt lat="42.669218602398864" lon="12.687616271075589"><ele>863.0</ele><time>2026-04-22T13:07:25Z</time></trkpt><trkpt lat="42.66916567227418" lon="12.687707251081605"><ele>863.3333333333333</ele><time>2026-04-22T13:07:26Z</time></trkpt><trkpt lat="42.66913706925967" lon="12.687840900653843"><ele>863.6666666666666</ele><time>2026-04-22T13:07:27Z</time></trkpt><trkpt lat="42.669100529220934" lon="12.68796036031577"><ele>864.0</ele><time>2026-04-22T13:07:28Z</time></trkpt><trkpt lat="42.66908014047115" lon="12.688073678913984"><ele>862.0</ele><time>2026-04-22T13:07:29Z</time></trkpt><trkpt lat="42.66902090687564" lon="12.688175781420346"><ele>860.0000000000001</ele><time>2026-04-22T13:07:30Z</time></trkpt><trkpt lat="42.6689637899208" lon="12.688298747256166"><ele>858.0000000000001</ele><time>2026-04-22T13:07:31Z</time></trkpt><trkpt lat="42.668908606729815" lon="12.688404012548581"><ele>856.0</ele><time>2026-04-22T13:07:32Z</time></trkpt><trkpt lat="42.668849597446645" lon="12.688499336120216"><ele>854.0</ele><time>2026-04-22T13:07:33Z</time></trkpt><trkpt lat="42.66880505057845" lon="12.688566882202222"><ele>854.0</ele><time>2026-04-22T13:07:34Z</time></trkpt><trkpt lat="42.66872288478019" lon="12.688568613722891"><ele>854.0000000000001</ele><time>2026-04-22T13:07:35Z</time></trkpt><trkpt lat="42.66865475504745" lon="12.688621871579953"><ele>854.0000000000001</ele><time>2026-04-22T13:07:36Z</time></trkpt><trkpt lat="42.668556895083256" lon="12.688721182735325"><ele>854.0</ele><time>2026-04-22T13:07:38Z</time></trkpt><trkpt lat="42.66853252474983" lon="12.688802880960845"><ele>854.0</ele><time>2026-04-22T13:07:39Z</time></trkpt><trkpt lat="42.66845193432802" lon="12.688902587286362"><ele>854.8000000000001</ele><time>2026-04-22T13:07:41Z</time></trkpt><trkpt lat="42.66838532753906" lon="12.689005165218386"><ele>855.6000000000001</ele><time>2026-04-22T13:07:42Z</time></trkpt><trkpt lat="42.66832252178955" lon="12.689112881258385"><ele>856.4</ele><time>2026-04-22T13:07:43Z</time></trkpt><trkpt lat="42.66824350013309" lon="12.689247508795633"><ele>857.2</ele><time>2026-04-22T13:07:44Z</time></trkpt><trkpt lat="42.66817192441111" lon="12.689362623530439"><ele>858.0</ele><time>2026-04-22T13:07:45Z</time></trkpt><trkpt lat="42.66808908696876" lon="12.689449422407408"><ele>858.0</ele><time>2026-04-22T13:07:46Z</time></trkpt><trkpt lat="42.667996530116454" lon="12.689530271660752"><ele>858.0</ele><time>2026-04-22T13:07:47Z</time></trkpt><trkpt lat="42.667915860204175" lon="12.689608898309862"><ele>858.0</ele><time>2026-04-22T13:07:48Z</time></trkpt><trkpt lat="42.66786287654502" lon="12.689667055792533"><ele>858.0</ele><time>2026-04-22T13:07:49Z</time></trkpt><trkpt lat="42.667821929737464" lon="12.689786957597452"><ele>858.0</ele><time>2026-04-22T13:07:51Z</time></trkpt><trkpt lat="42.667778740161744" lon="12.689899931191821"><ele>856.8</ele><time>2026-04-22T13:07:53Z</time></trkpt><trkpt lat="42.667727164809655" lon="12.690030705759352"><ele>855.5999999999999</ele><time>2026-04-22T13:07:55Z</time></trkpt><trkpt lat="42.66769759933495" lon="12.690141883189357"><ele>854.4000000000001</ele><time>2026-04-22T13:07:57Z</time></trkpt><trkpt lat="42.667655310804015" lon="12.690290908546874"><ele>853.2</ele><time>2026-04-22T13:07:59Z</time></trkpt><trkpt lat="42.66759802799113" lon="12.690395321956133"><ele>852.0</ele><time>2026-04-22T13:08:01Z</time></trkpt><trkpt lat="42.6675098259493" lon="12.690477610850218"><ele>850.6666666666666</ele><time>2026-04-22T13:08:03Z</time></trkpt><trkpt lat="42.667423425411314" lon="12.690546049642121"><ele>849.3333333333333</ele><time>2026-04-22T13:08:05Z</time></trkpt><trkpt lat="42.66737123528728" lon="12.690596476472916"><ele>848.0</ele><time>2026-04-22T13:08:06Z</time></trkpt><trkpt lat="42.66728273215635" lon="12.690687706195455"><ele>846.6666666666666</ele><time>2026-04-22T13:08:08Z</time></trkpt><trkpt lat="42.66723421308966" lon="12.690762712698094"><ele>845.3333333333333</ele><time>2026-04-22T13:08:09Z</time></trkpt><trkpt lat="42.66719466254104" lon="12.690876836707156"><ele>844.0</ele><time>2026-04-22T13:08:10Z</time></trkpt><trkpt lat="42.667146681233646" lon="12.690976455744416"><ele>844.0</ele><time>2026-04-22T13:08:11Z</time></trkpt><trkpt lat="42.66708891039694" lon="12.691082469248585"><ele>844.0</ele><time>2026-04-22T13:08:12Z</time></trkpt><trkpt lat="42.66703420766758" lon="12.691207607638717"><ele>844.0</ele><time>2026-04-22T13:08:13Z</time></trkpt><trkpt lat="42.66698328287072" lon="12.691309651990602"><ele>844.0</ele><time>2026-04-22T13:08:14Z</time></trkpt><trkpt lat="42.66695488566744" lon="12.69140830560321"><ele>844.0</ele><time>2026-04-22T13:08:15Z</time></trkpt><trkpt lat="42.66692008206771" lon="12.691512167096295"><ele>843.0</ele><time>2026-04-22T13:08:16Z</time></trkpt><trkpt lat="42.666911913507164" lon="12.691632544411416"><ele>842.0</ele><time>2026-04-22T13:08:17Z</time></trkpt><trkpt lat="42.666945642691175" lon="12.6917669050759"><ele>841.0</ele><time>2026-04-22T13:08:18Z</time></trkpt><trkpt lat="42.66697455346362" lon="12.691879714368175"><ele>840.0</ele><time>2026-04-22T13:08:19Z</time></trkpt><trkpt lat="42.66696756920492" lon="12.692007232403327"><ele>839.0</ele><time>2026-04-22T13:08:20Z</time></trkpt><trkpt lat="42.66696753519761" lon="12.692134875229467"><ele>838.8000000000001</ele><time>2026-04-22T13:08:21Z</time></trkpt><trkpt lat="42.66698614859596" lon="12.692253728798704"><ele>838.6</ele><time>2026-04-22T13:08:22Z</time></trkpt><trkpt lat="42.667049729396865" lon="12.692363202149354"><ele>838.4</ele><time>2026-04-22T13:08:23Z</time></trkpt><trkpt lat="42.66707917962853" lon="12.692472929865485"><ele>838.2</ele><time>2026-04-22T13:08:24Z</time></trkpt><trkpt lat="42.66710173766613" lon="12.692593231199192"><ele>838.0</ele><time>2026-04-22T13:08:25Z</time></trkpt><trkpt lat="42.66710828729295" lon="12.692715546623605"><ele>838.4</ele><time>2026-04-22T13:08:26Z</time></trkpt><trkpt lat="42.667135038289985" lon="12.692846604896353"><ele>838.8</ele><time>2026-04-22T13:08:27Z</time></trkpt><trkpt lat="42.66721319232972" lon="12.692933326712977"><ele>839.2</ele><time>2026-04-22T13:08:28Z</time></trkpt><trkpt lat="42.66725818672686" lon="12.693008613318089"><ele>839.6</ele><time>2026-04-22T13:08:29Z</time></trkpt><trkpt lat="42.6672890822076" lon="12.693147073415775"><ele>840.0</ele><time>2026-04-22T13:08:31Z</time></trkpt><trkpt lat="42.66724867626143" lon="12.693265222989329"><ele>840.0</ele><time>2026-04-22T13:08:32Z</time></trkpt><trkpt lat="42.667251726575344" lon="12.693388902550225"><ele>840.0</ele><time>2026-04-22T13:08:33Z</time></trkpt><trkpt lat="42.6672864707819" lon="12.693544974110402"><ele>840.0</ele><time>2026-04-22T13:08:34Z</time></trkpt><trkpt lat="42.66731984679142" lon="12.693673696832185"><ele>840.0</ele><time>2026-04-22T13:08:35Z</time></trkpt><trkpt lat="42.66733685000904" lon="12.693782671478536"><ele>840.0</ele><time>2026-04-22T13:08:36Z</time></trkpt><trkpt lat="42.667338749288575" lon="12.69388576167919"><ele>838.8</ele><time>2026-04-22T13:08:37Z</time></trkpt><trkpt lat="42.66733513885028" lon="12.693987698506504"><ele>837.6</ele><time>2026-04-22T13:08:38Z</time></trkpt><trkpt lat="42.667266608035085" lon="12.694142887074737"><ele>836.4000000000001</ele><time>2026-04-22T13:08:40Z</time></trkpt><trkpt lat="42.66716023929508" lon="12.694243449148752"><ele>835.2</ele><time>2026-04-22T13:08:42Z</time></trkpt><trkpt lat="42.667080984949756" lon="12.69434596744361"><ele>834.0</ele><time>2026-04-22T13:08:43Z</time></trkpt><trkpt lat="42.66699789279732" lon="12.694421634985215"><ele>832.8000000000001</ele><time>2026-04-22T13:08:44Z</time></trkpt><trkpt lat="42.6669338127328" lon="12.69449627679488"><ele>831.6</ele><time>2026-04-22T13:08:45Z</time></trkpt><trkpt lat="42.66685776427923" lon="12.69453610500116"><ele>830.4</ele><time>2026-04-22T13:08:46Z</time></trkpt><trkpt lat="42.666777500941166" lon="12.694583593196546"><ele>829.2</ele><time>2026-04-22T13:08:47Z</time></trkpt><trkpt lat="42.66669499057517" lon="12.6946551140796"><ele>828.0</ele><time>2026-04-22T13:08:48Z</time></trkpt><trkpt lat="42.66659166570901" lon="12.694708491240291"><ele>828.0</ele><time>2026-04-22T13:08:49Z</time></trkpt><trkpt lat="42.666500737160646" lon="12.69475932991747"><ele>828.0</ele><time>2026-04-22T13:08:50Z</time></trkpt><trkpt lat="42.66640276627134" lon="12.694769923971023"><ele>828.0</ele><time>2026-04-22T13:08:52Z</time></trkpt><trkpt lat="42.66629068087146" lon="12.694773705151515"><ele>828.0</ele><time>2026-04-22T13:08:54.001Z</time></trkpt><trkpt lat="42.666218555695046" lon="12.69475987389224"><ele>828.0</ele><time>2026-04-22T13:08:55.001Z</time></trkpt><trkpt lat="42.66613986904381" lon="12.694757913670456"><ele>828.3333333333334</ele><time>2026-04-22T13:08:56.001Z</time></trkpt><trkpt lat="42.66607093468042" lon="12.694772514590344"><ele>828.6666666666667</ele><time>2026-04-22T13:08:57.001Z</time></trkpt><trkpt lat="42.666002057268855" lon="12.694818569881335"><ele>829.0</ele><time>2026-04-22T13:08:58.001Z</time></trkpt><trkpt lat="42.66593689706809" lon="12.694913160559818"><ele>829.3333333333334</ele><time>2026-04-22T13:08:59.001Z</time></trkpt><trkpt lat="42.66587410140572" lon="12.694998575734136"><ele>829.6666666666667</ele><time>2026-04-22T13:09:00.001Z</time></trkpt><trkpt lat="42.66578780828985" lon="12.695098749232002"><ele>830.0</ele><time>2026-04-22T13:09:01.001Z</time></trkpt><trkpt lat="42.665733386437914" lon="12.695184706471705"><ele>828.8333333333334</ele><time>2026-04-22T13:09:02.001Z</time></trkpt><trkpt lat="42.66569075396914" lon="12.695286134523396"><ele>827.6666666666667</ele><time>2026-04-22T13:09:03.001Z</time></trkpt><trkpt lat="42.6656302332273" lon="12.695371068589935"><ele>826.5</ele><time>2026-04-22T13:09:04.001Z</time></trkpt><trkpt lat="42.665568989889934" lon="12.695410158557982"><ele>825.3333333333333</ele><time>2026-04-22T13:09:05.001Z</time></trkpt><trkpt lat="42.665508824898836" lon="12.695452826173474"><ele>824.1666666666666</ele><time>2026-04-22T13:09:06.001Z</time></trkpt><trkpt lat="42.665453031709475" lon="12.695503738905797"><ele>823.0</ele><time>2026-04-22T13:09:07.001Z</time></trkpt><trkpt lat="42.66538644207396" lon="12.695551276342627"><ele>823.0</ele><time>2026-04-22T13:09:08.001Z</time></trkpt><trkpt lat="42.66532384473148" lon="12.695569661522178"><ele>823.0</ele><time>2026-04-22T13:09:09.001Z</time></trkpt><trkpt lat="42.665257216378045" lon="12.695531584595008"><ele>823.0</ele><time>2026-04-22T13:09:10.001Z</time></trkpt><trkpt lat="42.66514653766708" lon="12.695496377914957"><ele>823.0</ele><time>2026-04-22T13:09:11.001Z</time></trkpt><trkpt lat="42.66502532405511" lon="12.695448278483395"><ele>823.0</ele><time>2026-04-22T13:09:12.001Z</time></trkpt><trkpt lat="42.664906027159894" lon="12.695401104024945"><ele>825.2</ele><time>2026-04-22T13:09:13.001Z</time></trkpt><trkpt lat="42.66479969426049" lon="12.695360875223104"><ele>827.4</ele><time>2026-04-22T13:09:14.001Z</time></trkpt><trkpt lat="42.66470110086671" lon="12.695351171945966"><ele>829.6</ele><time>2026-04-22T13:09:15.001Z</time></trkpt><trkpt lat="42.664613736944986" lon="12.695341762448008"><ele>831.8000000000001</ele><time>2026-04-22T13:09:16.001Z</time></trkpt><trkpt lat="42.66451607330638" lon="12.695339904197517"><ele>834.0</ele><time>2026-04-22T13:09:17.001Z</time></trkpt><trkpt lat="42.664423524063" lon="12.69535292642998"><ele>834.2</ele><time>2026-04-22T13:09:18.001Z</time></trkpt><trkpt lat="42.664344691094044" lon="12.695322178974697"><ele>834.4000000000001</ele><time>2026-04-22T13:09:19.001Z</time></trkpt><trkpt lat="42.66427786472537" lon="12.695317449866078"><ele>834.6</ele><time>2026-04-22T13:09:21.001Z</time></trkpt><trkpt lat="42.66432383261791" lon="12.695253407528535"><ele>834.8</ele><time>2026-04-22T13:09:41Z</time></trkpt><trkpt lat="42.6643903735713" lon="12.695238454494477"><ele>835.0</ele><time>2026-04-22T13:09:44Z</time></trkpt><trkpt lat="42.66439184523264" lon="12.69498051944537"><ele>831.6</ele><time>2026-04-22T13:09:45Z</time></trkpt><trkpt lat="42.66432513041899" lon="12.694857587069372"><ele>828.2</ele><time>2026-04-22T13:09:46Z</time></trkpt><trkpt lat="42.664206413440574" lon="12.69480295873943"><ele>824.8</ele><time>2026-04-22T13:09:48Z</time></trkpt><trkpt lat="42.664112429825025" lon="12.694771261033086"><ele>821.4</ele><time>2026-04-22T13:09:50Z</time></trkpt><trkpt lat="42.66401519925112" lon="12.694699381341788"><ele>818.0</ele><time>2026-04-22T13:09:52Z</time></trkpt><trkpt lat="42.66395422317626" lon="12.69454345184078"><ele>818.0</ele><time>2026-04-22T13:09:54Z</time></trkpt><trkpt lat="42.66390310104867" lon="12.694406135591155"><ele>818.0</ele><time>2026-04-22T13:09:56Z</time></trkpt><trkpt lat="42.66380429450284" lon="12.694341594381434"><ele>818.0</ele><time>2026-04-22T13:09:58Z</time></trkpt><trkpt lat="42.66373408350715" lon="12.694408756546135"><ele>818.0</ele><time>2026-04-22T13:09:59Z</time></trkpt><trkpt lat="42.66365788273743" lon="12.694446544517673"><ele>818.0</ele><time>2026-04-22T13:10:00Z</time></trkpt><trkpt lat="42.663584337967535" lon="12.694458728818514"><ele>816.1666666666667</ele><time>2026-04-22T13:10:01Z</time></trkpt><trkpt lat="42.663503113682104" lon="12.694445319388569"><ele>814.3333333333334</ele><time>2026-04-22T13:10:02Z</time></trkpt><trkpt lat="42.66342788626384" lon="12.69442435381376"><ele>812.5</ele><time>2026-04-22T13:10:03Z</time></trkpt><trkpt lat="42.66334597312822" lon="12.694378426235682"><ele>810.6666666666667</ele><time>2026-04-22T13:10:04Z</time></trkpt><trkpt lat="42.66327188253584" lon="12.694318438316582"><ele>808.8333333333334</ele><time>2026-04-22T13:10:05Z</time></trkpt><trkpt lat="42.66320594635741" lon="12.694246294265836"><ele>807.0</ele><time>2026-04-22T13:10:06Z</time></trkpt><trkpt lat="42.66313799192898" lon="12.694163825870564"><ele>806.0</ele><time>2026-04-22T13:10:07Z</time></trkpt><trkpt lat="42.663075694840614" lon="12.694098184087373"><ele>805.0</ele><time>2026-04-22T13:10:08Z</time></trkpt><trkpt lat="42.663014499668414" lon="12.694017845997683"><ele>804.0</ele><time>2026-04-22T13:10:09Z</time></trkpt><trkpt lat="42.66296462089424" lon="12.693942862836135"><ele>803.0</ele><time>2026-04-22T13:10:10Z</time></trkpt><trkpt lat="42.66293922810567" lon="12.693839390881513"><ele>802.0</ele><time>2026-04-22T13:10:11Z</time></trkpt><trkpt lat="42.66290613739644" lon="12.693743694381773"><ele>801.0</ele><time>2026-04-22T13:10:12Z</time></trkpt><trkpt lat="42.662902440544016" lon="12.693631326991806"><ele>802.1666666666666</ele><time>2026-04-22T13:10:13Z</time></trkpt><trkpt lat="42.66293988394583" lon="12.69352439923048"><ele>803.3333333333333</ele><time>2026-04-22T13:10:14Z</time></trkpt><trkpt lat="42.66295088351908" lon="12.693414125869097"><ele>804.5</ele><time>2026-04-22T13:10:15Z</time></trkpt><trkpt lat="42.66296075167184" lon="12.69329863682185"><ele>805.6666666666666</ele><time>2026-04-22T13:10:16Z</time></trkpt><trkpt lat="42.66294502259798" lon="12.693203168545203"><ele>806.8333333333333</ele><time>2026-04-22T13:10:17Z</time></trkpt><trkpt lat="42.66286419758106" lon="12.693119641520859"><ele>808.0</ele><time>2026-04-22T13:10:18Z</time></trkpt><trkpt lat="42.66281703215465" lon="12.693046377875163"><ele>805.8333333333333</ele><time>2026-04-22T13:10:19Z</time></trkpt><trkpt lat="42.662770983272" lon="12.692963593199059"><ele>803.6666666666666</ele><time>2026-04-22T13:10:20Z</time></trkpt><trkpt lat="42.66272178174605" lon="12.692909415735828"><ele>801.5</ele><time>2026-04-22T13:10:21Z</time></trkpt><trkpt lat="42.66263936615788" lon="12.69290556975031"><ele>799.3333333333333</ele><time>2026-04-22T13:10:23Z</time></trkpt><trkpt lat="42.66259944267674" lon="12.693027809395247"><ele>797.1666666666666</ele><time>2026-04-22T13:10:25Z</time></trkpt><trkpt lat="42.66258029986198" lon="12.693133840158223"><ele>795.0</ele><time>2026-04-22T13:10:26Z</time></trkpt><trkpt lat="42.662568631476496" lon="12.693234394329748"><ele>795.0</ele><time>2026-04-22T13:10:27Z</time></trkpt><trkpt lat="42.66255571449604" lon="12.693337435704395"><ele>795.0</ele><time>2026-04-22T13:10:28Z</time></trkpt><trkpt lat="42.662507934302354" lon="12.69341952145631"><ele>795.0</ele><time>2026-04-22T13:10:29Z</time></trkpt><trkpt lat="42.66247538091759" lon="12.693516237736672"><ele>795.0</ele><time>2026-04-22T13:10:30Z</time></trkpt><trkpt lat="42.662442393704936" lon="12.69362418850645"><ele>795.0</ele><time>2026-04-22T13:10:31Z</time></trkpt><trkpt lat="42.66240517187504" lon="12.693730855270001"><ele>795.0</ele><time>2026-04-22T13:10:32Z</time></trkpt><trkpt lat="42.66235596324548" lon="12.693840788601172"><ele>793.8333333333334</ele><time>2026-04-22T13:10:33Z</time></trkpt><trkpt lat="42.66230656085333" lon="12.693937679873219"><ele>792.6666666666667</ele><time>2026-04-22T13:10:34Z</time></trkpt><trkpt lat="42.66222124158901" lon="12.693981783923475"><ele>791.5</ele><time>2026-04-22T13:10:35Z</time></trkpt><trkpt lat="42.66213978707951" lon="12.694023631654971"><ele>790.3333333333334</ele><time>2026-04-22T13:10:36Z</time></trkpt><trkpt lat="42.66206748420934" lon="12.694017619054511"><ele>789.1666666666667</ele><time>2026-04-22T13:10:37Z</time></trkpt><trkpt lat="42.66198508365433" lon="12.694011860280844"><ele>788.0</ele><time>2026-04-22T13:10:38Z</time></trkpt><trkpt lat="42.661888237116294" lon="12.69400704048075"><ele>788.0</ele><time>2026-04-22T13:10:39Z</time></trkpt><trkpt lat="42.661779445980656" lon="12.694003138626327"><ele>788.0</ele><time>2026-04-22T13:10:40Z</time></trkpt><trkpt lat="42.66167272366992" lon="12.694000896565916"><ele>788.0</ele><time>2026-04-22T13:10:41Z</time></trkpt><trkpt lat="42.66156267289114" lon="12.693994255778206"><ele>788.0</ele><time>2026-04-22T13:10:42Z</time></trkpt><trkpt lat="42.66144784459557" lon="12.693984626262115"><ele>788.0</ele><time>2026-04-22T13:10:43Z</time></trkpt><trkpt lat="42.66133207930579" lon="12.69397199887971"><ele>788.0</ele><time>2026-04-22T13:10:44Z</time></trkpt><trkpt lat="42.66122322238461" lon="12.693953360471092"><ele>788.0</ele><time>2026-04-22T13:10:45Z</time></trkpt><trkpt lat="42.66112627162487" lon="12.693943058253971"><ele>788.0</ele><time>2026-04-22T13:10:46Z</time></trkpt><trkpt lat="42.66103849078711" lon="12.693903916036133"><ele>788.0</ele><time>2026-04-22T13:10:47Z</time></trkpt><trkpt lat="42.660951654791106" lon="12.69385964136716"><ele>788.0</ele><time>2026-04-22T13:10:48Z</time></trkpt><trkpt lat="42.66088242394339" lon="12.693780637188466"><ele>785.8</ele><time>2026-04-22T13:10:49Z</time></trkpt><trkpt lat="42.66081922415557" lon="12.693714731689012"><ele>783.5999999999999</ele><time>2026-04-22T13:10:50Z</time></trkpt><trkpt lat="42.66075731683891" lon="12.693620585621487"><ele>781.4000000000001</ele><time>2026-04-22T13:10:51Z</time></trkpt><trkpt lat="42.660662430438244" lon="12.693545434144166"><ele>779.2</ele><time>2026-04-22T13:10:52Z</time></trkpt><trkpt lat="42.66056575770495" lon="12.693462775899432"><ele>777.0</ele><time>2026-04-22T13:10:53Z</time></trkpt><trkpt lat="42.6604723656925" lon="12.693391203896189"><ele>781.4000000000001</ele><time>2026-04-22T13:10:54Z</time></trkpt><trkpt lat="42.66038611927455" lon="12.693314646735057"><ele>785.8000000000001</ele><time>2026-04-22T13:10:55Z</time></trkpt><trkpt lat="42.660287320919295" lon="12.693247105442492"><ele>790.2</ele><time>2026-04-22T13:10:56Z</time></trkpt><trkpt lat="42.66022339175225" lon="12.693185144581904"><ele>794.6</ele><time>2026-04-22T13:10:57Z</time></trkpt><trkpt lat="42.66016661697341" lon="12.693143136602467"><ele>799.0</ele><time>2026-04-22T13:10:58Z</time></trkpt><trkpt lat="42.6600319819419" lon="12.693189782578582"><ele>799.0</ele><time>2026-04-22T13:11:00.001Z</time></trkpt><trkpt lat="42.65987866865341" lon="12.693442004982701"><ele>799.0</ele><time>2026-04-22T13:11:02.001Z</time></trkpt><trkpt lat="42.65980330810038" lon="12.693512653558809"><ele>799.0</ele><time>2026-04-22T13:11:03.001Z</time></trkpt><trkpt lat="42.65971449668662" lon="12.693543032809547"><ele>799.0</ele><time>2026-04-22T13:11:04.001Z</time></trkpt><trkpt lat="42.65959580999716" lon="12.693585003060736"><ele>797.4000000000001</ele><time>2026-04-22T13:11:05.001Z</time></trkpt><trkpt lat="42.65946763022004" lon="12.693636515017946"><ele>795.8</ele><time>2026-04-22T13:11:06.001Z</time></trkpt><trkpt lat="42.65936276855877" lon="12.6937067975288"><ele>794.2</ele><time>2026-04-22T13:11:07.001Z</time></trkpt><trkpt lat="42.65927812985337" lon="12.693762057775912"><ele>792.5999999999999</ele><time>2026-04-22T13:11:08.001Z</time></trkpt><trkpt lat="42.6592097245844" lon="12.693804564149865"><ele>791.0</ele><time>2026-04-22T13:11:09.001Z</time></trkpt><trkpt lat="42.65911358341429" lon="12.693761993416546"><ele>791.0</ele><time>2026-04-22T13:11:11.001Z</time></trkpt><trkpt lat="42.65906065145699" lon="12.693694112465078"><ele>791.0</ele><time>2026-04-22T13:11:12.001Z</time></trkpt><trkpt lat="42.65898766868366" lon="12.693581660629427"><ele>791.0</ele><time>2026-04-22T13:11:13.001Z</time></trkpt><trkpt lat="42.658915482136294" lon="12.693449058040578"><ele>791.0</ele><time>2026-04-22T13:11:14.001Z</time></trkpt><trkpt lat="42.658833429381104" lon="12.693320965771703"><ele>791.0</ele><time>2026-04-22T13:11:15.001Z</time></trkpt><trkpt lat="42.65875145312731" lon="12.693189438643465"><ele>790.25</ele><time>2026-04-22T13:11:16.001Z</time></trkpt><trkpt lat="42.658667482277025" lon="12.693054936917086"><ele>789.5</ele><time>2026-04-22T13:11:17.001Z</time></trkpt><trkpt lat="42.65858341649765" lon="12.692920613977568"><ele>788.75</ele><time>2026-04-22T13:11:18.001Z</time></trkpt><trkpt lat="42.65849787811079" lon="12.692785203123634"><ele>788.0</ele><time>2026-04-22T13:11:19.001Z</time></trkpt><trkpt lat="42.65841279591426" lon="12.692654753077734"><ele>788.0</ele><time>2026-04-22T13:11:20.001Z</time></trkpt><trkpt lat="42.658337904373845" lon="12.692542715650776"><ele>788.0</ele><time>2026-04-22T13:11:21.001Z</time></trkpt><trkpt lat="42.65826279374536" lon="12.692444757620637"><ele>788.0</ele><time>2026-04-22T13:11:22.001Z</time></trkpt><trkpt lat="42.65818758965909" lon="12.692375267016596"><ele>788.0</ele><time>2026-04-22T13:11:23.001Z</time></trkpt><trkpt lat="42.658099953009575" lon="12.69233386729791"><ele>788.0</ele><time>2026-04-22T13:11:24.001Z</time></trkpt><trkpt lat="42.657995303362576" lon="12.69231397387888"><ele>788.0</ele><time>2026-04-22T13:11:25.001Z</time></trkpt><trkpt lat="42.65788837442557" lon="12.692311881542075"><ele>788.0</ele><time>2026-04-22T13:11:26.001Z</time></trkpt><trkpt lat="42.657768501419724" lon="12.692321959823417"><ele>788.0</ele><time>2026-04-22T13:11:27.001Z</time></trkpt><trkpt lat="42.6576545966777" lon="12.692316630945847"><ele>788.0</ele><time>2026-04-22T13:11:28.001Z</time></trkpt><trkpt lat="42.65754290022981" lon="12.692275642362468"><ele>786.4</ele><time>2026-04-22T13:11:29.001Z</time></trkpt><trkpt lat="42.65743205717417" lon="12.692228393610637"><ele>784.8</ele><time>2026-04-22T13:11:30.001Z</time></trkpt><trkpt lat="42.6573196571489" lon="12.692184307316671"><ele>783.2</ele><time>2026-04-22T13:11:31.001Z</time></trkpt><trkpt lat="42.65721368892979" lon="12.692193470533622"><ele>781.6</ele><time>2026-04-22T13:11:32.001Z</time></trkpt><trkpt lat="42.6571376741118" lon="12.692162461893666"><ele>780.0</ele><time>2026-04-22T13:11:33.001Z</time></trkpt><trkpt lat="42.65705852991784" lon="12.692145320244997"><ele>780.0</ele><time>2026-04-22T13:11:34.001Z</time></trkpt><trkpt lat="42.656953865373374" lon="12.692050579475678"><ele>780.0</ele><time>2026-04-22T13:11:36.001Z</time></trkpt><trkpt lat="42.656885333310846" lon="12.692081230847876"><ele>780.0</ele><time>2026-04-22T13:11:37Z</time></trkpt><trkpt lat="42.65676952406644" lon="12.692104664043272"><ele>780.0</ele><time>2026-04-22T13:11:39Z</time></trkpt><trkpt lat="42.65670632171262" lon="12.692128335294893"><ele>780.0</ele><time>2026-04-22T13:11:40Z</time></trkpt><trkpt lat="42.65663240107664" lon="12.692162676128843"><ele>783.0</ele><time>2026-04-22T13:11:41Z</time></trkpt><trkpt lat="42.65656477917179" lon="12.692218765785483"><ele>786.0</ele><time>2026-04-22T13:11:42Z</time></trkpt><trkpt lat="42.656552346325206" lon="12.692397600734862"><ele>789.0</ele><time>2026-04-22T13:11:44Z</time></trkpt><trkpt lat="42.656594364348635" lon="12.69250635917278"><ele>792.0</ele><time>2026-04-22T13:11:46Z</time></trkpt><trkpt lat="42.65669581177144" lon="12.692602976027223"><ele>795.0</ele><time>2026-04-22T13:11:48Z</time></trkpt><trkpt lat="42.65674601181604" lon="12.692695979054164"><ele>793.4</ele><time>2026-04-22T13:11:49Z</time></trkpt><trkpt lat="42.65677908754016" lon="12.692820074917702"><ele>791.8</ele><time>2026-04-22T13:11:50Z</time></trkpt><trkpt lat="42.65678641164174" lon="12.69293512055927"><ele>790.2</ele><time>2026-04-22T13:11:51Z</time></trkpt><trkpt lat="42.65679913368482" lon="12.693056061704047"><ele>788.6</ele><time>2026-04-22T13:11:52Z</time></trkpt><trkpt lat="42.65681347543375" lon="12.693192672434751"><ele>787.0</ele><time>2026-04-22T13:11:53Z</time></trkpt><trkpt lat="42.65682692205048" lon="12.693340854592522"><ele>787.0</ele><time>2026-04-22T13:11:54Z</time></trkpt><trkpt lat="42.65683565406724" lon="12.693487916120748"><ele>787.0</ele><time>2026-04-22T13:11:55Z</time></trkpt><trkpt lat="42.65683483227177" lon="12.693625935949147"><ele>787.0</ele><time>2026-04-22T13:11:56Z</time></trkpt><trkpt lat="42.65682436406553" lon="12.693757205133842"><ele>787.0</ele><time>2026-04-22T13:11:57Z</time></trkpt><trkpt lat="42.65679848280617" lon="12.693884748970383"><ele>787.0</ele><time>2026-04-22T13:11:58Z</time></trkpt><trkpt lat="42.656742368061025" lon="12.693960700391676"><ele>785.4000000000001</ele><time>2026-04-22T13:11:59Z</time></trkpt><trkpt lat="42.65669342212599" lon="12.69401919252978"><ele>783.8000000000001</ele><time>2026-04-22T13:12:00Z</time></trkpt><trkpt lat="42.65661401189428" lon="12.69402366126261"><ele>782.2</ele><time>2026-04-22T13:12:01Z</time></trkpt><trkpt lat="42.656511214359405" lon="12.694057602725787"><ele>780.6</ele><time>2026-04-22T13:12:02Z</time></trkpt><trkpt lat="42.656388148203305" lon="12.694126261941603"><ele>779.0</ele><time>2026-04-22T13:12:03Z</time></trkpt><trkpt lat="42.65626785334049" lon="12.694237537504275"><ele>779.0</ele><time>2026-04-22T13:12:04Z</time></trkpt><trkpt lat="42.65612767350742" lon="12.694299197341577"><ele>779.0</ele><time>2026-04-22T13:12:05Z</time></trkpt><trkpt lat="42.65599686156278" lon="12.694373982799128"><ele>779.0</ele><time>2026-04-22T13:12:06Z</time></trkpt><trkpt lat="42.65587123931666" lon="12.694444421977408"><ele>779.0</ele><time>2026-04-22T13:12:07Z</time></trkpt><trkpt lat="42.65574125713728" lon="12.694527065907705"><ele>780.75</ele><time>2026-04-22T13:12:08Z</time></trkpt><trkpt lat="42.65560522765184" lon="12.694618758157786"><ele>782.5</ele><time>2026-04-22T13:12:09Z</time></trkpt><trkpt lat="42.65546221484081" lon="12.694679078090582"><ele>784.25</ele><time>2026-04-22T13:12:10Z</time></trkpt><trkpt lat="42.6553255141102" lon="12.694751253859755"><ele>786.0</ele><time>2026-04-22T13:12:11Z</time></trkpt><trkpt lat="42.65519265608364" lon="12.694811608665919"><ele>786.0</ele><time>2026-04-22T13:12:12Z</time></trkpt><trkpt lat="42.655082233211374" lon="12.694854591016487"><ele>786.0</ele><time>2026-04-22T13:12:13Z</time></trkpt><trkpt lat="42.65496800778606" lon="12.694896489827151"><ele>786.0</ele><time>2026-04-22T13:12:14Z</time></trkpt><trkpt lat="42.65484156407716" lon="12.694945299553545"><ele>786.0</ele><time>2026-04-22T13:12:15Z</time></trkpt><trkpt lat="42.65471190433728" lon="12.695010683594"><ele>786.0</ele><time>2026-04-22T13:12:16Z</time></trkpt><trkpt lat="42.65458751348731" lon="12.695052825088636"><ele>786.0</ele><time>2026-04-22T13:12:17Z</time></trkpt><trkpt lat="42.654474547857774" lon="12.695138135418711"><ele>786.0</ele><time>2026-04-22T13:12:18Z</time></trkpt><trkpt lat="42.654352994386045" lon="12.69523692496773"><ele>786.0</ele><time>2026-04-22T13:12:19Z</time></trkpt><trkpt lat="42.654232427756234" lon="12.695332720360721"><ele>786.75</ele><time>2026-04-22T13:12:20Z</time></trkpt><trkpt lat="42.65412096703425" lon="12.695422808950541"><ele>787.5</ele><time>2026-04-22T13:12:21Z</time></trkpt><trkpt lat="42.654021258910824" lon="12.695512721362393"><ele>788.25</ele><time>2026-04-22T13:12:22Z</time></trkpt><trkpt lat="42.65393622909502" lon="12.695594942831608"><ele>789.0</ele><time>2026-04-22T13:12:23Z</time></trkpt><trkpt lat="42.653856722541" lon="12.69569726489002"><ele>789.0</ele><time>2026-04-22T13:12:24Z</time></trkpt><trkpt lat="42.653773381047124" lon="12.695764438646753"><ele>789.0</ele><time>2026-04-22T13:12:25Z</time></trkpt><trkpt lat="42.65371460513715" lon="12.695821950724195"><ele>789.0</ele><time>2026-04-22T13:12:26Z</time></trkpt><trkpt lat="42.65365799086797" lon="12.695876716516098"><ele>789.0</ele><time>2026-04-22T13:12:27Z</time></trkpt><trkpt lat="42.653644384540215" lon="12.69601461127229"><ele>789.0</ele><time>2026-04-22T13:12:28Z</time></trkpt><trkpt lat="42.653590530346136" lon="12.696137104209319"><ele>789.0</ele><time>2026-04-22T13:12:29Z</time></trkpt><trkpt lat="42.6535280257931" lon="12.696280798565121"><ele>786.3333333333333</ele><time>2026-04-22T13:12:30Z</time></trkpt><trkpt lat="42.6534421874768" lon="12.696434798956822"><ele>783.6666666666666</ele><time>2026-04-22T13:12:31Z</time></trkpt><trkpt lat="42.65334425862343" lon="12.696597609592375"><ele>781.0</ele><time>2026-04-22T13:12:32Z</time></trkpt><trkpt lat="42.653240589967275" lon="12.69677262553893"><ele>781.6666666666666</ele><time>2026-04-22T13:12:33Z</time></trkpt><trkpt lat="42.65313418444736" lon="12.696962499563616"><ele>782.3333333333333</ele><time>2026-04-22T13:12:34Z</time></trkpt><trkpt lat="42.65303476489751" lon="12.697145943495403"><ele>783.0</ele><time>2026-04-22T13:12:35Z</time></trkpt><trkpt lat="42.652956215406824" lon="12.69732003997727"><ele>783.0</ele><time>2026-04-22T13:12:36Z</time></trkpt><trkpt lat="42.652904163689044" lon="12.697503286386857"><ele>783.0</ele><time>2026-04-22T13:12:37Z</time></trkpt><trkpt lat="42.652879472403654" lon="12.697702369959185"><ele>783.0</ele><time>2026-04-22T13:12:38Z</time></trkpt><trkpt lat="42.652870778575746" lon="12.697913296838701"><ele>783.0</ele><time>2026-04-22T13:12:39Z</time></trkpt><trkpt lat="42.652866738246914" lon="12.698141372104374"><ele>782.6666666666667</ele><time>2026-04-22T13:12:40Z</time></trkpt><trkpt lat="42.652853684702485" lon="12.698354210800158"><ele>782.3333333333334</ele><time>2026-04-22T13:12:41Z</time></trkpt><trkpt lat="42.652820333271926" lon="12.69857820185276"><ele>782.0</ele><time>2026-04-22T13:12:42Z</time></trkpt><trkpt lat="42.65276708416837" lon="12.698796864276066"><ele>780.0</ele><time>2026-04-22T13:12:43Z</time></trkpt><trkpt lat="42.6526970830648" lon="12.698999222015404"><ele>778.0</ele><time>2026-04-22T13:12:44Z</time></trkpt><trkpt lat="42.652631443504035" lon="12.699175317317478"><ele>776.0</ele><time>2026-04-22T13:12:45Z</time></trkpt><trkpt lat="42.65259518520738" lon="12.699331029465966"><ele>774.0</ele><time>2026-04-22T13:12:46Z</time></trkpt><trkpt lat="42.6525972733127" lon="12.699460980624774"><ele>773.4000000000001</ele><time>2026-04-22T13:12:47Z</time></trkpt><trkpt lat="42.65263692100366" lon="12.699572485858399"><ele>772.8</ele><time>2026-04-22T13:12:48Z</time></trkpt><trkpt lat="42.65270551168983" lon="12.699670819932505"><ele>772.2</ele><time>2026-04-22T13:12:49Z</time></trkpt><trkpt lat="42.652787841895915" lon="12.69976579640434"><ele>771.5999999999999</ele><time>2026-04-22T13:12:50Z</time></trkpt><trkpt lat="42.65285408899105" lon="12.699886668722344"><ele>771.0</ele><time>2026-04-22T13:12:51Z</time></trkpt><trkpt lat="42.65285672153135" lon="12.700050848251394"><ele>773.25</ele><time>2026-04-22T13:12:52Z</time></trkpt><trkpt lat="42.652840939792355" lon="12.700225204242448"><ele>775.5</ele><time>2026-04-22T13:12:53Z</time></trkpt><trkpt lat="42.65282777405423" lon="12.70042108165379"><ele>777.75</ele><time>2026-04-22T13:12:54Z</time></trkpt><trkpt lat="42.65280122016507" lon="12.70062677362035"><ele>780.0</ele><time>2026-04-22T13:12:55Z</time></trkpt><trkpt lat="42.65278978145574" lon="12.700843151268886"><ele>775.3333333333334</ele><time>2026-04-22T13:12:56Z</time></trkpt><trkpt lat="42.652786606469604" lon="12.701071968508536"><ele>770.6666666666667</ele><time>2026-04-22T13:12:57Z</time></trkpt><trkpt lat="42.65278246672214" lon="12.701287050730704"><ele>766.0</ele><time>2026-04-22T13:12:58Z</time></trkpt><trkpt lat="42.652781048685235" lon="12.701518235929118"><ele>766.0</ele><time>2026-04-22T13:12:59Z</time></trkpt><trkpt lat="42.65277984914213" lon="12.701751512896491"><ele>766.0</ele><time>2026-04-22T13:13:00Z</time></trkpt><trkpt lat="42.65277578037909" lon="12.70199476854922"><ele>766.0</ele><time>2026-04-22T13:13:01Z</time></trkpt><trkpt lat="42.652760701088575" lon="12.702241619338"><ele>765.6666666666667</ele><time>2026-04-22T13:13:02Z</time></trkpt><trkpt lat="42.65277535118403" lon="12.702481227418449"><ele>765.3333333333334</ele><time>2026-04-22T13:13:03Z</time></trkpt><trkpt lat="42.6528163554311" lon="12.702721924768447"><ele>765.0</ele><time>2026-04-22T13:13:04Z</time></trkpt><trkpt lat="42.652880553067206" lon="12.702937061300041"><ele>765.5</ele><time>2026-04-22T13:13:05Z</time></trkpt><trkpt lat="42.65292623038416" lon="12.70313827273401"><ele>766.0</ele><time>2026-04-22T13:13:06.001Z</time></trkpt><trkpt lat="42.652989659215926" lon="12.703313400115993"><ele>766.5</ele><time>2026-04-22T13:13:07.001Z</time></trkpt><trkpt lat="42.653059337503514" lon="12.703468091221"><ele>767.0</ele><time>2026-04-22T13:13:08.001Z</time></trkpt><trkpt lat="42.65318572128833" lon="12.703559493741515"><ele>764.3333333333333</ele><time>2026-04-22T13:13:09.001Z</time></trkpt><trkpt lat="42.65331938321449" lon="12.703646077804969"><ele>761.6666666666666</ele><time>2026-04-22T13:13:10.001Z</time></trkpt><trkpt lat="42.653470265212974" lon="12.703734527132388"><ele>759.0</ele><time>2026-04-22T13:13:11.001Z</time></trkpt><trkpt lat="42.65362653505026" lon="12.703843117760337"><ele>758.0</ele><time>2026-04-22T13:13:12.001Z</time></trkpt><trkpt lat="42.6537857717974" lon="12.70396233881597"><ele>757.0</ele><time>2026-04-22T13:13:13.001Z</time></trkpt><trkpt lat="42.653945114591735" lon="12.704094980079422"><ele>756.0</ele><time>2026-04-22T13:13:14.001Z</time></trkpt><trkpt lat="42.65410053600064" lon="12.704223637550818"><ele>756.0</ele><time>2026-04-22T13:13:15.001Z</time></trkpt><trkpt lat="42.65424798105092" lon="12.704353451727581"><ele>756.0</ele><time>2026-04-22T13:13:16.001Z</time></trkpt><trkpt lat="42.65441018126118" lon="12.704429681745356"><ele>756.0</ele><time>2026-04-22T13:13:17.001Z</time></trkpt><trkpt lat="42.654580428757086" lon="12.704459684950375"><ele>757.6666666666666</ele><time>2026-04-22T13:13:18.001Z</time></trkpt><trkpt lat="42.6547512224877" lon="12.70447045818048"><ele>759.3333333333333</ele><time>2026-04-22T13:13:19.001Z</time></trkpt><trkpt lat="42.654922242415545" lon="12.704474081281514"><ele>761.0</ele><time>2026-04-22T13:13:20.001Z</time></trkpt><trkpt lat="42.655096899506276" lon="12.704480717840346"><ele>761.0</ele><time>2026-04-22T13:13:21.001Z</time></trkpt><trkpt lat="42.65526349396825" lon="12.704477955590567"><ele>761.0</ele><time>2026-04-22T13:13:22.001Z</time></trkpt><trkpt lat="42.65540941674459" lon="12.704474863315696"><ele>761.0</ele><time>2026-04-22T13:13:23.001Z</time></trkpt><trkpt lat="42.65553056067103" lon="12.704494363969388"><ele>761.0</ele><time>2026-04-22T13:13:24.001Z</time></trkpt><trkpt lat="42.65561775259585" lon="12.704546634062547"><ele>760.1999999999999</ele><time>2026-04-22T13:13:25.001Z</time></trkpt><trkpt lat="42.65567510822506" lon="12.704631812737452"><ele>759.4</ele><time>2026-04-22T13:13:26.001Z</time></trkpt><trkpt lat="42.65571718750058" lon="12.704752635144576"><ele>758.6</ele><time>2026-04-22T13:13:27.001Z</time></trkpt><trkpt lat="42.655762765980796" lon="12.70488312680902"><ele>757.8</ele><time>2026-04-22T13:13:28.001Z</time></trkpt><trkpt lat="42.65583226167197" lon="12.704988001935547"><ele>757.0</ele><time>2026-04-22T13:13:29.001Z</time></trkpt><trkpt lat="42.65591594218891" lon="12.70506874828352"><ele>757.0</ele><time>2026-04-22T13:13:30.001Z</time></trkpt><trkpt lat="42.65601776630233" lon="12.705106354723092"><ele>757.0</ele><time>2026-04-22T13:13:31.001Z</time></trkpt><trkpt lat="42.6561320268966" lon="12.705095302255836"><ele>757.0</ele><time>2026-04-22T13:13:32.001Z</time></trkpt><trkpt lat="42.65624294975305" lon="12.705103050031239"><ele>757.0</ele><time>2026-04-22T13:13:33.001Z</time></trkpt><trkpt lat="42.656346769810014" lon="12.705178908796974"><ele>757.0</ele><time>2026-04-22T13:13:34.001Z</time></trkpt><trkpt lat="42.65646561286146" lon="12.705260925547828"><ele>760.75</ele><time>2026-04-22T13:13:35Z</time></trkpt><trkpt lat="42.65659218291922" lon="12.705351889550588"><ele>764.5</ele><time>2026-04-22T13:13:36Z</time></trkpt><trkpt lat="42.65672885569062" lon="12.705437395894585"><ele>768.25</ele><time>2026-04-22T13:13:37Z</time></trkpt><trkpt lat="42.65686176471245" lon="12.705537343785391"><ele>772.0</ele><time>2026-04-22T13:13:38Z</time></trkpt><trkpt lat="42.656979141981516" lon="12.705624012694729"><ele>773.25</ele><time>2026-04-22T13:13:39Z</time></trkpt><trkpt lat="42.65707243455848" lon="12.705713705025309"><ele>774.5</ele><time>2026-04-22T13:13:40Z</time></trkpt><trkpt lat="42.657136538902" lon="12.70583187835737"><ele>775.75</ele><time>2026-04-22T13:13:41Z</time></trkpt><trkpt lat="42.65715432143701" lon="12.705984280204744"><ele>777.0</ele><time>2026-04-22T13:13:42Z</time></trkpt><trkpt lat="42.657193293432634" lon="12.706140115359375"><ele>777.0</ele><time>2026-04-22T13:13:43Z</time></trkpt><trkpt lat="42.65720286134636" lon="12.706316110241753"><ele>777.0</ele><time>2026-04-22T13:13:44Z</time></trkpt><trkpt lat="42.65718878928956" lon="12.706505837168521"><ele>777.0</ele><time>2026-04-22T13:13:45Z</time></trkpt><trkpt lat="42.657192330487966" lon="12.706706288288615"><ele>777.0</ele><time>2026-04-22T13:13:46Z</time></trkpt><trkpt lat="42.657196059665274" lon="12.706917380106315"><ele>777.6666666666667</ele><time>2026-04-22T13:13:47Z</time></trkpt><trkpt lat="42.657200628732376" lon="12.707145042440255"><ele>778.3333333333334</ele><time>2026-04-22T13:13:48Z</time></trkpt><trkpt lat="42.657206322154124" lon="12.707373211636332"><ele>779.0</ele><time>2026-04-22T13:13:49Z</time></trkpt><trkpt lat="42.65722760073638" lon="12.707578878106984"><ele>777.75</ele><time>2026-04-22T13:13:50Z</time></trkpt><trkpt lat="42.65724927309767" lon="12.707750873376039"><ele>776.5</ele><time>2026-04-22T13:13:51Z</time></trkpt><trkpt lat="42.657272372273695" lon="12.707919021964381"><ele>775.25</ele><time>2026-04-22T13:13:52Z</time></trkpt><trkpt lat="42.657345188478835" lon="12.708091889323917"><ele>774.0</ele><time>2026-04-22T13:13:53Z</time></trkpt><trkpt lat="42.657431577576396" lon="12.70823519566243"><ele>774.0</ele><time>2026-04-22T13:13:54Z</time></trkpt><trkpt lat="42.657507530915666" lon="12.708342997010032"><ele>774.0</ele><time>2026-04-22T13:13:55Z</time></trkpt><trkpt lat="42.65758323473857" lon="12.708409417134881"><ele>774.0</ele><time>2026-04-22T13:13:56Z</time></trkpt><trkpt lat="42.65766815709151" lon="12.708414853676027"><ele>774.0</ele><time>2026-04-22T13:13:57Z</time></trkpt><trkpt lat="42.65777437149865" lon="12.708414387336314"><ele>774.0</ele><time>2026-04-22T13:13:58Z</time></trkpt><trkpt lat="42.6578936755798" lon="12.708428273362482"><ele>776.0</ele><time>2026-04-22T13:13:59Z</time></trkpt><trkpt lat="42.6579866062319" lon="12.708462833631264"><ele>778.0</ele><time>2026-04-22T13:14:00Z</time></trkpt><trkpt lat="42.65805062400032" lon="12.708549133066029"><ele>780.0</ele><time>2026-04-22T13:14:01Z</time></trkpt><trkpt lat="42.658049251833845" lon="12.708681910951006"><ele>782.0</ele><time>2026-04-22T13:14:02Z</time></trkpt><trkpt lat="42.65802448049219" lon="12.708809110811243"><ele>784.0</ele><time>2026-04-22T13:14:03Z</time></trkpt><trkpt lat="42.65803763373735" lon="12.70895334529626"><ele>784.0</ele><time>2026-04-22T13:14:04Z</time></trkpt><trkpt lat="42.65802260844454" lon="12.709100532947055"><ele>784.0</ele><time>2026-04-22T13:14:05Z</time></trkpt><trkpt lat="42.65805593020564" lon="12.709261763359171"><ele>784.0</ele><time>2026-04-22T13:14:06Z</time></trkpt><trkpt lat="42.65811769125147" lon="12.709457512338572"><ele>784.0</ele><time>2026-04-22T13:14:07Z</time></trkpt><trkpt lat="42.658179881082" lon="12.709631286294789"><ele>781.0</ele><time>2026-04-22T13:14:08Z</time></trkpt><trkpt lat="42.65823592290857" lon="12.709774910628905"><ele>778.0</ele><time>2026-04-22T13:14:09Z</time></trkpt><trkpt lat="42.658304500311544" lon="12.709900210417908"><ele>775.0</ele><time>2026-04-22T13:14:10Z</time></trkpt><trkpt lat="42.65840239554623" lon="12.709988859598498"><ele>772.0</ele><time>2026-04-22T13:14:11Z</time></trkpt><trkpt lat="42.6585256494367" lon="12.710049726356555"><ele>774.2</ele><time>2026-04-22T13:14:12Z</time></trkpt><trkpt lat="42.658637547026814" lon="12.710050237850409"><ele>776.4000000000001</ele><time>2026-04-22T13:14:13Z</time></trkpt><trkpt lat="42.65872577226943" lon="12.71004835267491"><ele>778.5999999999999</ele><time>2026-04-22T13:14:14Z</time></trkpt><trkpt lat="42.65880262991418" lon="12.710002132397209"><ele>780.8</ele><time>2026-04-22T13:14:15Z</time></trkpt><trkpt lat="42.658872632425826" lon="12.709914912038366"><ele>783.0</ele><time>2026-04-22T13:14:16Z</time></trkpt><trkpt lat="42.65895989492037" lon="12.709815468388138"><ele>783.0</ele><time>2026-04-22T13:14:17Z</time></trkpt><trkpt lat="42.659066123586996" lon="12.709762914137427"><ele>783.0</ele><time>2026-04-22T13:14:18Z</time></trkpt><trkpt lat="42.65918706962647" lon="12.709786438570703"><ele>783.0</ele><time>2026-04-22T13:14:19Z</time></trkpt><trkpt lat="42.65930237032804" lon="12.709837454611728"><ele>783.0</ele><time>2026-04-22T13:14:20Z</time></trkpt><trkpt lat="42.65940256536181" lon="12.709900573877098"><ele>782.0</ele><time>2026-04-22T13:14:21Z</time></trkpt><trkpt lat="42.65946328240007" lon="12.710003036156607"><ele>781.0</ele><time>2026-04-22T13:14:22Z</time></trkpt><trkpt lat="42.659488947525375" lon="12.710122809269176"><ele>780.0</ele><time>2026-04-22T13:14:23Z</time></trkpt><trkpt lat="42.65948308973074" lon="12.710263378080034"><ele>779.0</ele><time>2026-04-22T13:14:24Z</time></trkpt><trkpt lat="42.65947896292806" lon="12.710405582410823"><ele>778.0</ele><time>2026-04-22T13:14:25Z</time></trkpt><trkpt lat="42.659514411905604" lon="12.710518360785871"><ele>778.0</ele><time>2026-04-22T13:14:26Z</time></trkpt><trkpt lat="42.65956920607278" lon="12.710618734734165"><ele>778.0</ele><time>2026-04-22T13:14:27Z</time></trkpt><trkpt lat="42.65968467266517" lon="12.710641169269188"><ele>778.0</ele><time>2026-04-22T13:14:28Z</time></trkpt><trkpt lat="42.659803732874515" lon="12.71070389810399"><ele>778.0</ele><time>2026-04-22T13:14:29Z</time></trkpt><trkpt lat="42.659912654973624" lon="12.710742945968075"><ele>778.0</ele><time>2026-04-22T13:14:30Z</time></trkpt><trkpt lat="42.66006556256537" lon="12.710787111642139"><ele>778.0</ele><time>2026-04-22T13:14:31Z</time></trkpt><trkpt lat="42.66020936974595" lon="12.710839859096897"><ele>778.0</ele><time>2026-04-22T13:14:32Z</time></trkpt><trkpt lat="42.66035365757087" lon="12.710904277845758"><ele>778.0</ele><time>2026-04-22T13:14:33Z</time></trkpt><trkpt lat="42.660507271824216" lon="12.710974747137612"><ele>776.25</ele><time>2026-04-22T13:14:34Z</time></trkpt><trkpt lat="42.660657632896005" lon="12.71103037643059"><ele>774.5</ele><time>2026-04-22T13:14:35Z</time></trkpt><trkpt lat="42.66079371919989" lon="12.711097156793091"><ele>772.75</ele><time>2026-04-22T13:14:36Z</time></trkpt><trkpt lat="42.66092551009628" lon="12.711166848283755"><ele>771.0</ele><time>2026-04-22T13:14:37Z</time></trkpt><trkpt lat="42.66104647756002" lon="12.711251691188354"><ele>781.3333333333333</ele><time>2026-04-22T13:14:38Z</time></trkpt><trkpt lat="42.66116866735042" lon="12.711354009977013"><ele>791.6666666666666</ele><time>2026-04-22T13:14:39Z</time></trkpt><trkpt lat="42.661267417045266" lon="12.711515331041237"><ele>802.0</ele><time>2026-04-22T13:14:40Z</time></trkpt><trkpt lat="42.66138561065534" lon="12.711665369557485"><ele>802.0</ele><time>2026-04-22T13:14:41Z</time></trkpt><trkpt lat="42.66151201084231" lon="12.711805155460022"><ele>802.0</ele><time>2026-04-22T13:14:42Z</time></trkpt><trkpt lat="42.6616198479928" lon="12.711949884232512"><ele>802.0</ele><time>2026-04-22T13:14:43Z</time></trkpt><trkpt lat="42.661699833370854" lon="12.712092130719455"><ele>802.0</ele><time>2026-04-22T13:14:44Z</time></trkpt><trkpt lat="42.66177018336413" lon="12.712230913820974"><ele>800.4000000000001</ele><time>2026-04-22T13:14:45Z</time></trkpt><trkpt lat="42.661809221163494" lon="12.712358322970278"><ele>798.8000000000001</ele><time>2026-04-22T13:14:46Z</time></trkpt><trkpt lat="42.66181164367099" lon="12.712458216345388"><ele>797.2</ele><time>2026-04-22T13:14:47Z</time></trkpt><trkpt lat="42.66173085558809" lon="12.712554806591454"><ele>795.6</ele><time>2026-04-22T13:14:49Z</time></trkpt><trkpt lat="42.66163358083012" lon="12.712583572282387"><ele>794.0</ele><time>2026-04-22T13:14:50Z</time></trkpt><trkpt lat="42.661523896957824" lon="12.712676813714923"><ele>797.75</ele><time>2026-04-22T13:14:51Z</time></trkpt><trkpt lat="42.66141419261968" lon="12.712781168137536"><ele>801.5</ele><time>2026-04-22T13:14:52Z</time></trkpt><trkpt lat="42.66133805846299" lon="12.712910417057431"><ele>805.25</ele><time>2026-04-22T13:14:53Z</time></trkpt><trkpt lat="42.66127889138725" lon="12.713085558870892"><ele>809.0</ele><time>2026-04-22T13:14:54Z</time></trkpt><trkpt lat="42.66123920594116" lon="12.713267936114413"><ele>809.0</ele><time>2026-04-22T13:14:55Z</time></trkpt><trkpt lat="42.66117576591835" lon="12.71341777785845"><ele>809.0</ele><time>2026-04-22T13:14:56Z</time></trkpt><trkpt lat="42.66108937092886" lon="12.71352109932538"><ele>809.0</ele><time>2026-04-22T13:14:57Z</time></trkpt><trkpt lat="42.66097947199448" lon="12.713594306746943"><ele>809.0</ele><time>2026-04-22T13:14:58Z</time></trkpt><trkpt lat="42.6608759915544" lon="12.713714894019196"><ele>808.75</ele><time>2026-04-22T13:14:59Z</time></trkpt><trkpt lat="42.66079100481895" lon="12.71384849501437"><ele>808.5</ele><time>2026-04-22T13:15:00Z</time></trkpt><trkpt lat="42.66072654523838" lon="12.71398931250369"><ele>808.25</ele><time>2026-04-22T13:15:01Z</time></trkpt><trkpt lat="42.66068695312821" lon="12.714154379104649"><ele>808.0</ele><time>2026-04-22T13:15:02Z</time></trkpt><trkpt lat="42.660662244545556" lon="12.714337082779041"><ele>808.75</ele><time>2026-04-22T13:15:03Z</time></trkpt><trkpt lat="42.66064109915494" lon="12.714525184381259"><ele>809.5</ele><time>2026-04-22T13:15:04Z</time></trkpt><trkpt lat="42.660623425691305" lon="12.714699469797957"><ele>810.25</ele><time>2026-04-22T13:15:05Z</time></trkpt><trkpt lat="42.660625761012405" lon="12.714854429416361"><ele>811.0</ele><time>2026-04-22T13:15:06Z</time></trkpt><trkpt lat="42.660631543653246" lon="12.715003058480686"><ele>811.0</ele><time>2026-04-22T13:15:07Z</time></trkpt><trkpt lat="42.66063313997946" lon="12.71514479784823"><ele>811.0</ele><time>2026-04-22T13:15:08Z</time></trkpt><trkpt lat="42.66061390220612" lon="12.715281726737276"><ele>811.0</ele><time>2026-04-22T13:15:09Z</time></trkpt><trkpt lat="42.66056032820597" lon="12.715407339319142"><ele>811.0</ele><time>2026-04-22T13:15:10Z</time></trkpt><trkpt lat="42.660507929235656" lon="12.71553063993752"><ele>811.0</ele><time>2026-04-22T13:15:11Z</time></trkpt><trkpt lat="42.66044466138821" lon="12.715649443057213"><ele>810.8</ele><time>2026-04-22T13:15:12.001Z</time></trkpt><trkpt lat="42.660392394395295" lon="12.715772040712064"><ele>810.5999999999999</ele><time>2026-04-22T13:15:13.001Z</time></trkpt><trkpt lat="42.66038708481214" lon="12.71590648105073"><ele>810.4</ele><time>2026-04-22T13:15:14.001Z</time></trkpt><trkpt lat="42.66040270983066" lon="12.716047679418352"><ele>810.2</ele><time>2026-04-22T13:15:15.001Z</time></trkpt><trkpt lat="42.660453123013625" lon="12.71619975073841"><ele>810.0</ele><time>2026-04-22T13:15:16.001Z</time></trkpt><trkpt lat="42.66053258177322" lon="12.716356026107936"><ele>809.5</ele><time>2026-04-22T13:15:17.001Z</time></trkpt><trkpt lat="42.660620614524326" lon="12.716511149637354"><ele>809.0</ele><time>2026-04-22T13:15:18.001Z</time></trkpt><trkpt lat="42.660667232603544" lon="12.716662976573087"><ele>808.5</ele><time>2026-04-22T13:15:19.001Z</time></trkpt><trkpt lat="42.66066214712926" lon="12.716824225075136"><ele>808.0</ele><time>2026-04-22T13:15:20.001Z</time></trkpt><trkpt lat="42.660654360446564" lon="12.717007241345463"><ele>807.25</ele><time>2026-04-22T13:15:21.001Z</time></trkpt><trkpt lat="42.660678988104806" lon="12.717196079265875"><ele>806.5</ele><time>2026-04-22T13:15:22.001Z</time></trkpt><trkpt lat="42.66068998923095" lon="12.717372378878535"><ele>805.75</ele><time>2026-04-22T13:15:23.001Z</time></trkpt><trkpt lat="42.66072038906148" lon="12.717533734112653"><ele>805.0</ele><time>2026-04-22T13:15:24.001Z</time></trkpt><trkpt lat="42.66078539099131" lon="12.71767574846493"><ele>804.75</ele><time>2026-04-22T13:15:25.001Z</time></trkpt><trkpt lat="42.66087543197311" lon="12.717800395177157"><ele>804.5</ele><time>2026-04-22T13:15:26.001Z</time></trkpt><trkpt lat="42.66092996246931" lon="12.717947429090087"><ele>804.25</ele><time>2026-04-22T13:15:27.001Z</time></trkpt><trkpt lat="42.660962494806064" lon="12.718104727130473"><ele>804.0</ele><time>2026-04-22T13:15:28.001Z</time></trkpt><trkpt lat="42.66096145125247" lon="12.718271351012081"><ele>804.0</ele><time>2026-04-22T13:15:29.001Z</time></trkpt><trkpt lat="42.66099121325467" lon="12.718434293910844"><ele>804.0</ele><time>2026-04-22T13:15:30.001Z</time></trkpt><trkpt lat="42.66103185138205" lon="12.718577964058534"><ele>804.0</ele><time>2026-04-22T13:15:31.001Z</time></trkpt><trkpt lat="42.661121308851804" lon="12.718688003061565"><ele>804.0</ele><time>2026-04-22T13:15:32.001Z</time></trkpt><trkpt lat="42.66126142286839" lon="12.718694061467382"><ele>800.25</ele><time>2026-04-22T13:15:33.001Z</time></trkpt><trkpt lat="42.661390640042725" lon="12.718758588718506"><ele>796.5</ele><time>2026-04-22T13:15:34.001Z</time></trkpt><trkpt lat="42.66150817467442" lon="12.718827896533474"><ele>792.75</ele><time>2026-04-22T13:15:35.001Z</time></trkpt><trkpt lat="42.66161667450201" lon="12.718887288036989"><ele>789.0</ele><time>2026-04-22T13:15:36.001Z</time></trkpt><trkpt lat="42.661707004384006" lon="12.718987817993636"><ele>789.0</ele><time>2026-04-22T13:15:37Z</time></trkpt><trkpt lat="42.661757285469896" lon="12.719165491973692"><ele>789.0</ele><time>2026-04-22T13:15:38Z</time></trkpt><trkpt lat="42.661810631244684" lon="12.719355886556356"><ele>789.0</ele><time>2026-04-22T13:15:39Z</time></trkpt><trkpt lat="42.661856578335716" lon="12.719537910734658"><ele>789.0</ele><time>2026-04-22T13:15:40Z</time></trkpt><trkpt lat="42.66190445586914" lon="12.71970606909708"><ele>787.75</ele><time>2026-04-22T13:15:41Z</time></trkpt><trkpt lat="42.66190722739712" lon="12.719868006212694"><ele>786.5</ele><time>2026-04-22T13:15:42Z</time></trkpt><trkpt lat="42.66184348004265" lon="12.720007076026386"><ele>785.25</ele><time>2026-04-22T13:15:43Z</time></trkpt><trkpt lat="42.66179245428152" lon="12.720166436282625"><ele>784.0</ele><time>2026-04-22T13:15:44Z</time></trkpt><trkpt lat="42.66175079165513" lon="12.72032757217966"><ele>780.2</ele><time>2026-04-22T13:15:45Z</time></trkpt><trkpt lat="42.66171008266716" lon="12.720453584628288"><ele>776.4000000000001</ele><time>2026-04-22T13:15:46Z</time></trkpt><trkpt lat="42.661704698354825" lon="12.720580034568277"><ele>772.6</ele><time>2026-04-22T13:15:47Z</time></trkpt><trkpt lat="42.661741429328295" lon="12.720713138883974"><ele>768.8</ele><time>2026-04-22T13:15:48Z</time></trkpt><trkpt lat="42.66183974514674" lon="12.720812716472304"><ele>765.0</ele><time>2026-04-22T13:15:49Z</time></trkpt><trkpt lat="42.661938273819786" lon="12.720956356286461"><ele>763.3333333333334</ele><time>2026-04-22T13:15:50Z</time></trkpt><trkpt lat="42.662047520030676" lon="12.721094843268316"><ele>761.6666666666667</ele><time>2026-04-22T13:15:51Z</time></trkpt><trkpt lat="42.662142385032745" lon="12.721251797428192"><ele>760.0</ele><time>2026-04-22T13:15:52Z</time></trkpt><trkpt lat="42.662227908340604" lon="12.721424945671394"><ele>760.0</ele><time>2026-04-22T13:15:53Z</time></trkpt><trkpt lat="42.66229271962589" lon="12.721618552385381"><ele>760.0</ele><time>2026-04-22T13:15:54Z</time></trkpt><trkpt lat="42.66233942563453" lon="12.721825155311302"><ele>760.0</ele><time>2026-04-22T13:15:55Z</time></trkpt><trkpt lat="42.66238114824117" lon="12.722026360123944"><ele>758.0</ele><time>2026-04-22T13:15:56Z</time></trkpt><trkpt lat="42.66241488129326" lon="12.722225233922142"><ele>756.0</ele><time>2026-04-22T13:15:57Z</time></trkpt><trkpt lat="42.66244086241233" lon="12.72241419648689"><ele>754.0</ele><time>2026-04-22T13:15:58Z</time></trkpt><trkpt lat="42.662469544326285" lon="12.722590064707104"><ele>752.0</ele><time>2026-04-22T13:15:59Z</time></trkpt><trkpt lat="42.66251382026173" lon="12.722758255288412"><ele>747.25</ele><time>2026-04-22T13:16:00Z</time></trkpt><trkpt lat="42.66258045815885" lon="12.722917023516304"><ele>742.5</ele><time>2026-04-22T13:16:01Z</time></trkpt><trkpt lat="42.66267273520357" lon="12.723053179808527"><ele>737.75</ele><time>2026-04-22T13:16:02Z</time></trkpt><trkpt lat="42.66277855793883" lon="12.723166132466394"><ele>733.0</ele><time>2026-04-22T13:16:03Z</time></trkpt><trkpt lat="42.66287810129846" lon="12.723235123006372"><ele>733.0</ele><time>2026-04-22T13:16:04Z</time></trkpt><trkpt lat="42.66296681651454" lon="12.72325820350845"><ele>733.0</ele><time>2026-04-22T13:16:05Z</time></trkpt><trkpt lat="42.663053209822614" lon="12.723252861384234"><ele>733.0</ele><time>2026-04-22T13:16:06Z</time></trkpt><trkpt lat="42.663132426577704" lon="12.723151104277592"><ele>733.0</ele><time>2026-04-22T13:16:07Z</time></trkpt><trkpt lat="42.663213456554026" lon="12.723043890611082"><ele>733.0</ele><time>2026-04-22T13:16:08Z</time></trkpt><trkpt lat="42.66330306600389" lon="12.722932046000395"><ele>733.0</ele><time>2026-04-22T13:16:09Z</time></trkpt><trkpt lat="42.663404786216866" lon="12.722865876068047"><ele>733.0</ele><time>2026-04-22T13:16:10Z</time></trkpt><trkpt lat="42.663491915927594" lon="12.722803513728177"><ele>733.0</ele><time>2026-04-22T13:16:11Z</time></trkpt><trkpt lat="42.663587345082924" lon="12.722802191503789"><ele>733.0</ele><time>2026-04-22T13:16:12Z</time></trkpt><trkpt lat="42.66370124545712" lon="12.722830674790908"><ele>733.0</ele><time>2026-04-22T13:16:13Z</time></trkpt><trkpt lat="42.66383235127932" lon="12.722901094002037"><ele>729.0</ele><time>2026-04-22T13:16:14Z</time></trkpt><trkpt lat="42.66396390665368" lon="12.723015073555347"><ele>725.0</ele><time>2026-04-22T13:16:15Z</time></trkpt><trkpt lat="42.66411169625717" lon="12.72313482322463"><ele>721.0</ele><time>2026-04-22T13:16:16Z</time></trkpt><trkpt lat="42.664245253635904" lon="12.723306204670516"><ele>721.0</ele><time>2026-04-22T13:16:17Z</time></trkpt><trkpt lat="42.664369395869876" lon="12.723483569550552"><ele>721.0</ele><time>2026-04-22T13:16:18Z</time></trkpt><trkpt lat="42.664480013296505" lon="12.723663977669815"><ele>721.0</ele><time>2026-04-22T13:16:19Z</time></trkpt><trkpt lat="42.664577075903324" lon="12.723848017470589"><ele>720.3333333333334</ele><time>2026-04-22T13:16:20Z</time></trkpt><trkpt lat="42.66465519221039" lon="12.724053418964287"><ele>719.6666666666666</ele><time>2026-04-22T13:16:21Z</time></trkpt><trkpt lat="42.66469446720537" lon="12.724276976168852"><ele>719.0</ele><time>2026-04-22T13:16:22Z</time></trkpt><trkpt lat="42.66474777224731" lon="12.724486921698858"><ele>717.25</ele><time>2026-04-22T13:16:23Z</time></trkpt><trkpt lat="42.664772879179" lon="12.724685461691978"><ele>715.5</ele><time>2026-04-22T13:16:24Z</time></trkpt><trkpt lat="42.66480004668492" lon="12.724861588863941"><ele>713.75</ele><time>2026-04-22T13:16:25Z</time></trkpt><trkpt lat="42.664842400284165" lon="12.725005111021655"><ele>712.0</ele><time>2026-04-22T13:16:26Z</time></trkpt><trkpt lat="42.66491424189263" lon="12.725118829930437"><ele>712.0</ele><time>2026-04-22T13:16:27Z</time></trkpt><trkpt lat="42.6650131363004" lon="12.725192353641354"><ele>712.0</ele><time>2026-04-22T13:16:28Z</time></trkpt><trkpt lat="42.66511136372616" lon="12.725262117157705"><ele>712.0</ele><time>2026-04-22T13:16:29Z</time></trkpt><trkpt lat="42.66518688222085" lon="12.725370019759058"><ele>712.0</ele><time>2026-04-22T13:16:30Z</time></trkpt><trkpt lat="42.665196550702355" lon="12.725534080288414"><ele>709.0</ele><time>2026-04-22T13:16:31Z</time></trkpt><trkpt lat="42.665207771481406" lon="12.725719601063819"><ele>706.0</ele><time>2026-04-22T13:16:32Z</time></trkpt><trkpt lat="42.665189280276536" lon="12.725918017800021"><ele>703.0</ele><time>2026-04-22T13:16:33Z</time></trkpt><trkpt lat="42.66518921213141" lon="12.72613582296696"><ele>700.0</ele><time>2026-04-22T13:16:34Z</time></trkpt><trkpt lat="42.66521462891982" lon="12.72635888616341"><ele>696.75</ele><time>2026-04-22T13:16:35Z</time></trkpt><trkpt lat="42.66524033618524" lon="12.726569878010187"><ele>693.5</ele><time>2026-04-22T13:16:36Z</time></trkpt><trkpt lat="42.66523969314837" lon="12.726765982097104"><ele>690.25</ele><time>2026-04-22T13:16:37Z</time></trkpt><trkpt lat="42.665221042258075" lon="12.726918583778977"><ele>687.0</ele><time>2026-04-22T13:16:38Z</time></trkpt><trkpt lat="42.665156745120946" lon="12.727034665888606"><ele>685.6</ele><time>2026-04-22T13:16:39Z</time></trkpt><trkpt lat="42.66508314064747" lon="12.727143026830307"><ele>684.2</ele><time>2026-04-22T13:16:40Z</time></trkpt><trkpt lat="42.66500451799874" lon="12.727255574465055"><ele>682.8</ele><time>2026-04-22T13:16:41Z</time></trkpt><trkpt lat="42.664938860290285" lon="12.727361461534697"><ele>681.4</ele><time>2026-04-22T13:16:42Z</time></trkpt><trkpt lat="42.66492758767855" lon="12.727502381979724"><ele>680.0</ele><time>2026-04-22T13:16:43Z</time></trkpt><trkpt lat="42.66493810396652" lon="12.727625970630537"><ele>679.4</ele><time>2026-04-22T13:16:44Z</time></trkpt><trkpt lat="42.66499892346463" lon="12.727742024657935"><ele>678.8</ele><time>2026-04-22T13:16:45Z</time></trkpt><trkpt lat="42.66508113221496" lon="12.727828511688246"><ele>678.2</ele><time>2026-04-22T13:16:46Z</time></trkpt><trkpt lat="42.66519106632351" lon="12.72788584942315"><ele>677.6</ele><time>2026-04-22T13:16:47Z</time></trkpt><trkpt lat="42.66531151762127" lon="12.727875926816623"><ele>677.0</ele><time>2026-04-22T13:16:48Z</time></trkpt><trkpt lat="42.66543180844251" lon="12.727873239226536"><ele>677.0</ele><time>2026-04-22T13:16:49Z</time></trkpt><trkpt lat="42.66554256230952" lon="12.727824123949722"><ele>677.0</ele><time>2026-04-22T13:16:50Z</time></trkpt><trkpt lat="42.665635938466096" lon="12.727770999700722"><ele>677.0</ele><time>2026-04-22T13:16:51Z</time></trkpt><trkpt lat="42.66570947408539" lon="12.727710401717061"><ele>677.0</ele><time>2026-04-22T13:16:52Z</time></trkpt><trkpt lat="42.66575488948929" lon="12.727650097391013"><ele>677.0</ele><time>2026-04-22T13:16:53Z</time></trkpt><trkpt lat="42.665787034098415" lon="12.727730276954585"><ele>677.0</ele><time>2026-04-22T13:16:57Z</time></trkpt><trkpt lat="42.66577773028447" lon="12.727835631798456"><ele>677.0</ele><time>2026-04-22T13:16:59Z</time></trkpt><trkpt lat="42.66578089736339" lon="12.727960562114136"><ele>677.0</ele><time>2026-04-22T13:17:01Z</time></trkpt><trkpt lat="42.66575806803811" lon="12.728132076688158"><ele>677.0</ele><time>2026-04-22T13:17:03Z</time></trkpt><trkpt lat="42.66571907318205" lon="12.728222258394569"><ele>677.0</ele><time>2026-04-22T13:17:04Z</time></trkpt><trkpt lat="42.6656800519498" lon="12.72831337355958"><ele>677.0</ele><time>2026-04-22T13:17:05Z</time></trkpt><trkpt lat="42.66562011489299" lon="12.728399475285421"><ele>677.0</ele><time>2026-04-22T13:17:06Z</time></trkpt><trkpt lat="42.66554724437011" lon="12.728486757084639"><ele>677.0</ele><time>2026-04-22T13:17:07Z</time></trkpt><trkpt lat="42.665472304053154" lon="12.72856047242389"><ele>677.0</ele><time>2026-04-22T13:17:08Z</time></trkpt><trkpt lat="42.665385136057196" lon="12.728630638774112"><ele>677.0</ele><time>2026-04-22T13:17:09Z</time></trkpt><trkpt lat="42.66529849427683" lon="12.728705017036923"><ele>677.0</ele><time>2026-04-22T13:17:10Z</time></trkpt><trkpt lat="42.665213274308165" lon="12.728765329168917"><ele>674.8333333333333</ele><time>2026-04-22T13:17:11Z</time></trkpt><trkpt lat="42.665132770136644" lon="12.728819482033623"><ele>672.6666666666666</ele><time>2026-04-22T13:17:12Z</time></trkpt><trkpt lat="42.665049040978154" lon="12.728877803478243"><ele>670.5</ele><time>2026-04-22T13:17:13Z</time></trkpt><trkpt lat="42.66497276816248" lon="12.72893397342634"><ele>668.3333333333334</ele><time>2026-04-22T13:17:14Z</time></trkpt><trkpt lat="42.66488406145205" lon="12.72896139684817"><ele>666.1666666666667</ele><time>2026-04-22T13:17:15Z</time></trkpt><trkpt lat="42.664804119924796" lon="12.728981584962334"><ele>664.0</ele><time>2026-04-22T13:17:16Z</time></trkpt><trkpt lat="42.664729886118415" lon="12.728976436507583"><ele>664.0</ele><time>2026-04-22T13:17:17Z</time></trkpt><trkpt lat="42.664656952415136" lon="12.728939335440566"><ele>664.0</ele><time>2026-04-22T13:17:18Z</time></trkpt><trkpt lat="42.664573543944094" lon="12.72892656516882"><ele>664.0</ele><time>2026-04-22T13:17:19Z</time></trkpt><trkpt lat="42.66448455664713" lon="12.728887532061618"><ele>664.0</ele><time>2026-04-22T13:17:20Z</time></trkpt><trkpt lat="42.66438747609985" lon="12.728887852267098"><ele>664.0</ele><time>2026-04-22T13:17:21Z</time></trkpt><trkpt lat="42.66428260139487" lon="12.728909643351592"><ele>661.0</ele><time>2026-04-22T13:17:22Z</time></trkpt><trkpt lat="42.66418616458178" lon="12.72895736942902"><ele>658.0</ele><time>2026-04-22T13:17:23Z</time></trkpt><trkpt lat="42.664101406765354" lon="12.7290221513162"><ele>655.0</ele><time>2026-04-22T13:17:24Z</time></trkpt><trkpt lat="42.66401927371692" lon="12.72909425494337"><ele>652.0</ele><time>2026-04-22T13:17:25Z</time></trkpt><trkpt lat="42.663945497491255" lon="12.729164897484797"><ele>649.0</ele><time>2026-04-22T13:17:26Z</time></trkpt><trkpt lat="42.663876592751826" lon="12.72924943130962"><ele>649.0</ele><time>2026-04-22T13:17:27Z</time></trkpt><trkpt lat="42.66380805445199" lon="12.729322232029515"><ele>649.0</ele><time>2026-04-22T13:17:28Z</time></trkpt><trkpt lat="42.66374415064251" lon="12.72936047003493"><ele>649.0</ele><time>2026-04-22T13:17:29Z</time></trkpt><trkpt lat="42.663678190733414" lon="12.729423776682946"><ele>649.0</ele><time>2026-04-22T13:17:31Z</time></trkpt><trkpt lat="42.663710593635585" lon="12.729303053395578"><ele>649.0</ele><time>2026-04-22T13:17:35Z</time></trkpt><trkpt lat="42.66376292392075" lon="12.729240338637549"><ele>649.0</ele><time>2026-04-22T13:17:36Z</time></trkpt><trkpt lat="42.66382396276588" lon="12.729167401841904"><ele>649.0</ele><time>2026-04-22T13:17:37Z</time></trkpt><trkpt lat="42.66387356948117" lon="12.729083144315512"><ele>649.0</ele><time>2026-04-22T13:17:38Z</time></trkpt><trkpt lat="42.663948448446725" lon="12.729009545554957"><ele>649.0</ele><time>2026-04-22T13:17:39Z</time></trkpt><trkpt lat="42.66402340626114" lon="12.72892505736946"><ele>649.0</ele><time>2026-04-22T13:17:40Z</time></trkpt><trkpt lat="42.66409445904047" lon="12.728834698320211"><ele>649.0</ele><time>2026-04-22T13:17:41Z</time></trkpt><trkpt lat="42.664168529793855" lon="12.728741653381318"><ele>649.0</ele><time>2026-04-22T13:17:42Z</time></trkpt><trkpt lat="42.664241210912955" lon="12.728657217739979"><ele>649.0</ele><time>2026-04-22T13:17:43Z</time></trkpt><trkpt lat="42.664312321130225" lon="12.728585708641669"><ele>649.0</ele><time>2026-04-22T13:17:44Z</time></trkpt><trkpt lat="42.66443366988814" lon="12.728481636081193"><ele>649.0</ele><time>2026-04-22T13:17:46Z</time></trkpt><trkpt lat="42.66448293754264" lon="12.728397319707987"><ele>649.0</ele><time>2026-04-22T13:17:48Z</time></trkpt><trkpt lat="42.66458787552547" lon="12.728391922550456"><ele>652.0</ele><time>2026-04-22T13:17:50Z</time></trkpt><trkpt lat="42.66465971038621" lon="12.728399838301087"><ele>655.0</ele><time>2026-04-22T13:17:51Z</time></trkpt><trkpt lat="42.66475508548771" lon="12.728427027773797"><ele>658.0</ele><time>2026-04-22T13:17:52Z</time></trkpt><trkpt lat="42.664853072558394" lon="12.728440816172702"><ele>661.0</ele><time>2026-04-22T13:17:53Z</time></trkpt><trkpt lat="42.664974652418735" lon="12.728456663754015"><ele>664.0</ele><time>2026-04-22T13:17:54Z</time></trkpt><trkpt lat="42.66511044748984" lon="12.728474370236205"><ele>664.0</ele><time>2026-04-22T13:17:55Z</time></trkpt><trkpt lat="42.66524846697798" lon="12.728493468023359"><ele>664.0</ele><time>2026-04-22T13:17:56Z</time></trkpt><trkpt lat="42.665399756786236" lon="12.728517725880412"><ele>664.0</ele><time>2026-04-22T13:17:57Z</time></trkpt><trkpt lat="42.66554582888216" lon="12.728540567868478"><ele>664.0</ele><time>2026-04-22T13:17:58Z</time></trkpt><trkpt lat="42.66569106882113" lon="12.72856255206824"><ele>666.5</ele><time>2026-04-22T13:17:59Z</time></trkpt><trkpt lat="42.66583714195432" lon="12.728587830750367"><ele>669.0</ele><time>2026-04-22T13:18:00Z</time></trkpt><trkpt lat="42.665983574718574" lon="12.728614223578875"><ele>671.5</ele><time>2026-04-22T13:18:01Z</time></trkpt><trkpt lat="42.66613003146689" lon="12.728638332329119"><ele>674.0</ele><time>2026-04-22T13:18:02Z</time></trkpt><trkpt lat="42.66627482174507" lon="12.728658381178027"><ele>674.0</ele><time>2026-04-22T13:18:03Z</time></trkpt><trkpt lat="42.666418333575045" lon="12.728678528456966"><ele>674.0</ele><time>2026-04-22T13:18:04Z</time></trkpt><trkpt lat="42.66656707287164" lon="12.728708607753056"><ele>674.0</ele><time>2026-04-22T13:18:05.057Z</time></trkpt><trkpt lat="42.66670376180419" lon="12.72875554470702"><ele>674.0</ele><time>2026-04-22T13:18:06.057Z</time></trkpt><trkpt lat="42.66698957727611" lon="12.728968114837643"><ele>668.0</ele><time>2026-04-22T13:18:08Z</time></trkpt><trkpt lat="42.66715548575912" lon="12.729095706351456"><ele>662.0</ele><time>2026-04-22T13:18:09Z</time></trkpt><trkpt lat="42.66728169465759" lon="12.72926062492027"><ele>656.0</ele><time>2026-04-22T13:18:10Z</time></trkpt><trkpt lat="42.667393967837185" lon="12.729433991607353"><ele>656.0</ele><time>2026-04-22T13:18:11Z</time></trkpt><trkpt lat="42.667482421976175" lon="12.729643336519146"><ele>656.0</ele><time>2026-04-22T13:18:12Z</time></trkpt><trkpt lat="42.66753548707386" lon="12.729876391987196"><ele>656.0</ele><time>2026-04-22T13:18:13Z</time></trkpt><trkpt lat="42.667587028514426" lon="12.730114256420975"><ele>657.3333333333333</ele><time>2026-04-22T13:18:14Z</time></trkpt><trkpt lat="42.6676530224114" lon="12.730348618904706"><ele>658.6666666666666</ele><time>2026-04-22T13:18:15Z</time></trkpt><trkpt lat="42.66769383766387" lon="12.73060245710834"><ele>660.0</ele><time>2026-04-22T13:18:16Z</time></trkpt><trkpt lat="42.66774852637816" lon="12.73085232423192"><ele>649.6666666666666</ele><time>2026-04-22T13:18:17Z</time></trkpt><trkpt lat="42.66780017950727" lon="12.73108832197319"><ele>639.3333333333333</ele><time>2026-04-22T13:18:18Z</time></trkpt><trkpt lat="42.66785529920431" lon="12.73130610241539"><ele>629.0</ele><time>2026-04-22T13:18:19Z</time></trkpt><trkpt lat="42.66787794276221" lon="12.731523262906357"><ele>629.0</ele><time>2026-04-22T13:18:20Z</time></trkpt><trkpt lat="42.66788390573941" lon="12.731737890618994"><ele>629.0</ele><time>2026-04-22T13:18:21Z</time></trkpt><trkpt lat="42.66786939215655" lon="12.731957924579676"><ele>629.0</ele><time>2026-04-22T13:18:22Z</time></trkpt><trkpt lat="42.66782796400651" lon="12.732182583757803"><ele>631.6666666666666</ele><time>2026-04-22T13:18:23Z</time></trkpt><trkpt lat="42.6677520191948" lon="12.732394339930046"><ele>634.3333333333334</ele><time>2026-04-22T13:18:24Z</time></trkpt><trkpt lat="42.66764994816837" lon="12.732590997701713"><ele>637.0</ele><time>2026-04-22T13:18:25Z</time></trkpt><trkpt lat="42.66751066811568" lon="12.732754146450057"><ele>637.0</ele><time>2026-04-22T13:18:26Z</time></trkpt><trkpt lat="42.66737116247329" lon="12.732918882606109"><ele>637.0</ele><time>2026-04-22T13:18:27Z</time></trkpt><trkpt lat="42.66722697989561" lon="12.733083271663874"><ele>637.0</ele><time>2026-04-22T13:18:28Z</time></trkpt><trkpt lat="42.66709666029499" lon="12.733253535429073"><ele>637.0</ele><time>2026-04-22T13:18:29Z</time></trkpt><trkpt lat="42.666955666775586" lon="12.73339942459175"><ele>637.0</ele><time>2026-04-22T13:18:30Z</time></trkpt><trkpt lat="42.66682301385459" lon="12.73354433578269"><ele>637.0</ele><time>2026-04-22T13:18:31Z</time></trkpt><trkpt lat="42.666698839449666" lon="12.73369186267602"><ele>636.6666666666667</ele><time>2026-04-22T13:18:32Z</time></trkpt><trkpt lat="42.6665866219104" lon="12.733846762875904"><ele>636.3333333333334</ele><time>2026-04-22T13:18:33Z</time></trkpt><trkpt lat="42.666499765008524" lon="12.734017030827886"><ele>636.0</ele><time>2026-04-22T13:18:34Z</time></trkpt><trkpt lat="42.666442012796225" lon="12.734211655910073"><ele>635.0</ele><time>2026-04-22T13:18:35Z</time></trkpt><trkpt lat="42.66642456147013" lon="12.734423653463164"><ele>634.0</ele><time>2026-04-22T13:18:36Z</time></trkpt><trkpt lat="42.66645008800446" lon="12.734634690926699"><ele>633.0</ele><time>2026-04-22T13:18:37Z</time></trkpt><trkpt lat="42.66650160720487" lon="12.734833383637485"><ele>633.0</ele><time>2026-04-22T13:18:37.999Z</time></trkpt><trkpt lat="42.6666874295593" lon="12.735132803663415"><ele>633.0</ele><time>2026-04-22T13:18:39.999Z</time></trkpt><trkpt lat="42.66681032621861" lon="12.73522708518676"><ele>633.0</ele><time>2026-04-22T13:18:40.999Z</time></trkpt><trkpt lat="42.66694662812231" lon="12.735285309676028"><ele>632.0</ele><time>2026-04-22T13:18:41.999Z</time></trkpt><trkpt lat="42.66709074604263" lon="12.735300961552815"><ele>631.0</ele><time>2026-04-22T13:18:42.999Z</time></trkpt><trkpt lat="42.667236608282685" lon="12.735270676032002"><ele>630.0</ele><time>2026-04-22T13:18:43.999Z</time></trkpt><trkpt lat="42.66737335831981" lon="12.73519219011681"><ele>629.0</ele><time>2026-04-22T13:18:44.999Z</time></trkpt><trkpt lat="42.66749857950216" lon="12.735076139875066"><ele>629.0</ele><time>2026-04-22T13:18:45.999Z</time></trkpt><trkpt lat="42.667604384169216" lon="12.73494151863207"><ele>629.0</ele><time>2026-04-22T13:18:46.999Z</time></trkpt><trkpt lat="42.667696763152726" lon="12.734800260961729"><ele>629.0</ele><time>2026-04-22T13:18:47.999Z</time></trkpt><trkpt lat="42.66778694402657" lon="12.734666689242168"><ele>629.0</ele><time>2026-04-22T13:18:48.999Z</time></trkpt><trkpt lat="42.66787503381811" lon="12.734545615602727"><ele>629.2</ele><time>2026-04-22T13:18:49.999Z</time></trkpt><trkpt lat="42.66795616547188" lon="12.734432132845722"><ele>629.4</ele><time>2026-04-22T13:18:50.999Z</time></trkpt><trkpt lat="42.66802930239486" lon="12.734329486996662"><ele>629.6</ele><time>2026-04-22T13:18:51.999Z</time></trkpt><trkpt lat="42.66809656436815" lon="12.734241880488634"><ele>629.8</ele><time>2026-04-22T13:18:52.999Z</time></trkpt><trkpt lat="42.66815202560023" lon="12.734169189194821"><ele>630.0</ele><time>2026-04-22T13:18:53.999Z</time></trkpt><trkpt lat="42.66824047907851" lon="12.734074884898611"><ele>630.1666666666666</ele><time>2026-04-22T13:18:55.999Z</time></trkpt><trkpt lat="42.66830843669133" lon="12.734028532079318"><ele>630.3333333333334</ele><time>2026-04-22T13:18:57.999Z</time></trkpt><trkpt lat="42.668390921346074" lon="12.734074564036842"><ele>630.5</ele><time>2026-04-22T13:18:58.999Z</time></trkpt><trkpt lat="42.668453099815196" lon="12.734117463324019"><ele>630.6666666666667</ele><time>2026-04-22T13:18:59.999Z</time></trkpt><trkpt lat="42.6685149361166" lon="12.734172565566272"><ele>630.8333333333334</ele><time>2026-04-22T13:19:00.999Z</time></trkpt><trkpt lat="42.668601522087876" lon="12.734253087667996"><ele>631.0</ele><time>2026-04-22T13:19:02.999Z</time></trkpt><trkpt lat="42.66866456966903" lon="12.734259037459784"><ele>629.4</ele><time>2026-04-22T13:22:41.999Z</time></trkpt><trkpt lat="42.66855622875393" lon="12.734171713845177"><ele>627.8</ele><time>2026-04-22T13:22:44.999Z</time></trkpt><trkpt lat="42.66846870640536" lon="12.73412122056821"><ele>626.1999999999999</ele><time>2026-04-22T13:22:45.999Z</time></trkpt><trkpt lat="42.668404256379034" lon="12.734064345448036"><ele>624.6</ele><time>2026-04-22T13:22:46.999Z</time></trkpt><trkpt lat="42.66833339659673" lon="12.733977502277842"><ele>623.0</ele><time>2026-04-22T13:22:48.999Z</time></trkpt><trkpt lat="42.668277721965026" lon="12.733937194578221"><ele>623.0</ele><time>2026-04-22T13:22:53.999Z</time></trkpt><trkpt lat="42.66816158965737" lon="12.734021515504596"><ele>623.0</ele><time>2026-04-22T13:22:55.999Z</time></trkpt><trkpt lat="42.66810447963312" lon="12.734107653800761"><ele>623.0</ele><time>2026-04-22T13:22:56.999Z</time></trkpt><trkpt lat="42.66803122827029" lon="12.73419995067982"><ele>623.0</ele><time>2026-04-22T13:22:57.999Z</time></trkpt><trkpt lat="42.667959272741086" lon="12.734305025133848"><ele>623.0</ele><time>2026-04-22T13:22:58.999Z</time></trkpt><trkpt lat="42.667886522539966" lon="12.734414514924348"><ele>624.5</ele><time>2026-04-22T13:22:59.999Z</time></trkpt><trkpt lat="42.66780916447214" lon="12.734537816445771"><ele>626.0</ele><time>2026-04-22T13:23:00.999Z</time></trkpt><trkpt lat="42.66772826819416" lon="12.734666864307403"><ele>627.5</ele><time>2026-04-22T13:23:01.999Z</time></trkpt><trkpt lat="42.66764297483958" lon="12.734795129171417"><ele>629.0</ele><time>2026-04-22T13:23:02.999Z</time></trkpt><trkpt lat="42.66754888947189" lon="12.734925578468365"><ele>629.0</ele><time>2026-04-22T13:23:03.999Z</time></trkpt><trkpt lat="42.66745588912973" lon="12.735048300337688"><ele>629.0</ele><time>2026-04-22T13:23:04.999Z</time></trkpt><trkpt lat="42.66735640871113" lon="12.735149353133409"><ele>629.0</ele><time>2026-04-22T13:23:05.999Z</time></trkpt><trkpt lat="42.667244533634786" lon="12.735217347728161"><ele>629.0</ele><time>2026-04-22T13:23:06.999Z</time></trkpt><trkpt lat="42.66711534968383" lon="12.73523472742086"><ele>630.0</ele><time>2026-04-22T13:23:07.999Z</time></trkpt><trkpt lat="42.66698666189364" lon="12.735229806003435"><ele>631.0</ele><time>2026-04-22T13:23:08.999Z</time></trkpt><trkpt lat="42.666857228728084" lon="12.73518602942094"><ele>632.0</ele><time>2026-04-22T13:23:09.999Z</time></trkpt><trkpt lat="42.66672806939479" lon="12.735110274786736"><ele>633.0</ele><time>2026-04-22T13:23:10.999Z</time></trkpt><trkpt lat="42.66661961334273" lon="12.734991923108458"><ele>633.0</ele><time>2026-04-22T13:23:11.999Z</time></trkpt><trkpt lat="42.666534821281665" lon="12.73483604089068"><ele>633.0</ele><time>2026-04-22T13:23:12.999Z</time></trkpt><trkpt lat="42.666482695803126" lon="12.734648385974566"><ele>633.0</ele><time>2026-04-22T13:23:13.999Z</time></trkpt><trkpt lat="42.66646247549067" lon="12.734435493920138"><ele>633.0</ele><time>2026-04-22T13:23:14.999Z</time></trkpt><trkpt lat="42.66647791638767" lon="12.734219001446592"><ele>634.0</ele><time>2026-04-22T13:23:15.999Z</time></trkpt><trkpt lat="42.666539796512765" lon="12.734010849806623"><ele>635.0</ele><time>2026-04-22T13:23:16.999Z</time></trkpt><trkpt lat="42.66663702275765" lon="12.73382413493141"><ele>636.0</ele><time>2026-04-22T13:23:17.999Z</time></trkpt><trkpt lat="42.66676469861921" lon="12.733656210551297"><ele>636.3333333333334</ele><time>2026-04-22T13:23:18.999Z</time></trkpt><trkpt lat="42.666911036149365" lon="12.733496623934192"><ele>636.6666666666667</ele><time>2026-04-22T13:23:19.999Z</time></trkpt><trkpt lat="42.66706432162857" lon="12.733336050852031"><ele>637.0</ele><time>2026-04-22T13:23:20.999Z</time></trkpt><trkpt lat="42.66721590483403" lon="12.733172063179476"><ele>637.0</ele><time>2026-04-22T13:23:21.999Z</time></trkpt><trkpt lat="42.66736868537337" lon="12.732998483071581"><ele>637.0</ele><time>2026-04-22T13:23:22.999Z</time></trkpt><trkpt lat="42.667519112250176" lon="12.732819721823967"><ele>637.0</ele><time>2026-04-22T13:23:23.999Z</time></trkpt><trkpt lat="42.66766305579447" lon="12.732630718489485"><ele>633.6666666666667</ele><time>2026-04-22T13:23:24.999Z</time></trkpt><trkpt lat="42.66778243230034" lon="12.732419177719466"><ele>630.3333333333334</ele><time>2026-04-22T13:23:25.999Z</time></trkpt><trkpt lat="42.66786556217278" lon="12.732189738208994"><ele>627.0</ele><time>2026-04-22T13:23:26.999Z</time></trkpt><trkpt lat="42.66791203834592" lon="12.73194275454419"><ele>627.6666666666666</ele><time>2026-04-22T13:23:27.999Z</time></trkpt><trkpt lat="42.667930597121696" lon="12.731683492531635"><ele>628.3333333333333</ele><time>2026-04-22T13:23:28.999Z</time></trkpt><trkpt lat="42.66791412228002" lon="12.731419769915918"><ele>629.0</ele><time>2026-04-22T13:23:29.999Z</time></trkpt><trkpt lat="42.66786718497917" lon="12.731152880743702"><ele>631.0</ele><time>2026-04-22T13:23:30.999Z</time></trkpt><trkpt lat="42.667804188609914" lon="12.730884706661266"><ele>633.0</ele><time>2026-04-22T13:23:31.999Z</time></trkpt><trkpt lat="42.66774091302938" lon="12.730618502153149"><ele>635.0</ele><time>2026-04-22T13:23:32.999Z</time></trkpt><trkpt lat="42.66768615872769" lon="12.730324955776652"><ele>642.0</ele><time>2026-04-22T13:23:33.999Z</time></trkpt><trkpt lat="42.66762491103296" lon="12.730049920550238"><ele>649.0</ele><time>2026-04-22T13:23:34.999Z</time></trkpt><trkpt lat="42.667556871572984" lon="12.72978184406915"><ele>656.0</ele><time>2026-04-22T13:23:35.997Z</time></trkpt><trkpt lat="42.667468424958535" lon="12.729529090383876"><ele>653.0</ele><time>2026-04-22T13:23:36.997Z</time></trkpt><trkpt lat="42.667352253357286" lon="12.729295460392969"><ele>650.0</ele><time>2026-04-22T13:23:37.997Z</time></trkpt><trkpt lat="42.667217475989915" lon="12.729080124674406"><ele>647.0</ele><time>2026-04-22T13:23:38.997Z</time></trkpt><trkpt lat="42.66706025054388" lon="12.72889974798852"><ele>656.0</ele><time>2026-04-22T13:23:39.997Z</time></trkpt><trkpt lat="42.666881543739336" lon="12.728765139639693"><ele>665.0</ele><time>2026-04-22T13:23:40.997Z</time></trkpt><trkpt lat="42.666687852966895" lon="12.728684274644735"><ele>674.0</ele><time>2026-04-22T13:23:41.998Z</time></trkpt><trkpt lat="42.66648431413629" lon="12.72863914499811"><ele>674.0</ele><time>2026-04-22T13:23:42.998Z</time></trkpt><trkpt lat="42.66627403262609" lon="12.72861328074725"><ele>674.0</ele><time>2026-04-22T13:23:43.998Z</time></trkpt><trkpt lat="42.6660596004902" lon="12.728589391962231"><ele>674.0</ele><time>2026-04-22T13:23:44.998Z</time></trkpt><trkpt lat="42.66585042644445" lon="12.728560014995345"><ele>675.0</ele><time>2026-04-22T13:23:45.998Z</time></trkpt><trkpt lat="42.665649808393106" lon="12.72852298106742"><ele>676.0</ele><time>2026-04-22T13:23:46.998Z</time></trkpt><trkpt lat="42.665458501308564" lon="12.728477887987266"><ele>677.0</ele><time>2026-04-22T13:23:47.998Z</time></trkpt><trkpt lat="42.665258480324916" lon="12.728414299166998"><ele>672.6666666666666</ele><time>2026-04-22T13:23:48.998Z</time></trkpt><trkpt lat="42.66507074540632" lon="12.728387429302028"><ele>668.3333333333334</ele><time>2026-04-22T13:23:49.998Z</time></trkpt><trkpt lat="42.664870611451526" lon="12.7283771558101"><ele>664.0</ele><time>2026-04-22T13:23:50.998Z</time></trkpt><trkpt lat="42.66469288324468" lon="12.728348400565139"><ele>664.0</ele><time>2026-04-22T13:23:51.998Z</time></trkpt><trkpt lat="42.66450960239454" lon="12.728336100759991"><ele>664.0</ele><time>2026-04-22T13:23:52.998Z</time></trkpt><trkpt lat="42.66431506160385" lon="12.728307901359225"><ele>664.0</ele><time>2026-04-22T13:23:53.998Z</time></trkpt><trkpt lat="42.66411351771733" lon="12.728280548061635"><ele>659.6666666666667</ele><time>2026-04-22T13:23:54.998Z</time></trkpt><trkpt lat="42.66390584994612" lon="12.728271709736562"><ele>655.3333333333334</ele><time>2026-04-22T13:23:55.998Z</time></trkpt><trkpt lat="42.66369539550471" lon="12.728313885942349"><ele>651.0</ele><time>2026-04-22T13:23:56.998Z</time></trkpt><trkpt lat="42.66348284504051" lon="12.728348859620878"><ele>651.0</ele><time>2026-04-22T13:23:57.998Z</time></trkpt><trkpt lat="42.66327887429928" lon="12.728469581512856"><ele>651.0</ele><time>2026-04-22T13:23:58.998Z</time></trkpt><trkpt lat="42.66307632262205" lon="12.728614795223283"><ele>645.5</ele><time>2026-04-22T13:23:59.998Z</time></trkpt><trkpt lat="42.66286963831896" lon="12.728763855215044"><ele>640.0</ele><time>2026-04-22T13:24:00.998Z</time></trkpt><trkpt lat="42.66265902505637" lon="12.728906906475066"><ele>640.0</ele><time>2026-04-22T13:24:01.998Z</time></trkpt><trkpt lat="42.66245237405689" lon="12.729036678323691"><ele>640.0</ele><time>2026-04-22T13:24:02.998Z</time></trkpt><trkpt lat="42.66225409485614" lon="12.729164800948672"><ele>640.0</ele><time>2026-04-22T13:24:03.998Z</time></trkpt><trkpt lat="42.66206808008886" lon="12.729320218298747"><ele>635.6666666666667</ele><time>2026-04-22T13:24:04.999Z</time></trkpt><trkpt lat="42.66189952223548" lon="12.729508438972372"><ele>631.3333333333334</ele><time>2026-04-22T13:24:05.999Z</time></trkpt><trkpt lat="42.6617455063926" lon="12.729740668281485"><ele>627.0</ele><time>2026-04-22T13:24:06.999Z</time></trkpt><trkpt lat="42.661599077388885" lon="12.729983331066478"><ele>619.0</ele><time>2026-04-22T13:24:07.999Z</time></trkpt><trkpt lat="42.661468883713795" lon="12.730225845996769"><ele>611.0</ele><time>2026-04-22T13:24:08.999Z</time></trkpt><trkpt lat="42.66131830419992" lon="12.730431503146766"><ele>603.0</ele><time>2026-04-22T13:24:09.999Z</time></trkpt><trkpt lat="42.661150584711805" lon="12.730579385330842"><ele>608.6666666666666</ele><time>2026-04-22T13:24:10.999Z</time></trkpt><trkpt lat="42.660971874325284" lon="12.730705666950456"><ele>614.3333333333333</ele><time>2026-04-22T13:24:11.999Z</time></trkpt><trkpt lat="42.66077530890546" lon="12.730777926270346"><ele>620.0</ele><time>2026-04-22T13:24:12.999Z</time></trkpt><trkpt lat="42.66056733286453" lon="12.730810880292854"><ele>620.0</ele><time>2026-04-22T13:24:13.999Z</time></trkpt><trkpt lat="42.66034574426414" lon="12.730834941642584"><ele>620.0</ele><time>2026-04-22T13:24:14.999Z</time></trkpt><trkpt lat="42.66012243194374" lon="12.730867100714063"><ele>620.0</ele><time>2026-04-22T13:24:15.999Z</time></trkpt><trkpt lat="42.65989953202494" lon="12.73088206789736"><ele>619.0</ele><time>2026-04-22T13:24:16.999Z</time></trkpt><trkpt lat="42.659673042478026" lon="12.730919123132677"><ele>618.0</ele><time>2026-04-22T13:24:17.999Z</time></trkpt><trkpt lat="42.65945525096721" lon="12.730983893823904"><ele>605.0</ele><time>2026-04-22T13:24:18.999Z</time></trkpt><trkpt lat="42.65923383571125" lon="12.731081633836126"><ele>592.0</ele><time>2026-04-22T13:24:19.999Z</time></trkpt><trkpt lat="42.659016728769785" lon="12.731168588572183"><ele>592.0</ele><time>2026-04-22T13:24:20.999Z</time></trkpt><trkpt lat="42.6588091006271" lon="12.731262681770167"><ele>592.0</ele><time>2026-04-22T13:24:21.999Z</time></trkpt><trkpt lat="42.65867417290671" lon="12.731680761861902"><ele>588.0</ele><time>2026-04-22T13:24:22.999Z</time></trkpt><trkpt lat="42.65848651764535" lon="12.731891985670556"><ele>584.0</ele><time>2026-04-22T13:24:23.999Z</time></trkpt><trkpt lat="42.658290843564956" lon="12.732092971127246"><ele>584.0</ele><time>2026-04-22T13:24:24.999Z</time></trkpt><trkpt lat="42.65808276893701" lon="12.732257052126098"><ele>584.0</ele><time>2026-04-22T13:24:25.999Z</time></trkpt><trkpt lat="42.657866910292945" lon="12.732356773920287"><ele>588.5</ele><time>2026-04-22T13:24:26.999Z</time></trkpt><trkpt lat="42.65763940982836" lon="12.732400804708288"><ele>593.0</ele><time>2026-04-22T13:24:27.999Z</time></trkpt><trkpt lat="42.65740384695921" lon="12.732396562094834"><ele>593.0</ele><time>2026-04-22T13:24:28.999Z</time></trkpt><trkpt lat="42.65715910966625" lon="12.732313364406235"><ele>593.0</ele><time>2026-04-22T13:24:29.999Z</time></trkpt><trkpt lat="42.656914603264056" lon="12.732261323482854"><ele>587.5</ele><time>2026-04-22T13:24:30.999Z</time></trkpt><trkpt lat="42.656670500307264" lon="12.732225002524142"><ele>582.0</ele><time>2026-04-22T13:24:31.999Z</time></trkpt><trkpt lat="42.65641867198862" lon="12.73218709258423"><ele>582.0</ele><time>2026-04-22T13:24:32.999Z</time></trkpt><trkpt lat="42.65618604292535" lon="12.73215400714063"><ele>582.0</ele><time>2026-04-22T13:24:33.999Z</time></trkpt><trkpt lat="42.65595729922066" lon="12.732119668298939"><ele>577.3333333333334</ele><time>2026-04-22T13:24:34.999Z</time></trkpt><trkpt lat="42.6557308217136" lon="12.732080711357705"><ele>572.6666666666667</ele><time>2026-04-22T13:24:35.999Z</time></trkpt><trkpt lat="42.65551113975644" lon="12.732047544820896"><ele>568.0</ele><time>2026-04-22T13:24:36.999Z</time></trkpt><trkpt lat="42.655298079131185" lon="12.732017374066398"><ele>563.3333333333334</ele><time>2026-04-22T13:24:37.999Z</time></trkpt><trkpt lat="42.655089937866" lon="12.731991929818022"><ele>558.6666666666666</ele><time>2026-04-22T13:24:38.999Z</time></trkpt><trkpt lat="42.65488395815284" lon="12.731954759960464"><ele>554.0</ele><time>2026-04-22T13:24:39.999Z</time></trkpt><trkpt lat="42.65468562100726" lon="12.731936038884802"><ele>554.0</ele><time>2026-04-22T13:24:40.999Z</time></trkpt><trkpt lat="42.65449006323172" lon="12.731939964396835"><ele>554.0</ele><time>2026-04-22T13:24:41.999Z</time></trkpt><trkpt lat="42.65430107850709" lon="12.73196369145122"><ele>554.0</ele><time>2026-04-22T13:24:42.999Z</time></trkpt><trkpt lat="42.654115655072296" lon="12.731995990863457"><ele>554.6666666666666</ele><time>2026-04-22T13:24:43.999Z</time></trkpt><trkpt lat="42.65393110964796" lon="12.732033182156334"><ele>555.3333333333334</ele><time>2026-04-22T13:24:44.999Z</time></trkpt><trkpt lat="42.65374848504819" lon="12.732082677212695"><ele>556.0</ele><time>2026-04-22T13:24:45.999Z</time></trkpt><trkpt lat="42.653572491554456" lon="12.732149735642913"><ele>556.0</ele><time>2026-04-22T13:24:46.999Z</time></trkpt><trkpt lat="42.65339437504614" lon="12.732224451297288"><ele>556.0</ele><time>2026-04-22T13:24:47.999Z</time></trkpt><trkpt lat="42.65321696677565" lon="12.732312089999123"><ele>556.0</ele><time>2026-04-22T13:24:48.999Z</time></trkpt><trkpt lat="42.65304580249469" lon="12.73241390260009"><ele>556.0</ele><time>2026-04-22T13:24:49.999Z</time></trkpt><trkpt lat="42.6528736359883" lon="12.732510546374229"><ele>556.0</ele><time>2026-04-22T13:24:50.999Z</time></trkpt><trkpt lat="42.65269969825903" lon="12.732599371155343"><ele>556.0</ele><time>2026-04-22T13:24:51.999Z</time></trkpt><trkpt lat="42.652522381077844" lon="12.732691434658705"><ele>551.6666666666667</ele><time>2026-04-22T13:24:52.999Z</time></trkpt><trkpt lat="42.65234355243507" lon="12.732786204927649"><ele>547.3333333333334</ele><time>2026-04-22T13:24:53.999Z</time></trkpt><trkpt lat="42.652165727222844" lon="12.732879496103658"><ele>543.0</ele><time>2026-04-22T13:24:54.999Z</time></trkpt><trkpt lat="42.65198256857389" lon="12.732964493029586"><ele>547.0</ele><time>2026-04-22T13:24:55.999Z</time></trkpt><trkpt lat="42.6517934403699" lon="12.73304318894187"><ele>551.0</ele><time>2026-04-22T13:24:56.999Z</time></trkpt><trkpt lat="42.65159869131038" lon="12.733109272342993"><ele>555.0</ele><time>2026-04-22T13:24:57.999Z</time></trkpt><trkpt lat="42.65140289816852" lon="12.733171403699266"><ele>555.0</ele><time>2026-04-22T13:24:58.999Z</time></trkpt><trkpt lat="42.65120115583036" lon="12.73322731592398"><ele>555.0</ele><time>2026-04-22T13:24:59.999Z</time></trkpt><trkpt lat="42.65100139438392" lon="12.7332713043752"><ele>555.0</ele><time>2026-04-22T13:25:00.999Z</time></trkpt><trkpt lat="42.65079486733474" lon="12.733307333259264"><ele>555.6666666666666</ele><time>2026-04-22T13:25:01.999Z</time></trkpt><trkpt lat="42.65059327279976" lon="12.733345363912752"><ele>556.3333333333333</ele><time>2026-04-22T13:25:02.999Z</time></trkpt><trkpt lat="42.65039458960939" lon="12.733392356292892"><ele>557.0</ele><time>2026-04-22T13:25:03.999Z</time></trkpt><trkpt lat="42.650189942073595" lon="12.733439167518629"><ele>558.6666666666666</ele><time>2026-04-22T13:25:04.999Z</time></trkpt><trkpt lat="42.64999014004967" lon="12.733480637480378"><ele>560.3333333333334</ele><time>2026-04-22T13:25:05.999Z</time></trkpt><trkpt lat="42.64978906245215" lon="12.733523562305363"><ele>562.0</ele><time>2026-04-22T13:25:06.999Z</time></trkpt><trkpt lat="42.64959392180853" lon="12.733566155874643"><ele>548.0</ele><time>2026-04-22T13:25:07.999Z</time></trkpt><trkpt lat="42.649400775258286" lon="12.733604547373007"><ele>534.0</ele><time>2026-04-22T13:25:08.999Z</time></trkpt><trkpt lat="42.64921191003028" lon="12.733628331123008"><ele>520.0</ele><time>2026-04-22T13:25:09.999Z</time></trkpt><trkpt lat="42.64902869293822" lon="12.733648778111823"><ele>520.0</ele><time>2026-04-22T13:25:10.999Z</time></trkpt><trkpt lat="42.648844146784974" lon="12.733651164012581"><ele>520.0</ele><time>2026-04-22T13:25:11.999Z</time></trkpt><trkpt lat="42.64865057749136" lon="12.733604990277243"><ele>520.0</ele><time>2026-04-22T13:25:12.999Z</time></trkpt><trkpt lat="42.64846637659499" lon="12.733512351839686"><ele>526.6666666666667</ele><time>2026-04-22T13:25:13.999Z</time></trkpt><trkpt lat="42.648290185988095" lon="12.733381163824543"><ele>533.3333333333334</ele><time>2026-04-22T13:25:14.999Z</time></trkpt><trkpt lat="42.648116534936136" lon="12.733213815895262"><ele>540.0</ele><time>2026-04-22T13:25:15.999Z</time></trkpt><trkpt lat="42.6479418504084" lon="12.733026747722608"><ele>540.3333333333334</ele><time>2026-04-22T13:25:16.999Z</time></trkpt><trkpt lat="42.647769215466475" lon="12.732840127050153"><ele>540.6666666666667</ele><time>2026-04-22T13:25:17.999Z</time></trkpt><trkpt lat="42.64760225678375" lon="12.732667813780882"><ele>541.0</ele><time>2026-04-22T13:25:18.999Z</time></trkpt><trkpt lat="42.64744051695237" lon="12.732506677504164"><ele>541.0</ele><time>2026-04-22T13:25:19.999Z</time></trkpt><trkpt lat="42.647278763185184" lon="12.732347233740892"><ele>541.0</ele><time>2026-04-22T13:25:20.999Z</time></trkpt><trkpt lat="42.647126732864" lon="12.732192785733444"><ele>541.0</ele><time>2026-04-22T13:25:21.999Z</time></trkpt><trkpt lat="42.64698462225813" lon="12.732028051340807"><ele>532.6666666666667</ele><time>2026-04-22T13:25:22.999Z</time></trkpt><trkpt lat="42.646867099400474" lon="12.731828679095821"><ele>524.3333333333334</ele><time>2026-04-22T13:25:23.999Z</time></trkpt><trkpt lat="42.64677643737616" lon="12.731593807727345"><ele>516.0</ele><time>2026-04-22T13:25:24.999Z</time></trkpt><trkpt lat="42.6467155027878" lon="12.73134176485444"><ele>516.0</ele><time>2026-04-22T13:25:25.999Z</time></trkpt><trkpt lat="42.646694051409504" lon="12.731082419516818"><ele>516.0</ele><time>2026-04-22T13:25:26.999Z</time></trkpt><trkpt lat="42.64671688249251" lon="12.730826989143491"><ele>516.0</ele><time>2026-04-22T13:25:27.999Z</time></trkpt><trkpt lat="42.64677871013254" lon="12.730580423766622"><ele>515.6666666666666</ele><time>2026-04-22T13:25:28.999Z</time></trkpt><trkpt lat="42.64687407064152" lon="12.730341835297864"><ele>515.3333333333333</ele><time>2026-04-22T13:25:29.999Z</time></trkpt><trkpt lat="42.646989642333466" lon="12.730107036434747"><ele>515.0</ele><time>2026-04-22T13:25:30.999Z</time></trkpt><trkpt lat="42.6470951192196" lon="12.729879376064023"><ele>517.5</ele><time>2026-04-22T13:25:31.999Z</time></trkpt><trkpt lat="42.64717370284627" lon="12.729673496293673"><ele>520.0</ele><time>2026-04-22T13:25:32.999Z</time></trkpt><trkpt lat="42.64722360063049" lon="12.72950995434784"><ele>522.5</ele><time>2026-04-22T13:25:33.999Z</time></trkpt><trkpt lat="42.64725463535345" lon="12.72938138544338"><ele>525.0</ele><time>2026-04-22T13:25:34.999Z</time></trkpt><trkpt lat="42.64727344427105" lon="12.72925807292202"><ele>525.0</ele><time>2026-04-22T13:25:35.999Z</time></trkpt><trkpt lat="42.64728554960596" lon="12.729127131678014"><ele>525.0</ele><time>2026-04-22T13:25:36.999Z</time></trkpt><trkpt lat="42.64728535858112" lon="12.728994245432713"><ele>525.0</ele><time>2026-04-22T13:25:37.999Z</time></trkpt><trkpt lat="42.64727082790912" lon="12.728856865542967"><ele>525.0</ele><time>2026-04-22T13:25:38.999Z</time></trkpt><trkpt lat="42.647235064242246" lon="12.728704633089814"><ele>525.0</ele><time>2026-04-22T13:25:39.999Z</time></trkpt><trkpt lat="42.64718897170297" lon="12.728558634585305"><ele>526.5</ele><time>2026-04-22T13:25:40.999Z</time></trkpt><trkpt lat="42.647119390718835" lon="12.72841856280086"><ele>528.0</ele><time>2026-04-22T13:25:41.999Z</time></trkpt><trkpt lat="42.647031018269416" lon="12.728267301558406"><ele>529.5</ele><time>2026-04-22T13:25:42.999Z</time></trkpt><trkpt lat="42.64692255744594" lon="12.728120266625103"><ele>531.0</ele><time>2026-04-22T13:25:43.999Z</time></trkpt><trkpt lat="42.646807244495534" lon="12.7279845270135"><ele>529.0</ele><time>2026-04-22T13:25:44.999Z</time></trkpt><trkpt lat="42.64669934851625" lon="12.727857446310894"><ele>527.0</ele><time>2026-04-22T13:25:45.999Z</time></trkpt><trkpt lat="42.64659674757633" lon="12.727742388855681"><ele>525.0</ele><time>2026-04-22T13:25:46.999Z</time></trkpt><trkpt lat="42.64649878620589" lon="12.72764770061462"><ele>523.0</ele><time>2026-04-22T13:25:47.999Z</time></trkpt><trkpt lat="42.64640820864103" lon="12.727589101852784"><ele>523.0</ele><time>2026-04-22T13:25:48.999Z</time></trkpt><trkpt lat="42.646339898345104" lon="12.727533254476551"><ele>523.0</ele><time>2026-04-22T13:25:49.999Z</time></trkpt><trkpt lat="42.64624400054332" lon="12.72752152609876"><ele>523.0</ele><time>2026-04-22T13:25:51.999Z</time></trkpt><trkpt lat="42.64618535515083" lon="12.727483653779824"><ele>523.0</ele><time>2026-04-22T13:26:06Z</time></trkpt><trkpt lat="42.64605270861611" lon="12.727467854894885"><ele>523.0</ele><time>2026-04-22T13:26:08Z</time></trkpt><trkpt lat="42.64595626014547" lon="12.727473911397704"><ele>521.5</ele><time>2026-04-22T13:26:09Z</time></trkpt><trkpt lat="42.6458272055784" lon="12.72750196357343"><ele>520.0</ele><time>2026-04-22T13:26:10Z</time></trkpt><trkpt lat="42.64569193389014" lon="12.727559212433746"><ele>518.5</ele><time>2026-04-22T13:26:11Z</time></trkpt><trkpt lat="42.64554049325651" lon="12.727664574282334"><ele>517.0</ele><time>2026-04-22T13:26:12Z</time></trkpt><trkpt lat="42.645405578248166" lon="12.727778896867548"><ele>511.0</ele><time>2026-04-22T13:26:13Z</time></trkpt><trkpt lat="42.645250077082835" lon="12.727913757440609"><ele>505.0</ele><time>2026-04-22T13:26:14Z</time></trkpt><trkpt lat="42.64508828557623" lon="12.728054073491075"><ele>499.0</ele><time>2026-04-22T13:26:15Z</time></trkpt><trkpt lat="42.644925158193125" lon="12.72819399847372"><ele>499.0</ele><time>2026-04-22T13:26:16Z</time></trkpt><trkpt lat="42.64475055717042" lon="12.728342253045192"><ele>499.0</ele><time>2026-04-22T13:26:17Z</time></trkpt><trkpt lat="42.64457133702676" lon="12.728496081463332"><ele>499.0</ele><time>2026-04-22T13:26:18Z</time></trkpt><trkpt lat="42.644385331104885" lon="12.728656451212792"><ele>491.5</ele><time>2026-04-22T13:26:19Z</time></trkpt><trkpt lat="42.6441955940521" lon="12.728818232479977"><ele>484.0</ele><time>2026-04-22T13:26:20Z</time></trkpt><trkpt lat="42.644003119853174" lon="12.728981496479435"><ele>484.0</ele><time>2026-04-22T13:26:21Z</time></trkpt><trkpt lat="42.64380649078348" lon="12.72913528476279"><ele>484.0</ele><time>2026-04-22T13:26:22Z</time></trkpt><trkpt lat="42.64360179421797" lon="12.729288251999433"><ele>479.0</ele><time>2026-04-22T13:26:23Z</time></trkpt><trkpt lat="42.64339305649235" lon="12.729439526114817"><ele>474.0</ele><time>2026-04-22T13:26:24Z</time></trkpt><trkpt lat="42.643182115193035" lon="12.729592397240735"><ele>474.0</ele><time>2026-04-22T13:26:25Z</time></trkpt><trkpt lat="42.64297327437464" lon="12.729756719778395"><ele>474.0</ele><time>2026-04-22T13:26:26Z</time></trkpt><trkpt lat="42.642755409419074" lon="12.72990070615117"><ele>478.5</ele><time>2026-04-22T13:26:27Z</time></trkpt><trkpt lat="42.64254860266117" lon="12.730054905544574"><ele>483.0</ele><time>2026-04-22T13:26:28Z</time></trkpt><trkpt lat="42.64234753767698" lon="12.7302062705891"><ele>477.33333333333337</ele><time>2026-04-22T13:26:29Z</time></trkpt><trkpt lat="42.64214979797595" lon="12.730334159736538"><ele>471.6666666666667</ele><time>2026-04-22T13:26:30Z</time></trkpt><trkpt lat="42.641946671103106" lon="12.73042848388879"><ele>466.0</ele><time>2026-04-22T13:26:31Z</time></trkpt><trkpt lat="42.64174901408332" lon="12.730494231098588"><ele>463.0</ele><time>2026-04-22T13:26:32Z</time></trkpt><trkpt lat="42.64154008117082" lon="12.7305222377741"><ele>460.0</ele><time>2026-04-22T13:26:33Z</time></trkpt><trkpt lat="42.641332347454956" lon="12.730496333655841"><ele>457.0</ele><time>2026-04-22T13:26:34Z</time></trkpt><trkpt lat="42.64111737854811" lon="12.730420430646838"><ele>452.5</ele><time>2026-04-22T13:26:35Z</time></trkpt><trkpt lat="42.64089499297572" lon="12.730318233627091"><ele>448.0</ele><time>2026-04-22T13:26:36Z</time></trkpt><trkpt lat="42.64066640940947" lon="12.730217692212106"><ele>446.5</ele><time>2026-04-22T13:26:37Z</time></trkpt><trkpt lat="42.64042561655763" lon="12.730129128129061"><ele>445.0</ele><time>2026-04-22T13:26:38Z</time></trkpt><trkpt lat="42.640178898448475" lon="12.730057480330279"><ele>445.0</ele><time>2026-04-22T13:26:39Z</time></trkpt><trkpt lat="42.63993455564318" lon="12.730022320214571"><ele>445.0</ele><time>2026-04-22T13:26:40Z</time></trkpt><trkpt lat="42.639696909467744" lon="12.730036013828709"><ele>443.5</ele><time>2026-04-22T13:26:41Z</time></trkpt><trkpt lat="42.63946584785556" lon="12.73011674396697"><ele>442.0</ele><time>2026-04-22T13:26:42Z</time></trkpt><trkpt lat="42.63922634077716" lon="12.730233678098374"><ele>433.5</ele><time>2026-04-22T13:26:43Z</time></trkpt><trkpt lat="42.63899385622483" lon="12.73036167900581"><ele>425.0</ele><time>2026-04-22T13:26:44Z</time></trkpt><trkpt lat="42.63877292270491" lon="12.730450697196744"><ele>429.3333333333333</ele><time>2026-04-22T13:26:45Z</time></trkpt><trkpt lat="42.63857742974239" lon="12.730557755859682"><ele>433.66666666666663</ele><time>2026-04-22T13:26:46Z</time></trkpt><trkpt lat="42.63836838340672" lon="12.730612514070476"><ele>438.0</ele><time>2026-04-22T13:26:47Z</time></trkpt><trkpt lat="42.63814007018415" lon="12.730635267357476"><ele>438.0</ele><time>2026-04-22T13:26:48Z</time></trkpt><trkpt lat="42.63791004289954" lon="12.730583871879698"><ele>438.0</ele><time>2026-04-22T13:26:49Z</time></trkpt><trkpt lat="42.63767006699023" lon="12.730538305377072"><ele>434.5</ele><time>2026-04-22T13:26:50Z</time></trkpt><trkpt lat="42.63742498033831" lon="12.730512545140183"><ele>431.0</ele><time>2026-04-22T13:26:51Z</time></trkpt><trkpt lat="42.6371730628277" lon="12.730462105077635"><ele>425.5</ele><time>2026-04-22T13:26:52Z</time></trkpt><trkpt lat="42.636912455195706" lon="12.73041407251622"><ele>420.0</ele><time>2026-04-22T13:26:53Z</time></trkpt><trkpt lat="42.63664967032032" lon="12.730358669701813"><ele>420.0</ele><time>2026-04-22T13:26:54Z</time></trkpt><trkpt lat="42.63638809293631" lon="12.730307176791207"><ele>420.0</ele><time>2026-04-22T13:26:55Z</time></trkpt><trkpt lat="42.63612118210207" lon="12.73025678353501"><ele>423.0</ele><time>2026-04-22T13:26:56Z</time></trkpt><trkpt lat="42.63585490647583" lon="12.730208051475683"><ele>426.0</ele><time>2026-04-22T13:26:57Z</time></trkpt><trkpt lat="42.635587841749974" lon="12.730158057556428"><ele>426.0</ele><time>2026-04-22T13:26:58Z</time></trkpt><trkpt lat="42.63532187259756" lon="12.730109103151502"><ele>426.0</ele><time>2026-04-22T13:26:59Z</time></trkpt><trkpt lat="42.635052244488115" lon="12.730054130380433"><ele>417.5</ele><time>2026-04-22T13:27:00Z</time></trkpt><trkpt lat="42.63478060517496" lon="12.730000328803134"><ele>409.0</ele><time>2026-04-22T13:27:01Z</time></trkpt><trkpt lat="42.63450963214393" lon="12.729945712915448"><ele>411.0</ele><time>2026-04-22T13:27:02Z</time></trkpt><trkpt lat="42.6342402997556" lon="12.729895636526026"><ele>413.0</ele><time>2026-04-22T13:27:03Z</time></trkpt><trkpt lat="42.633970537123666" lon="12.729843331233008"><ele>413.0</ele><time>2026-04-22T13:27:04Z</time></trkpt><trkpt lat="42.63370289665921" lon="12.729792957813919"><ele>413.0</ele><time>2026-04-22T13:27:05Z</time></trkpt><trkpt lat="42.633437584875935" lon="12.729749188538992"><ele>409.0</ele><time>2026-04-22T13:27:06Z</time></trkpt><trkpt lat="42.633169421376394" lon="12.729720097485805"><ele>405.0</ele><time>2026-04-22T13:27:07Z</time></trkpt><trkpt lat="42.6329019815953" lon="12.729722925285335"><ele>398.0</ele><time>2026-04-22T13:27:08Z</time></trkpt><trkpt lat="42.632644883092105" lon="12.729750997637755"><ele>391.0</ele><time>2026-04-22T13:27:09Z</time></trkpt><trkpt lat="42.63237882653298" lon="12.729784398943853"><ele>391.0</ele><time>2026-04-22T13:27:10Z</time></trkpt><trkpt lat="42.63211032206732" lon="12.72981851261283"><ele>391.0</ele><time>2026-04-22T13:27:11Z</time></trkpt><trkpt lat="42.631848803268234" lon="12.729846537931785"><ele>388.0</ele><time>2026-04-22T13:27:12Z</time></trkpt><trkpt lat="42.63159564207919" lon="12.729873358354196"><ele>385.0</ele><time>2026-04-22T13:27:13Z</time></trkpt><trkpt lat="42.63135069001635" lon="12.729901105137383"><ele>382.0</ele><time>2026-04-22T13:27:14Z</time></trkpt><trkpt lat="42.63111478371638" lon="12.729925279397092"><ele>379.0</ele><time>2026-04-22T13:27:15Z</time></trkpt><trkpt lat="42.63088367058579" lon="12.729951118065115"><ele>379.0</ele><time>2026-04-22T13:27:16Z</time></trkpt><trkpt lat="42.63065758740058" lon="12.729986433018514"><ele>379.0</ele><time>2026-04-22T13:27:17Z</time></trkpt><trkpt lat="42.630449749881144" lon="12.730026006264032"><ele>379.0</ele><time>2026-04-22T13:27:18Z</time></trkpt><trkpt lat="42.63023219357153" lon="12.73008090989244"><ele>378.5</ele><time>2026-04-22T13:27:19Z</time></trkpt><trkpt lat="42.63001284403498" lon="12.73015500526884"><ele>378.0</ele><time>2026-04-22T13:27:20Z</time></trkpt><trkpt lat="42.62979036510037" lon="12.730242854485258"><ele>375.0</ele><time>2026-04-22T13:27:21Z</time></trkpt><trkpt lat="42.629565269354565" lon="12.730339480283131"><ele>372.0</ele><time>2026-04-22T13:27:22Z</time></trkpt><trkpt lat="42.62934303896155" lon="12.730438416822945"><ele>372.0</ele><time>2026-04-22T13:27:23Z</time></trkpt><trkpt lat="42.629126547497066" lon="12.73053109200194"><ele>372.0</ele><time>2026-04-22T13:27:24Z</time></trkpt><trkpt lat="42.62892309400484" lon="12.73061916272672"><ele>372.0</ele><time>2026-04-22T13:27:25Z</time></trkpt><trkpt lat="42.62872875481838" lon="12.730709774878635"><ele>372.6666666666667</ele><time>2026-04-22T13:27:26Z</time></trkpt><trkpt lat="42.62855000267007" lon="12.730788152503326"><ele>373.33333333333337</ele><time>2026-04-22T13:27:27Z</time></trkpt><trkpt lat="42.62839493698" lon="12.730852592286903"><ele>374.0</ele><time>2026-04-22T13:27:28Z</time></trkpt><trkpt lat="42.628267161900006" lon="12.730898305596348"><ele>374.0</ele><time>2026-04-22T13:27:29Z</time></trkpt><trkpt lat="42.62816465772444" lon="12.73091325147375"><ele>374.0</ele><time>2026-04-22T13:27:30Z</time></trkpt><trkpt lat="42.62807279229516" lon="12.730902312310286"><ele>374.0</ele><time>2026-04-22T13:27:31Z</time></trkpt><trkpt lat="42.62798671075845" lon="12.730882395134248"><ele>374.0</ele><time>2026-04-22T13:27:32Z</time></trkpt><trkpt lat="42.627908434596655" lon="12.73088904157153"><ele>374.0</ele><time>2026-04-22T13:27:34Z</time></trkpt><trkpt lat="42.62782746491087" lon="12.730977860832935"><ele>372.2</ele><time>2026-04-22T13:28:42.001Z</time></trkpt><trkpt lat="42.62778456701763" lon="12.731042782183119"><ele>370.4</ele><time>2026-04-22T13:28:43.001Z</time></trkpt><trkpt lat="42.62772296195698" lon="12.731119955880366"><ele>368.6</ele><time>2026-04-22T13:28:44.001Z</time></trkpt><trkpt lat="42.62763909820466" lon="12.731199847021314"><ele>366.8</ele><time>2026-04-22T13:28:45.001Z</time></trkpt><trkpt lat="42.62750123462358" lon="12.731248419494511"><ele>365.0</ele><time>2026-04-22T13:28:46.001Z</time></trkpt><trkpt lat="42.62732395315166" lon="12.731327444064783"><ele>365.0</ele><time>2026-04-22T13:28:47.001Z</time></trkpt><trkpt lat="42.627138992298974" lon="12.731431550606658"><ele>365.0</ele><time>2026-04-22T13:28:48.001Z</time></trkpt><trkpt lat="42.626945613508454" lon="12.73151382610699"><ele>365.0</ele><time>2026-04-22T13:28:49.001Z</time></trkpt><trkpt lat="42.62676180918271" lon="12.731595500749638"><ele>366.33333333333337</ele><time>2026-04-22T13:28:50.001Z</time></trkpt><trkpt lat="42.62657925723714" lon="12.731676575633076"><ele>367.6666666666667</ele><time>2026-04-22T13:28:51.001Z</time></trkpt><trkpt lat="42.62638743938106" lon="12.731756966507842"><ele>369.0</ele><time>2026-04-22T13:28:52.001Z</time></trkpt><trkpt lat="42.626204473543886" lon="12.73183887146874"><ele>365.3333333333333</ele><time>2026-04-22T13:28:53.001Z</time></trkpt><trkpt lat="42.626021424555546" lon="12.731926636671043"><ele>361.66666666666663</ele><time>2026-04-22T13:28:54.001Z</time></trkpt><trkpt lat="42.62583209812719" lon="12.732005547653765"><ele>358.0</ele><time>2026-04-22T13:28:55.001Z</time></trkpt><trkpt lat="42.625643670878745" lon="12.73208697132653"><ele>358.0</ele><time>2026-04-22T13:28:56.001Z</time></trkpt><trkpt lat="42.6254641631415" lon="12.732173534940788"><ele>358.0</ele><time>2026-04-22T13:28:57.001Z</time></trkpt><trkpt lat="42.6252804383681" lon="12.732253484122994"><ele>358.0</ele><time>2026-04-22T13:28:58.001Z</time></trkpt><trkpt lat="42.625100101765504" lon="12.732328670022776"><ele>359.0</ele><time>2026-04-22T13:28:59.001Z</time></trkpt><trkpt lat="42.62491773693488" lon="12.732406846763599"><ele>360.0</ele><time>2026-04-22T13:29:00.001Z</time></trkpt><trkpt lat="42.62472878948451" lon="12.732486888097812"><ele>361.0</ele><time>2026-04-22T13:29:01.001Z</time></trkpt><trkpt lat="42.6245379760769" lon="12.732571692902"><ele>363.0</ele><time>2026-04-22T13:29:02.001Z</time></trkpt><trkpt lat="42.62434275587959" lon="12.732645789664426"><ele>365.0</ele><time>2026-04-22T13:29:03.001Z</time></trkpt><trkpt lat="42.62413663593194" lon="12.732703715859248"><ele>367.0</ele><time>2026-04-22T13:29:04.001Z</time></trkpt><trkpt lat="42.62392673482123" lon="12.732748326507775"><ele>362.0</ele><time>2026-04-22T13:29:05.001Z</time></trkpt><trkpt lat="42.62371348060832" lon="12.732779989455203"><ele>357.0</ele><time>2026-04-22T13:29:06.001Z</time></trkpt><trkpt lat="42.623502865864666" lon="12.732798039809488"><ele>352.0</ele><time>2026-04-22T13:29:07.001Z</time></trkpt><trkpt lat="42.62330064121427" lon="12.732808159826716"><ele>351.0</ele><time>2026-04-22T13:29:08.001Z</time></trkpt><trkpt lat="42.62309993880125" lon="12.732802897627403"><ele>350.0</ele><time>2026-04-22T13:29:09.001Z</time></trkpt><trkpt lat="42.62289669972343" lon="12.73276471218118"><ele>349.0</ele><time>2026-04-22T13:29:10.001Z</time></trkpt><trkpt lat="42.62268323088155" lon="12.732733956774327"><ele>355.5</ele><time>2026-04-22T13:29:11.001Z</time></trkpt><trkpt lat="42.62244338945651" lon="12.732692450030001"><ele>362.0</ele><time>2026-04-22T13:29:12.001Z</time></trkpt><trkpt lat="42.622186116543" lon="12.732645901112141"><ele>357.0</ele><time>2026-04-22T13:29:13.001Z</time></trkpt><trkpt lat="42.62191054611497" lon="12.732597305891625"><ele>352.0</ele><time>2026-04-22T13:29:14.001Z</time></trkpt><trkpt lat="42.62163154696418" lon="12.73256321118912"><ele>352.0</ele><time>2026-04-22T13:29:15.001Z</time></trkpt><trkpt lat="42.62137217409197" lon="12.732508386384389"><ele>352.0</ele><time>2026-04-22T13:29:16.001Z</time></trkpt><trkpt lat="42.62112754289232" lon="12.73244114205709"><ele>349.0</ele><time>2026-04-22T13:29:17.001Z</time></trkpt><trkpt lat="42.62088094293225" lon="12.73240039702635"><ele>346.0</ele><time>2026-04-22T13:29:18.001Z</time></trkpt><trkpt lat="42.62061417772437" lon="12.732364385638883"><ele>346.0</ele><time>2026-04-22T13:29:19.001Z</time></trkpt><trkpt lat="42.620357014240064" lon="12.732339496086333"><ele>346.0</ele><time>2026-04-22T13:29:20.001Z</time></trkpt><trkpt lat="42.62011759325707" lon="12.732327924874573"><ele>345.0</ele><time>2026-04-22T13:29:21.001Z</time></trkpt><trkpt lat="42.619885303311186" lon="12.732331162570688"><ele>344.0</ele><time>2026-04-22T13:29:22.001Z</time></trkpt><trkpt lat="42.61966337293244" lon="12.732347568513283"><ele>343.6666666666667</ele><time>2026-04-22T13:29:23.001Z</time></trkpt><trkpt lat="42.61945358206087" lon="12.732372074987751"><ele>343.3333333333333</ele><time>2026-04-22T13:29:24.001Z</time></trkpt><trkpt lat="42.61925728738958" lon="12.7324009894372"><ele>343.0</ele><time>2026-04-22T13:29:25.001Z</time></trkpt><trkpt lat="42.61905655548582" lon="12.732442742202792"><ele>343.0</ele><time>2026-04-22T13:29:26.001Z</time></trkpt><trkpt lat="42.61884505149564" lon="12.732512975093753"><ele>343.0</ele><time>2026-04-22T13:29:27.001Z</time></trkpt><trkpt lat="42.61862489266488" lon="12.732606060488727"><ele>343.0</ele><time>2026-04-22T13:29:28.001Z</time></trkpt><trkpt lat="42.61838447061651" lon="12.732733185395332"><ele>340.5</ele><time>2026-04-22T13:29:29.001Z</time></trkpt><trkpt lat="42.61812985540284" lon="12.732906049641556"><ele>338.0</ele><time>2026-04-22T13:29:30.001Z</time></trkpt><trkpt lat="42.61787238476076" lon="12.73311588878846"><ele>338.5</ele><time>2026-04-22T13:29:31.001Z</time></trkpt><trkpt lat="42.6176122032294" lon="12.733337848450205"><ele>339.0</ele><time>2026-04-22T13:29:32.001Z</time></trkpt><trkpt lat="42.61734713359052" lon="12.733563977888469"><ele>339.0</ele><time>2026-04-22T13:29:33.001Z</time></trkpt><trkpt lat="42.61709066385308" lon="12.733787582762295"><ele>339.0</ele><time>2026-04-22T13:29:34.001Z</time></trkpt><trkpt lat="42.616879580628925" lon="12.734054582658098"><ele>342.5</ele><time>2026-04-22T13:29:35.001Z</time></trkpt><trkpt lat="42.61664547971483" lon="12.73423182920521"><ele>346.0</ele><time>2026-04-22T13:29:36.001Z</time></trkpt><trkpt lat="42.61641095547922" lon="12.734375923220057"><ele>344.5</ele><time>2026-04-22T13:29:37.001Z</time></trkpt><trkpt lat="42.61617560159699" lon="12.734490104172083"><ele>343.0</ele><time>2026-04-22T13:29:38.001Z</time></trkpt><trkpt lat="42.61594488879888" lon="12.734569798643433"><ele>340.66666666666663</ele><time>2026-04-22T13:29:39.001Z</time></trkpt><trkpt lat="42.615723657420766" lon="12.734616370106565"><ele>338.3333333333333</ele><time>2026-04-22T13:29:40.001Z</time></trkpt><trkpt lat="42.61550969152878" lon="12.734633301580883"><ele>336.0</ele><time>2026-04-22T13:29:41.001Z</time></trkpt><trkpt lat="42.61529766104146" lon="12.734647727256013"><ele>335.0</ele><time>2026-04-22T13:29:42.001Z</time></trkpt><trkpt lat="42.615089611575016" lon="12.734683491541606"><ele>334.0</ele><time>2026-04-22T13:29:43.001Z</time></trkpt><trkpt lat="42.614876690782225" lon="12.734722371001565"><ele>333.0</ele><time>2026-04-22T13:29:44.001Z</time></trkpt><trkpt lat="42.61467232196683" lon="12.734758110646979"><ele>332.0</ele><time>2026-04-22T13:29:45.001Z</time></trkpt><trkpt lat="42.61447792876935" lon="12.73478860518027"><ele>331.0</ele><time>2026-04-22T13:29:46.001Z</time></trkpt><trkpt lat="42.61429577378209" lon="12.734826135710955"><ele>330.0</ele><time>2026-04-22T13:29:47.001Z</time></trkpt><trkpt lat="42.614120788891576" lon="12.734858357824171"><ele>330.0</ele><time>2026-04-22T13:29:48.001Z</time></trkpt><trkpt lat="42.6139468859871" lon="12.73488607434373"><ele>330.0</ele><time>2026-04-22T13:29:49.001Z</time></trkpt><trkpt lat="42.613768813452936" lon="12.734915722885644"><ele>330.0</ele><time>2026-04-22T13:29:50.001Z</time></trkpt><trkpt lat="42.61359146926247" lon="12.734951004972434"><ele>329.6666666666667</ele><time>2026-04-22T13:29:51.001Z</time></trkpt><trkpt lat="42.613420745954905" lon="12.73498293547921"><ele>329.33333333333337</ele><time>2026-04-22T13:29:52.001Z</time></trkpt><trkpt lat="42.61323718153032" lon="12.735013426951769"><ele>329.0</ele><time>2026-04-22T13:29:53.001Z</time></trkpt><trkpt lat="42.61303682627872" lon="12.735047096283552"><ele>329.0</ele><time>2026-04-22T13:29:54.002Z</time></trkpt><trkpt lat="42.6128550874778" lon="12.735074590291589"><ele>329.0</ele><time>2026-04-22T13:29:55.002Z</time></trkpt><trkpt lat="42.61267234916445" lon="12.735104424068943"><ele>329.0</ele><time>2026-04-22T13:29:56.002Z</time></trkpt><trkpt lat="42.612490897586554" lon="12.735133707799504"><ele>326.6666666666667</ele><time>2026-04-22T13:29:57.002Z</time></trkpt><trkpt lat="42.61231088544433" lon="12.735166178870488"><ele>324.3333333333333</ele><time>2026-04-22T13:29:58.002Z</time></trkpt><trkpt lat="42.61213641602954" lon="12.735201101962748"><ele>322.0</ele><time>2026-04-22T13:29:59.002Z</time></trkpt><trkpt lat="42.61198076195749" lon="12.73523584984838"><ele>322.0</ele><time>2026-04-22T13:30:00.001Z</time></trkpt><trkpt lat="42.61182986672946" lon="12.735263105732066"><ele>322.0</ele><time>2026-04-22T13:30:01.001Z</time></trkpt><trkpt lat="42.61169650704039" lon="12.735284770419895"><ele>322.0</ele><time>2026-04-22T13:30:02.001Z</time></trkpt><trkpt lat="42.61156765802661" lon="12.735302239320246"><ele>322.0</ele><time>2026-04-22T13:30:03.001Z</time></trkpt><trkpt lat="42.61144778736473" lon="12.735317364914378"><ele>322.0</ele><time>2026-04-22T13:30:04.001Z</time></trkpt><trkpt lat="42.61134553790683" lon="12.735334455071392"><ele>322.0</ele><time>2026-04-22T13:30:05.001Z</time></trkpt><trkpt lat="42.611265952102784" lon="12.735347725056535"><ele>322.0</ele><time>2026-04-22T13:30:06.001Z</time></trkpt><trkpt lat="42.61115149746012" lon="12.735376787197465"><ele>322.0</ele><time>2026-04-22T13:30:08.001Z</time></trkpt><trkpt lat="42.61110800851544" lon="12.735448351353789"><ele>322.0</ele><time>2026-04-22T13:30:10.001Z</time></trkpt><trkpt lat="42.61118308960509" lon="12.735483139596605"><ele>322.0</ele><time>2026-04-22T13:30:13.001Z</time></trkpt><trkpt lat="42.611239411782876" lon="12.735433757501804"><ele>322.0</ele><time>2026-04-22T13:30:14.001Z</time></trkpt><trkpt lat="42.61130654875766" lon="12.735374727966333"><ele>322.0</ele><time>2026-04-22T13:30:15.001Z</time></trkpt><trkpt lat="42.61139411917119" lon="12.735359585112471"><ele>322.0</ele><time>2026-04-22T13:30:16.001Z</time></trkpt><trkpt lat="42.61149084908736" lon="12.735345541080019"><ele>322.0</ele><time>2026-04-22T13:30:17.001Z</time></trkpt><trkpt lat="42.61160626355944" lon="12.735331690573867"><ele>322.0</ele><time>2026-04-22T13:30:18.001Z</time></trkpt><trkpt lat="42.611737601749226" lon="12.735311555832073"><ele>322.0</ele><time>2026-04-22T13:30:19.001Z</time></trkpt><trkpt lat="42.61187375496149" lon="12.735284018762522"><ele>322.0</ele><time>2026-04-22T13:30:20.001Z</time></trkpt><trkpt lat="42.61201995612344" lon="12.73525623665042"><ele>322.0</ele><time>2026-04-22T13:30:21.001Z</time></trkpt><trkpt lat="42.61217597605682" lon="12.735229792116185"><ele>322.0</ele><time>2026-04-22T13:30:22.001Z</time></trkpt><trkpt lat="42.61233469158121" lon="12.735207235413903"><ele>326.0</ele><time>2026-04-22T13:30:23.001Z</time></trkpt><trkpt lat="42.61247834017848" lon="12.735182059439047"><ele>330.0</ele><time>2026-04-22T13:30:24.001Z</time></trkpt><trkpt lat="42.61260300994787" lon="12.735158777088524"><ele>334.0</ele><time>2026-04-22T13:30:25.001Z</time></trkpt><trkpt lat="42.612716184021636" lon="12.735145479766393"><ele>338.0</ele><time>2026-04-22T13:30:26.001Z</time></trkpt><trkpt lat="42.61281603274754" lon="12.735149319872928"><ele>336.83333333333337</ele><time>2026-04-22T13:30:27.001Z</time></trkpt><trkpt lat="42.612907484004346" lon="12.73518759669424"><ele>335.6666666666667</ele><time>2026-04-22T13:30:28.001Z</time></trkpt><trkpt lat="42.612982643633025" lon="12.735243683522352"><ele>334.5</ele><time>2026-04-22T13:30:29.001Z</time></trkpt><trkpt lat="42.61308861120102" lon="12.735317469137119"><ele>333.3333333333333</ele><time>2026-04-22T13:30:31.001Z</time></trkpt><trkpt lat="42.61315390930838" lon="12.735336106312655"><ele>332.16666666666663</ele><time>2026-04-22T13:30:35.001Z</time></trkpt><trkpt lat="42.61316767293229" lon="12.735241907614435"><ele>331.0</ele><time>2026-04-22T13:32:20.001Z</time></trkpt><trkpt lat="42.613125149036165" lon="12.735355209984126"><ele>331.0</ele><time>2026-04-22T13:32:38.001Z</time></trkpt><trkpt lat="42.61319209873161" lon="12.735361927651407"><ele>331.0</ele><time>2026-04-22T13:34:10.002Z</time></trkpt><trkpt lat="42.613254865339535" lon="12.735397248785388"><ele>331.0</ele><time>2026-04-22T13:34:36.001Z</time></trkpt><trkpt lat="42.613311784978904" lon="12.735251510014953"><ele>331.0</ele><time>2026-04-22T13:36:50.001Z</time></trkpt><trkpt lat="42.61334896447273" lon="12.735145552419601"><ele>331.0</ele><time>2026-04-22T13:36:51.001Z</time></trkpt><trkpt lat="42.613401606405844" lon="12.73507052820246"><ele>331.0</ele><time>2026-04-22T13:36:52.001Z</time></trkpt><trkpt lat="42.61351499072603" lon="12.734982038820378"><ele>330.8</ele><time>2026-04-22T13:36:54.001Z</time></trkpt><trkpt lat="42.61359745103465" lon="12.734958399063544"><ele>330.6</ele><time>2026-04-22T13:36:55.001Z</time></trkpt><trkpt lat="42.61369822619599" lon="12.734946401431328"><ele>330.4</ele><time>2026-04-22T13:36:56.001Z</time></trkpt><trkpt lat="42.61382367356116" lon="12.73493624483399"><ele>330.2</ele><time>2026-04-22T13:36:57.001Z</time></trkpt><trkpt lat="42.61395377713089" lon="12.73492021007619"><ele>330.0</ele><time>2026-04-22T13:36:58.001Z</time></trkpt><trkpt lat="42.614073984520964" lon="12.734896539889984"><ele>330.0</ele><time>2026-04-22T13:36:59.001Z</time></trkpt><trkpt lat="42.61419846436779" lon="12.734872706222552"><ele>330.0</ele><time>2026-04-22T13:37:00.001Z</time></trkpt><trkpt lat="42.61432174890739" lon="12.734845779147877"><ele>330.0</ele><time>2026-04-22T13:37:01.001Z</time></trkpt><trkpt lat="42.614453416563904" lon="12.73481657528025"><ele>330.0</ele><time>2026-04-22T13:37:02.001Z</time></trkpt><trkpt lat="42.61459088780688" lon="12.734788655998468"><ele>330.75</ele><time>2026-04-22T13:37:03.001Z</time></trkpt><trkpt lat="42.61473392007492" lon="12.734761293980752"><ele>331.5</ele><time>2026-04-22T13:37:04.001Z</time></trkpt><trkpt lat="42.61488432518275" lon="12.734735558609012"><ele>332.25</ele><time>2026-04-22T13:37:05.001Z</time></trkpt><trkpt lat="42.61503673870753" lon="12.734711523142764"><ele>333.0</ele><time>2026-04-22T13:37:06.001Z</time></trkpt><trkpt lat="42.61518769916371" lon="12.734679700285593"><ele>333.75</ele><time>2026-04-22T13:37:07.001Z</time></trkpt><trkpt lat="42.615334711165204" lon="12.73466095437397"><ele>334.5</ele><time>2026-04-22T13:37:08.001Z</time></trkpt><trkpt lat="42.6154638622538" lon="12.734647236343386"><ele>335.25</ele><time>2026-04-22T13:37:09.001Z</time></trkpt><trkpt lat="42.61558119864469" lon="12.734625927779062"><ele>336.0</ele><time>2026-04-22T13:37:10.001Z</time></trkpt><trkpt lat="42.61568835449985" lon="12.734608033904248"><ele>336.0</ele><time>2026-04-22T13:37:11.001Z</time></trkpt><trkpt lat="42.61578432400272" lon="12.734589386361336"><ele>336.0</ele><time>2026-04-22T13:37:12.001Z</time></trkpt><trkpt lat="42.61588711789853" lon="12.734562144760307"><ele>336.0</ele><time>2026-04-22T13:37:13.001Z</time></trkpt><trkpt lat="42.61600827798918" lon="12.734527792540035"><ele>336.0</ele><time>2026-04-22T13:37:14.001Z</time></trkpt><trkpt lat="42.61612987341447" lon="12.734487170430894"><ele>337.75</ele><time>2026-04-22T13:37:15.001Z</time></trkpt><trkpt lat="42.61624789407397" lon="12.734434185252907"><ele>339.5</ele><time>2026-04-22T13:37:16.001Z</time></trkpt><trkpt lat="42.61636458494954" lon="12.734376019587403"><ele>341.25</ele><time>2026-04-22T13:37:17.001Z</time></trkpt><trkpt lat="42.616481384015216" lon="12.734313491348678"><ele>343.0</ele><time>2026-04-22T13:37:18.001Z</time></trkpt><trkpt lat="42.616596200739465" lon="12.734243237507366"><ele>343.75</ele><time>2026-04-22T13:37:19.001Z</time></trkpt><trkpt lat="42.61670820730414" lon="12.734164109390319"><ele>344.5</ele><time>2026-04-22T13:37:20.001Z</time></trkpt><trkpt lat="42.61681525795295" lon="12.7340830123882"><ele>345.25</ele><time>2026-04-22T13:37:21.001Z</time></trkpt><trkpt lat="42.61692208974649" lon="12.733995723365414"><ele>346.0</ele><time>2026-04-22T13:37:22.001Z</time></trkpt><trkpt lat="42.617029992875345" lon="12.7339076512455"><ele>344.25</ele><time>2026-04-22T13:37:23.001Z</time></trkpt><trkpt lat="42.61713789057844" lon="12.73381439754706"><ele>342.5</ele><time>2026-04-22T13:37:24.001Z</time></trkpt><trkpt lat="42.617249195510944" lon="12.733717068366149"><ele>340.75</ele><time>2026-04-22T13:37:25.001Z</time></trkpt><trkpt lat="42.61736413356981" lon="12.73362150233684"><ele>339.0</ele><time>2026-04-22T13:37:26.001Z</time></trkpt><trkpt lat="42.61748137986088" lon="12.733525187242213"><ele>338.75</ele><time>2026-04-22T13:37:27.001Z</time></trkpt><trkpt lat="42.61760108387588" lon="12.733425192860272"><ele>338.5</ele><time>2026-04-22T13:37:28.001Z</time></trkpt><trkpt lat="42.61772310380032" lon="12.733323723733701"><ele>338.25</ele><time>2026-04-22T13:37:29.001Z</time></trkpt><trkpt lat="42.61784635704963" lon="12.733221439179978"><ele>338.0</ele><time>2026-04-22T13:37:30Z</time></trkpt><trkpt lat="42.61797250612167" lon="12.733118867093523"><ele>338.0</ele><time>2026-04-22T13:37:31Z</time></trkpt><trkpt lat="42.61809724942623" lon="12.733014503216797"><ele>338.0</ele><time>2026-04-22T13:37:32Z</time></trkpt><trkpt lat="42.618226326119235" lon="12.73291448091319"><ele>338.0</ele><time>2026-04-22T13:37:33Z</time></trkpt><trkpt lat="42.61835951515543" lon="12.732822870140168"><ele>338.0</ele><time>2026-04-22T13:37:34Z</time></trkpt><trkpt lat="42.618496855935" lon="12.732742097130275"><ele>339.6666666666667</ele><time>2026-04-22T13:37:35Z</time></trkpt><trkpt lat="42.61863930438468" lon="12.732669485662658"><ele>341.3333333333333</ele><time>2026-04-22T13:37:36Z</time></trkpt><trkpt lat="42.61878608437894" lon="12.732607458408722"><ele>343.0</ele><time>2026-04-22T13:37:37Z</time></trkpt><trkpt lat="42.61893564615046" lon="12.732553010946011"><ele>343.0</ele><time>2026-04-22T13:37:38Z</time></trkpt><trkpt lat="42.61909204488067" lon="12.732505460044568"><ele>343.0</ele><time>2026-04-22T13:37:39Z</time></trkpt><trkpt lat="42.61925696691084" lon="12.732466813916773"><ele>343.0</ele><time>2026-04-22T13:37:40Z</time></trkpt><trkpt lat="42.61943102137736" lon="12.73243658140015"><ele>343.3333333333333</ele><time>2026-04-22T13:37:41Z</time></trkpt><trkpt lat="42.619604012766665" lon="12.732412524403124"><ele>343.6666666666667</ele><time>2026-04-22T13:37:42Z</time></trkpt><trkpt lat="42.619780071647675" lon="12.732402314231726"><ele>344.0</ele><time>2026-04-22T13:37:43Z</time></trkpt><trkpt lat="42.61995669371265" lon="12.732390860229538"><ele>344.0</ele><time>2026-04-22T13:37:44Z</time></trkpt><trkpt lat="42.620138755415006" lon="12.732390134780992"><ele>344.0</ele><time>2026-04-22T13:37:45Z</time></trkpt><trkpt lat="42.62031984598416" lon="12.732394412043996"><ele>344.0</ele><time>2026-04-22T13:37:46Z</time></trkpt><trkpt lat="42.62050470008428" lon="12.73241294987348"><ele>344.6666666666667</ele><time>2026-04-22T13:37:47Z</time></trkpt><trkpt lat="42.62068653664607" lon="12.732436872174901"><ele>345.3333333333333</ele><time>2026-04-22T13:37:48Z</time></trkpt><trkpt lat="42.620866498050724" lon="12.732460132897875"><ele>346.0</ele><time>2026-04-22T13:37:49Z</time></trkpt><trkpt lat="42.621039686580175" lon="12.73248697352383"><ele>348.0</ele><time>2026-04-22T13:37:50Z</time></trkpt><trkpt lat="42.62120477740094" lon="12.732505220232884"><ele>350.0</ele><time>2026-04-22T13:37:51Z</time></trkpt><trkpt lat="42.621365135533445" lon="12.732519794952985"><ele>352.0</ele><time>2026-04-22T13:37:52Z</time></trkpt><trkpt lat="42.62152057470478" lon="12.732563349322014"><ele>352.0</ele><time>2026-04-22T13:37:53Z</time></trkpt><trkpt lat="42.62168122204884" lon="12.732596443046932"><ele>352.0</ele><time>2026-04-22T13:37:54Z</time></trkpt><trkpt lat="42.62190352158409" lon="12.732648533475398"><ele>352.0</ele><time>2026-04-22T13:37:55Z</time></trkpt><trkpt lat="42.62210112097773" lon="12.732678767574054"><ele>351.0</ele><time>2026-04-22T13:37:56Z</time></trkpt><trkpt lat="42.622306116885554" lon="12.73271582656978"><ele>350.0</ele><time>2026-04-22T13:37:57Z</time></trkpt><trkpt lat="42.62251943834479" lon="12.73275719254819"><ele>349.0</ele><time>2026-04-22T13:37:58Z</time></trkpt><trkpt lat="42.6227314956891" lon="12.732798543220735"><ele>349.0</ele><time>2026-04-22T13:37:59Z</time></trkpt><trkpt lat="42.6229447784797" lon="12.732831031437028"><ele>349.0</ele><time>2026-04-22T13:38:00Z</time></trkpt><trkpt lat="42.623149258801256" lon="12.732847912255849"><ele>349.0</ele><time>2026-04-22T13:38:01Z</time></trkpt><trkpt lat="42.623360574161104" lon="12.732845042425112"><ele>349.0</ele><time>2026-04-22T13:38:02Z</time></trkpt><trkpt lat="42.62358944765588" lon="12.732825516917615"><ele>349.0</ele><time>2026-04-22T13:38:03Z</time></trkpt><trkpt lat="42.62382297102361" lon="12.732800291401762"><ele>350.5</ele><time>2026-04-22T13:38:04Z</time></trkpt><trkpt lat="42.62406753386584" lon="12.732753650945979"><ele>352.0</ele><time>2026-04-22T13:38:05Z</time></trkpt><trkpt lat="42.624306324807065" lon="12.732695272930421"><ele>356.5</ele><time>2026-04-22T13:38:06Z</time></trkpt><trkpt lat="42.62454846603731" lon="12.73262303245694"><ele>361.0</ele><time>2026-04-22T13:38:07Z</time></trkpt><trkpt lat="42.62478372710698" lon="12.732532521351128"><ele>361.0</ele><time>2026-04-22T13:38:08Z</time></trkpt><trkpt lat="42.62501633207059" lon="12.732429261744045"><ele>361.0</ele><time>2026-04-22T13:38:09Z</time></trkpt><trkpt lat="42.625249603185075" lon="12.732323214102122"><ele>359.5</ele><time>2026-04-22T13:38:10Z</time></trkpt><trkpt lat="42.62548530755797" lon="12.732216509602218"><ele>358.0</ele><time>2026-04-22T13:38:11Z</time></trkpt><trkpt lat="42.6257198393155" lon="12.732112141664908"><ele>358.0</ele><time>2026-04-22T13:38:12Z</time></trkpt><trkpt lat="42.62595230589979" lon="12.732005251500492"><ele>358.0</ele><time>2026-04-22T13:38:13Z</time></trkpt><trkpt lat="42.62618509485311" lon="12.73189950237201"><ele>363.5</ele><time>2026-04-22T13:38:14Z</time></trkpt><trkpt lat="42.62641902630741" lon="12.73179670756138"><ele>369.0</ele><time>2026-04-22T13:38:15Z</time></trkpt><trkpt lat="42.626652604045326" lon="12.731695079309034"><ele>369.0</ele><time>2026-04-22T13:38:16Z</time></trkpt><trkpt lat="42.62688383830067" lon="12.73158978150474"><ele>369.0</ele><time>2026-04-22T13:38:17Z</time></trkpt><trkpt lat="42.62711673731299" lon="12.731484849409624"><ele>367.0</ele><time>2026-04-22T13:38:18.001Z</time></trkpt><trkpt lat="42.627351675910624" lon="12.73137224569318"><ele>365.0</ele><time>2026-04-22T13:38:19.001Z</time></trkpt><trkpt lat="42.627589918057325" lon="12.731263231723043"><ele>365.5</ele><time>2026-04-22T13:38:20.001Z</time></trkpt><trkpt lat="42.627831953925266" lon="12.731159450914108"><ele>366.0</ele><time>2026-04-22T13:38:21.001Z</time></trkpt><trkpt lat="42.628071569846995" lon="12.731057076613222"><ele>370.0</ele><time>2026-04-22T13:38:22.001Z</time></trkpt><trkpt lat="42.62831108727794" lon="12.730956024475418"><ele>374.0</ele><time>2026-04-22T13:38:23.001Z</time></trkpt><trkpt lat="42.628551095136416" lon="12.730849750217041"><ele>373.0</ele><time>2026-04-22T13:38:24.001Z</time></trkpt><trkpt lat="42.628787632421485" lon="12.730741966468496"><ele>372.0</ele><time>2026-04-22T13:38:25.001Z</time></trkpt><trkpt lat="42.629023015180124" lon="12.730636966902832"><ele>372.0</ele><time>2026-04-22T13:38:26.001Z</time></trkpt><trkpt lat="42.62925989492266" lon="12.730532390157046"><ele>372.0</ele><time>2026-04-22T13:38:27.001Z</time></trkpt><trkpt lat="42.62949838624563" lon="12.730431520445245"><ele>372.0</ele><time>2026-04-22T13:38:28.001Z</time></trkpt><trkpt lat="42.62973555054437" lon="12.730331837883245"><ele>372.0</ele><time>2026-04-22T13:38:29.001Z</time></trkpt><trkpt lat="42.629976235754434" lon="12.730229562589393"><ele>375.0</ele><time>2026-04-22T13:38:30.001Z</time></trkpt><trkpt lat="42.63021822686072" lon="12.730137985130805"><ele>378.0</ele><time>2026-04-22T13:38:31.001Z</time></trkpt><trkpt lat="42.63046302952677" lon="12.730064913319287"><ele>378.5</ele><time>2026-04-22T13:38:32.001Z</time></trkpt><trkpt lat="42.630695076073884" lon="12.730019278892984"><ele>379.0</ele><time>2026-04-22T13:38:33.001Z</time></trkpt><trkpt lat="42.63092793965414" lon="12.729988663055853"><ele>382.0</ele><time>2026-04-22T13:38:34.001Z</time></trkpt><trkpt lat="42.63115912365052" lon="12.72996464961594"><ele>385.0</ele><time>2026-04-22T13:38:35.001Z</time></trkpt><trkpt lat="42.63140013164697" lon="12.72994383504938"><ele>385.0</ele><time>2026-04-22T13:38:36.001Z</time></trkpt><trkpt lat="42.63163899748805" lon="12.729917348968195"><ele>385.0</ele><time>2026-04-22T13:38:37.001Z</time></trkpt><trkpt lat="42.63187486470604" lon="12.729886308469576"><ele>388.0</ele><time>2026-04-22T13:38:38.001Z</time></trkpt><trkpt lat="42.63211836397962" lon="12.729856560708152"><ele>391.0</ele><time>2026-04-22T13:38:39.001Z</time></trkpt><trkpt lat="42.63235944079697" lon="12.7298257886475"><ele>391.0</ele><time>2026-04-22T13:38:40.001Z</time></trkpt><trkpt lat="42.63260027336591" lon="12.729798122007493"><ele>391.0</ele><time>2026-04-22T13:38:41.001Z</time></trkpt><trkpt lat="42.632839331034255" lon="12.729776236722284"><ele>398.0</ele><time>2026-04-22T13:38:42.001Z</time></trkpt><trkpt lat="42.633072537719066" lon="12.729762323296839"><ele>405.0</ele><time>2026-04-22T13:38:43.001Z</time></trkpt><trkpt lat="42.63331182108065" lon="12.729764256800724"><ele>405.0</ele><time>2026-04-22T13:38:44.001Z</time></trkpt><trkpt lat="42.63354738438142" lon="12.729785496015406"><ele>405.0</ele><time>2026-04-22T13:38:45.001Z</time></trkpt><trkpt lat="42.63378870254756" lon="12.729823770385844"><ele>409.0</ele><time>2026-04-22T13:38:46.001Z</time></trkpt><trkpt lat="42.63403689999514" lon="12.729891546656376"><ele>413.0</ele><time>2026-04-22T13:38:47.001Z</time></trkpt><trkpt lat="42.63430005427809" lon="12.729940786066813"><ele>411.0</ele><time>2026-04-22T13:38:48.001Z</time></trkpt><trkpt lat="42.63456858467711" lon="12.729991571458072"><ele>409.0</ele><time>2026-04-22T13:38:49.001Z</time></trkpt><trkpt lat="42.63484507205953" lon="12.730044692389018"><ele>409.0</ele><time>2026-04-22T13:38:50.001Z</time></trkpt><trkpt lat="42.63513037571439" lon="12.730099507075845"><ele>409.0</ele><time>2026-04-22T13:38:51Z</time></trkpt><trkpt lat="42.63541911756538" lon="12.730155570700372"><ele>409.0</ele><time>2026-04-22T13:38:52Z</time></trkpt><trkpt lat="42.63570821906396" lon="12.730211198567003"><ele>409.0</ele><time>2026-04-22T13:38:53Z</time></trkpt><trkpt lat="42.6359910171255" lon="12.730265233327371"><ele>414.5</ele><time>2026-04-22T13:38:54Z</time></trkpt><trkpt lat="42.63627514908201" lon="12.730303995779789"><ele>420.0</ele><time>2026-04-22T13:38:55Z</time></trkpt><trkpt lat="42.63655044571224" lon="12.730377742339115"><ele>420.0</ele><time>2026-04-22T13:38:56Z</time></trkpt><trkpt lat="42.636823575216056" lon="12.730437732455638"><ele>420.0</ele><time>2026-04-22T13:38:57Z</time></trkpt><trkpt lat="42.637094636151026" lon="12.730485846721214"><ele>425.5</ele><time>2026-04-22T13:38:58Z</time></trkpt><trkpt lat="42.63736540178967" lon="12.73053457397983"><ele>431.0</ele><time>2026-04-22T13:38:59Z</time></trkpt><trkpt lat="42.63763139638705" lon="12.730587345520409"><ele>434.5</ele><time>2026-04-22T13:39:00Z</time></trkpt><trkpt lat="42.637885931216836" lon="12.730638439254038"><ele>438.0</ele><time>2026-04-22T13:39:01Z</time></trkpt><trkpt lat="42.6381167522179" lon="12.730664442993147"><ele>438.0</ele><time>2026-04-22T13:39:02Z</time></trkpt><trkpt lat="42.63833707818269" lon="12.730659924336656"><ele>438.0</ele><time>2026-04-22T13:39:03Z</time></trkpt><trkpt lat="42.63855902906199" lon="12.730610053137822"><ele>438.0</ele><time>2026-04-22T13:39:04Z</time></trkpt><trkpt lat="42.638775194298006" lon="12.7305263184615"><ele>431.5</ele><time>2026-04-22T13:39:05Z</time></trkpt><trkpt lat="42.638992783152915" lon="12.730410811475265"><ele>425.0</ele><time>2026-04-22T13:39:06Z</time></trkpt><trkpt lat="42.639210434473036" lon="12.730289387608112"><ele>433.5</ele><time>2026-04-22T13:39:07Z</time></trkpt><trkpt lat="42.63943224538266" lon="12.730179847421944"><ele>442.0</ele><time>2026-04-22T13:39:08Z</time></trkpt><trkpt lat="42.639656854565246" lon="12.730093436951398"><ele>443.0</ele><time>2026-04-22T13:39:09Z</time></trkpt><trkpt lat="42.63987854506935" lon="12.730058340047508"><ele>444.0</ele><time>2026-04-22T13:39:10Z</time></trkpt><trkpt lat="42.6400966960948" lon="12.730079019965075"><ele>445.0</ele><time>2026-04-22T13:39:11Z</time></trkpt><trkpt lat="42.6403177676679" lon="12.73013155171689"><ele>446.5</ele><time>2026-04-22T13:39:12Z</time></trkpt><trkpt lat="42.640543747797665" lon="12.730218318918942"><ele>448.0</ele><time>2026-04-22T13:39:13Z</time></trkpt><trkpt lat="42.6407697900513" lon="12.730322151067533"><ele>448.0</ele><time>2026-04-22T13:39:14Z</time></trkpt><trkpt lat="42.64099648968001" lon="12.730417238206542"><ele>448.0</ele><time>2026-04-22T13:39:15Z</time></trkpt><trkpt lat="42.64122670176455" lon="12.730499724454479"><ele>452.5</ele><time>2026-04-22T13:39:16Z</time></trkpt><trkpt lat="42.6414597157313" lon="12.730546150331277"><ele>457.0</ele><time>2026-04-22T13:39:17Z</time></trkpt><trkpt lat="42.64168686892776" lon="12.730559332418222"><ele>457.0</ele><time>2026-04-22T13:39:18Z</time></trkpt><trkpt lat="42.64190052293369" lon="12.73052399820146"><ele>457.0</ele><time>2026-04-22T13:39:19Z</time></trkpt><trkpt lat="42.642108330232695" lon="12.730437513664832"><ele>457.0</ele><time>2026-04-22T13:39:20Z</time></trkpt><trkpt lat="42.64230899263392" lon="12.730309767067798"><ele>462.6666666666667</ele><time>2026-04-22T13:39:21Z</time></trkpt><trkpt lat="42.64250480757753" lon="12.730162759262566"><ele>468.33333333333337</ele><time>2026-04-22T13:39:22Z</time></trkpt><trkpt lat="42.6426866463909" lon="12.73001652486434"><ele>474.0</ele><time>2026-04-22T13:39:23Z</time></trkpt><trkpt lat="42.642878994374705" lon="12.729878243904057"><ele>474.0</ele><time>2026-04-22T13:39:24Z</time></trkpt><trkpt lat="42.643066596940834" lon="12.729743340396274"><ele>474.0</ele><time>2026-04-22T13:39:25Z</time></trkpt><trkpt lat="42.64325013476045" lon="12.729612915850147"><ele>474.0</ele><time>2026-04-22T13:39:26Z</time></trkpt><trkpt lat="42.64340787767012" lon="12.729495730390646"><ele>476.5</ele><time>2026-04-22T13:39:27Z</time></trkpt><trkpt lat="42.643540071821484" lon="12.72939120995412"><ele>479.0</ele><time>2026-04-22T13:39:28Z</time></trkpt><trkpt lat="42.64365706952761" lon="12.729296887618274"><ele>481.5</ele><time>2026-04-22T13:39:29Z</time></trkpt><trkpt lat="42.643763194836936" lon="12.729220537328816"><ele>484.0</ele><time>2026-04-22T13:39:30Z</time></trkpt><trkpt lat="42.64385956705556" lon="12.729152125984815"><ele>484.0</ele><time>2026-04-22T13:39:31Z</time></trkpt><trkpt lat="42.64394634157748" lon="12.729082926061558"><ele>484.0</ele><time>2026-04-22T13:39:32Z</time></trkpt><trkpt lat="42.644033142086585" lon="12.729014048153775"><ele>484.0</ele><time>2026-04-22T13:39:33Z</time></trkpt><trkpt lat="42.64411832960378" lon="12.728935599977552"><ele>484.0</ele><time>2026-04-22T13:39:34Z</time></trkpt><trkpt lat="42.64421807224465" lon="12.728844500412047"><ele>484.0</ele><time>2026-04-22T13:39:35Z</time></trkpt><trkpt lat="42.644337331777464" lon="12.728741275620244"><ele>479.33333333333337</ele><time>2026-04-22T13:39:36Z</time></trkpt><trkpt lat="42.64446857604156" lon="12.728628219870972"><ele>474.66666666666663</ele><time>2026-04-22T13:39:37Z</time></trkpt><trkpt lat="42.64459734660455" lon="12.728519352771396"><ele>470.0</ele><time>2026-04-22T13:39:38Z</time></trkpt><trkpt lat="42.64472836242851" lon="12.728410261263242"><ele>479.66666666666663</ele><time>2026-04-22T13:39:39Z</time></trkpt><trkpt lat="42.6448789620743" lon="12.728279206912877"><ele>489.33333333333337</ele><time>2026-04-22T13:39:40Z</time></trkpt><trkpt lat="42.64504857050592" lon="12.728139726424375"><ele>499.0</ele><time>2026-04-22T13:39:41Z</time></trkpt><trkpt lat="42.64522841108394" lon="12.727993342033418"><ele>496.33333333333337</ele><time>2026-04-22T13:39:42Z</time></trkpt><trkpt lat="42.645414497506586" lon="12.72784544277669"><ele>493.66666666666663</ele><time>2026-04-22T13:39:43Z</time></trkpt><trkpt lat="42.64559285998138" lon="12.727704093738808"><ele>491.0</ele><time>2026-04-22T13:39:44Z</time></trkpt><trkpt lat="42.64576357267482" lon="12.727589567728755"><ele>499.66666666666663</ele><time>2026-04-22T13:39:45Z</time></trkpt><trkpt lat="42.645931073613355" lon="12.727524305658749"><ele>508.33333333333337</ele><time>2026-04-22T13:39:46Z</time></trkpt><trkpt lat="42.64610053402331" lon="12.727509630398899"><ele>517.0</ele><time>2026-04-22T13:39:47Z</time></trkpt><trkpt lat="42.64628104432095" lon="12.727537759392115"><ele>519.0</ele><time>2026-04-22T13:39:48Z</time></trkpt><trkpt lat="42.646446925615784" lon="12.727612921306655"><ele>521.0</ele><time>2026-04-22T13:39:49Z</time></trkpt><trkpt lat="42.64659167864821" lon="12.727768911798016"><ele>523.0</ele><time>2026-04-22T13:39:50Z</time></trkpt><trkpt lat="42.64674233202459" lon="12.727939657971463"><ele>525.6666666666667</ele><time>2026-04-22T13:39:51Z</time></trkpt><trkpt lat="42.64689987661486" lon="12.728125914204131"><ele>528.3333333333334</ele><time>2026-04-22T13:39:52Z</time></trkpt><trkpt lat="42.64703997119344" lon="12.728317762344567"><ele>531.0</ele><time>2026-04-22T13:39:53Z</time></trkpt><trkpt lat="42.647147500726284" lon="12.728519437174059"><ele>529.0</ele><time>2026-04-22T13:39:54Z</time></trkpt><trkpt lat="42.64721411859" lon="12.728738707879709"><ele>527.0</ele><time>2026-04-22T13:39:55Z</time></trkpt><trkpt lat="42.6472468254424" lon="12.728964367434932"><ele>525.0</ele><time>2026-04-22T13:39:56Z</time></trkpt><trkpt lat="42.64724800441042" lon="12.72920895846227"><ele>531.3333333333334</ele><time>2026-04-22T13:39:57Z</time></trkpt><trkpt lat="42.647207334591485" lon="12.729448749554532"><ele>537.6666666666667</ele><time>2026-04-22T13:39:58Z</time></trkpt><trkpt lat="42.647125804619186" lon="12.729689925957588"><ele>544.0</ele><time>2026-04-22T13:39:59Z</time></trkpt><trkpt lat="42.647023459869644" lon="12.729933441695144"><ele>534.3333333333334</ele><time>2026-04-22T13:40:00Z</time></trkpt><trkpt lat="42.64692637854847" lon="12.73020183693651"><ele>524.6666666666666</ele><time>2026-04-22T13:40:01Z</time></trkpt><trkpt lat="42.646819541180264" lon="12.73044565540184"><ele>515.0</ele><time>2026-04-22T13:40:02Z</time></trkpt><trkpt lat="42.64673495288494" lon="12.73069636126416"><ele>515.0</ele><time>2026-04-22T13:40:03Z</time></trkpt><trkpt lat="42.64668642950931" lon="12.730947635855374"><ele>515.0</ele><time>2026-04-22T13:40:04Z</time></trkpt><trkpt lat="42.64667410504608" lon="12.731202462786557"><ele>515.0</ele><time>2026-04-22T13:40:05Z</time></trkpt><trkpt lat="42.64670162240638" lon="12.73145744489737"><ele>515.3333333333333</ele><time>2026-04-22T13:40:06Z</time></trkpt><trkpt lat="42.64676719311175" lon="12.73170122115759"><ele>515.6666666666666</ele><time>2026-04-22T13:40:07Z</time></trkpt><trkpt lat="42.646866482740855" lon="12.731923371094233"><ele>516.0</ele><time>2026-04-22T13:40:08Z</time></trkpt><trkpt lat="42.646998722258594" lon="12.732125331456388"><ele>524.3333333333334</ele><time>2026-04-22T13:40:09Z</time></trkpt><trkpt lat="42.64715525061963" lon="12.732306781643336"><ele>532.6666666666667</ele><time>2026-04-22T13:40:10Z</time></trkpt><trkpt lat="42.64732709969822" lon="12.732475282050485"><ele>541.0</ele><time>2026-04-22T13:40:11Z</time></trkpt><trkpt lat="42.6475090623584" lon="12.732653232455789"><ele>540.6666666666667</ele><time>2026-04-22T13:40:12Z</time></trkpt><trkpt lat="42.647689325959334" lon="12.732825577760444"><ele>540.3333333333334</ele><time>2026-04-22T13:40:13Z</time></trkpt><trkpt lat="42.64786522257212" lon="12.733015162018571"><ele>540.0</ele><time>2026-04-22T13:40:14Z</time></trkpt><trkpt lat="42.64804485012522" lon="12.733211806517675"><ele>540.0</ele><time>2026-04-22T13:40:15Z</time></trkpt><trkpt lat="42.648232979965115" lon="12.733391511664877"><ele>540.0</ele><time>2026-04-22T13:40:16Z</time></trkpt><trkpt lat="42.64843262391576" lon="12.733546149635146"><ele>530.0</ele><time>2026-04-22T13:40:17Z</time></trkpt><trkpt lat="42.64864350347139" lon="12.733656418253368"><ele>520.0</ele><time>2026-04-22T13:40:18Z</time></trkpt><trkpt lat="42.6488649045642" lon="12.733716634800453"><ele>520.0</ele><time>2026-04-22T13:40:19Z</time></trkpt><trkpt lat="42.649098542494976" lon="12.733730998601335"><ele>520.0</ele><time>2026-04-22T13:40:20Z</time></trkpt><trkpt lat="42.649336238981675" lon="12.733700174507"><ele>520.5</ele><time>2026-04-22T13:40:21Z</time></trkpt><trkpt lat="42.6495771251161" lon="12.73365005347473"><ele>521.0</ele><time>2026-04-22T13:40:22Z</time></trkpt><trkpt lat="42.649819119072895" lon="12.733586926822143"><ele>539.0</ele><time>2026-04-22T13:40:23Z</time></trkpt><trkpt lat="42.65006621287389" lon="12.733528253038013"><ele>557.0</ele><time>2026-04-22T13:40:24Z</time></trkpt><trkpt lat="42.65031659157697" lon="12.733475736724376"><ele>557.0</ele><time>2026-04-22T13:40:25Z</time></trkpt><trkpt lat="42.65056467566048" lon="12.733421622703048"><ele>557.0</ele><time>2026-04-22T13:40:26Z</time></trkpt><trkpt lat="42.65081559988146" lon="12.73336889034519"><ele>557.0</ele><time>2026-04-22T13:40:27Z</time></trkpt><trkpt lat="42.65106618206006" lon="12.733316844635777"><ele>557.0</ele><time>2026-04-22T13:40:28Z</time></trkpt><trkpt lat="42.65131596155252" lon="12.733261262949165"><ele>556.0</ele><time>2026-04-22T13:40:29Z</time></trkpt><trkpt lat="42.65155882321578" lon="12.733190480751755"><ele>555.0</ele><time>2026-04-22T13:40:30Z</time></trkpt><trkpt lat="42.651795750206446" lon="12.73309962766659"><ele>549.0</ele><time>2026-04-22T13:40:31Z</time></trkpt><trkpt lat="42.65203440632937" lon="12.732998739253649"><ele>543.0</ele><time>2026-04-22T13:40:32Z</time></trkpt><trkpt lat="42.65226702311642" lon="12.732884690454032"><ele>543.0</ele><time>2026-04-22T13:40:33Z</time></trkpt><trkpt lat="42.652501609302725" lon="12.732762500289796"><ele>543.0</ele><time>2026-04-22T13:40:34Z</time></trkpt><trkpt lat="42.652731666970425" lon="12.732631531042589"><ele>549.5</ele><time>2026-04-22T13:40:35Z</time></trkpt><trkpt lat="42.65297207066996" lon="12.732504020695007"><ele>556.0</ele><time>2026-04-22T13:40:36Z</time></trkpt><trkpt lat="42.6532058120397" lon="12.732390813613398"><ele>556.0</ele><time>2026-04-22T13:40:37Z</time></trkpt><trkpt lat="42.65342365274478" lon="12.732276596629053"><ele>556.0</ele><time>2026-04-22T13:40:38Z</time></trkpt><trkpt lat="42.65366160451227" lon="12.732172528527103"><ele>551.5</ele><time>2026-04-22T13:40:39Z</time></trkpt><trkpt lat="42.65389987289224" lon="12.732090894479684"><ele>547.0</ele><time>2026-04-22T13:40:40Z</time></trkpt><trkpt lat="42.65414807322859" lon="12.732032077580746"><ele>547.0</ele><time>2026-04-22T13:40:41Z</time></trkpt><trkpt lat="42.65439431121654" lon="12.73199619687034"><ele>547.0</ele><time>2026-04-22T13:40:42Z</time></trkpt><trkpt lat="42.65464497879151" lon="12.731982658611646"><ele>550.5</ele><time>2026-04-22T13:40:43Z</time></trkpt><trkpt lat="42.654901810556915" lon="12.731990950760432"><ele>554.0</ele><time>2026-04-22T13:40:44Z</time></trkpt><trkpt lat="42.655154831105314" lon="12.732027292627274"><ele>561.0</ele><time>2026-04-22T13:40:45Z</time></trkpt><trkpt lat="42.6554049234031" lon="12.7320732289387"><ele>568.0</ele><time>2026-04-22T13:40:46Z</time></trkpt><trkpt lat="42.655657765604445" lon="12.732118576526187"><ele>568.0</ele><time>2026-04-22T13:40:47Z</time></trkpt><trkpt lat="42.655913768385965" lon="12.732157791613147"><ele>568.0</ele><time>2026-04-22T13:40:48Z</time></trkpt><trkpt lat="42.65617011354841" lon="12.732194665616822"><ele>575.0</ele><time>2026-04-22T13:40:49Z</time></trkpt><trkpt lat="42.65642943268042" lon="12.732230797115127"><ele>582.0</ele><time>2026-04-22T13:40:50Z</time></trkpt><trkpt lat="42.656686181828974" lon="12.732272123619525"><ele>582.0</ele><time>2026-04-22T13:40:51Z</time></trkpt><trkpt lat="42.65694450850246" lon="12.732314487313976"><ele>582.0</ele><time>2026-04-22T13:40:52Z</time></trkpt><trkpt lat="42.65718570290084" lon="12.732352842653913"><ele>582.6666666666666</ele><time>2026-04-22T13:40:53Z</time></trkpt><trkpt lat="42.657413280790976" lon="12.732381241575702"><ele>583.3333333333333</ele><time>2026-04-22T13:40:54Z</time></trkpt><trkpt lat="42.657626464166995" lon="12.73239640793474"><ele>584.0</ele><time>2026-04-22T13:40:55Z</time></trkpt><trkpt lat="42.657826995446975" lon="12.73238212191667"><ele>584.0</ele><time>2026-04-22T13:40:56Z</time></trkpt><trkpt lat="42.65801357794882" lon="12.732327072495805"><ele>584.0</ele><time>2026-04-22T13:40:57Z</time></trkpt><trkpt lat="42.658186531671944" lon="12.73224051331394"><ele>584.0</ele><time>2026-04-22T13:40:58Z</time></trkpt><trkpt lat="42.65834571624702" lon="12.732122317536113"><ele>584.0</ele><time>2026-04-22T13:40:59Z</time></trkpt><trkpt lat="42.65849427334519" lon="12.731960293021311"><ele>584.0</ele><time>2026-04-22T13:41:00Z</time></trkpt><trkpt lat="42.658649118145625" lon="12.731758517800394"><ele>584.0</ele><time>2026-04-22T13:41:01Z</time></trkpt><trkpt lat="42.65882974241319" lon="12.731582493583007"><ele>588.0</ele><time>2026-04-22T13:41:02Z</time></trkpt><trkpt lat="42.659015388134776" lon="12.731389184300925"><ele>592.0</ele><time>2026-04-22T13:41:03Z</time></trkpt><trkpt lat="42.65919058945381" lon="12.731214593854778"><ele>592.0</ele><time>2026-04-22T13:41:04Z</time></trkpt><trkpt lat="42.65935400796919" lon="12.731095607963903"><ele>592.0</ele><time>2026-04-22T13:41:05Z</time></trkpt><trkpt lat="42.65953227584247" lon="12.731009156707339"><ele>592.0</ele><time>2026-04-22T13:41:06Z</time></trkpt><trkpt lat="42.659725691116456" lon="12.730950342616648"><ele>600.6666666666667</ele><time>2026-04-22T13:41:07Z</time></trkpt><trkpt lat="42.659931265642875" lon="12.730921970243331"><ele>609.3333333333334</ele><time>2026-04-22T13:41:08Z</time></trkpt><trkpt lat="42.660138701682264" lon="12.730880062851803"><ele>618.0</ele><time>2026-04-22T13:41:09Z</time></trkpt><trkpt lat="42.660345036299205" lon="12.73086884801944"><ele>618.6666666666666</ele><time>2026-04-22T13:41:10Z</time></trkpt><trkpt lat="42.66057123987575" lon="12.730848646931369"><ele>619.3333333333333</ele><time>2026-04-22T13:41:11Z</time></trkpt><trkpt lat="42.66078092496872" lon="12.730814952378172"><ele>620.0</ele><time>2026-04-22T13:41:12Z</time></trkpt><trkpt lat="42.66094675962875" lon="12.730768607655072"><ele>620.0</ele><time>2026-04-22T13:41:13Z</time></trkpt><trkpt lat="42.66107259809545" lon="12.73070774779847"><ele>620.0</ele><time>2026-04-22T13:41:14Z</time></trkpt><trkpt lat="42.6611940523014" lon="12.730611904377497"><ele>620.0</ele><time>2026-04-22T13:41:15Z</time></trkpt><trkpt lat="42.66133627534891" lon="12.730457927288885"><ele>622.3333333333333</ele><time>2026-04-22T13:41:16Z</time></trkpt><trkpt lat="42.66147482627788" lon="12.730260647008794"><ele>624.6666666666666</ele><time>2026-04-22T13:41:17Z</time></trkpt><trkpt lat="42.6616142327968" lon="12.730033060085871"><ele>627.0</ele><time>2026-04-22T13:41:18Z</time></trkpt><trkpt lat="42.66175206335303" lon="12.729797975231614"><ele>627.0</ele><time>2026-04-22T13:41:19Z</time></trkpt><trkpt lat="42.66189489888873" lon="12.729584264720089"><ele>627.0</ele><time>2026-04-22T13:41:20Z</time></trkpt><trkpt lat="42.66204403937542" lon="12.729392714039182"><ele>627.0</ele><time>2026-04-22T13:41:21Z</time></trkpt><trkpt lat="42.66221280670295" lon="12.72923040306215"><ele>628.6666666666666</ele><time>2026-04-22T13:41:22Z</time></trkpt><trkpt lat="42.66240924197246" lon="12.72910559848551"><ele>630.3333333333333</ele><time>2026-04-22T13:41:23Z</time></trkpt><trkpt lat="42.662619417026214" lon="12.728970258220217"><ele>632.0</ele><time>2026-04-22T13:41:24Z</time></trkpt><trkpt lat="42.66283453758368" lon="12.728834934437929"><ele>632.0</ele><time>2026-04-22T13:41:25Z</time></trkpt><trkpt lat="42.663035127370506" lon="12.728696687995937"><ele>632.0</ele><time>2026-04-22T13:41:26Z</time></trkpt><trkpt lat="42.66322329568694" lon="12.72858819709171"><ele>632.0</ele><time>2026-04-22T13:41:27Z</time></trkpt><trkpt lat="42.66338645572002" lon="12.728488623379661"><ele>635.6666666666666</ele><time>2026-04-22T13:41:28Z</time></trkpt><trkpt lat="42.66354144012177" lon="12.728396307509763"><ele>639.3333333333334</ele><time>2026-04-22T13:41:29Z</time></trkpt><trkpt lat="42.66370058357906" lon="12.728328250566541"><ele>643.0</ele><time>2026-04-22T13:41:30Z</time></trkpt><trkpt lat="42.66387299970583" lon="12.728282365491964"><ele>643.0</ele><time>2026-04-22T13:41:31Z</time></trkpt><trkpt lat="42.66406051198717" lon="12.728301539253053"><ele>643.0</ele><time>2026-04-22T13:41:32Z</time></trkpt><trkpt lat="42.66426383177887" lon="12.728325943626043"><ele>643.0</ele><time>2026-04-22T13:41:33Z</time></trkpt><trkpt lat="42.66449102813611" lon="12.728360586094261"><ele>653.5</ele><time>2026-04-22T13:41:34Z</time></trkpt><trkpt lat="42.664736830105376" lon="12.728388446325436"><ele>664.0</ele><time>2026-04-22T13:41:35Z</time></trkpt><trkpt lat="42.66499722923753" lon="12.72842735036627"><ele>664.0</ele><time>2026-04-22T13:41:36Z</time></trkpt><trkpt lat="42.66524890296632" lon="12.728466037561347"><ele>664.0</ele><time>2026-04-22T13:41:37Z</time></trkpt><trkpt lat="42.665507051390904" lon="12.728507650573759"><ele>674.5</ele><time>2026-04-22T13:41:38Z</time></trkpt><trkpt lat="42.66575811015409" lon="12.728570272894974"><ele>685.0</ele><time>2026-04-22T13:41:39Z</time></trkpt><trkpt lat="42.666001021207585" lon="12.72861169300852"><ele>679.5</ele><time>2026-04-22T13:41:40Z</time></trkpt><trkpt lat="42.66622864819618" lon="12.728647058175818"><ele>674.0</ele><time>2026-04-22T13:41:41Z</time></trkpt><trkpt lat="42.66667663438493" lon="12.728726340085815"><ele>674.0</ele><time>2026-04-22T13:41:43Z</time></trkpt><trkpt lat="42.666896476590466" lon="12.728825504870915"><ele>674.0</ele><time>2026-04-22T13:41:44Z</time></trkpt><trkpt lat="42.66707243820438" lon="12.728949528083687"><ele>674.0</ele><time>2026-04-22T13:41:45Z</time></trkpt><trkpt lat="42.66721414496572" lon="12.72912251018278"><ele>668.0</ele><time>2026-04-22T13:41:46Z</time></trkpt><trkpt lat="42.66732945139535" lon="12.729294417873524"><ele>662.0</ele><time>2026-04-22T13:41:47Z</time></trkpt><trkpt lat="42.667440719983425" lon="12.729548995220458"><ele>656.0</ele><time>2026-04-22T13:41:48Z</time></trkpt><trkpt lat="42.66752648465538" lon="12.729827769926905"><ele>656.0</ele><time>2026-04-22T13:41:49Z</time></trkpt><trkpt lat="42.6675886045578" lon="12.730121508545736"><ele>656.0</ele><time>2026-04-22T13:41:50Z</time></trkpt><trkpt lat="42.6676558195919" lon="12.730428756992437"><ele>658.0</ele><time>2026-04-22T13:41:50.999Z</time></trkpt><trkpt lat="42.66772371917439" lon="12.73073898305091"><ele>660.0</ele><time>2026-04-22T13:41:51.999Z</time></trkpt><trkpt lat="42.66779056685132" lon="12.731044402952968"><ele>649.6666666666666</ele><time>2026-04-22T13:41:52.999Z</time></trkpt><trkpt lat="42.66785050436058" lon="12.731330162889138"><ele>639.3333333333333</ele><time>2026-04-22T13:41:53.999Z</time></trkpt><trkpt lat="42.66790220422941" lon="12.731597843813855"><ele>629.0</ele><time>2026-04-22T13:41:54.999Z</time></trkpt><trkpt lat="42.667878444544044" lon="12.731850920206456"><ele>628.3333333333333</ele><time>2026-04-22T13:41:55.999Z</time></trkpt><trkpt lat="42.667843022588656" lon="12.732093156357347"><ele>627.6666666666666</ele><time>2026-04-22T13:41:56.999Z</time></trkpt><trkpt lat="42.667775637177726" lon="12.732318316105326"><ele>627.0</ele><time>2026-04-22T13:41:57.999Z</time></trkpt><trkpt lat="42.66767120472483" lon="12.732524160802129"><ele>630.3333333333334</ele><time>2026-04-22T13:41:58.999Z</time></trkpt><trkpt lat="42.66754062814394" lon="12.732719568847768"><ele>633.6666666666667</ele><time>2026-04-22T13:41:59.999Z</time></trkpt><trkpt lat="42.667391437799274" lon="12.732895233199875"><ele>637.0</ele><time>2026-04-22T13:42:00.999Z</time></trkpt><trkpt lat="42.6672379859524" lon="12.73307086638433"><ele>637.0</ele><time>2026-04-22T13:42:01.999Z</time></trkpt><trkpt lat="42.667081933154094" lon="12.73326353205316"><ele>637.0</ele><time>2026-04-22T13:42:02.999Z</time></trkpt><trkpt lat="42.66692375304885" lon="12.733436749141871"><ele>637.0</ele><time>2026-04-22T13:42:03.999Z</time></trkpt><trkpt lat="42.66677469246457" lon="12.733605326181394"><ele>636.6666666666667</ele><time>2026-04-22T13:42:04.999Z</time></trkpt><trkpt lat="42.66664063288819" lon="12.733774093416896"><ele>636.3333333333334</ele><time>2026-04-22T13:42:05.999Z</time></trkpt><trkpt lat="42.66652253741482" lon="12.733954844762346"><ele>636.0</ele><time>2026-04-22T13:42:06.999Z</time></trkpt><trkpt lat="42.66643887578755" lon="12.734149997463934"><ele>636.0</ele><time>2026-04-22T13:42:07.999Z</time></trkpt><trkpt lat="42.66640189588742" lon="12.734355446627646"><ele>636.0</ele><time>2026-04-22T13:42:08.999Z</time></trkpt><trkpt lat="42.66641235979368" lon="12.734565945697527"><ele>636.0</ele><time>2026-04-22T13:42:09.999Z</time></trkpt><trkpt lat="42.66652625178432" lon="12.73493647836261"><ele>635.25</ele><time>2026-04-22T13:42:11.999Z</time></trkpt><trkpt lat="42.66661784418582" lon="12.735087013023568"><ele>634.5</ele><time>2026-04-22T13:42:12.999Z</time></trkpt><trkpt lat="42.66673934218734" lon="12.735187473004281"><ele>633.75</ele><time>2026-04-22T13:42:13.999Z</time></trkpt><trkpt lat="42.66686289343732" lon="12.73526219822797"><ele>633.0</ele><time>2026-04-22T13:42:14.999Z</time></trkpt><trkpt lat="42.66699038509733" lon="12.735297833564601"><ele>632.0</ele><time>2026-04-22T13:42:15.999Z</time></trkpt><trkpt lat="42.667118982565704" lon="12.735301443705607"><ele>631.0</ele><time>2026-04-22T13:42:16.999Z</time></trkpt><trkpt lat="42.66723845464611" lon="12.73527489276683"><ele>630.0</ele><time>2026-04-22T13:42:17.999Z</time></trkpt><trkpt lat="42.66734835993284" lon="12.735221144777356"><ele>629.0</ele><time>2026-04-22T13:42:18.999Z</time></trkpt><trkpt lat="42.66744808773638" lon="12.735146635201954"><ele>629.0</ele><time>2026-04-22T13:42:19.999Z</time></trkpt><trkpt lat="42.66754214611123" lon="12.735047909890394"><ele>629.0</ele><time>2026-04-22T13:42:20.999Z</time></trkpt><trkpt lat="42.66762708579403" lon="12.734936913534577"><ele>629.0</ele><time>2026-04-22T13:42:21.999Z</time></trkpt><trkpt lat="42.66770084128768" lon="12.734821911575052"><ele>629.0</ele><time>2026-04-22T13:42:22.999Z</time></trkpt><trkpt lat="42.66777439175672" lon="12.734706943588588"><ele>629.2</ele><time>2026-04-22T13:42:23.999Z</time></trkpt><trkpt lat="42.667850555746554" lon="12.734597309806091"><ele>629.4</ele><time>2026-04-22T13:42:24.999Z</time></trkpt><trkpt lat="42.66792462989638" lon="12.734485200298575"><ele>629.6</ele><time>2026-04-22T13:42:25.999Z</time></trkpt><trkpt lat="42.668000936133744" lon="12.734369997964855"><ele>629.8</ele><time>2026-04-22T13:42:26.999Z</time></trkpt><trkpt lat="42.668072702050914" lon="12.73426245886569"><ele>630.0</ele><time>2026-04-22T13:42:27.999Z</time></trkpt><trkpt lat="42.668143280655464" lon="12.734176370577808"><ele>628.6</ele><time>2026-04-22T13:42:28.999Z</time></trkpt><trkpt lat="42.66822406172489" lon="12.73411348670645"><ele>627.2</ele><time>2026-04-22T13:42:29.998Z</time></trkpt><trkpt lat="42.668292907146345" lon="12.73405178921419"><ele>625.8</ele><time>2026-04-22T13:42:30.998Z</time></trkpt><trkpt lat="42.66845986191567" lon="12.734145112271449"><ele>624.4</ele><time>2026-04-22T13:42:32.998Z</time></trkpt><trkpt lat="42.668522758916104" lon="12.734195962948766"><ele>623.0</ele><time>2026-04-22T13:42:33.998Z</time></trkpt><trkpt lat="42.66858453704683" lon="12.73423867259268"><ele>624.4</ele><time>2026-04-22T13:42:34.998Z</time></trkpt><trkpt lat="42.66865954296034" lon="12.734299992416641"><ele>625.8</ele><time>2026-04-22T13:42:36.998Z</time></trkpt><trkpt lat="42.66855935268015" lon="12.734433950964924"><ele>627.2</ele><time>2026-04-22T13:42:48.999Z</time></trkpt><trkpt lat="42.66851019463758" lon="12.73449458279599"><ele>628.6</ele><time>2026-04-22T13:42:51.999Z</time></trkpt><trkpt lat="42.66859685329572" lon="12.734465280859146"><ele>630.0</ele><time>2026-04-22T13:42:59.999Z</time></trkpt><trkpt lat="42.66863969191838" lon="12.734390872962912"><ele>630.2</ele><time>2026-04-22T13:43:00.999Z</time></trkpt><trkpt lat="42.66869124516682" lon="12.73430952748459"><ele>630.4</ele><time>2026-04-22T13:43:01.999Z</time></trkpt><trkpt lat="42.66876214875401" lon="12.734222813213233"><ele>630.6</ele><time>2026-04-22T13:43:02.999Z</time></trkpt><trkpt lat="42.668854349172456" lon="12.734139206236094"><ele>630.8</ele><time>2026-04-22T13:43:03.999Z</time></trkpt><trkpt lat="42.66895086107281" lon="12.73404632569468"><ele>631.0</ele><time>2026-04-22T13:43:04.999Z</time></trkpt><trkpt lat="42.66904762649891" lon="12.73394394894917"><ele>631.0</ele><time>2026-04-22T13:43:05.999Z</time></trkpt><trkpt lat="42.66913576075669" lon="12.73384840443601"><ele>631.0</ele><time>2026-04-22T13:43:06.999Z</time></trkpt><trkpt lat="42.669201358447985" lon="12.733767392551211"><ele>631.0</ele><time>2026-04-22T13:43:07.999Z</time></trkpt><trkpt lat="42.66931614567431" lon="12.733793177276327"><ele>631.0</ele><time>2026-04-22T13:43:09.999Z</time></trkpt><trkpt lat="42.669315655602034" lon="12.733904032317742"><ele>631.0</ele><time>2026-04-22T13:43:10.999Z</time></trkpt><trkpt lat="42.66922666949409" lon="12.73402413149857"><ele>631.0</ele><time>2026-04-22T13:43:12.999Z</time></trkpt><trkpt lat="42.66914792579893" lon="12.734052755474048"><ele>631.0</ele><time>2026-04-22T13:43:13.999Z</time></trkpt><trkpt lat="42.6690523902028" lon="12.734128511593092"><ele>631.0</ele><time>2026-04-22T13:43:14.999Z</time></trkpt><trkpt lat="42.66895755979495" lon="12.734247624732857"><ele>631.0</ele><time>2026-04-22T13:43:15.999Z</time></trkpt><trkpt lat="42.66887162548757" lon="12.734366782347688"><ele>631.0</ele><time>2026-04-22T13:43:16.999Z</time></trkpt><trkpt lat="42.66876826150785" lon="12.73453021156811"><ele>630.75</ele><time>2026-04-22T13:43:17.999Z</time></trkpt><trkpt lat="42.6686860892419" lon="12.734667007318093"><ele>630.5</ele><time>2026-04-22T13:43:18.999Z</time></trkpt><trkpt lat="42.66862586418184" lon="12.734814901945953"><ele>630.25</ele><time>2026-04-22T13:43:19.999Z</time></trkpt><trkpt lat="42.66858841144088" lon="12.734982336300938"><ele>630.0</ele><time>2026-04-22T13:43:20.999Z</time></trkpt><trkpt lat="42.66856833426437" lon="12.735153438048542"><ele>631.8</ele><time>2026-04-22T13:43:21.999Z</time></trkpt><trkpt lat="42.66855819646879" lon="12.73531333820124"><ele>633.6</ele><time>2026-04-22T13:43:22.999Z</time></trkpt><trkpt lat="42.66855429491067" lon="12.735452242148728"><ele>635.4</ele><time>2026-04-22T13:43:23.999Z</time></trkpt><trkpt lat="42.668557018161835" lon="12.735586691538701"><ele>637.2</ele><time>2026-04-22T13:43:24.999Z</time></trkpt><trkpt lat="42.66856049790445" lon="12.735726486642912"><ele>639.0</ele><time>2026-04-22T13:43:25.999Z</time></trkpt><trkpt lat="42.66857897157847" lon="12.735869490213183"><ele>639.0</ele><time>2026-04-22T13:43:26.999Z</time></trkpt><trkpt lat="42.6685906365719" lon="12.736014365522315"><ele>639.0</ele><time>2026-04-22T13:43:27.999Z</time></trkpt><trkpt lat="42.66859609299385" lon="12.736157896008537"><ele>639.0</ele><time>2026-04-22T13:43:28.999Z</time></trkpt><trkpt lat="42.66863428272158" lon="12.736287883822774"><ele>639.0</ele><time>2026-04-22T13:43:29.999Z</time></trkpt><trkpt lat="42.66866776039449" lon="12.736407001448141"><ele>639.0</ele><time>2026-04-22T13:43:30.999Z</time></trkpt><trkpt lat="42.66871291619927" lon="12.736513253012783"><ele>643.6</ele><time>2026-04-22T13:43:31.999Z</time></trkpt><trkpt lat="42.66876434998832" lon="12.736602751400767"><ele>648.2</ele><time>2026-04-22T13:43:32.999Z</time></trkpt><trkpt lat="42.66879052049061" lon="12.736698347058006"><ele>652.8000000000001</ele><time>2026-04-22T13:43:33.999Z</time></trkpt><trkpt lat="42.66883696936446" lon="12.736832971752916"><ele>657.4</ele><time>2026-04-22T13:43:35.999Z</time></trkpt><trkpt lat="42.66877570862332" lon="12.736950422323535"><ele>662.0</ele><time>2026-04-22T13:43:37.999Z</time></trkpt><trkpt lat="42.66865366363445" lon="12.737017903025938"><ele>661.0</ele><time>2026-04-22T13:43:39.999Z</time></trkpt><trkpt lat="42.66859291929888" lon="12.736964310554352"><ele>660.0</ele><time>2026-04-22T13:43:40.999Z</time></trkpt><trkpt lat="42.66854668470777" lon="12.736879797278537"><ele>659.0</ele><time>2026-04-22T13:43:41.999Z</time></trkpt><trkpt lat="42.668506665729474" lon="12.736785680118283"><ele>658.0</ele><time>2026-04-22T13:43:42.999Z</time></trkpt><trkpt lat="42.668448512822074" lon="12.736685479499021"><ele>657.0</ele><time>2026-04-22T13:43:43.999Z</time></trkpt><trkpt lat="42.66838754087254" lon="12.736547281105297"><ele>656.0</ele><time>2026-04-22T13:43:44.999Z</time></trkpt><trkpt lat="42.66829527782313" lon="12.736398255519365"><ele>656.0</ele><time>2026-04-22T13:43:45.999Z</time></trkpt><trkpt lat="42.668190002589014" lon="12.736263012225582"><ele>656.0</ele><time>2026-04-22T13:43:46.999Z</time></trkpt><trkpt lat="42.6681136204172" lon="12.736119749375819"><ele>656.0</ele><time>2026-04-22T13:43:47.999Z</time></trkpt><trkpt lat="42.66803617500277" lon="12.736013391038178"><ele>656.0</ele><time>2026-04-22T13:43:48.999Z</time></trkpt><trkpt lat="42.667939829723295" lon="12.735944141349954"><ele>653.5</ele><time>2026-04-22T13:43:49.999Z</time></trkpt><trkpt lat="42.667813217365655" lon="12.735917516048248"><ele>651.0</ele><time>2026-04-22T13:43:50.999Z</time></trkpt><trkpt lat="42.66767748113784" lon="12.735939337298628"><ele>648.5</ele><time>2026-04-22T13:43:51.999Z</time></trkpt><trkpt lat="42.66753933419585" lon="12.735979212191262"><ele>646.0</ele><time>2026-04-22T13:43:52.999Z</time></trkpt><trkpt lat="42.66740204193219" lon="12.736042863977064"><ele>655.0</ele><time>2026-04-22T13:43:53.999Z</time></trkpt><trkpt lat="42.667264595975475" lon="12.73614259319258"><ele>664.0</ele><time>2026-04-22T13:43:54.999Z</time></trkpt><trkpt lat="42.667123511808725" lon="12.736251108782165"><ele>673.0</ele><time>2026-04-22T13:43:55.999Z</time></trkpt><trkpt lat="42.66698175720084" lon="12.73639733823669"><ele>669.3333333333334</ele><time>2026-04-22T13:43:56.999Z</time></trkpt><trkpt lat="42.6668280069755" lon="12.736535642190624"><ele>665.6666666666666</ele><time>2026-04-22T13:43:57.999Z</time></trkpt><trkpt lat="42.666666686617745" lon="12.736620337348224"><ele>662.0</ele><time>2026-04-22T13:43:58.999Z</time></trkpt><trkpt lat="42.66649169885107" lon="12.736647301958165"><ele>662.0</ele><time>2026-04-22T13:43:59.999Z</time></trkpt><trkpt lat="42.66630714115495" lon="12.736675233922561"><ele>662.0</ele><time>2026-04-22T13:44:00.999Z</time></trkpt><trkpt lat="42.66612947480907" lon="12.736729260387994"><ele>662.0</ele><time>2026-04-22T13:44:01.999Z</time></trkpt><trkpt lat="42.665965863966136" lon="12.736782741816253"><ele>660.6666666666666</ele><time>2026-04-22T13:44:02.999Z</time></trkpt><trkpt lat="42.66580543622879" lon="12.736883665038208"><ele>659.3333333333334</ele><time>2026-04-22T13:44:03.999Z</time></trkpt><trkpt lat="42.665654114049175" lon="12.737010786129838"><ele>658.0</ele><time>2026-04-22T13:44:04.999Z</time></trkpt><trkpt lat="42.665498008512394" lon="12.737088219489353"><ele>665.0</ele><time>2026-04-22T13:44:05.999Z</time></trkpt><trkpt lat="42.665345307054146" lon="12.737132204252338"><ele>672.0</ele><time>2026-04-22T13:44:06.999Z</time></trkpt><trkpt lat="42.665189647038744" lon="12.73713437062963"><ele>679.0</ele><time>2026-04-22T13:44:07.999Z</time></trkpt><trkpt lat="42.66502793320942" lon="12.7371064646088"><ele>679.0</ele><time>2026-04-22T13:44:08.999Z</time></trkpt><trkpt lat="42.66488026149214" lon="12.73707974867278"><ele>679.0</ele><time>2026-04-22T13:44:09.999Z</time></trkpt><trkpt lat="42.664752630993874" lon="12.737073091550867"><ele>679.0</ele><time>2026-04-22T13:44:10.999Z</time></trkpt><trkpt lat="42.664651034403065" lon="12.737025308475568"><ele>679.0</ele><time>2026-04-22T13:44:11.999Z</time></trkpt><trkpt lat="42.66456841730241" lon="12.73700073177375"><ele>679.0</ele><time>2026-04-22T13:44:12.999Z</time></trkpt><trkpt lat="42.66450973916027" lon="12.737183192833776"><ele>679.0</ele><time>2026-04-22T13:44:13.999Z</time></trkpt><trkpt lat="42.66458758634435" lon="12.737431450034146"><ele>679.0</ele><time>2026-04-22T13:44:17.999Z</time></trkpt><trkpt lat="42.66466061761157" lon="12.737521033322906"><ele>679.0</ele><time>2026-04-22T13:44:18.999Z</time></trkpt><trkpt lat="42.664741946026794" lon="12.737648527706327"><ele>677.5</ele><time>2026-04-22T13:44:19.999Z</time></trkpt><trkpt lat="42.664811893788325" lon="12.737795985638344"><ele>676.0</ele><time>2026-04-22T13:44:20.999Z</time></trkpt><trkpt lat="42.664882156115986" lon="12.73795125170871"><ele>674.5</ele><time>2026-04-22T13:44:21.999Z</time></trkpt><trkpt lat="42.66495608624778" lon="12.738114384472293"><ele>673.0</ele><time>2026-04-22T13:44:22.999Z</time></trkpt><trkpt lat="42.665042200730966" lon="12.73826682174925"><ele>673.0</ele><time>2026-04-22T13:44:23.999Z</time></trkpt><trkpt lat="42.665110836189534" lon="12.738440313687553"><ele>673.0</ele><time>2026-04-22T13:44:24.999Z</time></trkpt><trkpt lat="42.66519369805261" lon="12.738606682276433"><ele>673.0</ele><time>2026-04-22T13:44:25.999Z</time></trkpt><trkpt lat="42.665290342457034" lon="12.7387704176945"><ele>673.0</ele><time>2026-04-22T13:44:26.999Z</time></trkpt><trkpt lat="42.665380246664014" lon="12.738947152577742"><ele>670.0</ele><time>2026-04-22T13:44:27.999Z</time></trkpt><trkpt lat="42.665472336066884" lon="12.73910653713812"><ele>667.0</ele><time>2026-04-22T13:44:28.999Z</time></trkpt><trkpt lat="42.665577846712374" lon="12.739253043911214"><ele>664.0</ele><time>2026-04-22T13:44:29.999Z</time></trkpt><trkpt lat="42.66565302807112" lon="12.739419271739008"><ele>661.0</ele><time>2026-04-22T13:44:30.999Z</time></trkpt><trkpt lat="42.66574037767996" lon="12.739570453146964"><ele>661.0</ele><time>2026-04-22T13:44:31.999Z</time></trkpt><trkpt lat="42.665840970561135" lon="12.739737558937549"><ele>661.0</ele><time>2026-04-22T13:44:32.999Z</time></trkpt><trkpt lat="42.66594775142922" lon="12.739905305028495"><ele>661.0</ele><time>2026-04-22T13:44:33.999Z</time></trkpt><trkpt lat="42.666057765767704" lon="12.740058686610123"><ele>664.25</ele><time>2026-04-22T13:44:34.999Z</time></trkpt><trkpt lat="42.666176513957936" lon="12.740186309862276"><ele>667.5</ele><time>2026-04-22T13:44:35.999Z</time></trkpt><trkpt lat="42.66626526918933" lon="12.740343364420694"><ele>670.75</ele><time>2026-04-22T13:44:36.999Z</time></trkpt><trkpt lat="42.666353067931034" lon="12.740479810382595"><ele>674.0</ele><time>2026-04-22T13:44:37.999Z</time></trkpt><trkpt lat="42.66644239416275" lon="12.74062786343768"><ele>674.0</ele><time>2026-04-22T13:44:38.999Z</time></trkpt><trkpt lat="42.666530079346614" lon="12.740785499341081"><ele>674.0</ele><time>2026-04-22T13:44:39.999Z</time></trkpt><trkpt lat="42.66661365538388" lon="12.740954519049948"><ele>674.0</ele><time>2026-04-22T13:44:40.999Z</time></trkpt><trkpt lat="42.66670732355072" lon="12.741114861273472"><ele>674.0</ele><time>2026-04-22T13:44:41.999Z</time></trkpt><trkpt lat="42.6668062031272" lon="12.741259058753437"><ele>678.0</ele><time>2026-04-22T13:44:42.999Z</time></trkpt><trkpt lat="42.6669124206277" lon="12.741388056032617"><ele>682.0</ele><time>2026-04-22T13:44:43.999Z</time></trkpt><trkpt lat="42.66701092150611" lon="12.7414929839025"><ele>686.0</ele><time>2026-04-22T13:44:44.999Z</time></trkpt><trkpt lat="42.66709234102491" lon="12.74158578507394"><ele>690.0</ele><time>2026-04-22T13:44:45.999Z</time></trkpt><trkpt lat="42.66715395251442" lon="12.7416976500868"><ele>690.0</ele><time>2026-04-22T13:44:46.999Z</time></trkpt><trkpt lat="42.66718146695257" lon="12.741843526557917"><ele>690.0</ele><time>2026-04-22T13:44:47.999Z</time></trkpt><trkpt lat="42.667229763727555" lon="12.741999112605509"><ele>690.0</ele><time>2026-04-22T13:44:48.999Z</time></trkpt><trkpt lat="42.66728785552248" lon="12.742179175998272"><ele>690.0</ele><time>2026-04-22T13:44:49.999Z</time></trkpt><trkpt lat="42.66735093002138" lon="12.742367088242236"><ele>686.25</ele><time>2026-04-22T13:44:50.999Z</time></trkpt><trkpt lat="42.66741500548797" lon="12.742557982391466"><ele>682.5</ele><time>2026-04-22T13:44:51.999Z</time></trkpt><trkpt lat="42.667480116108706" lon="12.7427463835246"><ele>678.75</ele><time>2026-04-22T13:44:52.999Z</time></trkpt><trkpt lat="42.667540938675636" lon="12.742913491302076"><ele>675.0</ele><time>2026-04-22T13:44:53.999Z</time></trkpt><trkpt lat="42.667596743638406" lon="12.743073759002844"><ele>672.5</ele><time>2026-04-22T13:44:54.999Z</time></trkpt><trkpt lat="42.6676472997033" lon="12.74324555821625"><ele>670.0</ele><time>2026-04-22T13:44:55.999Z</time></trkpt><trkpt lat="42.66768932654646" lon="12.743406625818084"><ele>667.5</ele><time>2026-04-22T13:44:56.999Z</time></trkpt><trkpt lat="42.66771904982274" lon="12.743557743140318"><ele>665.0</ele><time>2026-04-22T13:44:57.999Z</time></trkpt><trkpt lat="42.66773692179546" lon="12.743692895000676"><ele>665.0</ele><time>2026-04-22T13:44:58.999Z</time></trkpt><trkpt lat="42.667740448014676" lon="12.743826929527966"><ele>665.0</ele><time>2026-04-22T13:44:59.999Z</time></trkpt><trkpt lat="42.66772359960076" lon="12.743961175270185"><ele>665.0</ele><time>2026-04-22T13:45:00.999Z</time></trkpt><trkpt lat="42.667690623690596" lon="12.744112718026702"><ele>665.0</ele><time>2026-04-22T13:45:01.999Z</time></trkpt><trkpt lat="42.66765670621718" lon="12.744268352459036"><ele>665.0</ele><time>2026-04-22T13:45:02.999Z</time></trkpt><trkpt lat="42.667617804629906" lon="12.744404608390562"><ele>668.4</ele><time>2026-04-22T13:45:03.999Z</time></trkpt><trkpt lat="42.66757849540471" lon="12.744512763583176"><ele>671.8</ele><time>2026-04-22T13:45:04.999Z</time></trkpt><trkpt lat="42.667544725429295" lon="12.744608958990268"><ele>675.2</ele><time>2026-04-22T13:45:05.998Z</time></trkpt><trkpt lat="42.667459439769715" lon="12.744660709488802"><ele>678.6</ele><time>2026-04-22T13:45:06.998Z</time></trkpt><trkpt lat="42.66736927649816" lon="12.744714419412476"><ele>682.0</ele><time>2026-04-22T13:45:07.998Z</time></trkpt><trkpt lat="42.66727244198373" lon="12.744780285206689"><ele>682.0</ele><time>2026-04-22T13:45:08.998Z</time></trkpt><trkpt lat="42.66717530720126" lon="12.744863655562947"><ele>682.0</ele><time>2026-04-22T13:45:09.998Z</time></trkpt><trkpt lat="42.66710898238344" lon="12.744965186654609"><ele>682.0</ele><time>2026-04-22T13:45:10.998Z</time></trkpt><trkpt lat="42.6670823345158" lon="12.745098091285035"><ele>682.0</ele><time>2026-04-22T13:45:11.998Z</time></trkpt><trkpt lat="42.66708200411908" lon="12.745236671022417"><ele>682.0</ele><time>2026-04-22T13:45:12.998Z</time></trkpt><trkpt lat="42.667043173933706" lon="12.745350757944598"><ele>683.0</ele><time>2026-04-22T13:45:13.998Z</time></trkpt><trkpt lat="42.667006745170546" lon="12.745455800575241"><ele>684.0</ele><time>2026-04-22T13:45:14.998Z</time></trkpt><trkpt lat="42.66693291697685" lon="12.745478374594166"><ele>685.0</ele><time>2026-04-22T13:45:15.998Z</time></trkpt><trkpt lat="42.666865863851385" lon="12.745501262534638"><ele>686.0</ele><time>2026-04-22T13:45:16.998Z</time></trkpt><trkpt lat="42.666753693277656" lon="12.745451122653286"><ele>687.0</ele><time>2026-04-22T13:45:18.998Z</time></trkpt><trkpt lat="42.666698281584054" lon="12.745372853939907"><ele>688.0</ele><time>2026-04-22T13:45:19.998Z</time></trkpt><trkpt lat="42.666632232026885" lon="12.745259190168435"><ele>684.0</ele><time>2026-04-22T13:45:20.998Z</time></trkpt><trkpt lat="42.66657503996375" lon="12.745129841442434"><ele>680.0</ele><time>2026-04-22T13:45:21.998Z</time></trkpt><trkpt lat="42.66651750986094" lon="12.744998650053079"><ele>676.0</ele><time>2026-04-22T13:45:22.998Z</time></trkpt><trkpt lat="42.66644845434702" lon="12.744876254909295"><ele>672.0</ele><time>2026-04-22T13:45:23.998Z</time></trkpt><trkpt lat="42.666390362903535" lon="12.744737299294501"><ele>672.0</ele><time>2026-04-22T13:45:24.998Z</time></trkpt><trkpt lat="42.666336389703694" lon="12.744608895357015"><ele>672.0</ele><time>2026-04-22T13:45:25.998Z</time></trkpt><trkpt lat="42.66627170756462" lon="12.744467383416534"><ele>672.0</ele><time>2026-04-22T13:45:26.998Z</time></trkpt><trkpt lat="42.666217680067874" lon="12.744323213174335"><ele>672.0</ele><time>2026-04-22T13:45:27.998Z</time></trkpt><trkpt lat="42.66615672243069" lon="12.744170025105804"><ele>676.25</ele><time>2026-04-22T13:45:28.998Z</time></trkpt><trkpt lat="42.66609805333874" lon="12.744016516495279"><ele>680.5</ele><time>2026-04-22T13:45:29.998Z</time></trkpt><trkpt lat="42.666041165727336" lon="12.743864225035653"><ele>684.75</ele><time>2026-04-22T13:45:30.998Z</time></trkpt><trkpt lat="42.665984524308215" lon="12.743714206485631"><ele>689.0</ele><time>2026-04-22T13:45:31.998Z</time></trkpt><trkpt lat="42.665923079898455" lon="12.743570676524344"><ele>685.75</ele><time>2026-04-22T13:45:32.998Z</time></trkpt><trkpt lat="42.66585303209442" lon="12.743433731594669"><ele>682.5</ele><time>2026-04-22T13:45:33.998Z</time></trkpt><trkpt lat="42.66576096176123" lon="12.743318415671993"><ele>679.25</ele><time>2026-04-22T13:45:34.998Z</time></trkpt><trkpt lat="42.665654929714364" lon="12.74323727762486"><ele>676.0</ele><time>2026-04-22T13:45:35.998Z</time></trkpt><trkpt lat="42.665533784495615" lon="12.743182032674131"><ele>676.0</ele><time>2026-04-22T13:45:36.998Z</time></trkpt><trkpt lat="42.665410519098565" lon="12.743143473030045"><ele>676.0</ele><time>2026-04-22T13:45:37.998Z</time></trkpt><trkpt lat="42.66528035165505" lon="12.743109403682215"><ele>676.0</ele><time>2026-04-22T13:45:38.998Z</time></trkpt><trkpt lat="42.66515120451777" lon="12.74305351310265"><ele>676.0</ele><time>2026-04-22T13:45:39.998Z</time></trkpt><trkpt lat="42.66504728599492" lon="12.742984798826624"><ele>676.25</ele><time>2026-04-22T13:45:40.998Z</time></trkpt><trkpt lat="42.66493340979006" lon="12.742929956988798"><ele>676.5</ele><time>2026-04-22T13:45:41.998Z</time></trkpt><trkpt lat="42.66482626461647" lon="12.742853035331448"><ele>676.75</ele><time>2026-04-22T13:45:42.998Z</time></trkpt><trkpt lat="42.66473107272127" lon="12.742761480737979"><ele>677.0</ele><time>2026-04-22T13:45:43.998Z</time></trkpt><trkpt lat="42.664637421551426" lon="12.742647386907196"><ele>677.0</ele><time>2026-04-22T13:45:44.998Z</time></trkpt><trkpt lat="42.66454208894353" lon="12.742527580693828"><ele>677.0</ele><time>2026-04-22T13:45:45.998Z</time></trkpt><trkpt lat="42.66443959858261" lon="12.742431937419413"><ele>677.0</ele><time>2026-04-22T13:45:46.998Z</time></trkpt><trkpt lat="42.664340166468854" lon="12.742330730740624"><ele>677.0</ele><time>2026-04-22T13:45:47.998Z</time></trkpt><trkpt lat="42.66421858804712" lon="12.742224036939922"><ele>686.0</ele><time>2026-04-22T13:45:48.998Z</time></trkpt><trkpt lat="42.66409551864741" lon="12.742120308543477"><ele>695.0</ele><time>2026-04-22T13:45:49.998Z</time></trkpt><trkpt lat="42.66396870262032" lon="12.742025603630704"><ele>704.0</ele><time>2026-04-22T13:45:50.998Z</time></trkpt><trkpt lat="42.66384015502001" lon="12.741949458072135"><ele>713.0</ele><time>2026-04-22T13:45:51.998Z</time></trkpt><trkpt lat="42.663704475384186" lon="12.741899238168175"><ele>710.5</ele><time>2026-04-22T13:45:52.998Z</time></trkpt><trkpt lat="42.66357098219228" lon="12.741852903071761"><ele>708.0</ele><time>2026-04-22T13:45:53.998Z</time></trkpt><trkpt lat="42.663439735753116" lon="12.741821055526467"><ele>705.5</ele><time>2026-04-22T13:45:54.998Z</time></trkpt><trkpt lat="42.663324014216336" lon="12.74178330228078"><ele>703.0</ele><time>2026-04-22T13:45:55.998Z</time></trkpt><trkpt lat="42.663198710828" lon="12.741759768643671"><ele>703.0</ele><time>2026-04-22T13:45:56.998Z</time></trkpt><trkpt lat="42.66308574913126" lon="12.741732269590987"><ele>703.0</ele><time>2026-04-22T13:45:57.998Z</time></trkpt><trkpt lat="42.662968294472236" lon="12.741712208036358"><ele>703.0</ele><time>2026-04-22T13:45:58.998Z</time></trkpt><trkpt lat="42.662857632224025" lon="12.741718060097705"><ele>703.0</ele><time>2026-04-22T13:45:59.998Z</time></trkpt><trkpt lat="42.66275205727891" lon="12.741759217745281"><ele>701.75</ele><time>2026-04-22T13:46:00.998Z</time></trkpt><trkpt lat="42.662656619312116" lon="12.74181665711134"><ele>700.5</ele><time>2026-04-22T13:46:01.998Z</time></trkpt><trkpt lat="42.662594022190696" lon="12.741944787261387"><ele>699.25</ele><time>2026-04-22T13:46:02.998Z</time></trkpt><trkpt lat="42.66251074509969" lon="12.742073855213087"><ele>698.0</ele><time>2026-04-22T13:46:03.998Z</time></trkpt><trkpt lat="42.66244705030309" lon="12.742214034736534"><ele>705.5</ele><time>2026-04-22T13:46:04.998Z</time></trkpt><trkpt lat="42.66238834301471" lon="12.742343181801186"><ele>713.0</ele><time>2026-04-22T13:46:05.998Z</time></trkpt><trkpt lat="42.66232119233576" lon="12.742494206359908"><ele>720.5</ele><time>2026-04-22T13:46:06.998Z</time></trkpt><trkpt lat="42.66225241050615" lon="12.742649407697495"><ele>728.0</ele><time>2026-04-22T13:46:07.998Z</time></trkpt><trkpt lat="42.66217994226202" lon="12.742796266076144"><ele>726.25</ele><time>2026-04-22T13:46:08.998Z</time></trkpt><trkpt lat="42.66210798471732" lon="12.74292887613066"><ele>724.5</ele><time>2026-04-22T13:46:09.998Z</time></trkpt><trkpt lat="42.662029270090386" lon="12.743061084096228"><ele>722.75</ele><time>2026-04-22T13:46:10.998Z</time></trkpt><trkpt lat="42.661949807973016" lon="12.743174539640679"><ele>721.0</ele><time>2026-04-22T13:46:11.998Z</time></trkpt><trkpt lat="42.66186211992" lon="12.743293041500243"><ele>721.0</ele><time>2026-04-22T13:46:12.998Z</time></trkpt><trkpt lat="42.66178225255629" lon="12.743447023201018"><ele>721.0</ele><time>2026-04-22T13:46:13.998Z</time></trkpt><trkpt lat="42.66171352007292" lon="12.743595821567913"><ele>721.0</ele><time>2026-04-22T13:46:14.998Z</time></trkpt><trkpt lat="42.661669832299" lon="12.743763874719082"><ele>721.0</ele><time>2026-04-22T13:46:15.998Z</time></trkpt><trkpt lat="42.66165649397949" lon="12.743938107954062"><ele>722.25</ele><time>2026-04-22T13:46:16.998Z</time></trkpt><trkpt lat="42.66166179662959" lon="12.744117763902318"><ele>723.5</ele><time>2026-04-22T13:46:17.998Z</time></trkpt><trkpt lat="42.66168818110379" lon="12.744303699559953"><ele>724.75</ele><time>2026-04-22T13:46:18.998Z</time></trkpt><trkpt lat="42.66173955254888" lon="12.744487360302461"><ele>726.0</ele><time>2026-04-22T13:46:19.998Z</time></trkpt><trkpt lat="42.66178103307749" lon="12.744671690295483"><ele>726.0</ele><time>2026-04-22T13:46:20.998Z</time></trkpt><trkpt lat="42.66183463764299" lon="12.744856181478339"><ele>726.0</ele><time>2026-04-22T13:46:21.998Z</time></trkpt><trkpt lat="42.66190539275928" lon="12.745038833580981"><ele>726.0</ele><time>2026-04-22T13:46:22.998Z</time></trkpt><trkpt lat="42.66197010322319" lon="12.745233520217315"><ele>740.3333333333333</ele><time>2026-04-22T13:46:23.998Z</time></trkpt><trkpt lat="42.66203009873455" lon="12.745433511074822"><ele>754.6666666666666</ele><time>2026-04-22T13:46:24.998Z</time></trkpt><trkpt lat="42.6621099922914" lon="12.745623705233672"><ele>769.0</ele><time>2026-04-22T13:46:25.998Z</time></trkpt><trkpt lat="42.66219041171924" lon="12.745803711098475"><ele>769.0</ele><time>2026-04-22T13:46:26.998Z</time></trkpt><trkpt lat="42.66227467199032" lon="12.745979350489035"><ele>769.0</ele><time>2026-04-22T13:46:27.998Z</time></trkpt><trkpt lat="42.66235866054174" lon="12.746151594987458"><ele>769.0</ele><time>2026-04-22T13:46:28.998Z</time></trkpt><trkpt lat="42.66243920750214" lon="12.746317966707371"><ele>767.75</ele><time>2026-04-22T13:46:29.998Z</time></trkpt><trkpt lat="42.66248976449796" lon="12.746472497030211"><ele>766.5</ele><time>2026-04-22T13:46:30.998Z</time></trkpt><trkpt lat="42.66250522005914" lon="12.74660828335722"><ele>765.25</ele><time>2026-04-22T13:46:31.998Z</time></trkpt><trkpt lat="42.66251680026734" lon="12.746760438805985"><ele>764.0</ele><time>2026-04-22T13:46:32.998Z</time></trkpt><trkpt lat="42.66252557525581" lon="12.746927269391268"><ele>763.5</ele><time>2026-04-22T13:46:33.998Z</time></trkpt><trkpt lat="42.66252568883549" lon="12.747104236896874"><ele>763.0</ele><time>2026-04-22T13:46:34.998Z</time></trkpt><trkpt lat="42.662506012717884" lon="12.747281711105773"><ele>762.5</ele><time>2026-04-22T13:46:35.998Z</time></trkpt><trkpt lat="42.66246662419781" lon="12.747470360733756"><ele>762.0</ele><time>2026-04-22T13:46:36.998Z</time></trkpt><trkpt lat="42.662431979808794" lon="12.747626746772925"><ele>763.25</ele><time>2026-04-22T13:46:37.998Z</time></trkpt><trkpt lat="42.66242334331373" lon="12.747803904387187"><ele>764.5</ele><time>2026-04-22T13:46:38.998Z</time></trkpt><trkpt lat="42.66243395714593" lon="12.747998768736103"><ele>765.75</ele><time>2026-04-22T13:46:39.998Z</time></trkpt><trkpt lat="42.66245784481815" lon="12.748208506025296"><ele>767.0</ele><time>2026-04-22T13:46:40.998Z</time></trkpt><trkpt lat="42.6624845402391" lon="12.748435966850582"><ele>769.25</ele><time>2026-04-22T13:46:41.998Z</time></trkpt><trkpt lat="42.66249438189802" lon="12.74862682909227"><ele>771.5</ele><time>2026-04-22T13:46:42.998Z</time></trkpt><trkpt lat="42.66248846379744" lon="12.748805823971466"><ele>773.75</ele><time>2026-04-22T13:46:43.998Z</time></trkpt><trkpt lat="42.66245891434458" lon="12.748944763592135"><ele>776.0</ele><time>2026-04-22T13:46:44.998Z</time></trkpt><trkpt lat="42.66240901866755" lon="12.749071403374101"><ele>776.0</ele><time>2026-04-22T13:46:45.998Z</time></trkpt><trkpt lat="42.66233779271104" lon="12.749184701327238"><ele>776.0</ele><time>2026-04-22T13:46:46.998Z</time></trkpt><trkpt lat="42.66224801930515" lon="12.749281561335401"><ele>776.0</ele><time>2026-04-22T13:46:47.998Z</time></trkpt><trkpt lat="42.662132287553106" lon="12.74936932479256"><ele>776.0</ele><time>2026-04-22T13:46:48.998Z</time></trkpt><trkpt lat="42.66199811800392" lon="12.749435089268678"><ele>779.75</ele><time>2026-04-22T13:46:49.998Z</time></trkpt><trkpt lat="42.66186777959177" lon="12.749482482179388"><ele>783.5</ele><time>2026-04-22T13:46:50.999Z</time></trkpt><trkpt lat="42.661726099186424" lon="12.749527232202876"><ele>787.25</ele><time>2026-04-22T13:46:51.999Z</time></trkpt><trkpt lat="42.66159873949164" lon="12.749566143271602"><ele>791.0</ele><time>2026-04-22T13:46:52.999Z</time></trkpt><trkpt lat="42.66149283921899" lon="12.749578237591098"><ele>791.0</ele><time>2026-04-22T13:46:53.999Z</time></trkpt><trkpt lat="42.661388601194474" lon="12.74955225949226"><ele>791.0</ele><time>2026-04-22T13:46:54.999Z</time></trkpt><trkpt lat="42.6612880669353" lon="12.749484997466263"><ele>791.0</ele><time>2026-04-22T13:46:55.999Z</time></trkpt><trkpt lat="42.661194557130415" lon="12.749379863414642"><ele>791.0</ele><time>2026-04-22T13:46:56.999Z</time></trkpt><trkpt lat="42.66110923895211" lon="12.749265385796518"><ele>788.75</ele><time>2026-04-22T13:46:57.999Z</time></trkpt><trkpt lat="42.661012164095034" lon="12.749127281830258"><ele>786.5</ele><time>2026-04-22T13:46:58.999Z</time></trkpt><trkpt lat="42.660910713707835" lon="12.749010575029452"><ele>784.25</ele><time>2026-04-22T13:46:59.999Z</time></trkpt><trkpt lat="42.66081687070656" lon="12.748925206448126"><ele>782.0</ele><time>2026-04-22T13:47:00.999Z</time></trkpt><trkpt lat="42.66072048836971" lon="12.748887596153702"><ele>782.0</ele><time>2026-04-22T13:47:01.999Z</time></trkpt><trkpt lat="42.66061937456393" lon="12.748894996241049"><ele>782.0</ele><time>2026-04-22T13:47:02.999Z</time></trkpt><trkpt lat="42.660542800719696" lon="12.748951100423769"><ele>782.0</ele><time>2026-04-22T13:47:03.999Z</time></trkpt><trkpt lat="42.660467169493494" lon="12.749055772061846"><ele>782.0</ele><time>2026-04-22T13:47:04.999Z</time></trkpt><trkpt lat="42.66037815332029" lon="12.749200115643283"><ele>782.0</ele><time>2026-04-22T13:47:05.999Z</time></trkpt><trkpt lat="42.66027606970438" lon="12.749343092145411"><ele>782.0</ele><time>2026-04-22T13:47:06.999Z</time></trkpt><trkpt lat="42.66018430851962" lon="12.749513213889596"><ele>782.0</ele><time>2026-04-22T13:47:07.999Z</time></trkpt><trkpt lat="42.66011143070592" lon="12.749697599476802"><ele>782.0</ele><time>2026-04-22T13:47:08.999Z</time></trkpt><trkpt lat="42.66002022443607" lon="12.749865762269694"><ele>782.0</ele><time>2026-04-22T13:47:09.999Z</time></trkpt><trkpt lat="42.65994853302432" lon="12.750062488010018"><ele>782.0</ele><time>2026-04-22T13:47:10.999Z</time></trkpt><trkpt lat="42.659889127080255" lon="12.750274257687098"><ele>782.0</ele><time>2026-04-22T13:47:11.999Z</time></trkpt><trkpt lat="42.65985530906436" lon="12.750486166696783"><ele>785.25</ele><time>2026-04-22T13:47:12.999Z</time></trkpt><trkpt lat="42.659787860535616" lon="12.750661663444431"><ele>788.5</ele><time>2026-04-22T13:47:13.999Z</time></trkpt><trkpt lat="42.659733291809495" lon="12.750816658754799"><ele>791.75</ele><time>2026-04-22T13:47:14.999Z</time></trkpt><trkpt lat="42.659663373510845" lon="12.750941013239192"><ele>795.0</ele><time>2026-04-22T13:47:15.999Z</time></trkpt><trkpt lat="42.65958962441234" lon="12.751032112647545"><ele>800.25</ele><time>2026-04-22T13:47:16.999Z</time></trkpt><trkpt lat="42.65951357783892" lon="12.751101064895158"><ele>805.5</ele><time>2026-04-22T13:47:17.999Z</time></trkpt><trkpt lat="42.65940335179986" lon="12.75108612907291"><ele>810.75</ele><time>2026-04-22T13:47:18.999Z</time></trkpt><trkpt lat="42.65928321976902" lon="12.751084644760706"><ele>816.0</ele><time>2026-04-22T13:47:19.999Z</time></trkpt><trkpt lat="42.659139978472005" lon="12.751106162926023"><ele>816.0</ele><time>2026-04-22T13:47:20.999Z</time></trkpt><trkpt lat="42.658983297813286" lon="12.7511480338276"><ele>816.0</ele><time>2026-04-22T13:47:21.999Z</time></trkpt><trkpt lat="42.658823855193894" lon="12.751211659945685"><ele>816.0</ele><time>2026-04-22T13:47:22.999Z</time></trkpt><trkpt lat="42.658672728298924" lon="12.751255550479632"><ele>816.0</ele><time>2026-04-22T13:47:23.999Z</time></trkpt><trkpt lat="42.65852285372315" lon="12.751240057527278"><ele>816.0</ele><time>2026-04-22T13:47:24.999Z</time></trkpt><trkpt lat="42.65838785452991" lon="12.751218328749562"><ele>816.0</ele><time>2026-04-22T13:47:25.999Z</time></trkpt><trkpt lat="42.65825621579944" lon="12.7511878005611"><ele>816.0</ele><time>2026-04-22T13:47:26.999Z</time></trkpt><trkpt lat="42.658104655593846" lon="12.751181852479553"><ele>816.0</ele><time>2026-04-22T13:47:27.999Z</time></trkpt><trkpt lat="42.65795608044939" lon="12.751157295598622"><ele>816.0</ele><time>2026-04-22T13:47:28.999Z</time></trkpt><trkpt lat="42.65780187980767" lon="12.751145238820772"><ele>816.0</ele><time>2026-04-22T13:47:29.999Z</time></trkpt><trkpt lat="42.657655804523564" lon="12.751119439154213"><ele>816.0</ele><time>2026-04-22T13:47:30.999Z</time></trkpt><trkpt lat="42.65750235348198" lon="12.751128004785096"><ele>816.0</ele><time>2026-04-22T13:47:31.999Z</time></trkpt><trkpt lat="42.657346217120626" lon="12.751170311552698"><ele>816.0</ele><time>2026-04-22T13:47:32.999Z</time></trkpt><trkpt lat="42.657185833262375" lon="12.751195960668516"><ele>816.0</ele><time>2026-04-22T13:47:33.999Z</time></trkpt><trkpt lat="42.65700246400898" lon="12.751205159695804"><ele>816.0</ele><time>2026-04-22T13:47:34.999Z</time></trkpt><trkpt lat="42.656848901168665" lon="12.751224696842801"><ele>816.0</ele><time>2026-04-22T13:47:35.999Z</time></trkpt><trkpt lat="42.656679105395696" lon="12.751247354416158"><ele>816.3333333333333</ele><time>2026-04-22T13:47:36.999Z</time></trkpt><trkpt lat="42.65651192232348" lon="12.751275388927562"><ele>816.6666666666666</ele><time>2026-04-22T13:47:37.999Z</time></trkpt><trkpt lat="42.656347643492815" lon="12.75130838764816"><ele>817.0</ele><time>2026-04-22T13:47:38.999Z</time></trkpt><trkpt lat="42.656199734221715" lon="12.751341068896874"><ele>816.0</ele><time>2026-04-22T13:47:39.999Z</time></trkpt><trkpt lat="42.65606913759301" lon="12.75137514931204"><ele>815.0</ele><time>2026-04-22T13:47:40.999Z</time></trkpt><trkpt lat="42.65595775450046" lon="12.751391984636953"><ele>814.0</ele><time>2026-04-22T13:47:41.999Z</time></trkpt><trkpt lat="42.655848673479035" lon="12.75137169164546"><ele>813.0</ele><time>2026-04-22T13:47:42.999Z</time></trkpt><trkpt lat="42.65574788584914" lon="12.75132721507532"><ele>813.0</ele><time>2026-04-22T13:47:43.999Z</time></trkpt><trkpt lat="42.65567225439881" lon="12.751265272379788"><ele>813.0</ele><time>2026-04-22T13:47:44.999Z</time></trkpt><trkpt lat="42.655594811404924" lon="12.751191967940379"><ele>813.0</ele><time>2026-04-22T13:47:45.999Z</time></trkpt><trkpt lat="42.65557027221711" lon="12.75104155038518"><ele>813.0</ele><time>2026-04-22T13:47:46.999Z</time></trkpt><trkpt lat="42.65551983888495" lon="12.750861719215205"><ele>813.0</ele><time>2026-04-22T13:47:47.999Z</time></trkpt><trkpt lat="42.65546204222834" lon="12.750700282545788"><ele>815.0</ele><time>2026-04-22T13:47:48.999Z</time></trkpt><trkpt lat="42.655358407590754" lon="12.750578122204208"><ele>817.0</ele><time>2026-04-22T13:47:49.999Z</time></trkpt><trkpt lat="42.65523977677612" lon="12.750413570210311"><ele>819.0</ele><time>2026-04-22T13:47:50.999Z</time></trkpt><trkpt lat="42.655097464129206" lon="12.750263796764779"><ele>809.6666666666667</ele><time>2026-04-22T13:47:51.999Z</time></trkpt><trkpt lat="42.654958117302925" lon="12.75012517786723"><ele>800.3333333333334</ele><time>2026-04-22T13:47:52.999Z</time></trkpt><trkpt lat="42.65483986690053" lon="12.75000107876648"><ele>791.0</ele><time>2026-04-22T13:47:53.999Z</time></trkpt><trkpt lat="42.65474061365373" lon="12.749856935740667"><ele>791.0</ele><time>2026-04-22T13:47:54.999Z</time></trkpt><trkpt lat="42.65464389079358" lon="12.749707274985132"><ele>791.0</ele><time>2026-04-22T13:47:55.999Z</time></trkpt><trkpt lat="42.65454127126218" lon="12.749590889259634"><ele>791.0</ele><time>2026-04-22T13:47:56.999Z</time></trkpt><trkpt lat="42.6544169880664" lon="12.749522877870351"><ele>791.0</ele><time>2026-04-22T13:47:57.999Z</time></trkpt><trkpt lat="42.65427693053469" lon="12.749465893843821"><ele>788.75</ele><time>2026-04-22T13:47:58.999Z</time></trkpt><trkpt lat="42.65413498446713" lon="12.749423493994033"><ele>786.5</ele><time>2026-04-22T13:47:59.999Z</time></trkpt><trkpt lat="42.65400062394739" lon="12.749376056682152"><ele>784.25</ele><time>2026-04-22T13:48:00.999Z</time></trkpt><trkpt lat="42.65387215230041" lon="12.74928918904558"><ele>782.0</ele><time>2026-04-22T13:48:01.999Z</time></trkpt><trkpt lat="42.65373202079338" lon="12.74920913674658"><ele>785.0</ele><time>2026-04-22T13:48:02.999Z</time></trkpt><trkpt lat="42.65359399325813" lon="12.749124958720088"><ele>788.0</ele><time>2026-04-22T13:48:03.999Z</time></trkpt><trkpt lat="42.65345140417951" lon="12.749048402198063"><ele>791.0</ele><time>2026-04-22T13:48:04.999Z</time></trkpt><trkpt lat="42.65333698422704" lon="12.74896708966614"><ele>794.0</ele><time>2026-04-22T13:48:05.999Z</time></trkpt><trkpt lat="42.65321978991657" lon="12.74890154872884"><ele>794.0</ele><time>2026-04-22T13:48:06.999Z</time></trkpt><trkpt lat="42.65310370442039" lon="12.748829282911156"><ele>794.0</ele><time>2026-04-22T13:48:07.999Z</time></trkpt><trkpt lat="42.652975201496446" lon="12.7487794043579"><ele>794.0</ele><time>2026-04-22T13:48:08.999Z</time></trkpt><trkpt lat="42.6528368941649" lon="12.748737478833329"><ele>794.0</ele><time>2026-04-22T13:48:09.999Z</time></trkpt><trkpt lat="42.65269665316588" lon="12.748697212823672"><ele>798.0</ele><time>2026-04-22T13:48:10.999Z</time></trkpt><trkpt lat="42.65254585244573" lon="12.748664604581434"><ele>802.0</ele><time>2026-04-22T13:48:11.999Z</time></trkpt><trkpt lat="42.65239280684433" lon="12.748628515855195"><ele>806.0</ele><time>2026-04-22T13:48:12.999Z</time></trkpt><trkpt lat="42.65224034843803" lon="12.748588758549365"><ele>797.0</ele><time>2026-04-22T13:48:13.999Z</time></trkpt><trkpt lat="42.652086331827476" lon="12.748517932068719"><ele>788.0</ele><time>2026-04-22T13:48:14.999Z</time></trkpt><trkpt lat="42.65193519565475" lon="12.748454131702552"><ele>779.0</ele><time>2026-04-22T13:48:15.999Z</time></trkpt><trkpt lat="42.6517895221539" lon="12.748382476014061"><ele>779.0</ele><time>2026-04-22T13:48:16.999Z</time></trkpt><trkpt lat="42.651643272684716" lon="12.748329068130271"><ele>779.0</ele><time>2026-04-22T13:48:17.999Z</time></trkpt><trkpt lat="42.651513249692485" lon="12.748247210341727"><ele>779.0</ele><time>2026-04-22T13:48:18.999Z</time></trkpt><trkpt lat="42.651381227662306" lon="12.748204148743167"><ele>779.0</ele><time>2026-04-22T13:48:19.999Z</time></trkpt><trkpt lat="42.65125600701676" lon="12.74814924311968"><ele>781.25</ele><time>2026-04-22T13:48:20.999Z</time></trkpt><trkpt lat="42.65111954472026" lon="12.74810408934666"><ele>783.5</ele><time>2026-04-22T13:48:21.999Z</time></trkpt><trkpt lat="42.65097187698794" lon="12.748080467071693"><ele>785.75</ele><time>2026-04-22T13:48:22.999Z</time></trkpt><trkpt lat="42.65081846781817" lon="12.748087922892163"><ele>788.0</ele><time>2026-04-22T13:48:23.999Z</time></trkpt><trkpt lat="42.65066916571249" lon="12.748108303929161"><ele>788.0</ele><time>2026-04-22T13:48:24.999Z</time></trkpt><trkpt lat="42.650538069441545" lon="12.74809503853684"><ele>788.0</ele><time>2026-04-22T13:48:25.999Z</time></trkpt><trkpt lat="42.650413250260016" lon="12.748071105540118"><ele>788.0</ele><time>2026-04-22T13:48:26.999Z</time></trkpt><trkpt lat="42.65029535035316" lon="12.748027430012808"><ele>788.0</ele><time>2026-04-22T13:48:27.999Z</time></trkpt><trkpt lat="42.65017513235364" lon="12.747972825722616"><ele>787.25</ele><time>2026-04-22T13:48:28.999Z</time></trkpt><trkpt lat="42.65005396304257" lon="12.747886231084843"><ele>786.5</ele><time>2026-04-22T13:48:29.999Z</time></trkpt><trkpt lat="42.64994059483553" lon="12.747827028225815"><ele>785.75</ele><time>2026-04-22T13:48:30.999Z</time></trkpt><trkpt lat="42.6498335578919" lon="12.747813531333694"><ele>785.0</ele><time>2026-04-22T13:48:31.999Z</time></trkpt><trkpt lat="42.64972314710005" lon="12.74784436038712"><ele>785.0</ele><time>2026-04-22T13:48:32.999Z</time></trkpt><trkpt lat="42.649617800776866" lon="12.747907317000315"><ele>785.0</ele><time>2026-04-22T13:48:33.999Z</time></trkpt><trkpt lat="42.64951638211234" lon="12.748010689983463"><ele>785.0</ele><time>2026-04-22T13:48:34.999Z</time></trkpt><trkpt lat="42.649413658237805" lon="12.748153844175652"><ele>785.0</ele><time>2026-04-22T13:48:35.999Z</time></trkpt><trkpt lat="42.64930421189484" lon="12.74831800676701"><ele>780.0</ele><time>2026-04-22T13:48:36.999Z</time></trkpt><trkpt lat="42.6491936490077" lon="12.748480745826685"><ele>775.0</ele><time>2026-04-22T13:48:37.999Z</time></trkpt><trkpt lat="42.64907409871222" lon="12.748627090998463"><ele>770.0</ele><time>2026-04-22T13:48:38.999Z</time></trkpt><trkpt lat="42.64893774329655" lon="12.748733408797806"><ele>773.25</ele><time>2026-04-22T13:48:39.999Z</time></trkpt><trkpt lat="42.64881643578454" lon="12.748850364970862"><ele>776.5</ele><time>2026-04-22T13:48:40.999Z</time></trkpt><trkpt lat="42.64870156692856" lon="12.748973576598816"><ele>779.75</ele><time>2026-04-22T13:48:41.999Z</time></trkpt><trkpt lat="42.6485698712025" lon="12.74906473445488"><ele>783.0</ele><time>2026-04-22T13:48:42.999Z</time></trkpt><trkpt lat="42.64842876355977" lon="12.749108331343157"><ele>783.0</ele><time>2026-04-22T13:48:43.999Z</time></trkpt><trkpt lat="42.64828944794406" lon="12.749140704359421"><ele>783.0</ele><time>2026-04-22T13:48:44.999Z</time></trkpt><trkpt lat="42.6481390037368" lon="12.749172636354519"><ele>783.0</ele><time>2026-04-22T13:48:45.999Z</time></trkpt><trkpt lat="42.64798085754379" lon="12.74920051531904"><ele>783.0</ele><time>2026-04-22T13:48:46.999Z</time></trkpt><trkpt lat="42.64781873951627" lon="12.74924212520193"><ele>783.0</ele><time>2026-04-22T13:48:47.999Z</time></trkpt><trkpt lat="42.647666676044935" lon="12.749337841294727"><ele>783.0</ele><time>2026-04-22T13:48:48.999Z</time></trkpt><trkpt lat="42.647516003793434" lon="12.749432156700163"><ele>783.0</ele><time>2026-04-22T13:48:49.999Z</time></trkpt><trkpt lat="42.647363473736704" lon="12.749519562254529"><ele>783.0</ele><time>2026-04-22T13:48:50.999Z</time></trkpt><trkpt lat="42.64721881482518" lon="12.749567391829126"><ele>783.0</ele><time>2026-04-22T13:48:51.999Z</time></trkpt><trkpt lat="42.646957158874955" lon="12.749548020895464"><ele>783.0</ele><time>2026-04-22T13:48:53.999Z</time></trkpt><trkpt lat="42.64682914783914" lon="12.749508814808394"><ele>783.0</ele><time>2026-04-22T13:48:54.999Z</time></trkpt><trkpt lat="42.64672057322595" lon="12.749455950170749"><ele>783.0</ele><time>2026-04-22T13:48:55.999Z</time></trkpt><trkpt lat="42.646648556739464" lon="12.749326592355947"><ele>783.0</ele><time>2026-04-22T13:48:56.999Z</time></trkpt><trkpt lat="42.64657682134328" lon="12.749199257859175"><ele>781.0</ele><time>2026-04-22T13:48:57.999Z</time></trkpt><trkpt lat="42.646497199326234" lon="12.7490299411495"><ele>779.0</ele><time>2026-04-22T13:48:58.999Z</time></trkpt><trkpt lat="42.64639849234939" lon="12.74886241048634"><ele>777.0</ele><time>2026-04-22T13:48:59.999Z</time></trkpt><trkpt lat="42.64626193636683" lon="12.748753730896636"><ele>777.0</ele><time>2026-04-22T13:49:00.999Z</time></trkpt><trkpt lat="42.64612884417189" lon="12.748654612163868"><ele>777.0</ele><time>2026-04-22T13:49:01.999Z</time></trkpt><trkpt lat="42.64600211388433" lon="12.748576205756988"><ele>777.0</ele><time>2026-04-22T13:49:02.999Z</time></trkpt><trkpt lat="42.64591097590745" lon="12.74848516681736"><ele>777.0</ele><time>2026-04-22T13:49:03.999Z</time></trkpt><trkpt lat="42.64584323136801" lon="12.748419273624341"><ele>777.4000000000001</ele><time>2026-04-22T13:49:04.999Z</time></trkpt><trkpt lat="42.645814002835216" lon="12.748326159272604"><ele>777.8000000000001</ele><time>2026-04-22T13:49:05.999Z</time></trkpt><trkpt lat="42.645820484631365" lon="12.74823603836497"><ele>778.2</ele><time>2026-04-22T13:49:06.999Z</time></trkpt><trkpt lat="42.645851848839186" lon="12.748129099705627"><ele>778.6</ele><time>2026-04-22T13:49:07.999Z</time></trkpt><trkpt lat="42.64589698485194" lon="12.748006693214743"><ele>779.0</ele><time>2026-04-22T13:49:08.999Z</time></trkpt><trkpt lat="42.64593125793164" lon="12.74783769524052"><ele>778.5</ele><time>2026-04-22T13:49:09.999Z</time></trkpt><trkpt lat="42.64594821160521" lon="12.74767900769068"><ele>778.0</ele><time>2026-04-22T13:49:10.999Z</time></trkpt><trkpt lat="42.64593517251673" lon="12.747506511886193"><ele>777.5</ele><time>2026-04-22T13:49:11.999Z</time></trkpt><trkpt lat="42.64590953104898" lon="12.747329825732276"><ele>777.0</ele><time>2026-04-22T13:49:12.999Z</time></trkpt><trkpt lat="42.6458593060374" lon="12.74714682390146"><ele>777.0</ele><time>2026-04-22T13:49:13.999Z</time></trkpt><trkpt lat="42.645792977842234" lon="12.746956589650901"><ele>777.0</ele><time>2026-04-22T13:49:14.999Z</time></trkpt><trkpt lat="42.645725491495504" lon="12.746795992781538"><ele>777.0</ele><time>2026-04-22T13:49:15.999Z</time></trkpt><trkpt lat="42.645660688470876" lon="12.746668740766534"><ele>777.0</ele><time>2026-04-22T13:49:17Z</time></trkpt><trkpt lat="42.64557706169941" lon="12.746565497664538"><ele>775.0</ele><time>2026-04-22T13:49:18Z</time></trkpt><trkpt lat="42.64547014627356" lon="12.746490842610564"><ele>773.0</ele><time>2026-04-22T13:49:19Z</time></trkpt><trkpt lat="42.64534268813714" lon="12.746445410811228"><ele>771.0</ele><time>2026-04-22T13:49:20Z</time></trkpt><trkpt lat="42.64520361568504" lon="12.746436715459865"><ele>769.0</ele><time>2026-04-22T13:49:21Z</time></trkpt><trkpt lat="42.64505977057944" lon="12.746457325321952"><ele>769.0</ele><time>2026-04-22T13:49:22Z</time></trkpt><trkpt lat="42.64491850667335" lon="12.746491718798595"><ele>769.0</ele><time>2026-04-22T13:49:23Z</time></trkpt><trkpt lat="42.64479057566328" lon="12.746547506968973"><ele>769.0</ele><time>2026-04-22T13:49:24Z</time></trkpt><trkpt lat="42.64466952345683" lon="12.74662707719249"><ele>769.0</ele><time>2026-04-22T13:49:25Z</time></trkpt><trkpt lat="42.64455098856876" lon="12.746739808979989"><ele>766.75</ele><time>2026-04-22T13:49:26Z</time></trkpt><trkpt lat="42.644416071584395" lon="12.746853707553235"><ele>764.5</ele><time>2026-04-22T13:49:27Z</time></trkpt><trkpt lat="42.64430204065831" lon="12.746976279639195"><ele>762.25</ele><time>2026-04-22T13:49:28Z</time></trkpt><trkpt lat="42.644196168858" lon="12.747099100544258"><ele>760.0</ele><time>2026-04-22T13:49:29Z</time></trkpt><trkpt lat="42.644105454416476" lon="12.747230704444258"><ele>760.0</ele><time>2026-04-22T13:49:30Z</time></trkpt><trkpt lat="42.64403797236684" lon="12.747388264760602"><ele>760.0</ele><time>2026-04-22T13:49:31Z</time></trkpt><trkpt lat="42.64396886533725" lon="12.74755893779109"><ele>760.0</ele><time>2026-04-22T13:49:32Z</time></trkpt><trkpt lat="42.64391585151515" lon="12.747718694437953"><ele>760.0</ele><time>2026-04-22T13:49:33Z</time></trkpt><trkpt lat="42.64387277299318" lon="12.7478680959358"><ele>761.0</ele><time>2026-04-22T13:49:34Z</time></trkpt><trkpt lat="42.6438060188867" lon="12.74797911447249"><ele>762.0</ele><time>2026-04-22T13:49:35Z</time></trkpt><trkpt lat="42.64374587897036" lon="12.748065757214132"><ele>763.0</ele><time>2026-04-22T13:49:36Z</time></trkpt><trkpt lat="42.6436587600512" lon="12.748137169326737"><ele>764.0</ele><time>2026-04-22T13:49:37Z</time></trkpt><trkpt lat="42.64354989252692" lon="12.748217522518331"><ele>765.0</ele><time>2026-04-22T13:49:38Z</time></trkpt><trkpt lat="42.643414269124996" lon="12.748307797981175"><ele>759.75</ele><time>2026-04-22T13:49:39Z</time></trkpt><trkpt lat="42.64327464329151" lon="12.748384636935379"><ele>754.5</ele><time>2026-04-22T13:49:40Z</time></trkpt><trkpt lat="42.643140807596055" lon="12.748440032851251"><ele>749.25</ele><time>2026-04-22T13:49:41Z</time></trkpt><trkpt lat="42.64301289109732" lon="12.748460884560599"><ele>744.0</ele><time>2026-04-22T13:49:42Z</time></trkpt><trkpt lat="42.64288756741022" lon="12.74846041563165"><ele>742.4000000000001</ele><time>2026-04-22T13:49:43Z</time></trkpt><trkpt lat="42.642766848042164" lon="12.748460129904071"><ele>740.8</ele><time>2026-04-22T13:49:44Z</time></trkpt><trkpt lat="42.642650375398745" lon="12.748483608293194"><ele>739.2</ele><time>2026-04-22T13:49:45Z</time></trkpt><trkpt lat="42.64254335222311" lon="12.748488867783124"><ele>737.5999999999999</ele><time>2026-04-22T13:49:46Z</time></trkpt><trkpt lat="42.64244879160729" lon="12.748523761543359"><ele>736.0</ele><time>2026-04-22T13:49:47Z</time></trkpt><trkpt lat="42.64236892754969" lon="12.748583556504709"><ele>736.0</ele><time>2026-04-22T13:49:48Z</time></trkpt><trkpt lat="42.64230261326803" lon="12.74868560484219"><ele>736.0</ele><time>2026-04-22T13:49:49Z</time></trkpt><trkpt lat="42.64224501715653" lon="12.748801678519502"><ele>736.0</ele><time>2026-04-22T13:49:50Z</time></trkpt><trkpt lat="42.64224382346122" lon="12.748951327059261"><ele>736.0</ele><time>2026-04-22T13:49:51Z</time></trkpt><trkpt lat="42.64224066286064" lon="12.749112606697631"><ele>736.0</ele><time>2026-04-22T13:49:52Z</time></trkpt><trkpt lat="42.64221457228473" lon="12.74927475443768"><ele>734.5999999999999</ele><time>2026-04-22T13:49:53Z</time></trkpt><trkpt lat="42.64218817250736" lon="12.74940370394379"><ele>733.2</ele><time>2026-04-22T13:49:54Z</time></trkpt><trkpt lat="42.64213364022199" lon="12.749506049644433"><ele>731.8</ele><time>2026-04-22T13:49:55Z</time></trkpt><trkpt lat="42.64205280007049" lon="12.749569923289531"><ele>730.4000000000001</ele><time>2026-04-22T13:49:56Z</time></trkpt><trkpt lat="42.641951031073916" lon="12.749653450972058"><ele>729.0</ele><time>2026-04-22T13:49:57Z</time></trkpt><trkpt lat="42.64183519969208" lon="12.749723578490192"><ele>729.0</ele><time>2026-04-22T13:49:58Z</time></trkpt><trkpt lat="42.641727084940236" lon="12.749745646684456"><ele>729.0</ele><time>2026-04-22T13:49:59Z</time></trkpt><trkpt lat="42.641616699398035" lon="12.74973576041027"><ele>729.0</ele><time>2026-04-22T13:50:00Z</time></trkpt><trkpt lat="42.64150440201897" lon="12.749690430143128"><ele>729.0</ele><time>2026-04-22T13:50:01Z</time></trkpt><trkpt lat="42.64141216116032" lon="12.749613561625122"><ele>729.0</ele><time>2026-04-22T13:50:02Z</time></trkpt><trkpt lat="42.64134539019516" lon="12.749492894681442"><ele>728.25</ele><time>2026-04-22T13:50:03Z</time></trkpt><trkpt lat="42.64125371972776" lon="12.749358736949251"><ele>727.5</ele><time>2026-04-22T13:50:04Z</time></trkpt><trkpt lat="42.64113857109375" lon="12.749249316014694"><ele>726.75</ele><time>2026-04-22T13:50:05Z</time></trkpt><trkpt lat="42.641015796931406" lon="12.749130317708508"><ele>726.0</ele><time>2026-04-22T13:50:06Z</time></trkpt><trkpt lat="42.64089436793201" lon="12.749013924659645"><ele>728.0</ele><time>2026-04-22T13:50:07Z</time></trkpt><trkpt lat="42.64075966165746" lon="12.748931922443543"><ele>730.0</ele><time>2026-04-22T13:50:08Z</time></trkpt><trkpt lat="42.64062760327113" lon="12.74881033046806"><ele>732.0</ele><time>2026-04-22T13:50:09Z</time></trkpt><trkpt lat="42.64050344218496" lon="12.748670895578957"><ele>733.0</ele><time>2026-04-22T13:50:10Z</time></trkpt><trkpt lat="42.64038492009093" lon="12.748516412799397"><ele>734.0</ele><time>2026-04-22T13:50:11Z</time></trkpt><trkpt lat="42.640281480777794" lon="12.748344647173793"><ele>735.0</ele><time>2026-04-22T13:50:12Z</time></trkpt><trkpt lat="42.64018631303415" lon="12.748158813012843"><ele>735.0</ele><time>2026-04-22T13:50:13Z</time></trkpt><trkpt lat="42.64009862871353" lon="12.747980831416033"><ele>735.0</ele><time>2026-04-22T13:50:14Z</time></trkpt><trkpt lat="42.64001294724241" lon="12.747803453652192"><ele>735.0</ele><time>2026-04-22T13:50:15Z</time></trkpt><trkpt lat="42.639932474721924" lon="12.74765204650034"><ele>730.5</ele><time>2026-04-22T13:50:16Z</time></trkpt><trkpt lat="42.63984371335653" lon="12.747522633629316"><ele>726.0</ele><time>2026-04-22T13:50:17Z</time></trkpt><trkpt lat="42.639747291350844" lon="12.74742441887033"><ele>721.5</ele><time>2026-04-22T13:50:18Z</time></trkpt><trkpt lat="42.63963812626858" lon="12.747360674911949"><ele>717.0</ele><time>2026-04-22T13:50:19Z</time></trkpt><trkpt lat="42.63950845851628" lon="12.747331963045847"><ele>718.5</ele><time>2026-04-22T13:50:20Z</time></trkpt><trkpt lat="42.63937112787264" lon="12.747300579032748"><ele>720.0</ele><time>2026-04-22T13:50:21Z</time></trkpt><trkpt lat="42.6392406898059" lon="12.747350360666303"><ele>721.5</ele><time>2026-04-22T13:50:22Z</time></trkpt><trkpt lat="42.63913296709387" lon="12.747412187050022"><ele>723.0</ele><time>2026-04-22T13:50:23Z</time></trkpt><trkpt lat="42.63903964391946" lon="12.747483166127632"><ele>723.0</ele><time>2026-04-22T13:50:24Z</time></trkpt><trkpt lat="42.638995876561395" lon="12.747611154285348"><ele>723.0</ele><time>2026-04-22T13:50:25Z</time></trkpt><trkpt lat="42.63896525460738" lon="12.747742800090103"><ele>723.0</ele><time>2026-04-22T13:50:26Z</time></trkpt><trkpt lat="42.63894492358591" lon="12.747888188266325"><ele>723.0</ele><time>2026-04-22T13:50:27Z</time></trkpt><trkpt lat="42.638945640187245" lon="12.748058119338829"><ele>723.0</ele><time>2026-04-22T13:50:28Z</time></trkpt><trkpt lat="42.638965162413506" lon="12.74825690553465"><ele>723.6666666666666</ele><time>2026-04-22T13:50:29Z</time></trkpt><trkpt lat="42.63899542600017" lon="12.748479006516055"><ele>724.3333333333333</ele><time>2026-04-22T13:50:30Z</time></trkpt><trkpt lat="42.639006024699334" lon="12.748707581665553"><ele>725.0</ele><time>2026-04-22T13:50:31Z</time></trkpt><trkpt lat="42.63902897467934" lon="12.748929478429606"><ele>723.3333333333333</ele><time>2026-04-22T13:50:32Z</time></trkpt><trkpt lat="42.63905446441741" lon="12.749163128838196"><ele>721.6666666666666</ele><time>2026-04-22T13:50:33Z</time></trkpt><trkpt lat="42.63909455671342" lon="12.749375319539492"><ele>720.0</ele><time>2026-04-22T13:50:34Z</time></trkpt><trkpt lat="42.63911001944014" lon="12.749581623591736"><ele>719.25</ele><time>2026-04-22T13:50:35Z</time></trkpt><trkpt lat="42.63911224075387" lon="12.749779656024034"><ele>718.5</ele><time>2026-04-22T13:50:36Z</time></trkpt><trkpt lat="42.63913323925948" lon="12.749968069435713"><ele>717.75</ele><time>2026-04-22T13:50:37Z</time></trkpt><trkpt lat="42.63916156287892" lon="12.750156359216254"><ele>717.0</ele><time>2026-04-22T13:50:38Z</time></trkpt><trkpt lat="42.63920560557966" lon="12.750353401169235"><ele>715.3333333333334</ele><time>2026-04-22T13:50:39Z</time></trkpt><trkpt lat="42.63927555024956" lon="12.750542088944709"><ele>713.6666666666667</ele><time>2026-04-22T13:50:40Z</time></trkpt><trkpt lat="42.639350877504455" lon="12.75073426060464"><ele>712.0</ele><time>2026-04-22T13:50:41Z</time></trkpt><trkpt lat="42.63942095819343" lon="12.750940651169175"><ele>714.3333333333334</ele><time>2026-04-22T13:50:42Z</time></trkpt><trkpt lat="42.63947587943913" lon="12.751151321120703"><ele>716.6666666666666</ele><time>2026-04-22T13:50:43Z</time></trkpt><trkpt lat="42.639529526381835" lon="12.751350809144196"><ele>719.0</ele><time>2026-04-22T13:50:44Z</time></trkpt><trkpt lat="42.6395798604449" lon="12.751532011384105"><ele>719.0</ele><time>2026-04-22T13:50:45Z</time></trkpt><trkpt lat="42.63963722256202" lon="12.751693652122137"><ele>719.0</ele><time>2026-04-22T13:50:46Z</time></trkpt><trkpt lat="42.639704109208225" lon="12.751832086732753"><ele>719.0</ele><time>2026-04-22T13:50:47Z</time></trkpt><trkpt lat="42.6397844206412" lon="12.751933912383207"><ele>719.0</ele><time>2026-04-22T13:50:48Z</time></trkpt><trkpt lat="42.63988059117242" lon="12.751974828731797"><ele>716.5</ele><time>2026-04-22T13:50:49Z</time></trkpt><trkpt lat="42.6399730167621" lon="12.752005240284168"><ele>714.0</ele><time>2026-04-22T13:50:50Z</time></trkpt><trkpt lat="42.64008651775101" lon="12.752000125577512"><ele>711.5</ele><time>2026-04-22T13:50:51Z</time></trkpt><trkpt lat="42.64021491353072" lon="12.751981914069498"><ele>709.0</ele><time>2026-04-22T13:50:52Z</time></trkpt><trkpt lat="42.6403584867889" lon="12.751949110865615"><ele>709.75</ele><time>2026-04-22T13:50:53Z</time></trkpt><trkpt lat="42.64049487307141" lon="12.751920553244917"><ele>710.5</ele><time>2026-04-22T13:50:54Z</time></trkpt><trkpt lat="42.64061628414387" lon="12.751888823446281"><ele>711.25</ele><time>2026-04-22T13:50:55Z</time></trkpt><trkpt lat="42.640728373008166" lon="12.751847508950965"><ele>712.0</ele><time>2026-04-22T13:50:56Z</time></trkpt><trkpt lat="42.64083808596954" lon="12.751791169808824"><ele>712.0</ele><time>2026-04-22T13:50:57Z</time></trkpt><trkpt lat="42.640952421930855" lon="12.751716062271973"><ele>712.0</ele><time>2026-04-22T13:50:58Z</time></trkpt><trkpt lat="42.641070153254915" lon="12.751631628148878"><ele>712.0</ele><time>2026-04-22T13:50:59Z</time></trkpt><trkpt lat="42.64118676290925" lon="12.751551589672973"><ele>712.0</ele><time>2026-04-22T13:51:00Z</time></trkpt><trkpt lat="42.64130057179471" lon="12.751484842585462"><ele>703.25</ele><time>2026-04-22T13:51:01Z</time></trkpt><trkpt lat="42.6414188975628" lon="12.751421277035764"><ele>694.5</ele><time>2026-04-22T13:51:02Z</time></trkpt><trkpt lat="42.64153400219825" lon="12.751343690560233"><ele>685.75</ele><time>2026-04-22T13:51:03Z</time></trkpt><trkpt lat="42.64164190491135" lon="12.751259900435818"><ele>677.0</ele><time>2026-04-22T13:51:04Z</time></trkpt><trkpt lat="42.641744170504495" lon="12.751162664133163"><ele>677.0</ele><time>2026-04-22T13:51:05Z</time></trkpt><trkpt lat="42.641828395411515" lon="12.751058009932459"><ele>677.0</ele><time>2026-04-22T13:51:06Z</time></trkpt><trkpt lat="42.64191477306451" lon="12.750941834543694"><ele>677.0</ele><time>2026-04-22T13:51:07Z</time></trkpt><trkpt lat="42.641989696642085" lon="12.750831483475137"><ele>677.0</ele><time>2026-04-22T13:51:08Z</time></trkpt><trkpt lat="42.642069669939346" lon="12.750711771614311"><ele>676.0</ele><time>2026-04-22T13:51:09Z</time></trkpt><trkpt lat="42.64214929145102" lon="12.750633444612795"><ele>675.0</ele><time>2026-04-22T13:51:10Z</time></trkpt><trkpt lat="42.642239336515864" lon="12.75056790165923"><ele>674.0</ele><time>2026-04-22T13:51:11Z</time></trkpt><trkpt lat="42.64236097127638" lon="12.75052255275665"><ele>673.0</ele><time>2026-04-22T13:51:12Z</time></trkpt><trkpt lat="42.64249671496214" lon="12.750484939916742"><ele>673.0</ele><time>2026-04-22T13:51:13Z</time></trkpt><trkpt lat="42.64263661624234" lon="12.750451343426253"><ele>673.0</ele><time>2026-04-22T13:51:14Z</time></trkpt><trkpt lat="42.64277530256944" lon="12.7504238732849"><ele>673.0</ele><time>2026-04-22T13:51:15Z</time></trkpt><trkpt lat="42.64290211997916" lon="12.750406443873556"><ele>673.0</ele><time>2026-04-22T13:51:16Z</time></trkpt><trkpt lat="42.64303207894755" lon="12.75039855889644"><ele>670.75</ele><time>2026-04-22T13:51:17Z</time></trkpt><trkpt lat="42.64317235050324" lon="12.750400095521531"><ele>668.5</ele><time>2026-04-22T13:51:18Z</time></trkpt><trkpt lat="42.64330710556362" lon="12.750405210419377"><ele>666.25</ele><time>2026-04-22T13:51:19Z</time></trkpt><trkpt lat="42.64343748440292" lon="12.75040738238759"><ele>664.0</ele><time>2026-04-22T13:51:20Z</time></trkpt><trkpt lat="42.64356231545149" lon="12.750414467183365"><ele>665.25</ele><time>2026-04-22T13:51:21Z</time></trkpt><trkpt lat="42.643681685278445" lon="12.750424202698063"><ele>666.5</ele><time>2026-04-22T13:51:22Z</time></trkpt><trkpt lat="42.64379411190977" lon="12.750450331364682"><ele>667.75</ele><time>2026-04-22T13:51:23Z</time></trkpt><trkpt lat="42.64389988581795" lon="12.750498589331986"><ele>669.0</ele><time>2026-04-22T13:51:24Z</time></trkpt><trkpt lat="42.64401233406099" lon="12.750569074479944"><ele>669.0</ele><time>2026-04-22T13:51:25Z</time></trkpt><trkpt lat="42.64412038700404" lon="12.750683173630412"><ele>669.0</ele><time>2026-04-22T13:51:26Z</time></trkpt><trkpt lat="42.64423411402851" lon="12.750795560624368"><ele>669.0</ele><time>2026-04-22T13:51:27Z</time></trkpt><trkpt lat="42.64434987141968" lon="12.750913345343891"><ele>669.0</ele><time>2026-04-22T13:51:28Z</time></trkpt><trkpt lat="42.644469851159315" lon="12.75100668305883"><ele>665.5</ele><time>2026-04-22T13:51:29Z</time></trkpt><trkpt lat="42.6445842673086" lon="12.751112437718321"><ele>662.0</ele><time>2026-04-22T13:51:30Z</time></trkpt><trkpt lat="42.64468784018028" lon="12.751214447591863"><ele>658.5</ele><time>2026-04-22T13:51:31Z</time></trkpt><trkpt lat="42.64479922887901" lon="12.751308836024073"><ele>655.0</ele><time>2026-04-22T13:51:32Z</time></trkpt><trkpt lat="42.64491316474219" lon="12.751396002728479"><ele>655.0</ele><time>2026-04-22T13:51:33Z</time></trkpt><trkpt lat="42.64501533510322" lon="12.751490168138895"><ele>655.0</ele><time>2026-04-22T13:51:34Z</time></trkpt><trkpt lat="42.645110553764745" lon="12.751610118185187"><ele>655.0</ele><time>2026-04-22T13:51:35Z</time></trkpt><trkpt lat="42.64520855142117" lon="12.751712638839743"><ele>655.0</ele><time>2026-04-22T13:51:36Z</time></trkpt><trkpt lat="42.645307552596165" lon="12.751823926030774"><ele>654.5</ele><time>2026-04-22T13:51:37Z</time></trkpt><trkpt lat="42.6454090047718" lon="12.751940546546697"><ele>654.0</ele><time>2026-04-22T13:51:38Z</time></trkpt><trkpt lat="42.645499365965726" lon="12.752053010777226"><ele>653.5</ele><time>2026-04-22T13:51:39Z</time></trkpt><trkpt lat="42.64557467310703" lon="12.752159113001449"><ele>653.0</ele><time>2026-04-22T13:51:40Z</time></trkpt><trkpt lat="42.645640882650056" lon="12.752271763466183"><ele>653.0</ele><time>2026-04-22T13:51:41Z</time></trkpt><trkpt lat="42.64568876210462" lon="12.752371722469253"><ele>653.0</ele><time>2026-04-22T13:51:42Z</time></trkpt><trkpt lat="42.64572256305799" lon="12.752473353407094"><ele>653.0</ele><time>2026-04-22T13:51:43Z</time></trkpt><trkpt lat="42.64575741876697" lon="12.752588051930362"><ele>653.0</ele><time>2026-04-22T13:51:44Z</time></trkpt><trkpt lat="42.64579199730713" lon="12.752701838387598"><ele>653.0</ele><time>2026-04-22T13:51:45Z</time></trkpt><trkpt lat="42.64583531291853" lon="12.75285790114843"><ele>649.5</ele><time>2026-04-22T13:51:46Z</time></trkpt><trkpt lat="42.645882149177666" lon="12.753031823657842"><ele>646.0</ele><time>2026-04-22T13:51:47Z</time></trkpt><trkpt lat="42.64593344935205" lon="12.753226797495302"><ele>642.5</ele><time>2026-04-22T13:51:48Z</time></trkpt><trkpt lat="42.645985376074904" lon="12.753431479043526"><ele>639.0</ele><time>2026-04-22T13:51:49Z</time></trkpt><trkpt lat="42.64603806774955" lon="12.753642588649978"><ele>636.3333333333334</ele><time>2026-04-22T13:51:50Z</time></trkpt><trkpt lat="42.64609160555862" lon="12.753858838410633"><ele>633.6666666666667</ele><time>2026-04-22T13:51:51Z</time></trkpt><trkpt lat="42.64614118911025" lon="12.754057029347145"><ele>631.0</ele><time>2026-04-22T13:51:52Z</time></trkpt><trkpt lat="42.64618947684612" lon="12.754246435840688"><ele>632.5</ele><time>2026-04-22T13:51:53Z</time></trkpt><trkpt lat="42.64623250510038" lon="12.754423131932128"><ele>634.0</ele><time>2026-04-22T13:51:54Z</time></trkpt><trkpt lat="42.646278013525524" lon="12.75460033599358"><ele>635.5</ele><time>2026-04-22T13:51:55Z</time></trkpt><trkpt lat="42.64632964061658" lon="12.754749055284217"><ele>637.0</ele><time>2026-04-22T13:51:56Z</time></trkpt><trkpt lat="42.64639746932108" lon="12.75486154583492"><ele>637.0</ele><time>2026-04-22T13:51:57Z</time></trkpt><trkpt lat="42.646511326106314" lon="12.754923597607693"><ele>637.0</ele><time>2026-04-22T13:51:58Z</time></trkpt><trkpt lat="42.646634418758" lon="12.75501712883537"><ele>637.0</ele><time>2026-04-22T13:51:59Z</time></trkpt><trkpt lat="42.6467835029436" lon="12.755119101918103"><ele>637.0</ele><time>2026-04-22T13:52:00Z</time></trkpt><trkpt lat="42.6469168706643" lon="12.755260773938518"><ele>636.3333333333334</ele><time>2026-04-22T13:52:01Z</time></trkpt><trkpt lat="42.64706550382112" lon="12.755390358607011"><ele>635.6666666666666</ele><time>2026-04-22T13:52:02Z</time></trkpt><trkpt lat="42.64721147202627" lon="12.755518616876152"><ele>635.0</ele><time>2026-04-22T13:52:03Z</time></trkpt><trkpt lat="42.64736145078655" lon="12.755648749025086"><ele>635.0</ele><time>2026-04-22T13:52:04Z</time></trkpt><trkpt lat="42.647526320014535" lon="12.755764772217143"><ele>635.0</ele><time>2026-04-22T13:52:05Z</time></trkpt><trkpt lat="42.647678003604035" lon="12.755890128353657"><ele>635.0</ele><time>2026-04-22T13:52:06Z</time></trkpt><trkpt lat="42.64783201014413" lon="12.756017100618317"><ele>631.6666666666666</ele><time>2026-04-22T13:52:07Z</time></trkpt><trkpt lat="42.647986697968705" lon="12.756144154093938"><ele>628.3333333333334</ele><time>2026-04-22T13:52:08Z</time></trkpt><trkpt lat="42.648134559776054" lon="12.756290559637328"><ele>625.0</ele><time>2026-04-22T13:52:09Z</time></trkpt><trkpt lat="42.64828272128682" lon="12.756414756980096"><ele>625.0</ele><time>2026-04-22T13:52:10Z</time></trkpt><trkpt lat="42.64843285379584" lon="12.756518340934734"><ele>625.0</ele><time>2026-04-22T13:52:11Z</time></trkpt><trkpt lat="42.64856172986004" lon="12.756651778174648"><ele>625.0</ele><time>2026-04-22T13:52:12Z</time></trkpt><trkpt lat="42.64870260299415" lon="12.756759629489409"><ele>631.3333333333334</ele><time>2026-04-22T13:52:13Z</time></trkpt><trkpt lat="42.648855992170546" lon="12.756831152191024"><ele>637.6666666666666</ele><time>2026-04-22T13:52:14Z</time></trkpt><trkpt lat="42.64899782311499" lon="12.756901538685911"><ele>644.0</ele><time>2026-04-22T13:52:15Z</time></trkpt><trkpt lat="42.64914785308937" lon="12.756960623284794"><ele>630.3333333333333</ele><time>2026-04-22T13:52:16Z</time></trkpt><trkpt lat="42.64930089930448" lon="12.756993809657818"><ele>616.6666666666666</ele><time>2026-04-22T13:52:17Z</time></trkpt><trkpt lat="42.649454465847846" lon="12.756991922922424"><ele>603.0</ele><time>2026-04-22T13:52:18Z</time></trkpt><trkpt lat="42.64960141222525" lon="12.756956273926106"><ele>603.0</ele><time>2026-04-22T13:52:19Z</time></trkpt><trkpt lat="42.64973331505332" lon="12.756889422127388"><ele>603.0</ele><time>2026-04-22T13:52:20Z</time></trkpt><trkpt lat="42.649875111559254" lon="12.756871043384303"><ele>603.0</ele><time>2026-04-22T13:52:21Z</time></trkpt><trkpt lat="42.650016048888524" lon="12.756872967550445"><ele>603.0</ele><time>2026-04-22T13:52:22Z</time></trkpt><trkpt lat="42.65017174824828" lon="12.756873516423177"><ele>611.0</ele><time>2026-04-22T13:52:23Z</time></trkpt><trkpt lat="42.65032727578714" lon="12.756850121743893"><ele>619.0</ele><time>2026-04-22T13:52:24Z</time></trkpt><trkpt lat="42.65046987472931" lon="12.756819392110382"><ele>627.0</ele><time>2026-04-22T13:52:25Z</time></trkpt><trkpt lat="42.650594978883106" lon="12.756775340710565"><ele>635.0</ele><time>2026-04-22T13:52:26Z</time></trkpt><trkpt lat="42.650687204195805" lon="12.756750615551713"><ele>635.0</ele><time>2026-04-22T13:52:27Z</time></trkpt><trkpt lat="42.65076381620985" lon="12.75677205026621"><ele>635.0</ele><time>2026-04-22T13:52:28Z</time></trkpt><trkpt lat="42.65079956542068" lon="12.75687722420773"><ele>635.0</ele><time>2026-04-22T13:52:29Z</time></trkpt><trkpt lat="42.65082933298324" lon="12.756953707269284"><ele>635.0</ele><time>2026-04-22T13:52:30Z</time></trkpt><trkpt lat="42.6508099448592" lon="12.757067163633145"><ele>635.0</ele><time>2026-04-22T13:52:31Z</time></trkpt><trkpt lat="42.65077577543723" lon="12.757195119526106"><ele>635.0</ele><time>2026-04-22T13:52:32Z</time></trkpt><trkpt lat="42.65074188865703" lon="12.757364144052767"><ele>635.25</ele><time>2026-04-22T13:52:33Z</time></trkpt><trkpt lat="42.65069162147073" lon="12.757500043064054"><ele>635.5</ele><time>2026-04-22T13:52:34Z</time></trkpt><trkpt lat="42.65060015738257" lon="12.75760121588435"><ele>635.75</ele><time>2026-04-22T13:52:35Z</time></trkpt><trkpt lat="42.650475492111156" lon="12.757722198120652"><ele>636.0</ele><time>2026-04-22T13:52:36Z</time></trkpt><trkpt lat="42.65032406519395" lon="12.757848062584955"><ele>628.6666666666666</ele><time>2026-04-22T13:52:37Z</time></trkpt><trkpt lat="42.650166921808136" lon="12.757984799190506"><ele>621.3333333333333</ele><time>2026-04-22T13:52:38Z</time></trkpt><trkpt lat="42.650024178643584" lon="12.75817428079548"><ele>614.0</ele><time>2026-04-22T13:52:39Z</time></trkpt><trkpt lat="42.64988540377106" lon="12.758364367478123"><ele>614.0</ele><time>2026-04-22T13:52:40Z</time></trkpt><trkpt lat="42.64973585979255" lon="12.758516312852224"><ele>614.0</ele><time>2026-04-22T13:52:41Z</time></trkpt><trkpt lat="42.6495843193982" lon="12.758633801350555"><ele>614.0</ele><time>2026-04-22T13:52:42Z</time></trkpt><trkpt lat="42.649419403541636" lon="12.758747379968483"><ele>616.6666666666666</ele><time>2026-04-22T13:52:43Z</time></trkpt><trkpt lat="42.64925221662834" lon="12.758849564586054"><ele>619.3333333333334</ele><time>2026-04-22T13:52:44Z</time></trkpt><trkpt lat="42.64907259698709" lon="12.758958739554872"><ele>622.0</ele><time>2026-04-22T13:52:45Z</time></trkpt><trkpt lat="42.64887051777272" lon="12.759011619953926"><ele>622.0</ele><time>2026-04-22T13:52:46Z</time></trkpt><trkpt lat="42.64866213172081" lon="12.75907174022693"><ele>622.0</ele><time>2026-04-22T13:52:47Z</time></trkpt><trkpt lat="42.648461222986356" lon="12.759131834527865"><ele>622.0</ele><time>2026-04-22T13:52:48Z</time></trkpt><trkpt lat="42.64827221176216" lon="12.759190963664933"><ele>614.0</ele><time>2026-04-22T13:52:49Z</time></trkpt><trkpt lat="42.648095913957384" lon="12.759259597957033"><ele>606.0</ele><time>2026-04-22T13:52:50Z</time></trkpt><trkpt lat="42.64792527269116" lon="12.759353988661998"><ele>598.0</ele><time>2026-04-22T13:52:51Z</time></trkpt><trkpt lat="42.64778350528518" lon="12.759456433423534"><ele>598.0</ele><time>2026-04-22T13:52:52Z</time></trkpt><trkpt lat="42.64762909441208" lon="12.75951171464454"><ele>598.0</ele><time>2026-04-22T13:52:53Z</time></trkpt><trkpt lat="42.64751140310376" lon="12.75954383757697"><ele>598.0</ele><time>2026-04-22T13:52:54Z</time></trkpt><trkpt lat="42.64740887709052" lon="12.759566224287333"><ele>598.0</ele><time>2026-04-22T13:52:55Z</time></trkpt><trkpt lat="42.64733601393465" lon="12.759631558945689"><ele>598.0</ele><time>2026-04-22T13:52:56Z</time></trkpt><trkpt lat="42.64732335864854" lon="12.759747572020508"><ele>598.0</ele><time>2026-04-22T13:52:57Z</time></trkpt><trkpt lat="42.64733043863239" lon="12.759869194774652"><ele>598.0</ele><time>2026-04-22T13:52:58Z</time></trkpt><trkpt lat="42.64733063149699" lon="12.760026167549622"><ele>598.0</ele><time>2026-04-22T13:52:59Z</time></trkpt><trkpt lat="42.64737628226701" lon="12.760196139858772"><ele>598.0</ele><time>2026-04-22T13:53:00Z</time></trkpt><trkpt lat="42.64742675281709" lon="12.760352359146493"><ele>596.25</ele><time>2026-04-22T13:53:01Z</time></trkpt><trkpt lat="42.647494239830706" lon="12.760493611355223"><ele>594.5</ele><time>2026-04-22T13:53:02Z</time></trkpt><trkpt lat="42.64757715951617" lon="12.760610564370806"><ele>592.75</ele><time>2026-04-22T13:53:03Z</time></trkpt><trkpt lat="42.6476639002705" lon="12.760709758256125"><ele>591.0</ele><time>2026-04-22T13:53:04Z</time></trkpt><trkpt lat="42.64772192819508" lon="12.760835106565162"><ele>591.0</ele><time>2026-04-22T13:53:05Z</time></trkpt><trkpt lat="42.6477631282506" lon="12.760956963209322"><ele>591.0</ele><time>2026-04-22T13:53:06Z</time></trkpt><trkpt lat="42.64777308361003" lon="12.761091094616345"><ele>591.0</ele><time>2026-04-22T13:53:07Z</time></trkpt><trkpt lat="42.64775937370059" lon="12.761227683740636"><ele>591.0</ele><time>2026-04-22T13:53:08Z</time></trkpt><trkpt lat="42.647746095975855" lon="12.761386497521498"><ele>591.0</ele><time>2026-04-22T13:53:09Z</time></trkpt><trkpt lat="42.64773690902608" lon="12.761539843960307"><ele>588.0</ele><time>2026-04-22T13:53:10Z</time></trkpt><trkpt lat="42.64773929178499" lon="12.761683859953665"><ele>585.0</ele><time>2026-04-22T13:53:11Z</time></trkpt><trkpt lat="42.647777320015855" lon="12.761831778896159"><ele>582.0</ele><time>2026-04-22T13:53:12Z</time></trkpt><trkpt lat="42.647797982279606" lon="12.761989290911005"><ele>579.0</ele><time>2026-04-22T13:53:13Z</time></trkpt><trkpt lat="42.647845167642814" lon="12.76215014717026"><ele>581.25</ele><time>2026-04-22T13:53:14Z</time></trkpt><trkpt lat="42.64791159761664" lon="12.76229626260485"><ele>583.5</ele><time>2026-04-22T13:53:15Z</time></trkpt><trkpt lat="42.64794860982664" lon="12.76245909520531"><ele>585.75</ele><time>2026-04-22T13:53:16Z</time></trkpt><trkpt lat="42.64799843244122" lon="12.762613851789547"><ele>588.0</ele><time>2026-04-22T13:53:17Z</time></trkpt><trkpt lat="42.64804646024524" lon="12.762766955204896"><ele>588.0</ele><time>2026-04-22T13:53:18Z</time></trkpt><trkpt lat="42.648101413105664" lon="12.762912661941524"><ele>588.0</ele><time>2026-04-22T13:53:19Z</time></trkpt><trkpt lat="42.648128580004226" lon="12.763074330652168"><ele>588.0</ele><time>2026-04-22T13:53:20Z</time></trkpt><trkpt lat="42.64815786830318" lon="12.763229575415446"><ele>588.0</ele><time>2026-04-22T13:53:21Z</time></trkpt><trkpt lat="42.648178307042485" lon="12.76339318891867"><ele>587.5</ele><time>2026-04-22T13:53:22Z</time></trkpt><trkpt lat="42.64819607168365" lon="12.76356027137304"><ele>587.0</ele><time>2026-04-22T13:53:23Z</time></trkpt><trkpt lat="42.64821656088943" lon="12.76372488806564"><ele>586.5</ele><time>2026-04-22T13:53:24Z</time></trkpt><trkpt lat="42.64824442963755" lon="12.763886019022348"><ele>586.0</ele><time>2026-04-22T13:53:25Z</time></trkpt><trkpt lat="42.648274445698185" lon="12.764036964750135"><ele>586.0</ele><time>2026-04-22T13:53:26Z</time></trkpt><trkpt lat="42.64831695342369" lon="12.76418644276682"><ele>586.0</ele><time>2026-04-22T13:53:27Z</time></trkpt><trkpt lat="42.64837327994308" lon="12.764327380395077"><ele>586.0</ele><time>2026-04-22T13:53:28Z</time></trkpt><trkpt lat="42.64842530872777" lon="12.76445321581482"><ele>586.0</ele><time>2026-04-22T13:53:29Z</time></trkpt><trkpt lat="42.648469978315255" lon="12.764569249272613"><ele>586.0</ele><time>2026-04-22T13:53:30Z</time></trkpt><trkpt lat="42.64849110136535" lon="12.764693021835582"><ele>586.0</ele><time>2026-04-22T13:53:31Z</time></trkpt><trkpt lat="42.64846310569811" lon="12.764816823214009"><ele>586.0</ele><time>2026-04-22T13:53:32Z</time></trkpt><trkpt lat="42.64842814562825" lon="12.76495935379058"><ele>586.0</ele><time>2026-04-22T13:53:33Z</time></trkpt><trkpt lat="42.64839171016767" lon="12.765105535183423"><ele>586.0</ele><time>2026-04-22T13:53:34Z</time></trkpt><trkpt lat="42.64834690383488" lon="12.765259087513915"><ele>586.0</ele><time>2026-04-22T13:53:35Z</time></trkpt><trkpt lat="42.64828440289186" lon="12.765409621095634"><ele>587.5</ele><time>2026-04-22T13:53:36Z</time></trkpt><trkpt lat="42.648212512564236" lon="12.765554855473924"><ele>589.0</ele><time>2026-04-22T13:53:37Z</time></trkpt><trkpt lat="42.64814061525183" lon="12.765698052313663"><ele>590.5</ele><time>2026-04-22T13:53:38Z</time></trkpt><trkpt lat="42.64807546681578" lon="12.765847798466803"><ele>592.0</ele><time>2026-04-22T13:53:39Z</time></trkpt><trkpt lat="42.64802494658428" lon="12.766020369047366"><ele>595.0</ele><time>2026-04-22T13:53:40Z</time></trkpt><trkpt lat="42.64798595634355" lon="12.76621893665696"><ele>598.0</ele><time>2026-04-22T13:53:41Z</time></trkpt><trkpt lat="42.64794749827737" lon="12.76642971887555"><ele>601.0</ele><time>2026-04-22T13:53:42Z</time></trkpt><trkpt lat="42.64790023887468" lon="12.766636082219396"><ele>601.0</ele><time>2026-04-22T13:53:43Z</time></trkpt><trkpt lat="42.647841632024665" lon="12.766842255614437"><ele>601.0</ele><time>2026-04-22T13:53:44Z</time></trkpt><trkpt lat="42.64778625779058" lon="12.767039117530137"><ele>601.0</ele><time>2026-04-22T13:53:45Z</time></trkpt><trkpt lat="42.647733505248596" lon="12.76723776020617"><ele>592.3333333333334</ele><time>2026-04-22T13:53:46Z</time></trkpt><trkpt lat="42.64768467473094" lon="12.767436011146128"><ele>583.6666666666666</ele><time>2026-04-22T13:53:47Z</time></trkpt><trkpt lat="42.647638334268926" lon="12.767634359736666"><ele>575.0</ele><time>2026-04-22T13:53:48Z</time></trkpt><trkpt lat="42.6475921145994" lon="12.76783678957988"><ele>575.0</ele><time>2026-04-22T13:53:49Z</time></trkpt><trkpt lat="42.647543054768065" lon="12.768040965487716"><ele>575.0</ele><time>2026-04-22T13:53:50Z</time></trkpt><trkpt lat="42.647489572615505" lon="12.768236206143113"><ele>575.0</ele><time>2026-04-22T13:53:51Z</time></trkpt><trkpt lat="42.64743479507244" lon="12.76841875943552"><ele>577.25</ele><time>2026-04-22T13:53:52Z</time></trkpt><trkpt lat="42.64738867700736" lon="12.768585767025122"><ele>579.5</ele><time>2026-04-22T13:53:53Z</time></trkpt><trkpt lat="42.6473543855039" lon="12.768741478255398"><ele>581.75</ele><time>2026-04-22T13:53:54Z</time></trkpt><trkpt lat="42.64734159537948" lon="12.768896093385068"><ele>584.0</ele><time>2026-04-22T13:53:55Z</time></trkpt><trkpt lat="42.647330981134985" lon="12.769055602856612"><ele>584.0</ele><time>2026-04-22T13:53:56Z</time></trkpt><trkpt lat="42.647260877026966" lon="12.769200181535853"><ele>584.0</ele><time>2026-04-22T13:53:57Z</time></trkpt><trkpt lat="42.647198650228745" lon="12.769361424641904"><ele>584.0</ele><time>2026-04-22T13:53:58Z</time></trkpt><trkpt lat="42.64713576384932" lon="12.769531341170884"><ele>584.0</ele><time>2026-04-22T13:53:59Z</time></trkpt><trkpt lat="42.64707525923638" lon="12.76970426251371"><ele>583.0</ele><time>2026-04-22T13:54:00Z</time></trkpt><trkpt lat="42.64701858541097" lon="12.769867516237074"><ele>582.0</ele><time>2026-04-22T13:54:01Z</time></trkpt><trkpt lat="42.646972354510446" lon="12.770006703809138"><ele>581.0</ele><time>2026-04-22T13:54:02Z</time></trkpt><trkpt lat="42.64694178465475" lon="12.770134725723727"><ele>580.0</ele><time>2026-04-22T13:54:03Z</time></trkpt><trkpt lat="42.64694007109414" lon="12.77025495659979"><ele>579.0</ele><time>2026-04-22T13:54:04Z</time></trkpt><trkpt lat="42.64697947656131" lon="12.770371667863396"><ele>579.0</ele><time>2026-04-22T13:54:05Z</time></trkpt><trkpt lat="42.6470347253122" lon="12.770510134854433"><ele>579.0</ele><time>2026-04-22T13:54:06Z</time></trkpt><trkpt lat="42.64709242003487" lon="12.770647896662274"><ele>579.0</ele><time>2026-04-22T13:54:07Z</time></trkpt><trkpt lat="42.64714808219898" lon="12.77078080512574"><ele>579.0</ele><time>2026-04-22T13:54:08Z</time></trkpt><trkpt lat="42.64720279738458" lon="12.770898218461909"><ele>579.0</ele><time>2026-04-22T13:54:09Z</time></trkpt><trkpt lat="42.64726004480039" lon="12.770990228949072"><ele>575.3333333333334</ele><time>2026-04-22T13:54:10Z</time></trkpt><trkpt lat="42.64731850186452" lon="12.771047974060293"><ele>571.6666666666666</ele><time>2026-04-22T13:54:11Z</time></trkpt><trkpt lat="42.64738319493214" lon="12.771146452264432"><ele>568.0</ele><time>2026-04-22T13:54:13Z</time></trkpt><trkpt lat="42.6474263968746" lon="12.771213612872556"><ele>564.3333333333333</ele><time>2026-04-22T13:54:17Z</time></trkpt><trkpt lat="42.64748196818285" lon="12.771260853879053"><ele>560.6666666666666</ele><time>2026-04-22T13:55:06Z</time></trkpt><trkpt lat="42.647554548390595" lon="12.771385234891744"><ele>557.0</ele><time>2026-04-22T13:55:08Z</time></trkpt><trkpt lat="42.64758771365165" lon="12.771551292756214"><ele>557.0</ele><time>2026-04-22T13:55:10Z</time></trkpt><trkpt lat="42.64760498978855" lon="12.77163692607515"><ele>557.0</ele><time>2026-04-22T13:55:11Z</time></trkpt><trkpt lat="42.647561464581024" lon="12.771724269150376"><ele>557.0</ele><time>2026-04-22T13:55:12Z</time></trkpt><trkpt lat="42.64751830111114" lon="12.771795954594753"><ele>557.0</ele><time>2026-04-22T13:55:13Z</time></trkpt><trkpt lat="42.64741608670404" lon="12.7718341025102"><ele>557.0</ele><time>2026-04-22T13:55:15Z</time></trkpt><trkpt lat="42.647270755602676" lon="12.771867702831114"><ele>558.4</ele><time>2026-04-22T13:55:17Z</time></trkpt><trkpt lat="42.64716630739796" lon="12.771884630039029"><ele>559.8000000000001</ele><time>2026-04-22T13:55:18Z</time></trkpt><trkpt lat="42.64705495026082" lon="12.771910154619517"><ele>561.2</ele><time>2026-04-22T13:55:19Z</time></trkpt><trkpt lat="42.64695078303987" lon="12.771934102453493"><ele>562.6</ele><time>2026-04-22T13:55:20Z</time></trkpt><trkpt lat="42.64685849505697" lon="12.771965250078313"><ele>564.0</ele><time>2026-04-22T13:55:21Z</time></trkpt><trkpt lat="42.646777364981624" lon="12.7720308956739"><ele>564.0</ele><time>2026-04-22T13:55:22Z</time></trkpt><trkpt lat="42.646702388464924" lon="12.772116637422773"><ele>564.0</ele><time>2026-04-22T13:55:23Z</time></trkpt><trkpt lat="42.64658858810025" lon="12.772321585590664"><ele>564.0</ele><time>2026-04-22T13:55:25Z</time></trkpt><trkpt lat="42.646547354504406" lon="12.772432347496094"><ele>564.0</ele><time>2026-04-22T13:55:26Z</time></trkpt><trkpt lat="42.646514962035745" lon="12.772544421807341"><ele>564.0</ele><time>2026-04-22T13:55:27Z</time></trkpt><trkpt lat="42.64649021083226" lon="12.772656723615002"><ele>564.0</ele><time>2026-04-22T13:55:28Z</time></trkpt><trkpt lat="42.646463529281725" lon="12.772772641422456"><ele>564.0</ele><time>2026-04-22T13:55:29Z</time></trkpt><trkpt lat="42.64643406945119" lon="12.772890617250782"><ele>564.0</ele><time>2026-04-22T13:55:30Z</time></trkpt><trkpt lat="42.64641041758957" lon="12.77301293792255"><ele>564.0</ele><time>2026-04-22T13:55:31Z</time></trkpt><trkpt lat="42.64639868063488" lon="12.773130612286062"><ele>564.0</ele><time>2026-04-22T13:55:32Z</time></trkpt><trkpt lat="42.64638206821684" lon="12.773248420884467"><ele>567.6</ele><time>2026-04-22T13:55:33Z</time></trkpt><trkpt lat="42.646363181279476" lon="12.773378406849726"><ele>571.2</ele><time>2026-04-22T13:55:34Z</time></trkpt><trkpt lat="42.64631529325708" lon="12.773485219699365"><ele>574.8000000000001</ele><time>2026-04-22T13:55:35Z</time></trkpt><trkpt lat="42.64628045942259" lon="12.773604157165417"><ele>578.4</ele><time>2026-04-22T13:55:36Z</time></trkpt><trkpt lat="42.64633118199859" lon="12.773780164254006"><ele>582.0</ele><time>2026-04-22T13:55:37Z</time></trkpt><trkpt lat="42.64630594939507" lon="12.773928355344784"><ele>582.75</ele><time>2026-04-22T13:55:38Z</time></trkpt><trkpt lat="42.6463180067467" lon="12.774082668903013"><ele>583.5</ele><time>2026-04-22T13:55:39Z</time></trkpt><trkpt lat="42.646295480923726" lon="12.774233919496972"><ele>584.25</ele><time>2026-04-22T13:55:40Z</time></trkpt><trkpt lat="42.64629112427929" lon="12.774404849689743"><ele>585.0</ele><time>2026-04-22T13:55:41Z</time></trkpt><trkpt lat="42.646320763035845" lon="12.77458413732315"><ele>587.0</ele><time>2026-04-22T13:55:42Z</time></trkpt><trkpt lat="42.64635069803101" lon="12.774789936732704"><ele>589.0</ele><time>2026-04-22T13:55:43Z</time></trkpt><trkpt lat="42.64635049003123" lon="12.775009623671307"><ele>591.0</ele><time>2026-04-22T13:55:44Z</time></trkpt><trkpt lat="42.64634787764636" lon="12.775236990764403"><ele>594.6666666666666</ele><time>2026-04-22T13:55:45Z</time></trkpt><trkpt lat="42.64635038071603" lon="12.775452830591322"><ele>598.3333333333333</ele><time>2026-04-22T13:55:46Z</time></trkpt><trkpt lat="42.64636240654999" lon="12.775676163297558"><ele>602.0</ele><time>2026-04-22T13:55:47Z</time></trkpt><trkpt lat="42.64639724366665" lon="12.775899362129747"><ele>603.6666666666666</ele><time>2026-04-22T13:55:48Z</time></trkpt><trkpt lat="42.64636631441206" lon="12.77612343481777"><ele>605.3333333333334</ele><time>2026-04-22T13:55:49Z</time></trkpt><trkpt lat="42.64635202235716" lon="12.776345584229338"><ele>607.0</ele><time>2026-04-22T13:55:50Z</time></trkpt><trkpt lat="42.64636385960798" lon="12.776590016566095"><ele>607.0</ele><time>2026-04-22T13:55:51Z</time></trkpt><trkpt lat="42.64638442571905" lon="12.776810060384161"><ele>607.0</ele><time>2026-04-22T13:55:52Z</time></trkpt><trkpt lat="42.64642955235332" lon="12.777029887285545"><ele>607.0</ele><time>2026-04-22T13:55:53Z</time></trkpt><trkpt lat="42.64649125939841" lon="12.777245053729755"><ele>607.0</ele><time>2026-04-22T13:55:54Z</time></trkpt><trkpt lat="42.6465357443629" lon="12.77747305325899"><ele>607.0</ele><time>2026-04-22T13:55:55Z</time></trkpt><trkpt lat="42.646584010694504" lon="12.777692249311821"><ele>607.0</ele><time>2026-04-22T13:55:56Z</time></trkpt><trkpt lat="42.64659011027501" lon="12.777928594409499"><ele>606.6666666666667</ele><time>2026-04-22T13:55:57Z</time></trkpt><trkpt lat="42.64659166007639" lon="12.778168347930936"><ele>606.3333333333334</ele><time>2026-04-22T13:55:58Z</time></trkpt><trkpt lat="42.64659682039922" lon="12.778400009579949"><ele>606.0</ele><time>2026-04-22T13:55:59Z</time></trkpt><trkpt lat="42.646632835603754" lon="12.77862815271282"><ele>606.6666666666666</ele><time>2026-04-22T13:56:00Z</time></trkpt><trkpt lat="42.646676405279656" lon="12.778856588533142"><ele>607.3333333333333</ele><time>2026-04-22T13:56:01Z</time></trkpt><trkpt lat="42.64673258366819" lon="12.77909271454389"><ele>608.0</ele><time>2026-04-22T13:56:02Z</time></trkpt><trkpt lat="42.646793115005494" lon="12.779320406005748"><ele>607.75</ele><time>2026-04-22T13:56:03Z</time></trkpt><trkpt lat="42.646820065903135" lon="12.779546424860174"><ele>607.5</ele><time>2026-04-22T13:56:04Z</time></trkpt><trkpt lat="42.64684659912309" lon="12.77974078038807"><ele>607.25</ele><time>2026-04-22T13:56:05Z</time></trkpt><trkpt lat="42.64687859342529" lon="12.779897547787229"><ele>607.0</ele><time>2026-04-22T13:56:06Z</time></trkpt><trkpt lat="42.64690743726315" lon="12.780026325272578"><ele>607.0</ele><time>2026-04-22T13:56:07Z</time></trkpt><trkpt lat="42.64694573205406" lon="12.78010456924009"><ele>607.0</ele><time>2026-04-22T13:56:08Z</time></trkpt><trkpt lat="42.64700480102569" lon="12.780139009916695"><ele>607.0</ele><time>2026-04-22T13:56:09Z</time></trkpt><trkpt lat="42.647114401249496" lon="12.780067465888456"><ele>607.0</ele><time>2026-04-22T13:56:11Z</time></trkpt><trkpt lat="42.64712560447015" lon="12.779980337280751"><ele>607.0</ele><time>2026-04-22T13:56:12Z</time></trkpt><trkpt lat="42.64710955877039" lon="12.779877737921902"><ele>607.0</ele><time>2026-04-22T13:56:13Z</time></trkpt><trkpt lat="42.64709135202277" lon="12.779750554688704"><ele>615.0</ele><time>2026-04-22T13:56:14Z</time></trkpt><trkpt lat="42.647092856244434" lon="12.779600621569726"><ele>623.0</ele><time>2026-04-22T13:56:15Z</time></trkpt><trkpt lat="42.64712609113743" lon="12.779435145088264"><ele>631.0</ele><time>2026-04-22T13:56:16Z</time></trkpt><trkpt lat="42.647169027376485" lon="12.779274813377963"><ele>639.0</ele><time>2026-04-22T13:56:17Z</time></trkpt><trkpt lat="42.64720618695292" lon="12.77910883136521"><ele>640.75</ele><time>2026-04-22T13:56:18Z</time></trkpt><trkpt lat="42.64723666393666" lon="12.778928525855425"><ele>642.5</ele><time>2026-04-22T13:56:19Z</time></trkpt><trkpt lat="42.64726528460472" lon="12.778735221746949"><ele>644.25</ele><time>2026-04-22T13:56:20Z</time></trkpt><trkpt lat="42.64729692908893" lon="12.778537969696304"><ele>646.0</ele><time>2026-04-22T13:56:21Z</time></trkpt><trkpt lat="42.64733119758085" lon="12.778341868455067"><ele>646.25</ele><time>2026-04-22T13:56:22Z</time></trkpt><trkpt lat="42.64737298602395" lon="12.778153173682922"><ele>646.5</ele><time>2026-04-22T13:56:23Z</time></trkpt><trkpt lat="42.64743262758415" lon="12.777974003465479"><ele>646.75</ele><time>2026-04-22T13:56:24Z</time></trkpt><trkpt lat="42.647509075820246" lon="12.777811685851445"><ele>647.0</ele><time>2026-04-22T13:56:25Z</time></trkpt><trkpt lat="42.64758783657856" lon="12.777681436729397"><ele>647.0</ele><time>2026-04-22T13:56:26Z</time></trkpt><trkpt lat="42.64765008062283" lon="12.777606841274041"><ele>647.0</ele><time>2026-04-22T13:56:27Z</time></trkpt><trkpt lat="42.64770973823022" lon="12.777566960681487"><ele>647.0</ele><time>2026-04-22T13:56:28Z</time></trkpt><trkpt lat="42.64782110138698" lon="12.777599812218236"><ele>647.0</ele><time>2026-04-22T13:56:30Z</time></trkpt><trkpt lat="42.64785333347341" lon="12.777771560562922"><ele>647.0</ele><time>2026-04-22T13:56:32Z</time></trkpt><trkpt lat="42.647789486705975" lon="12.777862598485461"><ele>647.25</ele><time>2026-04-22T13:56:33Z</time></trkpt><trkpt lat="42.64774734523795" lon="12.778002156157637"><ele>647.5</ele><time>2026-04-22T13:56:34Z</time></trkpt><trkpt lat="42.64772208238632" lon="12.778168268693472"><ele>647.75</ele><time>2026-04-22T13:56:35Z</time></trkpt><trkpt lat="42.64771345156479" lon="12.778324879023568"><ele>648.0</ele><time>2026-04-22T13:56:36Z</time></trkpt><trkpt lat="42.647733317817305" lon="12.778488876519104"><ele>647.5</ele><time>2026-04-22T13:56:37Z</time></trkpt><trkpt lat="42.64777984906525" lon="12.778649538479248"><ele>647.0</ele><time>2026-04-22T13:56:38Z</time></trkpt><trkpt lat="42.64784674796959" lon="12.778805361635612"><ele>646.5</ele><time>2026-04-22T13:56:39Z</time></trkpt><trkpt lat="42.647934383476596" lon="12.778964538589511"><ele>646.0</ele><time>2026-04-22T13:56:40Z</time></trkpt><trkpt lat="42.64804236047982" lon="12.779117140788076"><ele>652.0</ele><time>2026-04-22T13:56:41Z</time></trkpt><trkpt lat="42.64816021616691" lon="12.779270953168611"><ele>658.0</ele><time>2026-04-22T13:56:42Z</time></trkpt><trkpt lat="42.648283067980884" lon="12.779425471936358"><ele>664.0</ele><time>2026-04-22T13:56:43Z</time></trkpt><trkpt lat="42.64840596960852" lon="12.779575339306835"><ele>664.0</ele><time>2026-04-22T13:56:44Z</time></trkpt><trkpt lat="42.64852251496371" lon="12.77970442493581"><ele>664.0</ele><time>2026-04-22T13:56:45Z</time></trkpt><trkpt lat="42.64864239466062" lon="12.779787415517767"><ele>664.0</ele><time>2026-04-22T13:56:46Z</time></trkpt><trkpt lat="42.64878607269423" lon="12.779843780774057"><ele>664.0</ele><time>2026-04-22T13:56:47Z</time></trkpt><trkpt lat="42.648948936963585" lon="12.779886288468878"><ele>667.6666666666667</ele><time>2026-04-22T13:56:48Z</time></trkpt><trkpt lat="42.64910622029377" lon="12.7799687086977"><ele>671.3333333333334</ele><time>2026-04-22T13:56:49Z</time></trkpt><trkpt lat="42.64925570729362" lon="12.780072497326941"><ele>675.0</ele><time>2026-04-22T13:56:50Z</time></trkpt><trkpt lat="42.64938004002484" lon="12.780193531069083"><ele>685.0</ele><time>2026-04-22T13:56:51Z</time></trkpt><trkpt lat="42.64946777851364" lon="12.780349899468964"><ele>695.0</ele><time>2026-04-22T13:56:52Z</time></trkpt><trkpt lat="42.64956637259107" lon="12.78051518921415"><ele>705.0</ele><time>2026-04-22T13:56:53Z</time></trkpt><trkpt lat="42.649686286855065" lon="12.780672323405629"><ele>705.0</ele><time>2026-04-22T13:56:54Z</time></trkpt><trkpt lat="42.64982967307846" lon="12.780807985910746"><ele>705.0</ele><time>2026-04-22T13:56:55Z</time></trkpt><trkpt lat="42.64996776546792" lon="12.780957443255124"><ele>705.0</ele><time>2026-04-22T13:56:56Z</time></trkpt><trkpt lat="42.65009026956204" lon="12.781114227915323"><ele>707.0</ele><time>2026-04-22T13:56:57Z</time></trkpt><trkpt lat="42.65022624627374" lon="12.781221575357762"><ele>709.0</ele><time>2026-04-22T13:56:58Z</time></trkpt><trkpt lat="42.650357112706125" lon="12.781320048659673"><ele>711.0</ele><time>2026-04-22T13:56:59Z</time></trkpt><trkpt lat="42.650505019138905" lon="12.781372180850152"><ele>711.0</ele><time>2026-04-22T13:57:00Z</time></trkpt><trkpt lat="42.65067085644339" lon="12.781417558696896"><ele>711.0</ele><time>2026-04-22T13:57:01Z</time></trkpt><trkpt lat="42.65084109205708" lon="12.781459203214855"><ele>711.0</ele><time>2026-04-22T13:57:02Z</time></trkpt><trkpt lat="42.65100552436293" lon="12.781540770308016"><ele>718.3333333333334</ele><time>2026-04-22T13:57:03Z</time></trkpt><trkpt lat="42.6511759804345" lon="12.781626902069"><ele>725.6666666666667</ele><time>2026-04-22T13:57:04Z</time></trkpt><trkpt lat="42.651358551495846" lon="12.781707490136252"><ele>733.0</ele><time>2026-04-22T13:57:05Z</time></trkpt><trkpt lat="42.651522312847376" lon="12.78180431579323"><ele>725.3333333333334</ele><time>2026-04-22T13:57:06Z</time></trkpt><trkpt lat="42.65167293836996" lon="12.781892378202043"><ele>717.6666666666666</ele><time>2026-04-22T13:57:07Z</time></trkpt><trkpt lat="42.65181958204341" lon="12.781970596507236"><ele>710.0</ele><time>2026-04-22T13:57:08Z</time></trkpt><trkpt lat="42.65195526270958" lon="12.78202037494319"><ele>712.0</ele><time>2026-04-22T13:57:09Z</time></trkpt><trkpt lat="42.652080046563285" lon="12.782049815010726"><ele>714.0</ele><time>2026-04-22T13:57:10Z</time></trkpt><trkpt lat="42.65220232356986" lon="12.782042631172818"><ele>716.0</ele><time>2026-04-22T13:57:11Z</time></trkpt><trkpt lat="42.6523301806606" lon="12.78200662078737"><ele>718.0</ele><time>2026-04-22T13:57:12Z</time></trkpt><trkpt lat="42.65246778289232" lon="12.781945432168628"><ele>718.0</ele><time>2026-04-22T13:57:13Z</time></trkpt><trkpt lat="42.65261791431878" lon="12.781879022481641"><ele>718.0</ele><time>2026-04-22T13:57:14Z</time></trkpt><trkpt lat="42.652780195020114" lon="12.781847064100619"><ele>718.0</ele><time>2026-04-22T13:57:15Z</time></trkpt><trkpt lat="42.65294066180765" lon="12.781826434741385"><ele>720.0</ele><time>2026-04-22T13:57:16Z</time></trkpt><trkpt lat="42.65311546248336" lon="12.781826580242601"><ele>722.0</ele><time>2026-04-22T13:57:17Z</time></trkpt><trkpt lat="42.65329418612189" lon="12.781838959339469"><ele>724.0</ele><time>2026-04-22T13:57:18Z</time></trkpt><trkpt lat="42.653472188747884" lon="12.781859280807726"><ele>730.6666666666667</ele><time>2026-04-22T13:57:19Z</time></trkpt><trkpt lat="42.65366198264602" lon="12.781887408256223"><ele>737.3333333333334</ele><time>2026-04-22T13:57:20Z</time></trkpt><trkpt lat="42.653847664020326" lon="12.781916895529132"><ele>744.0</ele><time>2026-04-22T13:57:21Z</time></trkpt><trkpt lat="42.6540400933145" lon="12.781932919972524"><ele>744.0</ele><time>2026-04-22T13:57:22Z</time></trkpt><trkpt lat="42.65422393535369" lon="12.781978335817703"><ele>744.0</ele><time>2026-04-22T13:57:23Z</time></trkpt><trkpt lat="42.65439883401809" lon="12.78205688166209"><ele>744.0</ele><time>2026-04-22T13:57:24Z</time></trkpt><trkpt lat="42.65456281568397" lon="12.78214797666974"><ele>749.3333333333334</ele><time>2026-04-22T13:57:25Z</time></trkpt><trkpt lat="42.65473371866339" lon="12.782239348153599"><ele>754.6666666666667</ele><time>2026-04-22T13:57:26Z</time></trkpt><trkpt lat="42.65490127257548" lon="12.782328929250374"><ele>760.0</ele><time>2026-04-22T13:57:27Z</time></trkpt><trkpt lat="42.65508301006339" lon="12.782402733717785"><ele>760.0</ele><time>2026-04-22T13:57:28Z</time></trkpt><trkpt lat="42.655252740889196" lon="12.782488533598473"><ele>760.0</ele><time>2026-04-22T13:57:29Z</time></trkpt><trkpt lat="42.655404766204065" lon="12.782563442094935"><ele>760.0</ele><time>2026-04-22T13:57:30Z</time></trkpt><trkpt lat="42.65553787293673" lon="12.782622056357184"><ele>761.75</ele><time>2026-04-22T13:57:31Z</time></trkpt><trkpt lat="42.655655914021" lon="12.782643830123465"><ele>763.5</ele><time>2026-04-22T13:57:32Z</time></trkpt><trkpt lat="42.65576808583786" lon="12.782654086406529"><ele>765.25</ele><time>2026-04-22T13:57:33Z</time></trkpt><trkpt lat="42.65588324554431" lon="12.782628867738598"><ele>767.0</ele><time>2026-04-22T13:57:34Z</time></trkpt><trkpt lat="42.65600782129545" lon="12.782574716925842"><ele>765.5</ele><time>2026-04-22T13:57:35Z</time></trkpt><trkpt lat="42.656137219248926" lon="12.782501846796185"><ele>764.0</ele><time>2026-04-22T13:57:36Z</time></trkpt><trkpt lat="42.656259099176154" lon="12.78240371370834"><ele>762.5</ele><time>2026-04-22T13:57:37Z</time></trkpt><trkpt lat="42.65639475826789" lon="12.78232796063255"><ele>761.0</ele><time>2026-04-22T13:57:38Z</time></trkpt><trkpt lat="42.656537295433914" lon="12.782267329530029"><ele>761.0</ele><time>2026-04-22T13:57:39Z</time></trkpt><trkpt lat="42.656664840193386" lon="12.782191653845809"><ele>761.0</ele><time>2026-04-22T13:57:40Z</time></trkpt><trkpt lat="42.656795043152144" lon="12.782169258359996"><ele>761.0</ele><time>2026-04-22T13:57:41Z</time></trkpt><trkpt lat="42.65691453774391" lon="12.78221855896654"><ele>761.0</ele><time>2026-04-22T13:57:42Z</time></trkpt><trkpt lat="42.6570293553158" lon="12.782297178422127"><ele>758.75</ele><time>2026-04-22T13:57:43Z</time></trkpt><trkpt lat="42.65714528712471" lon="12.782399335168998"><ele>756.5</ele><time>2026-04-22T13:57:44Z</time></trkpt><trkpt lat="42.65726563089275" lon="12.782516334667406"><ele>754.25</ele><time>2026-04-22T13:57:45Z</time></trkpt><trkpt lat="42.65738453902498" lon="12.782648663344887"><ele>752.0</ele><time>2026-04-22T13:57:46Z</time></trkpt><trkpt lat="42.65749332225361" lon="12.78280073914233"><ele>752.0</ele><time>2026-04-22T13:57:47Z</time></trkpt><trkpt lat="42.657578906445295" lon="12.782954123417907"><ele>752.0</ele><time>2026-04-22T13:57:48Z</time></trkpt><trkpt lat="42.657647071684195" lon="12.783106828287247"><ele>752.0</ele><time>2026-04-22T13:57:49Z</time></trkpt><trkpt lat="42.65770749216624" lon="12.783259456968635"><ele>752.0</ele><time>2026-04-22T13:57:50Z</time></trkpt><trkpt lat="42.65777166826351" lon="12.78339682389922"><ele>753.0</ele><time>2026-04-22T13:57:51Z</time></trkpt><trkpt lat="42.6578501427007" lon="12.783505974489964"><ele>754.0</ele><time>2026-04-22T13:57:52Z</time></trkpt><trkpt lat="42.65793088673073" lon="12.783623896537884"><ele>755.0</ele><time>2026-04-22T13:57:53Z</time></trkpt><trkpt lat="42.65802953860302" lon="12.783723502060838"><ele>756.0</ele><time>2026-04-22T13:57:54Z</time></trkpt><trkpt lat="42.658138045608425" lon="12.783798705501773"><ele>756.0</ele><time>2026-04-22T13:57:55Z</time></trkpt><trkpt lat="42.65824632110069" lon="12.7838369014909"><ele>756.0</ele><time>2026-04-22T13:57:56Z</time></trkpt><trkpt lat="42.65835529309722" lon="12.783846165307779"><ele>756.0</ele><time>2026-04-22T13:57:57Z</time></trkpt><trkpt lat="42.65848094149562" lon="12.783819025722234"><ele>756.0</ele><time>2026-04-22T13:57:58Z</time></trkpt><trkpt lat="42.65861678154645" lon="12.78377716105883"><ele>753.5</ele><time>2026-04-22T13:57:59Z</time></trkpt><trkpt lat="42.65876673948037" lon="12.783724984312233"><ele>751.0</ele><time>2026-04-22T13:58:00Z</time></trkpt><trkpt lat="42.65890377465192" lon="12.783678166893043"><ele>748.5</ele><time>2026-04-22T13:58:01Z</time></trkpt><trkpt lat="42.659024245504284" lon="12.78362373929495"><ele>746.0</ele><time>2026-04-22T13:58:02Z</time></trkpt><trkpt lat="42.659132560571926" lon="12.78355543406122"><ele>749.4</ele><time>2026-04-22T13:58:03Z</time></trkpt><trkpt lat="42.65923074810921" lon="12.783478030504385"><ele>752.8</ele><time>2026-04-22T13:58:04Z</time></trkpt><trkpt lat="42.65931379151947" lon="12.783383108477318"><ele>756.1999999999999</ele><time>2026-04-22T13:58:05Z</time></trkpt><trkpt lat="42.65936729115289" lon="12.783277654556882"><ele>759.5999999999999</ele><time>2026-04-22T13:58:06Z</time></trkpt><trkpt lat="42.65939624861505" lon="12.783153053161618"><ele>763.0</ele><time>2026-04-22T13:58:07Z</time></trkpt><trkpt lat="42.659403757908656" lon="12.783031334498482"><ele>763.0</ele><time>2026-04-22T13:58:08Z</time></trkpt><trkpt lat="42.659422393203606" lon="12.7829113091555"><ele>763.0</ele><time>2026-04-22T13:58:09Z</time></trkpt><trkpt lat="42.65946270533524" lon="12.782776471168082"><ele>763.0</ele><time>2026-04-22T13:58:10Z</time></trkpt><trkpt lat="42.65953771028788" lon="12.782646431618472"><ele>763.0</ele><time>2026-04-22T13:58:11Z</time></trkpt><trkpt lat="42.65965204203909" lon="12.782552844750986"><ele>761.75</ele><time>2026-04-22T13:58:12Z</time></trkpt><trkpt lat="42.65977604492879" lon="12.782464483216788"><ele>760.5</ele><time>2026-04-22T13:58:13Z</time></trkpt><trkpt lat="42.65990847964452" lon="12.782426437870518"><ele>759.25</ele><time>2026-04-22T13:58:14Z</time></trkpt><trkpt lat="42.66004057773987" lon="12.782417980723178"><ele>758.0</ele><time>2026-04-22T13:58:15Z</time></trkpt><trkpt lat="42.660180738867474" lon="12.782414997707553"><ele>756.6666666666666</ele><time>2026-04-22T13:58:16Z</time></trkpt><trkpt lat="42.660331001905405" lon="12.782388966583309"><ele>755.3333333333334</ele><time>2026-04-22T13:58:17Z</time></trkpt><trkpt lat="42.660490437574154" lon="12.782390067469189"><ele>754.0</ele><time>2026-04-22T13:58:18Z</time></trkpt><trkpt lat="42.66065812085259" lon="12.782396985904562"><ele>754.0</ele><time>2026-04-22T13:58:19Z</time></trkpt><trkpt lat="42.660831341437714" lon="12.782382693778848"><ele>754.0</ele><time>2026-04-22T13:58:20Z</time></trkpt><trkpt lat="42.66100242409348" lon="12.782377502997303"><ele>754.0</ele><time>2026-04-22T13:58:21Z</time></trkpt><trkpt lat="42.661166783592684" lon="12.78237334678498"><ele>752.6666666666667</ele><time>2026-04-22T13:58:22Z</time></trkpt><trkpt lat="42.66132079659228" lon="12.782398210908124"><ele>751.3333333333334</ele><time>2026-04-22T13:58:23Z</time></trkpt><trkpt lat="42.66146616647254" lon="12.782401314726863"><ele>750.0</ele><time>2026-04-22T13:58:24Z</time></trkpt><trkpt lat="42.661620311568846" lon="12.782367948523413"><ele>750.0</ele><time>2026-04-22T13:58:25Z</time></trkpt><trkpt lat="42.66178425051015" lon="12.78228761567176"><ele>750.0</ele><time>2026-04-22T13:58:26Z</time></trkpt><trkpt lat="42.66195613453804" lon="12.782202251011533"><ele>750.0</ele><time>2026-04-22T13:58:27Z</time></trkpt><trkpt lat="42.662130022977436" lon="12.782145214169525"><ele>749.3333333333334</ele><time>2026-04-22T13:58:28Z</time></trkpt><trkpt lat="42.662298533812724" lon="12.78205765045542"><ele>748.6666666666667</ele><time>2026-04-22T13:58:29Z</time></trkpt><trkpt lat="42.662458237434244" lon="12.781994307607707"><ele>748.0</ele><time>2026-04-22T13:58:30Z</time></trkpt><trkpt lat="42.66259642038265" lon="12.781933400794163"><ele>748.0</ele><time>2026-04-22T13:58:31Z</time></trkpt><trkpt lat="42.662726665786174" lon="12.781902224081463"><ele>748.0</ele><time>2026-04-22T13:58:32Z</time></trkpt><trkpt lat="42.66284888074903" lon="12.781939004832969"><ele>748.0</ele><time>2026-04-22T13:58:33Z</time></trkpt><trkpt lat="42.66296440339259" lon="12.781998646054802"><ele>748.0</ele><time>2026-04-22T13:58:34Z</time></trkpt><trkpt lat="42.66308739690673" lon="12.782081202746573"><ele>752.75</ele><time>2026-04-22T13:58:35Z</time></trkpt><trkpt lat="42.6632117388902" lon="12.782171905316718"><ele>757.5</ele><time>2026-04-22T13:58:36Z</time></trkpt><trkpt lat="42.66334241207742" lon="12.782252666284133"><ele>762.25</ele><time>2026-04-22T13:58:37Z</time></trkpt><trkpt lat="42.66343883760197" lon="12.78237886395504"><ele>767.0</ele><time>2026-04-22T13:58:38Z</time></trkpt><trkpt lat="42.66351899923333" lon="12.782502755618559"><ele>767.0</ele><time>2026-04-22T13:58:39Z</time></trkpt><trkpt lat="42.663567439306675" lon="12.782653535977222"><ele>767.0</ele><time>2026-04-22T13:58:40Z</time></trkpt><trkpt lat="42.66360924971102" lon="12.78282818477382"><ele>767.0</ele><time>2026-04-22T13:58:41Z</time></trkpt><trkpt lat="42.66365376918494" lon="12.783004089220924"><ele>767.0</ele><time>2026-04-22T13:58:42Z</time></trkpt><trkpt lat="42.66370858546502" lon="12.783154140469245"><ele>769.2</ele><time>2026-04-22T13:58:43Z</time></trkpt><trkpt lat="42.66379167406057" lon="12.7832299381885"><ele>771.4000000000001</ele><time>2026-04-22T13:58:44Z</time></trkpt><trkpt lat="42.663877836798996" lon="12.783287170999898"><ele>773.5999999999999</ele><time>2026-04-22T13:58:45Z</time></trkpt><trkpt lat="42.6639782442674" lon="12.783306688808448"><ele>775.8</ele><time>2026-04-22T13:58:46Z</time></trkpt><trkpt lat="42.664085164847705" lon="12.783302351464284"><ele>778.0</ele><time>2026-04-22T13:58:47Z</time></trkpt><trkpt lat="42.6642046208508" lon="12.78327580790638"><ele>778.0</ele><time>2026-04-22T13:58:48Z</time></trkpt><trkpt lat="42.6643333323594" lon="12.783235650923418"><ele>778.0</ele><time>2026-04-22T13:58:49Z</time></trkpt><trkpt lat="42.66445478702671" lon="12.783251958668524"><ele>778.0</ele><time>2026-04-22T13:58:50Z</time></trkpt><trkpt lat="42.66455965009903" lon="12.783302910825387"><ele>778.0</ele><time>2026-04-22T13:58:51Z</time></trkpt><trkpt lat="42.664673833626715" lon="12.783380912835705"><ele>778.5</ele><time>2026-04-22T13:58:52Z</time></trkpt><trkpt lat="42.66479185423535" lon="12.783469148850312"><ele>779.0</ele><time>2026-04-22T13:58:53Z</time></trkpt><trkpt lat="42.664911210059415" lon="12.783537972769103"><ele>779.5</ele><time>2026-04-22T13:58:54Z</time></trkpt><trkpt lat="42.66501253349789" lon="12.783629648309486"><ele>780.0</ele><time>2026-04-22T13:58:55Z</time></trkpt><trkpt lat="42.66513575454131" lon="12.783659802858516"><ele>780.0</ele><time>2026-04-22T13:58:56Z</time></trkpt><trkpt lat="42.66526888591575" lon="12.78369583843867"><ele>780.0</ele><time>2026-04-22T13:58:57Z</time></trkpt><trkpt lat="42.665417705895756" lon="12.783700400701447"><ele>780.0</ele><time>2026-04-22T13:58:58Z</time></trkpt><trkpt lat="42.66557344738945" lon="12.783682842639397"><ele>780.0</ele><time>2026-04-22T13:58:59Z</time></trkpt><trkpt lat="42.665724997889136" lon="12.783674607050454"><ele>783.0</ele><time>2026-04-22T13:59:00Z</time></trkpt><trkpt lat="42.66585103144739" lon="12.783671669257162"><ele>786.0</ele><time>2026-04-22T13:59:01Z</time></trkpt><trkpt lat="42.66594343463274" lon="12.783696716257552"><ele>789.0</ele><time>2026-04-22T13:59:02Z</time></trkpt><trkpt lat="42.66601003429097" lon="12.783753832190763"><ele>792.0</ele><time>2026-04-22T13:59:03Z</time></trkpt><trkpt lat="42.666055541671525" lon="12.783868933207792"><ele>795.0</ele><time>2026-04-22T13:59:04Z</time></trkpt><trkpt lat="42.66612180003873" lon="12.784020396782273"><ele>797.0</ele><time>2026-04-22T13:59:05Z</time></trkpt><trkpt lat="42.666203585761984" lon="12.784168732090334"><ele>799.0</ele><time>2026-04-22T13:59:06Z</time></trkpt><trkpt lat="42.6663070948561" lon="12.784293115947248"><ele>801.0</ele><time>2026-04-22T13:59:07Z</time></trkpt><trkpt lat="42.66641979865678" lon="12.784392143989518"><ele>803.0</ele><time>2026-04-22T13:59:08Z</time></trkpt><trkpt lat="42.66654072366276" lon="12.784452640980994"><ele>803.0</ele><time>2026-04-22T13:59:09Z</time></trkpt><trkpt lat="42.666681130928694" lon="12.784497223123603"><ele>803.0</ele><time>2026-04-22T13:59:10Z</time></trkpt><trkpt lat="42.66684019754522" lon="12.784533088416328"><ele>803.0</ele><time>2026-04-22T13:59:11Z</time></trkpt><trkpt lat="42.66699674065231" lon="12.784560658567463"><ele>807.0</ele><time>2026-04-22T13:59:12Z</time></trkpt><trkpt lat="42.6671645782472" lon="12.78456602504798"><ele>811.0</ele><time>2026-04-22T13:59:13Z</time></trkpt><trkpt lat="42.66734270941436" lon="12.784563508839373"><ele>815.0</ele><time>2026-04-22T13:59:14Z</time></trkpt><trkpt lat="42.667525551916356" lon="12.784561758137436"><ele>815.0</ele><time>2026-04-22T13:59:15Z</time></trkpt><trkpt lat="42.66770874763202" lon="12.78455728831463"><ele>815.0</ele><time>2026-04-22T13:59:16Z</time></trkpt><trkpt lat="42.667894589649045" lon="12.784547605291264"><ele>815.0</ele><time>2026-04-22T13:59:17Z</time></trkpt><trkpt lat="42.66806904728299" lon="12.7845254296548"><ele>817.3333333333334</ele><time>2026-04-22T13:59:18Z</time></trkpt><trkpt lat="42.6682486115662" lon="12.784510302334498"><ele>819.6666666666667</ele><time>2026-04-22T13:59:19Z</time></trkpt><trkpt lat="42.66842732050078" lon="12.784505482044894"><ele>822.0</ele><time>2026-04-22T13:59:20Z</time></trkpt><trkpt lat="42.66860086851896" lon="12.784507231316415"><ele>824.6666666666667</ele><time>2026-04-22T13:59:21Z</time></trkpt><trkpt lat="42.668781814896946" lon="12.784519677490556"><ele>827.3333333333334</ele><time>2026-04-22T13:59:22Z</time></trkpt><trkpt lat="42.66893848438481" lon="12.784532459912471"><ele>830.0</ele><time>2026-04-22T13:59:23Z</time></trkpt><trkpt lat="42.66908500630276" lon="12.784554118800553"><ele>830.0</ele><time>2026-04-22T13:59:24Z</time></trkpt><trkpt lat="42.66921597394186" lon="12.784610198953745"><ele>830.0</ele><time>2026-04-22T13:59:25Z</time></trkpt><trkpt lat="42.66934032750085" lon="12.784644625870536"><ele>830.0</ele><time>2026-04-22T13:59:26Z</time></trkpt><trkpt lat="42.66945159853202" lon="12.784654806394025"><ele>830.0</ele><time>2026-04-22T13:59:27Z</time></trkpt><trkpt lat="42.669544898958925" lon="12.784682821473421"><ele>827.6</ele><time>2026-04-22T13:59:28Z</time></trkpt><trkpt lat="42.66963068225408" lon="12.784691258086676"><ele>825.2</ele><time>2026-04-22T13:59:29Z</time></trkpt><trkpt lat="42.66970707598511" lon="12.784674322456027"><ele>822.8</ele><time>2026-04-22T13:59:30Z</time></trkpt><trkpt lat="42.669791534417975" lon="12.784652827613792"><ele>820.4</ele><time>2026-04-22T13:59:31Z</time></trkpt><trkpt lat="42.669892894786805" lon="12.784584428866065"><ele>818.0</ele><time>2026-04-22T13:59:33Z</time></trkpt><trkpt lat="42.6699587393368" lon="12.784497929237157"><ele>819.4</ele><time>2026-04-22T13:59:35Z</time></trkpt><trkpt lat="42.66994539016664" lon="12.784339628169047"><ele>820.8</ele><time>2026-04-22T13:59:37Z</time></trkpt><trkpt lat="42.66995521512315" lon="12.784213316170373"><ele>822.2</ele><time>2026-04-22T13:59:38Z</time></trkpt><trkpt lat="42.66993448659141" lon="12.78409258625598"><ele>823.6</ele><time>2026-04-22T13:59:39Z</time></trkpt><trkpt lat="42.6699316596805" lon="12.783983573584475"><ele>825.0</ele><time>2026-04-22T13:59:40Z</time></trkpt><trkpt lat="42.669904649075036" lon="12.783885210429471"><ele>825.0</ele><time>2026-04-22T13:59:41Z</time></trkpt><trkpt lat="42.66986174704954" lon="12.783811163655761"><ele>825.0</ele><time>2026-04-22T13:59:42Z</time></trkpt><trkpt lat="42.66981065353425" lon="12.783759012826975"><ele>825.0</ele><time>2026-04-22T13:59:43Z</time></trkpt><trkpt lat="42.669774108029564" lon="12.78361525847131"><ele>825.0</ele><time>2026-04-22T13:59:45Z</time></trkpt><trkpt lat="42.669835327666576" lon="12.783558888883466"><ele>825.0</ele><time>2026-04-22T13:59:46Z</time></trkpt><trkpt lat="42.669894120265305" lon="12.783507220236265"><ele>825.0</ele><time>2026-04-22T13:59:47Z</time></trkpt><trkpt lat="42.66995093819008" lon="12.78341336917947"><ele>825.6666666666666</ele><time>2026-04-22T13:59:48Z</time></trkpt><trkpt lat="42.67002809241702" lon="12.783341162344186"><ele>826.3333333333333</ele><time>2026-04-22T13:59:49Z</time></trkpt><trkpt lat="42.670098535776" lon="12.783308878224194"><ele>827.0</ele><time>2026-04-22T13:59:50Z</time></trkpt><trkpt lat="42.670167676832044" lon="12.783296015241685"><ele>827.6666666666666</ele><time>2026-04-22T13:59:51Z</time></trkpt><trkpt lat="42.670237437996875" lon="12.783335707702932"><ele>828.3333333333333</ele><time>2026-04-22T13:59:52Z</time></trkpt><trkpt lat="42.67032104329171" lon="12.783384401556836"><ele>829.0</ele><time>2026-04-22T13:59:53Z</time></trkpt><trkpt lat="42.670431989430504" lon="12.783387022981463"><ele>826.75</ele><time>2026-04-22T13:59:54Z</time></trkpt><trkpt lat="42.670530723732604" lon="12.783389215040016"><ele>824.5</ele><time>2026-04-22T13:59:55Z</time></trkpt><trkpt lat="42.67064819650089" lon="12.783381930753354"><ele>822.25</ele><time>2026-04-22T13:59:56Z</time></trkpt><trkpt lat="42.67076546502529" lon="12.783413999972158"><ele>820.0</ele><time>2026-04-22T13:59:57Z</time></trkpt><trkpt lat="42.670879220178634" lon="12.783428999075756"><ele>820.0</ele><time>2026-04-22T13:59:58Z</time></trkpt><trkpt lat="42.67098368969841" lon="12.783418413739273"><ele>820.0</ele><time>2026-04-22T13:59:59Z</time></trkpt><trkpt lat="42.671078980714434" lon="12.783418018319153"><ele>820.0</ele><time>2026-04-22T14:00:00Z</time></trkpt><trkpt lat="42.6711787061737" lon="12.783409871808217"><ele>820.0</ele><time>2026-04-22T14:00:01Z</time></trkpt><trkpt lat="42.671268025700904" lon="12.783385904445351"><ele>820.0</ele><time>2026-04-22T14:00:02Z</time></trkpt><trkpt lat="42.67135489859078" lon="12.783348011261172"><ele>816.8</ele><time>2026-04-22T14:00:03Z</time></trkpt><trkpt lat="42.671443634147806" lon="12.783299234058905"><ele>813.6</ele><time>2026-04-22T14:00:04Z</time></trkpt><trkpt lat="42.671535628660315" lon="12.783279603835856"><ele>810.4000000000001</ele><time>2026-04-22T14:00:05Z</time></trkpt><trkpt lat="42.67162346263226" lon="12.783240122402194"><ele>807.2</ele><time>2026-04-22T14:00:06Z</time></trkpt><trkpt lat="42.67171007804791" lon="12.783212652912807"><ele>804.0</ele><time>2026-04-22T14:00:07Z</time></trkpt><trkpt lat="42.67180438261837" lon="12.783199526258496"><ele>804.0</ele><time>2026-04-22T14:00:08Z</time></trkpt><trkpt lat="42.67189354193963" lon="12.783198164312022"><ele>804.0</ele><time>2026-04-22T14:00:09Z</time></trkpt><trkpt lat="42.671994232383426" lon="12.783205159883407"><ele>804.0</ele><time>2026-04-22T14:00:10Z</time></trkpt><trkpt lat="42.672088313942076" lon="12.783218460915679"><ele>804.0</ele><time>2026-04-22T14:00:11Z</time></trkpt><trkpt lat="42.67219218018505" lon="12.783235045683833"><ele>804.0</ele><time>2026-04-22T14:00:12Z</time></trkpt><trkpt lat="42.67228995931165" lon="12.783250570929944"><ele>804.0</ele><time>2026-04-22T14:00:13Z</time></trkpt><trkpt lat="42.672382890725686" lon="12.783266221944686"><ele>804.0</ele><time>2026-04-22T14:00:14Z</time></trkpt><trkpt lat="42.672480991703374" lon="12.783285825015149"><ele>804.0</ele><time>2026-04-22T14:00:15Z</time></trkpt><trkpt lat="42.67258445708225" lon="12.783311657201686"><ele>804.0</ele><time>2026-04-22T14:00:16Z</time></trkpt><trkpt lat="42.67269620346148" lon="12.783344011023674"><ele>804.0</ele><time>2026-04-22T14:00:17Z</time></trkpt><trkpt lat="42.672801279391635" lon="12.783379480754737"><ele>804.0</ele><time>2026-04-22T14:00:18Z</time></trkpt><trkpt lat="42.67291148791373" lon="12.783422915797448"><ele>804.0</ele><time>2026-04-22T14:00:19Z</time></trkpt><trkpt lat="42.6730190076998" lon="12.783475404252455"><ele>804.0</ele><time>2026-04-22T14:00:20Z</time></trkpt><trkpt lat="42.67312347977194" lon="12.783548508713757"><ele>804.0</ele><time>2026-04-22T14:00:21Z</time></trkpt><trkpt lat="42.67321872123898" lon="12.783628115144035"><ele>799.2</ele><time>2026-04-22T14:00:22Z</time></trkpt><trkpt lat="42.67330673444694" lon="12.783717723737585"><ele>794.4000000000001</ele><time>2026-04-22T14:00:23Z</time></trkpt><trkpt lat="42.67339442166218" lon="12.783801646816272"><ele>789.6</ele><time>2026-04-22T14:00:24Z</time></trkpt><trkpt lat="42.673485888958155" lon="12.783872018391628"><ele>784.8</ele><time>2026-04-22T14:00:25Z</time></trkpt><trkpt lat="42.67358096903109" lon="12.783904339723888"><ele>780.0</ele><time>2026-04-22T14:00:26Z</time></trkpt><trkpt lat="42.67366403959517" lon="12.783930420690202"><ele>779.3333333333334</ele><time>2026-04-22T14:00:27Z</time></trkpt><trkpt lat="42.673753853864795" lon="12.78391422060671"><ele>778.6666666666667</ele><time>2026-04-22T14:00:28Z</time></trkpt><trkpt lat="42.67383762819694" lon="12.783894462244335"><ele>778.0</ele><time>2026-04-22T14:00:29Z</time></trkpt><trkpt lat="42.67392046818069" lon="12.783899831551437"><ele>777.3333333333334</ele><time>2026-04-22T14:00:30Z</time></trkpt><trkpt lat="42.674032108690966" lon="12.783910144371124"><ele>776.6666666666667</ele><time>2026-04-22T14:00:32Z</time></trkpt><trkpt lat="42.674078470801916" lon="12.783978958918768"><ele>776.0</ele><time>2026-04-22T14:00:34Z</time></trkpt><trkpt lat="42.674024762499215" lon="12.784027598790198"><ele>776.0</ele><time>2026-04-22T14:00:35Z</time></trkpt><trkpt lat="42.67391797733299" lon="12.78406454715237"><ele>776.0</ele><time>2026-04-22T14:00:37Z</time></trkpt><trkpt lat="42.673835595548155" lon="12.784117976451258"><ele>776.0</ele><time>2026-04-22T14:00:38Z</time></trkpt><trkpt lat="42.67374325077731" lon="12.784194412773893"><ele>776.0</ele><time>2026-04-22T14:00:39Z</time></trkpt><trkpt lat="42.6736555399936" lon="12.78429842484157"><ele>776.0</ele><time>2026-04-22T14:00:40Z</time></trkpt><trkpt lat="42.67357216727129" lon="12.784399180032691"><ele>772.8</ele><time>2026-04-22T14:00:41Z</time></trkpt><trkpt lat="42.67348823727873" lon="12.784500608645228"><ele>769.5999999999999</ele><time>2026-04-22T14:00:42Z</time></trkpt><trkpt lat="42.67340036070034" lon="12.78458431211547"><ele>766.4</ele><time>2026-04-22T14:00:43Z</time></trkpt><trkpt lat="42.67330421340933" lon="12.784639859589545"><ele>763.2</ele><time>2026-04-22T14:00:44Z</time></trkpt><trkpt lat="42.67320240955638" lon="12.784700496802975"><ele>760.0</ele><time>2026-04-22T14:00:45Z</time></trkpt><trkpt lat="42.67310278779504" lon="12.78476449992068"><ele>760.0</ele><time>2026-04-22T14:00:46Z</time></trkpt><trkpt lat="42.67300540592717" lon="12.784842982965406"><ele>760.0</ele><time>2026-04-22T14:00:47Z</time></trkpt><trkpt lat="42.672918227200334" lon="12.78494053462264"><ele>760.0</ele><time>2026-04-22T14:00:48Z</time></trkpt><trkpt lat="42.6728306985554" lon="12.785047416822216"><ele>760.0</ele><time>2026-04-22T14:00:49Z</time></trkpt><trkpt lat="42.67275248225124" lon="12.785146878729654"><ele>758.6666666666667</ele><time>2026-04-22T14:00:50Z</time></trkpt><trkpt lat="42.67266664069495" lon="12.785225573655241"><ele>757.3333333333334</ele><time>2026-04-22T14:00:51Z</time></trkpt><trkpt lat="42.67258051415064" lon="12.78528705768479"><ele>756.0</ele><time>2026-04-22T14:00:52Z</time></trkpt><trkpt lat="42.67250351755612" lon="12.785350474549503"><ele>754.6666666666666</ele><time>2026-04-22T14:00:53Z</time></trkpt><trkpt lat="42.67245634614119" lon="12.78541189745736"><ele>753.3333333333333</ele><time>2026-04-22T14:00:54Z</time></trkpt><trkpt lat="42.67244104984785" lon="12.7855052524122"><ele>752.0</ele><time>2026-04-22T14:00:55Z</time></trkpt><trkpt lat="42.672481458095945" lon="12.785601523252112"><ele>752.0</ele><time>2026-04-22T14:00:56Z</time></trkpt><trkpt lat="42.6725650665456" lon="12.785637119305026"><ele>752.0</ele><time>2026-04-22T14:00:57Z</time></trkpt><trkpt lat="42.67263888812119" lon="12.785617652450965"><ele>752.0</ele><time>2026-04-22T14:00:58Z</time></trkpt><trkpt lat="42.67271437311993" lon="12.78559868473058"><ele>752.0</ele><time>2026-04-22T14:00:59Z</time></trkpt><trkpt lat="42.67280517705193" lon="12.785567197678333"><ele>752.0</ele><time>2026-04-22T14:01:00Z</time></trkpt><trkpt lat="42.672902733339946" lon="12.785536637209738"><ele>752.0</ele><time>2026-04-22T14:01:01Z</time></trkpt><trkpt lat="42.673012245604376" lon="12.785481893019291"><ele>750.0</ele><time>2026-04-22T14:01:02Z</time></trkpt><trkpt lat="42.67311249594639" lon="12.785423849366966"><ele>748.0</ele><time>2026-04-22T14:01:03Z</time></trkpt><trkpt lat="42.673214481982065" lon="12.785374387074754"><ele>746.0</ele><time>2026-04-22T14:01:04Z</time></trkpt><trkpt lat="42.67331480958171" lon="12.78539106625494"><ele>744.0</ele><time>2026-04-22T14:01:05Z</time></trkpt><trkpt lat="42.673419832491156" lon="12.785386463669832"><ele>742.0</ele><time>2026-04-22T14:01:06Z</time></trkpt><trkpt lat="42.673522788003694" lon="12.785372471747417"><ele>739.0</ele><time>2026-04-22T14:01:07Z</time></trkpt><trkpt lat="42.67362554664863" lon="12.785345810317857"><ele>736.0</ele><time>2026-04-22T14:01:08Z</time></trkpt><trkpt lat="42.67373849188464" lon="12.785344147791234"><ele>733.0</ele><time>2026-04-22T14:01:09Z</time></trkpt><trkpt lat="42.67383938471587" lon="12.78536262556168"><ele>730.0</ele><time>2026-04-22T14:01:10Z</time></trkpt><trkpt lat="42.6739376556831" lon="12.785368869711242"><ele>727.0</ele><time>2026-04-22T14:01:11Z</time></trkpt><trkpt lat="42.674042124177646" lon="12.785361231190894"><ele>727.0</ele><time>2026-04-22T14:01:12Z</time></trkpt><trkpt lat="42.67414623687604" lon="12.785376315371169"><ele>727.0</ele><time>2026-04-22T14:01:13Z</time></trkpt><trkpt lat="42.67425397228061" lon="12.785383518939476"><ele>727.0</ele><time>2026-04-22T14:01:14Z</time></trkpt><trkpt lat="42.67436152710928" lon="12.785376929337557"><ele>727.0</ele><time>2026-04-22T14:01:15Z</time></trkpt><trkpt lat="42.674476839744855" lon="12.785368503792695"><ele>727.0</ele><time>2026-04-22T14:01:16Z</time></trkpt><trkpt lat="42.67458156929312" lon="12.785364959935404"><ele>725.6</ele><time>2026-04-22T14:01:17Z</time></trkpt><trkpt lat="42.67468864142528" lon="12.785367103095751"><ele>724.2</ele><time>2026-04-22T14:01:18Z</time></trkpt><trkpt lat="42.67478775963579" lon="12.785381844425089"><ele>722.8</ele><time>2026-04-22T14:01:19Z</time></trkpt><trkpt lat="42.67487967795467" lon="12.785390277376031"><ele>721.4</ele><time>2026-04-22T14:01:20Z</time></trkpt><trkpt lat="42.6749664408777" lon="12.785389403231394"><ele>720.0</ele><time>2026-04-22T14:01:21Z</time></trkpt><trkpt lat="42.67504456052484" lon="12.785368763403648"><ele>720.0</ele><time>2026-04-22T14:01:22Z</time></trkpt><trkpt lat="42.67511085057251" lon="12.785335035267309"><ele>720.0</ele><time>2026-04-22T14:01:23Z</time></trkpt><trkpt lat="42.675167186420964" lon="12.785295803631035"><ele>720.0</ele><time>2026-04-22T14:01:24Z</time></trkpt><trkpt lat="42.67527417062893" lon="12.78532383269369"><ele>720.0</ele><time>2026-04-22T14:01:26Z</time></trkpt><trkpt lat="42.6753008103269" lon="12.785404326045189"><ele>720.0</ele><time>2026-04-22T14:01:27Z</time></trkpt><trkpt lat="42.67528461698611" lon="12.785505130481388"><ele>720.0</ele><time>2026-04-22T14:01:28Z</time></trkpt><trkpt lat="42.67529573150087" lon="12.785598469500455"><ele>720.0</ele><time>2026-04-22T14:01:29Z</time></trkpt><trkpt lat="42.67529974245186" lon="12.785700916953267"><ele>720.0</ele><time>2026-04-22T14:01:30Z</time></trkpt><trkpt lat="42.67528637467294" lon="12.785787563193914"><ele>720.0</ele><time>2026-04-22T14:01:31Z</time></trkpt><trkpt lat="42.67518400785265" lon="12.785865458514543"><ele>720.0</ele><time>2026-04-22T14:01:33Z</time></trkpt><trkpt lat="42.67511567109522" lon="12.785869904077382"><ele>720.0</ele><time>2026-04-22T14:01:34Z</time></trkpt><trkpt lat="42.675008725956204" lon="12.785968217820708"><ele>716.1666666666666</ele><time>2026-04-22T14:01:36Z</time></trkpt><trkpt lat="42.674991331762556" lon="12.78606458567223"><ele>712.3333333333334</ele><time>2026-04-22T14:01:37Z</time></trkpt><trkpt lat="42.67503926186189" lon="12.786166816177328"><ele>708.5</ele><time>2026-04-22T14:01:38Z</time></trkpt><trkpt lat="42.67509449613366" lon="12.786232787793736"><ele>704.6666666666667</ele><time>2026-04-22T14:01:39Z</time></trkpt><trkpt lat="42.6751764100136" lon="12.78624626130739"><ele>700.8333333333334</ele><time>2026-04-22T14:01:40Z</time></trkpt><trkpt lat="42.675250230247876" lon="12.78626733683792"><ele>697.0</ele><time>2026-04-22T14:01:41Z</time></trkpt><trkpt lat="42.675326182670595" lon="12.78626801939247"><ele>697.1666666666667</ele><time>2026-04-22T14:01:42Z</time></trkpt><trkpt lat="42.67539328202698" lon="12.786242520116426"><ele>697.3333333333334</ele><time>2026-04-22T14:01:43Z</time></trkpt><trkpt lat="42.67545921279132" lon="12.78619406498769"><ele>697.5</ele><time>2026-04-22T14:01:44Z</time></trkpt><trkpt lat="42.67552044179986" lon="12.786130481757814"><ele>697.6666666666666</ele><time>2026-04-22T14:01:45Z</time></trkpt><trkpt lat="42.67557860878722" lon="12.786058425267461"><ele>697.8333333333333</ele><time>2026-04-22T14:01:46Z</time></trkpt><trkpt lat="42.675646067880486" lon="12.785978926499304"><ele>698.0</ele><time>2026-04-22T14:01:47Z</time></trkpt><trkpt lat="42.67572159866004" lon="12.785886111153966"><ele>698.0</ele><time>2026-04-22T14:01:48Z</time></trkpt><trkpt lat="42.675800378816966" lon="12.7857822105628"><ele>698.0</ele><time>2026-04-22T14:01:49Z</time></trkpt><trkpt lat="42.67587700104202" lon="12.785673569630282"><ele>698.0</ele><time>2026-04-22T14:01:50Z</time></trkpt><trkpt lat="42.67594968145375" lon="12.785557897642043"><ele>698.0</ele><time>2026-04-22T14:01:51Z</time></trkpt><trkpt lat="42.676023829065834" lon="12.785452990223776"><ele>698.0</ele><time>2026-04-22T14:01:52Z</time></trkpt><trkpt lat="42.67609012357078" lon="12.785361154263049"><ele>697.4</ele><time>2026-04-22T14:01:53Z</time></trkpt><trkpt lat="42.67614846414524" lon="12.785292536486029"><ele>696.8</ele><time>2026-04-22T14:01:54Z</time></trkpt><trkpt lat="42.676232250002926" lon="12.785327776636532"><ele>696.2</ele><time>2026-04-22T14:01:56.001Z</time></trkpt><trkpt lat="42.67632849468737" lon="12.78545894423597"><ele>695.6</ele><time>2026-04-22T14:01:58.001Z</time></trkpt><trkpt lat="42.67641077540349" lon="12.78556331133659"><ele>695.0</ele><time>2026-04-22T14:01:59.001Z</time></trkpt><trkpt lat="42.676512803662945" lon="12.785621291384471"><ele>695.0</ele><time>2026-04-22T14:02:00.001Z</time></trkpt><trkpt lat="42.676610263069804" lon="12.785685345647355"><ele>695.0</ele><time>2026-04-22T14:02:01.001Z</time></trkpt><trkpt lat="42.676712980083614" lon="12.785727169335182"><ele>695.0</ele><time>2026-04-22T14:02:02.001Z</time></trkpt><trkpt lat="42.67680591744924" lon="12.785777691076204"><ele>695.0</ele><time>2026-04-22T14:02:03.001Z</time></trkpt><trkpt lat="42.676895715085344" lon="12.785780709149357"><ele>695.0</ele><time>2026-04-22T14:02:04.001Z</time></trkpt><trkpt lat="42.67695890019754" lon="12.785805808073532"><ele>695.0</ele><time>2026-04-22T14:02:05.001Z</time></trkpt><trkpt lat="42.677047506641856" lon="12.785853479781135"><ele>695.0</ele><time>2026-04-22T14:02:07.001Z</time></trkpt><trkpt lat="42.67701286702968" lon="12.785964412629772"><ele>695.0</ele><time>2026-04-22T14:02:09.001Z</time></trkpt><trkpt lat="42.67693026818813" lon="12.785962716795687"><ele>695.0</ele><time>2026-04-22T14:02:11.001Z</time></trkpt><trkpt lat="42.67681272271434" lon="12.785959799868836"><ele>695.0</ele><time>2026-04-22T14:02:13.001Z</time></trkpt><trkpt lat="42.67674728847537" lon="12.785940253764178"><ele>695.0</ele><time>2026-04-22T14:02:14.001Z</time></trkpt><trkpt lat="42.67665930893019" lon="12.785895214683226"><ele>695.0</ele><time>2026-04-22T14:02:16.001Z</time></trkpt><trkpt lat="42.67655634576564" lon="12.7858436159023"><ele>695.0</ele><time>2026-04-22T14:02:25.001Z</time></trkpt><trkpt lat="42.676486191194655" lon="12.78581033191349"><ele>695.0</ele><time>2026-04-22T14:02:26.001Z</time></trkpt><trkpt lat="42.676413738852695" lon="12.785777098289747"><ele>695.0</ele><time>2026-04-22T14:02:27.001Z</time></trkpt><trkpt lat="42.67633985334835" lon="12.785734570302802"><ele>695.0</ele><time>2026-04-22T14:02:28.001Z</time></trkpt><trkpt lat="42.676270200154924" lon="12.78570968349094"><ele>695.0</ele><time>2026-04-22T14:02:29.001Z</time></trkpt><trkpt lat="42.676200663826606" lon="12.785696265218919"><ele>695.0</ele><time>2026-04-22T14:02:30.001Z</time></trkpt><trkpt lat="42.67609953906363" lon="12.78574394031683"><ele>695.0</ele><time>2026-04-22T14:02:32.001Z</time></trkpt><trkpt lat="42.67606450186194" lon="12.785891314764989"><ele>695.0</ele><time>2026-04-22T14:02:34.001Z</time></trkpt><trkpt lat="42.67605621512315" lon="12.786000607073182"><ele>695.0</ele><time>2026-04-22T14:02:35.001Z</time></trkpt><trkpt lat="42.676043944176456" lon="12.786108514562688"><ele>691.2</ele><time>2026-04-22T14:02:36.001Z</time></trkpt><trkpt lat="42.6760039847328" lon="12.786197499855236"><ele>687.4</ele><time>2026-04-22T14:02:37.001Z</time></trkpt><trkpt lat="42.675978956767686" lon="12.786295946405417"><ele>683.5999999999999</ele><time>2026-04-22T14:02:38.001Z</time></trkpt><trkpt lat="42.67592390190975" lon="12.786401267951117"><ele>679.8</ele><time>2026-04-22T14:02:39.001Z</time></trkpt><trkpt lat="42.67586219455064" lon="12.786519449282137"><ele>676.0</ele><time>2026-04-22T14:02:40.001Z</time></trkpt><trkpt lat="42.67579326508673" lon="12.786648066231088"><ele>676.0</ele><time>2026-04-22T14:02:41.001Z</time></trkpt><trkpt lat="42.675719015106715" lon="12.786772953375301"><ele>676.0</ele><time>2026-04-22T14:02:42.001Z</time></trkpt><trkpt lat="42.675646691139214" lon="12.786888594074032"><ele>676.0</ele><time>2026-04-22T14:02:43.001Z</time></trkpt><trkpt lat="42.675580707886645" lon="12.786990500665423"><ele>676.0</ele><time>2026-04-22T14:02:44.001Z</time></trkpt><trkpt lat="42.67553602422239" lon="12.787071417520915"><ele>676.0</ele><time>2026-04-22T14:02:45.001Z</time></trkpt><trkpt lat="42.67552121095777" lon="12.78719973355711"><ele>673.8</ele><time>2026-04-22T14:02:47.001Z</time></trkpt><trkpt lat="42.675618075661895" lon="12.787285060503736"><ele>671.5999999999999</ele><time>2026-04-22T14:02:49.001Z</time></trkpt><trkpt lat="42.67568468194903" lon="12.787245383201443"><ele>669.4</ele><time>2026-04-22T14:02:50.001Z</time></trkpt><trkpt lat="42.67575194803388" lon="12.787202099342961"><ele>667.2</ele><time>2026-04-22T14:02:51.001Z</time></trkpt><trkpt lat="42.67582399773437" lon="12.787138088962381"><ele>665.0</ele><time>2026-04-22T14:02:52.001Z</time></trkpt><trkpt lat="42.67588950121175" lon="12.787027852680348"><ele>665.0</ele><time>2026-04-22T14:02:53.001Z</time></trkpt><trkpt lat="42.67597312332836" lon="12.786914307984658"><ele>665.0</ele><time>2026-04-22T14:02:54.001Z</time></trkpt><trkpt lat="42.67605981243815" lon="12.786791006810748"><ele>665.0</ele><time>2026-04-22T14:02:55.001Z</time></trkpt><trkpt lat="42.67614814004928" lon="12.786676836675758"><ele>665.0</ele><time>2026-04-22T14:02:56.001Z</time></trkpt><trkpt lat="42.67623171132337" lon="12.7865880791734"><ele>665.0</ele><time>2026-04-22T14:02:57.001Z</time></trkpt><trkpt lat="42.67629304055548" lon="12.786506993026046"><ele>665.0</ele><time>2026-04-22T14:02:58.001Z</time></trkpt><trkpt lat="42.676341149492295" lon="12.786449887930653"><ele>665.0</ele><time>2026-04-22T14:02:59.001Z</time></trkpt><trkpt lat="42.67643197472799" lon="12.786391480437764"><ele>665.0</ele><time>2026-04-22T14:03:01.001Z</time></trkpt><trkpt lat="42.67647755835328" lon="12.786467586580489"><ele>665.0</ele><time>2026-04-22T14:03:03.001Z</time></trkpt><trkpt lat="42.676519426018416" lon="12.786623178441648"><ele>665.0</ele><time>2026-04-22T14:03:05.001Z</time></trkpt><trkpt lat="42.67655147085365" lon="12.786729628718685"><ele>665.0</ele><time>2026-04-22T14:03:06.001Z</time></trkpt><trkpt lat="42.67658040827552" lon="12.786824877627284"><ele>665.0</ele><time>2026-04-22T14:03:07.001Z</time></trkpt><trkpt lat="42.676622891550316" lon="12.786903793546756"><ele>665.0</ele><time>2026-04-22T14:03:08.001Z</time></trkpt><trkpt lat="42.67667440098434" lon="12.786960945003079"><ele>665.0</ele><time>2026-04-22T14:03:09.001Z</time></trkpt><trkpt lat="42.67674770117822" lon="12.786968424770356"><ele>665.0</ele><time>2026-04-22T14:03:10.001Z</time></trkpt><trkpt lat="42.67681095148524" lon="12.78699470740411"><ele>665.0</ele><time>2026-04-22T14:03:11.001Z</time></trkpt><trkpt lat="42.67688250857006" lon="12.787028482476071"><ele>665.0</ele><time>2026-04-22T14:03:12.001Z</time></trkpt><trkpt lat="42.67696256938203" lon="12.787063865905617"><ele>658.1666666666666</ele><time>2026-04-22T14:03:13.001Z</time></trkpt><trkpt lat="42.67702721306137" lon="12.78711703842932"><ele>651.3333333333333</ele><time>2026-04-22T14:03:14.001Z</time></trkpt><trkpt lat="42.67710968804533" lon="12.787126961850046"><ele>644.5</ele><time>2026-04-22T14:03:15.001Z</time></trkpt><trkpt lat="42.677187353379615" lon="12.787153645227788"><ele>637.6666666666666</ele><time>2026-04-22T14:03:16.001Z</time></trkpt><trkpt lat="42.67724976284052" lon="12.787199095209996"><ele>630.8333333333334</ele><time>2026-04-22T14:03:17.001Z</time></trkpt><trkpt lat="42.67730974304753" lon="12.78725344519219"><ele>624.0</ele><time>2026-04-22T14:03:18.001Z</time></trkpt><trkpt lat="42.677367426857174" lon="12.787308138280757"><ele>624.0</ele><time>2026-04-22T14:03:19.001Z</time></trkpt><trkpt lat="42.677431103657135" lon="12.787351886080723"><ele>624.0</ele><time>2026-04-22T14:03:20.001Z</time></trkpt><trkpt lat="42.67748937869634" lon="12.787389101794925"><ele>624.0</ele><time>2026-04-22T14:03:21.001Z</time></trkpt><trkpt lat="42.67755669416599" lon="12.787429361355196"><ele>624.0</ele><time>2026-04-22T14:03:22.001Z</time></trkpt><trkpt lat="42.67762423470616" lon="12.787461344556139"><ele>624.0</ele><time>2026-04-22T14:03:23.001Z</time></trkpt><trkpt lat="42.677684152220706" lon="12.787522429788584"><ele>624.0</ele><time>2026-04-22T14:03:24.001Z</time></trkpt><trkpt lat="42.677746328119085" lon="12.787571761198924"><ele>624.0</ele><time>2026-04-22T14:03:25.001Z</time></trkpt><trkpt lat="42.67781304117883" lon="12.787606142623634"><ele>624.7142857142858</ele><time>2026-04-22T14:03:26.001Z</time></trkpt><trkpt lat="42.677891638214064" lon="12.787608194214437"><ele>625.4285714285713</ele><time>2026-04-22T14:03:27.001Z</time></trkpt><trkpt lat="42.67795719575321" lon="12.787621734383114"><ele>626.1428571428571</ele><time>2026-04-22T14:03:28.001Z</time></trkpt><trkpt lat="42.67803561436223" lon="12.787660723294364"><ele>626.8571428571429</ele><time>2026-04-22T14:03:29Z</time></trkpt><trkpt lat="42.67809696655724" lon="12.787681030461577"><ele>627.5714285714287</ele><time>2026-04-22T14:03:30Z</time></trkpt><trkpt lat="42.67816579715192" lon="12.787705334541478"><ele>628.2857142857142</ele><time>2026-04-22T14:03:31Z</time></trkpt><trkpt lat="42.67822824133746" lon="12.78773265354851"><ele>629.0</ele><time>2026-04-22T14:03:32Z</time></trkpt><trkpt lat="42.6782903118189" lon="12.787766562064956"><ele>623.2</ele><time>2026-04-22T14:03:33Z</time></trkpt><trkpt lat="42.6783934122497" lon="12.78783149840629"><ele>617.4</ele><time>2026-04-22T14:03:35Z</time></trkpt><trkpt lat="42.678487719511025" lon="12.787885440482796"><ele>611.6</ele><time>2026-04-22T14:03:36.999Z</time></trkpt><trkpt lat="42.67856458857117" lon="12.78796965203188"><ele>605.8</ele><time>2026-04-22T14:03:38.999Z</time></trkpt><trkpt lat="42.678682146290996" lon="12.788008563141476"><ele>600.0</ele><time>2026-04-22T14:03:40.999Z</time></trkpt><trkpt lat="42.678791131055846" lon="12.78799914960995"><ele>600.0</ele><time>2026-04-22T14:03:42.999Z</time></trkpt><trkpt lat="42.678872187313374" lon="12.78793469036172"><ele>600.0</ele><time>2026-04-22T14:03:44.999Z</time></trkpt><trkpt lat="42.67895149272397" lon="12.787870060497326"><ele>600.0</ele><time>2026-04-22T14:03:46.999Z</time></trkpt><trkpt lat="42.67902902726714" lon="12.787836104557083"><ele>600.0</ele><time>2026-04-22T14:03:48.999Z</time></trkpt><trkpt lat="42.679107736088596" lon="12.787910401245304"><ele>600.0</ele><time>2026-04-22T14:03:50.999Z</time></trkpt><trkpt lat="42.6791441425187" lon="12.788006745758317"><ele>600.0</ele><time>2026-04-22T14:03:51.999Z</time></trkpt><trkpt lat="42.6791804631328" lon="12.78807848336167"><ele>600.0</ele><time>2026-04-22T14:03:52.999Z</time></trkpt><trkpt lat="42.6792526776828" lon="12.788109118533741"><ele>600.0</ele><time>2026-04-22T14:03:53.999Z</time></trkpt><trkpt lat="42.679316577430555" lon="12.788160566696392"><ele>600.0</ele><time>2026-04-22T14:03:54.999Z</time></trkpt><trkpt lat="42.67938284738037" lon="12.788189886491745"><ele>600.0</ele><time>2026-04-22T14:03:55.999Z</time></trkpt><trkpt lat="42.679455139219336" lon="12.788216519773258"><ele>600.0</ele><time>2026-04-22T14:03:56.999Z</time></trkpt><trkpt lat="42.67954181950716" lon="12.788235802793425"><ele>600.0</ele><time>2026-04-22T14:03:57.999Z</time></trkpt><trkpt lat="42.67963398931441" lon="12.788259480633469"><ele>601.0</ele><time>2026-04-22T14:03:58.999Z</time></trkpt><trkpt lat="42.6797288639636" lon="12.788298665591684"><ele>602.0</ele><time>2026-04-22T14:03:59.999Z</time></trkpt><trkpt lat="42.67981453939916" lon="12.788349652839345"><ele>603.0</ele><time>2026-04-22T14:04:00.999Z</time></trkpt><trkpt lat="42.67989183797442" lon="12.78839840533085"><ele>604.0</ele><time>2026-04-22T14:04:01.999Z</time></trkpt><trkpt lat="42.67996326780598" lon="12.788461420715999"><ele>605.0</ele><time>2026-04-22T14:04:02.999Z</time></trkpt><trkpt lat="42.68002267441157" lon="12.788555701545835"><ele>603.0</ele><time>2026-04-22T14:04:03.999Z</time></trkpt><trkpt lat="42.68009275917037" lon="12.788690691228831"><ele>601.0</ele><time>2026-04-22T14:04:04.999Z</time></trkpt><trkpt lat="42.680169158027" lon="12.788811532701898"><ele>599.0</ele><time>2026-04-22T14:04:05.999Z</time></trkpt><trkpt lat="42.68024160287124" lon="12.78892241217456"><ele>597.0</ele><time>2026-04-22T14:04:06.999Z</time></trkpt><trkpt lat="42.68030461450056" lon="12.789021349373837"><ele>595.0</ele><time>2026-04-22T14:04:07.999Z</time></trkpt><trkpt lat="42.680363538552285" lon="12.789100672334257"><ele>595.0</ele><time>2026-04-22T14:04:08.999Z</time></trkpt><trkpt lat="42.68042315814049" lon="12.789162906060227"><ele>595.0</ele><time>2026-04-22T14:04:09.999Z</time></trkpt><trkpt lat="42.68048438057542" lon="12.78919716322878"><ele>595.0</ele><time>2026-04-22T14:04:10.999Z</time></trkpt><trkpt lat="42.680559081302036" lon="12.78922873423834"><ele>595.0</ele><time>2026-04-22T14:04:11.999Z</time></trkpt><trkpt lat="42.68064547128095" lon="12.789254230135432"><ele>595.0</ele><time>2026-04-22T14:04:12.999Z</time></trkpt><trkpt lat="42.680746590820384" lon="12.789292959845787"><ele>595.0</ele><time>2026-04-22T14:04:13.999Z</time></trkpt><trkpt lat="42.68083452812682" lon="12.789328071891559"><ele>591.8333333333334</ele><time>2026-04-22T14:04:14.999Z</time></trkpt><trkpt lat="42.680922979226295" lon="12.789361930666939"><ele>588.6666666666667</ele><time>2026-04-22T14:04:15.999Z</time></trkpt><trkpt lat="42.68100197533679" lon="12.789379266255464"><ele>585.5</ele><time>2026-04-22T14:04:16.999Z</time></trkpt><trkpt lat="42.68108498341362" lon="12.789387859093662"><ele>582.3333333333334</ele><time>2026-04-22T14:04:18Z</time></trkpt><trkpt lat="42.68118656100508" lon="12.789396348043129"><ele>579.1666666666666</ele><time>2026-04-22T14:04:19Z</time></trkpt><trkpt lat="42.681275929411896" lon="12.789396379247133"><ele>576.0</ele><time>2026-04-22T14:04:20Z</time></trkpt><trkpt lat="42.681365077567406" lon="12.78940616550858"><ele>576.0</ele><time>2026-04-22T14:04:21Z</time></trkpt><trkpt lat="42.68145402268749" lon="12.78942320077398"><ele>576.0</ele><time>2026-04-22T14:04:22Z</time></trkpt><trkpt lat="42.681525269725014" lon="12.789452242741026"><ele>576.0</ele><time>2026-04-22T14:04:23Z</time></trkpt><trkpt lat="42.68159732455415" lon="12.789499043573276"><ele>576.0</ele><time>2026-04-22T14:04:24Z</time></trkpt><trkpt lat="42.6816763933844" lon="12.789562089872835"><ele>576.0</ele><time>2026-04-22T14:04:25Z</time></trkpt><trkpt lat="42.68173174484542" lon="12.789642481392187"><ele>576.0</ele><time>2026-04-22T14:04:26Z</time></trkpt><trkpt lat="42.68178271155884" lon="12.789741967502717"><ele>576.0</ele><time>2026-04-22T14:04:27Z</time></trkpt><trkpt lat="42.681844438135116" lon="12.789832114525824"><ele>576.0</ele><time>2026-04-22T14:04:28Z</time></trkpt><trkpt lat="42.68191780234963" lon="12.789906963825825"><ele>576.0</ele><time>2026-04-22T14:04:29Z</time></trkpt><trkpt lat="42.68197842616541" lon="12.789974763745557"><ele>576.0</ele><time>2026-04-22T14:04:30Z</time></trkpt><trkpt lat="42.682039380586666" lon="12.790041751207317"><ele>576.0</ele><time>2026-04-22T14:04:31Z</time></trkpt><trkpt lat="42.682115514282785" lon="12.790042622256488"><ele>576.0</ele><time>2026-04-22T14:04:32Z</time></trkpt><trkpt lat="42.68218911095319" lon="12.790033355938023"><ele>576.6</ele><time>2026-04-22T14:04:33Z</time></trkpt><trkpt lat="42.682270999722014" lon="12.790028493598241"><ele>577.2</ele><time>2026-04-22T14:04:34Z</time></trkpt><trkpt lat="42.68236761172516" lon="12.789993345899319"><ele>577.8</ele><time>2026-04-22T14:04:35Z</time></trkpt><trkpt lat="42.68246352648829" lon="12.789980672492208"><ele>578.4</ele><time>2026-04-22T14:04:36Z</time></trkpt><trkpt lat="42.68255489761615" lon="12.79000069374918"><ele>579.0</ele><time>2026-04-22T14:04:37Z</time></trkpt><trkpt lat="42.68265274465517" lon="12.790009641749126"><ele>579.0</ele><time>2026-04-22T14:04:38Z</time></trkpt><trkpt lat="42.682753305680855" lon="12.79000722924592"><ele>579.0</ele><time>2026-04-22T14:04:39Z</time></trkpt><trkpt lat="42.682837134188325" lon="12.79005291204276"><ele>579.0</ele><time>2026-04-22T14:04:40Z</time></trkpt><trkpt lat="42.68292022880622" lon="12.790071739606493"><ele>579.0</ele><time>2026-04-22T14:04:41Z</time></trkpt><trkpt lat="42.68301216828507" lon="12.790071323833056"><ele>579.0</ele><time>2026-04-22T14:04:42Z</time></trkpt><trkpt lat="42.68309784398791" lon="12.790038302691913"><ele>578.8</ele><time>2026-04-22T14:04:43Z</time></trkpt><trkpt lat="42.683196744033516" lon="12.790014987695498"><ele>578.5999999999999</ele><time>2026-04-22T14:04:44Z</time></trkpt><trkpt lat="42.6832956016173" lon="12.790012271355964"><ele>578.4</ele><time>2026-04-22T14:04:45Z</time></trkpt><trkpt lat="42.68339186209948" lon="12.790029464878447"><ele>578.1999999999999</ele><time>2026-04-22T14:04:46Z</time></trkpt><trkpt lat="42.68348776289649" lon="12.790060388825342"><ele>578.0</ele><time>2026-04-22T14:04:47Z</time></trkpt><trkpt lat="42.68358730584871" lon="12.79009155805664"><ele>580.0</ele><time>2026-04-22T14:04:48Z</time></trkpt><trkpt lat="42.683673962419036" lon="12.790132502182162"><ele>582.0</ele><time>2026-04-22T14:04:49Z</time></trkpt><trkpt lat="42.683765003502415" lon="12.790186832092544"><ele>584.0</ele><time>2026-04-22T14:04:50Z</time></trkpt><trkpt lat="42.68386061682023" lon="12.79025390377793"><ele>586.0</ele><time>2026-04-22T14:04:51Z</time></trkpt><trkpt lat="42.683959527362674" lon="12.790306815774484"><ele>588.0</ele><time>2026-04-22T14:04:52Z</time></trkpt><trkpt lat="42.684066927001254" lon="12.790349775245948"><ele>581.6666666666666</ele><time>2026-04-22T14:04:53Z</time></trkpt><trkpt lat="42.684146211982025" lon="12.790388864008515"><ele>575.3333333333334</ele><time>2026-04-22T14:04:54Z</time></trkpt><trkpt lat="42.68424734770153" lon="12.790428713332663"><ele>569.0</ele><time>2026-04-22T14:04:55Z</time></trkpt><trkpt lat="42.684334402698845" lon="12.79046550536958"><ele>562.6666666666667</ele><time>2026-04-22T14:04:56Z</time></trkpt><trkpt lat="42.684414878632516" lon="12.7904878140358"><ele>556.3333333333334</ele><time>2026-04-22T14:04:57Z</time></trkpt><trkpt lat="42.684499774335386" lon="12.79050728019944"><ele>550.0</ele><time>2026-04-22T14:04:58Z</time></trkpt><trkpt lat="42.684573634181916" lon="12.79050531245933"><ele>550.0</ele><time>2026-04-22T14:04:59Z</time></trkpt><trkpt lat="42.68464308759541" lon="12.790477715787537"><ele>550.0</ele><time>2026-04-22T14:05:00Z</time></trkpt><trkpt lat="42.68470575377024" lon="12.790445466871745"><ele>550.0</ele><time>2026-04-22T14:05:01Z</time></trkpt><trkpt lat="42.6848074682069" lon="12.7904125787574"><ele>550.0</ele><time>2026-04-22T14:05:03Z</time></trkpt><trkpt lat="42.68483638722103" lon="12.790494113005103"><ele>550.0</ele><time>2026-04-22T14:05:05Z</time></trkpt><trkpt lat="42.684786046159914" lon="12.79057234504"><ele>550.0</ele><time>2026-04-22T14:05:07Z</time></trkpt><trkpt lat="42.68468494214687" lon="12.79061065423868"><ele>550.0</ele><time>2026-04-22T14:05:09Z</time></trkpt><trkpt lat="42.68460734673955" lon="12.790646667784461"><ele>550.0</ele><time>2026-04-22T14:05:10Z</time></trkpt><trkpt lat="42.68453166149574" lon="12.790674731462481"><ele>550.0</ele><time>2026-04-22T14:05:11Z</time></trkpt><trkpt lat="42.68445934701215" lon="12.790695999393927"><ele>550.0</ele><time>2026-04-22T14:05:12Z</time></trkpt><trkpt lat="42.68437255453891" lon="12.790725790514998"><ele>550.0</ele><time>2026-04-22T14:05:13Z</time></trkpt><trkpt lat="42.684284002250166" lon="12.79077107996079"><ele>550.0</ele><time>2026-04-22T14:05:14Z</time></trkpt><trkpt lat="42.684193051464575" lon="12.790813522956753"><ele>549.5</ele><time>2026-04-22T14:05:15Z</time></trkpt><trkpt lat="42.68408818666016" lon="12.790849294584387"><ele>549.0</ele><time>2026-04-22T14:05:16Z</time></trkpt><trkpt lat="42.68398469490851" lon="12.79087381747288"><ele>548.5</ele><time>2026-04-22T14:05:17Z</time></trkpt><trkpt lat="42.68386463747356" lon="12.79087928087154"><ele>548.0</ele><time>2026-04-22T14:05:18Z</time></trkpt><trkpt lat="42.68374763249973" lon="12.790880373462668"><ele>548.0</ele><time>2026-04-22T14:05:19Z</time></trkpt><trkpt lat="42.68362767318836" lon="12.790906020510738"><ele>548.0</ele><time>2026-04-22T14:05:20Z</time></trkpt><trkpt lat="42.68350987650954" lon="12.790951816860401"><ele>548.0</ele><time>2026-04-22T14:05:21Z</time></trkpt><trkpt lat="42.68341258343861" lon="12.791002730540079"><ele>548.0</ele><time>2026-04-22T14:05:22Z</time></trkpt><trkpt lat="42.68332838332888" lon="12.79104830301233"><ele>548.0</ele><time>2026-04-22T14:05:23Z</time></trkpt><trkpt lat="42.68325229565434" lon="12.791089097534766"><ele>542.4</ele><time>2026-04-22T14:05:24Z</time></trkpt><trkpt lat="42.68317276634247" lon="12.7911156623889"><ele>536.8</ele><time>2026-04-22T14:05:25Z</time></trkpt><trkpt lat="42.68308382173626" lon="12.791107637222096"><ele>531.2</ele><time>2026-04-22T14:05:26Z</time></trkpt><trkpt lat="42.682985030902756" lon="12.791093012012302"><ele>525.6</ele><time>2026-04-22T14:05:27Z</time></trkpt><trkpt lat="42.682885294849555" lon="12.791092262722028"><ele>520.0</ele><time>2026-04-22T14:05:28Z</time></trkpt><trkpt lat="42.68277129522741" lon="12.791113225660645"><ele>520.25</ele><time>2026-04-22T14:05:29Z</time></trkpt><trkpt lat="42.68265620564537" lon="12.791128818200015"><ele>520.5</ele><time>2026-04-22T14:05:30Z</time></trkpt><trkpt lat="42.68253776070837" lon="12.791140871987311"><ele>520.75</ele><time>2026-04-22T14:05:31Z</time></trkpt><trkpt lat="42.68242125388895" lon="12.79115007243638"><ele>521.0</ele><time>2026-04-22T14:05:32Z</time></trkpt><trkpt lat="42.68230979393288" lon="12.791170362738008"><ele>521.0</ele><time>2026-04-22T14:05:33Z</time></trkpt><trkpt lat="42.682222598746016" lon="12.791201849647809"><ele>521.0</ele><time>2026-04-22T14:05:34Z</time></trkpt><trkpt lat="42.68213852007388" lon="12.791234523934815"><ele>521.0</ele><time>2026-04-22T14:05:34.999Z</time></trkpt><trkpt lat="42.682064517913176" lon="12.79131233148528"><ele>521.0</ele><time>2026-04-22T14:05:36.999Z</time></trkpt><trkpt lat="42.68210176429827" lon="12.791413407002675"><ele>521.0</ele><time>2026-04-22T14:05:38.999Z</time></trkpt><trkpt lat="42.682194756427165" lon="12.791448989955237"><ele>521.0</ele><time>2026-04-22T14:05:40.999Z</time></trkpt><trkpt lat="42.68226065546992" lon="12.79142861984947"><ele>521.0</ele><time>2026-04-22T14:05:41.999Z</time></trkpt><trkpt lat="42.68233912504804" lon="12.791398589259495"><ele>521.0</ele><time>2026-04-22T14:05:42.999Z</time></trkpt><trkpt lat="42.68243011215205" lon="12.791376831472462"><ele>521.0</ele><time>2026-04-22T14:05:43.999Z</time></trkpt><trkpt lat="42.68253294531533" lon="12.791361499480795"><ele>521.0</ele><time>2026-04-22T14:05:44.999Z</time></trkpt><trkpt lat="42.682631145927175" lon="12.791366563735126"><ele>521.0</ele><time>2026-04-22T14:05:45.999Z</time></trkpt><trkpt lat="42.68272566184145" lon="12.791383412204075"><ele>520.8</ele><time>2026-04-22T14:05:46.999Z</time></trkpt><trkpt lat="42.68281262118561" lon="12.791390221524427"><ele>520.6</ele><time>2026-04-22T14:05:47.999Z</time></trkpt><trkpt lat="42.682909646410465" lon="12.791431804059146"><ele>520.4</ele><time>2026-04-22T14:05:48.999Z</time></trkpt><trkpt lat="42.68300377652327" lon="12.791499757644551"><ele>520.2</ele><time>2026-04-22T14:05:49.999Z</time></trkpt><trkpt lat="42.68310028507538" lon="12.79157524354209"><ele>520.0</ele><time>2026-04-22T14:05:50.999Z</time></trkpt><trkpt lat="42.683201807419024" lon="12.791651701006993"><ele>520.0</ele><time>2026-04-22T14:05:51.999Z</time></trkpt><trkpt lat="42.68329614263812" lon="12.791721513446621"><ele>520.0</ele><time>2026-04-22T14:05:52.999Z</time></trkpt><trkpt lat="42.683399838923116" lon="12.79177367180161"><ele>520.0</ele><time>2026-04-22T14:05:53.999Z</time></trkpt><trkpt lat="42.68350096039313" lon="12.791824669266509"><ele>520.0</ele><time>2026-04-22T14:05:54.999Z</time></trkpt><trkpt lat="42.683594887170486" lon="12.791877865421258"><ele>520.0</ele><time>2026-04-22T14:05:55.999Z</time></trkpt><trkpt lat="42.68366993688784" lon="12.791929386839957"><ele>516.1666666666667</ele><time>2026-04-22T14:05:56.999Z</time></trkpt><trkpt lat="42.68374250863889" lon="12.791977551558812"><ele>512.3333333333334</ele><time>2026-04-22T14:05:57.999Z</time></trkpt><trkpt lat="42.68381630762425" lon="12.792005271756521"><ele>508.5</ele><time>2026-04-22T14:05:58.999Z</time></trkpt><trkpt lat="42.68390353429555" lon="12.792002416364369"><ele>504.66666666666663</ele><time>2026-04-22T14:06:00Z</time></trkpt><trkpt lat="42.68399542787983" lon="12.791991921629426"><ele>500.8333333333333</ele><time>2026-04-22T14:06:01Z</time></trkpt><trkpt lat="42.684087383750395" lon="12.791984111371038"><ele>497.0</ele><time>2026-04-22T14:06:02Z</time></trkpt><trkpt lat="42.68418109036989" lon="12.79196797768534"><ele>497.0</ele><time>2026-04-22T14:06:03Z</time></trkpt><trkpt lat="42.68428080590817" lon="12.79193510685753"><ele>497.00000000000006</ele><time>2026-04-22T14:06:04Z</time></trkpt><trkpt lat="42.68438571023301" lon="12.791893280224118"><ele>497.00000000000006</ele><time>2026-04-22T14:06:05Z</time></trkpt><trkpt lat="42.684489882171896" lon="12.791865031617249"><ele>497.0</ele><time>2026-04-22T14:06:06Z</time></trkpt><trkpt lat="42.68459613477506" lon="12.791830701441004"><ele>497.0</ele><time>2026-04-22T14:06:07Z</time></trkpt><trkpt lat="42.68470118872508" lon="12.791783622566204"><ele>499.5</ele><time>2026-04-22T14:06:08Z</time></trkpt><trkpt lat="42.68481303653654" lon="12.791721067959973"><ele>502.0</ele><time>2026-04-22T14:06:09Z</time></trkpt><trkpt lat="42.68492155933294" lon="12.79166218158682"><ele>504.5</ele><time>2026-04-22T14:06:10Z</time></trkpt><trkpt lat="42.68504086789414" lon="12.791617781063485"><ele>507.0</ele><time>2026-04-22T14:06:11Z</time></trkpt><trkpt lat="42.68514946500129" lon="12.791585051456305"><ele>507.0</ele><time>2026-04-22T14:06:12Z</time></trkpt><trkpt lat="42.68525261417619" lon="12.79155677177187"><ele>507.0</ele><time>2026-04-22T14:06:13Z</time></trkpt><trkpt lat="42.685330964266356" lon="12.791529349575038"><ele>507.0</ele><time>2026-04-22T14:06:14Z</time></trkpt><trkpt lat="42.68540399110018" lon="12.79151754170817"><ele>507.0</ele><time>2026-04-22T14:06:16Z</time></trkpt><trkpt lat="42.68540543604869" lon="12.79160711513673"><ele>507.0</ele><time>2026-04-22T14:06:18Z</time></trkpt><trkpt lat="42.68533125739768" lon="12.791680884182538"><ele>507.0</ele><time>2026-04-22T14:06:20Z</time></trkpt><trkpt lat="42.68522418233982" lon="12.791772933248996"><ele>504.3333333333333</ele><time>2026-04-22T14:06:22Z</time></trkpt><trkpt lat="42.68515137190623" lon="12.791844919327444"><ele>501.66666666666663</ele><time>2026-04-22T14:06:23Z</time></trkpt><trkpt lat="42.68509016061198" lon="12.791927575947891"><ele>499.0</ele><time>2026-04-22T14:06:24Z</time></trkpt><trkpt lat="42.685043889622285" lon="12.792025602697661"><ele>496.3333333333333</ele><time>2026-04-22T14:06:25Z</time></trkpt><trkpt lat="42.68502122880449" lon="12.792141487210184"><ele>493.66666666666663</ele><time>2026-04-22T14:06:26Z</time></trkpt><trkpt lat="42.68500197139548" lon="12.792268903940782"><ele>491.0</ele><time>2026-04-22T14:06:27Z</time></trkpt><trkpt lat="42.684988082850836" lon="12.7923972493762"><ele>490.99999999999994</ele><time>2026-04-22T14:06:28Z</time></trkpt><trkpt lat="42.68497808875245" lon="12.792503250161394"><ele>491.0</ele><time>2026-04-22T14:06:29Z</time></trkpt><trkpt lat="42.684986849940394" lon="12.792699993886757"><ele>491.0</ele><time>2026-04-22T14:06:31Z</time></trkpt><trkpt lat="42.685012058483906" lon="12.792781771388272"><ele>491.0</ele><time>2026-04-22T14:06:32Z</time></trkpt><trkpt lat="42.685057388636096" lon="12.792872022762927"><ele>490.99999999999994</ele><time>2026-04-22T14:06:33Z</time></trkpt><trkpt lat="42.685093955253556" lon="12.792961480527742"><ele>491.0</ele><time>2026-04-22T14:06:34Z</time></trkpt><trkpt lat="42.685179867684" lon="12.79305241540663"><ele>489.16666666666663</ele><time>2026-04-22T14:06:36Z</time></trkpt><trkpt lat="42.68524354223785" lon="12.79306937656071"><ele>487.3333333333333</ele><time>2026-04-22T14:06:37Z</time></trkpt><trkpt lat="42.68530885319404" lon="12.79308558254513"><ele>485.5</ele><time>2026-04-22T14:06:38Z</time></trkpt><trkpt lat="42.68538748814777" lon="12.793160776670316"><ele>483.66666666666663</ele><time>2026-04-22T14:06:40Z</time></trkpt><trkpt lat="42.68540916959142" lon="12.793300482970169"><ele>481.8333333333333</ele><time>2026-04-22T14:06:42Z</time></trkpt><trkpt lat="42.685436454047334" lon="12.793415401338665"><ele>480.0</ele><time>2026-04-22T14:06:43Z</time></trkpt><trkpt lat="42.685475409197544" lon="12.793515138289369"><ele>479.3333333333333</ele><time>2026-04-22T14:06:44Z</time></trkpt><trkpt lat="42.68552087317982" lon="12.793592313436362"><ele>478.66666666666663</ele><time>2026-04-22T14:06:45Z</time></trkpt><trkpt lat="42.68556951050799" lon="12.79367217852419"><ele>478.0</ele><time>2026-04-22T14:06:46Z</time></trkpt><trkpt lat="42.685641919139925" lon="12.793752074966244"><ele>477.3333333333333</ele><time>2026-04-22T14:06:47Z</time></trkpt><trkpt lat="42.68570662212814" lon="12.793825414995572"><ele>476.66666666666663</ele><time>2026-04-22T14:06:48Z</time></trkpt><trkpt lat="42.685795557833266" lon="12.793896460006254"><ele>476.0</ele><time>2026-04-22T14:06:49Z</time></trkpt><trkpt lat="42.68586496734025" lon="12.79395860441194"><ele>476.0</ele><time>2026-04-22T14:06:50Z</time></trkpt><trkpt lat="42.68593578345462" lon="12.79402969856232"><ele>476.0</ele><time>2026-04-22T14:06:51Z</time></trkpt><trkpt lat="42.686004149873995" lon="12.794100782592873"><ele>476.0</ele><time>2026-04-22T14:06:52Z</time></trkpt><trkpt lat="42.68606864586433" lon="12.794177303199506"><ele>476.0</ele><time>2026-04-22T14:06:53Z</time></trkpt><trkpt lat="42.68612256726816" lon="12.794267137930545"><ele>476.0</ele><time>2026-04-22T14:06:54Z</time></trkpt><trkpt lat="42.68618260196273" lon="12.79439146221926"><ele>474.4</ele><time>2026-04-22T14:06:56Z</time></trkpt><trkpt lat="42.68624851954223" lon="12.794504236024158"><ele>472.8</ele><time>2026-04-22T14:06:58Z</time></trkpt><trkpt lat="42.68627862576514" lon="12.79458855932945"><ele>471.19999999999993</ele><time>2026-04-22T14:06:59Z</time></trkpt><trkpt lat="42.68628176324052" lon="12.7947355061516"><ele>469.59999999999997</ele><time>2026-04-22T14:07:01Z</time></trkpt><trkpt lat="42.68622292493838" lon="12.794855128227683"><ele>468.0</ele><time>2026-04-22T14:07:03Z</time></trkpt><trkpt lat="42.68617456657745" lon="12.794910628883814"><ele>468.0</ele><time>2026-04-22T14:07:04Z</time></trkpt><trkpt lat="42.68611890345444" lon="12.7949620237499"><ele>468.0</ele><time>2026-04-22T14:07:05Z</time></trkpt><trkpt lat="42.68606108393938" lon="12.795015448755219"><ele>468.0</ele><time>2026-04-22T14:07:06Z</time></trkpt><trkpt lat="42.686002962569994" lon="12.795084321273329"><ele>468.0</ele><time>2026-04-22T14:07:07Z</time></trkpt><trkpt lat="42.6859594638959" lon="12.795187138817884"><ele>468.0</ele><time>2026-04-22T14:07:08Z</time></trkpt><trkpt lat="42.685919219414444" lon="12.79529203397808"><ele>468.0</ele><time>2026-04-22T14:07:09Z</time></trkpt><trkpt lat="42.68587426843194" lon="12.795407400001347"><ele>469.1666666666667</ele><time>2026-04-22T14:07:10Z</time></trkpt><trkpt lat="42.68584234148326" lon="12.795508537389921"><ele>470.33333333333337</ele><time>2026-04-22T14:07:11Z</time></trkpt><trkpt lat="42.68581491958654" lon="12.795597058342315"><ele>471.5</ele><time>2026-04-22T14:07:12Z</time></trkpt><trkpt lat="42.68580118192573" lon="12.795689463713758"><ele>472.6666666666667</ele><time>2026-04-22T14:07:13Z</time></trkpt><trkpt lat="42.68579905145773" lon="12.795776100465416"><ele>473.83333333333337</ele><time>2026-04-22T14:07:14Z</time></trkpt><trkpt lat="42.68586050629072" lon="12.795919803384846"><ele>475.0</ele><time>2026-04-22T14:07:16Z</time></trkpt><trkpt lat="42.6859219426904" lon="12.795998790070257"><ele>473.1666666666667</ele><time>2026-04-22T14:07:17Z</time></trkpt><trkpt lat="42.68598979455952" lon="12.796081180375623"><ele>471.33333333333337</ele><time>2026-04-22T14:07:18Z</time></trkpt><trkpt lat="42.68606544462902" lon="12.796152737917504"><ele>469.5</ele><time>2026-04-22T14:07:19Z</time></trkpt><trkpt lat="42.686138859785395" lon="12.796210275070752"><ele>467.66666666666663</ele><time>2026-04-22T14:07:20Z</time></trkpt><trkpt lat="42.686211233278925" lon="12.796269254968815"><ele>465.8333333333333</ele><time>2026-04-22T14:07:21Z</time></trkpt><trkpt lat="42.68627587652186" lon="12.796340168237528"><ele>464.0</ele><time>2026-04-22T14:07:22Z</time></trkpt><trkpt lat="42.6863297552667" lon="12.796415541394596"><ele>463.99999999999994</ele><time>2026-04-22T14:07:23Z</time></trkpt><trkpt lat="42.68638136800704" lon="12.79646762077095"><ele>464.0</ele><time>2026-04-22T14:07:24Z</time></trkpt><trkpt lat="42.68644465758346" lon="12.796492427441473"><ele>464.0</ele><time>2026-04-22T14:07:25Z</time></trkpt><trkpt lat="42.68651044282085" lon="12.796496957581873"><ele>464.0</ele><time>2026-04-22T14:07:26Z</time></trkpt><trkpt lat="42.686576110964054" lon="12.79650175394503"><ele>463.99999999999994</ele><time>2026-04-22T14:07:27Z</time></trkpt><trkpt lat="42.686638648567836" lon="12.796550632564902"><ele>464.0</ele><time>2026-04-22T14:07:28Z</time></trkpt><trkpt lat="42.68666997768981" lon="12.796702289021109"><ele>463.99999999999994</ele><time>2026-04-22T14:07:30Z</time></trkpt><trkpt lat="42.68665674145286" lon="12.79680535404387"><ele>464.0</ele><time>2026-04-22T14:07:31Z</time></trkpt><trkpt lat="42.686626483192455" lon="12.796914974161485"><ele>464.0</ele><time>2026-04-22T14:07:32Z</time></trkpt><trkpt lat="42.686602869345414" lon="12.797012211587386"><ele>464.0</ele><time>2026-04-22T14:07:33Z</time></trkpt><trkpt lat="42.68659430718039" lon="12.797107325793245"><ele>463.99999999999994</ele><time>2026-04-22T14:07:34Z</time></trkpt><trkpt lat="42.68661114808546" lon="12.797207127406951"><ele>464.0</ele><time>2026-04-22T14:07:35Z</time></trkpt><trkpt lat="42.686647552205635" lon="12.797311342892069"><ele>462.49999999999994</ele><time>2026-04-22T14:07:36Z</time></trkpt><trkpt lat="42.6866843901788" lon="12.797427395704828"><ele>461.0</ele><time>2026-04-22T14:07:37Z</time></trkpt><trkpt lat="42.686712879915625" lon="12.797525810135145"><ele>459.5</ele><time>2026-04-22T14:07:38Z</time></trkpt><trkpt lat="42.68673194936023" lon="12.797607562752772"><ele>458.0</ele><time>2026-04-22T14:07:39Z</time></trkpt><trkpt lat="42.68680191782109" lon="12.79770895249615"><ele>456.49999999999994</ele><time>2026-04-22T14:07:41Z</time></trkpt><trkpt lat="42.68687964517791" lon="12.797634425171507"><ele>455.0</ele><time>2026-04-22T14:07:43Z</time></trkpt><trkpt lat="42.68690135831333" lon="12.79754191180126"><ele>454.99999999999994</ele><time>2026-04-22T14:07:44Z</time></trkpt><trkpt lat="42.68692520721214" lon="12.797421404250608"><ele>455.0</ele><time>2026-04-22T14:07:45Z</time></trkpt><trkpt lat="42.6869720810692" lon="12.797306926616061"><ele>455.0</ele><time>2026-04-22T14:07:46Z</time></trkpt><trkpt lat="42.68703323703252" lon="12.79723074230117"><ele>455.0</ele><time>2026-04-22T14:07:47Z</time></trkpt><trkpt lat="42.68710885678097" lon="12.79719236452964"><ele>454.99999999999994</ele><time>2026-04-22T14:07:48Z</time></trkpt><trkpt lat="42.68718363442637" lon="12.797184956495272"><ele>455.0</ele><time>2026-04-22T14:07:49Z</time></trkpt><trkpt lat="42.68726818455081" lon="12.79709343357548"><ele>453.8</ele><time>2026-04-22T14:07:51Z</time></trkpt><trkpt lat="42.68726943244149" lon="12.79699734740856"><ele>452.6</ele><time>2026-04-22T14:07:52Z</time></trkpt><trkpt lat="42.68727358169666" lon="12.796873273816301"><ele>451.4</ele><time>2026-04-22T14:07:53Z</time></trkpt><trkpt lat="42.68730274043164" lon="12.79674753463788"><ele>450.2</ele><time>2026-04-22T14:07:54Z</time></trkpt><trkpt lat="42.68735544834759" lon="12.796631681027518"><ele>449.0</ele><time>2026-04-22T14:07:55Z</time></trkpt><trkpt lat="42.68741737291453" lon="12.796529564509168"><ele>449.0</ele><time>2026-04-22T14:07:56Z</time></trkpt><trkpt lat="42.68749190362899" lon="12.796440643015359"><ele>449.0</ele><time>2026-04-22T14:07:57Z</time></trkpt><trkpt lat="42.68756827309386" lon="12.79635810108446"><ele>449.0</ele><time>2026-04-22T14:07:58Z</time></trkpt><trkpt lat="42.68764262831229" lon="12.796270835477733"><ele>449.0</ele><time>2026-04-22T14:07:59Z</time></trkpt><trkpt lat="42.6877048597152" lon="12.796188621749408"><ele>449.0</ele><time>2026-04-22T14:08:00Z</time></trkpt><trkpt lat="42.687748775419145" lon="12.796100941604237"><ele>449.79999999999995</ele><time>2026-04-22T14:08:01Z</time></trkpt><trkpt lat="42.68777409743228" lon="12.795998810396178"><ele>450.59999999999997</ele><time>2026-04-22T14:08:02Z</time></trkpt><trkpt lat="42.687793341572835" lon="12.795876828753535"><ele>451.4</ele><time>2026-04-22T14:08:03Z</time></trkpt><trkpt lat="42.687798905100436" lon="12.795740866574224"><ele>452.2</ele><time>2026-04-22T14:08:04Z</time></trkpt><trkpt lat="42.6877826129997" lon="12.795613364757857"><ele>453.0</ele><time>2026-04-22T14:08:05Z</time></trkpt><trkpt lat="42.687744416554395" lon="12.795499286823038"><ele>453.0</ele><time>2026-04-22T14:08:06Z</time></trkpt><trkpt lat="42.687685039008244" lon="12.795378933614787"><ele>453.0</ele><time>2026-04-22T14:08:07Z</time></trkpt><trkpt lat="42.68760981813927" lon="12.79525255769889"><ele>453.0</ele><time>2026-04-22T14:08:08Z</time></trkpt><trkpt lat="42.68752668431327" lon="12.795122250422033"><ele>453.0</ele><time>2026-04-22T14:08:09Z</time></trkpt><trkpt lat="42.68744514962776" lon="12.794999659906557"><ele>450.79999999999995</ele><time>2026-04-22T14:08:10Z</time></trkpt><trkpt lat="42.68736785306426" lon="12.794885596585171"><ele>448.59999999999997</ele><time>2026-04-22T14:08:11Z</time></trkpt><trkpt lat="42.68730396239399" lon="12.794781010707384"><ele>446.40000000000003</ele><time>2026-04-22T14:08:12Z</time></trkpt><trkpt lat="42.687254388913516" lon="12.794673283214324"><ele>444.20000000000005</ele><time>2026-04-22T14:08:13Z</time></trkpt><trkpt lat="42.6872295355356" lon="12.794554725748167"><ele>442.0</ele><time>2026-04-22T14:08:14Z</time></trkpt><trkpt lat="42.68721819242636" lon="12.794445126265694"><ele>442.00000000000006</ele><time>2026-04-22T14:08:15Z</time></trkpt><trkpt lat="42.68720859880069" lon="12.794339375919863"><ele>442.0</ele><time>2026-04-22T14:08:16Z</time></trkpt><trkpt lat="42.68719954740466" lon="12.794236000721732"><ele>442.0</ele><time>2026-04-22T14:08:17Z</time></trkpt><trkpt lat="42.6871973616737" lon="12.794116462534623"><ele>442.0</ele><time>2026-04-22T14:08:18Z</time></trkpt><trkpt lat="42.68720322866665" lon="12.7939865429717"><ele>442.00000000000006</ele><time>2026-04-22T14:08:19Z</time></trkpt><trkpt lat="42.68722003984164" lon="12.79385318043357"><ele>442.0</ele><time>2026-04-22T14:08:20Z</time></trkpt><trkpt lat="42.68724040281502" lon="12.793724067813114"><ele>440.6666666666667</ele><time>2026-04-22T14:08:21Z</time></trkpt><trkpt lat="42.68726212407673" lon="12.79360078385591"><ele>439.33333333333337</ele><time>2026-04-22T14:08:22Z</time></trkpt><trkpt lat="42.68727580459555" lon="12.79349316248307"><ele>438.0</ele><time>2026-04-22T14:08:23Z</time></trkpt><trkpt lat="42.68728420165036" lon="12.793390588071262"><ele>436.66666666666663</ele><time>2026-04-22T14:08:24Z</time></trkpt><trkpt lat="42.68729231096277" lon="12.793299103704841"><ele>435.3333333333333</ele><time>2026-04-22T14:08:25Z</time></trkpt><trkpt lat="42.687350413654634" lon="12.793138568126015"><ele>434.0</ele><time>2026-04-22T14:08:27Z</time></trkpt><trkpt lat="42.68741416811711" lon="12.793082741367954"><ele>434.0</ele><time>2026-04-22T14:08:28Z</time></trkpt><trkpt lat="42.68749968551992" lon="12.793054838996003"><ele>434.0</ele><time>2026-04-22T14:08:29Z</time></trkpt><trkpt lat="42.687594152702474" lon="12.793053822077393"><ele>434.0</ele><time>2026-04-22T14:08:30Z</time></trkpt><trkpt lat="42.68769656425551" lon="12.793067477300267"><ele>434.0</ele><time>2026-04-22T14:08:31Z</time></trkpt><trkpt lat="42.687798482652" lon="12.79308427948066"><ele>434.0</ele><time>2026-04-22T14:08:32Z</time></trkpt><trkpt lat="42.68791456677038" lon="12.793102653050987"><ele>433.0</ele><time>2026-04-22T14:08:33Z</time></trkpt><trkpt lat="42.68803620459016" lon="12.793124144902396"><ele>432.0</ele><time>2026-04-22T14:08:34Z</time></trkpt><trkpt lat="42.68814826491528" lon="12.793148331132583"><ele>431.0</ele><time>2026-04-22T14:08:35Z</time></trkpt><trkpt lat="42.688249525949196" lon="12.793182497842313"><ele>430.0</ele><time>2026-04-22T14:08:36Z</time></trkpt><trkpt lat="42.68834171778664" lon="12.793225744875407"><ele>429.0</ele><time>2026-04-22T14:08:37Z</time></trkpt><trkpt lat="42.68842685842201" lon="12.79327315070571"><ele>429.0</ele><time>2026-04-22T14:08:38Z</time></trkpt><trkpt lat="42.68850482973557" lon="12.793320150970422"><ele>429.0</ele><time>2026-04-22T14:08:39Z</time></trkpt><trkpt lat="42.68857852257278" lon="12.793366152523863"><ele>429.0</ele><time>2026-04-22T14:08:40Z</time></trkpt><trkpt lat="42.68865114437427" lon="12.793413188293428"><ele>429.0</ele><time>2026-04-22T14:08:41Z</time></trkpt><trkpt lat="42.68871968211832" lon="12.793466204162215"><ele>429.0</ele><time>2026-04-22T14:08:42Z</time></trkpt><trkpt lat="42.688772650750415" lon="12.793532452101035"><ele>429.0</ele><time>2026-04-22T14:08:43Z</time></trkpt><trkpt lat="42.68880774878524" lon="12.793624272183735"><ele>424.6666666666667</ele><time>2026-04-22T14:08:44Z</time></trkpt><trkpt lat="42.68881240820518" lon="12.793727352873045"><ele>420.33333333333337</ele><time>2026-04-22T14:08:45Z</time></trkpt><trkpt lat="42.68879242323741" lon="12.793826099104793"><ele>416.0</ele><time>2026-04-22T14:08:46Z</time></trkpt><trkpt lat="42.688772065076776" lon="12.793908836092177"><ele>411.6666666666667</ele><time>2026-04-22T14:08:47Z</time></trkpt><trkpt lat="42.688806658345285" lon="12.793991207168396"><ele>407.33333333333337</ele><time>2026-04-22T14:08:49Z</time></trkpt><trkpt lat="42.68887353658037" lon="12.793882420536525"><ele>403.0</ele><time>2026-04-22T14:08:51Z</time></trkpt><trkpt lat="42.68888417702376" lon="12.79376171538288"><ele>403.0</ele><time>2026-04-22T14:08:52Z</time></trkpt><trkpt lat="42.688903750784206" lon="12.793640824560722"><ele>403.0</ele><time>2026-04-22T14:08:53Z</time></trkpt><trkpt lat="42.68892562376591" lon="12.793508849667939"><ele>403.0</ele><time>2026-04-22T14:08:54Z</time></trkpt><trkpt lat="42.689016843504874" lon="12.793374176177945"><ele>403.0</ele><time>2026-04-22T14:08:56Z</time></trkpt><trkpt lat="42.68905733345327" lon="12.793263369029104"><ele>403.0</ele><time>2026-04-22T14:08:57Z</time></trkpt><trkpt lat="42.68909079592172" lon="12.793177384310512"><ele>403.00000000000006</ele><time>2026-04-22T14:08:58Z</time></trkpt><trkpt lat="42.68915767178252" lon="12.793151180925605"><ele>403.0</ele><time>2026-04-22T14:09:00Z</time></trkpt><trkpt lat="42.68918356963376" lon="12.793282164112856"><ele>403.0</ele><time>2026-04-22T14:09:02Z</time></trkpt><trkpt lat="42.68915784482512" lon="12.793371380463071"><ele>403.0</ele><time>2026-04-22T14:09:03Z</time></trkpt><trkpt lat="42.689115584901465" lon="12.793475257930435"><ele>403.00000000000006</ele><time>2026-04-22T14:09:04Z</time></trkpt><trkpt lat="42.689072364919674" lon="12.793603814564507"><ele>403.0</ele><time>2026-04-22T14:09:05Z</time></trkpt><trkpt lat="42.689057535006725" lon="12.793749508146833"><ele>403.00000000000006</ele><time>2026-04-22T14:09:06Z</time></trkpt><trkpt lat="42.6890532293799" lon="12.793892510074464"><ele>403.0</ele><time>2026-04-22T14:09:07Z</time></trkpt><trkpt lat="42.68906585503538" lon="12.794015281753818"><ele>403.0</ele><time>2026-04-22T14:09:08Z</time></trkpt><trkpt lat="42.689091028544" lon="12.79412596013263"><ele>403.0</ele><time>2026-04-22T14:09:09Z</time></trkpt><trkpt lat="42.68913886138103" lon="12.794219830770292"><ele>403.00000000000006</ele><time>2026-04-22T14:09:10Z</time></trkpt><trkpt lat="42.68917641899888" lon="12.794317244884947"><ele>403.0</ele><time>2026-04-22T14:09:11Z</time></trkpt><trkpt lat="42.689196785716966" lon="12.794410354455563"><ele>403.0</ele><time>2026-04-22T14:09:12Z</time></trkpt><trkpt lat="42.68924433791884" lon="12.79450345320582"><ele>403.0</ele><time>2026-04-22T14:09:14Z</time></trkpt><trkpt lat="42.689307014065676" lon="12.794438758846033"><ele>403.0</ele><time>2026-04-22T14:09:16Z</time></trkpt><trkpt lat="42.68926328990338" lon="12.794263220175472"><ele>403.0</ele><time>2026-04-22T14:09:18Z</time></trkpt><trkpt lat="42.68922606687246" lon="12.794156583432834"><ele>403.0</ele><time>2026-04-22T14:09:19Z</time></trkpt><trkpt lat="42.68920463442948" lon="12.794045729670355"><ele>403.0</ele><time>2026-04-22T14:09:20Z</time></trkpt><trkpt lat="42.689208109346495" lon="12.793915766136074"><ele>403.0</ele><time>2026-04-22T14:09:21Z</time></trkpt><trkpt lat="42.689231069982256" lon="12.79378987435727"><ele>403.0</ele><time>2026-04-22T14:09:22Z</time></trkpt><trkpt lat="42.689261257085846" lon="12.793670250127473"><ele>403.0</ele><time>2026-04-22T14:09:23Z</time></trkpt><trkpt lat="42.68929751213543" lon="12.793569346210786"><ele>403.0</ele><time>2026-04-22T14:09:24Z</time></trkpt><trkpt lat="42.68934967223935" lon="12.793471025494307"><ele>403.0</ele><time>2026-04-22T14:09:26Z</time></trkpt><trkpt lat="42.68941125209947" lon="12.793519999105415"><ele>403.0</ele><time>2026-04-22T14:09:28Z</time></trkpt><trkpt lat="42.689389326174116" lon="12.793690287115231"><ele>403.0</ele><time>2026-04-22T14:09:30Z</time></trkpt><trkpt lat="42.68935067277334" lon="12.793800215555253"><ele>403.0</ele><time>2026-04-22T14:09:31Z</time></trkpt><trkpt lat="42.68933316886401" lon="12.793915880595877"><ele>403.0</ele><time>2026-04-22T14:09:32Z</time></trkpt><trkpt lat="42.68934637378745" lon="12.794032542070894"><ele>403.0</ele><time>2026-04-22T14:09:33Z</time></trkpt><trkpt lat="42.6893767976613" lon="12.794169700338148"><ele>403.0</ele><time>2026-04-22T14:09:34Z</time></trkpt><trkpt lat="42.689421593133865" lon="12.79431204266451"><ele>403.0</ele><time>2026-04-22T14:09:35Z</time></trkpt><trkpt lat="42.68945408488066" lon="12.794438074661956"><ele>403.0</ele><time>2026-04-22T14:09:36Z</time></trkpt><trkpt lat="42.68946301893968" lon="12.794562153150487"><ele>403.0</ele><time>2026-04-22T14:09:37Z</time></trkpt><trkpt lat="42.68944117203681" lon="12.79467731922673"><ele>397.75</ele><time>2026-04-22T14:09:38Z</time></trkpt><trkpt lat="42.689396003341976" lon="12.794802028000845"><ele>392.5</ele><time>2026-04-22T14:09:39Z</time></trkpt><trkpt lat="42.689329701412824" lon="12.794931737121207"><ele>387.25</ele><time>2026-04-22T14:09:40Z</time></trkpt><trkpt lat="42.68926789980521" lon="12.795056210395485"><ele>382.0</ele><time>2026-04-22T14:09:41Z</time></trkpt><trkpt lat="42.6891638102696" lon="12.795158525923899"><ele>378.8</ele><time>2026-04-22T14:09:42Z</time></trkpt><trkpt lat="42.68908582442722" lon="12.795264550380681"><ele>375.6</ele><time>2026-04-22T14:09:43Z</time></trkpt><trkpt lat="42.68902840117307" lon="12.795381420921025"><ele>372.40000000000003</ele><time>2026-04-22T14:09:44Z</time></trkpt><trkpt lat="42.68899442086357" lon="12.795511890448228"><ele>369.20000000000005</ele><time>2026-04-22T14:09:45Z</time></trkpt><trkpt lat="42.68895960214829" lon="12.7956284701705"><ele>366.0</ele><time>2026-04-22T14:09:46Z</time></trkpt><trkpt lat="42.688922844961844" lon="12.7957271057247"><ele>366.0</ele><time>2026-04-22T14:09:46.999Z</time></trkpt><trkpt lat="42.68890186681812" lon="12.795817703689885"><ele>366.0</ele><time>2026-04-22T14:09:47.999Z</time></trkpt><trkpt lat="42.68890803220857" lon="12.795914798264722"><ele>366.0</ele><time>2026-04-22T14:09:48.999Z</time></trkpt><trkpt lat="42.68893638009346" lon="12.796006695514576"><ele>366.0</ele><time>2026-04-22T14:09:49.999Z</time></trkpt><trkpt lat="42.6889642156085" lon="12.796099920073278"><ele>366.0</ele><time>2026-04-22T14:09:50.999Z</time></trkpt><trkpt lat="42.688987798454114" lon="12.796193841095311"><ele>366.0</ele><time>2026-04-22T14:09:51.999Z</time></trkpt><trkpt lat="42.68901690543974" lon="12.796273624511807"><ele>366.0</ele><time>2026-04-22T14:09:52.999Z</time></trkpt><trkpt lat="42.68911476763413" lon="12.796355544201306"><ele>366.6</ele><time>2026-04-22T14:09:54.999Z</time></trkpt><trkpt lat="42.68924582090155" lon="12.796337891267957"><ele>367.20000000000005</ele><time>2026-04-22T14:09:56.999Z</time></trkpt><trkpt lat="42.68931764455918" lon="12.796307997344282"><ele>367.79999999999995</ele><time>2026-04-22T14:09:57.999Z</time></trkpt><trkpt lat="42.68938776241221" lon="12.796277101819543"><ele>368.4</ele><time>2026-04-22T14:09:58.999Z</time></trkpt><trkpt lat="42.68945087193026" lon="12.796252993297697"><ele>369.0</ele><time>2026-04-22T14:09:59.999Z</time></trkpt><trkpt lat="42.689560221491014" lon="12.796277519781222"><ele>369.0</ele><time>2026-04-22T14:10:02Z</time></trkpt><trkpt lat="42.689665842707974" lon="12.796306918873727"><ele>369.0</ele><time>2026-04-22T14:10:04Z</time></trkpt><trkpt lat="42.68975518174718" lon="12.796384334512002"><ele>369.0</ele><time>2026-04-22T14:10:06Z</time></trkpt><trkpt lat="42.689758995794115" lon="12.796487346761042"><ele>369.0</ele><time>2026-04-22T14:10:08Z</time></trkpt><trkpt lat="42.68971794820467" lon="12.79659502359596"><ele>369.0</ele><time>2026-04-22T14:10:10Z</time></trkpt><trkpt lat="42.68967144898523" lon="12.79676050128141"><ele>369.0</ele><time>2026-04-22T14:10:12Z</time></trkpt><trkpt lat="42.689654543548805" lon="12.796908270154669"><ele>369.0</ele><time>2026-04-22T14:10:14Z</time></trkpt><trkpt lat="42.68963606785733" lon="12.79707413296863"><ele>369.0</ele><time>2026-04-22T14:10:16Z</time></trkpt><trkpt lat="42.689602590270006" lon="12.79715120973589"><ele>369.0</ele><time>2026-04-22T14:10:17Z</time></trkpt><trkpt lat="42.6895416785338" lon="12.797241786562031"><ele>369.0</ele><time>2026-04-22T14:10:18Z</time></trkpt><trkpt lat="42.689489627355684" lon="12.797354287330572"><ele>369.0</ele><time>2026-04-22T14:10:19Z</time></trkpt><trkpt lat="42.68944316273228" lon="12.797484535570975"><ele>369.0</ele><time>2026-04-22T14:10:20Z</time></trkpt><trkpt lat="42.68940429879534" lon="12.797610812722574"><ele>369.0</ele><time>2026-04-22T14:10:21Z</time></trkpt><trkpt lat="42.689369550228484" lon="12.79772203700812"><ele>369.0</ele><time>2026-04-22T14:10:22Z</time></trkpt><trkpt lat="42.6893321704304" lon="12.797819035891845"><ele>369.0</ele><time>2026-04-22T14:10:23Z</time></trkpt><trkpt lat="42.689287579891385" lon="12.797893491461435"><ele>369.0</ele><time>2026-04-22T14:10:24Z</time></trkpt><trkpt lat="42.68922669924278" lon="12.797949094316378"><ele>366.8333333333333</ele><time>2026-04-22T14:10:25Z</time></trkpt><trkpt lat="42.68916122267253" lon="12.797982811613966"><ele>364.6666666666667</ele><time>2026-04-22T14:10:26Z</time></trkpt><trkpt lat="42.6890947029808" lon="12.798031794746393"><ele>362.5</ele><time>2026-04-22T14:10:27Z</time></trkpt><trkpt lat="42.68903473131847" lon="12.798113149160013"><ele>360.33333333333337</ele><time>2026-04-22T14:10:28Z</time></trkpt><trkpt lat="42.688993539185404" lon="12.798222570281682"><ele>358.1666666666667</ele><time>2026-04-22T14:10:29Z</time></trkpt><trkpt lat="42.688956771736095" lon="12.798353898457643"><ele>356.0</ele><time>2026-04-22T14:10:30Z</time></trkpt><trkpt lat="42.68892326600527" lon="12.798489617934719"><ele>358.75</ele><time>2026-04-22T14:10:31Z</time></trkpt><trkpt lat="42.68887778569334" lon="12.798635413983288"><ele>361.5</ele><time>2026-04-22T14:10:32Z</time></trkpt><trkpt lat="42.6888201032441" lon="12.79877972328489"><ele>364.25</ele><time>2026-04-22T14:10:33Z</time></trkpt><trkpt lat="42.688760067150824" lon="12.798924386630956"><ele>367.0</ele><time>2026-04-22T14:10:34Z</time></trkpt><trkpt lat="42.68870149009788" lon="12.799068833287485"><ele>367.0</ele><time>2026-04-22T14:10:35Z</time></trkpt><trkpt lat="42.68864133944806" lon="12.799204547008443"><ele>367.0</ele><time>2026-04-22T14:10:36Z</time></trkpt><trkpt lat="42.688583610672595" lon="12.799332656731961"><ele>367.0</ele><time>2026-04-22T14:10:37Z</time></trkpt><trkpt lat="42.688541701456195" lon="12.79946219542023"><ele>367.0</ele><time>2026-04-22T14:10:38Z</time></trkpt><trkpt lat="42.68851561769866" lon="12.799602780161358"><ele>367.0</ele><time>2026-04-22T14:10:39Z</time></trkpt><trkpt lat="42.68848704807772" lon="12.799748325683666"><ele>367.40000000000003</ele><time>2026-04-22T14:10:40Z</time></trkpt><trkpt lat="42.68844730420871" lon="12.799882316903162"><ele>367.8</ele><time>2026-04-22T14:10:41Z</time></trkpt><trkpt lat="42.688405255268705" lon="12.800009888645127"><ele>368.2</ele><time>2026-04-22T14:10:42Z</time></trkpt><trkpt lat="42.68838516835413" lon="12.800135651843995"><ele>368.6</ele><time>2026-04-22T14:10:43Z</time></trkpt><trkpt lat="42.688391370463044" lon="12.80027139401554"><ele>369.0</ele><time>2026-04-22T14:10:44Z</time></trkpt><trkpt lat="42.688408669262564" lon="12.800425296320423"><ele>366.0</ele><time>2026-04-22T14:10:45Z</time></trkpt><trkpt lat="42.6883990978575" lon="12.800592343464748"><ele>363.0</ele><time>2026-04-22T14:10:46Z</time></trkpt><trkpt lat="42.688355364349704" lon="12.80076259612227"><ele>360.0</ele><time>2026-04-22T14:10:47Z</time></trkpt><trkpt lat="42.6883057338614" lon="12.80092661802883"><ele>357.0</ele><time>2026-04-22T14:10:48Z</time></trkpt><trkpt lat="42.688264192464004" lon="12.801073245057772"><ele>356.8</ele><time>2026-04-22T14:10:49Z</time></trkpt><trkpt lat="42.688214284680285" lon="12.80120578017793"><ele>356.6</ele><time>2026-04-22T14:10:50Z</time></trkpt><trkpt lat="42.688156503938316" lon="12.801320823586368"><ele>356.40000000000003</ele><time>2026-04-22T14:10:51Z</time></trkpt><trkpt lat="42.6880886029108" lon="12.801421666592997"><ele>356.20000000000005</ele><time>2026-04-22T14:10:52Z</time></trkpt><trkpt lat="42.68800756565821" lon="12.801508891078102"><ele>356.0</ele><time>2026-04-22T14:10:53Z</time></trkpt><trkpt lat="42.687921790134745" lon="12.801587096940057"><ele>356.0</ele><time>2026-04-22T14:10:54Z</time></trkpt><trkpt lat="42.68783671284712" lon="12.801669069385257"><ele>356.0</ele><time>2026-04-22T14:10:55Z</time></trkpt><trkpt lat="42.68775663523066" lon="12.801765975055591"><ele>356.0</ele><time>2026-04-22T14:10:56Z</time></trkpt><trkpt lat="42.68768059364061" lon="12.801890251310436"><ele>356.0</ele><time>2026-04-22T14:10:57Z</time></trkpt><trkpt lat="42.68759576010709" lon="12.802014104387851"><ele>349.25</ele><time>2026-04-22T14:10:58Z</time></trkpt><trkpt lat="42.68748621032527" lon="12.802120883897537"><ele>342.5</ele><time>2026-04-22T14:10:59Z</time></trkpt><trkpt lat="42.68737735063825" lon="12.80223346066069"><ele>335.75</ele><time>2026-04-22T14:11:00Z</time></trkpt><trkpt lat="42.687296293827714" lon="12.802362539820868"><ele>329.0</ele><time>2026-04-22T14:11:01Z</time></trkpt><trkpt lat="42.687237853577734" lon="12.802473107091522"><ele>329.0</ele><time>2026-04-22T14:11:02Z</time></trkpt><trkpt lat="42.68719406078318" lon="12.802561771937825"><ele>329.0</ele><time>2026-04-22T14:11:03Z</time></trkpt><trkpt lat="42.68716981934463" lon="12.80265832102008"><ele>329.0</ele><time>2026-04-22T14:11:04Z</time></trkpt><trkpt lat="42.68717732478" lon="12.802776985334159"><ele>329.0</ele><time>2026-04-22T14:11:05Z</time></trkpt><trkpt lat="42.687204488512165" lon="12.802913591859921"><ele>329.0</ele><time>2026-04-22T14:11:06Z</time></trkpt><trkpt lat="42.68723186824675" lon="12.803066478949525"><ele>328.75</ele><time>2026-04-22T14:11:07Z</time></trkpt><trkpt lat="42.687253377355766" lon="12.803238653000431"><ele>328.5</ele><time>2026-04-22T14:11:08Z</time></trkpt><trkpt lat="42.687273875998876" lon="12.803414339083385"><ele>328.25</ele><time>2026-04-22T14:11:09Z</time></trkpt><trkpt lat="42.68729757330345" lon="12.803570644593663"><ele>328.0</ele><time>2026-04-22T14:11:10Z</time></trkpt><trkpt lat="42.687311015059606" lon="12.803715609579482"><ele>329.0</ele><time>2026-04-22T14:11:11Z</time></trkpt><trkpt lat="42.68729399842898" lon="12.803852631554713"><ele>330.0</ele><time>2026-04-22T14:11:12Z</time></trkpt><trkpt lat="42.68723214840674" lon="12.80397634375483"><ele>331.0</ele><time>2026-04-22T14:11:13Z</time></trkpt><trkpt lat="42.687146470183" lon="12.804103878894056"><ele>332.0</ele><time>2026-04-22T14:11:14Z</time></trkpt><trkpt lat="42.687050350151274" lon="12.804247028542656"><ele>333.25</ele><time>2026-04-22T14:11:15Z</time></trkpt><trkpt lat="42.686963391195754" lon="12.804390289045864"><ele>334.5</ele><time>2026-04-22T14:11:16Z</time></trkpt><trkpt lat="42.68689253445902" lon="12.804521091165219"><ele>335.75</ele><time>2026-04-22T14:11:17Z</time></trkpt><trkpt lat="42.68685263227439" lon="12.804655900312722"><ele>337.0</ele><time>2026-04-22T14:11:18Z</time></trkpt><trkpt lat="42.686828400308954" lon="12.804796181066429"><ele>332.25</ele><time>2026-04-22T14:11:19Z</time></trkpt><trkpt lat="42.68678334186395" lon="12.804918940880622"><ele>327.5</ele><time>2026-04-22T14:11:20Z</time></trkpt><trkpt lat="42.686701796476" lon="12.805019747285321"><ele>322.75</ele><time>2026-04-22T14:11:21Z</time></trkpt><trkpt lat="42.68660012170475" lon="12.805116638688931"><ele>318.0</ele><time>2026-04-22T14:11:22Z</time></trkpt><trkpt lat="42.686499697852334" lon="12.805226792717127"><ele>317.6</ele><time>2026-04-22T14:11:23Z</time></trkpt><trkpt lat="42.68642549109437" lon="12.805342868981246"><ele>317.20000000000005</ele><time>2026-04-22T14:11:24Z</time></trkpt><trkpt lat="42.686382244295956" lon="12.805464405538398"><ele>316.8</ele><time>2026-04-22T14:11:25Z</time></trkpt><trkpt lat="42.68636689245069" lon="12.805600786131391"><ele>316.40000000000003</ele><time>2026-04-22T14:11:26Z</time></trkpt><trkpt lat="42.68637167596178" lon="12.80575178931852"><ele>316.0</ele><time>2026-04-22T14:11:27Z</time></trkpt><trkpt lat="42.6863763570718" lon="12.805926193599118"><ele>314.25</ele><time>2026-04-22T14:11:28Z</time></trkpt><trkpt lat="42.68635940576721" lon="12.80608763861048"><ele>312.5</ele><time>2026-04-22T14:11:29Z</time></trkpt><trkpt lat="42.68634329559362" lon="12.806231340407923"><ele>310.75</ele><time>2026-04-22T14:11:30Z</time></trkpt><trkpt lat="42.6863412502927" lon="12.806376138997278"><ele>309.0</ele><time>2026-04-22T14:11:31Z</time></trkpt><trkpt lat="42.68636358268776" lon="12.806534801289393"><ele>309.0</ele><time>2026-04-22T14:11:32Z</time></trkpt><trkpt lat="42.686388120068536" lon="12.806709487621104"><ele>309.0</ele><time>2026-04-22T14:11:33Z</time></trkpt><trkpt lat="42.68640513905635" lon="12.806892474108858"><ele>309.0</ele><time>2026-04-22T14:11:34Z</time></trkpt><trkpt lat="42.6864153132183" lon="12.807072250934446"><ele>309.0</ele><time>2026-04-22T14:11:35Z</time></trkpt><trkpt lat="42.68642538777036" lon="12.807254949223006"><ele>308.0</ele><time>2026-04-22T14:11:36Z</time></trkpt><trkpt lat="42.68643233035125" lon="12.807444048783108"><ele>307.0</ele><time>2026-04-22T14:11:37Z</time></trkpt><trkpt lat="42.686439588490764" lon="12.807634736559942"><ele>306.0</ele><time>2026-04-22T14:11:38Z</time></trkpt><trkpt lat="42.68644850875579" lon="12.807817310145632"><ele>305.0</ele><time>2026-04-22T14:11:39Z</time></trkpt><trkpt lat="42.68646450130706" lon="12.807995313610963"><ele>304.25</ele><time>2026-04-22T14:11:40Z</time></trkpt><trkpt lat="42.68649448735501" lon="12.808172105284992"><ele>303.5</ele><time>2026-04-22T14:11:41Z</time></trkpt><trkpt lat="42.68653455346223" lon="12.808337031022655"><ele>302.75</ele><time>2026-04-22T14:11:42Z</time></trkpt><trkpt lat="42.68657630897393" lon="12.808493419888189"><ele>302.0</ele><time>2026-04-22T14:11:43Z</time></trkpt><trkpt lat="42.68662088950344" lon="12.808638122816134"><ele>301.8</ele><time>2026-04-22T14:11:44Z</time></trkpt><trkpt lat="42.68666092356924" lon="12.808767691353331"><ele>301.6</ele><time>2026-04-22T14:11:45Z</time></trkpt><trkpt lat="42.68669389456246" lon="12.80889263752097"><ele>301.40000000000003</ele><time>2026-04-22T14:11:46Z</time></trkpt><trkpt lat="42.68671797322702" lon="12.809015075164506"><ele>301.2</ele><time>2026-04-22T14:11:47Z</time></trkpt><trkpt lat="42.68673047619137" lon="12.809139165546943"><ele>301.0</ele><time>2026-04-22T14:11:48Z</time></trkpt><trkpt lat="42.68674249220697" lon="12.809276720668295"><ele>301.2</ele><time>2026-04-22T14:11:49Z</time></trkpt><trkpt lat="42.68676531695914" lon="12.809424028243063"><ele>301.40000000000003</ele><time>2026-04-22T14:11:50Z</time></trkpt><trkpt lat="42.686799698829965" lon="12.809575323172307"><ele>301.6</ele><time>2026-04-22T14:11:51Z</time></trkpt><trkpt lat="42.686833081328224" lon="12.809714882455996"><ele>301.8</ele><time>2026-04-22T14:11:51.999Z</time></trkpt><trkpt lat="42.686850661287416" lon="12.809850155156914"><ele>302.0</ele><time>2026-04-22T14:11:52.999Z</time></trkpt><trkpt lat="42.6868381203814" lon="12.809968592819246"><ele>302.0</ele><time>2026-04-22T14:11:53.999Z</time></trkpt><trkpt lat="42.68679121336156" lon="12.810066103349145"><ele>302.0</ele><time>2026-04-22T14:11:54.999Z</time></trkpt><trkpt lat="42.686739308434234" lon="12.810170604269828"><ele>302.0</ele><time>2026-04-22T14:11:55.999Z</time></trkpt><trkpt lat="42.68670722423127" lon="12.81030457678035"><ele>302.0</ele><time>2026-04-22T14:11:56.999Z</time></trkpt><trkpt lat="42.68669240096953" lon="12.810462832672266"><ele>302.0</ele><time>2026-04-22T14:11:57.999Z</time></trkpt><trkpt lat="42.68666722876354" lon="12.8106280625127"><ele>301.0</ele><time>2026-04-22T14:11:58.999Z</time></trkpt><trkpt lat="42.68662524488819" lon="12.810780641125413"><ele>300.0</ele><time>2026-04-22T14:11:59.999Z</time></trkpt><trkpt lat="42.68657696297462" lon="12.810931768932036"><ele>299.0</ele><time>2026-04-22T14:12:00.999Z</time></trkpt><trkpt lat="42.686539231294944" lon="12.811091276401436"><ele>298.0</ele><time>2026-04-22T14:12:01.999Z</time></trkpt><trkpt lat="42.68651603503574" lon="12.811259267932195"><ele>297.0</ele><time>2026-04-22T14:12:02.999Z</time></trkpt><trkpt lat="42.68650177399717" lon="12.811421449936388"><ele>296.0</ele><time>2026-04-22T14:12:03.999Z</time></trkpt><trkpt lat="42.68649838604114" lon="12.811569032722943"><ele>295.0</ele><time>2026-04-22T14:12:04.999Z</time></trkpt><trkpt lat="42.6865202236011" lon="12.811709150410655"><ele>294.0</ele><time>2026-04-22T14:12:05.999Z</time></trkpt><trkpt lat="42.686572191393594" lon="12.811846835886922"><ele>293.0</ele><time>2026-04-22T14:12:06.999Z</time></trkpt><trkpt lat="42.686651403122546" lon="12.811993410018399"><ele>292.75</ele><time>2026-04-22T14:12:07.999Z</time></trkpt><trkpt lat="42.68672649334358" lon="12.812157726148683"><ele>292.5</ele><time>2026-04-22T14:12:08.999Z</time></trkpt><trkpt lat="42.68678957240447" lon="12.812332040353704"><ele>292.25</ele><time>2026-04-22T14:12:09.999Z</time></trkpt><trkpt lat="42.68684568561571" lon="12.812505110455014"><ele>292.0</ele><time>2026-04-22T14:12:10.999Z</time></trkpt><trkpt lat="42.68689050971031" lon="12.812672254653659"><ele>292.0</ele><time>2026-04-22T14:12:11.999Z</time></trkpt><trkpt lat="42.6869218267785" lon="12.81283799666886"><ele>292.0</ele><time>2026-04-22T14:12:12.999Z</time></trkpt><trkpt lat="42.686946678108804" lon="12.813000748365766"><ele>292.0</ele><time>2026-04-22T14:12:13.999Z</time></trkpt><trkpt lat="42.68698441630637" lon="12.813160675583674"><ele>292.0</ele><time>2026-04-22T14:12:14.999Z</time></trkpt><trkpt lat="42.68703198094688" lon="12.813327073174186"><ele>290.5</ele><time>2026-04-22T14:12:15.999Z</time></trkpt><trkpt lat="42.68706748697449" lon="12.813501886383166"><ele>289.0</ele><time>2026-04-22T14:12:16.999Z</time></trkpt><trkpt lat="42.68708015671478" lon="12.81366955609176"><ele>287.5</ele><time>2026-04-22T14:12:17.999Z</time></trkpt><trkpt lat="42.68708032308904" lon="12.81382499923807"><ele>286.0</ele><time>2026-04-22T14:12:18.999Z</time></trkpt><trkpt lat="42.68707642403857" lon="12.813965093803763"><ele>286.0</ele><time>2026-04-22T14:12:19.999Z</time></trkpt><trkpt lat="42.687062448524664" lon="12.81410064207422"><ele>286.0</ele><time>2026-04-22T14:12:21Z</time></trkpt><trkpt lat="42.687027590292765" lon="12.81424213175087"><ele>286.0</ele><time>2026-04-22T14:12:22Z</time></trkpt><trkpt lat="42.68698222687249" lon="12.814396451273199"><ele>286.0</ele><time>2026-04-22T14:12:23Z</time></trkpt><trkpt lat="42.68694044165714" lon="12.814563021239051"><ele>285.0</ele><time>2026-04-22T14:12:24Z</time></trkpt><trkpt lat="42.68690282183341" lon="12.81473460904212"><ele>284.0</ele><time>2026-04-22T14:12:25Z</time></trkpt><trkpt lat="42.686867001688064" lon="12.81489821044311"><ele>283.0</ele><time>2026-04-22T14:12:26Z</time></trkpt><trkpt lat="42.68682290556615" lon="12.815061137552219"><ele>282.0</ele><time>2026-04-22T14:12:27Z</time></trkpt><trkpt lat="42.686759350382985" lon="12.81523084428883"><ele>281.3333333333333</ele><time>2026-04-22T14:12:28Z</time></trkpt><trkpt lat="42.686686460254805" lon="12.815406948287286"><ele>280.66666666666663</ele><time>2026-04-22T14:12:29Z</time></trkpt><trkpt lat="42.68661113860536" lon="12.815594016230545"><ele>280.0</ele><time>2026-04-22T14:12:30Z</time></trkpt><trkpt lat="42.6865320477317" lon="12.815786825218774"><ele>280.0</ele><time>2026-04-22T14:12:31Z</time></trkpt><trkpt lat="42.686442679066566" lon="12.815984436230542"><ele>280.0</ele><time>2026-04-22T14:12:32Z</time></trkpt><trkpt lat="42.68635524667923" lon="12.816177707661637"><ele>280.0</ele><time>2026-04-22T14:12:33Z</time></trkpt><trkpt lat="42.68627506864514" lon="12.816370377903244"><ele>280.0</ele><time>2026-04-22T14:12:34Z</time></trkpt><trkpt lat="42.68620134342981" lon="12.816554937739156"><ele>280.0</ele><time>2026-04-22T14:12:35Z</time></trkpt><trkpt lat="42.68612863477552" lon="12.816725033743355"><ele>280.0</ele><time>2026-04-22T14:12:36Z</time></trkpt><trkpt lat="42.686063208020165" lon="12.816879322770601"><ele>280.0</ele><time>2026-04-22T14:12:37Z</time></trkpt><trkpt lat="42.68600139467742" lon="12.81702935129691"><ele>281.0</ele><time>2026-04-22T14:12:38Z</time></trkpt><trkpt lat="42.685894776143954" lon="12.817326996215598"><ele>282.0</ele><time>2026-04-22T14:12:40Z</time></trkpt><trkpt lat="42.685856967384524" lon="12.8174949752677"><ele>283.0</ele><time>2026-04-22T14:12:41Z</time></trkpt><trkpt lat="42.68582970335176" lon="12.817668640975528"><ele>281.2</ele><time>2026-04-22T14:12:42Z</time></trkpt><trkpt lat="42.68581028402597" lon="12.817830018897778"><ele>279.4</ele><time>2026-04-22T14:12:43Z</time></trkpt><trkpt lat="42.68578957756833" lon="12.817973236127928"><ele>277.59999999999997</ele><time>2026-04-22T14:12:44Z</time></trkpt><trkpt lat="42.68573493569932" lon="12.818074132176353"><ele>275.8</ele><time>2026-04-22T14:12:45Z</time></trkpt><trkpt lat="42.685706373094405" lon="12.818176388127299"><ele>274.0</ele><time>2026-04-22T14:12:47Z</time></trkpt><trkpt lat="42.68567035942559" lon="12.818305106740311"><ele>274.0</ele><time>2026-04-22T14:12:49Z</time></trkpt><trkpt lat="42.68564321014448" lon="12.818406192521966"><ele>274.0</ele><time>2026-04-22T14:12:50Z</time></trkpt><trkpt lat="42.68562039391747" lon="12.818542617332957"><ele>274.0</ele><time>2026-04-22T14:12:51Z</time></trkpt><trkpt lat="42.685518965205944" lon="12.818855910598462"><ele>274.0</ele><time>2026-04-22T14:12:53Z</time></trkpt><trkpt lat="42.68545884006144" lon="12.819031169120985"><ele>274.0</ele><time>2026-04-22T14:12:54Z</time></trkpt><trkpt lat="42.685388271269424" lon="12.81919804377092"><ele>274.0</ele><time>2026-04-22T14:12:55Z</time></trkpt><trkpt lat="42.685306061447946" lon="12.819363493818912"><ele>274.0</ele><time>2026-04-22T14:12:56Z</time></trkpt><trkpt lat="42.68521813053291" lon="12.81952949505709"><ele>274.0</ele><time>2026-04-22T14:12:57Z</time></trkpt><trkpt lat="42.68514231472251" lon="12.819696361262983"><ele>273.2</ele><time>2026-04-22T14:12:58Z</time></trkpt><trkpt lat="42.68505265459836" lon="12.81982817980958"><ele>272.4</ele><time>2026-04-22T14:12:59Z</time></trkpt><trkpt lat="42.68495590852145" lon="12.81992587913839"><ele>271.6</ele><time>2026-04-22T14:13:00Z</time></trkpt><trkpt lat="42.68488353552645" lon="12.82002103739363"><ele>270.8</ele><time>2026-04-22T14:13:01Z</time></trkpt><trkpt lat="42.684823066637385" lon="12.820095490554067"><ele>270.0</ele><time>2026-04-22T14:13:02Z</time></trkpt><trkpt lat="42.684770881312886" lon="12.820145810047974"><ele>271.5</ele><time>2026-04-22T14:13:03Z</time></trkpt><trkpt lat="42.684639591772566" lon="12.820181919076978"><ele>273.0</ele><time>2026-04-22T14:13:05Z</time></trkpt><trkpt lat="42.684530826234635" lon="12.820203745195279"><ele>274.5</ele><time>2026-04-22T14:13:06Z</time></trkpt><trkpt lat="42.68441403775879" lon="12.820233209055743"><ele>276.0</ele><time>2026-04-22T14:13:07Z</time></trkpt><trkpt lat="42.684291601089754" lon="12.820265458217433"><ele>276.0</ele><time>2026-04-22T14:13:08Z</time></trkpt><trkpt lat="42.68417055286625" lon="12.820292935457534"><ele>276.0</ele><time>2026-04-22T14:13:09Z</time></trkpt><trkpt lat="42.68404552996454" lon="12.820316079870297"><ele>276.0</ele><time>2026-04-22T14:13:10Z</time></trkpt><trkpt lat="42.68391587864817" lon="12.820334819281076"><ele>276.0</ele><time>2026-04-22T14:13:11Z</time></trkpt><trkpt lat="42.68377956325174" lon="12.820351449860192"><ele>276.0</ele><time>2026-04-22T14:13:12Z</time></trkpt><trkpt lat="42.68363951107116" lon="12.820366275530127"><ele>276.0</ele><time>2026-04-22T14:13:13Z</time></trkpt><trkpt lat="42.68349162045661" lon="12.820380990922517"><ele>276.0</ele><time>2026-04-22T14:13:14Z</time></trkpt><trkpt lat="42.68334099728205" lon="12.820393711274297"><ele>276.0</ele><time>2026-04-22T14:13:15Z</time></trkpt><trkpt lat="42.68318868013646" lon="12.820406627592135"><ele>276.0</ele><time>2026-04-22T14:13:16Z</time></trkpt><trkpt lat="42.68303349957044" lon="12.820419690208832"><ele>276.0</ele><time>2026-04-22T14:13:17Z</time></trkpt><trkpt lat="42.682878564884646" lon="12.820431063733599"><ele>276.0</ele><time>2026-04-22T14:13:18Z</time></trkpt><trkpt lat="42.68272413725148" lon="12.820442400035507"><ele>278.3333333333333</ele><time>2026-04-22T14:13:19Z</time></trkpt><trkpt lat="42.68256946327796" lon="12.820460374170482"><ele>280.66666666666663</ele><time>2026-04-22T14:13:20Z</time></trkpt><trkpt lat="42.68241438961713" lon="12.820486020818043"><ele>283.0</ele><time>2026-04-22T14:13:21Z</time></trkpt><trkpt lat="42.682277719126496" lon="12.820527253258945"><ele>283.0</ele><time>2026-04-22T14:13:22Z</time></trkpt><trkpt lat="42.68216572973642" lon="12.820590644921628"><ele>283.0</ele><time>2026-04-22T14:13:23Z</time></trkpt><trkpt lat="42.682073952297436" lon="12.820707020952856"><ele>283.0</ele><time>2026-04-22T14:13:24Z</time></trkpt><trkpt lat="42.68200859034477" lon="12.82085402090214"><ele>283.0</ele><time>2026-04-22T14:13:25Z</time></trkpt><trkpt lat="42.68192541670898" lon="12.820999727184184"><ele>287.0</ele><time>2026-04-22T14:13:26Z</time></trkpt><trkpt lat="42.68186256251416" lon="12.8211780766312"><ele>291.0</ele><time>2026-04-22T14:13:27Z</time></trkpt><trkpt lat="42.681800931946526" lon="12.821366845931154"><ele>295.0</ele><time>2026-04-22T14:13:28Z</time></trkpt><trkpt lat="42.68173321122289" lon="12.821558606495916"><ele>295.0</ele><time>2026-04-22T14:13:29Z</time></trkpt><trkpt lat="42.68167525454729" lon="12.821750314531313"><ele>295.0</ele><time>2026-04-22T14:13:30Z</time></trkpt><trkpt lat="42.68160431421731" lon="12.821912272091152"><ele>295.0</ele><time>2026-04-22T14:13:31Z</time></trkpt><trkpt lat="42.68153408551226" lon="12.822069772731982"><ele>295.0</ele><time>2026-04-22T14:13:32Z</time></trkpt><trkpt lat="42.681432589689805" lon="12.822186291940668"><ele>297.5</ele><time>2026-04-22T14:13:33Z</time></trkpt><trkpt lat="42.681325940831336" lon="12.822256590920246"><ele>300.0</ele><time>2026-04-22T14:13:34Z</time></trkpt><trkpt lat="42.68120041462343" lon="12.822332618107147"><ele>302.5</ele><time>2026-04-22T14:13:35Z</time></trkpt><trkpt lat="42.68107011678783" lon="12.822436733575785"><ele>305.0</ele><time>2026-04-22T14:13:36Z</time></trkpt><trkpt lat="42.68094138404464" lon="12.822572750242578"><ele>309.33333333333337</ele><time>2026-04-22T14:13:37Z</time></trkpt><trkpt lat="42.68080940458481" lon="12.822719876825024"><ele>313.6666666666667</ele><time>2026-04-22T14:13:38Z</time></trkpt><trkpt lat="42.68067419364106" lon="12.822873131944528"><ele>318.0</ele><time>2026-04-22T14:13:39Z</time></trkpt><trkpt lat="42.6805343645313" lon="12.823040027092029"><ele>318.0</ele><time>2026-04-22T14:13:40Z</time></trkpt><trkpt lat="42.68039616888286" lon="12.823205201198329"><ele>318.0</ele><time>2026-04-22T14:13:41Z</time></trkpt><trkpt lat="42.68026093244072" lon="12.823371195396751"><ele>318.0</ele><time>2026-04-22T14:13:42Z</time></trkpt><trkpt lat="42.68013094657431" lon="12.823499091774398"><ele>324.3333333333333</ele><time>2026-04-22T14:13:43Z</time></trkpt><trkpt lat="42.67998945286665" lon="12.82359366046432"><ele>330.66666666666663</ele><time>2026-04-22T14:13:44Z</time></trkpt><trkpt lat="42.67984302762025" lon="12.8236588490354"><ele>337.0</ele><time>2026-04-22T14:13:45Z</time></trkpt><trkpt lat="42.679692823976545" lon="12.823676667875631"><ele>337.0</ele><time>2026-04-22T14:13:46Z</time></trkpt><trkpt lat="42.679506979319406" lon="12.823703784941483"><ele>337.0</ele><time>2026-04-22T14:13:47Z</time></trkpt><trkpt lat="42.67933037845471" lon="12.823751876985284"><ele>337.0</ele><time>2026-04-22T14:13:48Z</time></trkpt><trkpt lat="42.679161427450126" lon="12.823812379253662"><ele>337.0</ele><time>2026-04-22T14:13:49Z</time></trkpt><trkpt lat="42.67898106942362" lon="12.82389105287879"><ele>337.0</ele><time>2026-04-22T14:13:50Z</time></trkpt><trkpt lat="42.678800927112036" lon="12.823996196727354"><ele>337.0</ele><time>2026-04-22T14:13:51Z</time></trkpt><trkpt lat="42.67863403047493" lon="12.824149344929852"><ele>344.66666666666663</ele><time>2026-04-22T14:13:52Z</time></trkpt><trkpt lat="42.67848043528978" lon="12.824323330697213"><ele>352.3333333333333</ele><time>2026-04-22T14:13:53Z</time></trkpt><trkpt lat="42.67832573517131" lon="12.824503065630738"><ele>360.0</ele><time>2026-04-22T14:13:54Z</time></trkpt><trkpt lat="42.67817351447872" lon="12.824689481957092"><ele>360.0</ele><time>2026-04-22T14:13:55Z</time></trkpt><trkpt lat="42.67801735061478" lon="12.824863405654977"><ele>360.0</ele><time>2026-04-22T14:13:56Z</time></trkpt><trkpt lat="42.677848137049175" lon="12.825006611313414"><ele>360.0</ele><time>2026-04-22T14:13:57Z</time></trkpt><trkpt lat="42.677669565120326" lon="12.82512642800456"><ele>363.6666666666667</ele><time>2026-04-22T14:13:57.999Z</time></trkpt><trkpt lat="42.677495263412276" lon="12.825247033760403"><ele>367.33333333333337</ele><time>2026-04-22T14:13:58.999Z</time></trkpt><trkpt lat="42.67732099472838" lon="12.825371132339871"><ele>371.0</ele><time>2026-04-22T14:13:59.999Z</time></trkpt><trkpt lat="42.67715191230953" lon="12.825496183455757"><ele>371.0</ele><time>2026-04-22T14:14:00.999Z</time></trkpt><trkpt lat="42.67699384114519" lon="12.825631674729378"><ele>371.0</ele><time>2026-04-22T14:14:01.999Z</time></trkpt><trkpt lat="42.676845184069045" lon="12.825768322604347"><ele>371.0</ele><time>2026-04-22T14:14:02.999Z</time></trkpt><trkpt lat="42.67670425473155" lon="12.825930643277223"><ele>371.33333333333337</ele><time>2026-04-22T14:14:03.999Z</time></trkpt><trkpt lat="42.67659184715489" lon="12.826127030290534"><ele>371.6666666666667</ele><time>2026-04-22T14:14:04.999Z</time></trkpt><trkpt lat="42.676523701684005" lon="12.82635762729153"><ele>372.0</ele><time>2026-04-22T14:14:05.999Z</time></trkpt><trkpt lat="42.67645074626651" lon="12.826592163947831"><ele>380.66666666666663</ele><time>2026-04-22T14:14:06.999Z</time></trkpt><trkpt lat="42.67637431664717" lon="12.826822436183395"><ele>389.3333333333333</ele><time>2026-04-22T14:14:07.999Z</time></trkpt><trkpt lat="42.676306430784464" lon="12.827051682321645"><ele>398.0</ele><time>2026-04-22T14:14:08.999Z</time></trkpt><trkpt lat="42.67623775974416" lon="12.827281851695806"><ele>398.0</ele><time>2026-04-22T14:14:09.999Z</time></trkpt><trkpt lat="42.67614499369638" lon="12.827595619279368"><ele>398.0</ele><time>2026-04-22T14:14:10.999Z</time></trkpt><trkpt lat="42.676065941589876" lon="12.827855572885872"><ele>401.66666666666663</ele><time>2026-04-22T14:14:11.999Z</time></trkpt><trkpt lat="42.67598378689391" lon="12.828112333907193"><ele>405.33333333333337</ele><time>2026-04-22T14:14:12.999Z</time></trkpt><trkpt lat="42.67590419768518" lon="12.828371894195731"><ele>409.0</ele><time>2026-04-22T14:14:13.999Z</time></trkpt><trkpt lat="42.67581156447336" lon="12.828605559363647"><ele>409.0</ele><time>2026-04-22T14:14:14.999Z</time></trkpt><trkpt lat="42.67573482606343" lon="12.828813690110525"><ele>409.0</ele><time>2026-04-22T14:14:15.999Z</time></trkpt><trkpt lat="42.67565862313958" lon="12.828995938944674"><ele>409.0</ele><time>2026-04-22T14:14:16.999Z</time></trkpt><trkpt lat="42.67558352207629" lon="12.829133510471305"><ele>409.0</ele><time>2026-04-22T14:14:17.999Z</time></trkpt><trkpt lat="42.675480779133906" lon="12.829124649726857"><ele>409.0</ele><time>2026-04-22T14:14:18.999Z</time></trkpt><trkpt lat="42.675406282817875" lon="12.82915373333078"><ele>409.0</ele><time>2026-04-22T14:14:19.999Z</time></trkpt><trkpt lat="42.67532190099068" lon="12.829188878769656"><ele>409.0</ele><time>2026-04-22T14:14:21Z</time></trkpt><trkpt lat="42.67520649535696" lon="12.829203229722308"><ele>409.0</ele><time>2026-04-22T14:14:22Z</time></trkpt><trkpt lat="42.675079436597514" lon="12.829245589268023"><ele>413.0</ele><time>2026-04-22T14:14:23Z</time></trkpt><trkpt lat="42.67496642151228" lon="12.829373526436832"><ele>417.0</ele><time>2026-04-22T14:14:24Z</time></trkpt><trkpt lat="42.67484819654371" lon="12.829506341826702"><ele>421.0</ele><time>2026-04-22T14:14:25Z</time></trkpt><trkpt lat="42.67473920303775" lon="12.829640634071588"><ele>425.0</ele><time>2026-04-22T14:14:26Z</time></trkpt><trkpt lat="42.6746494699894" lon="12.829790062979571"><ele>425.0</ele><time>2026-04-22T14:14:27Z</time></trkpt><trkpt lat="42.674567646352514" lon="12.829904211979049"><ele>425.0</ele><time>2026-04-22T14:14:28Z</time></trkpt><trkpt lat="42.67449973278952" lon="12.829977257232711"><ele>425.0</ele><time>2026-04-22T14:14:29Z</time></trkpt><trkpt lat="42.674413876713245" lon="12.829897531603764"><ele>425.0</ele><time>2026-04-22T14:14:30Z</time></trkpt><trkpt lat="42.674310193289" lon="12.829874286415494"><ele>425.0</ele><time>2026-04-22T14:14:31Z</time></trkpt><trkpt lat="42.674176446210396" lon="12.829858303781924"><ele>421.0</ele><time>2026-04-22T14:14:32Z</time></trkpt><trkpt lat="42.67401644107345" lon="12.829870275949997"><ele>417.0</ele><time>2026-04-22T14:14:33Z</time></trkpt><trkpt lat="42.673862964149954" lon="12.829846001009603"><ele>413.0</ele><time>2026-04-22T14:14:34Z</time></trkpt><trkpt lat="42.67371372862512" lon="12.829842174157386"><ele>414.66666666666663</ele><time>2026-04-22T14:14:35Z</time></trkpt><trkpt lat="42.673559902948895" lon="12.829842648262035"><ele>416.33333333333337</ele><time>2026-04-22T14:14:36Z</time></trkpt><trkpt lat="42.673399909652375" lon="12.829851042069887"><ele>418.0</ele><time>2026-04-22T14:14:37Z</time></trkpt><trkpt lat="42.67323283456033" lon="12.829858105285679"><ele>418.0</ele><time>2026-04-22T14:14:38Z</time></trkpt><trkpt lat="42.67306815109749" lon="12.829875650503286"><ele>418.0</ele><time>2026-04-22T14:14:39Z</time></trkpt><trkpt lat="42.672897600424555" lon="12.829889138466532"><ele>418.0</ele><time>2026-04-22T14:14:40Z</time></trkpt><trkpt lat="42.67271811834063" lon="12.82987262926723"><ele>419.33333333333337</ele><time>2026-04-22T14:14:41Z</time></trkpt><trkpt lat="42.67254439034321" lon="12.829887961057253"><ele>420.66666666666663</ele><time>2026-04-22T14:14:42Z</time></trkpt><trkpt lat="42.672367765298205" lon="12.829908632840594"><ele>422.0</ele><time>2026-04-22T14:14:43Z</time></trkpt><trkpt lat="42.67221154933745" lon="12.829926186992628"><ele>422.0</ele><time>2026-04-22T14:14:44Z</time></trkpt><trkpt lat="42.67206612849084" lon="12.829934989002016"><ele>422.0</ele><time>2026-04-22T14:14:45Z</time></trkpt><trkpt lat="42.67193814238325" lon="12.8299431276113"><ele>422.0</ele><time>2026-04-22T14:14:46Z</time></trkpt><trkpt lat="42.67182685117822" lon="12.82996195303531"><ele>422.0</ele><time>2026-04-22T14:14:47Z</time></trkpt><trkpt lat="42.67173499321414" lon="12.830007903413044"><ele>421.8333333333333</ele><time>2026-04-22T14:14:48Z</time></trkpt><trkpt lat="42.67167298145319" lon="12.830079015538798"><ele>421.66666666666663</ele><time>2026-04-22T14:14:49Z</time></trkpt><trkpt lat="42.671660680757256" lon="12.830189338485134"><ele>421.5</ele><time>2026-04-22T14:14:50Z</time></trkpt><trkpt lat="42.67167423846385" lon="12.830274648822817"><ele>421.33333333333337</ele><time>2026-04-22T14:14:51Z</time></trkpt><trkpt lat="42.671759888587964" lon="12.830328836615458"><ele>421.1666666666667</ele><time>2026-04-22T14:14:52Z</time></trkpt><trkpt lat="42.67183688088846" lon="12.830326254885158"><ele>421.0</ele><time>2026-04-22T14:14:53Z</time></trkpt><trkpt lat="42.67193347947921" lon="12.83028420483884"><ele>429.0</ele><time>2026-04-22T14:14:54Z</time></trkpt><trkpt lat="42.672049145929606" lon="12.830260986293236"><ele>437.0</ele><time>2026-04-22T14:14:55Z</time></trkpt><trkpt lat="42.6721717960383" lon="12.830235119785312"><ele>445.0</ele><time>2026-04-22T14:14:56Z</time></trkpt><trkpt lat="42.6723074569159" lon="12.830206874127455"><ele>453.0</ele><time>2026-04-22T14:14:57Z</time></trkpt><trkpt lat="42.67244755038217" lon="12.830187039716169"><ele>453.0</ele><time>2026-04-22T14:14:58Z</time></trkpt><trkpt lat="42.672593515193114" lon="12.830191340557564"><ele>453.0</ele><time>2026-04-22T14:14:59Z</time></trkpt><trkpt lat="42.67274083070554" lon="12.83019660327717"><ele>453.0</ele><time>2026-04-22T14:15:00Z</time></trkpt><trkpt lat="42.6728932181062" lon="12.830235175679025"><ele>453.0</ele><time>2026-04-22T14:15:01Z</time></trkpt><trkpt lat="42.673051335313254" lon="12.830273859655556"><ele>455.66666666666663</ele><time>2026-04-22T14:15:02Z</time></trkpt><trkpt lat="42.673216748133804" lon="12.830315692705597"><ele>458.3333333333333</ele><time>2026-04-22T14:15:03Z</time></trkpt><trkpt lat="42.67338303801273" lon="12.83035380263591"><ele>461.0</ele><time>2026-04-22T14:15:04Z</time></trkpt><trkpt lat="42.67354876436823" lon="12.83039548937445"><ele>459.3333333333333</ele><time>2026-04-22T14:15:05Z</time></trkpt><trkpt lat="42.673713358555936" lon="12.830455256372435"><ele>457.66666666666663</ele><time>2026-04-22T14:15:06Z</time></trkpt><trkpt lat="42.6738661580442" lon="12.830561531065166"><ele>456.0</ele><time>2026-04-22T14:15:07Z</time></trkpt><trkpt lat="42.674019383946806" lon="12.830655436040344"><ele>456.0</ele><time>2026-04-22T14:15:08Z</time></trkpt><trkpt lat="42.674171816706384" lon="12.830744095156614"><ele>456.0</ele><time>2026-04-22T14:15:09Z</time></trkpt><trkpt lat="42.674311857706904" lon="12.830817329234339"><ele>456.0</ele><time>2026-04-22T14:15:10Z</time></trkpt><trkpt lat="42.67444646785896" lon="12.830891248271964"><ele>457.0</ele><time>2026-04-22T14:15:11Z</time></trkpt><trkpt lat="42.67459029706291" lon="12.83092765886572"><ele>458.0</ele><time>2026-04-22T14:15:12Z</time></trkpt><trkpt lat="42.6747371887748" lon="12.830926750003549"><ele>459.0</ele><time>2026-04-22T14:15:13Z</time></trkpt><trkpt lat="42.67487002007224" lon="12.830890229661874"><ele>460.0</ele><time>2026-04-22T14:15:14Z</time></trkpt><trkpt lat="42.674974007197676" lon="12.830817424021703"><ele>460.0</ele><time>2026-04-22T14:15:15Z</time></trkpt><trkpt lat="42.67507467981379" lon="12.830729445351917"><ele>460.0</ele><time>2026-04-22T14:15:16Z</time></trkpt><trkpt lat="42.67517651627477" lon="12.83064626588268"><ele>460.0</ele><time>2026-04-22T14:15:17Z</time></trkpt><trkpt lat="42.675288059382986" lon="12.830586217684123"><ele>460.0</ele><time>2026-04-22T14:15:18Z</time></trkpt><trkpt lat="42.675414221768285" lon="12.830529992338334"><ele>467.0</ele><time>2026-04-22T14:15:19Z</time></trkpt><trkpt lat="42.6755565070838" lon="12.83050052578355"><ele>474.0</ele><time>2026-04-22T14:15:20Z</time></trkpt><trkpt lat="42.67571476562027" lon="12.830491454217075"><ele>481.0</ele><time>2026-04-22T14:15:21Z</time></trkpt><trkpt lat="42.675882581642696" lon="12.830479023801145"><ele>481.0</ele><time>2026-04-22T14:15:22Z</time></trkpt><trkpt lat="42.67603798838323" lon="12.830451505949801"><ele>481.0</ele><time>2026-04-22T14:15:23Z</time></trkpt><trkpt lat="42.67618579666053" lon="12.830405807914959"><ele>481.0</ele><time>2026-04-22T14:15:24Z</time></trkpt><trkpt lat="42.676317164996505" lon="12.83031031214051"><ele>482.0</ele><time>2026-04-22T14:15:25Z</time></trkpt><trkpt lat="42.67655777949535" lon="12.830005383342067"><ele>483.0</ele><time>2026-04-22T14:15:27Z</time></trkpt><trkpt lat="42.676675938068705" lon="12.829840290227592"><ele>483.0</ele><time>2026-04-22T14:15:28Z</time></trkpt><trkpt lat="42.67680176514573" lon="12.829662696516404"><ele>483.0</ele><time>2026-04-22T14:15:29Z</time></trkpt><trkpt lat="42.6769264652594" lon="12.829481254560783"><ele>483.0</ele><time>2026-04-22T14:15:30Z</time></trkpt><trkpt lat="42.6770530976782" lon="12.829298333188571"><ele>487.66666666666663</ele><time>2026-04-22T14:15:31Z</time></trkpt><trkpt lat="42.67718128373651" lon="12.829119285742753"><ele>492.3333333333333</ele><time>2026-04-22T14:15:32Z</time></trkpt><trkpt lat="42.67730254010357" lon="12.828951803923294"><ele>497.0</ele><time>2026-04-22T14:15:33Z</time></trkpt><trkpt lat="42.677418064328826" lon="12.828792448139023"><ele>497.0</ele><time>2026-04-22T14:15:34Z</time></trkpt><trkpt lat="42.677536160382715" lon="12.828636442768998"><ele>497.0</ele><time>2026-04-22T14:15:35Z</time></trkpt><trkpt lat="42.67765502257072" lon="12.828491936277382"><ele>497.0</ele><time>2026-04-22T14:15:36Z</time></trkpt><trkpt lat="42.67777708784642" lon="12.828358145246398"><ele>497.5</ele><time>2026-04-22T14:15:37Z</time></trkpt><trkpt lat="42.677904413101324" lon="12.828240158145004"><ele>498.0</ele><time>2026-04-22T14:15:38Z</time></trkpt><trkpt lat="42.67804377712332" lon="12.828139195383677"><ele>498.5</ele><time>2026-04-22T14:15:39Z</time></trkpt><trkpt lat="42.67816908407931" lon="12.828082549939154"><ele>499.0</ele><time>2026-04-22T14:15:40Z</time></trkpt><trkpt lat="42.6782750166043" lon="12.828072171400766"><ele>499.00000000000006</ele><time>2026-04-22T14:15:41Z</time></trkpt><trkpt lat="42.67836073238116" lon="12.828083940326978"><ele>499.0</ele><time>2026-04-22T14:15:42Z</time></trkpt><trkpt lat="42.67844291747779" lon="12.828116785712046"><ele>499.0</ele><time>2026-04-22T14:15:43Z</time></trkpt><trkpt lat="42.67851482835717" lon="12.828218702348371"><ele>499.0</ele><time>2026-04-22T14:15:44Z</time></trkpt><trkpt lat="42.67856636144847" lon="12.828304484894934"><ele>499.00000000000006</ele><time>2026-04-22T14:15:45Z</time></trkpt><trkpt lat="42.67860506268743" lon="12.828372326811563"><ele>499.0</ele><time>2026-04-22T14:15:46Z</time></trkpt><trkpt lat="42.67862792358116" lon="12.828500979546703"><ele>501.33333333333337</ele><time>2026-04-22T14:15:48Z</time></trkpt><trkpt lat="42.67856928609741" lon="12.828583170640027"><ele>503.6666666666667</ele><time>2026-04-22T14:15:49Z</time></trkpt><trkpt lat="42.67850804368188" lon="12.828631019029716"><ele>506.0</ele><time>2026-04-22T14:15:50Z</time></trkpt><trkpt lat="42.67844509720177" lon="12.82870387730239"><ele>508.33333333333337</ele><time>2026-04-22T14:15:51Z</time></trkpt><trkpt lat="42.67837156762853" lon="12.828784533858874"><ele>510.6666666666667</ele><time>2026-04-22T14:15:52Z</time></trkpt><trkpt lat="42.67828909269052" lon="12.828869631088752"><ele>513.0</ele><time>2026-04-22T14:15:53Z</time></trkpt><trkpt lat="42.67818889456707" lon="12.82896568810259"><ele>513.0</ele><time>2026-04-22T14:15:54Z</time></trkpt><trkpt lat="42.67808313728611" lon="12.829066623111729"><ele>513.0</ele><time>2026-04-22T14:15:55Z</time></trkpt><trkpt lat="42.67797235454836" lon="12.829174243506317"><ele>513.0</ele><time>2026-04-22T14:15:56Z</time></trkpt><trkpt lat="42.67785838439447" lon="12.829312231877111"><ele>513.0</ele><time>2026-04-22T14:15:57Z</time></trkpt><trkpt lat="42.677725268679936" lon="12.82943188535479"><ele>514.6666666666666</ele><time>2026-04-22T14:15:58Z</time></trkpt><trkpt lat="42.67760172517367" lon="12.82956320266326"><ele>516.3333333333333</ele><time>2026-04-22T14:15:59Z</time></trkpt><trkpt lat="42.67748876091693" lon="12.829709441619173"><ele>518.0</ele><time>2026-04-22T14:16:00Z</time></trkpt><trkpt lat="42.67738729913857" lon="12.829887957108145"><ele>518.0</ele><time>2026-04-22T14:16:01Z</time></trkpt><trkpt lat="42.67729213117995" lon="12.830089491550192"><ele>518.0</ele><time>2026-04-22T14:16:02Z</time></trkpt><trkpt lat="42.67720099241022" lon="12.830297814777078"><ele>518.0</ele><time>2026-04-22T14:16:03Z</time></trkpt><trkpt lat="42.67710093970172" lon="12.830507904636981"><ele>516.0</ele><time>2026-04-22T14:16:04Z</time></trkpt><trkpt lat="42.6769981490768" lon="12.83070896451544"><ele>514.0</ele><time>2026-04-22T14:16:05Z</time></trkpt><trkpt lat="42.676883385432745" lon="12.830904504010212"><ele>512.0</ele><time>2026-04-22T14:16:06Z</time></trkpt><trkpt lat="42.67677068292996" lon="12.831086239745405"><ele>523.3333333333333</ele><time>2026-04-22T14:16:07Z</time></trkpt><trkpt lat="42.676644835945844" lon="12.831246043042576"><ele>534.6666666666666</ele><time>2026-04-22T14:16:08Z</time></trkpt><trkpt lat="42.676496883774256" lon="12.831402940029534"><ele>546.0</ele><time>2026-04-22T14:16:09Z</time></trkpt><trkpt lat="42.676356250632715" lon="12.831552576620442"><ele>546.0</ele><time>2026-04-22T14:16:10Z</time></trkpt><trkpt lat="42.676206985176684" lon="12.831701745620244"><ele>546.0</ele><time>2026-04-22T14:16:11Z</time></trkpt><trkpt lat="42.67604666077945" lon="12.831845435283363"><ele>546.0</ele><time>2026-04-22T14:16:12Z</time></trkpt><trkpt lat="42.67588135647877" lon="12.831978273333757"><ele>551.3333333333334</ele><time>2026-04-22T14:16:13Z</time></trkpt><trkpt lat="42.67570946617881" lon="12.832114493567893"><ele>556.6666666666667</ele><time>2026-04-22T14:16:14Z</time></trkpt><trkpt lat="42.675541991735" lon="12.832246886341206"><ele>562.0</ele><time>2026-04-22T14:16:15Z</time></trkpt><trkpt lat="42.67536886497792" lon="12.832382332011473"><ele>555.6666666666667</ele><time>2026-04-22T14:16:16Z</time></trkpt><trkpt lat="42.675195549155866" lon="12.83251404681074"><ele>549.3333333333334</ele><time>2026-04-22T14:16:17Z</time></trkpt><trkpt lat="42.67501669383542" lon="12.832630648979281"><ele>543.0</ele><time>2026-04-22T14:16:18Z</time></trkpt><trkpt lat="42.67482826507555" lon="12.832733049173205"><ele>551.0</ele><time>2026-04-22T14:16:19Z</time></trkpt><trkpt lat="42.67464055439805" lon="12.832820887297299"><ele>559.0</ele><time>2026-04-22T14:16:20Z</time></trkpt><trkpt lat="42.67445635507963" lon="12.832899692533235"><ele>567.0</ele><time>2026-04-22T14:16:21Z</time></trkpt><trkpt lat="42.67429396530852" lon="12.832959541654084"><ele>567.0</ele><time>2026-04-22T14:16:22Z</time></trkpt><trkpt lat="42.67415399937839" lon="12.832975986464643"><ele>567.0</ele><time>2026-04-22T14:16:23Z</time></trkpt><trkpt lat="42.67403000390572" lon="12.832978893712996"><ele>567.0</ele><time>2026-04-22T14:16:24Z</time></trkpt><trkpt lat="42.6739242263062" lon="12.832998465458965"><ele>567.0</ele><time>2026-04-22T14:16:25Z</time></trkpt><trkpt lat="42.673839867025926" lon="12.833033664911806"><ele>567.0</ele><time>2026-04-22T14:16:26Z</time></trkpt><trkpt lat="42.67377262117418" lon="12.833096443144207"><ele>567.0</ele><time>2026-04-22T14:16:27Z</time></trkpt><trkpt lat="42.67376007873559" lon="12.83320638011696"><ele>567.0</ele><time>2026-04-22T14:16:28Z</time></trkpt><trkpt lat="42.67377553475878" lon="12.833300071449317"><ele>567.0</ele><time>2026-04-22T14:16:29Z</time></trkpt><trkpt lat="42.67382638886017" lon="12.833375050325008"><ele>567.0</ele><time>2026-04-22T14:16:30Z</time></trkpt><trkpt lat="42.673893843316996" lon="12.833429052682371"><ele>567.0</ele><time>2026-04-22T14:16:31Z</time></trkpt><trkpt lat="42.67399889336595" lon="12.833400646490682"><ele>567.0</ele><time>2026-04-22T14:16:32Z</time></trkpt><trkpt lat="42.67412451920386" lon="12.833390746968727"><ele>567.0</ele><time>2026-04-22T14:16:33Z</time></trkpt><trkpt lat="42.67426465772472" lon="12.833365450390563"><ele>567.0</ele><time>2026-04-22T14:16:34Z</time></trkpt><trkpt lat="42.6744031371139" lon="12.833342107665699"><ele>567.0</ele><time>2026-04-22T14:16:35Z</time></trkpt><trkpt lat="42.67455138310621" lon="12.833334164398565"><ele>573.0</ele><time>2026-04-22T14:16:36Z</time></trkpt><trkpt lat="42.67471417160679" lon="12.833337923989577"><ele>579.0</ele><time>2026-04-22T14:16:37Z</time></trkpt><trkpt lat="42.67488435086621" lon="12.833345901048325"><ele>585.0</ele><time>2026-04-22T14:16:38Z</time></trkpt><trkpt lat="42.675058396712046" lon="12.833328617539802"><ele>585.0</ele><time>2026-04-22T14:16:39Z</time></trkpt><trkpt lat="42.67523413360528" lon="12.833290047317076"><ele>585.0</ele><time>2026-04-22T14:16:40Z</time></trkpt><trkpt lat="42.67541207996282" lon="12.833245068675096"><ele>585.0</ele><time>2026-04-22T14:16:41Z</time></trkpt><trkpt lat="42.675598078793165" lon="12.833195899717268"><ele>590.3333333333334</ele><time>2026-04-22T14:16:42Z</time></trkpt><trkpt lat="42.67578846974921" lon="12.833142813355984"><ele>595.6666666666667</ele><time>2026-04-22T14:16:43Z</time></trkpt><trkpt lat="42.67598360627414" lon="12.833086877349238"><ele>601.0</ele><time>2026-04-22T14:16:44Z</time></trkpt><trkpt lat="42.67618089333467" lon="12.833031883526024"><ele>606.3333333333334</ele><time>2026-04-22T14:16:45Z</time></trkpt><trkpt lat="42.67637421947397" lon="12.832979899003199"><ele>611.6666666666666</ele><time>2026-04-22T14:16:46Z</time></trkpt><trkpt lat="42.67657326981835" lon="12.832930230565001"><ele>617.0</ele><time>2026-04-22T14:16:47Z</time></trkpt><trkpt lat="42.676767489771514" lon="12.832897472740914"><ele>615.3333333333333</ele><time>2026-04-22T14:16:48Z</time></trkpt><trkpt lat="42.676943791256654" lon="12.832894749795319"><ele>613.6666666666666</ele><time>2026-04-22T14:16:49Z</time></trkpt><trkpt lat="42.677103762251555" lon="12.832875730324119"><ele>612.0</ele><time>2026-04-22T14:16:50Z</time></trkpt><trkpt lat="42.67724557734134" lon="12.832877708565123"><ele>612.0</ele><time>2026-04-22T14:16:51Z</time></trkpt><trkpt lat="42.677375603055566" lon="12.832893144270521"><ele>612.0</ele><time>2026-04-22T14:16:52Z</time></trkpt><trkpt lat="42.67748766707891" lon="12.832934559242043"><ele>612.0</ele><time>2026-04-22T14:16:53Z</time></trkpt><trkpt lat="42.677567413758936" lon="12.832997154262065"><ele>612.0</ele><time>2026-04-22T14:16:54Z</time></trkpt><trkpt lat="42.67761854645187" lon="12.833095370309547"><ele>612.0</ele><time>2026-04-22T14:16:55Z</time></trkpt><trkpt lat="42.67763549395279" lon="12.833206826247899"><ele>612.0</ele><time>2026-04-22T14:16:56Z</time></trkpt><trkpt lat="42.67761156222499" lon="12.833311119101994"><ele>612.0</ele><time>2026-04-22T14:16:57Z</time></trkpt><trkpt lat="42.677557134451476" lon="12.833392442615805"><ele>612.0</ele><time>2026-04-22T14:16:58Z</time></trkpt><trkpt lat="42.67746947909275" lon="12.8334345325405"><ele>612.0</ele><time>2026-04-22T14:16:59Z</time></trkpt><trkpt lat="42.6773691825988" lon="12.833433564107313"><ele>612.0</ele><time>2026-04-22T14:17:00Z</time></trkpt><trkpt lat="42.67725821509248" lon="12.833397893564443"><ele>612.0</ele><time>2026-04-22T14:17:01Z</time></trkpt><trkpt lat="42.6771628020897" lon="12.833317699148196"><ele>612.0</ele><time>2026-04-22T14:17:02Z</time></trkpt><trkpt lat="42.67706118877627" lon="12.833244083849777"><ele>612.0</ele><time>2026-04-22T14:17:03Z</time></trkpt><trkpt lat="42.67695227069503" lon="12.833225099735863"><ele>612.0</ele><time>2026-04-22T14:17:04Z</time></trkpt><trkpt lat="42.67683025361258" lon="12.833255442959036"><ele>613.25</ele><time>2026-04-22T14:17:05Z</time></trkpt><trkpt lat="42.67670958202968" lon="12.833328674574318"><ele>614.5</ele><time>2026-04-22T14:17:06Z</time></trkpt><trkpt lat="42.676587321804256" lon="12.83341169753507"><ele>615.75</ele><time>2026-04-22T14:17:07Z</time></trkpt><trkpt lat="42.676446943597284" lon="12.833502345841149"><ele>617.0</ele><time>2026-04-22T14:17:08Z</time></trkpt><trkpt lat="42.67629720702491" lon="12.83359831407809"><ele>624.3333333333333</ele><time>2026-04-22T14:17:09Z</time></trkpt><trkpt lat="42.676152520743656" lon="12.83370906001252"><ele>631.6666666666666</ele><time>2026-04-22T14:17:10Z</time></trkpt><trkpt lat="42.67600737198933" lon="12.83383978115815"><ele>639.0</ele><time>2026-04-22T14:17:11Z</time></trkpt><trkpt lat="42.6758600507474" lon="12.833982193175837"><ele>639.0</ele><time>2026-04-22T14:17:12Z</time></trkpt><trkpt lat="42.67571026681447" lon="12.834124057801725"><ele>639.0</ele><time>2026-04-22T14:17:13Z</time></trkpt><trkpt lat="42.675554214187315" lon="12.834267202395218"><ele>639.0</ele><time>2026-04-22T14:17:14Z</time></trkpt><trkpt lat="42.6753953292693" lon="12.834412486892706"><ele>641.3333333333334</ele><time>2026-04-22T14:17:15Z</time></trkpt><trkpt lat="42.67524347636026" lon="12.83455668530534"><ele>643.6666666666667</ele><time>2026-04-22T14:17:16Z</time></trkpt><trkpt lat="42.67507660375027" lon="12.834679648603588"><ele>646.0</ele><time>2026-04-22T14:17:17Z</time></trkpt><trkpt lat="42.674954356878494" lon="12.834807979501182"><ele>646.0</ele><time>2026-04-22T14:17:18Z</time></trkpt><trkpt lat="42.674885352388785" lon="12.834918819660786"><ele>646.0</ele><time>2026-04-22T14:17:19Z</time></trkpt><trkpt lat="42.674834946681855" lon="12.835036555783919"><ele>646.0</ele><time>2026-04-22T14:17:21Z</time></trkpt><trkpt lat="42.674849446208185" lon="12.835126320896691"><ele>646.0</ele><time>2026-04-22T14:17:22Z</time></trkpt><trkpt lat="42.674895681379766" lon="12.835224696595658"><ele>646.0</ele><time>2026-04-22T14:17:23Z</time></trkpt><trkpt lat="42.67496964583681" lon="12.835291354763214"><ele>646.0</ele><time>2026-04-22T14:17:24Z</time></trkpt><trkpt lat="42.67505611400556" lon="12.83532131475206"><ele>648.5</ele><time>2026-04-22T14:17:25Z</time></trkpt><trkpt lat="42.675152977435964" lon="12.835270798026825"><ele>651.0</ele><time>2026-04-22T14:17:26Z</time></trkpt><trkpt lat="42.675222250548636" lon="12.835138768663402"><ele>653.5</ele><time>2026-04-22T14:17:27Z</time></trkpt><trkpt lat="42.67532585452153" lon="12.835032440395993"><ele>656.0</ele><time>2026-04-22T14:17:28Z</time></trkpt><trkpt lat="42.675429206356895" lon="12.834930295095845"><ele>659.6666666666666</ele><time>2026-04-22T14:17:29Z</time></trkpt><trkpt lat="42.67555928727542" lon="12.834824000194848"><ele>663.3333333333334</ele><time>2026-04-22T14:17:30Z</time></trkpt><trkpt lat="42.67570028111374" lon="12.834752847979447"><ele>667.0</ele><time>2026-04-22T14:17:31Z</time></trkpt><trkpt lat="42.6758540582342" lon="12.834688169934946"><ele>667.0</ele><time>2026-04-22T14:17:32Z</time></trkpt><trkpt lat="42.67600594604635" lon="12.834650521342049"><ele>667.0</ele><time>2026-04-22T14:17:33Z</time></trkpt><trkpt lat="42.676155787483474" lon="12.834609059121565"><ele>667.0</ele><time>2026-04-22T14:17:34Z</time></trkpt><trkpt lat="42.67630175938529" lon="12.834602148107495"><ele>670.3333333333334</ele><time>2026-04-22T14:17:35Z</time></trkpt><trkpt lat="42.676451839144946" lon="12.834628882498814"><ele>673.6666666666666</ele><time>2026-04-22T14:17:36Z</time></trkpt><trkpt lat="42.67659509169388" lon="12.83467728991751"><ele>677.0</ele><time>2026-04-22T14:17:37Z</time></trkpt><trkpt lat="42.67673913070616" lon="12.834747393131536"><ele>677.0</ele><time>2026-04-22T14:17:38Z</time></trkpt><trkpt lat="42.6768670567249" lon="12.83482730867968"><ele>677.0</ele><time>2026-04-22T14:17:39Z</time></trkpt><trkpt lat="42.676964687463006" lon="12.834916076465008"><ele>677.0</ele><time>2026-04-22T14:17:40Z</time></trkpt><trkpt lat="42.67703345603718" lon="12.835034340446052"><ele>677.0</ele><time>2026-04-22T14:17:41.001Z</time></trkpt><trkpt lat="42.677074306355316" lon="12.835182688601025"><ele>677.25</ele><time>2026-04-22T14:17:42.001Z</time></trkpt><trkpt lat="42.67711600327187" lon="12.83534314720451"><ele>677.5</ele><time>2026-04-22T14:17:43.001Z</time></trkpt><trkpt lat="42.67712543742667" lon="12.83553532045817"><ele>677.75</ele><time>2026-04-22T14:17:44.001Z</time></trkpt><trkpt lat="42.67715086262902" lon="12.83570941111464"><ele>678.0</ele><time>2026-04-22T14:17:45.001Z</time></trkpt><trkpt lat="42.67718709790682" lon="12.835854280662328"><ele>678.0</ele><time>2026-04-22T14:17:46.001Z</time></trkpt><trkpt lat="42.67726819343172" lon="12.835966673700769"><ele>678.0</ele><time>2026-04-22T14:17:47.001Z</time></trkpt><trkpt lat="42.67738621077681" lon="12.836024515697192"><ele>678.0</ele><time>2026-04-22T14:17:48.001Z</time></trkpt><trkpt lat="42.67749544885459" lon="12.836065310731458"><ele>678.0</ele><time>2026-04-22T14:17:49.001Z</time></trkpt><trkpt lat="42.677573159904846" lon="12.83609989669793"><ele>678.0</ele><time>2026-04-22T14:17:50.001Z</time></trkpt><trkpt lat="42.67762410270556" lon="12.83617793865106"><ele>682.0</ele><time>2026-04-22T14:17:51.001Z</time></trkpt><trkpt lat="42.677644344176294" lon="12.836280510886523"><ele>686.0</ele><time>2026-04-22T14:17:52.001Z</time></trkpt><trkpt lat="42.67762026895021" lon="12.836381934484292"><ele>690.0</ele><time>2026-04-22T14:17:53.001Z</time></trkpt><trkpt lat="42.67755682784175" lon="12.836436346268703"><ele>694.0</ele><time>2026-04-22T14:17:54.001Z</time></trkpt><trkpt lat="42.67747999249927" lon="12.836438142372199"><ele>698.0</ele><time>2026-04-22T14:17:55.001Z</time></trkpt><trkpt lat="42.677402519533366" lon="12.836403709397356"><ele>702.0</ele><time>2026-04-22T14:17:56.001Z</time></trkpt><trkpt lat="42.677301006693455" lon="12.836338967349315"><ele>702.0</ele><time>2026-04-22T14:17:57.001Z</time></trkpt><trkpt lat="42.67718308720258" lon="12.836274990231836"><ele>702.0</ele><time>2026-04-22T14:17:58.001Z</time></trkpt><trkpt lat="42.6770679055412" lon="12.836218880624562"><ele>702.0</ele><time>2026-04-22T14:17:59.001Z</time></trkpt><trkpt lat="42.67694372109914" lon="12.836155880915872"><ele>702.0</ele><time>2026-04-22T14:18:00.001Z</time></trkpt><trkpt lat="42.67682506727837" lon="12.836095917155212"><ele>703.6</ele><time>2026-04-22T14:18:01.001Z</time></trkpt><trkpt lat="42.676714681451486" lon="12.836057129293192"><ele>705.2</ele><time>2026-04-22T14:18:02.001Z</time></trkpt><trkpt lat="42.67661150765873" lon="12.836053350487722"><ele>706.8</ele><time>2026-04-22T14:18:03.001Z</time></trkpt><trkpt lat="42.67651445460487" lon="12.8360833546101"><ele>708.4</ele><time>2026-04-22T14:18:04.001Z</time></trkpt><trkpt lat="42.67642281279275" lon="12.836134324299003"><ele>710.0</ele><time>2026-04-22T14:18:05.001Z</time></trkpt><trkpt lat="42.67637754435617" lon="12.836244971325169"><ele>710.0</ele><time>2026-04-22T14:18:06.001Z</time></trkpt><trkpt lat="42.67634341882081" lon="12.8363595869814"><ele>710.0</ele><time>2026-04-22T14:18:07.001Z</time></trkpt><trkpt lat="42.67632131512812" lon="12.836502331937194"><ele>710.0</ele><time>2026-04-22T14:18:08.001Z</time></trkpt><trkpt lat="42.676301834366434" lon="12.836666005691438"><ele>710.0</ele><time>2026-04-22T14:18:09Z</time></trkpt><trkpt lat="42.6762818011825" lon="12.836824598043057"><ele>710.0</ele><time>2026-04-22T14:18:10Z</time></trkpt><trkpt lat="42.67624790685015" lon="12.83698969495461"><ele>707.0</ele><time>2026-04-22T14:18:11Z</time></trkpt><trkpt lat="42.67616963464077" lon="12.8371267404243"><ele>704.0</ele><time>2026-04-22T14:18:12Z</time></trkpt><trkpt lat="42.67607982443821" lon="12.837268939241024"><ele>701.0</ele><time>2026-04-22T14:18:13Z</time></trkpt><trkpt lat="42.676013647791414" lon="12.837399518300252"><ele>698.0</ele><time>2026-04-22T14:18:14Z</time></trkpt><trkpt lat="42.67599380748569" lon="12.837524440290034"><ele>698.0</ele><time>2026-04-22T14:18:15Z</time></trkpt><trkpt lat="42.67599799733873" lon="12.837620013827781"><ele>698.0</ele><time>2026-04-22T14:18:16Z</time></trkpt><trkpt lat="42.67603125781709" lon="12.837699324275023"><ele>698.0</ele><time>2026-04-22T14:18:17Z</time></trkpt><trkpt lat="42.67609065939931" lon="12.837751586323815"><ele>698.0</ele><time>2026-04-22T14:18:18Z</time></trkpt><trkpt lat="42.67616689924344" lon="12.837766818679057"><ele>698.0</ele><time>2026-04-22T14:18:19Z</time></trkpt><trkpt lat="42.67624681364552" lon="12.837763809827681"><ele>698.0</ele><time>2026-04-22T14:18:20Z</time></trkpt><trkpt lat="42.67630428804273" lon="12.83765872012048"><ele>704.25</ele><time>2026-04-22T14:18:21Z</time></trkpt><trkpt lat="42.67635723885609" lon="12.837539230589623"><ele>710.5</ele><time>2026-04-22T14:18:22Z</time></trkpt><trkpt lat="42.67643412886804" lon="12.837409193566726"><ele>716.75</ele><time>2026-04-22T14:18:23Z</time></trkpt><trkpt lat="42.676501349934455" lon="12.83727251622897"><ele>723.0</ele><time>2026-04-22T14:18:24Z</time></trkpt><trkpt lat="42.676601518683334" lon="12.837184972971956"><ele>723.0</ele><time>2026-04-22T14:18:25Z</time></trkpt><trkpt lat="42.67671939633106" lon="12.8371395359448"><ele>723.0</ele><time>2026-04-22T14:18:26Z</time></trkpt><trkpt lat="42.676842734419516" lon="12.837133068362641"><ele>723.0</ele><time>2026-04-22T14:18:27Z</time></trkpt><trkpt lat="42.6769660078694" lon="12.83716846352476"><ele>723.0</ele><time>2026-04-22T14:18:28Z</time></trkpt><trkpt lat="42.67708654940903" lon="12.837232105494031"><ele>722.4</ele><time>2026-04-22T14:18:29Z</time></trkpt><trkpt lat="42.677194718923374" lon="12.83730575937914"><ele>721.8</ele><time>2026-04-22T14:18:30Z</time></trkpt><trkpt lat="42.67728756356466" lon="12.837396857210129"><ele>721.2</ele><time>2026-04-22T14:18:31Z</time></trkpt><trkpt lat="42.67735402782805" lon="12.837508450902346"><ele>720.6</ele><time>2026-04-22T14:18:32Z</time></trkpt><trkpt lat="42.6773781239946" lon="12.837624671359475"><ele>720.0</ele><time>2026-04-22T14:18:33Z</time></trkpt><trkpt lat="42.677356887081515" lon="12.83773504202016"><ele>722.0</ele><time>2026-04-22T14:18:34Z</time></trkpt><trkpt lat="42.67730466604231" lon="12.8378093904458"><ele>724.0</ele><time>2026-04-22T14:18:35Z</time></trkpt><trkpt lat="42.6772292766903" lon="12.837844764398909"><ele>726.0</ele><time>2026-04-22T14:18:36Z</time></trkpt><trkpt lat="42.67714192176736" lon="12.837829679624129"><ele>728.0</ele><time>2026-04-22T14:18:37Z</time></trkpt><trkpt lat="42.67704922994272" lon="12.837770745351156"><ele>730.0</ele><time>2026-04-22T14:18:38Z</time></trkpt><trkpt lat="42.67694240772536" lon="12.837709659976477"><ele>730.8</ele><time>2026-04-22T14:18:39Z</time></trkpt><trkpt lat="42.67684072928171" lon="12.83769581764218"><ele>731.6</ele><time>2026-04-22T14:18:40Z</time></trkpt><trkpt lat="42.67674936819665" lon="12.837744952441405"><ele>732.4000000000001</ele><time>2026-04-22T14:18:41Z</time></trkpt><trkpt lat="42.67666909474414" lon="12.837851801762735"><ele>733.2</ele><time>2026-04-22T14:18:42Z</time></trkpt><trkpt lat="42.67660135985216" lon="12.83800011728425"><ele>734.0</ele><time>2026-04-22T14:18:43Z</time></trkpt><trkpt lat="42.67655424115267" lon="12.838165746258444"><ele>734.0</ele><time>2026-04-22T14:18:44Z</time></trkpt><trkpt lat="42.676516029152666" lon="12.838358152305965"><ele>734.0</ele><time>2026-04-22T14:18:45.001Z</time></trkpt><trkpt lat="42.676502466168735" lon="12.838571459668554"><ele>734.0</ele><time>2026-04-22T14:18:46.001Z</time></trkpt><trkpt lat="42.6765089162553" lon="12.838797517268135"><ele>736.6666666666666</ele><time>2026-04-22T14:18:47.001Z</time></trkpt><trkpt lat="42.67652468961571" lon="12.83901881423142"><ele>739.3333333333334</ele><time>2026-04-22T14:18:48.001Z</time></trkpt><trkpt lat="42.67651637946197" lon="12.839225710769805"><ele>742.0</ele><time>2026-04-22T14:18:49.001Z</time></trkpt><trkpt lat="42.67653149822428" lon="12.83941155879422"><ele>744.0</ele><time>2026-04-22T14:18:50.001Z</time></trkpt><trkpt lat="42.67653002153087" lon="12.839574860568797"><ele>746.0</ele><time>2026-04-22T14:18:51.001Z</time></trkpt><trkpt lat="42.67654087451082" lon="12.839707368088295"><ele>748.0</ele><time>2026-04-22T14:18:52.001Z</time></trkpt><trkpt lat="42.67656840842883" lon="12.839811402990206"><ele>750.0</ele><time>2026-04-22T14:18:53.001Z</time></trkpt><trkpt lat="42.67661516302667" lon="12.83988637771097"><ele>752.0</ele><time>2026-04-22T14:18:54.001Z</time></trkpt><trkpt lat="42.67674468758774" lon="12.83991780246187"><ele>752.0</ele><time>2026-04-22T14:18:56.001Z</time></trkpt><trkpt lat="42.676823942368415" lon="12.839857313547837"><ele>752.0</ele><time>2026-04-22T14:18:57.001Z</time></trkpt><trkpt lat="42.6768393236915" lon="12.839714997054012"><ele>752.0</ele><time>2026-04-22T14:18:58.001Z</time></trkpt><trkpt lat="42.67684360421127" lon="12.839602451805264"><ele>752.0</ele><time>2026-04-22T14:18:59.001Z</time></trkpt><trkpt lat="42.67682626846973" lon="12.839486885804696"><ele>752.0</ele><time>2026-04-22T14:19:00.001Z</time></trkpt><trkpt lat="42.676823524126135" lon="12.839346484106121"><ele>750.6</ele><time>2026-04-22T14:19:01.001Z</time></trkpt><trkpt lat="42.676813086347536" lon="12.839211668237413"><ele>749.2</ele><time>2026-04-22T14:19:02.001Z</time></trkpt><trkpt lat="42.67679901894431" lon="12.839083548203984"><ele>747.8</ele><time>2026-04-22T14:19:03.001Z</time></trkpt><trkpt lat="42.676845864437354" lon="12.838973114116042"><ele>746.4</ele><time>2026-04-22T14:19:04.001Z</time></trkpt><trkpt lat="42.67690507856487" lon="12.838895792324273"><ele>745.0</ele><time>2026-04-22T14:19:05.001Z</time></trkpt><trkpt lat="42.67697224318177" lon="12.838833909058794"><ele>745.0</ele><time>2026-04-22T14:19:06.001Z</time></trkpt><trkpt lat="42.67706862085072" lon="12.838851301762872"><ele>745.0</ele><time>2026-04-22T14:19:07.001Z</time></trkpt><trkpt lat="42.67715212527048" lon="12.838903843628286"><ele>745.0</ele><time>2026-04-22T14:19:08.001Z</time></trkpt><trkpt lat="42.6772058166469" lon="12.8390003683926"><ele>745.0</ele><time>2026-04-22T14:19:09.001Z</time></trkpt><trkpt lat="42.677224342069216" lon="12.83912165294257"><ele>745.0</ele><time>2026-04-22T14:19:10.001Z</time></trkpt><trkpt lat="42.677204744241315" lon="12.839271466756554"><ele>749.0</ele><time>2026-04-22T14:19:11.001Z</time></trkpt><trkpt lat="42.67718388773167" lon="12.839426102666373"><ele>753.0</ele><time>2026-04-22T14:19:12.001Z</time></trkpt><trkpt lat="42.67717191891952" lon="12.839591698414022"><ele>757.0</ele><time>2026-04-22T14:19:13.001Z</time></trkpt><trkpt lat="42.677170502088316" lon="12.839761052139684"><ele>761.0</ele><time>2026-04-22T14:19:14.001Z</time></trkpt><trkpt lat="42.677210699389285" lon="12.839942224504595"><ele>761.0</ele><time>2026-04-22T14:19:15.001Z</time></trkpt><trkpt lat="42.67727045191459" lon="12.840120687422303"><ele>761.0</ele><time>2026-04-22T14:19:16.001Z</time></trkpt><trkpt lat="42.677320251039966" lon="12.84029074710617"><ele>761.0</ele><time>2026-04-22T14:19:17.001Z</time></trkpt><trkpt lat="42.677405340273765" lon="12.840438104681684"><ele>761.0</ele><time>2026-04-22T14:19:18.001Z</time></trkpt><trkpt lat="42.677518243000854" lon="12.840557982591813"><ele>760.0</ele><time>2026-04-22T14:19:19.001Z</time></trkpt><trkpt lat="42.677650474654214" lon="12.840661132388497"><ele>759.0</ele><time>2026-04-22T14:19:20.001Z</time></trkpt><trkpt lat="42.67777942244565" lon="12.840761452748549"><ele>758.0</ele><time>2026-04-22T14:19:21.001Z</time></trkpt><trkpt lat="42.67787057612371" lon="12.840885600656904"><ele>757.0</ele><time>2026-04-22T14:19:22.001Z</time></trkpt><trkpt lat="42.677952133033145" lon="12.841018551722904"><ele>764.25</ele><time>2026-04-22T14:19:23.001Z</time></trkpt><trkpt lat="42.67804148719755" lon="12.84115886623368"><ele>771.5</ele><time>2026-04-22T14:19:24.001Z</time></trkpt><trkpt lat="42.678149882789114" lon="12.841297062750666"><ele>778.75</ele><time>2026-04-22T14:19:25.001Z</time></trkpt><trkpt lat="42.67825225410774" lon="12.841448684658905"><ele>786.0</ele><time>2026-04-22T14:19:26.001Z</time></trkpt><trkpt lat="42.67836190934199" lon="12.841570118136739"><ele>786.0</ele><time>2026-04-22T14:19:27.001Z</time></trkpt><trkpt lat="42.678458091935426" lon="12.841718685580522"><ele>786.0</ele><time>2026-04-22T14:19:28.001Z</time></trkpt><trkpt lat="42.67855506365356" lon="12.841859555629322"><ele>786.0</ele><time>2026-04-22T14:19:29.001Z</time></trkpt><trkpt lat="42.6786342647451" lon="12.841994478939974"><ele>786.0</ele><time>2026-04-22T14:19:30.001Z</time></trkpt><trkpt lat="42.67869052873606" lon="12.842122616685803"><ele>783.8333333333334</ele><time>2026-04-22T14:19:31.001Z</time></trkpt><trkpt lat="42.67873336484993" lon="12.842232365812706"><ele>781.6666666666667</ele><time>2026-04-22T14:19:32.001Z</time></trkpt><trkpt lat="42.67876124286214" lon="12.842322410204853"><ele>779.5</ele><time>2026-04-22T14:19:33.001Z</time></trkpt><trkpt lat="42.678748674853246" lon="12.84245124837859"><ele>777.3333333333334</ele><time>2026-04-22T14:19:35.001Z</time></trkpt><trkpt lat="42.67868168817486" lon="12.842470152304333"><ele>775.1666666666667</ele><time>2026-04-22T14:19:36.001Z</time></trkpt><trkpt lat="42.67860564317314" lon="12.84245028837463"><ele>773.0</ele><time>2026-04-22T14:19:37.001Z</time></trkpt><trkpt lat="42.67853314695668" lon="12.842409205542435"><ele>783.25</ele><time>2026-04-22T14:19:38.001Z</time></trkpt><trkpt lat="42.67850940842463" lon="12.842251834843813"><ele>793.5</ele><time>2026-04-22T14:19:39.001Z</time></trkpt><trkpt lat="42.67846411852455" lon="12.842103644864544"><ele>803.75</ele><time>2026-04-22T14:19:40.001Z</time></trkpt><trkpt lat="42.67837038153946" lon="12.841978848738714"><ele>814.0</ele><time>2026-04-22T14:19:41.001Z</time></trkpt><trkpt lat="42.6782715511214" lon="12.841856563474513"><ele>807.0</ele><time>2026-04-22T14:19:42.001Z</time></trkpt><trkpt lat="42.678173698943375" lon="12.841749672202404"><ele>800.0</ele><time>2026-04-22T14:19:43.001Z</time></trkpt><trkpt lat="42.6780707555578" lon="12.841655413511324"><ele>793.0</ele><time>2026-04-22T14:19:44.001Z</time></trkpt><trkpt lat="42.677948957903034" lon="12.841590713114094"><ele>786.0</ele><time>2026-04-22T14:19:45.001Z</time></trkpt><trkpt lat="42.677819909634046" lon="12.841523363789422"><ele>792.0</ele><time>2026-04-22T14:19:46.001Z</time></trkpt><trkpt lat="42.677678775934105" lon="12.841472996127775"><ele>798.0</ele><time>2026-04-22T14:19:47.001Z</time></trkpt><trkpt lat="42.677543504421664" lon="12.84143018757381"><ele>804.0</ele><time>2026-04-22T14:19:48.001Z</time></trkpt><trkpt lat="42.6774103862213" lon="12.841403380283808"><ele>810.0</ele><time>2026-04-22T14:19:49.001Z</time></trkpt><trkpt lat="42.67729899770729" lon="12.841402834896858"><ele>810.0</ele><time>2026-04-22T14:19:50.001Z</time></trkpt><trkpt lat="42.67719298768502" lon="12.841430862473691"><ele>810.0</ele><time>2026-04-22T14:19:51.001Z</time></trkpt><trkpt lat="42.67709028868786" lon="12.841497087055842"><ele>810.0</ele><time>2026-04-22T14:19:52.001Z</time></trkpt><trkpt lat="42.67699437335102" lon="12.841576508660943"><ele>810.0</ele><time>2026-04-22T14:19:53.001Z</time></trkpt><trkpt lat="42.676911576930756" lon="12.841663991097871"><ele>810.0</ele><time>2026-04-22T14:19:54.001Z</time></trkpt><trkpt lat="42.67685572862933" lon="12.841765013566897"><ele>809.6</ele><time>2026-04-22T14:19:55.001Z</time></trkpt><trkpt lat="42.676834856355256" lon="12.841870052041974"><ele>809.2</ele><time>2026-04-22T14:19:56.001Z</time></trkpt><trkpt lat="42.67683030921612" lon="12.84199032386619"><ele>808.8</ele><time>2026-04-22T14:19:57.001Z</time></trkpt><trkpt lat="42.6768355686578" lon="12.84214325824728"><ele>808.4</ele><time>2026-04-22T14:19:58.001Z</time></trkpt><trkpt lat="42.67683330011222" lon="12.84231120263842"><ele>808.0</ele><time>2026-04-22T14:19:59.001Z</time></trkpt><trkpt lat="42.6768180100578" lon="12.842478072111238"><ele>811.5</ele><time>2026-04-22T14:20:00.001Z</time></trkpt><trkpt lat="42.67678372008131" lon="12.842650266809668"><ele>815.0</ele><time>2026-04-22T14:20:01.001Z</time></trkpt><trkpt lat="42.676746202983175" lon="12.842824128752758"><ele>818.5</ele><time>2026-04-22T14:20:02.001Z</time></trkpt><trkpt lat="42.676703418774565" lon="12.843000460742225"><ele>822.0</ele><time>2026-04-22T14:20:03.001Z</time></trkpt><trkpt lat="42.676664647457905" lon="12.843181712722467"><ele>822.0</ele><time>2026-04-22T14:20:04.001Z</time></trkpt><trkpt lat="42.67662925469679" lon="12.843369544411065"><ele>822.0</ele><time>2026-04-22T14:20:05.001Z</time></trkpt><trkpt lat="42.67659520375945" lon="12.843562158030045"><ele>822.0</ele><time>2026-04-22T14:20:06.001Z</time></trkpt><trkpt lat="42.67656663532121" lon="12.843756620044632"><ele>822.0</ele><time>2026-04-22T14:20:07.001Z</time></trkpt><trkpt lat="42.676536557096384" lon="12.843954635043168"><ele>828.6666666666667</ele><time>2026-04-22T14:20:08.001Z</time></trkpt><trkpt lat="42.67650428394539" lon="12.844158380837564"><ele>835.3333333333334</ele><time>2026-04-22T14:20:09.001Z</time></trkpt><trkpt lat="42.67647203854396" lon="12.844364576652312"><ele>842.0</ele><time>2026-04-22T14:20:10.001Z</time></trkpt><trkpt lat="42.67643764185099" lon="12.84456971030808"><ele>847.0</ele><time>2026-04-22T14:20:11.001Z</time></trkpt><trkpt lat="42.676405139788486" lon="12.844775426206018"><ele>852.0</ele><time>2026-04-22T14:20:12.001Z</time></trkpt><trkpt lat="42.676374789460596" lon="12.84498528103541"><ele>857.0</ele><time>2026-04-22T14:20:13.001Z</time></trkpt><trkpt lat="42.676347215263675" lon="12.845200269792873"><ele>863.0</ele><time>2026-04-22T14:20:14.001Z</time></trkpt><trkpt lat="42.67631514788369" lon="12.845414637628345"><ele>869.0</ele><time>2026-04-22T14:20:15.001Z</time></trkpt><trkpt lat="42.67627877803709" lon="12.845634415607494"><ele>875.0</ele><time>2026-04-22T14:20:16.001Z</time></trkpt><trkpt lat="42.67625265408909" lon="12.84585085392851"><ele>879.3333333333334</ele><time>2026-04-22T14:20:17.001Z</time></trkpt><trkpt lat="42.676219670527864" lon="12.846057380188242"><ele>883.6666666666667</ele><time>2026-04-22T14:20:18.001Z</time></trkpt><trkpt lat="42.67617520643841" lon="12.84626093255482"><ele>888.0</ele><time>2026-04-22T14:20:19.001Z</time></trkpt><trkpt lat="42.67613598422845" lon="12.846457365504875"><ele>888.0</ele><time>2026-04-22T14:20:20.001Z</time></trkpt><trkpt lat="42.676112630655204" lon="12.846621785813298"><ele>888.0</ele><time>2026-04-22T14:20:21.001Z</time></trkpt><trkpt lat="42.67610818551232" lon="12.846737366621966"><ele>888.0</ele><time>2026-04-22T14:20:22.001Z</time></trkpt><trkpt lat="42.676188416507266" lon="12.846849931177148"><ele>888.0</ele><time>2026-04-22T14:20:24.001Z</time></trkpt><trkpt lat="42.67626224688892" lon="12.846842860174368"><ele>888.0</ele><time>2026-04-22T14:20:25.001Z</time></trkpt><trkpt lat="42.67633682648942" lon="12.846813723790518"><ele>888.0</ele><time>2026-04-22T14:20:26.001Z</time></trkpt><trkpt lat="42.67638221351156" lon="12.846683506124165"><ele>888.0</ele><time>2026-04-22T14:20:27.001Z</time></trkpt><trkpt lat="42.67637576778232" lon="12.846534307156285"><ele>888.0</ele><time>2026-04-22T14:20:28.001Z</time></trkpt><trkpt lat="42.67638354076322" lon="12.846399036391572"><ele>888.0</ele><time>2026-04-22T14:20:29.001Z</time></trkpt><trkpt lat="42.67639757499024" lon="12.846245626113978"><ele>888.0</ele><time>2026-04-22T14:20:30.001Z</time></trkpt><trkpt lat="42.676455683157045" lon="12.846095988014206"><ele>884.75</ele><time>2026-04-22T14:20:31.001Z</time></trkpt><trkpt lat="42.67652011951494" lon="12.845931341510894"><ele>881.5</ele><time>2026-04-22T14:20:32.001Z</time></trkpt><trkpt lat="42.67659092005807" lon="12.845756220723331"><ele>878.25</ele><time>2026-04-22T14:20:33.001Z</time></trkpt><trkpt lat="42.6766719288631" lon="12.845562803412006"><ele>875.0</ele><time>2026-04-22T14:20:34.001Z</time></trkpt><trkpt lat="42.67675739308043" lon="12.845364614431034"><ele>875.0</ele><time>2026-04-22T14:20:35.001Z</time></trkpt><trkpt lat="42.6768441712792" lon="12.845163168964167"><ele>875.0</ele><time>2026-04-22T14:20:36.001Z</time></trkpt><trkpt lat="42.67692425897988" lon="12.844936950565948"><ele>875.0</ele><time>2026-04-22T14:20:37.001Z</time></trkpt><trkpt lat="42.67704090966087" lon="12.844737490400782"><ele>875.3333333333334</ele><time>2026-04-22T14:20:38.001Z</time></trkpt><trkpt lat="42.677146676704204" lon="12.844548373948394"><ele>875.6666666666667</ele><time>2026-04-22T14:20:39.001Z</time></trkpt><trkpt lat="42.67724140153454" lon="12.844368816373773"><ele>876.0</ele><time>2026-04-22T14:20:40.001Z</time></trkpt><trkpt lat="42.677345259084106" lon="12.844227721159267"><ele>876.0</ele><time>2026-04-22T14:20:41.001Z</time></trkpt><trkpt lat="42.67744543003032" lon="12.844110296485878"><ele>875.9999999999999</ele><time>2026-04-22T14:20:42.001Z</time></trkpt><trkpt lat="42.67754647357584" lon="12.844040801126381"><ele>875.9999999999999</ele><time>2026-04-22T14:20:43.001Z</time></trkpt><trkpt lat="42.67762708596356" lon="12.843989882315578"><ele>876.0</ele><time>2026-04-22T14:20:44.001Z</time></trkpt><trkpt lat="42.67770711178175" lon="12.843963450589575"><ele>876.0</ele><time>2026-04-22T14:20:45.001Z</time></trkpt><trkpt lat="42.67778622604124" lon="12.844022525347135"><ele>874.0</ele><time>2026-04-22T14:20:46.001Z</time></trkpt><trkpt lat="42.677841641580414" lon="12.844148099045276"><ele>872.0</ele><time>2026-04-22T14:20:47.001Z</time></trkpt><trkpt lat="42.677928230691954" lon="12.844270069784706"><ele>870.0</ele><time>2026-04-22T14:20:48.001Z</time></trkpt><trkpt lat="42.67800891537588" lon="12.84442500058845"><ele>868.0</ele><time>2026-04-22T14:20:49.001Z</time></trkpt><trkpt lat="42.678096324210756" lon="12.844579659005555"><ele>872.0</ele><time>2026-04-22T14:20:50.001Z</time></trkpt><trkpt lat="42.678187469505794" lon="12.844746441796019"><ele>876.0</ele><time>2026-04-22T14:20:51.001Z</time></trkpt><trkpt lat="42.678263200497014" lon="12.844926801450967"><ele>880.0</ele><time>2026-04-22T14:20:52.001Z</time></trkpt><trkpt lat="42.67830143479914" lon="12.8450998214138"><ele>884.0</ele><time>2026-04-22T14:20:53.001Z</time></trkpt><trkpt lat="42.6783043655792" lon="12.84522922346928"><ele>884.0</ele><time>2026-04-22T14:20:54.001Z</time></trkpt><trkpt lat="42.67822006552155" lon="12.845314745490406"><ele>884.0000000000001</ele><time>2026-04-22T14:20:56.001Z</time></trkpt><trkpt lat="42.678104978583924" lon="12.845251102284728"><ele>884.0000000000001</ele><time>2026-04-22T14:20:58.001Z</time></trkpt><trkpt lat="42.678077250773036" lon="12.845123058103551"><ele>884.0</ele><time>2026-04-22T14:20:59.001Z</time></trkpt><trkpt lat="42.678062456162706" lon="12.844980400353005"><ele>884.0</ele><time>2026-04-22T14:21:00.001Z</time></trkpt><trkpt lat="42.67801313049319" lon="12.844870878146816"><ele>884.0</ele><time>2026-04-22T14:21:01.001Z</time></trkpt><trkpt lat="42.67793203405958" lon="12.844768009635004"><ele>884.0</ele><time>2026-04-22T14:21:02.001Z</time></trkpt><trkpt lat="42.67780466273517" lon="12.844736136135246"><ele>884.0</ele><time>2026-04-22T14:21:03.001Z</time></trkpt><trkpt lat="42.677685490161885" lon="12.844783982428128"><ele>884.0</ele><time>2026-04-22T14:21:04.001Z</time></trkpt><trkpt lat="42.6775817692733" lon="12.844872801642696"><ele>886.75</ele><time>2026-04-22T14:21:05.001Z</time></trkpt><trkpt lat="42.67748718445213" lon="12.845005469368736"><ele>889.5</ele><time>2026-04-22T14:21:06.001Z</time></trkpt><trkpt lat="42.677414839045845" lon="12.845156774686945"><ele>892.25</ele><time>2026-04-22T14:21:07.001Z</time></trkpt><trkpt lat="42.6773585797246" lon="12.845340771444114"><ele>895.0</ele><time>2026-04-22T14:21:08.001Z</time></trkpt><trkpt lat="42.67732566399437" lon="12.8455539232272"><ele>903.3333333333333</ele><time>2026-04-22T14:21:09.001Z</time></trkpt><trkpt lat="42.677301293794855" lon="12.845774893664897"><ele>911.6666666666667</ele><time>2026-04-22T14:21:10.001Z</time></trkpt><trkpt lat="42.67727098869155" lon="12.84600659480771"><ele>920.0</ele><time>2026-04-22T14:21:11.001Z</time></trkpt><trkpt lat="42.67723930197745" lon="12.84623485903081"><ele>924.3333333333334</ele><time>2026-04-22T14:21:12.001Z</time></trkpt><trkpt lat="42.67720352065113" lon="12.846474176829409"><ele>928.6666666666667</ele><time>2026-04-22T14:21:13.001Z</time></trkpt><trkpt lat="42.677167441874104" lon="12.846721637884665"><ele>933.0</ele><time>2026-04-22T14:21:14.001Z</time></trkpt><trkpt lat="42.677137113855686" lon="12.846966762171135"><ele>936.0</ele><time>2026-04-22T14:21:15.001Z</time></trkpt><trkpt lat="42.6771059728245" lon="12.847212526308864"><ele>939.0</ele><time>2026-04-22T14:21:16.001Z</time></trkpt><trkpt lat="42.67707641129352" lon="12.847453124734939"><ele>942.0</ele><time>2026-04-22T14:21:17.001Z</time></trkpt><trkpt lat="42.67704209775241" lon="12.847680682488457"><ele>946.6666666666667</ele><time>2026-04-22T14:21:18.001Z</time></trkpt><trkpt lat="42.677001696810194" lon="12.847887807586421"><ele>951.3333333333334</ele><time>2026-04-22T14:21:19.001Z</time></trkpt><trkpt lat="42.67695036991699" lon="12.848087746888796"><ele>956.0</ele><time>2026-04-22T14:21:20.001Z</time></trkpt><trkpt lat="42.676876842217446" lon="12.848269533861854"><ele>949.0</ele><time>2026-04-22T14:21:21.001Z</time></trkpt><trkpt lat="42.67680789818408" lon="12.848448384469409"><ele>942.0</ele><time>2026-04-22T14:21:22.001Z</time></trkpt><trkpt lat="42.67676296128468" lon="12.848617176532464"><ele>935.0</ele><time>2026-04-22T14:21:23.001Z</time></trkpt><trkpt lat="42.67672894738678" lon="12.848747947297172"><ele>928.0</ele><time>2026-04-22T14:21:24.001Z</time></trkpt><trkpt lat="42.67672520859197" lon="12.848854795167492"><ele>927.9999999999999</ele><time>2026-04-22T14:21:25.001Z</time></trkpt><trkpt lat="42.67676172463205" lon="12.84892706714902"><ele>928.0</ele><time>2026-04-22T14:21:26.001Z</time></trkpt><trkpt lat="42.676826153781334" lon="12.848976615699561"><ele>928.0</ele><time>2026-04-22T14:21:27.001Z</time></trkpt><trkpt lat="42.676899809267844" lon="12.848985871040117"><ele>928.0</ele><time>2026-04-22T14:21:28.001Z</time></trkpt><trkpt lat="42.67697107044314" lon="12.848972693580265"><ele>927.9999999999999</ele><time>2026-04-22T14:21:29.001Z</time></trkpt><trkpt lat="42.677025400139314" lon="12.84887434852331"><ele>928.0</ele><time>2026-04-22T14:21:30.001Z</time></trkpt><trkpt lat="42.67702701917862" lon="12.848729809746013"><ele>933.5999999999999</ele><time>2026-04-22T14:21:31.001Z</time></trkpt><trkpt lat="42.677054958045595" lon="12.84859676118365"><ele>939.1999999999999</ele><time>2026-04-22T14:21:32.001Z</time></trkpt><trkpt lat="42.67709221742744" lon="12.84845783111856"><ele>944.8</ele><time>2026-04-22T14:21:33.001Z</time></trkpt><trkpt lat="42.677134497961475" lon="12.848310820940082"><ele>950.4</ele><time>2026-04-22T14:21:34.001Z</time></trkpt><trkpt lat="42.67717579806692" lon="12.848177971036515"><ele>956.0</ele><time>2026-04-22T14:21:35.001Z</time></trkpt><trkpt lat="42.67725786963383" lon="12.847928809748822"><ele>956.0000000000001</ele><time>2026-04-22T14:21:37.001Z</time></trkpt><trkpt lat="42.67728955569992" lon="12.847833361118239"><ele>956.0</ele><time>2026-04-22T14:21:38.001Z</time></trkpt><trkpt lat="42.67733233311289" lon="12.847709660665094"><ele>956.0</ele><time>2026-04-22T14:21:40.001Z</time></trkpt><trkpt lat="42.677312946961635" lon="12.847818789289276"><ele>956.0</ele><time>2026-04-22T14:22:11.001Z</time></trkpt><trkpt lat="42.67728178361786" lon="12.847911774618943"><ele>956.0000000000001</ele><time>2026-04-22T14:22:12.001Z</time></trkpt><trkpt lat="42.67724959939846" lon="12.848008724056935"><ele>956.0</ele><time>2026-04-22T14:22:13.001Z</time></trkpt><trkpt lat="42.67719946854393" lon="12.848166665751934"><ele>956.0</ele><time>2026-04-22T14:22:14.001Z</time></trkpt><trkpt lat="42.677247951690966" lon="12.848352862519818"><ele>956.0</ele><time>2026-04-22T14:22:15.001Z</time></trkpt><trkpt lat="42.67722762104258" lon="12.848484160084302"><ele>956.0</ele><time>2026-04-22T14:22:16.001Z</time></trkpt><trkpt lat="42.677206571693084" lon="12.848623608134194"><ele>956.0</ele><time>2026-04-22T14:22:17.001Z</time></trkpt><trkpt lat="42.677185992096305" lon="12.84876356956804"><ele>960.1999999999999</ele><time>2026-04-22T14:22:18.001Z</time></trkpt><trkpt lat="42.677167696373445" lon="12.84890477671026"><ele>964.3999999999999</ele><time>2026-04-22T14:22:19.001Z</time></trkpt><trkpt lat="42.67715067746055" lon="12.84904539823291"><ele>968.6</ele><time>2026-04-22T14:22:20.001Z</time></trkpt><trkpt lat="42.677130274636475" lon="12.849189051830667"><ele>972.8</ele><time>2026-04-22T14:22:21.001Z</time></trkpt><trkpt lat="42.67710771456281" lon="12.84933693060983"><ele>977.0</ele><time>2026-04-22T14:22:22.001Z</time></trkpt><trkpt lat="42.67708145365658" lon="12.849484939165517"><ele>980.8333333333334</ele><time>2026-04-22T14:22:23.001Z</time></trkpt><trkpt lat="42.67705636884253" lon="12.849633075555234"><ele>984.6666666666667</ele><time>2026-04-22T14:22:24.001Z</time></trkpt><trkpt lat="42.67703248332683" lon="12.849770243073182"><ele>988.5</ele><time>2026-04-22T14:22:25.001Z</time></trkpt><trkpt lat="42.67702262840645" lon="12.84988100290311"><ele>992.3333333333333</ele><time>2026-04-22T14:22:26.001Z</time></trkpt><trkpt lat="42.67701916500266" lon="12.849980716089904"><ele>996.1666666666666</ele><time>2026-04-22T14:22:27.001Z</time></trkpt><trkpt lat="42.67701524598574" lon="12.850080730631994"><ele>1000.0</ele><time>2026-04-22T14:22:28.001Z</time></trkpt><trkpt lat="42.67701436686174" lon="12.850187734757098"><ele>1003.3333333333333</ele><time>2026-04-22T14:22:29.001Z</time></trkpt><trkpt lat="42.67702140718207" lon="12.85030066049271"><ele>1006.6666666666666</ele><time>2026-04-22T14:22:30.001Z</time></trkpt><trkpt lat="42.677033578708226" lon="12.85041794059505"><ele>1010.0</ele><time>2026-04-22T14:22:31.001Z</time></trkpt><trkpt lat="42.67704441472406" lon="12.85053706450914"><ele>1013.3333333333333</ele><time>2026-04-22T14:22:32.001Z</time></trkpt><trkpt lat="42.677048646850984" lon="12.850658609395474"><ele>1016.6666666666666</ele><time>2026-04-22T14:22:33.001Z</time></trkpt><trkpt lat="42.67703644675432" lon="12.850783249019866"><ele>1020.0</ele><time>2026-04-22T14:22:34.001Z</time></trkpt><trkpt lat="42.677009248854276" lon="12.85090029665423"><ele>1015.4</ele><time>2026-04-22T14:22:35.001Z</time></trkpt><trkpt lat="42.676975715101236" lon="12.851022414619173"><ele>1010.8</ele><time>2026-04-22T14:22:36.001Z</time></trkpt><trkpt lat="42.6769372683299" lon="12.851142673043382"><ele>1006.2</ele><time>2026-04-22T14:22:37.001Z</time></trkpt><trkpt lat="42.676896286207395" lon="12.851257493319"><ele>1001.6</ele><time>2026-04-22T14:22:38.001Z</time></trkpt><trkpt lat="42.67685291667593" lon="12.851380865659527"><ele>997.0</ele><time>2026-04-22T14:22:39.001Z</time></trkpt><trkpt lat="42.67680287268575" lon="12.851519767666364"><ele>997.0</ele><time>2026-04-22T14:22:40.001Z</time></trkpt><trkpt lat="42.67675237407201" lon="12.851668132008037"><ele>997.0</ele><time>2026-04-22T14:22:41.001Z</time></trkpt><trkpt lat="42.676716921877784" lon="12.851798155942797"><ele>997.0</ele><time>2026-04-22T14:22:42.001Z</time></trkpt><trkpt lat="42.676692152133874" lon="12.851921945758033"><ele>997.0</ele><time>2026-04-22T14:22:43.001Z</time></trkpt><trkpt lat="42.67667419625282" lon="12.852037511900225"><ele>997.0</ele><time>2026-04-22T14:22:44.001Z</time></trkpt><trkpt lat="42.67664531038918" lon="12.852148253452938"><ele>1002.0</ele><time>2026-04-22T14:22:45.001Z</time></trkpt><trkpt lat="42.67660265800389" lon="12.852258210023368"><ele>1007.0</ele><time>2026-04-22T14:22:46.001Z</time></trkpt><trkpt lat="42.67654476932808" lon="12.852356851562947"><ele>1012.0</ele><time>2026-04-22T14:22:47.001Z</time></trkpt><trkpt lat="42.67647174359256" lon="12.852429567698556"><ele>1017.0</ele><time>2026-04-22T14:22:48.001Z</time></trkpt><trkpt lat="42.67638809670348" lon="12.852476163192081"><ele>1022.0</ele><time>2026-04-22T14:22:49.001Z</time></trkpt><trkpt lat="42.67630142870908" lon="12.852522610163705"><ele>1022.0000000000001</ele><time>2026-04-22T14:22:50.001Z</time></trkpt><trkpt lat="42.676241930362536" lon="12.852578406272777"><ele>1022.0</ele><time>2026-04-22T14:22:51.001Z</time></trkpt><trkpt lat="42.6762094880931" lon="12.852657923906243"><ele>1022.0</ele><time>2026-04-22T14:22:52.001Z</time></trkpt><trkpt lat="42.676195213857596" lon="12.852752810083656"><ele>1022.0</ele><time>2026-04-22T14:22:53.001Z</time></trkpt><trkpt lat="42.67619425309711" lon="12.852867914601186"><ele>1022.0000000000001</ele><time>2026-04-22T14:22:54.001Z</time></trkpt><trkpt lat="42.67620017747745" lon="12.853018143645748"><ele>1022.0</ele><time>2026-04-22T14:22:55.001Z</time></trkpt><trkpt lat="42.67619976745065" lon="12.853141122274112"><ele>1022.6666666666667</ele><time>2026-04-22T14:22:56.001Z</time></trkpt><trkpt lat="42.67615775205778" lon="12.853243646144573"><ele>1023.3333333333334</ele><time>2026-04-22T14:22:58.001Z</time></trkpt><trkpt lat="42.67606951382017" lon="12.85322365962104"><ele>1024.0</ele><time>2026-04-22T14:23:00.001Z</time></trkpt><trkpt lat="42.675995587864115" lon="12.853192867476842"><ele>1024.6666666666667</ele><time>2026-04-22T14:23:01.001Z</time></trkpt><trkpt lat="42.67590531478614" lon="12.853158322195215"><ele>1025.3333333333333</ele><time>2026-04-22T14:23:02.001Z</time></trkpt><trkpt lat="42.67580886153191" lon="12.853152077015118"><ele>1026.0</ele><time>2026-04-22T14:23:03.001Z</time></trkpt><trkpt lat="42.675706831310784" lon="12.853163462172585"><ele>1026.0</ele><time>2026-04-22T14:23:04.001Z</time></trkpt><trkpt lat="42.67560935564981" lon="12.853184867553585"><ele>1026.0</ele><time>2026-04-22T14:23:05.001Z</time></trkpt><trkpt lat="42.67552470133853" lon="12.85321288972656"><ele>1026.0</ele><time>2026-04-22T14:23:06.001Z</time></trkpt><trkpt lat="42.675457959942605" lon="12.853269147172066"><ele>1026.0</ele><time>2026-04-22T14:23:07.001Z</time></trkpt><trkpt lat="42.67540481488435" lon="12.853348054764231"><ele>1026.0</ele><time>2026-04-22T14:23:08.001Z</time></trkpt><trkpt lat="42.6753817504089" lon="12.853467297496687"><ele>1026.0</ele><time>2026-04-22T14:23:09.001Z</time></trkpt><trkpt lat="42.67532969178349" lon="12.853590546674702"><ele>1026.75</ele><time>2026-04-22T14:23:10.001Z</time></trkpt><trkpt lat="42.67524405196402" lon="12.853701054899478"><ele>1027.5</ele><time>2026-04-22T14:23:11.001Z</time></trkpt><trkpt lat="42.675153186120276" lon="12.853809422607606"><ele>1028.25</ele><time>2026-04-22T14:23:12.001Z</time></trkpt><trkpt lat="42.67507583425182" lon="12.853923306006182"><ele>1029.0</ele><time>2026-04-22T14:23:13.001Z</time></trkpt><trkpt lat="42.675020340007435" lon="12.854060838534473"><ele>1029.0</ele><time>2026-04-22T14:23:14.001Z</time></trkpt><trkpt lat="42.67498597836739" lon="12.854206919634485"><ele>1029.0</ele><time>2026-04-22T14:23:15.001Z</time></trkpt><trkpt lat="42.67496594611159" lon="12.85433207075346"><ele>1029.0</ele><time>2026-04-22T14:23:16.001Z</time></trkpt><trkpt lat="42.674949501863175" lon="12.854436781283535"><ele>1029.0</ele><time>2026-04-22T14:23:17.001Z</time></trkpt><trkpt lat="42.67492158743914" lon="12.854516554225174"><ele>1029.0</ele><time>2026-04-22T14:23:18.001Z</time></trkpt><trkpt lat="42.67486837263805" lon="12.854570037291852"><ele>1029.0</ele><time>2026-04-22T14:23:19.001Z</time></trkpt><trkpt lat="42.674796819572094" lon="12.854584702451918"><ele>1033.8333333333333</ele><time>2026-04-22T14:23:20.001Z</time></trkpt><trkpt lat="42.674733658441404" lon="12.854586286926164"><ele>1038.6666666666667</ele><time>2026-04-22T14:23:21.001Z</time></trkpt><trkpt lat="42.67465034128793" lon="12.85462929285584"><ele>1043.5</ele><time>2026-04-22T14:23:23.001Z</time></trkpt><trkpt lat="42.674655290022585" lon="12.854776433610969"><ele>1048.3333333333335</ele><time>2026-04-22T14:24:42Z</time></trkpt><trkpt lat="42.67465453411699" lon="12.854875529998063"><ele>1053.1666666666667</ele><time>2026-04-22T14:24:43Z</time></trkpt><trkpt lat="42.67461635496067" lon="12.855010167176731"><ele>1058.0</ele><time>2026-04-22T14:24:45Z</time></trkpt><trkpt lat="42.67451086494353" lon="12.855072100720973"><ele>1058.0</ele><time>2026-04-22T14:24:47Z</time></trkpt><trkpt lat="42.67444302783193" lon="12.855088020543835"><ele>1058.0</ele><time>2026-04-22T14:24:48Z</time></trkpt><trkpt lat="42.67438232435361" lon="12.855124044910344"><ele>1058.0</ele><time>2026-04-22T14:24:49Z</time></trkpt><trkpt lat="42.67432731212461" lon="12.855186810293292"><ele>1058.0</ele><time>2026-04-22T14:24:50Z</time></trkpt><trkpt lat="42.6742826081543" lon="12.855265130952102"><ele>1058.0</ele><time>2026-04-22T14:24:51Z</time></trkpt><trkpt lat="42.67421606873141" lon="12.855433631675085"><ele>1058.0</ele><time>2026-04-22T14:24:53Z</time></trkpt><trkpt lat="42.674184206785796" lon="12.855507665408053"><ele>1058.6</ele><time>2026-04-22T14:24:54Z</time></trkpt><trkpt lat="42.67409595400149" lon="12.855551310697882"><ele>1059.1999999999998</ele><time>2026-04-22T14:24:56Z</time></trkpt><trkpt lat="42.673996761693175" lon="12.85548556733429"><ele>1059.8</ele><time>2026-04-22T14:24:58Z</time></trkpt><trkpt lat="42.67394236422146" lon="12.855407380831743"><ele>1060.3999999999999</ele><time>2026-04-22T14:24:59Z</time></trkpt><trkpt lat="42.67387833779046" lon="12.855313312801954"><ele>1061.0</ele><time>2026-04-22T14:25:00Z</time></trkpt><trkpt lat="42.673802592545776" lon="12.855221224883973"><ele>1061.0</ele><time>2026-04-22T14:25:01Z</time></trkpt><trkpt lat="42.67372649068526" lon="12.855122744259964"><ele>1061.0</ele><time>2026-04-22T14:25:02Z</time></trkpt><trkpt lat="42.67365164843594" lon="12.855017780137596"><ele>1061.0</ele><time>2026-04-22T14:25:03Z</time></trkpt><trkpt lat="42.67356436668792" lon="12.854922824828627"><ele>1061.0</ele><time>2026-04-22T14:25:04Z</time></trkpt><trkpt lat="42.67348022940264" lon="12.854850606544789"><ele>1061.0</ele><time>2026-04-22T14:25:05Z</time></trkpt><trkpt lat="42.67338634353077" lon="12.854793256278183"><ele>1057.0</ele><time>2026-04-22T14:25:06Z</time></trkpt><trkpt lat="42.67329682400223" lon="12.854743400599583"><ele>1053.0</ele><time>2026-04-22T14:25:07Z</time></trkpt><trkpt lat="42.67319291088873" lon="12.854707025631654"><ele>1049.0</ele><time>2026-04-22T14:25:08Z</time></trkpt><trkpt lat="42.67308597138877" lon="12.854683071104004"><ele>1045.0</ele><time>2026-04-22T14:25:09Z</time></trkpt><trkpt lat="42.672980934950154" lon="12.854676209913503"><ele>1041.0</ele><time>2026-04-22T14:25:10Z</time></trkpt><trkpt lat="42.67287565573705" lon="12.854674081241509"><ele>1041.0</ele><time>2026-04-22T14:25:11Z</time></trkpt><trkpt lat="42.67277282550618" lon="12.854671831311576"><ele>1041.0</ele><time>2026-04-22T14:25:12Z</time></trkpt><trkpt lat="42.67266146375376" lon="12.854658811803501"><ele>1041.0</ele><time>2026-04-22T14:25:13Z</time></trkpt><trkpt lat="42.672554541415465" lon="12.854657690579327"><ele>1041.0</ele><time>2026-04-22T14:25:14Z</time></trkpt><trkpt lat="42.67246152747586" lon="12.854655561279905"><ele>1041.0</ele><time>2026-04-22T14:25:15Z</time></trkpt><trkpt lat="42.672359935484316" lon="12.854673579290148"><ele>1043.6</ele><time>2026-04-22T14:25:16Z</time></trkpt><trkpt lat="42.67227627050767" lon="12.854695227762319"><ele>1046.1999999999998</ele><time>2026-04-22T14:25:17Z</time></trkpt><trkpt lat="42.672189698905036" lon="12.85473199783568"><ele>1048.8000000000002</ele><time>2026-04-22T14:25:18Z</time></trkpt><trkpt lat="42.67210411349924" lon="12.854750578336022"><ele>1051.4</ele><time>2026-04-22T14:25:19Z</time></trkpt><trkpt lat="42.672008093437846" lon="12.85474254582669"><ele>1054.0</ele><time>2026-04-22T14:25:20Z</time></trkpt><trkpt lat="42.67191253736505" lon="12.854712091419147"><ele>1055.4</ele><time>2026-04-22T14:25:21Z</time></trkpt><trkpt lat="42.67181707428723" lon="12.85465791111999"><ele>1056.8000000000002</ele><time>2026-04-22T14:25:22Z</time></trkpt><trkpt lat="42.671718041956005" lon="12.854603025324934"><ele>1058.1999999999998</ele><time>2026-04-22T14:25:23Z</time></trkpt><trkpt lat="42.67162471274387" lon="12.854552652408241"><ele>1059.6</ele><time>2026-04-22T14:25:24Z</time></trkpt><trkpt lat="42.67153474558797" lon="12.85451202827619"><ele>1061.0</ele><time>2026-04-22T14:25:25Z</time></trkpt><trkpt lat="42.67145182909673" lon="12.854482388213519"><ele>1061.0</ele><time>2026-04-22T14:25:26Z</time></trkpt><trkpt lat="42.67137263049749" lon="12.854454913346"><ele>1061.0</ele><time>2026-04-22T14:25:27Z</time></trkpt><trkpt lat="42.671294363501204" lon="12.854417852509316"><ele>1061.0</ele><time>2026-04-22T14:25:28Z</time></trkpt><trkpt lat="42.67121853230374" lon="12.854377006716492"><ele>1061.0</ele><time>2026-04-22T14:25:29Z</time></trkpt><trkpt lat="42.671157925500566" lon="12.854346975477997"><ele>1061.0</ele><time>2026-04-22T14:25:30Z</time></trkpt><trkpt lat="42.67103294038749" lon="12.854334061630848"><ele>1061.0</ele><time>2026-04-22T14:25:32Z</time></trkpt><trkpt lat="42.67096670339407" lon="12.854349668772656"><ele>1060.6666666666667</ele><time>2026-04-22T14:25:33Z</time></trkpt><trkpt lat="42.67086494301459" lon="12.854402433633474"><ele>1060.3333333333335</ele><time>2026-04-22T14:25:35Z</time></trkpt><trkpt lat="42.67078924338169" lon="12.854462463351108"><ele>1060.0</ele><time>2026-04-22T14:25:37Z</time></trkpt><trkpt lat="42.67072787797466" lon="12.854545630265124"><ele>1059.6666666666667</ele><time>2026-04-22T14:25:39Z</time></trkpt><trkpt lat="42.67066903621689" lon="12.854637739332937"><ele>1059.3333333333333</ele><time>2026-04-22T14:25:41Z</time></trkpt><trkpt lat="42.67062797204861" lon="12.85470503105153"><ele>1059.0</ele><time>2026-04-22T14:25:42Z</time></trkpt><trkpt lat="42.6705787521882" lon="12.854781898266268"><ele>1059.0</ele><time>2026-04-22T14:25:43Z</time></trkpt><trkpt lat="42.67052773000797" lon="12.854874541466698"><ele>1059.0</ele><time>2026-04-22T14:25:44Z</time></trkpt><trkpt lat="42.670483086831474" lon="12.85496476374524"><ele>1059.0</ele><time>2026-04-22T14:25:45Z</time></trkpt><trkpt lat="42.6704350597489" lon="12.855064851578112"><ele>1059.0</ele><time>2026-04-22T14:25:46Z</time></trkpt><trkpt lat="42.670401850052" lon="12.855150051396896"><ele>1059.0</ele><time>2026-04-22T14:25:47Z</time></trkpt><trkpt lat="42.67037082472325" lon="12.855246182608552"><ele>1059.0</ele><time>2026-04-22T14:25:48Z</time></trkpt><trkpt lat="42.670337537713976" lon="12.855346230093238"><ele>1058.3333333333333</ele><time>2026-04-22T14:25:49Z</time></trkpt><trkpt lat="42.67030280055286" lon="12.855427868858518"><ele>1057.6666666666667</ele><time>2026-04-22T14:25:50Z</time></trkpt><trkpt lat="42.67025023724895" lon="12.855511898373482"><ele>1057.0</ele><time>2026-04-22T14:25:51Z</time></trkpt><trkpt lat="42.670188304494616" lon="12.855605585536386"><ele>1056.3333333333335</ele><time>2026-04-22T14:25:52Z</time></trkpt><trkpt lat="42.67012884054968" lon="12.855701064646118"><ele>1055.6666666666667</ele><time>2026-04-22T14:25:53Z</time></trkpt><trkpt lat="42.670074116561274" lon="12.855804404242505"><ele>1055.0</ele><time>2026-04-22T14:25:54Z</time></trkpt><trkpt lat="42.670018491448225" lon="12.855917947216582"><ele>1061.2</ele><time>2026-04-22T14:25:55Z</time></trkpt><trkpt lat="42.66995684226085" lon="12.856009586253643"><ele>1067.4</ele><time>2026-04-22T14:25:56Z</time></trkpt><trkpt lat="42.669878408904474" lon="12.856103049390825"><ele>1073.6</ele><time>2026-04-22T14:25:57Z</time></trkpt><trkpt lat="42.66979923864626" lon="12.85619845175828"><ele>1079.8</ele><time>2026-04-22T14:25:58Z</time></trkpt><trkpt lat="42.66971734883451" lon="12.856303163250736"><ele>1086.0</ele><time>2026-04-22T14:25:59Z</time></trkpt><trkpt lat="42.669630389842816" lon="12.856410406074588"><ele>1086.0</ele><time>2026-04-22T14:26:00Z</time></trkpt><trkpt lat="42.66954175262419" lon="12.8565140217603"><ele>1086.0</ele><time>2026-04-22T14:26:01Z</time></trkpt><trkpt lat="42.66945315209599" lon="12.856613452916639"><ele>1086.0</ele><time>2026-04-22T14:26:02Z</time></trkpt><trkpt lat="42.6693585029052" lon="12.856709202070606"><ele>1086.0</ele><time>2026-04-22T14:26:03Z</time></trkpt><trkpt lat="42.66926394722994" lon="12.856809444445606"><ele>1086.2</ele><time>2026-04-22T14:26:04Z</time></trkpt><trkpt lat="42.66917474776617" lon="12.856908045888794"><ele>1086.3999999999999</ele><time>2026-04-22T14:26:05Z</time></trkpt><trkpt lat="42.66909407561862" lon="12.856997799563542"><ele>1086.6</ele><time>2026-04-22T14:26:06Z</time></trkpt><trkpt lat="42.669020184381004" lon="12.857091009415466"><ele>1086.8</ele><time>2026-04-22T14:26:07Z</time></trkpt><trkpt lat="42.66894067167737" lon="12.857185123344099"><ele>1087.0</ele><time>2026-04-22T14:26:08Z</time></trkpt><trkpt lat="42.66885545911984" lon="12.857278024093352"><ele>1087.0</ele><time>2026-04-22T14:26:09Z</time></trkpt><trkpt lat="42.66877372409075" lon="12.857360863145805"><ele>1087.0</ele><time>2026-04-22T14:26:10Z</time></trkpt><trkpt lat="42.668695436018716" lon="12.857425230713428"><ele>1087.0</ele><time>2026-04-22T14:26:11Z</time></trkpt><trkpt lat="42.66863716131373" lon="12.857461716574404"><ele>1087.0</ele><time>2026-04-22T14:26:12Z</time></trkpt><trkpt lat="42.6686237728852" lon="12.857573154919612"><ele>1087.0</ele><time>2026-04-22T14:26:15Z</time></trkpt><trkpt lat="42.668695782338375" lon="12.857590232951488"><ele>1087.0</ele><time>2026-04-22T14:26:17Z</time></trkpt><trkpt lat="42.66878515093356" lon="12.857562856629364"><ele>1087.0</ele><time>2026-04-22T14:26:18Z</time></trkpt><trkpt lat="42.66886925343717" lon="12.857514697687177"><ele>1087.0</ele><time>2026-04-22T14:26:19Z</time></trkpt><trkpt lat="42.668937996544436" lon="12.857458569220364"><ele>1087.0</ele><time>2026-04-22T14:26:20Z</time></trkpt><trkpt lat="42.669003811820495" lon="12.857385048717997"><ele>1087.0</ele><time>2026-04-22T14:26:21Z</time></trkpt><trkpt lat="42.669079051439226" lon="12.857307953058552"><ele>1087.0</ele><time>2026-04-22T14:26:22Z</time></trkpt><trkpt lat="42.6691416634737" lon="12.85727043459194"><ele>1087.0</ele><time>2026-04-22T14:26:23Z</time></trkpt><trkpt lat="42.6691987220985" lon="12.857309696016495"><ele>1087.0</ele><time>2026-04-22T14:26:35.999Z</time></trkpt><trkpt lat="42.66916555471857" lon="12.857412563022564"><ele>1087.0</ele><time>2026-04-22T14:26:38.999Z</time></trkpt><trkpt lat="42.669079418989796" lon="12.857480895485686"><ele>1087.0</ele><time>2026-04-22T14:26:40.999Z</time></trkpt><trkpt lat="42.66902643695346" lon="12.857527728343445"><ele>1087.0</ele><time>2026-04-22T14:26:41.999Z</time></trkpt><trkpt lat="42.668972901952245" lon="12.857602191158167"><ele>1087.0</ele><time>2026-04-22T14:26:42.999Z</time></trkpt><trkpt lat="42.66890030306195" lon="12.85772241725436"><ele>1087.0</ele><time>2026-04-22T14:26:43.999Z</time></trkpt><trkpt lat="42.668849955016974" lon="12.857823255723975"><ele>1090.2</ele><time>2026-04-22T14:26:44.999Z</time></trkpt><trkpt lat="42.66879402057478" lon="12.857932862281073"><ele>1093.4</ele><time>2026-04-22T14:26:45.999Z</time></trkpt><trkpt lat="42.66875098626227" lon="12.85801731087651"><ele>1096.6</ele><time>2026-04-22T14:26:46.999Z</time></trkpt><trkpt lat="42.66871048061825" lon="12.858159136204726"><ele>1099.8</ele><time>2026-04-22T14:26:48.999Z</time></trkpt><trkpt lat="42.66872592471265" lon="12.858269083892887"><ele>1103.0</ele><time>2026-04-22T14:26:50.999Z</time></trkpt><trkpt lat="42.66880162510331" lon="12.858385051570155"><ele>1103.0</ele><time>2026-04-22T14:26:52.999Z</time></trkpt><trkpt lat="42.66885861237082" lon="12.858463535157377"><ele>1103.0</ele><time>2026-04-22T14:26:53.999Z</time></trkpt><trkpt lat="42.668903319978774" lon="12.858542831479728"><ele>1103.0</ele><time>2026-04-22T14:26:54.999Z</time></trkpt><trkpt lat="42.66891421256161" lon="12.858689688262913"><ele>1103.0</ele><time>2026-04-22T14:26:56.999Z</time></trkpt><trkpt lat="42.668908875520536" lon="12.85886638018331"><ele>1103.0</ele><time>2026-04-22T14:26:58.999Z</time></trkpt><trkpt lat="42.6689146625621" lon="12.85897874629827"><ele>1103.0</ele><time>2026-04-22T14:26:59.999Z</time></trkpt><trkpt lat="42.668923925447515" lon="12.859089862787766"><ele>1103.0</ele><time>2026-04-22T14:27:00.999Z</time></trkpt><trkpt lat="42.6689410270259" lon="12.859210033960949"><ele>1103.0</ele><time>2026-04-22T14:27:01.999Z</time></trkpt><trkpt lat="42.66896497196034" lon="12.85933395756275"><ele>1103.0</ele><time>2026-04-22T14:27:02.999Z</time></trkpt><trkpt lat="42.66898772238702" lon="12.859458167665464"><ele>1103.0</ele><time>2026-04-22T14:27:03.999Z</time></trkpt><trkpt lat="42.6690076688753" lon="12.85958751001929"><ele>1102.3333333333335</ele><time>2026-04-22T14:27:04.999Z</time></trkpt><trkpt lat="42.66902875259206" lon="12.859705874050785"><ele>1101.6666666666667</ele><time>2026-04-22T14:27:05.999Z</time></trkpt><trkpt lat="42.669052070364636" lon="12.859829545005255"><ele>1101.0</ele><time>2026-04-22T14:27:06.999Z</time></trkpt><trkpt lat="42.66906951529468" lon="12.859946376512148"><ele>1100.3333333333333</ele><time>2026-04-22T14:27:07.999Z</time></trkpt><trkpt lat="42.66908710217085" lon="12.860056358662332"><ele>1099.6666666666665</ele><time>2026-04-22T14:27:08.999Z</time></trkpt><trkpt lat="42.669106395226365" lon="12.86017032884699"><ele>1099.0</ele><time>2026-04-22T14:27:09.999Z</time></trkpt><trkpt lat="42.66913572488785" lon="12.860281734603824"><ele>1095.8333333333333</ele><time>2026-04-22T14:27:10.999Z</time></trkpt><trkpt lat="42.66917623177604" lon="12.860374316918998"><ele>1092.6666666666665</ele><time>2026-04-22T14:27:11.999Z</time></trkpt><trkpt lat="42.669229859536436" lon="12.860458845775613"><ele>1089.5</ele><time>2026-04-22T14:27:12.999Z</time></trkpt><trkpt lat="42.66929299004204" lon="12.860548186497148"><ele>1086.3333333333333</ele><time>2026-04-22T14:27:14Z</time></trkpt><trkpt lat="42.66936245260713" lon="12.860636088697207"><ele>1083.1666666666667</ele><time>2026-04-22T14:27:15Z</time></trkpt><trkpt lat="42.66942932694001" lon="12.860715401427639"><ele>1080.0</ele><time>2026-04-22T14:27:16Z</time></trkpt><trkpt lat="42.66950280717278" lon="12.860815547970622"><ele>1083.2</ele><time>2026-04-22T14:27:17Z</time></trkpt><trkpt lat="42.6695829280542" lon="12.860902341539866"><ele>1086.4</ele><time>2026-04-22T14:27:18Z</time></trkpt><trkpt lat="42.66965808828068" lon="12.860982796270875"><ele>1089.6</ele><time>2026-04-22T14:27:19Z</time></trkpt><trkpt lat="42.669727781803225" lon="12.861048089126948"><ele>1092.8</ele><time>2026-04-22T14:27:20Z</time></trkpt><trkpt lat="42.66979595506524" lon="12.861120591274046"><ele>1096.0</ele><time>2026-04-22T14:27:21Z</time></trkpt><trkpt lat="42.66985757865581" lon="12.86121223025855"><ele>1096.0</ele><time>2026-04-22T14:27:22Z</time></trkpt><trkpt lat="42.669929264859206" lon="12.861310563865517"><ele>1096.0</ele><time>2026-04-22T14:27:23Z</time></trkpt><trkpt lat="42.670008027326396" lon="12.861417127729586"><ele>1096.0</ele><time>2026-04-22T14:27:24Z</time></trkpt><trkpt lat="42.670089028485094" lon="12.861521772976802"><ele>1096.0</ele><time>2026-04-22T14:27:25Z</time></trkpt><trkpt lat="42.670163168659585" lon="12.861612833816402"><ele>1096.0</ele><time>2026-04-22T14:27:26Z</time></trkpt><trkpt lat="42.6702298682553" lon="12.861685365380398"><ele>1100.8333333333333</ele><time>2026-04-22T14:27:27Z</time></trkpt><trkpt lat="42.67029399884029" lon="12.86175282244491"><ele>1105.6666666666665</ele><time>2026-04-22T14:27:28Z</time></trkpt><trkpt lat="42.670349131452575" lon="12.861802659169104"><ele>1110.5</ele><time>2026-04-22T14:27:29Z</time></trkpt><trkpt lat="42.670405752722615" lon="12.86184107663296"><ele>1115.3333333333333</ele><time>2026-04-22T14:27:30Z</time></trkpt><trkpt lat="42.670483856613714" lon="12.86192342311581"><ele>1120.1666666666667</ele><time>2026-04-22T14:27:32Z</time></trkpt><trkpt lat="42.670459726357166" lon="12.862013198733553"><ele>1125.0</ele><time>2026-04-22T14:27:34Z</time></trkpt><trkpt lat="42.67033756804507" lon="12.862087382947657"><ele>1120.6</ele><time>2026-04-22T14:27:36Z</time></trkpt><trkpt lat="42.67025518410302" lon="12.862129736859918"><ele>1116.2</ele><time>2026-04-22T14:27:37Z</time></trkpt><trkpt lat="42.6701678332776" lon="12.862178483309494"><ele>1111.8</ele><time>2026-04-22T14:27:38Z</time></trkpt><trkpt lat="42.67006516842622" lon="12.862263664636691"><ele>1107.4</ele><time>2026-04-22T14:27:39Z</time></trkpt><trkpt lat="42.66996199807115" lon="12.862338033289948"><ele>1103.0</ele><time>2026-04-22T14:27:40Z</time></trkpt><trkpt lat="42.66985562512924" lon="12.862408232902547"><ele>1103.0</ele><time>2026-04-22T14:27:41Z</time></trkpt><trkpt lat="42.66975192307024" lon="12.862481546563272"><ele>1103.0</ele><time>2026-04-22T14:27:42Z</time></trkpt><trkpt lat="42.66966132005171" lon="12.862550221191212"><ele>1103.0</ele><time>2026-04-22T14:27:43Z</time></trkpt><trkpt lat="42.66960019547152" lon="12.862616288606356"><ele>1103.0</ele><time>2026-04-22T14:27:44Z</time></trkpt><trkpt lat="42.669537908573034" lon="12.862699547143515"><ele>1103.0</ele><time>2026-04-22T14:27:45Z</time></trkpt><trkpt lat="42.66948359793178" lon="12.862791715781112"><ele>1103.2</ele><time>2026-04-22T14:27:46Z</time></trkpt><trkpt lat="42.669451032693566" lon="12.862898316757503"><ele>1103.4</ele><time>2026-04-22T14:27:47Z</time></trkpt><trkpt lat="42.669406280149616" lon="12.863006815821707"><ele>1103.6000000000001</ele><time>2026-04-22T14:27:48Z</time></trkpt><trkpt lat="42.66934190480916" lon="12.863099648132774"><ele>1103.8</ele><time>2026-04-22T14:27:49Z</time></trkpt><trkpt lat="42.669275787097085" lon="12.86319013704153"><ele>1104.0</ele><time>2026-04-22T14:27:50Z</time></trkpt><trkpt lat="42.66918605073075" lon="12.863283631812235"><ele>1104.0</ele><time>2026-04-22T14:27:51Z</time></trkpt><trkpt lat="42.66909243779625" lon="12.86336329203608"><ele>1104.0</ele><time>2026-04-22T14:27:52Z</time></trkpt><trkpt lat="42.66899930629084" lon="12.863414886637628"><ele>1104.0</ele><time>2026-04-22T14:27:53Z</time></trkpt><trkpt lat="42.66889665530542" lon="12.863445343507657"><ele>1104.0</ele><time>2026-04-22T14:27:54Z</time></trkpt><trkpt lat="42.66878743340681" lon="12.863444644873544"><ele>1104.0</ele><time>2026-04-22T14:27:55Z</time></trkpt><trkpt lat="42.668685496919196" lon="12.863447006942133"><ele>1102.6000000000001</ele><time>2026-04-22T14:27:56Z</time></trkpt><trkpt lat="42.668593790617784" lon="12.863467282754659"><ele>1101.2</ele><time>2026-04-22T14:27:57Z</time></trkpt><trkpt lat="42.668489411947036" lon="12.863570288592058"><ele>1099.8000000000002</ele><time>2026-04-22T14:27:59Z</time></trkpt><trkpt lat="42.668446489141616" lon="12.863668742195571"><ele>1098.4</ele><time>2026-04-22T14:28:00Z</time></trkpt><trkpt lat="42.66839960213397" lon="12.863785490727281"><ele>1097.0</ele><time>2026-04-22T14:28:01Z</time></trkpt><trkpt lat="42.66837140592259" lon="12.863873958099179"><ele>1097.0</ele><time>2026-04-22T14:28:02Z</time></trkpt><trkpt lat="42.66837326454746" lon="12.864036910134802"><ele>1097.0</ele><time>2026-04-22T14:28:04Z</time></trkpt><trkpt lat="42.668405285795394" lon="12.864147537124106"><ele>1097.0</ele><time>2026-04-22T14:28:05Z</time></trkpt><trkpt lat="42.66843082560875" lon="12.864278189784551"><ele>1097.0</ele><time>2026-04-22T14:28:06Z</time></trkpt><trkpt lat="42.668476209863144" lon="12.864409872673821"><ele>1097.0</ele><time>2026-04-22T14:28:07Z</time></trkpt><trkpt lat="42.66851344863682" lon="12.86453582658146"><ele>1097.1666666666667</ele><time>2026-04-22T14:28:08Z</time></trkpt><trkpt lat="42.66855699322679" lon="12.86463324496747"><ele>1097.3333333333335</ele><time>2026-04-22T14:28:09Z</time></trkpt><trkpt lat="42.66859475449462" lon="12.864707319139569"><ele>1097.5</ele><time>2026-04-22T14:28:10Z</time></trkpt><trkpt lat="42.66858860560331" lon="12.86483117914198"><ele>1097.6666666666667</ele><time>2026-04-22T14:28:12Z</time></trkpt><trkpt lat="42.6685414725053" lon="12.864892428248847"><ele>1097.8333333333333</ele><time>2026-04-22T14:28:13Z</time></trkpt><trkpt lat="42.66848413977166" lon="12.864967031287447"><ele>1098.0</ele><time>2026-04-22T14:28:14Z</time></trkpt><trkpt lat="42.6684421086819" lon="12.865052312018104"><ele>1100.8333333333333</ele><time>2026-04-22T14:28:15Z</time></trkpt><trkpt lat="42.668410288827076" lon="12.865147590653121"><ele>1103.6666666666667</ele><time>2026-04-22T14:28:16Z</time></trkpt><trkpt lat="42.66837728691069" lon="12.86525089919522"><ele>1106.5</ele><time>2026-04-22T14:28:17Z</time></trkpt><trkpt lat="42.6683337000429" lon="12.86535607587032"><ele>1109.3333333333335</ele><time>2026-04-22T14:28:18Z</time></trkpt><trkpt lat="42.66828996538722" lon="12.86545697791002"><ele>1112.1666666666667</ele><time>2026-04-22T14:28:19Z</time></trkpt><trkpt lat="42.668244951289964" lon="12.86555780280797"><ele>1115.0</ele><time>2026-04-22T14:28:20Z</time></trkpt><trkpt lat="42.6681958394695" lon="12.86567205758104"><ele>1115.0</ele><time>2026-04-22T14:28:21Z</time></trkpt><trkpt lat="42.66815961098332" lon="12.865792416725693"><ele>1115.0</ele><time>2026-04-22T14:28:22Z</time></trkpt><trkpt lat="42.668128498657175" lon="12.865913947231999"><ele>1115.0</ele><time>2026-04-22T14:28:23Z</time></trkpt><trkpt lat="42.66810120569817" lon="12.86603977296828"><ele>1115.0</ele><time>2026-04-22T14:28:24Z</time></trkpt><trkpt lat="42.66806948747798" lon="12.866172504907698"><ele>1115.0</ele><time>2026-04-22T14:28:25Z</time></trkpt><trkpt lat="42.668046896569415" lon="12.86629580450842"><ele>1118.4</ele><time>2026-04-22T14:28:26Z</time></trkpt><trkpt lat="42.66802738627494" lon="12.866423683900377"><ele>1121.8</ele><time>2026-04-22T14:28:27Z</time></trkpt><trkpt lat="42.668001594398916" lon="12.866555819194593"><ele>1125.2</ele><time>2026-04-22T14:28:28Z</time></trkpt><trkpt lat="42.66798172216906" lon="12.866692228118144"><ele>1128.6</ele><time>2026-04-22T14:28:29Z</time></trkpt><trkpt lat="42.66795865746966" lon="12.866828167406059"><ele>1132.0</ele><time>2026-04-22T14:28:30Z</time></trkpt><trkpt lat="42.66794347701629" lon="12.866960908518271"><ele>1132.6</ele><time>2026-04-22T14:28:31Z</time></trkpt><trkpt lat="42.66794217829273" lon="12.867102582227043"><ele>1133.2</ele><time>2026-04-22T14:28:32Z</time></trkpt><trkpt lat="42.66794358140265" lon="12.867229388809223"><ele>1133.8</ele><time>2026-04-22T14:28:33Z</time></trkpt><trkpt lat="42.667939032414694" lon="12.867319763558951"><ele>1134.4</ele><time>2026-04-22T14:28:34Z</time></trkpt><trkpt lat="42.66795747774436" lon="12.867426366937623"><ele>1135.0</ele><time>2026-04-22T14:28:36Z</time></trkpt><trkpt lat="42.66801922232208" lon="12.867553310738678"><ele>1133.5</ele><time>2026-04-22T14:28:38Z</time></trkpt><trkpt lat="42.66806091308865" lon="12.867640304440686"><ele>1132.0</ele><time>2026-04-22T14:28:38.999Z</time></trkpt><trkpt lat="42.66810680969514" lon="12.867732986690061"><ele>1130.5</ele><time>2026-04-22T14:28:39.999Z</time></trkpt><trkpt lat="42.66814222716468" lon="12.867842919013652"><ele>1129.0</ele><time>2026-04-22T14:28:40.999Z</time></trkpt><trkpt lat="42.66816149638055" lon="12.867955782625916"><ele>1127.5</ele><time>2026-04-22T14:28:41.999Z</time></trkpt><trkpt lat="42.668171933391285" lon="12.868075004903307"><ele>1126.0</ele><time>2026-04-22T14:28:42.999Z</time></trkpt><trkpt lat="42.66817544843314" lon="12.868203461491527"><ele>1126.0</ele><time>2026-04-22T14:28:43.999Z</time></trkpt><trkpt lat="42.66817700254716" lon="12.868339501236273"><ele>1126.0</ele><time>2026-04-22T14:28:44.999Z</time></trkpt><trkpt lat="42.66818993250464" lon="12.86846811196005"><ele>1126.0</ele><time>2026-04-22T14:28:45.999Z</time></trkpt><trkpt lat="42.66820537915295" lon="12.868604405451737"><ele>1126.0</ele><time>2026-04-22T14:28:46.999Z</time></trkpt><trkpt lat="42.66822423709645" lon="12.86874890309847"><ele>1126.0</ele><time>2026-04-22T14:28:47.999Z</time></trkpt><trkpt lat="42.66824084136361" lon="12.868893131584459"><ele>1125.3999999999999</ele><time>2026-04-22T14:28:48.999Z</time></trkpt><trkpt lat="42.668252763471514" lon="12.869037026199882"><ele>1124.8</ele><time>2026-04-22T14:28:49.999Z</time></trkpt><trkpt lat="42.668258170645785" lon="12.869176648871303"><ele>1124.1999999999998</ele><time>2026-04-22T14:28:50.999Z</time></trkpt><trkpt lat="42.66825289205862" lon="12.869322334046288"><ele>1123.6</ele><time>2026-04-22T14:28:51.999Z</time></trkpt><trkpt lat="42.66825700719022" lon="12.869459590370514"><ele>1123.0</ele><time>2026-04-22T14:28:52.999Z</time></trkpt><trkpt lat="42.66827364284678" lon="12.869577198263688"><ele>1121.4</ele><time>2026-04-22T14:28:53.999Z</time></trkpt><trkpt lat="42.66829722418049" lon="12.869676476754726"><ele>1119.8</ele><time>2026-04-22T14:28:54.999Z</time></trkpt><trkpt lat="42.668337576623415" lon="12.8698671211979"><ele>1118.2</ele><time>2026-04-22T14:28:56.999Z</time></trkpt><trkpt lat="42.66837273419053" lon="12.869967276193709"><ele>1116.6</ele><time>2026-04-22T14:28:57.999Z</time></trkpt><trkpt lat="42.66840496948553" lon="12.870063742008826"><ele>1115.0</ele><time>2026-04-22T14:28:58.999Z</time></trkpt><trkpt lat="42.66845134222548" lon="12.870178515667169"><ele>1113.0</ele><time>2026-04-22T14:29:00.999Z</time></trkpt><trkpt lat="42.66851144873851" lon="12.870276179541612"><ele>1111.0</ele><time>2026-04-22T14:29:03.999Z</time></trkpt><trkpt lat="42.66854721628246" lon="12.870353984949695"><ele>1109.0</ele><time>2026-04-22T14:29:04.999Z</time></trkpt><trkpt lat="42.66858803442996" lon="12.870435186428866"><ele>1107.0</ele><time>2026-04-22T14:29:05.999Z</time></trkpt><trkpt lat="42.66862647139606" lon="12.87053227759554"><ele>1105.0</ele><time>2026-04-22T14:29:06.999Z</time></trkpt><trkpt lat="42.66865864858139" lon="12.870635375284518"><ele>1103.0</ele><time>2026-04-22T14:29:07.999Z</time></trkpt><trkpt lat="42.66868877646916" lon="12.8707365987654"><ele>1111.3333333333335</ele><time>2026-04-22T14:29:08.999Z</time></trkpt><trkpt lat="42.66871834621555" lon="12.870841899175886"><ele>1119.6666666666667</ele><time>2026-04-22T14:29:09.999Z</time></trkpt><trkpt lat="42.66874124375109" lon="12.870938356529509"><ele>1128.0</ele><time>2026-04-22T14:29:10.999Z</time></trkpt><trkpt lat="42.668761130235715" lon="12.871038733688543"><ele>1136.3333333333333</ele><time>2026-04-22T14:29:11.999Z</time></trkpt><trkpt lat="42.668766655063244" lon="12.871155048224276"><ele>1144.6666666666665</ele><time>2026-04-22T14:29:12.999Z</time></trkpt><trkpt lat="42.66876365565166" lon="12.87127684668489"><ele>1153.0</ele><time>2026-04-22T14:29:13.999Z</time></trkpt><trkpt lat="42.66876172632318" lon="12.871393581439165"><ele>1153.0</ele><time>2026-04-22T14:29:14.999Z</time></trkpt><trkpt lat="42.66875727160211" lon="12.871505519719044"><ele>1153.0</ele><time>2026-04-22T14:29:15.999Z</time></trkpt><trkpt lat="42.668735316539845" lon="12.871617191621306"><ele>1153.0</ele><time>2026-04-22T14:29:16.999Z</time></trkpt><trkpt lat="42.668706989413934" lon="12.871728962997238"><ele>1153.0</ele><time>2026-04-22T14:29:17.999Z</time></trkpt><trkpt lat="42.66868157798181" lon="12.871856748807387"><ele>1153.0</ele><time>2026-04-22T14:29:19Z</time></trkpt><trkpt lat="42.6686702398457" lon="12.871988235167333"><ele>1153.0</ele><time>2026-04-22T14:29:20Z</time></trkpt><trkpt lat="42.668655924048046" lon="12.872127762331772"><ele>1152.5</ele><time>2026-04-22T14:29:21Z</time></trkpt><trkpt lat="42.668628917756436" lon="12.872261962887604"><ele>1152.0</ele><time>2026-04-22T14:29:22Z</time></trkpt><trkpt lat="42.66860263545875" lon="12.872395442646928"><ele>1151.5</ele><time>2026-04-22T14:29:23Z</time></trkpt><trkpt lat="42.668579119088776" lon="12.872511933499451"><ele>1151.0</ele><time>2026-04-22T14:29:24Z</time></trkpt><trkpt lat="42.668561242118784" lon="12.872615782616062"><ele>1150.5</ele><time>2026-04-22T14:29:25Z</time></trkpt><trkpt lat="42.66855991693103" lon="12.872706105109186"><ele>1150.0</ele><time>2026-04-22T14:29:26Z</time></trkpt><trkpt lat="42.66855695326936" lon="12.872804779520187"><ele>1147.1666666666665</ele><time>2026-04-22T14:29:27Z</time></trkpt><trkpt lat="42.668556908620225" lon="12.872891394030084"><ele>1144.3333333333333</ele><time>2026-04-22T14:29:28Z</time></trkpt><trkpt lat="42.66856303431273" lon="12.873039517414705"><ele>1141.5</ele><time>2026-04-22T14:29:30Z</time></trkpt><trkpt lat="42.6686065944253" lon="12.873142531412897"><ele>1138.6666666666667</ele><time>2026-04-22T14:29:32Z</time></trkpt><trkpt lat="42.668669839693166" lon="12.873215904244242"><ele>1135.8333333333335</ele><time>2026-04-22T14:29:34Z</time></trkpt><trkpt lat="42.66872251539859" lon="12.873271353086247"><ele>1133.0</ele><time>2026-04-22T14:30:47Z</time></trkpt><trkpt lat="42.66879005691352" lon="12.873292448303296"><ele>1133.0</ele><time>2026-04-22T14:30:49Z</time></trkpt><trkpt lat="42.668878239835045" lon="12.873334177642077"><ele>1133.0</ele><time>2026-04-22T14:30:52Z</time></trkpt><trkpt lat="42.66888804208642" lon="12.873433442737447"><ele>1133.0</ele><time>2026-04-22T14:31:03Z</time></trkpt><trkpt lat="42.66882926223453" lon="12.873499046384984"><ele>1133.0</ele><time>2026-04-22T14:32:44Z</time></trkpt><trkpt lat="42.668753997342186" lon="12.87356854631242"><ele>1133.0</ele><time>2026-04-22T14:32:46Z</time></trkpt><trkpt lat="42.66869579120038" lon="12.873636680209385"><ele>1133.0</ele><time>2026-04-22T14:32:47Z</time></trkpt><trkpt lat="42.66864018906029" lon="12.873697306912167"><ele>1128.2</ele><time>2026-04-22T14:32:48Z</time></trkpt><trkpt lat="42.668588554931766" lon="12.873808779369439"><ele>1123.4</ele><time>2026-04-22T14:32:50Z</time></trkpt><trkpt lat="42.66855930906044" lon="12.873953476855759"><ele>1118.6000000000001</ele><time>2026-04-22T14:32:52.001Z</time></trkpt><trkpt lat="42.66854299709351" lon="12.874126798109156"><ele>1113.8</ele><time>2026-04-22T14:32:54.001Z</time></trkpt><trkpt lat="42.6685324304561" lon="12.87423287478241"><ele>1109.0</ele><time>2026-04-22T14:32:55.001Z</time></trkpt><trkpt lat="42.668528884063036" lon="12.87433885215831"><ele>1109.0</ele><time>2026-04-22T14:32:56.001Z</time></trkpt><trkpt lat="42.66851962522418" lon="12.874433326407777"><ele>1109.0</ele><time>2026-04-22T14:32:57.001Z</time></trkpt><trkpt lat="42.668507257709635" lon="12.874529896594497"><ele>1109.0</ele><time>2026-04-22T14:32:58.001Z</time></trkpt><trkpt lat="42.66848395317928" lon="12.874634924872831"><ele>1109.0</ele><time>2026-04-22T14:32:59.001Z</time></trkpt><trkpt lat="42.66845181654185" lon="12.874747754774079"><ele>1109.0</ele><time>2026-04-22T14:33:00.001Z</time></trkpt><trkpt lat="42.66841311718593" lon="12.874860399827135"><ele>1109.0</ele><time>2026-04-22T14:33:01.001Z</time></trkpt><trkpt lat="42.66836786961148" lon="12.874971286117294"><ele>1109.0</ele><time>2026-04-22T14:33:02.001Z</time></trkpt><trkpt lat="42.66832548801037" lon="12.875078048565122"><ele>1109.0</ele><time>2026-04-22T14:33:03.001Z</time></trkpt><trkpt lat="42.66829187431634" lon="12.875177469328671"><ele>1109.0</ele><time>2026-04-22T14:33:04.001Z</time></trkpt><trkpt lat="42.66826729198183" lon="12.875270200477264"><ele>1109.0</ele><time>2026-04-22T14:33:05.001Z</time></trkpt><trkpt lat="42.66828158098351" lon="12.875426411739788"><ele>1109.0</ele><time>2026-04-22T14:33:07.001Z</time></trkpt><trkpt lat="42.66831979631998" lon="12.875574780943372"><ele>1110.4</ele><time>2026-04-22T14:33:09.001Z</time></trkpt><trkpt lat="42.668269354573596" lon="12.87571662117417"><ele>1111.8000000000002</ele><time>2026-04-22T14:33:11.001Z</time></trkpt><trkpt lat="42.66829028694368" lon="12.87585724699723"><ele>1113.1999999999998</ele><time>2026-04-22T14:33:13.001Z</time></trkpt><trkpt lat="42.668321458475674" lon="12.87593747759803"><ele>1114.6</ele><time>2026-04-22T14:33:14.001Z</time></trkpt><trkpt lat="42.66835599842296" lon="12.876049419229684"><ele>1116.0</ele><time>2026-04-22T14:33:15.001Z</time></trkpt><trkpt lat="42.66837895507271" lon="12.876167614672513"><ele>1118.0</ele><time>2026-04-22T14:33:16.001Z</time></trkpt><trkpt lat="42.66837568106977" lon="12.876293002710659"><ele>1120.0</ele><time>2026-04-22T14:33:17.001Z</time></trkpt><trkpt lat="42.66835888292609" lon="12.876410612569318"><ele>1122.0</ele><time>2026-04-22T14:33:18.001Z</time></trkpt><trkpt lat="42.66833155402885" lon="12.876519889173922"><ele>1124.0</ele><time>2026-04-22T14:33:19.001Z</time></trkpt><trkpt lat="42.66831511854896" lon="12.876648646564034"><ele>1126.0</ele><time>2026-04-22T14:33:20.001Z</time></trkpt><trkpt lat="42.66830532930507" lon="12.876779459422881"><ele>1127.3333333333333</ele><time>2026-04-22T14:33:21.001Z</time></trkpt><trkpt lat="42.66830480094171" lon="12.87690090216423"><ele>1128.6666666666665</ele><time>2026-04-22T14:33:22.001Z</time></trkpt><trkpt lat="42.66830717282152" lon="12.877010390459033"><ele>1130.0</ele><time>2026-04-22T14:33:23.001Z</time></trkpt><trkpt lat="42.66832060943557" lon="12.877138672571759"><ele>1131.3333333333333</ele><time>2026-04-22T14:33:24.001Z</time></trkpt><trkpt lat="42.66831557353758" lon="12.877253858415104"><ele>1132.6666666666667</ele><time>2026-04-22T14:33:25.001Z</time></trkpt><trkpt lat="42.66832469173361" lon="12.877380370465387"><ele>1134.0</ele><time>2026-04-22T14:33:26.001Z</time></trkpt><trkpt lat="42.668340578510474" lon="12.877508714807202"><ele>1135.0</ele><time>2026-04-22T14:33:27.001Z</time></trkpt><trkpt lat="42.66835146467591" lon="12.877640446505449"><ele>1136.0</ele><time>2026-04-22T14:33:28.001Z</time></trkpt><trkpt lat="42.6683410724058" lon="12.877773779259265"><ele>1137.0</ele><time>2026-04-22T14:33:29.001Z</time></trkpt><trkpt lat="42.66832033725101" lon="12.877920424843234"><ele>1138.0</ele><time>2026-04-22T14:33:30.001Z</time></trkpt><trkpt lat="42.66829970013887" lon="12.878053692111907"><ele>1139.0</ele><time>2026-04-22T14:33:31.001Z</time></trkpt><trkpt lat="42.66828169885268" lon="12.878193596516029"><ele>1139.0</ele><time>2026-04-22T14:33:32.001Z</time></trkpt><trkpt lat="42.66827152705692" lon="12.878328647822528"><ele>1139.0</ele><time>2026-04-22T14:33:33.001Z</time></trkpt><trkpt lat="42.668236046625395" lon="12.878461935765502"><ele>1139.0</ele><time>2026-04-22T14:33:34.001Z</time></trkpt><trkpt lat="42.66819560245987" lon="12.878588855201258"><ele>1139.0</ele><time>2026-04-22T14:33:35.001Z</time></trkpt><trkpt lat="42.66817018584184" lon="12.87870648765803"><ele>1139.0</ele><time>2026-04-22T14:33:36.001Z</time></trkpt><trkpt lat="42.66816891646062" lon="12.878835491727331"><ele>1139.5</ele><time>2026-04-22T14:33:37.001Z</time></trkpt><trkpt lat="42.66816857134339" lon="12.878967417548838"><ele>1140.0</ele><time>2026-04-22T14:33:38.001Z</time></trkpt><trkpt lat="42.66816538664572" lon="12.879086105007225"><ele>1140.5</ele><time>2026-04-22T14:33:39.001Z</time></trkpt><trkpt lat="42.6681630709986" lon="12.879199787431627"><ele>1141.0</ele><time>2026-04-22T14:33:40.001Z</time></trkpt><trkpt lat="42.6681778374917" lon="12.879316148437146"><ele>1141.5</ele><time>2026-04-22T14:33:41.001Z</time></trkpt><trkpt lat="42.66819896055864" lon="12.879430977078917"><ele>1142.0</ele><time>2026-04-22T14:33:42.001Z</time></trkpt><trkpt lat="42.6682128830119" lon="12.87952709328686"><ele>1142.8333333333335</ele><time>2026-04-22T14:33:43.001Z</time></trkpt><trkpt lat="42.66823884956796" lon="12.879606153997283"><ele>1143.6666666666667</ele><time>2026-04-22T14:33:44.001Z</time></trkpt><trkpt lat="42.66825536881176" lon="12.879709232251685"><ele>1144.5</ele><time>2026-04-22T14:33:45.001Z</time></trkpt><trkpt lat="42.66828518435942" lon="12.879789224796237"><ele>1145.3333333333333</ele><time>2026-04-22T14:33:46.001Z</time></trkpt><trkpt lat="42.66833209833742" lon="12.879880980177179"><ele>1146.1666666666665</ele><time>2026-04-22T14:33:47.001Z</time></trkpt><trkpt lat="42.6683694296433" lon="12.879988741513976"><ele>1147.0</ele><time>2026-04-22T14:33:48.001Z</time></trkpt><trkpt lat="42.66841084656428" lon="12.880091477061468"><ele>1148.2</ele><time>2026-04-22T14:33:49.001Z</time></trkpt><trkpt lat="42.66842003866335" lon="12.880180429614281"><ele>1149.4</ele><time>2026-04-22T14:33:50.001Z</time></trkpt><trkpt lat="42.66841442778192" lon="12.880287873331364"><ele>1150.6</ele><time>2026-04-22T14:33:51.001Z</time></trkpt><trkpt lat="42.66840237804822" lon="12.880381926292586"><ele>1151.8</ele><time>2026-04-22T14:33:52.001Z</time></trkpt><trkpt lat="42.668348018098" lon="12.880516524277203"><ele>1153.0</ele><time>2026-04-22T14:33:54.001Z</time></trkpt><trkpt lat="42.66826584012451" lon="12.880666948008367"><ele>1153.0</ele><time>2026-04-22T14:33:56.001Z</time></trkpt><trkpt lat="42.668252803089885" lon="12.880777980633006"><ele>1153.0</ele><time>2026-04-22T14:33:57.001Z</time></trkpt><trkpt lat="42.66825381188843" lon="12.880918742086978"><ele>1153.0</ele><time>2026-04-22T14:33:58.001Z</time></trkpt><trkpt lat="42.66825011382865" lon="12.881065361329462"><ele>1153.0</ele><time>2026-04-22T14:33:59.001Z</time></trkpt><trkpt lat="42.668242711033315" lon="12.881203621782639"><ele>1153.0</ele><time>2026-04-22T14:34:00.001Z</time></trkpt><trkpt lat="42.66825117146786" lon="12.881345817769802"><ele>1154.2</ele><time>2026-04-22T14:34:01.001Z</time></trkpt><trkpt lat="42.66825706357105" lon="12.881486985279153"><ele>1155.4</ele><time>2026-04-22T14:34:02.001Z</time></trkpt><trkpt lat="42.66825675531656" lon="12.881636025601928"><ele>1156.6000000000001</ele><time>2026-04-22T14:34:03.001Z</time></trkpt><trkpt lat="42.66825416827023" lon="12.881775477167801"><ele>1157.8</ele><time>2026-04-22T14:34:04.001Z</time></trkpt><trkpt lat="42.668254328424936" lon="12.881919445572429"><ele>1159.0</ele><time>2026-04-22T14:34:05.001Z</time></trkpt><trkpt lat="42.66826639704802" lon="12.882070773010943"><ele>1159.75</ele><time>2026-04-22T14:34:06.001Z</time></trkpt><trkpt lat="42.6682804253497" lon="12.882228035089922"><ele>1160.5</ele><time>2026-04-22T14:34:07.001Z</time></trkpt><trkpt lat="42.668304094161876" lon="12.882389195142467"><ele>1161.25</ele><time>2026-04-22T14:34:08.001Z</time></trkpt><trkpt lat="42.66831961682143" lon="12.8825434508954"><ele>1162.0</ele><time>2026-04-22T14:34:09.001Z</time></trkpt><trkpt lat="42.66833559148788" lon="12.882690888867609"><ele>1162.4</ele><time>2026-04-22T14:34:10.001Z</time></trkpt><trkpt lat="42.66835395491156" lon="12.882829080842887"><ele>1162.8000000000002</ele><time>2026-04-22T14:34:11.001Z</time></trkpt><trkpt lat="42.668363991260996" lon="12.882962556008"><ele>1163.2</ele><time>2026-04-22T14:34:12.001Z</time></trkpt><trkpt lat="42.668390279964306" lon="12.883095482009113"><ele>1163.6000000000001</ele><time>2026-04-22T14:34:13.001Z</time></trkpt><trkpt lat="42.66842186662795" lon="12.883233386368419"><ele>1164.0</ele><time>2026-04-22T14:34:14.001Z</time></trkpt><trkpt lat="42.66848172024263" lon="12.88337058579661"><ele>1166.0</ele><time>2026-04-22T14:34:15.001Z</time></trkpt><trkpt lat="42.66854837375306" lon="12.88349174200463"><ele>1168.0</ele><time>2026-04-22T14:34:16.001Z</time></trkpt><trkpt lat="42.66861195750028" lon="12.883617106237084"><ele>1170.0</ele><time>2026-04-22T14:34:17.001Z</time></trkpt><trkpt lat="42.66867629646125" lon="12.883732476456947"><ele>1172.0</ele><time>2026-04-22T14:34:18.001Z</time></trkpt><trkpt lat="42.66874423020334" lon="12.883842611694863"><ele>1174.0</ele><time>2026-04-22T14:34:19.001Z</time></trkpt><trkpt lat="42.668804654758205" lon="12.88396048610024"><ele>1174.0</ele><time>2026-04-22T14:34:20.001Z</time></trkpt><trkpt lat="42.66885242768829" lon="12.884081650482301"><ele>1174.0</ele><time>2026-04-22T14:34:21.001Z</time></trkpt><trkpt lat="42.66889074015044" lon="12.884175295328884"><ele>1174.0</ele><time>2026-04-22T14:34:22.001Z</time></trkpt><trkpt lat="42.66891535332982" lon="12.88426950052463"><ele>1174.0</ele><time>2026-04-22T14:34:23.001Z</time></trkpt><trkpt lat="42.6689309376191" lon="12.884380286233952"><ele>1174.0</ele><time>2026-04-22T14:34:24.001Z</time></trkpt><trkpt lat="42.6689395326012" lon="12.884497072846475"><ele>1174.0</ele><time>2026-04-22T14:34:25.001Z</time></trkpt><trkpt lat="42.668946711890065" lon="12.884607602416027"><ele>1174.2</ele><time>2026-04-22T14:34:26.001Z</time></trkpt><trkpt lat="42.66895187702647" lon="12.884754483166448"><ele>1174.4</ele><time>2026-04-22T14:34:27.001Z</time></trkpt><trkpt lat="42.66896609443324" lon="12.88488917491486"><ele>1174.6</ele><time>2026-04-22T14:34:28.001Z</time></trkpt><trkpt lat="42.668989347999094" lon="12.885019871382507"><ele>1174.8</ele><time>2026-04-22T14:34:29.001Z</time></trkpt><trkpt lat="42.6690360206755" lon="12.885133025987267"><ele>1175.0</ele><time>2026-04-22T14:34:30.001Z</time></trkpt><trkpt lat="42.66909148870563" lon="12.88525777236972"><ele>1175.0</ele><time>2026-04-22T14:34:31.001Z</time></trkpt><trkpt lat="42.669165410347425" lon="12.885383417742649"><ele>1175.0</ele><time>2026-04-22T14:34:32.001Z</time></trkpt><trkpt lat="42.669245112249605" lon="12.8855020823911"><ele>1175.0</ele><time>2026-04-22T14:34:33.001Z</time></trkpt><trkpt lat="42.66932663172553" lon="12.885613812149392"><ele>1175.0</ele><time>2026-04-22T14:34:34.001Z</time></trkpt><trkpt lat="42.66941642518469" lon="12.885713447281418"><ele>1174.6</ele><time>2026-04-22T14:34:35.001Z</time></trkpt><trkpt lat="42.66950045616219" lon="12.885822999943287"><ele>1174.2</ele><time>2026-04-22T14:34:36.001Z</time></trkpt><trkpt lat="42.66957947486005" lon="12.885946141075607"><ele>1173.8</ele><time>2026-04-22T14:34:37.001Z</time></trkpt><trkpt lat="42.66964192513801" lon="12.886051272761101"><ele>1173.4</ele><time>2026-04-22T14:34:38.001Z</time></trkpt><trkpt lat="42.66968519008899" lon="12.886148962031516"><ele>1173.0</ele><time>2026-04-22T14:34:39.001Z</time></trkpt><trkpt lat="42.669717801059186" lon="12.886240500962334"><ele>1172.6</ele><time>2026-04-22T14:34:40.001Z</time></trkpt><trkpt lat="42.6697406746952" lon="12.886353950502846"><ele>1172.1999999999998</ele><time>2026-04-22T14:34:41.001Z</time></trkpt><trkpt lat="42.669755371130954" lon="12.886470373725071"><ele>1171.8</ele><time>2026-04-22T14:34:42.001Z</time></trkpt><trkpt lat="42.66976046365306" lon="12.886599398267178"><ele>1171.3999999999999</ele><time>2026-04-22T14:34:43.001Z</time></trkpt><trkpt lat="42.669762913431704" lon="12.886737139509908"><ele>1171.0</ele><time>2026-04-22T14:34:44.001Z</time></trkpt><trkpt lat="42.66976810056164" lon="12.886879691591327"><ele>1170.3999999999999</ele><time>2026-04-22T14:34:45.001Z</time></trkpt><trkpt lat="42.6697795357432" lon="12.887001589862416"><ele>1169.8</ele><time>2026-04-22T14:34:46.001Z</time></trkpt><trkpt lat="42.669813925583256" lon="12.887114544578894"><ele>1169.1999999999998</ele><time>2026-04-22T14:34:47.001Z</time></trkpt><trkpt lat="42.66985773706882" lon="12.887241623111256"><ele>1168.6</ele><time>2026-04-22T14:34:48.001Z</time></trkpt><trkpt lat="42.66989478681559" lon="12.887377803607558"><ele>1168.0</ele><time>2026-04-22T14:34:49.001Z</time></trkpt><trkpt lat="42.66993579450737" lon="12.887516822162624"><ele>1170.25</ele><time>2026-04-22T14:34:50.001Z</time></trkpt><trkpt lat="42.66999357857308" lon="12.887654112799922"><ele>1172.5</ele><time>2026-04-22T14:34:51.001Z</time></trkpt><trkpt lat="42.67005850244423" lon="12.887786090774089"><ele>1174.75</ele><time>2026-04-22T14:34:52.001Z</time></trkpt><trkpt lat="42.67011423791117" lon="12.887925294308019"><ele>1177.0</ele><time>2026-04-22T14:34:53.001Z</time></trkpt><trkpt lat="42.67015753672254" lon="12.888048618302362"><ele>1177.0</ele><time>2026-04-22T14:34:54.001Z</time></trkpt><trkpt lat="42.670181635821606" lon="12.888156985837169"><ele>1177.0</ele><time>2026-04-22T14:34:55.001Z</time></trkpt><trkpt lat="42.67019916148702" lon="12.888275809094132"><ele>1177.0</ele><time>2026-04-22T14:34:56.001Z</time></trkpt><trkpt lat="42.67020911816054" lon="12.88841330340142"><ele>1177.0</ele><time>2026-04-22T14:34:57.001Z</time></trkpt><trkpt lat="42.67021766812145" lon="12.888540534208326"><ele>1177.0</ele><time>2026-04-22T14:34:58.001Z</time></trkpt><trkpt lat="42.67023610401915" lon="12.888673940499523"><ele>1176.0</ele><time>2026-04-22T14:34:59.001Z</time></trkpt><trkpt lat="42.67026233637513" lon="12.888785409457162"><ele>1175.0</ele><time>2026-04-22T14:35:00.001Z</time></trkpt><trkpt lat="42.67031181122213" lon="12.888887746929822"><ele>1174.0</ele><time>2026-04-22T14:35:01.001Z</time></trkpt><trkpt lat="42.67037607419368" lon="12.88898675878177"><ele>1173.0</ele><time>2026-04-22T14:35:02.001Z</time></trkpt><trkpt lat="42.67043370389687" lon="12.889079704885308"><ele>1172.0</ele><time>2026-04-22T14:35:03.001Z</time></trkpt><trkpt lat="42.670475434422684" lon="12.889185053345463"><ele>1172.6666666666667</ele><time>2026-04-22T14:35:04.001Z</time></trkpt><trkpt lat="42.67050500371013" lon="12.88928479599204"><ele>1173.3333333333335</ele><time>2026-04-22T14:35:05.001Z</time></trkpt><trkpt lat="42.67052036061498" lon="12.889384780621256"><ele>1174.0</ele><time>2026-04-22T14:35:06.001Z</time></trkpt><trkpt lat="42.670526640776686" lon="12.889496475388238"><ele>1174.6666666666667</ele><time>2026-04-22T14:35:09.001Z</time></trkpt><trkpt lat="42.670510852593296" lon="12.889583964942046"><ele>1175.3333333333333</ele><time>2026-04-22T14:35:11.001Z</time></trkpt><trkpt lat="42.670517910110554" lon="12.889746566659579"><ele>1176.0</ele><time>2026-04-22T14:35:13.001Z</time></trkpt><trkpt lat="42.67051576459419" lon="12.889843205993477"><ele>1176.0</ele><time>2026-04-22T14:35:14.001Z</time></trkpt><trkpt lat="42.670514390824444" lon="12.889952056477847"><ele>1176.0</ele><time>2026-04-22T14:35:15.001Z</time></trkpt><trkpt lat="42.67051577930428" lon="12.89006750354056"><ele>1176.0</ele><time>2026-04-22T14:35:16.001Z</time></trkpt><trkpt lat="42.67052585902932" lon="12.890187481136309"><ele>1176.0</ele><time>2026-04-22T14:35:17.001Z</time></trkpt><trkpt lat="42.6705446076521" lon="12.890323935657474"><ele>1176.0</ele><time>2026-04-22T14:35:18.001Z</time></trkpt><trkpt lat="42.670580189467124" lon="12.890444609040463"><ele>1176.2</ele><time>2026-04-22T14:35:19.001Z</time></trkpt><trkpt lat="42.67062278580725" lon="12.890566970099057"><ele>1176.3999999999999</ele><time>2026-04-22T14:35:20.001Z</time></trkpt><trkpt lat="42.67066736150393" lon="12.890695827465638"><ele>1176.6</ele><time>2026-04-22T14:35:21.001Z</time></trkpt><trkpt lat="42.67070549810372" lon="12.890816052167073"><ele>1176.8</ele><time>2026-04-22T14:35:22.001Z</time></trkpt><trkpt lat="42.670721975612004" lon="12.89092388281382"><ele>1177.0</ele><time>2026-04-22T14:35:23.001Z</time></trkpt><trkpt lat="42.67073381952335" lon="12.891026822292588"><ele>1178.3333333333333</ele><time>2026-04-22T14:35:24.001Z</time></trkpt><trkpt lat="42.67075093175238" lon="12.891116919532143"><ele>1179.6666666666665</ele><time>2026-04-22T14:35:25.001Z</time></trkpt><trkpt lat="42.67076507617006" lon="12.891226331347324"><ele>1181.0</ele><time>2026-04-22T14:35:26.001Z</time></trkpt><trkpt lat="42.6707687310096" lon="12.891346581553922"><ele>1182.3333333333333</ele><time>2026-04-22T14:35:27.001Z</time></trkpt><trkpt lat="42.67077096416406" lon="12.89148115561141"><ele>1183.6666666666667</ele><time>2026-04-22T14:35:28.001Z</time></trkpt><trkpt lat="42.67080275729346" lon="12.891627057955434"><ele>1185.0</ele><time>2026-04-22T14:35:29.001Z</time></trkpt><trkpt lat="42.670851850813975" lon="12.891781974514394"><ele>1187.2</ele><time>2026-04-22T14:35:30.001Z</time></trkpt><trkpt lat="42.67089651254673" lon="12.891934554946113"><ele>1189.4</ele><time>2026-04-22T14:35:31.001Z</time></trkpt><trkpt lat="42.67093404862177" lon="12.892064636102504"><ele>1191.6</ele><time>2026-04-22T14:35:32.001Z</time></trkpt><trkpt lat="42.670965404757574" lon="12.89217242690391"><ele>1193.8</ele><time>2026-04-22T14:35:33.001Z</time></trkpt><trkpt lat="42.67099491401997" lon="12.892272832346267"><ele>1196.0</ele><time>2026-04-22T14:35:34.001Z</time></trkpt><trkpt lat="42.67102158504866" lon="12.892359898008872"><ele>1196.0</ele><time>2026-04-22T14:35:35.001Z</time></trkpt><trkpt lat="42.671056603672746" lon="12.892506023990022"><ele>1196.0</ele><time>2026-04-22T14:35:37.001Z</time></trkpt><trkpt lat="42.671061221013225" lon="12.892591671624198"><ele>1196.0</ele><time>2026-04-22T14:35:38.001Z</time></trkpt><trkpt lat="42.6710825198877" lon="12.89271207466179"><ele>1196.0</ele><time>2026-04-22T14:35:39.001Z</time></trkpt><trkpt lat="42.67110610242677" lon="12.892842826574443"><ele>1196.0</ele><time>2026-04-22T14:35:40.001Z</time></trkpt><trkpt lat="42.6711346038154" lon="12.892976384342347"><ele>1193.2</ele><time>2026-04-22T14:35:41.001Z</time></trkpt><trkpt lat="42.67116367825844" lon="12.89311343148213"><ele>1190.3999999999999</ele><time>2026-04-22T14:35:42.001Z</time></trkpt><trkpt lat="42.6711956461573" lon="12.893237000608352"><ele>1187.6</ele><time>2026-04-22T14:35:43.001Z</time></trkpt><trkpt lat="42.67123304021099" lon="12.89335150733022"><ele>1184.8</ele><time>2026-04-22T14:35:44.001Z</time></trkpt><trkpt lat="42.67125858070883" lon="12.893459825971124"><ele>1182.0</ele><time>2026-04-22T14:35:45.001Z</time></trkpt><trkpt lat="42.671276438818836" lon="12.89358259844211"><ele>1182.0</ele><time>2026-04-22T14:35:46.001Z</time></trkpt><trkpt lat="42.671305874882805" lon="12.893702032611078"><ele>1182.0</ele><time>2026-04-22T14:35:47.001Z</time></trkpt><trkpt lat="42.671353896768785" lon="12.893804724252117"><ele>1182.0</ele><time>2026-04-22T14:35:48.001Z</time></trkpt><trkpt lat="42.671398922087384" lon="12.893888111993114"><ele>1182.0</ele><time>2026-04-22T14:35:49.001Z</time></trkpt><trkpt lat="42.67142693508871" lon="12.893976626917107"><ele>1182.0</ele><time>2026-04-22T14:35:50.001Z</time></trkpt><trkpt lat="42.67143811697135" lon="12.894086600728157"><ele>1182.0</ele><time>2026-04-22T14:35:51.001Z</time></trkpt><trkpt lat="42.67144406912366" lon="12.894206488294966"><ele>1183.4</ele><time>2026-04-22T14:35:52.001Z</time></trkpt><trkpt lat="42.671468582212356" lon="12.894335918194317"><ele>1184.8000000000002</ele><time>2026-04-22T14:35:53.001Z</time></trkpt><trkpt lat="42.67149749086738" lon="12.894489028969241"><ele>1186.2</ele><time>2026-04-22T14:35:54.001Z</time></trkpt><trkpt lat="42.67152156470286" lon="12.89462819828893"><ele>1187.6000000000001</ele><time>2026-04-22T14:35:55.001Z</time></trkpt><trkpt lat="42.67152567656415" lon="12.894741948623881"><ele>1189.0</ele><time>2026-04-22T14:35:56.001Z</time></trkpt><trkpt lat="42.671509333983124" lon="12.894866700630509"><ele>1189.0</ele><time>2026-04-22T14:35:57.001Z</time></trkpt><trkpt lat="42.671474306144475" lon="12.894991489391789"><ele>1189.0</ele><time>2026-04-22T14:35:58.001Z</time></trkpt><trkpt lat="42.67142883332968" lon="12.895118781428007"><ele>1189.0</ele><time>2026-04-22T14:35:59.001Z</time></trkpt><trkpt lat="42.67139148306004" lon="12.89524864082459"><ele>1189.0</ele><time>2026-04-22T14:36:00.001Z</time></trkpt><trkpt lat="42.67135120872655" lon="12.895393733100203"><ele>1189.0</ele><time>2026-04-22T14:36:01.001Z</time></trkpt><trkpt lat="42.67129661910114" lon="12.895533366131533"><ele>1191.25</ele><time>2026-04-22T14:36:02.001Z</time></trkpt><trkpt lat="42.671227615050604" lon="12.895656555165022"><ele>1193.5</ele><time>2026-04-22T14:36:03.001Z</time></trkpt><trkpt lat="42.67115366224509" lon="12.895776652717553"><ele>1195.75</ele><time>2026-04-22T14:36:04.001Z</time></trkpt><trkpt lat="42.67109382017781" lon="12.895919498927062"><ele>1198.0</ele><time>2026-04-22T14:36:05.001Z</time></trkpt><trkpt lat="42.67105767820449" lon="12.896084619108938"><ele>1200.75</ele><time>2026-04-22T14:36:06.001Z</time></trkpt><trkpt lat="42.671039742227286" lon="12.89627029237392"><ele>1203.5</ele><time>2026-04-22T14:36:07.001Z</time></trkpt><trkpt lat="42.67101160871323" lon="12.896451428094705"><ele>1206.25</ele><time>2026-04-22T14:36:08.001Z</time></trkpt><trkpt lat="42.67097375740151" lon="12.896616419802298"><ele>1209.0</ele><time>2026-04-22T14:36:09.001Z</time></trkpt><trkpt lat="42.67094010783717" lon="12.896781927099928"><ele>1209.0</ele><time>2026-04-22T14:36:10.001Z</time></trkpt><trkpt lat="42.670908764867285" lon="12.896945936603483"><ele>1209.0</ele><time>2026-04-22T14:36:11.001Z</time></trkpt><trkpt lat="42.67087631299104" lon="12.89711183294258"><ele>1209.0</ele><time>2026-04-22T14:36:12.001Z</time></trkpt><trkpt lat="42.67083724235394" lon="12.897279809123864"><ele>1209.0</ele><time>2026-04-22T14:36:13.001Z</time></trkpt><trkpt lat="42.670797286367595" lon="12.897441901979759"><ele>1209.75</ele><time>2026-04-22T14:36:14.001Z</time></trkpt><trkpt lat="42.67077247842441" lon="12.897622342320151"><ele>1210.5</ele><time>2026-04-22T14:36:15.001Z</time></trkpt><trkpt lat="42.670745323344576" lon="12.897795971100715"><ele>1211.25</ele><time>2026-04-22T14:36:16.001Z</time></trkpt><trkpt lat="42.67073279058512" lon="12.897962330894744"><ele>1212.0</ele><time>2026-04-22T14:36:17.001Z</time></trkpt><trkpt lat="42.670722007691396" lon="12.89812977014768"><ele>1212.0</ele><time>2026-04-22T14:36:18.001Z</time></trkpt><trkpt lat="42.670719300190896" lon="12.898268562134636"><ele>1212.0</ele><time>2026-04-22T14:36:19.001Z</time></trkpt><trkpt lat="42.6707238192777" lon="12.898406464263816"><ele>1212.0</ele><time>2026-04-22T14:36:20.001Z</time></trkpt><trkpt lat="42.670733105843674" lon="12.898518974872198"><ele>1212.0</ele><time>2026-04-22T14:36:21.001Z</time></trkpt><trkpt lat="42.67074466557993" lon="12.898661274144144"><ele>1212.0</ele><time>2026-04-22T14:36:22.001Z</time></trkpt><trkpt lat="42.67074165182213" lon="12.898798759710145"><ele>1211.8333333333333</ele><time>2026-04-22T14:36:23.001Z</time></trkpt><trkpt lat="42.67074141103694" lon="12.898924506494719"><ele>1211.6666666666667</ele><time>2026-04-22T14:36:24.001Z</time></trkpt><trkpt lat="42.6707689705322" lon="12.899030711236694"><ele>1211.5</ele><time>2026-04-22T14:36:25.001Z</time></trkpt><trkpt lat="42.6708158106377" lon="12.899115037560044"><ele>1211.3333333333335</ele><time>2026-04-22T14:36:26.001Z</time></trkpt><trkpt lat="42.670874654624754" lon="12.899199474995692"><ele>1211.1666666666667</ele><time>2026-04-22T14:36:27.001Z</time></trkpt><trkpt lat="42.6709424998955" lon="12.899290268592512"><ele>1211.0</ele><time>2026-04-22T14:36:28.001Z</time></trkpt><trkpt lat="42.67098917206867" lon="12.899386549395771"><ele>1210.3999999999999</ele><time>2026-04-22T14:36:29.001Z</time></trkpt><trkpt lat="42.67101124275585" lon="12.899507549488138"><ele>1209.8</ele><time>2026-04-22T14:36:30.001Z</time></trkpt><trkpt lat="42.67105072165055" lon="12.89964237869001"><ele>1209.1999999999998</ele><time>2026-04-22T14:36:31.001Z</time></trkpt><trkpt lat="42.67109267991216" lon="12.899789533303242"><ele>1208.6</ele><time>2026-04-22T14:36:32.001Z</time></trkpt><trkpt lat="42.67113449698411" lon="12.89991083314937"><ele>1208.0</ele><time>2026-04-22T14:36:33.001Z</time></trkpt><trkpt lat="42.67116421901271" lon="12.900046975382162"><ele>1207.6</ele><time>2026-04-22T14:36:34.001Z</time></trkpt><trkpt lat="42.67118779872501" lon="12.900171811108423"><ele>1207.1999999999998</ele><time>2026-04-22T14:36:35.001Z</time></trkpt><trkpt lat="42.67118965648588" lon="12.900273072018338"><ele>1206.8</ele><time>2026-04-22T14:36:36.001Z</time></trkpt><trkpt lat="42.671131211516254" lon="12.900429679115502"><ele>1206.3999999999999</ele><time>2026-04-22T14:36:38.001Z</time></trkpt><trkpt lat="42.67107429945361" lon="12.900549962878031"><ele>1206.0</ele><time>2026-04-22T14:36:39.001Z</time></trkpt><trkpt lat="42.67100286826981" lon="12.900671194370046"><ele>1206.0</ele><time>2026-04-22T14:36:40.001Z</time></trkpt><trkpt lat="42.67093470460975" lon="12.900802630504087"><ele>1206.0</ele><time>2026-04-22T14:36:41.001Z</time></trkpt><trkpt lat="42.67087014509127" lon="12.90092639127732"><ele>1206.0</ele><time>2026-04-22T14:36:42.001Z</time></trkpt><trkpt lat="42.67079844301423" lon="12.901048518111269"><ele>1206.0</ele><time>2026-04-22T14:36:43.001Z</time></trkpt><trkpt lat="42.67073186181635" lon="12.901170798631176"><ele>1206.6</ele><time>2026-04-22T14:36:44.001Z</time></trkpt><trkpt lat="42.67068017304614" lon="12.901306289012542"><ele>1207.1999999999998</ele><time>2026-04-22T14:36:45.001Z</time></trkpt><trkpt lat="42.67064064286017" lon="12.901449864527597"><ele>1207.8000000000002</ele><time>2026-04-22T14:36:46.001Z</time></trkpt><trkpt lat="42.67060420613161" lon="12.901581672693608"><ele>1208.4</ele><time>2026-04-22T14:36:47.001Z</time></trkpt><trkpt lat="42.670564026703936" lon="12.901679625718776"><ele>1209.0</ele><time>2026-04-22T14:36:48.001Z</time></trkpt><trkpt lat="42.67050279872798" lon="12.90175772706234"><ele>1209.8</ele><time>2026-04-22T14:36:49.001Z</time></trkpt><trkpt lat="42.670422381366976" lon="12.90181543692344"><ele>1210.6000000000001</ele><time>2026-04-22T14:36:50.001Z</time></trkpt><trkpt lat="42.67033627725322" lon="12.901876540020162"><ele>1211.4</ele><time>2026-04-22T14:36:51.001Z</time></trkpt><trkpt lat="42.67025455597919" lon="12.90195069326544"><ele>1212.2</ele><time>2026-04-22T14:36:52.001Z</time></trkpt><trkpt lat="42.67018452477882" lon="12.902043724386782"><ele>1213.0</ele><time>2026-04-22T14:36:53.001Z</time></trkpt><trkpt lat="42.6701263728058" lon="12.902161225760976"><ele>1214.75</ele><time>2026-04-22T14:36:54.001Z</time></trkpt><trkpt lat="42.670059589603994" lon="12.902287532763676"><ele>1216.5</ele><time>2026-04-22T14:36:55.001Z</time></trkpt><trkpt lat="42.669990639085725" lon="12.902413867328805"><ele>1218.25</ele><time>2026-04-22T14:36:56.001Z</time></trkpt><trkpt lat="42.66990452853492" lon="12.90254606534194"><ele>1220.0</ele><time>2026-04-22T14:36:57.001Z</time></trkpt><trkpt lat="42.66983316823248" lon="12.902658330692697"><ele>1222.2</ele><time>2026-04-22T14:36:58.001Z</time></trkpt><trkpt lat="42.669787137337025" lon="12.902754142496212"><ele>1224.4</ele><time>2026-04-22T14:36:59.001Z</time></trkpt><trkpt lat="42.66975110751943" lon="12.902833289826507"><ele>1226.6</ele><time>2026-04-22T14:37:00.001Z</time></trkpt><trkpt lat="42.669717218101944" lon="12.902908291568638"><ele>1228.8</ele><time>2026-04-22T14:37:01.001Z</time></trkpt><trkpt lat="42.66962193523855" lon="12.902962681542146"><ele>1231.0</ele><time>2026-04-22T14:37:03.001Z</time></trkpt><trkpt lat="42.66947990704998" lon="12.903004665130096"><ele>1231.0</ele><time>2026-04-22T14:37:05.001Z</time></trkpt><trkpt lat="42.6694184791983" lon="12.903083227761307"><ele>1231.0</ele><time>2026-04-22T14:37:06.001Z</time></trkpt><trkpt lat="42.66937844793528" lon="12.903194125343566"><ele>1231.0</ele><time>2026-04-22T14:37:07.001Z</time></trkpt><trkpt lat="42.669338657827794" lon="12.903272840074852"><ele>1231.0</ele><time>2026-04-22T14:37:08.001Z</time></trkpt><trkpt lat="42.669286127252136" lon="12.90333535514325"><ele>1231.0</ele><time>2026-04-22T14:37:09.001Z</time></trkpt><trkpt lat="42.66924169119827" lon="12.903440903312555"><ele>1231.0</ele><time>2026-04-22T14:37:10.001Z</time></trkpt><trkpt lat="42.66920788979521" lon="12.90355567885004"><ele>1231.0</ele><time>2026-04-22T14:37:11.001Z</time></trkpt><trkpt lat="42.66917317923311" lon="12.903668150311487"><ele>1231.0</ele><time>2026-04-22T14:37:12.001Z</time></trkpt><trkpt lat="42.66913481900977" lon="12.903761726464994"><ele>1231.0</ele><time>2026-04-22T14:37:13.001Z</time></trkpt><trkpt lat="42.669106189059484" lon="12.903849111242836"><ele>1231.0</ele><time>2026-04-22T14:37:14.001Z</time></trkpt><trkpt lat="42.66907867931589" lon="12.903948821307242"><ele>1231.0</ele><time>2026-04-22T14:37:15.001Z</time></trkpt><trkpt lat="42.66905921811187" lon="12.904037368914649"><ele>1231.0</ele><time>2026-04-22T14:37:16.001Z</time></trkpt><trkpt lat="42.66904206681556" lon="12.904135277118158"><ele>1232.2</ele><time>2026-04-22T14:37:17.001Z</time></trkpt><trkpt lat="42.66903223152693" lon="12.904277989099977"><ele>1233.3999999999999</ele><time>2026-04-22T14:37:18.001Z</time></trkpt><trkpt lat="42.66899971874025" lon="12.904436300891675"><ele>1234.6</ele><time>2026-04-22T14:37:19.001Z</time></trkpt><trkpt lat="42.66896103644154" lon="12.90457381285664"><ele>1235.8</ele><time>2026-04-22T14:37:20.001Z</time></trkpt><trkpt lat="42.668922655749256" lon="12.90471430158925"><ele>1237.0</ele><time>2026-04-22T14:37:21.001Z</time></trkpt><trkpt lat="42.66890097671676" lon="12.904850865867992"><ele>1237.0</ele><time>2026-04-22T14:37:22.001Z</time></trkpt><trkpt lat="42.66888579473488" lon="12.904997991078956"><ele>1237.0</ele><time>2026-04-22T14:37:23.001Z</time></trkpt><trkpt lat="42.66886853106635" lon="12.905135758649637"><ele>1237.0</ele><time>2026-04-22T14:37:24.001Z</time></trkpt><trkpt lat="42.66883754421125" lon="12.90527006671687"><ele>1237.0</ele><time>2026-04-22T14:37:25.001Z</time></trkpt><trkpt lat="42.66881343766809" lon="12.905411317033531"><ele>1237.0</ele><time>2026-04-22T14:37:26.001Z</time></trkpt><trkpt lat="42.66876836178482" lon="12.905559204452867"><ele>1238.6</ele><time>2026-04-22T14:37:27.001Z</time></trkpt><trkpt lat="42.66874567529151" lon="12.905716168019747"><ele>1240.2</ele><time>2026-04-22T14:37:28.001Z</time></trkpt><trkpt lat="42.668728987393415" lon="12.90586137478885"><ele>1241.8</ele><time>2026-04-22T14:37:29.001Z</time></trkpt><trkpt lat="42.66870584257719" lon="12.906004465442937"><ele>1243.4</ele><time>2026-04-22T14:37:30.001Z</time></trkpt><trkpt lat="42.66869677544494" lon="12.906140478428993"><ele>1245.0</ele><time>2026-04-22T14:37:31.001Z</time></trkpt><trkpt lat="42.66870832415377" lon="12.906245806503074"><ele>1245.8</ele><time>2026-04-22T14:37:32.001Z</time></trkpt><trkpt lat="42.668754827513105" lon="12.9063599934091"><ele>1246.6</ele><time>2026-04-22T14:37:33.001Z</time></trkpt><trkpt lat="42.668792603052026" lon="12.906458862325703"><ele>1247.4</ele><time>2026-04-22T14:37:34.001Z</time></trkpt><trkpt lat="42.66881384804444" lon="12.906577347722628"><ele>1248.2</ele><time>2026-04-22T14:37:35.001Z</time></trkpt><trkpt lat="42.66882600518511" lon="12.906715753965946"><ele>1249.0</ele><time>2026-04-22T14:37:36.001Z</time></trkpt><trkpt lat="42.668847758384985" lon="12.906854367173374"><ele>1249.8</ele><time>2026-04-22T14:37:37.001Z</time></trkpt><trkpt lat="42.66886815544177" lon="12.906993838878488"><ele>1250.6000000000001</ele><time>2026-04-22T14:37:38.001Z</time></trkpt><trkpt lat="42.66888673524595" lon="12.907122973594394"><ele>1251.4</ele><time>2026-04-22T14:37:39.001Z</time></trkpt><trkpt lat="42.66889271645573" lon="12.907255071442671"><ele>1252.2</ele><time>2026-04-22T14:37:40.001Z</time></trkpt><trkpt lat="42.66887994462913" lon="12.907383087008618"><ele>1253.0</ele><time>2026-04-22T14:37:41.001Z</time></trkpt><trkpt lat="42.668865900747875" lon="12.90752233141674"><ele>1253.4</ele><time>2026-04-22T14:37:42.001Z</time></trkpt><trkpt lat="42.6688427639064" lon="12.907674169599515"><ele>1253.8</ele><time>2026-04-22T14:37:43.001Z</time></trkpt><trkpt lat="42.668829889822774" lon="12.907825727122495"><ele>1254.2</ele><time>2026-04-22T14:37:44.001Z</time></trkpt><trkpt lat="42.6688125702471" lon="12.907969103345629"><ele>1254.6</ele><time>2026-04-22T14:37:45.001Z</time></trkpt><trkpt lat="42.66878471456922" lon="12.908119945518518"><ele>1255.0</ele><time>2026-04-22T14:37:46.001Z</time></trkpt><trkpt lat="42.6687488436958" lon="12.908271314551097"><ele>1257.25</ele><time>2026-04-22T14:37:47.001Z</time></trkpt><trkpt lat="42.66870870636087" lon="12.908424167463874"><ele>1259.5</ele><time>2026-04-22T14:37:48.001Z</time></trkpt><trkpt lat="42.6686655458319" lon="12.908589226244706"><ele>1261.75</ele><time>2026-04-22T14:37:49.001Z</time></trkpt><trkpt lat="42.66862569288594" lon="12.908750989413111"><ele>1264.0</ele><time>2026-04-22T14:37:50.001Z</time></trkpt><trkpt lat="42.668592548520365" lon="12.908900956713401"><ele>1261.2</ele><time>2026-04-22T14:37:51.001Z</time></trkpt><trkpt lat="42.66856075838763" lon="12.909017637249974"><ele>1258.4</ele><time>2026-04-22T14:37:52.001Z</time></trkpt><trkpt lat="42.66852270194344" lon="12.90913135554481"><ele>1255.6</ele><time>2026-04-22T14:37:53.001Z</time></trkpt><trkpt lat="42.668471871918406" lon="12.909245978717918"><ele>1252.8</ele><time>2026-04-22T14:37:54.001Z</time></trkpt><trkpt lat="42.668422985071125" lon="12.90936504597721"><ele>1250.0</ele><time>2026-04-22T14:37:55.001Z</time></trkpt><trkpt lat="42.66837237670158" lon="12.909498741649001"><ele>1250.0</ele><time>2026-04-22T14:37:56.001Z</time></trkpt><trkpt lat="42.668328714330094" lon="12.909647406537287"><ele>1250.0</ele><time>2026-04-22T14:37:57.001Z</time></trkpt><trkpt lat="42.66828982852534" lon="12.909813516718263"><ele>1250.0</ele><time>2026-04-22T14:37:58.001Z</time></trkpt><trkpt lat="42.668252449938905" lon="12.909981399546313"><ele>1250.0</ele><time>2026-04-22T14:37:59.001Z</time></trkpt><trkpt lat="42.66820567116179" lon="12.910154050814805"><ele>1251.75</ele><time>2026-04-22T14:38:00.001Z</time></trkpt><trkpt lat="42.66816930365142" lon="12.910323643976945"><ele>1253.5</ele><time>2026-04-22T14:38:01.001Z</time></trkpt><trkpt lat="42.66812276698083" lon="12.91048166302265"><ele>1255.25</ele><time>2026-04-22T14:38:02.001Z</time></trkpt><trkpt lat="42.668073277261904" lon="12.910634921858488"><ele>1257.0</ele><time>2026-04-22T14:38:03.001Z</time></trkpt><trkpt lat="42.66802450753563" lon="12.910788591279896"><ele>1258.25</ele><time>2026-04-22T14:38:04.001Z</time></trkpt><trkpt lat="42.66798155156371" lon="12.9109460327067"><ele>1259.5</ele><time>2026-04-22T14:38:05.001Z</time></trkpt><trkpt lat="42.6679448309934" lon="12.911094927675405"><ele>1260.75</ele><time>2026-04-22T14:38:06.001Z</time></trkpt><trkpt lat="42.6679076701799" lon="12.911257866325204"><ele>1262.0</ele><time>2026-04-22T14:38:07.001Z</time></trkpt><trkpt lat="42.667859011485966" lon="12.911398250751255"><ele>1262.0</ele><time>2026-04-22T14:38:08.001Z</time></trkpt><trkpt lat="42.66781905825252" lon="12.911529684211914"><ele>1262.0</ele><time>2026-04-22T14:38:09.001Z</time></trkpt><trkpt lat="42.6677695052008" lon="12.911665600408286"><ele>1262.0</ele><time>2026-04-22T14:38:10.001Z</time></trkpt><trkpt lat="42.66773017096195" lon="12.911780644730797"><ele>1262.0</ele><time>2026-04-22T14:38:11.001Z</time></trkpt><trkpt lat="42.6676874138293" lon="12.91189070668322"><ele>1262.0</ele><time>2026-04-22T14:38:12.001Z</time></trkpt><trkpt lat="42.66763895548327" lon="12.911990660228087"><ele>1259.0</ele><time>2026-04-22T14:38:13.001Z</time></trkpt><trkpt lat="42.6675669545555" lon="12.912110695800418"><ele>1256.0</ele><time>2026-04-22T14:38:14.001Z</time></trkpt><trkpt lat="42.6675056737295" lon="12.912267096990586"><ele>1253.0</ele><time>2026-04-22T14:38:15.001Z</time></trkpt><trkpt lat="42.667432970088434" lon="12.91258245810396"><ele>1253.0</ele><time>2026-04-22T14:38:17.001Z</time></trkpt><trkpt lat="42.667424785099705" lon="12.912698770886502"><ele>1253.0</ele><time>2026-04-22T14:38:18.001Z</time></trkpt><trkpt lat="42.66743186718661" lon="12.912806571188517"><ele>1253.0</ele><time>2026-04-22T14:38:19.001Z</time></trkpt><trkpt lat="42.66744598957247" lon="12.912895405115881"><ele>1253.0</ele><time>2026-04-22T14:38:20.001Z</time></trkpt><trkpt lat="42.66747862520165" lon="12.91302005478424"><ele>1253.0</ele><time>2026-04-22T14:38:22.001Z</time></trkpt><trkpt lat="42.66754782025268" lon="12.913088783722094"><ele>1253.0</ele><time>2026-04-22T14:38:24.001Z</time></trkpt><trkpt lat="42.6675874689435" lon="12.913163584710075"><ele>1253.0</ele><time>2026-04-22T14:38:25.001Z</time></trkpt><trkpt lat="42.66761889778928" lon="12.913267904178158"><ele>1253.0</ele><time>2026-04-22T14:38:26.001Z</time></trkpt><trkpt lat="42.66765097048665" lon="12.913381004095609"><ele>1253.0</ele><time>2026-04-22T14:38:27.001Z</time></trkpt><trkpt lat="42.667674619960906" lon="12.91351365827479"><ele>1253.0</ele><time>2026-04-22T14:38:28.001Z</time></trkpt><trkpt lat="42.66768648057353" lon="12.913651193911148"><ele>1253.0</ele><time>2026-04-22T14:38:29.001Z</time></trkpt><trkpt lat="42.66770180540366" lon="12.913788216702423"><ele>1252.3333333333335</ele><time>2026-04-22T14:38:30.001Z</time></trkpt><trkpt lat="42.66773419642449" lon="12.91390717724922"><ele>1251.6666666666667</ele><time>2026-04-22T14:38:31.001Z</time></trkpt><trkpt lat="42.66777238846608" lon="12.914009367749781"><ele>1251.0</ele><time>2026-04-22T14:38:32.001Z</time></trkpt><trkpt lat="42.667800232146064" lon="12.91410974670756"><ele>1250.3333333333333</ele><time>2026-04-22T14:38:33.001Z</time></trkpt><trkpt lat="42.66780203622412" lon="12.91419757685536"><ele>1249.6666666666665</ele><time>2026-04-22T14:38:34.001Z</time></trkpt><trkpt lat="42.667779181642345" lon="12.914312090991034"><ele>1249.0</ele><time>2026-04-22T14:38:35.001Z</time></trkpt><trkpt lat="42.66775600093255" lon="12.91443915541967"><ele>1249.4</ele><time>2026-04-22T14:38:36.001Z</time></trkpt><trkpt lat="42.66776266977376" lon="12.914574030190083"><ele>1249.8000000000002</ele><time>2026-04-22T14:38:37.001Z</time></trkpt><trkpt lat="42.6677936185775" lon="12.914700074672965"><ele>1250.1999999999998</ele><time>2026-04-22T14:38:38.001Z</time></trkpt><trkpt lat="42.66783310899821" lon="12.91482989052027"><ele>1250.6</ele><time>2026-04-22T14:38:39.001Z</time></trkpt><trkpt lat="42.6678832917232" lon="12.914958184369311"><ele>1251.0</ele><time>2026-04-22T14:38:40.001Z</time></trkpt><trkpt lat="42.66794368986588" lon="12.915105225579495"><ele>1251.0</ele><time>2026-04-22T14:38:41.001Z</time></trkpt><trkpt lat="42.66799847799395" lon="12.915245218915373"><ele>1251.0</ele><time>2026-04-22T14:38:42.001Z</time></trkpt><trkpt lat="42.668036207107896" lon="12.915348341949366"><ele>1251.0</ele><time>2026-04-22T14:38:43.001Z</time></trkpt><trkpt lat="42.66807881550658" lon="12.915439605548404"><ele>1251.0</ele><time>2026-04-22T14:38:44.001Z</time></trkpt><trkpt lat="42.66812038175676" lon="12.915531743996342"><ele>1251.0</ele><time>2026-04-22T14:38:45.001Z</time></trkpt><trkpt lat="42.66818289484953" lon="12.9156136274373"><ele>1251.0</ele><time>2026-04-22T14:38:46.001Z</time></trkpt><trkpt lat="42.66824216893425" lon="12.915710204170463"><ele>1251.0</ele><time>2026-04-22T14:38:47.001Z</time></trkpt><trkpt lat="42.66827151260971" lon="12.915811096905529"><ele>1251.0</ele><time>2026-04-22T14:38:48.001Z</time></trkpt><trkpt lat="42.66829638717834" lon="12.91593103621587"><ele>1251.0</ele><time>2026-04-22T14:38:49.001Z</time></trkpt><trkpt lat="42.668332372644905" lon="12.916025135937819"><ele>1251.0</ele><time>2026-04-22T14:38:50.001Z</time></trkpt><trkpt lat="42.668378912016706" lon="12.916118560578132"><ele>1251.0</ele><time>2026-04-22T14:38:51.001Z</time></trkpt><trkpt lat="42.66840660149802" lon="12.91620953248707"><ele>1251.0</ele><time>2026-04-22T14:38:52.001Z</time></trkpt><trkpt lat="42.668405021630726" lon="12.916311909144369"><ele>1251.2</ele><time>2026-04-22T14:38:53.001Z</time></trkpt><trkpt lat="42.66837534920319" lon="12.916411490756627"><ele>1251.3999999999999</ele><time>2026-04-22T14:38:54.001Z</time></trkpt><trkpt lat="42.66832804381692" lon="12.916519005220108"><ele>1251.6</ele><time>2026-04-22T14:38:55.001Z</time></trkpt><trkpt lat="42.66826262668196" lon="12.916632696081884"><ele>1251.8</ele><time>2026-04-22T14:38:56.001Z</time></trkpt><trkpt lat="42.668184243771" lon="12.91675934594927"><ele>1252.0</ele><time>2026-04-22T14:38:57.001Z</time></trkpt><trkpt lat="42.66811439967185" lon="12.91689930030453"><ele>1252.0</ele><time>2026-04-22T14:38:58.001Z</time></trkpt><trkpt lat="42.668052753376436" lon="12.917045439812977"><ele>1252.0</ele><time>2026-04-22T14:38:59.001Z</time></trkpt><trkpt lat="42.66798941312103" lon="12.91716257941613"><ele>1252.0</ele><time>2026-04-22T14:39:00.001Z</time></trkpt><trkpt lat="42.66792605652279" lon="12.917266141792414"><ele>1252.0</ele><time>2026-04-22T14:39:01.001Z</time></trkpt><trkpt lat="42.667865774636965" lon="12.917369207111461"><ele>1252.0</ele><time>2026-04-22T14:39:02.001Z</time></trkpt><trkpt lat="42.6678204593139" lon="12.917481476404765"><ele>1252.0</ele><time>2026-04-22T14:39:03.001Z</time></trkpt><trkpt lat="42.66778737829455" lon="12.917621727656051"><ele>1252.0</ele><time>2026-04-22T14:39:04.001Z</time></trkpt><trkpt lat="42.667773472873776" lon="12.917773643957554"><ele>1252.0</ele><time>2026-04-22T14:39:05.001Z</time></trkpt><trkpt lat="42.667765033798986" lon="12.917924065607188"><ele>1252.0</ele><time>2026-04-22T14:39:06.001Z</time></trkpt><trkpt lat="42.66775876335809" lon="12.918059420326703"><ele>1252.0</ele><time>2026-04-22T14:39:07.001Z</time></trkpt><trkpt lat="42.667768747980425" lon="12.918208805624305"><ele>1252.0</ele><time>2026-04-22T14:39:08.001Z</time></trkpt><trkpt lat="42.66780025345974" lon="12.918348738946317"><ele>1252.0</ele><time>2026-04-22T14:39:09.001Z</time></trkpt><trkpt lat="42.66784796670368" lon="12.918483664666802"><ele>1252.0</ele><time>2026-04-22T14:39:10.001Z</time></trkpt><trkpt lat="42.66791926100265" lon="12.918616730940553"><ele>1252.0</ele><time>2026-04-22T14:39:11.001Z</time></trkpt><trkpt lat="42.66798204538413" lon="12.918741419486743"><ele>1250.4</ele><time>2026-04-22T14:39:12.001Z</time></trkpt><trkpt lat="42.66806076887819" lon="12.91884546960937"><ele>1248.8000000000002</ele><time>2026-04-22T14:39:13.001Z</time></trkpt><trkpt lat="42.668130941073564" lon="12.918949650643498"><ele>1247.2</ele><time>2026-04-22T14:39:14.001Z</time></trkpt><trkpt lat="42.66819950817216" lon="12.919046273746169"><ele>1245.6000000000001</ele><time>2026-04-22T14:39:15.001Z</time></trkpt><trkpt lat="42.66825935666425" lon="12.919114219503637"><ele>1244.0</ele><time>2026-04-22T14:39:16.001Z</time></trkpt><trkpt lat="42.66830663402014" lon="12.919232110095585"><ele>1244.2</ele><time>2026-04-22T14:39:17.001Z</time></trkpt><trkpt lat="42.66837206743912" lon="12.91934864880768"><ele>1244.4</ele><time>2026-04-22T14:39:18.001Z</time></trkpt><trkpt lat="42.66843652729896" lon="12.919475208369482"><ele>1244.6</ele><time>2026-04-22T14:39:19.001Z</time></trkpt><trkpt lat="42.66850608549676" lon="12.91960096954108"><ele>1244.8</ele><time>2026-04-22T14:39:20.001Z</time></trkpt><trkpt lat="42.66856503116977" lon="12.91973115565304"><ele>1245.0</ele><time>2026-04-22T14:39:21.001Z</time></trkpt><trkpt lat="42.66861915936525" lon="12.919823202118009"><ele>1244.0</ele><time>2026-04-22T14:39:22.001Z</time></trkpt><trkpt lat="42.66871930369288" lon="12.91991302996839"><ele>1243.0</ele><time>2026-04-22T14:39:24.001Z</time></trkpt><trkpt lat="42.66878818550255" lon="12.919956508564876"><ele>1242.0</ele><time>2026-04-22T14:39:25.001Z</time></trkpt><trkpt lat="42.66887275184809" lon="12.920004444315726"><ele>1241.0</ele><time>2026-04-22T14:39:26.001Z</time></trkpt><trkpt lat="42.668924736404676" lon="12.920078127553136"><ele>1240.0</ele><time>2026-04-22T14:39:27.001Z</time></trkpt><trkpt lat="42.66896214457733" lon="12.920176515740724"><ele>1239.0</ele><time>2026-04-22T14:39:28.001Z</time></trkpt><trkpt lat="42.668975405421094" lon="12.920296408241473"><ele>1237.8</ele><time>2026-04-22T14:39:29.001Z</time></trkpt><trkpt lat="42.66897626286165" lon="12.920412424999828"><ele>1236.6000000000001</ele><time>2026-04-22T14:39:30.001Z</time></trkpt><trkpt lat="42.668962711236226" lon="12.920537314865092"><ele>1235.4</ele><time>2026-04-22T14:39:31.001Z</time></trkpt><trkpt lat="42.66895205367842" lon="12.92068743089344"><ele>1234.2</ele><time>2026-04-22T14:39:32.001Z</time></trkpt><trkpt lat="42.668972103865045" lon="12.920834249370575"><ele>1233.0</ele><time>2026-04-22T14:39:33.001Z</time></trkpt><trkpt lat="42.66901749000259" lon="12.920974273768127"><ele>1232.0</ele><time>2026-04-22T14:39:34.001Z</time></trkpt><trkpt lat="42.6690765846229" lon="12.921110017122192"><ele>1231.0</ele><time>2026-04-22T14:39:35.001Z</time></trkpt><trkpt lat="42.66914067482576" lon="12.92124668799357"><ele>1230.0</ele><time>2026-04-22T14:39:36.001Z</time></trkpt><trkpt lat="42.669191668334264" lon="12.921394454392267"><ele>1229.0</ele><time>2026-04-22T14:39:37.001Z</time></trkpt><trkpt lat="42.66922848488649" lon="12.921543215250253"><ele>1229.0</ele><time>2026-04-22T14:39:38.001Z</time></trkpt><trkpt lat="42.66925417495917" lon="12.92170037025966"><ele>1229.0</ele><time>2026-04-22T14:39:39.001Z</time></trkpt><trkpt lat="42.66926262219339" lon="12.921849983747187"><ele>1229.0</ele><time>2026-04-22T14:39:40.001Z</time></trkpt><trkpt lat="42.66926408143503" lon="12.921998313959302"><ele>1229.0</ele><time>2026-04-22T14:39:41.001Z</time></trkpt><trkpt lat="42.66926377358159" lon="12.922161740990676"><ele>1228.0</ele><time>2026-04-22T14:39:42.001Z</time></trkpt><trkpt lat="42.66926149653541" lon="12.92231538359451"><ele>1227.0</ele><time>2026-04-22T14:39:43.001Z</time></trkpt><trkpt lat="42.66926001676464" lon="12.922462303787366"><ele>1226.0</ele><time>2026-04-22T14:39:44.001Z</time></trkpt><trkpt lat="42.669259002954476" lon="12.922592061595374"><ele>1225.0</ele><time>2026-04-22T14:39:45.001Z</time></trkpt><trkpt lat="42.669264626764544" lon="12.922702734792006"><ele>1224.0</ele><time>2026-04-22T14:39:46.001Z</time></trkpt><trkpt lat="42.66927824736731" lon="12.922839853741356"><ele>1225.2</ele><time>2026-04-22T14:39:48.001Z</time></trkpt><trkpt lat="42.669308067367986" lon="12.922969806261177"><ele>1226.4</ele><time>2026-04-22T14:39:51.001Z</time></trkpt><trkpt lat="42.66932666969496" lon="12.923083817006837"><ele>1227.6</ele><time>2026-04-22T14:39:53.001Z</time></trkpt><trkpt lat="42.66935954660476" lon="12.923217112215484"><ele>1228.8</ele><time>2026-04-22T14:39:55.001Z</time></trkpt><trkpt lat="42.669405452331816" lon="12.923344291168481"><ele>1230.0</ele><time>2026-04-22T14:39:57.001Z</time></trkpt><trkpt lat="42.66946515567454" lon="12.923442892608788"><ele>1230.0</ele><time>2026-04-22T14:39:59.001Z</time></trkpt><trkpt lat="42.66951566499554" lon="12.923525314150526"><ele>1230.0</ele><time>2026-04-22T14:40:00.001Z</time></trkpt><trkpt lat="42.669565906802816" lon="12.923627157817972"><ele>1230.0</ele><time>2026-04-22T14:40:01.001Z</time></trkpt><trkpt lat="42.669592283234024" lon="12.923727632956545"><ele>1230.0</ele><time>2026-04-22T14:40:02.001Z</time></trkpt><trkpt lat="42.6695990752639" lon="12.923826356851615"><ele>1230.0</ele><time>2026-04-22T14:40:03.001Z</time></trkpt><trkpt lat="42.66959150519406" lon="12.923934868731598"><ele>1230.0</ele><time>2026-04-22T14:40:04.001Z</time></trkpt><trkpt lat="42.669570242851684" lon="12.924050879637402"><ele>1230.0</ele><time>2026-04-22T14:40:05.001Z</time></trkpt><trkpt lat="42.66952979125087" lon="12.924147035296334"><ele>1230.0</ele><time>2026-04-22T14:40:06.001Z</time></trkpt><trkpt lat="42.669481200747605" lon="12.924243971489247"><ele>1230.0</ele><time>2026-04-22T14:40:07.001Z</time></trkpt><trkpt lat="42.6694372049943" lon="12.924379744229203"><ele>1230.0</ele><time>2026-04-22T14:40:08.001Z</time></trkpt><trkpt lat="42.6694074955712" lon="12.924539201391493"><ele>1230.0</ele><time>2026-04-22T14:40:09.001Z</time></trkpt><trkpt lat="42.66939763422687" lon="12.9246919407145"><ele>1228.6666666666667</ele><time>2026-04-22T14:40:10.001Z</time></trkpt><trkpt lat="42.669392953660406" lon="12.924819022151457"><ele>1227.3333333333333</ele><time>2026-04-22T14:40:11.001Z</time></trkpt><trkpt lat="42.66938892975538" lon="12.924934325113815"><ele>1226.0</ele><time>2026-04-22T14:40:12.001Z</time></trkpt><trkpt lat="42.66939126423762" lon="12.925020844183456"><ele>1224.6666666666665</ele><time>2026-04-22T14:40:13.001Z</time></trkpt><trkpt lat="42.66939040637054" lon="12.925131308011267"><ele>1223.3333333333333</ele><time>2026-04-22T14:40:15.001Z</time></trkpt><trkpt lat="42.669404139571775" lon="12.925278854256385"><ele>1222.0</ele><time>2026-04-22T14:40:18.001Z</time></trkpt><trkpt lat="42.66942256123297" lon="12.925425084222127"><ele>1222.3333333333333</ele><time>2026-04-22T14:40:20.001Z</time></trkpt><trkpt lat="42.66944744962331" lon="12.925520957070292"><ele>1222.6666666666665</ele><time>2026-04-22T14:40:22.001Z</time></trkpt><trkpt lat="42.66948356032826" lon="12.925656837099458"><ele>1223.0</ele><time>2026-04-22T14:40:24.001Z</time></trkpt><trkpt lat="42.66952916311588" lon="12.925742480511625"><ele>1223.3333333333333</ele><time>2026-04-22T14:40:25.001Z</time></trkpt><trkpt lat="42.669582542890765" lon="12.925836599471042"><ele>1223.6666666666667</ele><time>2026-04-22T14:40:26.001Z</time></trkpt><trkpt lat="42.669640119515726" lon="12.925911421823894"><ele>1224.0</ele><time>2026-04-22T14:40:27.001Z</time></trkpt><trkpt lat="42.66971601835963" lon="12.925968141505681"><ele>1222.0</ele><time>2026-04-22T14:40:28.001Z</time></trkpt><trkpt lat="42.66978561694309" lon="12.925992241103907"><ele>1220.0</ele><time>2026-04-22T14:40:29.001Z</time></trkpt><trkpt lat="42.66987616307489" lon="12.925994651263474"><ele>1218.0</ele><time>2026-04-22T14:40:30.001Z</time></trkpt><trkpt lat="42.66997485421682" lon="12.925972062058309"><ele>1216.0</ele><time>2026-04-22T14:40:31.001Z</time></trkpt><trkpt lat="42.67007612164229" lon="12.925967125998351"><ele>1214.0</ele><time>2026-04-22T14:40:32.001Z</time></trkpt><trkpt lat="42.670149946069294" lon="12.92598563038281"><ele>1212.0</ele><time>2026-04-22T14:40:33.001Z</time></trkpt><trkpt lat="42.67020709453871" lon="12.92603690360326"><ele>1212.0</ele><time>2026-04-22T14:40:34.001Z</time></trkpt><trkpt lat="42.67025168199806" lon="12.926114105957945"><ele>1212.0</ele><time>2026-04-22T14:40:35.001Z</time></trkpt><trkpt lat="42.67028683622787" lon="12.92629120749352"><ele>1212.0</ele><time>2026-04-22T14:40:37.001Z</time></trkpt><trkpt lat="42.670300953490816" lon="12.92638255672839"><ele>1212.0</ele><time>2026-04-22T14:40:38.001Z</time></trkpt><trkpt lat="42.670396438054986" lon="12.926502470958104"><ele>1212.0</ele><time>2026-04-22T14:40:40.001Z</time></trkpt><trkpt lat="42.67047276309436" lon="12.92654568297194"><ele>1214.2</ele><time>2026-04-22T14:40:41.001Z</time></trkpt><trkpt lat="42.670555842367705" lon="12.926601743654167"><ele>1216.4</ele><time>2026-04-22T14:40:42.001Z</time></trkpt><trkpt lat="42.67063297468043" lon="12.926669925946308"><ele>1218.6</ele><time>2026-04-22T14:40:43.001Z</time></trkpt><trkpt lat="42.67072124538444" lon="12.926754627954264"><ele>1220.8</ele><time>2026-04-22T14:40:44.001Z</time></trkpt><trkpt lat="42.670812735441764" lon="12.926841666054282"><ele>1223.0</ele><time>2026-04-22T14:40:45.001Z</time></trkpt><trkpt lat="42.670903635889424" lon="12.92690974381144"><ele>1223.0</ele><time>2026-04-22T14:40:46.001Z</time></trkpt><trkpt lat="42.670994391163624" lon="12.926989201457495"><ele>1223.0</ele><time>2026-04-22T14:40:47.001Z</time></trkpt><trkpt lat="42.671054286919464" lon="12.927066512991336"><ele>1223.0</ele><time>2026-04-22T14:40:48.001Z</time></trkpt><trkpt lat="42.671105614992314" lon="12.927153808468825"><ele>1223.0</ele><time>2026-04-22T14:40:49.001Z</time></trkpt><trkpt lat="42.67116135867646" lon="12.927213802371506"><ele>1223.0</ele><time>2026-04-22T14:40:50.001Z</time></trkpt><trkpt lat="42.67126429018415" lon="12.927302139705118"><ele>1222.3333333333335</ele><time>2026-04-22T14:40:52.001Z</time></trkpt><trkpt lat="42.67131286387202" lon="12.92736114398108"><ele>1221.6666666666667</ele><time>2026-04-22T14:40:53.001Z</time></trkpt><trkpt lat="42.671367400647874" lon="12.927440541606892"><ele>1221.0</ele><time>2026-04-22T14:40:54.001Z</time></trkpt><trkpt lat="42.67139464046267" lon="12.92753887956236"><ele>1220.3333333333333</ele><time>2026-04-22T14:40:55.001Z</time></trkpt><trkpt lat="42.6714157527461" lon="12.927639257825764"><ele>1219.6666666666665</ele><time>2026-04-22T14:40:56.001Z</time></trkpt><trkpt lat="42.67146158197126" lon="12.927723258744384"><ele>1219.0</ele><time>2026-04-22T14:40:57.001Z</time></trkpt><trkpt lat="42.67152212470363" lon="12.927817651961153"><ele>1215.75</ele><time>2026-04-22T14:40:58.001Z</time></trkpt><trkpt lat="42.67162156927697" lon="12.927898692702376"><ele>1212.5</ele><time>2026-04-22T14:40:59.001Z</time></trkpt><trkpt lat="42.671736744900855" lon="12.927969851434115"><ele>1209.25</ele><time>2026-04-22T14:41:00.001Z</time></trkpt><trkpt lat="42.67183294183628" lon="12.928060765435806"><ele>1206.0</ele><time>2026-04-22T14:41:01.001Z</time></trkpt><trkpt lat="42.67191284493953" lon="12.928138177206279"><ele>1203.0</ele><time>2026-04-22T14:41:02.001Z</time></trkpt><trkpt lat="42.6719904114695" lon="12.928219186098861"><ele>1200.0</ele><time>2026-04-22T14:41:03.001Z</time></trkpt><trkpt lat="42.67206788531532" lon="12.928275037107232"><ele>1197.0</ele><time>2026-04-22T14:41:04.001Z</time></trkpt><trkpt lat="42.67212812380541" lon="12.928310769400015"><ele>1194.0</ele><time>2026-04-22T14:41:05.001Z</time></trkpt><trkpt lat="42.67224779188746" lon="12.928311816220194"><ele>1191.0</ele><time>2026-04-22T14:41:07.001Z</time></trkpt><trkpt lat="42.672372843454745" lon="12.928247493760951"><ele>1191.0</ele><time>2026-04-22T14:41:09.001Z</time></trkpt><trkpt lat="42.672458804197916" lon="12.928190513679944"><ele>1191.0</ele><time>2026-04-22T14:41:10.001Z</time></trkpt><trkpt lat="42.67254725216461" lon="12.928138159685757"><ele>1191.0</ele><time>2026-04-22T14:41:11.001Z</time></trkpt><trkpt lat="42.67263208759428" lon="12.928081311009223"><ele>1191.0</ele><time>2026-04-22T14:41:12.001Z</time></trkpt><trkpt lat="42.67270883787554" lon="12.928040369613992"><ele>1191.0</ele><time>2026-04-22T14:41:13.001Z</time></trkpt><trkpt lat="42.672779622338766" lon="12.92799847829628"><ele>1191.0</ele><time>2026-04-22T14:41:14.001Z</time></trkpt><trkpt lat="42.67283487271996" lon="12.927954223274163"><ele>1191.8</ele><time>2026-04-22T14:41:15.001Z</time></trkpt><trkpt lat="42.67288633876224" lon="12.927811633475306"><ele>1192.6</ele><time>2026-04-22T14:41:17.001Z</time></trkpt><trkpt lat="42.672864070570604" lon="12.927644422973524"><ele>1193.4</ele><time>2026-04-22T14:41:19.001Z</time></trkpt><trkpt lat="42.67284041072335" lon="12.927556406959818"><ele>1194.2</ele><time>2026-04-22T14:41:20.001Z</time></trkpt><trkpt lat="42.67286256681112" lon="12.927407710360377"><ele>1195.0</ele><time>2026-04-22T14:41:22.001Z</time></trkpt><trkpt lat="42.672962703385515" lon="12.927319880597405"><ele>1195.0</ele><time>2026-04-22T14:41:24.001Z</time></trkpt><trkpt lat="42.6730992123176" lon="12.927304211146845"><ele>1195.0</ele><time>2026-04-22T14:41:26.001Z</time></trkpt><trkpt lat="42.673165971453116" lon="12.927322812335362"><ele>1195.0</ele><time>2026-04-22T14:41:27.001Z</time></trkpt><trkpt lat="42.673267692775894" lon="12.927413278079369"><ele>1195.0</ele><time>2026-04-22T14:41:29.001Z</time></trkpt><trkpt lat="42.67331183570629" lon="12.927489955934677"><ele>1195.0</ele><time>2026-04-22T14:41:30.001Z</time></trkpt><trkpt lat="42.67335030641836" lon="12.927588401485165"><ele>1191.5</ele><time>2026-04-22T14:41:31.001Z</time></trkpt><trkpt lat="42.673386599624244" lon="12.927724798660185"><ele>1188.0</ele><time>2026-04-22T14:41:32.001Z</time></trkpt><trkpt lat="42.673427965003285" lon="12.927878069002514"><ele>1184.5</ele><time>2026-04-22T14:41:33.001Z</time></trkpt><trkpt lat="42.67347935825528" lon="12.928041758442692"><ele>1181.0</ele><time>2026-04-22T14:41:34.001Z</time></trkpt><trkpt lat="42.67351404354282" lon="12.92823268604413"><ele>1177.3333333333335</ele><time>2026-04-22T14:41:35.001Z</time></trkpt><trkpt lat="42.67355695578368" lon="12.928427497244968"><ele>1173.6666666666667</ele><time>2026-04-22T14:41:36.001Z</time></trkpt><trkpt lat="42.673592751136646" lon="12.928629667899893"><ele>1170.0</ele><time>2026-04-22T14:41:37.001Z</time></trkpt><trkpt lat="42.67362429870616" lon="12.928840790634093"><ele>1178.0</ele><time>2026-04-22T14:41:38.001Z</time></trkpt><trkpt lat="42.673655572585" lon="12.929055326671648"><ele>1186.0</ele><time>2026-04-22T14:41:39.001Z</time></trkpt><trkpt lat="42.67368528183293" lon="12.929263291406683"><ele>1194.0</ele><time>2026-04-22T14:41:40.001Z</time></trkpt><trkpt lat="42.67371155359551" lon="12.929454739067086"><ele>1194.0</ele><time>2026-04-22T14:41:41.001Z</time></trkpt><trkpt lat="42.673735195318955" lon="12.929642851098778"><ele>1194.0</ele><time>2026-04-22T14:41:42.001Z</time></trkpt><trkpt lat="42.67375545328598" lon="12.929820264791772"><ele>1194.0</ele><time>2026-04-22T14:41:43.001Z</time></trkpt><trkpt lat="42.67377390537543" lon="12.930002662514342"><ele>1194.0</ele><time>2026-04-22T14:41:44.001Z</time></trkpt><trkpt lat="42.67379329654809" lon="12.93019098075789"><ele>1190.25</ele><time>2026-04-22T14:41:45.001Z</time></trkpt><trkpt lat="42.67381514843618" lon="12.930378814647721"><ele>1186.5</ele><time>2026-04-22T14:41:46.001Z</time></trkpt><trkpt lat="42.67384311761388" lon="12.93056606382192"><ele>1182.75</ele><time>2026-04-22T14:41:47.001Z</time></trkpt><trkpt lat="42.67387662331473" lon="12.930747889643866"><ele>1179.0</ele><time>2026-04-22T14:41:48.001Z</time></trkpt><trkpt lat="42.673914888635885" lon="12.930924835144468"><ele>1174.25</ele><time>2026-04-22T14:41:49.001Z</time></trkpt><trkpt lat="42.67397060346308" lon="12.931084720616152"><ele>1169.5</ele><time>2026-04-22T14:41:50.001Z</time></trkpt><trkpt lat="42.674004039084494" lon="12.931262054500483"><ele>1164.75</ele><time>2026-04-22T14:41:51.001Z</time></trkpt><trkpt lat="42.67407282403875" lon="12.93143351409933"><ele>1160.0</ele><time>2026-04-22T14:41:52.001Z</time></trkpt><trkpt lat="42.67412230679114" lon="12.931633222346521"><ele>1156.4</ele><time>2026-04-22T14:41:53.001Z</time></trkpt><trkpt lat="42.67418563303675" lon="12.931770792525425"><ele>1152.8</ele><time>2026-04-22T14:41:54.001Z</time></trkpt><trkpt lat="42.674236536852" lon="12.931894305035687"><ele>1149.2</ele><time>2026-04-22T14:41:55.001Z</time></trkpt><trkpt lat="42.67428909444959" lon="12.93199895405043"><ele>1145.6</ele><time>2026-04-22T14:41:56.001Z</time></trkpt><trkpt lat="42.674357501517434" lon="12.932081780114096"><ele>1142.0</ele><time>2026-04-22T14:41:57.001Z</time></trkpt><trkpt lat="42.67444436907002" lon="12.93212259097215"><ele>1140.0</ele><time>2026-04-22T14:41:58.001Z</time></trkpt><trkpt lat="42.67454179991621" lon="12.93211280855888"><ele>1138.0</ele><time>2026-04-22T14:41:59.001Z</time></trkpt><trkpt lat="42.67462859618082" lon="12.93205215318588"><ele>1136.0</ele><time>2026-04-22T14:42:00.001Z</time></trkpt><trkpt lat="42.674712206825674" lon="12.931933716931924"><ele>1134.0</ele><time>2026-04-22T14:42:01.001Z</time></trkpt><trkpt lat="42.674799886802184" lon="12.931832950146784"><ele>1132.0</ele><time>2026-04-22T14:42:02.001Z</time></trkpt><trkpt lat="42.67490352761118" lon="12.931752048207098"><ele>1133.5</ele><time>2026-04-22T14:42:03.001Z</time></trkpt><trkpt lat="42.675020494605846" lon="12.931700209227612"><ele>1135.0</ele><time>2026-04-22T14:42:04.001Z</time></trkpt><trkpt lat="42.67514620718539" lon="12.931680078033104"><ele>1136.5</ele><time>2026-04-22T14:42:05.001Z</time></trkpt><trkpt lat="42.67527335461685" lon="12.931664441115004"><ele>1138.0</ele><time>2026-04-22T14:42:06.001Z</time></trkpt><trkpt lat="42.67538815538961" lon="12.931628148000632"><ele>1138.0</ele><time>2026-04-22T14:42:07.001Z</time></trkpt><trkpt lat="42.6755000171719" lon="12.931566142156724"><ele>1138.0</ele><time>2026-04-22T14:42:08.001Z</time></trkpt><trkpt lat="42.67560322901331" lon="12.931491517222259"><ele>1138.0</ele><time>2026-04-22T14:42:09.001Z</time></trkpt><trkpt lat="42.67570254473865" lon="12.931410988145238"><ele>1138.0</ele><time>2026-04-22T14:42:10.001Z</time></trkpt><trkpt lat="42.67579960161634" lon="12.931334266318702"><ele>1138.0</ele><time>2026-04-22T14:42:11.001Z</time></trkpt><trkpt lat="42.675896911146666" lon="12.931264068336194"><ele>1138.0</ele><time>2026-04-22T14:42:12.001Z</time></trkpt><trkpt lat="42.67599768993576" lon="12.931206855383605"><ele>1138.0</ele><time>2026-04-22T14:42:13.001Z</time></trkpt><trkpt lat="42.67610265689585" lon="12.931180085674278"><ele>1138.0</ele><time>2026-04-22T14:42:14.001Z</time></trkpt><trkpt lat="42.67620655519784" lon="12.931198380156054"><ele>1138.0</ele><time>2026-04-22T14:42:15.001Z</time></trkpt><trkpt lat="42.676296146894366" lon="12.931260817428479"><ele>1140.5</ele><time>2026-04-22T14:42:16.001Z</time></trkpt><trkpt lat="42.67635294249484" lon="12.931385659554323"><ele>1143.0</ele><time>2026-04-22T14:42:17.001Z</time></trkpt><trkpt lat="42.676416243450554" lon="12.931518065632654"><ele>1145.5</ele><time>2026-04-22T14:42:18.001Z</time></trkpt><trkpt lat="42.676488306741746" lon="12.931669612129696"><ele>1148.0</ele><time>2026-04-22T14:42:19.001Z</time></trkpt><trkpt lat="42.676567782223415" lon="12.93182351087312"><ele>1145.75</ele><time>2026-04-22T14:42:20.001Z</time></trkpt><trkpt lat="42.676661434955186" lon="12.931954150528751"><ele>1143.5</ele><time>2026-04-22T14:42:21.001Z</time></trkpt><trkpt lat="42.67678348909933" lon="12.932043675421955"><ele>1141.25</ele><time>2026-04-22T14:42:22.001Z</time></trkpt><trkpt lat="42.6769135952474" lon="12.932133928824413"><ele>1139.0</ele><time>2026-04-22T14:42:23.001Z</time></trkpt><trkpt lat="42.67705131521915" lon="12.93223175231594"><ele>1139.0</ele><time>2026-04-22T14:42:24.001Z</time></trkpt><trkpt lat="42.67719471611036" lon="12.93233654509658"><ele>1139.0</ele><time>2026-04-22T14:42:25.001Z</time></trkpt><trkpt lat="42.67733844068521" lon="12.932453158378872"><ele>1139.0</ele><time>2026-04-22T14:42:26.001Z</time></trkpt><trkpt lat="42.67749454763999" lon="12.932542442355663"><ele>1137.3333333333335</ele><time>2026-04-22T14:42:27.001Z</time></trkpt><trkpt lat="42.67764560380298" lon="12.932660951888998"><ele>1135.6666666666667</ele><time>2026-04-22T14:42:28.001Z</time></trkpt><trkpt lat="42.677794751396505" lon="12.93278621183058"><ele>1134.0</ele><time>2026-04-22T14:42:29.001Z</time></trkpt><trkpt lat="42.67793583087561" lon="12.932934078069104"><ele>1134.0</ele><time>2026-04-22T14:42:30.001Z</time></trkpt><trkpt lat="42.678070937511684" lon="12.933097634027442"><ele>1134.0</ele><time>2026-04-22T14:42:31.001Z</time></trkpt><trkpt lat="42.6782038108077" lon="12.93327198908451"><ele>1134.0</ele><time>2026-04-22T14:42:32.001Z</time></trkpt><trkpt lat="42.67833960804659" lon="12.933439878689434"><ele>1132.6666666666667</ele><time>2026-04-22T14:42:33.001Z</time></trkpt><trkpt lat="42.67848266577407" lon="12.933617075854794"><ele>1131.3333333333335</ele><time>2026-04-22T14:42:34.001Z</time></trkpt><trkpt lat="42.67862299774142" lon="12.93379043367277"><ele>1130.0</ele><time>2026-04-22T14:42:35.001Z</time></trkpt><trkpt lat="42.67875452411785" lon="12.93395890949329"><ele>1130.0</ele><time>2026-04-22T14:42:36.001Z</time></trkpt><trkpt lat="42.67888210131963" lon="12.934132755447592"><ele>1130.0</ele><time>2026-04-22T14:42:37.001Z</time></trkpt><trkpt lat="42.679005461578484" lon="12.934305989622766"><ele>1130.0</ele><time>2026-04-22T14:42:38.001Z</time></trkpt><trkpt lat="42.67912381210256" lon="12.934468925006984"><ele>1128.6666666666667</ele><time>2026-04-22T14:42:39.001Z</time></trkpt><trkpt lat="42.67923497279544" lon="12.934637852701679"><ele>1127.3333333333333</ele><time>2026-04-22T14:42:40.001Z</time></trkpt><trkpt lat="42.67934937350574" lon="12.934805209149918"><ele>1126.0</ele><time>2026-04-22T14:42:41.001Z</time></trkpt><trkpt lat="42.67947569967649" lon="12.934965937395766"><ele>1118.0</ele><time>2026-04-22T14:42:42.001Z</time></trkpt><trkpt lat="42.67961883499659" lon="12.935109977434728"><ele>1110.0</ele><time>2026-04-22T14:42:43.001Z</time></trkpt><trkpt lat="42.67977826528396" lon="12.935214869278942"><ele>1102.0</ele><time>2026-04-22T14:42:44.001Z</time></trkpt><trkpt lat="42.679952376877566" lon="12.935313634743697"><ele>1102.0</ele><time>2026-04-22T14:42:45.001Z</time></trkpt><trkpt lat="42.680124322470306" lon="12.93542635842691"><ele>1102.0</ele><time>2026-04-22T14:42:46.001Z</time></trkpt><trkpt lat="42.68029978141904" lon="12.935535739132277"><ele>1102.0</ele><time>2026-04-22T14:42:47Z</time></trkpt><trkpt lat="42.68047419557914" lon="12.935647719208372"><ele>1105.3333333333333</ele><time>2026-04-22T14:42:48.001Z</time></trkpt><trkpt lat="42.680649716018905" lon="12.935765952579409"><ele>1108.6666666666667</ele><time>2026-04-22T14:42:49Z</time></trkpt><trkpt lat="42.68082787691599" lon="12.935887430993716"><ele>1112.0</ele><time>2026-04-22T14:42:50Z</time></trkpt><trkpt lat="42.68100104862717" lon="12.936007569099333"><ele>1107.0</ele><time>2026-04-22T14:42:51Z</time></trkpt><trkpt lat="42.681162766622364" lon="12.936123185979994"><ele>1102.0</ele><time>2026-04-22T14:42:52Z</time></trkpt><trkpt lat="42.68131600149873" lon="12.936248735032244"><ele>1097.0</ele><time>2026-04-22T14:42:53Z</time></trkpt><trkpt lat="42.68146066516556" lon="12.936371481072785"><ele>1097.0</ele><time>2026-04-22T14:42:54Z</time></trkpt><trkpt lat="42.681600508730526" lon="12.936484240986026"><ele>1097.0</ele><time>2026-04-22T14:42:55Z</time></trkpt><trkpt lat="42.68173223810596" lon="12.93657992033755"><ele>1097.0</ele><time>2026-04-22T14:42:56Z</time></trkpt><trkpt lat="42.6818611637344" lon="12.936651513042849"><ele>1097.0</ele><time>2026-04-22T14:42:57Z</time></trkpt><trkpt lat="42.68199330714532" lon="12.936682266297247"><ele>1097.0</ele><time>2026-04-22T14:42:58Z</time></trkpt><trkpt lat="42.682126967280226" lon="12.936661571964095"><ele>1097.0</ele><time>2026-04-22T14:42:59Z</time></trkpt><trkpt lat="42.68227299776901" lon="12.936611705734553"><ele>1097.0</ele><time>2026-04-22T14:43:00Z</time></trkpt><trkpt lat="42.68242174468678" lon="12.936540013137613"><ele>1097.0</ele><time>2026-04-22T14:43:01Z</time></trkpt><trkpt lat="42.682586907311034" lon="12.93647814790379"><ele>1097.0</ele><time>2026-04-22T14:43:02Z</time></trkpt><trkpt lat="42.682761161451474" lon="12.936446914835937"><ele>1097.0</ele><time>2026-04-22T14:43:03Z</time></trkpt><trkpt lat="42.68292933802676" lon="12.936433223405576"><ele>1096.0</ele><time>2026-04-22T14:43:04Z</time></trkpt><trkpt lat="42.68309354992884" lon="12.936440466693071"><ele>1095.0</ele><time>2026-04-22T14:43:05Z</time></trkpt><trkpt lat="42.68324615310936" lon="12.936454951201451"><ele>1094.0</ele><time>2026-04-22T14:43:06Z</time></trkpt><trkpt lat="42.683395747735446" lon="12.93648900909936"><ele>1094.0</ele><time>2026-04-22T14:43:07Z</time></trkpt><trkpt lat="42.68353442400152" lon="12.936560405766668"><ele>1094.0</ele><time>2026-04-22T14:43:08Z</time></trkpt><trkpt lat="42.68365271213415" lon="12.936692978891235"><ele>1094.0</ele><time>2026-04-22T14:43:09Z</time></trkpt><trkpt lat="42.68378524868051" lon="12.936826346949239"><ele>1086.0</ele><time>2026-04-22T14:43:10Z</time></trkpt><trkpt lat="42.68392489144082" lon="12.936962174104377"><ele>1078.0</ele><time>2026-04-22T14:43:11Z</time></trkpt><trkpt lat="42.68405561537799" lon="12.937090296373059"><ele>1070.0</ele><time>2026-04-22T14:43:12Z</time></trkpt><trkpt lat="42.68418472245768" lon="12.93717931726902"><ele>1070.0</ele><time>2026-04-22T14:43:13Z</time></trkpt><trkpt lat="42.68432104391475" lon="12.937221019046275"><ele>1070.0</ele><time>2026-04-22T14:43:14Z</time></trkpt><trkpt lat="42.68446380623933" lon="12.937217101423773"><ele>1070.0</ele><time>2026-04-22T14:43:15Z</time></trkpt><trkpt lat="42.68458972206821" lon="12.937192003915362"><ele>1070.0</ele><time>2026-04-22T14:43:16Z</time></trkpt><trkpt lat="42.68469541541874" lon="12.937191733209838"><ele>1069.2</ele><time>2026-04-22T14:43:17Z</time></trkpt><trkpt lat="42.684770410561796" lon="12.937241424380618"><ele>1068.4</ele><time>2026-04-22T14:43:18Z</time></trkpt><trkpt lat="42.68479214891214" lon="12.937357138950256"><ele>1067.6</ele><time>2026-04-22T14:43:19Z</time></trkpt><trkpt lat="42.684758716286424" lon="12.937446736006107"><ele>1066.8</ele><time>2026-04-22T14:43:20Z</time></trkpt><trkpt lat="42.68472448002012" lon="12.937521924789134"><ele>1066.0</ele><time>2026-04-22T14:43:21.001Z</time></trkpt><trkpt lat="42.68457474538328" lon="12.937613806333669"><ele>1065.75</ele><time>2026-04-22T14:43:23.001Z</time></trkpt><trkpt lat="42.68446124286029" lon="12.93763715521408"><ele>1065.5</ele><time>2026-04-22T14:43:24.001Z</time></trkpt><trkpt lat="42.68432926217849" lon="12.937662970983252"><ele>1065.25</ele><time>2026-04-22T14:43:25.001Z</time></trkpt><trkpt lat="42.684191576511346" lon="12.937616835077923"><ele>1065.0</ele><time>2026-04-22T14:43:26.001Z</time></trkpt><trkpt lat="42.68404561223894" lon="12.937593866494613"><ele>1066.6666666666667</ele><time>2026-04-22T14:43:27.001Z</time></trkpt><trkpt lat="42.683896342672696" lon="12.937538834951232"><ele>1068.3333333333335</ele><time>2026-04-22T14:43:28.001Z</time></trkpt><trkpt lat="42.68374732953666" lon="12.937450079313358"><ele>1070.0</ele><time>2026-04-22T14:43:29.001Z</time></trkpt><trkpt lat="42.683594887780366" lon="12.937386758600928"><ele>1070.0</ele><time>2026-04-22T14:43:30.001Z</time></trkpt><trkpt lat="42.68344960706077" lon="12.93734382661592"><ele>1070.0</ele><time>2026-04-22T14:43:31.001Z</time></trkpt><trkpt lat="42.68331584900604" lon="12.93727033675978"><ele>1070.0</ele><time>2026-04-22T14:43:32.001Z</time></trkpt><trkpt lat="42.6831861398149" lon="12.937239225601855"><ele>1070.0</ele><time>2026-04-22T14:43:33.001Z</time></trkpt><trkpt lat="42.68305447593235" lon="12.937261273418494"><ele>1070.0</ele><time>2026-04-22T14:43:34.001Z</time></trkpt><trkpt lat="42.68293155111557" lon="12.9373001836676"><ele>1070.0</ele><time>2026-04-22T14:43:35.001Z</time></trkpt><trkpt lat="42.68281694723157" lon="12.937401628163029"><ele>1070.0</ele><time>2026-04-22T14:43:36.001Z</time></trkpt><trkpt lat="42.68269021047093" lon="12.937502183830318"><ele>1070.0</ele><time>2026-04-22T14:43:37.001Z</time></trkpt><trkpt lat="42.68256924490848" lon="12.937628120681003"><ele>1065.75</ele><time>2026-04-22T14:43:38.001Z</time></trkpt><trkpt lat="42.68245057545169" lon="12.937761969314087"><ele>1061.5</ele><time>2026-04-22T14:43:39.001Z</time></trkpt><trkpt lat="42.682347839863596" lon="12.93789420648916"><ele>1057.25</ele><time>2026-04-22T14:43:40.001Z</time></trkpt><trkpt lat="42.68226533956529" lon="12.938031031876259"><ele>1053.0</ele><time>2026-04-22T14:43:41.001Z</time></trkpt><trkpt lat="42.68222442721797" lon="12.938189432771045"><ele>1053.0</ele><time>2026-04-22T14:43:42.001Z</time></trkpt><trkpt lat="42.68219888463256" lon="12.938320916660604"><ele>1053.0</ele><time>2026-04-22T14:43:43.001Z</time></trkpt><trkpt lat="42.68219794686849" lon="12.938450279701529"><ele>1053.0</ele><time>2026-04-22T14:43:44.001Z</time></trkpt><trkpt lat="42.68222148097871" lon="12.93864373572227"><ele>1053.0</ele><time>2026-04-22T14:43:46.001Z</time></trkpt><trkpt lat="42.6822598254591" lon="12.938754618329128"><ele>1053.0</ele><time>2026-04-22T14:43:48.001Z</time></trkpt><trkpt lat="42.682393024689155" lon="12.938684525079035"><ele>1052.4</ele><time>2026-04-22T14:43:49.001Z</time></trkpt><trkpt lat="42.68245429913254" lon="12.938635848085962"><ele>1051.8</ele><time>2026-04-22T14:43:50.001Z</time></trkpt><trkpt lat="42.682555299335434" lon="12.938551339158824"><ele>1051.2</ele><time>2026-04-22T14:43:51.001Z</time></trkpt><trkpt lat="42.682660034390736" lon="12.938486136752653"><ele>1050.6</ele><time>2026-04-22T14:43:52.001Z</time></trkpt><trkpt lat="42.682772713101855" lon="12.938418597710035"><ele>1050.0</ele><time>2026-04-22T14:43:53.001Z</time></trkpt><trkpt lat="42.68289195186845" lon="12.938354737733764"><ele>1052.0</ele><time>2026-04-22T14:43:54.001Z</time></trkpt><trkpt lat="42.68302806074207" lon="12.938300287866438"><ele>1054.0</ele><time>2026-04-22T14:43:55.001Z</time></trkpt><trkpt lat="42.68317519836152" lon="12.938255927712818"><ele>1056.0</ele><time>2026-04-22T14:43:56.001Z</time></trkpt><trkpt lat="42.68332664705551" lon="12.93822696789931"><ele>1058.0</ele><time>2026-04-22T14:43:57.001Z</time></trkpt><trkpt lat="42.683484803236546" lon="12.938198880385492"><ele>1059.0</ele><time>2026-04-22T14:43:58.001Z</time></trkpt><trkpt lat="42.68364237536944" lon="12.938159255853025"><ele>1060.0</ele><time>2026-04-22T14:43:59.001Z</time></trkpt><trkpt lat="42.68380892855302" lon="12.938113848854249"><ele>1061.0</ele><time>2026-04-22T14:44:00.001Z</time></trkpt><trkpt lat="42.68397371559925" lon="12.938089461902413"><ele>1061.0</ele><time>2026-04-22T14:44:01.001Z</time></trkpt><trkpt lat="42.68413543449557" lon="12.93809178300946"><ele>1061.0</ele><time>2026-04-22T14:44:02.001Z</time></trkpt><trkpt lat="42.68428757012743" lon="12.938109069850576"><ele>1061.0</ele><time>2026-04-22T14:44:03.001Z</time></trkpt><trkpt lat="42.6844390577552" lon="12.938135672928919"><ele>1062.3333333333335</ele><time>2026-04-22T14:44:04.001Z</time></trkpt><trkpt lat="42.68458966117238" lon="12.938151978287912"><ele>1063.6666666666667</ele><time>2026-04-22T14:44:05.001Z</time></trkpt><trkpt lat="42.68472585925267" lon="12.938137420506644"><ele>1065.0</ele><time>2026-04-22T14:44:06.001Z</time></trkpt><trkpt lat="42.68496997411334" lon="12.938008649563722"><ele>1065.0</ele><time>2026-04-22T14:44:08.001Z</time></trkpt><trkpt lat="42.68507666744815" lon="12.937922038140156"><ele>1065.0</ele><time>2026-04-22T14:44:09.001Z</time></trkpt><trkpt lat="42.6851725214768" lon="12.937843121229617"><ele>1065.0</ele><time>2026-04-22T14:44:10.001Z</time></trkpt><trkpt lat="42.68524907503368" lon="12.937775385116508"><ele>1065.0</ele><time>2026-04-22T14:44:11.001Z</time></trkpt><trkpt lat="42.68532243672459" lon="12.937721252778044"><ele>1065.0</ele><time>2026-04-22T14:44:13.001Z</time></trkpt><trkpt lat="42.68535481110197" lon="12.937612894511805"><ele>1063.0</ele><time>2026-04-22T14:44:18.001Z</time></trkpt><trkpt lat="42.68539506552894" lon="12.937511770556412"><ele>1061.0</ele><time>2026-04-22T14:44:19.001Z</time></trkpt><trkpt lat="42.68544463707925" lon="12.937399661543468"><ele>1059.0</ele><time>2026-04-22T14:44:20.001Z</time></trkpt><trkpt lat="42.68550375491367" lon="12.937277186460689"><ele>1057.0</ele><time>2026-04-22T14:44:21.001Z</time></trkpt><trkpt lat="42.68557459851147" lon="12.937147298823303"><ele>1055.0</ele><time>2026-04-22T14:44:22.001Z</time></trkpt><trkpt lat="42.68566024778447" lon="12.937020355899703"><ele>1055.0</ele><time>2026-04-22T14:44:23.001Z</time></trkpt><trkpt lat="42.685766380890065" lon="12.936919095427664"><ele>1055.0</ele><time>2026-04-22T14:44:24.001Z</time></trkpt><trkpt lat="42.685887639199066" lon="12.936855187563943"><ele>1055.0</ele><time>2026-04-22T14:44:25.001Z</time></trkpt><trkpt lat="42.6860059581614" lon="12.936818992439772"><ele>1055.0</ele><time>2026-04-22T14:44:26.001Z</time></trkpt><trkpt lat="42.68609916070369" lon="12.936781143282415"><ele>1051.0</ele><time>2026-04-22T14:44:27.001Z</time></trkpt><trkpt lat="42.68618446616265" lon="12.936729678014178"><ele>1047.0</ele><time>2026-04-22T14:44:29.001Z</time></trkpt><trkpt lat="42.68625558672574" lon="12.936649481138549"><ele>1043.0</ele><time>2026-04-22T14:44:32.001Z</time></trkpt><trkpt lat="42.68650121282146" lon="12.936862092651976"><ele>1042.4</ele><time>2026-04-22T14:44:34.001Z</time></trkpt><trkpt lat="42.68661308235186" lon="12.936922212459045"><ele>1041.8</ele><time>2026-04-22T14:44:35.001Z</time></trkpt><trkpt lat="42.68671918603132" lon="12.936985300958835"><ele>1041.2</ele><time>2026-04-22T14:44:36.001Z</time></trkpt><trkpt lat="42.686804908098786" lon="12.937031615894655"><ele>1040.6</ele><time>2026-04-22T14:44:37.001Z</time></trkpt><trkpt lat="42.68689777422273" lon="12.937060148575645"><ele>1040.0</ele><time>2026-04-22T14:44:38.001Z</time></trkpt><trkpt lat="42.687000412425974" lon="12.937096285697864"><ele>1040.0</ele><time>2026-04-22T14:44:39.001Z</time></trkpt><trkpt lat="42.68709039992485" lon="12.937121291597723"><ele>1040.0</ele><time>2026-04-22T14:44:40.001Z</time></trkpt><trkpt lat="42.68717113204109" lon="12.937148373388112"><ele>1040.0</ele><time>2026-04-22T14:44:41.001Z</time></trkpt><trkpt lat="42.68724441849105" lon="12.937164757925665"><ele>1040.0</ele><time>2026-04-22T14:44:42.001Z</time></trkpt><trkpt lat="42.68731416659454" lon="12.937185844111248"><ele>1040.0</ele><time>2026-04-22T14:44:43.001Z</time></trkpt><trkpt lat="42.6874226267179" lon="12.937266567289726"><ele>1040.0</ele><time>2026-04-22T14:44:45.001Z</time></trkpt><trkpt lat="42.68748366470367" lon="12.937323027573685"><ele>1040.0</ele><time>2026-04-22T14:44:46.001Z</time></trkpt><trkpt lat="42.687543920694814" lon="12.937373356292172"><ele>1040.0</ele><time>2026-04-22T14:44:47.001Z</time></trkpt><trkpt lat="42.687615718833676" lon="12.937427669544526"><ele>1040.0</ele><time>2026-04-22T14:44:48.001Z</time></trkpt><trkpt lat="42.68768006796044" lon="12.937462525005651"><ele>1040.0</ele><time>2026-04-22T14:44:49.001Z</time></trkpt><trkpt lat="42.68778475564245" lon="12.937544233556958"><ele>1040.0</ele><time>2026-04-22T14:44:51Z</time></trkpt><trkpt lat="42.68784895954522" lon="12.937610287151953"><ele>1040.0</ele><time>2026-04-22T14:44:52Z</time></trkpt><trkpt lat="42.68792043495941" lon="12.937692310291236"><ele>1042.6666666666667</ele><time>2026-04-22T14:44:53Z</time></trkpt><trkpt lat="42.687979162419566" lon="12.937778813615996"><ele>1045.3333333333335</ele><time>2026-04-22T14:44:54Z</time></trkpt><trkpt lat="42.68803168621694" lon="12.937853743513699"><ele>1048.0</ele><time>2026-04-22T14:44:55Z</time></trkpt><trkpt lat="42.68808899969624" lon="12.937893141152257"><ele>1050.6666666666667</ele><time>2026-04-22T14:44:56Z</time></trkpt><trkpt lat="42.68815250753244" lon="12.937899280763387"><ele>1053.3333333333333</ele><time>2026-04-22T14:44:57Z</time></trkpt><trkpt lat="42.68827762944429" lon="12.937861956877653"><ele>1056.0</ele><time>2026-04-22T14:44:59Z</time></trkpt><trkpt lat="42.68836128604271" lon="12.93782493838774"><ele>1056.0</ele><time>2026-04-22T14:45:00Z</time></trkpt><trkpt lat="42.688449503284374" lon="12.937822944357258"><ele>1056.0</ele><time>2026-04-22T14:45:01Z</time></trkpt><trkpt lat="42.68854267938105" lon="12.937808305116896"><ele>1056.0</ele><time>2026-04-22T14:45:02Z</time></trkpt><trkpt lat="42.68864193196412" lon="12.937787537826521"><ele>1056.0</ele><time>2026-04-22T14:45:03Z</time></trkpt><trkpt lat="42.68873440608132" lon="12.937765189468974"><ele>1056.0</ele><time>2026-04-22T14:45:04Z</time></trkpt><trkpt lat="42.68881883692261" lon="12.93772985843519"><ele>1055.0</ele><time>2026-04-22T14:45:05Z</time></trkpt><trkpt lat="42.68891045133251" lon="12.937669140372746"><ele>1054.0</ele><time>2026-04-22T14:45:06Z</time></trkpt><trkpt lat="42.68900074815249" lon="12.93761364387657"><ele>1053.0</ele><time>2026-04-22T14:45:07Z</time></trkpt><trkpt lat="42.68908964848231" lon="12.937562119400331"><ele>1052.0</ele><time>2026-04-22T14:45:08Z</time></trkpt><trkpt lat="42.689185639815655" lon="12.937527902284712"><ele>1051.0</ele><time>2026-04-22T14:45:09Z</time></trkpt><trkpt lat="42.6892829129332" lon="12.937497220189284"><ele>1051.0</ele><time>2026-04-22T14:45:10Z</time></trkpt><trkpt lat="42.68939294422258" lon="12.937466124669793"><ele>1051.0</ele><time>2026-04-22T14:45:11Z</time></trkpt><trkpt lat="42.68950842637047" lon="12.937444795984982"><ele>1051.0</ele><time>2026-04-22T14:45:12Z</time></trkpt><trkpt lat="42.68963006631767" lon="12.93743146364077"><ele>1051.0</ele><time>2026-04-22T14:45:13Z</time></trkpt><trkpt lat="42.68975116919044" lon="12.937409299217965"><ele>1052.0</ele><time>2026-04-22T14:45:14Z</time></trkpt><trkpt lat="42.68987134606891" lon="12.937380890605331"><ele>1053.0</ele><time>2026-04-22T14:45:15Z</time></trkpt><trkpt lat="42.690000737163736" lon="12.937343310745803"><ele>1054.0</ele><time>2026-04-22T14:45:16Z</time></trkpt><trkpt lat="42.690119725158446" lon="12.937329697149934"><ele>1055.0</ele><time>2026-04-22T14:45:17Z</time></trkpt><trkpt lat="42.69024001129247" lon="12.93729898487918"><ele>1055.8</ele><time>2026-04-22T14:45:18Z</time></trkpt><trkpt lat="42.69035735983302" lon="12.937271716622801"><ele>1056.6</ele><time>2026-04-22T14:45:19Z</time></trkpt><trkpt lat="42.69046830714182" lon="12.937253629076487"><ele>1057.4</ele><time>2026-04-22T14:45:20Z</time></trkpt><trkpt lat="42.69056786516156" lon="12.937223158838297"><ele>1058.2</ele><time>2026-04-22T14:45:21Z</time></trkpt><trkpt lat="42.69067051701007" lon="12.937166925610903"><ele>1059.0</ele><time>2026-04-22T14:45:22Z</time></trkpt><trkpt lat="42.690773850359754" lon="12.937102263108361"><ele>1059.0</ele><time>2026-04-22T14:45:23Z</time></trkpt><trkpt lat="42.6908725052244" lon="12.937046776040816"><ele>1059.0</ele><time>2026-04-22T14:45:24Z</time></trkpt><trkpt lat="42.69097227097405" lon="12.936997351588374"><ele>1059.0</ele><time>2026-04-22T14:45:25Z</time></trkpt><trkpt lat="42.691077977467295" lon="12.936978181645223"><ele>1059.0</ele><time>2026-04-22T14:45:26.001Z</time></trkpt><trkpt lat="42.69117502506114" lon="12.936980746580307"><ele>1059.0</ele><time>2026-04-22T14:45:27.001Z</time></trkpt><trkpt lat="42.69125946080985" lon="12.936991656876998"><ele>1058.0</ele><time>2026-04-22T14:45:28.001Z</time></trkpt><trkpt lat="42.69135421997575" lon="12.937022154580312"><ele>1057.0</ele><time>2026-04-22T14:45:29.001Z</time></trkpt><trkpt lat="42.691457305613184" lon="12.937059113632847"><ele>1056.0</ele><time>2026-04-22T14:45:30.001Z</time></trkpt><trkpt lat="42.69156457341331" lon="12.9370944550935"><ele>1055.0</ele><time>2026-04-22T14:45:31.001Z</time></trkpt><trkpt lat="42.69168004155724" lon="12.937137832978525"><ele>1054.0</ele><time>2026-04-22T14:45:32.001Z</time></trkpt><trkpt lat="42.69179550701034" lon="12.937195925078292"><ele>1054.0</ele><time>2026-04-22T14:45:33.001Z</time></trkpt><trkpt lat="42.69190424401539" lon="12.937254744321494"><ele>1054.0</ele><time>2026-04-22T14:45:34.001Z</time></trkpt><trkpt lat="42.69199351769622" lon="12.937308199812197"><ele>1054.0</ele><time>2026-04-22T14:45:35.001Z</time></trkpt><trkpt lat="42.69207259960498" lon="12.937338972533016"><ele>1054.0</ele><time>2026-04-22T14:45:36.001Z</time></trkpt><trkpt lat="42.69214248520703" lon="12.937375369467448"><ele>1054.0</ele><time>2026-04-22T14:45:37.001Z</time></trkpt><trkpt lat="42.692235689420556" lon="12.937471510349166"><ele>1053.8333333333333</ele><time>2026-04-22T14:45:39.001Z</time></trkpt><trkpt lat="42.69227076474602" lon="12.937629956369875"><ele>1053.6666666666665</ele><time>2026-04-22T14:45:41.001Z</time></trkpt><trkpt lat="42.692287298743246" lon="12.93772964686297"><ele>1053.5</ele><time>2026-04-22T14:45:42.001Z</time></trkpt><trkpt lat="42.692299903411985" lon="12.93782871087331"><ele>1053.3333333333333</ele><time>2026-04-22T14:45:43.001Z</time></trkpt><trkpt lat="42.69230143298094" lon="12.93792592477555"><ele>1053.1666666666667</ele><time>2026-04-22T14:45:44.001Z</time></trkpt><trkpt lat="42.69231409692575" lon="12.93805834704848"><ele>1053.0</ele><time>2026-04-22T14:45:45.001Z</time></trkpt><trkpt lat="42.69231878117311" lon="12.938152305195063"><ele>1053.0</ele><time>2026-04-22T14:45:46.001Z</time></trkpt><trkpt lat="42.69229797001953" lon="12.938297511422698"><ele>1053.0</ele><time>2026-04-22T14:45:48.001Z</time></trkpt><trkpt lat="42.69235229587231" lon="12.938410071404455"><ele>1053.0</ele><time>2026-04-22T14:45:50.001Z</time></trkpt><trkpt lat="42.69243073377895" lon="12.938481399595425"><ele>1053.0</ele><time>2026-04-22T14:45:51.001Z</time></trkpt><trkpt lat="42.69250735663612" lon="12.938556599236584"><ele>1053.0</ele><time>2026-04-22T14:45:52.001Z</time></trkpt><trkpt lat="42.69256364696134" lon="12.938642664608446"><ele>1055.6</ele><time>2026-04-22T14:45:53.001Z</time></trkpt><trkpt lat="42.692629044991854" lon="12.938737184432707"><ele>1058.1999999999998</ele><time>2026-04-22T14:45:54.001Z</time></trkpt><trkpt lat="42.69269299446769" lon="12.938842754758765"><ele>1060.8</ele><time>2026-04-22T14:45:55.001Z</time></trkpt><trkpt lat="42.69275173051902" lon="12.938932411761503"><ele>1063.3999999999999</ele><time>2026-04-22T14:45:56.001Z</time></trkpt><trkpt lat="42.692818308867416" lon="12.938987943270154"><ele>1066.0</ele><time>2026-04-22T14:45:57.001Z</time></trkpt><trkpt lat="42.69290030242309" lon="12.939045654751817"><ele>1066.1666666666665</ele><time>2026-04-22T14:45:58.001Z</time></trkpt><trkpt lat="42.692969231313924" lon="12.939107424603023"><ele>1066.3333333333333</ele><time>2026-04-22T14:45:59.001Z</time></trkpt><trkpt lat="42.693029658897835" lon="12.939173417100077"><ele>1066.5</ele><time>2026-04-22T14:46:00.001Z</time></trkpt><trkpt lat="42.69313142478606" lon="12.93926325506653"><ele>1066.6666666666667</ele><time>2026-04-22T14:46:02.001Z</time></trkpt><trkpt lat="42.693197981140486" lon="12.939323809827041"><ele>1066.8333333333335</ele><time>2026-04-22T14:46:03.001Z</time></trkpt><trkpt lat="42.69326098690919" lon="12.939366506768895"><ele>1067.0</ele><time>2026-04-22T14:46:04.001Z</time></trkpt><trkpt lat="42.69334079186735" lon="12.939388920993354"><ele>1069.4</ele><time>2026-04-22T14:46:05.001Z</time></trkpt><trkpt lat="42.69342839264396" lon="12.93943418959567"><ele>1071.8000000000002</ele><time>2026-04-22T14:46:06.001Z</time></trkpt><trkpt lat="42.693513578912025" lon="12.939495111758621"><ele>1074.2</ele><time>2026-04-22T14:46:07.001Z</time></trkpt><trkpt lat="42.69358923977809" lon="12.939551108690358"><ele>1076.6000000000001</ele><time>2026-04-22T14:46:08.001Z</time></trkpt><trkpt lat="42.693656905073595" lon="12.939634488535031"><ele>1079.0</ele><time>2026-04-22T14:46:09.001Z</time></trkpt><trkpt lat="42.69372809952006" lon="12.939736094638828"><ele>1079.0</ele><time>2026-04-22T14:46:10.001Z</time></trkpt><trkpt lat="42.69380173062815" lon="12.939826321240336"><ele>1079.0</ele><time>2026-04-22T14:46:11.001Z</time></trkpt><trkpt lat="42.69386923269819" lon="12.939936863816058"><ele>1079.0</ele><time>2026-04-22T14:46:12.001Z</time></trkpt><trkpt lat="42.69392093772456" lon="12.94004037662238"><ele>1079.0</ele><time>2026-04-22T14:46:13.001Z</time></trkpt><trkpt lat="42.69398637517065" lon="12.940136826753603"><ele>1079.0</ele><time>2026-04-22T14:46:14.001Z</time></trkpt><trkpt lat="42.69406027926961" lon="12.940232145551311"><ele>1079.6666666666667</ele><time>2026-04-22T14:46:15.001Z</time></trkpt><trkpt lat="42.694119527047214" lon="12.940311904473988"><ele>1080.3333333333335</ele><time>2026-04-22T14:46:16.001Z</time></trkpt><trkpt lat="42.69417580718367" lon="12.940387174294486"><ele>1081.0</ele><time>2026-04-22T14:46:17.001Z</time></trkpt><trkpt lat="42.69422498401295" lon="12.940466365897485"><ele>1081.6666666666667</ele><time>2026-04-22T14:46:18.001Z</time></trkpt><trkpt lat="42.694258973580425" lon="12.940547045360368"><ele>1082.3333333333333</ele><time>2026-04-22T14:46:19.001Z</time></trkpt><trkpt lat="42.694282641843444" lon="12.940643577300365"><ele>1083.0</ele><time>2026-04-22T14:46:20.001Z</time></trkpt><trkpt lat="42.69429022905848" lon="12.94077656470336"><ele>1081.4</ele><time>2026-04-22T14:46:21.001Z</time></trkpt><trkpt lat="42.694285935929436" lon="12.940922746447855"><ele>1079.8</ele><time>2026-04-22T14:46:22.001Z</time></trkpt><trkpt lat="42.69428076594435" lon="12.941068452117028"><ele>1078.2</ele><time>2026-04-22T14:46:23.001Z</time></trkpt><trkpt lat="42.69427286744855" lon="12.941194934226159"><ele>1076.6</ele><time>2026-04-22T14:46:24.001Z</time></trkpt><trkpt lat="42.6942654674185" lon="12.941308175616701"><ele>1075.0</ele><time>2026-04-22T14:46:25.001Z</time></trkpt><trkpt lat="42.69425553103695" lon="12.94140570579897"><ele>1075.0</ele><time>2026-04-22T14:46:26.001Z</time></trkpt><trkpt lat="42.694229890446856" lon="12.941510652673083"><ele>1075.0</ele><time>2026-04-22T14:46:27.001Z</time></trkpt><trkpt lat="42.69419252940631" lon="12.941618419684886"><ele>1075.0</ele><time>2026-04-22T14:46:28.001Z</time></trkpt><trkpt lat="42.69414446969241" lon="12.94174222774758"><ele>1075.0</ele><time>2026-04-22T14:46:29.001Z</time></trkpt><trkpt lat="42.69410091242499" lon="12.94182862328656"><ele>1075.0</ele><time>2026-04-22T14:46:30.001Z</time></trkpt><trkpt lat="42.69406014345281" lon="12.94191580846952"><ele>1075.0</ele><time>2026-04-22T14:46:31.001Z</time></trkpt><trkpt lat="42.69400667645037" lon="12.942023918735048"><ele>1072.6</ele><time>2026-04-22T14:46:32.001Z</time></trkpt><trkpt lat="42.69394788860199" lon="12.942135304658457"><ele>1070.2</ele><time>2026-04-22T14:46:33.001Z</time></trkpt><trkpt lat="42.69388620205496" lon="12.942247307937953"><ele>1067.8</ele><time>2026-04-22T14:46:34.001Z</time></trkpt><trkpt lat="42.69383166218265" lon="12.94234730729006"><ele>1065.4</ele><time>2026-04-22T14:46:35.001Z</time></trkpt><trkpt lat="42.693773778959866" lon="12.94244547709545"><ele>1063.0</ele><time>2026-04-22T14:46:36.001Z</time></trkpt><trkpt lat="42.69372046943676" lon="12.942550834781144"><ele>1064.5</ele><time>2026-04-22T14:46:37.001Z</time></trkpt><trkpt lat="42.69368503359808" lon="12.942657514522258"><ele>1066.0</ele><time>2026-04-22T14:46:38.001Z</time></trkpt><trkpt lat="42.69365636890178" lon="12.94275837785478"><ele>1067.5</ele><time>2026-04-22T14:46:39.001Z</time></trkpt><trkpt lat="42.69362522436284" lon="12.94284467542202"><ele>1069.0</ele><time>2026-04-22T14:46:40.001Z</time></trkpt><trkpt lat="42.69359052866004" lon="12.942929034848149"><ele>1070.5</ele><time>2026-04-22T14:46:41.001Z</time></trkpt><trkpt lat="42.69355630520932" lon="12.9430209317049"><ele>1072.0</ele><time>2026-04-22T14:46:42.001Z</time></trkpt><trkpt lat="42.693524629348566" lon="12.943132378978806"><ele>1072.0</ele><time>2026-04-22T14:46:43.001Z</time></trkpt><trkpt lat="42.69349551825282" lon="12.943241867836427"><ele>1072.0</ele><time>2026-04-22T14:46:44.001Z</time></trkpt><trkpt lat="42.6934731919104" lon="12.94335067220487"><ele>1072.0</ele><time>2026-04-22T14:46:45Z</time></trkpt><trkpt lat="42.693445581858235" lon="12.943452883716885"><ele>1072.0</ele><time>2026-04-22T14:46:46Z</time></trkpt><trkpt lat="42.693426125906505" lon="12.943559045882878"><ele>1072.0</ele><time>2026-04-22T14:46:47Z</time></trkpt><trkpt lat="42.69340870803565" lon="12.943664513123942"><ele>1072.0</ele><time>2026-04-22T14:46:48Z</time></trkpt><trkpt lat="42.69340294794943" lon="12.943756982067441"><ele>1071.0</ele><time>2026-04-22T14:46:49Z</time></trkpt><trkpt lat="42.693417250810356" lon="12.943929431528103"><ele>1070.0</ele><time>2026-04-22T14:46:51Z</time></trkpt><trkpt lat="42.69343833312696" lon="12.944022497851044"><ele>1069.0</ele><time>2026-04-22T14:46:52Z</time></trkpt><trkpt lat="42.693482602294324" lon="12.944121852090607"><ele>1068.0</ele><time>2026-04-22T14:46:53Z</time></trkpt><trkpt lat="42.693551525492744" lon="12.944198281568429"><ele>1067.0</ele><time>2026-04-22T14:46:54Z</time></trkpt><trkpt lat="42.69362751455958" lon="12.94426094750674"><ele>1067.0</ele><time>2026-04-22T14:46:55Z</time></trkpt><trkpt lat="42.69371504636588" lon="12.944304598199299"><ele>1067.0</ele><time>2026-04-22T14:46:55.999Z</time></trkpt><trkpt lat="42.69381776328057" lon="12.944336193338092"><ele>1067.0</ele><time>2026-04-22T14:46:56.999Z</time></trkpt><trkpt lat="42.69391392606529" lon="12.944365002033258"><ele>1067.0</ele><time>2026-04-22T14:46:57.999Z</time></trkpt><trkpt lat="42.693998052518175" lon="12.944396168860553"><ele>1067.0</ele><time>2026-04-22T14:46:58.999Z</time></trkpt><trkpt lat="42.69407689185459" lon="12.944420999439641"><ele>1067.0</ele><time>2026-04-22T14:46:59.999Z</time></trkpt><trkpt lat="42.69416553584435" lon="12.944474029129765"><ele>1067.0</ele><time>2026-04-22T14:47:00.999Z</time></trkpt><trkpt lat="42.69424549406459" lon="12.94452919451687"><ele>1067.0</ele><time>2026-04-22T14:47:01.999Z</time></trkpt><trkpt lat="42.694314132329765" lon="12.944597134718107"><ele>1067.0</ele><time>2026-04-22T14:47:02.999Z</time></trkpt><trkpt lat="42.69436447942517" lon="12.944662453170466"><ele>1067.0</ele><time>2026-04-22T14:47:03.999Z</time></trkpt><trkpt lat="42.694424488772746" lon="12.94475759773999"><ele>1067.0</ele><time>2026-04-22T14:47:04.999Z</time></trkpt><trkpt lat="42.69445423641621" lon="12.944835685615173"><ele>1067.0</ele><time>2026-04-22T14:47:05.999Z</time></trkpt><trkpt lat="42.69444059528399" lon="12.944987695490163"><ele>1067.0</ele><time>2026-04-22T14:47:07.999Z</time></trkpt><trkpt lat="42.69439982624024" lon="12.945091787897367"><ele>1067.0</ele><time>2026-04-22T14:47:08.999Z</time></trkpt><trkpt lat="42.69435456879586" lon="12.945231664432225"><ele>1067.0</ele><time>2026-04-22T14:47:09.999Z</time></trkpt><trkpt lat="42.694324532544876" lon="12.945371470104172"><ele>1067.0</ele><time>2026-04-22T14:47:10.999Z</time></trkpt><trkpt lat="42.69430861334946" lon="12.945515348280589"><ele>1067.0</ele><time>2026-04-22T14:47:11.999Z</time></trkpt><trkpt lat="42.69429611739335" lon="12.945644280027453"><ele>1067.0</ele><time>2026-04-22T14:47:12.999Z</time></trkpt><trkpt lat="42.694281085791346" lon="12.945787460626926"><ele>1067.0</ele><time>2026-04-22T14:47:13.999Z</time></trkpt><trkpt lat="42.69425800458429" lon="12.945903533383799"><ele>1067.0</ele><time>2026-04-22T14:47:14.999Z</time></trkpt><trkpt lat="42.694206843982045" lon="12.946037045767804"><ele>1067.0</ele><time>2026-04-22T14:47:15.999Z</time></trkpt><trkpt lat="42.69416358393955" lon="12.946204461409021"><ele>1065.25</ele><time>2026-04-22T14:47:16.999Z</time></trkpt><trkpt lat="42.69411244821165" lon="12.946383495524653"><ele>1063.5</ele><time>2026-04-22T14:47:17.999Z</time></trkpt><trkpt lat="42.69406429582468" lon="12.94656930186397"><ele>1061.75</ele><time>2026-04-22T14:47:18.999Z</time></trkpt><trkpt lat="42.69403029260688" lon="12.94670913348112"><ele>1060.0</ele><time>2026-04-22T14:47:19.999Z</time></trkpt><trkpt lat="42.69398807997653" lon="12.946864331427763"><ele>1058.6</ele><time>2026-04-22T14:47:20.999Z</time></trkpt><trkpt lat="42.69394867617396" lon="12.947006661117273"><ele>1057.2</ele><time>2026-04-22T14:47:21.999Z</time></trkpt><trkpt lat="42.69391367331684" lon="12.947140417866375"><ele>1055.8</ele><time>2026-04-22T14:47:22.999Z</time></trkpt><trkpt lat="42.69388092633532" lon="12.947279582277856"><ele>1054.4</ele><time>2026-04-22T14:47:23.999Z</time></trkpt><trkpt lat="42.69384114857997" lon="12.947417881493005"><ele>1053.0</ele><time>2026-04-22T14:47:24.999Z</time></trkpt><trkpt lat="42.69379746921052" lon="12.947550611884148"><ele>1053.0</ele><time>2026-04-22T14:47:25.999Z</time></trkpt><trkpt lat="42.69376450308536" lon="12.947663673179603"><ele>1053.0</ele><time>2026-04-22T14:47:26.999Z</time></trkpt><trkpt lat="42.693740089365136" lon="12.947759920892597"><ele>1053.0</ele><time>2026-04-22T14:47:27.999Z</time></trkpt><trkpt lat="42.693710128087694" lon="12.947844141644817"><ele>1053.0</ele><time>2026-04-22T14:47:28.999Z</time></trkpt><trkpt lat="42.69368250460488" lon="12.94798644949945"><ele>1053.0</ele><time>2026-04-22T14:47:31Z</time></trkpt><trkpt lat="42.6937606009728" lon="12.948105570657019"><ele>1053.0</ele><time>2026-04-22T14:47:33Z</time></trkpt><trkpt lat="42.69382391110886" lon="12.948169999281648"><ele>1053.0</ele><time>2026-04-22T14:47:34Z</time></trkpt><trkpt lat="42.69387759443825" lon="12.948233439040978"><ele>1053.0</ele><time>2026-04-22T14:47:35Z</time></trkpt><trkpt lat="42.693956297006196" lon="12.948285286383841"><ele>1053.0</ele><time>2026-04-22T14:47:36Z</time></trkpt><trkpt lat="42.69403263411499" lon="12.94829568314235"><ele>1053.0</ele><time>2026-04-22T14:47:37Z</time></trkpt><trkpt lat="42.69410878196908" lon="12.9482774729881"><ele>1053.0</ele><time>2026-04-22T14:47:38Z</time></trkpt><trkpt lat="42.694195747659" lon="12.948208738442018"><ele>1053.0</ele><time>2026-04-22T14:47:39Z</time></trkpt><trkpt lat="42.69429767495533" lon="12.94812385629486"><ele>1053.0</ele><time>2026-04-22T14:47:40Z</time></trkpt><trkpt lat="42.694410201189804" lon="12.948056974999547"><ele>1053.0</ele><time>2026-04-22T14:47:41Z</time></trkpt><trkpt lat="42.69453329467253" lon="12.947999766879475"><ele>1053.0</ele><time>2026-04-22T14:47:42Z</time></trkpt><trkpt lat="42.69465867650566" lon="12.94793229720469"><ele>1053.0</ele><time>2026-04-22T14:47:43Z</time></trkpt><trkpt lat="42.69477286220208" lon="12.947874755218628"><ele>1053.0</ele><time>2026-04-22T14:47:44Z</time></trkpt><trkpt lat="42.694863591977295" lon="12.947822360656962"><ele>1053.0</ele><time>2026-04-22T14:47:45Z</time></trkpt><trkpt lat="42.694946005052195" lon="12.947781434510002"><ele>1053.0</ele><time>2026-04-22T14:47:46Z</time></trkpt><trkpt lat="42.69502163238924" lon="12.947743060335101"><ele>1053.0</ele><time>2026-04-22T14:47:47Z</time></trkpt><trkpt lat="42.69510669129572" lon="12.947710548798009"><ele>1053.0</ele><time>2026-04-22T14:47:48Z</time></trkpt><trkpt lat="42.69519316067374" lon="12.947696610041373"><ele>1053.0</ele><time>2026-04-22T14:47:49Z</time></trkpt><trkpt lat="42.69528484830407" lon="12.947701613630045"><ele>1053.0</ele><time>2026-04-22T14:47:50Z</time></trkpt><trkpt lat="42.69539464735282" lon="12.947756882537915"><ele>1053.0</ele><time>2026-04-22T14:47:51Z</time></trkpt><trkpt lat="42.69551068435266" lon="12.94780360308601"><ele>1053.0</ele><time>2026-04-22T14:47:52Z</time></trkpt><trkpt lat="42.695633647057555" lon="12.947859637592186"><ele>1052.25</ele><time>2026-04-22T14:47:53Z</time></trkpt><trkpt lat="42.69576465576777" lon="12.947930697727411"><ele>1051.5</ele><time>2026-04-22T14:47:54Z</time></trkpt><trkpt lat="42.69588753105862" lon="12.948001336992942"><ele>1050.75</ele><time>2026-04-22T14:47:55Z</time></trkpt><trkpt lat="42.69600515732936" lon="12.948074722089224"><ele>1050.0</ele><time>2026-04-22T14:47:56Z</time></trkpt><trkpt lat="42.696103249880125" lon="12.948131297155076"><ele>1050.5</ele><time>2026-04-22T14:47:57Z</time></trkpt><trkpt lat="42.69617145944861" lon="12.948183749357838"><ele>1051.0</ele><time>2026-04-22T14:47:58Z</time></trkpt><trkpt lat="42.6962214515538" lon="12.94831715770638"><ele>1051.5</ele><time>2026-04-22T14:48:00Z</time></trkpt><trkpt lat="42.69623434714778" lon="12.948412783792598"><ele>1052.0</ele><time>2026-04-22T14:48:01Z</time></trkpt><trkpt lat="42.69623396044001" lon="12.948538443980325"><ele>1052.5</ele><time>2026-04-22T14:48:02Z</time></trkpt><trkpt lat="42.69623452445052" lon="12.948670069726447"><ele>1053.0</ele><time>2026-04-22T14:48:03Z</time></trkpt><trkpt lat="42.6962553912149" lon="12.948773630605052"><ele>1053.0</ele><time>2026-04-22T14:48:04Z</time></trkpt><trkpt lat="42.69630992164329" lon="12.948844524314367"><ele>1053.0</ele><time>2026-04-22T14:48:05Z</time></trkpt><trkpt lat="42.69639009169582" lon="12.948883215060448"><ele>1053.0</ele><time>2026-04-22T14:48:06Z</time></trkpt><trkpt lat="42.69648813144807" lon="12.948893505113974"><ele>1053.0</ele><time>2026-04-22T14:48:07Z</time></trkpt><trkpt lat="42.69660350969653" lon="12.94889711009837"><ele>1053.0</ele><time>2026-04-22T14:48:08Z</time></trkpt><trkpt lat="42.696716212721" lon="12.948934681365445"><ele>1053.0</ele><time>2026-04-22T14:48:09Z</time></trkpt><trkpt lat="42.69682681440041" lon="12.948968634474692"><ele>1053.0</ele><time>2026-04-22T14:48:10Z</time></trkpt><trkpt lat="42.69693634915211" lon="12.948976120821824"><ele>1053.0</ele><time>2026-04-22T14:48:11Z</time></trkpt><trkpt lat="42.697048210806074" lon="12.948978534038979"><ele>1053.0</ele><time>2026-04-22T14:48:12Z</time></trkpt><trkpt lat="42.69716237225078" lon="12.94897243546655"><ele>1053.0</ele><time>2026-04-22T14:48:13Z</time></trkpt><trkpt lat="42.69728340032805" lon="12.948977342739456"><ele>1054.5</ele><time>2026-04-22T14:48:14Z</time></trkpt><trkpt lat="42.69739870149148" lon="12.948984422817485"><ele>1056.0</ele><time>2026-04-22T14:48:15Z</time></trkpt><trkpt lat="42.69750078741332" lon="12.94899181528489"><ele>1057.5</ele><time>2026-04-22T14:48:16Z</time></trkpt><trkpt lat="42.697615271811436" lon="12.948975014551666"><ele>1059.0</ele><time>2026-04-22T14:48:17Z</time></trkpt><trkpt lat="42.697747098757134" lon="12.948943734026097"><ele>1060.0</ele><time>2026-04-22T14:48:18Z</time></trkpt><trkpt lat="42.69788733779391" lon="12.948925993651264"><ele>1061.0</ele><time>2026-04-22T14:48:19Z</time></trkpt><trkpt lat="42.69802487543562" lon="12.948903239836964"><ele>1062.0</ele><time>2026-04-22T14:48:20Z</time></trkpt><trkpt lat="42.69815177288247" lon="12.948848599576444"><ele>1063.0</ele><time>2026-04-22T14:48:21Z</time></trkpt><trkpt lat="42.6982754024625" lon="12.948776739929317"><ele>1063.0</ele><time>2026-04-22T14:48:22Z</time></trkpt><trkpt lat="42.698399845370744" lon="12.948697924234938"><ele>1063.0</ele><time>2026-04-22T14:48:23Z</time></trkpt><trkpt lat="42.6985242823721" lon="12.948616341422031"><ele>1063.0</ele><time>2026-04-22T14:48:24Z</time></trkpt><trkpt lat="42.69865389946377" lon="12.948537083240124"><ele>1063.0</ele><time>2026-04-22T14:48:25Z</time></trkpt><trkpt lat="42.69879327690799" lon="12.948473532234573"><ele>1063.25</ele><time>2026-04-22T14:48:26Z</time></trkpt><trkpt lat="42.698926062066526" lon="12.948412866790537"><ele>1063.5</ele><time>2026-04-22T14:48:27Z</time></trkpt><trkpt lat="42.69905653048082" lon="12.948335826539095"><ele>1063.75</ele><time>2026-04-22T14:48:28Z</time></trkpt><trkpt lat="42.699184166742704" lon="12.948246448102058"><ele>1064.0</ele><time>2026-04-22T14:48:29Z</time></trkpt><trkpt lat="42.69931099622185" lon="12.948150842461134"><ele>1069.75</ele><time>2026-04-22T14:48:30Z</time></trkpt><trkpt lat="42.69943185072596" lon="12.948042272030849"><ele>1075.5</ele><time>2026-04-22T14:48:31Z</time></trkpt><trkpt lat="42.69954048106354" lon="12.947939428942373"><ele>1081.25</ele><time>2026-04-22T14:48:32Z</time></trkpt><trkpt lat="42.69961955724396" lon="12.947828427680689"><ele>1087.0</ele><time>2026-04-22T14:48:33Z</time></trkpt><trkpt lat="42.69969535794781" lon="12.947701173756418"><ele>1087.0</ele><time>2026-04-22T14:48:34Z</time></trkpt><trkpt lat="42.69978143104228" lon="12.947564519051031"><ele>1087.0</ele><time>2026-04-22T14:48:35Z</time></trkpt><trkpt lat="42.69987664370736" lon="12.947429485287508"><ele>1087.0</ele><time>2026-04-22T14:48:36Z</time></trkpt><trkpt lat="42.69998739825016" lon="12.94729708446903"><ele>1087.0</ele><time>2026-04-22T14:48:37Z</time></trkpt><trkpt lat="42.700093227252836" lon="12.947189299265078"><ele>1089.5</ele><time>2026-04-22T14:48:38Z</time></trkpt><trkpt lat="42.70020370141177" lon="12.947106040533289"><ele>1092.0</ele><time>2026-04-22T14:48:39Z</time></trkpt><trkpt lat="42.70031035108901" lon="12.947026799989743"><ele>1094.5</ele><time>2026-04-22T14:48:40Z</time></trkpt><trkpt lat="42.700417115562416" lon="12.946938797807183"><ele>1097.0</ele><time>2026-04-22T14:48:41Z</time></trkpt><trkpt lat="42.70050573295867" lon="12.946841039215052"><ele>1093.5</ele><time>2026-04-22T14:48:42Z</time></trkpt><trkpt lat="42.700601572559435" lon="12.946707021890141"><ele>1090.0</ele><time>2026-04-22T14:48:43Z</time></trkpt><trkpt lat="42.70070001513916" lon="12.94656247868266"><ele>1086.5</ele><time>2026-04-22T14:48:44Z</time></trkpt><trkpt lat="42.70078939618644" lon="12.946439991888493"><ele>1083.0</ele><time>2026-04-22T14:48:45Z</time></trkpt><trkpt lat="42.70087164853368" lon="12.94634174993799"><ele>1083.0</ele><time>2026-04-22T14:48:46Z</time></trkpt><trkpt lat="42.700958098606264" lon="12.946258691057082"><ele>1083.0</ele><time>2026-04-22T14:48:47Z</time></trkpt><trkpt lat="42.70105664001823" lon="12.94619271206559"><ele>1083.0</ele><time>2026-04-22T14:48:48Z</time></trkpt><trkpt lat="42.7011654445802" lon="12.94613924149374"><ele>1083.0</ele><time>2026-04-22T14:48:49Z</time></trkpt><trkpt lat="42.7012831479388" lon="12.946099732621013"><ele>1085.6</ele><time>2026-04-22T14:48:49.999Z</time></trkpt><trkpt lat="42.701400113291925" lon="12.94607654568465"><ele>1088.1999999999998</ele><time>2026-04-22T14:48:50.999Z</time></trkpt><trkpt lat="42.70150302575101" lon="12.946081250515215"><ele>1090.8</ele><time>2026-04-22T14:48:51.999Z</time></trkpt><trkpt lat="42.70160334678835" lon="12.946102814130203"><ele>1093.3999999999999</ele><time>2026-04-22T14:48:52.999Z</time></trkpt><trkpt lat="42.70169956180318" lon="12.946119491350943"><ele>1096.0</ele><time>2026-04-22T14:48:53.999Z</time></trkpt><trkpt lat="42.701809956637916" lon="12.946124865092306"><ele>1095.5</ele><time>2026-04-22T14:48:54.999Z</time></trkpt><trkpt lat="42.70192677303686" lon="12.94612287805561"><ele>1095.0</ele><time>2026-04-22T14:48:55.999Z</time></trkpt><trkpt lat="42.70205714894151" lon="12.946118794659583"><ele>1094.5</ele><time>2026-04-22T14:48:56.999Z</time></trkpt><trkpt lat="42.70219675779452" lon="12.946118717504431"><ele>1094.0</ele><time>2026-04-22T14:48:57.999Z</time></trkpt><trkpt lat="42.70233712083159" lon="12.946120417240083"><ele>1094.0</ele><time>2026-04-22T14:48:58.999Z</time></trkpt><trkpt lat="42.70246454165924" lon="12.94612379443502"><ele>1094.0</ele><time>2026-04-22T14:48:59.999Z</time></trkpt><trkpt lat="42.702576423950966" lon="12.946130297183565"><ele>1094.0</ele><time>2026-04-22T14:49:00.999Z</time></trkpt><trkpt lat="42.702676719515864" lon="12.946151094920763"><ele>1094.0</ele><time>2026-04-22T14:49:01.999Z</time></trkpt><trkpt lat="42.70278317455074" lon="12.946185876696529"><ele>1092.0</ele><time>2026-04-22T14:49:02.999Z</time></trkpt><trkpt lat="42.70288912394114" lon="12.946206625769618"><ele>1090.0</ele><time>2026-04-22T14:49:03.999Z</time></trkpt><trkpt lat="42.702975830040714" lon="12.946230127418897"><ele>1088.0</ele><time>2026-04-22T14:49:04.999Z</time></trkpt><trkpt lat="42.70303632089893" lon="12.94627289792709"><ele>1086.0</ele><time>2026-04-22T14:49:05.999Z</time></trkpt><trkpt lat="42.70307749809036" lon="12.946339011454326"><ele>1084.0</ele><time>2026-04-22T14:49:06.999Z</time></trkpt><trkpt lat="42.70311231231241" lon="12.946415763190137"><ele>1082.0</ele><time>2026-04-22T14:49:07.999Z</time></trkpt><trkpt lat="42.70319505545154" lon="12.94651305193633"><ele>1082.0</ele><time>2026-04-22T14:49:09.999Z</time></trkpt><trkpt lat="42.70330090151457" lon="12.946510181645483"><ele>1082.0</ele><time>2026-04-22T14:49:11.999Z</time></trkpt><trkpt lat="42.703390544082815" lon="12.946505358630555"><ele>1082.0</ele><time>2026-04-22T14:49:12.999Z</time></trkpt><trkpt lat="42.70346949808047" lon="12.946510053418411"><ele>1082.0</ele><time>2026-04-22T14:49:13.999Z</time></trkpt><trkpt lat="42.70356043903518" lon="12.946507275625153"><ele>1082.0</ele><time>2026-04-22T14:49:14.999Z</time></trkpt><trkpt lat="42.703647632296374" lon="12.94653046858659"><ele>1081.1666666666667</ele><time>2026-04-22T14:49:15.999Z</time></trkpt><trkpt lat="42.70372998089552" lon="12.946566589183297"><ele>1080.3333333333335</ele><time>2026-04-22T14:49:16.999Z</time></trkpt><trkpt lat="42.70380642687976" lon="12.946595575994287"><ele>1079.5</ele><time>2026-04-22T14:49:17.999Z</time></trkpt><trkpt lat="42.70388077625351" lon="12.946650569107984"><ele>1078.6666666666667</ele><time>2026-04-22T14:49:18.999Z</time></trkpt><trkpt lat="42.70395054008736" lon="12.94672777601646"><ele>1077.8333333333333</ele><time>2026-04-22T14:49:19.999Z</time></trkpt><trkpt lat="42.704021011915984" lon="12.94680038833998"><ele>1077.0</ele><time>2026-04-22T14:49:20.999Z</time></trkpt><trkpt lat="42.70409971925486" lon="12.946913965061269"><ele>1077.0</ele><time>2026-04-22T14:49:22.999Z</time></trkpt><trkpt lat="42.70413725495292" lon="12.946983556430064"><ele>1077.0</ele><time>2026-04-22T14:49:23.999Z</time></trkpt><trkpt lat="42.70417602417758" lon="12.947071909360808"><ele>1077.0</ele><time>2026-04-22T14:49:24.999Z</time></trkpt><trkpt lat="42.704223535302965" lon="12.94717852151371"><ele>1077.0</ele><time>2026-04-22T14:49:25.999Z</time></trkpt><trkpt lat="42.70429246624421" lon="12.947296878960085"><ele>1077.0</ele><time>2026-04-22T14:49:26.999Z</time></trkpt><trkpt lat="42.704374960848185" lon="12.947410437735227"><ele>1077.0</ele><time>2026-04-22T14:49:27.999Z</time></trkpt><trkpt lat="42.70445014995396" lon="12.947530536019187"><ele>1077.0</ele><time>2026-04-22T14:49:28.999Z</time></trkpt><trkpt lat="42.704524460681846" lon="12.947656951967309"><ele>1077.0</ele><time>2026-04-22T14:49:29.999Z</time></trkpt><trkpt lat="42.70461003245555" lon="12.947779674035766"><ele>1077.0</ele><time>2026-04-22T14:49:30.999Z</time></trkpt><trkpt lat="42.70467850084449" lon="12.947890543060556"><ele>1077.0</ele><time>2026-04-22T14:49:31.999Z</time></trkpt><trkpt lat="42.70471899917467" lon="12.948013100991286"><ele>1077.0</ele><time>2026-04-22T14:49:32.999Z</time></trkpt><trkpt lat="42.704745464446155" lon="12.948157990012952"><ele>1077.0</ele><time>2026-04-22T14:49:33.999Z</time></trkpt><trkpt lat="42.70477321979172" lon="12.9483076965323"><ele>1077.0</ele><time>2026-04-22T14:49:34.999Z</time></trkpt><trkpt lat="42.70481600008365" lon="12.948439348366637"><ele>1077.0</ele><time>2026-04-22T14:49:35.999Z</time></trkpt><trkpt lat="42.70487747350891" lon="12.948555103427818"><ele>1075.4</ele><time>2026-04-22T14:49:37Z</time></trkpt><trkpt lat="42.70495970252676" lon="12.948669746761638"><ele>1073.8000000000002</ele><time>2026-04-22T14:49:38Z</time></trkpt><trkpt lat="42.705027296356036" lon="12.948773957724049"><ele>1072.2</ele><time>2026-04-22T14:49:39Z</time></trkpt><trkpt lat="42.70508006956886" lon="12.94887436385564"><ele>1070.6000000000001</ele><time>2026-04-22T14:49:40Z</time></trkpt><trkpt lat="42.705130305756626" lon="12.94894966732099"><ele>1069.0</ele><time>2026-04-22T14:49:41Z</time></trkpt><trkpt lat="42.70518029868853" lon="12.949095509769766"><ele>1069.0</ele><time>2026-04-22T14:49:43Z</time></trkpt><trkpt lat="42.7051870144306" lon="12.949197203794535"><ele>1069.0</ele><time>2026-04-22T14:49:44Z</time></trkpt><trkpt lat="42.705134651179186" lon="12.94939712457387"><ele>1069.0</ele><time>2026-04-22T14:49:46Z</time></trkpt><trkpt lat="42.70509320007284" lon="12.949496909487364"><ele>1069.0</ele><time>2026-04-22T14:49:47Z</time></trkpt><trkpt lat="42.705078237898384" lon="12.949588107390484"><ele>1069.0</ele><time>2026-04-22T14:49:48Z</time></trkpt><trkpt lat="42.70508428376486" lon="12.949723753170321"><ele>1067.4</ele><time>2026-04-22T14:49:49Z</time></trkpt><trkpt lat="42.70510543825656" lon="12.949869711429516"><ele>1065.8000000000002</ele><time>2026-04-22T14:49:50Z</time></trkpt><trkpt lat="42.70513523158035" lon="12.949988959145884"><ele>1064.1999999999998</ele><time>2026-04-22T14:49:51Z</time></trkpt><trkpt lat="42.70517462823366" lon="12.950104875930215"><ele>1062.6</ele><time>2026-04-22T14:49:52Z</time></trkpt><trkpt lat="42.705213382223235" lon="12.950225067768404"><ele>1061.0</ele><time>2026-04-22T14:49:53Z</time></trkpt><trkpt lat="42.705256442951786" lon="12.950344566856506"><ele>1060.3999999999999</ele><time>2026-04-22T14:49:54Z</time></trkpt><trkpt lat="42.70527834431402" lon="12.950481711817035"><ele>1059.8</ele><time>2026-04-22T14:49:55Z</time></trkpt><trkpt lat="42.70531076392887" lon="12.950593749609043"><ele>1059.1999999999998</ele><time>2026-04-22T14:49:56Z</time></trkpt><trkpt lat="42.705368846867366" lon="12.950685594764364"><ele>1058.6</ele><time>2026-04-22T14:49:57Z</time></trkpt><trkpt lat="42.7054278698039" lon="12.950790858166895"><ele>1058.0</ele><time>2026-04-22T14:49:58Z</time></trkpt><trkpt lat="42.7054662253074" lon="12.950934575623895"><ele>1057.8</ele><time>2026-04-22T14:49:59Z</time></trkpt><trkpt lat="42.70551253515649" lon="12.95107284466379"><ele>1057.6</ele><time>2026-04-22T14:50:00Z</time></trkpt><trkpt lat="42.70559084420946" lon="12.951200734381505"><ele>1057.4</ele><time>2026-04-22T14:50:01Z</time></trkpt><trkpt lat="42.705658958050364" lon="12.951290182111787"><ele>1057.2</ele><time>2026-04-22T14:50:02Z</time></trkpt><trkpt lat="42.70571703367686" lon="12.951343891862427"><ele>1057.0</ele><time>2026-04-22T14:50:03Z</time></trkpt><trkpt lat="42.70578023175624" lon="12.951383883556321"><ele>1057.0</ele><time>2026-04-22T14:50:04Z</time></trkpt><trkpt lat="42.70585505108645" lon="12.951420670896375"><ele>1057.0</ele><time>2026-04-22T14:50:05Z</time></trkpt><trkpt lat="42.70594036395933" lon="12.951462801708578"><ele>1057.0</ele><time>2026-04-22T14:50:06Z</time></trkpt><trkpt lat="42.706028057677734" lon="12.951529992274317"><ele>1057.0</ele><time>2026-04-22T14:50:07Z</time></trkpt><trkpt lat="42.70610113372265" lon="12.951657666566943"><ele>1057.0</ele><time>2026-04-22T14:50:08Z</time></trkpt><trkpt lat="42.70619706306129" lon="12.951769574337847"><ele>1057.25</ele><time>2026-04-22T14:50:09Z</time></trkpt><trkpt lat="42.70631703186872" lon="12.951877496805407"><ele>1057.5</ele><time>2026-04-22T14:50:10Z</time></trkpt><trkpt lat="42.70644028621986" lon="12.95200247418827"><ele>1057.75</ele><time>2026-04-22T14:50:11Z</time></trkpt><trkpt lat="42.70657083514147" lon="12.95209933861309"><ele>1058.0</ele><time>2026-04-22T14:50:12Z</time></trkpt><trkpt lat="42.70668551087119" lon="12.952189779422113"><ele>1058.0</ele><time>2026-04-22T14:50:13Z</time></trkpt><trkpt lat="42.70680544740881" lon="12.952262896382885"><ele>1058.0</ele><time>2026-04-22T14:50:14Z</time></trkpt><trkpt lat="42.70690934976277" lon="12.952367190260407"><ele>1058.0</ele><time>2026-04-22T14:50:15Z</time></trkpt><trkpt lat="42.70702050827687" lon="12.952439564683205"><ele>1058.0</ele><time>2026-04-22T14:50:16Z</time></trkpt><trkpt lat="42.7071303357382" lon="12.952480928832339"><ele>1058.2</ele><time>2026-04-22T14:50:17Z</time></trkpt><trkpt lat="42.7072173190416" lon="12.95252815486573"><ele>1058.4</ele><time>2026-04-22T14:50:18Z</time></trkpt><trkpt lat="42.70731614317278" lon="12.952568813528158"><ele>1058.6000000000001</ele><time>2026-04-22T14:50:19Z</time></trkpt><trkpt lat="42.70741383082006" lon="12.952603341054202"><ele>1058.8</ele><time>2026-04-22T14:50:20Z</time></trkpt><trkpt lat="42.70752434066912" lon="12.952632521816996"><ele>1059.0</ele><time>2026-04-22T14:50:21Z</time></trkpt><trkpt lat="42.70763424687016" lon="12.952649873913705"><ele>1056.0</ele><time>2026-04-22T14:50:22Z</time></trkpt><trkpt lat="42.70775158795104" lon="12.952634074185397"><ele>1053.0</ele><time>2026-04-22T14:50:23Z</time></trkpt><trkpt lat="42.70789101859077" lon="12.952626613533328"><ele>1050.0</ele><time>2026-04-22T14:50:24Z</time></trkpt><trkpt lat="42.70803445487519" lon="12.952669840054275"><ele>1047.0</ele><time>2026-04-22T14:50:25Z</time></trkpt><trkpt lat="42.70818660324077" lon="12.9526793332566"><ele>1047.0</ele><time>2026-04-22T14:50:26Z</time></trkpt><trkpt lat="42.708335443385415" lon="12.952705837873555"><ele>1047.0</ele><time>2026-04-22T14:50:27Z</time></trkpt><trkpt lat="42.70848970788703" lon="12.952727633688863"><ele>1047.0</ele><time>2026-04-22T14:50:28Z</time></trkpt><trkpt lat="42.70863845259406" lon="12.952768194504765"><ele>1045.5</ele><time>2026-04-22T14:50:29Z</time></trkpt><trkpt lat="42.70878598059237" lon="12.95281393466346"><ele>1044.0</ele><time>2026-04-22T14:50:30Z</time></trkpt><trkpt lat="42.70891556784045" lon="12.952861391831606"><ele>1042.5</ele><time>2026-04-22T14:50:31Z</time></trkpt><trkpt lat="42.709024752997514" lon="12.95289656182619"><ele>1041.0</ele><time>2026-04-22T14:50:32Z</time></trkpt><trkpt lat="42.70913177166108" lon="12.952894812244844"><ele>1041.0</ele><time>2026-04-22T14:50:33Z</time></trkpt><trkpt lat="42.7092348759564" lon="12.952893018349075"><ele>1041.0</ele><time>2026-04-22T14:50:34Z</time></trkpt><trkpt lat="42.70934398587915" lon="12.952857301786889"><ele>1041.0</ele><time>2026-04-22T14:50:35Z</time></trkpt><trkpt lat="42.70945598900451" lon="12.952830033154305"><ele>1041.0</ele><time>2026-04-22T14:50:36Z</time></trkpt><trkpt lat="42.70955884683006" lon="12.952808347046194"><ele>1041.0</ele><time>2026-04-22T14:50:37Z</time></trkpt><trkpt lat="42.70965203695819" lon="12.952802400925851"><ele>1039.8333333333333</ele><time>2026-04-22T14:50:38Z</time></trkpt><trkpt lat="42.70972739370756" lon="12.952863424752376"><ele>1038.6666666666667</ele><time>2026-04-22T14:50:39Z</time></trkpt><trkpt lat="42.70980198722025" lon="12.952880420768803"><ele>1037.5</ele><time>2026-04-22T14:50:40Z</time></trkpt><trkpt lat="42.70987643280834" lon="12.952865223951449"><ele>1036.3333333333335</ele><time>2026-04-22T14:50:41Z</time></trkpt><trkpt lat="42.709956641322066" lon="12.952871144402922"><ele>1035.1666666666667</ele><time>2026-04-22T14:50:42Z</time></trkpt><trkpt lat="42.70999745216336" lon="12.952948297554629"><ele>1034.0</ele><time>2026-04-22T14:50:43Z</time></trkpt><trkpt lat="42.710057807400446" lon="12.95299466428928"><ele>1034.0</ele><time>2026-04-22T14:50:44Z</time></trkpt><trkpt lat="42.71011937104032" lon="12.953041959358401"><ele>1034.0</ele><time>2026-04-22T14:50:45Z</time></trkpt><trkpt lat="42.710182139066006" lon="12.953090179669495"><ele>1034.0</ele><time>2026-04-22T14:50:46Z</time></trkpt><trkpt lat="42.71028582210943" lon="12.953268199401403"><ele>1034.0</ele><time>2026-04-22T14:50:47Z</time></trkpt><trkpt lat="42.71048664696646" lon="12.95321856597447"><ele>1032.2</ele><time>2026-04-22T14:50:48Z</time></trkpt><trkpt lat="42.710594767681414" lon="12.953201859470257"><ele>1030.4</ele><time>2026-04-22T14:50:50Z</time></trkpt><trkpt lat="42.710734215311355" lon="12.953177157520393"><ele>1028.6</ele><time>2026-04-22T14:50:51Z</time></trkpt><trkpt lat="42.710840128237585" lon="12.95313586582062"><ele>1026.8</ele><time>2026-04-22T14:50:52Z</time></trkpt><trkpt lat="42.7109180229488" lon="12.953095413246563"><ele>1025.0</ele><time>2026-04-22T14:50:53Z</time></trkpt><trkpt lat="42.711002896191225" lon="12.953051336534047"><ele>1022.25</ele><time>2026-04-22T14:50:54Z</time></trkpt><trkpt lat="42.71122144569227" lon="12.952975623178165"><ele>1019.5</ele><time>2026-04-22T14:50:56Z</time></trkpt><trkpt lat="42.711301377716424" lon="12.95292631637981"><ele>1016.75</ele><time>2026-04-22T14:50:57Z</time></trkpt><trkpt lat="42.711365669706666" lon="12.952898222499561"><ele>1014.0</ele><time>2026-04-22T14:50:59Z</time></trkpt><trkpt lat="42.711458524426305" lon="12.95285064701657"><ele>1014.0</ele><time>2026-04-22T14:51:00Z</time></trkpt><trkpt lat="42.711628160024226" lon="12.952719553574417"><ele>1014.0</ele><time>2026-04-22T14:51:01Z</time></trkpt><trkpt lat="42.71177750271369" lon="12.95253470204648"><ele>1014.0</ele><time>2026-04-22T14:51:02Z</time></trkpt><trkpt lat="42.71185881560836" lon="12.9523972956054"><ele>1013.6666666666667</ele><time>2026-04-22T14:51:03Z</time></trkpt><trkpt lat="42.71189589778149" lon="12.95231035122811"><ele>1013.3333333333334</ele><time>2026-04-22T14:51:03.999Z</time></trkpt><trkpt lat="42.7119812772338" lon="12.952259388501096"><ele>1013.0</ele><time>2026-04-22T14:51:04.999Z</time></trkpt><trkpt lat="42.712209887971326" lon="12.951493703734611"><ele>1013.0000000000001</ele><time>2026-04-22T14:51:12.999Z</time></trkpt><trkpt lat="42.71217818809133" lon="12.951412567622834"><ele>1013.0</ele><time>2026-04-22T14:51:14.999Z</time></trkpt><trkpt lat="42.71214406059813" lon="12.95133975034915"><ele>1013.0</ele><time>2026-04-22T14:51:15.999Z</time></trkpt><trkpt lat="42.71213016740938" lon="12.9512069601373"><ele>1013.0</ele><time>2026-04-22T14:51:17.999Z</time></trkpt><trkpt lat="42.71214109812096" lon="12.951109125078098"><ele>1013.0000000000001</ele><time>2026-04-22T14:51:18.999Z</time></trkpt><trkpt lat="42.71214790520904" lon="12.950985974814145"><ele>1013.0</ele><time>2026-04-22T14:51:19.999Z</time></trkpt><trkpt lat="42.71214701057655" lon="12.95084674143383"><ele>1013.2857142857143</ele><time>2026-04-22T14:51:20.999Z</time></trkpt><trkpt lat="42.71214748855929" lon="12.95073767315502"><ele>1013.5714285714287</ele><time>2026-04-22T14:51:21.999Z</time></trkpt><trkpt lat="42.712164442964294" lon="12.9506526617497"><ele>1013.8571428571429</ele><time>2026-04-22T14:51:22.999Z</time></trkpt><trkpt lat="42.712202467568" lon="12.950577870107558"><ele>1014.1428571428571</ele><time>2026-04-22T14:51:23.999Z</time></trkpt><trkpt lat="42.71225943014914" lon="12.95050960982588"><ele>1014.4285714285714</ele><time>2026-04-22T14:51:24.999Z</time></trkpt><trkpt lat="42.7122918842085" lon="12.950422474682053"><ele>1014.7142857142858</ele><time>2026-04-22T14:51:25.999Z</time></trkpt><trkpt lat="42.712287874754594" lon="12.950307300161198"><ele>1015.0</ele><time>2026-04-22T14:51:26.999Z</time></trkpt><trkpt lat="42.71227342208244" lon="12.950179107234442"><ele>1015.0</ele><time>2026-04-22T14:51:27.999Z</time></trkpt><trkpt lat="42.71226642854069" lon="12.950061402791327"><ele>1015.0</ele><time>2026-04-22T14:51:28.999Z</time></trkpt><trkpt lat="42.71227980324128" lon="12.949938493590178"><ele>1015.0</ele><time>2026-04-22T14:51:29.999Z</time></trkpt><trkpt lat="42.712312833544615" lon="12.949810592963614"><ele>1015.0</ele><time>2026-04-22T14:51:30.999Z</time></trkpt><trkpt lat="42.71235887234553" lon="12.949686569438434"><ele>1015.0</ele><time>2026-04-22T14:51:31.999Z</time></trkpt><trkpt lat="42.712396594409476" lon="12.949551581139456"><ele>1014.0</ele><time>2026-04-22T14:51:32.999Z</time></trkpt><trkpt lat="42.71244651214211" lon="12.949422067136746"><ele>1013.0</ele><time>2026-04-22T14:51:33.999Z</time></trkpt><trkpt lat="42.712509250824496" lon="12.949310750756027"><ele>1012.0</ele><time>2026-04-22T14:51:34.999Z</time></trkpt><trkpt lat="42.71257818103722" lon="12.949206371565655"><ele>1011.0</ele><time>2026-04-22T14:51:35.999Z</time></trkpt><trkpt lat="42.71264308665974" lon="12.949090689340283"><ele>1010.0</ele><time>2026-04-22T14:51:36.999Z</time></trkpt><trkpt lat="42.71271248406995" lon="12.948988348298494"><ele>1010.4</ele><time>2026-04-22T14:51:37.999Z</time></trkpt><trkpt lat="42.712779604438666" lon="12.948890448386107"><ele>1010.8</ele><time>2026-04-22T14:51:38.999Z</time></trkpt><trkpt lat="42.71284889933091" lon="12.948781683512012"><ele>1011.2</ele><time>2026-04-22T14:51:39.999Z</time></trkpt><trkpt lat="42.71291893764778" lon="12.948657642372869"><ele>1011.6</ele><time>2026-04-22T14:51:40.999Z</time></trkpt><trkpt lat="42.71298943921333" lon="12.948534887752565"><ele>1012.0</ele><time>2026-04-22T14:51:41.999Z</time></trkpt><trkpt lat="42.713058801207225" lon="12.948402908185372"><ele>1009.4000000000001</ele><time>2026-04-22T14:51:43Z</time></trkpt><trkpt lat="42.713126015999144" lon="12.948272987745492"><ele>1006.8000000000001</ele><time>2026-04-22T14:51:44Z</time></trkpt><trkpt lat="42.71319160462054" lon="12.94813844927362"><ele>1004.2</ele><time>2026-04-22T14:51:45Z</time></trkpt><trkpt lat="42.71324227653606" lon="12.948015406338216"><ele>1001.6</ele><time>2026-04-22T14:51:46Z</time></trkpt><trkpt lat="42.71329969119018" lon="12.947887172489171"><ele>999.0</ele><time>2026-04-22T14:51:47Z</time></trkpt><trkpt lat="42.71336004218443" lon="12.947768223954204"><ele>999.0</ele><time>2026-04-22T14:51:48Z</time></trkpt><trkpt lat="42.71343054998684" lon="12.94766271022287"><ele>999.0000000000001</ele><time>2026-04-22T14:51:49Z</time></trkpt><trkpt lat="42.71350243347801" lon="12.947558032568041"><ele>999.0000000000001</ele><time>2026-04-22T14:51:50Z</time></trkpt><trkpt lat="42.7135773324198" lon="12.947451944513242"><ele>999.0</ele><time>2026-04-22T14:51:51Z</time></trkpt><trkpt lat="42.71365617663156" lon="12.947368018077999"><ele>999.0</ele><time>2026-04-22T14:51:52Z</time></trkpt><trkpt lat="42.713732303369326" lon="12.94729918096599"><ele>997.8333333333334</ele><time>2026-04-22T14:51:53Z</time></trkpt><trkpt lat="42.71381022029469" lon="12.947214441336005"><ele>996.6666666666667</ele><time>2026-04-22T14:51:54Z</time></trkpt><trkpt lat="42.71387420664529" lon="12.947129065138304"><ele>995.5</ele><time>2026-04-22T14:51:55Z</time></trkpt><trkpt lat="42.71393370965241" lon="12.947053160441923"><ele>994.3333333333334</ele><time>2026-04-22T14:51:56Z</time></trkpt><trkpt lat="42.71397772258756" lon="12.946982165923673"><ele>993.1666666666667</ele><time>2026-04-22T14:51:57Z</time></trkpt><trkpt lat="42.71403453169622" lon="12.946910541594852"><ele>992.0</ele><time>2026-04-22T14:51:58Z</time></trkpt><trkpt lat="42.71415542981242" lon="12.946840308977004"><ele>992.0000000000001</ele><time>2026-04-22T14:52:00Z</time></trkpt><trkpt lat="42.71422981651299" lon="12.946832621936503"><ele>992.0</ele><time>2026-04-22T14:52:01Z</time></trkpt><trkpt lat="42.71430095277026" lon="12.946845931084235"><ele>992.0</ele><time>2026-04-22T14:52:02Z</time></trkpt><trkpt lat="42.71437260579432" lon="12.946870381377185"><ele>992.0</ele><time>2026-04-22T14:52:03Z</time></trkpt><trkpt lat="42.71444565091548" lon="12.946921358615821"><ele>992.0000000000001</ele><time>2026-04-22T14:52:04Z</time></trkpt><trkpt lat="42.71451644584965" lon="12.946980802376622"><ele>992.0</ele><time>2026-04-22T14:52:05Z</time></trkpt><trkpt lat="42.71459559918621" lon="12.947042959225925"><ele>989.8</ele><time>2026-04-22T14:52:06Z</time></trkpt><trkpt lat="42.714701179269426" lon="12.94708584843283"><ele>987.6</ele><time>2026-04-22T14:52:07Z</time></trkpt><trkpt lat="42.71479266861122" lon="12.947143359225432"><ele>985.3999999999999</ele><time>2026-04-22T14:52:08Z</time></trkpt><trkpt lat="42.71487308771302" lon="12.947189399153878"><ele>983.1999999999999</ele><time>2026-04-22T14:52:09Z</time></trkpt><trkpt lat="42.7149543173692" lon="12.947239201705674"><ele>981.0</ele><time>2026-04-22T14:52:10Z</time></trkpt><trkpt lat="42.71504051693056" lon="12.947258921375"><ele>981.0</ele><time>2026-04-22T14:52:11Z</time></trkpt><trkpt lat="42.71511786180085" lon="12.947255004884845"><ele>981.0</ele><time>2026-04-22T14:52:12Z</time></trkpt><trkpt lat="42.71519243192497" lon="12.947229106959234"><ele>981.0</ele><time>2026-04-22T14:52:13Z</time></trkpt><trkpt lat="42.71522666780634" lon="12.94715231740589"><ele>981.0</ele><time>2026-04-22T14:52:14Z</time></trkpt><trkpt lat="42.715263814472344" lon="12.947053840850101"><ele>981.0</ele><time>2026-04-22T14:52:15Z</time></trkpt><trkpt lat="42.71531186458825" lon="12.946913481136963"><ele>981.0</ele><time>2026-04-22T14:52:16Z</time></trkpt><trkpt lat="42.71537709669167" lon="12.94678456519275"><ele>977.1999999999999</ele><time>2026-04-22T14:52:17Z</time></trkpt><trkpt lat="42.71545028712405" lon="12.946686607708658"><ele>973.3999999999999</ele><time>2026-04-22T14:52:18Z</time></trkpt><trkpt lat="42.71552299220534" lon="12.946599118195415"><ele>969.6</ele><time>2026-04-22T14:52:19Z</time></trkpt><trkpt lat="42.71558577880652" lon="12.946512304493886"><ele>965.8</ele><time>2026-04-22T14:52:20Z</time></trkpt><trkpt lat="42.71564545597698" lon="12.946443238701377"><ele>962.0</ele><time>2026-04-22T14:52:21Z</time></trkpt><trkpt lat="42.715717514491146" lon="12.946374334719918"><ele>962.0</ele><time>2026-04-22T14:52:22Z</time></trkpt><trkpt lat="42.715806246661266" lon="12.94630884507264"><ele>962.0</ele><time>2026-04-22T14:52:23Z</time></trkpt><trkpt lat="42.71588473668948" lon="12.946251903195726"><ele>962.0</ele><time>2026-04-22T14:52:24Z</time></trkpt><trkpt lat="42.715971519809095" lon="12.946204417978608"><ele>962.0</ele><time>2026-04-22T14:52:25Z</time></trkpt><trkpt lat="42.71606161338512" lon="12.946171219136858"><ele>962.0</ele><time>2026-04-22T14:52:26Z</time></trkpt><trkpt lat="42.71614395083355" lon="12.946144655723508"><ele>964.0</ele><time>2026-04-22T14:52:27Z</time></trkpt><trkpt lat="42.71621593511084" lon="12.946133715016753"><ele>966.0</ele><time>2026-04-22T14:52:28Z</time></trkpt><trkpt lat="42.71629546797732" lon="12.946119023238246"><ele>968.0</ele><time>2026-04-22T14:52:29Z</time></trkpt><trkpt lat="42.71641969840498" lon="12.946110210681308"><ele>970.0</ele><time>2026-04-22T14:52:30Z</time></trkpt><trkpt lat="42.716522984772226" lon="12.94609183681462"><ele>972.0</ele><time>2026-04-22T14:52:31Z</time></trkpt><trkpt lat="42.71662562811701" lon="12.946090164704357"><ele>972.0</ele><time>2026-04-22T14:52:32Z</time></trkpt><trkpt lat="42.71674509590066" lon="12.946091062428124"><ele>972.0</ele><time>2026-04-22T14:52:33Z</time></trkpt><trkpt lat="42.71686799245641" lon="12.946088671301785"><ele>972.0</ele><time>2026-04-22T14:52:34Z</time></trkpt><trkpt lat="42.71697571009707" lon="12.946074036200457"><ele>972.0</ele><time>2026-04-22T14:52:35Z</time></trkpt><trkpt lat="42.71707981104249" lon="12.946058233632689"><ele>969.8</ele><time>2026-04-22T14:52:36Z</time></trkpt><trkpt lat="42.71718044271349" lon="12.946053265372885"><ele>967.6</ele><time>2026-04-22T14:52:37Z</time></trkpt><trkpt lat="42.717289089581094" lon="12.946051695137657"><ele>965.3999999999999</ele><time>2026-04-22T14:52:38Z</time></trkpt><trkpt lat="42.717384656779245" lon="12.946046758039504"><ele>963.1999999999999</ele><time>2026-04-22T14:52:39Z</time></trkpt><trkpt lat="42.71750051530719" lon="12.946056931277713"><ele>961.0</ele><time>2026-04-22T14:52:40Z</time></trkpt><trkpt lat="42.71761940932586" lon="12.946082189225208"><ele>961.0</ele><time>2026-04-22T14:52:41Z</time></trkpt><trkpt lat="42.7177267734602" lon="12.94609847426098"><ele>960.9999999999999</ele><time>2026-04-22T14:52:42Z</time></trkpt><trkpt lat="42.717826573220066" lon="12.946124388849395"><ele>960.9999999999999</ele><time>2026-04-22T14:52:43Z</time></trkpt><trkpt lat="42.71790740036391" lon="12.946134233239077"><ele>961.0</ele><time>2026-04-22T14:52:44Z</time></trkpt><trkpt lat="42.71797963386883" lon="12.946136519750375"><ele>961.0</ele><time>2026-04-22T14:52:45Z</time></trkpt><trkpt lat="42.718066417664375" lon="12.946142050713565"><ele>958.0</ele><time>2026-04-22T14:52:46Z</time></trkpt><trkpt lat="42.718161541858834" lon="12.946160672606783"><ele>954.9999999999999</ele><time>2026-04-22T14:52:47Z</time></trkpt><trkpt lat="42.718272279933984" lon="12.946186408073007"><ele>951.9999999999999</ele><time>2026-04-22T14:52:49Z</time></trkpt><trkpt lat="42.71838531876903" lon="12.946198613116414"><ele>949.0</ele><time>2026-04-22T14:52:51Z</time></trkpt><trkpt lat="42.718442843963494" lon="12.946237101672246"><ele>946.0</ele><time>2026-04-22T14:52:52Z</time></trkpt><trkpt lat="42.71854087932802" lon="12.946319965677677"><ele>942.1666666666666</ele><time>2026-04-22T14:52:54Z</time></trkpt><trkpt lat="42.71865048561723" lon="12.946346563556647"><ele>938.3333333333333</ele><time>2026-04-22T14:52:56Z</time></trkpt><trkpt lat="42.718721633963476" lon="12.946320238527184"><ele>934.5</ele><time>2026-04-22T14:52:57Z</time></trkpt><trkpt lat="42.718790123680876" lon="12.946290394719792"><ele>930.6666666666667</ele><time>2026-04-22T14:52:58Z</time></trkpt><trkpt lat="42.718868423564416" lon="12.946274183132186"><ele>926.8333333333334</ele><time>2026-04-22T14:52:59Z</time></trkpt><trkpt lat="42.71896989365903" lon="12.946275831654361"><ele>923.0</ele><time>2026-04-22T14:53:00Z</time></trkpt><trkpt lat="42.71904951281376" lon="12.946276932356843"><ele>923.0000000000001</ele><time>2026-04-22T14:53:01Z</time></trkpt><trkpt lat="42.71914193370369" lon="12.946316304580218"><ele>923.0</ele><time>2026-04-22T14:53:02Z</time></trkpt><trkpt lat="42.71922428752124" lon="12.946330627702967"><ele>923.0</ele><time>2026-04-22T14:53:03Z</time></trkpt><trkpt lat="42.71930293981293" lon="12.946338418595468"><ele>923.0</ele><time>2026-04-22T14:53:04Z</time></trkpt><trkpt lat="42.71936692970351" lon="12.946338711581207"><ele>923.0000000000001</ele><time>2026-04-22T14:53:05Z</time></trkpt><trkpt lat="42.71944862026491" lon="12.946345881956475"><ele>923.0</ele><time>2026-04-22T14:53:06Z</time></trkpt><trkpt lat="42.719518962906456" lon="12.946365959946109"><ele>919.8333333333334</ele><time>2026-04-22T14:53:07Z</time></trkpt><trkpt lat="42.71960497880956" lon="12.946388772379814"><ele>916.6666666666667</ele><time>2026-04-22T14:53:08Z</time></trkpt><trkpt lat="42.71970207882135" lon="12.946436514771166"><ele>913.5</ele><time>2026-04-22T14:53:09Z</time></trkpt><trkpt lat="42.719790255635644" lon="12.946472846620393"><ele>910.3333333333333</ele><time>2026-04-22T14:53:10Z</time></trkpt><trkpt lat="42.7198638292606" lon="12.946485671632162"><ele>907.1666666666666</ele><time>2026-04-22T14:53:11Z</time></trkpt><trkpt lat="42.71994686651418" lon="12.946505898573479"><ele>904.0</ele><time>2026-04-22T14:53:12Z</time></trkpt><trkpt lat="42.72001729400019" lon="12.94655226816246"><ele>904.0</ele><time>2026-04-22T14:53:13Z</time></trkpt><trkpt lat="42.72012539172725" lon="12.946597510078053"><ele>904.0000000000001</ele><time>2026-04-22T14:53:14Z</time></trkpt><trkpt lat="42.7202182890959" lon="12.946646377402846"><ele>904.0000000000001</ele><time>2026-04-22T14:53:15Z</time></trkpt><trkpt lat="42.72031290397131" lon="12.94666494061458"><ele>904.0</ele><time>2026-04-22T14:53:16Z</time></trkpt><trkpt lat="42.72041619519067" lon="12.946691002564275"><ele>904.0</ele><time>2026-04-22T14:53:17Z</time></trkpt><trkpt lat="42.720510929793434" lon="12.946713471437507"><ele>908.0</ele><time>2026-04-22T14:53:18Z</time></trkpt><trkpt lat="42.720616384083314" lon="12.94674838772948"><ele>912.0000000000001</ele><time>2026-04-22T14:53:19Z</time></trkpt><trkpt lat="42.72070027235043" lon="12.946802810742554"><ele>916.0000000000001</ele><time>2026-04-22T14:53:20Z</time></trkpt><trkpt lat="42.72078056064154" lon="12.946847899090823"><ele>920.0</ele><time>2026-04-22T14:53:21Z</time></trkpt><trkpt lat="42.72086708900552" lon="12.946904437926396"><ele>924.0</ele><time>2026-04-22T14:53:22Z</time></trkpt><trkpt lat="42.720970631058705" lon="12.946931437574303"><ele>917.2</ele><time>2026-04-22T14:53:23Z</time></trkpt><trkpt lat="42.721073034442036" lon="12.94694855284602"><ele>910.4000000000001</ele><time>2026-04-22T14:53:24Z</time></trkpt><trkpt lat="42.72115535853005" lon="12.946959113635703"><ele>903.6</ele><time>2026-04-22T14:53:25Z</time></trkpt><trkpt lat="42.721231807058636" lon="12.94698605026954"><ele>896.8</ele><time>2026-04-22T14:53:26Z</time></trkpt><trkpt lat="42.72131274153305" lon="12.947021065435967"><ele>890.0</ele><time>2026-04-22T14:53:27Z</time></trkpt><trkpt lat="42.721426894963734" lon="12.94710851026296"><ele>890.0</ele><time>2026-04-22T14:53:28.999Z</time></trkpt><trkpt lat="42.7214952351513" lon="12.947181387769723"><ele>890.0</ele><time>2026-04-22T14:53:29.999Z</time></trkpt><trkpt lat="42.7215609973906" lon="12.947210670027399"><ele>890.0</ele><time>2026-04-22T14:53:30.999Z</time></trkpt><trkpt lat="42.72164799514171" lon="12.947230862131935"><ele>890.0</ele><time>2026-04-22T14:53:31.999Z</time></trkpt><trkpt lat="42.721768941854506" lon="12.947250191053632"><ele>890.0</ele><time>2026-04-22T14:53:32.999Z</time></trkpt><trkpt lat="42.72188958020623" lon="12.947265021713266"><ele>887.0</ele><time>2026-04-22T14:53:33.999Z</time></trkpt><trkpt lat="42.72199957725439" lon="12.947291909574364"><ele>884.0</ele><time>2026-04-22T14:53:34.999Z</time></trkpt><trkpt lat="42.72210096100213" lon="12.947321560666067"><ele>881.0</ele><time>2026-04-22T14:53:35.999Z</time></trkpt><trkpt lat="42.7222035995773" lon="12.947342816213423"><ele>878.0</ele><time>2026-04-22T14:53:36.999Z</time></trkpt><trkpt lat="42.7223081751145" lon="12.947371131907037"><ele>875.0</ele><time>2026-04-22T14:53:37.999Z</time></trkpt><trkpt lat="42.72242152421526" lon="12.94739173786256"><ele>875.0</ele><time>2026-04-22T14:53:38.999Z</time></trkpt><trkpt lat="42.72253486982727" lon="12.947397226959016"><ele>875.0</ele><time>2026-04-22T14:53:39.999Z</time></trkpt><trkpt lat="42.72263685207106" lon="12.94739579558984"><ele>875.0</ele><time>2026-04-22T14:53:40.999Z</time></trkpt><trkpt lat="42.72273276592107" lon="12.947399383251785"><ele>875.0</ele><time>2026-04-22T14:53:41.999Z</time></trkpt><trkpt lat="42.7228195775378" lon="12.947404801340802"><ele>875.0</ele><time>2026-04-22T14:53:42.999Z</time></trkpt><trkpt lat="42.72290545765497" lon="12.947413697227914"><ele>871.8</ele><time>2026-04-22T14:53:43.999Z</time></trkpt><trkpt lat="42.722990974693424" lon="12.94741259729891"><ele>868.6</ele><time>2026-04-22T14:53:44.999Z</time></trkpt><trkpt lat="42.72308915443113" lon="12.947404644539441"><ele>865.4000000000001</ele><time>2026-04-22T14:53:45.999Z</time></trkpt><trkpt lat="42.723185975501885" lon="12.947403557362785"><ele>862.2</ele><time>2026-04-22T14:53:46.999Z</time></trkpt><trkpt lat="42.72327657591304" lon="12.94738796825052"><ele>859.0</ele><time>2026-04-22T14:53:47.999Z</time></trkpt><trkpt lat="42.723376773335204" lon="12.947378943896087"><ele>859.0</ele><time>2026-04-22T14:53:49Z</time></trkpt><trkpt lat="42.72347979565259" lon="12.947363075396586"><ele>859.0000000000001</ele><time>2026-04-22T14:53:50Z</time></trkpt><trkpt lat="42.72357833973512" lon="12.947341807400365"><ele>859.0000000000001</ele><time>2026-04-22T14:53:51Z</time></trkpt><trkpt lat="42.72367531096897" lon="12.947323114166513"><ele>859.0</ele><time>2026-04-22T14:53:52Z</time></trkpt><trkpt lat="42.723771492479415" lon="12.947298920381975"><ele>859.0</ele><time>2026-04-22T14:53:53Z</time></trkpt><trkpt lat="42.72386379890229" lon="12.94727322162976"><ele>856.2</ele><time>2026-04-22T14:53:54Z</time></trkpt><trkpt lat="42.72395560996577" lon="12.947241467819781"><ele>853.4000000000001</ele><time>2026-04-22T14:53:55Z</time></trkpt><trkpt lat="42.72404825550076" lon="12.9472040082329"><ele>850.6</ele><time>2026-04-22T14:53:56Z</time></trkpt><trkpt lat="42.72413309868713" lon="12.94714943510736"><ele>847.8</ele><time>2026-04-22T14:53:57Z</time></trkpt><trkpt lat="42.724216559933446" lon="12.947090523640044"><ele>845.0</ele><time>2026-04-22T14:53:58Z</time></trkpt><trkpt lat="42.72428340500051" lon="12.947020000756163"><ele>845.0</ele><time>2026-04-22T14:53:59Z</time></trkpt><trkpt lat="42.7243512013941" lon="12.946978842183036"><ele>845.0</ele><time>2026-04-22T14:54:00Z</time></trkpt><trkpt lat="42.72446027353922" lon="12.946934319009605"><ele>845.0</ele><time>2026-04-22T14:54:01Z</time></trkpt><trkpt lat="42.724571418497085" lon="12.946928868749826"><ele>845.0</ele><time>2026-04-22T14:54:02Z</time></trkpt><trkpt lat="42.72467213764369" lon="12.946920834423498"><ele>845.0</ele><time>2026-04-22T14:54:03Z</time></trkpt><trkpt lat="42.724763137309736" lon="12.946895670651195"><ele>844.0000000000001</ele><time>2026-04-22T14:54:04Z</time></trkpt><trkpt lat="42.72485996631668" lon="12.94683672596178"><ele>843.0</ele><time>2026-04-22T14:54:05Z</time></trkpt><trkpt lat="42.72494746661333" lon="12.946787728111016"><ele>842.0</ele><time>2026-04-22T14:54:06Z</time></trkpt><trkpt lat="42.72504089438414" lon="12.946769812272255"><ele>841.0</ele><time>2026-04-22T14:54:07Z</time></trkpt><trkpt lat="42.72511024505527" lon="12.94675539872922"><ele>840.0000000000001</ele><time>2026-04-22T14:54:08Z</time></trkpt><trkpt lat="42.72518043867925" lon="12.946713134634368"><ele>839.0</ele><time>2026-04-22T14:54:09Z</time></trkpt><trkpt lat="42.72525030732763" lon="12.946628167880178"><ele>834.3333333333334</ele><time>2026-04-22T14:54:10Z</time></trkpt><trkpt lat="42.7253131484965" lon="12.946547652515445"><ele>829.6666666666667</ele><time>2026-04-22T14:54:11Z</time></trkpt><trkpt lat="42.72537930788411" lon="12.946490447558977"><ele>825.0</ele><time>2026-04-22T14:54:12Z</time></trkpt><trkpt lat="42.72545687299844" lon="12.946457304712624"><ele>820.3333333333333</ele><time>2026-04-22T14:54:13Z</time></trkpt><trkpt lat="42.72554733447406" lon="12.94642875367498"><ele>815.6666666666666</ele><time>2026-04-22T14:54:14Z</time></trkpt><trkpt lat="42.72563703473949" lon="12.94639491820574"><ele>811.0</ele><time>2026-04-22T14:54:15Z</time></trkpt><trkpt lat="42.725711394410936" lon="12.946351326923528"><ele>811.0</ele><time>2026-04-22T14:54:16Z</time></trkpt><trkpt lat="42.72578430008717" lon="12.94631539978398"><ele>811.0</ele><time>2026-04-22T14:54:17Z</time></trkpt><trkpt lat="42.72585277702429" lon="12.946276026564806"><ele>811.0</ele><time>2026-04-22T14:54:18Z</time></trkpt><trkpt lat="42.725935691553296" lon="12.946242458534936"><ele>811.0</ele><time>2026-04-22T14:54:19Z</time></trkpt><trkpt lat="42.726074645874874" lon="12.946158562502756"><ele>811.0</ele><time>2026-04-22T14:54:21Z</time></trkpt><trkpt lat="42.72614085059701" lon="12.946095216559959"><ele>810.8333333333333</ele><time>2026-04-22T14:54:22Z</time></trkpt><trkpt lat="42.726214170091936" lon="12.946013892392099"><ele>810.6666666666666</ele><time>2026-04-22T14:54:23Z</time></trkpt><trkpt lat="42.72627029501234" lon="12.945924552450572"><ele>810.5</ele><time>2026-04-22T14:54:24Z</time></trkpt><trkpt lat="42.72631332435323" lon="12.945817728981641"><ele>810.3333333333333</ele><time>2026-04-22T14:54:25Z</time></trkpt><trkpt lat="42.72635125191528" lon="12.945706392010129"><ele>810.1666666666666</ele><time>2026-04-22T14:54:26Z</time></trkpt><trkpt lat="42.72639831080911" lon="12.945605641190964"><ele>810.0</ele><time>2026-04-22T14:54:27Z</time></trkpt><trkpt lat="42.7264561484716" lon="12.945498233705342"><ele>806.1666666666666</ele><time>2026-04-22T14:54:28Z</time></trkpt><trkpt lat="42.726511929287476" lon="12.945396016220105"><ele>802.3333333333333</ele><time>2026-04-22T14:54:29Z</time></trkpt><trkpt lat="42.72656779319741" lon="12.945301452564406"><ele>798.5</ele><time>2026-04-22T14:54:30Z</time></trkpt><trkpt lat="42.72662032697706" lon="12.945204398154466"><ele>794.6666666666666</ele><time>2026-04-22T14:54:31Z</time></trkpt><trkpt lat="42.72666315813961" lon="12.945101301350547"><ele>790.8333333333333</ele><time>2026-04-22T14:54:32Z</time></trkpt><trkpt lat="42.726710064113576" lon="12.945001054051172"><ele>787.0</ele><time>2026-04-22T14:54:33Z</time></trkpt><trkpt lat="42.72676120606928" lon="12.944893379871896"><ele>784.4000000000001</ele><time>2026-04-22T14:54:34Z</time></trkpt><trkpt lat="42.72680396736565" lon="12.94477813774917"><ele>781.8000000000001</ele><time>2026-04-22T14:54:35Z</time></trkpt><trkpt lat="42.72682630879595" lon="12.944659526331991"><ele>779.2</ele><time>2026-04-22T14:54:36Z</time></trkpt><trkpt lat="42.72686438862592" lon="12.944533942303023"><ele>776.6</ele><time>2026-04-22T14:54:37Z</time></trkpt><trkpt lat="42.72691217145231" lon="12.944413595384693"><ele>774.0</ele><time>2026-04-22T14:54:38Z</time></trkpt><trkpt lat="42.72697555353669" lon="12.944314492034268"><ele>774.0</ele><time>2026-04-22T14:54:39Z</time></trkpt><trkpt lat="42.7270375477574" lon="12.944231817467339"><ele>774.0</ele><time>2026-04-22T14:54:40Z</time></trkpt><trkpt lat="42.72710836663645" lon="12.944147116668423"><ele>774.0</ele><time>2026-04-22T14:54:41Z</time></trkpt><trkpt lat="42.72718919300893" lon="12.944074496992027"><ele>774.0</ele><time>2026-04-22T14:54:42Z</time></trkpt><trkpt lat="42.727261662023565" lon="12.943995869342373"><ele>774.0</ele><time>2026-04-22T14:54:43Z</time></trkpt><trkpt lat="42.72732374484729" lon="12.943916875004428"><ele>771.3333333333334</ele><time>2026-04-22T14:54:44Z</time></trkpt><trkpt lat="42.72738886434321" lon="12.943832324220166"><ele>768.6666666666666</ele><time>2026-04-22T14:54:45Z</time></trkpt><trkpt lat="42.72744222165345" lon="12.943753209459835"><ele>766.0</ele><time>2026-04-22T14:54:46Z</time></trkpt><trkpt lat="42.72751095443084" lon="12.943664990904269"><ele>763.3333333333333</ele><time>2026-04-22T14:54:47Z</time></trkpt><trkpt lat="42.727568890967284" lon="12.943580421577808"><ele>760.6666666666666</ele><time>2026-04-22T14:54:48Z</time></trkpt><trkpt lat="42.72762178357928" lon="12.943492841801051"><ele>758.0</ele><time>2026-04-22T14:54:49Z</time></trkpt><trkpt lat="42.72766112966306" lon="12.94341071942143"><ele>755.1666666666666</ele><time>2026-04-22T14:54:50Z</time></trkpt><trkpt lat="42.72769737203541" lon="12.943321701797302"><ele>752.3333333333333</ele><time>2026-04-22T14:54:51Z</time></trkpt><trkpt lat="42.72773332247651" lon="12.94320963056417"><ele>749.5</ele><time>2026-04-22T14:54:53Z</time></trkpt><trkpt lat="42.72770083660299" lon="12.943085225818743"><ele>746.6666666666666</ele><time>2026-04-22T14:54:55Z</time></trkpt><trkpt lat="42.72767269097671" lon="12.942980441439738"><ele>743.8333333333334</ele><time>2026-04-22T14:54:56Z</time></trkpt><trkpt lat="42.72766589422076" lon="12.942876791589612"><ele>741.0</ele><time>2026-04-22T14:54:57Z</time></trkpt><trkpt lat="42.7276749268684" lon="12.94276222209222"><ele>741.0</ele><time>2026-04-22T14:54:58Z</time></trkpt><trkpt lat="42.727692565351845" lon="12.942678908267718"><ele>741.0</ele><time>2026-04-22T14:54:59Z</time></trkpt><trkpt lat="42.72770067163964" lon="12.94257974783739"><ele>741.0</ele><time>2026-04-22T14:55:00Z</time></trkpt><trkpt lat="42.72776293057042" lon="12.942446455789808"><ele>741.0</ele><time>2026-04-22T14:55:02Z</time></trkpt><trkpt lat="42.72780181722324" lon="12.942358732813464"><ele>741.0</ele><time>2026-04-22T14:55:03Z</time></trkpt><trkpt lat="42.727856012821654" lon="12.942310210282432"><ele>741.0</ele><time>2026-04-22T14:55:04Z</time></trkpt><trkpt lat="42.72797032156008" lon="12.9422566117359"><ele>737.0</ele><time>2026-04-22T14:55:06Z</time></trkpt><trkpt lat="42.72803276687159" lon="12.942234302187854"><ele>733.0</ele><time>2026-04-22T14:55:07Z</time></trkpt><trkpt lat="42.728106771322686" lon="12.942205266762931"><ele>729.0</ele><time>2026-04-22T14:55:08Z</time></trkpt><trkpt lat="42.72817838211756" lon="12.942183080815942"><ele>725.0</ele><time>2026-04-22T14:55:09Z</time></trkpt><trkpt lat="42.728256013477136" lon="12.942163516303589"><ele>721.0</ele><time>2026-04-22T14:55:10Z</time></trkpt><trkpt lat="42.72833670071315" lon="12.94213782389058"><ele>717.0</ele><time>2026-04-22T14:55:11Z</time></trkpt><trkpt lat="42.72842549262798" lon="12.942112466319516"><ele>717.0</ele><time>2026-04-22T14:55:12Z</time></trkpt><trkpt lat="42.72849047822872" lon="12.942107836340652"><ele>717.0</ele><time>2026-04-22T14:55:13Z</time></trkpt><trkpt lat="42.72858610752916" lon="12.942082563469807"><ele>717.0</ele><time>2026-04-22T14:55:14Z</time></trkpt><trkpt lat="42.7286836700021" lon="12.942066383901603"><ele>717.0</ele><time>2026-04-22T14:55:15Z</time></trkpt><trkpt lat="42.72876496457739" lon="12.94205212727657"><ele>717.0</ele><time>2026-04-22T14:55:16Z</time></trkpt><trkpt lat="42.72885583724495" lon="12.942066930188131"><ele>717.0</ele><time>2026-04-22T14:55:17Z</time></trkpt><trkpt lat="42.728958383567665" lon="12.942080752684578"><ele>715.4000000000001</ele><time>2026-04-22T14:55:18Z</time></trkpt><trkpt lat="42.72905702370408" lon="12.94207866838652"><ele>713.8000000000001</ele><time>2026-04-22T14:55:19Z</time></trkpt><trkpt lat="42.72914288235842" lon="12.942048346211116"><ele>712.2</ele><time>2026-04-22T14:55:20Z</time></trkpt><trkpt lat="42.729218087968654" lon="12.942009545427231"><ele>710.6</ele><time>2026-04-22T14:55:21Z</time></trkpt><trkpt lat="42.729313643972546" lon="12.941920223969971"><ele>709.0</ele><time>2026-04-22T14:55:23Z</time></trkpt><trkpt lat="42.72947544880267" lon="12.941751473414234"><ele>704.6666666666667</ele><time>2026-04-22T14:55:26Z</time></trkpt><trkpt lat="42.72954012533641" lon="12.941706436249204"><ele>700.3333333333334</ele><time>2026-04-22T14:55:27Z</time></trkpt><trkpt lat="42.729617577702" lon="12.941681864662213"><ele>696.0</ele><time>2026-04-22T14:55:28Z</time></trkpt><trkpt lat="42.72969492657812" lon="12.941687122223746"><ele>691.6666666666666</ele><time>2026-04-22T14:55:29Z</time></trkpt><trkpt lat="42.72976435341802" lon="12.941695760173136"><ele>687.3333333333333</ele><time>2026-04-22T14:55:30Z</time></trkpt><trkpt lat="42.72984173761188" lon="12.941697222057147"><ele>683.0</ele><time>2026-04-22T14:55:31Z</time></trkpt><trkpt lat="42.729951431369386" lon="12.941671339280818"><ele>683.2</ele><time>2026-04-22T14:55:33Z</time></trkpt><trkpt lat="42.73004964564974" lon="12.941737256017376"><ele>683.4</ele><time>2026-04-22T14:55:35Z</time></trkpt><trkpt lat="42.73013523991413" lon="12.941750785137673"><ele>683.6</ele><time>2026-04-22T14:55:37Z</time></trkpt><trkpt lat="42.730176552136506" lon="12.941852909765954"><ele>683.8000000000001</ele><time>2026-04-22T14:55:38Z</time></trkpt><trkpt lat="42.73023910149687" lon="12.941764165110792"><ele>684.0</ele><time>2026-04-22T14:55:41Z</time></trkpt><trkpt lat="42.7301611550232" lon="12.941754123632656"><ele>683.6666666666666</ele><time>2026-04-22T14:55:45Z</time></trkpt><trkpt lat="42.73005206817013" lon="12.941508841678598"><ele>683.3333333333333</ele><time>2026-04-22T14:55:47Z</time></trkpt><trkpt lat="42.729982647227935" lon="12.941381502269135"><ele>683.0</ele><time>2026-04-22T14:55:48Z</time></trkpt><trkpt lat="42.72991130755013" lon="12.941241851838067"><ele>683.0</ele><time>2026-04-22T14:55:49Z</time></trkpt><trkpt lat="42.72983659518083" lon="12.94110169928606"><ele>683.0</ele><time>2026-04-22T14:55:50Z</time></trkpt><trkpt lat="42.72975191283956" lon="12.940964516236013"><ele>683.0</ele><time>2026-04-22T14:55:51Z</time></trkpt><trkpt lat="42.72965300226916" lon="12.940856620556795"><ele>683.0</ele><time>2026-04-22T14:55:52Z</time></trkpt><trkpt lat="42.72955788112456" lon="12.940746490970053"><ele>681.25</ele><time>2026-04-22T14:55:53Z</time></trkpt><trkpt lat="42.729445735431526" lon="12.940675591154934"><ele>679.5</ele><time>2026-04-22T14:55:54Z</time></trkpt><trkpt lat="42.729333330976154" lon="12.940609261116435"><ele>677.75</ele><time>2026-04-22T14:55:55Z</time></trkpt><trkpt lat="42.72921724732653" lon="12.940549971505453"><ele>676.0</ele><time>2026-04-22T14:55:56Z</time></trkpt><trkpt lat="42.729104177695426" lon="12.940436015530064"><ele>676.0</ele><time>2026-04-22T14:55:57Z</time></trkpt><trkpt lat="42.728993552008546" lon="12.940305694892915"><ele>676.0</ele><time>2026-04-22T14:55:58Z</time></trkpt><trkpt lat="42.72887782824329" lon="12.940161187918651"><ele>676.0</ele><time>2026-04-22T14:55:59Z</time></trkpt><trkpt lat="42.72876020756063" lon="12.940012196504517"><ele>675.0</ele><time>2026-04-22T14:56:00Z</time></trkpt><trkpt lat="42.72863642674706" lon="12.939848500210879"><ele>674.0</ele><time>2026-04-22T14:56:01Z</time></trkpt><trkpt lat="42.728510100848396" lon="12.939686801330826"><ele>673.0</ele><time>2026-04-22T14:56:02Z</time></trkpt><trkpt lat="42.72837741973994" lon="12.939525309910904"><ele>673.0</ele><time>2026-04-22T14:56:03Z</time></trkpt><trkpt lat="42.72824032970645" lon="12.939359347234399"><ele>673.0</ele><time>2026-04-22T14:56:04Z</time></trkpt><trkpt lat="42.72810569277305" lon="12.93919734865009"><ele>673.0</ele><time>2026-04-22T14:56:05Z</time></trkpt><trkpt lat="42.727975962043864" lon="12.939040335264098"><ele>675.6666666666667</ele><time>2026-04-22T14:56:06Z</time></trkpt><trkpt lat="42.72783844759478" lon="12.938879708029289"><ele>678.3333333333334</ele><time>2026-04-22T14:56:07Z</time></trkpt><trkpt lat="42.727694934310954" lon="12.938723970025404"><ele>681.0</ele><time>2026-04-22T14:56:08Z</time></trkpt><trkpt lat="42.727551954961946" lon="12.938562784351179"><ele>681.0</ele><time>2026-04-22T14:56:09Z</time></trkpt><trkpt lat="42.7274085678299" lon="12.938393564121101"><ele>681.0</ele><time>2026-04-22T14:56:10Z</time></trkpt><trkpt lat="42.727262299560174" lon="12.938222423444648"><ele>681.0</ele><time>2026-04-22T14:56:11Z</time></trkpt><trkpt lat="42.7271116838853" lon="12.938065296887034"><ele>683.0</ele><time>2026-04-22T14:56:12Z</time></trkpt><trkpt lat="42.72696961867932" lon="12.937892090082633"><ele>685.0</ele><time>2026-04-22T14:56:13Z</time></trkpt><trkpt lat="42.72681752364491" lon="12.937739018560066"><ele>687.0</ele><time>2026-04-22T14:56:14Z</time></trkpt><trkpt lat="42.726643055128264" lon="12.937574101676113"><ele>692.3333333333334</ele><time>2026-04-22T14:56:15Z</time></trkpt><trkpt lat="42.72646936179366" lon="12.937437020975983"><ele>697.6666666666667</ele><time>2026-04-22T14:56:16Z</time></trkpt><trkpt lat="42.72629005615214" lon="12.937321685704335"><ele>703.0</ele><time>2026-04-22T14:56:17Z</time></trkpt><trkpt lat="42.72610493153977" lon="12.937228972576047"><ele>701.6666666666667</ele><time>2026-04-22T14:56:18Z</time></trkpt><trkpt lat="42.72591746791548" lon="12.937150524525613"><ele>700.3333333333334</ele><time>2026-04-22T14:56:19Z</time></trkpt><trkpt lat="42.72573086447169" lon="12.937070015948674"><ele>699.0</ele><time>2026-04-22T14:56:20Z</time></trkpt><trkpt lat="42.72555049483562" lon="12.936987416115786"><ele>699.0</ele><time>2026-04-22T14:56:21Z</time></trkpt><trkpt lat="42.72537057105683" lon="12.936908522334763"><ele>699.0</ele><time>2026-04-22T14:56:22Z</time></trkpt><trkpt lat="42.72523812177506" lon="12.93679161365979"><ele>699.0</ele><time>2026-04-22T14:56:23Z</time></trkpt><trkpt lat="42.72514782226942" lon="12.936673792204557"><ele>704.0</ele><time>2026-04-22T14:56:24Z</time></trkpt><trkpt lat="42.725051177455754" lon="12.93653119138739"><ele>709.0</ele><time>2026-04-22T14:56:25Z</time></trkpt><trkpt lat="42.72493491099407" lon="12.936395578549044"><ele>714.0</ele><time>2026-04-22T14:56:26Z</time></trkpt><trkpt lat="42.72482681742113" lon="12.936228355938029"><ele>714.0</ele><time>2026-04-22T14:56:27Z</time></trkpt><trkpt lat="42.72470552871027" lon="12.936069306624782"><ele>714.0</ele><time>2026-04-22T14:56:28Z</time></trkpt><trkpt lat="42.724572480636425" lon="12.935920373385594"><ele>714.0</ele><time>2026-04-22T14:56:29Z</time></trkpt><trkpt lat="42.724437998484014" lon="12.935769017557483"><ele>716.3333333333334</ele><time>2026-04-22T14:56:30Z</time></trkpt><trkpt lat="42.724297402997756" lon="12.93561081909094"><ele>718.6666666666667</ele><time>2026-04-22T14:56:31Z</time></trkpt><trkpt lat="42.7241599064219" lon="12.935452391432564"><ele>721.0</ele><time>2026-04-22T14:56:32Z</time></trkpt><trkpt lat="42.724026705921446" lon="12.935284029364842"><ele>721.0</ele><time>2026-04-22T14:56:33Z</time></trkpt><trkpt lat="42.72389725474014" lon="12.935104219299346"><ele>721.0</ele><time>2026-04-22T14:56:34Z</time></trkpt><trkpt lat="42.723782780980905" lon="12.93490710475855"><ele>721.0</ele><time>2026-04-22T14:56:35Z</time></trkpt><trkpt lat="42.723687068859505" lon="12.934699726883228"><ele>724.0</ele><time>2026-04-22T14:56:36Z</time></trkpt><trkpt lat="42.72361508970536" lon="12.93447891299182"><ele>727.0</ele><time>2026-04-22T14:56:37Z</time></trkpt><trkpt lat="42.72355644943488" lon="12.934244614718711"><ele>730.0</ele><time>2026-04-22T14:56:38Z</time></trkpt><trkpt lat="42.723485591874706" lon="12.934009123129915"><ele>732.0</ele><time>2026-04-22T14:56:39Z</time></trkpt><trkpt lat="42.723388123589814" lon="12.933785015768127"><ele>734.0</ele><time>2026-04-22T14:56:40Z</time></trkpt><trkpt lat="42.72327199792522" lon="12.933573992729857"><ele>736.0</ele><time>2026-04-22T14:56:41Z</time></trkpt><trkpt lat="42.72314864648685" lon="12.933374732112489"><ele>744.0</ele><time>2026-04-22T14:56:42Z</time></trkpt><trkpt lat="42.72302600051731" lon="12.933171618205618"><ele>752.0</ele><time>2026-04-22T14:56:43Z</time></trkpt><trkpt lat="42.722899998450984" lon="12.932963677889587"><ele>760.0</ele><time>2026-04-22T14:56:44Z</time></trkpt><trkpt lat="42.72276913540348" lon="12.93276208702711"><ele>758.3333333333334</ele><time>2026-04-22T14:56:45Z</time></trkpt><trkpt lat="42.72263002051296" lon="12.932576010890386"><ele>756.6666666666666</ele><time>2026-04-22T14:56:46Z</time></trkpt><trkpt lat="42.72249019472191" lon="12.932390267168362"><ele>755.0</ele><time>2026-04-22T14:56:47Z</time></trkpt><trkpt lat="42.722355701557504" lon="12.93220605115189"><ele>755.0</ele><time>2026-04-22T14:56:48Z</time></trkpt><trkpt lat="42.72224977630268" lon="12.932039533513413"><ele>755.0</ele><time>2026-04-22T14:56:49Z</time></trkpt><trkpt lat="42.72219745506497" lon="12.931867630704005"><ele>755.0</ele><time>2026-04-22T14:56:50Z</time></trkpt><trkpt lat="42.72216445647428" lon="12.931703173086222"><ele>755.0</ele><time>2026-04-22T14:56:51Z</time></trkpt><trkpt lat="42.722150171080465" lon="12.931515306706128"><ele>760.0</ele><time>2026-04-22T14:56:52Z</time></trkpt><trkpt lat="42.72217163893834" lon="12.931332244531069"><ele>765.0</ele><time>2026-04-22T14:56:53Z</time></trkpt><trkpt lat="42.722221828601334" lon="12.931155082779785"><ele>770.0</ele><time>2026-04-22T14:56:54Z</time></trkpt><trkpt lat="42.722267646170835" lon="12.930941928094244"><ele>775.0</ele><time>2026-04-22T14:56:55Z</time></trkpt><trkpt lat="42.72234458437937" lon="12.930720533103239"><ele>776.0</ele><time>2026-04-22T14:56:56Z</time></trkpt><trkpt lat="42.72241862025847" lon="12.930500753039867"><ele>777.0</ele><time>2026-04-22T14:56:57Z</time></trkpt><trkpt lat="42.72248477061793" lon="12.930264255221823"><ele>778.0</ele><time>2026-04-22T14:56:58Z</time></trkpt><trkpt lat="42.72254151088784" lon="12.930027991127126"><ele>778.0</ele><time>2026-04-22T14:56:59Z</time></trkpt><trkpt lat="42.72257376307404" lon="12.929815001590896"><ele>778.0</ele><time>2026-04-22T14:57:00Z</time></trkpt><trkpt lat="42.72258818756935" lon="12.929624665006436"><ele>778.0</ele><time>2026-04-22T14:57:01Z</time></trkpt><trkpt lat="42.722600043476085" lon="12.92946489484978"><ele>778.0</ele><time>2026-04-22T14:57:02Z</time></trkpt><trkpt lat="42.72263232619688" lon="12.929336276903664"><ele>778.0</ele><time>2026-04-22T14:57:03Z</time></trkpt><trkpt lat="42.7227068114707" lon="12.92926071901407"><ele>778.0</ele><time>2026-04-22T14:57:04Z</time></trkpt><trkpt lat="42.72277630803332" lon="12.92919254049705"><ele>778.0</ele><time>2026-04-22T14:57:05Z</time></trkpt><trkpt lat="42.72287449928213" lon="12.929249892158595"><ele>778.0</ele><time>2026-04-22T14:57:06Z</time></trkpt><trkpt lat="42.72295512491646" lon="12.929292694083028"><ele>778.0</ele><time>2026-04-22T14:57:07Z</time></trkpt><trkpt lat="42.7230092638272" lon="12.929379724544772"><ele>782.5999999999999</ele><time>2026-04-22T14:57:08Z</time></trkpt><trkpt lat="42.72301562391868" lon="12.929489563839667"><ele>787.1999999999999</ele><time>2026-04-22T14:57:09Z</time></trkpt><trkpt lat="42.722989597087256" lon="12.929593221838505"><ele>791.8</ele><time>2026-04-22T14:57:10Z</time></trkpt><trkpt lat="42.72294238816122" lon="12.929713907470306"><ele>796.4</ele><time>2026-04-22T14:57:11Z</time></trkpt><trkpt lat="42.72286822134544" lon="12.92989957261636"><ele>801.0</ele><time>2026-04-22T14:57:12Z</time></trkpt><trkpt lat="42.72279936732989" lon="12.9300603822982"><ele>803.5999999999999</ele><time>2026-04-22T14:57:13Z</time></trkpt><trkpt lat="42.72275339112797" lon="12.930215991434238"><ele>806.2</ele><time>2026-04-22T14:57:14Z</time></trkpt><trkpt lat="42.722706144343135" lon="12.93032871731294"><ele>808.8</ele><time>2026-04-22T14:57:15Z</time></trkpt><trkpt lat="42.72271314144778" lon="12.930431795596848"><ele>811.4000000000001</ele><time>2026-04-22T14:57:16Z</time></trkpt><trkpt lat="42.72278152744348" lon="12.93050689226266"><ele>814.0</ele><time>2026-04-22T14:57:17Z</time></trkpt><trkpt lat="42.722885169017374" lon="12.930513303101009"><ele>814.0</ele><time>2026-04-22T14:57:18Z</time></trkpt><trkpt lat="42.7229730574543" lon="12.930469536089824"><ele>814.0</ele><time>2026-04-22T14:57:19Z</time></trkpt><trkpt lat="42.72304961659344" lon="12.93036414286082"><ele>814.0</ele><time>2026-04-22T14:57:20Z</time></trkpt><trkpt lat="42.723115203058946" lon="12.930218571764081"><ele>814.0</ele><time>2026-04-22T14:57:21Z</time></trkpt><trkpt lat="42.72319105460945" lon="12.93006329713828"><ele>810.75</ele><time>2026-04-22T14:57:22Z</time></trkpt><trkpt lat="42.72327913654867" lon="12.929921643557678"><ele>807.5</ele><time>2026-04-22T14:57:23Z</time></trkpt><trkpt lat="42.72338399212072" lon="12.929778586692493"><ele>804.25</ele><time>2026-04-22T14:57:24Z</time></trkpt><trkpt lat="42.723497934362854" lon="12.929640543168718"><ele>801.0</ele><time>2026-04-22T14:57:25Z</time></trkpt><trkpt lat="42.723607822863436" lon="12.92950679235319"><ele>805.75</ele><time>2026-04-22T14:57:26Z</time></trkpt><trkpt lat="42.72368991809134" lon="12.929360977727008"><ele>810.5</ele><time>2026-04-22T14:57:27Z</time></trkpt><trkpt lat="42.72373881558546" lon="12.929198466715528"><ele>815.25</ele><time>2026-04-22T14:57:28Z</time></trkpt><trkpt lat="42.72375431599273" lon="12.929026681596284"><ele>820.0</ele><time>2026-04-22T14:57:29Z</time></trkpt><trkpt lat="42.723738389453025" lon="12.928857760981074"><ele>820.0</ele><time>2026-04-22T14:57:30Z</time></trkpt><trkpt lat="42.72369231398686" lon="12.928693628330826"><ele>820.0</ele><time>2026-04-22T14:57:31Z</time></trkpt><trkpt lat="42.723515389315125" lon="12.928386196123165"><ele>820.0</ele><time>2026-04-22T14:57:33Z</time></trkpt><trkpt lat="42.72339780449591" lon="12.928227538371038"><ele>817.0</ele><time>2026-04-22T14:57:34Z</time></trkpt><trkpt lat="42.7232868243582" lon="12.928061519595468"><ele>814.0</ele><time>2026-04-22T14:57:35Z</time></trkpt><trkpt lat="42.72317997923519" lon="12.927877725236009"><ele>811.0</ele><time>2026-04-22T14:57:36Z</time></trkpt><trkpt lat="42.72307728604405" lon="12.927670320957757"><ele>818.6666666666666</ele><time>2026-04-22T14:57:37Z</time></trkpt><trkpt lat="42.72297582445294" lon="12.927460647310292"><ele>826.3333333333333</ele><time>2026-04-22T14:57:38Z</time></trkpt><trkpt lat="42.72287356657162" lon="12.927232747225181"><ele>834.0</ele><time>2026-04-22T14:57:39Z</time></trkpt><trkpt lat="42.72276834279334" lon="12.927003972584878"><ele>831.6666666666667</ele><time>2026-04-22T14:57:40Z</time></trkpt><trkpt lat="42.722654320334" lon="12.926775675037439"><ele>829.3333333333334</ele><time>2026-04-22T14:57:41Z</time></trkpt><trkpt lat="42.72253964093572" lon="12.926564870368896"><ele>827.0</ele><time>2026-04-22T14:57:42Z</time></trkpt><trkpt lat="42.722426084709284" lon="12.926385376900706"><ele>827.0</ele><time>2026-04-22T14:57:43Z</time></trkpt><trkpt lat="42.72230872055746" lon="12.926247896422293"><ele>827.0</ele><time>2026-04-22T14:57:44Z</time></trkpt><trkpt lat="42.722210148458466" lon="12.926131702862342"><ele>827.0</ele><time>2026-04-22T14:57:45Z</time></trkpt><trkpt lat="42.72211454631884" lon="12.926043433203763"><ele>827.0</ele><time>2026-04-22T14:57:46Z</time></trkpt><trkpt lat="42.72204481968606" lon="12.925977893586133"><ele>827.0000000000001</ele><time>2026-04-22T14:57:46.999Z</time></trkpt><trkpt lat="42.72197540557323" lon="12.925910100991434"><ele>827.0</ele><time>2026-04-22T14:57:48.999Z</time></trkpt><trkpt lat="42.72205669627117" lon="12.925861720355558"><ele>827.0</ele><time>2026-04-22T14:57:51.999Z</time></trkpt><trkpt lat="42.72210553835139" lon="12.925930396390369"><ele>827.0</ele><time>2026-04-22T14:57:52.999Z</time></trkpt><trkpt lat="42.72218423009751" lon="12.925984987156177"><ele>827.0000000000001</ele><time>2026-04-22T14:57:53.999Z</time></trkpt><trkpt lat="42.72226008436506" lon="12.9260475447326"><ele>827.0</ele><time>2026-04-22T14:57:54.999Z</time></trkpt><trkpt lat="42.722352278887755" lon="12.92612680920599"><ele>827.0</ele><time>2026-04-22T14:57:55.999Z</time></trkpt><trkpt lat="42.72245242982617" lon="12.926218138221136"><ele>827.0</ele><time>2026-04-22T14:57:56.999Z</time></trkpt><trkpt lat="42.722556346258436" lon="12.926326327991903"><ele>827.0</ele><time>2026-04-22T14:57:57.999Z</time></trkpt><trkpt lat="42.72265741347613" lon="12.926443175916816"><ele>827.0</ele><time>2026-04-22T14:57:58.999Z</time></trkpt><trkpt lat="42.72276221601099" lon="12.926573933884647"><ele>829.3333333333334</ele><time>2026-04-22T14:58:00Z</time></trkpt><trkpt lat="42.722878344286364" lon="12.926708560732841"><ele>831.6666666666667</ele><time>2026-04-22T14:58:01Z</time></trkpt><trkpt lat="42.722997145734666" lon="12.926835907842486"><ele>834.0</ele><time>2026-04-22T14:58:02Z</time></trkpt><trkpt lat="42.72312059779192" lon="12.926954329990677"><ele>834.0</ele><time>2026-04-22T14:58:03Z</time></trkpt><trkpt lat="42.723250876362066" lon="12.927039449652876"><ele>834.0</ele><time>2026-04-22T14:58:04Z</time></trkpt><trkpt lat="42.72339758794871" lon="12.92707126478005"><ele>834.0</ele><time>2026-04-22T14:58:05Z</time></trkpt><trkpt lat="42.72354472527103" lon="12.9271143073406"><ele>834.0</ele><time>2026-04-22T14:58:06Z</time></trkpt><trkpt lat="42.72368365392677" lon="12.927174665220008"><ele>834.25</ele><time>2026-04-22T14:58:07Z</time></trkpt><trkpt lat="42.723791998786574" lon="12.927290081867667"><ele>834.5</ele><time>2026-04-22T14:58:08Z</time></trkpt><trkpt lat="42.72388044033708" lon="12.927422564390312"><ele>834.75</ele><time>2026-04-22T14:58:09Z</time></trkpt><trkpt lat="42.723955207592454" lon="12.927572963112912"><ele>835.0</ele><time>2026-04-22T14:58:10Z</time></trkpt><trkpt lat="42.72405013730077" lon="12.927706919587575"><ele>835.0</ele><time>2026-04-22T14:58:11Z</time></trkpt><trkpt lat="42.72418032053408" lon="12.927777657644969"><ele>835.0</ele><time>2026-04-22T14:58:12Z</time></trkpt><trkpt lat="42.724312154405595" lon="12.927834786697229"><ele>835.0</ele><time>2026-04-22T14:58:13Z</time></trkpt><trkpt lat="42.7244580073649" lon="12.92785181515815"><ele>835.0</ele><time>2026-04-22T14:58:14Z</time></trkpt><trkpt lat="42.72461019295614" lon="12.927878956591591"><ele>844.25</ele><time>2026-04-22T14:58:15Z</time></trkpt><trkpt lat="42.724759394321254" lon="12.927893667532539"><ele>853.5</ele><time>2026-04-22T14:58:16Z</time></trkpt><trkpt lat="42.72489456563542" lon="12.927942721576082"><ele>862.75</ele><time>2026-04-22T14:58:17Z</time></trkpt><trkpt lat="42.72500381448743" lon="12.928026692891144"><ele>872.0</ele><time>2026-04-22T14:58:18Z</time></trkpt><trkpt lat="42.72509040109961" lon="12.928150461255862"><ele>872.0</ele><time>2026-04-22T14:58:19Z</time></trkpt><trkpt lat="42.7251759883829" lon="12.928305769548757"><ele>872.0</ele><time>2026-04-22T14:58:20Z</time></trkpt><trkpt lat="42.725254034135205" lon="12.928483037206934"><ele>872.0</ele><time>2026-04-22T14:58:21Z</time></trkpt><trkpt lat="42.72532024357265" lon="12.92868194002767"><ele>874.6666666666667</ele><time>2026-04-22T14:58:22Z</time></trkpt><trkpt lat="42.72536341315373" lon="12.928897105525326"><ele>877.3333333333333</ele><time>2026-04-22T14:58:23Z</time></trkpt><trkpt lat="42.725407847602625" lon="12.929111785220284"><ele>880.0</ele><time>2026-04-22T14:58:24Z</time></trkpt><trkpt lat="42.7254654958128" lon="12.929286117450307"><ele>880.0</ele><time>2026-04-22T14:58:25Z</time></trkpt><trkpt lat="42.725548483632764" lon="12.929425490851049"><ele>880.0</ele><time>2026-04-22T14:58:26Z</time></trkpt><trkpt lat="42.725670605646215" lon="12.92951484316704"><ele>880.0</ele><time>2026-04-22T14:58:27Z</time></trkpt><trkpt lat="42.72580292020241" lon="12.929610822415224"><ele>880.0</ele><time>2026-04-22T14:58:28Z</time></trkpt><trkpt lat="42.72594964472049" lon="12.929708508267524"><ele>883.0</ele><time>2026-04-22T14:58:29Z</time></trkpt><trkpt lat="42.726096053304886" lon="12.929820565523276"><ele>886.0</ele><time>2026-04-22T14:58:30Z</time></trkpt><trkpt lat="42.72625223175875" lon="12.929943688714411"><ele>889.0</ele><time>2026-04-22T14:58:31Z</time></trkpt><trkpt lat="42.72640014760433" lon="12.930095667145604"><ele>890.0</ele><time>2026-04-22T14:58:32Z</time></trkpt><trkpt lat="42.726543440982994" lon="12.930206762901694"><ele>891.0</ele><time>2026-04-22T14:58:33Z</time></trkpt><trkpt lat="42.726680070081024" lon="12.93026996251611"><ele>892.0</ele><time>2026-04-22T14:58:34Z</time></trkpt><trkpt lat="42.726810655474466" lon="12.930329981735438"><ele>893.0</ele><time>2026-04-22T14:58:35Z</time></trkpt><trkpt lat="42.72695165834136" lon="12.930357660380615"><ele>895.0</ele><time>2026-04-22T14:58:36Z</time></trkpt><trkpt lat="42.727101349691424" lon="12.930361833376086"><ele>897.0</ele><time>2026-04-22T14:58:37Z</time></trkpt><trkpt lat="42.72724789521388" lon="12.930352628528825"><ele>899.0</ele><time>2026-04-22T14:58:38Z</time></trkpt><trkpt lat="42.727388011444646" lon="12.930342716913707"><ele>901.0</ele><time>2026-04-22T14:58:39Z</time></trkpt><trkpt lat="42.72752140688034" lon="12.930334449818282"><ele>901.0</ele><time>2026-04-22T14:58:40Z</time></trkpt><trkpt lat="42.727646179293224" lon="12.930335859818257"><ele>900.9999999999999</ele><time>2026-04-22T14:58:41Z</time></trkpt><trkpt lat="42.727741739039224" lon="12.930344536753205"><ele>900.9999999999999</ele><time>2026-04-22T14:58:42Z</time></trkpt><trkpt lat="42.7278067676806" lon="12.930364059529614"><ele>901.0</ele><time>2026-04-22T14:58:43Z</time></trkpt><trkpt lat="42.727898312738816" lon="12.930384951538793"><ele>901.0</ele><time>2026-04-22T14:58:45Z</time></trkpt><trkpt lat="42.72797853971929" lon="12.930149482632803"><ele>897.5</ele><time>2026-04-22T14:58:46Z</time></trkpt><trkpt lat="42.72805068715169" lon="12.93002659136697"><ele>894.0</ele><time>2026-04-22T14:58:47Z</time></trkpt><trkpt lat="42.72813582801235" lon="12.929889478409983"><ele>890.5</ele><time>2026-04-22T14:58:48Z</time></trkpt><trkpt lat="42.7282342095898" lon="12.929757753589747"><ele>887.0</ele><time>2026-04-22T14:58:49Z</time></trkpt><trkpt lat="42.72835128178962" lon="12.92964500626727"><ele>887.0</ele><time>2026-04-22T14:58:50Z</time></trkpt><trkpt lat="42.72848532975627" lon="12.929568622631253"><ele>887.0</ele><time>2026-04-22T14:58:51Z</time></trkpt><trkpt lat="42.72863393945684" lon="12.929565672341084"><ele>887.0</ele><time>2026-04-22T14:58:52Z</time></trkpt><trkpt lat="42.7287855054743" lon="12.929564000590474"><ele>887.0</ele><time>2026-04-22T14:58:53Z</time></trkpt><trkpt lat="42.72894061972387" lon="12.929569827549013"><ele>885.3333333333334</ele><time>2026-04-22T14:58:54Z</time></trkpt><trkpt lat="42.729101512985125" lon="12.929552043097242"><ele>883.6666666666667</ele><time>2026-04-22T14:58:55Z</time></trkpt><trkpt lat="42.72925708758665" lon="12.929559014160736"><ele>882.0</ele><time>2026-04-22T14:58:56Z</time></trkpt><trkpt lat="42.72941125080658" lon="12.92955731852609"><ele>881.25</ele><time>2026-04-22T14:58:57Z</time></trkpt><trkpt lat="42.729554194214046" lon="12.929539672817688"><ele>880.5</ele><time>2026-04-22T14:58:58Z</time></trkpt><trkpt lat="42.72968147621941" lon="12.929490684689616"><ele>879.75</ele><time>2026-04-22T14:58:59Z</time></trkpt><trkpt lat="42.72981020470161" lon="12.929394694364134"><ele>879.0</ele><time>2026-04-22T14:59:00Z</time></trkpt><trkpt lat="42.72994319859731" lon="12.929276760873911"><ele>883.0</ele><time>2026-04-22T14:59:01Z</time></trkpt><trkpt lat="42.73008126883662" lon="12.929170562501378"><ele>887.0</ele><time>2026-04-22T14:59:02Z</time></trkpt><trkpt lat="42.73021509379176" lon="12.929105946110885"><ele>891.0</ele><time>2026-04-22T14:59:03Z</time></trkpt><trkpt lat="42.730346434737456" lon="12.929094677874124"><ele>895.0</ele><time>2026-04-22T14:59:04Z</time></trkpt><trkpt lat="42.73047217777859" lon="12.929172549176569"><ele>889.3333333333333</ele><time>2026-04-22T14:59:05Z</time></trkpt><trkpt lat="42.73061553023922" lon="12.929237907786302"><ele>883.6666666666667</ele><time>2026-04-22T14:59:06Z</time></trkpt><trkpt lat="42.73076125495993" lon="12.929308293867065"><ele>878.0</ele><time>2026-04-22T14:59:07Z</time></trkpt><trkpt lat="42.730911973260234" lon="12.929390358768467"><ele>878.0</ele><time>2026-04-22T14:59:08Z</time></trkpt><trkpt lat="42.73104925140638" lon="12.929443457935921"><ele>878.0</ele><time>2026-04-22T14:59:09Z</time></trkpt><trkpt lat="42.731174983142736" lon="12.929455897011527"><ele>878.0</ele><time>2026-04-22T14:59:10Z</time></trkpt><trkpt lat="42.73128285882084" lon="12.929439280420201"><ele>878.0</ele><time>2026-04-22T14:59:11Z</time></trkpt><trkpt lat="42.731380233349235" lon="12.929381995957058"><ele>876.25</ele><time>2026-04-22T14:59:12Z</time></trkpt><trkpt lat="42.731472592545664" lon="12.929283423821486"><ele>874.5</ele><time>2026-04-22T14:59:13Z</time></trkpt><trkpt lat="42.731571371320165" lon="12.929150072858265"><ele>872.75</ele><time>2026-04-22T14:59:14Z</time></trkpt><trkpt lat="42.7316801803856" lon="12.92899495396584"><ele>871.0</ele><time>2026-04-22T14:59:15Z</time></trkpt><trkpt lat="42.731794378615234" lon="12.928846640148246"><ele>869.5</ele><time>2026-04-22T14:59:16Z</time></trkpt><trkpt lat="42.73190500754227" lon="12.928709440829838"><ele>868.0</ele><time>2026-04-22T14:59:17Z</time></trkpt><trkpt lat="42.73201523517658" lon="12.92858849563651"><ele>866.5</ele><time>2026-04-22T14:59:18Z</time></trkpt><trkpt lat="42.732107436656634" lon="12.928468615374316"><ele>865.0</ele><time>2026-04-22T14:59:19Z</time></trkpt><trkpt lat="42.7321762723235" lon="12.928311863591805"><ele>870.6666666666666</ele><time>2026-04-22T14:59:20Z</time></trkpt><trkpt lat="42.73222189942437" lon="12.92811116607018"><ele>876.3333333333333</ele><time>2026-04-22T14:59:21Z</time></trkpt><trkpt lat="42.732274378721314" lon="12.927909613560358"><ele>882.0</ele><time>2026-04-22T14:59:22Z</time></trkpt><trkpt lat="42.73234790787051" lon="12.92774073581748"><ele>882.0</ele><time>2026-04-22T14:59:23Z</time></trkpt><trkpt lat="42.73243596855137" lon="12.92762570436905"><ele>882.0</ele><time>2026-04-22T14:59:24Z</time></trkpt><trkpt lat="42.73252877109706" lon="12.927551697021936"><ele>882.0</ele><time>2026-04-22T14:59:25Z</time></trkpt><trkpt lat="42.73262460895141" lon="12.927502589739449"><ele>882.0</ele><time>2026-04-22T14:59:26Z</time></trkpt><trkpt lat="42.73271854851568" lon="12.92747929659563"><ele>882.0</ele><time>2026-04-22T14:59:27Z</time></trkpt><trkpt lat="42.7328122368238" lon="12.927503244599936"><ele>883.75</ele><time>2026-04-22T14:59:28Z</time></trkpt><trkpt lat="42.73290503668667" lon="12.92757446270408"><ele>885.5</ele><time>2026-04-22T14:59:29Z</time></trkpt><trkpt lat="42.732961940053634" lon="12.927720180624126"><ele>887.25</ele><time>2026-04-22T14:59:30Z</time></trkpt><trkpt lat="42.73303761223044" lon="12.927869831963806"><ele>889.0</ele><time>2026-04-22T14:59:31Z</time></trkpt><trkpt lat="42.733140344589074" lon="12.927973469385911"><ele>889.0</ele><time>2026-04-22T14:59:32Z</time></trkpt><trkpt lat="42.733241601936506" lon="12.928050530423608"><ele>889.0</ele><time>2026-04-22T14:59:33Z</time></trkpt><trkpt lat="42.73336002058587" lon="12.928108649938995"><ele>889.0</ele><time>2026-04-22T14:59:34Z</time></trkpt><trkpt lat="42.73348483915601" lon="12.928180597270227"><ele>889.0</ele><time>2026-04-22T14:59:35Z</time></trkpt><trkpt lat="42.73360287383855" lon="12.928274489606581"><ele>888.75</ele><time>2026-04-22T14:59:36Z</time></trkpt><trkpt lat="42.733697014794885" lon="12.928401052108882"><ele>888.5</ele><time>2026-04-22T14:59:37Z</time></trkpt><trkpt lat="42.73374928538022" lon="12.928567431669705"><ele>888.25</ele><time>2026-04-22T14:59:38Z</time></trkpt><trkpt lat="42.73378329444287" lon="12.928736289188217"><ele>888.0</ele><time>2026-04-22T14:59:39Z</time></trkpt><trkpt lat="42.73379512784734" lon="12.928908190188485"><ele>888.0</ele><time>2026-04-22T14:59:40Z</time></trkpt><trkpt lat="42.73380505570826" lon="12.929077505682791"><ele>888.0</ele><time>2026-04-22T14:59:41Z</time></trkpt><trkpt lat="42.73382571030639" lon="12.929218584973372"><ele>888.0</ele><time>2026-04-22T14:59:42Z</time></trkpt><trkpt lat="42.733887088640785" lon="12.929326079129048"><ele>888.0</ele><time>2026-04-22T14:59:43Z</time></trkpt><trkpt lat="42.73395950345788" lon="12.929413510252292"><ele>888.0</ele><time>2026-04-22T14:59:44Z</time></trkpt><trkpt lat="42.73405168337612" lon="12.929474198868908"><ele>888.0</ele><time>2026-04-22T14:59:45Z</time></trkpt><trkpt lat="42.73413638600534" lon="12.929483108340701"><ele>888.0</ele><time>2026-04-22T14:59:46Z</time></trkpt><trkpt lat="42.734211257717945" lon="12.929443698807868"><ele>888.0</ele><time>2026-04-22T14:59:47Z</time></trkpt><trkpt lat="42.734276196473594" lon="12.929356415411236"><ele>888.0</ele><time>2026-04-22T14:59:48Z</time></trkpt><trkpt lat="42.73432729971824" lon="12.929221375184907"><ele>888.0</ele><time>2026-04-22T14:59:49Z</time></trkpt><trkpt lat="42.73436738042284" lon="12.929059384053222"><ele>885.5</ele><time>2026-04-22T14:59:50Z</time></trkpt><trkpt lat="42.7344186882918" lon="12.928893401625247"><ele>883.0</ele><time>2026-04-22T14:59:51Z</time></trkpt><trkpt lat="42.73448609136365" lon="12.928732247208137"><ele>880.5</ele><time>2026-04-22T14:59:52Z</time></trkpt><trkpt lat="42.73456395971622" lon="12.928568564184854"><ele>878.0</ele><time>2026-04-22T14:59:53Z</time></trkpt><trkpt lat="42.73465030570342" lon="12.928418889699516"><ele>883.2</ele><time>2026-04-22T14:59:54Z</time></trkpt><trkpt lat="42.73473992650874" lon="12.928308948155445"><ele>888.4</ele><time>2026-04-22T14:59:55Z</time></trkpt><trkpt lat="42.734831833959696" lon="12.928248047220722"><ele>893.6000000000001</ele><time>2026-04-22T14:59:56Z</time></trkpt><trkpt lat="42.734927639025976" lon="12.928239237460962"><ele>898.8000000000001</ele><time>2026-04-22T14:59:57Z</time></trkpt><trkpt lat="42.735036607939676" lon="12.928267890365492"><ele>904.0</ele><time>2026-04-22T14:59:58Z</time></trkpt><trkpt lat="42.73515490136148" lon="12.928331245865756"><ele>900.25</ele><time>2026-04-22T14:59:59Z</time></trkpt><trkpt lat="42.73526678759072" lon="12.92845471079923"><ele>896.5</ele><time>2026-04-22T15:00:00Z</time></trkpt><trkpt lat="42.73539746949643" lon="12.928565070410473"><ele>892.75</ele><time>2026-04-22T15:00:01Z</time></trkpt><trkpt lat="42.73552676826429" lon="12.928666050478745"><ele>889.0</ele><time>2026-04-22T15:00:02Z</time></trkpt><trkpt lat="42.73565213727995" lon="12.928769766443532"><ele>889.0</ele><time>2026-04-22T15:00:03Z</time></trkpt><trkpt lat="42.73577185110045" lon="12.928856620008256"><ele>889.0000000000001</ele><time>2026-04-22T15:00:04Z</time></trkpt><trkpt lat="42.73587287367388" lon="12.92890762843788"><ele>889.0000000000001</ele><time>2026-04-22T15:00:05Z</time></trkpt><trkpt lat="42.73595647194628" lon="12.928888684177018"><ele>889.0</ele><time>2026-04-22T15:00:06Z</time></trkpt><trkpt lat="42.73601435152076" lon="12.928849185538896"><ele>889.0</ele><time>2026-04-22T15:00:07Z</time></trkpt><trkpt lat="42.7360502395043" lon="12.928768889782909"><ele>887.5</ele><time>2026-04-22T15:00:08Z</time></trkpt><trkpt lat="42.73606822533717" lon="12.92865046464401"><ele>886.0</ele><time>2026-04-22T15:00:09Z</time></trkpt><trkpt lat="42.73609354769685" lon="12.928499186712594"><ele>884.5</ele><time>2026-04-22T15:00:10Z</time></trkpt><trkpt lat="42.73613948090463" lon="12.928328187829297"><ele>883.0</ele><time>2026-04-22T15:00:11Z</time></trkpt><trkpt lat="42.73619765831767" lon="12.928161855093418"><ele>883.3333333333333</ele><time>2026-04-22T15:00:12Z</time></trkpt><trkpt lat="42.736259055736085" lon="12.927975789993631"><ele>883.6666666666667</ele><time>2026-04-22T15:00:13Z</time></trkpt><trkpt lat="42.73631677069881" lon="12.92777266974826"><ele>884.0</ele><time>2026-04-22T15:00:14Z</time></trkpt><trkpt lat="42.736353934408356" lon="12.927552855609433"><ele>884.0</ele><time>2026-04-22T15:00:15Z</time></trkpt><trkpt lat="42.73637504504474" lon="12.927324865387769"><ele>884.0</ele><time>2026-04-22T15:00:16Z</time></trkpt><trkpt lat="42.736381438776306" lon="12.927087968665742"><ele>884.0</ele><time>2026-04-22T15:00:17Z</time></trkpt><trkpt lat="42.73638258261676" lon="12.926845041738826"><ele>887.0</ele><time>2026-04-22T15:00:18Z</time></trkpt><trkpt lat="42.7364209839605" lon="12.926613349011452"><ele>890.0</ele><time>2026-04-22T15:00:19Z</time></trkpt><trkpt lat="42.7364421430282" lon="12.926366064022508"><ele>893.0</ele><time>2026-04-22T15:00:20Z</time></trkpt><trkpt lat="42.73648303701725" lon="12.926148434783965"><ele>893.0</ele><time>2026-04-22T15:00:21Z</time></trkpt><trkpt lat="42.7365391152631" lon="12.925954551049914"><ele>893.0</ele><time>2026-04-22T15:00:22Z</time></trkpt><trkpt lat="42.73660370379478" lon="12.9257858913719"><ele>893.0</ele><time>2026-04-22T15:00:23Z</time></trkpt><trkpt lat="42.73664878749408" lon="12.92565863907215"><ele>893.0</ele><time>2026-04-22T15:00:24Z</time></trkpt><trkpt lat="42.73665441554289" lon="12.92553205926224"><ele>892.25</ele><time>2026-04-22T15:00:25Z</time></trkpt><trkpt lat="42.736614627015896" lon="12.925394830076653"><ele>891.5</ele><time>2026-04-22T15:00:26Z</time></trkpt><trkpt lat="42.736548628012315" lon="12.92525360697841"><ele>890.75</ele><time>2026-04-22T15:00:27Z</time></trkpt><trkpt lat="42.73646458785274" lon="12.9251224644305"><ele>890.0</ele><time>2026-04-22T15:00:28Z</time></trkpt><trkpt lat="42.73637598296204" lon="12.924966995362743"><ele>890.0</ele><time>2026-04-22T15:00:29Z</time></trkpt><trkpt lat="42.73627145445449" lon="12.924794665504095"><ele>890.0</ele><time>2026-04-22T15:00:30Z</time></trkpt><trkpt lat="42.736131941383945" lon="12.924636487126147"><ele>890.0</ele><time>2026-04-22T15:00:31Z</time></trkpt><trkpt lat="42.736006785636945" lon="12.924530803960577"><ele>897.25</ele><time>2026-04-22T15:00:32Z</time></trkpt><trkpt lat="42.735918552865904" lon="12.924425549475773"><ele>904.5</ele><time>2026-04-22T15:00:33Z</time></trkpt><trkpt lat="42.73584911305609" lon="12.924310473368159"><ele>911.75</ele><time>2026-04-22T15:00:34Z</time></trkpt><trkpt lat="42.73580855143793" lon="12.92416420363903"><ele>919.0</ele><time>2026-04-22T15:00:35Z</time></trkpt><trkpt lat="42.73580957087555" lon="12.923992595762961"><ele>919.0</ele><time>2026-04-22T15:00:36Z</time></trkpt><trkpt lat="42.735803621416004" lon="12.923843271017494"><ele>919.0000000000001</ele><time>2026-04-22T15:00:37Z</time></trkpt><trkpt lat="42.73579740630661" lon="12.923714174534094"><ele>919.0000000000001</ele><time>2026-04-22T15:00:38Z</time></trkpt><trkpt lat="42.735736809870254" lon="12.923596208327336"><ele>919.0</ele><time>2026-04-22T15:00:39Z</time></trkpt><trkpt lat="42.73563918441729" lon="12.923488929912834"><ele>919.0</ele><time>2026-04-22T15:00:40Z</time></trkpt><trkpt lat="42.73553136931503" lon="12.923363845200692"><ele>928.6666666666666</ele><time>2026-04-22T15:00:41Z</time></trkpt><trkpt lat="42.73541710653691" lon="12.923228143729752"><ele>938.3333333333333</ele><time>2026-04-22T15:00:42Z</time></trkpt><trkpt lat="42.735297198093605" lon="12.923085567561106"><ele>948.0</ele><time>2026-04-22T15:00:43Z</time></trkpt><trkpt lat="42.73518466280088" lon="12.92292558720488"><ele>948.0</ele><time>2026-04-22T15:00:44Z</time></trkpt><trkpt lat="42.73507695694919" lon="12.922751673629989"><ele>948.0</ele><time>2026-04-22T15:00:45Z</time></trkpt><trkpt lat="42.73496789769731" lon="12.922574367740534"><ele>948.0</ele><time>2026-04-22T15:00:46Z</time></trkpt><trkpt lat="42.73485518536751" lon="12.922394322550575"><ele>935.3333333333333</ele><time>2026-04-22T15:00:47Z</time></trkpt><trkpt lat="42.734735108006404" lon="12.922223588129823"><ele>922.6666666666666</ele><time>2026-04-22T15:00:48Z</time></trkpt><trkpt lat="42.73461069145475" lon="12.922053910583438"><ele>910.0</ele><time>2026-04-22T15:00:49Z</time></trkpt><trkpt lat="42.73448715001504" lon="12.921889723893148"><ele>916.5</ele><time>2026-04-22T15:00:50Z</time></trkpt><trkpt lat="42.73436867275255" lon="12.921745830149534"><ele>923.0</ele><time>2026-04-22T15:00:51Z</time></trkpt><trkpt lat="42.73426684203395" lon="12.921608272205187"><ele>929.5</ele><time>2026-04-22T15:00:52Z</time></trkpt><trkpt lat="42.7341978659022" lon="12.921461743009809"><ele>936.0</ele><time>2026-04-22T15:00:53Z</time></trkpt><trkpt lat="42.73414337478597" lon="12.921289126658849"><ele>936.0</ele><time>2026-04-22T15:00:54Z</time></trkpt><trkpt lat="42.73409347701122" lon="12.921118947948784"><ele>936.0</ele><time>2026-04-22T15:00:55Z</time></trkpt><trkpt lat="42.73405810708977" lon="12.92097222453449"><ele>936.0</ele><time>2026-04-22T15:00:56Z</time></trkpt><trkpt lat="42.7340301915703" lon="12.920833907389255"><ele>936.0</ele><time>2026-04-22T15:00:57Z</time></trkpt><trkpt lat="42.734043136705566" lon="12.920671930342676"><ele>932.0</ele><time>2026-04-22T15:00:58Z</time></trkpt><trkpt lat="42.734079426304085" lon="12.920501439804756"><ele>928.0</ele><time>2026-04-22T15:00:59Z</time></trkpt><trkpt lat="42.73410862033145" lon="12.920340418489616"><ele>924.0</ele><time>2026-04-22T15:01:00Z</time></trkpt><trkpt lat="42.73411010896457" lon="12.920186315213426"><ele>920.0</ele><time>2026-04-22T15:01:01Z</time></trkpt><trkpt lat="42.73408113510253" lon="12.920023897161373"><ele>915.0</ele><time>2026-04-22T15:01:02Z</time></trkpt><trkpt lat="42.734024721272256" lon="12.919836210545261"><ele>910.0</ele><time>2026-04-22T15:01:03Z</time></trkpt><trkpt lat="42.73400778056544" lon="12.919627590849203"><ele>905.0</ele><time>2026-04-22T15:01:04Z</time></trkpt><trkpt lat="42.73397127106132" lon="12.919414123859188"><ele>904.0</ele><time>2026-04-22T15:01:05Z</time></trkpt><trkpt lat="42.73392120409471" lon="12.919194621642445"><ele>903.0</ele><time>2026-04-22T15:01:06Z</time></trkpt><trkpt lat="42.733862327225395" lon="12.918983406698894"><ele>902.0</ele><time>2026-04-22T15:01:07Z</time></trkpt><trkpt lat="42.733794691128296" lon="12.918780195942734"><ele>902.0</ele><time>2026-04-22T15:01:08Z</time></trkpt><trkpt lat="42.733711412020206" lon="12.918580988282702"><ele>902.0</ele><time>2026-04-22T15:01:09Z</time></trkpt><trkpt lat="42.733617103923095" lon="12.91839831889295"><ele>902.0</ele><time>2026-04-22T15:01:10Z</time></trkpt><trkpt lat="42.73352777067965" lon="12.918231899236156"><ele>912.5</ele><time>2026-04-22T15:01:11Z</time></trkpt><trkpt lat="42.73343840686333" lon="12.91809271671164"><ele>923.0</ele><time>2026-04-22T15:01:12Z</time></trkpt><trkpt lat="42.733374200491326" lon="12.917954073374242"><ele>933.5</ele><time>2026-04-22T15:01:13Z</time></trkpt><trkpt lat="42.73333116136342" lon="12.917810667626766"><ele>944.0</ele><time>2026-04-22T15:01:14Z</time></trkpt><trkpt lat="42.73332272378965" lon="12.917659618231438"><ele>941.0</ele><time>2026-04-22T15:01:15Z</time></trkpt><trkpt lat="42.733313840684275" lon="12.917497807675186"><ele>938.0</ele><time>2026-04-22T15:01:16Z</time></trkpt><trkpt lat="42.733277463471154" lon="12.917336534363178"><ele>935.0</ele><time>2026-04-22T15:01:17Z</time></trkpt><trkpt lat="42.73326021472533" lon="12.917187317716442"><ele>932.0</ele><time>2026-04-22T15:01:18Z</time></trkpt><trkpt lat="42.73322883739872" lon="12.917060567730323"><ele>932.0</ele><time>2026-04-22T15:01:19Z</time></trkpt><trkpt lat="42.733229116351175" lon="12.916942241731933"><ele>932.0</ele><time>2026-04-22T15:01:20Z</time></trkpt><trkpt lat="42.73325446753502" lon="12.916844398026454"><ele>932.0</ele><time>2026-04-22T15:01:21Z</time></trkpt><trkpt lat="42.733288335210766" lon="12.91676585916679"><ele>932.0</ele><time>2026-04-22T15:01:22Z</time></trkpt><trkpt lat="42.73333440897897" lon="12.916706162565278"><ele>932.0</ele><time>2026-04-22T15:01:23Z</time></trkpt><trkpt lat="42.73339596598237" lon="12.916687887827244"><ele>932.0</ele><time>2026-04-22T15:01:24Z</time></trkpt><trkpt lat="42.73347493650099" lon="12.916705596982888"><ele>932.0</ele><time>2026-04-22T15:01:25Z</time></trkpt><trkpt lat="42.73355367047171" lon="12.916756511613874"><ele>932.5</ele><time>2026-04-22T15:01:26Z</time></trkpt><trkpt lat="42.73363223639328" lon="12.916837495881992"><ele>933.0</ele><time>2026-04-22T15:01:27Z</time></trkpt><trkpt lat="42.73371324803828" lon="12.916947170893883"><ele>933.5</ele><time>2026-04-22T15:01:28Z</time></trkpt><trkpt lat="42.733801470735244" lon="12.917066892178278"><ele>934.0</ele><time>2026-04-22T15:01:29Z</time></trkpt><trkpt lat="42.73389607448876" lon="12.917185745308778"><ele>934.0</ele><time>2026-04-22T15:01:30Z</time></trkpt><trkpt lat="42.73398751364649" lon="12.917305614330106"><ele>934.0</ele><time>2026-04-22T15:01:31Z</time></trkpt><trkpt lat="42.73407070591541" lon="12.917442792739829"><ele>934.0</ele><time>2026-04-22T15:01:32Z</time></trkpt><trkpt lat="42.73416668348496" lon="12.917569918217653"><ele>934.0</ele><time>2026-04-22T15:01:33Z</time></trkpt><trkpt lat="42.73428701448266" lon="12.917674832694189"><ele>937.5</ele><time>2026-04-22T15:01:34Z</time></trkpt><trkpt lat="42.73441147108879" lon="12.917769468480385"><ele>941.0</ele><time>2026-04-22T15:01:35Z</time></trkpt><trkpt lat="42.73453792785552" lon="12.9178339040735"><ele>944.5</ele><time>2026-04-22T15:01:36Z</time></trkpt><trkpt lat="42.73465288127741" lon="12.917880483817118"><ele>948.0</ele><time>2026-04-22T15:01:37Z</time></trkpt><trkpt lat="42.73474717445887" lon="12.917959657046982"><ele>948.0</ele><time>2026-04-22T15:01:38Z</time></trkpt><trkpt lat="42.73479069014843" lon="12.91815929238348"><ele>948.0</ele><time>2026-04-22T15:01:39Z</time></trkpt><trkpt lat="42.73488729244205" lon="12.918251537306055"><ele>948.0</ele><time>2026-04-22T15:01:40Z</time></trkpt><trkpt lat="42.7349885518779" lon="12.918397842269375"><ele>948.0</ele><time>2026-04-22T15:01:41Z</time></trkpt><trkpt lat="42.73508613681147" lon="12.918565142957284"><ele>954.0</ele><time>2026-04-22T15:01:42Z</time></trkpt><trkpt lat="42.73519517766281" lon="12.918718514410138"><ele>960.0</ele><time>2026-04-22T15:01:43Z</time></trkpt><trkpt lat="42.73532109289639" lon="12.918846901489323"><ele>966.0</ele><time>2026-04-22T15:01:44Z</time></trkpt><trkpt lat="42.73545801487601" lon="12.918959715831795"><ele>966.0</ele><time>2026-04-22T15:01:45Z</time></trkpt><trkpt lat="42.73557735497367" lon="12.919103841027184"><ele>966.0</ele><time>2026-04-22T15:01:46Z</time></trkpt><trkpt lat="42.73566794642785" lon="12.919280319987871"><ele>966.0</ele><time>2026-04-22T15:01:47Z</time></trkpt><trkpt lat="42.73576968303795" lon="12.91942228003486"><ele>963.25</ele><time>2026-04-22T15:01:48Z</time></trkpt><trkpt lat="42.7358884890497" lon="12.919503901325193"><ele>960.5</ele><time>2026-04-22T15:01:49Z</time></trkpt><trkpt lat="42.7360121784004" lon="12.91957459148171"><ele>957.75</ele><time>2026-04-22T15:01:50Z</time></trkpt><trkpt lat="42.73615915196414" lon="12.919622921713078"><ele>955.0</ele><time>2026-04-22T15:01:51Z</time></trkpt><trkpt lat="42.73631636700666" lon="12.91966629751032"><ele>955.0</ele><time>2026-04-22T15:01:52Z</time></trkpt><trkpt lat="42.736479743463136" lon="12.919709516710585"><ele>955.0</ele><time>2026-04-22T15:01:53Z</time></trkpt><trkpt lat="42.73663402785315" lon="12.919744038047167"><ele>955.0</ele><time>2026-04-22T15:01:54Z</time></trkpt><trkpt lat="42.73677317470801" lon="12.919766893635137"><ele>955.75</ele><time>2026-04-22T15:01:55Z</time></trkpt><trkpt lat="42.736913951814785" lon="12.91976946776351"><ele>956.5</ele><time>2026-04-22T15:01:56Z</time></trkpt><trkpt lat="42.73705675825437" lon="12.919737746436764"><ele>957.25</ele><time>2026-04-22T15:01:57Z</time></trkpt><trkpt lat="42.73720570897105" lon="12.919670795447182"><ele>958.0</ele><time>2026-04-22T15:01:58Z</time></trkpt><trkpt lat="42.73736069056978" lon="12.919598569112784"><ele>958.0</ele><time>2026-04-22T15:01:59Z</time></trkpt><trkpt lat="42.73752700223211" lon="12.919560040212918"><ele>958.0</ele><time>2026-04-22T15:02:00Z</time></trkpt><trkpt lat="42.7376875010851" lon="12.919532023364217"><ele>958.0</ele><time>2026-04-22T15:02:01Z</time></trkpt><trkpt lat="42.73783831103169" lon="12.919481700274348"><ele>961.75</ele><time>2026-04-22T15:02:02Z</time></trkpt><trkpt lat="42.73798177292574" lon="12.919416178345541"><ele>965.5</ele><time>2026-04-22T15:02:03Z</time></trkpt><trkpt lat="42.73810778029771" lon="12.91933452419435"><ele>969.25</ele><time>2026-04-22T15:02:04Z</time></trkpt><trkpt lat="42.73821658150162" lon="12.919280100492887"><ele>973.0</ele><time>2026-04-22T15:02:05Z</time></trkpt><trkpt lat="42.73831279169611" lon="12.919277932439936"><ele>973.0</ele><time>2026-04-22T15:02:06Z</time></trkpt><trkpt lat="42.738379187309484" lon="12.919362624564808"><ele>973.0</ele><time>2026-04-22T15:02:07Z</time></trkpt><trkpt lat="42.738410014964636" lon="12.919479615139595"><ele>973.0</ele><time>2026-04-22T15:02:08Z</time></trkpt><trkpt lat="42.738453022276616" lon="12.919608223236143"><ele>973.0</ele><time>2026-04-22T15:02:09Z</time></trkpt><trkpt lat="42.73850459674875" lon="12.91977016004609"><ele>973.0</ele><time>2026-04-22T15:02:10Z</time></trkpt><trkpt lat="42.738580683236094" lon="12.919927982188534"><ele>971.6666666666666</ele><time>2026-04-22T15:02:11Z</time></trkpt><trkpt lat="42.73870077748267" lon="12.920032669105892"><ele>970.3333333333333</ele><time>2026-04-22T15:02:12Z</time></trkpt><trkpt lat="42.738835394825536" lon="12.920135240666035"><ele>969.0</ele><time>2026-04-22T15:02:13Z</time></trkpt><trkpt lat="42.73899085483436" lon="12.920212896845255"><ele>969.0</ele><time>2026-04-22T15:02:14Z</time></trkpt><trkpt lat="42.73915680081028" lon="12.92027031805848"><ele>969.0</ele><time>2026-04-22T15:02:15Z</time></trkpt><trkpt lat="42.73932471741525" lon="12.920320234310251"><ele>969.0</ele><time>2026-04-22T15:02:16Z</time></trkpt><trkpt lat="42.73949570491699" lon="12.920376037310024"><ele>977.6666666666667</ele><time>2026-04-22T15:02:17Z</time></trkpt><trkpt lat="42.739673128334175" lon="12.920452331657753"><ele>986.3333333333334</ele><time>2026-04-22T15:02:18Z</time></trkpt><trkpt lat="42.73984228729777" lon="12.920564991073029"><ele>995.0</ele><time>2026-04-22T15:02:19Z</time></trkpt><trkpt lat="42.74000937927044" lon="12.920696001835134"><ele>995.0</ele><time>2026-04-22T15:02:20Z</time></trkpt><trkpt lat="42.740173564994855" lon="12.920832515767128"><ele>995.0</ele><time>2026-04-22T15:02:21Z</time></trkpt><trkpt lat="42.74034559786755" lon="12.920975554322375"><ele>995.0</ele><time>2026-04-22T15:02:22Z</time></trkpt><trkpt lat="42.740500902719" lon="12.92110254640865"><ele>993.75</ele><time>2026-04-22T15:02:23Z</time></trkpt><trkpt lat="42.74063839120121" lon="12.921206460487028"><ele>992.5</ele><time>2026-04-22T15:02:24Z</time></trkpt><trkpt lat="42.74076683875035" lon="12.921297371529084"><ele>991.25</ele><time>2026-04-22T15:02:25Z</time></trkpt><trkpt lat="42.74090024709884" lon="12.921382494063112"><ele>990.0</ele><time>2026-04-22T15:02:26Z</time></trkpt><trkpt lat="42.74104423263501" lon="12.92145366594667"><ele>989.75</ele><time>2026-04-22T15:02:27Z</time></trkpt><trkpt lat="42.741183214089425" lon="12.921523136613178"><ele>989.5</ele><time>2026-04-22T15:02:28Z</time></trkpt><trkpt lat="42.741303068507314" lon="12.921607890087383"><ele>989.25</ele><time>2026-04-22T15:02:29Z</time></trkpt><trkpt lat="42.74137167245147" lon="12.92171420586962"><ele>989.0</ele><time>2026-04-22T15:02:30Z</time></trkpt><trkpt lat="42.74145326378669" lon="12.921840483779636"><ele>989.0</ele><time>2026-04-22T15:02:31Z</time></trkpt><trkpt lat="42.74155752279905" lon="12.921935468876164"><ele>989.0000000000001</ele><time>2026-04-22T15:02:32Z</time></trkpt><trkpt lat="42.74165409280701" lon="12.921982869614254"><ele>989.0000000000001</ele><time>2026-04-22T15:02:33Z</time></trkpt><trkpt lat="42.741744775592345" lon="12.921965789250802"><ele>989.0</ele><time>2026-04-22T15:02:34Z</time></trkpt><trkpt lat="42.74181011626983" lon="12.921861236817147"><ele>989.0</ele><time>2026-04-22T15:02:35Z</time></trkpt><trkpt lat="42.74184326117991" lon="12.921754001934389"><ele>994.5</ele><time>2026-04-22T15:02:36Z</time></trkpt><trkpt lat="42.74183919288619" lon="12.92161052162665"><ele>1000.0</ele><time>2026-04-22T15:02:37Z</time></trkpt><trkpt lat="42.74180380879845" lon="12.921446270964308"><ele>1005.5</ele><time>2026-04-22T15:02:38Z</time></trkpt><trkpt lat="42.741754764328796" lon="12.92127661478377"><ele>1011.0</ele><time>2026-04-22T15:02:39Z</time></trkpt><trkpt lat="42.74168654147178" lon="12.921113192578343"><ele>1011.0</ele><time>2026-04-22T15:02:40Z</time></trkpt><trkpt lat="42.74159953026586" lon="12.920931560421906"><ele>1011.0</ele><time>2026-04-22T15:02:41Z</time></trkpt><trkpt lat="42.74150941846091" lon="12.920735996923138"><ele>1011.0</ele><time>2026-04-22T15:02:42Z</time></trkpt><trkpt lat="42.741405782421936" lon="12.920531314978357"><ele>1011.6666666666667</ele><time>2026-04-22T15:02:43Z</time></trkpt><trkpt lat="42.741288303279674" lon="12.920354186359454"><ele>1012.3333333333334</ele><time>2026-04-22T15:02:44Z</time></trkpt><trkpt lat="42.74118508377202" lon="12.920181352833572"><ele>1013.0</ele><time>2026-04-22T15:02:45Z</time></trkpt><trkpt lat="42.74108414837041" lon="12.920019869757342"><ele>1020.3333333333334</ele><time>2026-04-22T15:02:46Z</time></trkpt><trkpt lat="42.74100281991788" lon="12.919862335467801"><ele>1027.6666666666667</ele><time>2026-04-22T15:02:47Z</time></trkpt><trkpt lat="42.74091725774026" lon="12.919692326451342"><ele>1035.0</ele><time>2026-04-22T15:02:48Z</time></trkpt><trkpt lat="42.74085750659371" lon="12.919474351555882"><ele>1035.0</ele><time>2026-04-22T15:02:49Z</time></trkpt><trkpt lat="42.74078345619357" lon="12.919250228782719"><ele>1035.0</ele><time>2026-04-22T15:02:50Z</time></trkpt><trkpt lat="42.74072340850285" lon="12.9190048582212"><ele>1035.0</ele><time>2026-04-22T15:02:51Z</time></trkpt><trkpt lat="42.74066461655296" lon="12.91875254973934"><ele>1034.6666666666667</ele><time>2026-04-22T15:02:52Z</time></trkpt><trkpt lat="42.74060377642241" lon="12.918477633846942"><ele>1034.3333333333335</ele><time>2026-04-22T15:02:53Z</time></trkpt><trkpt lat="42.740540614898926" lon="12.918215748831221"><ele>1034.0</ele><time>2026-04-22T15:02:54Z</time></trkpt><trkpt lat="42.74046021576676" lon="12.917967380609912"><ele>1034.0</ele><time>2026-04-22T15:02:55Z</time></trkpt><trkpt lat="42.74040973608266" lon="12.917726622597224"><ele>1034.0</ele><time>2026-04-22T15:02:56Z</time></trkpt><trkpt lat="42.74035702323152" lon="12.917519492350037"><ele>1034.0</ele><time>2026-04-22T15:02:57Z</time></trkpt><trkpt lat="42.740317538511476" lon="12.917328442335407"><ele>1037.25</ele><time>2026-04-22T15:02:58Z</time></trkpt><trkpt lat="42.74029281137322" lon="12.91715403480876"><ele>1040.5</ele><time>2026-04-22T15:02:59Z</time></trkpt><trkpt lat="42.74028761459327" lon="12.916999468966424"><ele>1043.75</ele><time>2026-04-22T15:03:00Z</time></trkpt><trkpt lat="42.740300053011275" lon="12.916853244637275"><ele>1047.0</ele><time>2026-04-22T15:03:01Z</time></trkpt><trkpt lat="42.74030862478288" lon="12.916704901148343"><ele>1047.0</ele><time>2026-04-22T15:03:02Z</time></trkpt><trkpt lat="42.74038973051165" lon="12.916606218296534"><ele>1047.0</ele><time>2026-04-22T15:03:03Z</time></trkpt><trkpt lat="42.74047709183981" lon="12.91653862853606"><ele>1047.0</ele><time>2026-04-22T15:03:04Z</time></trkpt><trkpt lat="42.740536080050575" lon="12.91658547478116"><ele>1047.0</ele><time>2026-04-22T15:03:05Z</time></trkpt><trkpt lat="42.740572580536394" lon="12.916657060999494"><ele>1047.0</ele><time>2026-04-22T15:03:06Z</time></trkpt><trkpt lat="42.74062821028118" lon="12.916735794973919"><ele>1047.0</ele><time>2026-04-22T15:03:07Z</time></trkpt><trkpt lat="42.74069969808581" lon="12.916849668227941"><ele>1047.0</ele><time>2026-04-22T15:03:08Z</time></trkpt><trkpt lat="42.74075034121497" lon="12.917017997787438"><ele>1047.0</ele><time>2026-04-22T15:03:09Z</time></trkpt><trkpt lat="42.74083302750062" lon="12.91717748871925"><ele>1047.0</ele><time>2026-04-22T15:03:10Z</time></trkpt><trkpt lat="42.74094425832104" lon="12.917319379863672"><ele>1047.0</ele><time>2026-04-22T15:03:11Z</time></trkpt><trkpt lat="42.74104260160952" lon="12.917495553599665"><ele>1046.3333333333333</ele><time>2026-04-22T15:03:12Z</time></trkpt><trkpt lat="42.74116367726786" lon="12.917664113189076"><ele>1045.6666666666665</ele><time>2026-04-22T15:03:13Z</time></trkpt><trkpt lat="42.74129340504233" lon="12.917831651080869"><ele>1045.0</ele><time>2026-04-22T15:03:14Z</time></trkpt><trkpt lat="42.74143969511211" lon="12.917981451017662"><ele>1045.0</ele><time>2026-04-22T15:03:15Z</time></trkpt><trkpt lat="42.7415820621587" lon="12.918142909243945"><ele>1045.0</ele><time>2026-04-22T15:03:16Z</time></trkpt><trkpt lat="42.74172409593524" lon="12.91828066908968"><ele>1045.0</ele><time>2026-04-22T15:03:17Z</time></trkpt><trkpt lat="42.7418527963973" lon="12.918392692618907"><ele>1046.8</ele><time>2026-04-22T15:03:18Z</time></trkpt><trkpt lat="42.74196135671462" lon="12.918483237118009"><ele>1048.6</ele><time>2026-04-22T15:03:19Z</time></trkpt><trkpt lat="42.74206159506859" lon="12.918541953113676"><ele>1050.4</ele><time>2026-04-22T15:03:20Z</time></trkpt><trkpt lat="42.74216480208656" lon="12.918518323923582"><ele>1052.2</ele><time>2026-04-22T15:03:21Z</time></trkpt><trkpt lat="42.74226329047864" lon="12.918461164717915"><ele>1054.0</ele><time>2026-04-22T15:03:22Z</time></trkpt><trkpt lat="42.74237036094213" lon="12.918373685329772"><ele>1054.0</ele><time>2026-04-22T15:03:23Z</time></trkpt><trkpt lat="42.742485771468566" lon="12.918255523000001"><ele>1054.0</ele><time>2026-04-22T15:03:24Z</time></trkpt><trkpt lat="42.7427067163204" lon="12.917950132436063"><ele>1055.75</ele><time>2026-04-22T15:03:26Z</time></trkpt><trkpt lat="42.742826979777526" lon="12.917852073773195"><ele>1057.5</ele><time>2026-04-22T15:03:27Z</time></trkpt><trkpt lat="42.74294298818608" lon="12.917800997473043"><ele>1059.25</ele><time>2026-04-22T15:03:28Z</time></trkpt><trkpt lat="42.743055439421504" lon="12.917772499782378"><ele>1061.0</ele><time>2026-04-22T15:03:29Z</time></trkpt><trkpt lat="42.74316708841408" lon="12.917742868459738"><ele>1061.0</ele><time>2026-04-22T15:03:30Z</time></trkpt><trkpt lat="42.743264019801224" lon="12.917724617264428"><ele>1061.0</ele><time>2026-04-22T15:03:31Z</time></trkpt><trkpt lat="42.74333429222511" lon="12.917777982325974"><ele>1061.0</ele><time>2026-04-22T15:03:32Z</time></trkpt><trkpt lat="42.74336796348481" lon="12.917856260810103"><ele>1061.0</ele><time>2026-04-22T15:03:33Z</time></trkpt><trkpt lat="42.743384229493365" lon="12.917984063186944"><ele>1061.0</ele><time>2026-04-22T15:03:35Z</time></trkpt><trkpt lat="42.743408299172245" lon="12.918107762289333"><ele>1061.0</ele><time>2026-04-22T15:03:36Z</time></trkpt><trkpt lat="42.74340739644933" lon="12.918280038875675"><ele>1057.75</ele><time>2026-04-22T15:03:37Z</time></trkpt><trkpt lat="42.743396202098424" lon="12.918461658311964"><ele>1054.5</ele><time>2026-04-22T15:03:38Z</time></trkpt><trkpt lat="42.7434187789706" lon="12.918664419790446"><ele>1051.25</ele><time>2026-04-22T15:03:39Z</time></trkpt><trkpt lat="42.74345933459458" lon="12.918867598606932"><ele>1048.0</ele><time>2026-04-22T15:03:40Z</time></trkpt><trkpt lat="42.74350727644721" lon="12.919043982973491"><ele>1046.25</ele><time>2026-04-22T15:03:41Z</time></trkpt><trkpt lat="42.74357708568271" lon="12.91917230198708"><ele>1044.5</ele><time>2026-04-22T15:03:42Z</time></trkpt><trkpt lat="42.74364172179033" lon="12.919283181924708"><ele>1042.75</ele><time>2026-04-22T15:03:43Z</time></trkpt><trkpt lat="42.743719478242106" lon="12.919399701945819"><ele>1041.0</ele><time>2026-04-22T15:03:44Z</time></trkpt><trkpt lat="42.743832768692975" lon="12.919477750306351"><ele>1041.0</ele><time>2026-04-22T15:03:45Z</time></trkpt><trkpt lat="42.74396658424324" lon="12.919510092702328"><ele>1041.0</ele><time>2026-04-22T15:03:46Z</time></trkpt><trkpt lat="42.74410604299063" lon="12.919540075991003"><ele>1041.0</ele><time>2026-04-22T15:03:47Z</time></trkpt><trkpt lat="42.74426574989316" lon="12.91954541747043"><ele>1041.0</ele><time>2026-04-22T15:03:48Z</time></trkpt><trkpt lat="42.744443314526144" lon="12.919533815867823"><ele>1050.3333333333333</ele><time>2026-04-22T15:03:49Z</time></trkpt><trkpt lat="42.74465030326108" lon="12.91954170833169"><ele>1059.6666666666665</ele><time>2026-04-22T15:03:50Z</time></trkpt><trkpt lat="42.74483856805805" lon="12.919598325240639"><ele>1069.0</ele><time>2026-04-22T15:03:51Z</time></trkpt><trkpt lat="42.74500683334277" lon="12.919687874523174"><ele>1069.0</ele><time>2026-04-22T15:03:52Z</time></trkpt><trkpt lat="42.745167944642475" lon="12.919800249441495"><ele>1069.0</ele><time>2026-04-22T15:03:53Z</time></trkpt><trkpt lat="42.74530298459914" lon="12.91992461239492"><ele>1069.0</ele><time>2026-04-22T15:03:54Z</time></trkpt><trkpt lat="42.74552422480597" lon="12.920115158783338"><ele>1069.0</ele><time>2026-04-22T15:03:56Z</time></trkpt><trkpt lat="42.74562092157635" lon="12.920193894288772"><ele>1069.0</ele><time>2026-04-22T15:03:57Z</time></trkpt><trkpt lat="42.74571160199613" lon="12.920270779447733"><ele>1069.0</ele><time>2026-04-22T15:03:58Z</time></trkpt><trkpt lat="42.745801296119204" lon="12.920353101494628"><ele>1069.0</ele><time>2026-04-22T15:03:59Z</time></trkpt><trkpt lat="42.74589239268531" lon="12.92043436162009"><ele>1069.0</ele><time>2026-04-22T15:04:00Z</time></trkpt><trkpt lat="42.74598365706466" lon="12.920518779322006"><ele>1074.0</ele><time>2026-04-22T15:04:01Z</time></trkpt><trkpt lat="42.74607580029192" lon="12.920604558780145"><ele>1079.0</ele><time>2026-04-22T15:04:02Z</time></trkpt><trkpt lat="42.74617130116086" lon="12.920693828109199"><ele>1084.0</ele><time>2026-04-22T15:04:03Z</time></trkpt><trkpt lat="42.746266503203884" lon="12.920778015114994"><ele>1089.0</ele><time>2026-04-22T15:04:04Z</time></trkpt><trkpt lat="42.746365405067486" lon="12.920860336081908"><ele>1086.8</ele><time>2026-04-22T15:04:05Z</time></trkpt><trkpt lat="42.746448836052146" lon="12.920967237296987"><ele>1084.6000000000001</ele><time>2026-04-22T15:04:06Z</time></trkpt><trkpt lat="42.74653598205052" lon="12.921043518744321"><ele>1082.4</ele><time>2026-04-22T15:04:07Z</time></trkpt><trkpt lat="42.74661134490704" lon="12.921071147260259"><ele>1080.2</ele><time>2026-04-22T15:04:08Z</time></trkpt><trkpt lat="42.74671199816392" lon="12.921099759524008"><ele>1078.0</ele><time>2026-04-22T15:04:10Z</time></trkpt><trkpt lat="42.74676318854256" lon="12.92100739941373"><ele>1080.2</ele><time>2026-04-22T15:04:12Z</time></trkpt><trkpt lat="42.74671739451516" lon="12.920868793996904"><ele>1082.4</ele><time>2026-04-22T15:04:14Z</time></trkpt><trkpt lat="42.746659397673405" lon="12.920801206295833"><ele>1084.6000000000001</ele><time>2026-04-22T15:04:15Z</time></trkpt><trkpt lat="42.746595451221594" lon="12.920730201337124"><ele>1086.8</ele><time>2026-04-22T15:04:16Z</time></trkpt><trkpt lat="42.746515904201644" lon="12.920659536133892"><ele>1089.0</ele><time>2026-04-22T15:04:17Z</time></trkpt><trkpt lat="42.74642756406925" lon="12.920580175887682"><ele>1089.0</ele><time>2026-04-22T15:04:18Z</time></trkpt><trkpt lat="42.74634176111691" lon="12.920480862693287"><ele>1089.0</ele><time>2026-04-22T15:04:19Z</time></trkpt><trkpt lat="42.746263044058914" lon="12.920377452869884"><ele>1089.0</ele><time>2026-04-22T15:04:20Z</time></trkpt><trkpt lat="42.746178441496774" lon="12.920258786839586"><ele>1089.0</ele><time>2026-04-22T15:04:21Z</time></trkpt><trkpt lat="42.746090266262456" lon="12.920135029464513"><ele>1091.0</ele><time>2026-04-22T15:04:22Z</time></trkpt><trkpt lat="42.74599928454137" lon="12.919995216148555"><ele>1093.0</ele><time>2026-04-22T15:04:23Z</time></trkpt><trkpt lat="42.745901489684506" lon="12.91984858938339"><ele>1095.0</ele><time>2026-04-22T15:04:24Z</time></trkpt><trkpt lat="42.745798994406776" lon="12.919700268195543"><ele>1097.0</ele><time>2026-04-22T15:04:25Z</time></trkpt><trkpt lat="42.745699237675026" lon="12.919540654383695"><ele>1097.0</ele><time>2026-04-22T15:04:26Z</time></trkpt><trkpt lat="42.745579023666124" lon="12.919386882520975"><ele>1097.0</ele><time>2026-04-22T15:04:27Z</time></trkpt><trkpt lat="42.74545514139408" lon="12.919242522643126"><ele>1097.0</ele><time>2026-04-22T15:04:28Z</time></trkpt><trkpt lat="42.74530372982276" lon="12.919107138424074"><ele>1099.0</ele><time>2026-04-22T15:04:29Z</time></trkpt><trkpt lat="42.74516391544243" lon="12.918998536060041"><ele>1101.0</ele><time>2026-04-22T15:04:30Z</time></trkpt><trkpt lat="42.745041304151066" lon="12.918906179935075"><ele>1103.0</ele><time>2026-04-22T15:04:31Z</time></trkpt><trkpt lat="42.744942532918124" lon="12.918834394943824"><ele>1105.0</ele><time>2026-04-22T15:04:32Z</time></trkpt><trkpt lat="42.74486857469754" lon="12.918770686445018"><ele>1105.0</ele><time>2026-04-22T15:04:33Z</time></trkpt><trkpt lat="42.744807406310635" lon="12.918701987220825"><ele>1105.0</ele><time>2026-04-22T15:04:34Z</time></trkpt><trkpt lat="42.74477133378044" lon="12.918629538633294"><ele>1105.0</ele><time>2026-04-22T15:04:35Z</time></trkpt><trkpt lat="42.744734599474505" lon="12.91853740351732"><ele>1105.0</ele><time>2026-04-22T15:04:36Z</time></trkpt><trkpt lat="42.74471766887965" lon="12.918427660951286"><ele>1105.0</ele><time>2026-04-22T15:04:37Z</time></trkpt><trkpt lat="42.74470423882078" lon="12.918302819781855"><ele>1105.0</ele><time>2026-04-22T15:04:38Z</time></trkpt><trkpt lat="42.74467563840792" lon="12.918151553023876"><ele>1107.25</ele><time>2026-04-22T15:04:39Z</time></trkpt><trkpt lat="42.744666909825604" lon="12.917982159274171"><ele>1109.5</ele><time>2026-04-22T15:04:40Z</time></trkpt><trkpt lat="42.744655327362956" lon="12.917793764525573"><ele>1111.75</ele><time>2026-04-22T15:04:41Z</time></trkpt><trkpt lat="42.744644793042276" lon="12.917587519410759"><ele>1114.0</ele><time>2026-04-22T15:04:42Z</time></trkpt><trkpt lat="42.74463435578411" lon="12.917371262850462"><ele>1114.0</ele><time>2026-04-22T15:04:43Z</time></trkpt><trkpt lat="42.7446251082628" lon="12.91714429057377"><ele>1114.0</ele><time>2026-04-22T15:04:44Z</time></trkpt><trkpt lat="42.74461928104691" lon="12.916917494279192"><ele>1114.0</ele><time>2026-04-22T15:04:45Z</time></trkpt><trkpt lat="42.74461640670148" lon="12.916691125202808"><ele>1114.25</ele><time>2026-04-22T15:04:46Z</time></trkpt><trkpt lat="42.744613081965184" lon="12.91648652010174"><ele>1114.5</ele><time>2026-04-22T15:04:47Z</time></trkpt><trkpt lat="42.74461653710104" lon="12.916299068770584"><ele>1114.75</ele><time>2026-04-22T15:04:48Z</time></trkpt><trkpt lat="42.7446294247956" lon="12.916128575148168"><ele>1115.0</ele><time>2026-04-22T15:04:49Z</time></trkpt><trkpt lat="42.74465163790505" lon="12.915970164573324"><ele>1115.0</ele><time>2026-04-22T15:04:50Z</time></trkpt><trkpt lat="42.74469239752636" lon="12.91581600707328"><ele>1115.0</ele><time>2026-04-22T15:04:51Z</time></trkpt><trkpt lat="42.74474578903536" lon="12.915651416597614"><ele>1115.0</ele><time>2026-04-22T15:04:52Z</time></trkpt><trkpt lat="42.74481144358059" lon="12.915473310442287"><ele>1115.0</ele><time>2026-04-22T15:04:53Z</time></trkpt><trkpt lat="42.74487587838313" lon="12.915288605798816"><ele>1115.0</ele><time>2026-04-22T15:04:54Z</time></trkpt><trkpt lat="42.74492600643511" lon="12.915104704583033"><ele>1115.0</ele><time>2026-04-22T15:04:55Z</time></trkpt><trkpt lat="42.74497336319628" lon="12.914923303721684"><ele>1115.0</ele><time>2026-04-22T15:04:56Z</time></trkpt><trkpt lat="42.74496576697431" lon="12.914744359589417"><ele>1115.0</ele><time>2026-04-22T15:04:57Z</time></trkpt><trkpt lat="42.74496811567109" lon="12.914570004878815"><ele>1114.0</ele><time>2026-04-22T15:04:58Z</time></trkpt><trkpt lat="42.74497685378689" lon="12.91441028989081"><ele>1113.0</ele><time>2026-04-22T15:04:59Z</time></trkpt><trkpt lat="42.74501503449818" lon="12.914288658136828"><ele>1112.0</ele><time>2026-04-22T15:05:00Z</time></trkpt><trkpt lat="42.74509196945954" lon="12.914180825044602"><ele>1111.0</ele><time>2026-04-22T15:05:01Z</time></trkpt><trkpt lat="42.74519072578671" lon="12.914056807190143"><ele>1109.75</ele><time>2026-04-22T15:05:02Z</time></trkpt><trkpt lat="42.74529844855723" lon="12.913931085228066"><ele>1108.5</ele><time>2026-04-22T15:05:03Z</time></trkpt><trkpt lat="42.74536698127083" lon="12.913802618978387"><ele>1107.25</ele><time>2026-04-22T15:05:04Z</time></trkpt><trkpt lat="42.7454139751763" lon="12.91367934106759"><ele>1106.0</ele><time>2026-04-22T15:05:05Z</time></trkpt><trkpt lat="42.745435982414236" lon="12.913560686817041"><ele>1106.0</ele><time>2026-04-22T15:05:06Z</time></trkpt><trkpt lat="42.74544622231426" lon="12.913408227710674"><ele>1106.0</ele><time>2026-04-22T15:05:07Z</time></trkpt><trkpt lat="42.74545118189305" lon="12.913222737433962"><ele>1106.0</ele><time>2026-04-22T15:05:08Z</time></trkpt><trkpt lat="42.74545715778727" lon="12.913025248775197"><ele>1106.0</ele><time>2026-04-22T15:05:09Z</time></trkpt><trkpt lat="42.74547242508163" lon="12.912823827624639"><ele>1108.25</ele><time>2026-04-22T15:05:10Z</time></trkpt><trkpt lat="42.74550130468468" lon="12.91262167831228"><ele>1110.5</ele><time>2026-04-22T15:05:11Z</time></trkpt><trkpt lat="42.745532482301584" lon="12.912428416961761"><ele>1112.75</ele><time>2026-04-22T15:05:12Z</time></trkpt><trkpt lat="42.745569410859176" lon="12.912242807316586"><ele>1115.0</ele><time>2026-04-22T15:05:13Z</time></trkpt><trkpt lat="42.74561176372974" lon="12.912070619977905"><ele>1116.5</ele><time>2026-04-22T15:05:14Z</time></trkpt><trkpt lat="42.74566001155077" lon="12.911914793607927"><ele>1118.0</ele><time>2026-04-22T15:05:15Z</time></trkpt><trkpt lat="42.745727588723774" lon="12.91175956284845"><ele>1119.5</ele><time>2026-04-22T15:05:16Z</time></trkpt><trkpt lat="42.745809802941324" lon="12.911617681767076"><ele>1121.0</ele><time>2026-04-22T15:05:17Z</time></trkpt><trkpt lat="42.74589718231331" lon="12.911482517168032"><ele>1124.0</ele><time>2026-04-22T15:05:18Z</time></trkpt><trkpt lat="42.745976627268014" lon="12.911350639048818"><ele>1127.0</ele><time>2026-04-22T15:05:19Z</time></trkpt><trkpt lat="42.74601848828867" lon="12.911212994066041"><ele>1130.0</ele><time>2026-04-22T15:05:20Z</time></trkpt><trkpt lat="42.74603941335414" lon="12.91105936507395"><ele>1133.0</ele><time>2026-04-22T15:05:21Z</time></trkpt><trkpt lat="42.74603841569893" lon="12.910887415493235"><ele>1135.4</ele><time>2026-04-22T15:05:22Z</time></trkpt><trkpt lat="42.74603171634726" lon="12.910711129521774"><ele>1137.8</ele><time>2026-04-22T15:05:23Z</time></trkpt><trkpt lat="42.74601592625799" lon="12.910540815407344"><ele>1140.2</ele><time>2026-04-22T15:05:24Z</time></trkpt><trkpt lat="42.74603222810283" lon="12.910405254928845"><ele>1142.6</ele><time>2026-04-22T15:05:25Z</time></trkpt><trkpt lat="42.74603690974879" lon="12.910302671552028"><ele>1145.0</ele><time>2026-04-22T15:05:26Z</time></trkpt><trkpt lat="42.74609312395095" lon="12.910246951791713"><ele>1146.6</ele><time>2026-04-22T15:05:27Z</time></trkpt><trkpt lat="42.746170227217426" lon="12.910254957313235"><ele>1148.2</ele><time>2026-04-22T15:05:28Z</time></trkpt><trkpt lat="42.746290545235524" lon="12.91031722857011"><ele>1149.8</ele><time>2026-04-22T15:05:30Z</time></trkpt><trkpt lat="42.746304421245625" lon="12.910440216092487"><ele>1151.4</ele><time>2026-04-22T15:05:31Z</time></trkpt><trkpt lat="42.74636148202584" lon="12.910566702710966"><ele>1153.0</ele><time>2026-04-22T15:05:32Z</time></trkpt><trkpt lat="42.746393903049416" lon="12.910687088800605"><ele>1153.0</ele><time>2026-04-22T15:05:33Z</time></trkpt><trkpt lat="42.74647143751684" lon="12.910701918093013"><ele>1153.0</ele><time>2026-04-22T15:05:35Z</time></trkpt><trkpt lat="42.74652012488232" lon="12.910569087893474"><ele>1153.0</ele><time>2026-04-22T15:05:37Z</time></trkpt><trkpt lat="42.74649742944556" lon="12.910471451861534"><ele>1153.0</ele><time>2026-04-22T15:05:38Z</time></trkpt><trkpt lat="42.74647029194582" lon="12.910358726710523"><ele>1153.0</ele><time>2026-04-22T15:05:39Z</time></trkpt><trkpt lat="42.74645168712242" lon="12.910267961942667"><ele>1153.0</ele><time>2026-04-22T15:05:40Z</time></trkpt><trkpt lat="42.74643334305948" lon="12.910160277393471"><ele>1154.8</ele><time>2026-04-22T15:05:41Z</time></trkpt><trkpt lat="42.74641632622239" lon="12.910031634072363"><ele>1156.6</ele><time>2026-04-22T15:05:42Z</time></trkpt><trkpt lat="42.74640190409531" lon="12.90990534233468"><ele>1158.4</ele><time>2026-04-22T15:05:43Z</time></trkpt><trkpt lat="42.74638644976218" lon="12.909763597092256"><ele>1160.2</ele><time>2026-04-22T15:05:44Z</time></trkpt><trkpt lat="42.74637118303955" lon="12.909600905150205"><ele>1162.0</ele><time>2026-04-22T15:05:45Z</time></trkpt><trkpt lat="42.746354606869964" lon="12.909424332933837"><ele>1162.0</ele><time>2026-04-22T15:05:46Z</time></trkpt><trkpt lat="42.74633934061748" lon="12.909256688903312"><ele>1162.0</ele><time>2026-04-22T15:05:47Z</time></trkpt><trkpt lat="42.746324732097214" lon="12.909083570936044"><ele>1162.0</ele><time>2026-04-22T15:05:48Z</time></trkpt><trkpt lat="42.74631125489105" lon="12.908898029323785"><ele>1162.0</ele><time>2026-04-22T15:05:49Z</time></trkpt><trkpt lat="42.74630120232604" lon="12.908708633035314"><ele>1164.0</ele><time>2026-04-22T15:05:50Z</time></trkpt><trkpt lat="42.74629662380689" lon="12.908516531487352"><ele>1166.0</ele><time>2026-04-22T15:05:51Z</time></trkpt><trkpt lat="42.74629216325915" lon="12.9083126208237"><ele>1168.0</ele><time>2026-04-22T15:05:52Z</time></trkpt><trkpt lat="42.74627870087108" lon="12.908099804209032"><ele>1170.0</ele><time>2026-04-22T15:05:53Z</time></trkpt><trkpt lat="42.74624592717137" lon="12.907895072872057"><ele>1170.3333333333333</ele><time>2026-04-22T15:05:54Z</time></trkpt><trkpt lat="42.746170926267254" lon="12.907698927890007"><ele>1170.6666666666665</ele><time>2026-04-22T15:05:55Z</time></trkpt><trkpt lat="42.746120647861616" lon="12.907502235623875"><ele>1171.0</ele><time>2026-04-22T15:05:56Z</time></trkpt><trkpt lat="42.74608069662404" lon="12.907298876088205"><ele>1171.5</ele><time>2026-04-22T15:05:57Z</time></trkpt><trkpt lat="42.746049557857404" lon="12.907099667350899"><ele>1172.0</ele><time>2026-04-22T15:05:58Z</time></trkpt><trkpt lat="42.74604847668343" lon="12.906917655833194"><ele>1172.5</ele><time>2026-04-22T15:05:59Z</time></trkpt><trkpt lat="42.746032189638505" lon="12.906707937886699"><ele>1173.0</ele><time>2026-04-22T15:06:00Z</time></trkpt><trkpt lat="42.746022560151445" lon="12.906493438920615"><ele>1171.75</ele><time>2026-04-22T15:06:01Z</time></trkpt><trkpt lat="42.74600628734972" lon="12.906303514654496"><ele>1170.5</ele><time>2026-04-22T15:06:02Z</time></trkpt><trkpt lat="42.745963299351516" lon="12.906149615160185"><ele>1169.25</ele><time>2026-04-22T15:06:03Z</time></trkpt><trkpt lat="42.74592759606474" lon="12.906008058205657"><ele>1168.0</ele><time>2026-04-22T15:06:04Z</time></trkpt><trkpt lat="42.74585650234272" lon="12.905872520097203"><ele>1168.0</ele><time>2026-04-22T15:06:05Z</time></trkpt><trkpt lat="42.7457604333046" lon="12.905732094805023"><ele>1168.0</ele><time>2026-04-22T15:06:06Z</time></trkpt><trkpt lat="42.7456717778684" lon="12.905564942467942"><ele>1168.0</ele><time>2026-04-22T15:06:07Z</time></trkpt><trkpt lat="42.74559159779094" lon="12.90537510414228"><ele>1168.0</ele><time>2026-04-22T15:06:08Z</time></trkpt><trkpt lat="42.745492311677225" lon="12.905215542834082"><ele>1168.0</ele><time>2026-04-22T15:06:09Z</time></trkpt><trkpt lat="42.745421454528014" lon="12.905049994584424"><ele>1168.0</ele><time>2026-04-22T15:06:10Z</time></trkpt><trkpt lat="42.74533105715961" lon="12.90487820201849"><ele>1168.0</ele><time>2026-04-22T15:06:11Z</time></trkpt><trkpt lat="42.745252268860085" lon="12.90471591891174"><ele>1168.0</ele><time>2026-04-22T15:06:12Z</time></trkpt><trkpt lat="42.745169523180664" lon="12.90454624563179"><ele>1168.0</ele><time>2026-04-22T15:06:13Z</time></trkpt><trkpt lat="42.74508722104641" lon="12.904372278101427"><ele>1168.0</ele><time>2026-04-22T15:06:14Z</time></trkpt><trkpt lat="42.745004053941344" lon="12.904197982072628"><ele>1168.3333333333333</ele><time>2026-04-22T15:06:15Z</time></trkpt><trkpt lat="42.74492272078089" lon="12.904036089168216"><ele>1168.6666666666667</ele><time>2026-04-22T15:06:16Z</time></trkpt><trkpt lat="42.74485243564101" lon="12.903856068800273"><ele>1169.0</ele><time>2026-04-22T15:06:17Z</time></trkpt><trkpt lat="42.744752416314405" lon="12.903685441595544"><ele>1169.0</ele><time>2026-04-22T15:06:18Z</time></trkpt><trkpt lat="42.74464671301185" lon="12.90352089816349"><ele>1169.0</ele><time>2026-04-22T15:06:19Z</time></trkpt><trkpt lat="42.74454953323717" lon="12.90335447659757"><ele>1169.0</ele><time>2026-04-22T15:06:20Z</time></trkpt><trkpt lat="42.744475991398" lon="12.903191583826008"><ele>1166.6666666666667</ele><time>2026-04-22T15:06:21Z</time></trkpt><trkpt lat="42.74441398630754" lon="12.903011165594858"><ele>1164.3333333333333</ele><time>2026-04-22T15:06:22Z</time></trkpt><trkpt lat="42.74436599392753" lon="12.902811068755724"><ele>1162.0</ele><time>2026-04-22T15:06:23Z</time></trkpt><trkpt lat="42.74433786253334" lon="12.902609522727008"><ele>1167.3333333333333</ele><time>2026-04-22T15:06:24Z</time></trkpt><trkpt lat="42.74432366520138" lon="12.902389511462113"><ele>1172.6666666666667</ele><time>2026-04-22T15:06:25Z</time></trkpt><trkpt lat="42.74432927942079" lon="12.90217824597644"><ele>1178.0</ele><time>2026-04-22T15:06:26Z</time></trkpt><trkpt lat="42.74434583860703" lon="12.901954153762862"><ele>1178.5</ele><time>2026-04-22T15:06:27Z</time></trkpt><trkpt lat="42.744368053417105" lon="12.901741525380299"><ele>1179.0</ele><time>2026-04-22T15:06:28Z</time></trkpt><trkpt lat="42.744383728174505" lon="12.901544927770086"><ele>1179.5</ele><time>2026-04-22T15:06:29Z</time></trkpt><trkpt lat="42.744416611282446" lon="12.901355990680758"><ele>1180.0</ele><time>2026-04-22T15:06:30Z</time></trkpt><trkpt lat="42.74445935885676" lon="12.90116879546755"><ele>1176.5</ele><time>2026-04-22T15:06:31Z</time></trkpt><trkpt lat="42.744534627451145" lon="12.90101238338235"><ele>1173.0</ele><time>2026-04-22T15:06:32Z</time></trkpt><trkpt lat="42.744600992530124" lon="12.90084860065088"><ele>1169.5</ele><time>2026-04-22T15:06:33Z</time></trkpt><trkpt lat="42.74469168784282" lon="12.900716865733719"><ele>1166.0</ele><time>2026-04-22T15:06:34Z</time></trkpt><trkpt lat="42.74479559271278" lon="12.900620929791623"><ele>1166.0</ele><time>2026-04-22T15:06:35Z</time></trkpt><trkpt lat="42.744928354016565" lon="12.900520556417248"><ele>1166.0</ele><time>2026-04-22T15:06:36Z</time></trkpt><trkpt lat="42.74506316979259" lon="12.90040342794701"><ele>1166.0</ele><time>2026-04-22T15:06:37Z</time></trkpt><trkpt lat="42.7451888138438" lon="12.900241699619855"><ele>1165.6666666666667</ele><time>2026-04-22T15:06:38Z</time></trkpt><trkpt lat="42.74530357316138" lon="12.900068548402128"><ele>1165.3333333333333</ele><time>2026-04-22T15:06:39Z</time></trkpt><trkpt lat="42.745426923991545" lon="12.899884704231209"><ele>1165.0</ele><time>2026-04-22T15:06:40Z</time></trkpt><trkpt lat="42.745585742265646" lon="12.899745302605359"><ele>1165.0</ele><time>2026-04-22T15:06:41Z</time></trkpt><trkpt lat="42.745719171341065" lon="12.899606169932285"><ele>1165.0</ele><time>2026-04-22T15:06:42Z</time></trkpt><trkpt lat="42.74587601948505" lon="12.899529343216452"><ele>1165.0</ele><time>2026-04-22T15:06:43Z</time></trkpt><trkpt lat="42.746013137658394" lon="12.899467728005364"><ele>1166.0</ele><time>2026-04-22T15:06:44Z</time></trkpt><trkpt lat="42.74613869847934" lon="12.899391358384115"><ele>1167.0</ele><time>2026-04-22T15:06:45Z</time></trkpt><trkpt lat="42.746249674113834" lon="12.899293010533366"><ele>1168.0</ele><time>2026-04-22T15:06:46Z</time></trkpt><trkpt lat="42.74635810296748" lon="12.89920663344727"><ele>1169.0</ele><time>2026-04-22T15:06:47Z</time></trkpt><trkpt lat="42.74647163026908" lon="12.899162180883723"><ele>1169.0</ele><time>2026-04-22T15:06:48Z</time></trkpt><trkpt lat="42.746586991697605" lon="12.899225631933074"><ele>1169.0</ele><time>2026-04-22T15:06:49Z</time></trkpt><trkpt lat="42.746714925498836" lon="12.899256167019608"><ele>1169.0</ele><time>2026-04-22T15:06:50Z</time></trkpt><trkpt lat="42.74682996212026" lon="12.899252390671974"><ele>1169.0</ele><time>2026-04-22T15:06:51Z</time></trkpt><trkpt lat="42.74692772125532" lon="12.89918425006071"><ele>1166.3333333333335</ele><time>2026-04-22T15:06:52Z</time></trkpt><trkpt lat="42.74702889415026" lon="12.899104242930193"><ele>1163.6666666666667</ele><time>2026-04-22T15:06:53Z</time></trkpt><trkpt lat="42.74730077988747" lon="12.898941564319209"><ele>1161.0</ele><time>2026-04-22T15:06:55Z</time></trkpt><trkpt lat="42.74747468266297" lon="12.898943473055526"><ele>1161.0</ele><time>2026-04-22T15:06:56Z</time></trkpt><trkpt lat="42.74766726891995" lon="12.89893338815083"><ele>1161.0</ele><time>2026-04-22T15:06:57Z</time></trkpt><trkpt lat="42.74786596467452" lon="12.898923299060044"><ele>1161.0</ele><time>2026-04-22T15:06:58Z</time></trkpt><trkpt lat="42.74807841960145" lon="12.89891538102367"><ele>1161.6666666666667</ele><time>2026-04-22T15:06:59Z</time></trkpt><trkpt lat="42.7482846360207" lon="12.898907695490708"><ele>1162.3333333333335</ele><time>2026-04-22T15:07:00Z</time></trkpt><trkpt lat="42.74846065178089" lon="12.898900987937985"><ele>1163.0</ele><time>2026-04-22T15:07:01Z</time></trkpt><trkpt lat="42.7486221374667" lon="12.898894394865534"><ele>1163.0</ele><time>2026-04-22T15:07:02Z</time></trkpt><trkpt lat="42.74877978148013" lon="12.898874598991794"><ele>1163.0</ele><time>2026-04-22T15:07:03Z</time></trkpt><trkpt lat="42.74894543928486" lon="12.898879302969519"><ele>1163.0</ele><time>2026-04-22T15:07:04Z</time></trkpt><trkpt lat="42.74911361706881" lon="12.89886633406659"><ele>1163.0</ele><time>2026-04-22T15:07:05Z</time></trkpt><trkpt lat="42.749275606672335" lon="12.89884142407478"><ele>1163.0</ele><time>2026-04-22T15:07:06Z</time></trkpt><trkpt lat="42.74944529034933" lon="12.898838635391476"><ele>1163.0</ele><time>2026-04-22T15:07:07Z</time></trkpt><trkpt lat="42.749636405085475" lon="12.898898364730028"><ele>1162.0</ele><time>2026-04-22T15:07:08Z</time></trkpt><trkpt lat="42.74985190885953" lon="12.8989555433612"><ele>1161.0</ele><time>2026-04-22T15:07:09Z</time></trkpt><trkpt lat="42.75007278599057" lon="12.898957955351833"><ele>1160.0</ele><time>2026-04-22T15:07:10Z</time></trkpt><trkpt lat="42.75030020451747" lon="12.898996345747564"><ele>1159.6666666666667</ele><time>2026-04-22T15:07:11Z</time></trkpt><trkpt lat="42.75052289735626" lon="12.899036984384631"><ele>1159.3333333333333</ele><time>2026-04-22T15:07:12Z</time></trkpt><trkpt lat="42.75070767339623" lon="12.89909827438977"><ele>1159.0</ele><time>2026-04-22T15:07:13Z</time></trkpt><trkpt lat="42.75088528859442" lon="12.899144242597618"><ele>1157.3333333333333</ele><time>2026-04-22T15:07:14Z</time></trkpt><trkpt lat="42.751046940986654" lon="12.899193078023226"><ele>1155.6666666666667</ele><time>2026-04-22T15:07:15Z</time></trkpt><trkpt lat="42.75119410750198" lon="12.8992404268699"><ele>1154.0</ele><time>2026-04-22T15:07:16Z</time></trkpt><trkpt lat="42.75132777958825" lon="12.899309577252817"><ele>1153.0</ele><time>2026-04-22T15:07:17Z</time></trkpt><trkpt lat="42.75143911654262" lon="12.899396134761394"><ele>1152.0</ele><time>2026-04-22T15:07:18Z</time></trkpt><trkpt lat="42.75154806756954" lon="12.899468706026791"><ele>1151.0</ele><time>2026-04-22T15:07:19Z</time></trkpt><trkpt lat="42.751662952056925" lon="12.89952231252632"><ele>1150.0</ele><time>2026-04-22T15:07:20Z</time></trkpt><trkpt lat="42.751774963143234" lon="12.899577978848244"><ele>1150.4</ele><time>2026-04-22T15:07:21Z</time></trkpt><trkpt lat="42.75187782427024" lon="12.899612437464107"><ele>1150.8</ele><time>2026-04-22T15:07:22Z</time></trkpt><trkpt lat="42.75197533798197" lon="12.899620279352652"><ele>1151.2</ele><time>2026-04-22T15:07:23Z</time></trkpt><trkpt lat="42.752059617333096" lon="12.899621632614517"><ele>1151.6</ele><time>2026-04-22T15:07:24Z</time></trkpt><trkpt lat="42.752176437822165" lon="12.899658352398053"><ele>1152.0</ele><time>2026-04-22T15:07:26Z</time></trkpt><trkpt lat="42.752266422769345" lon="12.899782107391987"><ele>1152.0</ele><time>2026-04-22T15:07:28Z</time></trkpt><trkpt lat="42.75230529907667" lon="12.899879231534687"><ele>1152.0</ele><time>2026-04-22T15:07:29Z</time></trkpt><trkpt lat="42.75233185422043" lon="12.900043212886258"><ele>1152.0</ele><time>2026-04-22T15:07:30Z</time></trkpt><trkpt lat="42.752407932922374" lon="12.900179902235017"><ele>1152.0</ele><time>2026-04-22T15:07:31Z</time></trkpt><trkpt lat="42.7525074281754" lon="12.900294394899651"><ele>1151.75</ele><time>2026-04-22T15:07:32Z</time></trkpt><trkpt lat="42.75255994145249" lon="12.900461351477286"><ele>1151.5</ele><time>2026-04-22T15:07:33Z</time></trkpt><trkpt lat="42.75262313308234" lon="12.90062025918452"><ele>1151.25</ele><time>2026-04-22T15:07:34Z</time></trkpt><trkpt lat="42.75267588647397" lon="12.900754431818998"><ele>1151.0</ele><time>2026-04-22T15:07:35Z</time></trkpt><trkpt lat="42.75270916549258" lon="12.90086499780197"><ele>1150.5</ele><time>2026-04-22T15:07:36Z</time></trkpt><trkpt lat="42.75272679976439" lon="12.900965836429783"><ele>1150.0</ele><time>2026-04-22T15:07:37Z</time></trkpt><trkpt lat="42.75271609487831" lon="12.901060801097028"><ele>1149.5</ele><time>2026-04-22T15:07:38Z</time></trkpt><trkpt lat="42.75272561207141" lon="12.901176727943456"><ele>1149.0</ele><time>2026-04-22T15:07:39Z</time></trkpt><trkpt lat="42.75274493665638" lon="12.901301402305906"><ele>1148.5</ele><time>2026-04-22T15:07:40Z</time></trkpt><trkpt lat="42.7527612658312" lon="12.901436701193495"><ele>1148.0</ele><time>2026-04-22T15:07:41Z</time></trkpt><trkpt lat="42.75278767076144" lon="12.90158660739576"><ele>1148.0</ele><time>2026-04-22T15:07:42Z</time></trkpt><trkpt lat="42.752831248193104" lon="12.901729238453942"><ele>1148.0</ele><time>2026-04-22T15:07:43Z</time></trkpt><trkpt lat="42.75288981753068" lon="12.901868314545611"><ele>1148.0</ele><time>2026-04-22T15:07:44Z</time></trkpt><trkpt lat="42.752941786671315" lon="12.901999517291245"><ele>1148.0</ele><time>2026-04-22T15:07:45Z</time></trkpt><trkpt lat="42.75300704658314" lon="12.902134829239035"><ele>1148.3333333333335</ele><time>2026-04-22T15:07:46Z</time></trkpt><trkpt lat="42.753051921171604" lon="12.902260679581097"><ele>1148.6666666666667</ele><time>2026-04-22T15:07:47Z</time></trkpt><trkpt lat="42.75309816576771" lon="12.902364999366696"><ele>1149.0</ele><time>2026-04-22T15:07:48Z</time></trkpt><trkpt lat="42.75316142796646" lon="12.902411501567613"><ele>1149.3333333333333</ele><time>2026-04-22T15:07:49Z</time></trkpt><trkpt lat="42.7532302680702" lon="12.90245241332448"><ele>1149.6666666666665</ele><time>2026-04-22T15:07:50Z</time></trkpt><trkpt lat="42.7533041483327" lon="12.902490150782048"><ele>1150.0</ele><time>2026-04-22T15:07:51Z</time></trkpt><trkpt lat="42.75336496748107" lon="12.902516611243962"><ele>1150.0</ele><time>2026-04-22T15:07:52Z</time></trkpt><trkpt lat="42.75342849991952" lon="12.902550002397467"><ele>1150.0</ele><time>2026-04-22T15:07:53Z</time></trkpt><trkpt lat="42.753456087200696" lon="12.902638667900186"><ele>1150.0</ele><time>2026-04-22T15:07:54Z</time></trkpt><trkpt lat="42.75347978779845" lon="12.902734975260458"><ele>1150.0</ele><time>2026-04-22T15:07:55Z</time></trkpt><trkpt lat="42.75352731790837" lon="12.902864356456226"><ele>1150.0</ele><time>2026-04-22T15:07:56Z</time></trkpt><trkpt lat="42.75358610905036" lon="12.903006172570613"><ele>1150.0</ele><time>2026-04-22T15:07:57Z</time></trkpt><trkpt lat="42.7536589783985" lon="12.903143859580872"><ele>1147.25</ele><time>2026-04-22T15:07:58Z</time></trkpt><trkpt lat="42.75372867323827" lon="12.903293874896788"><ele>1144.5</ele><time>2026-04-22T15:07:59Z</time></trkpt><trkpt lat="42.75379914396277" lon="12.903447204846811"><ele>1141.75</ele><time>2026-04-22T15:08:00Z</time></trkpt><trkpt lat="42.75387664440868" lon="12.903589012421197"><ele>1139.0</ele><time>2026-04-22T15:08:01Z</time></trkpt><trkpt lat="42.753906509923965" lon="12.90374694992285"><ele>1139.0</ele><time>2026-04-22T15:08:02Z</time></trkpt><trkpt lat="42.75393096708016" lon="12.90391103198116"><ele>1139.0</ele><time>2026-04-22T15:08:03Z</time></trkpt><trkpt lat="42.75397004678553" lon="12.904075363283404"><ele>1139.0</ele><time>2026-04-22T15:08:04Z</time></trkpt><trkpt lat="42.75401156481162" lon="12.904233219134838"><ele>1139.0</ele><time>2026-04-22T15:08:05Z</time></trkpt><trkpt lat="42.754077587741705" lon="12.9043951373688"><ele>1138.5</ele><time>2026-04-22T15:08:06Z</time></trkpt><trkpt lat="42.75413200075445" lon="12.904564607761248"><ele>1138.0</ele><time>2026-04-22T15:08:07Z</time></trkpt><trkpt lat="42.75420459449219" lon="12.904730639013335"><ele>1137.5</ele><time>2026-04-22T15:08:08Z</time></trkpt><trkpt lat="42.7542747630118" lon="12.904893431004206"><ele>1137.0</ele><time>2026-04-22T15:08:09Z</time></trkpt><trkpt lat="42.754315900319654" lon="12.905040648478806"><ele>1136.5714285714284</ele><time>2026-04-22T15:08:10Z</time></trkpt><trkpt lat="42.754316381158056" lon="12.905157380491893"><ele>1136.142857142857</ele><time>2026-04-22T15:08:11Z</time></trkpt><trkpt lat="42.75431959620421" lon="12.905253648793563"><ele>1135.7142857142858</ele><time>2026-04-22T15:08:13Z</time></trkpt><trkpt lat="42.754326448930705" lon="12.905352574246598"><ele>1135.2857142857142</ele><time>2026-04-22T15:08:17Z</time></trkpt><trkpt lat="42.75433275933617" lon="12.905443671012183"><ele>1134.857142857143</ele><time>2026-04-22T15:08:19Z</time></trkpt><trkpt lat="42.754372677161264" lon="12.905512140987483"><ele>1134.4285714285713</ele><time>2026-04-22T15:08:20Z</time></trkpt><trkpt lat="42.75444864896963" lon="12.905553133082728"><ele>1134.0</ele><time>2026-04-22T15:08:21Z</time></trkpt><trkpt lat="42.75451260936664" lon="12.905618011514107"><ele>1134.0</ele><time>2026-04-22T15:08:22Z</time></trkpt><trkpt lat="42.754550574316696" lon="12.905725309695747"><ele>1134.0</ele><time>2026-04-22T15:08:23Z</time></trkpt><trkpt lat="42.75462359706634" lon="12.905825840699174"><ele>1134.0</ele><time>2026-04-22T15:08:24Z</time></trkpt><trkpt lat="42.7546885528325" lon="12.905954212160209"><ele>1134.0</ele><time>2026-04-22T15:08:25Z</time></trkpt><trkpt lat="42.75473079768383" lon="12.906089965765108"><ele>1134.0</ele><time>2026-04-22T15:08:26Z</time></trkpt><trkpt lat="42.75480521414745" lon="12.90617851333341"><ele>1133.8333333333333</ele><time>2026-04-22T15:08:27Z</time></trkpt><trkpt lat="42.754850255353055" lon="12.90626698885347"><ele>1133.6666666666667</ele><time>2026-04-22T15:08:28Z</time></trkpt><trkpt lat="42.754883847252515" lon="12.906370345543278"><ele>1133.5</ele><time>2026-04-22T15:08:29Z</time></trkpt><trkpt lat="42.75493071259563" lon="12.906443021079014"><ele>1133.3333333333335</ele><time>2026-04-22T15:08:30Z</time></trkpt><trkpt lat="42.75499617158783" lon="12.906491997630367"><ele>1133.1666666666667</ele><time>2026-04-22T15:08:31Z</time></trkpt><trkpt lat="42.75506826409642" lon="12.906572653108771"><ele>1133.0</ele><time>2026-04-22T15:08:32Z</time></trkpt><trkpt lat="42.75513200865374" lon="12.906636218163234"><ele>1133.0</ele><time>2026-04-22T15:08:33Z</time></trkpt><trkpt lat="42.755184544927566" lon="12.906690232212265"><ele>1133.0</ele><time>2026-04-22T15:08:34Z</time></trkpt><trkpt lat="42.755272820853946" lon="12.90672270153838"><ele>1133.0</ele><time>2026-04-22T15:08:36Z</time></trkpt><trkpt lat="42.75533803646194" lon="12.906598457612466"><ele>1133.0</ele><time>2026-04-22T15:08:38Z</time></trkpt><trkpt lat="42.75536244528396" lon="12.906417299640585"><ele>1133.0</ele><time>2026-04-22T15:08:40Z</time></trkpt><trkpt lat="42.755354359545926" lon="12.90632442042545"><ele>1131.8</ele><time>2026-04-22T15:08:41Z</time></trkpt><trkpt lat="42.75533868016482" lon="12.906226901514012"><ele>1130.6</ele><time>2026-04-22T15:08:42Z</time></trkpt><trkpt lat="42.755318713577466" lon="12.906077302564045"><ele>1129.4</ele><time>2026-04-22T15:08:44Z</time></trkpt><trkpt lat="42.75532458074741" lon="12.905971738276689"><ele>1128.2</ele><time>2026-04-22T15:08:46Z</time></trkpt><trkpt lat="42.755315959294684" lon="12.905822718202067"><ele>1127.0</ele><time>2026-04-22T15:08:48Z</time></trkpt><trkpt lat="42.75538690096389" lon="12.9056639716238"><ele>1127.0</ele><time>2026-04-22T15:08:50Z</time></trkpt><trkpt lat="42.75543937460528" lon="12.905569530324913"><ele>1127.0</ele><time>2026-04-22T15:08:51Z</time></trkpt><trkpt lat="42.755494329779545" lon="12.905472162798278"><ele>1127.0</ele><time>2026-04-22T15:08:52Z</time></trkpt><trkpt lat="42.755544380520966" lon="12.905342803637827"><ele>1127.0</ele><time>2026-04-22T15:08:53Z</time></trkpt><trkpt lat="42.75562794629463" lon="12.905250437303508"><ele>1127.0</ele><time>2026-04-22T15:08:54Z</time></trkpt><trkpt lat="42.755672716977536" lon="12.90514559183007"><ele>1128.0</ele><time>2026-04-22T15:08:55Z</time></trkpt><trkpt lat="42.75573764007545" lon="12.90502914021056"><ele>1129.0</ele><time>2026-04-22T15:08:56Z</time></trkpt><trkpt lat="42.75580236921618" lon="12.904901619428875"><ele>1130.0</ele><time>2026-04-22T15:08:57Z</time></trkpt><trkpt lat="42.75585688329049" lon="12.904783003086594"><ele>1131.0</ele><time>2026-04-22T15:08:58Z</time></trkpt><trkpt lat="42.75589119039908" lon="12.9046668074287"><ele>1132.0</ele><time>2026-04-22T15:08:59Z</time></trkpt><trkpt lat="42.75592272311058" lon="12.904558300204943"><ele>1132.0</ele><time>2026-04-22T15:09:00Z</time></trkpt><trkpt lat="42.75596056925829" lon="12.904470202560201"><ele>1132.0</ele><time>2026-04-22T15:09:01Z</time></trkpt><trkpt lat="42.75600703400181" lon="12.904388584898275"><ele>1132.0</ele><time>2026-04-22T15:09:02Z</time></trkpt><trkpt lat="42.756052601601084" lon="12.904302665603318"><ele>1132.0</ele><time>2026-04-22T15:09:03Z</time></trkpt><trkpt lat="42.756093299733166" lon="12.904225998110306"><ele>1132.0</ele><time>2026-04-22T15:09:04Z</time></trkpt><trkpt lat="42.756159308375004" lon="12.904086619864366"><ele>1132.0</ele><time>2026-04-22T15:09:06Z</time></trkpt><trkpt lat="42.75618286356921" lon="12.903904923665364"><ele>1132.0</ele><time>2026-04-22T15:09:08Z</time></trkpt><trkpt lat="42.756249554811376" lon="12.903761481381421"><ele>1132.0</ele><time>2026-04-22T15:09:10Z</time></trkpt><trkpt lat="42.75629773510451" lon="12.903682301971067"><ele>1132.0</ele><time>2026-04-22T15:09:11Z</time></trkpt><trkpt lat="42.75636126016676" lon="12.903646031909126"><ele>1132.0</ele><time>2026-04-22T15:09:15Z</time></trkpt><trkpt lat="42.75643418498925" lon="12.903593421698979"><ele>1132.0</ele><time>2026-04-22T15:09:17Z</time></trkpt><trkpt lat="42.7565391426254" lon="12.90357313996328"><ele>1132.0</ele><time>2026-04-22T15:09:19Z</time></trkpt><trkpt lat="42.756618449784405" lon="12.903655510807914"><ele>1132.0</ele><time>2026-04-22T15:09:21Z</time></trkpt><trkpt lat="42.75665925801511" lon="12.903803792999572"><ele>1132.0</ele><time>2026-04-22T15:09:23Z</time></trkpt><trkpt lat="42.75669249330856" lon="12.903911979359568"><ele>1132.0</ele><time>2026-04-22T15:09:24Z</time></trkpt><trkpt lat="42.756743153485445" lon="12.904021194095284"><ele>1132.0</ele><time>2026-04-22T15:09:25Z</time></trkpt><trkpt lat="42.756791101436946" lon="12.904131520922496"><ele>1132.0</ele><time>2026-04-22T15:09:26Z</time></trkpt><trkpt lat="42.75684193953937" lon="12.904228311461452"><ele>1132.0</ele><time>2026-04-22T15:09:27Z</time></trkpt><trkpt lat="42.75690966826761" lon="12.904282383543457"><ele>1132.0</ele><time>2026-04-22T15:09:28Z</time></trkpt><trkpt lat="42.75700283363466" lon="12.904327098920506"><ele>1132.0</ele><time>2026-04-22T15:09:29Z</time></trkpt><trkpt lat="42.757103738028306" lon="12.904335743808716"><ele>1132.0</ele><time>2026-04-22T15:09:30Z</time></trkpt><trkpt lat="42.7571782778059" lon="12.904367779321609"><ele>1132.0</ele><time>2026-04-22T15:09:31Z</time></trkpt><trkpt lat="42.757265013200175" lon="12.904363842580116"><ele>1132.3333333333333</ele><time>2026-04-22T15:09:32Z</time></trkpt><trkpt lat="42.75736034932176" lon="12.904357592705427"><ele>1132.6666666666665</ele><time>2026-04-22T15:09:33Z</time></trkpt><trkpt lat="42.757439400715874" lon="12.904367324805499"><ele>1133.0</ele><time>2026-04-22T15:09:34Z</time></trkpt><trkpt lat="42.757531334127066" lon="12.90438906185947"><ele>1133.3333333333333</ele><time>2026-04-22T15:09:35Z</time></trkpt><trkpt lat="42.75762816958399" lon="12.90439980876859"><ele>1133.6666666666667</ele><time>2026-04-22T15:09:36Z</time></trkpt><trkpt lat="42.75771006680084" lon="12.904409825362036"><ele>1134.0</ele><time>2026-04-22T15:09:37Z</time></trkpt><trkpt lat="42.75778641581942" lon="12.90443036825714"><ele>1135.6666666666667</ele><time>2026-04-22T15:09:38Z</time></trkpt><trkpt lat="42.757850962469455" lon="12.904476706238617"><ele>1137.3333333333333</ele><time>2026-04-22T15:09:39Z</time></trkpt><trkpt lat="42.757933286469886" lon="12.904510668945603"><ele>1139.0</ele><time>2026-04-22T15:09:40Z</time></trkpt><trkpt lat="42.75800653475846" lon="12.904581116622568"><ele>1140.6666666666665</ele><time>2026-04-22T15:09:41Z</time></trkpt><trkpt lat="42.75809266203433" lon="12.904615190313782"><ele>1142.3333333333333</ele><time>2026-04-22T15:09:42Z</time></trkpt><trkpt lat="42.7581823596467" lon="12.904652704577744"><ele>1144.0</ele><time>2026-04-22T15:09:43Z</time></trkpt><trkpt lat="42.758257436698685" lon="12.904677149638854"><ele>1144.0</ele><time>2026-04-22T15:09:44Z</time></trkpt><trkpt lat="42.7583310444576" lon="12.904682093394667"><ele>1144.0</ele><time>2026-04-22T15:09:45Z</time></trkpt><trkpt lat="42.75843226017259" lon="12.904601265858249"><ele>1144.0</ele><time>2026-04-22T15:09:47Z</time></trkpt><trkpt lat="42.758489234750286" lon="12.904526327251627"><ele>1144.0</ele><time>2026-04-22T15:09:48Z</time></trkpt><trkpt lat="42.75853634561372" lon="12.904440156859627"><ele>1144.0</ele><time>2026-04-22T15:09:49Z</time></trkpt><trkpt lat="42.7585904897744" lon="12.904321259050434"><ele>1144.6000000000001</ele><time>2026-04-22T15:09:50Z</time></trkpt><trkpt lat="42.75865648822119" lon="12.904197138480512"><ele>1145.2</ele><time>2026-04-22T15:09:51Z</time></trkpt><trkpt lat="42.758733854640546" lon="12.90410999254995"><ele>1145.8000000000002</ele><time>2026-04-22T15:09:52Z</time></trkpt><trkpt lat="42.758795860421294" lon="12.904025745179927"><ele>1146.4</ele><time>2026-04-22T15:09:53Z</time></trkpt><trkpt lat="42.758863189215916" lon="12.90400904663531"><ele>1147.0</ele><time>2026-04-22T15:09:54Z</time></trkpt><trkpt lat="42.758947575000285" lon="12.903940917316607"><ele>1147.0</ele><time>2026-04-22T15:09:55Z</time></trkpt><trkpt lat="42.75900798436218" lon="12.903878420542824"><ele>1147.0</ele><time>2026-04-22T15:09:56Z</time></trkpt><trkpt lat="42.75907187913708" lon="12.903805360050056"><ele>1147.0</ele><time>2026-04-22T15:09:57Z</time></trkpt><trkpt lat="42.75913137979454" lon="12.903738959774905"><ele>1147.0</ele><time>2026-04-22T15:09:58Z</time></trkpt><trkpt lat="42.75920170686041" lon="12.903661358928973"><ele>1147.0</ele><time>2026-04-22T15:09:59Z</time></trkpt><trkpt lat="42.75926468629803" lon="12.903529652715484"><ele>1147.0</ele><time>2026-04-22T15:10:00Z</time></trkpt><trkpt lat="42.75934081850931" lon="12.903421313680195"><ele>1146.6666666666665</ele><time>2026-04-22T15:10:01Z</time></trkpt><trkpt lat="42.759407664806915" lon="12.903311342420418"><ele>1146.3333333333333</ele><time>2026-04-22T15:10:02Z</time></trkpt><trkpt lat="42.759471483687044" lon="12.903231741309279"><ele>1146.0</ele><time>2026-04-22T15:10:03Z</time></trkpt><trkpt lat="42.759545440611895" lon="12.903162708492717"><ele>1145.6666666666667</ele><time>2026-04-22T15:10:04Z</time></trkpt><trkpt lat="42.75961491726833" lon="12.903079101695967"><ele>1145.3333333333335</ele><time>2026-04-22T15:10:05Z</time></trkpt><trkpt lat="42.7596468524133" lon="12.902992654409982"><ele>1145.0</ele><time>2026-04-22T15:10:06Z</time></trkpt><trkpt lat="42.759664364614956" lon="12.90287950425394"><ele>1145.0</ele><time>2026-04-22T15:10:07Z</time></trkpt><trkpt lat="42.75967538231371" lon="12.902777301440643"><ele>1145.0</ele><time>2026-04-22T15:10:08Z</time></trkpt><trkpt lat="42.75970433917606" lon="12.902677028753907"><ele>1145.0</ele><time>2026-04-22T15:10:09Z</time></trkpt><trkpt lat="42.75976266393861" lon="12.902586727583348"><ele>1145.0</ele><time>2026-04-22T15:10:10Z</time></trkpt><trkpt lat="42.75982790642096" lon="12.902496256371704"><ele>1145.0</ele><time>2026-04-22T15:10:11Z</time></trkpt><trkpt lat="42.75990549565216" lon="12.902411913486624"><ele>1145.0</ele><time>2026-04-22T15:10:12Z</time></trkpt><trkpt lat="42.75997228363491" lon="12.902352359358607"><ele>1144.6</ele><time>2026-04-22T15:10:13Z</time></trkpt><trkpt lat="42.76005236130014" lon="12.90229109700731"><ele>1144.2</ele><time>2026-04-22T15:10:15Z</time></trkpt><trkpt lat="42.7601552315867" lon="12.902240641450293"><ele>1143.8</ele><time>2026-04-22T15:10:18Z</time></trkpt><trkpt lat="42.76023415950302" lon="12.902209935927674"><ele>1143.4</ele><time>2026-04-22T15:10:20Z</time></trkpt><trkpt lat="42.7603332397743" lon="12.90212627498921"><ele>1143.0</ele><time>2026-04-22T15:10:22Z</time></trkpt><trkpt lat="42.76039578768852" lon="12.902052983671476"><ele>1143.0</ele><time>2026-04-22T15:10:23Z</time></trkpt><trkpt lat="42.76047515383137" lon="12.901971284687516"><ele>1143.0</ele><time>2026-04-22T15:10:24Z</time></trkpt><trkpt lat="42.76055133031813" lon="12.901876753163291"><ele>1143.0</ele><time>2026-04-22T15:10:25Z</time></trkpt><trkpt lat="42.760650672189676" lon="12.901790164050576"><ele>1143.0</ele><time>2026-04-22T15:10:26Z</time></trkpt><trkpt lat="42.76074436719732" lon="12.901696229676467"><ele>1143.0</ele><time>2026-04-22T15:10:27Z</time></trkpt><trkpt lat="42.76084533634671" lon="12.901601594520287"><ele>1143.5</ele><time>2026-04-22T15:10:28Z</time></trkpt><trkpt lat="42.76093014394322" lon="12.901478242927329"><ele>1144.0</ele><time>2026-04-22T15:10:29Z</time></trkpt><trkpt lat="42.760997139835986" lon="12.90132479208035"><ele>1144.5</ele><time>2026-04-22T15:10:30Z</time></trkpt><trkpt lat="42.76105441560603" lon="12.901170626664827"><ele>1145.0</ele><time>2026-04-22T15:10:31Z</time></trkpt><trkpt lat="42.7611035259769" lon="12.901034324293988"><ele>1145.0</ele><time>2026-04-22T15:10:32Z</time></trkpt><trkpt lat="42.76116842717535" lon="12.900916463386746"><ele>1145.0</ele><time>2026-04-22T15:10:33Z</time></trkpt><trkpt lat="42.761242303891265" lon="12.90080810431863"><ele>1145.0</ele><time>2026-04-22T15:10:34Z</time></trkpt><trkpt lat="42.76132099623524" lon="12.900724502553892"><ele>1145.0</ele><time>2026-04-22T15:10:35Z</time></trkpt><trkpt lat="42.76139618946677" lon="12.900614516328806"><ele>1145.0</ele><time>2026-04-22T15:10:36Z</time></trkpt><trkpt lat="42.76148838104319" lon="12.900526986833844"><ele>1145.0</ele><time>2026-04-22T15:10:37Z</time></trkpt><trkpt lat="42.76157302400407" lon="12.900406879778178"><ele>1145.0</ele><time>2026-04-22T15:10:38Z</time></trkpt><trkpt lat="42.7616713935362" lon="12.900297399962241"><ele>1145.0</ele><time>2026-04-22T15:10:39Z</time></trkpt><trkpt lat="42.76177960084519" lon="12.900199627281047"><ele>1145.0</ele><time>2026-04-22T15:10:40Z</time></trkpt><trkpt lat="42.76189058161058" lon="12.900102062130422"><ele>1145.0</ele><time>2026-04-22T15:10:41Z</time></trkpt><trkpt lat="42.7619941002708" lon="12.9000014129815"><ele>1145.0</ele><time>2026-04-22T15:10:42Z</time></trkpt><trkpt lat="42.76207915379735" lon="12.89988785805476"><ele>1145.0</ele><time>2026-04-22T15:10:43Z</time></trkpt><trkpt lat="42.76215852048249" lon="12.899795746137576"><ele>1145.0</ele><time>2026-04-22T15:10:44Z</time></trkpt><trkpt lat="42.76221946114779" lon="12.89970551181559"><ele>1145.0</ele><time>2026-04-22T15:10:45Z</time></trkpt><trkpt lat="42.76228698998487" lon="12.89962248395977"><ele>1145.0</ele><time>2026-04-22T15:10:46Z</time></trkpt><trkpt lat="42.76238232164586" lon="12.89957810084"><ele>1145.0</ele><time>2026-04-22T15:10:47Z</time></trkpt><trkpt lat="42.76246643364321" lon="12.89949319927695"><ele>1145.0</ele><time>2026-04-22T15:10:48Z</time></trkpt><trkpt lat="42.762554968055156" lon="12.899402663052088"><ele>1145.0</ele><time>2026-04-22T15:10:49Z</time></trkpt><trkpt lat="42.7626431261425" lon="12.899313331818616"><ele>1145.0</ele><time>2026-04-22T15:10:50Z</time></trkpt><trkpt lat="42.76273274020131" lon="12.899264857330657"><ele>1144.8333333333335</ele><time>2026-04-22T15:10:51Z</time></trkpt><trkpt lat="42.76281653657304" lon="12.899211551001635"><ele>1144.6666666666667</ele><time>2026-04-22T15:10:52Z</time></trkpt><trkpt lat="42.76289849317853" lon="12.899150134213334"><ele>1144.5</ele><time>2026-04-22T15:10:53Z</time></trkpt><trkpt lat="42.762981436329326" lon="12.899092294571746"><ele>1144.3333333333333</ele><time>2026-04-22T15:10:54Z</time></trkpt><trkpt lat="42.76306509229346" lon="12.899063306036636"><ele>1144.1666666666665</ele><time>2026-04-22T15:10:55Z</time></trkpt><trkpt lat="42.76312762975703" lon="12.899015883335297"><ele>1144.0</ele><time>2026-04-22T15:10:56Z</time></trkpt><trkpt lat="42.76318741130124" lon="12.898985434492078"><ele>1144.0</ele><time>2026-04-22T15:10:57Z</time></trkpt><trkpt lat="42.76329266411977" lon="12.898935267118986"><ele>1144.0</ele><time>2026-04-22T15:10:59Z</time></trkpt><trkpt lat="42.763377335565174" lon="12.898892743649949"><ele>1144.0</ele><time>2026-04-22T15:11:01Z</time></trkpt><trkpt lat="42.76345865767027" lon="12.898849942797296"><ele>1144.0</ele><time>2026-04-22T15:11:02.999Z</time></trkpt><trkpt lat="42.763543318995964" lon="12.89882370415328"><ele>1144.0</ele><time>2026-04-22T15:11:04.999Z</time></trkpt><trkpt lat="42.76362258905474" lon="12.898821673074956"><ele>1142.0</ele><time>2026-04-22T15:11:05.999Z</time></trkpt><trkpt lat="42.7637249451172" lon="12.89879029230657"><ele>1140.0</ele><time>2026-04-22T15:11:07.999Z</time></trkpt><trkpt lat="42.763817194272235" lon="12.898768049454533"><ele>1138.0</ele><time>2026-04-22T15:11:09.999Z</time></trkpt><trkpt lat="42.76392364961193" lon="12.898766436313824"><ele>1136.0</ele><time>2026-04-22T15:11:11.999Z</time></trkpt><trkpt lat="42.764016570039004" lon="12.898826931298439"><ele>1134.0</ele><time>2026-04-22T15:11:13.999Z</time></trkpt><trkpt lat="42.764129933474074" lon="12.898894096238703"><ele>1134.0</ele><time>2026-04-22T15:11:15.999Z</time></trkpt><trkpt lat="42.764206864815286" lon="12.8989261888539"><ele>1134.0</ele><time>2026-04-22T15:11:16.999Z</time></trkpt><trkpt lat="42.76427922659179" lon="12.89895125407755"><ele>1134.0</ele><time>2026-04-22T15:11:17.999Z</time></trkpt><trkpt lat="42.764348371753115" lon="12.898973743968046"><ele>1134.0</ele><time>2026-04-22T15:11:19.999Z</time></trkpt><trkpt lat="42.764418320468494" lon="12.898995103540058"><ele>1134.0</ele><time>2026-04-22T15:11:23.999Z</time></trkpt><trkpt lat="42.764486581409784" lon="12.898966836381778"><ele>1134.0</ele><time>2026-04-22T15:11:24.999Z</time></trkpt><trkpt lat="42.76457811865507" lon="12.899049269504763"><ele>1133.6666666666667</ele><time>2026-04-22T15:11:26.999Z</time></trkpt><trkpt lat="42.76464027867008" lon="12.899098521177507"><ele>1133.3333333333333</ele><time>2026-04-22T15:11:27.999Z</time></trkpt><trkpt lat="42.764750084630705" lon="12.89916336971744"><ele>1133.0</ele><time>2026-04-22T15:11:29.999Z</time></trkpt><trkpt lat="42.76482307509253" lon="12.899192058350552"><ele>1132.6666666666665</ele><time>2026-04-22T15:11:30.999Z</time></trkpt><trkpt lat="42.76490116083871" lon="12.899200487993843"><ele>1132.3333333333333</ele><time>2026-04-22T15:11:32.999Z</time></trkpt><trkpt lat="42.76498193939172" lon="12.89921874293307"><ele>1132.0</ele><time>2026-04-22T15:11:34.999Z</time></trkpt><trkpt lat="42.76505891635503" lon="12.899090610900638"><ele>1132.0</ele><time>2026-04-22T15:11:35.999Z</time></trkpt><trkpt lat="42.76515648197603" lon="12.899122971657766"><ele>1132.0</ele><time>2026-04-22T15:11:37.999Z</time></trkpt><trkpt lat="42.76524881048002" lon="12.899152698495692"><ele>1132.0</ele><time>2026-04-22T15:11:39.999Z</time></trkpt><trkpt lat="42.76550368050914" lon="12.899649440063982"><ele>1130.4</ele><time>2026-04-22T15:11:41.999Z</time></trkpt><trkpt lat="42.76538343459817" lon="12.899793517276269"><ele>1128.8000000000002</ele><time>2026-04-22T15:11:48.999Z</time></trkpt><trkpt lat="42.76538666018175" lon="12.899895191596286"><ele>1127.2</ele><time>2026-04-22T15:11:50.999Z</time></trkpt><trkpt lat="42.765453937155414" lon="12.899963540341057"><ele>1125.6000000000001</ele><time>2026-04-22T15:11:53.999Z</time></trkpt><trkpt lat="42.76552718590681" lon="12.900055593183206"><ele>1124.0</ele><time>2026-04-22T15:11:56.999Z</time></trkpt><trkpt lat="42.76561737283719" lon="12.900106445676593"><ele>1123.6000000000001</ele><time>2026-04-22T15:11:58.999Z</time></trkpt><trkpt lat="42.76571879630134" lon="12.900191862246677"><ele>1123.2</ele><time>2026-04-22T15:12:00.999Z</time></trkpt><trkpt lat="42.76577497507761" lon="12.900239657982215"><ele>1122.8000000000002</ele><time>2026-04-22T15:12:01.999Z</time></trkpt><trkpt lat="42.76583153761798" lon="12.900282001043486"><ele>1122.4</ele><time>2026-04-22T15:12:02.999Z</time></trkpt><trkpt lat="42.76592580866165" lon="12.900363988245106"><ele>1122.0</ele><time>2026-04-22T15:12:04.999Z</time></trkpt><trkpt lat="42.76601609119454" lon="12.900435137682601"><ele>1122.2</ele><time>2026-04-22T15:12:06.999Z</time></trkpt><trkpt lat="42.76611122836497" lon="12.900549783891506"><ele>1122.4</ele><time>2026-04-22T15:12:08.999Z</time></trkpt><trkpt lat="42.766193364977596" lon="12.900629206487578"><ele>1122.6</ele><time>2026-04-22T15:12:10.999Z</time></trkpt><trkpt lat="42.766259052718276" lon="12.900706190677585"><ele>1122.8</ele><time>2026-04-22T15:12:12.999Z</time></trkpt><trkpt lat="42.76632052367892" lon="12.900745864891936"><ele>1123.0</ele><time>2026-04-22T15:12:15.999Z</time></trkpt><trkpt lat="42.76641698225866" lon="12.900777272174047"><ele>1123.0</ele><time>2026-04-22T15:12:17.999Z</time></trkpt><trkpt lat="42.766532523758045" lon="12.900828258645399"><ele>1123.0</ele><time>2026-04-22T15:12:19.999Z</time></trkpt><trkpt lat="42.76664315386443" lon="12.900769755335082"><ele>1123.0</ele><time>2026-04-22T15:12:21.999Z</time></trkpt><trkpt lat="42.76674065237903" lon="12.900724844580683"><ele>1123.0</ele><time>2026-04-22T15:12:23.999Z</time></trkpt><trkpt lat="42.76680653454687" lon="12.90071065613302"><ele>1123.0</ele><time>2026-04-22T15:12:24.999Z</time></trkpt><trkpt lat="42.76687997676653" lon="12.900689096941987"><ele>1123.4285714285713</ele><time>2026-04-22T15:12:25.999Z</time></trkpt><trkpt lat="42.766962735112976" lon="12.90066556480447"><ele>1123.857142857143</ele><time>2026-04-22T15:12:26.999Z</time></trkpt><trkpt lat="42.76703677326899" lon="12.900665041285382"><ele>1124.2857142857142</ele><time>2026-04-22T15:12:27.999Z</time></trkpt><trkpt lat="42.76709964057366" lon="12.900705568276255"><ele>1124.7142857142858</ele><time>2026-04-22T15:12:28.999Z</time></trkpt><trkpt lat="42.7671607733693" lon="12.900738234286994"><ele>1125.142857142857</ele><time>2026-04-22T15:12:29.999Z</time></trkpt><trkpt lat="42.7672245884632" lon="12.900779026974028"><ele>1125.5714285714284</ele><time>2026-04-22T15:12:30.999Z</time></trkpt><trkpt lat="42.76729340230554" lon="12.900813617725698"><ele>1126.0</ele><time>2026-04-22T15:12:31.999Z</time></trkpt><trkpt lat="42.767367296823764" lon="12.900801233165668"><ele>1126.0</ele><time>2026-04-22T15:12:32.999Z</time></trkpt><trkpt lat="42.76743806344395" lon="12.900811047011306"><ele>1126.0</ele><time>2026-04-22T15:12:33.999Z</time></trkpt><trkpt lat="42.76751377661596" lon="12.900836045368463"><ele>1126.0</ele><time>2026-04-22T15:12:34.999Z</time></trkpt><trkpt lat="42.76758840218761" lon="12.900819730501125"><ele>1126.0</ele><time>2026-04-22T15:12:35.999Z</time></trkpt><trkpt lat="42.76765341782653" lon="12.900810766413798"><ele>1126.0</ele><time>2026-04-22T15:12:36.999Z</time></trkpt><trkpt lat="42.76771424006437" lon="12.90078860420951"><ele>1126.0</ele><time>2026-04-22T15:12:37.999Z</time></trkpt><trkpt lat="42.76776876655691" lon="12.900730023605988"><ele>1126.0</ele><time>2026-04-22T15:12:38.999Z</time></trkpt><trkpt lat="42.76784610146343" lon="12.900708287716999"><ele>1125.8333333333333</ele><time>2026-04-22T15:12:39.999Z</time></trkpt><trkpt lat="42.76790458073136" lon="12.900765919154573"><ele>1125.6666666666665</ele><time>2026-04-22T15:12:41Z</time></trkpt><trkpt lat="42.767976912294785" lon="12.90078339505773"><ele>1125.5</ele><time>2026-04-22T15:12:42Z</time></trkpt><trkpt lat="42.768064582684445" lon="12.900787097728635"><ele>1125.3333333333333</ele><time>2026-04-22T15:12:43Z</time></trkpt><trkpt lat="42.76814355113855" lon="12.900769774168804"><ele>1125.1666666666667</ele><time>2026-04-22T15:12:44Z</time></trkpt><trkpt lat="42.76823214796586" lon="12.900747521524172"><ele>1125.0</ele><time>2026-04-22T15:12:45Z</time></trkpt><trkpt lat="42.768311810086956" lon="12.900759787935922"><ele>1125.0</ele><time>2026-04-22T15:12:46Z</time></trkpt><trkpt lat="42.76842414724529" lon="12.900801922041289"><ele>1125.0</ele><time>2026-04-22T15:12:48Z</time></trkpt><trkpt lat="42.76851068769359" lon="12.900901600510526"><ele>1125.0</ele><time>2026-04-22T15:12:50Z</time></trkpt><trkpt lat="42.768574586794976" lon="12.900949557355236"><ele>1125.0</ele><time>2026-04-22T15:12:51Z</time></trkpt><trkpt lat="42.76870848056561" lon="12.90100396263038"><ele>1125.0</ele><time>2026-04-22T15:12:53Z</time></trkpt><trkpt lat="42.76878829889187" lon="12.901006259003653"><ele>1122.8333333333333</ele><time>2026-04-22T15:12:54Z</time></trkpt><trkpt lat="42.76887744888553" lon="12.901030241930544"><ele>1120.6666666666667</ele><time>2026-04-22T15:12:55Z</time></trkpt><trkpt lat="42.768951048538035" lon="12.901035830729572"><ele>1118.5</ele><time>2026-04-22T15:12:56Z</time></trkpt><trkpt lat="42.7690229586791" lon="12.90103473333202"><ele>1116.3333333333335</ele><time>2026-04-22T15:12:57Z</time></trkpt><trkpt lat="42.76910113949486" lon="12.90100403651032"><ele>1114.1666666666667</ele><time>2026-04-22T15:12:58Z</time></trkpt><trkpt lat="42.769169319535735" lon="12.900989746677773"><ele>1112.0</ele><time>2026-04-22T15:12:59Z</time></trkpt><trkpt lat="42.76923861373064" lon="12.900969818590381"><ele>1112.0</ele><time>2026-04-22T15:13:00Z</time></trkpt><trkpt lat="42.76930770910215" lon="12.900954540583616"><ele>1112.0</ele><time>2026-04-22T15:13:01Z</time></trkpt><trkpt lat="42.76937187823096" lon="12.900989238683572"><ele>1112.0</ele><time>2026-04-22T15:13:02Z</time></trkpt><trkpt lat="42.769443440421874" lon="12.900998297865089"><ele>1112.0</ele><time>2026-04-22T15:13:03Z</time></trkpt><trkpt lat="42.76956816604021" lon="12.90103415308337"><ele>1112.0</ele><time>2026-04-22T15:13:05Z</time></trkpt><trkpt lat="42.76969146603431" lon="12.901021698043914"><ele>1109.6</ele><time>2026-04-22T15:13:07Z</time></trkpt><trkpt lat="42.769788910285385" lon="12.900990806797994"><ele>1107.2</ele><time>2026-04-22T15:13:09Z</time></trkpt><trkpt lat="42.76988630065758" lon="12.900997502702507"><ele>1104.8</ele><time>2026-04-22T15:13:11Z</time></trkpt><trkpt lat="42.76998197340052" lon="12.901011934211388"><ele>1102.4</ele><time>2026-04-22T15:13:13Z</time></trkpt><trkpt lat="42.77008519927743" lon="12.901008725428996"><ele>1100.0</ele><time>2026-04-22T15:13:15Z</time></trkpt><trkpt lat="42.77019430016307" lon="12.90104665643274"><ele>1098.6666666666667</ele><time>2026-04-22T15:13:17Z</time></trkpt><trkpt lat="42.77026865051746" lon="12.901101941305393"><ele>1097.3333333333335</ele><time>2026-04-22T15:13:19Z</time></trkpt><trkpt lat="42.77031117792941" lon="12.901200220286384"><ele>1096.0</ele><time>2026-04-22T15:13:21Z</time></trkpt><trkpt lat="42.77040311861955" lon="12.901295807467715"><ele>1094.6666666666667</ele><time>2026-04-22T15:13:23Z</time></trkpt><trkpt lat="42.770437621255894" lon="12.901372447395522"><ele>1093.3333333333333</ele><time>2026-04-22T15:13:24Z</time></trkpt><trkpt lat="42.77048289034222" lon="12.901441648650259"><ele>1092.0</ele><time>2026-04-22T15:13:25Z</time></trkpt><trkpt lat="42.770523040856254" lon="12.901509967409414"><ele>1092.0</ele><time>2026-04-22T15:13:26Z</time></trkpt><trkpt lat="42.77057982591623" lon="12.90156074381984"><ele>1092.0</ele><time>2026-04-22T15:13:27Z</time></trkpt><trkpt lat="42.77063118009759" lon="12.90162473669478"><ele>1092.0</ele><time>2026-04-22T15:13:28Z</time></trkpt><trkpt lat="42.770685553857426" lon="12.901678880221972"><ele>1092.0</ele><time>2026-04-22T15:13:29Z</time></trkpt><trkpt lat="42.77074806431874" lon="12.901742090636446"><ele>1092.0</ele><time>2026-04-22T15:13:30Z</time></trkpt><trkpt lat="42.7708111985977" lon="12.901806346878573"><ele>1092.0</ele><time>2026-04-22T15:13:31Z</time></trkpt><trkpt lat="42.77085142721447" lon="12.901876134199545"><ele>1092.0</ele><time>2026-04-22T15:13:32Z</time></trkpt><trkpt lat="42.7709107559701" lon="12.90191428660824"><ele>1092.0</ele><time>2026-04-22T15:13:33Z</time></trkpt><trkpt lat="42.77098268051505" lon="12.902053912198518"><ele>1092.0</ele><time>2026-04-22T15:13:35Z</time></trkpt><trkpt lat="42.770985061883266" lon="12.90216897893105"><ele>1092.0</ele><time>2026-04-22T15:13:37Z</time></trkpt><trkpt lat="42.770966906693005" lon="12.902334036578807"><ele>1092.0</ele><time>2026-04-22T15:13:39Z</time></trkpt><trkpt lat="42.77096504569005" lon="12.902435943293863"><ele>1092.0</ele><time>2026-04-22T15:13:40Z</time></trkpt><trkpt lat="42.770969146524756" lon="12.902532840454601"><ele>1091.6</ele><time>2026-04-22T15:13:41Z</time></trkpt><trkpt lat="42.77098383398739" lon="12.902618603289197"><ele>1091.2</ele><time>2026-04-22T15:13:42Z</time></trkpt><trkpt lat="42.77105330276918" lon="12.902780951483042"><ele>1090.8</ele><time>2026-04-22T15:13:44Z</time></trkpt><trkpt lat="42.77110586152778" lon="12.902877047634284"><ele>1090.4</ele><time>2026-04-22T15:13:45Z</time></trkpt><trkpt lat="42.77113826238934" lon="12.90299428184214"><ele>1090.0</ele><time>2026-04-22T15:13:46Z</time></trkpt><trkpt lat="42.77117706309244" lon="12.903095882470344"><ele>1089.4285714285716</ele><time>2026-04-22T15:13:47Z</time></trkpt><trkpt lat="42.771230870421476" lon="12.903183242614213"><ele>1088.857142857143</ele><time>2026-04-22T15:13:48Z</time></trkpt><trkpt lat="42.771263937268934" lon="12.903273725739036"><ele>1088.2857142857142</ele><time>2026-04-22T15:13:49Z</time></trkpt><trkpt lat="42.77129635196794" lon="12.903358683882523"><ele>1087.7142857142858</ele><time>2026-04-22T15:13:50Z</time></trkpt><trkpt lat="42.77128967168062" lon="12.9034490453994"><ele>1087.142857142857</ele><time>2026-04-22T15:13:51Z</time></trkpt><trkpt lat="42.77129526635191" lon="12.90353769045885"><ele>1086.5714285714287</ele><time>2026-04-22T15:13:52Z</time></trkpt><trkpt lat="42.77126179503081" lon="12.903611945949113"><ele>1086.0</ele><time>2026-04-22T15:13:53Z</time></trkpt><trkpt lat="42.77123350257154" lon="12.903716162633467"><ele>1084.8333333333333</ele><time>2026-04-22T15:13:54Z</time></trkpt><trkpt lat="42.771218821193465" lon="12.90381819606479"><ele>1083.6666666666667</ele><time>2026-04-22T15:13:55Z</time></trkpt><trkpt lat="42.771255758197704" lon="12.903932673593559"><ele>1082.5</ele><time>2026-04-22T15:13:56Z</time></trkpt><trkpt lat="42.7712872739556" lon="12.90405332781966"><ele>1081.3333333333335</ele><time>2026-04-22T15:13:57Z</time></trkpt><trkpt lat="42.77131167240048" lon="12.90414738538601"><ele>1080.1666666666667</ele><time>2026-04-22T15:13:58Z</time></trkpt><trkpt lat="42.77134605996103" lon="12.904250387074624"><ele>1079.0</ele><time>2026-04-22T15:13:59Z</time></trkpt><trkpt lat="42.771390756126216" lon="12.904354658116963"><ele>1077.5</ele><time>2026-04-22T15:13:59.999Z</time></trkpt><trkpt lat="42.77144321350946" lon="12.904438691855411"><ele>1076.0</ele><time>2026-04-22T15:14:00.999Z</time></trkpt><trkpt lat="42.77148113193983" lon="12.904513361894624"><ele>1074.5</ele><time>2026-04-22T15:14:01.999Z</time></trkpt><trkpt lat="42.771523633357255" lon="12.904602282688819"><ele>1073.0</ele><time>2026-04-22T15:14:03Z</time></trkpt><trkpt lat="42.77155110140098" lon="12.904683864466485"><ele>1071.5</ele><time>2026-04-22T15:14:03.999Z</time></trkpt><trkpt lat="42.771585920869775" lon="12.90478138574708"><ele>1070.0</ele><time>2026-04-22T15:14:04.999Z</time></trkpt><trkpt lat="42.77162321049939" lon="12.904896804361934"><ele>1070.0</ele><time>2026-04-22T15:14:05.999Z</time></trkpt><trkpt lat="42.77165758988193" lon="12.905006781995452"><ele>1070.0</ele><time>2026-04-22T15:14:06.999Z</time></trkpt><trkpt lat="42.77168848857613" lon="12.905120020322908"><ele>1070.0</ele><time>2026-04-22T15:14:07.999Z</time></trkpt><trkpt lat="42.771717441519385" lon="12.905229409631934"><ele>1070.0</ele><time>2026-04-22T15:14:08.999Z</time></trkpt><trkpt lat="42.77175430643452" lon="12.905341001623347"><ele>1070.0</ele><time>2026-04-22T15:14:09.999Z</time></trkpt><trkpt lat="42.77180416052059" lon="12.90541934727745"><ele>1070.0</ele><time>2026-04-22T15:14:10.999Z</time></trkpt><trkpt lat="42.77182643108235" lon="12.905512261839231"><ele>1069.5714285714284</ele><time>2026-04-22T15:14:11.999Z</time></trkpt><trkpt lat="42.771857289580005" lon="12.905597878399385"><ele>1069.142857142857</ele><time>2026-04-22T15:14:12.999Z</time></trkpt><trkpt lat="42.77188418180325" lon="12.905681889403484"><ele>1068.7142857142858</ele><time>2026-04-22T15:14:13.999Z</time></trkpt><trkpt lat="42.77192337560526" lon="12.90576915011978"><ele>1068.2857142857142</ele><time>2026-04-22T15:14:14.999Z</time></trkpt><trkpt lat="42.77196911927724" lon="12.905843463603755"><ele>1067.857142857143</ele><time>2026-04-22T15:14:15.999Z</time></trkpt><trkpt lat="42.7719949400439" lon="12.905931354539666"><ele>1067.4285714285713</ele><time>2026-04-22T15:14:16.999Z</time></trkpt><trkpt lat="42.77202732449072" lon="12.906011771428888"><ele>1067.0</ele><time>2026-04-22T15:14:17.999Z</time></trkpt><trkpt lat="42.77206248200876" lon="12.906116729107907"><ele>1066.6666666666667</ele><time>2026-04-22T15:14:18.999Z</time></trkpt><trkpt lat="42.77209288788205" lon="12.906217445213965"><ele>1066.3333333333335</ele><time>2026-04-22T15:14:19.999Z</time></trkpt><trkpt lat="42.77212242159807" lon="12.906302681100186"><ele>1066.0</ele><time>2026-04-22T15:14:20.999Z</time></trkpt><trkpt lat="42.772161067180036" lon="12.906382496259289"><ele>1065.6666666666667</ele><time>2026-04-22T15:14:21.999Z</time></trkpt><trkpt lat="42.77223137754771" lon="12.906425175193728"><ele>1065.3333333333333</ele><time>2026-04-22T15:14:22.999Z</time></trkpt><trkpt lat="42.77228935179352" lon="12.906466130620096"><ele>1065.0</ele><time>2026-04-22T15:14:23.999Z</time></trkpt><trkpt lat="42.772389007724676" lon="12.906559065691377"><ele>1065.0</ele><time>2026-04-22T15:14:25.999Z</time></trkpt><trkpt lat="42.772439809261584" lon="12.906626899380148"><ele>1065.0</ele><time>2026-04-22T15:14:26.999Z</time></trkpt><trkpt lat="42.772456603416245" lon="12.906759277712968"><ele>1065.0</ele><time>2026-04-22T15:14:28.999Z</time></trkpt><trkpt lat="42.7724126871984" lon="12.906890216913132"><ele>1065.0</ele><time>2026-04-22T15:14:30.999Z</time></trkpt><trkpt lat="42.77235245489328" lon="12.907060348314754"><ele>1065.0</ele><time>2026-04-22T15:14:32.999Z</time></trkpt><trkpt lat="42.77231718482344" lon="12.907162773168531"><ele>1065.6666666666667</ele><time>2026-04-22T15:14:33.999Z</time></trkpt><trkpt lat="42.772292096113" lon="12.907282861526683"><ele>1066.3333333333333</ele><time>2026-04-22T15:14:34.999Z</time></trkpt><trkpt lat="42.77225705304484" lon="12.907395133445672"><ele>1067.0</ele><time>2026-04-22T15:14:35.999Z</time></trkpt><trkpt lat="42.772206393092304" lon="12.907494774717792"><ele>1067.6666666666665</ele><time>2026-04-22T15:14:36.999Z</time></trkpt><trkpt lat="42.77216395829555" lon="12.907602573657638"><ele>1068.3333333333333</ele><time>2026-04-22T15:14:37.999Z</time></trkpt><trkpt lat="42.772122510667025" lon="12.907708531826483"><ele>1069.0</ele><time>2026-04-22T15:14:38.999Z</time></trkpt><trkpt lat="42.77211684174677" lon="12.907801300604637"><ele>1069.5</ele><time>2026-04-22T15:14:39.999Z</time></trkpt><trkpt lat="42.77207464043546" lon="12.907908077216858"><ele>1070.0</ele><time>2026-04-22T15:14:40.999Z</time></trkpt><trkpt lat="42.77206025814441" lon="12.908022314004821"><ele>1070.5</ele><time>2026-04-22T15:14:41.999Z</time></trkpt><trkpt lat="42.77202622220806" lon="12.90810168257041"><ele>1071.0</ele><time>2026-04-22T15:14:42.999Z</time></trkpt><trkpt lat="42.77200036199725" lon="12.908195001063126"><ele>1071.5</ele><time>2026-04-22T15:14:43.999Z</time></trkpt><trkpt lat="42.77196746435741" lon="12.90828790221069"><ele>1072.0</ele><time>2026-04-22T15:14:44.999Z</time></trkpt><trkpt lat="42.7719291426529" lon="12.908373745236418"><ele>1067.6666666666665</ele><time>2026-04-22T15:14:45.999Z</time></trkpt><trkpt lat="42.771887392981256" lon="12.908451259838188"><ele>1063.3333333333333</ele><time>2026-04-22T15:14:47Z</time></trkpt><trkpt lat="42.77185119032375" lon="12.908534238772095"><ele>1059.0</ele><time>2026-04-22T15:14:48Z</time></trkpt><trkpt lat="42.771808197691676" lon="12.908672594641507"><ele>1054.6666666666667</ele><time>2026-04-22T15:14:50Z</time></trkpt><trkpt lat="42.771845659404484" lon="12.908791201710239"><ele>1050.3333333333335</ele><time>2026-04-22T15:14:52Z</time></trkpt><trkpt lat="42.771916955410326" lon="12.908806456374023"><ele>1046.0</ele><time>2026-04-22T15:14:53Z</time></trkpt><trkpt lat="42.7720318211737" lon="12.908893575605097"><ele>1046.0</ele><time>2026-04-22T15:14:55Z</time></trkpt><trkpt lat="42.77210127887668" lon="12.908949187050087"><ele>1046.0</ele><time>2026-04-22T15:14:56Z</time></trkpt><trkpt lat="42.772156394949235" lon="12.908996904838611"><ele>1046.0</ele><time>2026-04-22T15:14:57Z</time></trkpt><trkpt lat="42.77222931291271" lon="12.909061279560383"><ele>1046.0</ele><time>2026-04-22T15:14:58Z</time></trkpt><trkpt lat="42.77231570158187" lon="12.909112204043836"><ele>1046.0</ele><time>2026-04-22T15:14:59Z</time></trkpt><trkpt lat="42.77238735868384" lon="12.909184382366883"><ele>1046.0</ele><time>2026-04-22T15:15:00Z</time></trkpt><trkpt lat="42.77246709685049" lon="12.909250419825229"><ele>1040.6</ele><time>2026-04-22T15:15:01Z</time></trkpt><trkpt lat="42.77255033574131" lon="12.909297593684856"><ele>1035.1999999999998</ele><time>2026-04-22T15:15:02Z</time></trkpt><trkpt lat="42.77262865934888" lon="12.909346294676022"><ele>1029.8000000000002</ele><time>2026-04-22T15:15:03Z</time></trkpt><trkpt lat="42.77268732127571" lon="12.909438417891224"><ele>1024.4</ele><time>2026-04-22T15:15:04Z</time></trkpt><trkpt lat="42.772739365743135" lon="12.909521006457414"><ele>1019.0</ele><time>2026-04-22T15:15:05Z</time></trkpt><trkpt lat="42.77284086520725" lon="12.90957824716476"><ele>1019.0</ele><time>2026-04-22T15:15:07Z</time></trkpt><trkpt lat="42.772937775485374" lon="12.909546298884386"><ele>1019.0000000000001</ele><time>2026-04-22T15:15:09Z</time></trkpt><trkpt lat="42.77301319593057" lon="12.909522921415808"><ele>1019.0000000000001</ele><time>2026-04-22T15:15:10Z</time></trkpt><trkpt lat="42.7731066685982" lon="12.909513937737064"><ele>1019.0</ele><time>2026-04-22T15:15:11Z</time></trkpt><trkpt lat="42.77320447482249" lon="12.909494796830652"><ele>1019.0</ele><time>2026-04-22T15:15:12Z</time></trkpt><trkpt lat="42.7732929105039" lon="12.909487836755895"><ele>1019.0000000000001</ele><time>2026-04-22T15:15:13Z</time></trkpt><trkpt lat="42.773368555913684" lon="12.909495432537899"><ele>1019.0</ele><time>2026-04-22T15:15:14Z</time></trkpt><trkpt lat="42.77343626869612" lon="12.909523301957126"><ele>1019.0</ele><time>2026-04-22T15:15:15Z</time></trkpt><trkpt lat="42.773514265768405" lon="12.909559440455945"><ele>1019.0</ele><time>2026-04-22T15:15:16Z</time></trkpt><trkpt lat="42.773584036600425" lon="12.909595477763292"><ele>1019.0000000000001</ele><time>2026-04-22T15:15:17Z</time></trkpt><trkpt lat="42.77365904920399" lon="12.909641269687079"><ele>1019.0</ele><time>2026-04-22T15:15:18Z</time></trkpt><trkpt lat="42.77375265028584" lon="12.909717418010567"><ele>1022.0</ele><time>2026-04-22T15:15:19Z</time></trkpt><trkpt lat="42.77383120940046" lon="12.909795297131398"><ele>1025.0</ele><time>2026-04-22T15:15:20Z</time></trkpt><trkpt lat="42.77391242377263" lon="12.909880812622994"><ele>1028.0</ele><time>2026-04-22T15:15:21Z</time></trkpt><trkpt lat="42.77398365037476" lon="12.909955812131194"><ele>1031.0</ele><time>2026-04-22T15:15:22Z</time></trkpt><trkpt lat="42.77404447577123" lon="12.910034876461424"><ele>1034.0</ele><time>2026-04-22T15:15:23Z</time></trkpt><trkpt lat="42.7741136106095" lon="12.91011717116751"><ele>1028.6000000000001</ele><time>2026-04-22T15:15:24Z</time></trkpt><trkpt lat="42.77419760677609" lon="12.910149636395797"><ele>1023.2</ele><time>2026-04-22T15:15:25Z</time></trkpt><trkpt lat="42.77427502470731" lon="12.910166291703726"><ele>1017.8000000000001</ele><time>2026-04-22T15:15:26Z</time></trkpt><trkpt lat="42.77437063124806" lon="12.910184870240778"><ele>1012.4000000000001</ele><time>2026-04-22T15:15:27Z</time></trkpt><trkpt lat="42.774470142159096" lon="12.910206921742635"><ele>1007.0</ele><time>2026-04-22T15:15:28Z</time></trkpt><trkpt lat="42.77456909610552" lon="12.910230199035421"><ele>1007.0000000000001</ele><time>2026-04-22T15:15:29Z</time></trkpt><trkpt lat="42.774654521451694" lon="12.910269315333137"><ele>1007.0</ele><time>2026-04-22T15:15:30Z</time></trkpt><trkpt lat="42.774727389852906" lon="12.910332735853594"><ele>1007.0</ele><time>2026-04-22T15:15:31Z</time></trkpt><trkpt lat="42.77479904758803" lon="12.910414501157465"><ele>1007.0</ele><time>2026-04-22T15:15:32Z</time></trkpt><trkpt lat="42.77486652843514" lon="12.91047867432318"><ele>1007.0000000000001</ele><time>2026-04-22T15:15:33Z</time></trkpt><trkpt lat="42.77493495947271" lon="12.910529732107493"><ele>1007.0</ele><time>2026-04-22T15:15:34Z</time></trkpt><trkpt lat="42.774988549745814" lon="12.910579281270547"><ele>1007.0000000000001</ele><time>2026-04-22T15:15:35Z</time></trkpt><trkpt lat="42.77506119988953" lon="12.910567225575852"><ele>1007.0</ele><time>2026-04-22T15:15:36Z</time></trkpt><trkpt lat="42.77513394909184" lon="12.91058042548286"><ele>1007.0</ele><time>2026-04-22T15:15:37Z</time></trkpt><trkpt lat="42.77520759359981" lon="12.91059630245314"><ele>1007.0</ele><time>2026-04-22T15:15:38Z</time></trkpt><trkpt lat="42.77533386312845" lon="12.910582895221664"><ele>1007.0000000000001</ele><time>2026-04-22T15:15:40Z</time></trkpt><trkpt lat="42.77540865346333" lon="12.910556487371247"><ele>1007.0</ele><time>2026-04-22T15:15:41Z</time></trkpt><trkpt lat="42.775482776570584" lon="12.910529305105156"><ele>1007.4000000000001</ele><time>2026-04-22T15:15:42Z</time></trkpt><trkpt lat="42.77561719031393" lon="12.910497284993594"><ele>1007.8000000000001</ele><time>2026-04-22T15:15:44Z</time></trkpt><trkpt lat="42.775680426720875" lon="12.910489215455327"><ele>1008.2</ele><time>2026-04-22T15:15:45Z</time></trkpt><trkpt lat="42.77580793701899" lon="12.910481867082417"><ele>1008.6</ele><time>2026-04-22T15:15:47Z</time></trkpt><trkpt lat="42.775919026306525" lon="12.910539286555396"><ele>1009.0</ele><time>2026-04-22T15:15:49Z</time></trkpt><trkpt lat="42.77601042817117" lon="12.910642438641256"><ele>1008.6666666666666</ele><time>2026-04-22T15:15:51Z</time></trkpt><trkpt lat="42.77609792661868" lon="12.910753516355733"><ele>1008.3333333333333</ele><time>2026-04-22T15:15:53Z</time></trkpt><trkpt lat="42.77615832923505" lon="12.910786688466182"><ele>1008.0</ele><time>2026-04-22T15:15:54Z</time></trkpt><trkpt lat="42.776233087466295" lon="12.910793679999497"><ele>1007.6666666666667</ele><time>2026-04-22T15:15:55Z</time></trkpt><trkpt lat="42.77630709407954" lon="12.910773809603846"><ele>1007.3333333333334</ele><time>2026-04-22T15:15:56Z</time></trkpt><trkpt lat="42.77637541001949" lon="12.910745757058518"><ele>1007.0</ele><time>2026-04-22T15:15:57Z</time></trkpt><trkpt lat="42.77646204337342" lon="12.910718313099418"><ele>1007.0</ele><time>2026-04-22T15:15:58Z</time></trkpt><trkpt lat="42.77654774831115" lon="12.910699100260633"><ele>1007.0</ele><time>2026-04-22T15:15:59Z</time></trkpt><trkpt lat="42.77663375287135" lon="12.910680556189163"><ele>1007.0</ele><time>2026-04-22T15:15:59.999Z</time></trkpt><trkpt lat="42.77671479858723" lon="12.910623542342123"><ele>1007.0</ele><time>2026-04-22T15:16:00.999Z</time></trkpt><trkpt lat="42.77683751549867" lon="12.910603624964752"><ele>1007.0</ele><time>2026-04-22T15:16:02.999Z</time></trkpt><trkpt lat="42.776911646794986" lon="12.910588600986685"><ele>1007.8333333333334</ele><time>2026-04-22T15:16:03.999Z</time></trkpt><trkpt lat="42.77698453996981" lon="12.910614423004036"><ele>1008.6666666666667</ele><time>2026-04-22T15:16:04.999Z</time></trkpt><trkpt lat="42.777062346453526" lon="12.910645040998373"><ele>1009.5</ele><time>2026-04-22T15:16:05.999Z</time></trkpt><trkpt lat="42.77714146460783" lon="12.910692667268629"><ele>1010.3333333333333</ele><time>2026-04-22T15:16:06.999Z</time></trkpt><trkpt lat="42.777224141843234" lon="12.910752934334889"><ele>1011.1666666666666</ele><time>2026-04-22T15:16:07.999Z</time></trkpt><trkpt lat="42.77728538783985" lon="12.910803646336529"><ele>1012.0</ele><time>2026-04-22T15:16:08.999Z</time></trkpt><trkpt lat="42.777371753323614" lon="12.910863099861908"><ele>1010.8</ele><time>2026-04-22T15:16:10.999Z</time></trkpt><trkpt lat="42.77742280737419" lon="12.910935415950265"><ele>1009.6</ele><time>2026-04-22T15:16:14.999Z</time></trkpt><trkpt lat="42.777519986594434" lon="12.910969273778948"><ele>1008.3999999999999</ele><time>2026-04-22T15:16:16.999Z</time></trkpt><trkpt lat="42.77759781006335" lon="12.910965751332856"><ele>1007.1999999999999</ele><time>2026-04-22T15:16:18.999Z</time></trkpt><trkpt lat="42.777733142405715" lon="12.910932315333127"><ele>1006.0</ele><time>2026-04-22T15:16:20.999Z</time></trkpt><trkpt lat="42.77781296202855" lon="12.9108917810577"><ele>1005.9999999999999</ele><time>2026-04-22T15:16:21.999Z</time></trkpt><trkpt lat="42.77789758684342" lon="12.910868358864587"><ele>1006.0</ele><time>2026-04-22T15:16:22.999Z</time></trkpt><trkpt lat="42.77798469143915" lon="12.910852499958313"><ele>1006.0</ele><time>2026-04-22T15:16:23.999Z</time></trkpt><trkpt lat="42.778075380211256" lon="12.910839608538332"><ele>1006.0</ele><time>2026-04-22T15:16:24.999Z</time></trkpt><trkpt lat="42.7781577079071" lon="12.91084604190984"><ele>1005.9999999999999</ele><time>2026-04-22T15:16:25.999Z</time></trkpt><trkpt lat="42.77824137688253" lon="12.910835035903183"><ele>1006.0</ele><time>2026-04-22T15:16:26.999Z</time></trkpt><trkpt lat="42.778310223800446" lon="12.910830693925776"><ele>1005.9999999999999</ele><time>2026-04-22T15:16:27.999Z</time></trkpt><trkpt lat="42.77838123427572" lon="12.910827206127578"><ele>1006.0</ele><time>2026-04-22T15:16:28.999Z</time></trkpt><trkpt lat="42.77844516325465" lon="12.91079868958365"><ele>1006.0</ele><time>2026-04-22T15:16:29.999Z</time></trkpt><trkpt lat="42.77855873158413" lon="12.91077411949861"><ele>1006.0</ele><time>2026-04-22T15:16:31.999Z</time></trkpt><trkpt lat="42.77866774256832" lon="12.910721251920407"><ele>1005.9999999999999</ele><time>2026-04-22T15:16:33.999Z</time></trkpt><trkpt lat="42.778732083665986" lon="12.910678363770945"><ele>1006.0</ele><time>2026-04-22T15:16:34.999Z</time></trkpt><trkpt lat="42.778795437375926" lon="12.910621687684435"><ele>1001.8333333333333</ele><time>2026-04-22T15:16:35.999Z</time></trkpt><trkpt lat="42.77887144379635" lon="12.910568682276006"><ele>997.6666666666666</ele><time>2026-04-22T15:16:36.999Z</time></trkpt><trkpt lat="42.7789550948314" lon="12.910523224605972"><ele>993.5</ele><time>2026-04-22T15:16:37.999Z</time></trkpt><trkpt lat="42.77903381020278" lon="12.910492799839263"><ele>989.3333333333333</ele><time>2026-04-22T15:16:38.999Z</time></trkpt><trkpt lat="42.779108834166195" lon="12.910462422905674"><ele>985.1666666666666</ele><time>2026-04-22T15:16:39.999Z</time></trkpt><trkpt lat="42.77918926064954" lon="12.91046050777906"><ele>981.0</ele><time>2026-04-22T15:16:40.999Z</time></trkpt><trkpt lat="42.77927617260894" lon="12.910457747492979"><ele>984.5</ele><time>2026-04-22T15:16:41.999Z</time></trkpt><trkpt lat="42.779360382000654" lon="12.910487986008825"><ele>988.0</ele><time>2026-04-22T15:16:42.999Z</time></trkpt><trkpt lat="42.77946123250282" lon="12.910495526053058"><ele>991.5</ele><time>2026-04-22T15:16:43.999Z</time></trkpt><trkpt lat="42.77955011234384" lon="12.91052503348906"><ele>995.0</ele><time>2026-04-22T15:16:44.999Z</time></trkpt><trkpt lat="42.77962154874797" lon="12.910546735108557"><ele>998.5</ele><time>2026-04-22T15:16:45.999Z</time></trkpt><trkpt lat="42.779692169954" lon="12.910589770864195"><ele>1002.0</ele><time>2026-04-22T15:16:46.999Z</time></trkpt><trkpt lat="42.779786452802284" lon="12.910672044888319"><ele>1002.0</ele><time>2026-04-22T15:16:48.999Z</time></trkpt><trkpt lat="42.7798503382106" lon="12.910781226033462"><ele>1002.0</ele><time>2026-04-22T15:16:50.999Z</time></trkpt><trkpt lat="42.77992387815027" lon="12.91088861896909"><ele>1002.0</ele><time>2026-04-22T15:16:53Z</time></trkpt><trkpt lat="42.7799843095962" lon="12.911015361059908"><ele>1002.0</ele><time>2026-04-22T15:16:55Z</time></trkpt><trkpt lat="42.78001803524876" lon="12.911097824522258"><ele>1002.0</ele><time>2026-04-22T15:16:56Z</time></trkpt><trkpt lat="42.78005147388448" lon="12.911173928757941"><ele>1002.1666666666666</ele><time>2026-04-22T15:16:57Z</time></trkpt><trkpt lat="42.78009050946247" lon="12.911245116865592"><ele>1002.3333333333333</ele><time>2026-04-22T15:16:58Z</time></trkpt><trkpt lat="42.780140480796256" lon="12.911385229729444"><ele>1002.5</ele><time>2026-04-22T15:17:00Z</time></trkpt><trkpt lat="42.78015576003508" lon="12.911492375286388"><ele>1002.6666666666666</ele><time>2026-04-22T15:17:01Z</time></trkpt><trkpt lat="42.7801837646205" lon="12.911589874112416"><ele>1002.8333333333333</ele><time>2026-04-22T15:17:02Z</time></trkpt><trkpt lat="42.78022196480726" lon="12.91166694673929"><ele>1003.0</ele><time>2026-04-22T15:17:03Z</time></trkpt><trkpt lat="42.78025678220542" lon="12.911815584863172"><ele>997.8333333333333</ele><time>2026-04-22T15:17:05Z</time></trkpt><trkpt lat="42.780281960591545" lon="12.911911634804097"><ele>992.6666666666666</ele><time>2026-04-22T15:17:06Z</time></trkpt><trkpt lat="42.78031386176152" lon="12.912029558828602"><ele>987.5</ele><time>2026-04-22T15:17:07Z</time></trkpt><trkpt lat="42.78035407846925" lon="12.912142834786577"><ele>982.3333333333333</ele><time>2026-04-22T15:17:08Z</time></trkpt><trkpt lat="42.78041982964649" lon="12.912251695604422"><ele>977.1666666666666</ele><time>2026-04-22T15:17:09Z</time></trkpt><trkpt lat="42.78045554002437" lon="12.912351010688063"><ele>972.0</ele><time>2026-04-22T15:17:10Z</time></trkpt><trkpt lat="42.78050899769698" lon="12.912406438615657"><ele>972.0</ele><time>2026-04-22T15:17:11Z</time></trkpt><trkpt lat="42.78057547928994" lon="12.912451338798434"><ele>972.0</ele><time>2026-04-22T15:17:12Z</time></trkpt><trkpt lat="42.78065307438582" lon="12.91249475168121"><ele>972.0</ele><time>2026-04-22T15:17:13Z</time></trkpt><trkpt lat="42.78074678087928" lon="12.912515603235512"><ele>972.0</ele><time>2026-04-22T15:17:14Z</time></trkpt><trkpt lat="42.78083262725774" lon="12.912538946202268"><ele>972.0</ele><time>2026-04-22T15:17:15Z</time></trkpt><trkpt lat="42.78089654170385" lon="12.9126031348794"><ele>972.0</ele><time>2026-04-22T15:17:16Z</time></trkpt><trkpt lat="42.78096360165578" lon="12.912655856060889"><ele>967.5</ele><time>2026-04-22T15:17:17Z</time></trkpt><trkpt lat="42.78102571613628" lon="12.91270022679842"><ele>963.0</ele><time>2026-04-22T15:17:18Z</time></trkpt><trkpt lat="42.7810890499587" lon="12.912741620579968"><ele>958.5</ele><time>2026-04-22T15:17:19Z</time></trkpt><trkpt lat="42.78115426424382" lon="12.912766632489737"><ele>954.0</ele><time>2026-04-22T15:17:20Z</time></trkpt><trkpt lat="42.7812129332852" lon="12.912798111330158"><ele>949.5</ele><time>2026-04-22T15:17:21Z</time></trkpt><trkpt lat="42.78132124440689" lon="12.912830171249773"><ele>945.0</ele><time>2026-04-22T15:17:23Z</time></trkpt><trkpt lat="42.78144690608805" lon="12.91280854343831"><ele>945.0</ele><time>2026-04-22T15:17:25Z</time></trkpt><trkpt lat="42.78150510959016" lon="12.91277269461886"><ele>945.0</ele><time>2026-04-22T15:17:26Z</time></trkpt><trkpt lat="42.7815651897869" lon="12.912737309558553"><ele>945.0</ele><time>2026-04-22T15:17:27Z</time></trkpt><trkpt lat="42.781633654886484" lon="12.912745352208404"><ele>945.0</ele><time>2026-04-22T15:17:28Z</time></trkpt><trkpt lat="42.78170440735138" lon="12.912742320892914"><ele>945.0</ele><time>2026-04-22T15:17:29Z</time></trkpt><trkpt lat="42.781780435537044" lon="12.91276021463718"><ele>945.0</ele><time>2026-04-22T15:17:30Z</time></trkpt><trkpt lat="42.78185517627243" lon="12.912800047654013"><ele>945.0</ele><time>2026-04-22T15:17:31Z</time></trkpt><trkpt lat="42.78192344232778" lon="12.912855451126166"><ele>944.75</ele><time>2026-04-22T15:17:32Z</time></trkpt><trkpt lat="42.781995329408765" lon="12.912913089127674"><ele>944.5</ele><time>2026-04-22T15:17:33Z</time></trkpt><trkpt lat="42.782078379614354" lon="12.91298132077836"><ele>944.25</ele><time>2026-04-22T15:17:34Z</time></trkpt><trkpt lat="42.782255119532564" lon="12.91311100610123"><ele>944.0</ele><time>2026-04-22T15:17:36Z</time></trkpt><trkpt lat="42.782325764205574" lon="12.913172584087809"><ele>944.0</ele><time>2026-04-22T15:17:37Z</time></trkpt><trkpt lat="42.78239292295409" lon="12.913233106601664"><ele>944.0000000000001</ele><time>2026-04-22T15:17:38Z</time></trkpt><trkpt lat="42.78249429267512" lon="12.91323041319915"><ele>944.0000000000001</ele><time>2026-04-22T15:17:39Z</time></trkpt><trkpt lat="42.78259182624207" lon="12.913263467387043"><ele>944.0</ele><time>2026-04-22T15:17:40Z</time></trkpt><trkpt lat="42.782679250755336" lon="12.913272201905405"><ele>944.0</ele><time>2026-04-22T15:17:41Z</time></trkpt><trkpt lat="42.78277009599536" lon="12.913264093187811"><ele>942.8000000000001</ele><time>2026-04-22T15:17:42Z</time></trkpt><trkpt lat="42.78288157001791" lon="12.913251530048335"><ele>941.6000000000001</ele><time>2026-04-22T15:17:43Z</time></trkpt><trkpt lat="42.78298154553683" lon="12.913240582857492"><ele>940.4</ele><time>2026-04-22T15:17:44Z</time></trkpt><trkpt lat="42.783092306932346" lon="12.913251261589366"><ele>939.2</ele><time>2026-04-22T15:17:45Z</time></trkpt><trkpt lat="42.7832110257366" lon="12.91324516086069"><ele>938.0</ele><time>2026-04-22T15:17:46Z</time></trkpt><trkpt lat="42.78332654946933" lon="12.913242885262814"><ele>938.0</ele><time>2026-04-22T15:17:47Z</time></trkpt><trkpt lat="42.78343488658744" lon="12.913243736028006"><ele>938.0</ele><time>2026-04-22T15:17:48Z</time></trkpt><trkpt lat="42.783529958045904" lon="12.913251728149769"><ele>938.0</ele><time>2026-04-22T15:17:49Z</time></trkpt><trkpt lat="42.78362539790479" lon="12.913247214163125"><ele>938.0</ele><time>2026-04-22T15:17:50Z</time></trkpt><trkpt lat="42.78370127780297" lon="12.913213605606174"><ele>938.0</ele><time>2026-04-22T15:17:51Z</time></trkpt><trkpt lat="42.783775081911884" lon="12.913185338023993"><ele>936.6666666666667</ele><time>2026-04-22T15:17:52Z</time></trkpt><trkpt lat="42.78386061985748" lon="12.913161684494643"><ele>935.3333333333334</ele><time>2026-04-22T15:17:53Z</time></trkpt><trkpt lat="42.78394549876908" lon="12.913160968399517"><ele>934.0</ele><time>2026-04-22T15:17:54Z</time></trkpt><trkpt lat="42.784017281452606" lon="12.913214943746782"><ele>932.6666666666667</ele><time>2026-04-22T15:17:55Z</time></trkpt><trkpt lat="42.78409645191621" lon="12.913215996817954"><ele>931.3333333333334</ele><time>2026-04-22T15:17:56Z</time></trkpt><trkpt lat="42.78417401564226" lon="12.913247218112161"><ele>930.0</ele><time>2026-04-22T15:17:57Z</time></trkpt><trkpt lat="42.78426439328445" lon="12.913226526123204"><ele>926.6</ele><time>2026-04-22T15:17:58Z</time></trkpt><trkpt lat="42.784362177271376" lon="12.913176683557785"><ele>923.2</ele><time>2026-04-22T15:17:59Z</time></trkpt><trkpt lat="42.78446518201474" lon="12.91316857305326"><ele>919.8</ele><time>2026-04-22T15:18:00Z</time></trkpt><trkpt lat="42.784560885164645" lon="12.913153187457688"><ele>916.4</ele><time>2026-04-22T15:18:01Z</time></trkpt><trkpt lat="42.784644943414925" lon="12.913160560473353"><ele>913.0</ele><time>2026-04-22T15:18:02Z</time></trkpt><trkpt lat="42.78471385414918" lon="12.913138613518086"><ele>912.9999999999999</ele><time>2026-04-22T15:18:03Z</time></trkpt><trkpt lat="42.784780915134554" lon="12.913130998085848"><ele>913.0</ele><time>2026-04-22T15:18:04Z</time></trkpt><trkpt lat="42.78485669857439" lon="12.913103154709736"><ele>913.0</ele><time>2026-04-22T15:18:05Z</time></trkpt><trkpt lat="42.784947113246915" lon="12.913087441370815"><ele>913.0</ele><time>2026-04-22T15:18:06Z</time></trkpt><trkpt lat="42.78503522520998" lon="12.913028470753485"><ele>912.9999999999999</ele><time>2026-04-22T15:18:07Z</time></trkpt><trkpt lat="42.78512597487595" lon="12.912986206783888"><ele>913.0</ele><time>2026-04-22T15:18:08Z</time></trkpt><trkpt lat="42.785213670450695" lon="12.912944123004095"><ele>907.9999999999999</ele><time>2026-04-22T15:18:09Z</time></trkpt><trkpt lat="42.78531111996126" lon="12.912900172550344"><ele>903.0</ele><time>2026-04-22T15:18:10Z</time></trkpt><trkpt lat="42.78538809504672" lon="12.912858398371444"><ele>898.0</ele><time>2026-04-22T15:18:11Z</time></trkpt><trkpt lat="42.78548157020579" lon="12.912835587580622"><ele>893.0</ele><time>2026-04-22T15:18:12Z</time></trkpt><trkpt lat="42.78556638665928" lon="12.912800281911979"><ele>887.9999999999999</ele><time>2026-04-22T15:18:13Z</time></trkpt><trkpt lat="42.78564176697048" lon="12.912790392381943"><ele>883.0</ele><time>2026-04-22T15:18:14Z</time></trkpt><trkpt lat="42.785722790041774" lon="12.912797980113568"><ele>883.0</ele><time>2026-04-22T15:18:15Z</time></trkpt><trkpt lat="42.78579520186748" lon="12.91276875712331"><ele>883.0</ele><time>2026-04-22T15:18:15.999Z</time></trkpt><trkpt lat="42.785923087275364" lon="12.912747476244807"><ele>883.0</ele><time>2026-04-22T15:18:17.999Z</time></trkpt><trkpt lat="42.78604364568871" lon="12.912665515119436"><ele>883.0</ele><time>2026-04-22T15:18:19.999Z</time></trkpt><trkpt lat="42.78610992857461" lon="12.912624181038693"><ele>883.0</ele><time>2026-04-22T15:18:20.999Z</time></trkpt><trkpt lat="42.78617717228867" lon="12.912571223613178"><ele>880.8333333333333</ele><time>2026-04-22T15:18:21.999Z</time></trkpt><trkpt lat="42.78624838766065" lon="12.912514981795775"><ele>878.6666666666666</ele><time>2026-04-22T15:18:22.999Z</time></trkpt><trkpt lat="42.78630994185858" lon="12.912457938001223"><ele>876.5</ele><time>2026-04-22T15:18:23.999Z</time></trkpt><trkpt lat="42.786368504044574" lon="12.912388680308696"><ele>874.3333333333333</ele><time>2026-04-22T15:18:24.999Z</time></trkpt><trkpt lat="42.78641375642607" lon="12.912304080074765"><ele>872.1666666666666</ele><time>2026-04-22T15:18:25.999Z</time></trkpt><trkpt lat="42.78646179162339" lon="12.912222934416446"><ele>870.0</ele><time>2026-04-22T15:18:26.999Z</time></trkpt><trkpt lat="42.78651512854567" lon="12.912141065497615"><ele>870.0</ele><time>2026-04-22T15:18:27.999Z</time></trkpt><trkpt lat="42.786577253537864" lon="12.912080288517867"><ele>870.0</ele><time>2026-04-22T15:18:28.999Z</time></trkpt><trkpt lat="42.78664083304841" lon="12.912028470488396"><ele>870.0</ele><time>2026-04-22T15:18:29.999Z</time></trkpt><trkpt lat="42.786712509541886" lon="12.911981387544827"><ele>870.0</ele><time>2026-04-22T15:18:30.999Z</time></trkpt><trkpt lat="42.78677806409115" lon="12.911946587957331"><ele>870.0</ele><time>2026-04-22T15:18:31.999Z</time></trkpt><trkpt lat="42.78685430100251" lon="12.911938559123668"><ele>870.0</ele><time>2026-04-22T15:18:32.999Z</time></trkpt><trkpt lat="42.78694810358252" lon="12.911933654499604"><ele>870.0</ele><time>2026-04-22T15:18:33.999Z</time></trkpt><trkpt lat="42.78703292242184" lon="12.911913117654574"><ele>870.0</ele><time>2026-04-22T15:18:34.999Z</time></trkpt><trkpt lat="42.78711754291274" lon="12.911871384596727"><ele>870.0</ele><time>2026-04-22T15:18:35.999Z</time></trkpt><trkpt lat="42.78719583681789" lon="12.911814672483828"><ele>870.0</ele><time>2026-04-22T15:18:36.999Z</time></trkpt><trkpt lat="42.787287105187794" lon="12.911770506619252"><ele>870.0</ele><time>2026-04-22T15:18:37.999Z</time></trkpt><trkpt lat="42.787381438921024" lon="12.911713887063737"><ele>870.0</ele><time>2026-04-22T15:18:38.999Z</time></trkpt><trkpt lat="42.78748908581455" lon="12.91165210862449"><ele>870.0</ele><time>2026-04-22T15:18:39.999Z</time></trkpt><trkpt lat="42.78760155006137" lon="12.911618126529891"><ele>870.0</ele><time>2026-04-22T15:18:40.999Z</time></trkpt><trkpt lat="42.78771867468655" lon="12.911572070495195"><ele>870.0</ele><time>2026-04-22T15:18:41.999Z</time></trkpt><trkpt lat="42.787841252419184" lon="12.911536890719665"><ele>868.0</ele><time>2026-04-22T15:18:42.999Z</time></trkpt><trkpt lat="42.78797051020698" lon="12.911502849351592"><ele>866.0</ele><time>2026-04-22T15:18:43.999Z</time></trkpt><trkpt lat="42.78809211682314" lon="12.911533405952753"><ele>864.0</ele><time>2026-04-22T15:18:44.999Z</time></trkpt><trkpt lat="42.78821795838312" lon="12.911557052152682"><ele>862.0</ele><time>2026-04-22T15:18:45.999Z</time></trkpt><trkpt lat="42.788333408292466" lon="12.911584654923452"><ele>862.0</ele><time>2026-04-22T15:18:46.999Z</time></trkpt><trkpt lat="42.78845003306208" lon="12.911614681850443"><ele>862.0</ele><time>2026-04-22T15:18:47.999Z</time></trkpt><trkpt lat="42.78855896365348" lon="12.911646928567844"><ele>862.0</ele><time>2026-04-22T15:18:48.999Z</time></trkpt><trkpt lat="42.788669316588184" lon="12.911678301911165"><ele>862.0</ele><time>2026-04-22T15:18:49.999Z</time></trkpt><trkpt lat="42.78878009825471" lon="12.911667250403651"><ele>862.0</ele><time>2026-04-22T15:18:50.999Z</time></trkpt><trkpt lat="42.788888146138724" lon="12.911690307482777"><ele>862.0</ele><time>2026-04-22T15:18:51.999Z</time></trkpt><trkpt lat="42.78899525787974" lon="12.911698878135613"><ele>862.0</ele><time>2026-04-22T15:18:52.999Z</time></trkpt><trkpt lat="42.78910216508593" lon="12.911715289705574"><ele>862.0</ele><time>2026-04-22T15:18:53.999Z</time></trkpt><trkpt lat="42.789207110728114" lon="12.911705897068556"><ele>862.0</ele><time>2026-04-22T15:18:54.999Z</time></trkpt><trkpt lat="42.78931188930912" lon="12.911709431213689"><ele>858.8333333333333</ele><time>2026-04-22T15:18:55.999Z</time></trkpt><trkpt lat="42.78942035855702" lon="12.911661400423311"><ele>855.6666666666666</ele><time>2026-04-22T15:18:56.999Z</time></trkpt><trkpt lat="42.7895167753992" lon="12.911620970674024"><ele>852.5</ele><time>2026-04-22T15:18:57.999Z</time></trkpt><trkpt lat="42.789587858762914" lon="12.911607046023441"><ele>849.3333333333333</ele><time>2026-04-22T15:18:59Z</time></trkpt><trkpt lat="42.78965373038283" lon="12.911610691466283"><ele>846.1666666666666</ele><time>2026-04-22T15:19:00Z</time></trkpt><trkpt lat="42.7897230747502" lon="12.911606751441475"><ele>843.0</ele><time>2026-04-22T15:19:01Z</time></trkpt><trkpt lat="42.78987188639053" lon="12.911551861174768"><ele>843.0</ele><time>2026-04-22T15:19:03Z</time></trkpt><trkpt lat="42.789957289497664" lon="12.911507478356336"><ele>843.0</ele><time>2026-04-22T15:19:04Z</time></trkpt><trkpt lat="42.79005983858827" lon="12.911446891300521"><ele>843.0</ele><time>2026-04-22T15:19:05Z</time></trkpt><trkpt lat="42.790159490868376" lon="12.911395746543109"><ele>843.0</ele><time>2026-04-22T15:19:06Z</time></trkpt><trkpt lat="42.79025834758587" lon="12.911359262346048"><ele>843.0</ele><time>2026-04-22T15:19:07Z</time></trkpt><trkpt lat="42.79035963784246" lon="12.911338701536422"><ele>841.0</ele><time>2026-04-22T15:19:08Z</time></trkpt><trkpt lat="42.79046212037145" lon="12.91132800716602"><ele>839.0</ele><time>2026-04-22T15:19:09Z</time></trkpt><trkpt lat="42.790558239873825" lon="12.911325507568854"><ele>837.0</ele><time>2026-04-22T15:19:10Z</time></trkpt><trkpt lat="42.790641961727054" lon="12.911333833621233"><ele>835.0</ele><time>2026-04-22T15:19:11Z</time></trkpt><trkpt lat="42.79071647126118" lon="12.911359447284998"><ele>833.0</ele><time>2026-04-22T15:19:12Z</time></trkpt><trkpt lat="42.790791231054136" lon="12.911383375867976"><ele>831.0</ele><time>2026-04-22T15:19:13Z</time></trkpt><trkpt lat="42.790869329885375" lon="12.911405944201087"><ele>831.0</ele><time>2026-04-22T15:19:14Z</time></trkpt><trkpt lat="42.7909465605859" lon="12.911392599633073"><ele>831.0</ele><time>2026-04-22T15:19:15Z</time></trkpt><trkpt lat="42.791019611631675" lon="12.911403451154365"><ele>831.0</ele><time>2026-04-22T15:19:16Z</time></trkpt><trkpt lat="42.791085409517315" lon="12.91134250328293"><ele>831.0</ele><time>2026-04-22T15:19:17Z</time></trkpt><trkpt lat="42.79115803353273" lon="12.9113168280731"><ele>831.0</ele><time>2026-04-22T15:19:18Z</time></trkpt><trkpt lat="42.79122645599214" lon="12.911272353898712"><ele>831.0</ele><time>2026-04-22T15:19:19Z</time></trkpt><trkpt lat="42.79130015246555" lon="12.911240990713328"><ele>828.0</ele><time>2026-04-22T15:19:20Z</time></trkpt><trkpt lat="42.79137801158661" lon="12.91121495094926"><ele>825.0</ele><time>2026-04-22T15:19:21Z</time></trkpt><trkpt lat="42.791453793355785" lon="12.91118812869823"><ele>822.0</ele><time>2026-04-22T15:19:22Z</time></trkpt><trkpt lat="42.79154317278981" lon="12.91115649368887"><ele>819.0</ele><time>2026-04-22T15:19:23Z</time></trkpt><trkpt lat="42.79163504052479" lon="12.911132386718934"><ele>816.0</ele><time>2026-04-22T15:19:24Z</time></trkpt><trkpt lat="42.791725397367685" lon="12.911126090634793"><ele>813.0</ele><time>2026-04-22T15:19:25Z</time></trkpt><trkpt lat="42.791803584305434" lon="12.911125607645516"><ele>809.6666666666666</ele><time>2026-04-22T15:19:26Z</time></trkpt><trkpt lat="42.79188645124199" lon="12.911134280738219"><ele>806.3333333333333</ele><time>2026-04-22T15:19:27Z</time></trkpt><trkpt lat="42.791961682642686" lon="12.911157250689412"><ele>803.0</ele><time>2026-04-22T15:19:28Z</time></trkpt><trkpt lat="42.79202757755726" lon="12.911196065671415"><ele>799.6666666666666</ele><time>2026-04-22T15:19:29Z</time></trkpt><trkpt lat="42.792098089353054" lon="12.911240325729157"><ele>796.3333333333333</ele><time>2026-04-22T15:19:30Z</time></trkpt><trkpt lat="42.7921734684501" lon="12.911274746336634"><ele>793.0</ele><time>2026-04-22T15:19:31Z</time></trkpt><trkpt lat="42.79231350036131" lon="12.911255623083594"><ele>793.0000000000001</ele><time>2026-04-22T15:19:33Z</time></trkpt><trkpt lat="42.79238888755952" lon="12.911270132579016"><ele>793.0</ele><time>2026-04-22T15:19:34Z</time></trkpt><trkpt lat="42.79246871508352" lon="12.911254465798091"><ele>793.0</ele><time>2026-04-22T15:19:35Z</time></trkpt><trkpt lat="42.792538821858706" lon="12.911222012091615"><ele>793.0</ele><time>2026-04-22T15:19:36Z</time></trkpt><trkpt lat="42.792604687206705" lon="12.911191541029092"><ele>793.0</ele><time>2026-04-22T15:19:37Z</time></trkpt><trkpt lat="42.79267089003218" lon="12.911170134019178"><ele>793.0000000000001</ele><time>2026-04-22T15:19:38Z</time></trkpt><trkpt lat="42.792747282320846" lon="12.911153181677136"><ele>793.0</ele><time>2026-04-22T15:19:39Z</time></trkpt><trkpt lat="42.79282578750872" lon="12.911125262096755"><ele>788.6666666666666</ele><time>2026-04-22T15:19:40Z</time></trkpt><trkpt lat="42.792900806675014" lon="12.911102432154681"><ele>784.3333333333333</ele><time>2026-04-22T15:19:41Z</time></trkpt><trkpt lat="42.792980878762236" lon="12.911079501593935"><ele>780.0</ele><time>2026-04-22T15:19:42Z</time></trkpt><trkpt lat="42.79306865656046" lon="12.911055431508167"><ele>775.6666666666666</ele><time>2026-04-22T15:19:43Z</time></trkpt><trkpt lat="42.79314070306634" lon="12.9110368950447"><ele>771.3333333333333</ele><time>2026-04-22T15:19:44Z</time></trkpt><trkpt lat="42.79322344605985" lon="12.911018299795469"><ele>767.0</ele><time>2026-04-22T15:19:45Z</time></trkpt><trkpt lat="42.793298111365424" lon="12.911009091245356"><ele>767.0</ele><time>2026-04-22T15:19:46Z</time></trkpt><trkpt lat="42.79338505012849" lon="12.910994262502026"><ele>767.0</ele><time>2026-04-22T15:19:47Z</time></trkpt><trkpt lat="42.793467753384235" lon="12.910972822281405"><ele>767.0</ele><time>2026-04-22T15:19:48Z</time></trkpt><trkpt lat="42.79354961131126" lon="12.910946052409958"><ele>767.0</ele><time>2026-04-22T15:19:49Z</time></trkpt><trkpt lat="42.79363074743802" lon="12.910916897962622"><ele>767.0</ele><time>2026-04-22T15:19:50Z</time></trkpt><trkpt lat="42.79371789994903" lon="12.910876307854542"><ele>767.0</ele><time>2026-04-22T15:19:51Z</time></trkpt><trkpt lat="42.793791269633104" lon="12.910821042006607"><ele>766.8571428571429</ele><time>2026-04-22T15:19:52Z</time></trkpt><trkpt lat="42.793861568125365" lon="12.910788273664005"><ele>766.7142857142858</ele><time>2026-04-22T15:19:53Z</time></trkpt><trkpt lat="42.79391710504771" lon="12.910746685252967"><ele>766.5714285714286</ele><time>2026-04-22T15:19:54Z</time></trkpt><trkpt lat="42.793985329041035" lon="12.910723818786055"><ele>766.4285714285714</ele><time>2026-04-22T15:19:55Z</time></trkpt><trkpt lat="42.7940584412798" lon="12.910712509521812"><ele>766.2857142857142</ele><time>2026-04-22T15:19:57Z</time></trkpt><trkpt lat="42.794042198111605" lon="12.910801850189317"><ele>766.1428571428571</ele><time>2026-04-22T15:20:01Z</time></trkpt><trkpt lat="42.793978380452714" lon="12.910843267163216"><ele>766.0</ele><time>2026-04-22T15:20:04Z</time></trkpt><trkpt lat="42.79392504108289" lon="12.910889190780017"><ele>761.4</ele><time>2026-04-22T15:20:05Z</time></trkpt><trkpt lat="42.79385145595972" lon="12.910987361260165"><ele>756.8</ele><time>2026-04-22T15:20:07Z</time></trkpt><trkpt lat="42.79375331735311" lon="12.911058889185457"><ele>752.1999999999999</ele><time>2026-04-22T15:20:09Z</time></trkpt><trkpt lat="42.79368898584844" lon="12.911111120202472"><ele>747.5999999999999</ele><time>2026-04-22T15:20:10Z</time></trkpt><trkpt lat="42.79360608871264" lon="12.911160032299554"><ele>743.0</ele><time>2026-04-22T15:20:11Z</time></trkpt><trkpt lat="42.793507143126355" lon="12.911209802078792"><ele>747.8</ele><time>2026-04-22T15:20:12Z</time></trkpt><trkpt lat="42.79340608995201" lon="12.911264178302119"><ele>752.5999999999999</ele><time>2026-04-22T15:20:13Z</time></trkpt><trkpt lat="42.79330434348641" lon="12.911330973364526"><ele>757.4000000000001</ele><time>2026-04-22T15:20:14Z</time></trkpt><trkpt lat="42.79321192405072" lon="12.911415514938156"><ele>762.2</ele><time>2026-04-22T15:20:15Z</time></trkpt><trkpt lat="42.79312359312987" lon="12.911509569526759"><ele>767.0</ele><time>2026-04-22T15:20:16Z</time></trkpt><trkpt lat="42.793031504736184" lon="12.911587327117106"><ele>767.0</ele><time>2026-04-22T15:20:17Z</time></trkpt><trkpt lat="42.79294328580968" lon="12.911662163286152"><ele>767.0</ele><time>2026-04-22T15:20:18Z</time></trkpt><trkpt lat="42.792869454150235" lon="12.911766416683214"><ele>767.0</ele><time>2026-04-22T15:20:19Z</time></trkpt><trkpt lat="42.79277346748285" lon="12.911829413884336"><ele>767.0</ele><time>2026-04-22T15:20:20Z</time></trkpt><trkpt lat="42.792683842908" lon="12.911925706278053"><ele>767.0</ele><time>2026-04-22T15:20:21Z</time></trkpt><trkpt lat="42.79257726986329" lon="12.911978463912803"><ele>764.8</ele><time>2026-04-22T15:20:22Z</time></trkpt><trkpt lat="42.792480613860825" lon="12.912045372817973"><ele>762.6</ele><time>2026-04-22T15:20:23Z</time></trkpt><trkpt lat="42.79238425116514" lon="12.91210672000398"><ele>760.4</ele><time>2026-04-22T15:20:24Z</time></trkpt><trkpt lat="42.79230036790987" lon="12.912178604385156"><ele>758.1999999999999</ele><time>2026-04-22T15:20:25Z</time></trkpt><trkpt lat="42.79220416905938" lon="12.912221375510459"><ele>756.0</ele><time>2026-04-22T15:20:26Z</time></trkpt><trkpt lat="42.7921157301273" lon="12.912267432649372"><ele>756.0</ele><time>2026-04-22T15:20:27Z</time></trkpt><trkpt lat="42.79202525786221" lon="12.912321450230264"><ele>756.0</ele><time>2026-04-22T15:20:28Z</time></trkpt><trkpt lat="42.7919340473789" lon="12.912351015554647"><ele>756.0</ele><time>2026-04-22T15:20:29Z</time></trkpt><trkpt lat="42.79186421238691" lon="12.91239006273664"><ele>756.0</ele><time>2026-04-22T15:20:30Z</time></trkpt><trkpt lat="42.79178280230068" lon="12.912434971661186"><ele>756.0</ele><time>2026-04-22T15:20:31Z</time></trkpt><trkpt lat="42.79168527605413" lon="12.912482088027545"><ele>754.1999999999999</ele><time>2026-04-22T15:20:32Z</time></trkpt><trkpt lat="42.79158845313209" lon="12.912517122738148"><ele>752.4</ele><time>2026-04-22T15:20:33Z</time></trkpt><trkpt lat="42.791477037762434" lon="12.912550376466939"><ele>750.6</ele><time>2026-04-22T15:20:34Z</time></trkpt><trkpt lat="42.79138236208791" lon="12.912577073408"><ele>748.8</ele><time>2026-04-22T15:20:35Z</time></trkpt><trkpt lat="42.791288564868914" lon="12.91260352264566"><ele>747.0</ele><time>2026-04-22T15:20:36Z</time></trkpt><trkpt lat="42.79120768423524" lon="12.912626329630703"><ele>747.0</ele><time>2026-04-22T15:20:37Z</time></trkpt><trkpt lat="42.7911064745829" lon="12.912654869011687"><ele>747.0</ele><time>2026-04-22T15:20:38Z</time></trkpt><trkpt lat="42.791032853228145" lon="12.91270477870216"><ele>747.0</ele><time>2026-04-22T15:20:39Z</time></trkpt><trkpt lat="42.79095544504759" lon="12.912736704950948"><ele>747.0</ele><time>2026-04-22T15:20:40Z</time></trkpt><trkpt lat="42.790882211342215" lon="12.912787697238366"><ele>747.0</ele><time>2026-04-22T15:20:41Z</time></trkpt><trkpt lat="42.790804861379705" lon="12.912835949786722"><ele>747.0</ele><time>2026-04-22T15:20:42Z</time></trkpt><trkpt lat="42.790720492462306" lon="12.912893341145232"><ele>754.0</ele><time>2026-04-22T15:20:43Z</time></trkpt><trkpt lat="42.790602252225966" lon="12.912952970595875"><ele>761.0</ele><time>2026-04-22T15:20:44Z</time></trkpt><trkpt lat="42.79045427126785" lon="12.913029371363216"><ele>768.0</ele><time>2026-04-22T15:20:45Z</time></trkpt><trkpt lat="42.79031750552407" lon="12.913099780802908"><ele>775.0</ele><time>2026-04-22T15:20:46Z</time></trkpt><trkpt lat="42.79021319238944" lon="12.913149120874644"><ele>778.4</ele><time>2026-04-22T15:20:47Z</time></trkpt><trkpt lat="42.79012532307081" lon="12.913196140101787"><ele>781.8</ele><time>2026-04-22T15:20:48Z</time></trkpt><trkpt lat="42.79003240882216" lon="12.913236835461738"><ele>785.2</ele><time>2026-04-22T15:20:49Z</time></trkpt><trkpt lat="42.78993423108111" lon="12.91330179664854"><ele>788.6</ele><time>2026-04-22T15:20:50Z</time></trkpt><trkpt lat="42.78982993221547" lon="12.913356830966555"><ele>792.0</ele><time>2026-04-22T15:20:51Z</time></trkpt><trkpt lat="42.78971447060507" lon="12.913381694954161"><ele>783.4000000000001</ele><time>2026-04-22T15:20:52Z</time></trkpt><trkpt lat="42.78961401542572" lon="12.913439505117406"><ele>774.8000000000001</ele><time>2026-04-22T15:20:53Z</time></trkpt><trkpt lat="42.7895210833793" lon="12.913471377471026"><ele>766.2</ele><time>2026-04-22T15:20:54Z</time></trkpt><trkpt lat="42.789414745829184" lon="12.91350760721997"><ele>757.6</ele><time>2026-04-22T15:20:55Z</time></trkpt><trkpt lat="42.78931333280075" lon="12.913505062058833"><ele>749.0</ele><time>2026-04-22T15:20:56Z</time></trkpt><trkpt lat="42.78921902172163" lon="12.913495465220455"><ele>749.0</ele><time>2026-04-22T15:20:57Z</time></trkpt><trkpt lat="42.789130541112485" lon="12.913463132651852"><ele>749.0</ele><time>2026-04-22T15:20:58Z</time></trkpt><trkpt lat="42.789039310250224" lon="12.913427538024372"><ele>749.0</ele><time>2026-04-22T15:20:59Z</time></trkpt><trkpt lat="42.788938863166905" lon="12.913403471041649"><ele>749.0</ele><time>2026-04-22T15:21:00Z</time></trkpt><trkpt lat="42.78883281641036" lon="12.91335373210371"><ele>749.0</ele><time>2026-04-22T15:21:01Z</time></trkpt><trkpt lat="42.78871155683032" lon="12.913308920539095"><ele>757.25</ele><time>2026-04-22T15:21:02Z</time></trkpt><trkpt lat="42.78859127000201" lon="12.913234318031646"><ele>765.5</ele><time>2026-04-22T15:21:03Z</time></trkpt><trkpt lat="42.788458016863984" lon="12.913163234106147"><ele>773.75</ele><time>2026-04-22T15:21:04Z</time></trkpt><trkpt lat="42.78833069983523" lon="12.913122564938918"><ele>782.0</ele><time>2026-04-22T15:21:05Z</time></trkpt><trkpt lat="42.788226943940614" lon="12.913067036319836"><ele>782.0</ele><time>2026-04-22T15:21:06Z</time></trkpt><trkpt lat="42.78812727736377" lon="12.913038410381313"><ele>782.0</ele><time>2026-04-22T15:21:07Z</time></trkpt><trkpt lat="42.78802512203659" lon="12.91302389227149"><ele>782.0</ele><time>2026-04-22T15:21:08Z</time></trkpt><trkpt lat="42.78792899275738" lon="12.913045541742866"><ele>782.0</ele><time>2026-04-22T15:21:09Z</time></trkpt><trkpt lat="42.78784319252092" lon="12.913125064173808"><ele>782.0</ele><time>2026-04-22T15:21:10Z</time></trkpt><trkpt lat="42.787754816965396" lon="12.913236378064116"><ele>781.0</ele><time>2026-04-22T15:21:11Z</time></trkpt><trkpt lat="42.78766071399371" lon="12.913350390846583"><ele>780.0</ele><time>2026-04-22T15:21:12Z</time></trkpt><trkpt lat="42.78757936058965" lon="12.913481736869706"><ele>779.0</ele><time>2026-04-22T15:21:13Z</time></trkpt><trkpt lat="42.78747909869869" lon="12.913581280430853"><ele>778.0</ele><time>2026-04-22T15:21:14Z</time></trkpt><trkpt lat="42.7873820366654" lon="12.913668666172649"><ele>778.0</ele><time>2026-04-22T15:21:15Z</time></trkpt><trkpt lat="42.78728492685541" lon="12.913768112246125"><ele>778.0</ele><time>2026-04-22T15:21:16Z</time></trkpt><trkpt lat="42.78722395693472" lon="12.913885372892594"><ele>778.0</ele><time>2026-04-22T15:21:17Z</time></trkpt><trkpt lat="42.787161933773824" lon="12.91399679984476"><ele>778.0</ele><time>2026-04-22T15:21:18Z</time></trkpt><trkpt lat="42.78711490729298" lon="12.91412112429358"><ele>778.0</ele><time>2026-04-22T15:21:19Z</time></trkpt><trkpt lat="42.787078850951396" lon="12.914257029270885"><ele>775.3333333333333</ele><time>2026-04-22T15:21:20Z</time></trkpt><trkpt lat="42.78708174868915" lon="12.914406750970363"><ele>772.6666666666666</ele><time>2026-04-22T15:21:21Z</time></trkpt><trkpt lat="42.787127718512345" lon="12.914542702854293"><ele>770.0</ele><time>2026-04-22T15:21:22Z</time></trkpt><trkpt lat="42.78713161206044" lon="12.914651885619326"><ele>767.3333333333333</ele><time>2026-04-22T15:21:23Z</time></trkpt><trkpt lat="42.78712382803188" lon="12.91474530613908"><ele>764.6666666666666</ele><time>2026-04-22T15:21:24Z</time></trkpt><trkpt lat="42.787089756877776" lon="12.914835211866139"><ele>762.0</ele><time>2026-04-22T15:21:25Z</time></trkpt><trkpt lat="42.787043131392544" lon="12.914941358000007"><ele>762.0</ele><time>2026-04-22T15:21:26Z</time></trkpt><trkpt lat="42.78698778440253" lon="12.915049742344221"><ele>762.0</ele><time>2026-04-22T15:21:27Z</time></trkpt><trkpt lat="42.786916758499885" lon="12.91515903148411"><ele>762.0</ele><time>2026-04-22T15:21:28Z</time></trkpt><trkpt lat="42.7868427717539" lon="12.91526199246066"><ele>762.0</ele><time>2026-04-22T15:21:29Z</time></trkpt><trkpt lat="42.786784294333124" lon="12.915345681029745"><ele>762.0</ele><time>2026-04-22T15:21:30Z</time></trkpt><trkpt lat="42.78673330630155" lon="12.91543961443913"><ele>760.1666666666666</ele><time>2026-04-22T15:21:31Z</time></trkpt><trkpt lat="42.78669530926251" lon="12.915537612914376"><ele>758.3333333333334</ele><time>2026-04-22T15:21:32Z</time></trkpt><trkpt lat="42.78666786633425" lon="12.915643417532708"><ele>756.5</ele><time>2026-04-22T15:21:33Z</time></trkpt><trkpt lat="42.78663260792885" lon="12.91572807490092"><ele>754.6666666666667</ele><time>2026-04-22T15:21:34Z</time></trkpt><trkpt lat="42.78657447520236" lon="12.915814863246636"><ele>752.8333333333334</ele><time>2026-04-22T15:21:35Z</time></trkpt><trkpt lat="42.786506388977976" lon="12.9159145379005"><ele>751.0</ele><time>2026-04-22T15:21:36Z</time></trkpt><trkpt lat="42.786437040930764" lon="12.916009329492802"><ele>751.0</ele><time>2026-04-22T15:21:37Z</time></trkpt><trkpt lat="42.786371497495395" lon="12.916081567046444"><ele>751.0</ele><time>2026-04-22T15:21:38Z</time></trkpt><trkpt lat="42.78624542414408" lon="12.916179459489218"><ele>751.0</ele><time>2026-04-22T15:21:40Z</time></trkpt><trkpt lat="42.78615392079936" lon="12.91621784135964"><ele>751.0</ele><time>2026-04-22T15:21:41Z</time></trkpt><trkpt lat="42.78606556265023" lon="12.916277995238717"><ele>751.0</ele><time>2026-04-22T15:21:42Z</time></trkpt><trkpt lat="42.78599189864913" lon="12.91635657461752"><ele>749.5</ele><time>2026-04-22T15:21:43Z</time></trkpt><trkpt lat="42.78592599306981" lon="12.916436713752868"><ele>748.0</ele><time>2026-04-22T15:21:44Z</time></trkpt><trkpt lat="42.78587691253192" lon="12.916538352506835"><ele>746.5</ele><time>2026-04-22T15:21:45Z</time></trkpt><trkpt lat="42.785825671584924" lon="12.916622978884044"><ele>745.0</ele><time>2026-04-22T15:21:46Z</time></trkpt><trkpt lat="42.7857691662238" lon="12.91668849977642"><ele>743.5</ele><time>2026-04-22T15:21:47Z</time></trkpt><trkpt lat="42.785705386300684" lon="12.916748171839282"><ele>742.0</ele><time>2026-04-22T15:21:48Z</time></trkpt><trkpt lat="42.78564125738103" lon="12.916800786472779"><ele>742.0</ele><time>2026-04-22T15:21:49Z</time></trkpt><trkpt lat="42.78557750758542" lon="12.916852001048925"><ele>742.0</ele><time>2026-04-22T15:21:50Z</time></trkpt><trkpt lat="42.78550075739782" lon="12.916908301875274"><ele>742.0</ele><time>2026-04-22T15:21:51Z</time></trkpt><trkpt lat="42.785418724562874" lon="12.916965660085554"><ele>742.0</ele><time>2026-04-22T15:21:52Z</time></trkpt><trkpt lat="42.78534029458241" lon="12.917048780312182"><ele>742.0</ele><time>2026-04-22T15:21:53Z</time></trkpt><trkpt lat="42.785264764306945" lon="12.917100416280185"><ele>742.0</ele><time>2026-04-22T15:21:54Z</time></trkpt><trkpt lat="42.7851978631945" lon="12.917150160776682"><ele>742.8333333333334</ele><time>2026-04-22T15:21:55Z</time></trkpt><trkpt lat="42.78515424332535" lon="12.917251933835265"><ele>743.6666666666667</ele><time>2026-04-22T15:21:56Z</time></trkpt><trkpt lat="42.78510673911534" lon="12.917331431666693"><ele>744.5</ele><time>2026-04-22T15:21:57Z</time></trkpt><trkpt lat="42.785068252462146" lon="12.917442215552969"><ele>745.3333333333334</ele><time>2026-04-22T15:21:58Z</time></trkpt><trkpt lat="42.785029882546425" lon="12.917551903566293"><ele>746.1666666666666</ele><time>2026-04-22T15:21:59Z</time></trkpt><trkpt lat="42.78500041692344" lon="12.917663593348763"><ele>747.0</ele><time>2026-04-22T15:22:00Z</time></trkpt><trkpt lat="42.78496400757135" lon="12.917760170511096"><ele>747.0</ele><time>2026-04-22T15:22:01Z</time></trkpt><trkpt lat="42.784923777200795" lon="12.917851988438622"><ele>747.0</ele><time>2026-04-22T15:22:02Z</time></trkpt><trkpt lat="42.78484276330906" lon="12.917995977803809"><ele>747.0</ele><time>2026-04-22T15:22:04Z</time></trkpt><trkpt lat="42.78479645736249" lon="12.91806371697373"><ele>747.0</ele><time>2026-04-22T15:22:05Z</time></trkpt><trkpt lat="42.78474916887145" lon="12.918125201126225"><ele>747.0</ele><time>2026-04-22T15:22:06Z</time></trkpt><trkpt lat="42.78469443574141" lon="12.918191613598054"><ele>747.0</ele><time>2026-04-22T15:22:07Z</time></trkpt><trkpt lat="42.78464595345907" lon="12.91826445673075"><ele>746.9999999999999</ele><time>2026-04-22T15:22:08Z</time></trkpt><trkpt lat="42.78459579931223" lon="12.918329358610745"><ele>747.0</ele><time>2026-04-22T15:22:09Z</time></trkpt><trkpt lat="42.78453917450121" lon="12.918388582443077"><ele>747.0</ele><time>2026-04-22T15:22:10Z</time></trkpt><trkpt lat="42.784486580363954" lon="12.918451627022593"><ele>747.0</ele><time>2026-04-22T15:22:11Z</time></trkpt><trkpt lat="42.78441656867334" lon="12.918500028800224"><ele>747.0</ele><time>2026-04-22T15:22:12Z</time></trkpt><trkpt lat="42.7843664032735" lon="12.918582942566886"><ele>746.9999999999999</ele><time>2026-04-22T15:22:13Z</time></trkpt><trkpt lat="42.784308205564386" lon="12.91865129571805"><ele>747.0</ele><time>2026-04-22T15:22:14Z</time></trkpt><trkpt lat="42.784237497608565" lon="12.918706045458016"><ele>745.8333333333334</ele><time>2026-04-22T15:22:15Z</time></trkpt><trkpt lat="42.78418186953626" lon="12.918776361495867"><ele>744.6666666666666</ele><time>2026-04-22T15:22:16Z</time></trkpt><trkpt lat="42.78412540361686" lon="12.918856319687302"><ele>743.5</ele><time>2026-04-22T15:22:17Z</time></trkpt><trkpt lat="42.78407594733039" lon="12.918940649560266"><ele>742.3333333333333</ele><time>2026-04-22T15:22:18Z</time></trkpt><trkpt lat="42.784032997615164" lon="12.919022682815326"><ele>741.1666666666666</ele><time>2026-04-22T15:22:19Z</time></trkpt><trkpt lat="42.78399505205273" lon="12.919099577255253"><ele>740.0</ele><time>2026-04-22T15:22:20Z</time></trkpt><trkpt lat="42.78395193208556" lon="12.919187688482703"><ele>734.3333333333333</ele><time>2026-04-22T15:22:21Z</time></trkpt><trkpt lat="42.78390839954437" lon="12.919276644205762"><ele>728.6666666666666</ele><time>2026-04-22T15:22:22Z</time></trkpt><trkpt lat="42.78384786745678" lon="12.919363372610182"><ele>723.0</ele><time>2026-04-22T15:22:23Z</time></trkpt><trkpt lat="42.783794504808846" lon="12.919411928267364"><ele>717.3333333333334</ele><time>2026-04-22T15:22:24Z</time></trkpt><trkpt lat="42.783699128136476" lon="12.919443754910256"><ele>711.6666666666667</ele><time>2026-04-22T15:22:26Z</time></trkpt><trkpt lat="42.78367159072421" lon="12.919550578282042"><ele>706.0</ele><time>2026-04-22T15:22:28Z</time></trkpt><trkpt lat="42.783772773316386" lon="12.91963989913351"><ele>706.0</ele><time>2026-04-22T15:22:30Z</time></trkpt><trkpt lat="42.783845514191455" lon="12.919610647121484"><ele>706.0</ele><time>2026-04-22T15:22:31Z</time></trkpt><trkpt lat="42.78392114973193" lon="12.919604328750411"><ele>706.0</ele><time>2026-04-22T15:22:32Z</time></trkpt><trkpt lat="42.7840047029728" lon="12.919597235792482"><ele>706.0</ele><time>2026-04-22T15:22:33Z</time></trkpt><trkpt lat="42.784077659479664" lon="12.91956795581363"><ele>706.0</ele><time>2026-04-22T15:22:34Z</time></trkpt><trkpt lat="42.7841533564156" lon="12.919563906137467"><ele>706.0</ele><time>2026-04-22T15:22:35Z</time></trkpt><trkpt lat="42.784237491368785" lon="12.91956010802203"><ele>706.0</ele><time>2026-04-22T15:22:36Z</time></trkpt><trkpt lat="42.78431651784397" lon="12.919550912158309"><ele>706.0</ele><time>2026-04-22T15:22:37Z</time></trkpt><trkpt lat="42.78439878163649" lon="12.919550198674935"><ele>706.0</ele><time>2026-04-22T15:22:38Z</time></trkpt><trkpt lat="42.784485192996634" lon="12.919514555137665"><ele>706.0</ele><time>2026-04-22T15:22:39Z</time></trkpt><trkpt lat="42.784564442113165" lon="12.919492453392586"><ele>706.0</ele><time>2026-04-22T15:22:40Z</time></trkpt><trkpt lat="42.78464999925522" lon="12.919494726833653"><ele>706.0</ele><time>2026-04-22T15:22:41Z</time></trkpt><trkpt lat="42.78472212025298" lon="12.919488038775066"><ele>702.0</ele><time>2026-04-22T15:22:42Z</time></trkpt><trkpt lat="42.78479382411482" lon="12.919485808012382"><ele>698.0</ele><time>2026-04-22T15:22:43Z</time></trkpt><trkpt lat="42.78486028913505" lon="12.919488990777673"><ele>694.0</ele><time>2026-04-22T15:22:44Z</time></trkpt><trkpt lat="42.78492603458976" lon="12.919496402080018"><ele>690.0</ele><time>2026-04-22T15:22:45Z</time></trkpt><trkpt lat="42.785005320968295" lon="12.919515513295735"><ele>686.0</ele><time>2026-04-22T15:22:46Z</time></trkpt><trkpt lat="42.785070760469296" lon="12.919537228445284"><ele>682.0</ele><time>2026-04-22T15:22:47Z</time></trkpt><trkpt lat="42.785152362740554" lon="12.919542330688298"><ele>678.0</ele><time>2026-04-22T15:22:48Z</time></trkpt><trkpt lat="42.785226764836864" lon="12.919582444883602"><ele>674.4285714285714</ele><time>2026-04-22T15:22:49Z</time></trkpt><trkpt lat="42.78530453263285" lon="12.91959846681088"><ele>670.8571428571429</ele><time>2026-04-22T15:22:50Z</time></trkpt><trkpt lat="42.78537916305468" lon="12.919595471022182"><ele>667.2857142857143</ele><time>2026-04-22T15:22:51Z</time></trkpt><trkpt lat="42.7854461442458" lon="12.919623123299306"><ele>663.7142857142858</ele><time>2026-04-22T15:22:52Z</time></trkpt><trkpt lat="42.785529822627524" lon="12.919616404292709"><ele>660.1428571428571</ele><time>2026-04-22T15:22:53Z</time></trkpt><trkpt lat="42.78559768685117" lon="12.91962566299499"><ele>656.5714285714287</ele><time>2026-04-22T15:22:54Z</time></trkpt><trkpt lat="42.785665543577146" lon="12.919624894864038"><ele>653.0</ele><time>2026-04-22T15:22:55Z</time></trkpt><trkpt lat="42.785801394668226" lon="12.919617631293457"><ele>653.0</ele><time>2026-04-22T15:22:57Z</time></trkpt><trkpt lat="42.78586895589675" lon="12.919585446218514"><ele>653.0</ele><time>2026-04-22T15:22:58Z</time></trkpt><trkpt lat="42.7859265218022" lon="12.919533998132806"><ele>653.0</ele><time>2026-04-22T15:22:59Z</time></trkpt><trkpt lat="42.78598874462853" lon="12.919362454838579"><ele>653.0</ele><time>2026-04-22T15:23:01Z</time></trkpt><trkpt lat="42.78601899225845" lon="12.919268300249637"><ele>653.0</ele><time>2026-04-22T15:23:02Z</time></trkpt><trkpt lat="42.786061136340194" lon="12.919181167736287"><ele>653.0</ele><time>2026-04-22T15:23:03Z</time></trkpt><trkpt lat="42.78610971389882" lon="12.918999988335354"><ele>650.0</ele><time>2026-04-22T15:23:05Z</time></trkpt><trkpt lat="42.78615138788306" lon="12.918930699886237"><ele>647.0</ele><time>2026-04-22T15:23:06Z</time></trkpt><trkpt lat="42.78617228053638" lon="12.918840171117996"><ele>644.0</ele><time>2026-04-22T15:23:07Z</time></trkpt><trkpt lat="42.78620791319352" lon="12.918690754422325"><ele>641.0</ele><time>2026-04-22T15:23:09Z</time></trkpt><trkpt lat="42.786300065523676" lon="12.918609954085467"><ele>638.0</ele><time>2026-04-22T15:23:11Z</time></trkpt><trkpt lat="42.786390788080354" lon="12.91855645993409"><ele>638.0</ele><time>2026-04-22T15:23:12Z</time></trkpt><trkpt lat="42.78645614178903" lon="12.918492666951852"><ele>638.0</ele><time>2026-04-22T15:23:13Z</time></trkpt><trkpt lat="42.78650716373917" lon="12.918410436443525"><ele>638.0</ele><time>2026-04-22T15:23:14Z</time></trkpt><trkpt lat="42.78657551615124" lon="12.918390020067768"><ele>638.0</ele><time>2026-04-22T15:23:15Z</time></trkpt><trkpt lat="42.78667525730009" lon="12.918371554563459"><ele>638.0</ele><time>2026-04-22T15:23:17Z</time></trkpt><trkpt lat="42.78676031738322" lon="12.91835904975241"><ele>638.0</ele><time>2026-04-22T15:23:18Z</time></trkpt><trkpt lat="42.78687600181235" lon="12.918333560592393"><ele>636.3333333333333</ele><time>2026-04-22T15:23:20Z</time></trkpt><trkpt lat="42.786937291299566" lon="12.918282617394512"><ele>634.6666666666666</ele><time>2026-04-22T15:23:21Z</time></trkpt><trkpt lat="42.787005073522515" lon="12.918261816509792"><ele>633.0</ele><time>2026-04-22T15:23:22Z</time></trkpt><trkpt lat="42.78706622771407" lon="12.918234179831906"><ele>631.3333333333334</ele><time>2026-04-22T15:23:23Z</time></trkpt><trkpt lat="42.787134994917174" lon="12.91821351900209"><ele>629.6666666666667</ele><time>2026-04-22T15:23:24Z</time></trkpt><trkpt lat="42.787256098168825" lon="12.918187877396871"><ele>628.0</ele><time>2026-04-22T15:23:26Z</time></trkpt><trkpt lat="42.78735421332776" lon="12.918148157986748"><ele>628.0</ele><time>2026-04-22T15:23:28Z</time></trkpt><trkpt lat="42.7874872047283" lon="12.918105470123017"><ele>628.0</ele><time>2026-04-22T15:23:30Z</time></trkpt><trkpt lat="42.78755285699767" lon="12.918107411964781"><ele>628.0</ele><time>2026-04-22T15:23:31Z</time></trkpt><trkpt lat="42.78761430453645" lon="12.91808434438024"><ele>628.0</ele><time>2026-04-22T15:23:32Z</time></trkpt><trkpt lat="42.787747013464255" lon="12.918021791071371"><ele>628.0</ele><time>2026-04-22T15:23:34Z</time></trkpt><trkpt lat="42.78784578792384" lon="12.917958354095644"><ele>621.3333333333334</ele><time>2026-04-22T15:23:36Z</time></trkpt><trkpt lat="42.78796558009237" lon="12.917869355714489"><ele>614.6666666666667</ele><time>2026-04-22T15:23:38Z</time></trkpt><trkpt lat="42.78801480740292" lon="12.917804284750824"><ele>608.0</ele><time>2026-04-22T15:23:39Z</time></trkpt><trkpt lat="42.788073497912194" lon="12.917756613127583"><ele>601.3333333333334</ele><time>2026-04-22T15:23:40Z</time></trkpt><trkpt lat="42.788134406492325" lon="12.917726332127986"><ele>594.6666666666666</ele><time>2026-04-22T15:23:41Z</time></trkpt><trkpt lat="42.78818397859742" lon="12.917663058090147"><ele>588.0</ele><time>2026-04-22T15:23:42Z</time></trkpt><trkpt lat="42.788235857811515" lon="12.917604021098947"><ele>587.5</ele><time>2026-04-22T15:23:43Z</time></trkpt><trkpt lat="42.78829172114617" lon="12.917563156841906"><ele>587.0</ele><time>2026-04-22T15:23:44Z</time></trkpt><trkpt lat="42.7883454320908" lon="12.917503987763617"><ele>586.5</ele><time>2026-04-22T15:23:45Z</time></trkpt><trkpt lat="42.78839484914171" lon="12.917426030899463"><ele>586.0</ele><time>2026-04-22T15:23:46Z</time></trkpt><trkpt lat="42.78851974427286" lon="12.917329263067106"><ele>585.5</ele><time>2026-04-22T15:23:48Z</time></trkpt><trkpt lat="42.788596200887724" lon="12.917276571528213"><ele>585.0</ele><time>2026-04-22T15:23:49Z</time></trkpt><trkpt lat="42.78865905908403" lon="12.91722475502771"><ele>585.0</ele><time>2026-04-22T15:23:50Z</time></trkpt><trkpt lat="42.78874172276986" lon="12.917205716706686"><ele>585.0</ele><time>2026-04-22T15:23:51Z</time></trkpt><trkpt lat="42.78881153506924" lon="12.91716943738304"><ele>585.0</ele><time>2026-04-22T15:23:52Z</time></trkpt><trkpt lat="42.7888920281696" lon="12.917167073729635"><ele>585.0</ele><time>2026-04-22T15:23:53Z</time></trkpt><trkpt lat="42.78896827276958" lon="12.917163030771142"><ele>585.0</ele><time>2026-04-22T15:23:54Z</time></trkpt><trkpt lat="42.78903244252248" lon="12.917157482016078"><ele>585.0</ele><time>2026-04-22T15:23:55Z</time></trkpt><trkpt lat="42.78909661210987" lon="12.917175563117166"><ele>585.0</ele><time>2026-04-22T15:23:56Z</time></trkpt><trkpt lat="42.78915904366117" lon="12.917192472828441"><ele>585.0</ele><time>2026-04-22T15:23:57Z</time></trkpt><trkpt lat="42.78921496317031" lon="12.917247407137243"><ele>585.0</ele><time>2026-04-22T15:23:58Z</time></trkpt><trkpt lat="42.78928528409181" lon="12.9172866432132"><ele>585.0</ele><time>2026-04-22T15:23:59Z</time></trkpt><trkpt lat="42.78926117095469" lon="12.917423968204119"><ele>585.0</ele><time>2026-04-22T15:24:00Z</time></trkpt><trkpt lat="42.78931156293254" lon="12.917499260764147"><ele>585.0</ele><time>2026-04-22T15:24:01Z</time></trkpt><trkpt lat="42.78937492300616" lon="12.917574449941002"><ele>585.0</ele><time>2026-04-22T15:24:02Z</time></trkpt><trkpt lat="42.78945682114171" lon="12.917651302296742"><ele>581.1666666666666</ele><time>2026-04-22T15:24:03Z</time></trkpt><trkpt lat="42.78952883298684" lon="12.917758434581296"><ele>577.3333333333334</ele><time>2026-04-22T15:24:04Z</time></trkpt><trkpt lat="42.78961381587939" lon="12.91783035695523"><ele>573.5</ele><time>2026-04-22T15:24:05Z</time></trkpt><trkpt lat="42.789687411836816" lon="12.917890898989857"><ele>569.6666666666667</ele><time>2026-04-22T15:24:06Z</time></trkpt><trkpt lat="42.789770376392134" lon="12.917924123165825"><ele>565.8333333333334</ele><time>2026-04-22T15:24:07Z</time></trkpt><trkpt lat="42.789831600140765" lon="12.9179637379859"><ele>562.0</ele><time>2026-04-22T15:24:08Z</time></trkpt><trkpt lat="42.78992717314088" lon="12.91798047388382"><ele>562.0</ele><time>2026-04-22T15:24:10Z</time></trkpt><trkpt lat="42.790068076250606" lon="12.917952556839735"><ele>562.0</ele><time>2026-04-22T15:24:12Z</time></trkpt><trkpt lat="42.79016240586896" lon="12.91795609998845"><ele>562.0</ele><time>2026-04-22T15:24:13Z</time></trkpt><trkpt lat="42.79026243413343" lon="12.917935479858786"><ele>562.0</ele><time>2026-04-22T15:24:14Z</time></trkpt><trkpt lat="42.79035987304171" lon="12.917900305384643"><ele>562.0</ele><time>2026-04-22T15:24:15Z</time></trkpt><trkpt lat="42.790455070531465" lon="12.91788215989612"><ele>558.3333333333334</ele><time>2026-04-22T15:24:16Z</time></trkpt><trkpt lat="42.79054471342957" lon="12.917853890499947"><ele>554.6666666666667</ele><time>2026-04-22T15:24:17Z</time></trkpt><trkpt lat="42.790647668176334" lon="12.917840111182441"><ele>551.0</ele><time>2026-04-22T15:24:18Z</time></trkpt><trkpt lat="42.790734710383994" lon="12.917801625645618"><ele>547.3333333333334</ele><time>2026-04-22T15:24:19Z</time></trkpt><trkpt lat="42.790811457212534" lon="12.917765586772912"><ele>543.6666666666666</ele><time>2026-04-22T15:24:20Z</time></trkpt><trkpt lat="42.790887367709445" lon="12.91773954928116"><ele>540.0</ele><time>2026-04-22T15:24:21Z</time></trkpt><trkpt lat="42.79096444132322" lon="12.917700530402113"><ele>541.0</ele><time>2026-04-22T15:24:22Z</time></trkpt><trkpt lat="42.791074112322576" lon="12.91767147268349"><ele>542.0</ele><time>2026-04-22T15:24:23Z</time></trkpt><trkpt lat="42.79116761192543" lon="12.917633209938298"><ele>543.0</ele><time>2026-04-22T15:24:24Z</time></trkpt><trkpt lat="42.79126246092119" lon="12.917602473384727"><ele>544.0</ele><time>2026-04-22T15:24:25Z</time></trkpt><trkpt lat="42.7913566299816" lon="12.917572293996031"><ele>545.0</ele><time>2026-04-22T15:24:26Z</time></trkpt><trkpt lat="42.791444490371994" lon="12.917547616248955"><ele>545.0</ele><time>2026-04-22T15:24:27Z</time></trkpt><trkpt lat="42.79153560104735" lon="12.917513914094078"><ele>545.0</ele><time>2026-04-22T15:24:28Z</time></trkpt><trkpt lat="42.791633586400856" lon="12.917511586371544"><ele>545.0</ele><time>2026-04-22T15:24:29Z</time></trkpt><trkpt lat="42.7917118177866" lon="12.917511090736127"><ele>545.0</ele><time>2026-04-22T15:24:30Z</time></trkpt><trkpt lat="42.791799810692304" lon="12.917535054672024"><ele>545.0</ele><time>2026-04-22T15:24:31Z</time></trkpt><trkpt lat="42.79187270366813" lon="12.917570262607926"><ele>545.0</ele><time>2026-04-22T15:24:32Z</time></trkpt><trkpt lat="42.791924420820706" lon="12.917654537745054"><ele>540.8333333333333</ele><time>2026-04-22T15:24:33Z</time></trkpt><trkpt lat="42.791986476576135" lon="12.917742624301162"><ele>536.6666666666666</ele><time>2026-04-22T15:24:34Z</time></trkpt><trkpt lat="42.792062554678665" lon="12.917807527884738"><ele>532.5</ele><time>2026-04-22T15:24:35Z</time></trkpt><trkpt lat="42.79213178349435" lon="12.917882088379134"><ele>528.3333333333334</ele><time>2026-04-22T15:24:36Z</time></trkpt><trkpt lat="42.79218454827679" lon="12.917972479383213"><ele>524.1666666666667</ele><time>2026-04-22T15:24:37Z</time></trkpt><trkpt lat="42.79224006821103" lon="12.918049182349652"><ele>520.0</ele><time>2026-04-22T15:24:38Z</time></trkpt><trkpt lat="42.79229571056261" lon="12.918126991711459"><ele>520.0</ele><time>2026-04-22T15:24:39Z</time></trkpt><trkpt lat="42.79234869906112" lon="12.918204109766261"><ele>520.0</ele><time>2026-04-22T15:24:40Z</time></trkpt><trkpt lat="42.79239631266455" lon="12.918274304244616"><ele>520.0</ele><time>2026-04-22T15:24:41Z</time></trkpt><trkpt lat="42.79246443392383" lon="12.918402997279047"><ele>520.0</ele><time>2026-04-22T15:24:43Z</time></trkpt><trkpt lat="42.792563035524026" lon="12.91848595965144"><ele>520.0</ele><time>2026-04-22T15:24:45Z</time></trkpt><trkpt lat="42.79262552762573" lon="12.918504639422947"><ele>520.0</ele><time>2026-04-22T15:24:46Z</time></trkpt><trkpt lat="42.7927306408252" lon="12.918517438811524"><ele>510.4</ele><time>2026-04-22T15:24:48Z</time></trkpt><trkpt lat="42.79288268447808" lon="12.918530182014104"><ele>500.8</ele><time>2026-04-22T15:24:50Z</time></trkpt><trkpt lat="42.792964247298556" lon="12.91853168103223"><ele>491.20000000000005</ele><time>2026-04-22T15:24:51Z</time></trkpt><trkpt lat="42.793027743679176" lon="12.918531668264219"><ele>481.6</ele><time>2026-04-22T15:24:52Z</time></trkpt><trkpt lat="42.79309374244921" lon="12.918530740714703"><ele>472.0</ele><time>2026-04-22T15:24:53Z</time></trkpt><trkpt lat="42.79321346085959" lon="12.9185229429023"><ele>472.00000000000006</ele><time>2026-04-22T15:24:55Z</time></trkpt><trkpt lat="42.79333459845812" lon="12.91849879965178"><ele>472.0</ele><time>2026-04-22T15:24:57Z</time></trkpt><trkpt lat="42.79339272937773" lon="12.918464001563706"><ele>472.0</ele><time>2026-04-22T15:24:58Z</time></trkpt><trkpt lat="42.79350608027262" lon="12.918386568942163"><ele>472.0</ele><time>2026-04-22T15:25:00Z</time></trkpt><trkpt lat="42.793564568304866" lon="12.918333235926129"><ele>472.00000000000006</ele><time>2026-04-22T15:25:01Z</time></trkpt><trkpt lat="42.79362299515017" lon="12.918291515839748"><ele>472.0</ele><time>2026-04-22T15:25:02Z</time></trkpt><trkpt lat="42.79368756308292" lon="12.91824616883249"><ele>473.1666666666667</ele><time>2026-04-22T15:25:03Z</time></trkpt><trkpt lat="42.79374968890921" lon="12.918229871310764"><ele>474.33333333333337</ele><time>2026-04-22T15:25:04Z</time></trkpt><trkpt lat="42.79380927683758" lon="12.918200094596225"><ele>475.5</ele><time>2026-04-22T15:25:05Z</time></trkpt><trkpt lat="42.793873803270145" lon="12.918168420192261"><ele>476.66666666666663</ele><time>2026-04-22T15:25:06Z</time></trkpt><trkpt lat="42.79393661200647" lon="12.918145161165949"><ele>477.8333333333333</ele><time>2026-04-22T15:25:07Z</time></trkpt><trkpt lat="42.79406282056636" lon="12.918108254044135"><ele>479.0</ele><time>2026-04-22T15:25:09Z</time></trkpt><trkpt lat="42.79418885898828" lon="12.918092277910969"><ele>478.99999999999994</ele><time>2026-04-22T15:25:11Z</time></trkpt><trkpt lat="42.79425451494287" lon="12.918089791738161"><ele>479.0</ele><time>2026-04-22T15:25:12Z</time></trkpt><trkpt lat="42.794332564812535" lon="12.9180742971292"><ele>479.0</ele><time>2026-04-22T15:25:13Z</time></trkpt><trkpt lat="42.794413596869624" lon="12.918076699058853"><ele>479.0</ele><time>2026-04-22T15:25:14Z</time></trkpt><trkpt lat="42.79449885513251" lon="12.918076668807531"><ele>478.99999999999994</ele><time>2026-04-22T15:25:15Z</time></trkpt><trkpt lat="42.79459867009134" lon="12.918082765541168"><ele>479.0</ele><time>2026-04-22T15:25:16Z</time></trkpt><trkpt lat="42.79470211071419" lon="12.918075643413191"><ele>475.79999999999995</ele><time>2026-04-22T15:25:17Z</time></trkpt><trkpt lat="42.79480482116378" lon="12.91804462068231"><ele>472.59999999999997</ele><time>2026-04-22T15:25:18Z</time></trkpt><trkpt lat="42.79490057766374" lon="12.918039398137967"><ele>469.4</ele><time>2026-04-22T15:25:19Z</time></trkpt><trkpt lat="42.794992486342004" lon="12.918034576650316"><ele>466.2</ele><time>2026-04-22T15:25:20Z</time></trkpt><trkpt lat="42.7950749413993" lon="12.918063723678829"><ele>463.0</ele><time>2026-04-22T15:25:21Z</time></trkpt><trkpt lat="42.79516434028379" lon="12.918066217356012"><ele>461.2</ele><time>2026-04-22T15:25:22Z</time></trkpt><trkpt lat="42.79525653288594" lon="12.91807622774896"><ele>459.4</ele><time>2026-04-22T15:25:23Z</time></trkpt><trkpt lat="42.79535984153795" lon="12.918109042363824"><ele>457.59999999999997</ele><time>2026-04-22T15:25:24Z</time></trkpt><trkpt lat="42.79545847198281" lon="12.918122910636852"><ele>455.79999999999995</ele><time>2026-04-22T15:25:25Z</time></trkpt><trkpt lat="42.79555273854589" lon="12.918117141991521"><ele>454.0</ele><time>2026-04-22T15:25:26Z</time></trkpt><trkpt lat="42.7956449341998" lon="12.918135977570381"><ele>454.00000000000006</ele><time>2026-04-22T15:25:27Z</time></trkpt><trkpt lat="42.79573072342506" lon="12.918176625587172"><ele>454.0</ele><time>2026-04-22T15:25:28Z</time></trkpt><trkpt lat="42.7958165198398" lon="12.918196740021935"><ele>454.0</ele><time>2026-04-22T15:25:29Z</time></trkpt><trkpt lat="42.79590621773241" lon="12.918217769219579"><ele>454.0</ele><time>2026-04-22T15:25:30Z</time></trkpt><trkpt lat="42.795974787544" lon="12.918233845025226"><ele>454.00000000000006</ele><time>2026-04-22T15:25:31Z</time></trkpt><trkpt lat="42.79605667798098" lon="12.918253798751778"><ele>454.0</ele><time>2026-04-22T15:25:32Z</time></trkpt><trkpt lat="42.79612165681503" lon="12.918251974124583"><ele>450.4</ele><time>2026-04-22T15:25:33Z</time></trkpt><trkpt lat="42.796238834781484" lon="12.918271532941723"><ele>446.79999999999995</ele><time>2026-04-22T15:25:35Z</time></trkpt><trkpt lat="42.79630676004893" lon="12.918227106162373"><ele>443.20000000000005</ele><time>2026-04-22T15:25:36Z</time></trkpt><trkpt lat="42.7963932363701" lon="12.91821617988322"><ele>439.6</ele><time>2026-04-22T15:25:37Z</time></trkpt><trkpt lat="42.79647460540153" lon="12.918161578979623"><ele>436.0</ele><time>2026-04-22T15:25:38Z</time></trkpt><trkpt lat="42.79657115469131" lon="12.918125976376553"><ele>436.00000000000006</ele><time>2026-04-22T15:25:39Z</time></trkpt><trkpt lat="42.79665163033078" lon="12.918096182895576"><ele>436.0</ele><time>2026-04-22T15:25:40Z</time></trkpt><trkpt lat="42.79673422128703" lon="12.918060483977557"><ele>436.0</ele><time>2026-04-22T15:25:41Z</time></trkpt><trkpt lat="42.79681064457161" lon="12.918008248684245"><ele>436.0</ele><time>2026-04-22T15:25:42Z</time></trkpt><trkpt lat="42.796893302737566" lon="12.917960970042557"><ele>436.00000000000006</ele><time>2026-04-22T15:25:43Z</time></trkpt><trkpt lat="42.796977466806034" lon="12.917904120012828"><ele>436.0</ele><time>2026-04-22T15:25:44Z</time></trkpt><trkpt lat="42.79706222459252" lon="12.917831748701978"><ele>432.33333333333337</ele><time>2026-04-22T15:25:45Z</time></trkpt><trkpt lat="42.7971426461274" lon="12.917776191438868"><ele>428.6666666666667</ele><time>2026-04-22T15:25:46Z</time></trkpt><trkpt lat="42.79722427212405" lon="12.917707016694756"><ele>425.0</ele><time>2026-04-22T15:25:47Z</time></trkpt><trkpt lat="42.79731081030256" lon="12.917666235789858"><ele>421.33333333333337</ele><time>2026-04-22T15:25:48Z</time></trkpt><trkpt lat="42.7973975463951" lon="12.917626717859813"><ele>417.6666666666667</ele><time>2026-04-22T15:25:49Z</time></trkpt><trkpt lat="42.797461287284705" lon="12.917593301526816"><ele>414.0</ele><time>2026-04-22T15:25:50Z</time></trkpt><trkpt lat="42.79755522473317" lon="12.917597125332607"><ele>414.0</ele><time>2026-04-22T15:25:52Z</time></trkpt><trkpt lat="42.797582955102996" lon="12.91770620695741"><ele>414.0</ele><time>2026-04-22T15:25:54Z</time></trkpt><trkpt lat="42.79750269257422" lon="12.917790761716718"><ele>414.0</ele><time>2026-04-22T15:25:56Z</time></trkpt><trkpt lat="42.79740604279223" lon="12.917901339495057"><ele>414.0</ele><time>2026-04-22T15:25:58Z</time></trkpt><trkpt lat="42.797373421859234" lon="12.917987951496693"><ele>414.0</ele><time>2026-04-22T15:25:59Z</time></trkpt><trkpt lat="42.79738399110784" lon="12.918091578272142"><ele>414.0</ele><time>2026-04-22T15:26:00Z</time></trkpt><trkpt lat="42.79737436026029" lon="12.918255074162179"><ele>414.0</ele><time>2026-04-22T15:26:02Z</time></trkpt><trkpt lat="42.79740443887488" lon="12.918412100388544"><ele>414.0</ele><time>2026-04-22T15:26:04Z</time></trkpt><trkpt lat="42.797491813680715" lon="12.918525840486977"><ele>414.0</ele><time>2026-04-22T15:26:06Z</time></trkpt><trkpt lat="42.797554463954214" lon="12.918566673911258"><ele>414.0</ele><time>2026-04-22T15:26:07Z</time></trkpt><trkpt lat="42.79765519413248" lon="12.91867865632646"><ele>410.79999999999995</ele><time>2026-04-22T15:26:09Z</time></trkpt><trkpt lat="42.79770106818626" lon="12.918746991275707"><ele>407.59999999999997</ele><time>2026-04-22T15:26:10Z</time></trkpt><trkpt lat="42.79774608323667" lon="12.918811670231001"><ele>404.4</ele><time>2026-04-22T15:26:11Z</time></trkpt><trkpt lat="42.79785396629009" lon="12.918913856963977"><ele>401.2</ele><time>2026-04-22T15:26:13Z</time></trkpt><trkpt lat="42.79794280921816" lon="12.91899265115106"><ele>398.0</ele><time>2026-04-22T15:26:15Z</time></trkpt><trkpt lat="42.79803936474555" lon="12.918894535616555"><ele>398.0</ele><time>2026-04-22T15:26:17Z</time></trkpt><trkpt lat="42.798119951493554" lon="12.918818547503548"><ele>398.0</ele><time>2026-04-22T15:26:19Z</time></trkpt><trkpt lat="42.798186472078505" lon="12.918756157653881"><ele>398.0</ele><time>2026-04-22T15:26:21Z</time></trkpt><trkpt lat="42.79809347846971" lon="12.91883788231801"><ele>398.0</ele><time>2026-04-22T15:26:35Z</time></trkpt><trkpt lat="42.7980045408207" lon="12.918936197160857"><ele>398.0</ele><time>2026-04-22T15:26:37Z</time></trkpt><trkpt lat="42.798045687343766" lon="12.919135099509505"><ele>398.0</ele><time>2026-04-22T15:26:41Z</time></trkpt><trkpt lat="42.79808869733011" lon="12.919203205693531"><ele>398.0</ele><time>2026-04-22T15:26:42Z</time></trkpt><trkpt lat="42.79814529853573" lon="12.919336014470685"><ele>398.0</ele><time>2026-04-22T15:26:44Z</time></trkpt><trkpt lat="42.798192995102966" lon="12.919443375480393"><ele>398.0</ele><time>2026-04-22T15:26:46Z</time></trkpt><trkpt lat="42.79815273081016" lon="12.919317059738356"><ele>398.0</ele><time>2026-04-22T15:26:59Z</time></trkpt><trkpt lat="42.79807823369609" lon="12.919182117378186"><ele>397.99999999999994</ele><time>2026-04-22T15:27:01Z</time></trkpt><trkpt lat="42.79801328473031" lon="12.919074036547572"><ele>398.0</ele><time>2026-04-22T15:27:03Z</time></trkpt><trkpt lat="42.79801825627688" lon="12.918918254458017"><ele>398.0</ele><time>2026-04-22T15:28:05Z</time></trkpt><trkpt lat="42.798072154226105" lon="12.918859279078768"><ele>398.0</ele><time>2026-04-22T15:28:07Z</time></trkpt><trkpt lat="42.79813753777365" lon="12.918816896122424"><ele>397.99999999999994</ele><time>2026-04-22T15:28:09Z</time></trkpt><trkpt lat="42.79821259530485" lon="12.918778177944132"><ele>398.0</ele><time>2026-04-22T15:28:12Z</time></trkpt><trkpt lat="42.79824254410903" lon="12.91869351497746"><ele>397.99999999999994</ele><time>2026-04-22T15:28:34Z</time></trkpt><trkpt lat="42.798285888391796" lon="12.918626175933051"><ele>398.0</ele><time>2026-04-22T15:28:42Z</time></trkpt><trkpt lat="42.79833995647997" lon="12.918569160084285"><ele>398.0</ele><time>2026-04-22T15:28:59Z</time></trkpt><trkpt lat="42.79837040024398" lon="12.918492849270452"><ele>398.0</ele><time>2026-04-22T15:29:04Z</time></trkpt><trkpt lat="42.79841891983325" lon="12.918437812151506"><ele>398.0</ele><time>2026-04-22T15:29:38Z</time></trkpt><trkpt lat="42.798486882704736" lon="12.918398831619005"><ele>397.99999999999994</ele><time>2026-04-22T15:29:47Z</time></trkpt><trkpt lat="42.79855558392959" lon="12.918364610494624"><ele>398.0</ele><time>2026-04-22T15:29:55Z</time></trkpt><trkpt lat="42.79861984454119" lon="12.918350147721537"><ele>397.4285714285714</ele><time>2026-04-22T15:30:01Z</time></trkpt><trkpt lat="42.798668809758134" lon="12.918279719054858"><ele>396.85714285714283</ele><time>2026-04-22T15:30:08Z</time></trkpt><trkpt lat="42.79873773760759" lon="12.918266056715161"><ele>396.2857142857143</ele><time>2026-04-22T15:30:14Z</time></trkpt><trkpt lat="42.79881028543398" lon="12.918244706075336"><ele>395.71428571428567</ele><time>2026-04-22T15:30:22Z</time></trkpt><trkpt lat="42.79887783915977" lon="12.918214977919776"><ele>395.14285714285717</ele><time>2026-04-22T15:30:29Z</time></trkpt><trkpt lat="42.79895036727599" lon="12.918191974196718"><ele>394.57142857142856</ele><time>2026-04-22T15:30:39Z</time></trkpt><trkpt lat="42.79899808648391" lon="12.918121266208896"><ele>394.0</ele><time>2026-04-22T15:30:45Z</time></trkpt><trkpt lat="42.799057943214905" lon="12.918071969247281"><ele>394.0</ele><time>2026-04-22T15:30:59Z</time></trkpt><trkpt lat="42.799110191896254" lon="12.918022272144393"><ele>394.0</ele><time>2026-04-22T15:31:07Z</time></trkpt><trkpt lat="42.799172870372836" lon="12.91798221163114"><ele>394.0</ele><time>2026-04-22T15:31:15Z</time></trkpt><trkpt lat="42.79923965313111" lon="12.917958957110493"><ele>394.0</ele><time>2026-04-22T15:31:22Z</time></trkpt><trkpt lat="42.79931021836641" lon="12.917961821864639"><ele>394.0</ele><time>2026-04-22T15:31:31Z</time></trkpt><trkpt lat="42.79937529223037" lon="12.91797475320374"><ele>394.0</ele><time>2026-04-22T15:31:36Z</time></trkpt><trkpt lat="42.79931146138369" lon="12.917974347500905"><ele>394.0</ele><time>2026-04-22T15:31:53Z</time></trkpt><trkpt lat="42.799247411074774" lon="12.917975684204198"><ele>394.0</ele><time>2026-04-22T15:32:00Z</time></trkpt><trkpt lat="42.79917326517123" lon="12.91798258955576"><ele>394.0</ele><time>2026-04-22T15:32:19Z</time></trkpt><trkpt lat="42.79911493519617" lon="12.918016029556945"><ele>394.0</ele><time>2026-04-22T15:32:25Z</time></trkpt><trkpt lat="42.79905006857944" lon="12.918074198983891"><ele>394.0</ele><time>2026-04-22T15:32:33Z</time></trkpt><trkpt lat="42.79898627126035" lon="12.918120062020886"><ele>394.0</ele><time>2026-04-22T15:32:41Z</time></trkpt><trkpt lat="42.79892786445927" lon="12.918163659085888"><ele>394.0</ele><time>2026-04-22T15:32:48Z</time></trkpt><trkpt lat="42.798867811387396" lon="12.918203943270097"><ele>394.0</ele><time>2026-04-22T15:32:55Z</time></trkpt><trkpt lat="42.79880665156148" lon="12.918254690885792"><ele>394.0</ele><time>2026-04-22T15:33:01Z</time></trkpt><trkpt lat="42.798740432050046" lon="12.918259879011147"><ele>394.0</ele><time>2026-04-22T15:33:08Z</time></trkpt><trkpt lat="42.79867407513696" lon="12.918261650945706"><ele>394.0</ele><time>2026-04-22T15:33:58Z</time></trkpt><trkpt lat="42.798612651392986" lon="12.918296375889016"><ele>394.0</ele><time>2026-04-22T15:34:06Z</time></trkpt><trkpt lat="42.79854967498898" lon="12.918316600080276"><ele>394.0</ele><time>2026-04-22T15:34:13Z</time></trkpt><trkpt lat="42.798476903575235" lon="12.918359416244806"><ele>394.0</ele><time>2026-04-22T15:34:21Z</time></trkpt><trkpt lat="42.798406942862606" lon="12.918394197458262"><ele>394.0</ele><time>2026-04-22T15:34:27Z</time></trkpt><trkpt lat="42.79836409507483" lon="12.918476396677049"><ele>394.6666666666667</ele><time>2026-04-22T15:34:35Z</time></trkpt><trkpt lat="42.798310375649365" lon="12.918526765771453"><ele>395.33333333333337</ele><time>2026-04-22T15:34:48Z</time></trkpt><trkpt lat="42.79828886328499" lon="12.918609882994739"><ele>396.0</ele><time>2026-04-22T15:34:54Z</time></trkpt><trkpt lat="42.79823402342003" lon="12.918659761157183"><ele>396.66666666666663</ele><time>2026-04-22T15:35:01Z</time></trkpt><trkpt lat="42.79820599536659" lon="12.918749785386026"><ele>397.3333333333333</ele><time>2026-04-22T15:35:19Z</time></trkpt><trkpt lat="42.798105663251675" lon="12.918842772340938"><ele>398.0</ele><time>2026-04-22T15:38:20Z</time></trkpt><trkpt lat="42.79802052276325" lon="12.918925282159792"><ele>397.99999999999994</ele><time>2026-04-22T15:38:22Z</time></trkpt><trkpt lat="42.79799531397552" lon="12.919024331058335"><ele>398.0</ele><time>2026-04-22T15:38:24.999Z</time></trkpt><trkpt lat="42.798026137454954" lon="12.919105032938639"><ele>398.0</ele><time>2026-04-22T15:38:26.999Z</time></trkpt><trkpt lat="42.79807537190752" lon="12.91918824514718"><ele>398.0</ele><time>2026-04-22T15:38:28.999Z</time></trkpt><trkpt lat="42.798154484354804" lon="12.919316353104142"><ele>397.99999999999994</ele><time>2026-04-22T15:38:30.999Z</time></trkpt><trkpt lat="42.79820114643528" lon="12.919392750298297"><ele>398.0</ele><time>2026-04-22T15:38:31.999Z</time></trkpt><trkpt lat="42.7982492105785" lon="12.91947231970366"><ele>399.8333333333333</ele><time>2026-04-22T15:38:32.999Z</time></trkpt><trkpt lat="42.79826395240762" lon="12.919576668484783"><ele>401.66666666666663</ele><time>2026-04-22T15:38:33.999Z</time></trkpt><trkpt lat="42.798305124993284" lon="12.919649348502395"><ele>403.5</ele><time>2026-04-22T15:38:34.999Z</time></trkpt><trkpt lat="42.798366429609324" lon="12.91977011079146"><ele>405.33333333333337</ele><time>2026-04-22T15:38:36.999Z</time></trkpt><trkpt lat="42.798415266236724" lon="12.919892138642783"><ele>407.1666666666667</ele><time>2026-04-22T15:38:38.999Z</time></trkpt><trkpt lat="42.79846803595947" lon="12.919972365775289"><ele>409.0</ele><time>2026-04-22T15:38:40.999Z</time></trkpt><trkpt lat="42.79861866622297" lon="12.919936929535709"><ele>411.33333333333337</ele><time>2026-04-22T15:38:43.999Z</time></trkpt><trkpt lat="42.79868378568905" lon="12.919885845155571"><ele>413.6666666666667</ele><time>2026-04-22T15:38:44.999Z</time></trkpt><trkpt lat="42.79875007661326" lon="12.919839388371614"><ele>416.0</ele><time>2026-04-22T15:38:45.999Z</time></trkpt><trkpt lat="42.79884921972554" lon="12.91979891515611"><ele>418.33333333333337</ele><time>2026-04-22T15:38:47.999Z</time></trkpt><trkpt lat="42.79891386619669" lon="12.919765312475304"><ele>420.6666666666667</ele><time>2026-04-22T15:38:48.999Z</time></trkpt><trkpt lat="42.798974949262686" lon="12.919700463527374"><ele>423.0</ele><time>2026-04-22T15:38:49.999Z</time></trkpt><trkpt lat="42.79902586867278" lon="12.919616409031773"><ele>423.0</ele><time>2026-04-22T15:38:50.999Z</time></trkpt><trkpt lat="42.799081482673145" lon="12.919533296719026"><ele>423.0</ele><time>2026-04-22T15:38:51.999Z</time></trkpt><trkpt lat="42.799137080069734" lon="12.919442866803317"><ele>423.0</ele><time>2026-04-22T15:38:52.999Z</time></trkpt><trkpt lat="42.79919714457535" lon="12.919357425427071"><ele>423.0</ele><time>2026-04-22T15:38:53.999Z</time></trkpt><trkpt lat="42.79926841548252" lon="12.919260477464457"><ele>423.0</ele><time>2026-04-22T15:38:54.999Z</time></trkpt><trkpt lat="42.79933944650246" lon="12.919159624468513"><ele>423.0</ele><time>2026-04-22T15:38:55.999Z</time></trkpt><trkpt lat="42.79940935784538" lon="12.919073369838369"><ele>423.0</ele><time>2026-04-22T15:38:56.999Z</time></trkpt><trkpt lat="42.79949079934656" lon="12.91899116749346"><ele>423.0</ele><time>2026-04-22T15:38:57.999Z</time></trkpt><trkpt lat="42.799571233722155" lon="12.918918802171465"><ele>423.0</ele><time>2026-04-22T15:38:58.999Z</time></trkpt><trkpt lat="42.799667683430854" lon="12.918879153696013"><ele>423.0</ele><time>2026-04-22T15:38:59.999Z</time></trkpt><trkpt lat="42.79974881997626" lon="12.918849940069572"><ele>423.0</ele><time>2026-04-22T15:39:00.999Z</time></trkpt><trkpt lat="42.7998169150405" lon="12.918827069579375"><ele>423.0</ele><time>2026-04-22T15:39:01.999Z</time></trkpt><trkpt lat="42.79987964446576" lon="12.918771117406253"><ele>423.0</ele><time>2026-04-22T15:39:02.999Z</time></trkpt><trkpt lat="42.799972722548276" lon="12.918679661704719"><ele>423.0</ele><time>2026-04-22T15:39:04.999Z</time></trkpt><trkpt lat="42.80001568704852" lon="12.918598128266767"><ele>423.0</ele><time>2026-04-22T15:39:05.999Z</time></trkpt><trkpt lat="42.80009338802952" lon="12.918512775059789"><ele>423.0</ele><time>2026-04-22T15:39:06.999Z</time></trkpt><trkpt lat="42.80016804192477" lon="12.918399385304633"><ele>422.5</ele><time>2026-04-22T15:39:07.999Z</time></trkpt><trkpt lat="42.80025801458816" lon="12.918310717578702"><ele>422.0</ele><time>2026-04-22T15:39:08.999Z</time></trkpt><trkpt lat="42.80041597414917" lon="12.918110162022815"><ele>421.5</ele><time>2026-04-22T15:39:10.999Z</time></trkpt><trkpt lat="42.800490196663894" lon="12.918026321595088"><ele>421.0</ele><time>2026-04-22T15:39:11.999Z</time></trkpt><trkpt lat="42.80056340118862" lon="12.917949607121356"><ele>421.00000000000006</ele><time>2026-04-22T15:39:12.999Z</time></trkpt><trkpt lat="42.800633672537785" lon="12.917874461370078"><ele>421.0</ele><time>2026-04-22T15:39:13.999Z</time></trkpt><trkpt lat="42.800713289931736" lon="12.917810955290923"><ele>421.0</ele><time>2026-04-22T15:39:14.999Z</time></trkpt><trkpt lat="42.80079592108386" lon="12.917764284650412"><ele>421.0</ele><time>2026-04-22T15:39:15.999Z</time></trkpt><trkpt lat="42.80088200911813" lon="12.917732599892759"><ele>421.00000000000006</ele><time>2026-04-22T15:39:16.999Z</time></trkpt><trkpt lat="42.800968669109665" lon="12.917705342061435"><ele>421.0</ele><time>2026-04-22T15:39:17.999Z</time></trkpt><trkpt lat="42.801053102190565" lon="12.917672852789028"><ele>418.75</ele><time>2026-04-22T15:39:18.999Z</time></trkpt><trkpt lat="42.801137460587775" lon="12.917629020601257"><ele>416.5</ele><time>2026-04-22T15:39:19.999Z</time></trkpt><trkpt lat="42.80130821278829" lon="12.917514226068594"><ele>414.25</ele><time>2026-04-22T15:39:21.999Z</time></trkpt><trkpt lat="42.80139478710376" lon="12.917449652710971"><ele>412.0</ele><time>2026-04-22T15:39:22.999Z</time></trkpt><trkpt lat="42.80148122502686" lon="12.917384950001425"><ele>412.0</ele><time>2026-04-22T15:39:23.999Z</time></trkpt><trkpt lat="42.80156316023463" lon="12.917321841169919"><ele>412.0</ele><time>2026-04-22T15:39:24.999Z</time></trkpt><trkpt lat="42.80164675573705" lon="12.917257761330918"><ele>412.0</ele><time>2026-04-22T15:39:25.999Z</time></trkpt><trkpt lat="42.80173354064149" lon="12.917187488425586"><ele>412.0</ele><time>2026-04-22T15:39:26.999Z</time></trkpt><trkpt lat="42.80182266973904" lon="12.917118813222066"><ele>412.0</ele><time>2026-04-22T15:39:27.999Z</time></trkpt><trkpt lat="42.801912997244386" lon="12.917051406714096"><ele>411.8</ele><time>2026-04-22T15:39:28.999Z</time></trkpt><trkpt lat="42.802000427403925" lon="12.916984377363063"><ele>411.6</ele><time>2026-04-22T15:39:29.999Z</time></trkpt><trkpt lat="42.8020847180301" lon="12.916917224390387"><ele>411.40000000000003</ele><time>2026-04-22T15:39:30.999Z</time></trkpt><trkpt lat="42.80216886707764" lon="12.916852365396396"><ele>411.20000000000005</ele><time>2026-04-22T15:39:31.999Z</time></trkpt><trkpt lat="42.80225102935075" lon="12.916785767009898"><ele>411.0</ele><time>2026-04-22T15:39:32.999Z</time></trkpt><trkpt lat="42.80233400941846" lon="12.916715537321325"><ele>411.0</ele><time>2026-04-22T15:39:33.999Z</time></trkpt><trkpt lat="42.80241983640193" lon="12.916643621807992"><ele>411.0</ele><time>2026-04-22T15:39:34.999Z</time></trkpt><trkpt lat="42.802503688197554" lon="12.916566061472164"><ele>411.0</ele><time>2026-04-22T15:39:35.999Z</time></trkpt><trkpt lat="42.80258701859818" lon="12.916482241707287"><ele>411.0</ele><time>2026-04-22T15:39:36.999Z</time></trkpt><trkpt lat="42.80266949073419" lon="12.916391111877259"><ele>411.0</ele><time>2026-04-22T15:39:37.999Z</time></trkpt><trkpt lat="42.80275347722933" lon="12.91629395645099"><ele>415.8</ele><time>2026-04-22T15:39:38.999Z</time></trkpt><trkpt lat="42.80283640983243" lon="12.916195965112173"><ele>420.6</ele><time>2026-04-22T15:39:39.999Z</time></trkpt><trkpt lat="42.802919381492856" lon="12.916104703769244"><ele>425.4</ele><time>2026-04-22T15:39:40.999Z</time></trkpt><trkpt lat="42.802996152433536" lon="12.916028904769075"><ele>430.2</ele><time>2026-04-22T15:39:41.999Z</time></trkpt><trkpt lat="42.80307037358" lon="12.915967149776119"><ele>435.0</ele><time>2026-04-22T15:39:42.999Z</time></trkpt><trkpt lat="42.8031465885488" lon="12.915919665134298"><ele>435.0</ele><time>2026-04-22T15:39:43.999Z</time></trkpt><trkpt lat="42.80321897480405" lon="12.915874041809323"><ele>435.0</ele><time>2026-04-22T15:39:44.999Z</time></trkpt><trkpt lat="42.80328822787787" lon="12.915818534081394"><ele>435.0</ele><time>2026-04-22T15:39:45.999Z</time></trkpt><trkpt lat="42.80335824067647" lon="12.915759295850082"><ele>435.0</ele><time>2026-04-22T15:39:46.999Z</time></trkpt><trkpt lat="42.803427380915736" lon="12.915703572162007"><ele>435.0</ele><time>2026-04-22T15:39:47.999Z</time></trkpt><trkpt lat="42.80349331485149" lon="12.915654776392387"><ele>435.0</ele><time>2026-04-22T15:39:48.999Z</time></trkpt><trkpt lat="42.80355743186287" lon="12.915598069037191"><ele>435.0</ele><time>2026-04-22T15:39:49.999Z</time></trkpt><trkpt lat="42.803622771761674" lon="12.91552775580889"><ele>435.0</ele><time>2026-04-22T15:39:50.999Z</time></trkpt><trkpt lat="42.80369193963389" lon="12.915447897787022"><ele>435.0</ele><time>2026-04-22T15:39:51.999Z</time></trkpt><trkpt lat="42.80375931440737" lon="12.915357479558914"><ele>435.0</ele><time>2026-04-22T15:39:52.999Z</time></trkpt><trkpt lat="42.80383214535194" lon="12.915260391872994"><ele>435.0</ele><time>2026-04-22T15:39:53.999Z</time></trkpt><trkpt lat="42.80397990622157" lon="12.915072909762948"><ele>436.8</ele><time>2026-04-22T15:39:55.999Z</time></trkpt><trkpt lat="42.80403499940349" lon="12.915012810678318"><ele>438.6</ele><time>2026-04-22T15:39:56.999Z</time></trkpt><trkpt lat="42.8041836027703" lon="12.914883605065892"><ele>440.4</ele><time>2026-04-22T15:39:59.999Z</time></trkpt><trkpt lat="42.804259280152586" lon="12.914860119224343"><ele>442.2</ele><time>2026-04-22T15:40:00.999Z</time></trkpt><trkpt lat="42.804333185205444" lon="12.914808476381614"><ele>444.0</ele><time>2026-04-22T15:40:01.999Z</time></trkpt><trkpt lat="42.80441064857589" lon="12.914750638756333"><ele>444.0</ele><time>2026-04-22T15:40:02.999Z</time></trkpt><trkpt lat="42.80449773152812" lon="12.914679439361182"><ele>444.0</ele><time>2026-04-22T15:40:03.999Z</time></trkpt><trkpt lat="42.80458280449562" lon="12.914585780688299"><ele>444.0</ele><time>2026-04-22T15:40:04.999Z</time></trkpt><trkpt lat="42.80468438278134" lon="12.914503315493729"><ele>444.0</ele><time>2026-04-22T15:40:05.999Z</time></trkpt><trkpt lat="42.80478622650142" lon="12.914413996632819"><ele>444.0</ele><time>2026-04-22T15:40:06.999Z</time></trkpt><trkpt lat="42.80488113624173" lon="12.914320581450543"><ele>444.0</ele><time>2026-04-22T15:40:07.999Z</time></trkpt><trkpt lat="42.804964547061225" lon="12.914220412175741"><ele>444.0</ele><time>2026-04-22T15:40:08.999Z</time></trkpt><trkpt lat="42.80509508208952" lon="12.91399263624829"><ele>444.0</ele><time>2026-04-22T15:40:10.999Z</time></trkpt><trkpt lat="42.805140809595315" lon="12.913867466628222"><ele>443.2</ele><time>2026-04-22T15:40:11.999Z</time></trkpt><trkpt lat="42.805170418087165" lon="12.91374962999096"><ele>442.4</ele><time>2026-04-22T15:40:12.999Z</time></trkpt><trkpt lat="42.80519370226374" lon="12.913645581246103"><ele>441.6</ele><time>2026-04-22T15:40:13.999Z</time></trkpt><trkpt lat="42.80520762348289" lon="12.913555828359842"><ele>440.8</ele><time>2026-04-22T15:40:14.999Z</time></trkpt><trkpt lat="42.80524309410823" lon="12.913412925984966"><ele>440.0</ele><time>2026-04-22T15:40:16.999Z</time></trkpt><trkpt lat="42.80527918887425" lon="12.913260900477422"><ele>439.99999999999994</ele><time>2026-04-22T15:40:18.999Z</time></trkpt><trkpt lat="42.80532110276602" lon="12.91318832594946"><ele>440.0</ele><time>2026-04-22T15:40:19.999Z</time></trkpt><trkpt lat="42.80537527497251" lon="12.913115933680714"><ele>440.0</ele><time>2026-04-22T15:40:20.999Z</time></trkpt><trkpt lat="42.805433886463156" lon="12.913032593872275"><ele>440.0</ele><time>2026-04-22T15:40:21.999Z</time></trkpt><trkpt lat="42.80550163654142" lon="12.912946988048846"><ele>439.99999999999994</ele><time>2026-04-22T15:40:22.999Z</time></trkpt><trkpt lat="42.80556776561989" lon="12.912872003298265"><ele>440.0</ele><time>2026-04-22T15:40:23.999Z</time></trkpt><trkpt lat="42.8056382816684" lon="12.91279155175947"><ele>439.99999999999994</ele><time>2026-04-22T15:40:24.999Z</time></trkpt><trkpt lat="42.80570135322992" lon="12.912716964373413"><ele>440.0</ele><time>2026-04-22T15:40:25.999Z</time></trkpt><trkpt lat="42.80576786763218" lon="12.912649843539812"><ele>440.0</ele><time>2026-04-22T15:40:26.999Z</time></trkpt><trkpt lat="42.80583206240999" lon="12.912589527592893"><ele>440.0</ele><time>2026-04-22T15:40:27.999Z</time></trkpt><trkpt lat="42.80589686342197" lon="12.91254408194116"><ele>439.99999999999994</ele><time>2026-04-22T15:40:28.999Z</time></trkpt><trkpt lat="42.80596116233208" lon="12.912516370188134"><ele>440.0</ele><time>2026-04-22T15:40:29.999Z</time></trkpt><trkpt lat="42.80606960141114" lon="12.912423804829725"><ele>440.0</ele><time>2026-04-22T15:40:31.999Z</time></trkpt><trkpt lat="42.806149888467" lon="12.912352188030399"><ele>440.0</ele><time>2026-04-22T15:40:33.999Z</time></trkpt><trkpt lat="42.806200519762314" lon="12.912544212843349"><ele>440.0</ele><time>2026-04-22T15:40:36.999Z</time></trkpt><trkpt lat="42.80612466376458" lon="12.912604963141051"><ele>440.0</ele><time>2026-04-22T15:40:38.999Z</time></trkpt><trkpt lat="42.80601952473044" lon="12.91262356459245"><ele>440.0</ele><time>2026-04-22T15:40:39.999Z</time></trkpt><trkpt lat="42.80593693218265" lon="12.91267246696576"><ele>440.0</ele><time>2026-04-22T15:40:40.999Z</time></trkpt><trkpt lat="42.80587924250345" lon="12.912770182035493"><ele>440.0</ele><time>2026-04-22T15:40:41.999Z</time></trkpt><trkpt lat="42.80583001114171" lon="12.912904850698869"><ele>440.0</ele><time>2026-04-22T15:40:42.999Z</time></trkpt><trkpt lat="42.80579107966766" lon="12.91306857355661"><ele>440.0</ele><time>2026-04-22T15:40:43.999Z</time></trkpt><trkpt lat="42.80573195775602" lon="12.913239398822364"><ele>443.25</ele><time>2026-04-22T15:40:44.999Z</time></trkpt><trkpt lat="42.805708449873826" lon="12.913419323743778"><ele>446.5</ele><time>2026-04-22T15:40:45.999Z</time></trkpt><trkpt lat="42.80568263371711" lon="12.913607628980321"><ele>449.75</ele><time>2026-04-22T15:40:46.999Z</time></trkpt><trkpt lat="42.80567421169411" lon="12.913810212990615"><ele>453.0</ele><time>2026-04-22T15:40:47.999Z</time></trkpt><trkpt lat="42.80567085777633" lon="12.914023525566792"><ele>453.0</ele><time>2026-04-22T15:40:48.999Z</time></trkpt><trkpt lat="42.805633895300716" lon="12.914224064289932"><ele>453.0</ele><time>2026-04-22T15:40:49.999Z</time></trkpt><trkpt lat="42.80559674292769" lon="12.914407253972659"><ele>453.0</ele><time>2026-04-22T15:40:50.999Z</time></trkpt><trkpt lat="42.805525599884135" lon="12.914571447515002"><ele>453.0</ele><time>2026-04-22T15:40:51.999Z</time></trkpt><trkpt lat="42.8054380367732" lon="12.914747926723107"><ele>459.33333333333337</ele><time>2026-04-22T15:40:52.999Z</time></trkpt><trkpt lat="42.805336479543" lon="12.914920145281924"><ele>465.6666666666667</ele><time>2026-04-22T15:40:53.999Z</time></trkpt><trkpt lat="42.805223611577645" lon="12.91507528471352"><ele>472.0</ele><time>2026-04-22T15:40:54.999Z</time></trkpt><trkpt lat="42.805119135432726" lon="12.915217050380031"><ele>472.00000000000006</ele><time>2026-04-22T15:40:55.999Z</time></trkpt><trkpt lat="42.80503413533615" lon="12.915333588227467"><ele>472.0</ele><time>2026-04-22T15:40:56.999Z</time></trkpt><trkpt lat="42.80496824554629" lon="12.915434757738584"><ele>472.0</ele><time>2026-04-22T15:40:57.999Z</time></trkpt><trkpt lat="42.80493100722597" lon="12.915521533106487"><ele>472.0</ele><time>2026-04-22T15:40:58.999Z</time></trkpt><trkpt lat="42.80493914289398" lon="12.915624103112929"><ele>472.00000000000006</ele><time>2026-04-22T15:40:59.999Z</time></trkpt><trkpt lat="42.80498792153837" lon="12.915708099069324"><ele>472.0</ele><time>2026-04-22T15:41:00.999Z</time></trkpt><trkpt lat="42.80509133439212" lon="12.915705102326747"><ele>480.0</ele><time>2026-04-22T15:41:01.999Z</time></trkpt><trkpt lat="42.80518104214897" lon="12.915662141531005"><ele>488.0</ele><time>2026-04-22T15:41:02.999Z</time></trkpt><trkpt lat="42.80527851943217" lon="12.915563749807847"><ele>496.0</ele><time>2026-04-22T15:41:03.999Z</time></trkpt><trkpt lat="42.80537447669257" lon="12.915420825716792"><ele>504.0</ele><time>2026-04-22T15:41:04.999Z</time></trkpt><trkpt lat="42.80547522881716" lon="12.915284456408484"><ele>504.0</ele><time>2026-04-22T15:41:05.999Z</time></trkpt><trkpt lat="42.80558567479563" lon="12.915132059779552"><ele>504.0</ele><time>2026-04-22T15:41:06.999Z</time></trkpt><trkpt lat="42.80570518101322" lon="12.914974765815128"><ele>504.0</ele><time>2026-04-22T15:41:07.999Z</time></trkpt><trkpt lat="42.80583003393642" lon="12.914821568077526"><ele>497.5</ele><time>2026-04-22T15:41:08.999Z</time></trkpt><trkpt lat="42.8059419305656" lon="12.914694095833195"><ele>491.0</ele><time>2026-04-22T15:41:09.999Z</time></trkpt><trkpt lat="42.80605011282974" lon="12.914582510274409"><ele>484.5</ele><time>2026-04-22T15:41:10.999Z</time></trkpt><trkpt lat="42.80615765200479" lon="12.914511271207472"><ele>478.0</ele><time>2026-04-22T15:41:11.999Z</time></trkpt><trkpt lat="42.806255786933285" lon="12.914495185615452"><ele>478.0</ele><time>2026-04-22T15:41:12.999Z</time></trkpt><trkpt lat="42.8063411393609" lon="12.914540229731958"><ele>477.99999999999994</ele><time>2026-04-22T15:41:13.999Z</time></trkpt><trkpt lat="42.806429048587" lon="12.914617275985094"><ele>477.99999999999994</ele><time>2026-04-22T15:41:14.999Z</time></trkpt><trkpt lat="42.806525406042894" lon="12.914714714987726"><ele>478.0</ele><time>2026-04-22T15:41:15.999Z</time></trkpt><trkpt lat="42.806625278954556" lon="12.914834822531198"><ele>478.0</ele><time>2026-04-22T15:41:16.999Z</time></trkpt><trkpt lat="42.80670259355834" lon="12.914972551759222"><ele>478.00000000000006</ele><time>2026-04-22T15:41:17.999Z</time></trkpt><trkpt lat="42.8067654870815" lon="12.91507360258263"><ele>478.0</ele><time>2026-04-22T15:41:18.999Z</time></trkpt><trkpt lat="42.80680190753962" lon="12.915151436642002"><ele>478.0</ele><time>2026-04-22T15:41:19.999Z</time></trkpt><trkpt lat="42.806801510408114" lon="12.915237637818729"><ele>478.0</ele><time>2026-04-22T15:41:21.999Z</time></trkpt><trkpt lat="42.806677495003065" lon="12.915204220403416"><ele>478.00000000000006</ele><time>2026-04-22T15:41:23.999Z</time></trkpt><trkpt lat="42.80662967089562" lon="12.91512474393948"><ele>478.0</ele><time>2026-04-22T15:41:24.999Z</time></trkpt><trkpt lat="42.80657943603433" lon="12.915027209044622"><ele>478.0</ele><time>2026-04-22T15:41:25.999Z</time></trkpt><trkpt lat="42.8065008845056" lon="12.914956437840603"><ele>477.99999999999994</ele><time>2026-04-22T15:41:26.999Z</time></trkpt><trkpt lat="42.806397846914685" lon="12.914896549376781"><ele>477.99999999999994</ele><time>2026-04-22T15:41:27.999Z</time></trkpt><trkpt lat="42.8062866207977" lon="12.914920010849045"><ele>478.0</ele><time>2026-04-22T15:41:28.999Z</time></trkpt><trkpt lat="42.80618777534349" lon="12.915007135209423"><ele>478.0</ele><time>2026-04-22T15:41:29.999Z</time></trkpt><trkpt lat="42.80610111276917" lon="12.915142490751233"><ele>484.5</ele><time>2026-04-22T15:41:30.999Z</time></trkpt><trkpt lat="42.80602484552801" lon="12.915291900121005"><ele>491.0</ele><time>2026-04-22T15:41:31.999Z</time></trkpt><trkpt lat="42.80594496177859" lon="12.915450686236182"><ele>497.5</ele><time>2026-04-22T15:41:32.999Z</time></trkpt><trkpt lat="42.80584720692338" lon="12.915608903499953"><ele>504.0</ele><time>2026-04-22T15:41:33.999Z</time></trkpt><trkpt lat="42.80574078782456" lon="12.915755991718802"><ele>515.0</ele><time>2026-04-22T15:41:34.999Z</time></trkpt><trkpt lat="42.80562404925574" lon="12.915906185173723"><ele>526.0</ele><time>2026-04-22T15:41:35.999Z</time></trkpt><trkpt lat="42.805501197992285" lon="12.916064638671829"><ele>537.0</ele><time>2026-04-22T15:41:36.999Z</time></trkpt><trkpt lat="42.80537610733063" lon="12.916233757928229"><ele>537.0</ele><time>2026-04-22T15:41:37.999Z</time></trkpt><trkpt lat="42.80525901624755" lon="12.916438379928898"><ele>537.0</ele><time>2026-04-22T15:41:38.999Z</time></trkpt><trkpt lat="42.80511797013137" lon="12.916630414135726"><ele>537.0</ele><time>2026-04-22T15:41:39.999Z</time></trkpt><trkpt lat="42.804973759551096" lon="12.91683406487784"><ele>538.3333333333334</ele><time>2026-04-22T15:41:40.999Z</time></trkpt><trkpt lat="42.804854013232294" lon="12.916998489956171"><ele>539.6666666666667</ele><time>2026-04-22T15:41:41.999Z</time></trkpt><trkpt lat="42.80472246082891" lon="12.917180478261898"><ele>541.0</ele><time>2026-04-22T15:41:42.999Z</time></trkpt><trkpt lat="42.80459006920171" lon="12.917366436225297"><ele>541.0</ele><time>2026-04-22T15:41:43.999Z</time></trkpt><trkpt lat="42.80446106922529" lon="12.917549540271756"><ele>541.0</ele><time>2026-04-22T15:41:44.999Z</time></trkpt><trkpt lat="42.80432954053928" lon="12.917734757941767"><ele>541.0</ele><time>2026-04-22T15:41:45.999Z</time></trkpt><trkpt lat="42.80419601961725" lon="12.91791810921382"><ele>540.0</ele><time>2026-04-22T15:41:46.999Z</time></trkpt><trkpt lat="42.80405468339276" lon="12.918092752590429"><ele>539.0</ele><time>2026-04-22T15:41:47.999Z</time></trkpt><trkpt lat="42.80390216997268" lon="12.918252002924133"><ele>538.0</ele><time>2026-04-22T15:41:48.999Z</time></trkpt><trkpt lat="42.80374568797024" lon="12.918408673329212"><ele>540.3333333333334</ele><time>2026-04-22T15:41:49.999Z</time></trkpt><trkpt lat="42.80358974256154" lon="12.918564806515567"><ele>542.6666666666666</ele><time>2026-04-22T15:41:50.999Z</time></trkpt><trkpt lat="42.80343063078205" lon="12.918726861058797"><ele>545.0</ele><time>2026-04-22T15:41:51.999Z</time></trkpt><trkpt lat="42.803271311733894" lon="12.918897708849215"><ele>545.0</ele><time>2026-04-22T15:41:52.999Z</time></trkpt><trkpt lat="42.80313125365412" lon="12.91910566061513"><ele>545.0</ele><time>2026-04-22T15:41:53.999Z</time></trkpt><trkpt lat="42.8029777182448" lon="12.919306069620225"><ele>545.0</ele><time>2026-04-22T15:41:54.999Z</time></trkpt><trkpt lat="42.80282026908723" lon="12.91951663533162"><ele>545.0</ele><time>2026-04-22T15:41:55.999Z</time></trkpt><trkpt lat="42.80265837814671" lon="12.919736998431212"><ele>545.0</ele><time>2026-04-22T15:41:56.999Z</time></trkpt><trkpt lat="42.80248515447966" lon="12.919939659561658"><ele>562.0</ele><time>2026-04-22T15:41:57.999Z</time></trkpt><trkpt lat="42.80233185297907" lon="12.92017844229155"><ele>579.0</ele><time>2026-04-22T15:41:58.999Z</time></trkpt><trkpt lat="42.80215517579057" lon="12.920383990453292"><ele>579.0</ele><time>2026-04-22T15:41:59.999Z</time></trkpt><trkpt lat="42.80199177165417" lon="12.920601915961937"><ele>579.0</ele><time>2026-04-22T15:42:00.999Z</time></trkpt><trkpt lat="42.80184227450931" lon="12.920781147095191"><ele>579.0</ele><time>2026-04-22T15:42:01.999Z</time></trkpt><trkpt lat="42.8016809042822" lon="12.920922960994968"><ele>580.6666666666666</ele><time>2026-04-22T15:42:02.999Z</time></trkpt><trkpt lat="42.801511197739494" lon="12.921064976330127"><ele>582.3333333333333</ele><time>2026-04-22T15:42:03.999Z</time></trkpt><trkpt lat="42.801365800611244" lon="12.921262903617585"><ele>584.0</ele><time>2026-04-22T15:42:04.999Z</time></trkpt><trkpt lat="42.8012234998473" lon="12.921480495322864"><ele>584.0</ele><time>2026-04-22T15:42:05.999Z</time></trkpt><trkpt lat="42.80108169518456" lon="12.921717084954654"><ele>584.0</ele><time>2026-04-22T15:42:06.999Z</time></trkpt><trkpt lat="42.800919460600596" lon="12.921946047032778"><ele>581.5</ele><time>2026-04-22T15:42:07.999Z</time></trkpt><trkpt lat="42.80077837411763" lon="12.922192227746377"><ele>579.0</ele><time>2026-04-22T15:42:08.999Z</time></trkpt><trkpt lat="42.80065336555861" lon="12.92244290400726"><ele>589.0</ele><time>2026-04-22T15:42:09.999Z</time></trkpt><trkpt lat="42.80052100138769" lon="12.922665129788955"><ele>599.0</ele><time>2026-04-22T15:42:10.999Z</time></trkpt><trkpt lat="42.80035921674095" lon="12.922852987392998"><ele>609.0</ele><time>2026-04-22T15:42:11.999Z</time></trkpt><trkpt lat="42.80020991182209" lon="12.923049133312288"><ele>601.5</ele><time>2026-04-22T15:42:12.999Z</time></trkpt><trkpt lat="42.800100406535734" lon="12.923245536556255"><ele>594.0</ele><time>2026-04-22T15:42:13.999Z</time></trkpt><trkpt lat="42.800011138878666" lon="12.92339453132885"><ele>586.5</ele><time>2026-04-22T15:42:14.999Z</time></trkpt><trkpt lat="42.79994138651101" lon="12.923508880190365"><ele>579.0</ele><time>2026-04-22T15:42:15.999Z</time></trkpt><trkpt lat="42.79988481847491" lon="12.92356706158926"><ele>579.0</ele><time>2026-04-22T15:42:16.999Z</time></trkpt><trkpt lat="42.79986363064798" lon="12.923650693733922"><ele>579.0</ele><time>2026-04-22T15:42:17.999Z</time></trkpt><trkpt lat="42.79987964819913" lon="12.923739373209369"><ele>579.0</ele><time>2026-04-22T15:42:18.999Z</time></trkpt><trkpt lat="42.79998346026279" lon="12.923765914130245"><ele>579.0</ele><time>2026-04-22T15:42:19.999Z</time></trkpt><trkpt lat="42.80006465235839" lon="12.923719789674813"><ele>579.0</ele><time>2026-04-22T15:42:20.999Z</time></trkpt><trkpt lat="42.80014766309496" lon="12.92362359159859"><ele>579.0</ele><time>2026-04-22T15:42:21.999Z</time></trkpt><trkpt lat="42.80023486490984" lon="12.92348246526384"><ele>586.5</ele><time>2026-04-22T15:42:22.999Z</time></trkpt><trkpt lat="42.80033144375345" lon="12.923339039225771"><ele>594.0</ele><time>2026-04-22T15:42:23.999Z</time></trkpt><trkpt lat="42.8004493204132" lon="12.923226759871687"><ele>601.5</ele><time>2026-04-22T15:42:24.999Z</time></trkpt><trkpt lat="42.80060359412603" lon="12.92316505734427"><ele>609.0</ele><time>2026-04-22T15:42:25.999Z</time></trkpt><trkpt lat="42.80072815574059" lon="12.92307720623336"><ele>609.0</ele><time>2026-04-22T15:42:26.999Z</time></trkpt><trkpt lat="42.80080744564174" lon="12.922997503942822"><ele>609.0</ele><time>2026-04-22T15:42:27.999Z</time></trkpt><trkpt lat="42.80086998830365" lon="12.922981191680266"><ele>609.0</ele><time>2026-04-22T15:42:28.999Z</time></trkpt><trkpt lat="42.80092248312913" lon="12.923030118302217"><ele>609.0</ele><time>2026-04-22T15:42:29.999Z</time></trkpt><trkpt lat="42.800941302159075" lon="12.923120468459757"><ele>609.0</ele><time>2026-04-22T15:42:30.999Z</time></trkpt><trkpt lat="42.800918198561504" lon="12.923221357713587"><ele>609.0</ele><time>2026-04-22T15:42:31.999Z</time></trkpt><trkpt lat="42.80083080079816" lon="12.923271156571273"><ele>609.0</ele><time>2026-04-22T15:42:32.999Z</time></trkpt><trkpt lat="42.800749796921636" lon="12.923316361104668"><ele>609.0</ele><time>2026-04-22T15:42:33.999Z</time></trkpt><trkpt lat="42.800638188774656" lon="12.923364221727281"><ele>609.0</ele><time>2026-04-22T15:42:34.999Z</time></trkpt><trkpt lat="42.800524905313175" lon="12.923440481773468"><ele>609.0</ele><time>2026-04-22T15:42:35.999Z</time></trkpt><trkpt lat="42.8004511431972" lon="12.923573639196512"><ele>615.5</ele><time>2026-04-22T15:42:36.999Z</time></trkpt><trkpt lat="42.8003938583484" lon="12.923737681474822"><ele>622.0</ele><time>2026-04-22T15:42:37.999Z</time></trkpt><trkpt lat="42.800361858804216" lon="12.923928230954562"><ele>628.5</ele><time>2026-04-22T15:42:38.999Z</time></trkpt><trkpt lat="42.80036227203158" lon="12.924146083383517"><ele>635.0</ele><time>2026-04-22T15:42:39.999Z</time></trkpt><trkpt lat="42.800366507640156" lon="12.924378927132912"><ele>636.3333333333333</ele><time>2026-04-22T15:42:40.999Z</time></trkpt><trkpt lat="42.8003514064261" lon="12.924617255582582"><ele>637.6666666666666</ele><time>2026-04-22T15:42:41.999Z</time></trkpt><trkpt lat="42.80037115650755" lon="12.924832735823147"><ele>639.0</ele><time>2026-04-22T15:42:42.999Z</time></trkpt><trkpt lat="42.80040441873611" lon="12.92503269020157"><ele>629.6666666666666</ele><time>2026-04-22T15:42:43.999Z</time></trkpt><trkpt lat="42.80047937828967" lon="12.925212764339188"><ele>620.3333333333333</ele><time>2026-04-22T15:42:44.999Z</time></trkpt><trkpt lat="42.80059207313178" lon="12.92536626875071"><ele>611.0</ele><time>2026-04-22T15:42:45.999Z</time></trkpt><trkpt lat="42.800728382618466" lon="12.925501112991876"><ele>611.0</ele><time>2026-04-22T15:42:46.999Z</time></trkpt><trkpt lat="42.80088280899483" lon="12.925608334946974"><ele>611.0</ele><time>2026-04-22T15:42:47.999Z</time></trkpt><trkpt lat="42.80104678633953" lon="12.925687004224317"><ele>611.0</ele><time>2026-04-22T15:42:48.999Z</time></trkpt><trkpt lat="42.80119985723432" lon="12.925771295583475"><ele>616.75</ele><time>2026-04-22T15:42:49.999Z</time></trkpt><trkpt lat="42.80131144949793" lon="12.925879985338204"><ele>622.5</ele><time>2026-04-22T15:42:50.999Z</time></trkpt><trkpt lat="42.80136052309016" lon="12.926048683310508"><ele>628.25</ele><time>2026-04-22T15:42:51.999Z</time></trkpt><trkpt lat="42.80140840827886" lon="12.9262307918742"><ele>634.0</ele><time>2026-04-22T15:42:52.999Z</time></trkpt><trkpt lat="42.80148031599328" lon="12.926415069545047"><ele>634.0</ele><time>2026-04-22T15:42:53.999Z</time></trkpt><trkpt lat="42.8015467831752" lon="12.926564877081493"><ele>634.0</ele><time>2026-04-22T15:42:54.999Z</time></trkpt><trkpt lat="42.80159748211199" lon="12.926692161625148"><ele>634.0</ele><time>2026-04-22T15:42:55.999Z</time></trkpt><trkpt lat="42.801626757290144" lon="12.926812359359687"><ele>634.0</ele><time>2026-04-22T15:42:56.999Z</time></trkpt><trkpt lat="42.80160663456105" lon="12.926919820100567"><ele>634.0</ele><time>2026-04-22T15:42:57.999Z</time></trkpt><trkpt lat="42.80158181528669" lon="12.927015083772917"><ele>638.5</ele><time>2026-04-22T15:42:58.999Z</time></trkpt><trkpt lat="42.80148430897338" lon="12.927026694736188"><ele>643.0</ele><time>2026-04-22T15:42:59.999Z</time></trkpt><trkpt lat="42.801392104173246" lon="12.927021544400295"><ele>647.5</ele><time>2026-04-22T15:43:00.999Z</time></trkpt><trkpt lat="42.80126482545531" lon="12.927010543806336"><ele>652.0</ele><time>2026-04-22T15:43:01.999Z</time></trkpt><trkpt lat="42.80110247173775" lon="12.92698071627551"><ele>650.6666666666667</ele><time>2026-04-22T15:43:02.999Z</time></trkpt><trkpt lat="42.80093714339252" lon="12.926964231336123"><ele>649.3333333333334</ele><time>2026-04-22T15:43:03.999Z</time></trkpt><trkpt lat="42.80076818557524" lon="12.926971304169443"><ele>648.0</ele><time>2026-04-22T15:43:04.999Z</time></trkpt><trkpt lat="42.80059097134757" lon="12.927026669473198"><ele>648.0</ele><time>2026-04-22T15:43:05.999Z</time></trkpt><trkpt lat="42.80040491481138" lon="12.927094317857682"><ele>648.0</ele><time>2026-04-22T15:43:06.999Z</time></trkpt><trkpt lat="42.80022209310629" lon="12.927134489673511"><ele>648.0</ele><time>2026-04-22T15:43:07.999Z</time></trkpt><trkpt lat="42.80004197875722" lon="12.927152886855692"><ele>647.0</ele><time>2026-04-22T15:43:08.999Z</time></trkpt><trkpt lat="42.799882030936104" lon="12.927140864048553"><ele>646.0</ele><time>2026-04-22T15:43:09.999Z</time></trkpt><trkpt lat="42.7997238686214" lon="12.927129981757552"><ele>645.0</ele><time>2026-04-22T15:43:10.999Z</time></trkpt><trkpt lat="42.79956418830503" lon="12.927161680035796"><ele>645.0</ele><time>2026-04-22T15:43:11.999Z</time></trkpt><trkpt lat="42.79942779912775" lon="12.92720360376357"><ele>645.0</ele><time>2026-04-22T15:43:12.999Z</time></trkpt><trkpt lat="42.79930394802546" lon="12.927195824132117"><ele>645.0</ele><time>2026-04-22T15:43:13.999Z</time></trkpt><trkpt lat="42.79919436162911" lon="12.927143415648128"><ele>645.0</ele><time>2026-04-22T15:43:14.999Z</time></trkpt><trkpt lat="42.79910770955157" lon="12.927048518764776"><ele>646.25</ele><time>2026-04-22T15:43:15.999Z</time></trkpt><trkpt lat="42.79902222178383" lon="12.926938829049025"><ele>647.5</ele><time>2026-04-22T15:43:16.999Z</time></trkpt><trkpt lat="42.79892479034854" lon="12.926829938236974"><ele>648.75</ele><time>2026-04-22T15:43:17.999Z</time></trkpt><trkpt lat="42.79880108540922" lon="12.926760642962567"><ele>650.0</ele><time>2026-04-22T15:43:18.999Z</time></trkpt><trkpt lat="42.7986693452755" lon="12.926696205586332"><ele>644.3333333333333</ele><time>2026-04-22T15:43:19.999Z</time></trkpt><trkpt lat="42.79852260220741" lon="12.926652660203528"><ele>638.6666666666666</ele><time>2026-04-22T15:43:20.999Z</time></trkpt><trkpt lat="42.79837342391525" lon="12.926593346559885"><ele>633.0</ele><time>2026-04-22T15:43:21.999Z</time></trkpt><trkpt lat="42.79822055960374" lon="12.926588457450297"><ele>633.0</ele><time>2026-04-22T15:43:22.999Z</time></trkpt><trkpt lat="42.79807304586338" lon="12.926569639353314"><ele>633.0</ele><time>2026-04-22T15:43:23.999Z</time></trkpt><trkpt lat="42.79793798716272" lon="12.926577278551118"><ele>633.0</ele><time>2026-04-22T15:43:24.999Z</time></trkpt><trkpt lat="42.797812252899504" lon="12.92662671177633"><ele>633.0</ele><time>2026-04-22T15:43:25.999Z</time></trkpt><trkpt lat="42.79770404956483" lon="12.926745983149763"><ele>637.0</ele><time>2026-04-22T15:43:26.999Z</time></trkpt><trkpt lat="42.79760277702516" lon="12.92690594893192"><ele>641.0</ele><time>2026-04-22T15:43:27.999Z</time></trkpt><trkpt lat="42.79747742481019" lon="12.927053286148226"><ele>645.0</ele><time>2026-04-22T15:43:28.999Z</time></trkpt><trkpt lat="42.79735808410269" lon="12.927205427096792"><ele>645.0</ele><time>2026-04-22T15:43:29.999Z</time></trkpt><trkpt lat="42.79723934955745" lon="12.92738007388869"><ele>645.0</ele><time>2026-04-22T15:43:30.999Z</time></trkpt><trkpt lat="42.79714306472095" lon="12.927571770636616"><ele>645.0</ele><time>2026-04-22T15:43:31.999Z</time></trkpt><trkpt lat="42.79705432813853" lon="12.927745074059429"><ele>647.0</ele><time>2026-04-22T15:43:32.999Z</time></trkpt><trkpt lat="42.79697361566768" lon="12.927902721198834"><ele>649.0</ele><time>2026-04-22T15:43:33.999Z</time></trkpt><trkpt lat="42.79690453977012" lon="12.928018913959272"><ele>651.0</ele><time>2026-04-22T15:43:34.999Z</time></trkpt><trkpt lat="42.79683087675416" lon="12.928100984304741"><ele>653.0</ele><time>2026-04-22T15:43:35.999Z</time></trkpt><trkpt lat="42.79676768252055" lon="12.928170965279897"><ele>655.0</ele><time>2026-04-22T15:43:36.999Z</time></trkpt><trkpt lat="42.79669023273269" lon="12.928157638616664"><ele>655.0</ele><time>2026-04-22T15:43:37.999Z</time></trkpt><trkpt lat="42.79660352232544" lon="12.928048739474105"><ele>655.0</ele><time>2026-04-22T15:43:39.999Z</time></trkpt><trkpt lat="42.79657813994373" lon="12.927923862254739"><ele>655.0</ele><time>2026-04-22T15:43:40.999Z</time></trkpt><trkpt lat="42.79656092674773" lon="12.927749275423828"><ele>655.0</ele><time>2026-04-22T15:43:41.999Z</time></trkpt><trkpt lat="42.79650050769949" lon="12.927572878845144"><ele>647.0</ele><time>2026-04-22T15:43:42.999Z</time></trkpt><trkpt lat="42.79641710444251" lon="12.927394715597838"><ele>639.0</ele><time>2026-04-22T15:43:43.999Z</time></trkpt><trkpt lat="42.79631877573493" lon="12.927221528040114"><ele>631.0</ele><time>2026-04-22T15:43:44.999Z</time></trkpt><trkpt lat="42.796243602459754" lon="12.927020375359342"><ele>631.0</ele><time>2026-04-22T15:43:45.999Z</time></trkpt><trkpt lat="42.79616915494599" lon="12.926819525927616"><ele>631.0</ele><time>2026-04-22T15:43:46.999Z</time></trkpt><trkpt lat="42.796088255542166" lon="12.926594431572765"><ele>631.0</ele><time>2026-04-22T15:43:47.999Z</time></trkpt><trkpt lat="42.795959405300245" lon="12.926408473046232"><ele>630.3333333333334</ele><time>2026-04-22T15:43:48.999Z</time></trkpt><trkpt lat="42.79584336968729" lon="12.926220039212433"><ele>629.6666666666666</ele><time>2026-04-22T15:43:49.999Z</time></trkpt><trkpt lat="42.79575027283648" lon="12.926058330498355"><ele>629.0</ele><time>2026-04-22T15:43:50.999Z</time></trkpt><trkpt lat="42.79566429789137" lon="12.92589156967177"><ele>629.0</ele><time>2026-04-22T15:43:51.999Z</time></trkpt><trkpt lat="42.79557689763242" lon="12.925748516826484"><ele>629.0</ele><time>2026-04-22T15:43:52.999Z</time></trkpt><trkpt lat="42.79548392516642" lon="12.925649723693708"><ele>629.0</ele><time>2026-04-22T15:43:53.999Z</time></trkpt><trkpt lat="42.795382703017225" lon="12.925597300908208"><ele>629.0</ele><time>2026-04-22T15:43:54.999Z</time></trkpt><trkpt lat="42.795271285498664" lon="12.925610040659576"><ele>635.6666666666666</ele><time>2026-04-22T15:43:55.999Z</time></trkpt><trkpt lat="42.795141609435355" lon="12.925652558377804"><ele>642.3333333333334</ele><time>2026-04-22T15:43:56.999Z</time></trkpt><trkpt lat="42.794989258416024" lon="12.925682040681533"><ele>649.0</ele><time>2026-04-22T15:43:57.999Z</time></trkpt><trkpt lat="42.794822532728766" lon="12.925747475781016"><ele>649.0</ele><time>2026-04-22T15:43:58.999Z</time></trkpt><trkpt lat="42.794651947554435" lon="12.925820360482621"><ele>649.0</ele><time>2026-04-22T15:43:59.999Z</time></trkpt><trkpt lat="42.79447965749337" lon="12.92589725824516"><ele>649.0</ele><time>2026-04-22T15:44:00.999Z</time></trkpt><trkpt lat="42.79430039960685" lon="12.925978181177356"><ele>659.6666666666667</ele><time>2026-04-22T15:44:01.999Z</time></trkpt><trkpt lat="42.79411082614591" lon="12.926067849363156"><ele>670.3333333333334</ele><time>2026-04-22T15:44:02.999Z</time></trkpt><trkpt lat="42.793915983653285" lon="12.926160009823134"><ele>681.0</ele><time>2026-04-22T15:44:03.999Z</time></trkpt><trkpt lat="42.79371724933813" lon="12.926252089602988"><ele>681.0</ele><time>2026-04-22T15:44:04.999Z</time></trkpt><trkpt lat="42.793517769144785" lon="12.926343737499437"><ele>681.0</ele><time>2026-04-22T15:44:05.999Z</time></trkpt><trkpt lat="42.79331030887843" lon="12.926443253215941"><ele>681.0</ele><time>2026-04-22T15:44:06.999Z</time></trkpt><trkpt lat="42.79310021838691" lon="12.926555749771296"><ele>673.5</ele><time>2026-04-22T15:44:07.999Z</time></trkpt><trkpt lat="42.792893557591746" lon="12.926684962623943"><ele>666.0</ele><time>2026-04-22T15:44:08.999Z</time></trkpt><trkpt lat="42.79268921694501" lon="12.92682857683677"><ele>675.5</ele><time>2026-04-22T15:44:09.999Z</time></trkpt><trkpt lat="42.79248919383735" lon="12.926979746390773"><ele>685.0</ele><time>2026-04-22T15:44:10.999Z</time></trkpt><trkpt lat="42.79228745934789" lon="12.927133292930643"><ele>685.0</ele><time>2026-04-22T15:44:11.999Z</time></trkpt><trkpt lat="42.79208326333796" lon="12.927288023172089"><ele>685.0</ele><time>2026-04-22T15:44:12.999Z</time></trkpt><trkpt lat="42.79187483505772" lon="12.92744273364744"><ele>695.5</ele><time>2026-04-22T15:44:13.999Z</time></trkpt><trkpt lat="42.79166059802976" lon="12.927597680000599"><ele>706.0</ele><time>2026-04-22T15:44:14.999Z</time></trkpt><trkpt lat="42.79144948072333" lon="12.927745959529817"><ele>706.0</ele><time>2026-04-22T15:44:15.999Z</time></trkpt><trkpt lat="42.79123047650291" lon="12.92789413174849"><ele>706.0</ele><time>2026-04-22T15:44:16.999Z</time></trkpt><trkpt lat="42.79101022243795" lon="12.928038765287257"><ele>695.5</ele><time>2026-04-22T15:44:17.999Z</time></trkpt><trkpt lat="42.790785602742325" lon="12.928186522466584"><ele>685.0</ele><time>2026-04-22T15:44:18.999Z</time></trkpt><trkpt lat="42.790564466137425" lon="12.928352483459856"><ele>706.5</ele><time>2026-04-22T15:44:19.999Z</time></trkpt><trkpt lat="42.79036982907128" lon="12.928523341897987"><ele>728.0</ele><time>2026-04-22T15:44:20.999Z</time></trkpt><trkpt lat="42.79017750402339" lon="12.928689012225716"><ele>716.5</ele><time>2026-04-22T15:44:21.999Z</time></trkpt><trkpt lat="42.78996609490562" lon="12.928808120874585"><ele>705.0</ele><time>2026-04-22T15:44:22.999Z</time></trkpt><trkpt lat="42.789752590731446" lon="12.928925603789004"><ele>705.0</ele><time>2026-04-22T15:44:23.999Z</time></trkpt><trkpt lat="42.78953110276918" lon="12.929045461328485"><ele>705.0</ele><time>2026-04-22T15:44:24.999Z</time></trkpt><trkpt lat="42.78931170061727" lon="12.92916192465645"><ele>719.5</ele><time>2026-04-22T15:44:25.999Z</time></trkpt><trkpt lat="42.789090242722665" lon="12.929283338180053"><ele>734.0</ele><time>2026-04-22T15:44:26.999Z</time></trkpt><trkpt lat="42.78886734907343" lon="12.929412584273232"><ele>734.0</ele><time>2026-04-22T15:44:27.999Z</time></trkpt><trkpt lat="42.78864540716221" lon="12.929552467461814"><ele>734.0</ele><time>2026-04-22T15:44:28.999Z</time></trkpt><trkpt lat="42.78842371645666" lon="12.929685261413788"><ele>723.5</ele><time>2026-04-22T15:44:29.999Z</time></trkpt><trkpt lat="42.788194904494205" lon="12.929800797968674"><ele>713.0</ele><time>2026-04-22T15:44:30.999Z</time></trkpt><trkpt lat="42.78796608621588" lon="12.929903797127324"><ele>713.0</ele><time>2026-04-22T15:44:31.999Z</time></trkpt><trkpt lat="42.78773790184588" lon="12.929984037502665"><ele>713.0</ele><time>2026-04-22T15:44:32.999Z</time></trkpt><trkpt lat="42.78751390420699" lon="12.930037448609394"><ele>733.0</ele><time>2026-04-22T15:44:33.999Z</time></trkpt><trkpt lat="42.78729448237452" lon="12.930076068925478"><ele>753.0</ele><time>2026-04-22T15:44:34.999Z</time></trkpt><trkpt lat="42.78706151602996" lon="12.930100149037742"><ele>749.5</ele><time>2026-04-22T15:44:35.999Z</time></trkpt><trkpt lat="42.78682900972828" lon="12.930104193482908"><ele>746.0</ele><time>2026-04-22T15:44:36.999Z</time></trkpt><trkpt lat="42.78659601111219" lon="12.930107137843164"><ele>746.0</ele><time>2026-04-22T15:44:37.999Z</time></trkpt><trkpt lat="42.7863625494081" lon="12.930110446180853"><ele>746.0</ele><time>2026-04-22T15:44:38.999Z</time></trkpt><trkpt lat="42.786153631337676" lon="12.930119084558925"><ele>746.0</ele><time>2026-04-22T15:44:39.999Z</time></trkpt><trkpt lat="42.7859713719603" lon="12.930153025435716"><ele>743.3333333333333</ele><time>2026-04-22T15:44:40.999Z</time></trkpt><trkpt lat="42.78580605818967" lon="12.930245164156364"><ele>740.6666666666666</ele><time>2026-04-22T15:44:41.999Z</time></trkpt><trkpt lat="42.78563341182887" lon="12.93038040190473"><ele>738.0</ele><time>2026-04-22T15:44:42.999Z</time></trkpt><trkpt lat="42.785438089930544" lon="12.930514571143092"><ele>738.0</ele><time>2026-04-22T15:44:43.999Z</time></trkpt><trkpt lat="42.785223714225026" lon="12.930589869594279"><ele>738.0</ele><time>2026-04-22T15:44:44.999Z</time></trkpt><trkpt lat="42.785001143102384" lon="12.930672774005659"><ele>734.5</ele><time>2026-04-22T15:44:45.999Z</time></trkpt><trkpt lat="42.784771616067516" lon="12.930780948820267"><ele>731.0</ele><time>2026-04-22T15:44:46.999Z</time></trkpt><trkpt lat="42.78455069497723" lon="12.930900371256506"><ele>742.5</ele><time>2026-04-22T15:44:47.999Z</time></trkpt><trkpt lat="42.78432619337373" lon="12.931020349903008"><ele>754.0</ele><time>2026-04-22T15:44:48.999Z</time></trkpt><trkpt lat="42.78409906513906" lon="12.931139835089672"><ele>754.0</ele><time>2026-04-22T15:44:49.999Z</time></trkpt><trkpt lat="42.78387072028974" lon="12.931261230972073"><ele>754.0</ele><time>2026-04-22T15:44:50.999Z</time></trkpt><trkpt lat="42.78364411995709" lon="12.931387492277588"><ele>749.0</ele><time>2026-04-22T15:44:51.999Z</time></trkpt><trkpt lat="42.78342087494778" lon="12.931512743202003"><ele>744.0</ele><time>2026-04-22T15:44:52.999Z</time></trkpt><trkpt lat="42.783203980335614" lon="12.931634431004738"><ele>748.0</ele><time>2026-04-22T15:44:53.999Z</time></trkpt><trkpt lat="42.783011699029686" lon="12.931742025508207"><ele>752.0</ele><time>2026-04-22T15:44:54.999Z</time></trkpt><trkpt lat="42.78283661787523" lon="12.931835062336406"><ele>756.0</ele><time>2026-04-22T15:44:55.999Z</time></trkpt><trkpt lat="42.78267581553964" lon="12.93192386313688"><ele>756.0</ele><time>2026-04-22T15:44:56.999Z</time></trkpt><trkpt lat="42.78253963414861" lon="12.932028484271418"><ele>756.0</ele><time>2026-04-22T15:44:57.999Z</time></trkpt><trkpt lat="42.782441574166334" lon="12.932172250535457"><ele>756.0</ele><time>2026-04-22T15:44:58.999Z</time></trkpt><trkpt lat="42.78234991581478" lon="12.932349900795886"><ele>756.0</ele><time>2026-04-22T15:44:59.999Z</time></trkpt><trkpt lat="42.78223148966865" lon="12.932532294880978"><ele>756.0</ele><time>2026-04-22T15:45:00.999Z</time></trkpt><trkpt lat="42.782112499811106" lon="12.93272129848681"><ele>756.0</ele><time>2026-04-22T15:45:01.999Z</time></trkpt><trkpt lat="42.78197757226605" lon="12.932911028287316"><ele>758.0</ele><time>2026-04-22T15:45:02.999Z</time></trkpt><trkpt lat="42.78185596832709" lon="12.933087914453152"><ele>760.0</ele><time>2026-04-22T15:45:03.999Z</time></trkpt><trkpt lat="42.781762969467856" lon="12.933240932722704"><ele>762.0</ele><time>2026-04-22T15:45:04.999Z</time></trkpt><trkpt lat="42.78167775584095" lon="12.933366366061739"><ele>764.0</ele><time>2026-04-22T15:45:05.999Z</time></trkpt><trkpt lat="42.78160222210399" lon="12.93344800029686"><ele>764.0</ele><time>2026-04-22T15:45:06.999Z</time></trkpt><trkpt lat="42.7815259221745" lon="12.933471101042032"><ele>764.0</ele><time>2026-04-22T15:45:07.999Z</time></trkpt><trkpt lat="42.78145198701821" lon="12.93345031359727"><ele>764.0</ele><time>2026-04-22T15:45:08.999Z</time></trkpt><trkpt lat="42.78138578069849" lon="12.93335808285654"><ele>764.0</ele><time>2026-04-22T15:45:09.999Z</time></trkpt><trkpt lat="42.7812898155102" lon="12.933252965516722"><ele>764.0</ele><time>2026-04-22T15:45:10.999Z</time></trkpt><trkpt lat="42.781176340484016" lon="12.933122189194192"><ele>764.0</ele><time>2026-04-22T15:45:11.999Z</time></trkpt><trkpt lat="42.78106659393585" lon="12.932963510151778"><ele>764.0</ele><time>2026-04-22T15:45:12.999Z</time></trkpt><trkpt lat="42.78095727110216" lon="12.932820798176591"><ele>764.0</ele><time>2026-04-22T15:45:13.999Z</time></trkpt><trkpt lat="42.78085124640671" lon="12.932718539070615"><ele>764.0</ele><time>2026-04-22T15:45:14.999Z</time></trkpt><trkpt lat="42.78073268891568" lon="12.932666316920248"><ele>771.0</ele><time>2026-04-22T15:45:15.999Z</time></trkpt><trkpt lat="42.78059058535559" lon="12.932657310179843"><ele>778.0</ele><time>2026-04-22T15:45:16.999Z</time></trkpt><trkpt lat="42.78042668198924" lon="12.932670130930731"><ele>785.0</ele><time>2026-04-22T15:45:17.999Z</time></trkpt><trkpt lat="42.78025106189779" lon="12.932701098610135"><ele>786.3333333333334</ele><time>2026-04-22T15:45:18.999Z</time></trkpt><trkpt lat="42.78007332138455" lon="12.932749682287186"><ele>787.6666666666667</ele><time>2026-04-22T15:45:19.999Z</time></trkpt><trkpt lat="42.77987901633805" lon="12.932803358061621"><ele>789.0</ele><time>2026-04-22T15:45:20.999Z</time></trkpt><trkpt lat="42.77969424679948" lon="12.932910187648025"><ele>789.0</ele><time>2026-04-22T15:45:21.999Z</time></trkpt><trkpt lat="42.77949979464798" lon="12.933006579679219"><ele>789.0</ele><time>2026-04-22T15:45:22.999Z</time></trkpt><trkpt lat="42.7792956172954" lon="12.933068277348019"><ele>789.0</ele><time>2026-04-22T15:45:23.999Z</time></trkpt><trkpt lat="42.77908053083099" lon="12.933130146166203"><ele>791.6666666666667</ele><time>2026-04-22T15:45:24.999Z</time></trkpt><trkpt lat="42.77886674589198" lon="12.93319164085761"><ele>794.3333333333334</ele><time>2026-04-22T15:45:25.999Z</time></trkpt><trkpt lat="42.77865296011849" lon="12.933288137249656"><ele>797.0</ele><time>2026-04-22T15:45:26.999Z</time></trkpt><trkpt lat="42.77825757640095" lon="12.933453449592351"><ele>797.0</ele><time>2026-04-22T15:45:28.999Z</time></trkpt><trkpt lat="42.778087148929366" lon="12.933549474422307"><ele>797.0</ele><time>2026-04-22T15:45:29.999Z</time></trkpt><trkpt lat="42.77791570852638" lon="12.933660735558917"><ele>797.0</ele><time>2026-04-22T15:45:30.999Z</time></trkpt><trkpt lat="42.777751415546916" lon="12.933797695792911"><ele>798.6666666666667</ele><time>2026-04-22T15:45:31.999Z</time></trkpt><trkpt lat="42.77758958214475" lon="12.93395250041232"><ele>800.3333333333333</ele><time>2026-04-22T15:45:32.999Z</time></trkpt><trkpt lat="42.77742807427453" lon="12.934118149225771"><ele>802.0</ele><time>2026-04-22T15:45:33.999Z</time></trkpt><trkpt lat="42.77725723652261" lon="12.934283176918033"><ele>802.0</ele><time>2026-04-22T15:45:34.999Z</time></trkpt><trkpt lat="42.777081277125724" lon="12.93445070314131"><ele>802.0</ele><time>2026-04-22T15:45:35.999Z</time></trkpt><trkpt lat="42.776902001028496" lon="12.934623879355604"><ele>802.0</ele><time>2026-04-22T15:45:36.999Z</time></trkpt><trkpt lat="42.7767275394622" lon="12.934789663563535"><ele>804.0</ele><time>2026-04-22T15:45:37.999Z</time></trkpt><trkpt lat="42.776548113519176" lon="12.934936384079563"><ele>806.0</ele><time>2026-04-22T15:45:38.999Z</time></trkpt><trkpt lat="42.77636691123455" lon="12.93506023884486"><ele>808.0</ele><time>2026-04-22T15:45:39.999Z</time></trkpt><trkpt lat="42.77619877585069" lon="12.93514779628742"><ele>808.0</ele><time>2026-04-22T15:45:40.999Z</time></trkpt><trkpt lat="42.77604312040887" lon="12.93519966276192"><ele>808.0</ele><time>2026-04-22T15:45:41.999Z</time></trkpt><trkpt lat="42.77588427348438" lon="12.935226597809882"><ele>808.0</ele><time>2026-04-22T15:45:42.999Z</time></trkpt><trkpt lat="42.77572724333481" lon="12.935226466146203"><ele>804.6666666666666</ele><time>2026-04-22T15:45:43.999Z</time></trkpt><trkpt lat="42.77556976317285" lon="12.93519601313495"><ele>801.3333333333333</ele><time>2026-04-22T15:45:44.999Z</time></trkpt><trkpt lat="42.77540650468346" lon="12.935155934697756"><ele>798.0</ele><time>2026-04-22T15:45:45.999Z</time></trkpt><trkpt lat="42.77523422537356" lon="12.93513685708584"><ele>797.6666666666667</ele><time>2026-04-22T15:45:46.999Z</time></trkpt><trkpt lat="42.77505240299536" lon="12.935149233250945"><ele>797.3333333333334</ele><time>2026-04-22T15:45:47.999Z</time></trkpt><trkpt lat="42.77487669374065" lon="12.935168960498062"><ele>797.0</ele><time>2026-04-22T15:45:48.999Z</time></trkpt><trkpt lat="42.77472203092168" lon="12.935188824943268"><ele>797.0</ele><time>2026-04-22T15:45:49.999Z</time></trkpt><trkpt lat="42.77458258305967" lon="12.935221785308572"><ele>797.0</ele><time>2026-04-22T15:45:50.999Z</time></trkpt><trkpt lat="42.774466948036654" lon="12.935279251724335"><ele>797.0</ele><time>2026-04-22T15:45:51.999Z</time></trkpt><trkpt lat="42.77436661064818" lon="12.935380184946132"><ele>797.0</ele><time>2026-04-22T15:45:52.999Z</time></trkpt><trkpt lat="42.774272606754735" lon="12.935509654410287"><ele>797.0</ele><time>2026-04-22T15:45:53.999Z</time></trkpt><trkpt lat="42.774067887893445" lon="12.93581682980959"><ele>797.0</ele><time>2026-04-22T15:45:55.999Z</time></trkpt><trkpt lat="42.77394781238037" lon="12.935972513568474"><ele>797.0</ele><time>2026-04-22T15:45:56.999Z</time></trkpt><trkpt lat="42.773814684847956" lon="12.936139761014916"><ele>797.0</ele><time>2026-04-22T15:45:57.999Z</time></trkpt><trkpt lat="42.77368134450052" lon="12.936305070515495"><ele>797.0</ele><time>2026-04-22T15:45:58.999Z</time></trkpt><trkpt lat="42.773537189912375" lon="12.936473822732879"><ele>793.3333333333334</ele><time>2026-04-22T15:45:59.999Z</time></trkpt><trkpt lat="42.77338848034433" lon="12.93663091093878"><ele>789.6666666666667</ele><time>2026-04-22T15:46:00.999Z</time></trkpt><trkpt lat="42.77324025772084" lon="12.93677492973972"><ele>786.0</ele><time>2026-04-22T15:46:01.999Z</time></trkpt><trkpt lat="42.77309971863612" lon="12.936910767634327"><ele>786.0</ele><time>2026-04-22T15:46:02.999Z</time></trkpt><trkpt lat="42.772963465170136" lon="12.937019301501135"><ele>786.0</ele><time>2026-04-22T15:46:03.999Z</time></trkpt><trkpt lat="42.77282636248068" lon="12.937103439281287"><ele>786.0</ele><time>2026-04-22T15:46:04.999Z</time></trkpt><trkpt lat="42.77268944630038" lon="12.93716346727206"><ele>782.0</ele><time>2026-04-22T15:46:05.999Z</time></trkpt><trkpt lat="42.772552000666714" lon="12.937198676571763"><ele>778.0</ele><time>2026-04-22T15:46:06.999Z</time></trkpt><trkpt lat="42.77241267024512" lon="12.937227385307363"><ele>774.0</ele><time>2026-04-22T15:46:07.999Z</time></trkpt><trkpt lat="42.772280665022755" lon="12.937273450710725"><ele>770.0</ele><time>2026-04-22T15:46:08.999Z</time></trkpt><trkpt lat="42.772159771546114" lon="12.937329051380232"><ele>770.0</ele><time>2026-04-22T15:46:09.999Z</time></trkpt><trkpt lat="42.77204644500713" lon="12.937399445749048"><ele>770.0</ele><time>2026-04-22T15:46:10.999Z</time></trkpt><trkpt lat="42.77192280093386" lon="12.937473025685398"><ele>770.0</ele><time>2026-04-22T15:46:11.999Z</time></trkpt><trkpt lat="42.77182260901779" lon="12.937604999412985"><ele>770.0</ele><time>2026-04-22T15:46:12.999Z</time></trkpt><trkpt lat="42.771729247824794" lon="12.937755840639527"><ele>769.0</ele><time>2026-04-22T15:46:13.999Z</time></trkpt><trkpt lat="42.77163267136154" lon="12.93792300455532"><ele>768.0</ele><time>2026-04-22T15:46:14.999Z</time></trkpt><trkpt lat="42.77152911270698" lon="12.938104841280627"><ele>767.0</ele><time>2026-04-22T15:46:15.999Z</time></trkpt><trkpt lat="42.77141899379185" lon="12.938298197049226"><ele>770.3333333333333</ele><time>2026-04-22T15:46:16.999Z</time></trkpt><trkpt lat="42.77130824030229" lon="12.938492395245303"><ele>773.6666666666666</ele><time>2026-04-22T15:46:17.999Z</time></trkpt><trkpt lat="42.7711878968717" lon="12.938698312346206"><ele>777.0</ele><time>2026-04-22T15:46:18.999Z</time></trkpt><trkpt lat="42.77107242844639" lon="12.938886915679353"><ele>776.6666666666667</ele><time>2026-04-22T15:46:19.999Z</time></trkpt><trkpt lat="42.7709571894448" lon="12.939067489635876"><ele>776.3333333333334</ele><time>2026-04-22T15:46:20.999Z</time></trkpt><trkpt lat="42.77087420586208" lon="12.939279616821455"><ele>776.0</ele><time>2026-04-22T15:46:21.999Z</time></trkpt><trkpt lat="42.770775778834654" lon="12.939460985409424"><ele>776.0</ele><time>2026-04-22T15:46:22.999Z</time></trkpt><trkpt lat="42.77068014296866" lon="12.939631197214904"><ele>776.0</ele><time>2026-04-22T15:46:23.999Z</time></trkpt><trkpt lat="42.77059119990947" lon="12.939791940504898"><ele>776.0</ele><time>2026-04-22T15:46:24.999Z</time></trkpt><trkpt lat="42.770509865022134" lon="12.93993090237766"><ele>776.0</ele><time>2026-04-22T15:46:25.999Z</time></trkpt><trkpt lat="42.770436629427664" lon="12.940047983164762"><ele>775.8</ele><time>2026-04-22T15:46:26.999Z</time></trkpt><trkpt lat="42.770374578535595" lon="12.940143574039107"><ele>775.5999999999999</ele><time>2026-04-22T15:46:27.999Z</time></trkpt><trkpt lat="42.770321492832366" lon="12.940218650403823"><ele>775.4</ele><time>2026-04-22T15:46:28.999Z</time></trkpt><trkpt lat="42.77024964587094" lon="12.940305085726957"><ele>775.2</ele><time>2026-04-22T15:46:29.999Z</time></trkpt><trkpt lat="42.77018436059286" lon="12.940302570464334"><ele>775.0</ele><time>2026-04-22T15:46:30.999Z</time></trkpt><trkpt lat="42.77033966879326" lon="12.940422622103908"><ele>775.0</ele><time>2026-04-22T15:46:35.999Z</time></trkpt><trkpt lat="42.769940271781856" lon="12.940186586604833"><ele>775.0</ele><time>2026-04-22T15:46:36.999Z</time></trkpt><trkpt lat="42.76997349585777" lon="12.94008844882328"><ele>775.5</ele><time>2026-04-22T15:46:37.999Z</time></trkpt><trkpt lat="42.77001614271702" lon="12.939939451070002"><ele>776.0</ele><time>2026-04-22T15:46:38.999Z</time></trkpt><trkpt lat="42.77048474904335" lon="12.939978913054416"><ele>776.0</ele><time>2026-04-22T15:46:39.999Z</time></trkpt><trkpt lat="42.77056121766203" lon="12.939835820663854"><ele>776.0</ele><time>2026-04-22T15:46:40.999Z</time></trkpt><trkpt lat="42.770641288332754" lon="12.939689417781159"><ele>776.0</ele><time>2026-04-22T15:46:41.999Z</time></trkpt><trkpt lat="42.770723684755616" lon="12.939540110772068"><ele>776.0</ele><time>2026-04-22T15:46:42.999Z</time></trkpt><trkpt lat="42.77080130899549" lon="12.939396958245801"><ele>776.0000000000001</ele><time>2026-04-22T15:46:43.999Z</time></trkpt><trkpt lat="42.770868354006396" lon="12.939273260576774"><ele>776.0</ele><time>2026-04-22T15:46:44.999Z</time></trkpt><trkpt lat="42.770918682038285" lon="12.939181742444374"><ele>776.0</ele><time>2026-04-22T15:46:45.999Z</time></trkpt><trkpt lat="42.77095768178525" lon="12.939110541129217"><ele>776.0</ele><time>2026-04-22T15:46:46.999Z</time></trkpt><trkpt lat="42.771024506631306" lon="12.93909073438867"><ele>776.0000000000001</ele><time>2026-04-22T15:46:48.999Z</time></trkpt><trkpt lat="42.77104398650133" lon="12.939199767538595"><ele>776.0</ele><time>2026-04-22T15:46:50.999Z</time></trkpt><trkpt lat="42.77099532810043" lon="12.939309039881197"><ele>776.0</ele><time>2026-04-22T15:46:52.999Z</time></trkpt><trkpt lat="42.77095304459852" lon="12.939387663590853"><ele>776.0</ele><time>2026-04-22T15:46:53.999Z</time></trkpt><trkpt lat="42.77089947347954" lon="12.93948683385699"><ele>776.0</ele><time>2026-04-22T15:46:54.999Z</time></trkpt><trkpt lat="42.77085181209544" lon="12.939580162346186"><ele>776.0</ele><time>2026-04-22T15:46:55.999Z</time></trkpt><trkpt lat="42.770795710400485" lon="12.93969280541266"><ele>776.0</ele><time>2026-04-22T15:46:56.999Z</time></trkpt><trkpt lat="42.770736844238776" lon="12.93981680647867"><ele>776.0</ele><time>2026-04-22T15:46:57.999Z</time></trkpt><trkpt lat="42.770682509269555" lon="12.939944068459514"><ele>776.0</ele><time>2026-04-22T15:46:58.999Z</time></trkpt><trkpt lat="42.77062834858756" lon="12.940060865948618"><ele>776.0</ele><time>2026-04-22T15:46:59.999Z</time></trkpt><trkpt lat="42.7705645351217" lon="12.94017039120837"><ele>776.0</ele><time>2026-04-22T15:47:00.999Z</time></trkpt><trkpt lat="42.77049559525549" lon="12.940269208604079"><ele>776.0</ele><time>2026-04-22T15:47:01.999Z</time></trkpt><trkpt lat="42.77042788895955" lon="12.940375527163587"><ele>780.5999999999999</ele><time>2026-04-22T15:47:02.999Z</time></trkpt><trkpt lat="42.770370846166585" lon="12.940501220230635"><ele>785.2</ele><time>2026-04-22T15:47:03.999Z</time></trkpt><trkpt lat="42.770312598827225" lon="12.94062264658426"><ele>789.8</ele><time>2026-04-22T15:47:04.999Z</time></trkpt><trkpt lat="42.77028376158727" lon="12.940767680525493"><ele>794.4000000000001</ele><time>2026-04-22T15:47:05.999Z</time></trkpt><trkpt lat="42.77024999980544" lon="12.940910262019278"><ele>799.0</ele><time>2026-04-22T15:47:06.999Z</time></trkpt><trkpt lat="42.770193092696395" lon="12.941030231173771"><ele>797.6</ele><time>2026-04-22T15:47:07.999Z</time></trkpt><trkpt lat="42.77012524070564" lon="12.941107135924895"><ele>796.2</ele><time>2026-04-22T15:47:08.999Z</time></trkpt><trkpt lat="42.77005322254363" lon="12.941172430258657"><ele>794.8000000000001</ele><time>2026-04-22T15:47:09.999Z</time></trkpt><trkpt lat="42.76995051266396" lon="12.941200518730557"><ele>793.4000000000001</ele><time>2026-04-22T15:47:10.999Z</time></trkpt><trkpt lat="42.76982529162344" lon="12.9412572712365"><ele>792.0</ele><time>2026-04-22T15:47:11.999Z</time></trkpt><trkpt lat="42.7696958537804" lon="12.941349797585499"><ele>792.0</ele><time>2026-04-22T15:47:12.999Z</time></trkpt><trkpt lat="42.76958193348123" lon="12.941474321263811"><ele>792.0</ele><time>2026-04-22T15:47:13.999Z</time></trkpt><trkpt lat="42.769444320542355" lon="12.941561401231727"><ele>792.0</ele><time>2026-04-22T15:47:14.999Z</time></trkpt><trkpt lat="42.76930955467716" lon="12.941659870652092"><ele>802.3333333333333</ele><time>2026-04-22T15:47:15.999Z</time></trkpt><trkpt lat="42.76917023813049" lon="12.941757739411198"><ele>812.6666666666666</ele><time>2026-04-22T15:47:16.999Z</time></trkpt><trkpt lat="42.76903642116988" lon="12.941844335980191"><ele>823.0</ele><time>2026-04-22T15:47:17.999Z</time></trkpt><trkpt lat="42.76889544228994" lon="12.941897953810846"><ele>823.0</ele><time>2026-04-22T15:47:18.999Z</time></trkpt><trkpt lat="42.768753081383124" lon="12.941941472466784"><ele>823.0</ele><time>2026-04-22T15:47:19.999Z</time></trkpt><trkpt lat="42.76861575604076" lon="12.941966570785352"><ele>823.0</ele><time>2026-04-22T15:47:20.999Z</time></trkpt><trkpt lat="42.76847884720476" lon="12.941980671436815"><ele>823.0</ele><time>2026-04-22T15:47:21.999Z</time></trkpt><trkpt lat="42.768352197837345" lon="12.94200742612664"><ele>823.75</ele><time>2026-04-22T15:47:22.999Z</time></trkpt><trkpt lat="42.768257938198396" lon="12.942088820872527"><ele>824.5</ele><time>2026-04-22T15:47:23.999Z</time></trkpt><trkpt lat="42.76816016816018" lon="12.942170034258128"><ele>825.25</ele><time>2026-04-22T15:47:24.999Z</time></trkpt><trkpt lat="42.768051142927746" lon="12.942242883747484"><ele>826.0</ele><time>2026-04-22T15:47:25.999Z</time></trkpt><trkpt lat="42.767944707162464" lon="12.942338847712826"><ele>826.0</ele><time>2026-04-22T15:47:26.999Z</time></trkpt><trkpt lat="42.76783648416552" lon="12.942442684487597"><ele>826.0</ele><time>2026-04-22T15:47:27.999Z</time></trkpt><trkpt lat="42.767731802725734" lon="12.942558770076012"><ele>826.0</ele><time>2026-04-22T15:47:28.999Z</time></trkpt><trkpt lat="42.76762811686861" lon="12.942683179354662"><ele>826.0</ele><time>2026-04-22T15:47:29.999Z</time></trkpt><trkpt lat="42.767525740857465" lon="12.942804790672843"><ele>830.5</ele><time>2026-04-22T15:47:30.999Z</time></trkpt><trkpt lat="42.76741892480704" lon="12.94290894324476"><ele>835.0</ele><time>2026-04-22T15:47:31.999Z</time></trkpt><trkpt lat="42.76730260245305" lon="12.942995674007964"><ele>839.5</ele><time>2026-04-22T15:47:32.999Z</time></trkpt><trkpt lat="42.76717157253736" lon="12.943056586999361"><ele>844.0</ele><time>2026-04-22T15:47:33.999Z</time></trkpt><trkpt lat="42.76702913440473" lon="12.943109984945165"><ele>844.0</ele><time>2026-04-22T15:47:34.999Z</time></trkpt><trkpt lat="42.766880938655724" lon="12.943162925543882"><ele>844.0</ele><time>2026-04-22T15:47:35.999Z</time></trkpt><trkpt lat="42.76674182167775" lon="12.943231963193947"><ele>844.0</ele><time>2026-04-22T15:47:36.999Z</time></trkpt><trkpt lat="42.76662639502644" lon="12.94333618146293"><ele>844.0</ele><time>2026-04-22T15:47:37.999Z</time></trkpt><trkpt lat="42.76651912656509" lon="12.943439613303696"><ele>847.0</ele><time>2026-04-22T15:47:38.999Z</time></trkpt><trkpt lat="42.76641053775231" lon="12.943531959333272"><ele>850.0</ele><time>2026-04-22T15:47:39.999Z</time></trkpt><trkpt lat="42.76633714897532" lon="12.94364653238552"><ele>853.0</ele><time>2026-04-22T15:47:40.999Z</time></trkpt><trkpt lat="42.76630651737163" lon="12.943793035788206"><ele>856.0</ele><time>2026-04-22T15:47:41.999Z</time></trkpt><trkpt lat="42.76624836314334" lon="12.94394653786522"><ele>856.0</ele><time>2026-04-22T15:47:42.999Z</time></trkpt><trkpt lat="42.76620656365415" lon="12.944125517204723"><ele>856.0</ele><time>2026-04-22T15:47:43.999Z</time></trkpt><trkpt lat="42.76616038535368" lon="12.94431412980618"><ele>856.0</ele><time>2026-04-22T15:47:44.999Z</time></trkpt><trkpt lat="42.76611223203817" lon="12.944508307432708"><ele>856.0</ele><time>2026-04-22T15:47:45.999Z</time></trkpt><trkpt lat="42.766065152788606" lon="12.944698153901358"><ele>858.0</ele><time>2026-04-22T15:47:46.999Z</time></trkpt><trkpt lat="42.766019730018314" lon="12.944883634928244"><ele>860.0</ele><time>2026-04-22T15:47:47.999Z</time></trkpt><trkpt lat="42.765969814429184" lon="12.9452319204765"><ele>862.0</ele><time>2026-04-22T15:47:49.999Z</time></trkpt><trkpt lat="42.7659633473499" lon="12.94540476059991"><ele>862.0</ele><time>2026-04-22T15:47:50.999Z</time></trkpt><trkpt lat="42.76596928153041" lon="12.945580180909225"><ele>862.0</ele><time>2026-04-22T15:47:51.999Z</time></trkpt><trkpt lat="42.76597860129411" lon="12.945761822271907"><ele>862.0</ele><time>2026-04-22T15:47:52.999Z</time></trkpt><trkpt lat="42.765979606555504" lon="12.945950264472359"><ele>862.0</ele><time>2026-04-22T15:47:53.999Z</time></trkpt><trkpt lat="42.76595059032541" lon="12.946142707557948"><ele>865.0</ele><time>2026-04-22T15:47:54.999Z</time></trkpt><trkpt lat="42.76591448867901" lon="12.94632453057485"><ele>868.0</ele><time>2026-04-22T15:47:55.999Z</time></trkpt><trkpt lat="42.76586848125474" lon="12.946511358999727"><ele>871.0</ele><time>2026-04-22T15:47:56.999Z</time></trkpt><trkpt lat="42.76579895704444" lon="12.946695642150184"><ele>874.0</ele><time>2026-04-22T15:47:57.999Z</time></trkpt><trkpt lat="42.765712339752874" lon="12.946890870453275"><ele>878.3333333333333</ele><time>2026-04-22T15:47:58.999Z</time></trkpt><trkpt lat="42.7656258401008" lon="12.947092360032237"><ele>882.6666666666667</ele><time>2026-04-22T15:47:59.999Z</time></trkpt><trkpt lat="42.765542909139555" lon="12.947315841267036"><ele>887.0</ele><time>2026-04-22T15:48:00.999Z</time></trkpt><trkpt lat="42.76546740567369" lon="12.947547305315744"><ele>883.3333333333334</ele><time>2026-04-22T15:48:01.999Z</time></trkpt><trkpt lat="42.76538892754467" lon="12.947765915378563"><ele>879.6666666666667</ele><time>2026-04-22T15:48:02.999Z</time></trkpt><trkpt lat="42.76529139423687" lon="12.94797785453159"><ele>876.0</ele><time>2026-04-22T15:48:03.999Z</time></trkpt><trkpt lat="42.76519352014315" lon="12.948184896605694"><ele>879.3333333333333</ele><time>2026-04-22T15:48:04.999Z</time></trkpt><trkpt lat="42.76511726499531" lon="12.948415521449549"><ele>882.6666666666666</ele><time>2026-04-22T15:48:05.999Z</time></trkpt><trkpt lat="42.765082918389005" lon="12.948655194313272"><ele>886.0</ele><time>2026-04-22T15:48:06.999Z</time></trkpt><trkpt lat="42.76499961776625" lon="12.948874130035401"><ele>886.0</ele><time>2026-04-22T15:48:07.999Z</time></trkpt><trkpt lat="42.7649170276273" lon="12.949086933021439"><ele>886.0</ele><time>2026-04-22T15:48:08.999Z</time></trkpt><trkpt lat="42.76482435685583" lon="12.949321060233098"><ele>886.0</ele><time>2026-04-22T15:48:09.999Z</time></trkpt><trkpt lat="42.76472679300746" lon="12.94955397635716"><ele>890.3333333333333</ele><time>2026-04-22T15:48:10.999Z</time></trkpt><trkpt lat="42.76464460312635" lon="12.949789085560418"><ele>894.6666666666667</ele><time>2026-04-22T15:48:11.999Z</time></trkpt><trkpt lat="42.76458104741557" lon="12.950002899258068"><ele>899.0</ele><time>2026-04-22T15:48:12.999Z</time></trkpt><trkpt lat="42.76452931004474" lon="12.950210866848147"><ele>899.5</ele><time>2026-04-22T15:48:13.999Z</time></trkpt><trkpt lat="42.76445169198282" lon="12.950384203578826"><ele>900.0</ele><time>2026-04-22T15:48:14.999Z</time></trkpt><trkpt lat="42.76438116248233" lon="12.950557528583944"><ele>900.5</ele><time>2026-04-22T15:48:15.999Z</time></trkpt><trkpt lat="42.76430414755478" lon="12.950732042023859"><ele>901.0</ele><time>2026-04-22T15:48:16.999Z</time></trkpt><trkpt lat="42.76422326805334" lon="12.95089889893317"><ele>901.0</ele><time>2026-04-22T15:48:17.999Z</time></trkpt><trkpt lat="42.76413219101839" lon="12.951039543310053"><ele>901.0</ele><time>2026-04-22T15:48:18.999Z</time></trkpt><trkpt lat="42.76402363606934" lon="12.951177288329305"><ele>901.0</ele><time>2026-04-22T15:48:19.999Z</time></trkpt><trkpt lat="42.76390820954961" lon="12.95132475595378"><ele>901.0</ele><time>2026-04-22T15:48:20.999Z</time></trkpt><trkpt lat="42.76380839529936" lon="12.951504300190251"><ele>901.0</ele><time>2026-04-22T15:48:21.999Z</time></trkpt><trkpt lat="42.76369777795901" lon="12.951672306783507"><ele>901.0</ele><time>2026-04-22T15:48:22.999Z</time></trkpt><trkpt lat="42.76361725688632" lon="12.95185692020548"><ele>901.0</ele><time>2026-04-22T15:48:23.999Z</time></trkpt><trkpt lat="42.76355850479833" lon="12.952046671269516"><ele>901.25</ele><time>2026-04-22T15:48:24.999Z</time></trkpt><trkpt lat="42.76345740679599" lon="12.952199957825545"><ele>901.5</ele><time>2026-04-22T15:48:25.999Z</time></trkpt><trkpt lat="42.76336651935663" lon="12.952363281066923"><ele>901.75</ele><time>2026-04-22T15:48:26.999Z</time></trkpt><trkpt lat="42.7632787561508" lon="12.952520990652113"><ele>902.0</ele><time>2026-04-22T15:48:27.999Z</time></trkpt><trkpt lat="42.76319804503951" lon="12.952666027700351"><ele>904.25</ele><time>2026-04-22T15:48:28.999Z</time></trkpt><trkpt lat="42.76325626580935" lon="12.95289103934817"><ele>906.5</ele><time>2026-04-22T15:48:29.999Z</time></trkpt><trkpt lat="42.76321536002458" lon="12.952981247762118"><ele>908.75</ele><time>2026-04-22T15:48:30.999Z</time></trkpt><trkpt lat="42.76309797318984" lon="12.953015749048658"><ele>911.0</ele><time>2026-04-22T15:48:32.999Z</time></trkpt><trkpt lat="42.76302636399845" lon="12.952855713926201"><ele>911.0</ele><time>2026-04-22T15:48:34.999Z</time></trkpt><trkpt lat="42.763011500770766" lon="12.952731299934158"><ele>910.9999999999999</ele><time>2026-04-22T15:48:35.999Z</time></trkpt><trkpt lat="42.76299612497734" lon="12.952589086162623"><ele>910.9999999999999</ele><time>2026-04-22T15:48:36.999Z</time></trkpt><trkpt lat="42.76297651983644" lon="12.952452159465652"><ele>911.0</ele><time>2026-04-22T15:48:37.999Z</time></trkpt><trkpt lat="42.76295598994752" lon="12.952344544175602"><ele>911.0</ele><time>2026-04-22T15:48:38.999Z</time></trkpt><trkpt lat="42.76287378442721" lon="12.952238613338654"><ele>911.0</ele><time>2026-04-22T15:48:40.999Z</time></trkpt><trkpt lat="42.762792067478124" lon="12.952336576666168"><ele>910.9999999999999</ele><time>2026-04-22T15:48:42.999Z</time></trkpt><trkpt lat="42.762766284789905" lon="12.952449046728534"><ele>910.9999999999999</ele><time>2026-04-22T15:48:43.999Z</time></trkpt><trkpt lat="42.76275149384" lon="12.952592751455485"><ele>911.0</ele><time>2026-04-22T15:48:44.999Z</time></trkpt><trkpt lat="42.76272227507144" lon="12.952748319243844"><ele>911.0</ele><time>2026-04-22T15:48:45.999Z</time></trkpt><trkpt lat="42.762685927681794" lon="12.952901009219472"><ele>912.5</ele><time>2026-04-22T15:48:46.999Z</time></trkpt><trkpt lat="42.76264530852331" lon="12.953057792522046"><ele>914.0</ele><time>2026-04-22T15:48:47.999Z</time></trkpt><trkpt lat="42.76259434163228" lon="12.953220272899728"><ele>915.5</ele><time>2026-04-22T15:48:48.999Z</time></trkpt><trkpt lat="42.762530403080305" lon="12.95337856004988"><ele>917.0</ele><time>2026-04-22T15:48:49.999Z</time></trkpt><trkpt lat="42.76246037758285" lon="12.95353725182346"><ele>917.0</ele><time>2026-04-22T15:48:50.999Z</time></trkpt><trkpt lat="42.76238402912509" lon="12.953700427595342"><ele>917.0</ele><time>2026-04-22T15:48:51.999Z</time></trkpt><trkpt lat="42.76231020211284" lon="12.953866448989215"><ele>917.0</ele><time>2026-04-22T15:48:52.999Z</time></trkpt><trkpt lat="42.76224182332941" lon="12.954040714601074"><ele>917.0</ele><time>2026-04-22T15:48:54Z</time></trkpt><trkpt lat="42.76217876881649" lon="12.954216613665572"><ele>918.6666666666667</ele><time>2026-04-22T15:48:55Z</time></trkpt><trkpt lat="42.762109722450084" lon="12.954395092267719"><ele>920.3333333333333</ele><time>2026-04-22T15:48:56Z</time></trkpt><trkpt lat="42.76203322288787" lon="12.954578808353798"><ele>922.0</ele><time>2026-04-22T15:48:57Z</time></trkpt><trkpt lat="42.76196301241322" lon="12.95476313796191"><ele>922.0</ele><time>2026-04-22T15:48:58Z</time></trkpt><trkpt lat="42.76190350177773" lon="12.954950295252333"><ele>922.0</ele><time>2026-04-22T15:48:59Z</time></trkpt><trkpt lat="42.761857048633516" lon="12.955142860231152"><ele>922.0</ele><time>2026-04-22T15:49:00Z</time></trkpt><trkpt lat="42.7618201322573" lon="12.955339944771922"><ele>922.0</ele><time>2026-04-22T15:49:01Z</time></trkpt><trkpt lat="42.76176507680484" lon="12.955551124415317"><ele>930.6666666666666</ele><time>2026-04-22T15:49:02Z</time></trkpt><trkpt lat="42.76170029889669" lon="12.95575948249158"><ele>939.3333333333333</ele><time>2026-04-22T15:49:03Z</time></trkpt><trkpt lat="42.76163255314484" lon="12.955965558652034"><ele>948.0</ele><time>2026-04-22T15:49:04Z</time></trkpt><trkpt lat="42.76156200245333" lon="12.956176496057468"><ele>948.0</ele><time>2026-04-22T15:49:05Z</time></trkpt><trkpt lat="42.76149623075984" lon="12.956396652048229"><ele>948.0</ele><time>2026-04-22T15:49:06Z</time></trkpt><trkpt lat="42.76144151428498" lon="12.956618253560729"><ele>948.0</ele><time>2026-04-22T15:49:07Z</time></trkpt><trkpt lat="42.761388923602006" lon="12.956854419095952"><ele>952.6666666666667</ele><time>2026-04-22T15:49:08Z</time></trkpt><trkpt lat="42.76134359889689" lon="12.95706977645618"><ele>957.3333333333334</ele><time>2026-04-22T15:49:09Z</time></trkpt><trkpt lat="42.76130186630424" lon="12.957277389516925"><ele>962.0</ele><time>2026-04-22T15:49:10Z</time></trkpt><trkpt lat="42.76125523986048" lon="12.95747492498697"><ele>965.0</ele><time>2026-04-22T15:49:11Z</time></trkpt><trkpt lat="42.76120315715311" lon="12.957636726555222"><ele>968.0</ele><time>2026-04-22T15:49:12Z</time></trkpt><trkpt lat="42.761130355653385" lon="12.957771260541403"><ele>971.0</ele><time>2026-04-22T15:49:13Z</time></trkpt><trkpt lat="42.761030300398296" lon="12.957870771820078"><ele>974.0</ele><time>2026-04-22T15:49:14Z</time></trkpt><trkpt lat="42.7609158009808" lon="12.957945067701193"><ele>974.0</ele><time>2026-04-22T15:49:15Z</time></trkpt><trkpt lat="42.7607919666108" lon="12.958026339832948"><ele>974.0</ele><time>2026-04-22T15:49:16Z</time></trkpt><trkpt lat="42.76066099520387" lon="12.958137748436108"><ele>974.0</ele><time>2026-04-22T15:49:17Z</time></trkpt><trkpt lat="42.76052876342118" lon="12.95828494744629"><ele>978.3333333333334</ele><time>2026-04-22T15:49:18Z</time></trkpt><trkpt lat="42.76039421858264" lon="12.958429238368126"><ele>982.6666666666667</ele><time>2026-04-22T15:49:19Z</time></trkpt><trkpt lat="42.76025941301834" lon="12.958576244752248"><ele>987.0</ele><time>2026-04-22T15:49:20Z</time></trkpt><trkpt lat="42.76012086046103" lon="12.958732933661516"><ele>988.0</ele><time>2026-04-22T15:49:21Z</time></trkpt><trkpt lat="42.759997572605" lon="12.958907575380284"><ele>989.0</ele><time>2026-04-22T15:49:22Z</time></trkpt><trkpt lat="42.759886725311226" lon="12.959098278993505"><ele>990.0</ele><time>2026-04-22T15:49:23Z</time></trkpt><trkpt lat="42.75978479837906" lon="12.959293082514694"><ele>992.0</ele><time>2026-04-22T15:49:24Z</time></trkpt><trkpt lat="42.75967860749415" lon="12.95948346663716"><ele>994.0</ele><time>2026-04-22T15:49:25Z</time></trkpt><trkpt lat="42.75955737770921" lon="12.95966986348966"><ele>996.0</ele><time>2026-04-22T15:49:26Z</time></trkpt><trkpt lat="42.75942388107703" lon="12.9598450079964"><ele>997.6666666666667</ele><time>2026-04-22T15:49:27Z</time></trkpt><trkpt lat="42.75928914276504" lon="12.960010223064318"><ele>999.3333333333334</ele><time>2026-04-22T15:49:28Z</time></trkpt><trkpt lat="42.75915040742688" lon="12.960177841484626"><ele>1001.0</ele><time>2026-04-22T15:49:29Z</time></trkpt><trkpt lat="42.75901729829958" lon="12.960357026935407"><ele>1001.0</ele><time>2026-04-22T15:49:30Z</time></trkpt><trkpt lat="42.75888579185285" lon="12.96054925077225"><ele>1001.0</ele><time>2026-04-22T15:49:31Z</time></trkpt><trkpt lat="42.75876100228597" lon="12.960752550923495"><ele>1001.0</ele><time>2026-04-22T15:49:32Z</time></trkpt><trkpt lat="42.75863969242195" lon="12.96097204885293"><ele>1003.6666666666667</ele><time>2026-04-22T15:49:33Z</time></trkpt><trkpt lat="42.75852687438778" lon="12.961209606648184"><ele>1006.3333333333333</ele><time>2026-04-22T15:49:34Z</time></trkpt><trkpt lat="42.75841001538692" lon="12.96145442986241"><ele>1009.0</ele><time>2026-04-22T15:49:35Z</time></trkpt><trkpt lat="42.75829423548474" lon="12.961693338346201"><ele>1008.0</ele><time>2026-04-22T15:49:36Z</time></trkpt><trkpt lat="42.75818240808561" lon="12.961926348825468"><ele>1007.0</ele><time>2026-04-22T15:49:37Z</time></trkpt><trkpt lat="42.75807928751057" lon="12.962144512098563"><ele>1006.0</ele><time>2026-04-22T15:49:38Z</time></trkpt><trkpt lat="42.75798286897739" lon="12.962342754124126"><ele>1006.0</ele><time>2026-04-22T15:49:39Z</time></trkpt><trkpt lat="42.757895374570644" lon="12.962527547059281"><ele>1006.0</ele><time>2026-04-22T15:49:40Z</time></trkpt><trkpt lat="42.75780112827639" lon="12.962715225352065"><ele>1006.0</ele><time>2026-04-22T15:49:41Z</time></trkpt><trkpt lat="42.75770126968685" lon="12.962900630873596"><ele>1006.3333333333333</ele><time>2026-04-22T15:49:42Z</time></trkpt><trkpt lat="42.757595036740355" lon="12.963086287654091"><ele>1006.6666666666667</ele><time>2026-04-22T15:49:43Z</time></trkpt><trkpt lat="42.757487572501724" lon="12.963265664473642"><ele>1007.0</ele><time>2026-04-22T15:49:44Z</time></trkpt><trkpt lat="42.75737071595506" lon="12.963455253228704"><ele>1007.0</ele><time>2026-04-22T15:49:45Z</time></trkpt><trkpt lat="42.757245094879934" lon="12.963659978627605"><ele>1007.0</ele><time>2026-04-22T15:49:46Z</time></trkpt><trkpt lat="42.7571310641025" lon="12.963866134700863"><ele>1007.0</ele><time>2026-04-22T15:49:47Z</time></trkpt><trkpt lat="42.75700611475222" lon="12.96408132272498"><ele>1007.0</ele><time>2026-04-22T15:49:48Z</time></trkpt><trkpt lat="42.756899139573626" lon="12.964277578335937"><ele>1007.0</ele><time>2026-04-22T15:49:49Z</time></trkpt><trkpt lat="42.75679695709165" lon="12.964464667252992"><ele>1007.0</ele><time>2026-04-22T15:49:50Z</time></trkpt><trkpt lat="42.756688453772256" lon="12.964637557757717"><ele>1007.0</ele><time>2026-04-22T15:49:51Z</time></trkpt><trkpt lat="42.756580650932925" lon="12.96480864455851"><ele>1007.0</ele><time>2026-04-22T15:49:52Z</time></trkpt><trkpt lat="42.75647743412513" lon="12.964994687265738"><ele>1007.0</ele><time>2026-04-22T15:49:53Z</time></trkpt><trkpt lat="42.75636738439528" lon="12.965193923632203"><ele>1007.6666666666667</ele><time>2026-04-22T15:49:54Z</time></trkpt><trkpt lat="42.756257453359154" lon="12.965398427678538"><ele>1008.3333333333333</ele><time>2026-04-22T15:49:55Z</time></trkpt><trkpt lat="42.75614223005859" lon="12.965603742920143"><ele>1009.0</ele><time>2026-04-22T15:49:56Z</time></trkpt><trkpt lat="42.7560185056263" lon="12.965819246974714"><ele>1005.6666666666666</ele><time>2026-04-22T15:49:57Z</time></trkpt><trkpt lat="42.75589041254465" lon="12.966043780623306"><ele>1002.3333333333333</ele><time>2026-04-22T15:49:58Z</time></trkpt><trkpt lat="42.75576550087498" lon="12.966276905343996"><ele>999.0</ele><time>2026-04-22T15:49:59Z</time></trkpt><trkpt lat="42.755644758814626" lon="12.966522543164794"><ele>998.0</ele><time>2026-04-22T15:50:00Z</time></trkpt><trkpt lat="42.755531418229644" lon="12.966753651823216"><ele>997.0</ele><time>2026-04-22T15:50:01Z</time></trkpt><trkpt lat="42.75542150829463" lon="12.966976597252728"><ele>996.0</ele><time>2026-04-22T15:50:02Z</time></trkpt><trkpt lat="42.755316335738165" lon="12.967192984093591"><ele>996.0</ele><time>2026-04-22T15:50:03Z</time></trkpt><trkpt lat="42.75523047171577" lon="12.967405324403204"><ele>996.0</ele><time>2026-04-22T15:50:04Z</time></trkpt><trkpt lat="42.75514651669958" lon="12.967624918136435"><ele>996.0</ele><time>2026-04-22T15:50:05Z</time></trkpt><trkpt lat="42.75507479677395" lon="12.967832986077212"><ele>994.0</ele><time>2026-04-22T15:50:06Z</time></trkpt><trkpt lat="42.75499818297565" lon="12.968036443846922"><ele>992.0</ele><time>2026-04-22T15:50:07Z</time></trkpt><trkpt lat="42.75491419046415" lon="12.968232459585586"><ele>990.0</ele><time>2026-04-22T15:50:08Z</time></trkpt><trkpt lat="42.75482429591104" lon="12.968411315523483"><ele>989.0</ele><time>2026-04-22T15:50:09Z</time></trkpt><trkpt lat="42.754727451913524" lon="12.968588928097148"><ele>988.0</ele><time>2026-04-22T15:50:10Z</time></trkpt><trkpt lat="42.75462396533037" lon="12.968783451335563"><ele>987.0</ele><time>2026-04-22T15:50:11Z</time></trkpt><trkpt lat="42.754533214237384" lon="12.968992792492807"><ele>987.6666666666667</ele><time>2026-04-22T15:50:12Z</time></trkpt><trkpt lat="42.754454991005254" lon="12.969211592429547"><ele>988.3333333333334</ele><time>2026-04-22T15:50:13Z</time></trkpt><trkpt lat="42.754356714736915" lon="12.969406282533607"><ele>989.0</ele><time>2026-04-22T15:50:14Z</time></trkpt><trkpt lat="42.75428871389517" lon="12.969608753409004"><ele>986.6666666666667</ele><time>2026-04-22T15:50:15Z</time></trkpt><trkpt lat="42.754211460738134" lon="12.96979922172249"><ele>984.3333333333333</ele><time>2026-04-22T15:50:16Z</time></trkpt><trkpt lat="42.75412591559495" lon="12.969977005855238"><ele>982.0</ele><time>2026-04-22T15:50:17Z</time></trkpt><trkpt lat="42.75402686017211" lon="12.970166800595853"><ele>980.3333333333333</ele><time>2026-04-22T15:50:18Z</time></trkpt><trkpt lat="42.753930434423594" lon="12.970353588811706"><ele>978.6666666666667</ele><time>2026-04-22T15:50:19Z</time></trkpt><trkpt lat="42.7538311483698" lon="12.970517590581442"><ele>977.0</ele><time>2026-04-22T15:50:20Z</time></trkpt><trkpt lat="42.75372236434547" lon="12.970661699674682"><ele>977.0</ele><time>2026-04-22T15:50:21Z</time></trkpt><trkpt lat="42.75360362119222" lon="12.970792706865645"><ele>977.0</ele><time>2026-04-22T15:50:22Z</time></trkpt><trkpt lat="42.75348421937853" lon="12.970925627983558"><ele>977.0</ele><time>2026-04-22T15:50:23Z</time></trkpt><trkpt lat="42.753361501673936" lon="12.971054836121661"><ele>975.0</ele><time>2026-04-22T15:50:24Z</time></trkpt><trkpt lat="42.75322961352321" lon="12.971189186062555"><ele>973.0</ele><time>2026-04-22T15:50:25Z</time></trkpt><trkpt lat="42.75310666278423" lon="12.971331120723898"><ele>971.0</ele><time>2026-04-22T15:50:26Z</time></trkpt><trkpt lat="42.75299580415557" lon="12.971492328091601"><ele>971.0</ele><time>2026-04-22T15:50:27Z</time></trkpt><trkpt lat="42.75289339348847" lon="12.97166755754989"><ele>971.0</ele><time>2026-04-22T15:50:28Z</time></trkpt><trkpt lat="42.752797952891065" lon="12.971825034970868"><ele>971.0</ele><time>2026-04-22T15:50:29Z</time></trkpt><trkpt lat="42.75269226325339" lon="12.971972190861916"><ele>967.6666666666667</ele><time>2026-04-22T15:50:30Z</time></trkpt><trkpt lat="42.75257592331927" lon="12.972114473981893"><ele>964.3333333333333</ele><time>2026-04-22T15:50:31Z</time></trkpt><trkpt lat="42.75247615183042" lon="12.972282768970285"><ele>961.0</ele><time>2026-04-22T15:50:32Z</time></trkpt><trkpt lat="42.752397121047764" lon="12.972447795281377"><ele>963.5</ele><time>2026-04-22T15:50:33Z</time></trkpt><trkpt lat="42.752304348283786" lon="12.972583449167635"><ele>966.0</ele><time>2026-04-22T15:50:34Z</time></trkpt><trkpt lat="42.75221220172029" lon="12.97271825927529"><ele>968.5</ele><time>2026-04-22T15:50:35Z</time></trkpt><trkpt lat="42.75212143597798" lon="12.972857880423485"><ele>971.0</ele><time>2026-04-22T15:50:36Z</time></trkpt><trkpt lat="42.752038373066895" lon="12.9730105967786"><ele>971.0</ele><time>2026-04-22T15:50:37Z</time></trkpt><trkpt lat="42.75197037675503" lon="12.973180976561228"><ele>971.0</ele><time>2026-04-22T15:50:38Z</time></trkpt><trkpt lat="42.751942393734346" lon="12.973382742627566"><ele>971.0</ele><time>2026-04-22T15:50:39Z</time></trkpt><trkpt lat="42.75189972504057" lon="12.973582815163992"><ele>971.0</ele><time>2026-04-22T15:50:40Z</time></trkpt><trkpt lat="42.751841605252984" lon="12.973786741304071"><ele>969.0</ele><time>2026-04-22T15:50:41Z</time></trkpt><trkpt lat="42.7517849450042" lon="12.973989295247907"><ele>967.0</ele><time>2026-04-22T15:50:42Z</time></trkpt><trkpt lat="42.75170789305078" lon="12.974201163084771"><ele>965.0</ele><time>2026-04-22T15:50:43Z</time></trkpt><trkpt lat="42.75161666119652" lon="12.974413676662891"><ele>965.0</ele><time>2026-04-22T15:50:44Z</time></trkpt><trkpt lat="42.75151619776248" lon="12.974627756151321"><ele>965.0</ele><time>2026-04-22T15:50:45Z</time></trkpt><trkpt lat="42.75141295035252" lon="12.974832820540437"><ele>965.0</ele><time>2026-04-22T15:50:46Z</time></trkpt><trkpt lat="42.75120825883149" lon="12.975263590622843"><ele>963.0</ele><time>2026-04-22T15:50:48Z</time></trkpt><trkpt lat="42.75110391507481" lon="12.975480223070361"><ele>961.0</ele><time>2026-04-22T15:50:49Z</time></trkpt><trkpt lat="42.75100050147933" lon="12.975696305077237"><ele>959.0</ele><time>2026-04-22T15:50:50Z</time></trkpt><trkpt lat="42.750894903036105" lon="12.97591715982792"><ele>959.0</ele><time>2026-04-22T15:50:51Z</time></trkpt><trkpt lat="42.750788797030694" lon="12.976137985131716"><ele>959.0</ele><time>2026-04-22T15:50:52Z</time></trkpt><trkpt lat="42.75068615358903" lon="12.976350572490833"><ele>959.0</ele><time>2026-04-22T15:50:53Z</time></trkpt><trkpt lat="42.75058395750498" lon="12.976548855674201"><ele>962.3333333333334</ele><time>2026-04-22T15:50:54Z</time></trkpt><trkpt lat="42.75046840684499" lon="12.976746572701094"><ele>965.6666666666667</ele><time>2026-04-22T15:50:55Z</time></trkpt><trkpt lat="42.75035977595536" lon="12.976925525826095"><ele>969.0</ele><time>2026-04-22T15:50:56Z</time></trkpt><trkpt lat="42.750247705115356" lon="12.977121153510529"><ele>957.0</ele><time>2026-04-22T15:50:57Z</time></trkpt><trkpt lat="42.75015348471351" lon="12.97731937679382"><ele>945.0</ele><time>2026-04-22T15:50:58Z</time></trkpt><trkpt lat="42.750093836970784" lon="12.977518623090385"><ele>933.0</ele><time>2026-04-22T15:50:59Z</time></trkpt><trkpt lat="42.750043254782426" lon="12.977685780468718"><ele>932.75</ele><time>2026-04-22T15:51:00Z</time></trkpt><trkpt lat="42.750019477651456" lon="12.977840151208296"><ele>932.5</ele><time>2026-04-22T15:51:01Z</time></trkpt><trkpt lat="42.75001595659117" lon="12.978001556190478"><ele>932.25</ele><time>2026-04-22T15:51:02Z</time></trkpt><trkpt lat="42.75004057859277" lon="12.97817157537936"><ele>932.0</ele><time>2026-04-22T15:51:03Z</time></trkpt><trkpt lat="42.75004550764078" lon="12.978373629628171"><ele>932.0</ele><time>2026-04-22T15:51:04Z</time></trkpt><trkpt lat="42.75005815128501" lon="12.978572221028232"><ele>932.0</ele><time>2026-04-22T15:51:05Z</time></trkpt><trkpt lat="42.75007986974324" lon="12.97878528624036"><ele>932.0</ele><time>2026-04-22T15:51:06Z</time></trkpt><trkpt lat="42.750095105752536" lon="12.978981464709202"><ele>932.0</ele><time>2026-04-22T15:51:07Z</time></trkpt><trkpt lat="42.75009406868268" lon="12.979152749292881"><ele>931.8333333333334</ele><time>2026-04-22T15:51:08Z</time></trkpt><trkpt lat="42.75007453100952" lon="12.979298361894768"><ele>931.6666666666667</ele><time>2026-04-22T15:51:09Z</time></trkpt><trkpt lat="42.750030521580925" lon="12.979410112670834"><ele>931.5</ele><time>2026-04-22T15:51:10Z</time></trkpt><trkpt lat="42.7499860597053" lon="12.979497427963695"><ele>931.3333333333333</ele><time>2026-04-22T15:51:11Z</time></trkpt><trkpt lat="42.74994049902649" lon="12.97958845298909"><ele>931.1666666666666</ele><time>2026-04-22T15:51:12Z</time></trkpt><trkpt lat="42.74990440303052" lon="12.979689413065774"><ele>931.0</ele><time>2026-04-22T15:51:13Z</time></trkpt><trkpt lat="42.74987885235022" lon="12.979796408724289"><ele>931.0</ele><time>2026-04-22T15:51:14Z</time></trkpt><trkpt lat="42.74992953029223" lon="12.979918721608554"><ele>930.9999999999999</ele><time>2026-04-22T15:51:15Z</time></trkpt><trkpt lat="42.74997279935675" lon="12.980037996870546"><ele>930.9999999999999</ele><time>2026-04-22T15:51:16Z</time></trkpt><trkpt lat="42.75001025208079" lon="12.980192386177455"><ele>931.0</ele><time>2026-04-22T15:51:17Z</time></trkpt><trkpt lat="42.75004620688919" lon="12.980350391802219"><ele>931.0</ele><time>2026-04-22T15:51:18Z</time></trkpt><trkpt lat="42.750063967366465" lon="12.980501417240399"><ele>930.0</ele><time>2026-04-22T15:51:19Z</time></trkpt><trkpt lat="42.75005908401752" lon="12.980651834127139"><ele>929.0</ele><time>2026-04-22T15:51:20Z</time></trkpt><trkpt lat="42.75003926292637" lon="12.980807119975099"><ele>928.0</ele><time>2026-04-22T15:51:21Z</time></trkpt><trkpt lat="42.750008289147374" lon="12.98096556779783"><ele>927.0</ele><time>2026-04-22T15:51:22Z</time></trkpt><trkpt lat="42.74997029092474" lon="12.981124579736404"><ele>924.5</ele><time>2026-04-22T15:51:23Z</time></trkpt><trkpt lat="42.74992437696913" lon="12.981281352186912"><ele>922.0</ele><time>2026-04-22T15:51:24Z</time></trkpt><trkpt lat="42.749893922452245" lon="12.981450051347263"><ele>919.5</ele><time>2026-04-22T15:51:25Z</time></trkpt><trkpt lat="42.74987508407063" lon="12.981614742986203"><ele>917.0</ele><time>2026-04-22T15:51:26Z</time></trkpt><trkpt lat="42.74985757225554" lon="12.981772980016675"><ele>916.0</ele><time>2026-04-22T15:51:27Z</time></trkpt><trkpt lat="42.749839680798935" lon="12.981924263063254"><ele>915.0</ele><time>2026-04-22T15:51:28Z</time></trkpt><trkpt lat="42.749810321470385" lon="12.9820721346728"><ele>914.0</ele><time>2026-04-22T15:51:29Z</time></trkpt><trkpt lat="42.749765344769244" lon="12.98221046434304"><ele>913.0</ele><time>2026-04-22T15:51:30Z</time></trkpt><trkpt lat="42.749641228083796" lon="12.982493966772896"><ele>911.75</ele><time>2026-04-22T15:51:32Z</time></trkpt><trkpt lat="42.74958554236411" lon="12.98263755904072"><ele>910.5</ele><time>2026-04-22T15:51:33Z</time></trkpt><trkpt lat="42.74954536282863" lon="12.982793757684114"><ele>909.25</ele><time>2026-04-22T15:51:34Z</time></trkpt><trkpt lat="42.74951202145128" lon="12.982932189560811"><ele>908.0</ele><time>2026-04-22T15:51:35Z</time></trkpt><trkpt lat="42.7494694474238" lon="12.983064617720132"><ele>908.0</ele><time>2026-04-22T15:51:36Z</time></trkpt><trkpt lat="42.74941499031132" lon="12.9831881544891"><ele>908.0</ele><time>2026-04-22T15:51:37Z</time></trkpt><trkpt lat="42.74934355797545" lon="12.983293509408087"><ele>908.0</ele><time>2026-04-22T15:51:38Z</time></trkpt><trkpt lat="42.749270966760996" lon="12.983412024862522"><ele>908.0</ele><time>2026-04-22T15:51:39Z</time></trkpt><trkpt lat="42.749194798253" lon="12.983535606613316"><ele>908.0</ele><time>2026-04-22T15:51:40Z</time></trkpt><trkpt lat="42.749116417453266" lon="12.983655623243026"><ele>906.5</ele><time>2026-04-22T15:51:41Z</time></trkpt><trkpt lat="42.74903946740312" lon="12.983779397714994"><ele>905.0</ele><time>2026-04-22T15:51:42Z</time></trkpt><trkpt lat="42.74897407416272" lon="12.983912606339034"><ele>903.5</ele><time>2026-04-22T15:51:43Z</time></trkpt><trkpt lat="42.7489224541776" lon="12.984063323499294"><ele>902.0</ele><time>2026-04-22T15:51:44Z</time></trkpt><trkpt lat="42.74888410526288" lon="12.984215833755425"><ele>899.5</ele><time>2026-04-22T15:51:45Z</time></trkpt><trkpt lat="42.74885203678408" lon="12.98437117008408"><ele>897.0</ele><time>2026-04-22T15:51:46Z</time></trkpt><trkpt lat="42.748820158224376" lon="12.984527698931695"><ele>894.5</ele><time>2026-04-22T15:51:47Z</time></trkpt><trkpt lat="42.748787064015836" lon="12.984685765933348"><ele>892.0</ele><time>2026-04-22T15:51:48Z</time></trkpt><trkpt lat="42.748750527161114" lon="12.98484151488151"><ele>892.0</ele><time>2026-04-22T15:51:49Z</time></trkpt><trkpt lat="42.74871692324768" lon="12.984984761322545"><ele>892.0</ele><time>2026-04-22T15:51:50Z</time></trkpt><trkpt lat="42.74868431067182" lon="12.98512378189574"><ele>892.0</ele><time>2026-04-22T15:51:51Z</time></trkpt><trkpt lat="42.74865445589362" lon="12.985252707513018"><ele>892.0</ele><time>2026-04-22T15:51:52Z</time></trkpt><trkpt lat="42.74862668328422" lon="12.985371759010736"><ele>892.0</ele><time>2026-04-22T15:51:53Z</time></trkpt><trkpt lat="42.74859693431301" lon="12.985466732067415"><ele>891.1666666666666</ele><time>2026-04-22T15:51:54Z</time></trkpt><trkpt lat="42.748577318786865" lon="12.985548683984126"><ele>890.3333333333333</ele><time>2026-04-22T15:51:55Z</time></trkpt><trkpt lat="42.748500952512565" lon="12.985594898955828"><ele>889.5</ele><time>2026-04-22T15:51:57Z</time></trkpt><trkpt lat="42.748415173962734" lon="12.985511241657914"><ele>888.6666666666667</ele><time>2026-04-22T15:51:58Z</time></trkpt><trkpt lat="42.748355135788046" lon="12.985438569701435"><ele>887.8333333333334</ele><time>2026-04-22T15:51:59Z</time></trkpt><trkpt lat="42.748298137735844" lon="12.985337364751116"><ele>887.0</ele><time>2026-04-22T15:52:00Z</time></trkpt><trkpt lat="42.74825965239369" lon="12.985202780661892"><ele>886.25</ele><time>2026-04-22T15:52:01Z</time></trkpt><trkpt lat="42.74824045959161" lon="12.98506104008214"><ele>885.5</ele><time>2026-04-22T15:52:02Z</time></trkpt><trkpt lat="42.748225742090085" lon="12.984900890805987"><ele>884.75</ele><time>2026-04-22T15:52:03Z</time></trkpt><trkpt lat="42.74820433340226" lon="12.984727247800668"><ele>884.0</ele><time>2026-04-22T15:52:04Z</time></trkpt><trkpt lat="42.7481719844386" lon="12.984542920813302"><ele>883.75</ele><time>2026-04-22T15:52:05Z</time></trkpt><trkpt lat="42.748128774976394" lon="12.984359789360296"><ele>883.5</ele><time>2026-04-22T15:52:06Z</time></trkpt><trkpt lat="42.74807022351337" lon="12.984180342865645"><ele>883.25</ele><time>2026-04-22T15:52:07Z</time></trkpt><trkpt lat="42.748001878827374" lon="12.984006412156662"><ele>883.0</ele><time>2026-04-22T15:52:08Z</time></trkpt><trkpt lat="42.74793309067895" lon="12.983839556249446"><ele>884.75</ele><time>2026-04-22T15:52:09Z</time></trkpt><trkpt lat="42.747868586499145" lon="12.983676791855308"><ele>886.5</ele><time>2026-04-22T15:52:10Z</time></trkpt><trkpt lat="42.74781787561741" lon="12.983501523584415"><ele>888.25</ele><time>2026-04-22T15:52:11Z</time></trkpt><trkpt lat="42.74777731139812" lon="12.983315640302425"><ele>890.0</ele><time>2026-04-22T15:52:12Z</time></trkpt><trkpt lat="42.74774072531737" lon="12.983129574695452"><ele>895.0</ele><time>2026-04-22T15:52:13Z</time></trkpt><trkpt lat="42.747708766391945" lon="12.982957663060843"><ele>900.0</ele><time>2026-04-22T15:52:14Z</time></trkpt><trkpt lat="42.74769419470097" lon="12.98279934903422"><ele>905.0</ele><time>2026-04-22T15:52:15Z</time></trkpt><trkpt lat="42.747702365888905" lon="12.98263753342848"><ele>910.0</ele><time>2026-04-22T15:52:16Z</time></trkpt><trkpt lat="42.747734846485386" lon="12.982469677651817"><ele>910.0</ele><time>2026-04-22T15:52:17Z</time></trkpt><trkpt lat="42.747778064011655" lon="12.982282116460185"><ele>910.0</ele><time>2026-04-22T15:52:18Z</time></trkpt><trkpt lat="42.74781996308332" lon="12.982083619169481"><ele>910.0</ele><time>2026-04-22T15:52:19Z</time></trkpt><trkpt lat="42.747865879217336" lon="12.981877759001273"><ele>905.5</ele><time>2026-04-22T15:52:20Z</time></trkpt><trkpt lat="42.74791778989039" lon="12.981680895586573"><ele>901.0</ele><time>2026-04-22T15:52:21Z</time></trkpt><trkpt lat="42.7479709577731" lon="12.981492811653105"><ele>896.5</ele><time>2026-04-22T15:52:22Z</time></trkpt><trkpt lat="42.74801824768644" lon="12.981308438097502"><ele>892.0</ele><time>2026-04-22T15:52:23Z</time></trkpt><trkpt lat="42.748047711302085" lon="12.981122488214789"><ele>892.0</ele><time>2026-04-22T15:52:24Z</time></trkpt><trkpt lat="42.74806330837985" lon="12.980943119507504"><ele>892.0</ele><time>2026-04-22T15:52:25Z</time></trkpt><trkpt lat="42.74806513877153" lon="12.980787352083935"><ele>892.0</ele><time>2026-04-22T15:52:26Z</time></trkpt><trkpt lat="42.748049544512526" lon="12.980658263100493"><ele>892.0</ele><time>2026-04-22T15:52:27Z</time></trkpt><trkpt lat="42.748024878400486" lon="12.980548586298644"><ele>892.0</ele><time>2026-04-22T15:52:28Z</time></trkpt><trkpt lat="42.74796690327357" lon="12.980456986161505"><ele>891.4000000000001</ele><time>2026-04-22T15:52:29Z</time></trkpt><trkpt lat="42.74788127743529" lon="12.980415588747354"><ele>890.8000000000001</ele><time>2026-04-22T15:52:30Z</time></trkpt><trkpt lat="42.74777611354571" lon="12.980447539250497"><ele>890.2</ele><time>2026-04-22T15:52:31Z</time></trkpt><trkpt lat="42.747688260071094" lon="12.980520291014471"><ele>889.6</ele><time>2026-04-22T15:52:32Z</time></trkpt><trkpt lat="42.74761704198001" lon="12.980649081994521"><ele>889.0</ele><time>2026-04-22T15:52:33Z</time></trkpt><trkpt lat="42.747536681549" lon="12.9807681724113"><ele>882.25</ele><time>2026-04-22T15:52:34Z</time></trkpt><trkpt lat="42.74744237029067" lon="12.980888944976469"><ele>875.5</ele><time>2026-04-22T15:52:35Z</time></trkpt><trkpt lat="42.74732845849116" lon="12.981006708418766"><ele>868.75</ele><time>2026-04-22T15:52:36Z</time></trkpt><trkpt lat="42.747217199160644" lon="12.98113223375131"><ele>862.0</ele><time>2026-04-22T15:52:37Z</time></trkpt><trkpt lat="42.74709845618732" lon="12.981261876004735"><ele>862.0</ele><time>2026-04-22T15:52:38Z</time></trkpt><trkpt lat="42.74697817754179" lon="12.981392176187484"><ele>862.0</ele><time>2026-04-22T15:52:39Z</time></trkpt><trkpt lat="42.746873171995524" lon="12.981542589198428"><ele>862.0</ele><time>2026-04-22T15:52:40Z</time></trkpt><trkpt lat="42.74678383538897" lon="12.981684843983455"><ele>862.0</ele><time>2026-04-22T15:52:41Z</time></trkpt><trkpt lat="42.74669644936447" lon="12.981815539901179"><ele>856.5</ele><time>2026-04-22T15:52:42Z</time></trkpt><trkpt lat="42.746592246350815" lon="12.981914441507053"><ele>851.0</ele><time>2026-04-22T15:52:43Z</time></trkpt><trkpt lat="42.7464726542944" lon="12.982002866172449"><ele>845.5</ele><time>2026-04-22T15:52:44Z</time></trkpt><trkpt lat="42.74633978189133" lon="12.98211033193711"><ele>840.0</ele><time>2026-04-22T15:52:45Z</time></trkpt><trkpt lat="42.7462203752035" lon="12.982247403683244"><ele>840.0</ele><time>2026-04-22T15:52:46Z</time></trkpt><trkpt lat="42.74610498883466" lon="12.982396379755622"><ele>840.0</ele><time>2026-04-22T15:52:47Z</time></trkpt><trkpt lat="42.74599917636113" lon="12.982554759972906"><ele>840.0</ele><time>2026-04-22T15:52:48Z</time></trkpt><trkpt lat="42.74591081192943" lon="12.982714229489497"><ele>840.0</ele><time>2026-04-22T15:52:49Z</time></trkpt><trkpt lat="42.74583331726268" lon="12.982867471566323"><ele>840.0</ele><time>2026-04-22T15:52:50Z</time></trkpt><trkpt lat="42.745759097110074" lon="12.982996752030575"><ele>840.0</ele><time>2026-04-22T15:52:51Z</time></trkpt><trkpt lat="42.74567374339837" lon="12.983084163901703"><ele>840.0</ele><time>2026-04-22T15:52:52Z</time></trkpt><trkpt lat="42.74557401122643" lon="12.983141632145024"><ele>840.0</ele><time>2026-04-22T15:52:53Z</time></trkpt><trkpt lat="42.745451718877824" lon="12.983162489560021"><ele>840.0</ele><time>2026-04-22T15:52:54Z</time></trkpt><trkpt lat="42.745315220914875" lon="12.983199653278033"><ele>840.0</ele><time>2026-04-22T15:52:55Z</time></trkpt><trkpt lat="42.745190862898085" lon="12.983226518627296"><ele>840.0</ele><time>2026-04-22T15:52:56Z</time></trkpt><trkpt lat="42.7450776832662" lon="12.98324300896835"><ele>839.25</ele><time>2026-04-22T15:52:57Z</time></trkpt><trkpt lat="42.744974148988305" lon="12.98323806974721"><ele>838.5</ele><time>2026-04-22T15:52:58Z</time></trkpt><trkpt lat="42.74488318546387" lon="12.98316302392877"><ele>837.75</ele><time>2026-04-22T15:52:59Z</time></trkpt><trkpt lat="42.74477594096412" lon="12.983068428248332"><ele>837.0</ele><time>2026-04-22T15:53:00Z</time></trkpt><trkpt lat="42.744660124947984" lon="12.982962207614863"><ele>837.0</ele><time>2026-04-22T15:53:01Z</time></trkpt><trkpt lat="42.7445354167711" lon="12.982865502456802"><ele>837.0</ele><time>2026-04-22T15:53:02Z</time></trkpt><trkpt lat="42.74439968289195" lon="12.982787089526802"><ele>837.0</ele><time>2026-04-22T15:53:03Z</time></trkpt><trkpt lat="42.744263033964586" lon="12.982701696923238"><ele>837.0</ele><time>2026-04-22T15:53:04Z</time></trkpt><trkpt lat="42.74413844241695" lon="12.982598772035864"><ele>837.75</ele><time>2026-04-22T15:53:05Z</time></trkpt><trkpt lat="42.744005060275875" lon="12.982529788718805"><ele>838.5</ele><time>2026-04-22T15:53:06Z</time></trkpt><trkpt lat="42.743860771106505" lon="12.982494520261941"><ele>839.25</ele><time>2026-04-22T15:53:07Z</time></trkpt><trkpt lat="42.74371060197358" lon="12.982478688849291"><ele>840.0</ele><time>2026-04-22T15:53:08Z</time></trkpt><trkpt lat="42.74356734937651" lon="12.982466493352199"><ele>836.8</ele><time>2026-04-22T15:53:09Z</time></trkpt><trkpt lat="42.743434279520855" lon="12.982453030274016"><ele>833.6</ele><time>2026-04-22T15:53:10Z</time></trkpt><trkpt lat="42.74332575519073" lon="12.982432975588017"><ele>830.4000000000001</ele><time>2026-04-22T15:53:11Z</time></trkpt><trkpt lat="42.74323515650937" lon="12.982404021409092"><ele>827.2</ele><time>2026-04-22T15:53:12Z</time></trkpt><trkpt lat="42.74316742593414" lon="12.982334222963752"><ele>824.0</ele><time>2026-04-22T15:53:13Z</time></trkpt><trkpt lat="42.74313531816195" lon="12.982201554889135"><ele>824.0</ele><time>2026-04-22T15:53:14Z</time></trkpt><trkpt lat="42.74312644201014" lon="12.982035333630947"><ele>824.0</ele><time>2026-04-22T15:53:15Z</time></trkpt><trkpt lat="42.743119934635146" lon="12.981847555834124"><ele>824.0</ele><time>2026-04-22T15:53:16Z</time></trkpt><trkpt lat="42.743090641412586" lon="12.981649081532066"><ele>824.0</ele><time>2026-04-22T15:53:17Z</time></trkpt><trkpt lat="42.743027221033216" lon="12.981451969896852"><ele>818.0</ele><time>2026-04-22T15:53:18Z</time></trkpt><trkpt lat="42.742934906334774" lon="12.981262610338192"><ele>812.0</ele><time>2026-04-22T15:53:19Z</time></trkpt><trkpt lat="42.742822812069384" lon="12.981063555135426"><ele>806.0</ele><time>2026-04-22T15:53:20Z</time></trkpt><trkpt lat="42.742694264875226" lon="12.980908521750367"><ele>811.5</ele><time>2026-04-22T15:53:21Z</time></trkpt><trkpt lat="42.742565403169486" lon="12.980782362123266"><ele>817.0</ele><time>2026-04-22T15:53:22Z</time></trkpt><trkpt lat="42.742435555632355" lon="12.980676145626054"><ele>822.5</ele><time>2026-04-22T15:53:23Z</time></trkpt><trkpt lat="42.74235280083588" lon="12.980534612527375"><ele>828.0</ele><time>2026-04-22T15:53:24Z</time></trkpt><trkpt lat="42.74226679860019" lon="12.980426236134354"><ele>828.0</ele><time>2026-04-22T15:53:25Z</time></trkpt><trkpt lat="42.74219634257346" lon="12.980326724881706"><ele>828.0</ele><time>2026-04-22T15:53:26Z</time></trkpt><trkpt lat="42.74212397047248" lon="12.980255465449659"><ele>828.0</ele><time>2026-04-22T15:53:27Z</time></trkpt><trkpt lat="42.74202641538097" lon="12.980269808925469"><ele>828.0</ele><time>2026-04-22T15:53:28Z</time></trkpt><trkpt lat="42.74194365833841" lon="12.980319684454274"><ele>828.0</ele><time>2026-04-22T15:53:29Z</time></trkpt><trkpt lat="42.74186224226082" lon="12.980387015882968"><ele>828.0</ele><time>2026-04-22T15:53:30Z</time></trkpt><trkpt lat="42.74180594369669" lon="12.98051775065803"><ele>828.0</ele><time>2026-04-22T15:53:31Z</time></trkpt><trkpt lat="42.74178729861528" lon="12.980678487189449"><ele>828.0</ele><time>2026-04-22T15:53:32Z</time></trkpt><trkpt lat="42.741782216196434" lon="12.980847000166726"><ele>828.0</ele><time>2026-04-22T15:53:33Z</time></trkpt><trkpt lat="42.74178789844261" lon="12.981047557978862"><ele>828.0</ele><time>2026-04-22T15:53:34Z</time></trkpt><trkpt lat="42.741780040438165" lon="12.981232989756045"><ele>828.0</ele><time>2026-04-22T15:53:35Z</time></trkpt><trkpt lat="42.74173665073802" lon="12.981418808687277"><ele>828.0</ele><time>2026-04-22T15:53:36Z</time></trkpt><trkpt lat="42.74167365525325" lon="12.981592406786461"><ele>828.0</ele><time>2026-04-22T15:53:37Z</time></trkpt><trkpt lat="42.74159671868718" lon="12.981760237946158"><ele>822.25</ele><time>2026-04-22T15:53:38Z</time></trkpt><trkpt lat="42.741499193136605" lon="12.981900936844898"><ele>816.5</ele><time>2026-04-22T15:53:39Z</time></trkpt><trkpt lat="42.74138678851022" lon="12.98201222673406"><ele>810.75</ele><time>2026-04-22T15:53:40Z</time></trkpt><trkpt lat="42.74125322379411" lon="12.982088061604877"><ele>805.0</ele><time>2026-04-22T15:53:41Z</time></trkpt><trkpt lat="42.741090899206796" lon="12.982156830470013"><ele>815.3333333333333</ele><time>2026-04-22T15:53:42Z</time></trkpt><trkpt lat="42.74093498009216" lon="12.982266272289209"><ele>825.6666666666667</ele><time>2026-04-22T15:53:43Z</time></trkpt><trkpt lat="42.74078718510239" lon="12.982378726233923"><ele>836.0</ele><time>2026-04-22T15:53:44Z</time></trkpt><trkpt lat="42.74063265039333" lon="12.982457868841614"><ele>836.0</ele><time>2026-04-22T15:53:45Z</time></trkpt><trkpt lat="42.74047335818689" lon="12.982499165033007"><ele>836.0</ele><time>2026-04-22T15:53:46Z</time></trkpt><trkpt lat="42.74030934379799" lon="12.982546310816693"><ele>836.0</ele><time>2026-04-22T15:53:47Z</time></trkpt><trkpt lat="42.74016607356301" lon="12.982631078280695"><ele>831.0</ele><time>2026-04-22T15:53:48Z</time></trkpt><trkpt lat="42.740024539081205" lon="12.982748260728481"><ele>826.0</ele><time>2026-04-22T15:53:49Z</time></trkpt><trkpt lat="42.73986580590248" lon="12.982865831407834"><ele>821.0</ele><time>2026-04-22T15:53:50Z</time></trkpt><trkpt lat="42.7396984843714" lon="12.982977628416354"><ele>821.0</ele><time>2026-04-22T15:53:51Z</time></trkpt><trkpt lat="42.73953667432063" lon="12.983090788536941"><ele>821.0</ele><time>2026-04-22T15:53:52Z</time></trkpt><trkpt lat="42.73939935771332" lon="12.983203593435563"><ele>821.0</ele><time>2026-04-22T15:53:53Z</time></trkpt><trkpt lat="42.73928154400798" lon="12.983328380813106"><ele>824.0</ele><time>2026-04-22T15:53:54Z</time></trkpt><trkpt lat="42.73918970847374" lon="12.983440070253895"><ele>827.0</ele><time>2026-04-22T15:53:55Z</time></trkpt><trkpt lat="42.739134389920004" lon="12.983605682606118"><ele>830.0</ele><time>2026-04-22T15:53:56Z</time></trkpt><trkpt lat="42.739090177198705" lon="12.983788287248712"><ele>833.0</ele><time>2026-04-22T15:53:57Z</time></trkpt><trkpt lat="42.73902869143154" lon="12.983968038767683"><ele>833.0</ele><time>2026-04-22T15:53:58Z</time></trkpt><trkpt lat="42.73895854906677" lon="12.984130212375149"><ele>833.0</ele><time>2026-04-22T15:53:59Z</time></trkpt><trkpt lat="42.73885361837156" lon="12.984278910619384"><ele>833.0</ele><time>2026-04-22T15:54:00Z</time></trkpt><trkpt lat="42.73872143085937" lon="12.984429374343385"><ele>837.3333333333334</ele><time>2026-04-22T15:54:01Z</time></trkpt><trkpt lat="42.73858065768642" lon="12.984594216267864"><ele>841.6666666666667</ele><time>2026-04-22T15:54:02Z</time></trkpt><trkpt lat="42.7384347272488" lon="12.984774497996888"><ele>846.0</ele><time>2026-04-22T15:54:03Z</time></trkpt><trkpt lat="42.73829413671268" lon="12.984936314263086"><ele>837.3333333333333</ele><time>2026-04-22T15:54:04Z</time></trkpt><trkpt lat="42.73814835309085" lon="12.985076839032452"><ele>828.6666666666666</ele><time>2026-04-22T15:54:05.001Z</time></trkpt><trkpt lat="42.73800995619846" lon="12.985189373435944"><ele>820.0</ele><time>2026-04-22T15:54:06.001Z</time></trkpt><trkpt lat="42.7378777127067" lon="12.985313205869929"><ele>820.0</ele><time>2026-04-22T15:54:07.001Z</time></trkpt><trkpt lat="42.73776936984404" lon="12.98545888217799"><ele>820.0</ele><time>2026-04-22T15:54:08.001Z</time></trkpt><trkpt lat="42.73767652578082" lon="12.985635338447768"><ele>820.0</ele><time>2026-04-22T15:54:09.001Z</time></trkpt><trkpt lat="42.737581595062764" lon="12.98582471707602"><ele>821.3333333333333</ele><time>2026-04-22T15:54:10.001Z</time></trkpt><trkpt lat="42.7374879703233" lon="12.98603074003779"><ele>822.6666666666667</ele><time>2026-04-22T15:54:11.001Z</time></trkpt><trkpt lat="42.73739460461371" lon="12.986231657328132"><ele>824.0</ele><time>2026-04-22T15:54:12.001Z</time></trkpt><trkpt lat="42.73729508309013" lon="12.986405340922294"><ele>824.0</ele><time>2026-04-22T15:54:13.001Z</time></trkpt><trkpt lat="42.737192683920554" lon="12.986576156708777"><ele>824.0</ele><time>2026-04-22T15:54:14.001Z</time></trkpt><trkpt lat="42.737093033292865" lon="12.986706514754554"><ele>824.0</ele><time>2026-04-22T15:54:15.001Z</time></trkpt><trkpt lat="42.73698310612638" lon="12.98680040159028"><ele>824.0</ele><time>2026-04-22T15:54:16.001Z</time></trkpt><trkpt lat="42.73685027955822" lon="12.986867541687573"><ele>824.3333333333334</ele><time>2026-04-22T15:54:17.001Z</time></trkpt><trkpt lat="42.73670389391355" lon="12.986949607559646"><ele>824.6666666666667</ele><time>2026-04-22T15:54:18.001Z</time></trkpt><trkpt lat="42.736564702706005" lon="12.987036414295504"><ele>825.0</ele><time>2026-04-22T15:54:19.001Z</time></trkpt><trkpt lat="42.73643591179966" lon="12.987116734997462"><ele>825.0</ele><time>2026-04-22T15:54:20.001Z</time></trkpt><trkpt lat="42.73631140628211" lon="12.987195803576553"><ele>825.0</ele><time>2026-04-22T15:54:21.001Z</time></trkpt><trkpt lat="42.736194144744864" lon="12.987270255655153"><ele>825.0</ele><time>2026-04-22T15:54:22.001Z</time></trkpt><trkpt lat="42.73608632600398" lon="12.987336392589757"><ele>825.0</ele><time>2026-04-22T15:54:23.001Z</time></trkpt><trkpt lat="42.73599083735056" lon="12.9873970689745"><ele>826.5</ele><time>2026-04-22T15:54:24.001Z</time></trkpt><trkpt lat="42.73588302968542" lon="12.987479177608122"><ele>828.0</ele><time>2026-04-22T15:54:25.001Z</time></trkpt><trkpt lat="42.73579880387295" lon="12.9875813851131"><ele>829.5</ele><time>2026-04-22T15:54:26.001Z</time></trkpt><trkpt lat="42.73572058966753" lon="12.98769324573732"><ele>831.0</ele><time>2026-04-22T15:54:27.001Z</time></trkpt><trkpt lat="42.73565011515725" lon="12.987823034313434"><ele>831.0</ele><time>2026-04-22T15:54:28.001Z</time></trkpt><trkpt lat="42.735579569536746" lon="12.987952235837401"><ele>831.0</ele><time>2026-04-22T15:54:29.001Z</time></trkpt><trkpt lat="42.73551318381017" lon="12.988079647638239"><ele>831.0</ele><time>2026-04-22T15:54:30.001Z</time></trkpt><trkpt lat="42.73544771026392" lon="12.98820593840082"><ele>831.0</ele><time>2026-04-22T15:54:31.001Z</time></trkpt><trkpt lat="42.735387275555716" lon="12.988339528879767"><ele>831.0</ele><time>2026-04-22T15:54:32.001Z</time></trkpt><trkpt lat="42.735337439915945" lon="12.98847727992056"><ele>831.0</ele><time>2026-04-22T15:54:33.001Z</time></trkpt><trkpt lat="42.73531306784149" lon="12.988642736017146"><ele>831.0</ele><time>2026-04-22T15:54:34.001Z</time></trkpt><trkpt lat="42.735295304746415" lon="12.988793920517828"><ele>831.0</ele><time>2026-04-22T15:54:35.001Z</time></trkpt><trkpt lat="42.73527751835791" lon="12.98893577103814"><ele>831.0</ele><time>2026-04-22T15:54:36.001Z</time></trkpt><trkpt lat="42.73525567424279" lon="12.989068906823881"><ele>831.0</ele><time>2026-04-22T15:54:37.001Z</time></trkpt><trkpt lat="42.73522128831448" lon="12.989176035712338"><ele>831.0</ele><time>2026-04-22T15:54:38.001Z</time></trkpt><trkpt lat="42.735160060805654" lon="12.989253878964371"><ele>831.0</ele><time>2026-04-22T15:54:39.001Z</time></trkpt><trkpt lat="42.73508339166902" lon="12.989324715332877"><ele>831.0</ele><time>2026-04-22T15:54:40.001Z</time></trkpt><trkpt lat="42.73500036008948" lon="12.989393337721184"><ele>831.5999999999999</ele><time>2026-04-22T15:54:41.001Z</time></trkpt><trkpt lat="42.734910254311444" lon="12.9894709963534"><ele>832.2</ele><time>2026-04-22T15:54:42.001Z</time></trkpt><trkpt lat="42.734822301781755" lon="12.989550493845877"><ele>832.8</ele><time>2026-04-22T15:54:43.001Z</time></trkpt><trkpt lat="42.73473534995807" lon="12.989629086844804"><ele>833.4000000000001</ele><time>2026-04-22T15:54:44.001Z</time></trkpt><trkpt lat="42.734647353728214" lon="12.989710491499755"><ele>834.0</ele><time>2026-04-22T15:54:45.001Z</time></trkpt><trkpt lat="42.734556270545674" lon="12.989797526552335"><ele>834.0</ele><time>2026-04-22T15:54:46.001Z</time></trkpt><trkpt lat="42.73446159361059" lon="12.989887995238593"><ele>834.0</ele><time>2026-04-22T15:54:47.001Z</time></trkpt><trkpt lat="42.73436442067344" lon="12.98997709682323"><ele>834.0</ele><time>2026-04-22T15:54:48.001Z</time></trkpt><trkpt lat="42.73426683738407" lon="12.990068528210031"><ele>834.0</ele><time>2026-04-22T15:54:49.001Z</time></trkpt><trkpt lat="42.73417110726572" lon="12.990160410301018"><ele>832.6</ele><time>2026-04-22T15:54:50.001Z</time></trkpt><trkpt lat="42.7340755255079" lon="12.990251418245256"><ele>831.2</ele><time>2026-04-22T15:54:51.001Z</time></trkpt><trkpt lat="42.73398666406784" lon="12.990333707992"><ele>829.8000000000001</ele><time>2026-04-22T15:54:52.001Z</time></trkpt><trkpt lat="42.73390021958494" lon="12.99040480061028"><ele>828.4000000000001</ele><time>2026-04-22T15:54:53.001Z</time></trkpt><trkpt lat="42.73380686796514" lon="12.990470812082394"><ele>827.0</ele><time>2026-04-22T15:54:54.001Z</time></trkpt><trkpt lat="42.73370721031816" lon="12.990509097762759"><ele>827.0</ele><time>2026-04-22T15:54:55.001Z</time></trkpt><trkpt lat="42.73359727016888" lon="12.990524779844083"><ele>827.0</ele><time>2026-04-22T15:54:56.001Z</time></trkpt><trkpt lat="42.73347375166084" lon="12.990528132353768"><ele>827.0</ele><time>2026-04-22T15:54:57.001Z</time></trkpt><trkpt lat="42.73334398735657" lon="12.990536734446986"><ele>827.0</ele><time>2026-04-22T15:54:58.001Z</time></trkpt><trkpt lat="42.73321248745022" lon="12.990567542473013"><ele>827.75</ele><time>2026-04-22T15:54:59.001Z</time></trkpt><trkpt lat="42.73308395285963" lon="12.990654353101545"><ele>828.5</ele><time>2026-04-22T15:55:00.001Z</time></trkpt><trkpt lat="42.73297792696777" lon="12.990788810718753"><ele>829.25</ele><time>2026-04-22T15:55:01.001Z</time></trkpt><trkpt lat="42.732879709301905" lon="12.990923710386827"><ele>830.0</ele><time>2026-04-22T15:55:02.001Z</time></trkpt><trkpt lat="42.732778535047046" lon="12.991070909933907"><ele>829.0</ele><time>2026-04-22T15:55:03.001Z</time></trkpt><trkpt lat="42.732679646885586" lon="12.991232550975107"><ele>828.0</ele><time>2026-04-22T15:55:04.001Z</time></trkpt><trkpt lat="42.732581773331724" lon="12.99140343803381"><ele>827.0</ele><time>2026-04-22T15:55:05.001Z</time></trkpt><trkpt lat="42.732480646096775" lon="12.991580005991487"><ele>822.3333333333334</ele><time>2026-04-22T15:55:06.001Z</time></trkpt><trkpt lat="42.73238519663213" lon="12.991762874206076"><ele>817.6666666666667</ele><time>2026-04-22T15:55:07.001Z</time></trkpt><trkpt lat="42.7322813888669" lon="12.991928191310363"><ele>813.0</ele><time>2026-04-22T15:55:08.001Z</time></trkpt><trkpt lat="42.732168917704406" lon="12.992077390779246"><ele>813.0</ele><time>2026-04-22T15:55:09.001Z</time></trkpt><trkpt lat="42.7320583571656" lon="12.99221807645121"><ele>813.0</ele><time>2026-04-22T15:55:10.001Z</time></trkpt><trkpt lat="42.73195416032543" lon="12.992361980151648"><ele>813.0</ele><time>2026-04-22T15:55:11.001Z</time></trkpt><trkpt lat="42.73187893303064" lon="12.99253006918549"><ele>813.0</ele><time>2026-04-22T15:55:12.001Z</time></trkpt><trkpt lat="42.731830503156466" lon="12.992715027637976"><ele>813.0</ele><time>2026-04-22T15:55:13.001Z</time></trkpt><trkpt lat="42.73179127552058" lon="12.992901842323041"><ele>813.0</ele><time>2026-04-22T15:55:14.001Z</time></trkpt><trkpt lat="42.73176202894739" lon="12.993091613859523"><ele>813.0</ele><time>2026-04-22T15:55:15.001Z</time></trkpt><trkpt lat="42.73171954011639" lon="12.993268296101222"><ele>813.0</ele><time>2026-04-22T15:55:16.001Z</time></trkpt><trkpt lat="42.731663078405376" lon="12.993413070831371"><ele>813.0</ele><time>2026-04-22T15:55:17.001Z</time></trkpt><trkpt lat="42.731589660926126" lon="12.993517125099565"><ele>813.0</ele><time>2026-04-22T15:55:18.001Z</time></trkpt><trkpt lat="42.73149209211831" lon="12.993597457723283"><ele>813.0</ele><time>2026-04-22T15:55:19.001Z</time></trkpt><trkpt lat="42.731370770306164" lon="12.993709408047245"><ele>813.0</ele><time>2026-04-22T15:55:20.001Z</time></trkpt><trkpt lat="42.73125222447466" lon="12.99385743659696"><ele>813.0</ele><time>2026-04-22T15:55:21.001Z</time></trkpt><trkpt lat="42.73116418491889" lon="12.99404406346886"><ele>813.0</ele><time>2026-04-22T15:55:22.001Z</time></trkpt><trkpt lat="42.73110362342663" lon="12.994212335483146"><ele>813.0</ele><time>2026-04-22T15:55:23.001Z</time></trkpt><trkpt lat="42.7310299542184" lon="12.994350176835592"><ele>813.0</ele><time>2026-04-22T15:55:24.001Z</time></trkpt><trkpt lat="42.73093535165318" lon="12.994451284310706"><ele>813.5</ele><time>2026-04-22T15:55:25.001Z</time></trkpt><trkpt lat="42.73080708894784" lon="12.994511654769141"><ele>814.0</ele><time>2026-04-22T15:55:26.001Z</time></trkpt><trkpt lat="42.730677139010176" lon="12.994608886177838"><ele>814.5</ele><time>2026-04-22T15:55:27.001Z</time></trkpt><trkpt lat="42.73054096518828" lon="12.994734571348694"><ele>815.0</ele><time>2026-04-22T15:55:28.001Z</time></trkpt><trkpt lat="42.73040623414881" lon="12.994883345911942"><ele>817.0</ele><time>2026-04-22T15:55:29.001Z</time></trkpt><trkpt lat="42.73028042889213" lon="12.995063684289047"><ele>819.0</ele><time>2026-04-22T15:55:30.001Z</time></trkpt><trkpt lat="42.73016163845195" lon="12.995260080143556"><ele>821.0</ele><time>2026-04-22T15:55:31.001Z</time></trkpt><trkpt lat="42.7300493137291" lon="12.995460299129675"><ele>821.0</ele><time>2026-04-22T15:55:32.001Z</time></trkpt><trkpt lat="42.729935916416586" lon="12.995663655729434"><ele>821.0</ele><time>2026-04-22T15:55:33.001Z</time></trkpt><trkpt lat="42.729828803991644" lon="12.995862026566346"><ele>821.0</ele><time>2026-04-22T15:55:34.001Z</time></trkpt><trkpt lat="42.72972419750377" lon="12.996059806205354"><ele>820.3333333333334</ele><time>2026-04-22T15:55:35.001Z</time></trkpt><trkpt lat="42.72962423867365" lon="12.996264165113194"><ele>819.6666666666667</ele><time>2026-04-22T15:55:36.001Z</time></trkpt><trkpt lat="42.72954488054402" lon="12.996470849095699"><ele>819.0</ele><time>2026-04-22T15:55:37.001Z</time></trkpt><trkpt lat="42.72948155044383" lon="12.99669016598858"><ele>818.3333333333333</ele><time>2026-04-22T15:55:38.001Z</time></trkpt><trkpt lat="42.72942747814388" lon="12.996907240720354"><ele>817.6666666666666</ele><time>2026-04-22T15:55:39.001Z</time></trkpt><trkpt lat="42.72937258351588" lon="12.99712862414743"><ele>817.0</ele><time>2026-04-22T15:55:40.001Z</time></trkpt><trkpt lat="42.729315662639635" lon="12.997345882553253"><ele>821.3333333333333</ele><time>2026-04-22T15:55:41.001Z</time></trkpt><trkpt lat="42.7292526824887" lon="12.997564673665858"><ele>825.6666666666667</ele><time>2026-04-22T15:55:42.001Z</time></trkpt><trkpt lat="42.729185992148174" lon="12.997774504979368"><ele>830.0</ele><time>2026-04-22T15:55:43.001Z</time></trkpt><trkpt lat="42.72910920319812" lon="12.99798410314223"><ele>830.0</ele><time>2026-04-22T15:55:44.001Z</time></trkpt><trkpt lat="42.72902694548015" lon="12.998184229951459"><ele>830.0</ele><time>2026-04-22T15:55:45.001Z</time></trkpt><trkpt lat="42.72893671523668" lon="12.998387147900193"><ele>830.0</ele><time>2026-04-22T15:55:46.001Z</time></trkpt><trkpt lat="42.72884013507185" lon="12.998590780162603"><ele>829.0</ele><time>2026-04-22T15:55:47.001Z</time></trkpt><trkpt lat="42.728736166860884" lon="12.998805299790106"><ele>828.0</ele><time>2026-04-22T15:55:48.001Z</time></trkpt><trkpt lat="42.72863362854185" lon="12.999019523355333"><ele>827.0</ele><time>2026-04-22T15:55:49.001Z</time></trkpt><trkpt lat="42.72853252148765" lon="12.999243072632906"><ele>830.6666666666667</ele><time>2026-04-22T15:55:50.001Z</time></trkpt><trkpt lat="42.72843174159746" lon="12.999466376244794"><ele>834.3333333333333</ele><time>2026-04-22T15:55:51.001Z</time></trkpt><trkpt lat="42.72833194992048" lon="12.99969447152395"><ele>838.0</ele><time>2026-04-22T15:55:52.001Z</time></trkpt><trkpt lat="42.7282307363988" lon="12.99992113118267"><ele>838.0</ele><time>2026-04-22T15:55:53.001Z</time></trkpt><trkpt lat="42.72812570094614" lon="13.000139959907495"><ele>838.0</ele><time>2026-04-22T15:55:54.001Z</time></trkpt><trkpt lat="42.72801930134741" lon="13.000360602015364"><ele>838.0</ele><time>2026-04-22T15:55:55.001Z</time></trkpt><trkpt lat="42.72790807086523" lon="13.00057463779395"><ele>838.0</ele><time>2026-04-22T15:55:56.001Z</time></trkpt><trkpt lat="42.727791482444374" lon="13.000786660903817"><ele>838.0</ele><time>2026-04-22T15:55:57.001Z</time></trkpt><trkpt lat="42.72767828551881" lon="13.000990261752861"><ele>838.0</ele><time>2026-04-22T15:55:58.001Z</time></trkpt><trkpt lat="42.727562691764504" lon="13.001198073746291"><ele>841.0</ele><time>2026-04-22T15:55:59.001Z</time></trkpt><trkpt lat="42.727444767663506" lon="13.001407379083684"><ele>844.0</ele><time>2026-04-22T15:56:00.001Z</time></trkpt><trkpt lat="42.72732851871938" lon="13.001612360380573"><ele>847.0</ele><time>2026-04-22T15:56:01.001Z</time></trkpt><trkpt lat="42.727210432307366" lon="13.00181595719118"><ele>849.3333333333333</ele><time>2026-04-22T15:56:02.001Z</time></trkpt><trkpt lat="42.72709794646766" lon="13.002029631475864"><ele>851.6666666666667</ele><time>2026-04-22T15:56:03.001Z</time></trkpt><trkpt lat="42.727002074109315" lon="13.002241964048956"><ele>854.0</ele><time>2026-04-22T15:56:04.001Z</time></trkpt><trkpt lat="42.72693239637264" lon="13.0024415109577"><ele>856.25</ele><time>2026-04-22T15:56:05.001Z</time></trkpt><trkpt lat="42.7269048526223" lon="13.002604062069139"><ele>858.5</ele><time>2026-04-22T15:56:06.001Z</time></trkpt><trkpt lat="42.72690194633708" lon="13.002748663668369"><ele>860.75</ele><time>2026-04-22T15:56:07.001Z</time></trkpt><trkpt lat="42.72692895778309" lon="13.002899753145948"><ele>863.0</ele><time>2026-04-22T15:56:08.001Z</time></trkpt><trkpt lat="42.72692216655422" lon="13.003070109958795"><ele>863.0</ele><time>2026-04-22T15:56:09.001Z</time></trkpt><trkpt lat="42.726930818239566" lon="13.003254028899393"><ele>863.0</ele><time>2026-04-22T15:56:10.001Z</time></trkpt><trkpt lat="42.72694020201735" lon="13.003453510798133"><ele>863.0</ele><time>2026-04-22T15:56:11.001Z</time></trkpt><trkpt lat="42.726948002566765" lon="13.003656603201165"><ele>863.0</ele><time>2026-04-22T15:56:12.001Z</time></trkpt><trkpt lat="42.72695538710835" lon="13.003861630062051"><ele>864.25</ele><time>2026-04-22T15:56:13.001Z</time></trkpt><trkpt lat="42.72696361343734" lon="13.00405751950324"><ele>865.5</ele><time>2026-04-22T15:56:14.001Z</time></trkpt><trkpt lat="42.72696534138782" lon="13.004249149139673"><ele>866.75</ele><time>2026-04-22T15:56:15.001Z</time></trkpt><trkpt lat="42.726936157200264" lon="13.00443586754623"><ele>868.0</ele><time>2026-04-22T15:56:16.001Z</time></trkpt><trkpt lat="42.72690013671309" lon="13.004647140380868"><ele>865.6666666666666</ele><time>2026-04-22T15:56:17.001Z</time></trkpt><trkpt lat="42.72686230581926" lon="13.004862733435537"><ele>863.3333333333333</ele><time>2026-04-22T15:56:18.001Z</time></trkpt><trkpt lat="42.72682088420562" lon="13.005079001513746"><ele>861.0</ele><time>2026-04-22T15:56:19.001Z</time></trkpt><trkpt lat="42.7267772622391" lon="13.005281753718226"><ele>859.6666666666667</ele><time>2026-04-22T15:56:20.001Z</time></trkpt><trkpt lat="42.72672727677915" lon="13.005495334426868"><ele>858.3333333333334</ele><time>2026-04-22T15:56:21.001Z</time></trkpt><trkpt lat="42.7266721994399" lon="13.005694934033102"><ele>857.0</ele><time>2026-04-22T15:56:22.001Z</time></trkpt><trkpt lat="42.72659894801462" lon="13.005893369309577"><ele>856.3333333333334</ele><time>2026-04-22T15:56:23.001Z</time></trkpt><trkpt lat="42.726511943748854" lon="13.006095067735316"><ele>855.6666666666667</ele><time>2026-04-22T15:56:24.001Z</time></trkpt><trkpt lat="42.72641924724068" lon="13.006296214682699"><ele>855.0</ele><time>2026-04-22T15:56:25.001Z</time></trkpt><trkpt lat="42.726331004000606" lon="13.006487698223292"><ele>855.3333333333333</ele><time>2026-04-22T15:56:26.001Z</time></trkpt><trkpt lat="42.726244658415354" lon="13.006673251829099"><ele>855.6666666666666</ele><time>2026-04-22T15:56:27.001Z</time></trkpt><trkpt lat="42.726156606991125" lon="13.006860014498736"><ele>856.0</ele><time>2026-04-22T15:56:28.001Z</time></trkpt><trkpt lat="42.72607416759516" lon="13.00704343732088"><ele>850.0</ele><time>2026-04-22T15:56:29.001Z</time></trkpt><trkpt lat="42.72599522171228" lon="13.007226609891998"><ele>844.0</ele><time>2026-04-22T15:56:30.001Z</time></trkpt><trkpt lat="42.72591655542641" lon="13.007411464062026"><ele>838.0</ele><time>2026-04-22T15:56:31.001Z</time></trkpt><trkpt lat="42.72583856981688" lon="13.007600920800037"><ele>838.0</ele><time>2026-04-22T15:56:32.001Z</time></trkpt><trkpt lat="42.72577831281936" lon="13.007813019006205"><ele>838.0</ele><time>2026-04-22T15:56:33.001Z</time></trkpt><trkpt lat="42.725721076410395" lon="13.00802077847942"><ele>838.0</ele><time>2026-04-22T15:56:34.001Z</time></trkpt><trkpt lat="42.72565608534276" lon="13.008230689908302"><ele>839.0</ele><time>2026-04-22T15:56:35.001Z</time></trkpt><trkpt lat="42.72559267677831" lon="13.008433296052738"><ele>840.0</ele><time>2026-04-22T15:56:36.001Z</time></trkpt><trkpt lat="42.7255297176394" lon="13.008627474568147"><ele>841.0</ele><time>2026-04-22T15:56:37.001Z</time></trkpt><trkpt lat="42.72546279018702" lon="13.008816835043653"><ele>841.0</ele><time>2026-04-22T15:56:38.001Z</time></trkpt><trkpt lat="42.72539655650639" lon="13.008999389785075"><ele>841.0</ele><time>2026-04-22T15:56:39.001Z</time></trkpt><trkpt lat="42.725331155378356" lon="13.00918054956786"><ele>841.0</ele><time>2026-04-22T15:56:40.001Z</time></trkpt><trkpt lat="42.7252710475707" lon="13.009363902802193"><ele>841.0</ele><time>2026-04-22T15:56:41.001Z</time></trkpt><trkpt lat="42.72523788266897" lon="13.009561645829665"><ele>832.6666666666666</ele><time>2026-04-22T15:56:42.001Z</time></trkpt><trkpt lat="42.72522262245291" lon="13.00976230766493"><ele>824.3333333333333</ele><time>2026-04-22T15:56:43.001Z</time></trkpt><trkpt lat="42.72521155453673" lon="13.009973782068828"><ele>816.0</ele><time>2026-04-22T15:56:44.001Z</time></trkpt><trkpt lat="42.72520183060704" lon="13.010189380325608"><ele>816.0</ele><time>2026-04-22T15:56:45.001Z</time></trkpt><trkpt lat="42.72518813437308" lon="13.010403313130526"><ele>816.0</ele><time>2026-04-22T15:56:46.001Z</time></trkpt><trkpt lat="42.725173201364335" lon="13.010611419019614"><ele>816.0</ele><time>2026-04-22T15:56:47.001Z</time></trkpt><trkpt lat="42.72516299717992" lon="13.01081484540883"><ele>815.0</ele><time>2026-04-22T15:56:48.001Z</time></trkpt><trkpt lat="42.72516861914468" lon="13.011015389629101"><ele>814.0</ele><time>2026-04-22T15:56:49.001Z</time></trkpt><trkpt lat="42.72518106227617" lon="13.011208024329003"><ele>813.0</ele><time>2026-04-22T15:56:50.001Z</time></trkpt><trkpt lat="42.72519226707046" lon="13.011397114725842"><ele>812.0</ele><time>2026-04-22T15:56:51.001Z</time></trkpt><trkpt lat="42.72520018486824" lon="13.011585606842662"><ele>810.75</ele><time>2026-04-22T15:56:52.001Z</time></trkpt><trkpt lat="42.725203088136695" lon="13.011769811266912"><ele>809.5</ele><time>2026-04-22T15:56:53.001Z</time></trkpt><trkpt lat="42.72520149507646" lon="13.011950941179714"><ele>808.25</ele><time>2026-04-22T15:56:54.001Z</time></trkpt><trkpt lat="42.72519976976592" lon="13.012133735342323"><ele>807.0</ele><time>2026-04-22T15:56:55.001Z</time></trkpt><trkpt lat="42.725202136758526" lon="13.012333617093741"><ele>806.0</ele><time>2026-04-22T15:56:56.001Z</time></trkpt><trkpt lat="42.7252151264523" lon="13.012546537759665"><ele>805.0</ele><time>2026-04-22T15:56:57.001Z</time></trkpt><trkpt lat="42.72524334229161" lon="13.012773546698073"><ele>804.0</ele><time>2026-04-22T15:56:58.001Z</time></trkpt><trkpt lat="42.725267743866695" lon="13.01300379464742"><ele>804.3333333333333</ele><time>2026-04-22T15:56:59.001Z</time></trkpt><trkpt lat="42.72528153010833" lon="13.013253237848197"><ele>804.6666666666666</ele><time>2026-04-22T15:57:00.001Z</time></trkpt><trkpt lat="42.725278762781244" lon="13.013496866265827"><ele>805.0</ele><time>2026-04-22T15:57:01.001Z</time></trkpt><trkpt lat="42.72526214462571" lon="13.013745386020513"><ele>805.0</ele><time>2026-04-22T15:57:02.001Z</time></trkpt><trkpt lat="42.72524242738784" lon="13.013993997932161"><ele>805.0</ele><time>2026-04-22T15:57:03.001Z</time></trkpt><trkpt lat="42.725226192974084" lon="13.014243239066086"><ele>805.0</ele><time>2026-04-22T15:57:04.001Z</time></trkpt><trkpt lat="42.72521856258596" lon="13.014521207127393"><ele>800.0</ele><time>2026-04-22T15:57:05.001Z</time></trkpt><trkpt lat="42.72521337979754" lon="13.014784529772317"><ele>795.0</ele><time>2026-04-22T15:57:06.001Z</time></trkpt><trkpt lat="42.72519210128991" lon="13.015050489237398"><ele>790.0</ele><time>2026-04-22T15:57:07.001Z</time></trkpt><trkpt lat="42.72516208342746" lon="13.015321637522845"><ele>789.6666666666666</ele><time>2026-04-22T15:57:08.001Z</time></trkpt><trkpt lat="42.72512668746331" lon="13.01559174453388"><ele>789.3333333333333</ele><time>2026-04-22T15:57:09.001Z</time></trkpt><trkpt lat="42.72509105211349" lon="13.015855720195121"><ele>789.0</ele><time>2026-04-22T15:57:10.001Z</time></trkpt><trkpt lat="42.72505569946951" lon="13.016110542749637"><ele>787.6666666666667</ele><time>2026-04-22T15:57:11.001Z</time></trkpt><trkpt lat="42.72502100383981" lon="13.016355357917154"><ele>786.3333333333334</ele><time>2026-04-22T15:57:12.001Z</time></trkpt><trkpt lat="42.72498401116248" lon="13.016592721129989"><ele>785.0</ele><time>2026-04-22T15:57:13.001Z</time></trkpt><trkpt lat="42.724947250365105" lon="13.016803601276864"><ele>784.25</ele><time>2026-04-22T15:57:14.001Z</time></trkpt><trkpt lat="42.72491370630532" lon="13.017002159244328"><ele>783.5</ele><time>2026-04-22T15:57:15.001Z</time></trkpt><trkpt lat="42.72489530647378" lon="13.017192107082549"><ele>782.75</ele><time>2026-04-22T15:57:16.001Z</time></trkpt><trkpt lat="42.72494972979932" lon="13.017375620480367"><ele>782.0</ele><time>2026-04-22T15:57:17.001Z</time></trkpt><trkpt lat="42.725010493290384" lon="13.017529021116944"><ele>780.25</ele><time>2026-04-22T15:57:18.001Z</time></trkpt><trkpt lat="42.72509835951602" lon="13.017655092429424"><ele>778.5</ele><time>2026-04-22T15:57:19.001Z</time></trkpt><trkpt lat="42.7252049399017" lon="13.017769611184473"><ele>776.75</ele><time>2026-04-22T15:57:20.001Z</time></trkpt><trkpt lat="42.72532511891927" lon="13.017862885301339"><ele>775.0</ele><time>2026-04-22T15:57:21.001Z</time></trkpt><trkpt lat="42.725438636130846" lon="13.017917671274445"><ele>774.5</ele><time>2026-04-22T15:57:22.001Z</time></trkpt><trkpt lat="42.7255591077563" lon="13.017923044791575"><ele>774.0</ele><time>2026-04-22T15:57:23.001Z</time></trkpt><trkpt lat="42.72568864300303" lon="13.017881503732104"><ele>773.5</ele><time>2026-04-22T15:57:24.001Z</time></trkpt><trkpt lat="42.7258123740206" lon="13.017792944003391"><ele>773.0</ele><time>2026-04-22T15:57:25.001Z</time></trkpt><trkpt lat="42.72594088403486" lon="13.017679205320585"><ele>770.6666666666667</ele><time>2026-04-22T15:57:26.001Z</time></trkpt><trkpt lat="42.726081055944995" lon="13.017561948244886"><ele>768.3333333333334</ele><time>2026-04-22T15:57:27.001Z</time></trkpt><trkpt lat="42.72621636017417" lon="13.01744866235047"><ele>766.0</ele><time>2026-04-22T15:57:28.001Z</time></trkpt><trkpt lat="42.726342775256256" lon="13.017345965575332"><ele>766.0</ele><time>2026-04-22T15:57:29.001Z</time></trkpt><trkpt lat="42.726449498655576" lon="13.017261560369608"><ele>766.0</ele><time>2026-04-22T15:57:30.001Z</time></trkpt><trkpt lat="42.726545700482426" lon="13.017207065720795"><ele>766.0</ele><time>2026-04-22T15:57:31.001Z</time></trkpt><trkpt lat="42.726629631904814" lon="13.017201595372443"><ele>766.0</ele><time>2026-04-22T15:57:32.001Z</time></trkpt><trkpt lat="42.72669321941921" lon="13.01724062131356"><ele>766.0</ele><time>2026-04-22T15:57:33.001Z</time></trkpt><trkpt lat="42.72673869349287" lon="13.017320711306343"><ele>766.0</ele><time>2026-04-22T15:57:34.001Z</time></trkpt><trkpt lat="42.72672503932605" lon="13.017425911009585"><ele>766.0</ele><time>2026-04-22T15:57:35.001Z</time></trkpt><trkpt lat="42.72670764889187" lon="13.017535120333037"><ele>766.0</ele><time>2026-04-22T15:57:36.001Z</time></trkpt><trkpt lat="42.72666467197432" lon="13.017656540608447"><ele>766.0</ele><time>2026-04-22T15:57:37.001Z</time></trkpt><trkpt lat="42.726595622599234" lon="13.0177687862859"><ele>766.0</ele><time>2026-04-22T15:57:38.001Z</time></trkpt><trkpt lat="42.72650083451378" lon="13.017887298352905"><ele>764.3333333333334</ele><time>2026-04-22T15:57:39.001Z</time></trkpt><trkpt lat="42.726385594403595" lon="13.018019523100929"><ele>762.6666666666666</ele><time>2026-04-22T15:57:40.001Z</time></trkpt><trkpt lat="42.7262626014432" lon="13.018155555885206"><ele>761.0</ele><time>2026-04-22T15:57:41.001Z</time></trkpt><trkpt lat="42.72613361010515" lon="13.018305228729867"><ele>760.6666666666666</ele><time>2026-04-22T15:57:42.001Z</time></trkpt><trkpt lat="42.726012078497845" lon="13.018447359827592"><ele>760.3333333333334</ele><time>2026-04-22T15:57:43.001Z</time></trkpt><trkpt lat="42.72589404180453" lon="13.01858735313782"><ele>760.0</ele><time>2026-04-22T15:57:44.001Z</time></trkpt><trkpt lat="42.725791092202094" lon="13.018717243356223"><ele>760.0</ele><time>2026-04-22T15:57:45.001Z</time></trkpt><trkpt lat="42.72569349833422" lon="13.018837760548168"><ele>760.0</ele><time>2026-04-22T15:57:46.001Z</time></trkpt><trkpt lat="42.72560630020168" lon="13.018930785668921"><ele>760.0</ele><time>2026-04-22T15:57:47.001Z</time></trkpt><trkpt lat="42.72552509134465" lon="13.018988153507316"><ele>760.0</ele><time>2026-04-22T15:57:48.001Z</time></trkpt><trkpt lat="42.72544885900313" lon="13.018991288507312"><ele>760.0</ele><time>2026-04-22T15:57:49.001Z</time></trkpt><trkpt lat="42.725372798247584" lon="13.01896741598837"><ele>760.0</ele><time>2026-04-22T15:57:50.001Z</time></trkpt><trkpt lat="42.725281864445094" lon="13.018868102685396"><ele>760.0</ele><time>2026-04-22T15:57:51.001Z</time></trkpt><trkpt lat="42.72517328648761" lon="13.01874249912581"><ele>760.0</ele><time>2026-04-22T15:57:52.001Z</time></trkpt><trkpt lat="42.72506932031378" lon="13.01859841963046"><ele>760.0</ele><time>2026-04-22T15:57:53.001Z</time></trkpt><trkpt lat="42.72498537126553" lon="13.018479008464674"><ele>758.25</ele><time>2026-04-22T15:57:54.001Z</time></trkpt><trkpt lat="42.724903761015376" lon="13.01836738837689"><ele>756.5</ele><time>2026-04-22T15:57:55.001Z</time></trkpt><trkpt lat="42.72479276786249" lon="13.018303100568602"><ele>754.75</ele><time>2026-04-22T15:57:56.001Z</time></trkpt><trkpt lat="42.72466881650801" lon="13.018297955611862"><ele>753.0</ele><time>2026-04-22T15:57:57.001Z</time></trkpt><trkpt lat="42.724563304688324" lon="13.018274603665644"><ele>750.25</ele><time>2026-04-22T15:57:58.001Z</time></trkpt><trkpt lat="42.72446985564797" lon="13.018211319942672"><ele>747.5</ele><time>2026-04-22T15:57:59.001Z</time></trkpt><trkpt lat="42.72438915892298" lon="13.018085748285637"><ele>744.75</ele><time>2026-04-22T15:58:00.001Z</time></trkpt><trkpt lat="42.72430184211697" lon="13.017932646066688"><ele>742.0</ele><time>2026-04-22T15:58:01.001Z</time></trkpt><trkpt lat="42.72421067300343" lon="13.017767361742164"><ele>742.0</ele><time>2026-04-22T15:58:02.001Z</time></trkpt><trkpt lat="42.724104436144955" lon="13.017592597401975"><ele>742.0</ele><time>2026-04-22T15:58:03.001Z</time></trkpt><trkpt lat="42.723992251908264" lon="13.017406578425575"><ele>742.0</ele><time>2026-04-22T15:58:04.001Z</time></trkpt><trkpt lat="42.72388209400362" lon="13.017228952965853"><ele>747.0</ele><time>2026-04-22T15:58:05.001Z</time></trkpt><trkpt lat="42.72377163366697" lon="13.017078780006392"><ele>752.0</ele><time>2026-04-22T15:58:06.001Z</time></trkpt><trkpt lat="42.7236591547375" lon="13.016960925595104"><ele>757.0</ele><time>2026-04-22T15:58:07.001Z</time></trkpt><trkpt lat="42.72354709504589" lon="13.016849448889689"><ele>762.0</ele><time>2026-04-22T15:58:08.001Z</time></trkpt><trkpt lat="42.723434468027996" lon="13.016803713333838"><ele>753.0</ele><time>2026-04-22T15:58:09.001Z</time></trkpt><trkpt lat="42.723357503555505" lon="13.016728834954296"><ele>744.0</ele><time>2026-04-22T15:58:10.001Z</time></trkpt><trkpt lat="42.72332251249772" lon="13.016634642999612"><ele>735.0</ele><time>2026-04-22T15:58:11.001Z</time></trkpt><trkpt lat="42.72332619439389" lon="13.016512710295652"><ele>726.0</ele><time>2026-04-22T15:58:12.001Z</time></trkpt><trkpt lat="42.723349701103324" lon="13.016348685289934"><ele>717.0</ele><time>2026-04-22T15:58:13.001Z</time></trkpt><trkpt lat="42.72337312699686" lon="13.016155440513042"><ele>716.5</ele><time>2026-04-22T15:58:14.001Z</time></trkpt><trkpt lat="42.7233814587542" lon="13.01596144875573"><ele>716.0</ele><time>2026-04-22T15:58:15.001Z</time></trkpt><trkpt lat="42.723370171403616" lon="13.015768030594986"><ele>715.5</ele><time>2026-04-22T15:58:16.001Z</time></trkpt><trkpt lat="42.723334350524055" lon="13.015566379377423"><ele>715.0</ele><time>2026-04-22T15:58:17.001Z</time></trkpt><trkpt lat="42.72331116998479" lon="13.01535188912057"><ele>713.3333333333334</ele><time>2026-04-22T15:58:18.001Z</time></trkpt><trkpt lat="42.723318379286226" lon="13.015126511855991"><ele>711.6666666666666</ele><time>2026-04-22T15:58:19.001Z</time></trkpt><trkpt lat="42.72334289202838" lon="13.014897446515677"><ele>710.0</ele><time>2026-04-22T15:58:20.001Z</time></trkpt><trkpt lat="42.72337101453365" lon="13.014682353672162"><ele>708.75</ele><time>2026-04-22T15:58:21.001Z</time></trkpt><trkpt lat="42.723398123226616" lon="13.01450080743493"><ele>707.5</ele><time>2026-04-22T15:58:22.001Z</time></trkpt><trkpt lat="42.723422196370706" lon="13.014344417833293"><ele>706.25</ele><time>2026-04-22T15:58:23.001Z</time></trkpt><trkpt lat="42.72343060015382" lon="13.014207317744658"><ele>705.0</ele><time>2026-04-22T15:58:24.001Z</time></trkpt><trkpt lat="42.72340227678612" lon="13.01407625866302"><ele>708.0</ele><time>2026-04-22T15:58:25.001Z</time></trkpt><trkpt lat="42.723322321910864" lon="13.01395988454476"><ele>711.0</ele><time>2026-04-22T15:58:26.001Z</time></trkpt><trkpt lat="42.72322981856473" lon="13.013831281973944"><ele>714.0</ele><time>2026-04-22T15:58:27.001Z</time></trkpt><trkpt lat="42.723153483428476" lon="13.013689465079992"><ele>717.0</ele><time>2026-04-22T15:58:28.001Z</time></trkpt><trkpt lat="42.72310195346461" lon="13.013519037576536"><ele>717.0</ele><time>2026-04-22T15:58:29.001Z</time></trkpt><trkpt lat="42.723064339454325" lon="13.013325855318067"><ele>717.0</ele><time>2026-04-22T15:58:30.001Z</time></trkpt><trkpt lat="42.723019814606964" lon="13.013124386990954"><ele>717.0</ele><time>2026-04-22T15:58:31.001Z</time></trkpt><trkpt lat="42.722963674113956" lon="13.012927277297571"><ele>719.0</ele><time>2026-04-22T15:58:32.001Z</time></trkpt><trkpt lat="42.7229044613012" lon="13.012741652639061"><ele>721.0</ele><time>2026-04-22T15:58:33.001Z</time></trkpt><trkpt lat="42.722838679910296" lon="13.012570563512288"><ele>723.0</ele><time>2026-04-22T15:58:34.001Z</time></trkpt><trkpt lat="42.72277887269573" lon="13.012409632661907"><ele>725.0</ele><time>2026-04-22T15:58:35.001Z</time></trkpt><trkpt lat="42.722743386817285" lon="13.012248483672147"><ele>726.25</ele><time>2026-04-22T15:58:36.001Z</time></trkpt><trkpt lat="42.722736778686524" lon="13.012081784156676"><ele>727.5</ele><time>2026-04-22T15:58:37.001Z</time></trkpt><trkpt lat="42.72272124160805" lon="13.011934401030947"><ele>728.75</ele><time>2026-04-22T15:58:38.001Z</time></trkpt><trkpt lat="42.722662545279704" lon="13.011808485489581"><ele>730.0</ele><time>2026-04-22T15:58:39.001Z</time></trkpt><trkpt lat="42.72257015421429" lon="13.011691671647142"><ele>721.5</ele><time>2026-04-22T15:58:40.001Z</time></trkpt><trkpt lat="42.722461800842304" lon="13.011571906682905"><ele>713.0</ele><time>2026-04-22T15:58:41.001Z</time></trkpt><trkpt lat="42.72234793538555" lon="13.011467917787268"><ele>704.5</ele><time>2026-04-22T15:58:42.001Z</time></trkpt><trkpt lat="42.722236435253414" lon="13.01138365744715"><ele>696.0</ele><time>2026-04-22T15:58:43.001Z</time></trkpt><trkpt lat="42.722140924449405" lon="13.011287985800124"><ele>696.0</ele><time>2026-04-22T15:58:44.001Z</time></trkpt><trkpt lat="42.72207587126455" lon="13.01116603543075"><ele>696.0</ele><time>2026-04-22T15:58:45.001Z</time></trkpt><trkpt lat="42.722048342403774" lon="13.011019468801306"><ele>696.0</ele><time>2026-04-22T15:58:46.001Z</time></trkpt><trkpt lat="42.72205142721453" lon="13.010844366534258"><ele>696.0</ele><time>2026-04-22T15:58:47.001Z</time></trkpt><trkpt lat="42.72206430888957" lon="13.010644256651865"><ele>697.3333333333334</ele><time>2026-04-22T15:58:48.001Z</time></trkpt><trkpt lat="42.72207399629192" lon="13.010436624867848"><ele>698.6666666666667</ele><time>2026-04-22T15:58:49.001Z</time></trkpt><trkpt lat="42.72210238538039" lon="13.01021991645503"><ele>700.0</ele><time>2026-04-22T15:58:50.001Z</time></trkpt><trkpt lat="42.72214229102739" lon="13.010023579637544"><ele>702.75</ele><time>2026-04-22T15:58:51.001Z</time></trkpt><trkpt lat="42.72217494960926" lon="13.009853059786069"><ele>705.5</ele><time>2026-04-22T15:58:52.001Z</time></trkpt><trkpt lat="42.722177461275884" lon="13.009689054497457"><ele>708.25</ele><time>2026-04-22T15:58:53.001Z</time></trkpt><trkpt lat="42.7221579049686" lon="13.009541046082665"><ele>711.0</ele><time>2026-04-22T15:58:54.001Z</time></trkpt><trkpt lat="42.72210954136097" lon="13.00940944351347"><ele>711.0</ele><time>2026-04-22T15:58:55.001Z</time></trkpt><trkpt lat="42.72203585527517" lon="13.009287428372188"><ele>711.0</ele><time>2026-04-22T15:58:56.001Z</time></trkpt><trkpt lat="42.721946774799285" lon="13.00915930409684"><ele>711.0</ele><time>2026-04-22T15:58:57.001Z</time></trkpt><trkpt lat="42.72186770139674" lon="13.009009737572272"><ele>711.0</ele><time>2026-04-22T15:58:58.001Z</time></trkpt><trkpt lat="42.72179175145532" lon="13.008843904296773"><ele>700.6666666666666</ele><time>2026-04-22T15:58:59.001Z</time></trkpt><trkpt lat="42.721696642362836" lon="13.008682055664426"><ele>690.3333333333333</ele><time>2026-04-22T15:59:00.001Z</time></trkpt><trkpt lat="42.72157774499312" lon="13.008530381827498"><ele>680.0</ele><time>2026-04-22T15:59:01.001Z</time></trkpt><trkpt lat="42.7214480063877" lon="13.008378207458755"><ele>681.0</ele><time>2026-04-22T15:59:02.001Z</time></trkpt><trkpt lat="42.72129665794338" lon="13.008268537946838"><ele>682.0</ele><time>2026-04-22T15:59:03.001Z</time></trkpt><trkpt lat="42.7211532072454" lon="13.008177255625808"><ele>683.0</ele><time>2026-04-22T15:59:04.001Z</time></trkpt><trkpt lat="42.72101781247619" lon="13.008091915680126"><ele>676.5999999999999</ele><time>2026-04-22T15:59:05.001Z</time></trkpt><trkpt lat="42.720885812657485" lon="13.008037614680738"><ele>670.1999999999999</ele><time>2026-04-22T15:59:06.001Z</time></trkpt><trkpt lat="42.720781314676266" lon="13.0079714492095"><ele>663.8</ele><time>2026-04-22T15:59:07.001Z</time></trkpt><trkpt lat="42.720714364586335" lon="13.007894350982935"><ele>657.4</ele><time>2026-04-22T15:59:08.001Z</time></trkpt><trkpt lat="42.72069022568664" lon="13.007805747806739"><ele>651.0</ele><time>2026-04-22T15:59:09.001Z</time></trkpt><trkpt lat="42.72070542098022" lon="13.007704650006948"><ele>651.0</ele><time>2026-04-22T15:59:10.001Z</time></trkpt><trkpt lat="42.72075493995133" lon="13.007589659945014"><ele>651.0</ele><time>2026-04-22T15:59:11.001Z</time></trkpt><trkpt lat="42.72082722253282" lon="13.007453063115216"><ele>651.0</ele><time>2026-04-22T15:59:12.001Z</time></trkpt><trkpt lat="42.7209013499856" lon="13.007297235024724"><ele>651.0</ele><time>2026-04-22T15:59:13.001Z</time></trkpt><trkpt lat="42.72097433457571" lon="13.007159738040174"><ele>649.0</ele><time>2026-04-22T15:59:14Z</time></trkpt><trkpt lat="42.721064763342504" lon="13.007059758405617"><ele>647.0</ele><time>2026-04-22T15:59:15Z</time></trkpt><trkpt lat="42.721150944258035" lon="13.006992919787216"><ele>645.0</ele><time>2026-04-22T15:59:16Z</time></trkpt><trkpt lat="42.72120551611252" lon="13.006909218712014"><ele>643.0</ele><time>2026-04-22T15:59:17Z</time></trkpt><trkpt lat="42.721215636902976" lon="13.006787020699617"><ele>641.0</ele><time>2026-04-22T15:59:18Z</time></trkpt><trkpt lat="42.721193125555885" lon="13.006651450408468"><ele>642.5</ele><time>2026-04-22T15:59:19Z</time></trkpt><trkpt lat="42.72113998313632" lon="13.00651083216671"><ele>644.0</ele><time>2026-04-22T15:59:20Z</time></trkpt><trkpt lat="42.7210734246944" lon="13.006350915665447"><ele>645.5</ele><time>2026-04-22T15:59:21Z</time></trkpt><trkpt lat="42.721001229361924" lon="13.006180704742759"><ele>647.0</ele><time>2026-04-22T15:59:22Z</time></trkpt><trkpt lat="42.720924701742035" lon="13.006008488500605"><ele>647.0</ele><time>2026-04-22T15:59:23Z</time></trkpt><trkpt lat="42.720850223254985" lon="13.005856167625376"><ele>647.0</ele><time>2026-04-22T15:59:24Z</time></trkpt><trkpt lat="42.720769846260275" lon="13.005722664251497"><ele>647.0</ele><time>2026-04-22T15:59:25Z</time></trkpt><trkpt lat="42.7206681834804" lon="13.00560778878668"><ele>647.0</ele><time>2026-04-22T15:59:26Z</time></trkpt><trkpt lat="42.72055433146458" lon="13.005507205757212"><ele>652.0</ele><time>2026-04-22T15:59:27Z</time></trkpt><trkpt lat="42.72041468218217" lon="13.005441927839035"><ele>657.0</ele><time>2026-04-22T15:59:28Z</time></trkpt><trkpt lat="42.720294202919135" lon="13.005394326465634"><ele>662.0</ele><time>2026-04-22T15:59:29Z</time></trkpt><trkpt lat="42.720194562752226" lon="13.005363164220569"><ele>667.0</ele><time>2026-04-22T15:59:30Z</time></trkpt><trkpt lat="42.72013104536651" lon="13.005271098832797"><ele>669.1666666666667</ele><time>2026-04-22T15:59:31Z</time></trkpt><trkpt lat="42.72011348680408" lon="13.00516372240935"><ele>671.3333333333334</ele><time>2026-04-22T15:59:32Z</time></trkpt><trkpt lat="42.72013949591334" lon="13.005070970478751"><ele>673.5</ele><time>2026-04-22T15:59:33Z</time></trkpt><trkpt lat="42.72019521491781" lon="13.004993352308889"><ele>675.6666666666666</ele><time>2026-04-22T15:59:34Z</time></trkpt><trkpt lat="42.72027869347446" lon="13.004921421611494"><ele>677.8333333333333</ele><time>2026-04-22T15:59:35Z</time></trkpt><trkpt lat="42.720354107933645" lon="13.004812614624205"><ele>680.0</ele><time>2026-04-22T15:59:36Z</time></trkpt><trkpt lat="42.720388119698136" lon="13.004672696568827"><ele>680.0</ele><time>2026-04-22T15:59:37Z</time></trkpt><trkpt lat="42.72038273570661" lon="13.004521699074099"><ele>680.0</ele><time>2026-04-22T15:59:38Z</time></trkpt><trkpt lat="42.72036078060202" lon="13.004342045303332"><ele>680.0</ele><time>2026-04-22T15:59:39Z</time></trkpt><trkpt lat="42.72032962692993" lon="13.004188029270056"><ele>680.0</ele><time>2026-04-22T15:59:40Z</time></trkpt><trkpt lat="42.720277891322645" lon="13.004056667943136"><ele>669.25</ele><time>2026-04-22T15:59:41Z</time></trkpt><trkpt lat="42.720197817708545" lon="13.003942596920703"><ele>658.5</ele><time>2026-04-22T15:59:42Z</time></trkpt><trkpt lat="42.72011814299942" lon="13.00383848831938"><ele>647.75</ele><time>2026-04-22T15:59:43Z</time></trkpt><trkpt lat="42.71998494403029" lon="13.003659758179221"><ele>637.0</ele><time>2026-04-22T15:59:45Z</time></trkpt><trkpt lat="42.71990928001287" lon="13.003583986091222"><ele>637.0</ele><time>2026-04-22T15:59:47Z</time></trkpt><trkpt lat="42.719748838857875" lon="13.003754884817186"><ele>637.0</ele><time>2026-04-22T15:59:51Z</time></trkpt><trkpt lat="42.71971967616809" lon="13.00385533587802"><ele>637.0</ele><time>2026-04-22T15:59:52Z</time></trkpt><trkpt lat="42.719685596738984" lon="13.003967279505062"><ele>637.0</ele><time>2026-04-22T15:59:53Z</time></trkpt><trkpt lat="42.71965078220986" lon="13.004079052473687"><ele>635.5</ele><time>2026-04-22T15:59:54Z</time></trkpt><trkpt lat="42.71961418498559" lon="13.004196904199626"><ele>634.0</ele><time>2026-04-22T15:59:55Z</time></trkpt><trkpt lat="42.7195732614506" lon="13.004338192134455"><ele>632.5</ele><time>2026-04-22T15:59:56Z</time></trkpt><trkpt lat="42.71953469459474" lon="13.004503849031323"><ele>631.0</ele><time>2026-04-22T15:59:57Z</time></trkpt><trkpt lat="42.71950003066692" lon="13.004680464470658"><ele>631.0</ele><time>2026-04-22T15:59:58Z</time></trkpt><trkpt lat="42.71947028214542" lon="13.004876160827209"><ele>631.0</ele><time>2026-04-22T15:59:59Z</time></trkpt><trkpt lat="42.71944714260663" lon="13.005087101928792"><ele>631.0</ele><time>2026-04-22T16:00:00Z</time></trkpt><trkpt lat="42.71943727570342" lon="13.005317503921486"><ele>629.6666666666667</ele><time>2026-04-22T16:00:01Z</time></trkpt><trkpt lat="42.7194420073116" lon="13.005540632431543"><ele>628.3333333333334</ele><time>2026-04-22T16:00:02Z</time></trkpt><trkpt lat="42.71945867294224" lon="13.005774533444649"><ele>627.0</ele><time>2026-04-22T16:00:03Z</time></trkpt><trkpt lat="42.71948775216885" lon="13.006006320790666"><ele>626.3333333333334</ele><time>2026-04-22T16:00:04Z</time></trkpt><trkpt lat="42.71954830223753" lon="13.006243343653626"><ele>625.6666666666667</ele><time>2026-04-22T16:00:05Z</time></trkpt><trkpt lat="42.71959705746799" lon="13.00648019749018"><ele>625.0</ele><time>2026-04-22T16:00:06Z</time></trkpt><trkpt lat="42.71964966999875" lon="13.006706215754248"><ele>624.6666666666667</ele><time>2026-04-22T16:00:07Z</time></trkpt><trkpt lat="42.71970135302062" lon="13.006930301433771"><ele>624.3333333333334</ele><time>2026-04-22T16:00:08Z</time></trkpt><trkpt lat="42.71977678174114" lon="13.007270315191832"><ele>624.0</ele><time>2026-04-22T16:00:09Z</time></trkpt><trkpt lat="42.71983502628849" lon="13.00753604520617"><ele>624.0</ele><time>2026-04-22T16:00:10Z</time></trkpt><trkpt lat="42.71987219273902" lon="13.007819636476055"><ele>624.0</ele><time>2026-04-22T16:00:11Z</time></trkpt><trkpt lat="42.71993837728358" lon="13.008103503118125"><ele>624.0</ele><time>2026-04-22T16:00:12Z</time></trkpt><trkpt lat="42.72002867745713" lon="13.008374550159095"><ele>623.3333333333334</ele><time>2026-04-22T16:00:13Z</time></trkpt><trkpt lat="42.72009394245247" lon="13.008616158689225"><ele>622.6666666666667</ele><time>2026-04-22T16:00:14Z</time></trkpt><trkpt lat="42.720207209706366" lon="13.008918979675366"><ele>622.0</ele><time>2026-04-22T16:00:15Z</time></trkpt><trkpt lat="42.72031775719226" lon="13.009198707583442"><ele>621.0</ele><time>2026-04-22T16:00:16Z</time></trkpt><trkpt lat="42.72042936703841" lon="13.009473193797893"><ele>620.0</ele><time>2026-04-22T16:00:17Z</time></trkpt><trkpt lat="42.720543960485756" lon="13.00972541776097"><ele>619.0</ele><time>2026-04-22T16:00:18Z</time></trkpt><trkpt lat="42.720654353525035" lon="13.009976240910683"><ele>617.3333333333334</ele><time>2026-04-22T16:00:19Z</time></trkpt><trkpt lat="42.720763420722044" lon="13.010223210926801"><ele>615.6666666666666</ele><time>2026-04-22T16:00:20Z</time></trkpt><trkpt lat="42.72087236836498" lon="13.010471767493982"><ele>614.0</ele><time>2026-04-22T16:00:21Z</time></trkpt><trkpt lat="42.72098260479761" lon="13.01072035231182"><ele>624.0</ele><time>2026-04-22T16:00:22Z</time></trkpt><trkpt lat="42.7210870401068" lon="13.010977516723695"><ele>634.0</ele><time>2026-04-22T16:00:23Z</time></trkpt><trkpt lat="42.72116307303123" lon="13.011253342969912"><ele>644.0</ele><time>2026-04-22T16:00:24Z</time></trkpt><trkpt lat="42.72126016574167" lon="13.01152339865597"><ele>642.6666666666666</ele><time>2026-04-22T16:00:25Z</time></trkpt><trkpt lat="42.721332041081396" lon="13.011804057211878"><ele>641.3333333333334</ele><time>2026-04-22T16:00:26Z</time></trkpt><trkpt lat="42.7213826180051" lon="13.012097930170896"><ele>640.0</ele><time>2026-04-22T16:00:27Z</time></trkpt><trkpt lat="42.72143305732512" lon="13.012381636045092"><ele>637.3333333333334</ele><time>2026-04-22T16:00:28Z</time></trkpt><trkpt lat="42.7214762087573" lon="13.012681536837233"><ele>634.6666666666666</ele><time>2026-04-22T16:00:29Z</time></trkpt><trkpt lat="42.72150680396468" lon="13.012978725492"><ele>632.0</ele><time>2026-04-22T16:00:30Z</time></trkpt><trkpt lat="42.72152915782443" lon="13.013288594646443"><ele>628.3333333333333</ele><time>2026-04-22T16:00:31Z</time></trkpt><trkpt lat="42.72153863532487" lon="13.013590255694622"><ele>624.6666666666666</ele><time>2026-04-22T16:00:32Z</time></trkpt><trkpt lat="42.72153504950868" lon="13.013899060866077"><ele>621.0</ele><time>2026-04-22T16:00:33Z</time></trkpt><trkpt lat="42.72152120645352" lon="13.014207875698997"><ele>617.5</ele><time>2026-04-22T16:00:34Z</time></trkpt><trkpt lat="42.72149372277229" lon="13.014523096274766"><ele>614.0</ele><time>2026-04-22T16:00:35Z</time></trkpt><trkpt lat="42.721464101796975" lon="13.014838218753104"><ele>612.0</ele><time>2026-04-22T16:00:36Z</time></trkpt><trkpt lat="42.721434117118086" lon="13.015156652951624"><ele>610.0</ele><time>2026-04-22T16:00:37Z</time></trkpt><trkpt lat="42.721402910802794" lon="13.015483146897738"><ele>610.0</ele><time>2026-04-22T16:00:38Z</time></trkpt><trkpt lat="42.721371107709906" lon="13.01581588457669"><ele>610.0</ele><time>2026-04-22T16:00:39Z</time></trkpt><trkpt lat="42.72133905888732" lon="13.016151193217508"><ele>611.5</ele><time>2026-04-22T16:00:40Z</time></trkpt><trkpt lat="42.721306478332956" lon="13.016497240508933"><ele>613.0</ele><time>2026-04-22T16:00:41Z</time></trkpt><trkpt lat="42.72127448254636" lon="13.016832681769873"><ele>617.5</ele><time>2026-04-22T16:00:42Z</time></trkpt><trkpt lat="42.72124417519531" lon="13.017164421865761"><ele>622.0</ele><time>2026-04-22T16:00:43Z</time></trkpt><trkpt lat="42.72122015056855" lon="13.017466953470118"><ele>623.6666666666667</ele><time>2026-04-22T16:00:44Z</time></trkpt><trkpt lat="42.72122221396" lon="13.017754388964203"><ele>625.3333333333334</ele><time>2026-04-22T16:00:45Z</time></trkpt><trkpt lat="42.72121538406333" lon="13.018019047552583"><ele>627.0</ele><time>2026-04-22T16:00:46Z</time></trkpt><trkpt lat="42.72121037638467" lon="13.018261781861533"><ele>619.0</ele><time>2026-04-22T16:00:47Z</time></trkpt><trkpt lat="42.721230261482475" lon="13.018484793584264"><ele>611.0</ele><time>2026-04-22T16:00:48Z</time></trkpt><trkpt lat="42.72126502409972" lon="13.018875087669562"><ele>611.0</ele><time>2026-04-22T16:00:50Z</time></trkpt><trkpt lat="42.72128517711177" lon="13.018999180323203"><ele>611.0</ele><time>2026-04-22T16:00:51Z</time></trkpt><trkpt lat="42.72130764265336" lon="13.01909331727006"><ele>611.0</ele><time>2026-04-22T16:00:52Z</time></trkpt><trkpt lat="42.72128792138313" lon="13.01917644754102"><ele>611.0</ele><time>2026-04-22T16:00:54Z</time></trkpt><trkpt lat="42.72138912861952" lon="13.019063321438768"><ele>611.0</ele><time>2026-04-22T16:00:56Z</time></trkpt><trkpt lat="42.72141222750722" lon="13.018917089505125"><ele>611.0</ele><time>2026-04-22T16:00:58Z</time></trkpt><trkpt lat="42.72158793264993" lon="13.018840475559863"><ele>611.0</ele><time>2026-04-22T16:01:00Z</time></trkpt><trkpt lat="42.72164523252431" lon="13.018740565115362"><ele>611.0</ele><time>2026-04-22T16:01:02Z</time></trkpt><trkpt lat="42.72161690854042" lon="13.018657178120515"><ele>611.0</ele><time>2026-04-22T16:01:04Z</time></trkpt><trkpt lat="42.72171410167008" lon="13.018649921908617"><ele>611.0</ele><time>2026-04-22T16:03:01Z</time></trkpt><trkpt lat="42.72164825520031" lon="13.018658735157926"><ele>611.0</ele><time>2026-04-22T16:04:23Z</time></trkpt><trkpt lat="42.72160643304818" lon="13.018574945667188"><ele>611.0</ele><time>2026-04-22T16:04:26Z</time></trkpt><trkpt lat="42.721521332367814" lon="13.01853565715952"><ele>611.0</ele><time>2026-04-22T16:04:28Z</time></trkpt><trkpt lat="42.721446435289415" lon="13.01854066982294"><ele>611.0</ele><time>2026-04-22T16:04:30Z</time></trkpt><trkpt lat="42.721376499640776" lon="13.01839129408573"><ele>611.0</ele><time>2026-04-22T16:04:34Z</time></trkpt><trkpt lat="42.72132531920094" lon="13.018311986715544"><ele>611.0</ele><time>2026-04-22T16:04:36Z</time></trkpt><trkpt lat="42.721254621631445" lon="13.018350319832022"><ele>611.0</ele><time>2026-04-22T16:04:39Z</time></trkpt><trkpt lat="42.72123280187232" lon="13.018467325989084"><ele>611.0</ele><time>2026-04-22T16:04:40Z</time></trkpt><trkpt lat="42.72122559340937" lon="13.018602350175456"><ele>611.0</ele><time>2026-04-22T16:04:41Z</time></trkpt><trkpt lat="42.721236069079396" lon="13.018737133932818"><ele>611.0</ele><time>2026-04-22T16:04:42Z</time></trkpt><trkpt lat="42.721251399730555" lon="13.018889712332147"><ele>611.0</ele><time>2026-04-22T16:04:43Z</time></trkpt><trkpt lat="42.72127007309125" lon="13.019051760377781"><ele>609.25</ele><time>2026-04-22T16:04:44Z</time></trkpt><trkpt lat="42.72129627771128" lon="13.019232481113026"><ele>607.5</ele><time>2026-04-22T16:04:45Z</time></trkpt><trkpt lat="42.72132701808524" lon="13.01942280474023"><ele>605.75</ele><time>2026-04-22T16:04:46Z</time></trkpt><trkpt lat="42.72136510355877" lon="13.019620912136523"><ele>604.0</ele><time>2026-04-22T16:04:47Z</time></trkpt><trkpt lat="42.721409087116506" lon="13.01981797334455"><ele>603.25</ele><time>2026-04-22T16:04:48Z</time></trkpt><trkpt lat="42.72145501239208" lon="13.020007832281722"><ele>602.5</ele><time>2026-04-22T16:04:49Z</time></trkpt><trkpt lat="42.721502069106755" lon="13.020178248162086"><ele>601.75</ele><time>2026-04-22T16:04:50Z</time></trkpt><trkpt lat="42.7215456565411" lon="13.020330438711252"><ele>601.0</ele><time>2026-04-22T16:04:51Z</time></trkpt><trkpt lat="42.721583475195445" lon="13.020467188767048"><ele>601.0</ele><time>2026-04-22T16:04:52Z</time></trkpt><trkpt lat="42.72161843809826" lon="13.02059468577056"><ele>601.0</ele><time>2026-04-22T16:04:53Z</time></trkpt><trkpt lat="42.72164658267918" lon="13.020703022019084"><ele>601.0</ele><time>2026-04-22T16:04:54Z</time></trkpt><trkpt lat="42.72168019720442" lon="13.020792132364118"><ele>601.0</ele><time>2026-04-22T16:04:55Z</time></trkpt><trkpt lat="42.721643435349115" lon="13.020944536204974"><ele>601.0</ele><time>2026-04-22T16:04:57Z</time></trkpt><trkpt lat="42.7215296306436" lon="13.021001731649328"><ele>601.2</ele><time>2026-04-22T16:04:59Z</time></trkpt><trkpt lat="42.72146684830378" lon="13.020956950664978"><ele>601.4000000000001</ele><time>2026-04-22T16:05:00Z</time></trkpt><trkpt lat="42.72138596655244" lon="13.020913938040989"><ele>601.6</ele><time>2026-04-22T16:05:01Z</time></trkpt><trkpt lat="42.721296008283616" lon="13.020876658151915"><ele>601.8000000000001</ele><time>2026-04-22T16:05:02Z</time></trkpt><trkpt lat="42.72119174001102" lon="13.020850480633314"><ele>602.0</ele><time>2026-04-22T16:05:03Z</time></trkpt><trkpt lat="42.721078828381984" lon="13.020834505055657"><ele>602.0</ele><time>2026-04-22T16:05:04Z</time></trkpt><trkpt lat="42.720963513862216" lon="13.020819857180443"><ele>602.0</ele><time>2026-04-22T16:05:05Z</time></trkpt><trkpt lat="42.72084735691212" lon="13.020807915116945"><ele>602.0</ele><time>2026-04-22T16:05:06Z</time></trkpt><trkpt lat="42.720720921051225" lon="13.020836613604649"><ele>602.0</ele><time>2026-04-22T16:05:07.001Z</time></trkpt><trkpt lat="42.72059486869533" lon="13.020827709866099"><ele>602.8000000000001</ele><time>2026-04-22T16:05:08.001Z</time></trkpt><trkpt lat="42.7204787523907" lon="13.020824366811784"><ele>603.6</ele><time>2026-04-22T16:05:09.001Z</time></trkpt><trkpt lat="42.72036956427187" lon="13.020822214972663"><ele>604.4000000000001</ele><time>2026-04-22T16:05:10.001Z</time></trkpt><trkpt lat="42.72026995265614" lon="13.020820465935147"><ele>605.2</ele><time>2026-04-22T16:05:11.001Z</time></trkpt><trkpt lat="42.72018429505365" lon="13.020819044568178"><ele>606.0</ele><time>2026-04-22T16:05:12.001Z</time></trkpt><trkpt lat="42.72009748132684" lon="13.020819469859063"><ele>605.8</ele><time>2026-04-22T16:05:13.001Z</time></trkpt><trkpt lat="42.72000543955483" lon="13.020812944459307"><ele>605.6</ele><time>2026-04-22T16:05:14.001Z</time></trkpt><trkpt lat="42.71990379044079" lon="13.020790679074794"><ele>605.4</ele><time>2026-04-22T16:05:15.001Z</time></trkpt><trkpt lat="42.71979482212925" lon="13.02075118524268"><ele>605.2</ele><time>2026-04-22T16:05:16.001Z</time></trkpt><trkpt lat="42.71968597537462" lon="13.020684498950569"><ele>605.0</ele><time>2026-04-22T16:05:17.001Z</time></trkpt><trkpt lat="42.719588886643706" lon="13.020588408445583"><ele>605.0</ele><time>2026-04-22T16:05:18Z</time></trkpt><trkpt lat="42.71951510190247" lon="13.02045914556041"><ele>605.0</ele><time>2026-04-22T16:05:19Z</time></trkpt><trkpt lat="42.719465334876546" lon="13.020301686371809"><ele>605.0</ele><time>2026-04-22T16:05:20Z</time></trkpt><trkpt lat="42.71943373869275" lon="13.020125857129974"><ele>605.0</ele><time>2026-04-22T16:05:21Z</time></trkpt><trkpt lat="42.71941811211637" lon="13.019937370628544"><ele>605.0</ele><time>2026-04-22T16:05:22Z</time></trkpt><trkpt lat="42.71941156487807" lon="13.019740167585576"><ele>605.0</ele><time>2026-04-22T16:05:23Z</time></trkpt><trkpt lat="42.719405253987176" lon="13.019538038857192"><ele>605.0</ele><time>2026-04-22T16:05:24Z</time></trkpt><trkpt lat="42.719391880728885" lon="13.019354422458367"><ele>605.0</ele><time>2026-04-22T16:05:25Z</time></trkpt><trkpt lat="42.719366628085155" lon="13.019169355159832"><ele>606.75</ele><time>2026-04-22T16:05:26Z</time></trkpt><trkpt lat="42.71932199999378" lon="13.018992505552603"><ele>608.5</ele><time>2026-04-22T16:05:27Z</time></trkpt><trkpt lat="42.719250284120506" lon="13.018828167920336"><ele>610.25</ele><time>2026-04-22T16:05:28Z</time></trkpt><trkpt lat="42.719150105807984" lon="13.018680557481758"><ele>612.0</ele><time>2026-04-22T16:05:29Z</time></trkpt><trkpt lat="42.719027534157505" lon="13.01854395107548"><ele>612.0</ele><time>2026-04-22T16:05:30Z</time></trkpt><trkpt lat="42.71889414588002" lon="13.01840920107117"><ele>612.0</ele><time>2026-04-22T16:05:31Z</time></trkpt><trkpt lat="42.71875333433719" lon="13.018268767566507"><ele>612.0</ele><time>2026-04-22T16:05:32Z</time></trkpt><trkpt lat="42.71860889277224" lon="13.018133986270975"><ele>613.0</ele><time>2026-04-22T16:05:33Z</time></trkpt><trkpt lat="42.718458714155695" lon="13.017997870175105"><ele>614.0</ele><time>2026-04-22T16:05:34Z</time></trkpt><trkpt lat="42.718312021841975" lon="13.01785966698951"><ele>615.0</ele><time>2026-04-22T16:05:35Z</time></trkpt><trkpt lat="42.71814857404468" lon="13.017751158436388"><ele>615.0</ele><time>2026-04-22T16:05:36Z</time></trkpt><trkpt lat="42.717986843107035" lon="13.017659900394753"><ele>615.0</ele><time>2026-04-22T16:05:37Z</time></trkpt><trkpt lat="42.71781799073361" lon="13.017584894962113"><ele>615.0</ele><time>2026-04-22T16:05:38Z</time></trkpt><trkpt lat="42.71765656631479" lon="13.017495900810683"><ele>616.0</ele><time>2026-04-22T16:05:39Z</time></trkpt><trkpt lat="42.71749490780737" lon="13.017402888071793"><ele>617.0</ele><time>2026-04-22T16:05:40Z</time></trkpt><trkpt lat="42.717331394170685" lon="13.017309834983262"><ele>618.0</ele><time>2026-04-22T16:05:41Z</time></trkpt><trkpt lat="42.717167168139504" lon="13.017219660653984"><ele>618.0</ele><time>2026-04-22T16:05:42Z</time></trkpt><trkpt lat="42.71700641661625" lon="13.017113983950901"><ele>618.0</ele><time>2026-04-22T16:05:43Z</time></trkpt><trkpt lat="42.716857791358215" lon="13.016981223102018"><ele>618.0</ele><time>2026-04-22T16:05:44Z</time></trkpt><trkpt lat="42.71673485002191" lon="13.016815691384526"><ele>622.0</ele><time>2026-04-22T16:05:45Z</time></trkpt><trkpt lat="42.71662875276942" lon="13.016625087313884"><ele>626.0</ele><time>2026-04-22T16:05:46Z</time></trkpt><trkpt lat="42.716531392870905" lon="13.016425878986544"><ele>630.0</ele><time>2026-04-22T16:05:47Z</time></trkpt><trkpt lat="42.71643971222116" lon="13.016215484504778"><ele>630.0</ele><time>2026-04-22T16:05:48Z</time></trkpt><trkpt lat="42.71635473263564" lon="13.016004945276347"><ele>630.0</ele><time>2026-04-22T16:05:49Z</time></trkpt><trkpt lat="42.71628462218084" lon="13.015787222063835"><ele>630.0</ele><time>2026-04-22T16:05:50Z</time></trkpt><trkpt lat="42.71622853122482" lon="13.015586831004015"><ele>631.0</ele><time>2026-04-22T16:05:51Z</time></trkpt><trkpt lat="42.716180148540765" lon="13.015404139462278"><ele>632.0</ele><time>2026-04-22T16:05:52Z</time></trkpt><trkpt lat="42.71614080499401" lon="13.015245245812137"><ele>633.0</ele><time>2026-04-22T16:05:53Z</time></trkpt><trkpt lat="42.71611879038903" lon="13.015092440966795"><ele>634.0</ele><time>2026-04-22T16:05:54Z</time></trkpt><trkpt lat="42.71611795750074" lon="13.014945723460427"><ele>635.5</ele><time>2026-04-22T16:05:55Z</time></trkpt><trkpt lat="42.71614349117681" lon="13.014800531290172"><ele>637.0</ele><time>2026-04-22T16:05:56Z</time></trkpt><trkpt lat="42.71619955135195" lon="13.014662397272211"><ele>638.5</ele><time>2026-04-22T16:05:57Z</time></trkpt><trkpt lat="42.7162805433541" lon="13.014535366664314"><ele>640.0</ele><time>2026-04-22T16:05:58Z</time></trkpt><trkpt lat="42.71638107584527" lon="13.01441773453299"><ele>640.0</ele><time>2026-04-22T16:05:59Z</time></trkpt><trkpt lat="42.71649123539142" lon="13.014300353182522"><ele>640.0</ele><time>2026-04-22T16:06:00Z</time></trkpt><trkpt lat="42.71659783748871" lon="13.014178019739042"><ele>640.0</ele><time>2026-04-22T16:06:01Z</time></trkpt><trkpt lat="42.716698527930355" lon="13.014065949377542"><ele>640.0</ele><time>2026-04-22T16:06:02Z</time></trkpt><trkpt lat="42.71678960218521" lon="13.01397473164848"><ele>640.8333333333334</ele><time>2026-04-22T16:06:03Z</time></trkpt><trkpt lat="42.716874448928046" lon="13.013901120517522"><ele>641.6666666666667</ele><time>2026-04-22T16:06:04Z</time></trkpt><trkpt lat="42.71693895833748" lon="13.013834293020128"><ele>642.5</ele><time>2026-04-22T16:06:05Z</time></trkpt><trkpt lat="42.71696032790838" lon="13.013748592074698"><ele>643.3333333333334</ele><time>2026-04-22T16:06:06Z</time></trkpt><trkpt lat="42.716950838075064" lon="13.013648442240223"><ele>644.1666666666666</ele><time>2026-04-22T16:06:07Z</time></trkpt><trkpt lat="42.716908841465795" lon="13.013549333312401"><ele>645.0</ele><time>2026-04-22T16:06:08Z</time></trkpt><trkpt lat="42.71687265820501" lon="13.013440295467687"><ele>648.75</ele><time>2026-04-22T16:06:09Z</time></trkpt><trkpt lat="42.71686401295592" lon="13.013299198216087"><ele>652.5</ele><time>2026-04-22T16:06:10Z</time></trkpt><trkpt lat="42.71686088809428" lon="13.013125069049124"><ele>656.25</ele><time>2026-04-22T16:06:11Z</time></trkpt><trkpt lat="42.71684142931649" lon="13.012956965711764"><ele>660.0</ele><time>2026-04-22T16:06:12Z</time></trkpt><trkpt lat="42.71679892048835" lon="13.012824111682896"><ele>660.0</ele><time>2026-04-22T16:06:13Z</time></trkpt><trkpt lat="42.716746160981295" lon="13.012723529173938"><ele>660.0</ele><time>2026-04-22T16:06:14Z</time></trkpt><trkpt lat="42.71669145432522" lon="13.012650404635782"><ele>660.0</ele><time>2026-04-22T16:06:15Z</time></trkpt><trkpt lat="42.71663649335626" lon="13.012600635662176"><ele>660.0</ele><time>2026-04-22T16:06:16Z</time></trkpt><trkpt lat="42.716539791264154" lon="13.012502160448525"><ele>660.0</ele><time>2026-04-22T16:06:18Z</time></trkpt><trkpt lat="42.71647000684029" lon="13.012471984375866"><ele>660.0</ele><time>2026-04-22T16:06:19Z</time></trkpt><trkpt lat="42.71639974907879" lon="13.012452214199161"><ele>660.0</ele><time>2026-04-22T16:06:20Z</time></trkpt><trkpt lat="42.716328897901285" lon="13.012444324550694"><ele>660.0</ele><time>2026-04-22T16:06:21Z</time></trkpt><trkpt lat="42.716224442350594" lon="13.012446709038286"><ele>660.0</ele><time>2026-04-22T16:06:22Z</time></trkpt><trkpt lat="42.716103960243004" lon="13.012493892015517"><ele>660.0</ele><time>2026-04-22T16:06:23Z</time></trkpt><trkpt lat="42.715990955526706" lon="13.01249822557902"><ele>660.0</ele><time>2026-04-22T16:06:24Z</time></trkpt><trkpt lat="42.715869792617305" lon="13.012504421321749"><ele>659.75</ele><time>2026-04-22T16:06:25Z</time></trkpt><trkpt lat="42.71574122307996" lon="13.01250667304333"><ele>659.5</ele><time>2026-04-22T16:06:26Z</time></trkpt><trkpt lat="42.71562092577621" lon="13.01247208069787"><ele>659.25</ele><time>2026-04-22T16:06:27Z</time></trkpt><trkpt lat="42.71552728030316" lon="13.012400735747562"><ele>659.0</ele><time>2026-04-22T16:06:28Z</time></trkpt><trkpt lat="42.71545827770822" lon="13.012301450833101"><ele>659.0</ele><time>2026-04-22T16:06:29Z</time></trkpt><trkpt lat="42.7154143567849" lon="13.012184960859894"><ele>659.0</ele><time>2026-04-22T16:06:30Z</time></trkpt><trkpt lat="42.71539917787403" lon="13.01205152913472"><ele>659.0</ele><time>2026-04-22T16:06:31Z</time></trkpt><trkpt lat="42.715408909665726" lon="13.011906297068476"><ele>659.0</ele><time>2026-04-22T16:06:32Z</time></trkpt><trkpt lat="42.71543871051869" lon="13.011755882500957"><ele>659.0</ele><time>2026-04-22T16:06:33Z</time></trkpt><trkpt lat="42.71547991471399" lon="13.011603554594547"><ele>662.25</ele><time>2026-04-22T16:06:34Z</time></trkpt><trkpt lat="42.7155270359044" lon="13.01145314897814"><ele>665.5</ele><time>2026-04-22T16:06:35Z</time></trkpt><trkpt lat="42.71557053021204" lon="13.011305474858686"><ele>668.75</ele><time>2026-04-22T16:06:36Z</time></trkpt><trkpt lat="42.71560816100684" lon="13.011164767616394"><ele>672.0</ele><time>2026-04-22T16:06:37Z</time></trkpt><trkpt lat="42.7156456767797" lon="13.011029821106433"><ele>672.0</ele><time>2026-04-22T16:06:38Z</time></trkpt><trkpt lat="42.7156824673013" lon="13.010894289352922"><ele>672.0</ele><time>2026-04-22T16:06:39Z</time></trkpt><trkpt lat="42.715720283783696" lon="13.010759465555383"><ele>672.0</ele><time>2026-04-22T16:06:40Z</time></trkpt><trkpt lat="42.71575782944572" lon="13.01062836704523"><ele>672.0</ele><time>2026-04-22T16:06:41Z</time></trkpt><trkpt lat="42.71579709470199" lon="13.010497433439594"><ele>672.0</ele><time>2026-04-22T16:06:42Z</time></trkpt><trkpt lat="42.71583680213937" lon="13.010368744861175"><ele>674.6</ele><time>2026-04-22T16:06:43Z</time></trkpt><trkpt lat="42.715879434762215" lon="13.010248992624263"><ele>677.2</ele><time>2026-04-22T16:06:44Z</time></trkpt><trkpt lat="42.715932370069744" lon="13.01015128822541"><ele>679.8</ele><time>2026-04-22T16:06:45Z</time></trkpt><trkpt lat="42.716001919336435" lon="13.010073257906082"><ele>682.4</ele><time>2026-04-22T16:06:46Z</time></trkpt><trkpt lat="42.71608723443152" lon="13.010034533189286"><ele>685.0</ele><time>2026-04-22T16:06:47Z</time></trkpt><trkpt lat="42.71617482472124" lon="13.01004880277434"><ele>687.6</ele><time>2026-04-22T16:06:48Z</time></trkpt><trkpt lat="42.71625910664768" lon="13.010103101436586"><ele>690.2</ele><time>2026-04-22T16:06:49Z</time></trkpt><trkpt lat="42.71633419636449" lon="13.010191242467208"><ele>692.8</ele><time>2026-04-22T16:06:50Z</time></trkpt><trkpt lat="42.71636468344356" lon="13.010323140453243"><ele>695.4</ele><time>2026-04-22T16:06:51Z</time></trkpt><trkpt lat="42.71639019111134" lon="13.010475479519377"><ele>698.0</ele><time>2026-04-22T16:06:52Z</time></trkpt><trkpt lat="42.71642630181994" lon="13.010661209100789"><ele>695.6666666666666</ele><time>2026-04-22T16:06:53Z</time></trkpt><trkpt lat="42.71648454186575" lon="13.010873511702954"><ele>693.3333333333334</ele><time>2026-04-22T16:06:54Z</time></trkpt><trkpt lat="42.71655142738332" lon="13.01109926882591"><ele>691.0</ele><time>2026-04-22T16:06:55Z</time></trkpt><trkpt lat="42.71661502750724" lon="13.011313316531105"><ele>691.0</ele><time>2026-04-22T16:06:56Z</time></trkpt><trkpt lat="42.716675416193105" lon="13.0115126261862"><ele>691.0</ele><time>2026-04-22T16:06:57Z</time></trkpt><trkpt lat="42.716746234221134" lon="13.011686410902668"><ele>691.0</ele><time>2026-04-22T16:06:58Z</time></trkpt><trkpt lat="42.71677610284554" lon="13.011842694324725"><ele>691.0</ele><time>2026-04-22T16:06:59Z</time></trkpt><trkpt lat="42.71683264069406" lon="13.011941165824517"><ele>689.1999999999999</ele><time>2026-04-22T16:07:00Z</time></trkpt><trkpt lat="42.71688005611741" lon="13.012006062963934"><ele>687.4</ele><time>2026-04-22T16:07:01Z</time></trkpt><trkpt lat="42.71698281737434" lon="13.011988103110893"><ele>685.6</ele><time>2026-04-22T16:07:03Z</time></trkpt><trkpt lat="42.71700988082717" lon="13.011842613930085"><ele>683.8</ele><time>2026-04-22T16:07:05Z</time></trkpt><trkpt lat="42.71697163220345" lon="13.011748234419864"><ele>682.0</ele><time>2026-04-22T16:07:06Z</time></trkpt><trkpt lat="42.716908585829586" lon="13.011651310631638"><ele>684.25</ele><time>2026-04-22T16:07:07Z</time></trkpt><trkpt lat="42.71683894564078" lon="13.011524849454958"><ele>686.5</ele><time>2026-04-22T16:07:08Z</time></trkpt><trkpt lat="42.716780986229644" lon="13.011366365949565"><ele>688.75</ele><time>2026-04-22T16:07:09Z</time></trkpt><trkpt lat="42.71674761232067" lon="13.011204730197782"><ele>691.0</ele><time>2026-04-22T16:07:10Z</time></trkpt><trkpt lat="42.716714122305724" lon="13.011024965385744"><ele>691.0</ele><time>2026-04-22T16:07:11Z</time></trkpt><trkpt lat="42.71667357251349" lon="13.010839706475197"><ele>691.0</ele><time>2026-04-22T16:07:12Z</time></trkpt><trkpt lat="42.71664013819102" lon="13.010664630985664"><ele>691.0</ele><time>2026-04-22T16:07:13Z</time></trkpt><trkpt lat="42.71662330695917" lon="13.010510109181906"><ele>691.0</ele><time>2026-04-22T16:07:14Z</time></trkpt><trkpt lat="42.716625570413385" lon="13.010352194476633"><ele>692.75</ele><time>2026-04-22T16:07:15Z</time></trkpt><trkpt lat="42.71665971916435" lon="13.010188542086077"><ele>694.5</ele><time>2026-04-22T16:07:16Z</time></trkpt><trkpt lat="42.716700536336766" lon="13.010021401017665"><ele>696.25</ele><time>2026-04-22T16:07:17Z</time></trkpt><trkpt lat="42.716722865052425" lon="13.00982896195099"><ele>698.0</ele><time>2026-04-22T16:07:18Z</time></trkpt><trkpt lat="42.71672787726415" lon="13.0096102100885"><ele>698.6666666666666</ele><time>2026-04-22T16:07:19Z</time></trkpt><trkpt lat="42.71672888372286" lon="13.009385694325605"><ele>699.3333333333334</ele><time>2026-04-22T16:07:20Z</time></trkpt><trkpt lat="42.716725451540455" lon="13.009146149253015"><ele>700.0</ele><time>2026-04-22T16:07:21Z</time></trkpt><trkpt lat="42.716723272874916" lon="13.008903756563926"><ele>704.0</ele><time>2026-04-22T16:07:22Z</time></trkpt><trkpt lat="42.71671494481662" lon="13.008679305994903"><ele>708.0</ele><time>2026-04-22T16:07:23Z</time></trkpt><trkpt lat="42.71669257930353" lon="13.008471978975845"><ele>712.0</ele><time>2026-04-22T16:07:24Z</time></trkpt><trkpt lat="42.71665090695095" lon="13.008274404124137"><ele>718.5</ele><time>2026-04-22T16:07:25Z</time></trkpt><trkpt lat="42.716581949071234" lon="13.008103535812257"><ele>725.0</ele><time>2026-04-22T16:07:26Z</time></trkpt><trkpt lat="42.716485619877034" lon="13.007966385203433"><ele>731.5</ele><time>2026-04-22T16:07:27Z</time></trkpt><trkpt lat="42.71635999378691" lon="13.00785368844499"><ele>738.0</ele><time>2026-04-22T16:07:28Z</time></trkpt><trkpt lat="42.71622766947391" lon="13.00772563344088"><ele>738.0</ele><time>2026-04-22T16:07:29Z</time></trkpt><trkpt lat="42.716113547435036" lon="13.007565235199593"><ele>738.0</ele><time>2026-04-22T16:07:30Z</time></trkpt><trkpt lat="42.716014650173214" lon="13.007416249822597"><ele>738.0</ele><time>2026-04-22T16:07:31Z</time></trkpt><trkpt lat="42.71593828568358" lon="13.007281635733165"><ele>738.0</ele><time>2026-04-22T16:07:32Z</time></trkpt><trkpt lat="42.71588839922984" lon="13.00713795469624"><ele>737.75</ele><time>2026-04-22T16:07:33Z</time></trkpt><trkpt lat="42.71586534867618" lon="13.006973974599546"><ele>737.5</ele><time>2026-04-22T16:07:34Z</time></trkpt><trkpt lat="42.71586746327109" lon="13.006789872728444"><ele>737.25</ele><time>2026-04-22T16:07:35Z</time></trkpt><trkpt lat="42.715871677842244" lon="13.006592798036417"><ele>737.0</ele><time>2026-04-22T16:07:36Z</time></trkpt><trkpt lat="42.71584014377454" lon="13.00638826577347"><ele>737.0</ele><time>2026-04-22T16:07:37Z</time></trkpt><trkpt lat="42.71577024135346" lon="13.006196603254248"><ele>737.0</ele><time>2026-04-22T16:07:38Z</time></trkpt><trkpt lat="42.715670669633155" lon="13.005999788874604"><ele>737.0</ele><time>2026-04-22T16:07:39Z</time></trkpt><trkpt lat="42.71555173312313" lon="13.005808074104655"><ele>747.6666666666666</ele><time>2026-04-22T16:07:40Z</time></trkpt><trkpt lat="42.71543461371034" lon="13.005611352928334"><ele>758.3333333333333</ele><time>2026-04-22T16:07:41Z</time></trkpt><trkpt lat="42.71534161503516" lon="13.005410745631108"><ele>769.0</ele><time>2026-04-22T16:07:42Z</time></trkpt><trkpt lat="42.715266077091" lon="13.005230374570102"><ele>767.3333333333333</ele><time>2026-04-22T16:07:43Z</time></trkpt><trkpt lat="42.715152692477545" lon="13.005077198780647"><ele>765.6666666666666</ele><time>2026-04-22T16:07:44Z</time></trkpt><trkpt lat="42.715010364105666" lon="13.004950051070043"><ele>764.0</ele><time>2026-04-22T16:07:45Z</time></trkpt><trkpt lat="42.7148749257673" lon="13.004841281611252"><ele>764.0</ele><time>2026-04-22T16:07:46Z</time></trkpt><trkpt lat="42.714754799833614" lon="13.004745568387579"><ele>764.0</ele><time>2026-04-22T16:07:47Z</time></trkpt><trkpt lat="42.714646031826376" lon="13.004664717528176"><ele>764.0</ele><time>2026-04-22T16:07:48Z</time></trkpt><trkpt lat="42.71455993204877" lon="13.004610324368098"><ele>764.0</ele><time>2026-04-22T16:07:49Z</time></trkpt><trkpt lat="42.714466504153535" lon="13.004578892520945"><ele>757.4000000000001</ele><time>2026-04-22T16:07:51Z</time></trkpt><trkpt lat="42.71434338135345" lon="13.00457054557185"><ele>750.8</ele><time>2026-04-22T16:08:07Z</time></trkpt><trkpt lat="42.71427365043173" lon="13.004616693984259"><ele>744.2</ele><time>2026-04-22T16:08:08Z</time></trkpt><trkpt lat="42.7142140339188" lon="13.004702386299948"><ele>737.5999999999999</ele><time>2026-04-22T16:08:09Z</time></trkpt><trkpt lat="42.714172903581996" lon="13.004807298293104"><ele>731.0</ele><time>2026-04-22T16:08:10Z</time></trkpt><trkpt lat="42.71415449366766" lon="13.004932251577342"><ele>730.25</ele><time>2026-04-22T16:08:11Z</time></trkpt><trkpt lat="42.71419062646535" lon="13.005077259621224"><ele>729.5</ele><time>2026-04-22T16:08:12Z</time></trkpt><trkpt lat="42.71424965078959" lon="13.005199353780998"><ele>728.75</ele><time>2026-04-22T16:08:13Z</time></trkpt><trkpt lat="42.71433621315286" lon="13.005303300497568"><ele>728.0</ele><time>2026-04-22T16:08:14Z</time></trkpt><trkpt lat="42.71442236878535" lon="13.005408275635682"><ele>728.0</ele><time>2026-04-22T16:08:15Z</time></trkpt><trkpt lat="42.71451577030572" lon="13.005503220513036"><ele>728.0</ele><time>2026-04-22T16:08:16Z</time></trkpt><trkpt lat="42.7146069495057" lon="13.0056114025679"><ele>728.0</ele><time>2026-04-22T16:08:17Z</time></trkpt><trkpt lat="42.714670298385094" lon="13.005752818024918"><ele>728.0</ele><time>2026-04-22T16:08:18Z</time></trkpt><trkpt lat="42.714752552725614" lon="13.005892271993906"><ele>726.0</ele><time>2026-04-22T16:08:19Z</time></trkpt><trkpt lat="42.71481902240202" lon="13.006052117128004"><ele>724.0</ele><time>2026-04-22T16:08:20Z</time></trkpt><trkpt lat="42.714881930907936" lon="13.006220133225277"><ele>722.0</ele><time>2026-04-22T16:08:21Z</time></trkpt><trkpt lat="42.71493463325918" lon="13.006397792282453"><ele>720.0</ele><time>2026-04-22T16:08:22Z</time></trkpt><trkpt lat="42.71494594494377" lon="13.006572911502548"><ele>722.0</ele><time>2026-04-22T16:08:23Z</time></trkpt><trkpt lat="42.71493911449868" lon="13.006750642840373"><ele>724.0</ele><time>2026-04-22T16:08:24Z</time></trkpt><trkpt lat="42.714922915719676" lon="13.006939857806113"><ele>726.0</ele><time>2026-04-22T16:08:25Z</time></trkpt><trkpt lat="42.714913235160324" lon="13.007139802318385"><ele>728.0</ele><time>2026-04-22T16:08:26Z</time></trkpt><trkpt lat="42.71490472541142" lon="13.007317649481902"><ele>728.0</ele><time>2026-04-22T16:08:27Z</time></trkpt><trkpt lat="42.714891971636334" lon="13.007468144236299"><ele>728.0</ele><time>2026-04-22T16:08:28Z</time></trkpt><trkpt lat="42.714850247829325" lon="13.007600756040757"><ele>728.0</ele><time>2026-04-22T16:08:29Z</time></trkpt><trkpt lat="42.71478631288261" lon="13.007685081346263"><ele>728.0</ele><time>2026-04-22T16:08:30Z</time></trkpt><trkpt lat="42.71469445293073" lon="13.007745786565009"><ele>728.0</ele><time>2026-04-22T16:08:31Z</time></trkpt><trkpt lat="42.71457361522388" lon="13.007793498404416"><ele>727.3333333333333</ele><time>2026-04-22T16:08:32Z</time></trkpt><trkpt lat="42.714429833251664" lon="13.00785662363114"><ele>726.6666666666666</ele><time>2026-04-22T16:08:33Z</time></trkpt><trkpt lat="42.71427584855297" lon="13.007927144967487"><ele>726.0</ele><time>2026-04-22T16:08:33.999Z</time></trkpt><trkpt lat="42.71412865442329" lon="13.008024347698003"><ele>730.3333333333334</ele><time>2026-04-22T16:08:34.999Z</time></trkpt><trkpt lat="42.714018779074294" lon="13.008190245021806"><ele>734.6666666666667</ele><time>2026-04-22T16:08:35.999Z</time></trkpt><trkpt lat="42.71392579310181" lon="13.008374747963575"><ele>739.0</ele><time>2026-04-22T16:08:36.999Z</time></trkpt><trkpt lat="42.71385959289602" lon="13.008592764508744"><ele>739.0</ele><time>2026-04-22T16:08:37.999Z</time></trkpt><trkpt lat="42.713805319528085" lon="13.008826257150144"><ele>739.0</ele><time>2026-04-22T16:08:38.999Z</time></trkpt><trkpt lat="42.71375092262898" lon="13.009059800394695"><ele>739.0</ele><time>2026-04-22T16:08:39.999Z</time></trkpt><trkpt lat="42.71368722655468" lon="13.009267374006255"><ele>736.5</ele><time>2026-04-22T16:08:40.999Z</time></trkpt><trkpt lat="42.713625221853874" lon="13.00944983168432"><ele>734.0</ele><time>2026-04-22T16:08:41.999Z</time></trkpt><trkpt lat="42.71356194382954" lon="13.009600960006972"><ele>731.5</ele><time>2026-04-22T16:08:42.999Z</time></trkpt><trkpt lat="42.713491702266644" lon="13.009729414659981"><ele>729.0</ele><time>2026-04-22T16:08:43.999Z</time></trkpt><trkpt lat="42.71341237558212" lon="13.009851058559422"><ele>734.5</ele><time>2026-04-22T16:08:44.999Z</time></trkpt><trkpt lat="42.713322954873746" lon="13.00997679541201"><ele>740.0</ele><time>2026-04-22T16:08:45.999Z</time></trkpt><trkpt lat="42.713231407309806" lon="13.010109366026583"><ele>745.5</ele><time>2026-04-22T16:08:46.999Z</time></trkpt><trkpt lat="42.71313904158505" lon="13.010249078675255"><ele>751.0</ele><time>2026-04-22T16:08:47.999Z</time></trkpt><trkpt lat="42.713046831579405" lon="13.01038938225766"><ele>751.0</ele><time>2026-04-22T16:08:48.999Z</time></trkpt><trkpt lat="42.71296296549053" lon="13.010516989989032"><ele>751.0</ele><time>2026-04-22T16:08:49.999Z</time></trkpt><trkpt lat="42.71288808828466" lon="13.010630814867582"><ele>751.0</ele><time>2026-04-22T16:08:50.999Z</time></trkpt><trkpt lat="42.71280979916539" lon="13.010712229138003"><ele>751.0</ele><time>2026-04-22T16:08:51.999Z</time></trkpt><trkpt lat="42.712734625810256" lon="13.010760346297072"><ele>751.0</ele><time>2026-04-22T16:08:52.999Z</time></trkpt><trkpt lat="42.71267616588132" lon="13.010958893136582"><ele>753.8</ele><time>2026-04-22T16:08:54.999Z</time></trkpt><trkpt lat="42.71265400756844" lon="13.011062544191072"><ele>756.5999999999999</ele><time>2026-04-22T16:08:55.999Z</time></trkpt><trkpt lat="42.71262951077265" lon="13.01121096910636"><ele>759.4</ele><time>2026-04-22T16:08:56.999Z</time></trkpt><trkpt lat="42.71260704586187" lon="13.011376731284123"><ele>762.2</ele><time>2026-04-22T16:08:57.999Z</time></trkpt><trkpt lat="42.712584151855125" lon="13.011548259586512"><ele>765.0</ele><time>2026-04-22T16:08:58.999Z</time></trkpt><trkpt lat="42.71255752568963" lon="13.011723540953517"><ele>765.0</ele><time>2026-04-22T16:08:59.999Z</time></trkpt><trkpt lat="42.71251774628401" lon="13.011898656714095"><ele>765.0</ele><time>2026-04-22T16:09:00.999Z</time></trkpt><trkpt lat="42.71245774620574" lon="13.012070205045566"><ele>765.0</ele><time>2026-04-22T16:09:01.999Z</time></trkpt><trkpt lat="42.7123797276549" lon="13.012227377442729"><ele>765.0</ele><time>2026-04-22T16:09:02.999Z</time></trkpt><trkpt lat="42.71228339867454" lon="13.012374883324243"><ele>759.6666666666666</ele><time>2026-04-22T16:09:03.999Z</time></trkpt><trkpt lat="42.71217858573419" lon="13.01252336750333"><ele>754.3333333333333</ele><time>2026-04-22T16:09:04.999Z</time></trkpt><trkpt lat="42.71206574913997" lon="13.01268455146114"><ele>749.0</ele><time>2026-04-22T16:09:05.999Z</time></trkpt><trkpt lat="42.71197152555881" lon="13.012850505801463"><ele>757.6</ele><time>2026-04-22T16:09:06.999Z</time></trkpt><trkpt lat="42.71189912244199" lon="13.012981052093048"><ele>766.2</ele><time>2026-04-22T16:09:07.999Z</time></trkpt><trkpt lat="42.711825563119085" lon="13.01308108069044"><ele>774.8000000000001</ele><time>2026-04-22T16:09:08.999Z</time></trkpt><trkpt lat="42.71175501297266" lon="13.013128874441122"><ele>783.4000000000001</ele><time>2026-04-22T16:09:09.999Z</time></trkpt><trkpt lat="42.71168250188322" lon="13.013155765457055"><ele>792.0</ele><time>2026-04-22T16:09:10.999Z</time></trkpt><trkpt lat="42.71159227493871" lon="13.013153969036189"><ele>792.0</ele><time>2026-04-22T16:09:11.999Z</time></trkpt><trkpt lat="42.7114748022616" lon="13.013164931328186"><ele>792.0</ele><time>2026-04-22T16:09:12.999Z</time></trkpt><trkpt lat="42.71134716595701" lon="13.013172992549238"><ele>792.0</ele><time>2026-04-22T16:09:13.999Z</time></trkpt><trkpt lat="42.71120432428646" lon="13.013168240235737"><ele>792.0</ele><time>2026-04-22T16:09:14.999Z</time></trkpt><trkpt lat="42.71105316001313" lon="13.013151717910173"><ele>793.3333333333333</ele><time>2026-04-22T16:09:15.999Z</time></trkpt><trkpt lat="42.71090213517716" lon="13.013132607912299"><ele>794.6666666666666</ele><time>2026-04-22T16:09:16.999Z</time></trkpt><trkpt lat="42.71075479315184" lon="13.013098576509044"><ele>796.0</ele><time>2026-04-22T16:09:18Z</time></trkpt><trkpt lat="42.71061165233641" lon="13.01303510580845"><ele>796.0</ele><time>2026-04-22T16:09:19Z</time></trkpt><trkpt lat="42.710468646257354" lon="13.0129922739036"><ele>796.0</ele><time>2026-04-22T16:09:20Z</time></trkpt><trkpt lat="42.71031825246667" lon="13.012968241857113"><ele>796.0</ele><time>2026-04-22T16:09:21Z</time></trkpt><trkpt lat="42.710166230382946" lon="13.012960040663087"><ele>795.5</ele><time>2026-04-22T16:09:22Z</time></trkpt><trkpt lat="42.7100291468628" lon="13.012958422276755"><ele>795.0</ele><time>2026-04-22T16:09:23Z</time></trkpt><trkpt lat="42.70990241686182" lon="13.012962307076663"><ele>794.5</ele><time>2026-04-22T16:09:24Z</time></trkpt><trkpt lat="42.7097793496432" lon="13.012991630178368"><ele>794.0</ele><time>2026-04-22T16:09:25Z</time></trkpt><trkpt lat="42.70965115729634" lon="13.013069745385845"><ele>794.0</ele><time>2026-04-22T16:09:26Z</time></trkpt><trkpt lat="42.709533047993844" lon="13.013177445717002"><ele>794.0</ele><time>2026-04-22T16:09:27Z</time></trkpt><trkpt lat="42.70940842892622" lon="13.013291027473416"><ele>794.0</ele><time>2026-04-22T16:09:28Z</time></trkpt><trkpt lat="42.70927326763683" lon="13.013410593902458"><ele>792.0</ele><time>2026-04-22T16:09:29Z</time></trkpt><trkpt lat="42.709129361151696" lon="13.01353317002571"><ele>790.0</ele><time>2026-04-22T16:09:30Z</time></trkpt><trkpt lat="42.70898602647352" lon="13.013663422423356"><ele>788.0</ele><time>2026-04-22T16:09:31Z</time></trkpt><trkpt lat="42.70885147662033" lon="13.013820806867193"><ele>788.0</ele><time>2026-04-22T16:09:32Z</time></trkpt><trkpt lat="42.708727667396005" lon="13.01398391949954"><ele>788.0</ele><time>2026-04-22T16:09:33Z</time></trkpt><trkpt lat="42.708583557272306" lon="13.014123142812963"><ele>788.0</ele><time>2026-04-22T16:09:34Z</time></trkpt><trkpt lat="42.70843049575286" lon="13.014264855635222"><ele>791.0</ele><time>2026-04-22T16:09:35Z</time></trkpt><trkpt lat="42.70828190839625" lon="13.014393072659722"><ele>794.0</ele><time>2026-04-22T16:09:36Z</time></trkpt><trkpt lat="42.70813743420425" lon="13.01449472223509"><ele>797.0</ele><time>2026-04-22T16:09:37Z</time></trkpt><trkpt lat="42.70800505342739" lon="13.014535526869642"><ele>797.0</ele><time>2026-04-22T16:09:38Z</time></trkpt><trkpt lat="42.70784450628608" lon="13.014556518036276"><ele>797.0</ele><time>2026-04-22T16:09:39Z</time></trkpt><trkpt lat="42.70767144917326" lon="13.014595417372655"><ele>797.0</ele><time>2026-04-22T16:09:40Z</time></trkpt><trkpt lat="42.70749072306646" lon="13.014644946164887"><ele>801.0</ele><time>2026-04-22T16:09:41Z</time></trkpt><trkpt lat="42.707302581494574" lon="13.014697055555493"><ele>805.0</ele><time>2026-04-22T16:09:42Z</time></trkpt><trkpt lat="42.707117168222005" lon="13.014744800694396"><ele>809.0</ele><time>2026-04-22T16:09:43Z</time></trkpt><trkpt lat="42.70692534194766" lon="13.014789850418179"><ele>813.6666666666667</ele><time>2026-04-22T16:09:44Z</time></trkpt><trkpt lat="42.70673406775233" lon="13.014833651183643"><ele>818.3333333333333</ele><time>2026-04-22T16:09:45Z</time></trkpt><trkpt lat="42.706547171913066" lon="13.014864085843264"><ele>823.0</ele><time>2026-04-22T16:09:46Z</time></trkpt><trkpt lat="42.7063768505401" lon="13.01487796560618"><ele>823.0</ele><time>2026-04-22T16:09:47Z</time></trkpt><trkpt lat="42.70622014486688" lon="13.014883730513533"><ele>823.0</ele><time>2026-04-22T16:09:48Z</time></trkpt><trkpt lat="42.70608068663679" lon="13.014890353625379"><ele>823.0</ele><time>2026-04-22T16:09:49Z</time></trkpt><trkpt lat="42.70593842145623" lon="13.01490860710016"><ele>823.0</ele><time>2026-04-22T16:09:50Z</time></trkpt><trkpt lat="42.70579665405642" lon="13.014940093476882"><ele>824.6666666666666</ele><time>2026-04-22T16:09:51Z</time></trkpt><trkpt lat="42.705649086488904" lon="13.014980828573163"><ele>826.3333333333333</ele><time>2026-04-22T16:09:52Z</time></trkpt><trkpt lat="42.70549738680317" lon="13.015045748736403"><ele>828.0</ele><time>2026-04-22T16:09:53Z</time></trkpt><trkpt lat="42.705340926587525" lon="13.015140098111674"><ele>828.6666666666667</ele><time>2026-04-22T16:09:54Z</time></trkpt><trkpt lat="42.7051870020069" lon="13.015261456724252"><ele>829.3333333333334</ele><time>2026-04-22T16:09:55Z</time></trkpt><trkpt lat="42.705035391127204" lon="13.015393036652904"><ele>830.0</ele><time>2026-04-22T16:09:56Z</time></trkpt><trkpt lat="42.70487740209028" lon="13.015547601858787"><ele>830.0</ele><time>2026-04-22T16:09:57Z</time></trkpt><trkpt lat="42.70472874583532" lon="13.01572638558178"><ele>830.0</ele><time>2026-04-22T16:09:58Z</time></trkpt><trkpt lat="42.70457875458323" lon="13.015920395986132"><ele>830.0</ele><time>2026-04-22T16:09:59Z</time></trkpt><trkpt lat="42.70443462415876" lon="13.016109523659434"><ele>831.3333333333334</ele><time>2026-04-22T16:10:00Z</time></trkpt><trkpt lat="42.70429046154461" lon="13.01629686978602"><ele>832.6666666666667</ele><time>2026-04-22T16:10:01Z</time></trkpt><trkpt lat="42.70414131267987" lon="13.016486132407001"><ele>834.0</ele><time>2026-04-22T16:10:02Z</time></trkpt><trkpt lat="42.70398814437728" lon="13.016653662850764"><ele>835.3333333333333</ele><time>2026-04-22T16:10:03Z</time></trkpt><trkpt lat="42.70382868986553" lon="13.016783709638"><ele>836.6666666666666</ele><time>2026-04-22T16:10:04Z</time></trkpt><trkpt lat="42.703651274968585" lon="13.016908572194554"><ele>838.0</ele><time>2026-04-22T16:10:05Z</time></trkpt><trkpt lat="42.70346745683328" lon="13.017023721422493"><ele>838.0</ele><time>2026-04-22T16:10:06Z</time></trkpt><trkpt lat="42.703284556569194" lon="13.017141104877155"><ele>838.0</ele><time>2026-04-22T16:10:07Z</time></trkpt><trkpt lat="42.70310523643592" lon="13.017265869906883"><ele>838.0</ele><time>2026-04-22T16:10:08Z</time></trkpt><trkpt lat="42.70292751915544" lon="13.017389519823778"><ele>841.6666666666666</ele><time>2026-04-22T16:10:09Z</time></trkpt><trkpt lat="42.702747860554055" lon="13.01751452030095"><ele>845.3333333333333</ele><time>2026-04-22T16:10:10Z</time></trkpt><trkpt lat="42.702563135645406" lon="13.017643045893289"><ele>849.0</ele><time>2026-04-22T16:10:11Z</time></trkpt><trkpt lat="42.70237550934076" lon="13.017771936030181"><ele>849.0</ele><time>2026-04-22T16:10:12Z</time></trkpt><trkpt lat="42.70218125248492" lon="13.01790213793728"><ele>849.0</ele><time>2026-04-22T16:10:13Z</time></trkpt><trkpt lat="42.70198710837438" lon="13.01803226427645"><ele>849.0</ele><time>2026-04-22T16:10:14Z</time></trkpt><trkpt lat="42.701789749433026" lon="13.018157363662949"><ele>849.5</ele><time>2026-04-22T16:10:15Z</time></trkpt><trkpt lat="42.70159466585147" lon="13.018314370194094"><ele>850.0</ele><time>2026-04-22T16:10:15.999Z</time></trkpt><trkpt lat="42.70140915842618" lon="13.01849183145023"><ele>854.0</ele><time>2026-04-22T16:10:16.999Z</time></trkpt><trkpt lat="42.701222541755705" lon="13.01866816986149"><ele>858.0</ele><time>2026-04-22T16:10:17.999Z</time></trkpt><trkpt lat="42.70102657547371" lon="13.018827763043141"><ele>858.5</ele><time>2026-04-22T16:10:18.999Z</time></trkpt><trkpt lat="42.70082759383821" lon="13.018984862739313"><ele>859.0</ele><time>2026-04-22T16:10:19.999Z</time></trkpt><trkpt lat="42.70063837067229" lon="13.019163767530179"><ele>864.0</ele><time>2026-04-22T16:10:20.999Z</time></trkpt><trkpt lat="42.70045844121988" lon="13.019364370842174"><ele>869.0</ele><time>2026-04-22T16:10:21.999Z</time></trkpt><trkpt lat="42.70029107079323" lon="13.019566777736717"><ele>869.3333333333334</ele><time>2026-04-22T16:10:22.999Z</time></trkpt><trkpt lat="42.700127385391845" lon="13.019775894308761"><ele>869.6666666666667</ele><time>2026-04-22T16:10:23.999Z</time></trkpt><trkpt lat="42.69996951748315" lon="13.019990706456946"><ele>870.0</ele><time>2026-04-22T16:10:24.999Z</time></trkpt><trkpt lat="42.69981670505427" lon="13.020212371927377"><ele>871.6666666666667</ele><time>2026-04-22T16:10:25.999Z</time></trkpt><trkpt lat="42.69966488986618" lon="13.02043069368025"><ele>873.3333333333334</ele><time>2026-04-22T16:10:26.999Z</time></trkpt><trkpt lat="42.69952133423644" lon="13.020636842167898"><ele>875.0</ele><time>2026-04-22T16:10:27.999Z</time></trkpt><trkpt lat="42.69939072231766" lon="13.020833157452108"><ele>876.3333333333334</ele><time>2026-04-22T16:10:28.999Z</time></trkpt><trkpt lat="42.69926416394901" lon="13.021035498943544"><ele>877.6666666666667</ele><time>2026-04-22T16:10:29.999Z</time></trkpt><trkpt lat="42.6991510215617" lon="13.02126413923611"><ele>879.0</ele><time>2026-04-22T16:10:30.999Z</time></trkpt><trkpt lat="42.69904722882067" lon="13.021495814354815"><ele>882.3333333333333</ele><time>2026-04-22T16:10:31.999Z</time></trkpt><trkpt lat="42.698935195141814" lon="13.02172415715929"><ele>885.6666666666666</ele><time>2026-04-22T16:10:32.999Z</time></trkpt><trkpt lat="42.698814778686284" lon="13.021956140326145"><ele>889.0</ele><time>2026-04-22T16:10:33.999Z</time></trkpt><trkpt lat="42.698696299425215" lon="13.02218763203147"><ele>889.0</ele><time>2026-04-22T16:10:34.999Z</time></trkpt><trkpt lat="42.69859130387828" lon="13.022404268750323"><ele>889.0</ele><time>2026-04-22T16:10:35.999Z</time></trkpt><trkpt lat="42.698490184053966" lon="13.022594732755934"><ele>889.0</ele><time>2026-04-22T16:10:36.999Z</time></trkpt><trkpt lat="42.69837815415401" lon="13.022749758690244"><ele>888.6666666666666</ele><time>2026-04-22T16:10:37.999Z</time></trkpt><trkpt lat="42.69825007084375" lon="13.022878200466726"><ele>888.3333333333333</ele><time>2026-04-22T16:10:38.999Z</time></trkpt><trkpt lat="42.69810391312127" lon="13.023014257651091"><ele>888.0</ele><time>2026-04-22T16:10:39.999Z</time></trkpt><trkpt lat="42.6979648655973" lon="13.02314399161185"><ele>888.0</ele><time>2026-04-22T16:10:40.999Z</time></trkpt><trkpt lat="42.6978468349178" lon="13.023259774176077"><ele>888.0</ele><time>2026-04-22T16:10:41.999Z</time></trkpt><trkpt lat="42.69774481941156" lon="13.023355745483405"><ele>888.0</ele><time>2026-04-22T16:10:42.999Z</time></trkpt><trkpt lat="42.69764230524714" lon="13.02341595402475"><ele>888.0</ele><time>2026-04-22T16:10:43.999Z</time></trkpt><trkpt lat="42.69753422342164" lon="13.023434611481658"><ele>887.5</ele><time>2026-04-22T16:10:44.999Z</time></trkpt><trkpt lat="42.69740674416117" lon="13.023443607019384"><ele>887.0</ele><time>2026-04-22T16:10:45.999Z</time></trkpt><trkpt lat="42.697265211161444" lon="13.023449213844806"><ele>886.5</ele><time>2026-04-22T16:10:46.999Z</time></trkpt><trkpt lat="42.69710948435852" lon="13.023455382958273"><ele>886.0</ele><time>2026-04-22T16:10:47.999Z</time></trkpt><trkpt lat="42.696945281727885" lon="13.023461887843391"><ele>889.6666666666666</ele><time>2026-04-22T16:10:48.999Z</time></trkpt><trkpt lat="42.696789921720516" lon="13.023469414801454"><ele>893.3333333333333</ele><time>2026-04-22T16:10:49.999Z</time></trkpt><trkpt lat="42.69663879810863" lon="13.023489120098917"><ele>897.0</ele><time>2026-04-22T16:10:50.999Z</time></trkpt><trkpt lat="42.69649726499815" lon="13.023529544396224"><ele>897.0</ele><time>2026-04-22T16:10:51.999Z</time></trkpt><trkpt lat="42.69635843269078" lon="13.02363558352074"><ele>897.0</ele><time>2026-04-22T16:10:52.999Z</time></trkpt><trkpt lat="42.69622781026163" lon="13.023752655283046"><ele>897.0</ele><time>2026-04-22T16:10:53.999Z</time></trkpt><trkpt lat="42.69608735145674" lon="13.023866882634465"><ele>899.0</ele><time>2026-04-22T16:10:54.999Z</time></trkpt><trkpt lat="42.69593925720729" lon="13.02398813392229"><ele>901.0</ele><time>2026-04-22T16:10:55.999Z</time></trkpt><trkpt lat="42.69579464669752" lon="13.024114479698502"><ele>903.0</ele><time>2026-04-22T16:10:56.999Z</time></trkpt><trkpt lat="42.69564517714389" lon="13.024229159198587"><ele>903.0</ele><time>2026-04-22T16:10:57.999Z</time></trkpt><trkpt lat="42.69548710832526" lon="13.024336688689603"><ele>903.0</ele><time>2026-04-22T16:10:58.999Z</time></trkpt><trkpt lat="42.695332143788285" lon="13.024468311530242"><ele>903.0</ele><time>2026-04-22T16:10:59.999Z</time></trkpt><trkpt lat="42.69518444023184" lon="13.024631737254232"><ele>909.0</ele><time>2026-04-22T16:11:00.999Z</time></trkpt><trkpt lat="42.69505987229698" lon="13.024806885208958"><ele>915.0</ele><time>2026-04-22T16:11:01.999Z</time></trkpt><trkpt lat="42.69494998844437" lon="13.024990857026314"><ele>921.0</ele><time>2026-04-22T16:11:02.999Z</time></trkpt><trkpt lat="42.69486241813328" lon="13.025215620493585"><ele>921.0</ele><time>2026-04-22T16:11:03.999Z</time></trkpt><trkpt lat="42.69477250002811" lon="13.025437036935047"><ele>921.0</ele><time>2026-04-22T16:11:04.999Z</time></trkpt><trkpt lat="42.69467166497297" lon="13.025666204266448"><ele>921.0</ele><time>2026-04-22T16:11:05.999Z</time></trkpt><trkpt lat="42.69456656924435" lon="13.025889842577172"><ele>916.6666666666667</ele><time>2026-04-22T16:11:06.999Z</time></trkpt><trkpt lat="42.69446052872557" lon="13.026109501696196"><ele>912.3333333333334</ele><time>2026-04-22T16:11:07.999Z</time></trkpt><trkpt lat="42.694355058820186" lon="13.026324749920013"><ele>908.0</ele><time>2026-04-22T16:11:08.999Z</time></trkpt><trkpt lat="42.69425667215757" lon="13.026516147966975"><ele>914.3333333333334</ele><time>2026-04-22T16:11:09.999Z</time></trkpt><trkpt lat="42.69414885335767" lon="13.026696687688663"><ele>920.6666666666667</ele><time>2026-04-22T16:11:10.999Z</time></trkpt><trkpt lat="42.6940306480603" lon="13.026881189282854"><ele>927.0</ele><time>2026-04-22T16:11:11.999Z</time></trkpt><trkpt lat="42.69390789276086" lon="13.027064916119507"><ele>927.0</ele><time>2026-04-22T16:11:12.999Z</time></trkpt><trkpt lat="42.69378091095838" lon="13.027264834529557"><ele>927.0</ele><time>2026-04-22T16:11:13.999Z</time></trkpt><trkpt lat="42.69368436660928" lon="13.027491435066537"><ele>927.0</ele><time>2026-04-22T16:11:14.999Z</time></trkpt><trkpt lat="42.69362957608157" lon="13.0277465352485"><ele>930.5</ele><time>2026-04-22T16:11:15.999Z</time></trkpt><trkpt lat="42.69357609348647" lon="13.027938761239719"><ele>934.0</ele><time>2026-04-22T16:11:16.999Z</time></trkpt><trkpt lat="42.69350078706467" lon="13.028095500334084"><ele>937.5</ele><time>2026-04-22T16:11:17.999Z</time></trkpt><trkpt lat="42.693403876158065" lon="13.028248574406131"><ele>941.0</ele><time>2026-04-22T16:11:18.999Z</time></trkpt><trkpt lat="42.693298746695824" lon="13.028678635053575"><ele>941.0</ele><time>2026-04-22T16:11:20.999Z</time></trkpt><trkpt lat="42.6932575715576" lon="13.028912915777397"><ele>941.0</ele><time>2026-04-22T16:11:21.999Z</time></trkpt><trkpt lat="42.693233823732136" lon="13.029163401300137"><ele>941.0</ele><time>2026-04-22T16:11:22.999Z</time></trkpt><trkpt lat="42.69321626772572" lon="13.029413167104149"><ele>941.6666666666667</ele><time>2026-04-22T16:11:23.999Z</time></trkpt><trkpt lat="42.69322633316165" lon="13.029666121597232"><ele>942.3333333333333</ele><time>2026-04-22T16:11:24.999Z</time></trkpt><trkpt lat="42.69326021731894" lon="13.029894375764046"><ele>943.0</ele><time>2026-04-22T16:11:25.999Z</time></trkpt><trkpt lat="42.69328690023695" lon="13.030086487745779"><ele>943.8</ele><time>2026-04-22T16:11:26.999Z</time></trkpt><trkpt lat="42.69329317864224" lon="13.030247174229608"><ele>944.5999999999999</ele><time>2026-04-22T16:11:27.999Z</time></trkpt><trkpt lat="42.69326164482125" lon="13.030370678940704"><ele>945.4000000000001</ele><time>2026-04-22T16:11:28.999Z</time></trkpt><trkpt lat="42.69321270179332" lon="13.030473700153783"><ele>946.2</ele><time>2026-04-22T16:11:29.999Z</time></trkpt><trkpt lat="42.69314850165607" lon="13.030550806986588"><ele>947.0</ele><time>2026-04-22T16:11:31Z</time></trkpt><trkpt lat="42.693066892705914" lon="13.030640580373662"><ele>947.0</ele><time>2026-04-22T16:11:32Z</time></trkpt><trkpt lat="42.692961510921684" lon="13.03075210242846"><ele>947.0</ele><time>2026-04-22T16:11:33Z</time></trkpt><trkpt lat="42.69284614024164" lon="13.030880491605853"><ele>947.0</ele><time>2026-04-22T16:11:34Z</time></trkpt><trkpt lat="42.69272508699002" lon="13.031000258519487"><ele>947.0</ele><time>2026-04-22T16:11:35Z</time></trkpt><trkpt lat="42.69260810953089" lon="13.031099973382936"><ele>948.25</ele><time>2026-04-22T16:11:36Z</time></trkpt><trkpt lat="42.69249236986033" lon="13.031167543684141"><ele>949.5</ele><time>2026-04-22T16:11:37Z</time></trkpt><trkpt lat="42.692362971437625" lon="13.031227670602158"><ele>950.75</ele><time>2026-04-22T16:11:38Z</time></trkpt><trkpt lat="42.692222793792354" lon="13.031296463938338"><ele>952.0</ele><time>2026-04-22T16:11:39Z</time></trkpt><trkpt lat="42.6920801542731" lon="13.031365991170306"><ele>952.0</ele><time>2026-04-22T16:11:40Z</time></trkpt><trkpt lat="42.69193851927791" lon="13.031434048886661"><ele>952.0</ele><time>2026-04-22T16:11:41Z</time></trkpt><trkpt lat="42.69180016277329" lon="13.03151490387635"><ele>952.0</ele><time>2026-04-22T16:11:42Z</time></trkpt><trkpt lat="42.69167707478771" lon="13.031612718409184"><ele>952.0</ele><time>2026-04-22T16:11:43Z</time></trkpt><trkpt lat="42.69155163199436" lon="13.031732521935607"><ele>952.75</ele><time>2026-04-22T16:11:44Z</time></trkpt><trkpt lat="42.69143391931708" lon="13.031857225565243"><ele>953.5</ele><time>2026-04-22T16:11:45Z</time></trkpt><trkpt lat="42.69132530127048" lon="13.031972294456141"><ele>954.25</ele><time>2026-04-22T16:11:46Z</time></trkpt><trkpt lat="42.69123558455476" lon="13.032068824107826"><ele>955.0</ele><time>2026-04-22T16:11:47Z</time></trkpt><trkpt lat="42.69116168463234" lon="13.032154495252867"><ele>955.0</ele><time>2026-04-22T16:11:48Z</time></trkpt><trkpt lat="42.69110304586953" lon="13.03223522896249"><ele>955.0</ele><time>2026-04-22T16:11:49Z</time></trkpt><trkpt lat="42.69101928235929" lon="13.032342538443464"><ele>955.0</ele><time>2026-04-22T16:11:51Z</time></trkpt><trkpt lat="42.69094464772366" lon="13.032405618768212"><ele>955.0</ele><time>2026-04-22T16:11:53Z</time></trkpt><trkpt lat="42.690836150410505" lon="13.032482589316604"><ele>955.0</ele><time>2026-04-22T16:11:55Z</time></trkpt><trkpt lat="42.69077859034425" lon="13.03252999195402"><ele>955.8</ele><time>2026-04-22T16:11:56Z</time></trkpt><trkpt lat="42.69070705846438" lon="13.032588893895932"><ele>956.6</ele><time>2026-04-22T16:11:57Z</time></trkpt><trkpt lat="42.69063794605975" lon="13.032643978449654"><ele>957.4000000000001</ele><time>2026-04-22T16:11:58Z</time></trkpt><trkpt lat="42.690517721326756" lon="13.032632112642085"><ele>958.2</ele><time>2026-04-22T16:12:00Z</time></trkpt><trkpt lat="42.69045313227356" lon="13.032646485106426"><ele>959.0</ele><time>2026-04-22T16:12:01Z</time></trkpt><trkpt lat="42.69035599271707" lon="13.032694612540379"><ele>959.0</ele><time>2026-04-22T16:12:02Z</time></trkpt><trkpt lat="42.690266766635524" lon="13.032777440643077"><ele>959.0000000000001</ele><time>2026-04-22T16:12:03Z</time></trkpt><trkpt lat="42.690194410723635" lon="13.032845239434929"><ele>959.0000000000001</ele><time>2026-04-22T16:12:04Z</time></trkpt><trkpt lat="42.69013140603659" lon="13.03286918286797"><ele>959.0</ele><time>2026-04-22T16:12:05Z</time></trkpt><trkpt lat="42.69004196651928" lon="13.032909797828205"><ele>959.0</ele><time>2026-04-22T16:12:06Z</time></trkpt><trkpt lat="42.68993347955949" lon="13.03280833566028"><ele>959.5</ele><time>2026-04-22T16:12:08Z</time></trkpt><trkpt lat="42.68988016920196" lon="13.032707995883678"><ele>960.0</ele><time>2026-04-22T16:12:09Z</time></trkpt><trkpt lat="42.68979427259336" lon="13.032704082187868"><ele>960.5</ele><time>2026-04-22T16:12:10Z</time></trkpt><trkpt lat="42.689708087230606" lon="13.032705895899282"><ele>961.0</ele><time>2026-04-22T16:12:11Z</time></trkpt><trkpt lat="42.68951475911878" lon="13.033478047964747"><ele>961.0</ele><time>2026-04-22T16:12:12Z</time></trkpt><trkpt lat="42.689437146060776" lon="13.033551938937167"><ele>960.9999999999999</ele><time>2026-04-22T16:12:13Z</time></trkpt><trkpt lat="42.689354091829976" lon="13.033594278553334"><ele>960.9999999999999</ele><time>2026-04-22T16:12:14Z</time></trkpt><trkpt lat="42.68924326671897" lon="13.033622067215887"><ele>961.0</ele><time>2026-04-22T16:12:15Z</time></trkpt><trkpt lat="42.689158280255604" lon="13.033660416368209"><ele>961.0</ele><time>2026-04-22T16:12:16Z</time></trkpt><trkpt lat="42.689066340837" lon="13.033724605275133"><ele>961.0</ele><time>2026-04-22T16:12:17Z</time></trkpt><trkpt lat="42.68897610778537" lon="13.033812555705245"><ele>960.9999999999999</ele><time>2026-04-22T16:12:18Z</time></trkpt><trkpt lat="42.68889344083922" lon="13.033888035359844"><ele>960.9999999999999</ele><time>2026-04-22T16:12:19Z</time></trkpt><trkpt lat="42.68881608705334" lon="13.033930153332498"><ele>961.0</ele><time>2026-04-22T16:12:20Z</time></trkpt><trkpt lat="42.68872355764864" lon="13.03394406128966"><ele>961.0</ele><time>2026-04-22T16:12:21Z</time></trkpt><trkpt lat="42.68863195970088" lon="13.033953006891027"><ele>964.3333333333333</ele><time>2026-04-22T16:12:22Z</time></trkpt><trkpt lat="42.68853449150294" lon="13.033962720708535"><ele>967.6666666666666</ele><time>2026-04-22T16:12:23Z</time></trkpt><trkpt lat="42.68843755707596" lon="13.033979330650087"><ele>971.0</ele><time>2026-04-22T16:12:24Z</time></trkpt><trkpt lat="42.68835947942265" lon="13.033979535119398"><ele>974.3333333333333</ele><time>2026-04-22T16:12:25Z</time></trkpt><trkpt lat="42.688302240431966" lon="13.033940934988301"><ele>977.6666666666666</ele><time>2026-04-22T16:12:26Z</time></trkpt><trkpt lat="42.688244647454255" lon="13.033882694720214"><ele>981.0</ele><time>2026-04-22T16:12:27Z</time></trkpt><trkpt lat="42.68819522776452" lon="13.033810247393474"><ele>981.0</ele><time>2026-04-22T16:12:28Z</time></trkpt><trkpt lat="42.68813839609122" lon="13.03373532313749"><ele>981.0</ele><time>2026-04-22T16:12:29Z</time></trkpt><trkpt lat="42.68807370002075" lon="13.033655701928396"><ele>981.0</ele><time>2026-04-22T16:12:30Z</time></trkpt><trkpt lat="42.688002114120046" lon="13.033599151968362"><ele>981.0</ele><time>2026-04-22T16:12:31Z</time></trkpt><trkpt lat="42.68791459421104" lon="13.033561516169032"><ele>981.0</ele><time>2026-04-22T16:12:32Z</time></trkpt><trkpt lat="42.687817192609785" lon="13.033529390413765"><ele>981.0</ele><time>2026-04-22T16:12:33Z</time></trkpt><trkpt lat="42.687719089190374" lon="13.03349199345698"><ele>980.0</ele><time>2026-04-22T16:12:34Z</time></trkpt><trkpt lat="42.687625311698994" lon="13.033448007864338"><ele>978.9999999999999</ele><time>2026-04-22T16:12:35Z</time></trkpt><trkpt lat="42.68753244684494" lon="13.0333976958671"><ele>977.9999999999999</ele><time>2026-04-22T16:12:36Z</time></trkpt><trkpt lat="42.6874420442558" lon="13.033344736709589"><ele>977.0</ele><time>2026-04-22T16:12:37Z</time></trkpt><trkpt lat="42.68734844471973" lon="13.033297132397674"><ele>976.0</ele><time>2026-04-22T16:12:38Z</time></trkpt><trkpt lat="42.687248126945754" lon="13.033272175504933"><ele>982.8</ele><time>2026-04-22T16:12:39Z</time></trkpt><trkpt lat="42.68714048198444" lon="13.033263809651467"><ele>989.5999999999999</ele><time>2026-04-22T16:12:40Z</time></trkpt><trkpt lat="42.687045232370224" lon="13.033268923054399"><ele>996.4</ele><time>2026-04-22T16:12:41Z</time></trkpt><trkpt lat="42.68695426468388" lon="13.033257725570058"><ele>1003.2</ele><time>2026-04-22T16:12:42Z</time></trkpt><trkpt lat="42.68685953145282" lon="13.033229502088021"><ele>1010.0</ele><time>2026-04-22T16:12:43Z</time></trkpt><trkpt lat="42.68676474720051" lon="13.033184493110028"><ele>1010.0</ele><time>2026-04-22T16:12:44Z</time></trkpt><trkpt lat="42.68667167216174" lon="13.033138471061864"><ele>1010.0</ele><time>2026-04-22T16:12:45Z</time></trkpt><trkpt lat="42.686580190216034" lon="13.033094839643086"><ele>1010.0</ele><time>2026-04-22T16:12:45.999Z</time></trkpt><trkpt lat="42.6865161298844" lon="13.033057325326126"><ele>1010.0</ele><time>2026-04-22T16:12:46.999Z</time></trkpt><trkpt lat="42.68645893452876" lon="13.03299535923979"><ele>1010.0</ele><time>2026-04-22T16:12:47.999Z</time></trkpt><trkpt lat="42.68638735177517" lon="13.032832695200586"><ele>1010.0</ele><time>2026-04-22T16:12:49.999Z</time></trkpt><trkpt lat="42.6863518093586" lon="13.032725711249842"><ele>1010.0</ele><time>2026-04-22T16:12:50.999Z</time></trkpt><trkpt lat="42.6863160779931" lon="13.032632604928828"><ele>1010.0</ele><time>2026-04-22T16:12:51.999Z</time></trkpt><trkpt lat="42.68623231736326" lon="13.032517589744524"><ele>1010.0</ele><time>2026-04-22T16:12:53.999Z</time></trkpt><trkpt lat="42.6861120030071" lon="13.032504206816606"><ele>1010.0</ele><time>2026-04-22T16:12:55.999Z</time></trkpt><trkpt lat="42.68603806430987" lon="13.032539799312149"><ele>1008.6666666666667</ele><time>2026-04-22T16:12:56.999Z</time></trkpt><trkpt lat="42.685973003596025" lon="13.032601296970205"><ele>1007.3333333333334</ele><time>2026-04-22T16:12:57.999Z</time></trkpt><trkpt lat="42.68590104590798" lon="13.032677710096511"><ele>1006.0</ele><time>2026-04-22T16:12:58.999Z</time></trkpt><trkpt lat="42.685821861908096" lon="13.032748181914505"><ele>1004.6666666666667</ele><time>2026-04-22T16:12:59.999Z</time></trkpt><trkpt lat="42.68574384091397" lon="13.032796960437262"><ele>1003.3333333333334</ele><time>2026-04-22T16:13:00.999Z</time></trkpt><trkpt lat="42.685659690371466" lon="13.032840570833796"><ele>1002.0</ele><time>2026-04-22T16:13:01.999Z</time></trkpt><trkpt lat="42.68556956126785" lon="13.032895766675015"><ele>1002.0</ele><time>2026-04-22T16:13:02.999Z</time></trkpt><trkpt lat="42.685482675923325" lon="13.03295161220031"><ele>1002.0</ele><time>2026-04-22T16:13:03.999Z</time></trkpt><trkpt lat="42.68540114533618" lon="13.033007972463524"><ele>1002.0</ele><time>2026-04-22T16:13:04.999Z</time></trkpt><trkpt lat="42.685310509918175" lon="13.033063889321648"><ele>1002.0</ele><time>2026-04-22T16:13:05.999Z</time></trkpt><trkpt lat="42.68522782640762" lon="13.033108606108136"><ele>1002.0</ele><time>2026-04-22T16:13:06.999Z</time></trkpt><trkpt lat="42.68515533091167" lon="13.033137403203094"><ele>1004.8</ele><time>2026-04-22T16:13:07.999Z</time></trkpt><trkpt lat="42.68506628697906" lon="13.03314927618231"><ele>1007.6</ele><time>2026-04-22T16:13:08.999Z</time></trkpt><trkpt lat="42.68496857165873" lon="13.033150513186746"><ele>1010.3999999999999</ele><time>2026-04-22T16:13:09.999Z</time></trkpt><trkpt lat="42.684864265014795" lon="13.033157555619281"><ele>1013.1999999999999</ele><time>2026-04-22T16:13:10.999Z</time></trkpt><trkpt lat="42.684753115928174" lon="13.033187855679442"><ele>1016.0</ele><time>2026-04-22T16:13:11.999Z</time></trkpt><trkpt lat="42.684637640958314" lon="13.03322763886072"><ele>1016.0</ele><time>2026-04-22T16:13:12.999Z</time></trkpt><trkpt lat="42.68451508856621" lon="13.033264218148844"><ele>1016.0</ele><time>2026-04-22T16:13:13.999Z</time></trkpt><trkpt lat="42.68439644091468" lon="13.033297299939091"><ele>1016.0</ele><time>2026-04-22T16:13:14.999Z</time></trkpt><trkpt lat="42.68427998866395" lon="13.03332489064974"><ele>1016.0</ele><time>2026-04-22T16:13:15.999Z</time></trkpt><trkpt lat="42.684177816006304" lon="13.033348978820278"><ele>1008.5999999999999</ele><time>2026-04-22T16:13:16.999Z</time></trkpt><trkpt lat="42.68407642990435" lon="13.033358342100922"><ele>1001.1999999999999</ele><time>2026-04-22T16:13:17.999Z</time></trkpt><trkpt lat="42.683964921452045" lon="13.033366001838143"><ele>993.8000000000001</ele><time>2026-04-22T16:13:18.999Z</time></trkpt><trkpt lat="42.68385347299737" lon="13.033370097903488"><ele>986.4000000000001</ele><time>2026-04-22T16:13:19.999Z</time></trkpt><trkpt lat="42.68375561234475" lon="13.033380438118995"><ele>979.0</ele><time>2026-04-22T16:13:20.999Z</time></trkpt><trkpt lat="42.68367459180469" lon="13.033390513002924"><ele>978.9999999999999</ele><time>2026-04-22T16:13:21.999Z</time></trkpt><trkpt lat="42.683604149340916" lon="13.033393196243178"><ele>979.0</ele><time>2026-04-22T16:13:22.999Z</time></trkpt><trkpt lat="42.68349903737838" lon="13.033365665620982"><ele>979.0</ele><time>2026-04-22T16:13:24.999Z</time></trkpt><trkpt lat="42.68343236144824" lon="13.033272852195482"><ele>979.0</ele><time>2026-04-22T16:13:26.999Z</time></trkpt><trkpt lat="42.68340015556162" lon="13.033188792649963"><ele>978.9999999999999</ele><time>2026-04-22T16:13:27.999Z</time></trkpt><trkpt lat="42.68335599049857" lon="13.033096559856096"><ele>979.0</ele><time>2026-04-22T16:13:28.999Z</time></trkpt><trkpt lat="42.68331817304785" lon="13.033011569915171"><ele>978.6666666666666</ele><time>2026-04-22T16:13:30Z</time></trkpt><trkpt lat="42.683289181350524" lon="13.03292942242287"><ele>978.3333333333333</ele><time>2026-04-22T16:13:31Z</time></trkpt><trkpt lat="42.683260947104905" lon="13.03283546028991"><ele>978.0</ele><time>2026-04-22T16:13:32Z</time></trkpt><trkpt lat="42.68323574695778" lon="13.03272289040524"><ele>977.6666666666667</ele><time>2026-04-22T16:13:33Z</time></trkpt><trkpt lat="42.68321361020252" lon="13.032590770348591"><ele>977.3333333333334</ele><time>2026-04-22T16:13:34Z</time></trkpt><trkpt lat="42.68319878489692" lon="13.032450033564816"><ele>977.0</ele><time>2026-04-22T16:13:35Z</time></trkpt><trkpt lat="42.683190673759064" lon="13.032309359141813"><ele>980.4000000000001</ele><time>2026-04-22T16:13:36Z</time></trkpt><trkpt lat="42.68318330026553" lon="13.032191397307386"><ele>983.8000000000001</ele><time>2026-04-22T16:13:37Z</time></trkpt><trkpt lat="42.68316829619165" lon="13.032065773524291"><ele>987.2</ele><time>2026-04-22T16:13:38Z</time></trkpt><trkpt lat="42.68314139821876" lon="13.031938644183256"><ele>990.6</ele><time>2026-04-22T16:13:39Z</time></trkpt><trkpt lat="42.68310799589693" lon="13.031816600862552"><ele>994.0</ele><time>2026-04-22T16:13:40Z</time></trkpt><trkpt lat="42.683067175173925" lon="13.031705113201491"><ele>998.4999999999999</ele><time>2026-04-22T16:13:41Z</time></trkpt><trkpt lat="42.68301348934439" lon="13.031601712812186"><ele>1003.0</ele><time>2026-04-22T16:13:42Z</time></trkpt><trkpt lat="42.68296174100651" lon="13.031527002090252"><ele>1007.5</ele><time>2026-04-22T16:13:43Z</time></trkpt><trkpt lat="42.68290285418051" lon="13.031465000143813"><ele>1012.0</ele><time>2026-04-22T16:13:44Z</time></trkpt><trkpt lat="42.68283224300108" lon="13.031394364654881"><ele>1016.4999999999999</ele><time>2026-04-22T16:13:45Z</time></trkpt><trkpt lat="42.682766699310896" lon="13.031336576936681"><ele>1021.0</ele><time>2026-04-22T16:13:46Z</time></trkpt><trkpt lat="42.6826998542299" lon="13.031271137154983"><ele>1012.8333333333333</ele><time>2026-04-22T16:13:47Z</time></trkpt><trkpt lat="42.68264283627552" lon="13.031215264344926"><ele>1004.6666666666666</ele><time>2026-04-22T16:13:48Z</time></trkpt><trkpt lat="42.68258282964931" lon="13.03115375869481"><ele>996.5</ele><time>2026-04-22T16:13:49Z</time></trkpt><trkpt lat="42.682532389234154" lon="13.031076137808046"><ele>988.3333333333333</ele><time>2026-04-22T16:13:50Z</time></trkpt><trkpt lat="42.6824951863916" lon="13.030984532389981"><ele>980.1666666666666</ele><time>2026-04-22T16:13:51Z</time></trkpt><trkpt lat="42.68247381666433" lon="13.030872180750363"><ele>972.0</ele><time>2026-04-22T16:13:52Z</time></trkpt><trkpt lat="42.68245579680082" lon="13.030746855923573"><ele>972.0</ele><time>2026-04-22T16:13:53Z</time></trkpt><trkpt lat="42.682432613093816" lon="13.030611391928964"><ele>972.0</ele><time>2026-04-22T16:13:54Z</time></trkpt><trkpt lat="42.68240880664199" lon="13.030469431568195"><ele>972.0</ele><time>2026-04-22T16:13:55Z</time></trkpt><trkpt lat="42.6823866450084" lon="13.030352387069403"><ele>972.0</ele><time>2026-04-22T16:13:56Z</time></trkpt><trkpt lat="42.68235957957193" lon="13.030247606805082"><ele>972.0</ele><time>2026-04-22T16:13:57Z</time></trkpt><trkpt lat="42.682322063384234" lon="13.03014261942144"><ele>972.0</ele><time>2026-04-22T16:13:58Z</time></trkpt><trkpt lat="42.68228202353341" lon="13.030052774064325"><ele>972.0</ele><time>2026-04-22T16:13:59Z</time></trkpt><trkpt lat="42.68223438885236" lon="13.02995550635733"><ele>972.0</ele><time>2026-04-22T16:14:00Z</time></trkpt><trkpt lat="42.682178387639645" lon="13.02986471740319"><ele>972.0</ele><time>2026-04-22T16:14:01Z</time></trkpt><trkpt lat="42.68211238798436" lon="13.029785984683134"><ele>972.0</ele><time>2026-04-22T16:14:02Z</time></trkpt><trkpt lat="42.68204336378011" lon="13.029707907610268"><ele>972.0</ele><time>2026-04-22T16:14:03Z</time></trkpt><trkpt lat="42.68197120855959" lon="13.029639280499973"><ele>970.1666666666666</ele><time>2026-04-22T16:14:04Z</time></trkpt><trkpt lat="42.68189607450726" lon="13.029577201327026"><ele>968.3333333333333</ele><time>2026-04-22T16:14:05Z</time></trkpt><trkpt lat="42.681838341900814" lon="13.029522702135676"><ele>966.5</ele><time>2026-04-22T16:14:06Z</time></trkpt><trkpt lat="42.68179657622818" lon="13.029453376149762"><ele>964.6666666666666</ele><time>2026-04-22T16:14:07Z</time></trkpt><trkpt lat="42.681771665982744" lon="13.029365841757942"><ele>962.8333333333333</ele><time>2026-04-22T16:14:08Z</time></trkpt><trkpt lat="42.6817499538397" lon="13.029258479377521"><ele>961.0</ele><time>2026-04-22T16:14:09Z</time></trkpt><trkpt lat="42.681727558436585" lon="13.029129768165161"><ele>960.9999999999999</ele><time>2026-04-22T16:14:10Z</time></trkpt><trkpt lat="42.681711520437965" lon="13.028995694988694"><ele>961.0</ele><time>2026-04-22T16:14:11Z</time></trkpt><trkpt lat="42.68169396279606" lon="13.028886045950962"><ele>961.0</ele><time>2026-04-22T16:14:12Z</time></trkpt><trkpt lat="42.681683809226435" lon="13.02878108734746"><ele>961.0</ele><time>2026-04-22T16:14:13Z</time></trkpt><trkpt lat="42.68160919155148" lon="13.028653885274556"><ele>960.9999999999999</ele><time>2026-04-22T16:14:15Z</time></trkpt><trkpt lat="42.681550668508144" lon="13.028619480004119"><ele>961.0</ele><time>2026-04-22T16:14:16Z</time></trkpt><trkpt lat="42.68147140760911" lon="13.028593323105275"><ele>960.9999999999999</ele><time>2026-04-22T16:14:17Z</time></trkpt><trkpt lat="42.68138431713528" lon="13.028590522644643"><ele>961.0</ele><time>2026-04-22T16:14:18Z</time></trkpt><trkpt lat="42.681305620129905" lon="13.02858530522931"><ele>961.0</ele><time>2026-04-22T16:14:19Z</time></trkpt><trkpt lat="42.68120038130099" lon="13.028530138257544"><ele>961.0</ele><time>2026-04-22T16:14:21Z</time></trkpt><trkpt lat="42.68114709196936" lon="13.028466459373915"><ele>960.9999999999999</ele><time>2026-04-22T16:14:22Z</time></trkpt><trkpt lat="42.68108215092163" lon="13.02840837244856"><ele>961.0</ele><time>2026-04-22T16:14:23Z</time></trkpt><trkpt lat="42.68101344782349" lon="13.028336674194986"><ele>958.9999999999999</ele><time>2026-04-22T16:14:24Z</time></trkpt><trkpt lat="42.68095734611762" lon="13.028272676362674"><ele>957.0</ele><time>2026-04-22T16:14:25Z</time></trkpt><trkpt lat="42.68090064397614" lon="13.02820451632172"><ele>955.0</ele><time>2026-04-22T16:14:26Z</time></trkpt><trkpt lat="42.68084993198485" lon="13.02812906018438"><ele>953.0</ele><time>2026-04-22T16:14:27Z</time></trkpt><trkpt lat="42.68079258644039" lon="13.028028100781235"><ele>950.9999999999999</ele><time>2026-04-22T16:14:28Z</time></trkpt><trkpt lat="42.68072618480439" lon="13.027918826102978"><ele>949.0</ele><time>2026-04-22T16:14:29Z</time></trkpt><trkpt lat="42.68065179969016" lon="13.027813365638995"><ele>949.0</ele><time>2026-04-22T16:14:30Z</time></trkpt><trkpt lat="42.680578967926174" lon="13.027712820214905"><ele>949.0000000000001</ele><time>2026-04-22T16:14:31Z</time></trkpt><trkpt lat="42.680502676794475" lon="13.027626058189849"><ele>949.0000000000001</ele><time>2026-04-22T16:14:32Z</time></trkpt><trkpt lat="42.68041772065457" lon="13.027563115185204"><ele>949.0</ele><time>2026-04-22T16:14:33Z</time></trkpt><trkpt lat="42.6803291064227" lon="13.027506524855406"><ele>949.0</ele><time>2026-04-22T16:14:34Z</time></trkpt><trkpt lat="42.68024848546253" lon="13.027443518022741"><ele>948.6</ele><time>2026-04-22T16:14:35Z</time></trkpt><trkpt lat="42.68018095004909" lon="13.02737452812674"><ele>948.2</ele><time>2026-04-22T16:14:36Z</time></trkpt><trkpt lat="42.68010210168067" lon="13.027298282556904"><ele>947.8000000000001</ele><time>2026-04-22T16:14:37Z</time></trkpt><trkpt lat="42.68000697856195" lon="13.027222111098602"><ele>947.4000000000001</ele><time>2026-04-22T16:14:38Z</time></trkpt><trkpt lat="42.67989998872375" lon="13.02715890428345"><ele>947.0</ele><time>2026-04-22T16:14:39Z</time></trkpt><trkpt lat="42.67978513800202" lon="13.027116575626295"><ele>947.0</ele><time>2026-04-22T16:14:40Z</time></trkpt><trkpt lat="42.6796786091168" lon="13.027075327721535"><ele>947.0</ele><time>2026-04-22T16:14:41Z</time></trkpt><trkpt lat="42.67957996488674" lon="13.027038039481306"><ele>947.0</ele><time>2026-04-22T16:14:42Z</time></trkpt><trkpt lat="42.67948233068669" lon="13.02700928747475"><ele>947.0</ele><time>2026-04-22T16:14:43Z</time></trkpt><trkpt lat="42.67938613228201" lon="13.026974541045863"><ele>947.0</ele><time>2026-04-22T16:14:44Z</time></trkpt><trkpt lat="42.67929216992947" lon="13.026930079977454"><ele>942.0</ele><time>2026-04-22T16:14:45Z</time></trkpt><trkpt lat="42.679207367146205" lon="13.026886822326457"><ele>937.0</ele><time>2026-04-22T16:14:46Z</time></trkpt><trkpt lat="42.679103838302765" lon="13.026854236276636"><ele>932.0</ele><time>2026-04-22T16:14:47Z</time></trkpt><trkpt lat="42.67900390802589" lon="13.026843539737895"><ele>927.0</ele><time>2026-04-22T16:14:48Z</time></trkpt><trkpt lat="42.67891017708651" lon="13.026838503364093"><ele>922.0</ele><time>2026-04-22T16:14:49Z</time></trkpt><trkpt lat="42.678829584077484" lon="13.026813588546123"><ele>922.0</ele><time>2026-04-22T16:14:50Z</time></trkpt><trkpt lat="42.678754725665684" lon="13.026753633697815"><ele>922.0</ele><time>2026-04-22T16:14:51Z</time></trkpt><trkpt lat="42.67867657455327" lon="13.026695763256484"><ele>922.0</ele><time>2026-04-22T16:14:52Z</time></trkpt><trkpt lat="42.67857700340844" lon="13.026644772124177"><ele>922.0</ele><time>2026-04-22T16:14:53Z</time></trkpt><trkpt lat="42.67846202871306" lon="13.026625667068142"><ele>922.0</ele><time>2026-04-22T16:14:54Z</time></trkpt><trkpt lat="42.67834632479494" lon="13.026611538089615"><ele>928.5</ele><time>2026-04-22T16:14:55Z</time></trkpt><trkpt lat="42.6782179061358" lon="13.026576443994928"><ele>935.0</ele><time>2026-04-22T16:14:56Z</time></trkpt><trkpt lat="42.67809137699426" lon="13.0265386661251"><ele>941.5</ele><time>2026-04-22T16:14:57Z</time></trkpt><trkpt lat="42.677975958345236" lon="13.026513979625197"><ele>948.0</ele><time>2026-04-22T16:14:58Z</time></trkpt><trkpt lat="42.677859694100704" lon="13.026510527169005"><ele>946.8333333333334</ele><time>2026-04-22T16:14:59Z</time></trkpt><trkpt lat="42.677763262772814" lon="13.026502245887034"><ele>945.6666666666667</ele><time>2026-04-22T16:15:00Z</time></trkpt><trkpt lat="42.677683527907405" lon="13.026503133771822"><ele>944.5</ele><time>2026-04-22T16:15:01Z</time></trkpt><trkpt lat="42.677615148433425" lon="13.026509277445042"><ele>943.3333333333334</ele><time>2026-04-22T16:15:02Z</time></trkpt><trkpt lat="42.67753701442123" lon="13.026531620096456"><ele>942.1666666666667</ele><time>2026-04-22T16:15:03Z</time></trkpt><trkpt lat="42.67746736273383" lon="13.02655652925105"><ele>941.0</ele><time>2026-04-22T16:15:04Z</time></trkpt><trkpt lat="42.677402967684344" lon="13.026598122940507"><ele>932.75</ele><time>2026-04-22T16:15:05Z</time></trkpt><trkpt lat="42.67732757538984" lon="13.026684325700487"><ele>924.5</ele><time>2026-04-22T16:15:06Z</time></trkpt><trkpt lat="42.6772469406688" lon="13.0267850833725"><ele>916.25</ele><time>2026-04-22T16:15:07Z</time></trkpt><trkpt lat="42.67715147940093" lon="13.026899856032994"><ele>908.0</ele><time>2026-04-22T16:15:08Z</time></trkpt><trkpt lat="42.67705457881288" lon="13.027020848417074"><ele>908.0</ele><time>2026-04-22T16:15:09Z</time></trkpt><trkpt lat="42.67695797958065" lon="13.027130429581733"><ele>908.0</ele><time>2026-04-22T16:15:10Z</time></trkpt><trkpt lat="42.6768780195988" lon="13.027253550371146"><ele>908.0</ele><time>2026-04-22T16:15:11Z</time></trkpt><trkpt lat="42.67680611576504" lon="13.027370686178092"><ele>908.0</ele><time>2026-04-22T16:15:12Z</time></trkpt><trkpt lat="42.676720557415926" lon="13.027470875784305"><ele>907.5999999999999</ele><time>2026-04-22T16:15:13Z</time></trkpt><trkpt lat="42.67662928513751" lon="13.027542762764801"><ele>907.1999999999999</ele><time>2026-04-22T16:15:14Z</time></trkpt><trkpt lat="42.67653764779922" lon="13.027585550280813"><ele>906.8</ele><time>2026-04-22T16:15:15Z</time></trkpt><trkpt lat="42.67642327303591" lon="13.027617221413543"><ele>906.4</ele><time>2026-04-22T16:15:16Z</time></trkpt><trkpt lat="42.67629634046749" lon="13.027652174727606"><ele>906.0</ele><time>2026-04-22T16:15:17Z</time></trkpt><trkpt lat="42.67617930552964" lon="13.02771112767223"><ele>911.75</ele><time>2026-04-22T16:15:18Z</time></trkpt><trkpt lat="42.67607923136382" lon="13.02779545399065"><ele>917.5</ele><time>2026-04-22T16:15:19Z</time></trkpt><trkpt lat="42.67598031245033" lon="13.027898790324707"><ele>923.25</ele><time>2026-04-22T16:15:20Z</time></trkpt><trkpt lat="42.675874981688565" lon="13.028017769395191"><ele>929.0</ele><time>2026-04-22T16:15:21Z</time></trkpt><trkpt lat="42.67575670904557" lon="13.028144741962002"><ele>929.0</ele><time>2026-04-22T16:15:22Z</time></trkpt><trkpt lat="42.67561842482983" lon="13.02826580635597"><ele>929.0</ele><time>2026-04-22T16:15:23Z</time></trkpt><trkpt lat="42.67549455665892" lon="13.028376384145048"><ele>929.0</ele><time>2026-04-22T16:15:24Z</time></trkpt><trkpt lat="42.67538650068974" lon="13.028491473010508"><ele>926.8000000000001</ele><time>2026-04-22T16:15:25Z</time></trkpt><trkpt lat="42.67530647920601" lon="13.028594636899358"><ele>924.6000000000001</ele><time>2026-04-22T16:15:26Z</time></trkpt><trkpt lat="42.675236753144844" lon="13.028697464814256"><ele>922.4</ele><time>2026-04-22T16:15:27Z</time></trkpt><trkpt lat="42.675172097477464" lon="13.028806757382302"><ele>920.2</ele><time>2026-04-22T16:15:28Z</time></trkpt><trkpt lat="42.675124213124796" lon="13.028949194016613"><ele>918.0</ele><time>2026-04-22T16:15:29Z</time></trkpt><trkpt lat="42.67506000858589" lon="13.029074262409376"><ele>920.5999999999999</ele><time>2026-04-22T16:15:30Z</time></trkpt><trkpt lat="42.67498613199818" lon="13.029163539209991"><ele>923.1999999999999</ele><time>2026-04-22T16:15:31Z</time></trkpt><trkpt lat="42.67489757223318" lon="13.02922386098903"><ele>925.8</ele><time>2026-04-22T16:15:32Z</time></trkpt><trkpt lat="42.674805996634" lon="13.0292752188965"><ele>928.4</ele><time>2026-04-22T16:15:33Z</time></trkpt><trkpt lat="42.67472491409295" lon="13.029329928658607"><ele>931.0</ele><time>2026-04-22T16:15:34Z</time></trkpt><trkpt lat="42.67465258649814" lon="13.029415873169006"><ele>930.9999999999999</ele><time>2026-04-22T16:15:35Z</time></trkpt><trkpt lat="42.674592807873495" lon="13.029512622652044"><ele>931.0</ele><time>2026-04-22T16:15:36Z</time></trkpt><trkpt lat="42.67453321939108" lon="13.029611438233514"><ele>931.0</ele><time>2026-04-22T16:15:37Z</time></trkpt><trkpt lat="42.674470352826305" lon="13.0296954448215"><ele>931.0</ele><time>2026-04-22T16:15:38Z</time></trkpt><trkpt lat="42.674395687705754" lon="13.029760660615576"><ele>930.9999999999999</ele><time>2026-04-22T16:15:39Z</time></trkpt><trkpt lat="42.674320437186886" lon="13.029807355736459"><ele>931.0</ele><time>2026-04-22T16:15:40Z</time></trkpt><trkpt lat="42.67424574273337" lon="13.029842294881778"><ele>934.0</ele><time>2026-04-22T16:15:41Z</time></trkpt><trkpt lat="42.67417167615079" lon="13.029885884526804"><ele>936.9999999999999</ele><time>2026-04-22T16:15:42Z</time></trkpt><trkpt lat="42.67410459881284" lon="13.029953139075435"><ele>939.9999999999999</ele><time>2026-04-22T16:15:43Z</time></trkpt><trkpt lat="42.67404283338877" lon="13.03005596406441"><ele>943.0</ele><time>2026-04-22T16:15:44Z</time></trkpt><trkpt lat="42.67396940810581" lon="13.030170987303931"><ele>946.0</ele><time>2026-04-22T16:15:45Z</time></trkpt><trkpt lat="42.67389912161363" lon="13.030280410690006"><ele>946.0</ele><time>2026-04-22T16:15:46Z</time></trkpt><trkpt lat="42.673827879311276" lon="13.03037622422871"><ele>945.9999999999999</ele><time>2026-04-22T16:15:47Z</time></trkpt><trkpt lat="42.673753918849876" lon="13.030474673588332"><ele>945.9999999999999</ele><time>2026-04-22T16:15:48Z</time></trkpt><trkpt lat="42.67367028672651" lon="13.030562250863357"><ele>946.0</ele><time>2026-04-22T16:15:49Z</time></trkpt><trkpt lat="42.673603430075" lon="13.030615805044231"><ele>946.0</ele><time>2026-04-22T16:15:50Z</time></trkpt><trkpt lat="42.67354302443674" lon="13.030641544624501"><ele>952.0</ele><time>2026-04-22T16:15:51Z</time></trkpt><trkpt lat="42.673423446842044" lon="13.030579638681571"><ele>957.9999999999999</ele><time>2026-04-22T16:15:53Z</time></trkpt><trkpt lat="42.67335377927002" lon="13.030534199249045"><ele>963.9999999999999</ele><time>2026-04-22T16:15:54Z</time></trkpt><trkpt lat="42.673269085613924" lon="13.030475648427695"><ele>970.0</ele><time>2026-04-22T16:15:55Z</time></trkpt><trkpt lat="42.67316719077955" lon="13.030443284916032"><ele>976.0</ele><time>2026-04-22T16:15:56Z</time></trkpt><trkpt lat="42.673075376446256" lon="13.030452770359464"><ele>975.9999999999999</ele><time>2026-04-22T16:15:57Z</time></trkpt><trkpt lat="42.673017531785" lon="13.030510140996002"><ele>976.0</ele><time>2026-04-22T16:15:58Z</time></trkpt><trkpt lat="42.67297065610424" lon="13.030582785745437"><ele>976.0</ele><time>2026-04-22T16:15:59Z</time></trkpt><trkpt lat="42.67291347765082" lon="13.030691288286931"><ele>976.0</ele><time>2026-04-22T16:16:00Z</time></trkpt><trkpt lat="42.67284710789202" lon="13.030782108841876"><ele>975.9999999999999</ele><time>2026-04-22T16:16:01Z</time></trkpt><trkpt lat="42.672776494341754" lon="13.030838998254865"><ele>976.0</ele><time>2026-04-22T16:16:02Z</time></trkpt><trkpt lat="42.672676476345096" lon="13.030884828519685"><ele>975.5999999999999</ele><time>2026-04-22T16:16:03Z</time></trkpt><trkpt lat="42.67257376619238" lon="13.030934306597466"><ele>975.1999999999999</ele><time>2026-04-22T16:16:04Z</time></trkpt><trkpt lat="42.67245904022899" lon="13.030989380637168"><ele>974.8000000000001</ele><time>2026-04-22T16:16:05Z</time></trkpt><trkpt lat="42.67235649190921" lon="13.031049620856075"><ele>974.4000000000001</ele><time>2026-04-22T16:16:06Z</time></trkpt><trkpt lat="42.67227251124976" lon="13.03111479882496"><ele>974.0</ele><time>2026-04-22T16:16:07Z</time></trkpt><trkpt lat="42.67220206664585" lon="13.031200014106068"><ele>974.0</ele><time>2026-04-22T16:16:08Z</time></trkpt><trkpt lat="42.67214671242273" lon="13.031312137077673"><ele>974.0000000000001</ele><time>2026-04-22T16:16:09Z</time></trkpt><trkpt lat="42.672093867066174" lon="13.031437399246355"><ele>974.0000000000001</ele><time>2026-04-22T16:16:10Z</time></trkpt><trkpt lat="42.67203275089768" lon="13.031563984091738"><ele>974.0</ele><time>2026-04-22T16:16:11Z</time></trkpt><trkpt lat="42.67196615190835" lon="13.031687881211324"><ele>974.0</ele><time>2026-04-22T16:16:12Z</time></trkpt><trkpt lat="42.67190324053303" lon="13.031810881790648"><ele>976.6</ele><time>2026-04-22T16:16:13Z</time></trkpt><trkpt lat="42.67184844623273" lon="13.031936566549595"><ele>979.2</ele><time>2026-04-22T16:16:14Z</time></trkpt><trkpt lat="42.67181184685713" lon="13.032066430994849"><ele>981.8000000000001</ele><time>2026-04-22T16:16:15Z</time></trkpt><trkpt lat="42.671795273123365" lon="13.032161614932754"><ele>984.4000000000001</ele><time>2026-04-22T16:16:16Z</time></trkpt><trkpt lat="42.671716149185926" lon="13.03225462563637"><ele>987.0</ele><time>2026-04-22T16:16:18Z</time></trkpt><trkpt lat="42.671653543705" lon="13.032293067936262"><ele>987.0</ele><time>2026-04-22T16:16:19Z</time></trkpt><trkpt lat="42.67157660736169" lon="13.032342096792558"><ele>987.0</ele><time>2026-04-22T16:16:20Z</time></trkpt><trkpt lat="42.67149556786391" lon="13.032385931279839"><ele>987.0</ele><time>2026-04-22T16:16:21Z</time></trkpt><trkpt lat="42.67139326574984" lon="13.032418948582933"><ele>987.0</ele><time>2026-04-22T16:16:22Z</time></trkpt><trkpt lat="42.67129823968182" lon="13.03243453095681"><ele>987.0</ele><time>2026-04-22T16:16:23Z</time></trkpt><trkpt lat="42.67120781074928" lon="13.032451856206226"><ele>987.0</ele><time>2026-04-22T16:16:24Z</time></trkpt><trkpt lat="42.67113643793045" lon="13.032450194176027"><ele>987.0</ele><time>2026-04-22T16:16:25Z</time></trkpt><trkpt lat="42.67102306603106" lon="13.032340736069312"><ele>987.0</ele><time>2026-04-22T16:16:27Z</time></trkpt><trkpt lat="42.67095737264303" lon="13.032252884750363"><ele>987.0</ele><time>2026-04-22T16:16:28Z</time></trkpt><trkpt lat="42.67088824230842" lon="13.032190722437662"><ele>987.0</ele><time>2026-04-22T16:16:29Z</time></trkpt><trkpt lat="42.67080306159607" lon="13.032153070112846"><ele>991.2</ele><time>2026-04-22T16:16:30Z</time></trkpt><trkpt lat="42.67070447582737" lon="13.032129150335548"><ele>995.4000000000001</ele><time>2026-04-22T16:16:31Z</time></trkpt><trkpt lat="42.670601462258645" lon="13.032121868763081"><ele>999.5999999999999</ele><time>2026-04-22T16:16:32Z</time></trkpt><trkpt lat="42.6704839132154" lon="13.032108218727036"><ele>1003.8</ele><time>2026-04-22T16:16:33Z</time></trkpt><trkpt lat="42.67036659090521" lon="13.032103347249759"><ele>1008.0</ele><time>2026-04-22T16:16:34Z</time></trkpt><trkpt lat="42.67025614116563" lon="13.032114435326033"><ele>1011.4</ele><time>2026-04-22T16:16:35Z</time></trkpt><trkpt lat="42.67014988431812" lon="13.032141521322862"><ele>1014.8</ele><time>2026-04-22T16:16:36Z</time></trkpt><trkpt lat="42.670041558141115" lon="13.032170450834908"><ele>1018.2</ele><time>2026-04-22T16:16:37Z</time></trkpt><trkpt lat="42.669950200438166" lon="13.032218746650848"><ele>1021.6</ele><time>2026-04-22T16:16:38Z</time></trkpt><trkpt lat="42.669834044013946" lon="13.032284027914477"><ele>1025.0</ele><time>2026-04-22T16:16:39Z</time></trkpt><trkpt lat="42.66972087114722" lon="13.032355367761191"><ele>1025.0</ele><time>2026-04-22T16:16:40Z</time></trkpt><trkpt lat="42.66960932627063" lon="13.032415446622455"><ele>1025.0</ele><time>2026-04-22T16:16:41Z</time></trkpt><trkpt lat="42.669492113280874" lon="13.032466167851835"><ele>1025.0</ele><time>2026-04-22T16:16:42Z</time></trkpt><trkpt lat="42.66937668779966" lon="13.03251516452098"><ele>1025.0</ele><time>2026-04-22T16:16:43Z</time></trkpt><trkpt lat="42.66926733364815" lon="13.0325691410091"><ele>1023.2</ele><time>2026-04-22T16:16:44Z</time></trkpt><trkpt lat="42.669158939198184" lon="13.032621402086347"><ele>1021.4</ele><time>2026-04-22T16:16:45Z</time></trkpt><trkpt lat="42.66906055472271" lon="13.032649902946753"><ele>1019.5999999999999</ele><time>2026-04-22T16:16:46Z</time></trkpt><trkpt lat="42.66895183603156" lon="13.032678547453468"><ele>1017.8</ele><time>2026-04-22T16:16:47Z</time></trkpt><trkpt lat="42.66884636226293" lon="13.032704880447858"><ele>1016.0</ele><time>2026-04-22T16:16:48Z</time></trkpt><trkpt lat="42.66872082532696" lon="13.032743875059795"><ele>1019.5999999999999</ele><time>2026-04-22T16:16:49Z</time></trkpt><trkpt lat="42.668606425501864" lon="13.032765163817182"><ele>1023.1999999999999</ele><time>2026-04-22T16:16:50Z</time></trkpt><trkpt lat="42.66849708589845" lon="13.032769733603375"><ele>1026.8000000000002</ele><time>2026-04-22T16:16:51Z</time></trkpt><trkpt lat="42.6683982023578" lon="13.03278044913249"><ele>1030.4</ele><time>2026-04-22T16:16:52Z</time></trkpt><trkpt lat="42.6683261996569" lon="13.03277871809889"><ele>1034.0</ele><time>2026-04-22T16:16:53Z</time></trkpt><trkpt lat="42.668237793156926" lon="13.032756518718198"><ele>1034.0</ele><time>2026-04-22T16:16:54Z</time></trkpt><trkpt lat="42.66815787173147" lon="13.03270592657768"><ele>1034.0</ele><time>2026-04-22T16:16:55Z</time></trkpt><trkpt lat="42.66807778739803" lon="13.032645116008027"><ele>1034.0</ele><time>2026-04-22T16:16:56Z</time></trkpt><trkpt lat="42.66798369726651" lon="13.03258834559316"><ele>1034.0</ele><time>2026-04-22T16:16:57Z</time></trkpt><trkpt lat="42.6678646637789" lon="13.032556291724621"><ele>1034.0</ele><time>2026-04-22T16:16:58Z</time></trkpt><trkpt lat="42.667746524497836" lon="13.032534709982025"><ele>1034.4</ele><time>2026-04-22T16:16:59Z</time></trkpt><trkpt lat="42.66762684856059" lon="13.032512426096613"><ele>1034.8000000000002</ele><time>2026-04-22T16:17:00Z</time></trkpt><trkpt lat="42.66753609112731" lon="13.032482060885416"><ele>1035.1999999999998</ele><time>2026-04-22T16:17:01Z</time></trkpt><trkpt lat="42.667455906746056" lon="13.03244186607985"><ele>1035.6</ele><time>2026-04-22T16:17:02Z</time></trkpt><trkpt lat="42.667388088621294" lon="13.032373270148101"><ele>1036.0</ele><time>2026-04-22T16:17:03Z</time></trkpt><trkpt lat="42.667317025605676" lon="13.032282257949804"><ele>1039.2</ele><time>2026-04-22T16:17:04Z</time></trkpt><trkpt lat="42.66723933874419" lon="13.032197538238723"><ele>1042.3999999999999</ele><time>2026-04-22T16:17:05Z</time></trkpt><trkpt lat="42.667145572466914" lon="13.032137513547655"><ele>1045.6</ele><time>2026-04-22T16:17:06Z</time></trkpt><trkpt lat="42.66704030105654" lon="13.03208822473263"><ele>1048.8</ele><time>2026-04-22T16:17:07Z</time></trkpt><trkpt lat="42.66693382673689" lon="13.032027736332383"><ele>1052.0</ele><time>2026-04-22T16:17:08Z</time></trkpt><trkpt lat="42.66684414123892" lon="13.031973935299812"><ele>1052.0</ele><time>2026-04-22T16:17:09Z</time></trkpt><trkpt lat="42.66675737502665" lon="13.031932265323855"><ele>1052.0</ele><time>2026-04-22T16:17:10Z</time></trkpt><trkpt lat="42.666659264264915" lon="13.031900798339475"><ele>1052.0</ele><time>2026-04-22T16:17:11Z</time></trkpt><trkpt lat="42.66654880683666" lon="13.031878820943492"><ele>1052.0</ele><time>2026-04-22T16:17:12Z</time></trkpt><trkpt lat="42.66643878529324" lon="13.031841874289688"><ele>1052.0</ele><time>2026-04-22T16:17:13Z</time></trkpt><trkpt lat="42.6663395469479" lon="13.031781587896255"><ele>1052.0</ele><time>2026-04-22T16:17:14Z</time></trkpt><trkpt lat="42.666238465654594" lon="13.03171857772544"><ele>1052.0</ele><time>2026-04-22T16:17:15Z</time></trkpt><trkpt lat="42.666126545517294" lon="13.03167983733626"><ele>1052.0</ele><time>2026-04-22T16:17:16Z</time></trkpt><trkpt lat="42.6660214341435" lon="13.031662411516368"><ele>1052.0</ele><time>2026-04-22T16:17:17Z</time></trkpt><trkpt lat="42.66591179512623" lon="13.031655791325514"><ele>1052.0</ele><time>2026-04-22T16:17:18Z</time></trkpt><trkpt lat="42.665799997832586" lon="13.031661028698753"><ele>1053.75</ele><time>2026-04-22T16:17:19Z</time></trkpt><trkpt lat="42.665688535383566" lon="13.03166940652367"><ele>1055.5</ele><time>2026-04-22T16:17:20Z</time></trkpt><trkpt lat="42.66557037537612" lon="13.031655603405705"><ele>1057.25</ele><time>2026-04-22T16:17:21Z</time></trkpt><trkpt lat="42.665450473903135" lon="13.031612773973979"><ele>1059.0</ele><time>2026-04-22T16:17:22Z</time></trkpt><trkpt lat="42.66533227242258" lon="13.031557222595632"><ele>1062.25</ele><time>2026-04-22T16:17:23Z</time></trkpt><trkpt lat="42.665221383838194" lon="13.031524573989252"><ele>1065.5</ele><time>2026-04-22T16:17:24Z</time></trkpt><trkpt lat="42.665113659604295" lon="13.031542546729396"><ele>1068.75</ele><time>2026-04-22T16:17:25Z</time></trkpt><trkpt lat="42.66501653897125" lon="13.031600368177298"><ele>1072.0</ele><time>2026-04-22T16:17:26Z</time></trkpt><trkpt lat="42.6649110044106" lon="13.031690266893543"><ele>1072.0</ele><time>2026-04-22T16:17:27Z</time></trkpt><trkpt lat="42.66480662179225" lon="13.031761419477078"><ele>1072.0</ele><time>2026-04-22T16:17:28Z</time></trkpt><trkpt lat="42.66468679067085" lon="13.03181232845168"><ele>1072.0</ele><time>2026-04-22T16:17:29Z</time></trkpt><trkpt lat="42.66456214363955" lon="13.03184303595967"><ele>1072.0</ele><time>2026-04-22T16:17:30Z</time></trkpt><trkpt lat="42.66445172588638" lon="13.031863457675724"><ele>1075.0</ele><time>2026-04-22T16:17:31Z</time></trkpt><trkpt lat="42.664340746897025" lon="13.031902814961619"><ele>1078.0</ele><time>2026-04-22T16:17:32Z</time></trkpt><trkpt lat="42.6642423901422" lon="13.031961147424202"><ele>1081.0</ele><time>2026-04-22T16:17:33Z</time></trkpt><trkpt lat="42.66413637413496" lon="13.032022205021118"><ele>1084.0</ele><time>2026-04-22T16:17:34Z</time></trkpt><trkpt lat="42.66403493286301" lon="13.032060707228467"><ele>1087.0</ele><time>2026-04-22T16:17:35Z</time></trkpt><trkpt lat="42.6639365922114" lon="13.032064337718811"><ele>1087.0</ele><time>2026-04-22T16:17:36Z</time></trkpt><trkpt lat="42.663839504700135" lon="13.032068315315366"><ele>1087.0</ele><time>2026-04-22T16:17:37Z</time></trkpt><trkpt lat="42.66374608534903" lon="13.032101791896224"><ele>1087.0</ele><time>2026-04-22T16:17:38Z</time></trkpt><trkpt lat="42.66363967885994" lon="13.032146611702562"><ele>1087.0</ele><time>2026-04-22T16:17:39Z</time></trkpt><trkpt lat="42.66351633028765" lon="13.032203514064689"><ele>1087.0</ele><time>2026-04-22T16:17:40Z</time></trkpt><trkpt lat="42.66337962450077" lon="13.032260449468236"><ele>1093.25</ele><time>2026-04-22T16:17:41Z</time></trkpt><trkpt lat="42.66323390057157" lon="13.032296130272881"><ele>1099.5</ele><time>2026-04-22T16:17:42Z</time></trkpt><trkpt lat="42.66308971251245" lon="13.032307609027145"><ele>1105.75</ele><time>2026-04-22T16:17:43Z</time></trkpt><trkpt lat="42.66295363025295" lon="13.032308998576287"><ele>1112.0</ele><time>2026-04-22T16:17:44Z</time></trkpt><trkpt lat="42.66283017916597" lon="13.03229873708055"><ele>1117.75</ele><time>2026-04-22T16:17:45Z</time></trkpt><trkpt lat="42.66269531675981" lon="13.03228920866181"><ele>1123.5</ele><time>2026-04-22T16:17:46Z</time></trkpt><trkpt lat="42.66256910337524" lon="13.032267672968294"><ele>1129.25</ele><time>2026-04-22T16:17:47Z</time></trkpt><trkpt lat="42.66245471942622" lon="13.032225667171721"><ele>1135.0</ele><time>2026-04-22T16:17:48Z</time></trkpt><trkpt lat="42.66238573034352" lon="13.032226815190961"><ele>1135.0</ele><time>2026-04-22T16:17:49Z</time></trkpt><trkpt lat="42.662305773281226" lon="13.032267200178596"><ele>1135.0</ele><time>2026-04-22T16:17:51Z</time></trkpt><trkpt lat="42.66219205662773" lon="13.032359373157478"><ele>1135.0</ele><time>2026-04-22T16:17:53Z</time></trkpt><trkpt lat="42.6621258187158" lon="13.032408764786528"><ele>1135.0</ele><time>2026-04-22T16:17:54Z</time></trkpt><trkpt lat="42.66200716994878" lon="13.032438950328359"><ele>1135.0</ele><time>2026-04-22T16:17:56Z</time></trkpt><trkpt lat="42.66193305772826" lon="13.032412677987594"><ele>1135.2</ele><time>2026-04-22T16:17:57Z</time></trkpt><trkpt lat="42.661845309047216" lon="13.032362100749515"><ele>1135.4</ele><time>2026-04-22T16:17:58Z</time></trkpt><trkpt lat="42.661750381362836" lon="13.032302078101443"><ele>1135.6</ele><time>2026-04-22T16:17:59Z</time></trkpt><trkpt lat="42.66164368112639" lon="13.032248905658884"><ele>1135.8</ele><time>2026-04-22T16:18:00Z</time></trkpt><trkpt lat="42.66154398652201" lon="13.032183622821872"><ele>1136.0</ele><time>2026-04-22T16:18:01Z</time></trkpt><trkpt lat="42.6614553311843" lon="13.032095987186405"><ele>1136.0</ele><time>2026-04-22T16:18:02Z</time></trkpt><trkpt lat="42.66137599772678" lon="13.031992681789774"><ele>1136.0</ele><time>2026-04-22T16:18:03Z</time></trkpt><trkpt lat="42.66129750767796" lon="13.031889111076211"><ele>1136.0</ele><time>2026-04-22T16:18:04Z</time></trkpt><trkpt lat="42.66121686883276" lon="13.031809254939903"><ele>1136.0</ele><time>2026-04-22T16:18:05Z</time></trkpt><trkpt lat="42.66112730539789" lon="13.031732059267304"><ele>1136.0</ele><time>2026-04-22T16:18:06Z</time></trkpt><trkpt lat="42.6610313843704" lon="13.031650520950105"><ele>1136.8</ele><time>2026-04-22T16:18:07Z</time></trkpt><trkpt lat="42.66093646780488" lon="13.031561005882422"><ele>1137.6</ele><time>2026-04-22T16:18:08Z</time></trkpt><trkpt lat="42.660859417256034" lon="13.031467407085408"><ele>1138.4</ele><time>2026-04-22T16:18:09Z</time></trkpt><trkpt lat="42.66080200350198" lon="13.031354018638016"><ele>1139.2</ele><time>2026-04-22T16:18:10Z</time></trkpt><trkpt lat="42.66074498051214" lon="13.031225191013775"><ele>1140.0</ele><time>2026-04-22T16:18:11Z</time></trkpt><trkpt lat="42.66068414796808" lon="13.031092706807328"><ele>1140.0</ele><time>2026-04-22T16:18:12Z</time></trkpt><trkpt lat="42.66061742436663" lon="13.03095330026015"><ele>1140.0</ele><time>2026-04-22T16:18:13Z</time></trkpt><trkpt lat="42.660555979167626" lon="13.030793915461974"><ele>1140.0</ele><time>2026-04-22T16:18:14Z</time></trkpt><trkpt lat="42.66050097431657" lon="13.030636293030716"><ele>1140.0</ele><time>2026-04-22T16:18:15Z</time></trkpt><trkpt lat="42.660462077282475" lon="13.030482091838907"><ele>1143.5</ele><time>2026-04-22T16:18:16Z</time></trkpt><trkpt lat="42.66042721557033" lon="13.030339773001028"><ele>1147.0</ele><time>2026-04-22T16:18:17Z</time></trkpt><trkpt lat="42.66037066863615" lon="13.030199407811253"><ele>1150.5</ele><time>2026-04-22T16:18:18Z</time></trkpt><trkpt lat="42.66029421103093" lon="13.030061907209452"><ele>1154.0</ele><time>2026-04-22T16:18:19Z</time></trkpt><trkpt lat="42.66018661206574" lon="13.029936983149733"><ele>1154.0</ele><time>2026-04-22T16:18:20Z</time></trkpt><trkpt lat="42.66007302507416" lon="13.02980638833201"><ele>1154.0</ele><time>2026-04-22T16:18:21Z</time></trkpt><trkpt lat="42.65996622573453" lon="13.029674551006817"><ele>1154.0</ele><time>2026-04-22T16:18:22Z</time></trkpt><trkpt lat="42.65987314736893" lon="13.029543766779103"><ele>1154.0</ele><time>2026-04-22T16:18:23Z</time></trkpt><trkpt lat="42.65977430897822" lon="13.029422356462675"><ele>1154.0</ele><time>2026-04-22T16:18:24Z</time></trkpt><trkpt lat="42.659659645417165" lon="13.029303668031867"><ele>1154.0</ele><time>2026-04-22T16:18:25Z</time></trkpt><trkpt lat="42.659551957662785" lon="13.029208628132377"><ele>1154.0</ele><time>2026-04-22T16:18:26Z</time></trkpt><trkpt lat="42.65944693180773" lon="13.029108444435844"><ele>1154.0</ele><time>2026-04-22T16:18:27Z</time></trkpt><trkpt lat="42.65935668206956" lon="13.02900564043411"><ele>1154.8</ele><time>2026-04-22T16:18:28Z</time></trkpt><trkpt lat="42.65927619389701" lon="13.028915089621293"><ele>1155.6000000000001</ele><time>2026-04-22T16:18:29Z</time></trkpt><trkpt lat="42.659198939669004" lon="13.028853485548519"><ele>1156.4</ele><time>2026-04-22T16:18:30Z</time></trkpt><trkpt lat="42.65910468355903" lon="13.02882028909543"><ele>1157.2</ele><time>2026-04-22T16:18:31Z</time></trkpt><trkpt lat="42.65900555911511" lon="13.028782974141302"><ele>1158.0</ele><time>2026-04-22T16:18:32Z</time></trkpt><trkpt lat="42.65893312223705" lon="13.028760620971422"><ele>1158.0</ele><time>2026-04-22T16:18:33Z</time></trkpt><trkpt lat="42.65886781370587" lon="13.028725921056953"><ele>1158.0</ele><time>2026-04-22T16:18:34Z</time></trkpt><trkpt lat="42.658769629098586" lon="13.02871585046162"><ele>1158.0</ele><time>2026-04-22T16:18:36Z</time></trkpt><trkpt lat="42.658703495075585" lon="13.028745273110113"><ele>1158.0</ele><time>2026-04-22T16:18:37Z</time></trkpt><trkpt lat="42.658624223775114" lon="13.028769923376169"><ele>1158.0</ele><time>2026-04-22T16:18:38Z</time></trkpt><trkpt lat="42.658548650778236" lon="13.02879860038915"><ele>1158.0</ele><time>2026-04-22T16:18:39Z</time></trkpt><trkpt lat="42.65847310650174" lon="13.028815624850292"><ele>1156.6666666666667</ele><time>2026-04-22T16:18:40Z</time></trkpt><trkpt lat="42.65840893303623" lon="13.028838169676595"><ele>1155.3333333333333</ele><time>2026-04-22T16:18:41Z</time></trkpt><trkpt lat="42.65831686030739" lon="13.028875790764678"><ele>1154.0</ele><time>2026-04-22T16:18:43Z</time></trkpt><trkpt lat="42.65822849395767" lon="13.02893861160406"><ele>1152.6666666666665</ele><time>2026-04-22T16:18:44Z</time></trkpt><trkpt lat="42.6581640105977" lon="13.028969564656624"><ele>1151.3333333333333</ele><time>2026-04-22T16:18:45Z</time></trkpt><trkpt lat="42.65810138310872" lon="13.028999835185033"><ele>1150.0</ele><time>2026-04-22T16:18:46Z</time></trkpt><trkpt lat="42.6579994333012" lon="13.029090464343259"><ele>1150.6</ele><time>2026-04-22T16:18:48Z</time></trkpt><trkpt lat="42.65788512157362" lon="13.029158405511739"><ele>1151.2</ele><time>2026-04-22T16:18:50Z</time></trkpt><trkpt lat="42.657821384475746" lon="13.029213875630813"><ele>1151.8</ele><time>2026-04-22T16:18:52Z</time></trkpt><trkpt lat="42.65781857857281" lon="13.029304971350625"><ele>1152.4</ele><time>2026-04-22T16:18:55Z</time></trkpt><trkpt lat="42.657901781948304" lon="13.029344702893617"><ele>1153.0</ele><time>2026-04-22T16:19:21Z</time></trkpt><trkpt lat="42.657991441252065" lon="13.029407201018048"><ele>1153.0</ele><time>2026-04-22T16:19:23Z</time></trkpt><trkpt lat="42.65807236887062" lon="13.029517691680518"><ele>1153.0</ele><time>2026-04-22T16:19:25Z</time></trkpt><trkpt lat="42.658108585748955" lon="13.029648449031926"><ele>1153.0</ele><time>2026-04-22T16:19:27Z</time></trkpt><trkpt lat="42.658172904690744" lon="13.029779929072507"><ele>1153.0</ele><time>2026-04-22T16:19:29Z</time></trkpt><trkpt lat="42.658217235834904" lon="13.029843371324292"><ele>1153.0</ele><time>2026-04-22T16:19:30Z</time></trkpt><trkpt lat="42.65829092379856" lon="13.029921578333889"><ele>1155.4</ele><time>2026-04-22T16:19:32Z</time></trkpt><trkpt lat="42.658375207560624" lon="13.030001575205885"><ele>1157.8</ele><time>2026-04-22T16:19:34Z</time></trkpt><trkpt lat="42.65845807297311" lon="13.030108792135659"><ele>1160.2</ele><time>2026-04-22T16:19:36Z</time></trkpt><trkpt lat="42.65853022901305" lon="13.030231513045686"><ele>1162.6</ele><time>2026-04-22T16:19:38Z</time></trkpt><trkpt lat="42.65852502678069" lon="13.030379729973978"><ele>1165.0</ele><time>2026-04-22T16:19:40Z</time></trkpt><trkpt lat="42.65852538847466" lon="13.030502777268131"><ele>1165.0</ele><time>2026-04-22T16:19:42Z</time></trkpt><trkpt lat="42.6585850314705" lon="13.030532557339741"><ele>1165.0</ele><time>2026-04-22T16:20:37Z</time></trkpt><trkpt lat="42.658655295733425" lon="13.030488772974264"><ele>1165.0</ele><time>2026-04-22T16:20:40Z</time></trkpt><trkpt lat="42.65873801640299" lon="13.030513708092887"><ele>1165.0</ele><time>2026-04-22T16:20:43Z</time></trkpt><trkpt lat="42.65879992080216" lon="13.030601624347108"><ele>1165.0</ele><time>2026-04-22T16:20:46Z</time></trkpt><trkpt lat="42.65883726068764" lon="13.03067185304375"><ele>1165.0</ele><time>2026-04-22T16:20:49Z</time></trkpt><trkpt lat="42.65877607869119" lon="13.030584547963784"><ele>1165.0</ele><time>2026-04-22T16:25:53.999Z</time></trkpt><trkpt lat="42.65871653034842" lon="13.030504875151065"><ele>1165.0</ele><time>2026-04-22T16:25:55.999Z</time></trkpt><trkpt lat="42.65862721400738" lon="13.030469147009144"><ele>1165.0</ele><time>2026-04-22T16:25:58.999Z</time></trkpt><trkpt lat="42.65855830050752" lon="13.03048709724974"><ele>1165.0</ele><time>2026-04-22T16:26:00.999Z</time></trkpt><trkpt lat="42.658498153732815" lon="13.030564941174344"><ele>1165.0</ele><time>2026-04-22T16:26:03.999Z</time></trkpt><trkpt lat="42.65847813228986" lon="13.030711853012349"><ele>1165.0</ele><time>2026-04-22T16:26:07Z</time></trkpt><trkpt lat="42.65851388729499" lon="13.030844204209616"><ele>1166.6</ele><time>2026-04-22T16:26:09Z</time></trkpt><trkpt lat="42.65858948871554" lon="13.030971811222372"><ele>1168.2</ele><time>2026-04-22T16:26:11Z</time></trkpt><trkpt lat="42.65863972799481" lon="13.031034244840523"><ele>1169.8</ele><time>2026-04-22T16:26:12Z</time></trkpt><trkpt lat="42.65868726539589" lon="13.031100226729231"><ele>1171.4</ele><time>2026-04-22T16:26:13Z</time></trkpt><trkpt lat="42.65876026203954" lon="13.031253462063287"><ele>1173.0</ele><time>2026-04-22T16:26:15Z</time></trkpt><trkpt lat="42.65879947273157" lon="13.031346811209815"><ele>1173.0</ele><time>2026-04-22T16:26:16Z</time></trkpt><trkpt lat="42.65884639456117" lon="13.031443063606371"><ele>1173.0</ele><time>2026-04-22T16:26:17Z</time></trkpt><trkpt lat="42.65889566225838" lon="13.031543214708051"><ele>1173.0</ele><time>2026-04-22T16:26:18Z</time></trkpt><trkpt lat="42.658954152128665" lon="13.031643783946205"><ele>1173.0</ele><time>2026-04-22T16:26:19Z</time></trkpt><trkpt lat="42.65900785775717" lon="13.031753562482498"><ele>1173.0</ele><time>2026-04-22T16:26:20Z</time></trkpt><trkpt lat="42.659046650421246" lon="13.031864937052449"><ele>1174.6666666666667</ele><time>2026-04-22T16:26:21Z</time></trkpt><trkpt lat="42.65908654588988" lon="13.031961092963979"><ele>1176.3333333333333</ele><time>2026-04-22T16:26:22Z</time></trkpt><trkpt lat="42.65913259933329" lon="13.032062992758991"><ele>1178.0</ele><time>2026-04-22T16:26:23Z</time></trkpt><trkpt lat="42.6591827846038" lon="13.032168383422725"><ele>1179.6666666666665</ele><time>2026-04-22T16:26:24Z</time></trkpt><trkpt lat="42.65922701442149" lon="13.032271246974927"><ele>1181.3333333333333</ele><time>2026-04-22T16:26:25Z</time></trkpt><trkpt lat="42.65926611659132" lon="13.032363616450784"><ele>1183.0</ele><time>2026-04-22T16:26:26Z</time></trkpt><trkpt lat="42.659312921759074" lon="13.032468338187497"><ele>1181.3333333333333</ele><time>2026-04-22T16:26:27Z</time></trkpt><trkpt lat="42.65935294995225" lon="13.032580877941317"><ele>1179.6666666666665</ele><time>2026-04-22T16:26:28Z</time></trkpt><trkpt lat="42.65939248898336" lon="13.032674926228548"><ele>1178.0</ele><time>2026-04-22T16:26:29Z</time></trkpt><trkpt lat="42.65944726614028" lon="13.032740537862615"><ele>1176.3333333333333</ele><time>2026-04-22T16:26:30Z</time></trkpt><trkpt lat="42.65950075339586" lon="13.032816562135377"><ele>1174.6666666666667</ele><time>2026-04-22T16:26:31Z</time></trkpt><trkpt lat="42.6595573656269" lon="13.03289666655658"><ele>1173.0</ele><time>2026-04-22T16:26:32Z</time></trkpt><trkpt lat="42.65961641246058" lon="13.032977096409388"><ele>1173.0000000000002</ele><time>2026-04-22T16:26:33Z</time></trkpt><trkpt lat="42.65967178524046" lon="13.0330545554345"><ele>1173.0</ele><time>2026-04-22T16:26:34Z</time></trkpt><trkpt lat="42.65972623789105" lon="13.033125395911082"><ele>1173.0</ele><time>2026-04-22T16:26:35Z</time></trkpt><trkpt lat="42.65977693950855" lon="13.033180585628243"><ele>1173.0</ele><time>2026-04-22T16:26:36Z</time></trkpt><trkpt lat="42.65982742268506" lon="13.033242694032756"><ele>1173.0</ele><time>2026-04-22T16:26:37Z</time></trkpt><trkpt lat="42.65987653737375" lon="13.033329977099495"><ele>1173.0000000000002</ele><time>2026-04-22T16:26:38Z</time></trkpt><trkpt lat="42.6599213110013" lon="13.033421453566199"><ele>1173.0</ele><time>2026-04-22T16:26:39Z</time></trkpt><trkpt lat="42.65995934968284" lon="13.033513985127529"><ele>1176.3333333333333</ele><time>2026-04-22T16:26:40Z</time></trkpt><trkpt lat="42.66000829657561" lon="13.033627262236301"><ele>1179.6666666666667</ele><time>2026-04-22T16:26:41Z</time></trkpt><trkpt lat="42.66005807733922" lon="13.033743355495103"><ele>1183.0</ele><time>2026-04-22T16:26:42Z</time></trkpt><trkpt lat="42.660097374306254" lon="13.033834847886808"><ele>1186.3333333333335</ele><time>2026-04-22T16:26:43Z</time></trkpt><trkpt lat="42.66013638826746" lon="13.033910248220094"><ele>1189.6666666666667</ele><time>2026-04-22T16:26:44Z</time></trkpt><trkpt lat="42.660184536120106" lon="13.034001493833152"><ele>1193.0</ele><time>2026-04-22T16:26:45Z</time></trkpt><trkpt lat="42.66023563884326" lon="13.03408862033379"><ele>1192.6666666666667</ele><time>2026-04-22T16:26:46Z</time></trkpt><trkpt lat="42.6602831544366" lon="13.034175422258008"><ele>1192.3333333333335</ele><time>2026-04-22T16:26:47Z</time></trkpt><trkpt lat="42.66033410326619" lon="13.034259023650536"><ele>1192.0</ele><time>2026-04-22T16:26:48Z</time></trkpt><trkpt lat="42.66038899108392" lon="13.034356936281835"><ele>1191.6666666666667</ele><time>2026-04-22T16:26:49Z</time></trkpt><trkpt lat="42.6604435128491" lon="13.03443655785054"><ele>1191.3333333333333</ele><time>2026-04-22T16:26:50Z</time></trkpt><trkpt lat="42.66051623634768" lon="13.0345181045975"><ele>1191.0</ele><time>2026-04-22T16:26:52Z</time></trkpt><trkpt lat="42.66062318672737" lon="13.034553950296376"><ele>1191.0</ele><time>2026-04-22T16:26:54Z</time></trkpt><trkpt lat="42.66069521461497" lon="13.034564512988384"><ele>1191.0</ele><time>2026-04-22T16:26:55Z</time></trkpt><trkpt lat="42.660768185308996" lon="13.03459068348206"><ele>1191.0</ele><time>2026-04-22T16:26:56Z</time></trkpt><trkpt lat="42.66084655665038" lon="13.034627958542455"><ele>1191.0</ele><time>2026-04-22T16:26:57Z</time></trkpt><trkpt lat="42.660914465627414" lon="13.034652375103082"><ele>1191.0</ele><time>2026-04-22T16:26:58Z</time></trkpt><trkpt lat="42.660992922968774" lon="13.034677700790724"><ele>1191.0</ele><time>2026-04-22T16:26:59Z</time></trkpt><trkpt lat="42.66107428307155" lon="13.03471992031018"><ele>1189.8</ele><time>2026-04-22T16:27:00Z</time></trkpt><trkpt lat="42.661151734634004" lon="13.034768037478667"><ele>1188.6</ele><time>2026-04-22T16:27:01Z</time></trkpt><trkpt lat="42.66122963935516" lon="13.03483235021407"><ele>1187.4</ele><time>2026-04-22T16:27:02Z</time></trkpt><trkpt lat="42.66130651408046" lon="13.034905230441035"><ele>1186.2</ele><time>2026-04-22T16:27:03Z</time></trkpt><trkpt lat="42.66137832465444" lon="13.034997092227423"><ele>1185.0</ele><time>2026-04-22T16:27:04Z</time></trkpt><trkpt lat="42.661439199597616" lon="13.035089570251065"><ele>1187.6666666666667</ele><time>2026-04-22T16:27:05Z</time></trkpt><trkpt lat="42.66148330037207" lon="13.035174049639663"><ele>1190.3333333333333</ele><time>2026-04-22T16:27:06Z</time></trkpt><trkpt lat="42.66152470188955" lon="13.03526256972611"><ele>1193.0</ele><time>2026-04-22T16:27:07Z</time></trkpt><trkpt lat="42.6615525956622" lon="13.035345618220452"><ele>1195.6666666666665</ele><time>2026-04-22T16:27:08Z</time></trkpt><trkpt lat="42.6615768597757" lon="13.035436523939525"><ele>1198.3333333333333</ele><time>2026-04-22T16:27:08.999Z</time></trkpt><trkpt lat="42.661591835198166" lon="13.035580823624986"><ele>1201.0</ele><time>2026-04-22T16:27:10.999Z</time></trkpt><trkpt lat="42.66156760014078" lon="13.035748333217457"><ele>1202.0</ele><time>2026-04-22T16:27:12.999Z</time></trkpt><trkpt lat="42.66154821552777" lon="13.035861695175898"><ele>1203.0</ele><time>2026-04-22T16:27:13.999Z</time></trkpt><trkpt lat="42.66155117556662" lon="13.035969039508053"><ele>1204.0</ele><time>2026-04-22T16:27:14.999Z</time></trkpt><trkpt lat="42.66156153887698" lon="13.036064358887426"><ele>1205.0</ele><time>2026-04-22T16:27:15.999Z</time></trkpt><trkpt lat="42.661589968263094" lon="13.036236069845195"><ele>1206.0</ele><time>2026-04-22T16:27:17.999Z</time></trkpt><trkpt lat="42.661615595747804" lon="13.036340277466605"><ele>1207.0</ele><time>2026-04-22T16:27:18.999Z</time></trkpt><trkpt lat="42.661634798425965" lon="13.036427579199094"><ele>1207.0</ele><time>2026-04-22T16:27:19.999Z</time></trkpt><trkpt lat="42.66167562533668" lon="13.036578384219982"><ele>1207.0</ele><time>2026-04-22T16:27:21.999Z</time></trkpt><trkpt lat="42.66170246707535" lon="13.036661665223397"><ele>1207.0</ele><time>2026-04-22T16:27:22.999Z</time></trkpt><trkpt lat="42.661723954066744" lon="13.036755583592868"><ele>1207.0</ele><time>2026-04-22T16:27:23.999Z</time></trkpt><trkpt lat="42.661748674098355" lon="13.036847334588085"><ele>1207.0</ele><time>2026-04-22T16:27:24.999Z</time></trkpt><trkpt lat="42.66177225486648" lon="13.03694319227816"><ele>1207.0</ele><time>2026-04-22T16:27:25.999Z</time></trkpt><trkpt lat="42.66178796210961" lon="13.037036415580806"><ele>1207.3333333333333</ele><time>2026-04-22T16:27:26.999Z</time></trkpt><trkpt lat="42.66180597455214" lon="13.037138543000564"><ele>1207.6666666666665</ele><time>2026-04-22T16:27:27.999Z</time></trkpt><trkpt lat="42.66182194501594" lon="13.037253849141356"><ele>1208.0</ele><time>2026-04-22T16:27:28.999Z</time></trkpt><trkpt lat="42.661837140846735" lon="13.03735834381559"><ele>1208.3333333333333</ele><time>2026-04-22T16:27:29.999Z</time></trkpt><trkpt lat="42.6618546598716" lon="13.037454004640685"><ele>1208.6666666666667</ele><time>2026-04-22T16:27:30.999Z</time></trkpt><trkpt lat="42.66187759769352" lon="13.037538965304424"><ele>1209.0</ele><time>2026-04-22T16:27:31.999Z</time></trkpt><trkpt lat="42.66189355350956" lon="13.037684248253294"><ele>1210.3333333333333</ele><time>2026-04-22T16:27:33.999Z</time></trkpt><trkpt lat="42.66189253166559" lon="13.03777633561845"><ele>1211.6666666666667</ele><time>2026-04-22T16:27:34.999Z</time></trkpt><trkpt lat="42.661887856974126" lon="13.037880282640122"><ele>1213.0</ele><time>2026-04-22T16:27:35.999Z</time></trkpt><trkpt lat="42.661878437454675" lon="13.037989788135107"><ele>1214.3333333333335</ele><time>2026-04-22T16:27:36.999Z</time></trkpt><trkpt lat="42.66187336881499" lon="13.038100329680868"><ele>1215.6666666666667</ele><time>2026-04-22T16:27:37.999Z</time></trkpt><trkpt lat="42.66186094047015" lon="13.03821230185819"><ele>1217.0</ele><time>2026-04-22T16:27:38.999Z</time></trkpt><trkpt lat="42.66185810455087" lon="13.038316928041594"><ele>1218.3333333333335</ele><time>2026-04-22T16:27:39.999Z</time></trkpt><trkpt lat="42.66186816529833" lon="13.03843482544142"><ele>1219.6666666666667</ele><time>2026-04-22T16:27:40.999Z</time></trkpt><trkpt lat="42.6618891417466" lon="13.03854479726658"><ele>1221.0</ele><time>2026-04-22T16:27:41.999Z</time></trkpt><trkpt lat="42.661918525867456" lon="13.03863936357714"><ele>1222.3333333333333</ele><time>2026-04-22T16:27:42.999Z</time></trkpt><trkpt lat="42.66194145313048" lon="13.038743451787317"><ele>1223.6666666666665</ele><time>2026-04-22T16:27:43.999Z</time></trkpt><trkpt lat="42.66195784271262" lon="13.038839700215101"><ele>1225.0</ele><time>2026-04-22T16:27:44.999Z</time></trkpt><trkpt lat="42.661969328040705" lon="13.03893526955776"><ele>1225.3333333333333</ele><time>2026-04-22T16:27:45.999Z</time></trkpt><trkpt lat="42.66197045401016" lon="13.039041612243889"><ele>1225.6666666666665</ele><time>2026-04-22T16:27:46.999Z</time></trkpt><trkpt lat="42.661970833966876" lon="13.039148441876053"><ele>1226.0</ele><time>2026-04-22T16:27:47.999Z</time></trkpt><trkpt lat="42.661983878732435" lon="13.039232862921141"><ele>1226.3333333333333</ele><time>2026-04-22T16:27:48.999Z</time></trkpt><trkpt lat="42.66200811146847" lon="13.039316052269953"><ele>1226.6666666666667</ele><time>2026-04-22T16:27:49.999Z</time></trkpt><trkpt lat="42.66209698806642" lon="13.039417632660337"><ele>1227.0</ele><time>2026-04-22T16:27:51.999Z</time></trkpt><trkpt lat="42.662172825295706" lon="13.039458645727278"><ele>1227.6666666666667</ele><time>2026-04-22T16:27:52.999Z</time></trkpt><trkpt lat="42.66222280351924" lon="13.039514377451907"><ele>1228.3333333333333</ele><time>2026-04-22T16:27:53.999Z</time></trkpt><trkpt lat="42.66225229545025" lon="13.039685363784722"><ele>1229.0</ele><time>2026-04-22T16:27:55.999Z</time></trkpt><trkpt lat="42.66224453543168" lon="13.039783315947828"><ele>1229.6666666666665</ele><time>2026-04-22T16:27:56.999Z</time></trkpt><trkpt lat="42.662233531194374" lon="13.039882046066214"><ele>1230.3333333333333</ele><time>2026-04-22T16:27:57.999Z</time></trkpt><trkpt lat="42.6622243885699" lon="13.039981034256911"><ele>1231.0</ele><time>2026-04-22T16:27:58.999Z</time></trkpt><trkpt lat="42.66221417889219" lon="13.040080106688809"><ele>1231.5</ele><time>2026-04-22T16:27:59.999Z</time></trkpt><trkpt lat="42.66220016088206" lon="13.040183559366625"><ele>1232.0</ele><time>2026-04-22T16:28:00.999Z</time></trkpt><trkpt lat="42.66217911831581" lon="13.040283135536757"><ele>1232.5</ele><time>2026-04-22T16:28:01.999Z</time></trkpt><trkpt lat="42.662164924895464" lon="13.040394376837794"><ele>1233.0</ele><time>2026-04-22T16:28:02.999Z</time></trkpt><trkpt lat="42.662154709381056" lon="13.040502712068978"><ele>1233.5</ele><time>2026-04-22T16:28:03.999Z</time></trkpt><trkpt lat="42.662145839183864" lon="13.040615910533235"><ele>1234.0</ele><time>2026-04-22T16:28:04.999Z</time></trkpt><trkpt lat="42.66214082235247" lon="13.040734554820439"><ele>1235.3333333333333</ele><time>2026-04-22T16:28:05.999Z</time></trkpt><trkpt lat="42.66214347225922" lon="13.040853581268928"><ele>1236.6666666666665</ele><time>2026-04-22T16:28:06.999Z</time></trkpt><trkpt lat="42.662135928484346" lon="13.040980396395076"><ele>1238.0</ele><time>2026-04-22T16:28:07.999Z</time></trkpt><trkpt lat="42.6621266912639" lon="13.041091943812877"><ele>1239.3333333333333</ele><time>2026-04-22T16:28:08.999Z</time></trkpt><trkpt lat="42.66212300721238" lon="13.041199150381178"><ele>1240.6666666666667</ele><time>2026-04-22T16:28:09.999Z</time></trkpt><trkpt lat="42.66211573533901" lon="13.041312032967973"><ele>1242.0</ele><time>2026-04-22T16:28:11Z</time></trkpt><trkpt lat="42.662112421897405" lon="13.041420287851274"><ele>1242.0</ele><time>2026-04-22T16:28:12Z</time></trkpt><trkpt lat="42.66210749623506" lon="13.041565412121725"><ele>1242.0</ele><time>2026-04-22T16:28:14Z</time></trkpt><trkpt lat="42.66207725407131" lon="13.041690909389347"><ele>1242.0</ele><time>2026-04-22T16:28:25Z</time></trkpt><trkpt lat="42.6620483069905" lon="13.041792945917628"><ele>1242.0</ele><time>2026-04-22T16:28:27Z</time></trkpt><trkpt lat="42.66201288393157" lon="13.04188091659004"><ele>1242.0</ele><time>2026-04-22T16:28:29Z</time></trkpt><trkpt lat="42.661955896207736" lon="13.041934691839977"><ele>1242.0</ele><time>2026-04-22T16:28:32Z</time></trkpt><trkpt lat="42.66183887846619" lon="13.041925046853693"><ele>1240.0</ele><time>2026-04-22T16:28:35Z</time></trkpt><trkpt lat="42.661727577707225" lon="13.041959056094612"><ele>1238.0</ele><time>2026-04-22T16:28:37Z</time></trkpt><trkpt lat="42.661660088825656" lon="13.04204470604519"><ele>1236.0</ele><time>2026-04-22T16:28:39Z</time></trkpt><trkpt lat="42.66157747419511" lon="13.042144024569506"><ele>1234.0</ele><time>2026-04-22T16:28:41Z</time></trkpt><trkpt lat="42.661502963868806" lon="13.042202100087417"><ele>1232.0</ele><time>2026-04-22T16:28:43Z</time></trkpt><trkpt lat="42.66143278220449" lon="13.042249644424455"><ele>1232.0</ele><time>2026-04-22T16:28:45Z</time></trkpt><trkpt lat="42.661368890377084" lon="13.04228144943244"><ele>1232.0</ele><time>2026-04-22T16:28:47Z</time></trkpt><trkpt lat="42.66129232610373" lon="13.04232207423529"><ele>1232.0</ele><time>2026-04-22T16:28:50Z</time></trkpt><trkpt lat="42.66138113950908" lon="13.04230325542585"><ele>1232.0</ele><time>2026-04-22T16:29:05.999Z</time></trkpt><trkpt lat="42.66152886617493" lon="13.042203988086024"><ele>1232.0</ele><time>2026-04-22T16:29:07.999Z</time></trkpt><trkpt lat="42.66160810437325" lon="13.042130984535895"><ele>1232.0</ele><time>2026-04-22T16:29:08.999Z</time></trkpt><trkpt lat="42.66165620075507" lon="13.042066413768433"><ele>1232.0</ele><time>2026-04-22T16:29:09.999Z</time></trkpt><trkpt lat="42.661728779382194" lon="13.041966083176813"><ele>1232.0</ele><time>2026-04-22T16:29:11.999Z</time></trkpt><trkpt lat="42.66180091265667" lon="13.041920105547389"><ele>1232.0</ele><time>2026-04-22T16:29:13.999Z</time></trkpt><trkpt lat="42.661900831115595" lon="13.041898585817835"><ele>1232.0</ele><time>2026-04-22T16:29:15.999Z</time></trkpt><trkpt lat="42.66199855667539" lon="13.041874383771205"><ele>1234.3333333333335</ele><time>2026-04-22T16:29:17.999Z</time></trkpt><trkpt lat="42.662077387781075" lon="13.04183209741785"><ele>1236.6666666666667</ele><time>2026-04-22T16:29:19.999Z</time></trkpt><trkpt lat="42.6621508327467" lon="13.041838543583006"><ele>1239.0</ele><time>2026-04-22T16:29:21.999Z</time></trkpt><trkpt lat="42.66218792964562" lon="13.041923205172237"><ele>1241.3333333333333</ele><time>2026-04-22T16:29:31.999Z</time></trkpt><trkpt lat="42.66225430603408" lon="13.041949643864955"><ele>1243.6666666666665</ele><time>2026-04-22T16:29:33.999Z</time></trkpt><trkpt lat="42.662317688988594" lon="13.041964195000341"><ele>1246.0</ele><time>2026-04-22T16:29:34.999Z</time></trkpt><trkpt lat="42.662425088489805" lon="13.042043492113592"><ele>1246.0</ele><time>2026-04-22T16:29:36.999Z</time></trkpt><trkpt lat="42.66248433541536" lon="13.042108310235053"><ele>1246.0</ele><time>2026-04-22T16:29:37.999Z</time></trkpt><trkpt lat="42.662548362865614" lon="13.042161765550539"><ele>1246.0</ele><time>2026-04-22T16:29:38.999Z</time></trkpt><trkpt lat="42.662616271771135" lon="13.042222088565328"><ele>1246.0</ele><time>2026-04-22T16:29:39.999Z</time></trkpt><trkpt lat="42.662673225844856" lon="13.042272160287949"><ele>1246.0</ele><time>2026-04-22T16:29:40.999Z</time></trkpt><trkpt lat="42.66276210671327" lon="13.042325106334323"><ele>1246.0</ele><time>2026-04-22T16:29:42.999Z</time></trkpt><trkpt lat="42.66282483555108" lon="13.042306753094955"><ele>1250.2</ele><time>2026-04-22T16:29:44.999Z</time></trkpt><trkpt lat="42.66289989378824" lon="13.042307917160237"><ele>1254.3999999999999</ele><time>2026-04-22T16:29:47.999Z</time></trkpt><trkpt lat="42.66299621231766" lon="13.042262960295998"><ele>1258.6</ele><time>2026-04-22T16:29:49.999Z</time></trkpt><trkpt lat="42.663060062616225" lon="13.042243324421683"><ele>1262.8</ele><time>2026-04-22T16:29:50.999Z</time></trkpt><trkpt lat="42.663177256631414" lon="13.042278354464681"><ele>1267.0</ele><time>2026-04-22T16:29:52.999Z</time></trkpt><trkpt lat="42.663263794957516" lon="13.042361403401967"><ele>1267.0</ele><time>2026-04-22T16:29:54.999Z</time></trkpt><trkpt lat="42.66331627385331" lon="13.042420632817473"><ele>1267.0</ele><time>2026-04-22T16:29:55.999Z</time></trkpt><trkpt lat="42.66338065922068" lon="13.04247543331771"><ele>1267.0</ele><time>2026-04-22T16:29:56.999Z</time></trkpt><trkpt lat="42.663453660247754" lon="13.042517739086902"><ele>1267.0</ele><time>2026-04-22T16:29:57.999Z</time></trkpt><trkpt lat="42.66351368823934" lon="13.042555166681307"><ele>1267.0</ele><time>2026-04-22T16:29:58.999Z</time></trkpt><trkpt lat="42.66358235940971" lon="13.042626576599249"><ele>1267.0</ele><time>2026-04-22T16:30:00.999Z</time></trkpt><trkpt lat="42.663651691795955" lon="13.04271073119132"><ele>1265.5</ele><time>2026-04-22T16:30:02.999Z</time></trkpt><trkpt lat="42.66375218363097" lon="13.042775349769023"><ele>1264.0</ele><time>2026-04-22T16:30:04.999Z</time></trkpt><trkpt lat="42.66386111942957" lon="13.042805311245848"><ele>1262.5</ele><time>2026-04-22T16:30:06.999Z</time></trkpt><trkpt lat="42.66392722589379" lon="13.042823309231022"><ele>1261.0</ele><time>2026-04-22T16:30:08.999Z</time></trkpt><trkpt lat="42.663989535781106" lon="13.042859761313087"><ele>1259.5</ele><time>2026-04-22T16:30:11.999Z</time></trkpt><trkpt lat="42.664008225348226" lon="13.042951810095838"><ele>1258.0</ele><time>2026-04-22T16:30:45Z</time></trkpt><trkpt lat="42.66403396363423" lon="13.043041524475216"><ele>1258.0</ele><time>2026-04-22T16:30:47Z</time></trkpt><trkpt lat="42.66408498952386" lon="13.043154196487345"><ele>1258.0</ele><time>2026-04-22T16:30:49Z</time></trkpt><trkpt lat="42.664123826871155" lon="13.043293070938821"><ele>1258.0</ele><time>2026-04-22T16:30:51Z</time></trkpt><trkpt lat="42.66419288361116" lon="13.04342783949928"><ele>1258.0</ele><time>2026-04-22T16:30:53Z</time></trkpt><trkpt lat="42.66423395059666" lon="13.043495129505581"><ele>1258.0</ele><time>2026-04-22T16:30:54Z</time></trkpt><trkpt lat="42.66429330064724" lon="13.04364093121553"><ele>1257.6666666666665</ele><time>2026-04-22T16:30:56Z</time></trkpt><trkpt lat="42.664334484159006" lon="13.043794742114283"><ele>1257.3333333333333</ele><time>2026-04-22T16:30:57.999Z</time></trkpt><trkpt lat="42.664337704596505" lon="13.043911877972668"><ele>1257.0</ele><time>2026-04-22T16:30:59.999Z</time></trkpt><trkpt lat="42.664313879382725" lon="13.044014444658357"><ele>1256.6666666666667</ele><time>2026-04-22T16:31:00.999Z</time></trkpt><trkpt lat="42.66429004772906" lon="13.044101354136822"><ele>1256.3333333333335</ele><time>2026-04-22T16:31:01.999Z</time></trkpt><trkpt lat="42.66425714953479" lon="13.044199603976857"><ele>1256.0</ele><time>2026-04-22T16:31:03.999Z</time></trkpt><trkpt lat="42.66421540867257" lon="13.044289825028361"><ele>1256.0</ele><time>2026-04-22T16:31:06.999Z</time></trkpt><trkpt lat="42.664168866448826" lon="13.044361377042138"><ele>1256.0</ele><time>2026-04-22T16:32:09.999Z</time></trkpt><trkpt lat="42.66423618225271" lon="13.04431526524559"><ele>1256.0</ele><time>2026-04-22T16:32:14.999Z</time></trkpt><trkpt lat="42.66427383361611" lon="13.04418550830618"><ele>1256.0</ele><time>2026-04-22T16:32:16.999Z</time></trkpt><trkpt lat="42.6643041067137" lon="13.044071401653843"><ele>1256.0</ele><time>2026-04-22T16:32:18.999Z</time></trkpt><trkpt lat="42.66432516401535" lon="13.043964527028665"><ele>1256.0</ele><time>2026-04-22T16:32:20.999Z</time></trkpt><trkpt lat="42.664332238094" lon="13.043844363784872"><ele>1256.0</ele><time>2026-04-22T16:32:23Z</time></trkpt><trkpt lat="42.66432096759664" lon="13.043717189438537"><ele>1256.0</ele><time>2026-04-22T16:32:25Z</time></trkpt><trkpt lat="42.664284630667034" lon="13.04360912288439"><ele>1256.0</ele><time>2026-04-22T16:32:27Z</time></trkpt><trkpt lat="42.66422839454121" lon="13.043486455736376"><ele>1256.0</ele><time>2026-04-22T16:32:29Z</time></trkpt><trkpt lat="42.66417220373192" lon="13.043380112444986"><ele>1256.0</ele><time>2026-04-22T16:32:31Z</time></trkpt><trkpt lat="42.66411142004642" lon="13.043275332796217"><ele>1256.3333333333335</ele><time>2026-04-22T16:32:33Z</time></trkpt><trkpt lat="42.66408180372387" lon="13.043163480069042"><ele>1256.6666666666667</ele><time>2026-04-22T16:32:35Z</time></trkpt><trkpt lat="42.664088873965085" lon="13.04307050357983"><ele>1257.0</ele><time>2026-04-22T16:32:39Z</time></trkpt><trkpt lat="42.664150293856956" lon="13.043051672428032"><ele>1257.3333333333333</ele><time>2026-04-22T16:32:55Z</time></trkpt><trkpt lat="42.66424179186354" lon="13.043100673380387"><ele>1257.6666666666665</ele><time>2026-04-22T16:32:56.999Z</time></trkpt><trkpt lat="42.66430324202623" lon="13.043128011445326"><ele>1258.0</ele><time>2026-04-22T16:32:57.999Z</time></trkpt><trkpt lat="42.66436586964151" lon="13.043167433676546"><ele>1258.0</ele><time>2026-04-22T16:32:58.999Z</time></trkpt><trkpt lat="42.66442318554571" lon="13.043207129241866"><ele>1258.0</ele><time>2026-04-22T16:32:59.999Z</time></trkpt><trkpt lat="42.66448044052037" lon="13.043248355370665"><ele>1258.0</ele><time>2026-04-22T16:33:00.999Z</time></trkpt><trkpt lat="42.6645361310738" lon="13.043288758744085"><ele>1258.0</ele><time>2026-04-22T16:33:01.999Z</time></trkpt><trkpt lat="42.66462968802422" lon="13.043356460769703"><ele>1258.0</ele><time>2026-04-22T16:33:03.999Z</time></trkpt><trkpt lat="42.66469880918555" lon="13.043387807988665"><ele>1258.0</ele><time>2026-04-22T16:33:05.999Z</time></trkpt><trkpt lat="42.66477821659836" lon="13.043405332476429"><ele>1255.8</ele><time>2026-04-22T16:33:08.999Z</time></trkpt><trkpt lat="42.664889804830715" lon="13.043434493496221"><ele>1253.6</ele><time>2026-04-22T16:33:11.999Z</time></trkpt><trkpt lat="42.665021413654294" lon="13.043449506601483"><ele>1251.4</ele><time>2026-04-22T16:33:13.999Z</time></trkpt><trkpt lat="42.66508595503982" lon="13.043438522288906"><ele>1249.2</ele><time>2026-04-22T16:33:14.999Z</time></trkpt><trkpt lat="42.66517359189583" lon="13.043451835165648"><ele>1247.0</ele><time>2026-04-22T16:33:16.999Z</time></trkpt><trkpt lat="42.66525169362512" lon="13.04350225901285"><ele>1244.2</ele><time>2026-04-22T16:33:19.999Z</time></trkpt><trkpt lat="42.66528739937598" lon="13.043579133058138"><ele>1241.4</ele><time>2026-04-22T16:33:21.999Z</time></trkpt><trkpt lat="42.6653154142248" lon="13.04369940675176"><ele>1238.6</ele><time>2026-04-22T16:33:23.999Z</time></trkpt><trkpt lat="42.66533957772648" lon="13.043841048015787"><ele>1235.8</ele><time>2026-04-22T16:33:25.999Z</time></trkpt><trkpt lat="42.66535588909561" lon="13.043996468172681"><ele>1233.0</ele><time>2026-04-22T16:33:27.999Z</time></trkpt><trkpt lat="42.665381025649815" lon="13.044146759788864"><ele>1232.8</ele><time>2026-04-22T16:33:29.999Z</time></trkpt><trkpt lat="42.665403857688055" lon="13.044298454356449"><ele>1232.6</ele><time>2026-04-22T16:33:31.999Z</time></trkpt><trkpt lat="42.66546599941855" lon="13.04441065247026"><ele>1232.4</ele><time>2026-04-22T16:33:33.999Z</time></trkpt><trkpt lat="42.66557084049071" lon="13.044423360155731"><ele>1232.2</ele><time>2026-04-22T16:33:35.999Z</time></trkpt><trkpt lat="42.665680878340986" lon="13.044421952427044"><ele>1232.0</ele><time>2026-04-22T16:33:37.999Z</time></trkpt><trkpt lat="42.665781188898016" lon="13.044498727447616"><ele>1232.0</ele><time>2026-04-22T16:33:39.999Z</time></trkpt><trkpt lat="42.66584292691705" lon="13.044556870201024"><ele>1232.0</ele><time>2026-04-22T16:33:41.999Z</time></trkpt><trkpt lat="42.66591196918965" lon="13.044628939688367"><ele>1232.0</ele><time>2026-04-22T16:33:43.999Z</time></trkpt><trkpt lat="42.665999346538676" lon="13.044713617444978"><ele>1232.0</ele><time>2026-04-22T16:33:45.999Z</time></trkpt><trkpt lat="42.666070267035636" lon="13.04481591272892"><ele>1232.0</ele><time>2026-04-22T16:33:47.999Z</time></trkpt><trkpt lat="42.66609469404733" lon="13.044900088215732"><ele>1232.0</ele><time>2026-04-22T16:33:48.999Z</time></trkpt><trkpt lat="42.66615512155506" lon="13.045066878143958"><ele>1234.5</ele><time>2026-04-22T16:33:50.999Z</time></trkpt><trkpt lat="42.66619305245294" lon="13.04516078505514"><ele>1237.0</ele><time>2026-04-22T16:33:51.999Z</time></trkpt><trkpt lat="42.6662192407962" lon="13.045255989395198"><ele>1239.5</ele><time>2026-04-22T16:33:52.999Z</time></trkpt><trkpt lat="42.66624785297378" lon="13.045368077662618"><ele>1242.0</ele><time>2026-04-22T16:33:53.999Z</time></trkpt><trkpt lat="42.66627580582482" lon="13.045485354581295"><ele>1244.5</ele><time>2026-04-22T16:33:54.999Z</time></trkpt><trkpt lat="42.66629933248024" lon="13.04559963270802"><ele>1247.0</ele><time>2026-04-22T16:33:55.999Z</time></trkpt><trkpt lat="42.666317365907304" lon="13.045712868950794"><ele>1247.6</ele><time>2026-04-22T16:33:56.999Z</time></trkpt><trkpt lat="42.66632765991857" lon="13.04580603329369"><ele>1248.2</ele><time>2026-04-22T16:33:57.999Z</time></trkpt><trkpt lat="42.666335126566466" lon="13.045960006697985"><ele>1248.8</ele><time>2026-04-22T16:33:59.999Z</time></trkpt><trkpt lat="42.66635710298415" lon="13.046095750611473"><ele>1249.4</ele><time>2026-04-22T16:34:01.999Z</time></trkpt><trkpt lat="42.66644225699557" lon="13.046199886484786"><ele>1250.0</ele><time>2026-04-22T16:34:03.999Z</time></trkpt><trkpt lat="42.666500334018956" lon="13.046256536386117"><ele>1250.0</ele><time>2026-04-22T16:34:04.999Z</time></trkpt><trkpt lat="42.66656645532808" lon="13.046327441325722"><ele>1250.0</ele><time>2026-04-22T16:34:05.999Z</time></trkpt><trkpt lat="42.66663631540953" lon="13.046414917302165"><ele>1250.0</ele><time>2026-04-22T16:34:06.999Z</time></trkpt><trkpt lat="42.66669078313778" lon="13.046504283380962"><ele>1250.0</ele><time>2026-04-22T16:34:07.999Z</time></trkpt><trkpt lat="42.66673784409193" lon="13.04660808505222"><ele>1250.0</ele><time>2026-04-22T16:34:08.999Z</time></trkpt><trkpt lat="42.66677282001405" lon="13.046682551240284"><ele>1250.0</ele><time>2026-04-22T16:34:09.999Z</time></trkpt><trkpt lat="42.66684134691436" lon="13.046779357382407"><ele>1251.0</ele><time>2026-04-22T16:34:11.999Z</time></trkpt><trkpt lat="42.66693833846102" lon="13.046827621887507"><ele>1252.0</ele><time>2026-04-22T16:34:13.999Z</time></trkpt><trkpt lat="42.667047732820706" lon="13.04684015270821"><ele>1253.0</ele><time>2026-04-22T16:34:15.999Z</time></trkpt><trkpt lat="42.66711026596443" lon="13.046852119715629"><ele>1254.0</ele><time>2026-04-22T16:34:16.999Z</time></trkpt><trkpt lat="42.66720703752529" lon="13.046828359557503"><ele>1255.0</ele><time>2026-04-22T16:34:18.999Z</time></trkpt><trkpt lat="42.66726238488104" lon="13.046724027387674"><ele>1256.1666666666665</ele><time>2026-04-22T16:34:20.999Z</time></trkpt><trkpt lat="42.66732243867379" lon="13.046566051367883"><ele>1257.3333333333333</ele><time>2026-04-22T16:34:22.999Z</time></trkpt><trkpt lat="42.66736075325498" lon="13.046482708335912"><ele>1258.5</ele><time>2026-04-22T16:34:23.999Z</time></trkpt><trkpt lat="42.66739969635573" lon="13.046400443179222"><ele>1259.6666666666667</ele><time>2026-04-22T16:34:24.999Z</time></trkpt><trkpt lat="42.66743606717452" lon="13.046316304140301"><ele>1260.8333333333335</ele><time>2026-04-22T16:34:25.999Z</time></trkpt><trkpt lat="42.667471007539234" lon="13.046221737799417"><ele>1262.0</ele><time>2026-04-22T16:34:26.999Z</time></trkpt><trkpt lat="42.667508568701344" lon="13.046128268930499"><ele>1262.0</ele><time>2026-04-22T16:34:27.999Z</time></trkpt><trkpt lat="42.667547528265295" lon="13.046054948236815"><ele>1262.0</ele><time>2026-04-22T16:34:29Z</time></trkpt><trkpt lat="42.66758414231315" lon="13.045984965948408"><ele>1262.0</ele><time>2026-04-22T16:34:30Z</time></trkpt><trkpt lat="42.6676206049893" lon="13.045910937567053"><ele>1262.0</ele><time>2026-04-22T16:34:31Z</time></trkpt><trkpt lat="42.667674988933555" lon="13.045772139583791"><ele>1262.0</ele><time>2026-04-22T16:34:33Z</time></trkpt><trkpt lat="42.66770560793507" lon="13.045689874234599"><ele>1262.0</ele><time>2026-04-22T16:34:34Z</time></trkpt><trkpt lat="42.66773777705764" lon="13.045611986384355"><ele>1262.0</ele><time>2026-04-22T16:34:35Z</time></trkpt><trkpt lat="42.66777380480355" lon="13.045528840992462"><ele>1263.1666666666667</ele><time>2026-04-22T16:34:36Z</time></trkpt><trkpt lat="42.6678272555129" lon="13.045367098429091"><ele>1264.3333333333335</ele><time>2026-04-22T16:34:38Z</time></trkpt><trkpt lat="42.66786567239956" lon="13.04529666469327"><ele>1265.5</ele><time>2026-04-22T16:34:39Z</time></trkpt><trkpt lat="42.66794239578006" lon="13.045169796914907"><ele>1266.6666666666667</ele><time>2026-04-22T16:34:41Z</time></trkpt><trkpt lat="42.66798668311608" lon="13.04510542069354"><ele>1267.8333333333333</ele><time>2026-04-22T16:34:42Z</time></trkpt><trkpt lat="42.6680316085244" lon="13.045035511130939"><ele>1269.0</ele><time>2026-04-22T16:34:43Z</time></trkpt><trkpt lat="42.66809092378887" lon="13.044899043046305"><ele>1269.0</ele><time>2026-04-22T16:34:45Z</time></trkpt><trkpt lat="42.668158373313254" lon="13.04476751720513"><ele>1269.0</ele><time>2026-04-22T16:34:47Z</time></trkpt><trkpt lat="42.66822338845928" lon="13.044653497436007"><ele>1269.0</ele><time>2026-04-22T16:34:49Z</time></trkpt><trkpt lat="42.668290342027696" lon="13.04453915949951"><ele>1269.0</ele><time>2026-04-22T16:34:51Z</time></trkpt><trkpt lat="42.66835049621206" lon="13.044426704011594"><ele>1269.0</ele><time>2026-04-22T16:34:53Z</time></trkpt><trkpt lat="42.66841056947977" lon="13.044337295822215"><ele>1269.0</ele><time>2026-04-22T16:34:55Z</time></trkpt><trkpt lat="42.66846861209002" lon="13.044256506520536"><ele>1269.0</ele><time>2026-04-22T16:34:57Z</time></trkpt><trkpt lat="42.66855157915843" lon="13.044173825722119"><ele>1269.0</ele><time>2026-04-22T16:34:59Z</time></trkpt><trkpt lat="42.66863252866102" lon="13.044143865340882"><ele>1269.0</ele><time>2026-04-22T16:35:01Z</time></trkpt><trkpt lat="42.668706782692105" lon="13.044098683716916"><ele>1269.0</ele><time>2026-04-22T16:35:04Z</time></trkpt><trkpt lat="42.66865558626295" lon="13.044148828920926"><ele>1269.0</ele><time>2026-04-22T16:35:39Z</time></trkpt><trkpt lat="42.66861842863747" lon="13.044225830938611"><ele>1269.0</ele><time>2026-04-22T16:35:47.999Z</time></trkpt><trkpt lat="42.668581427482295" lon="13.044295121651627"><ele>1269.0</ele><time>2026-04-22T16:35:54.999Z</time></trkpt><trkpt lat="42.66852241852253" lon="13.044407471897301"><ele>1269.0</ele><time>2026-04-22T16:36:30.999Z</time></trkpt><trkpt lat="42.6685674140581" lon="13.04434652943577"><ele>1269.0</ele><time>2026-04-22T16:36:39Z</time></trkpt><trkpt lat="42.66851528735571" lon="13.044294247459343"><ele>1269.0</ele><time>2026-04-22T16:37:20Z</time></trkpt><trkpt lat="42.668481962903776" lon="13.044371348634265"><ele>1269.0</ele><time>2026-04-22T16:37:29Z</time></trkpt><trkpt lat="42.6685490746923" lon="13.04438465810933"><ele>1269.0</ele><time>2026-04-22T16:37:50Z</time></trkpt><trkpt lat="42.66857361109824" lon="13.044303153697104"><ele>1269.0</ele><time>2026-04-22T16:37:58Z</time></trkpt><trkpt lat="42.66860811486087" lon="13.044227394247248"><ele>1269.0</ele><time>2026-04-22T16:38:09.999Z</time></trkpt><trkpt lat="42.66863931931895" lon="13.044145540730563"><ele>1269.0</ele><time>2026-04-22T16:38:18.999Z</time></trkpt><trkpt lat="42.668696595395716" lon="13.044087036676853"><ele>1269.0</ele><time>2026-04-22T16:38:43.001Z</time></trkpt><trkpt lat="42.66862674899936" lon="13.044110289769295"><ele>1269.0</ele><time>2026-04-22T16:39:35Z</time></trkpt><trkpt lat="42.668574002253756" lon="13.044191583440133"><ele>1269.0</ele><time>2026-04-22T16:39:38Z</time></trkpt><trkpt lat="42.66853186304414" lon="13.04425930294941"><ele>1269.0</ele><time>2026-04-22T16:39:41Z</time></trkpt><trkpt lat="42.66848259372727" lon="13.04432463176882"><ele>1269.0</ele><time>2026-04-22T16:39:45Z</time></trkpt><trkpt lat="42.66846639756478" lon="13.044408415526014"><ele>1269.0</ele><time>2026-04-22T16:39:55Z</time></trkpt><trkpt lat="42.66842726064407" lon="13.044481279622138"><ele>1269.0</ele><time>2026-04-22T16:39:58Z</time></trkpt><trkpt lat="42.66837321692942" lon="13.044530587431048"><ele>1269.0</ele><time>2026-04-22T16:40:01Z</time></trkpt><trkpt lat="42.668378233327374" lon="13.044620727064048"><ele>1269.0</ele><time>2026-04-22T16:40:05Z</time></trkpt><trkpt lat="42.668438578985146" lon="13.044596183709427"><ele>1269.0</ele><time>2026-04-22T16:40:10Z</time></trkpt><trkpt lat="42.66844029550497" lon="13.044505119333056"><ele>1269.0</ele><time>2026-04-22T16:40:14Z</time></trkpt><trkpt lat="42.66840469400732" lon="13.04442709103078"><ele>1269.0</ele><time>2026-04-22T16:40:18Z</time></trkpt></trkseg><trkseg><trkpt lat="42.667232660359296" lon="13.046772681163123"><ele>1255.0</ele><time>2026-04-23T07:22:14Z</time></trkpt><trkpt lat="42.66719578865712" lon="13.046862792631906"><ele>1255.0</ele><time>2026-04-23T07:22:16Z</time></trkpt><trkpt lat="42.66712488769937" lon="13.046969236796645"><ele>1255.0</ele><time>2026-04-23T07:22:19Z</time></trkpt><trkpt lat="42.66707113808806" lon="13.047027713526171"><ele>1255.0</ele><time>2026-04-23T07:22:21Z</time></trkpt><trkpt lat="42.66700630355927" lon="13.04707799390754"><ele>1255.0</ele><time>2026-04-23T07:22:23Z</time></trkpt><trkpt lat="42.66694790788553" lon="13.047119009868663"><ele>1255.0</ele><time>2026-04-23T07:22:25Z</time></trkpt><trkpt lat="42.66688913334031" lon="13.047200601795744"><ele>1255.0</ele><time>2026-04-23T07:22:28Z</time></trkpt><trkpt lat="42.66693083268842" lon="13.047285617627814"><ele>1255.0</ele><time>2026-04-23T07:22:31Z</time></trkpt><trkpt lat="42.66704607912931" lon="13.047312166713422"><ele>1255.0</ele><time>2026-04-23T07:22:33Z</time></trkpt><trkpt lat="42.66712041865952" lon="13.047332115183206"><ele>1255.0</ele><time>2026-04-23T07:22:34Z</time></trkpt><trkpt lat="42.66720601909521" lon="13.04736272266306"><ele>1255.0</ele><time>2026-04-23T07:22:35Z</time></trkpt><trkpt lat="42.66728101220853" lon="13.047386493488624"><ele>1255.0</ele><time>2026-04-23T07:22:36Z</time></trkpt><trkpt lat="42.66736750668039" lon="13.047410780736758"><ele>1253.0</ele><time>2026-04-23T07:22:38Z</time></trkpt><trkpt lat="42.667442743672886" lon="13.047467824702665"><ele>1251.0</ele><time>2026-04-23T07:22:40Z</time></trkpt><trkpt lat="42.667526722519625" lon="13.04754443453619"><ele>1249.0</ele><time>2026-04-23T07:22:42Z</time></trkpt><trkpt lat="42.66757972232441" lon="13.047612667611814"><ele>1247.0</ele><time>2026-04-23T07:22:43Z</time></trkpt><trkpt lat="42.66763396352133" lon="13.047665834141153"><ele>1245.0</ele><time>2026-04-23T07:22:44Z</time></trkpt><trkpt lat="42.66772606186067" lon="13.047735295563301"><ele>1243.0</ele><time>2026-04-23T07:22:46Z</time></trkpt><trkpt lat="42.66780369321632" lon="13.04777100188266"><ele>1242.2</ele><time>2026-04-23T07:22:48Z</time></trkpt><trkpt lat="42.66789090643915" lon="13.047770563294193"><ele>1241.4</ele><time>2026-04-23T07:22:50Z</time></trkpt><trkpt lat="42.6679742998582" lon="13.047735058784351"><ele>1240.6000000000001</ele><time>2026-04-23T07:22:52Z</time></trkpt><trkpt lat="42.668091197084436" lon="13.0476729399149"><ele>1239.8</ele><time>2026-04-23T07:22:54Z</time></trkpt><trkpt lat="42.668190339585394" lon="13.047648073891056"><ele>1239.0</ele><time>2026-04-23T07:22:56Z</time></trkpt><trkpt lat="42.66825343746134" lon="13.04768519668055"><ele>1239.0</ele><time>2026-04-23T07:22:59Z</time></trkpt><trkpt lat="42.66832606945497" lon="13.04773494760693"><ele>1239.0</ele><time>2026-04-23T07:23:01Z</time></trkpt><trkpt lat="42.66837371680558" lon="13.047798903528376"><ele>1239.0</ele><time>2026-04-23T07:23:03Z</time></trkpt><trkpt lat="42.668424099307416" lon="13.047895883481306"><ele>1239.0</ele><time>2026-04-23T07:23:05Z</time></trkpt><trkpt lat="42.66851837839965" lon="13.047981366512841"><ele>1239.0</ele><time>2026-04-23T07:23:07Z</time></trkpt><trkpt lat="42.6686185430286" lon="13.048060401253064"><ele>1240.2</ele><time>2026-04-23T07:23:09Z</time></trkpt><trkpt lat="42.66867820140763" lon="13.048090649574482"><ele>1241.4</ele><time>2026-04-23T07:23:10Z</time></trkpt><trkpt lat="42.668743979139016" lon="13.048125582691782"><ele>1242.6</ele><time>2026-04-23T07:23:11Z</time></trkpt><trkpt lat="42.66882825064985" lon="13.048222782322705"><ele>1243.8</ele><time>2026-04-23T07:23:13Z</time></trkpt><trkpt lat="42.668904802870486" lon="13.04833657228758"><ele>1245.0</ele><time>2026-04-23T07:23:15Z</time></trkpt><trkpt lat="42.66898421322065" lon="13.048411819363706"><ele>1245.0</ele><time>2026-04-23T07:23:17Z</time></trkpt><trkpt lat="42.6690684432377" lon="13.048466023724336"><ele>1245.0</ele><time>2026-04-23T07:23:19Z</time></trkpt><trkpt lat="42.669165878936276" lon="13.048534647736028"><ele>1245.0</ele><time>2026-04-23T07:23:21Z</time></trkpt><trkpt lat="42.66927930938929" lon="13.048622017965311"><ele>1245.0</ele><time>2026-04-23T07:23:23Z</time></trkpt><trkpt lat="42.6693358881734" lon="13.048661932551747"><ele>1245.0</ele><time>2026-04-23T07:23:24Z</time></trkpt><trkpt lat="42.66945090978016" lon="13.048729034952064"><ele>1245.0</ele><time>2026-04-23T07:23:25.999Z</time></trkpt><trkpt lat="42.66951384387498" lon="13.048752003493068"><ele>1245.0</ele><time>2026-04-23T07:23:26.999Z</time></trkpt><trkpt lat="42.669579612739696" lon="13.0487638346822"><ele>1245.0</ele><time>2026-04-23T07:23:27.999Z</time></trkpt><trkpt lat="42.66965851991514" lon="13.04876938843555"><ele>1245.0</ele><time>2026-04-23T07:23:28.999Z</time></trkpt><trkpt lat="42.66974125165367" lon="13.048767544190381"><ele>1245.0</ele><time>2026-04-23T07:23:29.999Z</time></trkpt><trkpt lat="42.66982662538928" lon="13.048771917498094"><ele>1245.0</ele><time>2026-04-23T07:23:30.999Z</time></trkpt><trkpt lat="42.66989892679524" lon="13.048778813586573"><ele>1245.0</ele><time>2026-04-23T07:23:31.999Z</time></trkpt><trkpt lat="42.670013414365414" lon="13.048803589402821"><ele>1245.0</ele><time>2026-04-23T07:23:33.999Z</time></trkpt><trkpt lat="42.670137949475446" lon="13.048799768587726"><ele>1245.0</ele><time>2026-04-23T07:23:35.999Z</time></trkpt><trkpt lat="42.67020592634112" lon="13.048791820006134"><ele>1245.0</ele><time>2026-04-23T07:23:36.999Z</time></trkpt><trkpt lat="42.67027812947013" lon="13.048783995526954"><ele>1245.0</ele><time>2026-04-23T07:23:37.999Z</time></trkpt><trkpt lat="42.67035014423176" lon="13.048782151177123"><ele>1245.0</ele><time>2026-04-23T07:23:38.999Z</time></trkpt><trkpt lat="42.67042662666307" lon="13.048790977726448"><ele>1245.0</ele><time>2026-04-23T07:23:39.999Z</time></trkpt><trkpt lat="42.67050405095985" lon="13.04880686087098"><ele>1245.0</ele><time>2026-04-23T07:23:40.999Z</time></trkpt><trkpt lat="42.67058299033116" lon="13.048843010264479"><ele>1245.0</ele><time>2026-04-23T07:23:41.999Z</time></trkpt><trkpt lat="42.670656247090875" lon="13.048888702643026"><ele>1245.0</ele><time>2026-04-23T07:23:42.999Z</time></trkpt><trkpt lat="42.670716830185974" lon="13.048928905655446"><ele>1245.0</ele><time>2026-04-23T07:23:43.999Z</time></trkpt><trkpt lat="42.670812223902665" lon="13.04898862410465"><ele>1245.0</ele><time>2026-04-23T07:23:45.999Z</time></trkpt><trkpt lat="42.67092392977549" lon="13.0490246643808"><ele>1245.0</ele><time>2026-04-23T07:23:47.999Z</time></trkpt><trkpt lat="42.671003119318605" lon="13.049030984320835"><ele>1245.0</ele><time>2026-04-23T07:23:48.999Z</time></trkpt><trkpt lat="42.67109628894856" lon="13.049028416310534"><ele>1245.0</ele><time>2026-04-23T07:23:49.999Z</time></trkpt><trkpt lat="42.67117957745602" lon="13.049019216130594"><ele>1245.0</ele><time>2026-04-23T07:23:50.999Z</time></trkpt><trkpt lat="42.671247637942095" lon="13.049001301305038"><ele>1245.0</ele><time>2026-04-23T07:23:51.999Z</time></trkpt><trkpt lat="42.67136153301763" lon="13.048956267774306"><ele>1243.8333333333333</ele><time>2026-04-23T07:23:53.999Z</time></trkpt><trkpt lat="42.67142757831223" lon="13.048919778030692"><ele>1242.6666666666667</ele><time>2026-04-23T07:23:54.999Z</time></trkpt><trkpt lat="42.67150065188542" lon="13.0488800515909"><ele>1241.5</ele><time>2026-04-23T07:23:55.999Z</time></trkpt><trkpt lat="42.67157053632955" lon="13.048834183603434"><ele>1240.3333333333335</ele><time>2026-04-23T07:23:56.999Z</time></trkpt><trkpt lat="42.671655438247114" lon="13.048805049568442"><ele>1239.1666666666667</ele><time>2026-04-23T07:23:57.999Z</time></trkpt><trkpt lat="42.67173497827292" lon="13.048770577820171"><ele>1238.0</ele><time>2026-04-23T07:23:58.999Z</time></trkpt><trkpt lat="42.67182179255301" lon="13.04873261185441"><ele>1238.0</ele><time>2026-04-23T07:23:59.999Z</time></trkpt><trkpt lat="42.67188904432536" lon="13.048714484281422"><ele>1238.0</ele><time>2026-04-23T07:24:00.999Z</time></trkpt><trkpt lat="42.6719590736306" lon="13.048692605824598"><ele>1238.0</ele><time>2026-04-23T07:24:01.999Z</time></trkpt><trkpt lat="42.67208554048944" lon="13.048654731784875"><ele>1238.0</ele><time>2026-04-23T07:24:03.999Z</time></trkpt><trkpt lat="42.672160427442165" lon="13.048639393266646"><ele>1238.0</ele><time>2026-04-23T07:24:04.999Z</time></trkpt><trkpt lat="42.672238217078245" lon="13.048618585129978"><ele>1238.0</ele><time>2026-04-23T07:24:05.999Z</time></trkpt><trkpt lat="42.672326250394455" lon="13.04862302182775"><ele>1235.4</ele><time>2026-04-23T07:24:06.999Z</time></trkpt><trkpt lat="42.672416222093254" lon="13.048642591489616"><ele>1232.8</ele><time>2026-04-23T07:24:07.999Z</time></trkpt><trkpt lat="42.67250977164073" lon="13.0486386652397"><ele>1230.2</ele><time>2026-04-23T07:24:08.999Z</time></trkpt><trkpt lat="42.67262191153642" lon="13.048637601251922"><ele>1227.6</ele><time>2026-04-23T07:24:09.999Z</time></trkpt><trkpt lat="42.672729575164524" lon="13.048640632494484"><ele>1225.0</ele><time>2026-04-23T07:24:10.999Z</time></trkpt><trkpt lat="42.67284056919357" lon="13.048658240973637"><ele>1224.2</ele><time>2026-04-23T07:24:11.999Z</time></trkpt><trkpt lat="42.67294693493526" lon="13.048678129108678"><ele>1223.4</ele><time>2026-04-23T07:24:13Z</time></trkpt><trkpt lat="42.67303154399311" lon="13.04870302413601"><ele>1222.6</ele><time>2026-04-23T07:24:14Z</time></trkpt><trkpt lat="42.673135480256576" lon="13.048717896459149"><ele>1221.8</ele><time>2026-04-23T07:24:15Z</time></trkpt><trkpt lat="42.67324309302525" lon="13.048735827845205"><ele>1221.0</ele><time>2026-04-23T07:24:16Z</time></trkpt><trkpt lat="42.673339425421446" lon="13.04876052066777"><ele>1221.0</ele><time>2026-04-23T07:24:17Z</time></trkpt><trkpt lat="42.67342180122292" lon="13.04879056641955"><ele>1221.0</ele><time>2026-04-23T07:24:18Z</time></trkpt><trkpt lat="42.673501049892145" lon="13.048829696234137"><ele>1221.0</ele><time>2026-04-23T07:24:19Z</time></trkpt><trkpt lat="42.67356092014631" lon="13.048873748130536"><ele>1221.0</ele><time>2026-04-23T07:24:20Z</time></trkpt><trkpt lat="42.67361980582436" lon="13.048909017470773"><ele>1221.0</ele><time>2026-04-23T07:24:21Z</time></trkpt><trkpt lat="42.67370533483934" lon="13.049028587747797"><ele>1221.0</ele><time>2026-04-23T07:24:23Z</time></trkpt><trkpt lat="42.673771912041786" lon="13.049143672132653"><ele>1218.8</ele><time>2026-04-23T07:24:25Z</time></trkpt><trkpt lat="42.67386060511927" lon="13.049242514734214"><ele>1216.6</ele><time>2026-04-23T07:24:27Z</time></trkpt><trkpt lat="42.673944005533706" lon="13.049329206696656"><ele>1214.4</ele><time>2026-04-23T07:24:29Z</time></trkpt><trkpt lat="42.67404269047336" lon="13.049363165128527"><ele>1212.2</ele><time>2026-04-23T07:24:31Z</time></trkpt><trkpt lat="42.67413054922313" lon="13.049414605661717"><ele>1210.0</ele><time>2026-04-23T07:24:33Z</time></trkpt><trkpt lat="42.674215455075874" lon="13.049533856324855"><ele>1210.0</ele><time>2026-04-23T07:24:35Z</time></trkpt><trkpt lat="42.6742699280731" lon="13.049655974591323"><ele>1210.0</ele><time>2026-04-23T07:24:37Z</time></trkpt><trkpt lat="42.67430484298448" lon="13.049806519904488"><ele>1210.0</ele><time>2026-04-23T07:24:39Z</time></trkpt><trkpt lat="42.6743272253125" lon="13.04989046048887"><ele>1210.0</ele><time>2026-04-23T07:24:40Z</time></trkpt><trkpt lat="42.67436110955564" lon="13.049976267104697"><ele>1210.0</ele><time>2026-04-23T07:24:41Z</time></trkpt><trkpt lat="42.67441827727144" lon="13.050042564938558"><ele>1210.0</ele><time>2026-04-23T07:24:42Z</time></trkpt><trkpt lat="42.67452564733978" lon="13.050059524774513"><ele>1210.0</ele><time>2026-04-23T07:24:44Z</time></trkpt><trkpt lat="42.67446270099962" lon="13.0500232175057"><ele>1210.0</ele><time>2026-04-23T07:26:03.999Z</time></trkpt><trkpt lat="42.67435950304127" lon="13.049951822222244"><ele>1210.0</ele><time>2026-04-23T07:26:05.999Z</time></trkpt><trkpt lat="42.674315282149216" lon="13.04981754398425"><ele>1210.0</ele><time>2026-04-23T07:26:07.999Z</time></trkpt><trkpt lat="42.67427582745941" lon="13.049650384373322"><ele>1210.0</ele><time>2026-04-23T07:26:09.999Z</time></trkpt><trkpt lat="42.674250143460824" lon="13.049567287759876"><ele>1210.0</ele><time>2026-04-23T07:26:10.999Z</time></trkpt><trkpt lat="42.67417994539261" lon="13.049446440216384"><ele>1210.0</ele><time>2026-04-23T07:26:12.999Z</time></trkpt><trkpt lat="42.67409343956906" lon="13.04939515729015"><ele>1210.0</ele><time>2026-04-23T07:26:14.999Z</time></trkpt><trkpt lat="42.67398005715453" lon="13.04932701685343"><ele>1210.0</ele><time>2026-04-23T07:26:16.999Z</time></trkpt><trkpt lat="42.673919686278104" lon="13.049300225436102"><ele>1210.0</ele><time>2026-04-23T07:26:17.999Z</time></trkpt><trkpt lat="42.673819079908895" lon="13.04921818593517"><ele>1210.75</ele><time>2026-04-23T07:26:20Z</time></trkpt><trkpt lat="42.67373415795192" lon="13.049087249707853"><ele>1211.5</ele><time>2026-04-23T07:26:22Z</time></trkpt><trkpt lat="42.67364819641135" lon="13.048958432916107"><ele>1212.25</ele><time>2026-04-23T07:26:24Z</time></trkpt><trkpt lat="42.67355062577261" lon="13.048848163279224"><ele>1213.0</ele><time>2026-04-23T07:26:26Z</time></trkpt><trkpt lat="42.67348988299393" lon="13.048809770530163"><ele>1214.142857142857</ele><time>2026-04-23T07:26:27Z</time></trkpt><trkpt lat="42.67342093620031" lon="13.048783012808325"><ele>1215.2857142857142</ele><time>2026-04-23T07:26:28Z</time></trkpt><trkpt lat="42.67335924261759" lon="13.048765025142876"><ele>1216.4285714285713</ele><time>2026-04-23T07:26:29Z</time></trkpt><trkpt lat="42.6732978067252" lon="13.048740191070367"><ele>1217.5714285714284</ele><time>2026-04-23T07:26:30Z</time></trkpt><trkpt lat="42.67322342120627" lon="13.04871770720517"><ele>1218.7142857142858</ele><time>2026-04-23T07:26:31Z</time></trkpt><trkpt lat="42.67315063051758" lon="13.048707619012875"><ele>1219.8571428571427</ele><time>2026-04-23T07:26:32Z</time></trkpt><trkpt lat="42.67307241005411" lon="13.048699115354298"><ele>1221.0</ele><time>2026-04-23T07:26:33Z</time></trkpt><trkpt lat="42.67299061035866" lon="13.048686379977276"><ele>1221.0</ele><time>2026-04-23T07:26:34Z</time></trkpt><trkpt lat="42.672914525306695" lon="13.048680311161307"><ele>1221.0</ele><time>2026-04-23T07:26:35Z</time></trkpt><trkpt lat="42.67282714702085" lon="13.048658634697585"><ele>1221.0</ele><time>2026-04-23T07:26:36Z</time></trkpt><trkpt lat="42.672746299620236" lon="13.048646987385908"><ele>1221.0</ele><time>2026-04-23T07:26:37Z</time></trkpt><trkpt lat="42.67265796951237" lon="13.04863081134093"><ele>1221.0</ele><time>2026-04-23T07:26:38Z</time></trkpt><trkpt lat="42.67255449218578" lon="13.048626590125288"><ele>1221.0</ele><time>2026-04-23T07:26:39Z</time></trkpt><trkpt lat="42.672454173714776" lon="13.048639149815818"><ele>1221.6666666666667</ele><time>2026-04-23T07:26:40Z</time></trkpt><trkpt lat="42.67236831797925" lon="13.048641527495795"><ele>1222.3333333333333</ele><time>2026-04-23T07:26:41Z</time></trkpt><trkpt lat="42.67229194564025" lon="13.048635812017018"><ele>1223.0</ele><time>2026-04-23T07:26:42Z</time></trkpt><trkpt lat="42.67216830001265" lon="13.048631120621327"><ele>1223.6666666666665</ele><time>2026-04-23T07:26:44Z</time></trkpt><trkpt lat="42.67209702433668" lon="13.048636724002744"><ele>1224.3333333333333</ele><time>2026-04-23T07:26:45Z</time></trkpt><trkpt lat="42.672010874538785" lon="13.048662461531451"><ele>1225.0</ele><time>2026-04-23T07:26:46Z</time></trkpt><trkpt lat="42.671925378487934" lon="13.048695982065244"><ele>1227.1666666666665</ele><time>2026-04-23T07:26:47Z</time></trkpt><trkpt lat="42.67184429547747" lon="13.048722750914175"><ele>1229.3333333333333</ele><time>2026-04-23T07:26:48Z</time></trkpt><trkpt lat="42.67175860280288" lon="13.048752219001083"><ele>1231.5</ele><time>2026-04-23T07:26:49Z</time></trkpt><trkpt lat="42.67167979246821" lon="13.048786719134988"><ele>1233.6666666666667</ele><time>2026-04-23T07:26:50Z</time></trkpt><trkpt lat="42.67159645226154" lon="13.048816671206755"><ele>1235.8333333333335</ele><time>2026-04-23T07:26:51Z</time></trkpt><trkpt lat="42.67152581440047" lon="13.048840948388744"><ele>1238.0</ele><time>2026-04-23T07:26:52Z</time></trkpt><trkpt lat="42.6714507915949" lon="13.048890938540628"><ele>1238.0</ele><time>2026-04-23T07:26:53Z</time></trkpt><trkpt lat="42.671372597058266" lon="13.04893792699321"><ele>1238.0</ele><time>2026-04-23T07:26:54Z</time></trkpt><trkpt lat="42.67130039052356" lon="13.048970821581818"><ele>1238.0</ele><time>2026-04-23T07:26:55Z</time></trkpt><trkpt lat="42.671224577982834" lon="13.048998339483271"><ele>1238.0</ele><time>2026-04-23T07:26:56Z</time></trkpt><trkpt lat="42.67114619743834" lon="13.049015471191279"><ele>1238.0</ele><time>2026-04-23T07:26:57Z</time></trkpt><trkpt lat="42.67106953191734" lon="13.049024193130228"><ele>1238.0</ele><time>2026-04-23T07:26:58Z</time></trkpt><trkpt lat="42.6710013560388" lon="13.049020736892128"><ele>1239.1666666666667</ele><time>2026-04-23T07:26:59Z</time></trkpt><trkpt lat="42.670925617062856" lon="13.049018412871046"><ele>1240.3333333333335</ele><time>2026-04-23T07:27:00Z</time></trkpt><trkpt lat="42.67085183738221" lon="13.049001319182183"><ele>1241.5</ele><time>2026-04-23T07:27:01Z</time></trkpt><trkpt lat="42.670781411378904" lon="13.048971405066037"><ele>1242.6666666666667</ele><time>2026-04-23T07:27:02Z</time></trkpt><trkpt lat="42.670698450999296" lon="13.048934880296631"><ele>1243.8333333333333</ele><time>2026-04-23T07:27:03Z</time></trkpt><trkpt lat="42.67062575562853" lon="13.048894183486025"><ele>1245.0</ele><time>2026-04-23T07:27:04Z</time></trkpt><trkpt lat="42.67056390191272" lon="13.048851724585933"><ele>1245.0</ele><time>2026-04-23T07:27:05Z</time></trkpt><trkpt lat="42.67045255629459" lon="13.048804132519832"><ele>1245.0</ele><time>2026-04-23T07:27:32Z</time></trkpt><trkpt lat="42.67037639357798" lon="13.048790596032271"><ele>1245.0</ele><time>2026-04-23T07:27:33Z</time></trkpt><trkpt lat="42.670290974548905" lon="13.048794197427103"><ele>1245.0</ele><time>2026-04-23T07:27:34Z</time></trkpt><trkpt lat="42.67020620769473" lon="13.048803458905779"><ele>1245.0</ele><time>2026-04-23T07:27:35Z</time></trkpt><trkpt lat="42.67013077256431" lon="13.048826360015338"><ele>1245.0</ele><time>2026-04-23T07:27:36Z</time></trkpt><trkpt lat="42.6700617284477" lon="13.048820486346532"><ele>1245.0</ele><time>2026-04-23T07:27:37Z</time></trkpt><trkpt lat="42.669959951233416" lon="13.048810250010083"><ele>1245.0</ele><time>2026-04-23T07:27:39Z</time></trkpt><trkpt lat="42.669873294981805" lon="13.048792110143168"><ele>1245.0</ele><time>2026-04-23T07:27:41Z</time></trkpt><trkpt lat="42.66976493762181" lon="13.048783746690692"><ele>1245.0</ele><time>2026-04-23T07:27:43Z</time></trkpt><trkpt lat="42.66969722594041" lon="13.048782237970034"><ele>1245.0</ele><time>2026-04-23T07:27:44Z</time></trkpt><trkpt lat="42.669625021354065" lon="13.048776815113659"><ele>1245.0</ele><time>2026-04-23T07:27:45Z</time></trkpt><trkpt lat="42.66955294418212" lon="13.048771195761258"><ele>1245.0</ele><time>2026-04-23T07:27:45.999Z</time></trkpt><trkpt lat="42.66948050811693" lon="13.048757750474673"><ele>1245.0</ele><time>2026-04-23T07:27:46.999Z</time></trkpt><trkpt lat="42.66940673297917" lon="13.048722201925022"><ele>1245.0</ele><time>2026-04-23T07:27:47.999Z</time></trkpt><trkpt lat="42.66933423532851" lon="13.048671450587769"><ele>1245.0</ele><time>2026-04-23T07:27:48.999Z</time></trkpt><trkpt lat="42.66926816449782" lon="13.048624045876737"><ele>1245.0</ele><time>2026-04-23T07:27:49.999Z</time></trkpt><trkpt lat="42.66921201602446" lon="13.048583188537517"><ele>1245.0</ele><time>2026-04-23T07:27:50.999Z</time></trkpt><trkpt lat="42.66915828507798" lon="13.048536469566473"><ele>1245.0</ele><time>2026-04-23T07:27:51.999Z</time></trkpt><trkpt lat="42.669050814441384" lon="13.048463254582373"><ele>1245.0</ele><time>2026-04-23T07:27:53.999Z</time></trkpt><trkpt lat="42.668968052781736" lon="13.048403715767947"><ele>1245.0</ele><time>2026-04-23T07:27:55.999Z</time></trkpt><trkpt lat="42.668908327613934" lon="13.048349019304009"><ele>1245.0</ele><time>2026-04-23T07:27:57.999Z</time></trkpt><trkpt lat="42.66885579065835" lon="13.048273592341816"><ele>1245.0</ele><time>2026-04-23T07:27:59.999Z</time></trkpt><trkpt lat="42.6688014558599" lon="13.048201154321278"><ele>1245.0</ele><time>2026-04-23T07:28:01.999Z</time></trkpt><trkpt lat="42.6687482892524" lon="13.048151783006766"><ele>1245.0</ele><time>2026-04-23T07:28:04.999Z</time></trkpt><trkpt lat="42.66867237083301" lon="13.048100274304694"><ele>1244.0</ele><time>2026-04-23T07:28:06.999Z</time></trkpt><trkpt lat="42.66858205809325" lon="13.048049888915136"><ele>1243.0</ele><time>2026-04-23T07:28:08.999Z</time></trkpt><trkpt lat="42.66851080177829" lon="13.047994153199683"><ele>1242.0</ele><time>2026-04-23T07:28:10.999Z</time></trkpt><trkpt lat="42.668447569114456" lon="13.04799219305978"><ele>1241.0</ele><time>2026-04-23T07:28:14.999Z</time></trkpt><trkpt lat="42.66838505561273" lon="13.048049114626197"><ele>1240.0</ele><time>2026-04-23T07:29:05Z</time></trkpt><trkpt lat="42.66829758674088" lon="13.048100538746782"><ele>1239.0</ele><time>2026-04-23T07:29:08Z</time></trkpt><trkpt lat="42.66823315580551" lon="13.048157041653504"><ele>1239.0</ele><time>2026-04-23T07:29:10Z</time></trkpt><trkpt lat="42.66813689821965" lon="13.048237088826099"><ele>1239.0</ele><time>2026-04-23T07:29:12Z</time></trkpt><trkpt lat="42.668050798455106" lon="13.048299112777324"><ele>1239.0</ele><time>2026-04-23T07:29:14Z</time></trkpt><trkpt lat="42.667981240829725" lon="13.048354862432976"><ele>1239.0</ele><time>2026-04-23T07:29:16Z</time></trkpt><trkpt lat="42.66790246677737" lon="13.048414557667384"><ele>1239.0</ele><time>2026-04-23T07:29:18Z</time></trkpt><trkpt lat="42.66781191693207" lon="13.048475205002559"><ele>1237.1666666666667</ele><time>2026-04-23T07:29:20Z</time></trkpt><trkpt lat="42.66773773403513" lon="13.048538624689954"><ele>1235.3333333333333</ele><time>2026-04-23T07:29:22Z</time></trkpt><trkpt lat="42.66766790798684" lon="13.048611379793597"><ele>1233.5</ele><time>2026-04-23T07:29:24Z</time></trkpt><trkpt lat="42.667601951309244" lon="13.04868181210372"><ele>1231.6666666666665</ele><time>2026-04-23T07:29:26Z</time></trkpt><trkpt lat="42.66754676145597" lon="13.048751080332703"><ele>1229.8333333333333</ele><time>2026-04-23T07:29:28Z</time></trkpt><trkpt lat="42.66748871889762" lon="13.048819326975616"><ele>1228.0</ele><time>2026-04-23T07:29:30Z</time></trkpt><trkpt lat="42.66743114754436" lon="13.048887647534233"><ele>1228.0</ele><time>2026-04-23T07:29:32Z</time></trkpt><trkpt lat="42.667371325896156" lon="13.048959854302517"><ele>1228.0</ele><time>2026-04-23T07:29:34Z</time></trkpt><trkpt lat="42.66731164563763" lon="13.049038291261452"><ele>1228.0</ele><time>2026-04-23T07:29:36Z</time></trkpt><trkpt lat="42.66727682892016" lon="13.049118402572203"><ele>1228.0</ele><time>2026-04-23T07:29:38Z</time></trkpt><trkpt lat="42.66724016876906" lon="13.049196709727946"><ele>1228.0</ele><time>2026-04-23T07:29:40Z</time></trkpt><trkpt lat="42.667198393687165" lon="13.049268536099994"><ele>1228.0</ele><time>2026-04-23T07:29:42Z</time></trkpt><trkpt lat="42.66715458414547" lon="13.049379440042564"><ele>1227.4</ele><time>2026-04-23T07:29:44Z</time></trkpt><trkpt lat="42.667121486591185" lon="13.049483609535434"><ele>1226.8</ele><time>2026-04-23T07:29:46Z</time></trkpt><trkpt lat="42.66706614096377" lon="13.049579078988922"><ele>1226.2</ele><time>2026-04-23T07:29:48Z</time></trkpt><trkpt lat="42.66700914569944" lon="13.049624476982716"><ele>1225.6</ele><time>2026-04-23T07:29:50Z</time></trkpt><trkpt lat="42.66693727003208" lon="13.049738796670194"><ele>1225.0</ele><time>2026-04-23T07:29:52Z</time></trkpt><trkpt lat="42.66686652437688" lon="13.049848644221235"><ele>1221.4</ele><time>2026-04-23T07:29:54Z</time></trkpt><trkpt lat="42.66678341193009" lon="13.049972148364493"><ele>1217.8</ele><time>2026-04-23T07:29:56Z</time></trkpt><trkpt lat="42.66669298299522" lon="13.050105291594242"><ele>1214.2</ele><time>2026-04-23T07:29:58Z</time></trkpt><trkpt lat="42.666636793335584" lon="13.050162326416261"><ele>1210.6</ele><time>2026-04-23T07:29:59Z</time></trkpt><trkpt lat="42.66654542422706" lon="13.050248805794158"><ele>1207.0</ele><time>2026-04-23T07:30:01Z</time></trkpt><trkpt lat="42.666480286214444" lon="13.050326069143715"><ele>1207.0</ele><time>2026-04-23T07:30:03Z</time></trkpt><trkpt lat="42.666414022073674" lon="13.050418051178717"><ele>1207.0</ele><time>2026-04-23T07:30:04.999Z</time></trkpt><trkpt lat="42.66635020766473" lon="13.05047912010766"><ele>1207.0</ele><time>2026-04-23T07:30:06.999Z</time></trkpt><trkpt lat="42.666286520697355" lon="13.050570785610663"><ele>1207.0</ele><time>2026-04-23T07:30:09.999Z</time></trkpt><trkpt lat="42.66624758334099" lon="13.050641473931435"><ele>1207.0</ele><time>2026-04-23T07:30:11.999Z</time></trkpt><trkpt lat="42.666243272773116" lon="13.0507619700896"><ele>1207.0</ele><time>2026-04-23T07:30:13.999Z</time></trkpt><trkpt lat="42.666253379648644" lon="13.050911954699998"><ele>1205.8</ele><time>2026-04-23T07:30:15.999Z</time></trkpt><trkpt lat="42.6662421907408" lon="13.051022000570885"><ele>1204.6</ele><time>2026-04-23T07:30:17.999Z</time></trkpt><trkpt lat="42.66621522972608" lon="13.051121546587916"><ele>1203.3999999999999</ele><time>2026-04-23T07:30:19.999Z</time></trkpt><trkpt lat="42.666122101465064" lon="13.05120326097397"><ele>1202.2</ele><time>2026-04-23T07:30:21.999Z</time></trkpt><trkpt lat="42.666065759659304" lon="13.051312983897287"><ele>1201.0</ele><time>2026-04-23T07:30:23.999Z</time></trkpt><trkpt lat="42.666047651367094" lon="13.051423181254254"><ele>1198.6</ele><time>2026-04-23T07:30:25.999Z</time></trkpt><trkpt lat="42.66602417762698" lon="13.051577634257242"><ele>1196.1999999999998</ele><time>2026-04-23T07:30:27.999Z</time></trkpt><trkpt lat="42.66601156171559" lon="13.051670637558525"><ele>1193.8000000000002</ele><time>2026-04-23T07:30:28.999Z</time></trkpt><trkpt lat="42.66599547175862" lon="13.051764890299772"><ele>1191.4</ele><time>2026-04-23T07:30:29.999Z</time></trkpt><trkpt lat="42.66599524275034" lon="13.051866074907712"><ele>1189.0</ele><time>2026-04-23T07:30:31Z</time></trkpt><trkpt lat="42.66597352360385" lon="13.052036038668533"><ele>1186.8</ele><time>2026-04-23T07:30:33Z</time></trkpt><trkpt lat="42.66597026790539" lon="13.052136193732036"><ele>1184.6000000000001</ele><time>2026-04-23T07:30:34Z</time></trkpt><trkpt lat="42.665962880274485" lon="13.052302876641434"><ele>1182.4</ele><time>2026-04-23T07:30:36Z</time></trkpt><trkpt lat="42.66594436154311" lon="13.052445156776743"><ele>1180.2</ele><time>2026-04-23T07:30:38Z</time></trkpt><trkpt lat="42.66593162104082" lon="13.05254254265519"><ele>1178.0</ele><time>2026-04-23T07:30:39Z</time></trkpt><trkpt lat="42.66591862741666" lon="13.05269459982416"><ele>1176.4</ele><time>2026-04-23T07:30:41Z</time></trkpt><trkpt lat="42.6659196923782" lon="13.05282529867347"><ele>1174.8</ele><time>2026-04-23T07:30:43Z</time></trkpt><trkpt lat="42.66593399052627" lon="13.052988325597624"><ele>1173.2</ele><time>2026-04-23T07:30:45Z</time></trkpt><trkpt lat="42.66597592727978" lon="13.053161264836397"><ele>1171.6</ele><time>2026-04-23T07:30:47Z</time></trkpt><trkpt lat="42.66600332338198" lon="13.053243010721552"><ele>1170.0</ele><time>2026-04-23T07:30:48Z</time></trkpt><trkpt lat="42.666035349190764" lon="13.053338539334293"><ele>1168.0</ele><time>2026-04-23T07:30:50Z</time></trkpt><trkpt lat="42.66607423039932" lon="13.053431307799016"><ele>1166.0</ele><time>2026-04-23T07:30:52Z</time></trkpt><trkpt lat="42.6660685105901" lon="13.053563211542496"><ele>1164.0</ele><time>2026-04-23T07:30:54Z</time></trkpt><trkpt lat="42.6660362490775" lon="13.053681542395342"><ele>1162.0</ele><time>2026-04-23T07:30:56Z</time></trkpt><trkpt lat="42.6659997094869" lon="13.05375369110802"><ele>1160.0</ele><time>2026-04-23T07:30:57Z</time></trkpt><trkpt lat="42.66595942155771" lon="13.053838885726762"><ele>1158.0</ele><time>2026-04-23T07:30:58Z</time></trkpt><trkpt lat="42.66590168468533" lon="13.053902280834379"><ele>1158.0</ele><time>2026-04-23T07:30:59Z</time></trkpt><trkpt lat="42.6658336308129" lon="13.053969695546996"><ele>1158.0</ele><time>2026-04-23T07:31:00Z</time></trkpt><trkpt lat="42.6657558055149" lon="13.05403233460893"><ele>1158.0</ele><time>2026-04-23T07:31:01Z</time></trkpt><trkpt lat="42.66567934989364" lon="13.054096051825338"><ele>1158.0</ele><time>2026-04-23T07:31:02Z</time></trkpt><trkpt lat="42.66560238616464" lon="13.054160937832531"><ele>1158.0</ele><time>2026-04-23T07:31:03Z</time></trkpt><trkpt lat="42.66553334866214" lon="13.054217965646846"><ele>1158.0</ele><time>2026-04-23T07:31:04Z</time></trkpt><trkpt lat="42.66547171420369" lon="13.054282751878809"><ele>1160.0</ele><time>2026-04-23T07:31:05Z</time></trkpt><trkpt lat="42.66540219792046" lon="13.054351526397218"><ele>1162.0</ele><time>2026-04-23T07:31:06Z</time></trkpt><trkpt lat="42.66533020047495" lon="13.054443513411451"><ele>1164.0</ele><time>2026-04-23T07:31:07Z</time></trkpt><trkpt lat="42.665252624317624" lon="13.054531652895944"><ele>1166.0</ele><time>2026-04-23T07:31:08Z</time></trkpt><trkpt lat="42.665162068348366" lon="13.054619695847974"><ele>1168.0</ele><time>2026-04-23T07:31:09Z</time></trkpt><trkpt lat="42.66507526329717" lon="13.05470350603058"><ele>1168.2</ele><time>2026-04-23T07:31:10Z</time></trkpt><trkpt lat="42.66498895165944" lon="13.054801934888188"><ele>1168.4</ele><time>2026-04-23T07:31:11Z</time></trkpt><trkpt lat="42.664913058136634" lon="13.054909609184506"><ele>1168.6000000000001</ele><time>2026-04-23T07:31:12Z</time></trkpt><trkpt lat="42.66483708150981" lon="13.055011802118509"><ele>1168.8</ele><time>2026-04-23T07:31:13Z</time></trkpt><trkpt lat="42.66475825629841" lon="13.05512343110176"><ele>1169.0</ele><time>2026-04-23T07:31:14Z</time></trkpt><trkpt lat="42.66467560204223" lon="13.05524317656572"><ele>1169.0</ele><time>2026-04-23T07:31:15Z</time></trkpt><trkpt lat="42.66460234672426" lon="13.055376331050638"><ele>1169.0</ele><time>2026-04-23T07:31:16Z</time></trkpt><trkpt lat="42.664527086835996" lon="13.055505730892442"><ele>1169.0</ele><time>2026-04-23T07:31:17Z</time></trkpt><trkpt lat="42.664455499008945" lon="13.055606146676988"><ele>1169.0</ele><time>2026-04-23T07:31:18Z</time></trkpt><trkpt lat="42.66439332912511" lon="13.055708722817444"><ele>1169.0</ele><time>2026-04-23T07:31:19Z</time></trkpt><trkpt lat="42.66433269893997" lon="13.05578676583937"><ele>1168.0</ele><time>2026-04-23T07:31:20Z</time></trkpt><trkpt lat="42.66426951880971" lon="13.055871135019686"><ele>1167.0</ele><time>2026-04-23T07:31:21Z</time></trkpt><trkpt lat="42.664194367602384" lon="13.05595247262003"><ele>1166.0</ele><time>2026-04-23T07:31:22Z</time></trkpt><trkpt lat="42.664129393573496" lon="13.056021639373615"><ele>1165.0</ele><time>2026-04-23T07:31:23Z</time></trkpt><trkpt lat="42.66407390908286" lon="13.056076808831257"><ele>1164.0</ele><time>2026-04-23T07:31:24Z</time></trkpt><trkpt lat="42.66397775870777" lon="13.056168021360934"><ele>1164.0</ele><time>2026-04-23T07:31:26Z</time></trkpt><trkpt lat="42.66392498330862" lon="13.056223727749947"><ele>1164.0</ele><time>2026-04-23T07:31:27Z</time></trkpt><trkpt lat="42.66386575993062" lon="13.056289848850646"><ele>1164.0</ele><time>2026-04-23T07:31:28Z</time></trkpt><trkpt lat="42.66381752307333" lon="13.056358660930798"><ele>1164.0</ele><time>2026-04-23T07:31:29Z</time></trkpt><trkpt lat="42.66375245676315" lon="13.056428478166819"><ele>1164.0</ele><time>2026-04-23T07:31:30Z</time></trkpt><trkpt lat="42.66365499599318" lon="13.056552103439143"><ele>1164.0</ele><time>2026-04-23T07:31:32Z</time></trkpt><trkpt lat="42.66358274230443" lon="13.056616443370572"><ele>1162.4</ele><time>2026-04-23T07:31:33Z</time></trkpt><trkpt lat="42.663503362919855" lon="13.056698101384566"><ele>1160.8000000000002</ele><time>2026-04-23T07:31:34Z</time></trkpt><trkpt lat="42.66343869885941" lon="13.056766132758836"><ele>1159.1999999999998</ele><time>2026-04-23T07:31:35Z</time></trkpt><trkpt lat="42.663367409909284" lon="13.056831091362628"><ele>1157.6</ele><time>2026-04-23T07:31:36Z</time></trkpt><trkpt lat="42.6632879112495" lon="13.056916542550718"><ele>1156.0</ele><time>2026-04-23T07:31:37Z</time></trkpt><trkpt lat="42.663218415751615" lon="13.056997538629698"><ele>1156.0</ele><time>2026-04-23T07:31:38Z</time></trkpt><trkpt lat="42.66314142792664" lon="13.057079309471868"><ele>1156.0</ele><time>2026-04-23T07:31:39Z</time></trkpt><trkpt lat="42.6630669718213" lon="13.05716843025"><ele>1156.0</ele><time>2026-04-23T07:31:40Z</time></trkpt><trkpt lat="42.6629930608281" lon="13.057256182905892"><ele>1156.0</ele><time>2026-04-23T07:31:41Z</time></trkpt><trkpt lat="42.662928692255285" lon="13.057326413877705"><ele>1156.0</ele><time>2026-04-23T07:31:42Z</time></trkpt><trkpt lat="42.662870862857325" lon="13.057387731276728"><ele>1156.0</ele><time>2026-04-23T07:31:43Z</time></trkpt><trkpt lat="42.66281071332208" lon="13.057447717403841"><ele>1156.0</ele><time>2026-04-23T07:31:44Z</time></trkpt><trkpt lat="42.662738491256526" lon="13.05751206041734"><ele>1156.0</ele><time>2026-04-23T07:31:45Z</time></trkpt><trkpt lat="42.662673285694176" lon="13.057579798851226"><ele>1156.0</ele><time>2026-04-23T07:31:46Z</time></trkpt><trkpt lat="42.662604927324736" lon="13.057645585882346"><ele>1156.0</ele><time>2026-04-23T07:31:47Z</time></trkpt><trkpt lat="42.662539318602654" lon="13.05769411529562"><ele>1156.0</ele><time>2026-04-23T07:31:48Z</time></trkpt><trkpt lat="42.66246297022008" lon="13.05773280827976"><ele>1154.6</ele><time>2026-04-23T07:31:49Z</time></trkpt><trkpt lat="42.66237117921471" lon="13.05778187892961"><ele>1153.1999999999998</ele><time>2026-04-23T07:31:50Z</time></trkpt><trkpt lat="42.66227702356267" lon="13.057845626672446"><ele>1151.8000000000002</ele><time>2026-04-23T07:31:51Z</time></trkpt><trkpt lat="42.662188179657996" lon="13.057894456963975"><ele>1150.4</ele><time>2026-04-23T07:31:52Z</time></trkpt><trkpt lat="42.66210760706038" lon="13.05793685633599"><ele>1149.0</ele><time>2026-04-23T07:31:53Z</time></trkpt><trkpt lat="42.662017025812276" lon="13.05797477500159"><ele>1144.2</ele><time>2026-04-23T07:31:54Z</time></trkpt><trkpt lat="42.66193007954094" lon="13.058022231361292"><ele>1139.4</ele><time>2026-04-23T07:31:55Z</time></trkpt><trkpt lat="42.66184141414364" lon="13.058073957783021"><ele>1134.6</ele><time>2026-04-23T07:31:56Z</time></trkpt><trkpt lat="42.66175485511231" lon="13.058129930321497"><ele>1129.8</ele><time>2026-04-23T07:31:57Z</time></trkpt><trkpt lat="42.661673908148124" lon="13.058201717694317"><ele>1125.0</ele><time>2026-04-23T07:31:58Z</time></trkpt><trkpt lat="42.66159481829059" lon="13.058284216746294"><ele>1129.5</ele><time>2026-04-23T07:31:59Z</time></trkpt><trkpt lat="42.661525692801796" lon="13.058372707965729"><ele>1134.0</ele><time>2026-04-23T07:32:00Z</time></trkpt><trkpt lat="42.66145087008487" lon="13.058452751264262"><ele>1138.5</ele><time>2026-04-23T07:32:01Z</time></trkpt><trkpt lat="42.66138766044107" lon="13.058493090260175"><ele>1143.0</ele><time>2026-04-23T07:32:02Z</time></trkpt><trkpt lat="42.661300790947756" lon="13.058552074775626"><ele>1147.5</ele><time>2026-04-23T07:32:04Z</time></trkpt><trkpt lat="42.661232208162936" lon="13.05860110978703"><ele>1152.0</ele><time>2026-04-23T07:32:06Z</time></trkpt><trkpt lat="42.661191583139704" lon="13.058687175887478"><ele>1152.0</ele><time>2026-04-23T07:32:08Z</time></trkpt><trkpt lat="42.66114071181745" lon="13.058741916226449"><ele>1152.0</ele><time>2026-04-23T07:32:09Z</time></trkpt><trkpt lat="42.66105730839484" lon="13.058783282100643"><ele>1152.0</ele><time>2026-04-23T07:32:10Z</time></trkpt><trkpt lat="42.660968544910915" lon="13.0588209880284"><ele>1152.0</ele><time>2026-04-23T07:32:11Z</time></trkpt><trkpt lat="42.66089298345702" lon="13.058854588482149"><ele>1152.0</ele><time>2026-04-23T07:32:12Z</time></trkpt><trkpt lat="42.66083480300558" lon="13.058896972157637"><ele>1152.0</ele><time>2026-04-23T07:32:13Z</time></trkpt><trkpt lat="42.660775580197296" lon="13.058928250695066"><ele>1147.8333333333333</ele><time>2026-04-23T07:32:14Z</time></trkpt><trkpt lat="42.66070813780382" lon="13.058936266732728"><ele>1143.6666666666667</ele><time>2026-04-23T07:32:15Z</time></trkpt><trkpt lat="42.66062260086492" lon="13.058930458623035"><ele>1139.5</ele><time>2026-04-23T07:32:16Z</time></trkpt><trkpt lat="42.66051659251967" lon="13.058934482399964"><ele>1135.3333333333335</ele><time>2026-04-23T07:32:17Z</time></trkpt><trkpt lat="42.66043822895614" lon="13.058948895639361"><ele>1131.1666666666667</ele><time>2026-04-23T07:32:18Z</time></trkpt><trkpt lat="42.66035895709775" lon="13.058957851248799"><ele>1127.0</ele><time>2026-04-23T07:32:18.999Z</time></trkpt><trkpt lat="42.660278274172775" lon="13.058975054895892"><ele>1129.0</ele><time>2026-04-23T07:32:19.999Z</time></trkpt><trkpt lat="42.66018156629754" lon="13.058990853335922"><ele>1131.0</ele><time>2026-04-23T07:32:20.999Z</time></trkpt><trkpt lat="42.660097249150475" lon="13.05902280483735"><ele>1133.0</ele><time>2026-04-23T07:32:21.999Z</time></trkpt><trkpt lat="42.660008278212416" lon="13.059073944071498"><ele>1135.0</ele><time>2026-04-23T07:32:22.999Z</time></trkpt><trkpt lat="42.6599412931685" lon="13.059134113843616"><ele>1137.0</ele><time>2026-04-23T07:32:23.999Z</time></trkpt><trkpt lat="42.65986108319737" lon="13.059199110114251"><ele>1137.0</ele><time>2026-04-23T07:32:25.999Z</time></trkpt><trkpt lat="42.659740094358014" lon="13.05919846973932"><ele>1137.0</ele><time>2026-04-23T07:32:27.999Z</time></trkpt><trkpt lat="42.65964362827243" lon="13.059178947223817"><ele>1137.0</ele><time>2026-04-23T07:32:28.999Z</time></trkpt><trkpt lat="42.659551566464444" lon="13.059160897310965"><ele>1137.0</ele><time>2026-04-23T07:32:29.999Z</time></trkpt><trkpt lat="42.65944691145878" lon="13.059150909020008"><ele>1137.0</ele><time>2026-04-23T07:32:30.999Z</time></trkpt><trkpt lat="42.65936047715542" lon="13.059149324035598"><ele>1134.2</ele><time>2026-04-23T07:32:31.999Z</time></trkpt><trkpt lat="42.65926350143977" lon="13.059145316839281"><ele>1131.4</ele><time>2026-04-23T07:32:32.999Z</time></trkpt><trkpt lat="42.659173536060415" lon="13.059145476121959"><ele>1128.6</ele><time>2026-04-23T07:32:33.999Z</time></trkpt><trkpt lat="42.659097050284814" lon="13.059146822657247"><ele>1125.8</ele><time>2026-04-23T07:32:34.999Z</time></trkpt><trkpt lat="42.659020079173956" lon="13.059162614295493"><ele>1123.0</ele><time>2026-04-23T07:32:35.999Z</time></trkpt><trkpt lat="42.6588383668954" lon="13.059244880989866"><ele>1123.0</ele><time>2026-04-23T07:32:38Z</time></trkpt><trkpt lat="42.658737784087904" lon="13.059284620933227"><ele>1123.0</ele><time>2026-04-23T07:32:39Z</time></trkpt><trkpt lat="42.65863704924965" lon="13.059321016303635"><ele>1123.0</ele><time>2026-04-23T07:32:40Z</time></trkpt><trkpt lat="42.658534144705335" lon="13.05933964993925"><ele>1123.0</ele><time>2026-04-23T07:32:41Z</time></trkpt><trkpt lat="42.65844637996848" lon="13.059353593811203"><ele>1123.0</ele><time>2026-04-23T07:32:42Z</time></trkpt><trkpt lat="42.65836300895978" lon="13.059360972816743"><ele>1122.0</ele><time>2026-04-23T07:32:43Z</time></trkpt><trkpt lat="42.65827557584123" lon="13.059373498207412"><ele>1121.0</ele><time>2026-04-23T07:32:44Z</time></trkpt><trkpt lat="42.658196796433366" lon="13.059388575682856"><ele>1120.0</ele><time>2026-04-23T07:32:45Z</time></trkpt><trkpt lat="42.658119470809226" lon="13.059402807584112"><ele>1119.0</ele><time>2026-04-23T07:32:46Z</time></trkpt><trkpt lat="42.658051640892" lon="13.059434009068255"><ele>1118.0</ele><time>2026-04-23T07:32:47Z</time></trkpt><trkpt lat="42.65798038587204" lon="13.059462885265022"><ele>1117.0</ele><time>2026-04-23T07:32:48Z</time></trkpt><trkpt lat="42.657900972986376" lon="13.059488281066479"><ele>1117.0</ele><time>2026-04-23T07:32:49Z</time></trkpt><trkpt lat="42.657829023488944" lon="13.059498584460624"><ele>1117.0</ele><time>2026-04-23T07:32:50Z</time></trkpt><trkpt lat="42.65776357366521" lon="13.059502268199571"><ele>1117.0</ele><time>2026-04-23T07:32:51Z</time></trkpt><trkpt lat="42.65765013259814" lon="13.059542786455198"><ele>1117.0</ele><time>2026-04-23T07:32:53Z</time></trkpt><trkpt lat="42.657556874639184" lon="13.059574733609276"><ele>1117.0</ele><time>2026-04-23T07:32:55Z</time></trkpt><trkpt lat="42.657466612707296" lon="13.059615710603245"><ele>1117.0</ele><time>2026-04-23T07:32:57Z</time></trkpt><trkpt lat="42.657393008116046" lon="13.059673744386574"><ele>1116.0</ele><time>2026-04-23T07:32:59Z</time></trkpt><trkpt lat="42.65730955237024" lon="13.059724202927487"><ele>1115.0</ele><time>2026-04-23T07:33:01Z</time></trkpt><trkpt lat="42.65722407231981" lon="13.059762013809703"><ele>1114.0</ele><time>2026-04-23T07:33:03Z</time></trkpt><trkpt lat="42.657154754697586" lon="13.059815462988832"><ele>1113.0</ele><time>2026-04-23T07:33:05Z</time></trkpt><trkpt lat="42.657088761766744" lon="13.059851519406573"><ele>1112.0</ele><time>2026-04-23T07:33:07Z</time></trkpt><trkpt lat="42.657017819228315" lon="13.059852992328636"><ele>1111.0</ele><time>2026-04-23T07:33:09Z</time></trkpt><trkpt lat="42.6568847144703" lon="13.059880416361263"><ele>1109.8</ele><time>2026-04-23T07:33:11Z</time></trkpt><trkpt lat="42.656778627568364" lon="13.05993608236928"><ele>1108.6</ele><time>2026-04-23T07:33:13Z</time></trkpt><trkpt lat="42.65668019915294" lon="13.059978814834125"><ele>1107.4</ele><time>2026-04-23T07:33:15Z</time></trkpt><trkpt lat="42.656592342599076" lon="13.06002698513131"><ele>1106.2</ele><time>2026-04-23T07:33:17Z</time></trkpt><trkpt lat="42.65649895501776" lon="13.060070372954192"><ele>1105.0</ele><time>2026-04-23T07:33:19Z</time></trkpt><trkpt lat="42.6563948663355" lon="13.060127882130532"><ele>1104.0</ele><time>2026-04-23T07:33:21Z</time></trkpt><trkpt lat="42.656311251280755" lon="13.060222195650075"><ele>1103.0</ele><time>2026-04-23T07:33:23Z</time></trkpt><trkpt lat="42.65629993517336" lon="13.060370837020768"><ele>1102.0</ele><time>2026-04-23T07:33:25Z</time></trkpt><trkpt lat="42.65632427545093" lon="13.060455059392938"><ele>1101.0</ele><time>2026-04-23T07:33:26Z</time></trkpt><trkpt lat="42.65634570717116" lon="13.06059912949968"><ele>1100.0</ele><time>2026-04-23T07:33:28Z</time></trkpt><trkpt lat="42.65632979755162" lon="13.060751969732284"><ele>1097.2</ele><time>2026-04-23T07:33:30Z</time></trkpt><trkpt lat="42.65629924934826" lon="13.060906298900958"><ele>1094.4</ele><time>2026-04-23T07:33:32Z</time></trkpt><trkpt lat="42.6562787523589" lon="13.06106093294333"><ele>1091.6</ele><time>2026-04-23T07:33:34Z</time></trkpt><trkpt lat="42.65628763180663" lon="13.06119537802311"><ele>1088.8</ele><time>2026-04-23T07:33:36Z</time></trkpt><trkpt lat="42.656321414994565" lon="13.061282458775446"><ele>1086.0</ele><time>2026-04-23T07:33:37Z</time></trkpt><trkpt lat="42.656381568695465" lon="13.061379315941338"><ele>1086.0</ele><time>2026-04-23T07:33:38Z</time></trkpt><trkpt lat="42.65643569107503" lon="13.061476360340082"><ele>1086.0</ele><time>2026-04-23T07:33:39Z</time></trkpt><trkpt lat="42.65648844780978" lon="13.061589899564133"><ele>1086.0</ele><time>2026-04-23T07:33:40Z</time></trkpt><trkpt lat="42.65654927224399" lon="13.061712044122267"><ele>1086.0</ele><time>2026-04-23T07:33:41Z</time></trkpt><trkpt lat="42.65661983388784" lon="13.061824466311839"><ele>1086.0</ele><time>2026-04-23T07:33:42Z</time></trkpt><trkpt lat="42.65670596521377" lon="13.061923656273136"><ele>1086.25</ele><time>2026-04-23T07:33:43Z</time></trkpt><trkpt lat="42.656811887078376" lon="13.062018144941506"><ele>1086.5</ele><time>2026-04-23T07:33:44Z</time></trkpt><trkpt lat="42.65692995656065" lon="13.06211862160445"><ele>1086.75</ele><time>2026-04-23T07:33:45Z</time></trkpt><trkpt lat="42.657053504223846" lon="13.062215786274036"><ele>1087.0</ele><time>2026-04-23T07:33:46Z</time></trkpt><trkpt lat="42.657182756091146" lon="13.062304766484829"><ele>1085.5</ele><time>2026-04-23T07:33:47Z</time></trkpt><trkpt lat="42.65747615110814" lon="13.062439762913767"><ele>1084.0</ele><time>2026-04-23T07:33:49Z</time></trkpt><trkpt lat="42.65763138474308" lon="13.062498974153433"><ele>1082.75</ele><time>2026-04-23T07:33:50Z</time></trkpt><trkpt lat="42.657782477628004" lon="13.062562131723215"><ele>1081.5</ele><time>2026-04-23T07:33:51Z</time></trkpt><trkpt lat="42.65792158289775" lon="13.062627232624012"><ele>1080.25</ele><time>2026-04-23T07:33:52Z</time></trkpt><trkpt lat="42.65805562854541" lon="13.062697444486874"><ele>1079.0</ele><time>2026-04-23T07:33:53Z</time></trkpt><trkpt lat="42.658184655939564" lon="13.062764270068042"><ele>1078.2</ele><time>2026-04-23T07:33:54Z</time></trkpt><trkpt lat="42.65830049965332" lon="13.062832841475256"><ele>1077.4</ele><time>2026-04-23T07:33:55Z</time></trkpt><trkpt lat="42.658391722646506" lon="13.062918186773228"><ele>1076.6</ele><time>2026-04-23T07:33:56Z</time></trkpt><trkpt lat="42.658460511816756" lon="13.063025769199891"><ele>1075.8</ele><time>2026-04-23T07:33:57Z</time></trkpt><trkpt lat="42.658502792204786" lon="13.063157934003486"><ele>1075.0</ele><time>2026-04-23T07:33:58Z</time></trkpt><trkpt lat="42.658535731046676" lon="13.063321285908456"><ele>1076.0</ele><time>2026-04-23T07:33:59Z</time></trkpt><trkpt lat="42.6585638515177" lon="13.06349121105909"><ele>1077.0</ele><time>2026-04-23T07:34:00Z</time></trkpt><trkpt lat="42.658594463349665" lon="13.06366432819702"><ele>1078.0</ele><time>2026-04-23T07:34:01Z</time></trkpt><trkpt lat="42.65864274365561" lon="13.063810987765896"><ele>1079.0</ele><time>2026-04-23T07:34:02Z</time></trkpt><trkpt lat="42.658714762586236" lon="13.063924276564302"><ele>1079.0</ele><time>2026-04-23T07:34:03Z</time></trkpt><trkpt lat="42.65880934111349" lon="13.064010676504386"><ele>1079.0</ele><time>2026-04-23T07:34:04Z</time></trkpt><trkpt lat="42.65892193020465" lon="13.064050941305798"><ele>1079.0</ele><time>2026-04-23T07:34:05Z</time></trkpt><trkpt lat="42.65904771192304" lon="13.064069125767094"><ele>1079.0</ele><time>2026-04-23T07:34:06Z</time></trkpt><trkpt lat="42.659165335191254" lon="13.064114350911424"><ele>1077.25</ele><time>2026-04-23T07:34:07Z</time></trkpt><trkpt lat="42.65925935360376" lon="13.064191590108258"><ele>1075.5</ele><time>2026-04-23T07:34:08Z</time></trkpt><trkpt lat="42.65933061397761" lon="13.064304385503018"><ele>1073.75</ele><time>2026-04-23T07:34:09Z</time></trkpt><trkpt lat="42.659379946854706" lon="13.06444202581188"><ele>1072.0</ele><time>2026-04-23T07:34:10Z</time></trkpt><trkpt lat="42.65941671049147" lon="13.064601693157542"><ele>1072.0</ele><time>2026-04-23T07:34:11Z</time></trkpt><trkpt lat="42.659444525431695" lon="13.064765524790038"><ele>1072.0</ele><time>2026-04-23T07:34:12Z</time></trkpt><trkpt lat="42.659467154882044" lon="13.064914037253915"><ele>1072.0</ele><time>2026-04-23T07:34:13Z</time></trkpt><trkpt lat="42.65948467957427" lon="13.065049772803768"><ele>1072.0</ele><time>2026-04-23T07:34:14Z</time></trkpt><trkpt lat="42.65948723631657" lon="13.065164774696491"><ele>1072.0</ele><time>2026-04-23T07:34:15Z</time></trkpt><trkpt lat="42.65946395381873" lon="13.065263045877408"><ele>1071.4</ele><time>2026-04-23T07:34:16Z</time></trkpt><trkpt lat="42.65941655623239" lon="13.065330155452772"><ele>1070.8000000000002</ele><time>2026-04-23T07:34:17Z</time></trkpt><trkpt lat="42.659300643487924" lon="13.065331751731488"><ele>1070.2</ele><time>2026-04-23T07:34:19Z</time></trkpt><trkpt lat="42.659239253532334" lon="13.065269465826711"><ele>1069.6000000000001</ele><time>2026-04-23T07:34:20Z</time></trkpt><trkpt lat="42.659175530872794" lon="13.065170031548151"><ele>1069.0</ele><time>2026-04-23T07:34:21Z</time></trkpt><trkpt lat="42.659094074370785" lon="13.065074278690387"><ele>1069.0</ele><time>2026-04-23T07:34:22Z</time></trkpt><trkpt lat="42.65899324396699" lon="13.064992897389876"><ele>1069.0</ele><time>2026-04-23T07:34:23Z</time></trkpt><trkpt lat="42.65886619827894" lon="13.064933694893316"><ele>1069.0</ele><time>2026-04-23T07:34:24Z</time></trkpt><trkpt lat="42.65872717195722" lon="13.064890553375298"><ele>1069.0</ele><time>2026-04-23T07:34:25Z</time></trkpt><trkpt lat="42.65858474273491" lon="13.064851621097647"><ele>1066.3333333333333</ele><time>2026-04-23T07:34:26Z</time></trkpt><trkpt lat="42.658431777671105" lon="13.064812576283495"><ele>1063.6666666666667</ele><time>2026-04-23T07:34:27Z</time></trkpt><trkpt lat="42.65827004612474" lon="13.064776642230651"><ele>1061.0</ele><time>2026-04-23T07:34:28Z</time></trkpt><trkpt lat="42.65810089671692" lon="13.064775492632137"><ele>1061.0</ele><time>2026-04-23T07:34:29Z</time></trkpt><trkpt lat="42.65792946029168" lon="13.064817281992223"><ele>1061.0</ele><time>2026-04-23T07:34:30Z</time></trkpt><trkpt lat="42.65776615074973" lon="13.064869535928947"><ele>1061.0</ele><time>2026-04-23T07:34:31Z</time></trkpt><trkpt lat="42.6576108023805" lon="13.064914375067582"><ele>1060.25</ele><time>2026-04-23T07:34:32Z</time></trkpt><trkpt lat="42.657468680465065" lon="13.064955357870161"><ele>1059.5</ele><time>2026-04-23T07:34:33Z</time></trkpt><trkpt lat="42.65733217551233" lon="13.06499840569457"><ele>1058.75</ele><time>2026-04-23T07:34:34Z</time></trkpt><trkpt lat="42.65719411329534" lon="13.065038093467852"><ele>1058.0</ele><time>2026-04-23T07:34:35Z</time></trkpt><trkpt lat="42.65704669868672" lon="13.065078943688663"><ele>1058.0</ele><time>2026-04-23T07:34:36Z</time></trkpt><trkpt lat="42.65689177649491" lon="13.065123410294028"><ele>1058.0</ele><time>2026-04-23T07:34:36.999Z</time></trkpt><trkpt lat="42.65673452589355" lon="13.06517191543535"><ele>1058.0</ele><time>2026-04-23T07:34:37.999Z</time></trkpt><trkpt lat="42.65657114400527" lon="13.06521936627323"><ele>1058.0</ele><time>2026-04-23T07:34:38.999Z</time></trkpt><trkpt lat="42.656403708764145" lon="13.065270822283328"><ele>1058.0</ele><time>2026-04-23T07:34:39.999Z</time></trkpt><trkpt lat="42.65623781394406" lon="13.065323111543911"><ele>1058.0</ele><time>2026-04-23T07:34:40.999Z</time></trkpt><trkpt lat="42.65608463954961" lon="13.065370724283516"><ele>1057.5</ele><time>2026-04-23T07:34:41.999Z</time></trkpt><trkpt lat="42.6559409228412" lon="13.065400131944969"><ele>1057.0</ele><time>2026-04-23T07:34:43Z</time></trkpt><trkpt lat="42.65580258952724" lon="13.065390217901438"><ele>1056.5</ele><time>2026-04-23T07:34:44Z</time></trkpt><trkpt lat="42.65566825293263" lon="13.065343621330204"><ele>1056.0</ele><time>2026-04-23T07:34:44.999Z</time></trkpt><trkpt lat="42.65554005629205" lon="13.065259756647944"><ele>1056.0</ele><time>2026-04-23T07:34:45.999Z</time></trkpt><trkpt lat="42.65540995073683" lon="13.065148527366382"><ele>1056.0</ele><time>2026-04-23T07:34:46.999Z</time></trkpt><trkpt lat="42.65527938897939" lon="13.065017928381442"><ele>1056.0</ele><time>2026-04-23T07:34:47.999Z</time></trkpt><trkpt lat="42.65514467158529" lon="13.064867044194806"><ele>1054.3333333333333</ele><time>2026-04-23T07:34:48.999Z</time></trkpt><trkpt lat="42.65500668533426" lon="13.064698086837385"><ele>1052.6666666666665</ele><time>2026-04-23T07:34:49.999Z</time></trkpt><trkpt lat="42.65487315806679" lon="13.064510752575702"><ele>1051.0</ele><time>2026-04-23T07:34:50.999Z</time></trkpt><trkpt lat="42.65473763858417" lon="13.064309396128545"><ele>1051.0</ele><time>2026-04-23T07:34:51.999Z</time></trkpt><trkpt lat="42.654591702780216" lon="13.06411402571964"><ele>1051.0</ele><time>2026-04-23T07:34:52.999Z</time></trkpt><trkpt lat="42.65443796600959" lon="13.063943428858993"><ele>1051.0</ele><time>2026-04-23T07:34:53.999Z</time></trkpt><trkpt lat="42.65427255960585" lon="13.063770364240602"><ele>1048.3333333333333</ele><time>2026-04-23T07:34:54.999Z</time></trkpt><trkpt lat="42.65410478030589" lon="13.063588849655313"><ele>1045.6666666666667</ele><time>2026-04-23T07:34:55.999Z</time></trkpt><trkpt lat="42.65393894070939" lon="13.063402155951499"><ele>1043.0</ele><time>2026-04-23T07:34:56.999Z</time></trkpt><trkpt lat="42.65376844993219" lon="13.063218331986436"><ele>1041.6666666666667</ele><time>2026-04-23T07:34:57.999Z</time></trkpt><trkpt lat="42.653593883714684" lon="13.063038626275185"><ele>1040.3333333333333</ele><time>2026-04-23T07:34:58.999Z</time></trkpt><trkpt lat="42.653418819990584" lon="13.062863453473962"><ele>1039.0</ele><time>2026-04-23T07:34:59.999Z</time></trkpt><trkpt lat="42.65324377860016" lon="13.062695678086293"><ele>1039.0</ele><time>2026-04-23T07:35:00.999Z</time></trkpt><trkpt lat="42.65306762497858" lon="13.062532576702303"><ele>1039.0</ele><time>2026-04-23T07:35:01.999Z</time></trkpt><trkpt lat="42.6528954843368" lon="13.062381873841383"><ele>1039.0</ele><time>2026-04-23T07:35:02.999Z</time></trkpt><trkpt lat="42.65272265328173" lon="13.06224303775123"><ele>1039.3333333333333</ele><time>2026-04-23T07:35:03.999Z</time></trkpt><trkpt lat="42.652551876513456" lon="13.0621276209997"><ele>1039.6666666666667</ele><time>2026-04-23T07:35:04.999Z</time></trkpt><trkpt lat="42.65237536586233" lon="13.062040779474497"><ele>1040.0</ele><time>2026-04-23T07:35:05.999Z</time></trkpt><trkpt lat="42.65218620728063" lon="13.06198871905701"><ele>1040.0</ele><time>2026-04-23T07:35:06.999Z</time></trkpt><trkpt lat="42.651993348674246" lon="13.061971815904375"><ele>1040.0</ele><time>2026-04-23T07:35:07.999Z</time></trkpt><trkpt lat="42.65179720033593" lon="13.061976533575029"><ele>1040.0</ele><time>2026-04-23T07:35:08.999Z</time></trkpt><trkpt lat="42.651601705030416" lon="13.06199261077642"><ele>1035.6666666666667</ele><time>2026-04-23T07:35:09.999Z</time></trkpt><trkpt lat="42.65140531874757" lon="13.062012097122642"><ele>1031.3333333333333</ele><time>2026-04-23T07:35:10.999Z</time></trkpt><trkpt lat="42.65116431378537" lon="13.06191626865404"><ele>1027.0</ele><time>2026-04-23T07:35:11.999Z</time></trkpt><trkpt lat="42.65094898769364" lon="13.061909151461817"><ele>1026.0</ele><time>2026-04-23T07:35:12.999Z</time></trkpt><trkpt lat="42.65072964127755" lon="13.06190703900847"><ele>1025.0</ele><time>2026-04-23T07:35:13.999Z</time></trkpt><trkpt lat="42.650517231393984" lon="13.061903232205976"><ele>1024.0</ele><time>2026-04-23T07:35:14.999Z</time></trkpt><trkpt lat="42.650314448576" lon="13.061900864718353"><ele>1022.6666666666666</ele><time>2026-04-23T07:35:15.999Z</time></trkpt><trkpt lat="42.650123193152886" lon="13.061890769051697"><ele>1021.3333333333333</ele><time>2026-04-23T07:35:16.999Z</time></trkpt><trkpt lat="42.64994250669493" lon="13.061871031334949"><ele>1020.0</ele><time>2026-04-23T07:35:17.999Z</time></trkpt><trkpt lat="42.64976789359668" lon="13.06183517023573"><ele>1020.0</ele><time>2026-04-23T07:35:18.999Z</time></trkpt><trkpt lat="42.64959535392855" lon="13.061769951765699"><ele>1020.0</ele><time>2026-04-23T07:35:19.999Z</time></trkpt><trkpt lat="42.64942732193562" lon="13.061678632672198"><ele>1020.0</ele><time>2026-04-23T07:35:20.999Z</time></trkpt><trkpt lat="42.64926090486958" lon="13.061564360664082"><ele>1022.0</ele><time>2026-04-23T07:35:21.999Z</time></trkpt><trkpt lat="42.6490968859453" lon="13.06144307850227"><ele>1024.0</ele><time>2026-04-23T07:35:22.999Z</time></trkpt><trkpt lat="42.64892723018635" lon="13.061311253397735"><ele>1026.0</ele><time>2026-04-23T07:35:23.999Z</time></trkpt><trkpt lat="42.648761338325514" lon="13.061177260364092"><ele>1023.3333333333333</ele><time>2026-04-23T07:35:24.999Z</time></trkpt><trkpt lat="42.64859372629008" lon="13.061038246209291"><ele>1020.6666666666666</ele><time>2026-04-23T07:35:25.999Z</time></trkpt><trkpt lat="42.64842679319356" lon="13.060896929820215"><ele>1018.0</ele><time>2026-04-23T07:35:26.999Z</time></trkpt><trkpt lat="42.6482671634804" lon="13.060743964570998"><ele>1018.0</ele><time>2026-04-23T07:35:27.999Z</time></trkpt><trkpt lat="42.64811674222696" lon="13.060574275062711"><ele>1018.0</ele><time>2026-04-23T07:35:28.999Z</time></trkpt><trkpt lat="42.647971483656264" lon="13.060398167854494"><ele>1018.0</ele><time>2026-04-23T07:35:29.999Z</time></trkpt><trkpt lat="42.64782662886847" lon="13.060224822817297"><ele>1011.6666666666666</ele><time>2026-04-23T07:35:30.999Z</time></trkpt><trkpt lat="42.64767999995495" lon="13.060066524099396"><ele>1005.3333333333333</ele><time>2026-04-23T07:35:31.999Z</time></trkpt><trkpt lat="42.64752653718229" lon="13.059926580034043"><ele>999.0</ele><time>2026-04-23T07:35:32.999Z</time></trkpt><trkpt lat="42.64735659676462" lon="13.059803096653594"><ele>997.6666666666667</ele><time>2026-04-23T07:35:33.999Z</time></trkpt><trkpt lat="42.64717681977443" lon="13.059700039335409"><ele>996.3333333333334</ele><time>2026-04-23T07:35:34.999Z</time></trkpt><trkpt lat="42.64699749492895" lon="13.059590284307495"><ele>995.0</ele><time>2026-04-23T07:35:35.999Z</time></trkpt><trkpt lat="42.64683658083258" lon="13.059477597068001"><ele>993.6666666666667</ele><time>2026-04-23T07:35:36.999Z</time></trkpt><trkpt lat="42.64669138758174" lon="13.059367338603694"><ele>992.3333333333333</ele><time>2026-04-23T07:35:37.999Z</time></trkpt><trkpt lat="42.646560071122906" lon="13.059271799234534"><ele>991.0</ele><time>2026-04-23T07:35:38.999Z</time></trkpt><trkpt lat="42.646419851284236" lon="13.059192297789739"><ele>991.0</ele><time>2026-04-23T07:35:39.999Z</time></trkpt><trkpt lat="42.64627749677258" lon="13.059156469481772"><ele>991.0</ele><time>2026-04-23T07:35:40.999Z</time></trkpt><trkpt lat="42.64613407620046" lon="13.059184057824707"><ele>991.0</ele><time>2026-04-23T07:35:41.999Z</time></trkpt><trkpt lat="42.645984761787865" lon="13.059240166414163"><ele>991.0</ele><time>2026-04-23T07:35:42.999Z</time></trkpt><trkpt lat="42.645837822527525" lon="13.059302999185343"><ele>990.3333333333333</ele><time>2026-04-23T07:35:43.999Z</time></trkpt><trkpt lat="42.645680261048305" lon="13.059359527614541"><ele>989.6666666666667</ele><time>2026-04-23T07:35:44.999Z</time></trkpt><trkpt lat="42.64551596142356" lon="13.059386837921114"><ele>989.0</ele><time>2026-04-23T07:35:45.999Z</time></trkpt><trkpt lat="42.64534663589037" lon="13.059404523258324"><ele>989.3333333333334</ele><time>2026-04-23T07:35:46.999Z</time></trkpt><trkpt lat="42.64517558310163" lon="13.059422647150026"><ele>989.6666666666667</ele><time>2026-04-23T07:35:47.999Z</time></trkpt><trkpt lat="42.64500072017045" lon="13.05944299363837"><ele>990.0</ele><time>2026-04-23T07:35:48.999Z</time></trkpt><trkpt lat="42.64482408768357" lon="13.059470358159645"><ele>990.0</ele><time>2026-04-23T07:35:49.999Z</time></trkpt><trkpt lat="42.64464669167453" lon="13.059500220780587"><ele>990.0</ele><time>2026-04-23T07:35:50.999Z</time></trkpt><trkpt lat="42.644463142017216" lon="13.059536624289512"><ele>990.0</ele><time>2026-04-23T07:35:51.999Z</time></trkpt><trkpt lat="42.64428563680035" lon="13.059596832531332"><ele>988.6666666666667</ele><time>2026-04-23T07:35:52.999Z</time></trkpt><trkpt lat="42.644105872696144" lon="13.059672355872195"><ele>987.3333333333334</ele><time>2026-04-23T07:35:53.999Z</time></trkpt><trkpt lat="42.64392632677148" lon="13.05975040479343"><ele>986.0</ele><time>2026-04-23T07:35:54.999Z</time></trkpt><trkpt lat="42.64374904026623" lon="13.059827174582146"><ele>986.0</ele><time>2026-04-23T07:35:55.999Z</time></trkpt><trkpt lat="42.643581391533786" lon="13.059906436712854"><ele>986.0</ele><time>2026-04-23T07:35:56.999Z</time></trkpt><trkpt lat="42.643407785602875" lon="13.059979429655858"><ele>986.0</ele><time>2026-04-23T07:35:57.999Z</time></trkpt><trkpt lat="42.643236165276974" lon="13.06004568898195"><ele>987.6666666666667</ele><time>2026-04-23T07:35:58.999Z</time></trkpt><trkpt lat="42.64306786753732" lon="13.060115874867561"><ele>989.3333333333333</ele><time>2026-04-23T07:35:59.999Z</time></trkpt><trkpt lat="42.64289234851235" lon="13.060174142115645"><ele>991.0</ele><time>2026-04-23T07:36:00.999Z</time></trkpt><trkpt lat="42.642722592526766" lon="13.060230917302018"><ele>991.0</ele><time>2026-04-23T07:36:01.999Z</time></trkpt><trkpt lat="42.64254781484319" lon="13.060272709446682"><ele>991.0</ele><time>2026-04-23T07:36:02.999Z</time></trkpt><trkpt lat="42.64237926281178" lon="13.060334468599862"><ele>991.0</ele><time>2026-04-23T07:36:03.999Z</time></trkpt><trkpt lat="42.642207233502354" lon="13.060383087141552"><ele>991.0</ele><time>2026-04-23T07:36:04.999Z</time></trkpt><trkpt lat="42.64203988275944" lon="13.060433949322707"><ele>991.0</ele><time>2026-04-23T07:36:05.999Z</time></trkpt><trkpt lat="42.64187457830594" lon="13.060494232116774"><ele>991.0</ele><time>2026-04-23T07:36:06.999Z</time></trkpt><trkpt lat="42.64171197802431" lon="13.060560958653213"><ele>991.0</ele><time>2026-04-23T07:36:07.999Z</time></trkpt><trkpt lat="42.641553820400716" lon="13.060658204810329"><ele>991.0</ele><time>2026-04-23T07:36:08.999Z</time></trkpt><trkpt lat="42.64139730250002" lon="13.060781340927777"><ele>991.0</ele><time>2026-04-23T07:36:09.999Z</time></trkpt><trkpt lat="42.64124324308155" lon="13.06091959229326"><ele>991.3333333333333</ele><time>2026-04-23T07:36:10.999Z</time></trkpt><trkpt lat="42.641089047042065" lon="13.061064694966571"><ele>991.6666666666667</ele><time>2026-04-23T07:36:11.999Z</time></trkpt><trkpt lat="42.64092944260127" lon="13.061202283955804"><ele>992.0</ele><time>2026-04-23T07:36:12.999Z</time></trkpt><trkpt lat="42.64077029800602" lon="13.061342251196146"><ele>992.0</ele><time>2026-04-23T07:36:13.999Z</time></trkpt><trkpt lat="42.64061574886255" lon="13.061497108954114"><ele>992.0</ele><time>2026-04-23T07:36:14.999Z</time></trkpt><trkpt lat="42.64046486558085" lon="13.061665608602535"><ele>992.0</ele><time>2026-04-23T07:36:15.999Z</time></trkpt><trkpt lat="42.64032572686583" lon="13.061846597449815"><ele>991.3333333333334</ele><time>2026-04-23T07:36:16.999Z</time></trkpt><trkpt lat="42.64018558495831" lon="13.062020698979811"><ele>990.6666666666667</ele><time>2026-04-23T07:36:17.999Z</time></trkpt><trkpt lat="42.64005393169451" lon="13.06217909335134"><ele>990.0</ele><time>2026-04-23T07:36:18.999Z</time></trkpt><trkpt lat="42.6399210327902" lon="13.062317624676272"><ele>990.0</ele><time>2026-04-23T07:36:19.999Z</time></trkpt><trkpt lat="42.63979121081379" lon="13.06243282059028"><ele>990.0</ele><time>2026-04-23T07:36:20.999Z</time></trkpt><trkpt lat="42.63965488213855" lon="13.06251328674366"><ele>990.0</ele><time>2026-04-23T07:36:21.999Z</time></trkpt><trkpt lat="42.639510756366874" lon="13.062555054682962"><ele>992.0</ele><time>2026-04-23T07:36:22.999Z</time></trkpt><trkpt lat="42.639354794918624" lon="13.062568832418991"><ele>994.0</ele><time>2026-04-23T07:36:23.999Z</time></trkpt><trkpt lat="42.63919513821169" lon="13.062576505103406"><ele>996.0</ele><time>2026-04-23T07:36:24.999Z</time></trkpt><trkpt lat="42.63903145388453" lon="13.062589265889853"><ele>996.0</ele><time>2026-04-23T07:36:25.999Z</time></trkpt><trkpt lat="42.63886672607117" lon="13.062607499876947"><ele>996.0</ele><time>2026-04-23T07:36:26.999Z</time></trkpt><trkpt lat="42.638697718471555" lon="13.062643554637386"><ele>996.0</ele><time>2026-04-23T07:36:27.999Z</time></trkpt><trkpt lat="42.63851770294454" lon="13.062706213332776"><ele>994.6666666666667</ele><time>2026-04-23T07:36:28.999Z</time></trkpt><trkpt lat="42.63834130175453" lon="13.062795330824551"><ele>993.3333333333334</ele><time>2026-04-23T07:36:29.999Z</time></trkpt><trkpt lat="42.63815732677256" lon="13.062886578127843"><ele>992.0</ele><time>2026-04-23T07:36:30.999Z</time></trkpt><trkpt lat="42.63797513364101" lon="13.062977452744004"><ele>990.3333333333334</ele><time>2026-04-23T07:36:31.999Z</time></trkpt><trkpt lat="42.63778951248219" lon="13.063068988384723"><ele>988.6666666666667</ele><time>2026-04-23T07:36:32.999Z</time></trkpt><trkpt lat="42.63760277411971" lon="13.063161218339724"><ele>987.0</ele><time>2026-04-23T07:36:33.999Z</time></trkpt><trkpt lat="42.63740855731433" lon="13.063256120878476"><ele>988.6666666666667</ele><time>2026-04-23T07:36:34.999Z</time></trkpt><trkpt lat="42.63721493074636" lon="13.063350795034218"><ele>990.3333333333334</ele><time>2026-04-23T07:36:35.999Z</time></trkpt><trkpt lat="42.63702419048713" lon="13.063444723879664"><ele>992.0</ele><time>2026-04-23T07:36:36.999Z</time></trkpt><trkpt lat="42.636838253432465" lon="13.063537857427692"><ele>992.0</ele><time>2026-04-23T07:36:37.999Z</time></trkpt><trkpt lat="42.63665599414876" lon="13.063628869564274"><ele>992.0</ele><time>2026-04-23T07:36:38.999Z</time></trkpt><trkpt lat="42.63647715629831" lon="13.06371336412182"><ele>992.0</ele><time>2026-04-23T07:36:39.999Z</time></trkpt><trkpt lat="42.63631092907625" lon="13.063790071777758"><ele>992.0</ele><time>2026-04-23T07:36:40.999Z</time></trkpt><trkpt lat="42.636145603385216" lon="13.063862804431023"><ele>992.0</ele><time>2026-04-23T07:36:41.999Z</time></trkpt><trkpt lat="42.635976902578726" lon="13.063920064301199"><ele>992.0</ele><time>2026-04-23T07:36:42.999Z</time></trkpt><trkpt lat="42.63580986654614" lon="13.063955972119944"><ele>989.6666666666667</ele><time>2026-04-23T07:36:43.999Z</time></trkpt><trkpt lat="42.63563450798236" lon="13.06397172635939"><ele>987.3333333333333</ele><time>2026-04-23T07:36:44.999Z</time></trkpt><trkpt lat="42.63545433928489" lon="13.063975418887939"><ele>985.0</ele><time>2026-04-23T07:36:45.999Z</time></trkpt><trkpt lat="42.63527268148976" lon="13.063987019561264"><ele>982.6666666666666</ele><time>2026-04-23T07:36:46.999Z</time></trkpt><trkpt lat="42.63508935364993" lon="13.064001372834431"><ele>980.3333333333333</ele><time>2026-04-23T07:36:47.999Z</time></trkpt><trkpt lat="42.6349071135652" lon="13.064017959371146"><ele>978.0</ele><time>2026-04-23T07:36:49Z</time></trkpt><trkpt lat="42.634719189667784" lon="13.064035371651938"><ele>978.0</ele><time>2026-04-23T07:36:50Z</time></trkpt><trkpt lat="42.63453276964556" lon="13.064049195687142"><ele>978.0</ele><time>2026-04-23T07:36:51Z</time></trkpt><trkpt lat="42.634352271162236" lon="13.06405537568548"><ele>978.0</ele><time>2026-04-23T07:36:52Z</time></trkpt><trkpt lat="42.634185914213056" lon="13.064040697537568"><ele>978.0</ele><time>2026-04-23T07:36:53Z</time></trkpt><trkpt lat="42.63402856735697" lon="13.06399366922364"><ele>978.0</ele><time>2026-04-23T07:36:53.999Z</time></trkpt><trkpt lat="42.633869789626" lon="13.063923471936135"><ele>978.0</ele><time>2026-04-23T07:36:55Z</time></trkpt><trkpt lat="42.63371212891863" lon="13.063850618473099"><ele>979.0</ele><time>2026-04-23T07:36:56Z</time></trkpt><trkpt lat="42.63354756345954" lon="13.063783228889084"><ele>980.0</ele><time>2026-04-23T07:36:57Z</time></trkpt><trkpt lat="42.633384344530334" lon="13.063721735289922"><ele>981.0</ele><time>2026-04-23T07:36:58Z</time></trkpt><trkpt lat="42.63321564651021" lon="13.06365534209425"><ele>981.0</ele><time>2026-04-23T07:36:59Z</time></trkpt><trkpt lat="42.633048231939384" lon="13.063577038966807"><ele>981.0</ele><time>2026-04-23T07:36:59.999Z</time></trkpt><trkpt lat="42.6328707449728" lon="13.063501050679593"><ele>981.0</ele><time>2026-04-23T07:37:00.999Z</time></trkpt><trkpt lat="42.63269331973409" lon="13.063430215746052"><ele>981.6666666666667</ele><time>2026-04-23T07:37:01.999Z</time></trkpt><trkpt lat="42.63251983640127" lon="13.06337786918659"><ele>982.3333333333334</ele><time>2026-04-23T07:37:02.999Z</time></trkpt><trkpt lat="42.63233595104446" lon="13.063332904287302"><ele>983.0</ele><time>2026-04-23T07:37:03.999Z</time></trkpt><trkpt lat="42.632149534462805" lon="13.063311743841368"><ele>981.6666666666667</ele><time>2026-04-23T07:37:04.999Z</time></trkpt><trkpt lat="42.63196156258813" lon="13.063324852829421"><ele>980.3333333333333</ele><time>2026-04-23T07:37:05.999Z</time></trkpt><trkpt lat="42.631766877552124" lon="13.06332317564531"><ele>979.0</ele><time>2026-04-23T07:37:06.999Z</time></trkpt><trkpt lat="42.6315713866008" lon="13.063330280550264"><ele>979.0</ele><time>2026-04-23T07:37:07.999Z</time></trkpt><trkpt lat="42.631374077535185" lon="13.063330146089168"><ele>979.0</ele><time>2026-04-23T07:37:08.999Z</time></trkpt><trkpt lat="42.631176890650934" lon="13.063331668905214"><ele>979.0</ele><time>2026-04-23T07:37:09.999Z</time></trkpt><trkpt lat="42.630970616286604" lon="13.063326270664758"><ele>979.6666666666666</ele><time>2026-04-23T07:37:10.999Z</time></trkpt><trkpt lat="42.63077488201511" lon="13.063323091963714"><ele>980.3333333333333</ele><time>2026-04-23T07:37:11.999Z</time></trkpt><trkpt lat="42.63057919065304" lon="13.06332140928712"><ele>981.0</ele><time>2026-04-23T07:37:12.999Z</time></trkpt><trkpt lat="42.6303937288155" lon="13.063320450700546"><ele>981.3333333333333</ele><time>2026-04-23T07:37:13.999Z</time></trkpt><trkpt lat="42.63020286105899" lon="13.063318347754215"><ele>981.6666666666666</ele><time>2026-04-23T07:37:14.999Z</time></trkpt><trkpt lat="42.63001501122175" lon="13.063324348271042"><ele>982.0</ele><time>2026-04-23T07:37:15.999Z</time></trkpt><trkpt lat="42.629822538889066" lon="13.063335809363188"><ele>982.0</ele><time>2026-04-23T07:37:16.999Z</time></trkpt><trkpt lat="42.629625647021925" lon="13.063359019292749"><ele>982.0</ele><time>2026-04-23T07:37:17.999Z</time></trkpt><trkpt lat="42.62942927957543" lon="13.063401703904256"><ele>982.0</ele><time>2026-04-23T07:37:18.999Z</time></trkpt><trkpt lat="42.629232713173565" lon="13.063446244522094"><ele>980.3333333333333</ele><time>2026-04-23T07:37:19.999Z</time></trkpt><trkpt lat="42.629037905672625" lon="13.063477773050643"><ele>978.6666666666667</ele><time>2026-04-23T07:37:20.999Z</time></trkpt><trkpt lat="42.62885104398143" lon="13.063513551080709"><ele>977.0</ele><time>2026-04-23T07:37:21.999Z</time></trkpt><trkpt lat="42.628668432475166" lon="13.063549212461385"><ele>976.3333333333334</ele><time>2026-04-23T07:37:22.999Z</time></trkpt><trkpt lat="42.62848661455296" lon="13.06357934386115"><ele>975.6666666666667</ele><time>2026-04-23T07:37:23.999Z</time></trkpt><trkpt lat="42.628311978658836" lon="13.063611481221727"><ele>975.0</ele><time>2026-04-23T07:37:24.999Z</time></trkpt><trkpt lat="42.62814577311946" lon="13.06364399690055"><ele>975.0</ele><time>2026-04-23T07:37:25.999Z</time></trkpt><trkpt lat="42.62798218020067" lon="13.063673399334876"><ele>975.0</ele><time>2026-04-23T07:37:26.999Z</time></trkpt><trkpt lat="42.627826497102966" lon="13.063708449800968"><ele>975.0</ele><time>2026-04-23T07:37:27.999Z</time></trkpt><trkpt lat="42.62766939638409" lon="13.063732760473105"><ele>974.75</ele><time>2026-04-23T07:37:28.999Z</time></trkpt><trkpt lat="42.62752320005207" lon="13.063760825458628"><ele>974.5</ele><time>2026-04-23T07:37:29.999Z</time></trkpt><trkpt lat="42.62737450948309" lon="13.063781332728162"><ele>974.25</ele><time>2026-04-23T07:37:30.999Z</time></trkpt><trkpt lat="42.62723444864676" lon="13.063816869767006"><ele>974.0</ele><time>2026-04-23T07:37:31.999Z</time></trkpt><trkpt lat="42.627088692296475" lon="13.063847197953901"><ele>974.3333333333334</ele><time>2026-04-23T07:37:32.999Z</time></trkpt><trkpt lat="42.62693019393426" lon="13.063877447301428"><ele>974.6666666666667</ele><time>2026-04-23T07:37:33.999Z</time></trkpt><trkpt lat="42.62676903254262" lon="13.063903824609783"><ele>975.0</ele><time>2026-04-23T07:37:34.999Z</time></trkpt><trkpt lat="42.626600379842024" lon="13.063925948762382"><ele>975.0</ele><time>2026-04-23T07:37:35.999Z</time></trkpt><trkpt lat="42.62642725639717" lon="13.063939468892913"><ele>975.0</ele><time>2026-04-23T07:37:36.999Z</time></trkpt><trkpt lat="42.6262483070702" lon="13.063940150309058"><ele>975.0</ele><time>2026-04-23T07:37:37.999Z</time></trkpt><trkpt lat="42.62606340957384" lon="13.063931124829432"><ele>973.6666666666667</ele><time>2026-04-23T07:37:38.999Z</time></trkpt><trkpt lat="42.62587605362162" lon="13.063923585018667"><ele>972.3333333333334</ele><time>2026-04-23T07:37:39.999Z</time></trkpt><trkpt lat="42.62568442596186" lon="13.063922730160034"><ele>971.0</ele><time>2026-04-23T07:37:40.999Z</time></trkpt><trkpt lat="42.625486254435096" lon="13.063913627452282"><ele>970.3333333333334</ele><time>2026-04-23T07:37:41.999Z</time></trkpt><trkpt lat="42.625279147407696" lon="13.063907914208746"><ele>969.6666666666667</ele><time>2026-04-23T07:37:42.999Z</time></trkpt><trkpt lat="42.62506462020082" lon="13.063897816254713"><ele>969.0</ele><time>2026-04-23T07:37:43.999Z</time></trkpt><trkpt lat="42.62485497784321" lon="13.063893387520237"><ele>969.0</ele><time>2026-04-23T07:37:44.999Z</time></trkpt><trkpt lat="42.624639148447564" lon="13.06388307022598"><ele>969.0</ele><time>2026-04-23T07:37:45.999Z</time></trkpt><trkpt lat="42.624416255900314" lon="13.06387091226605"><ele>969.0</ele><time>2026-04-23T07:37:46.999Z</time></trkpt><trkpt lat="42.624201959569774" lon="13.063867659917845"><ele>969.3333333333333</ele><time>2026-04-23T07:37:47.999Z</time></trkpt><trkpt lat="42.623994756419066" lon="13.063872273131636"><ele>969.6666666666666</ele><time>2026-04-23T07:37:48.999Z</time></trkpt><trkpt lat="42.62380264947667" lon="13.06386150946531"><ele>970.0</ele><time>2026-04-23T07:37:49.999Z</time></trkpt><trkpt lat="42.62361987705378" lon="13.06385632479699"><ele>970.3333333333333</ele><time>2026-04-23T07:37:50.999Z</time></trkpt><trkpt lat="42.62345491567808" lon="13.063852356120645"><ele>970.6666666666667</ele><time>2026-04-23T07:37:51.999Z</time></trkpt><trkpt lat="42.6232933896988" lon="13.063852933821954"><ele>971.0</ele><time>2026-04-23T07:37:52.999Z</time></trkpt><trkpt lat="42.623127300162565" lon="13.063871088047115"><ele>971.0</ele><time>2026-04-23T07:37:53.999Z</time></trkpt><trkpt lat="42.622964865393506" lon="13.063926773731048"><ele>971.0</ele><time>2026-04-23T07:37:54.999Z</time></trkpt><trkpt lat="42.622804469744395" lon="13.064016029567947"><ele>971.0</ele><time>2026-04-23T07:37:55.999Z</time></trkpt><trkpt lat="42.62264748868157" lon="13.064119283445178"><ele>972.6666666666667</ele><time>2026-04-23T07:37:56.999Z</time></trkpt><trkpt lat="42.622487229217114" lon="13.06422716566892"><ele>974.3333333333333</ele><time>2026-04-23T07:37:57.999Z</time></trkpt><trkpt lat="42.62231940958296" lon="13.064328298563709"><ele>976.0</ele><time>2026-04-23T07:37:58.999Z</time></trkpt><trkpt lat="42.622148011777035" lon="13.064428110911942"><ele>974.3333333333333</ele><time>2026-04-23T07:37:59.999Z</time></trkpt><trkpt lat="42.6219800991287" lon="13.064533187140695"><ele>972.6666666666667</ele><time>2026-04-23T07:38:00.999Z</time></trkpt><trkpt lat="42.621804495516244" lon="13.064642156376028"><ele>971.0</ele><time>2026-04-23T07:38:01.999Z</time></trkpt><trkpt lat="42.62163167867099" lon="13.0647507662795"><ele>971.0</ele><time>2026-04-23T07:38:02.999Z</time></trkpt><trkpt lat="42.6214540029459" lon="13.064851312416856"><ele>971.0</ele><time>2026-04-23T07:38:03.999Z</time></trkpt><trkpt lat="42.62127875352119" lon="13.064951860694041"><ele>971.0</ele><time>2026-04-23T07:38:04.999Z</time></trkpt><trkpt lat="42.62110318788402" lon="13.065053772644703"><ele>972.6666666666667</ele><time>2026-04-23T07:38:05.999Z</time></trkpt><trkpt lat="42.62093024956677" lon="13.065163932114306"><ele>974.3333333333333</ele><time>2026-04-23T07:38:06.999Z</time></trkpt><trkpt lat="42.620765513369776" lon="13.065286504117966"><ele>976.0</ele><time>2026-04-23T07:38:07.999Z</time></trkpt><trkpt lat="42.62060399514375" lon="13.065428543522918"><ele>976.0</ele><time>2026-04-23T07:38:08.999Z</time></trkpt><trkpt lat="42.62044925376452" lon="13.065589583528975"><ele>976.0</ele><time>2026-04-23T07:38:09.999Z</time></trkpt><trkpt lat="42.62029537082658" lon="13.065753469137123"><ele>976.0</ele><time>2026-04-23T07:38:10.999Z</time></trkpt><trkpt lat="42.62013731457846" lon="13.065914618643927"><ele>977.0</ele><time>2026-04-23T07:38:11.999Z</time></trkpt><trkpt lat="42.619975393279056" lon="13.066074205515887"><ele>978.0</ele><time>2026-04-23T07:38:12.999Z</time></trkpt><trkpt lat="42.6198147204239" lon="13.066234378018308"><ele>979.0</ele><time>2026-04-23T07:38:13.999Z</time></trkpt><trkpt lat="42.61965675802627" lon="13.06639391219015"><ele>979.0</ele><time>2026-04-23T07:38:14.999Z</time></trkpt><trkpt lat="42.61949573194395" lon="13.066550812092036"><ele>979.0</ele><time>2026-04-23T07:38:15.999Z</time></trkpt><trkpt lat="42.6193430524086" lon="13.066699183811204"><ele>979.0</ele><time>2026-04-23T07:38:16.999Z</time></trkpt><trkpt lat="42.61919833248019" lon="13.066841633227895"><ele>978.6666666666666</ele><time>2026-04-23T07:38:17.999Z</time></trkpt><trkpt lat="42.619065592771754" lon="13.066984709733173"><ele>978.3333333333333</ele><time>2026-04-23T07:38:18.999Z</time></trkpt><trkpt lat="42.61891868858835" lon="13.067131593829213"><ele>978.0</ele><time>2026-04-23T07:38:19.999Z</time></trkpt><trkpt lat="42.618778687289094" lon="13.067274701675554"><ele>978.3333333333333</ele><time>2026-04-23T07:38:20.999Z</time></trkpt><trkpt lat="42.618638597117354" lon="13.067428872160601"><ele>978.6666666666666</ele><time>2026-04-23T07:38:21.999Z</time></trkpt><trkpt lat="42.618517873895826" lon="13.067596161042486"><ele>979.0</ele><time>2026-04-23T07:38:22.999Z</time></trkpt><trkpt lat="42.61839101478591" lon="13.067776330537209"><ele>979.3333333333333</ele><time>2026-04-23T07:38:23.999Z</time></trkpt><trkpt lat="42.61827234468007" lon="13.0679492182073"><ele>979.6666666666667</ele><time>2026-04-23T07:38:24.999Z</time></trkpt><trkpt lat="42.61814658759889" lon="13.068124657079686"><ele>980.0</ele><time>2026-04-23T07:38:25.999Z</time></trkpt><trkpt lat="42.61802155409422" lon="13.068300771261233"><ele>980.0</ele><time>2026-04-23T07:38:26.999Z</time></trkpt><trkpt lat="42.61790246684574" lon="13.068474524654368"><ele>980.0</ele><time>2026-04-23T07:38:27.999Z</time></trkpt><trkpt lat="42.61777713698566" lon="13.068647291408114"><ele>980.0</ele><time>2026-04-23T07:38:28.999Z</time></trkpt><trkpt lat="42.61765640334635" lon="13.068810594666372"><ele>980.5</ele><time>2026-04-23T07:38:29.999Z</time></trkpt><trkpt lat="42.61753836669391" lon="13.06895234012043"><ele>981.0</ele><time>2026-04-23T07:38:30.999Z</time></trkpt><trkpt lat="42.61742296092595" lon="13.069060397174788"><ele>981.5</ele><time>2026-04-23T07:38:31.999Z</time></trkpt><trkpt lat="42.6172994404866" lon="13.069146514725944"><ele>982.0</ele><time>2026-04-23T07:38:32.999Z</time></trkpt><trkpt lat="42.617175946578406" lon="13.069204615655796"><ele>982.25</ele><time>2026-04-23T07:38:33.999Z</time></trkpt><trkpt lat="42.61705341156443" lon="13.06924530869859"><ele>982.5</ele><time>2026-04-23T07:38:34.999Z</time></trkpt><trkpt lat="42.61693361625647" lon="13.069269827203334"><ele>982.75</ele><time>2026-04-23T07:38:35.999Z</time></trkpt><trkpt lat="42.616816222601784" lon="13.069279717401093"><ele>983.0</ele><time>2026-04-23T07:38:36.999Z</time></trkpt><trkpt lat="42.61668794776456" lon="13.06927216254833"><ele>982.25</ele><time>2026-04-23T07:38:37.999Z</time></trkpt><trkpt lat="42.6165703363653" lon="13.069245320589692"><ele>981.5</ele><time>2026-04-23T07:38:38.999Z</time></trkpt><trkpt lat="42.61645412884265" lon="13.069200458950847"><ele>980.75</ele><time>2026-04-23T07:38:39.999Z</time></trkpt><trkpt lat="42.616346759984204" lon="13.069132920839818"><ele>980.0</ele><time>2026-04-23T07:38:40.999Z</time></trkpt><trkpt lat="42.61624645594716" lon="13.069050317394645"><ele>978.5</ele><time>2026-04-23T07:38:41.999Z</time></trkpt><trkpt lat="42.61613971359507" lon="13.0689627105816"><ele>977.0</ele><time>2026-04-23T07:38:42.999Z</time></trkpt><trkpt lat="42.61604039330784" lon="13.0688702496522"><ele>975.5</ele><time>2026-04-23T07:38:43.999Z</time></trkpt><trkpt lat="42.61594101863082" lon="13.068768848069194"><ele>974.0</ele><time>2026-04-23T07:38:44.999Z</time></trkpt><trkpt lat="42.61583605541976" lon="13.06866037158994"><ele>974.0</ele><time>2026-04-23T07:38:45.999Z</time></trkpt><trkpt lat="42.61572457960032" lon="13.068548698038718"><ele>974.0</ele><time>2026-04-23T07:38:46.999Z</time></trkpt><trkpt lat="42.6156048856723" lon="13.068434509077449"><ele>974.0</ele><time>2026-04-23T07:38:47.999Z</time></trkpt><trkpt lat="42.61548235803496" lon="13.068314489527769"><ele>974.0</ele><time>2026-04-23T07:38:48.999Z</time></trkpt><trkpt lat="42.615359718885564" lon="13.068195639047637"><ele>971.75</ele><time>2026-04-23T07:38:49.999Z</time></trkpt><trkpt lat="42.615242286052506" lon="13.068079746273416"><ele>969.5</ele><time>2026-04-23T07:38:50.999Z</time></trkpt><trkpt lat="42.61512784517099" lon="13.067968596714914"><ele>967.25</ele><time>2026-04-23T07:38:51.999Z</time></trkpt><trkpt lat="42.61501465244754" lon="13.067856644925023"><ele>965.0</ele><time>2026-04-23T07:38:52.999Z</time></trkpt><trkpt lat="42.61490934721244" lon="13.067751498940982"><ele>965.0</ele><time>2026-04-23T07:38:53.999Z</time></trkpt><trkpt lat="42.61481359322308" lon="13.067655630833073"><ele>965.0</ele><time>2026-04-23T07:38:55Z</time></trkpt><trkpt lat="42.614733449897905" lon="13.06757700521805"><ele>965.0</ele><time>2026-04-23T07:38:56Z</time></trkpt><trkpt lat="42.61467086225314" lon="13.06751446904337"><ele>965.0</ele><time>2026-04-23T07:38:57Z</time></trkpt><trkpt lat="42.614607659851366" lon="13.067472848483273"><ele>965.0</ele><time>2026-04-23T07:38:59Z</time></trkpt><trkpt lat="42.61456010369921" lon="13.067577969998355"><ele>965.0</ele><time>2026-04-23T07:39:03Z</time></trkpt><trkpt lat="42.614634171365196" lon="13.067767087484542"><ele>965.0</ele><time>2026-04-23T07:39:05Z</time></trkpt><trkpt lat="42.614685888415245" lon="13.0678662063721"><ele>965.0</ele><time>2026-04-23T07:39:06Z</time></trkpt><trkpt lat="42.61473620377047" lon="13.067996758797019"><ele>965.0</ele><time>2026-04-23T07:39:07Z</time></trkpt><trkpt lat="42.61478667675231" lon="13.06812706614558"><ele>965.0</ele><time>2026-04-23T07:39:08Z</time></trkpt><trkpt lat="42.61483977834985" lon="13.068255442211854"><ele>965.0</ele><time>2026-04-23T07:39:09Z</time></trkpt><trkpt lat="42.614895903070995" lon="13.068398521200594"><ele>965.0</ele><time>2026-04-23T07:39:10Z</time></trkpt><trkpt lat="42.61495422635501" lon="13.068544205932369"><ele>965.0</ele><time>2026-04-23T07:39:11Z</time></trkpt><trkpt lat="42.61501351259676" lon="13.06869379030299"><ele>965.25</ele><time>2026-04-23T07:39:12Z</time></trkpt><trkpt lat="42.615075396045206" lon="13.068851135347046"><ele>965.5</ele><time>2026-04-23T07:39:13Z</time></trkpt><trkpt lat="42.61513856738403" lon="13.069005856692476"><ele>965.75</ele><time>2026-04-23T07:39:14Z</time></trkpt><trkpt lat="42.61520424295691" lon="13.06915578837097"><ele>966.0</ele><time>2026-04-23T07:39:15Z</time></trkpt><trkpt lat="42.61526715857012" lon="13.069308467832707"><ele>967.75</ele><time>2026-04-23T07:39:16Z</time></trkpt><trkpt lat="42.61533388490012" lon="13.06945762210782"><ele>969.5</ele><time>2026-04-23T07:39:17Z</time></trkpt><trkpt lat="42.61540698339998" lon="13.069601121013692"><ele>971.25</ele><time>2026-04-23T07:39:18Z</time></trkpt><trkpt lat="42.615479810776336" lon="13.069744432360897"><ele>973.0</ele><time>2026-04-23T07:39:19Z</time></trkpt><trkpt lat="42.61555261187854" lon="13.069889076091435"><ele>972.5</ele><time>2026-04-23T07:39:20Z</time></trkpt><trkpt lat="42.615640789428646" lon="13.070035165323592"><ele>972.0</ele><time>2026-04-23T07:39:21Z</time></trkpt><trkpt lat="42.61573652965224" lon="13.070182258297898"><ele>971.5</ele><time>2026-04-23T07:39:22Z</time></trkpt><trkpt lat="42.61578745584341" lon="13.070310183585025"><ele>971.0</ele><time>2026-04-23T07:39:23Z</time></trkpt><trkpt lat="42.615881117334204" lon="13.070440573750707"><ele>971.0</ele><time>2026-04-23T07:39:24Z</time></trkpt><trkpt lat="42.61597353209566" lon="13.07057478239842"><ele>971.0</ele><time>2026-04-23T07:39:25Z</time></trkpt><trkpt lat="42.61605326778656" lon="13.070696810362875"><ele>971.0</ele><time>2026-04-23T07:39:26Z</time></trkpt><trkpt lat="42.61612399805967" lon="13.07080582772432"><ele>971.0</ele><time>2026-04-23T07:39:27Z</time></trkpt><trkpt lat="42.61619979644212" lon="13.070898622888974"><ele>972.4</ele><time>2026-04-23T07:39:28Z</time></trkpt><trkpt lat="42.61627915445823" lon="13.070998693309026"><ele>973.8</ele><time>2026-04-23T07:39:29Z</time></trkpt><trkpt lat="42.61635038347779" lon="13.07110417021918"><ele>975.1999999999999</ele><time>2026-04-23T07:39:30Z</time></trkpt><trkpt lat="42.61640933032567" lon="13.071200482549415"><ele>976.5999999999999</ele><time>2026-04-23T07:39:31Z</time></trkpt><trkpt lat="42.61647579984161" lon="13.071282777157515"><ele>978.0</ele><time>2026-04-23T07:39:32Z</time></trkpt><trkpt lat="42.6165350230237" lon="13.07135223154047"><ele>978.0</ele><time>2026-04-23T07:39:33Z</time></trkpt><trkpt lat="42.61656523021734" lon="13.07146070687103"><ele>978.0</ele><time>2026-04-23T07:39:35Z</time></trkpt><trkpt lat="42.61659069233718" lon="13.071334619308535"><ele>978.0</ele><time>2026-04-23T07:39:38Z</time></trkpt><trkpt lat="42.61654243577228" lon="13.071274806359018"><ele>978.0</ele><time>2026-04-23T07:39:39Z</time></trkpt><trkpt lat="42.61645855350772" lon="13.071200639571293"><ele>978.0</ele><time>2026-04-23T07:39:40Z</time></trkpt><trkpt lat="42.616388031539394" lon="13.071110474141813"><ele>978.0</ele><time>2026-04-23T07:39:40.999Z</time></trkpt><trkpt lat="42.616314393498016" lon="13.07100753516971"><ele>978.0</ele><time>2026-04-23T07:39:41.999Z</time></trkpt><trkpt lat="42.6162460217842" lon="13.070923107900269"><ele>978.0</ele><time>2026-04-23T07:39:42.999Z</time></trkpt><trkpt lat="42.616192988965146" lon="13.07084904303235"><ele>978.0</ele><time>2026-04-23T07:39:43.999Z</time></trkpt><trkpt lat="42.61608951646969" lon="13.070786028893849"><ele>978.0</ele><time>2026-04-23T07:39:45.999Z</time></trkpt><trkpt lat="42.61596420975722" lon="13.070888530466979"><ele>978.0</ele><time>2026-04-23T07:39:47.999Z</time></trkpt><trkpt lat="42.615884555959255" lon="13.070934090498444"><ele>976.4</ele><time>2026-04-23T07:39:48.999Z</time></trkpt><trkpt lat="42.615788612623476" lon="13.070954755090597"><ele>974.8</ele><time>2026-04-23T07:39:49.999Z</time></trkpt><trkpt lat="42.615684827482305" lon="13.070968810573966"><ele>973.2</ele><time>2026-04-23T07:39:50.999Z</time></trkpt><trkpt lat="42.615576974101394" lon="13.070996168423063"><ele>971.6</ele><time>2026-04-23T07:39:51.999Z</time></trkpt><trkpt lat="42.615477868959836" lon="13.071022321315988"><ele>970.0</ele><time>2026-04-23T07:39:52.999Z</time></trkpt><trkpt lat="42.615377043785585" lon="13.071040845656785"><ele>968.75</ele><time>2026-04-23T07:39:53.999Z</time></trkpt><trkpt lat="42.61526961698961" lon="13.071062101291039"><ele>967.5</ele><time>2026-04-23T07:39:54.999Z</time></trkpt><trkpt lat="42.615156125554165" lon="13.071102331535034"><ele>966.25</ele><time>2026-04-23T07:39:55.999Z</time></trkpt><trkpt lat="42.61504771606241" lon="13.071159377126097"><ele>965.0</ele><time>2026-04-23T07:39:56.999Z</time></trkpt><trkpt lat="42.61486180784966" lon="13.071273360447837"><ele>965.0000000000001</ele><time>2026-04-23T07:39:58.999Z</time></trkpt><trkpt lat="42.61479030997075" lon="13.071327639817847"><ele>965.0</ele><time>2026-04-23T07:39:59.999Z</time></trkpt><trkpt lat="42.614716974955996" lon="13.07137869526499"><ele>965.0</ele><time>2026-04-23T07:40:00.999Z</time></trkpt><trkpt lat="42.614641424961086" lon="13.07142950297502"><ele>965.0</ele><time>2026-04-23T07:40:01.999Z</time></trkpt><trkpt lat="42.614567128835404" lon="13.07149450069985"><ele>965.0000000000001</ele><time>2026-04-23T07:40:02.999Z</time></trkpt><trkpt lat="42.61449549649466" lon="13.071570367056976"><ele>965.0</ele><time>2026-04-23T07:40:03.999Z</time></trkpt><trkpt lat="42.61441997050491" lon="13.071652160278573"><ele>966.0</ele><time>2026-04-23T07:40:04.999Z</time></trkpt><trkpt lat="42.614343647865624" lon="13.071730031913416"><ele>967.0</ele><time>2026-04-23T07:40:05.999Z</time></trkpt><trkpt lat="42.61426378589353" lon="13.07181017370989"><ele>968.0</ele><time>2026-04-23T07:40:06.999Z</time></trkpt><trkpt lat="42.61418544323153" lon="13.071900602503886"><ele>969.0</ele><time>2026-04-23T07:40:07.999Z</time></trkpt><trkpt lat="42.61412035057739" lon="13.071991917336074"><ele>970.0</ele><time>2026-04-23T07:40:08.999Z</time></trkpt><trkpt lat="42.61404524804156" lon="13.072079567500651"><ele>969.9999999999999</ele><time>2026-04-23T07:40:09.999Z</time></trkpt><trkpt lat="42.61396427441014" lon="13.072162794433764"><ele>970.0</ele><time>2026-04-23T07:40:10.999Z</time></trkpt><trkpt lat="42.61388617198802" lon="13.072239651579421"><ele>970.0</ele><time>2026-04-23T07:40:11.999Z</time></trkpt><trkpt lat="42.6138213675901" lon="13.072306889960712"><ele>970.0</ele><time>2026-04-23T07:40:12.999Z</time></trkpt><trkpt lat="42.613756237693536" lon="13.072374904369717"><ele>969.9999999999999</ele><time>2026-04-23T07:40:13.999Z</time></trkpt><trkpt lat="42.61369106583062" lon="13.07243171215013"><ele>970.0</ele><time>2026-04-23T07:40:14.999Z</time></trkpt><trkpt lat="42.61361941674118" lon="13.072473487907112"><ele>970.5714285714287</ele><time>2026-04-23T07:40:15.999Z</time></trkpt><trkpt lat="42.613542346311284" lon="13.072473014466023"><ele>971.1428571428571</ele><time>2026-04-23T07:40:16.999Z</time></trkpt><trkpt lat="42.613470508031575" lon="13.072453579878507"><ele>971.7142857142858</ele><time>2026-04-23T07:40:17.999Z</time></trkpt><trkpt lat="42.613404798153006" lon="13.072421814591625"><ele>972.2857142857143</ele><time>2026-04-23T07:40:18.999Z</time></trkpt><trkpt lat="42.613327382196275" lon="13.072398902568555"><ele>972.8571428571429</ele><time>2026-04-23T07:40:19.999Z</time></trkpt><trkpt lat="42.61325328589186" lon="13.072387002293947"><ele>973.4285714285714</ele><time>2026-04-23T07:40:20.999Z</time></trkpt><trkpt lat="42.61317991302699" lon="13.07240191303563"><ele>974.0</ele><time>2026-04-23T07:40:21.999Z</time></trkpt><trkpt lat="42.6130992514251" lon="13.072427190235526"><ele>974.0000000000001</ele><time>2026-04-23T07:40:22.999Z</time></trkpt><trkpt lat="42.61300916565403" lon="13.072453859314054"><ele>974.0</ele><time>2026-04-23T07:40:23.999Z</time></trkpt><trkpt lat="42.61291719434213" lon="13.072475330799074"><ele>974.0</ele><time>2026-04-23T07:40:24.999Z</time></trkpt><trkpt lat="42.612828822366566" lon="13.072495416862093"><ele>974.0</ele><time>2026-04-23T07:40:25.999Z</time></trkpt><trkpt lat="42.6127444477309" lon="13.072519406915093"><ele>974.0000000000001</ele><time>2026-04-23T07:40:26.999Z</time></trkpt><trkpt lat="42.612665418806905" lon="13.07254131461945"><ele>974.0</ele><time>2026-04-23T07:40:27.999Z</time></trkpt><trkpt lat="42.612596998084165" lon="13.07255053205806"><ele>975.1666666666667</ele><time>2026-04-23T07:40:28.999Z</time></trkpt><trkpt lat="42.61251577065762" lon="13.072548616845705"><ele>976.3333333333334</ele><time>2026-04-23T07:40:30.999Z</time></trkpt><trkpt lat="42.61241250984033" lon="13.072599790896904"><ele>977.5</ele><time>2026-04-23T07:40:33.999Z</time></trkpt><trkpt lat="42.61232861319525" lon="13.072617121994575"><ele>978.6666666666667</ele><time>2026-04-23T07:40:34.999Z</time></trkpt><trkpt lat="42.612252165652315" lon="13.072627230564464"><ele>979.8333333333334</ele><time>2026-04-23T07:40:35.999Z</time></trkpt><trkpt lat="42.61217350242803" lon="13.07263493905814"><ele>981.0</ele><time>2026-04-23T07:40:37.999Z</time></trkpt><trkpt lat="42.61221725708002" lon="13.072704818220341"><ele>981.0</ele><time>2026-04-23T07:40:41.999Z</time></trkpt><trkpt lat="42.61228498541982" lon="13.072662555487053"><ele>981.0</ele><time>2026-04-23T07:40:43.999Z</time></trkpt><trkpt lat="42.61234345931292" lon="13.072627341212097"><ele>981.0</ele><time>2026-04-23T07:40:44.999Z</time></trkpt><trkpt lat="42.61242255084816" lon="13.072603791072185"><ele>981.0</ele><time>2026-04-23T07:40:45.999Z</time></trkpt><trkpt lat="42.612508500880686" lon="13.07258464231067"><ele>981.0</ele><time>2026-04-23T07:40:46.999Z</time></trkpt><trkpt lat="42.612614355800275" lon="13.072558640809817"><ele>981.0</ele><time>2026-04-23T07:40:47.999Z</time></trkpt><trkpt lat="42.61272583923147" lon="13.072537589954033"><ele>979.8</ele><time>2026-04-23T07:40:48.999Z</time></trkpt><trkpt lat="42.61282944154838" lon="13.072508985220107"><ele>978.5999999999999</ele><time>2026-04-23T07:40:49.999Z</time></trkpt><trkpt lat="42.6129268727282" lon="13.072492032642986"><ele>977.4</ele><time>2026-04-23T07:40:50.999Z</time></trkpt><trkpt lat="42.61300829083425" lon="13.072470812144044"><ele>976.2</ele><time>2026-04-23T07:40:51.999Z</time></trkpt><trkpt lat="42.61309359669928" lon="13.072451934999009"><ele>975.0</ele><time>2026-04-23T07:40:52.999Z</time></trkpt><trkpt lat="42.61317050839961" lon="13.072428816508912"><ele>975.0</ele><time>2026-04-23T07:40:53.999Z</time></trkpt><trkpt lat="42.61323859202024" lon="13.072415666660252"><ele>975.0</ele><time>2026-04-23T07:40:54.999Z</time></trkpt><trkpt lat="42.61332733784161" lon="13.072361293144033"><ele>975.0</ele><time>2026-04-23T07:40:56.999Z</time></trkpt><trkpt lat="42.613348957318934" lon="13.072245071372464"><ele>975.0</ele><time>2026-04-23T07:40:58.999Z</time></trkpt><trkpt lat="42.61336187820691" lon="13.07214204581735"><ele>975.0</ele><time>2026-04-23T07:40:59.999Z</time></trkpt><trkpt lat="42.61337498959141" lon="13.072022776117215"><ele>975.0</ele><time>2026-04-23T07:41:01Z</time></trkpt><trkpt lat="42.61338469686187" lon="13.071900296490622"><ele>975.0</ele><time>2026-04-23T07:41:02Z</time></trkpt><trkpt lat="42.613395396462" lon="13.071755765484642"><ele>975.0</ele><time>2026-04-23T07:41:03Z</time></trkpt><trkpt lat="42.613405108765555" lon="13.07159426412915"><ele>975.0</ele><time>2026-04-23T07:41:04Z</time></trkpt><trkpt lat="42.61340680122849" lon="13.071422057135418"><ele>975.0</ele><time>2026-04-23T07:41:05Z</time></trkpt><trkpt lat="42.613405931608376" lon="13.071246694089965"><ele>975.0</ele><time>2026-04-23T07:41:06Z</time></trkpt><trkpt lat="42.61338766687654" lon="13.07106402190763"><ele>975.0</ele><time>2026-04-23T07:41:07Z</time></trkpt><trkpt lat="42.61334718415124" lon="13.07087544609878"><ele>975.0</ele><time>2026-04-23T07:41:08Z</time></trkpt><trkpt lat="42.61330294322527" lon="13.070694244958105"><ele>975.0</ele><time>2026-04-23T07:41:09Z</time></trkpt><trkpt lat="42.613250610188395" lon="13.070496226294402"><ele>973.6666666666667</ele><time>2026-04-23T07:41:10Z</time></trkpt><trkpt lat="42.61320166645168" lon="13.070301122153959"><ele>972.3333333333334</ele><time>2026-04-23T07:41:11Z</time></trkpt><trkpt lat="42.61315891605875" lon="13.070095807357633"><ele>971.0</ele><time>2026-04-23T07:41:12Z</time></trkpt><trkpt lat="42.61312465345746" lon="13.069876978164919"><ele>969.6666666666667</ele><time>2026-04-23T07:41:13Z</time></trkpt><trkpt lat="42.613096334079366" lon="13.0696616794213"><ele>968.3333333333333</ele><time>2026-04-23T07:41:14Z</time></trkpt><trkpt lat="42.61306718978069" lon="13.06943259806494"><ele>967.0</ele><time>2026-04-23T07:41:15Z</time></trkpt><trkpt lat="42.61302756257632" lon="13.0692152241603"><ele>966.5</ele><time>2026-04-23T07:41:16Z</time></trkpt><trkpt lat="42.612971200979736" lon="13.069021992774799"><ele>966.0</ele><time>2026-04-23T07:41:17Z</time></trkpt><trkpt lat="42.61290468860214" lon="13.06885859947175"><ele>965.5</ele><time>2026-04-23T07:41:18Z</time></trkpt><trkpt lat="42.61281467866561" lon="13.068735434037022"><ele>965.0</ele><time>2026-04-23T07:41:19Z</time></trkpt><trkpt lat="42.61270455177048" lon="13.068626322778584"><ele>966.75</ele><time>2026-04-23T07:41:20Z</time></trkpt><trkpt lat="42.61259868772505" lon="13.068501026081035"><ele>968.5</ele><time>2026-04-23T07:41:21Z</time></trkpt><trkpt lat="42.61251163522606" lon="13.068355200831249"><ele>970.25</ele><time>2026-04-23T07:41:22Z</time></trkpt><trkpt lat="42.612450450356285" lon="13.06818490244888"><ele>972.0</ele><time>2026-04-23T07:41:23Z</time></trkpt><trkpt lat="42.61240649695433" lon="13.06799716494295"><ele>972.0</ele><time>2026-04-23T07:41:24Z</time></trkpt><trkpt lat="42.61235915428651" lon="13.067810167925133"><ele>972.0</ele><time>2026-04-23T07:41:25Z</time></trkpt><trkpt lat="42.612293673557666" lon="13.067630801762576"><ele>972.0</ele><time>2026-04-23T07:41:26Z</time></trkpt><trkpt lat="42.612211615324114" lon="13.067465416456612"><ele>972.0</ele><time>2026-04-23T07:41:27Z</time></trkpt><trkpt lat="42.612117757625725" lon="13.067303901625868"><ele>971.6666666666667</ele><time>2026-04-23T07:41:28Z</time></trkpt><trkpt lat="42.61201030636319" lon="13.067143152270065"><ele>971.3333333333334</ele><time>2026-04-23T07:41:29Z</time></trkpt><trkpt lat="42.61188602219784" lon="13.066995733236421"><ele>971.0</ele><time>2026-04-23T07:41:30Z</time></trkpt><trkpt lat="42.61175818452284" lon="13.06683993708255"><ele>971.0</ele><time>2026-04-23T07:41:31Z</time></trkpt><trkpt lat="42.61164143806341" lon="13.06667134811676"><ele>971.0</ele><time>2026-04-23T07:41:32Z</time></trkpt><trkpt lat="42.6115332371849" lon="13.066506178878928"><ele>971.0</ele><time>2026-04-23T07:41:33Z</time></trkpt><trkpt lat="42.61141394312738" lon="13.066336697341644"><ele>971.0</ele><time>2026-04-23T07:41:34Z</time></trkpt><trkpt lat="42.61128041290245" lon="13.066176398161206"><ele>971.0</ele><time>2026-04-23T07:41:35Z</time></trkpt><trkpt lat="42.611142169006065" lon="13.066024753775462"><ele>971.0</ele><time>2026-04-23T07:41:36Z</time></trkpt><trkpt lat="42.611006038100115" lon="13.065865511849342"><ele>970.3333333333334</ele><time>2026-04-23T07:41:37Z</time></trkpt><trkpt lat="42.610877226864375" lon="13.065698523703578"><ele>969.6666666666667</ele><time>2026-04-23T07:41:38Z</time></trkpt><trkpt lat="42.61076205104402" lon="13.06554297729045"><ele>969.0</ele><time>2026-04-23T07:41:39Z</time></trkpt><trkpt lat="42.61065044326084" lon="13.065398599675436"><ele>969.0</ele><time>2026-04-23T07:41:40Z</time></trkpt><trkpt lat="42.61053143351135" lon="13.06528010291413"><ele>969.0</ele><time>2026-04-23T07:41:41Z</time></trkpt><trkpt lat="42.61039440322061" lon="13.065197947977014"><ele>969.0</ele><time>2026-04-23T07:41:42Z</time></trkpt><trkpt lat="42.61024424173704" lon="13.065125564393664"><ele>968.5</ele><time>2026-04-23T07:41:43Z</time></trkpt><trkpt lat="42.60993424349941" lon="13.064985857065219"><ele>968.0</ele><time>2026-04-23T07:41:45Z</time></trkpt><trkpt lat="42.60977696185161" lon="13.064924504583862"><ele>967.5</ele><time>2026-04-23T07:41:46Z</time></trkpt><trkpt lat="42.60963257540929" lon="13.064867184734618"><ele>967.0</ele><time>2026-04-23T07:41:47Z</time></trkpt><trkpt lat="42.609501460426806" lon="13.06482245291601"><ele>966.5</ele><time>2026-04-23T07:41:48Z</time></trkpt><trkpt lat="42.60936420592053" lon="13.064801691170839"><ele>966.0</ele><time>2026-04-23T07:41:49Z</time></trkpt><trkpt lat="42.609224947324236" lon="13.06481201086349"><ele>966.0</ele><time>2026-04-23T07:41:50Z</time></trkpt><trkpt lat="42.60908060102789" lon="13.064804987074446"><ele>966.0</ele><time>2026-04-23T07:41:51Z</time></trkpt><trkpt lat="42.60894405023015" lon="13.064752629226005"><ele>966.0</ele><time>2026-04-23T07:41:52Z</time></trkpt><trkpt lat="42.6088086997955" lon="13.064659260135269"><ele>966.0</ele><time>2026-04-23T07:41:53Z</time></trkpt><trkpt lat="42.60868081316539" lon="13.064540822178083"><ele>966.3333333333333</ele><time>2026-04-23T07:41:54Z</time></trkpt><trkpt lat="42.60855832962512" lon="13.06442434518687"><ele>966.6666666666666</ele><time>2026-04-23T07:41:55Z</time></trkpt><trkpt lat="42.60842710587512" lon="13.064298785443604"><ele>967.0</ele><time>2026-04-23T07:41:56Z</time></trkpt><trkpt lat="42.60829846242366" lon="13.064171629549838"><ele>966.0</ele><time>2026-04-23T07:41:56.999Z</time></trkpt><trkpt lat="42.60816819272197" lon="13.064038114698349"><ele>965.0</ele><time>2026-04-23T07:41:57.999Z</time></trkpt><trkpt lat="42.60803394249578" lon="13.063897320360331"><ele>964.0</ele><time>2026-04-23T07:41:58.999Z</time></trkpt><trkpt lat="42.607897107306044" lon="13.063764023459207"><ele>965.6666666666666</ele><time>2026-04-23T07:41:59.999Z</time></trkpt><trkpt lat="42.60775832083498" lon="13.063640017248899"><ele>967.3333333333333</ele><time>2026-04-23T07:42:00.999Z</time></trkpt><trkpt lat="42.60761216435349" lon="13.063524729976614"><ele>969.0</ele><time>2026-04-23T07:42:01.999Z</time></trkpt><trkpt lat="42.607464922556815" lon="13.06342271336491"><ele>969.0</ele><time>2026-04-23T07:42:02.999Z</time></trkpt><trkpt lat="42.60733219410793" lon="13.063333586243958"><ele>969.0</ele><time>2026-04-23T07:42:03.999Z</time></trkpt><trkpt lat="42.60720353738651" lon="13.063242446357188"><ele>969.0</ele><time>2026-04-23T07:42:04.999Z</time></trkpt><trkpt lat="42.606949597104716" lon="13.063113588591547"><ele>967.75</ele><time>2026-04-23T07:42:06.999Z</time></trkpt><trkpt lat="42.60681297923297" lon="13.063077599448343"><ele>966.5</ele><time>2026-04-23T07:42:07.999Z</time></trkpt><trkpt lat="42.60667282089234" lon="13.063068848453693"><ele>965.25</ele><time>2026-04-23T07:42:08.999Z</time></trkpt><trkpt lat="42.606542530713234" lon="13.0630499589722"><ele>964.0</ele><time>2026-04-23T07:42:09.999Z</time></trkpt><trkpt lat="42.606426608101664" lon="13.063003878974612"><ele>964.0</ele><time>2026-04-23T07:42:10.999Z</time></trkpt><trkpt lat="42.60632724802575" lon="13.062911832061781"><ele>964.0</ele><time>2026-04-23T07:42:11.999Z</time></trkpt><trkpt lat="42.60624068871013" lon="13.06279891391948"><ele>964.0</ele><time>2026-04-23T07:42:12.999Z</time></trkpt><trkpt lat="42.60603947949852" lon="13.062545957330357"><ele>962.5</ele><time>2026-04-23T07:42:14.999Z</time></trkpt><trkpt lat="42.605923336786475" lon="13.06242462305809"><ele>961.0</ele><time>2026-04-23T07:42:15.999Z</time></trkpt><trkpt lat="42.605810414742244" lon="13.062295548974818"><ele>959.5</ele><time>2026-04-23T07:42:16.999Z</time></trkpt><trkpt lat="42.60569507950454" lon="13.062178476384032"><ele>958.0</ele><time>2026-04-23T07:42:17.999Z</time></trkpt><trkpt lat="42.60555580556247" lon="13.0620840215069"><ele>958.0</ele><time>2026-04-23T07:42:18.999Z</time></trkpt><trkpt lat="42.605401407045186" lon="13.062002645507144"><ele>958.0</ele><time>2026-04-23T07:42:19.999Z</time></trkpt><trkpt lat="42.60523608841043" lon="13.061940408374046"><ele>958.0</ele><time>2026-04-23T07:42:20.999Z</time></trkpt><trkpt lat="42.60506320506705" lon="13.061883765644668"><ele>960.0</ele><time>2026-04-23T07:42:21.999Z</time></trkpt><trkpt lat="42.604893960613865" lon="13.061836043831386"><ele>962.0</ele><time>2026-04-23T07:42:22.999Z</time></trkpt><trkpt lat="42.60472594198687" lon="13.061784578718168"><ele>964.0</ele><time>2026-04-23T07:42:23.999Z</time></trkpt><trkpt lat="42.60455476782839" lon="13.061733285016091"><ele>964.6666666666666</ele><time>2026-04-23T07:42:24.999Z</time></trkpt><trkpt lat="42.6043836449259" lon="13.061679900461414"><ele>965.3333333333333</ele><time>2026-04-23T07:42:25.999Z</time></trkpt><trkpt lat="42.604214061625285" lon="13.061613346201845"><ele>966.0</ele><time>2026-04-23T07:42:26.999Z</time></trkpt><trkpt lat="42.60405438440414" lon="13.061551163946204"><ele>965.3333333333333</ele><time>2026-04-23T07:42:27.999Z</time></trkpt><trkpt lat="42.60389407864011" lon="13.061492248242415"><ele>964.6666666666666</ele><time>2026-04-23T07:42:28.999Z</time></trkpt><trkpt lat="42.60372646140219" lon="13.061452187351978"><ele>964.0</ele><time>2026-04-23T07:42:29.999Z</time></trkpt><trkpt lat="42.60355616243166" lon="13.061421769631744"><ele>964.0</ele><time>2026-04-23T07:42:30.999Z</time></trkpt><trkpt lat="42.603385958618745" lon="13.061394704721454"><ele>964.0</ele><time>2026-04-23T07:42:31.999Z</time></trkpt><trkpt lat="42.60321396150764" lon="13.06135404920574"><ele>964.0</ele><time>2026-04-23T07:42:32.999Z</time></trkpt><trkpt lat="42.60305098926661" lon="13.061284223836115"><ele>964.0</ele><time>2026-04-23T07:42:33.999Z</time></trkpt><trkpt lat="42.60290336284847" lon="13.061195901141321"><ele>964.0</ele><time>2026-04-23T07:42:34.999Z</time></trkpt><trkpt lat="42.60277923911269" lon="13.061078669078553"><ele>964.0</ele><time>2026-04-23T07:42:35.999Z</time></trkpt><trkpt lat="42.60266343566493" lon="13.060938673195686"><ele>964.0</ele><time>2026-04-23T07:42:36.999Z</time></trkpt><trkpt lat="42.602559389557264" lon="13.06079886778508"><ele>964.0</ele><time>2026-04-23T07:42:37.999Z</time></trkpt><trkpt lat="42.60244766633544" lon="13.060674170705589"><ele>964.0</ele><time>2026-04-23T07:42:38.999Z</time></trkpt><trkpt lat="42.60231808066679" lon="13.060574322435995"><ele>964.0</ele><time>2026-04-23T07:42:39.999Z</time></trkpt><trkpt lat="42.60217833569661" lon="13.06047831955137"><ele>963.3333333333333</ele><time>2026-04-23T07:42:40.999Z</time></trkpt><trkpt lat="42.60203475811173" lon="13.060381225869527"><ele>962.6666666666667</ele><time>2026-04-23T07:42:41.999Z</time></trkpt><trkpt lat="42.60189056820746" lon="13.06027602945026"><ele>962.0</ele><time>2026-04-23T07:42:42.999Z</time></trkpt><trkpt lat="42.60175409970275" lon="13.06017578636638"><ele>962.0</ele><time>2026-04-23T07:42:43.999Z</time></trkpt><trkpt lat="42.60161722162069" lon="13.060095847663485"><ele>962.0</ele><time>2026-04-23T07:42:44.999Z</time></trkpt><trkpt lat="42.60147043712591" lon="13.060049219904975"><ele>962.0</ele><time>2026-04-23T07:42:45.999Z</time></trkpt><trkpt lat="42.60131623610757" lon="13.060010082684464"><ele>962.0</ele><time>2026-04-23T07:42:46.999Z</time></trkpt><trkpt lat="42.60116621567147" lon="13.059957215337676"><ele>962.0</ele><time>2026-04-23T07:42:47.999Z</time></trkpt><trkpt lat="42.601028547260455" lon="13.05990015205301"><ele>962.0</ele><time>2026-04-23T07:42:48.999Z</time></trkpt><trkpt lat="42.60090528315529" lon="13.059846341538893"><ele>962.0</ele><time>2026-04-23T07:42:49.999Z</time></trkpt><trkpt lat="42.60078082443191" lon="13.05981887227845"><ele>961.5</ele><time>2026-04-23T07:42:50.999Z</time></trkpt><trkpt lat="42.600640962083915" lon="13.059826344529563"><ele>961.0</ele><time>2026-04-23T07:42:51.999Z</time></trkpt><trkpt lat="42.60049252042206" lon="13.059839674482037"><ele>960.5</ele><time>2026-04-23T07:42:52.999Z</time></trkpt><trkpt lat="42.60033629102566" lon="13.05985029891646"><ele>960.0</ele><time>2026-04-23T07:42:53.999Z</time></trkpt><trkpt lat="42.60017439331276" lon="13.05986302432544"><ele>960.0</ele><time>2026-04-23T07:42:54.999Z</time></trkpt><trkpt lat="42.60001236248763" lon="13.059883387247003"><ele>960.0</ele><time>2026-04-23T07:42:55.999Z</time></trkpt><trkpt lat="42.599844442631706" lon="13.059903334067808"><ele>960.0</ele><time>2026-04-23T07:42:56.999Z</time></trkpt><trkpt lat="42.59967812585487" lon="13.059908250218658"><ele>960.0</ele><time>2026-04-23T07:42:57.999Z</time></trkpt><trkpt lat="42.59951989401253" lon="13.05988669773632"><ele>960.0</ele><time>2026-04-23T07:42:58.999Z</time></trkpt><trkpt lat="42.599364925906684" lon="13.059870091508602"><ele>960.0</ele><time>2026-04-23T07:42:59.999Z</time></trkpt><trkpt lat="42.59920588135408" lon="13.059885019404426"><ele>960.5</ele><time>2026-04-23T07:43:00.999Z</time></trkpt><trkpt lat="42.59906846735099" lon="13.059916427276443"><ele>961.0</ele><time>2026-04-23T07:43:01.999Z</time></trkpt><trkpt lat="42.59893840612149" lon="13.059925847834986"><ele>961.5</ele><time>2026-04-23T07:43:02.999Z</time></trkpt><trkpt lat="42.59881074246303" lon="13.059899221704804"><ele>962.0</ele><time>2026-04-23T07:43:03.999Z</time></trkpt><trkpt lat="42.598680897740685" lon="13.059851764934223"><ele>962.25</ele><time>2026-04-23T07:43:04.999Z</time></trkpt><trkpt lat="42.598550055488346" lon="13.0598203621504"><ele>962.5</ele><time>2026-04-23T07:43:05.999Z</time></trkpt><trkpt lat="42.59841103645654" lon="13.0598240004871"><ele>962.75</ele><time>2026-04-23T07:43:07Z</time></trkpt><trkpt lat="42.59826755419221" lon="13.059848433115715"><ele>963.0</ele><time>2026-04-23T07:43:08Z</time></trkpt><trkpt lat="42.598122020384714" lon="13.05988487765673"><ele>963.0</ele><time>2026-04-23T07:43:09Z</time></trkpt><trkpt lat="42.597973714196165" lon="13.059927108267035"><ele>963.0</ele><time>2026-04-23T07:43:10Z</time></trkpt><trkpt lat="42.59782300096398" lon="13.059958630618077"><ele>963.0</ele><time>2026-04-23T07:43:11Z</time></trkpt><trkpt lat="42.597670427682445" lon="13.059958272566865"><ele>964.3333333333333</ele><time>2026-04-23T07:43:12Z</time></trkpt><trkpt lat="42.59751544973535" lon="13.059925283381444"><ele>965.6666666666666</ele><time>2026-04-23T07:43:13Z</time></trkpt><trkpt lat="42.59737097115457" lon="13.059889269883394"><ele>967.0</ele><time>2026-04-23T07:43:14Z</time></trkpt><trkpt lat="42.597215190547516" lon="13.059866841559279"><ele>967.0</ele><time>2026-04-23T07:43:15Z</time></trkpt><trkpt lat="42.59706910677751" lon="13.059852339455471"><ele>967.0</ele><time>2026-04-23T07:43:16Z</time></trkpt><trkpt lat="42.59692437575828" lon="13.05985863851324"><ele>967.0</ele><time>2026-04-23T07:43:17Z</time></trkpt><trkpt lat="42.596793574806846" lon="13.059893247638986"><ele>967.0</ele><time>2026-04-23T07:43:18Z</time></trkpt><trkpt lat="42.59659933502217" lon="13.060017354703504"><ele>968.2</ele><time>2026-04-23T07:43:20Z</time></trkpt><trkpt lat="42.596537764383285" lon="13.060072119213183"><ele>969.4000000000001</ele><time>2026-04-23T07:43:21Z</time></trkpt><trkpt lat="42.596456018431034" lon="13.060079422760907"><ele>970.5999999999999</ele><time>2026-04-23T07:43:23Z</time></trkpt><trkpt lat="42.59638646090632" lon="13.060004704644005"><ele>971.8</ele><time>2026-04-23T07:43:25Z</time></trkpt><trkpt lat="42.59630007775534" lon="13.059972014598456"><ele>973.0</ele><time>2026-04-23T07:43:27Z</time></trkpt><trkpt lat="42.59618395305448" lon="13.060000792686415"><ele>972.0</ele><time>2026-04-23T07:43:29Z</time></trkpt><trkpt lat="42.59608359890502" lon="13.06003777035496"><ele>971.0</ele><time>2026-04-23T07:43:31Z</time></trkpt><trkpt lat="42.59597033069808" lon="13.060067358469967"><ele>970.0</ele><time>2026-04-23T07:43:33Z</time></trkpt><trkpt lat="42.595906824060506" lon="13.060096414894018"><ele>969.0</ele><time>2026-04-23T07:43:34Z</time></trkpt><trkpt lat="42.595844091883734" lon="13.060116195270247"><ele>968.0</ele><time>2026-04-23T07:43:35Z</time></trkpt><trkpt lat="42.5957373769939" lon="13.060148455590491"><ele>968.0</ele><time>2026-04-23T07:43:37Z</time></trkpt><trkpt lat="42.59564441224609" lon="13.06017812158179"><ele>968.0</ele><time>2026-04-23T07:43:39Z</time></trkpt><trkpt lat="42.59552321807482" lon="13.060172078790474"><ele>968.0</ele><time>2026-04-23T07:43:41Z</time></trkpt><trkpt lat="42.595438293382976" lon="13.060166353531637"><ele>968.0</ele><time>2026-04-23T07:43:43Z</time></trkpt><trkpt lat="42.59536813957379" lon="13.060178358270214"><ele>968.0</ele><time>2026-04-23T07:43:45Z</time></trkpt><trkpt lat="42.59518647423562" lon="13.060084478247894"><ele>968.0</ele><time>2026-04-23T07:43:47Z</time></trkpt><trkpt lat="42.595109921249374" lon="13.06001054082869"><ele>968.0</ele><time>2026-04-23T07:43:48Z</time></trkpt><trkpt lat="42.59504207651538" lon="13.059915237125496"><ele>968.0</ele><time>2026-04-23T07:43:49Z</time></trkpt><trkpt lat="42.5949777035742" lon="13.059796648195409"><ele>968.0</ele><time>2026-04-23T07:43:50Z</time></trkpt><trkpt lat="42.59492927709772" lon="13.059649643150385"><ele>968.0</ele><time>2026-04-23T07:43:51Z</time></trkpt><trkpt lat="42.59490076149458" lon="13.059481089547932"><ele>967.25</ele><time>2026-04-23T07:43:52Z</time></trkpt><trkpt lat="42.594871524172554" lon="13.059300391988153"><ele>966.5</ele><time>2026-04-23T07:43:53Z</time></trkpt><trkpt lat="42.594842568310646" lon="13.059136318757334"><ele>965.75</ele><time>2026-04-23T07:43:54Z</time></trkpt><trkpt lat="42.59480518584007" lon="13.058961258291859"><ele>965.0</ele><time>2026-04-23T07:43:55Z</time></trkpt><trkpt lat="42.59477036885251" lon="13.058785380359732"><ele>964.75</ele><time>2026-04-23T07:43:56Z</time></trkpt><trkpt lat="42.59473483025127" lon="13.058610600156426"><ele>964.5</ele><time>2026-04-23T07:43:57Z</time></trkpt><trkpt lat="42.59471039997801" lon="13.058433723140743"><ele>964.25</ele><time>2026-04-23T07:43:58Z</time></trkpt><trkpt lat="42.59470264612577" lon="13.05825318305812"><ele>964.0</ele><time>2026-04-23T07:43:59Z</time></trkpt><trkpt lat="42.59471294388497" lon="13.058063672191892"><ele>964.0</ele><time>2026-04-23T07:44:00Z</time></trkpt><trkpt lat="42.59473025161239" lon="13.05787164890663"><ele>964.0</ele><time>2026-04-23T07:44:01Z</time></trkpt><trkpt lat="42.59475818417641" lon="13.057677723926243"><ele>964.0</ele><time>2026-04-23T07:44:02Z</time></trkpt><trkpt lat="42.59479234276994" lon="13.057472208080025"><ele>964.0</ele><time>2026-04-23T07:44:03Z</time></trkpt><trkpt lat="42.59482166681733" lon="13.05727256735192"><ele>964.0</ele><time>2026-04-23T07:44:04Z</time></trkpt><trkpt lat="42.594851555851356" lon="13.05706770391534"><ele>964.0</ele><time>2026-04-23T07:44:04.999Z</time></trkpt><trkpt lat="42.59488165403071" lon="13.056858864405708"><ele>964.0</ele><time>2026-04-23T07:44:05.999Z</time></trkpt><trkpt lat="42.594911392137185" lon="13.056648543783588"><ele>963.6666666666666</ele><time>2026-04-23T07:44:06.999Z</time></trkpt><trkpt lat="42.59493936311282" lon="13.0564342927283"><ele>963.3333333333333</ele><time>2026-04-23T07:44:07.999Z</time></trkpt><trkpt lat="42.59497022352616" lon="13.05621645990898"><ele>963.0</ele><time>2026-04-23T07:44:08.999Z</time></trkpt><trkpt lat="42.5949950689811" lon="13.055992774192102"><ele>962.6666666666667</ele><time>2026-04-23T07:44:09.999Z</time></trkpt><trkpt lat="42.59500967836017" lon="13.055768490623672"><ele>962.3333333333334</ele><time>2026-04-23T07:44:10.999Z</time></trkpt><trkpt lat="42.59500341445821" lon="13.055538660549445"><ele>962.0</ele><time>2026-04-23T07:44:11.999Z</time></trkpt><trkpt lat="42.59498179982146" lon="13.055308876625654"><ele>962.0</ele><time>2026-04-23T07:44:12.999Z</time></trkpt><trkpt lat="42.5949477314985" lon="13.055078274196061"><ele>962.0</ele><time>2026-04-23T07:44:13.999Z</time></trkpt><trkpt lat="42.59491240760183" lon="13.054846040918736"><ele>962.0</ele><time>2026-04-23T07:44:14.999Z</time></trkpt><trkpt lat="42.594886625312434" lon="13.054619225094422"><ele>961.0</ele><time>2026-04-23T07:44:15.999Z</time></trkpt><trkpt lat="42.594875213327214" lon="13.054393739104398"><ele>960.0</ele><time>2026-04-23T07:44:16.999Z</time></trkpt><trkpt lat="42.5948722982496" lon="13.054171294206862"><ele>959.0</ele><time>2026-04-23T07:44:17.999Z</time></trkpt><trkpt lat="42.59487555567115" lon="13.053956248021295"><ele>958.3333333333334</ele><time>2026-04-23T07:44:18.999Z</time></trkpt><trkpt lat="42.59488776435093" lon="13.053737771049983"><ele>957.6666666666667</ele><time>2026-04-23T07:44:19.999Z</time></trkpt><trkpt lat="42.594905769158935" lon="13.053521240417455"><ele>957.0</ele><time>2026-04-23T07:44:20.999Z</time></trkpt><trkpt lat="42.594929305175214" lon="13.05330305653737"><ele>956.0</ele><time>2026-04-23T07:44:21.999Z</time></trkpt><trkpt lat="42.59495905758355" lon="13.053079874740119"><ele>955.0</ele><time>2026-04-23T07:44:22.999Z</time></trkpt><trkpt lat="42.59498684916447" lon="13.052855856087785"><ele>954.0</ele><time>2026-04-23T07:44:23.999Z</time></trkpt><trkpt lat="42.5950169661483" lon="13.05262718061416"><ele>952.6666666666667</ele><time>2026-04-23T07:44:24.999Z</time></trkpt><trkpt lat="42.59504217275121" lon="13.052395353752255"><ele>951.3333333333334</ele><time>2026-04-23T07:44:25.999Z</time></trkpt><trkpt lat="42.59505557677265" lon="13.052162123563386"><ele>950.0</ele><time>2026-04-23T07:44:26.999Z</time></trkpt><trkpt lat="42.595046991859306" lon="13.051932050234154"><ele>950.0</ele><time>2026-04-23T07:44:27.999Z</time></trkpt><trkpt lat="42.59502351416061" lon="13.051705714884761"><ele>950.0</ele><time>2026-04-23T07:44:28.999Z</time></trkpt><trkpt lat="42.595002947831446" lon="13.051478395252463"><ele>950.0</ele><time>2026-04-23T07:44:29.999Z</time></trkpt><trkpt lat="42.59497895701694" lon="13.051268765907542"><ele>948.6666666666667</ele><time>2026-04-23T07:44:30.999Z</time></trkpt><trkpt lat="42.59494626325894" lon="13.051059818847861"><ele>947.3333333333333</ele><time>2026-04-23T07:44:31.999Z</time></trkpt><trkpt lat="42.594898366155874" lon="13.050866535504072"><ele>946.0</ele><time>2026-04-23T07:44:32.999Z</time></trkpt><trkpt lat="42.59482324462663" lon="13.050683357202898"><ele>946.0</ele><time>2026-04-23T07:44:33.999Z</time></trkpt><trkpt lat="42.594727901627145" lon="13.050510681015208"><ele>946.0</ele><time>2026-04-23T07:44:34.999Z</time></trkpt><trkpt lat="42.594623239690534" lon="13.05033862167255"><ele>946.0</ele><time>2026-04-23T07:44:35.999Z</time></trkpt><trkpt lat="42.59452372032874" lon="13.05014231210052"><ele>942.0</ele><time>2026-04-23T07:44:36.999Z</time></trkpt><trkpt lat="42.594435351064085" lon="13.04992956607026"><ele>938.0</ele><time>2026-04-23T07:44:37.999Z</time></trkpt><trkpt lat="42.59435916535072" lon="13.049711951849453"><ele>934.0</ele><time>2026-04-23T07:44:38.999Z</time></trkpt><trkpt lat="42.594290693206815" lon="13.049498735176364"><ele>934.0</ele><time>2026-04-23T07:44:39.999Z</time></trkpt><trkpt lat="42.59424489596464" lon="13.049279930211107"><ele>934.0</ele><time>2026-04-23T07:44:40.999Z</time></trkpt><trkpt lat="42.594177362944784" lon="13.049074928972859"><ele>934.0</ele><time>2026-04-23T07:44:41.999Z</time></trkpt><trkpt lat="42.59413841050622" lon="13.048862381768826"><ele>933.6666666666666</ele><time>2026-04-23T07:44:42.999Z</time></trkpt><trkpt lat="42.59410463670308" lon="13.048652184461066"><ele>933.3333333333333</ele><time>2026-04-23T07:44:43.999Z</time></trkpt><trkpt lat="42.59408099871663" lon="13.048449811506677"><ele>933.0</ele><time>2026-04-23T07:44:44.999Z</time></trkpt><trkpt lat="42.5940591925329" lon="13.048246115770398"><ele>932.25</ele><time>2026-04-23T07:44:45.999Z</time></trkpt><trkpt lat="42.59403549521935" lon="13.048052602912666"><ele>931.5</ele><time>2026-04-23T07:44:46.999Z</time></trkpt><trkpt lat="42.59402506237545" lon="13.047848140961415"><ele>930.75</ele><time>2026-04-23T07:44:47.999Z</time></trkpt><trkpt lat="42.594016296482" lon="13.047641127987074"><ele>930.0</ele><time>2026-04-23T07:44:48.999Z</time></trkpt><trkpt lat="42.59401486900778" lon="13.047437977062609"><ele>929.0</ele><time>2026-04-23T07:44:49.999Z</time></trkpt><trkpt lat="42.59400422934265" lon="13.047243629871296"><ele>928.0</ele><time>2026-04-23T07:44:50.999Z</time></trkpt><trkpt lat="42.594001168164304" lon="13.047048846063651"><ele>927.0</ele><time>2026-04-23T07:44:51.999Z</time></trkpt><trkpt lat="42.59400147007385" lon="13.046859679472337"><ele>926.0</ele><time>2026-04-23T07:44:52.999Z</time></trkpt><trkpt lat="42.59398760640417" lon="13.046683591489106"><ele>924.5</ele><time>2026-04-23T07:44:53.999Z</time></trkpt><trkpt lat="42.59395075646481" lon="13.046533596130638"><ele>923.0</ele><time>2026-04-23T07:44:54.999Z</time></trkpt><trkpt lat="42.593884192607874" lon="13.0464044594115"><ele>921.5</ele><time>2026-04-23T07:44:55.999Z</time></trkpt><trkpt lat="42.593790496244424" lon="13.046303765515257"><ele>920.0</ele><time>2026-04-23T07:44:56.999Z</time></trkpt><trkpt lat="42.593683845248684" lon="13.046240218624913"><ele>920.25</ele><time>2026-04-23T07:44:57.999Z</time></trkpt><trkpt lat="42.59358055307186" lon="13.046166797739987"><ele>920.5</ele><time>2026-04-23T07:44:58.999Z</time></trkpt><trkpt lat="42.59347317831826" lon="13.046086272423567"><ele>920.75</ele><time>2026-04-23T07:44:59.999Z</time></trkpt><trkpt lat="42.59338225331617" lon="13.045988821925107"><ele>921.0</ele><time>2026-04-23T07:45:00.999Z</time></trkpt><trkpt lat="42.593326891225416" lon="13.045861262059864"><ele>920.0</ele><time>2026-04-23T07:45:01.999Z</time></trkpt><trkpt lat="42.59327086340857" lon="13.045724271135072"><ele>919.0</ele><time>2026-04-23T07:45:02.999Z</time></trkpt><trkpt lat="42.593195919170334" lon="13.045581945292183"><ele>918.0</ele><time>2026-04-23T07:45:03.999Z</time></trkpt><trkpt lat="42.59312930483982" lon="13.04542205303675"><ele>917.0</ele><time>2026-04-23T07:45:04.999Z</time></trkpt><trkpt lat="42.59306490169406" lon="13.045252614295602"><ele>917.0</ele><time>2026-04-23T07:45:05.999Z</time></trkpt><trkpt lat="42.59299968504294" lon="13.045074261506857"><ele>917.0</ele><time>2026-04-23T07:45:06.999Z</time></trkpt><trkpt lat="42.592927190514686" lon="13.04488459745352"><ele>917.0</ele><time>2026-04-23T07:45:07.999Z</time></trkpt><trkpt lat="42.592847604050434" lon="13.04469766471292"><ele>916.6666666666667</ele><time>2026-04-23T07:45:08.999Z</time></trkpt><trkpt lat="42.592748304686886" lon="13.044519872938727"><ele>916.3333333333333</ele><time>2026-04-23T07:45:09.999Z</time></trkpt><trkpt lat="42.5926314099296" lon="13.044357828245154"><ele>916.0</ele><time>2026-04-23T07:45:10.999Z</time></trkpt><trkpt lat="42.592506778859786" lon="13.044200250566224"><ele>915.0</ele><time>2026-04-23T07:45:11.999Z</time></trkpt><trkpt lat="42.592376073824916" lon="13.044045151562113"><ele>914.0</ele><time>2026-04-23T07:45:13Z</time></trkpt><trkpt lat="42.59226159796559" lon="13.043876198652773"><ele>913.0</ele><time>2026-04-23T07:45:14Z</time></trkpt><trkpt lat="42.5921338587639" lon="13.043745444065852"><ele>913.0</ele><time>2026-04-23T07:45:15Z</time></trkpt><trkpt lat="42.59202558116592" lon="13.043618470216199"><ele>913.0</ele><time>2026-04-23T07:45:16Z</time></trkpt><trkpt lat="42.591926755358706" lon="13.043493525076244"><ele>913.0</ele><time>2026-04-23T07:45:17Z</time></trkpt><trkpt lat="42.59180313005168" lon="13.043414578453374"><ele>913.0</ele><time>2026-04-23T07:45:18Z</time></trkpt><trkpt lat="42.59168630515208" lon="13.043351345526762"><ele>913.4</ele><time>2026-04-23T07:45:19Z</time></trkpt><trkpt lat="42.59157106088197" lon="13.043285549178524"><ele>913.8</ele><time>2026-04-23T07:45:20Z</time></trkpt><trkpt lat="42.59146830997344" lon="13.04321752240575"><ele>914.2</ele><time>2026-04-23T07:45:21Z</time></trkpt><trkpt lat="42.5914032074586" lon="13.043129058600018"><ele>914.6</ele><time>2026-04-23T07:45:22Z</time></trkpt><trkpt lat="42.59136642154065" lon="13.043023775801025"><ele>915.0</ele><time>2026-04-23T07:45:23Z</time></trkpt><trkpt lat="42.59132652572648" lon="13.04293758198285"><ele>915.0</ele><time>2026-04-23T07:45:24Z</time></trkpt><trkpt lat="42.59130369097837" lon="13.042799292662947"><ele>915.0</ele><time>2026-04-23T07:45:25Z</time></trkpt><trkpt lat="42.591282525329056" lon="13.042674970000428"><ele>915.0</ele><time>2026-04-23T07:45:26Z</time></trkpt><trkpt lat="42.59125480568209" lon="13.042522434550209"><ele>915.0</ele><time>2026-04-23T07:45:27Z</time></trkpt><trkpt lat="42.59122663134501" lon="13.042367259831948"><ele>915.0</ele><time>2026-04-23T07:45:28Z</time></trkpt><trkpt lat="42.591219082974355" lon="13.04222275219093"><ele>914.8</ele><time>2026-04-23T07:45:29Z</time></trkpt><trkpt lat="42.591232508101534" lon="13.042098245433774"><ele>914.6</ele><time>2026-04-23T07:45:30Z</time></trkpt><trkpt lat="42.59127892811945" lon="13.041974129411296"><ele>914.4000000000001</ele><time>2026-04-23T07:45:31Z</time></trkpt><trkpt lat="42.59135947434363" lon="13.04189304366614"><ele>914.2</ele><time>2026-04-23T07:45:32Z</time></trkpt><trkpt lat="42.59143544836531" lon="13.041812183225133"><ele>914.0</ele><time>2026-04-23T07:45:33Z</time></trkpt><trkpt lat="42.591519725393525" lon="13.041757135672286"><ele>914.0</ele><time>2026-04-23T07:45:34Z</time></trkpt><trkpt lat="42.59159959305318" lon="13.041675928232985"><ele>914.0</ele><time>2026-04-23T07:45:35Z</time></trkpt><trkpt lat="42.59169278135376" lon="13.041595397786315"><ele>914.0</ele><time>2026-04-23T07:45:36Z</time></trkpt><trkpt lat="42.59175146144776" lon="13.041447729418296"><ele>914.0</ele><time>2026-04-23T07:45:37Z</time></trkpt><trkpt lat="42.59181919644998" lon="13.041308378075714"><ele>914.2</ele><time>2026-04-23T07:45:38Z</time></trkpt><trkpt lat="42.591878109842426" lon="13.04116022166221"><ele>914.4000000000001</ele><time>2026-04-23T07:45:39Z</time></trkpt><trkpt lat="42.591937404359776" lon="13.041016207642548"><ele>914.6</ele><time>2026-04-23T07:45:40Z</time></trkpt><trkpt lat="42.59199312236515" lon="13.040889013841973"><ele>914.8</ele><time>2026-04-23T07:45:41Z</time></trkpt><trkpt lat="42.59204264225876" lon="13.040779734275217"><ele>915.0</ele><time>2026-04-23T07:45:42Z</time></trkpt><trkpt lat="42.59209210292948" lon="13.040680899638687"><ele>915.0</ele><time>2026-04-23T07:45:43Z</time></trkpt><trkpt lat="42.5921358795047" lon="13.040598451843563"><ele>915.0</ele><time>2026-04-23T07:45:44Z</time></trkpt><trkpt lat="42.592177342650245" lon="13.040471390066832"><ele>915.0</ele><time>2026-04-23T07:45:46Z</time></trkpt><trkpt lat="42.59219458615798" lon="13.040334065633647"><ele>915.0</ele><time>2026-04-23T07:45:52Z</time></trkpt><trkpt lat="42.592174534084435" lon="13.040216694131459"><ele>915.0</ele><time>2026-04-23T07:45:53Z</time></trkpt><trkpt lat="42.59222691976091" lon="13.04010658342771"><ele>915.0</ele><time>2026-04-23T07:45:55Z</time></trkpt><trkpt lat="42.59223661837883" lon="13.040020701677228"><ele>915.0</ele><time>2026-04-23T07:45:59Z</time></trkpt><trkpt lat="42.59216062849543" lon="13.040000470284939"><ele>915.0</ele><time>2026-04-23T07:46:12Z</time></trkpt><trkpt lat="42.592114259180704" lon="13.040096082356747"><ele>915.0</ele><time>2026-04-23T07:46:13.999Z</time></trkpt><trkpt lat="42.59202432685668" lon="13.040059489530517"><ele>915.0</ele><time>2026-04-23T07:46:16.999Z</time></trkpt><trkpt lat="42.59192738225083" lon="13.039924102509199"><ele>913.8</ele><time>2026-04-23T07:46:18.999Z</time></trkpt><trkpt lat="42.5918637465404" lon="13.039836238027785"><ele>912.6</ele><time>2026-04-23T07:46:19.999Z</time></trkpt><trkpt lat="42.59179267247506" lon="13.039742382194735"><ele>911.4000000000001</ele><time>2026-04-23T07:46:20.999Z</time></trkpt><trkpt lat="42.591713644116616" lon="13.039638309257796"><ele>910.2</ele><time>2026-04-23T07:46:21.999Z</time></trkpt><trkpt lat="42.59163190610252" lon="13.039523854845335"><ele>909.0</ele><time>2026-04-23T07:46:22.999Z</time></trkpt><trkpt lat="42.591548231876445" lon="13.039408773739078"><ele>909.0</ele><time>2026-04-23T07:46:23.999Z</time></trkpt><trkpt lat="42.591456740737314" lon="13.039286788255817"><ele>909.0</ele><time>2026-04-23T07:46:24.999Z</time></trkpt><trkpt lat="42.59136408303514" lon="13.039157672807816"><ele>909.0</ele><time>2026-04-23T07:46:25.999Z</time></trkpt><trkpt lat="42.59126507212114" lon="13.039023310953691"><ele>909.0</ele><time>2026-04-23T07:46:26.999Z</time></trkpt><trkpt lat="42.59116137749584" lon="13.038882709446497"><ele>908.6666666666667</ele><time>2026-04-23T07:46:27.999Z</time></trkpt><trkpt lat="42.5910554091354" lon="13.038738454751144"><ele>908.3333333333334</ele><time>2026-04-23T07:46:28.999Z</time></trkpt><trkpt lat="42.59094636466426" lon="13.038586459695921"><ele>908.0</ele><time>2026-04-23T07:46:29.999Z</time></trkpt><trkpt lat="42.59083315376981" lon="13.038428503335071"><ele>910.0</ele><time>2026-04-23T07:46:30.999Z</time></trkpt><trkpt lat="42.590718019673375" lon="13.03826840292086"><ele>912.0</ele><time>2026-04-23T07:46:31.999Z</time></trkpt><trkpt lat="42.59059876633573" lon="13.038097160024881"><ele>914.0</ele><time>2026-04-23T07:46:32.999Z</time></trkpt><trkpt lat="42.59047244491194" lon="13.037931682825107"><ele>914.0</ele><time>2026-04-23T07:46:33.999Z</time></trkpt><trkpt lat="42.590346188231194" lon="13.037767833968289"><ele>914.0</ele><time>2026-04-23T07:46:34.999Z</time></trkpt><trkpt lat="42.590219086402804" lon="13.037586821915363"><ele>914.0</ele><time>2026-04-23T07:46:35.999Z</time></trkpt><trkpt lat="42.59009486959531" lon="13.03741752955129"><ele>913.6666666666667</ele><time>2026-04-23T07:46:36.999Z</time></trkpt><trkpt lat="42.5899702870906" lon="13.037237214124948"><ele>913.3333333333333</ele><time>2026-04-23T07:46:37.999Z</time></trkpt><trkpt lat="42.5898404367881" lon="13.037064317352726"><ele>913.0</ele><time>2026-04-23T07:46:38.999Z</time></trkpt><trkpt lat="42.58970910358661" lon="13.03689071174426"><ele>913.0</ele><time>2026-04-23T07:46:39.999Z</time></trkpt><trkpt lat="42.589577723836996" lon="13.036707451696962"><ele>913.0</ele><time>2026-04-23T07:46:40.999Z</time></trkpt><trkpt lat="42.58944416215373" lon="13.036523847276563"><ele>913.0</ele><time>2026-04-23T07:46:41.999Z</time></trkpt><trkpt lat="42.58931876882516" lon="13.036324239344701"><ele>912.6666666666666</ele><time>2026-04-23T07:46:42.999Z</time></trkpt><trkpt lat="42.58920137101013" lon="13.036110946805184"><ele>912.3333333333333</ele><time>2026-04-23T07:46:43.999Z</time></trkpt><trkpt lat="42.58905563897954" lon="13.0359544577867"><ele>912.0</ele><time>2026-04-23T07:46:44.999Z</time></trkpt><trkpt lat="42.58894893928528" lon="13.03574913497754"><ele>911.0</ele><time>2026-04-23T07:46:45.999Z</time></trkpt><trkpt lat="42.58884173546846" lon="13.035540990147013"><ele>910.0</ele><time>2026-04-23T07:46:46.999Z</time></trkpt><trkpt lat="42.58874587456006" lon="13.035326671817353"><ele>909.0</ele><time>2026-04-23T07:46:47.999Z</time></trkpt><trkpt lat="42.5886515062033" lon="13.03510991124185"><ele>907.3333333333333</ele><time>2026-04-23T07:46:48.999Z</time></trkpt><trkpt lat="42.58857160132832" lon="13.034884378803284"><ele>905.6666666666666</ele><time>2026-04-23T07:46:49.999Z</time></trkpt><trkpt lat="42.58851229851171" lon="13.034632438433933"><ele>904.0</ele><time>2026-04-23T07:46:50.999Z</time></trkpt><trkpt lat="42.58846567781654" lon="13.034370571905871"><ele>903.0</ele><time>2026-04-23T07:46:51.999Z</time></trkpt><trkpt lat="42.58842258171213" lon="13.03411079012881"><ele>902.0</ele><time>2026-04-23T07:46:52.999Z</time></trkpt><trkpt lat="42.588338617215655" lon="13.03396748071708"><ele>901.0</ele><time>2026-04-23T07:46:53.999Z</time></trkpt><trkpt lat="42.58827900381038" lon="13.033765967713974"><ele>901.0</ele><time>2026-04-23T07:46:54.999Z</time></trkpt><trkpt lat="42.588232671181856" lon="13.033579122679338"><ele>901.0</ele><time>2026-04-23T07:46:55.999Z</time></trkpt><trkpt lat="42.588185234922" lon="13.03339462795752"><ele>901.0</ele><time>2026-04-23T07:46:56.999Z</time></trkpt><trkpt lat="42.588133910107814" lon="13.033201513293557"><ele>901.0</ele><time>2026-04-23T07:46:57.999Z</time></trkpt><trkpt lat="42.5880802022322" lon="13.033002808965175"><ele>901.3333333333333</ele><time>2026-04-23T07:46:58.999Z</time></trkpt><trkpt lat="42.58802579546937" lon="13.032797077391976"><ele>901.6666666666667</ele><time>2026-04-23T07:46:59.999Z</time></trkpt><trkpt lat="42.58797243033563" lon="13.032586712391863"><ele>902.0</ele><time>2026-04-23T07:47:00.999Z</time></trkpt><trkpt lat="42.587916347458055" lon="13.03237188705811"><ele>902.0</ele><time>2026-04-23T07:47:01.999Z</time></trkpt><trkpt lat="42.58786042106834" lon="13.032154454332106"><ele>902.0</ele><time>2026-04-23T07:47:02.999Z</time></trkpt><trkpt lat="42.587801762439" lon="13.031940370320209"><ele>902.0</ele><time>2026-04-23T07:47:03.999Z</time></trkpt><trkpt lat="42.587738221364496" lon="13.031728090055099"><ele>901.3333333333334</ele><time>2026-04-23T07:47:04.999Z</time></trkpt><trkpt lat="42.58766823953669" lon="13.031513479405998"><ele>900.6666666666667</ele><time>2026-04-23T07:47:05.999Z</time></trkpt><trkpt lat="42.58759182143199" lon="13.031299405547104"><ele>900.0</ele><time>2026-04-23T07:47:06.999Z</time></trkpt><trkpt lat="42.58751061523813" lon="13.031088359200487"><ele>900.0</ele><time>2026-04-23T07:47:07.999Z</time></trkpt><trkpt lat="42.58743175602171" lon="13.030866746594976"><ele>900.0</ele><time>2026-04-23T07:47:08.999Z</time></trkpt><trkpt lat="42.587351300893516" lon="13.030651737922327"><ele>900.0</ele><time>2026-04-23T07:47:09.999Z</time></trkpt><trkpt lat="42.58726834156841" lon="13.030429850451984"><ele>901.6666666666667</ele><time>2026-04-23T07:47:10.999Z</time></trkpt><trkpt lat="42.58718364884714" lon="13.030215034066293"><ele>903.3333333333334</ele><time>2026-04-23T07:47:11.999Z</time></trkpt><trkpt lat="42.58710157194176" lon="13.029995791989814"><ele>905.0</ele><time>2026-04-23T07:47:12.999Z</time></trkpt><trkpt lat="42.58701984116721" lon="13.029766445126468"><ele>903.0</ele><time>2026-04-23T07:47:13.999Z</time></trkpt><trkpt lat="42.58693987379296" lon="13.029546313227344"><ele>901.0</ele><time>2026-04-23T07:47:14.999Z</time></trkpt><trkpt lat="42.58686057228468" lon="13.029337042230555"><ele>899.0</ele><time>2026-04-23T07:47:15.999Z</time></trkpt><trkpt lat="42.586778838624575" lon="13.029121545068472"><ele>899.0</ele><time>2026-04-23T07:47:16.999Z</time></trkpt><trkpt lat="42.58669472463147" lon="13.02892171435031"><ele>899.0</ele><time>2026-04-23T07:47:17.999Z</time></trkpt><trkpt lat="42.58660276621548" lon="13.028713863086914"><ele>899.0</ele><time>2026-04-23T07:47:19Z</time></trkpt><trkpt lat="42.58650274036717" lon="13.028524674846805"><ele>899.0</ele><time>2026-04-23T07:47:20Z</time></trkpt><trkpt lat="42.58638738920595" lon="13.028340938728919"><ele>899.0</ele><time>2026-04-23T07:47:21Z</time></trkpt><trkpt lat="42.586279241955985" lon="13.028159932542966"><ele>899.0</ele><time>2026-04-23T07:47:22Z</time></trkpt><trkpt lat="42.58617008042461" lon="13.027971246118891"><ele>898.6666666666667</ele><time>2026-04-23T07:47:23Z</time></trkpt><trkpt lat="42.586062909580384" lon="13.027784681986912"><ele>898.3333333333333</ele><time>2026-04-23T07:47:24Z</time></trkpt><trkpt lat="42.58595032648174" lon="13.027588226384763"><ele>898.0</ele><time>2026-04-23T07:47:25Z</time></trkpt><trkpt lat="42.58583757068615" lon="13.027394930512402"><ele>898.0</ele><time>2026-04-23T07:47:26Z</time></trkpt><trkpt lat="42.58572244868241" lon="13.027203557054703"><ele>898.0</ele><time>2026-04-23T07:47:27Z</time></trkpt><trkpt lat="42.58561218101503" lon="13.027016118317942"><ele>898.0</ele><time>2026-04-23T07:47:28Z</time></trkpt><trkpt lat="42.58549637742726" lon="13.026818335634815"><ele>898.6666666666666</ele><time>2026-04-23T07:47:29Z</time></trkpt><trkpt lat="42.585379351613774" lon="13.026616433913414"><ele>899.3333333333333</ele><time>2026-04-23T07:47:30Z</time></trkpt><trkpt lat="42.58526624973236" lon="13.026418394353653"><ele>900.0</ele><time>2026-04-23T07:47:31Z</time></trkpt><trkpt lat="42.585146431840215" lon="13.02621553499353"><ele>898.6666666666667</ele><time>2026-04-23T07:47:32Z</time></trkpt><trkpt lat="42.585033883887895" lon="13.026014252894672"><ele>897.3333333333334</ele><time>2026-04-23T07:47:33Z</time></trkpt><trkpt lat="42.584915473637025" lon="13.025811271816048"><ele>896.0</ele><time>2026-04-23T07:47:34Z</time></trkpt><trkpt lat="42.584787468906725" lon="13.025607775531629"><ele>896.0</ele><time>2026-04-23T07:47:35Z</time></trkpt><trkpt lat="42.58465831047632" lon="13.025414917513574"><ele>896.0</ele><time>2026-04-23T07:47:36Z</time></trkpt><trkpt lat="42.584515250463504" lon="13.025232495906387"><ele>896.0</ele><time>2026-04-23T07:47:37Z</time></trkpt><trkpt lat="42.58436852102713" lon="13.025062221910684"><ele>895.6666666666667</ele><time>2026-04-23T07:47:38Z</time></trkpt><trkpt lat="42.584208518376975" lon="13.02490065510735"><ele>895.3333333333333</ele><time>2026-04-23T07:47:39Z</time></trkpt><trkpt lat="42.5840575762157" lon="13.024734520990664"><ele>895.0</ele><time>2026-04-23T07:47:40Z</time></trkpt><trkpt lat="42.58389956865859" lon="13.024573622791124"><ele>895.0</ele><time>2026-04-23T07:47:41Z</time></trkpt><trkpt lat="42.58374755567504" lon="13.024407885193227"><ele>895.0</ele><time>2026-04-23T07:47:42Z</time></trkpt><trkpt lat="42.58359398297242" lon="13.024241149040202"><ele>895.0</ele><time>2026-04-23T07:47:43Z</time></trkpt><trkpt lat="42.58343905255381" lon="13.024077789048462"><ele>897.6666666666666</ele><time>2026-04-23T07:47:44Z</time></trkpt><trkpt lat="42.58328927415622" lon="13.023913952299543"><ele>900.3333333333333</ele><time>2026-04-23T07:47:45Z</time></trkpt><trkpt lat="42.5831464379632" lon="13.02375453382547"><ele>903.0</ele><time>2026-04-23T07:47:46Z</time></trkpt><trkpt lat="42.58300020985182" lon="13.023601126813702"><ele>903.0</ele><time>2026-04-23T07:47:47Z</time></trkpt><trkpt lat="42.58286590380553" lon="13.023463266400574"><ele>903.0</ele><time>2026-04-23T07:47:48Z</time></trkpt><trkpt lat="42.58272736158067" lon="13.023347122363516"><ele>903.0</ele><time>2026-04-23T07:47:49Z</time></trkpt><trkpt lat="42.58258117720051" lon="13.023242690579037"><ele>904.3333333333333</ele><time>2026-04-23T07:47:50Z</time></trkpt><trkpt lat="42.58242975101276" lon="13.023159133265652"><ele>905.6666666666666</ele><time>2026-04-23T07:47:51Z</time></trkpt><trkpt lat="42.582269743909485" lon="13.02308851193285"><ele>907.0</ele><time>2026-04-23T07:47:52Z</time></trkpt><trkpt lat="42.58210210607852" lon="13.023018280988053"><ele>902.3333333333333</ele><time>2026-04-23T07:47:53Z</time></trkpt><trkpt lat="42.58193301665723" lon="13.02295691703998"><ele>897.6666666666667</ele><time>2026-04-23T07:47:54Z</time></trkpt><trkpt lat="42.58176052791093" lon="13.022897871854914"><ele>893.0</ele><time>2026-04-23T07:47:55Z</time></trkpt><trkpt lat="42.58158821150276" lon="13.022829698709412"><ele>893.0</ele><time>2026-04-23T07:47:56Z</time></trkpt><trkpt lat="42.58141502422381" lon="13.022747658844679"><ele>893.0</ele><time>2026-04-23T07:47:57Z</time></trkpt><trkpt lat="42.581265744445204" lon="13.022606609823328"><ele>893.0</ele><time>2026-04-23T07:47:58Z</time></trkpt><trkpt lat="42.581120869608746" lon="13.022467390942333"><ele>892.6666666666667</ele><time>2026-04-23T07:47:59Z</time></trkpt><trkpt lat="42.58098007015313" lon="13.02230948113994"><ele>892.3333333333333</ele><time>2026-04-23T07:48:00Z</time></trkpt><trkpt lat="42.58084005525246" lon="13.0221396504281"><ele>892.0</ele><time>2026-04-23T07:48:01Z</time></trkpt><trkpt lat="42.580699814008454" lon="13.021970432212198"><ele>892.0</ele><time>2026-04-23T07:48:02Z</time></trkpt><trkpt lat="42.5805553708234" lon="13.021798018655193"><ele>892.0</ele><time>2026-04-23T07:48:03Z</time></trkpt><trkpt lat="42.58039863694494" lon="13.021647915094547"><ele>892.0</ele><time>2026-04-23T07:48:04Z</time></trkpt><trkpt lat="42.580247794393316" lon="13.02148615219031"><ele>892.0</ele><time>2026-04-23T07:48:05Z</time></trkpt><trkpt lat="42.580085298926484" lon="13.021332689237221"><ele>892.0</ele><time>2026-04-23T07:48:06Z</time></trkpt><trkpt lat="42.579917772363714" lon="13.021193391602168"><ele>892.0</ele><time>2026-04-23T07:48:07Z</time></trkpt><trkpt lat="42.57974445483099" lon="13.021061314927092"><ele>892.0</ele><time>2026-04-23T07:48:08Z</time></trkpt><trkpt lat="42.57956656172812" lon="13.020931122251552"><ele>892.0</ele><time>2026-04-23T07:48:09Z</time></trkpt><trkpt lat="42.579399739477275" lon="13.020797266891629"><ele>892.0</ele><time>2026-04-23T07:48:10Z</time></trkpt><trkpt lat="42.57922969851401" lon="13.020667908996861"><ele>893.3333333333333</ele><time>2026-04-23T07:48:11Z</time></trkpt><trkpt lat="42.57905779592981" lon="13.020532278082856"><ele>894.6666666666667</ele><time>2026-04-23T07:48:12Z</time></trkpt><trkpt lat="42.578882562496084" lon="13.020400865717374"><ele>896.0</ele><time>2026-04-23T07:48:13Z</time></trkpt><trkpt lat="42.57872698981841" lon="13.020247106740245"><ele>895.6666666666667</ele><time>2026-04-23T07:48:14Z</time></trkpt><trkpt lat="42.57858141702483" lon="13.020104423806167"><ele>895.3333333333333</ele><time>2026-04-23T07:48:15Z</time></trkpt><trkpt lat="42.57845591157852" lon="13.019945551530775"><ele>895.0</ele><time>2026-04-23T07:48:16Z</time></trkpt><trkpt lat="42.57834742368155" lon="13.019765360073146"><ele>895.0</ele><time>2026-04-23T07:48:17Z</time></trkpt><trkpt lat="42.578239903059355" lon="13.019556298886528"><ele>895.0</ele><time>2026-04-23T07:48:18Z</time></trkpt><trkpt lat="42.57812423674464" lon="13.019351153268683"><ele>895.0</ele><time>2026-04-23T07:48:19Z</time></trkpt><trkpt lat="42.578017793459374" lon="13.019126348598508"><ele>893.0</ele><time>2026-04-23T07:48:20Z</time></trkpt><trkpt lat="42.57790916711818" lon="13.018893577481983"><ele>891.0</ele><time>2026-04-23T07:48:21Z</time></trkpt><trkpt lat="42.57779582361867" lon="13.018660211483061"><ele>889.0</ele><time>2026-04-23T07:48:21.999Z</time></trkpt><trkpt lat="42.57767361448695" lon="13.01842423388024"><ele>891.3333333333333</ele><time>2026-04-23T07:48:22.999Z</time></trkpt><trkpt lat="42.57754312436428" lon="13.018197653387173"><ele>893.6666666666667</ele><time>2026-04-23T07:48:23.999Z</time></trkpt><trkpt lat="42.57740228228893" lon="13.017972348971245"><ele>896.0</ele><time>2026-04-23T07:48:24.999Z</time></trkpt><trkpt lat="42.57725904267229" lon="13.017760018640322"><ele>896.0</ele><time>2026-04-23T07:48:25.999Z</time></trkpt><trkpt lat="42.577115172422715" lon="13.017546337942205"><ele>896.0</ele><time>2026-04-23T07:48:26.999Z</time></trkpt><trkpt lat="42.57697275522805" lon="13.01733210424072"><ele>896.0</ele><time>2026-04-23T07:48:27.999Z</time></trkpt><trkpt lat="42.57683495771987" lon="13.017113891155716"><ele>895.6666666666667</ele><time>2026-04-23T07:48:28.999Z</time></trkpt><trkpt lat="42.57669546545029" lon="13.016899847020943"><ele>895.3333333333333</ele><time>2026-04-23T07:48:29.999Z</time></trkpt><trkpt lat="42.57656449686488" lon="13.016689540516204"><ele>895.0</ele><time>2026-04-23T07:48:30.999Z</time></trkpt><trkpt lat="42.57644140658093" lon="13.016472933513517"><ele>892.6666666666666</ele><time>2026-04-23T07:48:31.999Z</time></trkpt><trkpt lat="42.57632924919925" lon="13.016250647246848"><ele>890.3333333333333</ele><time>2026-04-23T07:48:32.999Z</time></trkpt><trkpt lat="42.57622577032032" lon="13.01602468854589"><ele>888.0</ele><time>2026-04-23T07:48:33.999Z</time></trkpt><trkpt lat="42.57612746414395" lon="13.015795740607071"><ele>888.0</ele><time>2026-04-23T07:48:34.999Z</time></trkpt><trkpt lat="42.576054899440834" lon="13.01554633504188"><ele>888.0</ele><time>2026-04-23T07:48:35.999Z</time></trkpt><trkpt lat="42.57598207101448" lon="13.015300333049101"><ele>888.0</ele><time>2026-04-23T07:48:36.999Z</time></trkpt><trkpt lat="42.575926438448576" lon="13.01505111514516"><ele>889.0</ele><time>2026-04-23T07:48:37.999Z</time></trkpt><trkpt lat="42.575892230771096" lon="13.01478819274966"><ele>890.0</ele><time>2026-04-23T07:48:38.999Z</time></trkpt><trkpt lat="42.57586340165389" lon="13.014523009110068"><ele>891.0</ele><time>2026-04-23T07:48:39.999Z</time></trkpt><trkpt lat="42.57582214518997" lon="13.014254787311442"><ele>891.0</ele><time>2026-04-23T07:48:40.999Z</time></trkpt><trkpt lat="42.575795722586975" lon="13.013982391495087"><ele>891.0</ele><time>2026-04-23T07:48:41.999Z</time></trkpt><trkpt lat="42.57576999739265" lon="13.013704262652258"><ele>891.0</ele><time>2026-04-23T07:48:42.999Z</time></trkpt><trkpt lat="42.57574219857166" lon="13.01342294599515"><ele>892.3333333333333</ele><time>2026-04-23T07:48:43.999Z</time></trkpt><trkpt lat="42.575715060342056" lon="13.013140776473868"><ele>893.6666666666666</ele><time>2026-04-23T07:48:44.999Z</time></trkpt><trkpt lat="42.57568116439064" lon="13.01285588658922"><ele>895.0</ele><time>2026-04-23T07:48:45.999Z</time></trkpt><trkpt lat="42.57565166406721" lon="13.012571029632872"><ele>895.0</ele><time>2026-04-23T07:48:46.999Z</time></trkpt><trkpt lat="42.57562034098934" lon="13.012284463382477"><ele>895.0</ele><time>2026-04-23T07:48:47.999Z</time></trkpt><trkpt lat="42.575588100760385" lon="13.011995771166054"><ele>895.0</ele><time>2026-04-23T07:48:48.999Z</time></trkpt><trkpt lat="42.57555440337361" lon="13.011708124851364"><ele>895.3333333333333</ele><time>2026-04-23T07:48:49.999Z</time></trkpt><trkpt lat="42.575521741269945" lon="13.011414829138182"><ele>895.6666666666667</ele><time>2026-04-23T07:48:50.999Z</time></trkpt><trkpt lat="42.575488598468745" lon="13.011120451450232"><ele>896.0</ele><time>2026-04-23T07:48:51.999Z</time></trkpt><trkpt lat="42.57545678355429" lon="13.010826133951774"><ele>897.0</ele><time>2026-04-23T07:48:52.999Z</time></trkpt><trkpt lat="42.57542591573637" lon="13.010525714677943"><ele>898.0</ele><time>2026-04-23T07:48:53.999Z</time></trkpt><trkpt lat="42.57539075650652" lon="13.010236043868549"><ele>899.0</ele><time>2026-04-23T07:48:54.999Z</time></trkpt><trkpt lat="42.575355383941606" lon="13.00993799475584"><ele>893.0</ele><time>2026-04-23T07:48:55.999Z</time></trkpt><trkpt lat="42.575319129732115" lon="13.00964684848933"><ele>887.0</ele><time>2026-04-23T07:48:56.999Z</time></trkpt><trkpt lat="42.57528564818865" lon="13.00935193589924"><ele>881.0</ele><time>2026-04-23T07:48:57.999Z</time></trkpt><trkpt lat="42.57525340944987" lon="13.009053466930952"><ele>881.0</ele><time>2026-04-23T07:48:58.999Z</time></trkpt><trkpt lat="42.575224710406445" lon="13.00876281939027"><ele>881.0</ele><time>2026-04-23T07:48:59.999Z</time></trkpt><trkpt lat="42.57520825369804" lon="13.008472555444941"><ele>881.0</ele><time>2026-04-23T07:49:00.999Z</time></trkpt><trkpt lat="42.57520569634534" lon="13.008182554333526"><ele>880.6666666666667</ele><time>2026-04-23T07:49:01.999Z</time></trkpt><trkpt lat="42.575213957603694" lon="13.007894953329375"><ele>880.3333333333333</ele><time>2026-04-23T07:49:02.999Z</time></trkpt><trkpt lat="42.57522753585704" lon="13.00760788599179"><ele>880.0</ele><time>2026-04-23T07:49:03.999Z</time></trkpt><trkpt lat="42.575254118354785" lon="13.007322925720523"><ele>881.3333333333333</ele><time>2026-04-23T07:49:04.999Z</time></trkpt><trkpt lat="42.5753024358333" lon="13.0070465801334"><ele>882.6666666666667</ele><time>2026-04-23T07:49:05.999Z</time></trkpt><trkpt lat="42.57537007981883" lon="13.00677893301006"><ele>884.0</ele><time>2026-04-23T07:49:06.999Z</time></trkpt><trkpt lat="42.5754456089245" lon="13.00651052514741"><ele>884.0</ele><time>2026-04-23T07:49:07.999Z</time></trkpt><trkpt lat="42.575510681814116" lon="13.006246005064755"><ele>884.0</ele><time>2026-04-23T07:49:08.999Z</time></trkpt><trkpt lat="42.57557771444079" lon="13.00596852156368"><ele>884.0</ele><time>2026-04-23T07:49:09.999Z</time></trkpt><trkpt lat="42.575642772685214" lon="13.005693877080473"><ele>881.6666666666667</ele><time>2026-04-23T07:49:10.999Z</time></trkpt><trkpt lat="42.57570917538529" lon="13.005416936472109"><ele>879.3333333333333</ele><time>2026-04-23T07:49:11.999Z</time></trkpt><trkpt lat="42.575774791058116" lon="13.005137998696725"><ele>877.0</ele><time>2026-04-23T07:49:12.999Z</time></trkpt><trkpt lat="42.57584330254923" lon="13.004857530497178"><ele>876.0</ele><time>2026-04-23T07:49:13.999Z</time></trkpt><trkpt lat="42.575913223306046" lon="13.004577069935328"><ele>875.0</ele><time>2026-04-23T07:49:14.999Z</time></trkpt><trkpt lat="42.575980337375476" lon="13.004298824291041"><ele>874.0</ele><time>2026-04-23T07:49:15.999Z</time></trkpt><trkpt lat="42.57605023290348" lon="13.004015372456424"><ele>874.3333333333333</ele><time>2026-04-23T07:49:16.999Z</time></trkpt><trkpt lat="42.576112733451986" lon="13.003738685234541"><ele>874.6666666666667</ele><time>2026-04-23T07:49:17.999Z</time></trkpt><trkpt lat="42.5761809146104" lon="13.003468085860627"><ele>875.0</ele><time>2026-04-23T07:49:18.999Z</time></trkpt><trkpt lat="42.576236990984924" lon="13.00321133430514"><ele>875.0</ele><time>2026-04-23T07:49:19.999Z</time></trkpt><trkpt lat="42.57628304026299" lon="13.002962599043606"><ele>875.0</ele><time>2026-04-23T07:49:20.999Z</time></trkpt><trkpt lat="42.57631805643694" lon="13.002712453266058"><ele>875.0</ele><time>2026-04-23T07:49:21.999Z</time></trkpt><trkpt lat="42.57633853525015" lon="13.002454503133949"><ele>873.3333333333334</ele><time>2026-04-23T07:49:22.999Z</time></trkpt><trkpt lat="42.57634553003688" lon="13.002190968335997"><ele>871.6666666666667</ele><time>2026-04-23T07:49:23.999Z</time></trkpt><trkpt lat="42.57635281448335" lon="13.001923121189007"><ele>870.0</ele><time>2026-04-23T07:49:25Z</time></trkpt><trkpt lat="42.576360320397946" lon="13.001655743942234"><ele>868.0</ele><time>2026-04-23T07:49:26Z</time></trkpt><trkpt lat="42.57636770388344" lon="13.001386534362263"><ele>866.0</ele><time>2026-04-23T07:49:27Z</time></trkpt><trkpt lat="42.57637941359514" lon="13.001112358523674"><ele>864.0</ele><time>2026-04-23T07:49:28Z</time></trkpt><trkpt lat="42.576390285750335" lon="13.000839380031646"><ele>864.3333333333333</ele><time>2026-04-23T07:49:29Z</time></trkpt><trkpt lat="42.576404508769436" lon="13.000562667518434"><ele>864.6666666666666</ele><time>2026-04-23T07:49:30Z</time></trkpt><trkpt lat="42.57641618795612" lon="13.000294656598825"><ele>865.0</ele><time>2026-04-23T07:49:31Z</time></trkpt><trkpt lat="42.57642742670129" lon="13.0000419642153"><ele>865.0</ele><time>2026-04-23T07:49:32Z</time></trkpt><trkpt lat="42.57643908629778" lon="12.999797488074446"><ele>865.0</ele><time>2026-04-23T07:49:33Z</time></trkpt><trkpt lat="42.57644657313418" lon="12.999570773532152"><ele>865.0</ele><time>2026-04-23T07:49:34Z</time></trkpt><trkpt lat="42.576453781190146" lon="12.999350846832773"><ele>865.0</ele><time>2026-04-23T07:49:35Z</time></trkpt><trkpt lat="42.57644455731284" lon="12.999168406351174"><ele>865.0</ele><time>2026-04-23T07:49:36Z</time></trkpt><trkpt lat="42.57634614696961" lon="12.998923983778006"><ele>865.0</ele><time>2026-04-23T07:49:38Z</time></trkpt><trkpt lat="42.57625811895784" lon="12.998862320550108"><ele>865.0</ele><time>2026-04-23T07:49:39Z</time></trkpt><trkpt lat="42.576144037567914" lon="12.998834526180936"><ele>865.5</ele><time>2026-04-23T07:49:40Z</time></trkpt><trkpt lat="42.57600984860338" lon="12.998814745057814"><ele>866.0</ele><time>2026-04-23T07:49:41Z</time></trkpt><trkpt lat="42.57586117035176" lon="12.998785293777964"><ele>866.5</ele><time>2026-04-23T07:49:42Z</time></trkpt><trkpt lat="42.57570705929634" lon="12.998743378498384"><ele>867.0</ele><time>2026-04-23T07:49:43Z</time></trkpt><trkpt lat="42.57554267989361" lon="12.99869913782653"><ele>867.0</ele><time>2026-04-23T07:49:44Z</time></trkpt><trkpt lat="42.57536617827068" lon="12.998655045339893"><ele>867.0</ele><time>2026-04-23T07:49:45Z</time></trkpt><trkpt lat="42.575193890942444" lon="12.998615183806107"><ele>867.0</ele><time>2026-04-23T07:49:46Z</time></trkpt><trkpt lat="42.57503841142843" lon="12.998578600085112"><ele>867.25</ele><time>2026-04-23T07:49:47Z</time></trkpt><trkpt lat="42.574907817422044" lon="12.998532664151218"><ele>867.5</ele><time>2026-04-23T07:49:48Z</time></trkpt><trkpt lat="42.57477773054708" lon="12.998490843423603"><ele>867.75</ele><time>2026-04-23T07:49:49Z</time></trkpt><trkpt lat="42.57463289128924" lon="12.998460280778282"><ele>868.0</ele><time>2026-04-23T07:49:50Z</time></trkpt><trkpt lat="42.574476908390636" lon="12.99842507574588"><ele>868.0</ele><time>2026-04-23T07:49:51Z</time></trkpt><trkpt lat="42.5743191085642" lon="12.998376486870871"><ele>868.0</ele><time>2026-04-23T07:49:52Z</time></trkpt><trkpt lat="42.5741567556649" lon="12.998312780835757"><ele>868.0</ele><time>2026-04-23T07:49:53Z</time></trkpt><trkpt lat="42.573989557812276" lon="12.998242559619813"><ele>868.0</ele><time>2026-04-23T07:49:54Z</time></trkpt><trkpt lat="42.57381852498748" lon="12.998176129964753"><ele>868.0</ele><time>2026-04-23T07:49:55Z</time></trkpt><trkpt lat="42.57363923695022" lon="12.998098857650886"><ele>868.0</ele><time>2026-04-23T07:49:56Z</time></trkpt><trkpt lat="42.573458225568864" lon="12.998038418384803"><ele>868.3333333333333</ele><time>2026-04-23T07:49:57Z</time></trkpt><trkpt lat="42.57327613203993" lon="12.997984712520982"><ele>868.6666666666667</ele><time>2026-04-23T07:49:58Z</time></trkpt><trkpt lat="42.573093254074" lon="12.997923867514166"><ele>869.0</ele><time>2026-04-23T07:49:59Z</time></trkpt><trkpt lat="42.57290936652327" lon="12.997834412641673"><ele>869.6666666666667</ele><time>2026-04-23T07:50:00Z</time></trkpt><trkpt lat="42.57272727143604" lon="12.997749008832736"><ele>870.3333333333333</ele><time>2026-04-23T07:50:01Z</time></trkpt><trkpt lat="42.572541658447605" lon="12.997674945626263"><ele>871.0</ele><time>2026-04-23T07:50:02Z</time></trkpt><trkpt lat="42.572350267479926" lon="12.997602831956888"><ele>871.0</ele><time>2026-04-23T07:50:03Z</time></trkpt><trkpt lat="42.57216281226804" lon="12.99753170493769"><ele>871.0</ele><time>2026-04-23T07:50:04Z</time></trkpt><trkpt lat="42.571979060533856" lon="12.997471984781063"><ele>871.0</ele><time>2026-04-23T07:50:05Z</time></trkpt><trkpt lat="42.57178498524752" lon="12.997424507180096"><ele>872.3333333333333</ele><time>2026-04-23T07:50:06Z</time></trkpt><trkpt lat="42.57159293807148" lon="12.997396776673286"><ele>873.6666666666667</ele><time>2026-04-23T07:50:07Z</time></trkpt><trkpt lat="42.571399811264925" lon="12.997379344254751"><ele>875.0</ele><time>2026-04-23T07:50:08Z</time></trkpt><trkpt lat="42.57120493151056" lon="12.997366068239643"><ele>875.3333333333334</ele><time>2026-04-23T07:50:09Z</time></trkpt><trkpt lat="42.57101200641958" lon="12.997356203652332"><ele>875.6666666666667</ele><time>2026-04-23T07:50:10Z</time></trkpt><trkpt lat="42.570820036417224" lon="12.997339307868094"><ele>876.0</ele><time>2026-04-23T07:50:11Z</time></trkpt><trkpt lat="42.57062724852704" lon="12.997323203734199"><ele>876.0</ele><time>2026-04-23T07:50:12Z</time></trkpt><trkpt lat="42.57043700310548" lon="12.99731532548345"><ele>876.0</ele><time>2026-04-23T07:50:13Z</time></trkpt><trkpt lat="42.570244926331455" lon="12.997308719185265"><ele>876.0</ele><time>2026-04-23T07:50:14Z</time></trkpt><trkpt lat="42.570053528674535" lon="12.997321591374602"><ele>877.3333333333333</ele><time>2026-04-23T07:50:15Z</time></trkpt><trkpt lat="42.56986491507406" lon="12.997365746806768"><ele>878.6666666666666</ele><time>2026-04-23T07:50:16Z</time></trkpt><trkpt lat="42.56968161406162" lon="12.997433818773855"><ele>880.0</ele><time>2026-04-23T07:50:17Z</time></trkpt><trkpt lat="42.56949244886033" lon="12.997499355178775"><ele>878.3333333333333</ele><time>2026-04-23T07:50:18Z</time></trkpt><trkpt lat="42.56930334167709" lon="12.99756604347125"><ele>876.6666666666667</ele><time>2026-04-23T07:50:19Z</time></trkpt><trkpt lat="42.56910696292188" lon="12.997632403419452"><ele>875.0</ele><time>2026-04-23T07:50:20Z</time></trkpt><trkpt lat="42.56891921874258" lon="12.997703920689958"><ele>875.0</ele><time>2026-04-23T07:50:21Z</time></trkpt><trkpt lat="42.56872177185733" lon="12.997768679518398"><ele>875.0</ele><time>2026-04-23T07:50:22Z</time></trkpt><trkpt lat="42.568535143403075" lon="12.997840105649974"><ele>875.0</ele><time>2026-04-23T07:50:23Z</time></trkpt><trkpt lat="42.56815782063876" lon="12.997980524015064"><ele>876.0</ele><time>2026-04-23T07:50:25Z</time></trkpt><trkpt lat="42.56796777421173" lon="12.998046380019495"><ele>877.0</ele><time>2026-04-23T07:50:26Z</time></trkpt><trkpt lat="42.56777971604498" lon="12.998112456656436"><ele>878.0</ele><time>2026-04-23T07:50:27Z</time></trkpt><trkpt lat="42.567588819504046" lon="12.998179856493111"><ele>879.0</ele><time>2026-04-23T07:50:28Z</time></trkpt><trkpt lat="42.56739815170226" lon="12.998243292593932"><ele>880.0</ele><time>2026-04-23T07:50:29Z</time></trkpt><trkpt lat="42.56720847867599" lon="12.99831642594815"><ele>881.0</ele><time>2026-04-23T07:50:30Z</time></trkpt><trkpt lat="42.56702301211727" lon="12.998387581702511"><ele>881.0</ele><time>2026-04-23T07:50:31Z</time></trkpt><trkpt lat="42.56685326361385" lon="12.998448941452157"><ele>881.0</ele><time>2026-04-23T07:50:32Z</time></trkpt><trkpt lat="42.56669866983791" lon="12.998498642460458"><ele>881.0</ele><time>2026-04-23T07:50:33Z</time></trkpt><trkpt lat="42.56657310401605" lon="12.99853712662069"><ele>881.0</ele><time>2026-04-23T07:50:34Z</time></trkpt><trkpt lat="42.56646695606529" lon="12.998568400401393"><ele>880.9999999999999</ele><time>2026-04-23T07:50:35Z</time></trkpt><trkpt lat="42.56639017943213" lon="12.998584895728943"><ele>880.9999999999999</ele><time>2026-04-23T07:50:36Z</time></trkpt><trkpt lat="42.5662886013605" lon="12.998612458019107"><ele>881.0</ele><time>2026-04-23T07:50:38Z</time></trkpt><trkpt lat="42.56622750521433" lon="12.998633149509663"><ele>881.0</ele><time>2026-04-23T07:50:39.999Z</time></trkpt><trkpt lat="42.56615512205423" lon="12.998516855436133"><ele>881.8</ele><time>2026-04-23T07:50:40.999Z</time></trkpt><trkpt lat="42.56607991382375" lon="12.998467207490675"><ele>882.5999999999999</ele><time>2026-04-23T07:50:41.999Z</time></trkpt><trkpt lat="42.56598953684484" lon="12.998402172664887"><ele>883.4</ele><time>2026-04-23T07:50:42.999Z</time></trkpt><trkpt lat="42.565897183269065" lon="12.99834536897638"><ele>884.2</ele><time>2026-04-23T07:50:43.999Z</time></trkpt><trkpt lat="42.56578995019459" lon="12.998297459246452"><ele>885.0</ele><time>2026-04-23T07:50:44.999Z</time></trkpt><trkpt lat="42.56567288228329" lon="12.998250834852733"><ele>886.25</ele><time>2026-04-23T07:50:45.999Z</time></trkpt><trkpt lat="42.56554225380952" lon="12.998189549521262"><ele>887.5</ele><time>2026-04-23T07:50:46.999Z</time></trkpt><trkpt lat="42.56542006339549" lon="12.998088242731887"><ele>888.75</ele><time>2026-04-23T07:50:47.999Z</time></trkpt><trkpt lat="42.565322856648535" lon="12.997945827638944"><ele>890.0</ele><time>2026-04-23T07:50:48.999Z</time></trkpt><trkpt lat="42.565245342277244" lon="12.997772764463578"><ele>890.6666666666667</ele><time>2026-04-23T07:50:49.999Z</time></trkpt><trkpt lat="42.56520628601356" lon="12.997568431575225"><ele>891.3333333333333</ele><time>2026-04-23T07:50:50.999Z</time></trkpt><trkpt lat="42.56518335976114" lon="12.997358522992009"><ele>892.0</ele><time>2026-04-23T07:50:51.999Z</time></trkpt><trkpt lat="42.56517992903116" lon="12.997139690166724"><ele>892.0</ele><time>2026-04-23T07:50:52.999Z</time></trkpt><trkpt lat="42.56521389151337" lon="12.996933089268392"><ele>892.0</ele><time>2026-04-23T07:50:53.999Z</time></trkpt><trkpt lat="42.565292552809225" lon="12.996749105712986"><ele>892.0</ele><time>2026-04-23T07:50:54.999Z</time></trkpt><trkpt lat="42.565358461830954" lon="12.996549860155925"><ele>895.3333333333333</ele><time>2026-04-23T07:50:55.999Z</time></trkpt><trkpt lat="42.56544478317297" lon="12.996369306117778"><ele>898.6666666666667</ele><time>2026-04-23T07:50:56.999Z</time></trkpt><trkpt lat="42.56551313736439" lon="12.996179065501476"><ele>902.0</ele><time>2026-04-23T07:50:57.999Z</time></trkpt><trkpt lat="42.56555563747592" lon="12.995975318986265"><ele>901.3333333333334</ele><time>2026-04-23T07:50:58.999Z</time></trkpt><trkpt lat="42.565581574645066" lon="12.995772087035869"><ele>900.6666666666667</ele><time>2026-04-23T07:50:59.999Z</time></trkpt><trkpt lat="42.56559192055025" lon="12.995567800655586"><ele>900.0</ele><time>2026-04-23T07:51:00.999Z</time></trkpt><trkpt lat="42.56558463357578" lon="12.995363907453017"><ele>900.0</ele><time>2026-04-23T07:51:01.999Z</time></trkpt><trkpt lat="42.56555754242227" lon="12.995163010991128"><ele>900.0</ele><time>2026-04-23T07:51:02.999Z</time></trkpt><trkpt lat="42.565514747759224" lon="12.994968798780631"><ele>900.0</ele><time>2026-04-23T07:51:03.999Z</time></trkpt><trkpt lat="42.56546232160522" lon="12.994773982974706"><ele>900.0</ele><time>2026-04-23T07:51:04.999Z</time></trkpt><trkpt lat="42.56540467189845" lon="12.99458748351597"><ele>900.0</ele><time>2026-04-23T07:51:05.999Z</time></trkpt><trkpt lat="42.56530170132326" lon="12.994196067131039"><ele>900.6666666666667</ele><time>2026-04-23T07:51:07.999Z</time></trkpt><trkpt lat="42.56527710787555" lon="12.99398491429913"><ele>901.3333333333334</ele><time>2026-04-23T07:51:08.999Z</time></trkpt><trkpt lat="42.56527749703433" lon="12.993761704523227"><ele>902.0</ele><time>2026-04-23T07:51:09.999Z</time></trkpt><trkpt lat="42.56529029244633" lon="12.993534560996787"><ele>903.3333333333334</ele><time>2026-04-23T07:51:10.999Z</time></trkpt><trkpt lat="42.56531549975405" lon="12.993295256814413"><ele>904.6666666666667</ele><time>2026-04-23T07:51:11.999Z</time></trkpt><trkpt lat="42.56534568057967" lon="12.993049316259858"><ele>906.0</ele><time>2026-04-23T07:51:12.999Z</time></trkpt><trkpt lat="42.565376494580676" lon="12.992793905761694"><ele>907.6666666666667</ele><time>2026-04-23T07:51:13.999Z</time></trkpt><trkpt lat="42.56540550566908" lon="12.992531776199689"><ele>909.3333333333334</ele><time>2026-04-23T07:51:14.999Z</time></trkpt><trkpt lat="42.56544045332164" lon="12.992261393444933"><ele>911.0</ele><time>2026-04-23T07:51:15.999Z</time></trkpt><trkpt lat="42.565471133303205" lon="12.992003885146255"><ele>912.6666666666667</ele><time>2026-04-23T07:51:16.999Z</time></trkpt><trkpt lat="42.56550646281419" lon="12.991744340454478"><ele>914.3333333333333</ele><time>2026-04-23T07:51:17.999Z</time></trkpt><trkpt lat="42.565538613562346" lon="12.99148500593005"><ele>916.0</ele><time>2026-04-23T07:51:18.999Z</time></trkpt><trkpt lat="42.565566414501184" lon="12.991224176498557"><ele>916.0</ele><time>2026-04-23T07:51:19.999Z</time></trkpt><trkpt lat="42.56559389276655" lon="12.990964197129543"><ele>916.0</ele><time>2026-04-23T07:51:20.999Z</time></trkpt><trkpt lat="42.56562154342357" lon="12.990702482982838"><ele>916.0</ele><time>2026-04-23T07:51:21.999Z</time></trkpt><trkpt lat="42.5656508713489" lon="12.990438315942567"><ele>916.3333333333333</ele><time>2026-04-23T07:51:22.999Z</time></trkpt><trkpt lat="42.56567770888191" lon="12.990174446359212"><ele>916.6666666666667</ele><time>2026-04-23T07:51:23.999Z</time></trkpt><trkpt lat="42.56570066128383" lon="12.989904669277909"><ele>917.0</ele><time>2026-04-23T07:51:24.999Z</time></trkpt><trkpt lat="42.56571429194508" lon="12.989631223878137"><ele>918.6666666666667</ele><time>2026-04-23T07:51:25.999Z</time></trkpt><trkpt lat="42.56572207563802" lon="12.989358524266512"><ele>920.3333333333333</ele><time>2026-04-23T07:51:26.999Z</time></trkpt><trkpt lat="42.565724791467275" lon="12.989093115986476"><ele>922.0</ele><time>2026-04-23T07:51:27.999Z</time></trkpt><trkpt lat="42.56572970191161" lon="12.988828726899293"><ele>924.0</ele><time>2026-04-23T07:51:28.999Z</time></trkpt><trkpt lat="42.565733623765105" lon="12.988563471474215"><ele>926.0</ele><time>2026-04-23T07:51:29.999Z</time></trkpt><trkpt lat="42.565735003692836" lon="12.988310273351852"><ele>928.0</ele><time>2026-04-23T07:51:31Z</time></trkpt><trkpt lat="42.5657381827893" lon="12.988064561462918"><ele>928.6666666666666</ele><time>2026-04-23T07:51:32Z</time></trkpt><trkpt lat="42.56573851541709" lon="12.987845671613297"><ele>929.3333333333333</ele><time>2026-04-23T07:51:33Z</time></trkpt><trkpt lat="42.5657410053689" lon="12.987625250597775"><ele>930.0</ele><time>2026-04-23T07:51:34Z</time></trkpt><trkpt lat="42.56574280869834" lon="12.987417763002728"><ele>930.6666666666667</ele><time>2026-04-23T07:51:35Z</time></trkpt><trkpt lat="42.56574545143594" lon="12.987224243358414"><ele>931.3333333333334</ele><time>2026-04-23T07:51:36Z</time></trkpt><trkpt lat="42.56574535787056" lon="12.98702334385989"><ele>932.0</ele><time>2026-04-23T07:51:37Z</time></trkpt><trkpt lat="42.56574386199937" lon="12.986806754519067"><ele>932.6666666666667</ele><time>2026-04-23T07:51:38Z</time></trkpt><trkpt lat="42.565739135483234" lon="12.986582599345892"><ele>933.3333333333333</ele><time>2026-04-23T07:51:39Z</time></trkpt><trkpt lat="42.56572655919811" lon="12.986347860020489"><ele>934.0</ele><time>2026-04-23T07:51:40Z</time></trkpt><trkpt lat="42.56570237812534" lon="12.986105077142446"><ele>934.0</ele><time>2026-04-23T07:51:41Z</time></trkpt><trkpt lat="42.56566185586809" lon="12.985853870584338"><ele>934.0</ele><time>2026-04-23T07:51:42Z</time></trkpt><trkpt lat="42.56560362549174" lon="12.985600583178751"><ele>934.0</ele><time>2026-04-23T07:51:43Z</time></trkpt><trkpt lat="42.5655246592308" lon="12.985350570023286"><ele>934.0</ele><time>2026-04-23T07:51:44Z</time></trkpt><trkpt lat="42.565422781777414" lon="12.985108417569748"><ele>934.0</ele><time>2026-04-23T07:51:45Z</time></trkpt><trkpt lat="42.56530746886934" lon="12.984872316602932"><ele>934.0</ele><time>2026-04-23T07:51:46Z</time></trkpt><trkpt lat="42.56518952108899" lon="12.984632037450172"><ele>934.6666666666666</ele><time>2026-04-23T07:51:47Z</time></trkpt><trkpt lat="42.56507214067266" lon="12.984392563381684"><ele>935.3333333333333</ele><time>2026-04-23T07:51:48Z</time></trkpt><trkpt lat="42.56495546388017" lon="12.984155953881416"><ele>936.0</ele><time>2026-04-23T07:51:49Z</time></trkpt><trkpt lat="42.56484778663344" lon="12.98393348703772"><ele>935.6666666666667</ele><time>2026-04-23T07:51:50Z</time></trkpt><trkpt lat="42.56474372605306" lon="12.983704509898947"><ele>935.3333333333334</ele><time>2026-04-23T07:51:51Z</time></trkpt><trkpt lat="42.56464992409584" lon="12.98347215031935"><ele>935.0</ele><time>2026-04-23T07:51:52Z</time></trkpt><trkpt lat="42.5645673365053" lon="12.983251189047758"><ele>936.3333333333334</ele><time>2026-04-23T07:51:53Z</time></trkpt><trkpt lat="42.56449502292989" lon="12.983029188598477"><ele>937.6666666666667</ele><time>2026-04-23T07:51:54Z</time></trkpt><trkpt lat="42.56443508663317" lon="12.982802230711536"><ele>939.0</ele><time>2026-04-23T07:51:55Z</time></trkpt><trkpt lat="42.56436239093168" lon="12.982326927430062"><ele>939.0</ele><time>2026-04-23T07:51:57Z</time></trkpt><trkpt lat="42.56434627442698" lon="12.982084324755624"><ele>939.0</ele><time>2026-04-23T07:51:58Z</time></trkpt><trkpt lat="42.564345028698945" lon="12.981833278120853"><ele>939.0</ele><time>2026-04-23T07:51:59Z</time></trkpt><trkpt lat="42.56436875045215" lon="12.981578438068972"><ele>939.0</ele><time>2026-04-23T07:52:00Z</time></trkpt><trkpt lat="42.564404608275694" lon="12.981325883488669"><ele>939.0</ele><time>2026-04-23T07:52:01Z</time></trkpt><trkpt lat="42.56445294928128" lon="12.981077615619249"><ele>939.0</ele><time>2026-04-23T07:52:02Z</time></trkpt><trkpt lat="42.564511446315684" lon="12.980833969747348"><ele>940.3333333333333</ele><time>2026-04-23T07:52:03Z</time></trkpt><trkpt lat="42.56458517644521" lon="12.980593888480557"><ele>941.6666666666666</ele><time>2026-04-23T07:52:04Z</time></trkpt><trkpt lat="42.56467433150347" lon="12.980356633756998"><ele>943.0</ele><time>2026-04-23T07:52:05Z</time></trkpt><trkpt lat="42.56476940726613" lon="12.980127628022759"><ele>943.0</ele><time>2026-04-23T07:52:06Z</time></trkpt><trkpt lat="42.564866133027465" lon="12.979894499572664"><ele>943.0</ele><time>2026-04-23T07:52:07Z</time></trkpt><trkpt lat="42.56496348155347" lon="12.979659797643079"><ele>943.0</ele><time>2026-04-23T07:52:08Z</time></trkpt><trkpt lat="42.565063100700776" lon="12.979423219718722"><ele>943.0</ele><time>2026-04-23T07:52:09Z</time></trkpt><trkpt lat="42.56516070261835" lon="12.979185891031268"><ele>943.0</ele><time>2026-04-23T07:52:10Z</time></trkpt><trkpt lat="42.56525741005854" lon="12.978947756131985"><ele>943.0</ele><time>2026-04-23T07:52:11Z</time></trkpt><trkpt lat="42.56535582774564" lon="12.978709485606343"><ele>944.3333333333333</ele><time>2026-04-23T07:52:12Z</time></trkpt><trkpt lat="42.565454679182494" lon="12.978472879908745"><ele>945.6666666666667</ele><time>2026-04-23T07:52:13Z</time></trkpt><trkpt lat="42.56555588659974" lon="12.978233508378038"><ele>947.0</ele><time>2026-04-23T07:52:14Z</time></trkpt><trkpt lat="42.56565455334806" lon="12.977995484355862"><ele>947.0</ele><time>2026-04-23T07:52:15Z</time></trkpt><trkpt lat="42.565754110200785" lon="12.977754799605425"><ele>947.0</ele><time>2026-04-23T07:52:16Z</time></trkpt><trkpt lat="42.56585441136755" lon="12.977515986984994"><ele>947.0</ele><time>2026-04-23T07:52:17Z</time></trkpt><trkpt lat="42.56595645261784" lon="12.977275697867217"><ele>947.0</ele><time>2026-04-23T07:52:18Z</time></trkpt><trkpt lat="42.56606199509079" lon="12.977030644911533"><ele>947.0</ele><time>2026-04-23T07:52:19Z</time></trkpt><trkpt lat="42.56616542311302" lon="12.976787594362186"><ele>947.0</ele><time>2026-04-23T07:52:20Z</time></trkpt><trkpt lat="42.5662678064192" lon="12.976543166917521"><ele>947.0</ele><time>2026-04-23T07:52:21Z</time></trkpt><trkpt lat="42.566372041634835" lon="12.976294962153158"><ele>947.0</ele><time>2026-04-23T07:52:22Z</time></trkpt><trkpt lat="42.566477124561935" lon="12.97604368801352"><ele>947.0</ele><time>2026-04-23T07:52:23Z</time></trkpt><trkpt lat="42.566580568820264" lon="12.975792776535751"><ele>947.3333333333334</ele><time>2026-04-23T07:52:24Z</time></trkpt><trkpt lat="42.56668446421234" lon="12.975538762450325"><ele>947.6666666666667</ele><time>2026-04-23T07:52:25Z</time></trkpt><trkpt lat="42.56678745922506" lon="12.975283654785011"><ele>948.0</ele><time>2026-04-23T07:52:26Z</time></trkpt><trkpt lat="42.566890530763395" lon="12.975030700996768"><ele>948.6666666666667</ele><time>2026-04-23T07:52:27Z</time></trkpt><trkpt lat="42.56699523387683" lon="12.974777838474028"><ele>949.3333333333334</ele><time>2026-04-23T07:52:28Z</time></trkpt><trkpt lat="42.56710032967041" lon="12.974526000627655"><ele>950.0</ele><time>2026-04-23T07:52:29Z</time></trkpt><trkpt lat="42.56720601464835" lon="12.97427584383907"><ele>951.0</ele><time>2026-04-23T07:52:30Z</time></trkpt><trkpt lat="42.56731200187754" lon="12.974026987063128"><ele>952.0</ele><time>2026-04-23T07:52:31Z</time></trkpt><trkpt lat="42.567418317044684" lon="12.97377634700515"><ele>953.0</ele><time>2026-04-23T07:52:32Z</time></trkpt><trkpt lat="42.56752752728585" lon="12.973522614171243"><ele>953.0</ele><time>2026-04-23T07:52:33Z</time></trkpt><trkpt lat="42.56763603998424" lon="12.97327035934307"><ele>953.0</ele><time>2026-04-23T07:52:34Z</time></trkpt><trkpt lat="42.56774444214282" lon="12.97301275763634"><ele>953.0</ele><time>2026-04-23T07:52:35Z</time></trkpt><trkpt lat="42.567847482334486" lon="12.972756698430624"><ele>952.0</ele><time>2026-04-23T07:52:36Z</time></trkpt><trkpt lat="42.56795351705629" lon="12.972497373055974"><ele>951.0</ele><time>2026-04-23T07:52:37Z</time></trkpt><trkpt lat="42.56805783175431" lon="12.972244988283705"><ele>950.0</ele><time>2026-04-23T07:52:38Z</time></trkpt><trkpt lat="42.56816324689598" lon="12.971988085927668"><ele>950.0</ele><time>2026-04-23T07:52:39Z</time></trkpt><trkpt lat="42.5682675694095" lon="12.971733135465577"><ele>950.0</ele><time>2026-04-23T07:52:40Z</time></trkpt><trkpt lat="42.56837220008093" lon="12.971479507391923"><ele>950.0</ele><time>2026-04-23T07:52:41Z</time></trkpt><trkpt lat="42.568474719258916" lon="12.971229399522974"><ele>949.6666666666667</ele><time>2026-04-23T07:52:42Z</time></trkpt><trkpt lat="42.56857740387137" lon="12.970980360720656"><ele>949.3333333333333</ele><time>2026-04-23T07:52:43Z</time></trkpt><trkpt lat="42.568680772217846" lon="12.970726614564727"><ele>949.0</ele><time>2026-04-23T07:52:44Z</time></trkpt><trkpt lat="42.56878209294552" lon="12.970476063812226"><ele>941.3333333333333</ele><time>2026-04-23T07:52:45Z</time></trkpt><trkpt lat="42.568888176836964" lon="12.970226249173978"><ele>933.6666666666667</ele><time>2026-04-23T07:52:46Z</time></trkpt><trkpt lat="42.568996829925105" lon="12.9699711273831"><ele>926.0</ele><time>2026-04-23T07:52:47Z</time></trkpt><trkpt lat="42.56910296718085" lon="12.969715248278568"><ele>923.3333333333334</ele><time>2026-04-23T07:52:48Z</time></trkpt><trkpt lat="42.56921047139041" lon="12.969458004352331"><ele>920.6666666666667</ele><time>2026-04-23T07:52:49Z</time></trkpt><trkpt lat="42.569319272709954" lon="12.969200881158342"><ele>918.0</ele><time>2026-04-23T07:52:50Z</time></trkpt><trkpt lat="42.56942584300018" lon="12.968942522020358"><ele>914.6666666666667</ele><time>2026-04-23T07:52:51Z</time></trkpt><trkpt lat="42.56953584332629" lon="12.968681769519861"><ele>911.3333333333334</ele><time>2026-04-23T07:52:52Z</time></trkpt><trkpt lat="42.56964279363625" lon="12.968424444601242"><ele>908.0</ele><time>2026-04-23T07:52:52.999Z</time></trkpt><trkpt lat="42.56975375328906" lon="12.968160261897477"><ele>908.0</ele><time>2026-04-23T07:52:53.999Z</time></trkpt><trkpt lat="42.5698640576929" lon="12.967896739371607"><ele>908.0</ele><time>2026-04-23T07:52:54.999Z</time></trkpt><trkpt lat="42.569969816197535" lon="12.967637498487614"><ele>908.0</ele><time>2026-04-23T07:52:55.999Z</time></trkpt><trkpt lat="42.570078582817665" lon="12.967372814645483"><ele>912.0</ele><time>2026-04-23T07:52:56.999Z</time></trkpt><trkpt lat="42.5701891853257" lon="12.96710980955687"><ele>916.0</ele><time>2026-04-23T07:52:57.999Z</time></trkpt><trkpt lat="42.570296218756496" lon="12.966851495004034"><ele>920.0</ele><time>2026-04-23T07:52:58.999Z</time></trkpt><trkpt lat="42.5704049611777" lon="12.966596003904789"><ele>927.3333333333334</ele><time>2026-04-23T07:52:59.999Z</time></trkpt><trkpt lat="42.57051225555209" lon="12.966337432571512"><ele>934.6666666666667</ele><time>2026-04-23T07:53:00.999Z</time></trkpt><trkpt lat="42.570619247282536" lon="12.966072877427841"><ele>942.0</ele><time>2026-04-23T07:53:01.999Z</time></trkpt><trkpt lat="42.57071575643082" lon="12.965825792256785"><ele>946.0</ele><time>2026-04-23T07:53:02.999Z</time></trkpt><trkpt lat="42.57081608426698" lon="12.96556585266759"><ele>950.0</ele><time>2026-04-23T07:53:03.999Z</time></trkpt><trkpt lat="42.57099788864812" lon="12.96504736071329"><ele>949.6666666666667</ele><time>2026-04-23T07:53:05.999Z</time></trkpt><trkpt lat="42.57107565386578" lon="12.964789962478527"><ele>949.3333333333333</ele><time>2026-04-23T07:53:06.999Z</time></trkpt><trkpt lat="42.57114920571781" lon="12.964534974440616"><ele>949.0</ele><time>2026-04-23T07:53:07.999Z</time></trkpt><trkpt lat="42.57121531850393" lon="12.964283624572525"><ele>949.0</ele><time>2026-04-23T07:53:08.999Z</time></trkpt><trkpt lat="42.57127341399113" lon="12.964033989198509"><ele>949.0</ele><time>2026-04-23T07:53:09.999Z</time></trkpt><trkpt lat="42.571325273766796" lon="12.963789800753203"><ele>949.0</ele><time>2026-04-23T07:53:10.999Z</time></trkpt><trkpt lat="42.571377506423474" lon="12.96354930552561"><ele>949.0</ele><time>2026-04-23T07:53:11.999Z</time></trkpt><trkpt lat="42.57141908556557" lon="12.963329699301786"><ele>949.0</ele><time>2026-04-23T07:53:12.999Z</time></trkpt><trkpt lat="42.57145625927757" lon="12.963118868465635"><ele>949.0</ele><time>2026-04-23T07:53:13.999Z</time></trkpt><trkpt lat="42.57148718995365" lon="12.962922953996022"><ele>949.0</ele><time>2026-04-23T07:53:14.999Z</time></trkpt><trkpt lat="42.57151668469128" lon="12.96274056777884"><ele>949.0</ele><time>2026-04-23T07:53:15.999Z</time></trkpt><trkpt lat="42.57154459039951" lon="12.962568912805846"><ele>949.0</ele><time>2026-04-23T07:53:16.999Z</time></trkpt><trkpt lat="42.57157355156834" lon="12.962411510424552"><ele>949.0</ele><time>2026-04-23T07:53:17.999Z</time></trkpt><trkpt lat="42.57160304263109" lon="12.96227038714238"><ele>949.1666666666666</ele><time>2026-04-23T07:53:18.999Z</time></trkpt><trkpt lat="42.57164110060777" lon="12.962141669303296"><ele>949.3333333333333</ele><time>2026-04-23T07:53:19.999Z</time></trkpt><trkpt lat="42.571698675161144" lon="12.962034630129061"><ele>949.5</ele><time>2026-04-23T07:53:20.999Z</time></trkpt><trkpt lat="42.571770687197485" lon="12.961958768256638"><ele>949.6666666666667</ele><time>2026-04-23T07:53:21.999Z</time></trkpt><trkpt lat="42.571835371855904" lon="12.961884468002905"><ele>949.8333333333334</ele><time>2026-04-23T07:53:22.999Z</time></trkpt><trkpt lat="42.571871445420456" lon="12.961802525188665"><ele>950.0</ele><time>2026-04-23T07:53:23.999Z</time></trkpt><trkpt lat="42.57188712849575" lon="12.961709148670831"><ele>950.1666666666667</ele><time>2026-04-23T07:53:24.999Z</time></trkpt><trkpt lat="42.571873876592534" lon="12.961605089869249"><ele>950.3333333333334</ele><time>2026-04-23T07:53:25.999Z</time></trkpt><trkpt lat="42.57183878730937" lon="12.961507783488942"><ele>950.5</ele><time>2026-04-23T07:53:26.999Z</time></trkpt><trkpt lat="42.57178189670895" lon="12.961443653062585"><ele>950.6666666666667</ele><time>2026-04-23T07:53:27.999Z</time></trkpt><trkpt lat="42.571712849020855" lon="12.961406504950615"><ele>950.8333333333334</ele><time>2026-04-23T07:53:28.999Z</time></trkpt><trkpt lat="42.571628167746795" lon="12.96140841930137"><ele>951.0</ele><time>2026-04-23T07:53:29.999Z</time></trkpt><trkpt lat="42.57154402471823" lon="12.961444240949822"><ele>951.0</ele><time>2026-04-23T07:53:30.999Z</time></trkpt><trkpt lat="42.571467870069995" lon="12.961514847067109"><ele>951.0</ele><time>2026-04-23T07:53:31.999Z</time></trkpt><trkpt lat="42.57139900055823" lon="12.961608505028034"><ele>951.0</ele><time>2026-04-23T07:53:32.999Z</time></trkpt><trkpt lat="42.57133093032057" lon="12.961683938751941"><ele>951.0</ele><time>2026-04-23T07:53:33.999Z</time></trkpt><trkpt lat="42.57126024915933" lon="12.961737188381704"><ele>951.0</ele><time>2026-04-23T07:53:34.999Z</time></trkpt><trkpt lat="42.571186586298886" lon="12.961773299996363"><ele>951.0</ele><time>2026-04-23T07:53:35.999Z</time></trkpt><trkpt lat="42.571111103771635" lon="12.961801557812109"><ele>950.8333333333334</ele><time>2026-04-23T07:53:37Z</time></trkpt><trkpt lat="42.571036742475584" lon="12.961828058615124"><ele>950.6666666666667</ele><time>2026-04-23T07:53:38Z</time></trkpt><trkpt lat="42.57097149519804" lon="12.961856237705879"><ele>950.5</ele><time>2026-04-23T07:53:39Z</time></trkpt><trkpt lat="42.570907933582234" lon="12.961884901384336"><ele>950.3333333333334</ele><time>2026-04-23T07:53:40Z</time></trkpt><trkpt lat="42.57084551902233" lon="12.961914533909491"><ele>950.1666666666667</ele><time>2026-04-23T07:53:41Z</time></trkpt><trkpt lat="42.57071239693324" lon="12.961890238534933"><ele>950.0</ele><time>2026-04-23T07:53:42Z</time></trkpt><trkpt lat="42.57061984431264" lon="12.961905474145846"><ele>950.0000000000001</ele><time>2026-04-23T07:53:43Z</time></trkpt><trkpt lat="42.57052912166946" lon="12.961917726780483"><ele>950.0</ele><time>2026-04-23T07:53:44Z</time></trkpt><trkpt lat="42.570438861779635" lon="12.96193070743172"><ele>950.0</ele><time>2026-04-23T07:53:45Z</time></trkpt><trkpt lat="42.57034920694946" lon="12.961942785734086"><ele>950.0</ele><time>2026-04-23T07:53:46Z</time></trkpt><trkpt lat="42.57026183713598" lon="12.96194986323259"><ele>950.0000000000001</ele><time>2026-04-23T07:53:47Z</time></trkpt><trkpt lat="42.57017617567784" lon="12.961959614009544"><ele>950.0</ele><time>2026-04-23T07:53:48Z</time></trkpt><trkpt lat="42.57009780585469" lon="12.961969001676687"><ele>950.6666666666667</ele><time>2026-04-23T07:53:49Z</time></trkpt><trkpt lat="42.57001579777597" lon="12.961980230885557"><ele>951.3333333333334</ele><time>2026-04-23T07:53:50Z</time></trkpt><trkpt lat="42.56993679084049" lon="12.961988300121915"><ele>952.0</ele><time>2026-04-23T07:53:51Z</time></trkpt><trkpt lat="42.56985772299112" lon="12.961995089614982"><ele>952.6666666666667</ele><time>2026-04-23T07:53:52Z</time></trkpt><trkpt lat="42.569778154180405" lon="12.962002632223102"><ele>953.3333333333334</ele><time>2026-04-23T07:53:53Z</time></trkpt><trkpt lat="42.56970718653288" lon="12.962012175912978"><ele>954.0</ele><time>2026-04-23T07:53:54Z</time></trkpt><trkpt lat="42.56963121919558" lon="12.96201833552485"><ele>954.0</ele><time>2026-04-23T07:53:55Z</time></trkpt><trkpt lat="42.56955340601954" lon="12.962032161473468"><ele>954.0</ele><time>2026-04-23T07:53:56Z</time></trkpt><trkpt lat="42.569473240386614" lon="12.962047554703044"><ele>954.0</ele><time>2026-04-23T07:53:57Z</time></trkpt><trkpt lat="42.569393569155686" lon="12.962062623930347"><ele>954.0</ele><time>2026-04-23T07:53:58Z</time></trkpt><trkpt lat="42.56931050075827" lon="12.962074893905994"><ele>954.0</ele><time>2026-04-23T07:53:59Z</time></trkpt><trkpt lat="42.569220945978245" lon="12.962085631275059"><ele>954.0</ele><time>2026-04-23T07:54:00Z</time></trkpt><trkpt lat="42.56913009829575" lon="12.962095703962637"><ele>954.4000000000001</ele><time>2026-04-23T07:54:01Z</time></trkpt><trkpt lat="42.56903737449565" lon="12.962107339977724"><ele>954.8000000000001</ele><time>2026-04-23T07:54:02Z</time></trkpt><trkpt lat="42.56894800602027" lon="12.962120202536743"><ele>955.1999999999999</ele><time>2026-04-23T07:54:03Z</time></trkpt><trkpt lat="42.5688484546999" lon="12.962131851533652"><ele>955.5999999999999</ele><time>2026-04-23T07:54:04Z</time></trkpt><trkpt lat="42.568748543861524" lon="12.962144795856569"><ele>956.0</ele><time>2026-04-23T07:54:05Z</time></trkpt><trkpt lat="42.568649917422334" lon="12.96215742100457"><ele>956.4</ele><time>2026-04-23T07:54:06Z</time></trkpt><trkpt lat="42.56855494880256" lon="12.962171542902123"><ele>956.8</ele><time>2026-04-23T07:54:07Z</time></trkpt><trkpt lat="42.5684613694678" lon="12.96218542607341"><ele>957.1999999999999</ele><time>2026-04-23T07:54:08Z</time></trkpt><trkpt lat="42.56836953779801" lon="12.962199420825948"><ele>957.5999999999999</ele><time>2026-04-23T07:54:09Z</time></trkpt><trkpt lat="42.56828248296961" lon="12.962217166799155"><ele>958.0</ele><time>2026-04-23T07:54:10Z</time></trkpt><trkpt lat="42.568194418347495" lon="12.962235796196678"><ele>957.9999999999999</ele><time>2026-04-23T07:54:11Z</time></trkpt><trkpt lat="42.56810829216695" lon="12.962249485821147"><ele>958.0</ele><time>2026-04-23T07:54:12Z</time></trkpt><trkpt lat="42.568027972344595" lon="12.962257554016675"><ele>958.0</ele><time>2026-04-23T07:54:13Z</time></trkpt><trkpt lat="42.56795456979456" lon="12.962266165817473"><ele>958.0</ele><time>2026-04-23T07:54:14Z</time></trkpt><trkpt lat="42.56784538877468" lon="12.962282813709267"><ele>957.9999999999999</ele><time>2026-04-23T07:54:16Z</time></trkpt><trkpt lat="42.567760931173595" lon="12.962295349768917"><ele>958.0</ele><time>2026-04-23T07:54:18Z</time></trkpt><trkpt lat="42.5676661701886" lon="12.962310069301381"><ele>958.4</ele><time>2026-04-23T07:54:20Z</time></trkpt><trkpt lat="42.56754300797173" lon="12.962329069959758"><ele>958.8</ele><time>2026-04-23T07:54:22Z</time></trkpt><trkpt lat="42.5674645040102" lon="12.962342954860059"><ele>959.2</ele><time>2026-04-23T07:54:23Z</time></trkpt><trkpt lat="42.56738232870324" lon="12.96235365933805"><ele>959.6</ele><time>2026-04-23T07:54:24Z</time></trkpt><trkpt lat="42.567301335510074" lon="12.962363078079912"><ele>960.0</ele><time>2026-04-23T07:54:25Z</time></trkpt><trkpt lat="42.56721396133796" lon="12.962375409404148"><ele>960.0</ele><time>2026-04-23T07:54:26Z</time></trkpt><trkpt lat="42.56712107300412" lon="12.962388837779498"><ele>960.0</ele><time>2026-04-23T07:54:27Z</time></trkpt><trkpt lat="42.567026213808425" lon="12.96240412800487"><ele>960.0</ele><time>2026-04-23T07:54:28Z</time></trkpt><trkpt lat="42.566929093402074" lon="12.962418778747166"><ele>960.0</ele><time>2026-04-23T07:54:29Z</time></trkpt><trkpt lat="42.56682905408348" lon="12.962431868034596"><ele>960.0</ele><time>2026-04-23T07:54:30Z</time></trkpt><trkpt lat="42.566731548558764" lon="12.962446835093871"><ele>960.3333333333334</ele><time>2026-04-23T07:54:31Z</time></trkpt><trkpt lat="42.56662953810053" lon="12.962462785486698"><ele>960.6666666666667</ele><time>2026-04-23T07:54:32Z</time></trkpt><trkpt lat="42.56653244771307" lon="12.962478515681612"><ele>961.0</ele><time>2026-04-23T07:54:33Z</time></trkpt><trkpt lat="42.56644803232664" lon="12.962490252651794"><ele>961.3333333333334</ele><time>2026-04-23T07:54:34Z</time></trkpt><trkpt lat="42.566374787187875" lon="12.962497619257652"><ele>961.6666666666667</ele><time>2026-04-23T07:54:35Z</time></trkpt><trkpt lat="42.56631122570425" lon="12.962498876924705"><ele>962.0</ele><time>2026-04-23T07:54:36Z</time></trkpt><trkpt lat="42.566215428061675" lon="12.962432646655076"><ele>962.4000000000001</ele><time>2026-04-23T07:54:38Z</time></trkpt><trkpt lat="42.56614404702808" lon="12.96232033020409"><ele>962.8000000000001</ele><time>2026-04-23T07:54:40Z</time></trkpt><trkpt lat="42.566103976706415" lon="12.962223732504471"><ele>963.2</ele><time>2026-04-23T07:54:42Z</time></trkpt><trkpt lat="42.5659959434392" lon="12.962367988970705"><ele>963.6</ele><time>2026-04-23T07:59:14Z</time></trkpt><trkpt lat="42.565965003159256" lon="12.962465588257823"><ele>964.0</ele><time>2026-04-23T07:59:16Z</time></trkpt><trkpt lat="42.56583566866109" lon="12.962489895567947"><ele>964.0</ele><time>2026-04-23T07:59:18Z</time></trkpt><trkpt lat="42.565743917442916" lon="12.962523308369299"><ele>964.0000000000001</ele><time>2026-04-23T07:59:20Z</time></trkpt><trkpt lat="42.56566979312897" lon="12.962539472726707"><ele>964.0000000000001</ele><time>2026-04-23T07:59:22Z</time></trkpt><trkpt lat="42.56560633681319" lon="12.96255024570625"><ele>964.0</ele><time>2026-04-23T07:59:24Z</time></trkpt><trkpt lat="42.5654826142771" lon="12.96262459880793"><ele>964.0</ele><time>2026-04-23T07:59:26Z</time></trkpt><trkpt lat="42.565404553957364" lon="12.962655202218619"><ele>965.1666666666666</ele><time>2026-04-23T07:59:27Z</time></trkpt><trkpt lat="42.56532243954521" lon="12.962683023424393"><ele>966.3333333333333</ele><time>2026-04-23T07:59:28Z</time></trkpt><trkpt lat="42.56524911323944" lon="12.962705489367453"><ele>967.5</ele><time>2026-04-23T07:59:29Z</time></trkpt><trkpt lat="42.56518581883859" lon="12.962733896729034"><ele>968.6666666666667</ele><time>2026-04-23T07:59:30Z</time></trkpt><trkpt lat="42.56511816042993" lon="12.962768412096004"><ele>969.8333333333334</ele><time>2026-04-23T07:59:31Z</time></trkpt><trkpt lat="42.565038952059" lon="12.962780291577385"><ele>971.0</ele><time>2026-04-23T07:59:32Z</time></trkpt><trkpt lat="42.56496489556008" lon="12.962776711035879"><ele>971.0</ele><time>2026-04-23T07:59:33Z</time></trkpt><trkpt lat="42.56489026435756" lon="12.96277663089431"><ele>971.0000000000001</ele><time>2026-04-23T07:59:34Z</time></trkpt><trkpt lat="42.564817455108305" lon="12.962787001337299"><ele>971.0</ele><time>2026-04-23T07:59:35Z</time></trkpt><trkpt lat="42.56474321195133" lon="12.962794147829902"><ele>971.0</ele><time>2026-04-23T07:59:36Z</time></trkpt><trkpt lat="42.56467339987504" lon="12.962807938703241"><ele>971.0000000000001</ele><time>2026-04-23T07:59:37Z</time></trkpt><trkpt lat="42.56460464253037" lon="12.962818921232971"><ele>971.0</ele><time>2026-04-23T07:59:38Z</time></trkpt><trkpt lat="42.564535809112" lon="12.962832371021523"><ele>971.0</ele><time>2026-04-23T07:59:39Z</time></trkpt><trkpt lat="42.56446787752976" lon="12.962850552087142"><ele>971.2857142857143</ele><time>2026-04-23T07:59:40Z</time></trkpt><trkpt lat="42.56439913874839" lon="12.962878147039028"><ele>971.5714285714287</ele><time>2026-04-23T07:59:41Z</time></trkpt><trkpt lat="42.56433493451521" lon="12.96289941089313"><ele>971.8571428571429</ele><time>2026-04-23T07:59:42Z</time></trkpt><trkpt lat="42.564272083709504" lon="12.962920463066586"><ele>972.1428571428571</ele><time>2026-04-23T07:59:43Z</time></trkpt><trkpt lat="42.564207036754304" lon="12.962939995358036"><ele>972.4285714285714</ele><time>2026-04-23T07:59:44Z</time></trkpt><trkpt lat="42.56414028931958" lon="12.962959402252471"><ele>972.7142857142858</ele><time>2026-04-23T07:59:45Z</time></trkpt><trkpt lat="42.56407349867217" lon="12.962983255242548"><ele>973.0</ele><time>2026-04-23T07:59:46Z</time></trkpt><trkpt lat="42.564004648054436" lon="12.963008417105387"><ele>973.0</ele><time>2026-04-23T07:59:47Z</time></trkpt><trkpt lat="42.56393523070911" lon="12.963031621462466"><ele>973.0</ele><time>2026-04-23T07:59:48Z</time></trkpt><trkpt lat="42.56386831376335" lon="12.963052849527667"><ele>973.0</ele><time>2026-04-23T07:59:49Z</time></trkpt><trkpt lat="42.56380558762596" lon="12.963078748910503"><ele>973.0</ele><time>2026-04-23T07:59:50Z</time></trkpt><trkpt lat="42.56368643347434" lon="12.963112338022968"><ele>973.0</ele><time>2026-04-23T07:59:52Z</time></trkpt><trkpt lat="42.56356563167887" lon="12.963159916379837"><ele>973.8333333333333</ele><time>2026-04-23T07:59:54Z</time></trkpt><trkpt lat="42.563454668985635" lon="12.963200176960632"><ele>974.6666666666666</ele><time>2026-04-23T07:59:56.001Z</time></trkpt><trkpt lat="42.56334226131884" lon="12.963268132450391"><ele>975.5</ele><time>2026-04-23T07:59:58.001Z</time></trkpt><trkpt lat="42.56327990957716" lon="12.963293309821502"><ele>976.3333333333333</ele><time>2026-04-23T07:59:59.001Z</time></trkpt><trkpt lat="42.563214136989956" lon="12.963319868879994"><ele>977.1666666666666</ele><time>2026-04-23T08:00:00.001Z</time></trkpt><trkpt lat="42.56315152303179" lon="12.963347983568053"><ele>978.0</ele><time>2026-04-23T08:00:01.001Z</time></trkpt><trkpt lat="42.56308873545841" lon="12.963374921228402"><ele>978.0</ele><time>2026-04-23T08:00:02.001Z</time></trkpt><trkpt lat="42.563027167459424" lon="12.963401335655943"><ele>978.0</ele><time>2026-04-23T08:00:03.001Z</time></trkpt><trkpt lat="42.56296713858677" lon="12.96342708975414"><ele>978.0</ele><time>2026-04-23T08:00:04.001Z</time></trkpt><trkpt lat="42.562857145631405" lon="12.963474342203135"><ele>978.0</ele><time>2026-04-23T08:00:06.001Z</time></trkpt><trkpt lat="42.56274938233626" lon="12.963520682820832"><ele>978.0</ele><time>2026-04-23T08:00:08.001Z</time></trkpt><trkpt lat="42.562634457345304" lon="12.963553084088414"><ele>978.4</ele><time>2026-04-23T08:00:10.001Z</time></trkpt><trkpt lat="42.56251879374" lon="12.963600101665476"><ele>978.8</ele><time>2026-04-23T08:00:12.001Z</time></trkpt><trkpt lat="42.56245846457019" lon="12.963624591156611"><ele>979.2</ele><time>2026-04-23T08:00:13.001Z</time></trkpt><trkpt lat="42.562344953461526" lon="12.9636717138405"><ele>979.6</ele><time>2026-04-23T08:00:15.001Z</time></trkpt><trkpt lat="42.56224099240652" lon="12.963705182099844"><ele>980.0</ele><time>2026-04-23T08:00:17Z</time></trkpt><trkpt lat="42.56214578168461" lon="12.963754745441916"><ele>980.0000000000001</ele><time>2026-04-23T08:00:19Z</time></trkpt><trkpt lat="42.56204586351035" lon="12.963788991751022"><ele>980.0</ele><time>2026-04-23T08:00:21Z</time></trkpt><trkpt lat="42.56195718973059" lon="12.963820566283468"><ele>980.0</ele><time>2026-04-23T08:00:23Z</time></trkpt><trkpt lat="42.56189227642161" lon="12.96384650672177"><ele>980.0</ele><time>2026-04-23T08:00:25Z</time></trkpt><trkpt lat="42.56187157590635" lon="12.96396114854984"><ele>980.0000000000001</ele><time>2026-04-23T08:00:28Z</time></trkpt><trkpt lat="42.56188528825938" lon="12.96408336353798"><ele>980.0</ele><time>2026-04-23T08:00:30Z</time></trkpt><trkpt lat="42.56187799273527" lon="12.964180878800153"><ele>976.3333333333334</ele><time>2026-04-23T08:00:32Z</time></trkpt><trkpt lat="42.56187506370973" lon="12.964268036513737"><ele>972.6666666666667</ele><time>2026-04-23T08:00:35Z</time></trkpt><trkpt lat="42.5619924142918" lon="12.964326077772107"><ele>969.0</ele><time>2026-04-23T08:00:36Z</time></trkpt><trkpt lat="42.56208492791114" lon="12.964377503588393"><ele>965.3333333333333</ele><time>2026-04-23T08:00:38Z</time></trkpt><trkpt lat="42.56215363555524" lon="12.964399826690855"><ele>961.6666666666666</ele><time>2026-04-23T08:00:39Z</time></trkpt><trkpt lat="42.56221910325078" lon="12.964418216622311"><ele>958.0</ele><time>2026-04-23T08:00:40Z</time></trkpt><trkpt lat="42.56233867693926" lon="12.96442026420811"><ele>957.9999999999999</ele><time>2026-04-23T08:00:42Z</time></trkpt><trkpt lat="42.56240534615066" lon="12.964438077427678"><ele>958.0</ele><time>2026-04-23T08:00:43Z</time></trkpt><trkpt lat="42.56248542310441" lon="12.964439251556763"><ele>958.0</ele><time>2026-04-23T08:00:44Z</time></trkpt><trkpt lat="42.56255375480878" lon="12.964464196916516"><ele>958.0</ele><time>2026-04-23T08:00:45Z</time></trkpt><trkpt lat="42.56262250383191" lon="12.964471891232101"><ele>957.9999999999999</ele><time>2026-04-23T08:00:46Z</time></trkpt><trkpt lat="42.56275302934057" lon="12.964483064710617"><ele>958.0</ele><time>2026-04-23T08:00:48Z</time></trkpt><trkpt lat="42.56281819641603" lon="12.96448256883827"><ele>958.3333333333333</ele><time>2026-04-23T08:00:49Z</time></trkpt><trkpt lat="42.56288165732989" lon="12.964485347733078"><ele>958.6666666666666</ele><time>2026-04-23T08:00:50Z</time></trkpt><trkpt lat="42.5629449022765" lon="12.964470099670674"><ele>959.0</ele><time>2026-04-23T08:00:51Z</time></trkpt><trkpt lat="42.56307776558767" lon="12.964449509767732"><ele>959.3333333333333</ele><time>2026-04-23T08:00:53Z</time></trkpt><trkpt lat="42.56314090737326" lon="12.964431028737748"><ele>959.6666666666666</ele><time>2026-04-23T08:00:54Z</time></trkpt><trkpt lat="42.56321240698976" lon="12.964416774421217"><ele>960.0</ele><time>2026-04-23T08:00:55Z</time></trkpt><trkpt lat="42.56327989184324" lon="12.964398124127394"><ele>960.0</ele><time>2026-04-23T08:00:56Z</time></trkpt><trkpt lat="42.5633449585085" lon="12.964378831199332"><ele>960.0</ele><time>2026-04-23T08:00:57Z</time></trkpt><trkpt lat="42.56346091012153" lon="12.964346264413306"><ele>960.0</ele><time>2026-04-23T08:00:59Z</time></trkpt><trkpt lat="42.56357588699354" lon="12.964317966758701"><ele>960.0</ele><time>2026-04-23T08:01:01Z</time></trkpt><trkpt lat="42.56363846795663" lon="12.964300799041013"><ele>960.0</ele><time>2026-04-23T08:01:02Z</time></trkpt><trkpt lat="42.563705570523254" lon="12.964281955568469"><ele>960.0</ele><time>2026-04-23T08:01:03Z</time></trkpt><trkpt lat="42.563772776804235" lon="12.96426689554567"><ele>959.0</ele><time>2026-04-23T08:01:04Z</time></trkpt><trkpt lat="42.56384893730123" lon="12.964263726917409"><ele>958.0</ele><time>2026-04-23T08:01:05Z</time></trkpt><trkpt lat="42.56397711859859" lon="12.964220795217967"><ele>957.0</ele><time>2026-04-23T08:01:07Z</time></trkpt><trkpt lat="42.5640464862102" lon="12.964202595878866"><ele>956.0</ele><time>2026-04-23T08:01:08Z</time></trkpt><trkpt lat="42.564164476558034" lon="12.964165390392782"><ele>955.0</ele><time>2026-04-23T08:01:10Z</time></trkpt><trkpt lat="42.564230537872085" lon="12.964158658694451"><ele>957.1666666666666</ele><time>2026-04-23T08:01:11Z</time></trkpt><trkpt lat="42.5643051957209" lon="12.964135980409655"><ele>959.3333333333333</ele><time>2026-04-23T08:01:12Z</time></trkpt><trkpt lat="42.564380907327234" lon="12.964108916195066"><ele>961.5</ele><time>2026-04-23T08:01:13Z</time></trkpt><trkpt lat="42.564462451242" lon="12.964099674874905"><ele>963.6666666666667</ele><time>2026-04-23T08:01:14Z</time></trkpt><trkpt lat="42.56454070967703" lon="12.96406096468367"><ele>965.8333333333334</ele><time>2026-04-23T08:01:15Z</time></trkpt><trkpt lat="42.56460560455846" lon="12.964041213185123"><ele>968.0</ele><time>2026-04-23T08:01:16Z</time></trkpt><trkpt lat="42.56466941602431" lon="12.964049745700324"><ele>964.75</ele><time>2026-04-23T08:01:18Z</time></trkpt><trkpt lat="42.564698514916024" lon="12.964270824945864"><ele>961.5</ele><time>2026-04-23T08:01:22Z</time></trkpt><trkpt lat="42.56459541401095" lon="12.964392397282705"><ele>958.25</ele><time>2026-04-23T08:01:25Z</time></trkpt><trkpt lat="42.564507426507475" lon="12.9644281053859"><ele>955.0</ele><time>2026-04-23T08:01:27Z</time></trkpt><trkpt lat="42.564433532090455" lon="12.964460965295027"><ele>954.9999999999999</ele><time>2026-04-23T08:01:30Z</time></trkpt><trkpt lat="42.56450965326891" lon="12.96442350396817"><ele>955.0</ele><time>2026-04-23T08:01:45Z</time></trkpt><trkpt lat="42.5645973165431" lon="12.964388722174306"><ele>955.0</ele><time>2026-04-23T08:01:47Z</time></trkpt><trkpt lat="42.564669747576716" lon="12.96436138618727"><ele>955.0</ele><time>2026-04-23T08:01:49Z</time></trkpt><trkpt lat="42.56473539073512" lon="12.964349448234909"><ele>954.9999999999999</ele><time>2026-04-23T08:01:51Z</time></trkpt><trkpt lat="42.56479604294975" lon="12.964403355733232"><ele>955.0</ele><time>2026-04-23T08:02:09Z</time></trkpt><trkpt lat="42.56493146729056" lon="12.964483515635067"><ele>953.6</ele><time>2026-04-23T08:02:11Z</time></trkpt><trkpt lat="42.56501511630529" lon="12.964486586314493"><ele>952.2</ele><time>2026-04-23T08:02:12Z</time></trkpt><trkpt lat="42.56511094903212" lon="12.96447750979242"><ele>950.8</ele><time>2026-04-23T08:02:13Z</time></trkpt><trkpt lat="42.565213412342" lon="12.964442230431446"><ele>949.4</ele><time>2026-04-23T08:02:14Z</time></trkpt><trkpt lat="42.56530811162778" lon="12.96437623874912"><ele>948.0</ele><time>2026-04-23T08:02:15Z</time></trkpt><trkpt lat="42.56538907954983" lon="12.96428432948967"><ele>950.4</ele><time>2026-04-23T08:02:16Z</time></trkpt><trkpt lat="42.56545510859558" lon="12.964172435368306"><ele>952.8</ele><time>2026-04-23T08:02:17Z</time></trkpt><trkpt lat="42.56550790272775" lon="12.964047571740863"><ele>955.2</ele><time>2026-04-23T08:02:18Z</time></trkpt><trkpt lat="42.56554380464038" lon="12.963911797803554"><ele>957.6</ele><time>2026-04-23T08:02:19Z</time></trkpt><trkpt lat="42.56555723464204" lon="12.963766437761015"><ele>960.0</ele><time>2026-04-23T08:02:20Z</time></trkpt><trkpt lat="42.56555496641258" lon="12.963620535084543"><ele>960.0</ele><time>2026-04-23T08:02:21Z</time></trkpt><trkpt lat="42.565542300764704" lon="12.96347615956599"><ele>960.0</ele><time>2026-04-23T08:02:22Z</time></trkpt><trkpt lat="42.56552871252878" lon="12.963334341297065"><ele>960.0</ele><time>2026-04-23T08:02:23Z</time></trkpt><trkpt lat="42.56551803676653" lon="12.963194167606376"><ele>960.0</ele><time>2026-04-23T08:02:24Z</time></trkpt><trkpt lat="42.56550411369362" lon="12.9630622165257"><ele>960.0</ele><time>2026-04-23T08:02:25Z</time></trkpt><trkpt lat="42.56548827467348" lon="12.962943179903995"><ele>960.8</ele><time>2026-04-23T08:02:26Z</time></trkpt><trkpt lat="42.56548591143738" lon="12.962837169720338"><ele>961.6</ele><time>2026-04-23T08:02:27Z</time></trkpt><trkpt lat="42.565531095841564" lon="12.962675946262904"><ele>962.4000000000001</ele><time>2026-04-23T08:02:29Z</time></trkpt><trkpt lat="42.565546974972186" lon="12.962593218397537"><ele>963.2</ele><time>2026-04-23T08:02:31Z</time></trkpt><trkpt lat="42.56566811682585" lon="12.962621701606173"><ele>964.0</ele><time>2026-04-23T08:02:32Z</time></trkpt><trkpt lat="42.56577226553204" lon="12.962610306238563"><ele>963.9999999999999</ele><time>2026-04-23T08:02:34Z</time></trkpt><trkpt lat="42.565859150605235" lon="12.962582986919342"><ele>964.0</ele><time>2026-04-23T08:02:36Z</time></trkpt><trkpt lat="42.56594335747021" lon="12.962568877762116"><ele>964.0</ele><time>2026-04-23T08:02:38Z</time></trkpt><trkpt lat="42.56602133825198" lon="12.962568395660774"><ele>964.0</ele><time>2026-04-23T08:02:41Z</time></trkpt><trkpt lat="42.56595707399045" lon="12.962593553304748"><ele>963.9999999999999</ele><time>2026-04-23T08:03:25.999Z</time></trkpt><trkpt lat="42.56589833400209" lon="12.962648687625192"><ele>964.0</ele><time>2026-04-23T08:03:31.999Z</time></trkpt><trkpt lat="42.56591261836929" lon="12.962734502768999"><ele>964.0</ele><time>2026-04-23T08:03:38.999Z</time></trkpt><trkpt lat="42.56579229787372" lon="12.962830044026862"><ele>964.0</ele><time>2026-04-23T08:04:22.999Z</time></trkpt><trkpt lat="42.565715926798525" lon="12.96277616827359"><ele>964.0</ele><time>2026-04-23T08:04:27.999Z</time></trkpt><trkpt lat="42.56564187419363" lon="12.962782312724318"><ele>964.0</ele><time>2026-04-23T08:04:33.999Z</time></trkpt><trkpt lat="42.565795407785814" lon="12.96341380554667"><ele>964.0</ele><time>2026-04-23T08:04:38.062Z</time></trkpt><trkpt lat="42.56545781036998" lon="12.962887216827774"><ele>964.0</ele><time>2026-04-23T08:04:41.061Z</time></trkpt><trkpt lat="42.56575087787365" lon="12.962622646445318"><ele>964.0</ele><time>2026-04-23T08:04:47.061Z</time></trkpt><trkpt lat="42.56573275049911" lon="12.962483177715685"><ele>963.9999999999999</ele><time>2026-04-23T08:05:08.05Z</time></trkpt><trkpt lat="42.56583010055962" lon="12.962491484918974"><ele>964.0</ele><time>2026-04-23T08:05:19.039Z</time></trkpt><trkpt lat="42.565885296900404" lon="12.962539699511623"><ele>964.0</ele><time>2026-04-23T08:06:14.014Z</time></trkpt><trkpt lat="42.56579352057187" lon="12.962543250682279"><ele>964.0</ele><time>2026-04-23T08:06:19.014Z</time></trkpt><trkpt lat="42.565911642353306" lon="12.962505420846473"><ele>963.9999999999999</ele><time>2026-04-23T08:08:35.013Z</time></trkpt><trkpt lat="42.5658663639082" lon="12.96258195052438"><ele>964.0</ele><time>2026-04-23T08:10:42.996Z</time></trkpt><trkpt lat="42.565939585847474" lon="12.9625505514778"><ele>963.9999999999999</ele><time>2026-04-23T08:10:50Z</time></trkpt><trkpt lat="42.56599361924667" lon="12.962505833311397"><ele>964.0</ele><time>2026-04-23T08:10:57Z</time></trkpt><trkpt lat="42.566053800290156" lon="12.962431143386288"><ele>964.0</ele><time>2026-04-23T08:12:11.999Z</time></trkpt><trkpt lat="42.56597402222027" lon="12.962468317924408"><ele>964.0</ele><time>2026-04-23T08:12:15.999Z</time></trkpt><trkpt lat="42.56601483699169" lon="12.962547875604486"><ele>963.9999999999999</ele><time>2026-04-23T08:12:17.999Z</time></trkpt><trkpt lat="42.56614603088971" lon="12.962563432944535"><ele>964.0</ele><time>2026-04-23T08:12:19.999Z</time></trkpt><trkpt lat="42.566231656255106" lon="12.962550323728744"><ele>963.6666666666666</ele><time>2026-04-23T08:12:20.999Z</time></trkpt><trkpt lat="42.566315284003956" lon="12.962533849954758"><ele>963.3333333333333</ele><time>2026-04-23T08:12:21.999Z</time></trkpt><trkpt lat="42.5663991388575" lon="12.962518986867513"><ele>963.0</ele><time>2026-04-23T08:12:22.999Z</time></trkpt><trkpt lat="42.56648707096052" lon="12.962504239492725"><ele>962.6666666666667</ele><time>2026-04-23T08:12:23.999Z</time></trkpt><trkpt lat="42.56658251808481" lon="12.962491839314584"><ele>962.3333333333334</ele><time>2026-04-23T08:12:24.999Z</time></trkpt><trkpt lat="42.5666740102948" lon="12.962475092640066"><ele>962.0</ele><time>2026-04-23T08:12:25.999Z</time></trkpt><trkpt lat="42.56685265418314" lon="12.962448611430956"><ele>962.0</ele><time>2026-04-23T08:12:27.999Z</time></trkpt><trkpt lat="42.56694795658821" lon="12.962436869631006"><ele>962.0</ele><time>2026-04-23T08:12:28.999Z</time></trkpt><trkpt lat="42.56705933748071" lon="12.962419787254557"><ele>962.0</ele><time>2026-04-23T08:12:29.999Z</time></trkpt><trkpt lat="42.56718314013329" lon="12.962401275131953"><ele>962.0</ele><time>2026-04-23T08:12:30.999Z</time></trkpt><trkpt lat="42.56730498377216" lon="12.962384415182512"><ele>961.6</ele><time>2026-04-23T08:12:31.999Z</time></trkpt><trkpt lat="42.56742628302471" lon="12.962367123962792"><ele>961.2</ele><time>2026-04-23T08:12:32.999Z</time></trkpt><trkpt lat="42.56753480247986" lon="12.962351591304634"><ele>960.8</ele><time>2026-04-23T08:12:33.999Z</time></trkpt><trkpt lat="42.5676324958885" lon="12.96233447791477"><ele>960.4</ele><time>2026-04-23T08:12:34.999Z</time></trkpt><trkpt lat="42.56772134659062" lon="12.962344243163427"><ele>960.0</ele><time>2026-04-23T08:12:35.999Z</time></trkpt><trkpt lat="42.56780330269482" lon="12.962333037215151"><ele>959.6</ele><time>2026-04-23T08:12:36.999Z</time></trkpt><trkpt lat="42.567877892477625" lon="12.962322838471362"><ele>959.2</ele><time>2026-04-23T08:12:37.999Z</time></trkpt><trkpt lat="42.5679593940195" lon="12.962311041318372"><ele>958.8</ele><time>2026-04-23T08:12:38.999Z</time></trkpt><trkpt lat="42.568064156615364" lon="12.962295436308441"><ele>958.4</ele><time>2026-04-23T08:12:39.999Z</time></trkpt><trkpt lat="42.56817029768706" lon="12.962279625979717"><ele>958.0</ele><time>2026-04-23T08:12:40.999Z</time></trkpt><trkpt lat="42.56828119595659" lon="12.962263107034698"><ele>958.0</ele><time>2026-04-23T08:12:41.999Z</time></trkpt><trkpt lat="42.56839954376819" lon="12.962228466520733"><ele>958.0</ele><time>2026-04-23T08:12:42.999Z</time></trkpt><trkpt lat="42.568522824422026" lon="12.962214361908922"><ele>958.0</ele><time>2026-04-23T08:12:43.999Z</time></trkpt><trkpt lat="42.56864724852314" lon="12.962196701072525"><ele>958.0</ele><time>2026-04-23T08:12:44.999Z</time></trkpt><trkpt lat="42.568775520073906" lon="12.962179360206799"><ele>957.5</ele><time>2026-04-23T08:12:45.999Z</time></trkpt><trkpt lat="42.56890830284902" lon="12.96216106370269"><ele>957.0</ele><time>2026-04-23T08:12:46.999Z</time></trkpt><trkpt lat="42.56904141800172" lon="12.962141335127175"><ele>956.5</ele><time>2026-04-23T08:12:47.999Z</time></trkpt><trkpt lat="42.56917580236975" lon="12.962120770464649"><ele>956.0</ele><time>2026-04-23T08:12:48.999Z</time></trkpt><trkpt lat="42.56930719947405" lon="12.96210242558359"><ele>956.0</ele><time>2026-04-23T08:12:49.999Z</time></trkpt><trkpt lat="42.56943801063835" lon="12.962083292313478"><ele>956.0</ele><time>2026-04-23T08:12:50.999Z</time></trkpt><trkpt lat="42.569564287150016" lon="12.9620653887346"><ele>956.0</ele><time>2026-04-23T08:12:51.999Z</time></trkpt><trkpt lat="42.56968420051084" lon="12.962046741273646"><ele>956.0</ele><time>2026-04-23T08:12:52.999Z</time></trkpt><trkpt lat="42.56980371781024" lon="12.962030144373784"><ele>955.5</ele><time>2026-04-23T08:12:54Z</time></trkpt><trkpt lat="42.56992750475287" lon="12.962014875359074"><ele>955.0</ele><time>2026-04-23T08:12:55Z</time></trkpt><trkpt lat="42.57004412393528" lon="12.961999325369383"><ele>954.5</ele><time>2026-04-23T08:12:56Z</time></trkpt><trkpt lat="42.570159768502826" lon="12.961980589161955"><ele>954.0</ele><time>2026-04-23T08:12:57Z</time></trkpt><trkpt lat="42.57027165529382" lon="12.961968699291527"><ele>953.2</ele><time>2026-04-23T08:12:58Z</time></trkpt><trkpt lat="42.57037767521108" lon="12.961958382697889"><ele>952.4000000000001</ele><time>2026-04-23T08:12:59Z</time></trkpt><trkpt lat="42.57047893658539" lon="12.961944724335408"><ele>951.6</ele><time>2026-04-23T08:13:00Z</time></trkpt><trkpt lat="42.570575622827825" lon="12.96192917005557"><ele>950.8</ele><time>2026-04-23T08:13:01Z</time></trkpt><trkpt lat="42.57067922104292" lon="12.961905534786867"><ele>950.0</ele><time>2026-04-23T08:13:02Z</time></trkpt><trkpt lat="42.57079621701747" lon="12.961893750554077"><ele>950.0</ele><time>2026-04-23T08:13:03Z</time></trkpt><trkpt lat="42.57091502651204" lon="12.961879363943194"><ele>950.0</ele><time>2026-04-23T08:13:04Z</time></trkpt><trkpt lat="42.57103230500596" lon="12.961868858174958"><ele>950.0</ele><time>2026-04-23T08:13:05Z</time></trkpt><trkpt lat="42.57114359525538" lon="12.961871752529273"><ele>950.0</ele><time>2026-04-23T08:13:06Z</time></trkpt><trkpt lat="42.57124547638129" lon="12.96189386394591"><ele>950.0</ele><time>2026-04-23T08:13:07Z</time></trkpt><trkpt lat="42.57133365074629" lon="12.961939491394954"><ele>950.0</ele><time>2026-04-23T08:13:08Z</time></trkpt><trkpt lat="42.571410611231116" lon="12.962016202952631"><ele>950.0</ele><time>2026-04-23T08:13:09Z</time></trkpt><trkpt lat="42.57147000652075" lon="12.96213110332821"><ele>950.0</ele><time>2026-04-23T08:13:10Z</time></trkpt><trkpt lat="42.57150574145559" lon="12.962262112389267"><ele>950.0</ele><time>2026-04-23T08:13:11Z</time></trkpt><trkpt lat="42.5715170887635" lon="12.962401335638289"><ele>949.75</ele><time>2026-04-23T08:13:12Z</time></trkpt><trkpt lat="42.57149589677905" lon="12.96255014076745"><ele>949.5</ele><time>2026-04-23T08:13:13Z</time></trkpt><trkpt lat="42.5714688659978" lon="12.962715457714989"><ele>949.25</ele><time>2026-04-23T08:13:14Z</time></trkpt><trkpt lat="42.57143813114579" lon="12.962904022254659"><ele>949.0</ele><time>2026-04-23T08:13:15Z</time></trkpt><trkpt lat="42.57141048527729" lon="12.96310647391062"><ele>949.0</ele><time>2026-04-23T08:13:16Z</time></trkpt><trkpt lat="42.57138477410078" lon="12.963302031934884"><ele>949.0</ele><time>2026-04-23T08:13:17Z</time></trkpt><trkpt lat="42.57135667648614" lon="12.963502290468663"><ele>949.0</ele><time>2026-04-23T08:13:18Z</time></trkpt><trkpt lat="42.571320624231475" lon="12.96370289086806"><ele>949.0</ele><time>2026-04-23T08:13:19Z</time></trkpt><trkpt lat="42.57128124475085" lon="12.963901351545562"><ele>949.0</ele><time>2026-04-23T08:13:20Z</time></trkpt><trkpt lat="42.5712358464317" lon="12.964099536374572"><ele>949.0</ele><time>2026-04-23T08:13:21Z</time></trkpt><trkpt lat="42.571188152903936" lon="12.964295792486599"><ele>949.0</ele><time>2026-04-23T08:13:22Z</time></trkpt><trkpt lat="42.571134788092074" lon="12.964494573857653"><ele>949.0</ele><time>2026-04-23T08:13:23Z</time></trkpt><trkpt lat="42.5710780395293" lon="12.964693117323932"><ele>949.0</ele><time>2026-04-23T08:13:24Z</time></trkpt><trkpt lat="42.57102045319349" lon="12.96488928204812"><ele>949.0</ele><time>2026-04-23T08:13:25Z</time></trkpt><trkpt lat="42.570961009893786" lon="12.96508078728133"><ele>949.3333333333333</ele><time>2026-04-23T08:13:26Z</time></trkpt><trkpt lat="42.57089463208492" lon="12.965275780190877"><ele>949.6666666666667</ele><time>2026-04-23T08:13:27Z</time></trkpt><trkpt lat="42.5708269658259" lon="12.965463773777149"><ele>950.0</ele><time>2026-04-23T08:13:28Z</time></trkpt><trkpt lat="42.57075725618413" lon="12.965651492166094"><ele>950.0</ele><time>2026-04-23T08:13:29Z</time></trkpt><trkpt lat="42.570683810822835" lon="12.965838652692382"><ele>950.0</ele><time>2026-04-23T08:13:30Z</time></trkpt><trkpt lat="42.57060968917235" lon="12.966025775161524"><ele>950.0</ele><time>2026-04-23T08:13:31Z</time></trkpt><trkpt lat="42.5705357265853" lon="12.966209289451271"><ele>947.3333333333334</ele><time>2026-04-23T08:13:32Z</time></trkpt><trkpt lat="42.5704624604797" lon="12.966392533463985"><ele>944.6666666666667</ele><time>2026-04-23T08:13:33Z</time></trkpt><trkpt lat="42.57038712766514" lon="12.966573355945012"><ele>942.0</ele><time>2026-04-23T08:13:34Z</time></trkpt><trkpt lat="42.57031604696457" lon="12.966751466265908"><ele>934.6666666666667</ele><time>2026-04-23T08:13:35Z</time></trkpt><trkpt lat="42.570242105415886" lon="12.96693123293612"><ele>927.3333333333334</ele><time>2026-04-23T08:13:36Z</time></trkpt><trkpt lat="42.57016894759306" lon="12.967109493226905"><ele>920.0</ele><time>2026-04-23T08:13:37Z</time></trkpt><trkpt lat="42.57009628882578" lon="12.967285937780106"><ele>920.0</ele><time>2026-04-23T08:13:38Z</time></trkpt><trkpt lat="42.570023795716054" lon="12.96746155964983"><ele>920.0</ele><time>2026-04-23T08:13:39Z</time></trkpt><trkpt lat="42.56994824510029" lon="12.967635339715292"><ele>920.0</ele><time>2026-04-23T08:13:40Z</time></trkpt><trkpt lat="42.56987653866023" lon="12.967810831884762"><ele>920.0</ele><time>2026-04-23T08:13:41Z</time></trkpt><trkpt lat="42.569802202396914" lon="12.967986683442708"><ele>918.75</ele><time>2026-04-23T08:13:41.999Z</time></trkpt><trkpt lat="42.5697270943676" lon="12.96816259215047"><ele>917.5</ele><time>2026-04-23T08:13:42.999Z</time></trkpt><trkpt lat="42.56965398281081" lon="12.968337284988285"><ele>916.25</ele><time>2026-04-23T08:13:43.999Z</time></trkpt><trkpt lat="42.56957995517696" lon="12.96851401322117"><ele>915.0</ele><time>2026-04-23T08:13:44.999Z</time></trkpt><trkpt lat="42.56950684488356" lon="12.968690946633401"><ele>915.0</ele><time>2026-04-23T08:13:45.999Z</time></trkpt><trkpt lat="42.56943356372868" lon="12.968868214813469"><ele>915.0</ele><time>2026-04-23T08:13:46.999Z</time></trkpt><trkpt lat="42.56936077619938" lon="12.96904737571682"><ele>915.0</ele><time>2026-04-23T08:13:47.999Z</time></trkpt><trkpt lat="42.569290442321595" lon="12.969217823332084"><ele>915.0</ele><time>2026-04-23T08:13:48.999Z</time></trkpt><trkpt lat="42.569222402896266" lon="12.969377594531897"><ele>915.75</ele><time>2026-04-23T08:13:49.999Z</time></trkpt><trkpt lat="42.569160540127534" lon="12.969529999634618"><ele>916.5</ele><time>2026-04-23T08:13:50.999Z</time></trkpt><trkpt lat="42.56909699192379" lon="12.969696682644477"><ele>917.25</ele><time>2026-04-23T08:13:51.999Z</time></trkpt><trkpt lat="42.5690100204407" lon="12.969865254728722"><ele>918.0</ele><time>2026-04-23T08:13:52.999Z</time></trkpt><trkpt lat="42.56892918299784" lon="12.97005836148182"><ele>920.6666666666667</ele><time>2026-04-23T08:13:53.999Z</time></trkpt><trkpt lat="42.56884515609944" lon="12.970259307244527"><ele>923.3333333333334</ele><time>2026-04-23T08:13:54.999Z</time></trkpt><trkpt lat="42.56877647405061" lon="12.970469256196584"><ele>926.0</ele><time>2026-04-23T08:13:55.999Z</time></trkpt><trkpt lat="42.568690197626026" lon="12.970670295386645"><ele>933.6666666666667</ele><time>2026-04-23T08:13:56.999Z</time></trkpt><trkpt lat="42.568599789690516" lon="12.97087562015376"><ele>941.3333333333333</ele><time>2026-04-23T08:13:57.999Z</time></trkpt><trkpt lat="42.56850942987908" lon="12.971082847460425"><ele>949.0</ele><time>2026-04-23T08:13:58.999Z</time></trkpt><trkpt lat="42.568428077727965" lon="12.971279056860798"><ele>949.0</ele><time>2026-04-23T08:13:59.999Z</time></trkpt><trkpt lat="42.56834961783675" lon="12.971463883774549"><ele>949.0</ele><time>2026-04-23T08:14:00.999Z</time></trkpt><trkpt lat="42.56827307573645" lon="12.971641932930993"><ele>949.0</ele><time>2026-04-23T08:14:01.999Z</time></trkpt><trkpt lat="42.56819128257213" lon="12.971805507917061"><ele>949.25</ele><time>2026-04-23T08:14:02.999Z</time></trkpt><trkpt lat="42.568112421900246" lon="12.971955472667267"><ele>949.5</ele><time>2026-04-23T08:14:03.999Z</time></trkpt><trkpt lat="42.56804100667323" lon="12.972100275515707"><ele>949.75</ele><time>2026-04-23T08:14:04.999Z</time></trkpt><trkpt lat="42.56796501187593" lon="12.972238372387075"><ele>950.0</ele><time>2026-04-23T08:14:05.999Z</time></trkpt><trkpt lat="42.5679187787552" lon="12.972363034407175"><ele>951.0</ele><time>2026-04-23T08:14:06.999Z</time></trkpt><trkpt lat="42.56779258950231" lon="12.972409020140386"><ele>952.0</ele><time>2026-04-23T08:14:07.999Z</time></trkpt><trkpt lat="42.56768092503153" lon="12.972447885666424"><ele>953.0</ele><time>2026-04-23T08:14:08.999Z</time></trkpt><trkpt lat="42.56756410383487" lon="12.972441432826411"><ele>954.0</ele><time>2026-04-23T08:14:09.999Z</time></trkpt><trkpt lat="42.56745027500086" lon="12.9723864810239"><ele>954.0</ele><time>2026-04-23T08:14:10.999Z</time></trkpt><trkpt lat="42.56735574872295" lon="12.972295516360766"><ele>954.0</ele><time>2026-04-23T08:14:11.999Z</time></trkpt><trkpt lat="42.567285714048715" lon="12.972180683202104"><ele>954.0</ele><time>2026-04-23T08:14:12.999Z</time></trkpt><trkpt lat="42.5672409831255" lon="12.97203811729903"><ele>954.0</ele><time>2026-04-23T08:14:13.999Z</time></trkpt><trkpt lat="42.56723059973487" lon="12.971884589105454"><ele>954.0</ele><time>2026-04-23T08:14:14.999Z</time></trkpt><trkpt lat="42.567252513625355" lon="12.971752884372773"><ele>954.0000000000001</ele><time>2026-04-23T08:14:15.999Z</time></trkpt><trkpt lat="42.56729942876946" lon="12.971626748293364"><ele>954.0000000000001</ele><time>2026-04-23T08:14:16.999Z</time></trkpt><trkpt lat="42.56735947489615" lon="12.971500619588921"><ele>954.0</ele><time>2026-04-23T08:14:17.999Z</time></trkpt><trkpt lat="42.56742006628025" lon="12.971411419061756"><ele>954.0</ele><time>2026-04-23T08:14:18.999Z</time></trkpt><trkpt lat="42.567476627324396" lon="12.971364187793887"><ele>953.4000000000001</ele><time>2026-04-23T08:14:19.999Z</time></trkpt><trkpt lat="42.56753996445017" lon="12.97132867048708"><ele>952.8000000000001</ele><time>2026-04-23T08:14:20.999Z</time></trkpt><trkpt lat="42.56760821520474" lon="12.971294757248474"><ele>952.1999999999999</ele><time>2026-04-23T08:14:21.999Z</time></trkpt><trkpt lat="42.56769674866149" lon="12.971270943212978"><ele>951.5999999999999</ele><time>2026-04-23T08:14:22.999Z</time></trkpt><trkpt lat="42.56781122387274" lon="12.971269870096135"><ele>951.0</ele><time>2026-04-23T08:14:23.999Z</time></trkpt><trkpt lat="42.567943254222556" lon="12.971296723327766"><ele>950.5</ele><time>2026-04-23T08:14:24.999Z</time></trkpt><trkpt lat="42.56809065255234" lon="12.971344143501518"><ele>950.0</ele><time>2026-04-23T08:14:25.999Z</time></trkpt><trkpt lat="42.56821637605856" lon="12.971391466680029"><ele>949.5</ele><time>2026-04-23T08:14:26.999Z</time></trkpt><trkpt lat="42.568327803382246" lon="12.97145308482698"><ele>949.0</ele><time>2026-04-23T08:14:27.999Z</time></trkpt><trkpt lat="42.568427422500875" lon="12.9715259588394"><ele>949.0</ele><time>2026-04-23T08:14:28.999Z</time></trkpt><trkpt lat="42.56851168269474" lon="12.971613462702331"><ele>949.0000000000001</ele><time>2026-04-23T08:14:29.999Z</time></trkpt><trkpt lat="42.56858211463472" lon="12.971702594267438"><ele>949.0000000000001</ele><time>2026-04-23T08:14:30.999Z</time></trkpt><trkpt lat="42.56863913638235" lon="12.971777527596577"><ele>949.0</ele><time>2026-04-23T08:14:31.999Z</time></trkpt><trkpt lat="42.568737050232166" lon="12.97183975273912"><ele>949.0</ele><time>2026-04-23T08:14:33.999Z</time></trkpt><trkpt lat="42.56881344400355" lon="12.971783485796664"><ele>949.0</ele><time>2026-04-23T08:14:35.999Z</time></trkpt><trkpt lat="42.56884923648639" lon="12.971615745919323"><ele>949.0000000000001</ele><time>2026-04-23T08:14:37.999Z</time></trkpt><trkpt lat="42.56880185344595" lon="12.971498519315377"><ele>949.0000000000001</ele><time>2026-04-23T08:14:39.999Z</time></trkpt><trkpt lat="42.56875581921724" lon="12.971418159532348"><ele>949.0</ele><time>2026-04-23T08:14:40.999Z</time></trkpt><trkpt lat="42.56869464340517" lon="12.971355930035225"><ele>949.0</ele><time>2026-04-23T08:14:41.999Z</time></trkpt><trkpt lat="42.56863576535761" lon="12.9712790119564"><ele>949.0</ele><time>2026-04-23T08:14:42.999Z</time></trkpt><trkpt lat="42.56855873276844" lon="12.971217256084918"><ele>949.0000000000001</ele><time>2026-04-23T08:14:43.999Z</time></trkpt><trkpt lat="42.568476405663716" lon="12.971157101455647"><ele>949.0000000000001</ele><time>2026-04-23T08:14:44.999Z</time></trkpt><trkpt lat="42.56837014909278" lon="12.971081954792583"><ele>949.0</ele><time>2026-04-23T08:14:45.999Z</time></trkpt><trkpt lat="42.56827339866401" lon="12.971015578765087"><ele>949.0</ele><time>2026-04-23T08:14:46.999Z</time></trkpt><trkpt lat="42.568203574201654" lon="12.970980146004274"><ele>949.0</ele><time>2026-04-23T08:14:47.999Z</time></trkpt><trkpt lat="42.56813135189571" lon="12.970913025095884"><ele>949.0000000000001</ele><time>2026-04-23T08:14:48.999Z</time></trkpt><trkpt lat="42.568049783233135" lon="12.970844257966453"><ele>949.0000000000001</ele><time>2026-04-23T08:14:49.999Z</time></trkpt><trkpt lat="42.567964681881655" lon="12.970772750005473"><ele>949.0</ele><time>2026-04-23T08:14:50.999Z</time></trkpt><trkpt lat="42.567872900870746" lon="12.97071584273786"><ele>949.0</ele><time>2026-04-23T08:14:51.999Z</time></trkpt><trkpt lat="42.56778085108994" lon="12.970651361380364"><ele>947.6</ele><time>2026-04-23T08:14:52.999Z</time></trkpt><trkpt lat="42.56768534272036" lon="12.970594941762842"><ele>946.2</ele><time>2026-04-23T08:14:53.999Z</time></trkpt><trkpt lat="42.56758139847727" lon="12.970536935573588"><ele>944.8000000000001</ele><time>2026-04-23T08:14:54.999Z</time></trkpt><trkpt lat="42.56748276330663" lon="12.970486965824767"><ele>943.4000000000001</ele><time>2026-04-23T08:14:55.999Z</time></trkpt><trkpt lat="42.567389151179235" lon="12.97040209466758"><ele>942.0</ele><time>2026-04-23T08:14:56.999Z</time></trkpt><trkpt lat="42.567282751410225" lon="12.970347624328925"><ele>942.0</ele><time>2026-04-23T08:14:57.999Z</time></trkpt><trkpt lat="42.56718318211591" lon="12.970272534517497"><ele>942.0</ele><time>2026-04-23T08:14:58.999Z</time></trkpt><trkpt lat="42.56708971842374" lon="12.970184093001096"><ele>942.0</ele><time>2026-04-23T08:15:00Z</time></trkpt><trkpt lat="42.56699193923033" lon="12.970135130839491"><ele>942.0</ele><time>2026-04-23T08:15:01Z</time></trkpt><trkpt lat="42.566913617153425" lon="12.97006827137495"><ele>942.0</ele><time>2026-04-23T08:15:02Z</time></trkpt><trkpt lat="42.56682869194499" lon="12.970006158841688"><ele>940.4000000000001</ele><time>2026-04-23T08:15:03Z</time></trkpt><trkpt lat="42.566760156108195" lon="12.969949902129345"><ele>938.8000000000001</ele><time>2026-04-23T08:15:04Z</time></trkpt><trkpt lat="42.566674907594845" lon="12.969871984003726"><ele>937.2</ele><time>2026-04-23T08:15:06Z</time></trkpt><trkpt lat="42.56662288428335" lon="12.96982146746807"><ele>935.6</ele><time>2026-04-23T08:15:22Z</time></trkpt><trkpt lat="42.566729627623936" lon="12.969936528352052"><ele>934.0</ele><time>2026-04-23T08:15:39Z</time></trkpt><trkpt lat="42.56680245013851" lon="12.96999210443883"><ele>936.0</ele><time>2026-04-23T08:15:40Z</time></trkpt><trkpt lat="42.566887047193035" lon="12.970056438675815"><ele>938.0</ele><time>2026-04-23T08:15:41Z</time></trkpt><trkpt lat="42.56698926442593" lon="12.970134792715934"><ele>940.0</ele><time>2026-04-23T08:15:42Z</time></trkpt><trkpt lat="42.56709062966001" lon="12.970219797734345"><ele>942.0</ele><time>2026-04-23T08:15:43Z</time></trkpt><trkpt lat="42.567200958470586" lon="12.970299190155197"><ele>942.0</ele><time>2026-04-23T08:15:44Z</time></trkpt><trkpt lat="42.5673108270465" lon="12.970381149041032"><ele>942.0</ele><time>2026-04-23T08:15:45Z</time></trkpt><trkpt lat="42.56742314851381" lon="12.970460387122538"><ele>942.0</ele><time>2026-04-23T08:15:46Z</time></trkpt><trkpt lat="42.56753699867663" lon="12.97053966508174"><ele>942.0</ele><time>2026-04-23T08:15:47Z</time></trkpt><trkpt lat="42.56765520940237" lon="12.970607618035714"><ele>942.0</ele><time>2026-04-23T08:15:48Z</time></trkpt><trkpt lat="42.56778026970037" lon="12.970668018569977"><ele>942.0</ele><time>2026-04-23T08:15:49Z</time></trkpt><trkpt lat="42.56790228351659" lon="12.970739740215574"><ele>942.0</ele><time>2026-04-23T08:15:50Z</time></trkpt><trkpt lat="42.568014893752625" lon="12.970820475274788"><ele>942.0</ele><time>2026-04-23T08:15:51Z</time></trkpt><trkpt lat="42.568125428896785" lon="12.970910673775505"><ele>944.3333333333333</ele><time>2026-04-23T08:15:52Z</time></trkpt><trkpt lat="42.568234601953414" lon="12.971004984471328"><ele>946.6666666666666</ele><time>2026-04-23T08:15:53Z</time></trkpt><trkpt lat="42.56834862424549" lon="12.971095080053134"><ele>949.0</ele><time>2026-04-23T08:15:53.999Z</time></trkpt><trkpt lat="42.56834817398714" lon="12.971473921137594"><ele>949.0</ele><time>2026-04-23T08:15:54.999Z</time></trkpt><trkpt lat="42.56844255201832" lon="12.97154922488712"><ele>949.0000000000001</ele><time>2026-04-23T08:15:55.999Z</time></trkpt><trkpt lat="42.56857966910127" lon="12.971567255662727"><ele>949.0000000000001</ele><time>2026-04-23T08:15:56.999Z</time></trkpt><trkpt lat="42.56863741318027" lon="12.971631236283176"><ele>949.0</ele><time>2026-04-23T08:15:57.999Z</time></trkpt><trkpt lat="42.568715306681675" lon="12.971709120621005"><ele>949.0</ele><time>2026-04-23T08:15:58.999Z</time></trkpt><trkpt lat="42.568832395863815" lon="12.971553742973118"><ele>949.0</ele><time>2026-04-23T08:15:59.999Z</time></trkpt><trkpt lat="42.568834787422716" lon="12.97169595249928"><ele>949.0000000000001</ele><time>2026-04-23T08:16:01.999Z</time></trkpt><trkpt lat="42.5687803400413" lon="12.971757662974014"><ele>949.0000000000001</ele><time>2026-04-23T08:16:03.999Z</time></trkpt><trkpt lat="42.568694907898106" lon="12.97172201156268"><ele>949.0</ele><time>2026-04-23T08:16:05.999Z</time></trkpt><trkpt lat="42.56858041421213" lon="12.971599750260705"><ele>949.0</ele><time>2026-04-23T08:16:07.999Z</time></trkpt><trkpt lat="42.56847869716335" lon="12.971510504485277"><ele>949.0</ele><time>2026-04-23T08:16:08.999Z</time></trkpt><trkpt lat="42.568382353672604" lon="12.971435251997878"><ele>949.0</ele><time>2026-04-23T08:16:09.999Z</time></trkpt><trkpt lat="42.56834215237561" lon="12.971608184141607"><ele>949.0</ele><time>2026-04-23T08:16:10.999Z</time></trkpt><trkpt lat="42.56824307590252" lon="12.97099011713546"><ele>949.0</ele><time>2026-04-23T08:16:11.999Z</time></trkpt><trkpt lat="42.56808416688747" lon="12.970896258941016"><ele>949.0</ele><time>2026-04-23T08:16:12.999Z</time></trkpt><trkpt lat="42.56780972133771" lon="12.971182823004117"><ele>949.6666666666666</ele><time>2026-04-23T08:16:13.999Z</time></trkpt><trkpt lat="42.567644355048316" lon="12.971116096298065"><ele>950.3333333333333</ele><time>2026-04-23T08:16:14.999Z</time></trkpt><trkpt lat="42.567473814947505" lon="12.971050982788347"><ele>951.0</ele><time>2026-04-23T08:16:15.999Z</time></trkpt><trkpt lat="42.567298964992" lon="12.970986926100094"><ele>951.0</ele><time>2026-04-23T08:16:16.999Z</time></trkpt><trkpt lat="42.56711313318918" lon="12.970915428465277"><ele>951.0</ele><time>2026-04-23T08:16:17.999Z</time></trkpt><trkpt lat="42.56693243270855" lon="12.970848064689772"><ele>951.0</ele><time>2026-04-23T08:16:18.999Z</time></trkpt><trkpt lat="42.56674643669589" lon="12.970782671025038"><ele>951.3333333333333</ele><time>2026-04-23T08:16:19.999Z</time></trkpt><trkpt lat="42.56657231769913" lon="12.970723549302685"><ele>951.6666666666666</ele><time>2026-04-23T08:16:20.999Z</time></trkpt><trkpt lat="42.56639966340998" lon="12.970671594117865"><ele>952.0</ele><time>2026-04-23T08:16:21.999Z</time></trkpt><trkpt lat="42.56621807054883" lon="12.970634421792047"><ele>953.75</ele><time>2026-04-23T08:16:22.999Z</time></trkpt><trkpt lat="42.56606161814761" lon="12.970630622002906"><ele>955.5</ele><time>2026-04-23T08:16:23.999Z</time></trkpt><trkpt lat="42.56591545105479" lon="12.970631356123837"><ele>957.25</ele><time>2026-04-23T08:16:24.999Z</time></trkpt><trkpt lat="42.56579371612314" lon="12.97061529953315"><ele>959.0</ele><time>2026-04-23T08:16:25.999Z</time></trkpt><trkpt lat="42.56568841843876" lon="12.970575535477932"><ele>959.0</ele><time>2026-04-23T08:16:26.999Z</time></trkpt><trkpt lat="42.56560320619876" lon="12.970527067464594"><ele>959.0000000000001</ele><time>2026-04-23T08:16:27.999Z</time></trkpt><trkpt lat="42.565529771506334" lon="12.970510926058774"><ele>959.0000000000001</ele><time>2026-04-23T08:16:28.999Z</time></trkpt><trkpt lat="42.56547967739326" lon="12.970432840735356"><ele>959.0</ele><time>2026-04-23T08:16:29.999Z</time></trkpt><trkpt lat="42.56535823642462" lon="12.970334621510975"><ele>959.0</ele><time>2026-04-23T08:16:31.999Z</time></trkpt><trkpt lat="42.56525665096187" lon="12.970229696262196"><ele>958.0</ele><time>2026-04-23T08:16:32.999Z</time></trkpt><trkpt lat="42.56514853892089" lon="12.97011222614279"><ele>957.0</ele><time>2026-04-23T08:16:33.999Z</time></trkpt><trkpt lat="42.56502964981584" lon="12.9699856133571"><ele>956.0</ele><time>2026-04-23T08:16:34.999Z</time></trkpt><trkpt lat="42.56489451501095" lon="12.96985478465091"><ele>956.0</ele><time>2026-04-23T08:16:35.999Z</time></trkpt><trkpt lat="42.56474976461867" lon="12.969739016519162"><ele>956.0</ele><time>2026-04-23T08:16:36.999Z</time></trkpt><trkpt lat="42.564586144516205" lon="12.969625424262174"><ele>956.0</ele><time>2026-04-23T08:16:37.999Z</time></trkpt><trkpt lat="42.56441812942039" lon="12.969502910573782"><ele>954.3333333333334</ele><time>2026-04-23T08:16:38.999Z</time></trkpt><trkpt lat="42.56424864937025" lon="12.969372382462069"><ele>952.6666666666667</ele><time>2026-04-23T08:16:39.999Z</time></trkpt><trkpt lat="42.56406929721532" lon="12.969258566196753"><ele>951.0</ele><time>2026-04-23T08:16:40.999Z</time></trkpt><trkpt lat="42.56387952407796" lon="12.969139257241737"><ele>954.3333333333333</ele><time>2026-04-23T08:16:41.999Z</time></trkpt><trkpt lat="42.563686612314754" lon="12.969032974546131"><ele>957.6666666666666</ele><time>2026-04-23T08:16:42.999Z</time></trkpt><trkpt lat="42.56349342009851" lon="12.968934148450353"><ele>961.0</ele><time>2026-04-23T08:16:43.999Z</time></trkpt><trkpt lat="42.56331003177295" lon="12.968851776472736"><ele>961.0</ele><time>2026-04-23T08:16:44.999Z</time></trkpt><trkpt lat="42.56313180992538" lon="12.96878783322503"><ele>961.0</ele><time>2026-04-23T08:16:45.999Z</time></trkpt><trkpt lat="42.56296405243918" lon="12.968737502723606"><ele>961.0</ele><time>2026-04-23T08:16:46.999Z</time></trkpt><trkpt lat="42.56280005438178" lon="12.968696037282477"><ele>963.6666666666666</ele><time>2026-04-23T08:16:47.999Z</time></trkpt><trkpt lat="42.562641222356106" lon="12.968660215874081"><ele>966.3333333333333</ele><time>2026-04-23T08:16:48.999Z</time></trkpt><trkpt lat="42.56247945258158" lon="12.968628648228973"><ele>969.0</ele><time>2026-04-23T08:16:49.999Z</time></trkpt><trkpt lat="42.56231891414697" lon="12.968600606146415"><ele>969.0</ele><time>2026-04-23T08:16:50.999Z</time></trkpt><trkpt lat="42.5621549698719" lon="12.968580059777935"><ele>969.0</ele><time>2026-04-23T08:16:51.999Z</time></trkpt><trkpt lat="42.56198913879227" lon="12.968572268255306"><ele>969.0</ele><time>2026-04-23T08:16:52.999Z</time></trkpt><trkpt lat="42.561832089617944" lon="12.96857302278926"><ele>969.0</ele><time>2026-04-23T08:16:53.999Z</time></trkpt><trkpt lat="42.56168369225978" lon="12.968575130704556"><ele>969.0</ele><time>2026-04-23T08:16:54.999Z</time></trkpt><trkpt lat="42.56154110217285" lon="12.968575273881596"><ele>969.0</ele><time>2026-04-23T08:16:55.999Z</time></trkpt><trkpt lat="42.56139603696141" lon="12.968575638027575"><ele>969.0</ele><time>2026-04-23T08:16:56.999Z</time></trkpt><trkpt lat="42.56123650960583" lon="12.968578307668349"><ele>969.3333333333333</ele><time>2026-04-23T08:16:57.999Z</time></trkpt><trkpt lat="42.56108203539324" lon="12.968579989785784"><ele>969.6666666666666</ele><time>2026-04-23T08:16:58.999Z</time></trkpt><trkpt lat="42.5609312249461" lon="12.968578625380875"><ele>970.0</ele><time>2026-04-23T08:16:59.999Z</time></trkpt><trkpt lat="42.5607866297128" lon="12.96855855514912"><ele>970.0</ele><time>2026-04-23T08:17:00.999Z</time></trkpt><trkpt lat="42.5606388051961" lon="12.968532559303823"><ele>970.0</ele><time>2026-04-23T08:17:01.999Z</time></trkpt><trkpt lat="42.5605117267043" lon="12.968421196375573"><ele>970.0</ele><time>2026-04-23T08:17:02.999Z</time></trkpt><trkpt lat="42.56037942765487" lon="12.968304660529718"><ele>968.6666666666666</ele><time>2026-04-23T08:17:03.999Z</time></trkpt><trkpt lat="42.56024434316581" lon="12.968174294776432"><ele>967.3333333333333</ele><time>2026-04-23T08:17:04.999Z</time></trkpt><trkpt lat="42.560117508767384" lon="12.968044844628325"><ele>966.0</ele><time>2026-04-23T08:17:06Z</time></trkpt><trkpt lat="42.55999925741554" lon="12.967919285415665"><ele>966.0</ele><time>2026-04-23T08:17:07Z</time></trkpt><trkpt lat="42.55988857575451" lon="12.967796264372112"><ele>966.0</ele><time>2026-04-23T08:17:08Z</time></trkpt><trkpt lat="42.55969020370542" lon="12.96757065230439"><ele>966.0</ele><time>2026-04-23T08:17:10Z</time></trkpt><trkpt lat="42.55961376135313" lon="12.967450804139622"><ele>967.0</ele><time>2026-04-23T08:17:11Z</time></trkpt><trkpt lat="42.55954314686196" lon="12.967323821327808"><ele>968.0</ele><time>2026-04-23T08:17:12Z</time></trkpt><trkpt lat="42.559480195775166" lon="12.96718656494369"><ele>969.0</ele><time>2026-04-23T08:17:13Z</time></trkpt><trkpt lat="42.55942707014142" lon="12.967042821359247"><ele>970.0</ele><time>2026-04-23T08:17:14Z</time></trkpt><trkpt lat="42.559386967517376" lon="12.966901081949954"><ele>970.0</ele><time>2026-04-23T08:17:15Z</time></trkpt><trkpt lat="42.55938542939809" lon="12.966763756281159"><ele>970.0</ele><time>2026-04-23T08:17:16Z</time></trkpt><trkpt lat="42.559381794849585" lon="12.96665045675827"><ele>970.0</ele><time>2026-04-23T08:17:17Z</time></trkpt><trkpt lat="42.55938487527393" lon="12.966530390212757"><ele>970.0</ele><time>2026-04-23T08:17:19Z</time></trkpt><trkpt lat="42.55926894511295" lon="12.966541577026769"><ele>970.0</ele><time>2026-04-23T08:17:20Z</time></trkpt><trkpt lat="42.5592778643426" lon="12.966711727506592"><ele>970.0</ele><time>2026-04-23T08:17:23Z</time></trkpt><trkpt lat="42.55936051852133" lon="12.966884836577991"><ele>970.0</ele><time>2026-04-23T08:17:25Z</time></trkpt><trkpt lat="42.559410477139814" lon="12.967039110514179"><ele>970.0</ele><time>2026-04-23T08:17:26Z</time></trkpt><trkpt lat="42.55946638956164" lon="12.967186901425768"><ele>970.0</ele><time>2026-04-23T08:17:27Z</time></trkpt><trkpt lat="42.55952853315648" lon="12.96732439619711"><ele>969.0</ele><time>2026-04-23T08:17:28Z</time></trkpt><trkpt lat="42.55959938817953" lon="12.967459540502752"><ele>968.0</ele><time>2026-04-23T08:17:29Z</time></trkpt><trkpt lat="42.55968747083721" lon="12.967598390834192"><ele>967.0</ele><time>2026-04-23T08:17:30Z</time></trkpt><trkpt lat="42.5597859107883" lon="12.96773613824452"><ele>966.0</ele><time>2026-04-23T08:17:31Z</time></trkpt><trkpt lat="42.5598777112398" lon="12.967848765887188"><ele>966.0</ele><time>2026-04-23T08:17:32Z</time></trkpt><trkpt lat="42.55996289814536" lon="12.967934384265547"><ele>965.9999999999999</ele><time>2026-04-23T08:17:33Z</time></trkpt><trkpt lat="42.56004095355675" lon="12.968012876927077"><ele>965.9999999999999</ele><time>2026-04-23T08:17:34Z</time></trkpt><trkpt lat="42.560122815216324" lon="12.968103625094308"><ele>966.0</ele><time>2026-04-23T08:17:35Z</time></trkpt><trkpt lat="42.56021740178947" lon="12.968195266582518"><ele>966.0</ele><time>2026-04-23T08:17:36Z</time></trkpt><trkpt lat="42.560319129895944" lon="12.968288830559775"><ele>967.0</ele><time>2026-04-23T08:17:37Z</time></trkpt><trkpt lat="42.56042567007234" lon="12.968387520284855"><ele>968.0</ele><time>2026-04-23T08:17:38Z</time></trkpt><trkpt lat="42.56053472576684" lon="12.968486226716982"><ele>969.0</ele><time>2026-04-23T08:17:39Z</time></trkpt><trkpt lat="42.560645548391065" lon="12.968567519087355"><ele>970.0</ele><time>2026-04-23T08:17:40Z</time></trkpt><trkpt lat="42.560748125943526" lon="12.968635224146821"><ele>970.0</ele><time>2026-04-23T08:17:41Z</time></trkpt><trkpt lat="42.560841250261454" lon="12.968716816028335"><ele>970.0</ele><time>2026-04-23T08:17:42Z</time></trkpt><trkpt lat="42.560934181068205" lon="12.968732406871593"><ele>970.0</ele><time>2026-04-23T08:17:43Z</time></trkpt><trkpt lat="42.561030912324625" lon="12.968756474565012"><ele>970.0</ele><time>2026-04-23T08:17:44Z</time></trkpt><trkpt lat="42.56113325719575" lon="12.968780970005284"><ele>970.0</ele><time>2026-04-23T08:17:45Z</time></trkpt><trkpt lat="42.561233612739564" lon="12.968784836653207"><ele>969.8</ele><time>2026-04-23T08:17:46Z</time></trkpt><trkpt lat="42.5613237083742" lon="12.968797680969292"><ele>969.6</ele><time>2026-04-23T08:17:47Z</time></trkpt><trkpt lat="42.56141808961406" lon="12.968826869857047"><ele>969.4000000000001</ele><time>2026-04-23T08:17:48Z</time></trkpt><trkpt lat="42.561513248364676" lon="12.968834008182506"><ele>969.2</ele><time>2026-04-23T08:17:49Z</time></trkpt><trkpt lat="42.56158892953078" lon="12.96890112052045"><ele>969.0</ele><time>2026-04-23T08:17:50Z</time></trkpt><trkpt lat="42.56168637028628" lon="12.968943340677617"><ele>969.0</ele><time>2026-04-23T08:17:51Z</time></trkpt><trkpt lat="42.56176077119883" lon="12.968985767906563"><ele>969.0000000000001</ele><time>2026-04-23T08:17:52Z</time></trkpt><trkpt lat="42.56186972569219" lon="12.96906485246062"><ele>969.0000000000001</ele><time>2026-04-23T08:17:54Z</time></trkpt><trkpt lat="42.561944448775094" lon="12.969167523606258"><ele>969.0</ele><time>2026-04-23T08:17:56Z</time></trkpt><trkpt lat="42.56197689542253" lon="12.969321757899417"><ele>969.0</ele><time>2026-04-23T08:17:58Z</time></trkpt><trkpt lat="42.5620011101425" lon="12.969443756885703"><ele>969.75</ele><time>2026-04-23T08:17:59Z</time></trkpt><trkpt lat="42.56202104735086" lon="12.969546429310535"><ele>970.5</ele><time>2026-04-23T08:18:00Z</time></trkpt><trkpt lat="42.5620663000171" lon="12.969679685091007"><ele>971.25</ele><time>2026-04-23T08:18:02Z</time></trkpt><trkpt lat="42.561923672633654" lon="12.969820209048224"><ele>972.0</ele><time>2026-04-23T08:18:05Z</time></trkpt><trkpt lat="42.561845787911665" lon="12.969924777589275"><ele>972.3333333333334</ele><time>2026-04-23T08:18:06Z</time></trkpt><trkpt lat="42.56178130029486" lon="12.970013855629423"><ele>972.6666666666667</ele><time>2026-04-23T08:18:07Z</time></trkpt><trkpt lat="42.5617515090484" lon="12.970125931276304"><ele>973.0</ele><time>2026-04-23T08:18:08Z</time></trkpt><trkpt lat="42.561716964844464" lon="12.970242693510988"><ele>973.3333333333334</ele><time>2026-04-23T08:18:09Z</time></trkpt><trkpt lat="42.56168908552632" lon="12.970335830988848"><ele>973.6666666666667</ele><time>2026-04-23T08:18:10Z</time></trkpt><trkpt lat="42.5616399471414" lon="12.97044978552374"><ele>974.0</ele><time>2026-04-23T08:18:11Z</time></trkpt><trkpt lat="42.5615795319928" lon="12.970546776273371"><ele>974.0</ele><time>2026-04-23T08:18:12Z</time></trkpt><trkpt lat="42.561512276527566" lon="12.970639073902417"><ele>974.0000000000001</ele><time>2026-04-23T08:18:13Z</time></trkpt><trkpt lat="42.56144568000237" lon="12.970743341813927"><ele>974.0000000000001</ele><time>2026-04-23T08:18:14Z</time></trkpt><trkpt lat="42.561366397156306" lon="12.970832467291318"><ele>974.0</ele><time>2026-04-23T08:18:15Z</time></trkpt><trkpt lat="42.56127967355341" lon="12.97093170889782"><ele>974.0</ele><time>2026-04-23T08:18:16Z</time></trkpt><trkpt lat="42.56118461101588" lon="12.971039776526727"><ele>974.0</ele><time>2026-04-23T08:18:16.999Z</time></trkpt><trkpt lat="42.56109567919608" lon="12.971156151514837"><ele>974.0</ele><time>2026-04-23T08:18:17.999Z</time></trkpt><trkpt lat="42.56098849207132" lon="12.971254223743706"><ele>974.0</ele><time>2026-04-23T08:18:18.999Z</time></trkpt><trkpt lat="42.56090213426748" lon="12.971347255259557"><ele>974.0</ele><time>2026-04-23T08:18:19.999Z</time></trkpt><trkpt lat="42.56083287110998" lon="12.971439321940698"><ele>974.0</ele><time>2026-04-23T08:18:20.999Z</time></trkpt><trkpt lat="42.560739162744554" lon="12.9715163739357"><ele>974.0</ele><time>2026-04-23T08:18:21.999Z</time></trkpt><trkpt lat="42.56064217318737" lon="12.971610242560892"><ele>974.0</ele><time>2026-04-23T08:18:22.999Z</time></trkpt><trkpt lat="42.5605411034857" lon="12.97169063706251"><ele>974.0</ele><time>2026-04-23T08:18:23.999Z</time></trkpt><trkpt lat="42.56043616920634" lon="12.971778790165171"><ele>973.0</ele><time>2026-04-23T08:18:24.999Z</time></trkpt><trkpt lat="42.56033189831132" lon="12.971849515161152"><ele>972.0000000000001</ele><time>2026-04-23T08:18:25.999Z</time></trkpt><trkpt lat="42.56024296334611" lon="12.971926084831798"><ele>971.0000000000001</ele><time>2026-04-23T08:18:26.999Z</time></trkpt><trkpt lat="42.56015615307721" lon="12.97200082522222"><ele>970.0</ele><time>2026-04-23T08:18:27.999Z</time></trkpt><trkpt lat="42.56008442944362" lon="12.972089584262356"><ele>969.0</ele><time>2026-04-23T08:18:28.999Z</time></trkpt><trkpt lat="42.560004611133714" lon="12.972147588844177"><ele>969.0</ele><time>2026-04-23T08:18:29.999Z</time></trkpt><trkpt lat="42.55993983846122" lon="12.972195512712682"><ele>969.0</ele><time>2026-04-23T08:18:30.999Z</time></trkpt><trkpt lat="42.55990345541126" lon="12.972274117141687"><ele>969.0</ele><time>2026-04-23T08:18:31.999Z</time></trkpt><trkpt lat="42.55989383350025" lon="12.972382026274696"><ele>969.0</ele><time>2026-04-23T08:18:32.999Z</time></trkpt><trkpt lat="42.55987108754185" lon="12.972516498365616"><ele>969.0</ele><time>2026-04-23T08:18:33.999Z</time></trkpt><trkpt lat="42.55983555869075" lon="12.97262925687622"><ele>969.0</ele><time>2026-04-23T08:18:34.999Z</time></trkpt><trkpt lat="42.559786484667306" lon="12.972684991547398"><ele>968.2</ele><time>2026-04-23T08:18:35.999Z</time></trkpt><trkpt lat="42.559728660690155" lon="12.972724724583493"><ele>967.4000000000001</ele><time>2026-04-23T08:18:36.999Z</time></trkpt><trkpt lat="42.55972224294019" lon="12.972896016200155"><ele>966.6</ele><time>2026-04-23T08:18:38.999Z</time></trkpt><trkpt lat="42.559626062996536" lon="12.973021200079296"><ele>965.8</ele><time>2026-04-23T08:18:40.999Z</time></trkpt><trkpt lat="42.55955477998246" lon="12.973100353870818"><ele>965.0</ele><time>2026-04-23T08:18:41.999Z</time></trkpt><trkpt lat="42.55947650019717" lon="12.973188579920185"><ele>965.0000000000001</ele><time>2026-04-23T08:18:42.999Z</time></trkpt><trkpt lat="42.5593933005424" lon="12.9732704306141"><ele>965.0</ele><time>2026-04-23T08:18:43.999Z</time></trkpt><trkpt lat="42.559327947198305" lon="12.973339199899593"><ele>965.0</ele><time>2026-04-23T08:18:44.999Z</time></trkpt><trkpt lat="42.559283361521416" lon="12.973413362707321"><ele>965.0</ele><time>2026-04-23T08:18:45.999Z</time></trkpt><trkpt lat="42.55925180538471" lon="12.973495252462717"><ele>965.0000000000001</ele><time>2026-04-23T08:18:46.999Z</time></trkpt><trkpt lat="42.55923375219382" lon="12.973631811260026"><ele>965.0</ele><time>2026-04-23T08:18:48.999Z</time></trkpt><trkpt lat="42.55922565899235" lon="12.973820381866624"><ele>965.0000000000001</ele><time>2026-04-23T08:18:50.999Z</time></trkpt><trkpt lat="42.55923862261508" lon="12.97392623810559"><ele>965.0</ele><time>2026-04-23T08:18:51.999Z</time></trkpt><trkpt lat="42.55926145026381" lon="12.97403322661971"><ele>965.0</ele><time>2026-04-23T08:18:52.999Z</time></trkpt><trkpt lat="42.559287724503776" lon="12.974126622092186"><ele>965.0</ele><time>2026-04-23T08:18:53.999Z</time></trkpt><trkpt lat="42.55930221420176" lon="12.974224807458304"><ele>965.0000000000001</ele><time>2026-04-23T08:18:54.999Z</time></trkpt><trkpt lat="42.559290053126674" lon="12.97432276947683"><ele>965.0</ele><time>2026-04-23T08:18:55.999Z</time></trkpt><trkpt lat="42.55927279936042" lon="12.97442558400912"><ele>964.6666666666667</ele><time>2026-04-23T08:18:56.999Z</time></trkpt><trkpt lat="42.55926023033546" lon="12.974552063431295"><ele>964.3333333333334</ele><time>2026-04-23T08:18:57.999Z</time></trkpt><trkpt lat="42.559236899724446" lon="12.974663847139286"><ele>964.0</ele><time>2026-04-23T08:18:58.999Z</time></trkpt><trkpt lat="42.559228473044804" lon="12.974754629664156"><ele>963.6666666666667</ele><time>2026-04-23T08:18:59.999Z</time></trkpt><trkpt lat="42.55923023445694" lon="12.974869164072693"><ele>963.3333333333334</ele><time>2026-04-23T08:19:00.999Z</time></trkpt><trkpt lat="42.55923379380205" lon="12.97497878732202"><ele>963.0</ele><time>2026-04-23T08:19:01.999Z</time></trkpt><trkpt lat="42.55923070755718" lon="12.975100502927091"><ele>962.5</ele><time>2026-04-23T08:19:02.999Z</time></trkpt><trkpt lat="42.559219636003576" lon="12.975218924513449"><ele>962.0</ele><time>2026-04-23T08:19:03.999Z</time></trkpt><trkpt lat="42.55919609697803" lon="12.975341765402861"><ele>961.5</ele><time>2026-04-23T08:19:04.999Z</time></trkpt><trkpt lat="42.55916718370609" lon="12.97542768826089"><ele>961.0</ele><time>2026-04-23T08:19:05.999Z</time></trkpt><trkpt lat="42.5591458785141" lon="12.975515078666533"><ele>960.5</ele><time>2026-04-23T08:19:06.999Z</time></trkpt><trkpt lat="42.55913002306947" lon="12.975620658579741"><ele>960.0</ele><time>2026-04-23T08:19:07.999Z</time></trkpt><trkpt lat="42.55911508368646" lon="12.975725510139911"><ele>960.0</ele><time>2026-04-23T08:19:08.999Z</time></trkpt><trkpt lat="42.55911169468299" lon="12.975824232736871"><ele>960.0</ele><time>2026-04-23T08:19:09.999Z</time></trkpt><trkpt lat="42.55911013228787" lon="12.975939128245004"><ele>960.0</ele><time>2026-04-23T08:19:10.999Z</time></trkpt><trkpt lat="42.559113855468325" lon="12.97604745366993"><ele>960.0</ele><time>2026-04-23T08:19:12Z</time></trkpt><trkpt lat="42.55910196113303" lon="12.976276782564026"><ele>960.0</ele><time>2026-04-23T08:19:14Z</time></trkpt><trkpt lat="42.55907761056976" lon="12.976409981016202"><ele>959.6666666666666</ele><time>2026-04-23T08:19:15Z</time></trkpt><trkpt lat="42.55905661614558" lon="12.976532826718365"><ele>959.3333333333333</ele><time>2026-04-23T08:19:16Z</time></trkpt><trkpt lat="42.559039492981306" lon="12.976645358992174"><ele>959.0</ele><time>2026-04-23T08:19:17Z</time></trkpt><trkpt lat="42.55901292619991" lon="12.976738548528797"><ele>958.6666666666666</ele><time>2026-04-23T08:19:18Z</time></trkpt><trkpt lat="42.558974314898556" lon="12.976847368242204"><ele>958.3333333333333</ele><time>2026-04-23T08:19:19Z</time></trkpt><trkpt lat="42.55891360654997" lon="12.976955218611065"><ele>958.0</ele><time>2026-04-23T08:19:20Z</time></trkpt><trkpt lat="42.55886833414178" lon="12.977058228878155"><ele>957.8333333333333</ele><time>2026-04-23T08:19:21Z</time></trkpt><trkpt lat="42.55883494139717" lon="12.977177529953273"><ele>957.6666666666666</ele><time>2026-04-23T08:19:22Z</time></trkpt><trkpt lat="42.55879120421599" lon="12.977299880373039"><ele>957.5</ele><time>2026-04-23T08:19:23Z</time></trkpt><trkpt lat="42.55875445835097" lon="12.977404988190017"><ele>957.3333333333333</ele><time>2026-04-23T08:19:24Z</time></trkpt><trkpt lat="42.55871214633805" lon="12.97750182802098"><ele>957.1666666666666</ele><time>2026-04-23T08:19:25Z</time></trkpt><trkpt lat="42.55867706499822" lon="12.977581992436136"><ele>957.0</ele><time>2026-04-23T08:19:26Z</time></trkpt><trkpt lat="42.5586313667731" lon="12.97766105693948"><ele>955.6</ele><time>2026-04-23T08:19:27Z</time></trkpt><trkpt lat="42.55856166431437" lon="12.977765130113225"><ele>954.2</ele><time>2026-04-23T08:19:28Z</time></trkpt><trkpt lat="42.558499965254285" lon="12.977858872956595"><ele>952.8</ele><time>2026-04-23T08:19:29Z</time></trkpt><trkpt lat="42.558447296318526" lon="12.977941788437152"><ele>951.4</ele><time>2026-04-23T08:19:30Z</time></trkpt><trkpt lat="42.55838880226651" lon="12.978036935389358"><ele>950.0</ele><time>2026-04-23T08:19:31Z</time></trkpt><trkpt lat="42.558329633906595" lon="12.978143344621161"><ele>950.0000000000001</ele><time>2026-04-23T08:19:32Z</time></trkpt><trkpt lat="42.558273524199244" lon="12.978248104933234"><ele>950.0</ele><time>2026-04-23T08:19:33Z</time></trkpt><trkpt lat="42.55823748037392" lon="12.97833887987599"><ele>950.0</ele><time>2026-04-23T08:19:34Z</time></trkpt><trkpt lat="42.55818071725712" lon="12.978427470216241"><ele>950.0</ele><time>2026-04-23T08:19:35Z</time></trkpt><trkpt lat="42.55812114267181" lon="12.978519346409785"><ele>950.0000000000001</ele><time>2026-04-23T08:19:36Z</time></trkpt><trkpt lat="42.558073472432156" lon="12.978618204247358"><ele>950.0</ele><time>2026-04-23T08:19:37Z</time></trkpt><trkpt lat="42.55801548726631" lon="12.978719503662376"><ele>950.1666666666667</ele><time>2026-04-23T08:19:38Z</time></trkpt><trkpt lat="42.55797200761677" lon="12.978814189530626"><ele>950.3333333333334</ele><time>2026-04-23T08:19:39Z</time></trkpt><trkpt lat="42.557923245940586" lon="12.978904836819352"><ele>950.5</ele><time>2026-04-23T08:19:40Z</time></trkpt><trkpt lat="42.55786939978481" lon="12.97900562608543"><ele>950.6666666666667</ele><time>2026-04-23T08:19:41Z</time></trkpt><trkpt lat="42.557812855272815" lon="12.979085330439084"><ele>950.8333333333334</ele><time>2026-04-23T08:19:42Z</time></trkpt><trkpt lat="42.557745675236106" lon="12.979168640571674"><ele>951.0</ele><time>2026-04-23T08:19:43Z</time></trkpt><trkpt lat="42.55768239619648" lon="12.97924872591245"><ele>949.8333333333334</ele><time>2026-04-23T08:19:44Z</time></trkpt><trkpt lat="42.55762761280137" lon="12.979327359783085"><ele>948.6666666666667</ele><time>2026-04-23T08:19:45Z</time></trkpt><trkpt lat="42.55756901504403" lon="12.979403907317677"><ele>947.5</ele><time>2026-04-23T08:19:46Z</time></trkpt><trkpt lat="42.5575204370364" lon="12.979467184866845"><ele>946.3333333333334</ele><time>2026-04-23T08:19:47Z</time></trkpt><trkpt lat="42.55742644967984" lon="12.979584918935604"><ele>945.1666666666667</ele><time>2026-04-23T08:19:49Z</time></trkpt><trkpt lat="42.5573751928085" lon="12.979650695366733"><ele>944.0</ele><time>2026-04-23T08:19:50Z</time></trkpt><trkpt lat="42.55731011753335" lon="12.979706705266624"><ele>944.0</ele><time>2026-04-23T08:19:53Z</time></trkpt><trkpt lat="42.557267438922906" lon="12.979781678000462"><ele>944.0000000000001</ele><time>2026-04-23T08:20:40.999Z</time></trkpt><trkpt lat="42.55717665423337" lon="12.97984860607025"><ele>944.0000000000001</ele><time>2026-04-23T08:20:42.999Z</time></trkpt><trkpt lat="42.55711588298656" lon="12.97990775499834"><ele>944.0</ele><time>2026-04-23T08:20:43.999Z</time></trkpt><trkpt lat="42.5570172285708" lon="12.980002592930457"><ele>944.0</ele><time>2026-04-23T08:20:45.999Z</time></trkpt><trkpt lat="42.556915735008594" lon="12.9800792901472"><ele>943.5000000000001</ele><time>2026-04-23T08:20:47.999Z</time></trkpt><trkpt lat="42.55680468086358" lon="12.980138910378413"><ele>943.0</ele><time>2026-04-23T08:20:49.999Z</time></trkpt><trkpt lat="42.556745376478034" lon="12.980184249286769"><ele>942.5</ele><time>2026-04-23T08:20:50.999Z</time></trkpt><trkpt lat="42.55668813182305" lon="12.980238238085176"><ele>942.0</ele><time>2026-04-23T08:20:51.999Z</time></trkpt><trkpt lat="42.55662987205869" lon="12.980292606917688"><ele>941.5000000000001</ele><time>2026-04-23T08:20:52.999Z</time></trkpt><trkpt lat="42.55658070645117" lon="12.980365224299373"><ele>941.0</ele><time>2026-04-23T08:20:53.999Z</time></trkpt><trkpt lat="42.556519842990475" lon="12.980412827848529"><ele>941.0000000000001</ele><time>2026-04-23T08:20:54.999Z</time></trkpt><trkpt lat="42.55641605595077" lon="12.980490990702558"><ele>941.0</ele><time>2026-04-23T08:20:56.999Z</time></trkpt><trkpt lat="42.55637146206685" lon="12.980559284090518"><ele>941.0</ele><time>2026-04-23T08:20:57.999Z</time></trkpt><trkpt lat="42.556327654343804" lon="12.980643763792548"><ele>941.0</ele><time>2026-04-23T08:20:58.999Z</time></trkpt><trkpt lat="42.55627824905599" lon="12.98072196459682"><ele>941.0000000000001</ele><time>2026-04-23T08:20:59.999Z</time></trkpt><trkpt lat="42.556220395757826" lon="12.980812907878954"><ele>941.0</ele><time>2026-04-23T08:21:00.999Z</time></trkpt><trkpt lat="42.55616470645345" lon="12.9809143292553"><ele>941.5000000000001</ele><time>2026-04-23T08:21:01.999Z</time></trkpt><trkpt lat="42.556106402656546" lon="12.981012906111147"><ele>942.0</ele><time>2026-04-23T08:21:02.999Z</time></trkpt><trkpt lat="42.55605207788405" lon="12.981118564661553"><ele>942.5</ele><time>2026-04-23T08:21:03.999Z</time></trkpt><trkpt lat="42.55600421278274" lon="12.981209690063604"><ele>943.0</ele><time>2026-04-23T08:21:04.999Z</time></trkpt><trkpt lat="42.555957653889905" lon="12.98131167668146"><ele>943.5000000000001</ele><time>2026-04-23T08:21:05.999Z</time></trkpt><trkpt lat="42.555918080344384" lon="12.981409073011372"><ele>944.0</ele><time>2026-04-23T08:21:06.999Z</time></trkpt><trkpt lat="42.555876087111734" lon="12.981507681407832"><ele>944.0000000000001</ele><time>2026-04-23T08:21:07.999Z</time></trkpt><trkpt lat="42.55583152882312" lon="12.981612691597535"><ele>944.0</ele><time>2026-04-23T08:21:08.999Z</time></trkpt><trkpt lat="42.55580137559895" lon="12.981698476039318"><ele>944.0</ele><time>2026-04-23T08:21:09.999Z</time></trkpt><trkpt lat="42.555776340586014" lon="12.98179875038441"><ele>944.0</ele><time>2026-04-23T08:21:10.999Z</time></trkpt><trkpt lat="42.55575125580084" lon="12.981900323038609"><ele>944.0000000000001</ele><time>2026-04-23T08:21:11.999Z</time></trkpt><trkpt lat="42.55570552218911" lon="12.982035567448568"><ele>944.0</ele><time>2026-04-23T08:21:13.999Z</time></trkpt><trkpt lat="42.555625282148824" lon="12.982136245711924"><ele>943.6</ele><time>2026-04-23T08:21:15.999Z</time></trkpt><trkpt lat="42.555504161935836" lon="12.982222039673768"><ele>943.2</ele><time>2026-04-23T08:21:18Z</time></trkpt><trkpt lat="42.55543047437463" lon="12.982284383067446"><ele>942.8000000000001</ele><time>2026-04-23T08:21:19Z</time></trkpt><trkpt lat="42.55534663807455" lon="12.982348314843511"><ele>942.4000000000001</ele><time>2026-04-23T08:21:20Z</time></trkpt><trkpt lat="42.55527560687225" lon="12.982412258065878"><ele>942.0</ele><time>2026-04-23T08:21:21Z</time></trkpt><trkpt lat="42.55520184383745" lon="12.982471911268547"><ele>942.1666666666666</ele><time>2026-04-23T08:21:22Z</time></trkpt><trkpt lat="42.555131180521094" lon="12.982525337942311"><ele>942.3333333333333</ele><time>2026-04-23T08:21:23Z</time></trkpt><trkpt lat="42.555059916190736" lon="12.982590119413947"><ele>942.5</ele><time>2026-04-23T08:21:24Z</time></trkpt><trkpt lat="42.55498936421308" lon="12.982674076158252"><ele>942.6666666666666</ele><time>2026-04-23T08:21:25Z</time></trkpt><trkpt lat="42.55493801549834" lon="12.982766527146255"><ele>942.8333333333333</ele><time>2026-04-23T08:21:26Z</time></trkpt><trkpt lat="42.5548864127728" lon="12.982874474850846"><ele>943.0</ele><time>2026-04-23T08:21:27Z</time></trkpt><trkpt lat="42.55483862036855" lon="12.982988770587937"><ele>943.0</ele><time>2026-04-23T08:21:28Z</time></trkpt><trkpt lat="42.55478776889456" lon="12.98310574332327"><ele>943.0</ele><time>2026-04-23T08:21:29Z</time></trkpt><trkpt lat="42.55473988822952" lon="12.983208146196935"><ele>943.0</ele><time>2026-04-23T08:21:30Z</time></trkpt><trkpt lat="42.55470000090439" lon="12.983316899740295"><ele>943.0</ele><time>2026-04-23T08:21:31Z</time></trkpt><trkpt lat="42.554655950208534" lon="12.98342295425185"><ele>943.0</ele><time>2026-04-23T08:21:32Z</time></trkpt><trkpt lat="42.55462683512343" lon="12.98353792596665"><ele>941.8333333333333</ele><time>2026-04-23T08:21:33Z</time></trkpt><trkpt lat="42.55459883143145" lon="12.983651549747101"><ele>940.6666666666666</ele><time>2026-04-23T08:21:34Z</time></trkpt><trkpt lat="42.554564342143834" lon="12.983761322788588"><ele>939.5</ele><time>2026-04-23T08:21:35Z</time></trkpt><trkpt lat="42.5545252557674" lon="12.98386316974602"><ele>938.3333333333333</ele><time>2026-04-23T08:21:36Z</time></trkpt><trkpt lat="42.55447244018628" lon="12.983977285926583"><ele>937.1666666666666</ele><time>2026-04-23T08:21:37Z</time></trkpt><trkpt lat="42.55442169143646" lon="12.984076877664519"><ele>936.0</ele><time>2026-04-23T08:21:38Z</time></trkpt><trkpt lat="42.5543675619116" lon="12.98416831563781"><ele>938.1666666666666</ele><time>2026-04-23T08:21:39Z</time></trkpt><trkpt lat="42.55430953446599" lon="12.984250661125342"><ele>940.3333333333333</ele><time>2026-04-23T08:21:40Z</time></trkpt><trkpt lat="42.554269393997615" lon="12.984340387729247"><ele>942.5</ele><time>2026-04-23T08:21:41Z</time></trkpt><trkpt lat="42.55421858078917" lon="12.984434643837764"><ele>944.6666666666666</ele><time>2026-04-23T08:21:42Z</time></trkpt><trkpt lat="42.55419003623977" lon="12.984531249118966"><ele>946.8333333333333</ele><time>2026-04-23T08:21:43Z</time></trkpt><trkpt lat="42.55414581437019" lon="12.984634974421075"><ele>949.0</ele><time>2026-04-23T08:21:44Z</time></trkpt><trkpt lat="42.55410828026758" lon="12.984730595129655"><ele>948.9999999999999</ele><time>2026-04-23T08:21:45Z</time></trkpt><trkpt lat="42.5540865598789" lon="12.984829038635041"><ele>949.0</ele><time>2026-04-23T08:21:46Z</time></trkpt><trkpt lat="42.554070049542446" lon="12.98491713196503"><ele>949.0</ele><time>2026-04-23T08:21:47Z</time></trkpt><trkpt lat="42.55406355266777" lon="12.985027251682322"><ele>949.0</ele><time>2026-04-23T08:21:48Z</time></trkpt><trkpt lat="42.5540668427945" lon="12.985170178600917"><ele>948.9999999999999</ele><time>2026-04-23T08:21:49Z</time></trkpt><trkpt lat="42.55406604135248" lon="12.985276440546693"><ele>949.0</ele><time>2026-04-23T08:21:50Z</time></trkpt><trkpt lat="42.55405951823549" lon="12.985361679299631"><ele>948.9999999999999</ele><time>2026-04-23T08:21:51Z</time></trkpt><trkpt lat="42.55403373526111" lon="12.985457180303445"><ele>949.0</ele><time>2026-04-23T08:21:53Z</time></trkpt><trkpt lat="42.55400788051322" lon="12.985543445002913"><ele>949.0</ele><time>2026-04-23T08:21:54Z</time></trkpt><trkpt lat="42.553949411269336" lon="12.985704350675036"><ele>949.0</ele><time>2026-04-23T08:21:56Z</time></trkpt><trkpt lat="42.55390056286933" lon="12.985813759616878"><ele>948.9999999999999</ele><time>2026-04-23T08:21:57Z</time></trkpt><trkpt lat="42.55385986849501" lon="12.985906315218738"><ele>949.0</ele><time>2026-04-23T08:21:58Z</time></trkpt><trkpt lat="42.55382319197755" lon="12.985993910325577"><ele>948.8000000000001</ele><time>2026-04-23T08:21:59Z</time></trkpt><trkpt lat="42.5537687326658" lon="12.986095032904567"><ele>948.6000000000001</ele><time>2026-04-23T08:22:00Z</time></trkpt><trkpt lat="42.55371338458068" lon="12.986194237383236"><ele>948.4</ele><time>2026-04-23T08:22:01Z</time></trkpt><trkpt lat="42.55366578146985" lon="12.986304564407439"><ele>948.2</ele><time>2026-04-23T08:22:02Z</time></trkpt><trkpt lat="42.553623507333974" lon="12.986425530260929"><ele>948.0</ele><time>2026-04-23T08:22:03Z</time></trkpt><trkpt lat="42.55357655018611" lon="12.98653275752371"><ele>951.2</ele><time>2026-04-23T08:22:04Z</time></trkpt><trkpt lat="42.553532062060135" lon="12.986643261281344"><ele>954.4</ele><time>2026-04-23T08:22:05Z</time></trkpt><trkpt lat="42.55349133479684" lon="12.986763772102291"><ele>957.6000000000001</ele><time>2026-04-23T08:22:06Z</time></trkpt><trkpt lat="42.5534612473135" lon="12.986890042371742"><ele>960.8000000000001</ele><time>2026-04-23T08:22:07Z</time></trkpt><trkpt lat="42.55343482514669" lon="12.987022398645099"><ele>964.0</ele><time>2026-04-23T08:22:08Z</time></trkpt><trkpt lat="42.55339674914641" lon="12.987131716032875"><ele>964.0</ele><time>2026-04-23T08:22:09Z</time></trkpt><trkpt lat="42.55337138348982" lon="12.98724614177206"><ele>964.0000000000001</ele><time>2026-04-23T08:22:10Z</time></trkpt><trkpt lat="42.5533292869374" lon="12.98736284971664"><ele>964.0000000000001</ele><time>2026-04-23T08:22:11Z</time></trkpt><trkpt lat="42.553301050008145" lon="12.987464972420385"><ele>964.0</ele><time>2026-04-23T08:22:12Z</time></trkpt><trkpt lat="42.55327161967077" lon="12.987606895816214"><ele>964.0</ele><time>2026-04-23T08:22:13Z</time></trkpt><trkpt lat="42.55324657626862" lon="12.987742009995912"><ele>963.4000000000001</ele><time>2026-04-23T08:22:14Z</time></trkpt><trkpt lat="42.5532072812096" lon="12.987864866783735"><ele>962.8000000000001</ele><time>2026-04-23T08:22:15Z</time></trkpt><trkpt lat="42.55318220246815" lon="12.98800009493444"><ele>962.1999999999999</ele><time>2026-04-23T08:22:16Z</time></trkpt><trkpt lat="42.553173926023966" lon="12.98812587183764"><ele>961.5999999999999</ele><time>2026-04-23T08:22:17Z</time></trkpt><trkpt lat="42.553162111436585" lon="12.988220125082444"><ele>961.0</ele><time>2026-04-23T08:22:18Z</time></trkpt><trkpt lat="42.5530938707839" lon="12.98836409335609"><ele>960.1666666666666</ele><time>2026-04-23T08:22:20Z</time></trkpt><trkpt lat="42.553035651275806" lon="12.988433203804092"><ele>959.3333333333333</ele><time>2026-04-23T08:22:21Z</time></trkpt><trkpt lat="42.5529762582708" lon="12.988509108093593"><ele>958.5</ele><time>2026-04-23T08:22:22Z</time></trkpt><trkpt lat="42.552898941993384" lon="12.98858374816236"><ele>957.6666666666667</ele><time>2026-04-23T08:22:23Z</time></trkpt><trkpt lat="42.55285487732909" lon="12.988667891567708"><ele>956.8333333333334</ele><time>2026-04-23T08:22:24Z</time></trkpt><trkpt lat="42.55282534120828" lon="12.988747001557007"><ele>956.0</ele><time>2026-04-23T08:22:25Z</time></trkpt><trkpt lat="42.55277635013662" lon="12.988839421474756"><ele>957.1999999999999</ele><time>2026-04-23T08:22:27Z</time></trkpt><trkpt lat="42.55275526155964" lon="12.988931263747558"><ele>958.3999999999999</ele><time>2026-04-23T08:22:30Z</time></trkpt><trkpt lat="42.55271203998635" lon="12.989015794598187"><ele>959.6</ele><time>2026-04-23T08:23:13.999Z</time></trkpt><trkpt lat="42.552630882395086" lon="12.989152272784294"><ele>960.8</ele><time>2026-04-23T08:23:15.999Z</time></trkpt><trkpt lat="42.55257785929454" lon="12.989256384104545"><ele>962.0</ele><time>2026-04-23T08:23:16.999Z</time></trkpt><trkpt lat="42.55252141965676" lon="12.989340242350812"><ele>962.0</ele><time>2026-04-23T08:23:17.999Z</time></trkpt><trkpt lat="42.552462992547696" lon="12.989430438596271"><ele>962.0</ele><time>2026-04-23T08:23:18.999Z</time></trkpt><trkpt lat="42.55240237891384" lon="12.989534980453406"><ele>962.0</ele><time>2026-04-23T08:23:19.999Z</time></trkpt><trkpt lat="42.5523547009199" lon="12.989628129081348"><ele>962.0</ele><time>2026-04-23T08:23:20.999Z</time></trkpt><trkpt lat="42.55228516569932" lon="12.989750586759254"><ele>962.0</ele><time>2026-04-23T08:23:22.999Z</time></trkpt><trkpt lat="42.55223426316147" lon="12.989810953718758"><ele>962.0000000000001</ele><time>2026-04-23T08:23:25Z</time></trkpt><trkpt lat="42.552182438584545" lon="12.989878028024043"><ele>962.0</ele><time>2026-04-23T08:23:29Z</time></trkpt><trkpt lat="42.552127090193494" lon="12.989952442386029"><ele>962.0</ele><time>2026-04-23T08:24:57.999Z</time></trkpt><trkpt lat="42.552075071959926" lon="12.990009357037858"><ele>962.0</ele><time>2026-04-23T08:25:01.999Z</time></trkpt><trkpt lat="42.552021127000955" lon="12.990105394796501"><ele>962.0000000000001</ele><time>2026-04-23T08:25:31Z</time></trkpt><trkpt lat="42.551931738150564" lon="12.990212007695732"><ele>962.0</ele><time>2026-04-23T08:25:33Z</time></trkpt><trkpt lat="42.551871100248334" lon="12.990271798373723"><ele>962.5000000000001</ele><time>2026-04-23T08:25:34Z</time></trkpt><trkpt lat="42.55181071788865" lon="12.990334341524306"><ele>963.0</ele><time>2026-04-23T08:25:35Z</time></trkpt><trkpt lat="42.55175409672227" lon="12.990406899801853"><ele>963.5</ele><time>2026-04-23T08:25:36Z</time></trkpt><trkpt lat="42.55168449003569" lon="12.990481936001999"><ele>964.0</ele><time>2026-04-23T08:25:37Z</time></trkpt><trkpt lat="42.55161669291507" lon="12.9905544998848"><ele>964.5000000000001</ele><time>2026-04-23T08:25:38Z</time></trkpt><trkpt lat="42.55154935155773" lon="12.990624170390095"><ele>965.0</ele><time>2026-04-23T08:25:39Z</time></trkpt><trkpt lat="42.55146950658933" lon="12.990691974476432"><ele>965.0000000000001</ele><time>2026-04-23T08:25:40Z</time></trkpt><trkpt lat="42.55138906237938" lon="12.99075617184218"><ele>965.0</ele><time>2026-04-23T08:25:41Z</time></trkpt><trkpt lat="42.55132196861257" lon="12.990826034282764"><ele>965.0</ele><time>2026-04-23T08:25:42Z</time></trkpt><trkpt lat="42.55125714889368" lon="12.99089042347945"><ele>965.0</ele><time>2026-04-23T08:25:43Z</time></trkpt><trkpt lat="42.55120653878252" lon="12.99096311954875"><ele>965.0000000000001</ele><time>2026-04-23T08:25:44Z</time></trkpt><trkpt lat="42.55115982985924" lon="12.991055421067268"><ele>965.0</ele><time>2026-04-23T08:25:45Z</time></trkpt><trkpt lat="42.55110976488475" lon="12.991160856353728"><ele>965.0000000000001</ele><time>2026-04-23T08:25:46Z</time></trkpt><trkpt lat="42.55106773422881" lon="12.991246834763672"><ele>965.0</ele><time>2026-04-23T08:25:47Z</time></trkpt><trkpt lat="42.551018091700655" lon="12.99132777401693"><ele>965.0</ele><time>2026-04-23T08:25:48Z</time></trkpt><trkpt lat="42.550961275068936" lon="12.991407503850061"><ele>965.0</ele><time>2026-04-23T08:25:49Z</time></trkpt><trkpt lat="42.55090220722976" lon="12.991482848204821"><ele>965.0000000000001</ele><time>2026-04-23T08:25:50Z</time></trkpt><trkpt lat="42.55083545769577" lon="12.9915532468372"><ele>965.0</ele><time>2026-04-23T08:25:51Z</time></trkpt><trkpt lat="42.55078199607291" lon="12.991603635705735"><ele>965.0</ele><time>2026-04-23T08:25:52Z</time></trkpt><trkpt lat="42.5507109779476" lon="12.991664117649545"><ele>965.0</ele><time>2026-04-23T08:25:54Z</time></trkpt><trkpt lat="42.55062936465186" lon="12.991741716834776"><ele>965.0</ele><time>2026-04-23T08:26:06Z</time></trkpt><trkpt lat="42.550539607492574" lon="12.991813579282443"><ele>965.0</ele><time>2026-04-23T08:26:08Z</time></trkpt><trkpt lat="42.55045697230635" lon="12.991890273027765"><ele>965.0</ele><time>2026-04-23T08:26:10Z</time></trkpt><trkpt lat="42.55039144357972" lon="12.991965565747815"><ele>964.7142857142857</ele><time>2026-04-23T08:26:12Z</time></trkpt><trkpt lat="42.550345431940144" lon="12.9920247293923"><ele>964.4285714285716</ele><time>2026-04-23T08:26:13Z</time></trkpt><trkpt lat="42.55028599899085" lon="12.992091214673248"><ele>964.1428571428572</ele><time>2026-04-23T08:26:14Z</time></trkpt><trkpt lat="42.550226771459194" lon="12.992147460832356"><ele>963.8571428571429</ele><time>2026-04-23T08:26:15Z</time></trkpt><trkpt lat="42.55016972278194" lon="12.992210595663204"><ele>963.5714285714287</ele><time>2026-04-23T08:26:16Z</time></trkpt><trkpt lat="42.550115422625204" lon="12.99226486191731"><ele>963.2857142857144</ele><time>2026-04-23T08:26:17Z</time></trkpt><trkpt lat="42.550064566582854" lon="12.99232284359659"><ele>963.0000000000001</ele><time>2026-04-23T08:26:18Z</time></trkpt><trkpt lat="42.54995753000665" lon="12.992439165691353"><ele>963.0</ele><time>2026-04-23T08:26:20Z</time></trkpt><trkpt lat="42.54989004499642" lon="12.992527912384238"><ele>963.0</ele><time>2026-04-23T08:26:21Z</time></trkpt><trkpt lat="42.549834819054226" lon="12.992610248720174"><ele>963.0</ele><time>2026-04-23T08:26:22Z</time></trkpt><trkpt lat="42.54977774291672" lon="12.992696007031048"><ele>963.0</ele><time>2026-04-23T08:26:23Z</time></trkpt><trkpt lat="42.54974176919316" lon="12.992783140633339"><ele>963.0</ele><time>2026-04-23T08:26:24Z</time></trkpt><trkpt lat="42.54971814734556" lon="12.992872405425894"><ele>963.0</ele><time>2026-04-23T08:26:25Z</time></trkpt><trkpt lat="42.5496822441565" lon="12.99298523910851"><ele>963.0</ele><time>2026-04-23T08:26:26Z</time></trkpt><trkpt lat="42.54965174256567" lon="12.99310636944613"><ele>963.0</ele><time>2026-04-23T08:26:27Z</time></trkpt><trkpt lat="42.54963059141246" lon="12.993218260840235"><ele>963.0</ele><time>2026-04-23T08:26:28Z</time></trkpt><trkpt lat="42.54962394025238" lon="12.993306632209285"><ele>963.0</ele><time>2026-04-23T08:26:29Z</time></trkpt><trkpt lat="42.549627319035736" lon="12.993398847413943"><ele>963.0</ele><time>2026-04-23T08:26:30Z</time></trkpt><trkpt lat="42.54965485074254" lon="12.993481080962997"><ele>963.0</ele><time>2026-04-23T08:26:31Z</time></trkpt><trkpt lat="42.54970750585913" lon="12.993581964446058"><ele>964.0</ele><time>2026-04-23T08:26:32Z</time></trkpt><trkpt lat="42.54976653047095" lon="12.99372170444638"><ele>965.0</ele><time>2026-04-23T08:26:33Z</time></trkpt><trkpt lat="42.54980764430369" lon="12.99384652275432"><ele>966.0</ele><time>2026-04-23T08:26:34Z</time></trkpt><trkpt lat="42.54982729684742" lon="12.993957791169981"><ele>967.0</ele><time>2026-04-23T08:26:35Z</time></trkpt><trkpt lat="42.54982931777844" lon="12.994050780021531"><ele>968.0</ele><time>2026-04-23T08:26:36Z</time></trkpt><trkpt lat="42.54982196828886" lon="12.994221920682179"><ele>968.8</ele><time>2026-04-23T08:26:38Z</time></trkpt><trkpt lat="42.54980910510836" lon="12.9943343475889"><ele>969.5999999999999</ele><time>2026-04-23T08:26:39Z</time></trkpt><trkpt lat="42.54981067760933" lon="12.99447261205295"><ele>970.4000000000001</ele><time>2026-04-23T08:26:40Z</time></trkpt><trkpt lat="42.54982569775609" lon="12.994606061941845"><ele>971.2</ele><time>2026-04-23T08:26:41Z</time></trkpt><trkpt lat="42.549844658705894" lon="12.994763198720944"><ele>972.0</ele><time>2026-04-23T08:26:42Z</time></trkpt><trkpt lat="42.54985517498903" lon="12.994893241022348"><ele>972.3333333333334</ele><time>2026-04-23T08:26:43Z</time></trkpt><trkpt lat="42.54984933417034" lon="12.995011973426585"><ele>972.6666666666667</ele><time>2026-04-23T08:26:44Z</time></trkpt><trkpt lat="42.54982890956546" lon="12.99511708354034"><ele>973.0</ele><time>2026-04-23T08:26:45Z</time></trkpt><trkpt lat="42.54980762352029" lon="12.99523445030039"><ele>973.3333333333334</ele><time>2026-04-23T08:26:46Z</time></trkpt><trkpt lat="42.54980432718199" lon="12.995356571713021"><ele>973.6666666666667</ele><time>2026-04-23T08:26:47Z</time></trkpt><trkpt lat="42.549814266172575" lon="12.995495042480742"><ele>974.0</ele><time>2026-04-23T08:26:48Z</time></trkpt><trkpt lat="42.5498168755001" lon="12.995609630523582"><ele>974.0</ele><time>2026-04-23T08:26:49Z</time></trkpt><trkpt lat="42.549802733350106" lon="12.995737994313362"><ele>974.0000000000001</ele><time>2026-04-23T08:26:50Z</time></trkpt><trkpt lat="42.549790054534185" lon="12.995865412737684"><ele>974.0000000000001</ele><time>2026-04-23T08:26:51Z</time></trkpt><trkpt lat="42.54978980160798" lon="12.995988372033384"><ele>974.0</ele><time>2026-04-23T08:26:52Z</time></trkpt><trkpt lat="42.54976711366371" lon="12.996122907678947"><ele>974.0</ele><time>2026-04-23T08:26:53Z</time></trkpt><trkpt lat="42.549752859628434" lon="12.996248082136221"><ele>974.4000000000001</ele><time>2026-04-23T08:26:54Z</time></trkpt><trkpt lat="42.549732910836454" lon="12.996363323163934"><ele>974.8000000000001</ele><time>2026-04-23T08:26:55Z</time></trkpt><trkpt lat="42.54972218257504" lon="12.996494344237593"><ele>975.1999999999999</ele><time>2026-04-23T08:26:56Z</time></trkpt><trkpt lat="42.54971987858254" lon="12.996627516668568"><ele>975.5999999999999</ele><time>2026-04-23T08:26:57Z</time></trkpt><trkpt lat="42.549710119698105" lon="12.996763910938412"><ele>976.0</ele><time>2026-04-23T08:26:58Z</time></trkpt><trkpt lat="42.54971203799123" lon="12.996883225088462"><ele>975.8</ele><time>2026-04-23T08:26:59Z</time></trkpt><trkpt lat="42.54971578069761" lon="12.996990542529485"><ele>975.5999999999999</ele><time>2026-04-23T08:27:00Z</time></trkpt><trkpt lat="42.549709098262205" lon="12.997129136379039"><ele>975.4</ele><time>2026-04-23T08:27:01Z</time></trkpt><trkpt lat="42.54970859384852" lon="12.9972791897447"><ele>975.2</ele><time>2026-04-23T08:27:02Z</time></trkpt><trkpt lat="42.54970308024332" lon="12.997416999308632"><ele>975.0</ele><time>2026-04-23T08:27:03Z</time></trkpt><trkpt lat="42.54969890256526" lon="12.997549171340278"><ele>975.0</ele><time>2026-04-23T08:27:04Z</time></trkpt><trkpt lat="42.5496988156649" lon="12.997695618613427"><ele>975.0</ele><time>2026-04-23T08:27:05Z</time></trkpt><trkpt lat="42.5496941677213" lon="12.997807008793144"><ele>975.0</ele><time>2026-04-23T08:27:06Z</time></trkpt><trkpt lat="42.54967906357595" lon="12.997915117496955"><ele>975.0</ele><time>2026-04-23T08:27:07Z</time></trkpt><trkpt lat="42.54964468385852" lon="12.998044059476296"><ele>975.0</ele><time>2026-04-23T08:27:08Z</time></trkpt><trkpt lat="42.549594202247185" lon="12.998179093061944"><ele>977.0</ele><time>2026-04-23T08:27:09Z</time></trkpt><trkpt lat="42.54954110116394" lon="12.99830481154871"><ele>979.0</ele><time>2026-04-23T08:27:10Z</time></trkpt><trkpt lat="42.54949991957717" lon="12.99840518296414"><ele>981.0</ele><time>2026-04-23T08:27:11Z</time></trkpt><trkpt lat="42.54944300695881" lon="12.998515535215565"><ele>983.0</ele><time>2026-04-23T08:27:12Z</time></trkpt><trkpt lat="42.549406196975006" lon="12.998608224991317"><ele>985.0</ele><time>2026-04-23T08:27:12.999Z</time></trkpt><trkpt lat="42.54943992028017" lon="12.99877253352058"><ele>985.0</ele><time>2026-04-23T08:27:14.999Z</time></trkpt><trkpt lat="42.54949057912878" lon="12.998846383691829"><ele>985.0</ele><time>2026-04-23T08:27:15.999Z</time></trkpt><trkpt lat="42.549562556685586" lon="12.998937792475497"><ele>985.0</ele><time>2026-04-23T08:27:16.999Z</time></trkpt><trkpt lat="42.54960614373139" lon="12.999054978964029"><ele>985.0</ele><time>2026-04-23T08:27:17.999Z</time></trkpt><trkpt lat="42.54962048004057" lon="12.999191615760456"><ele>985.0</ele><time>2026-04-23T08:27:18.999Z</time></trkpt><trkpt lat="42.5496328840211" lon="12.999344850652133"><ele>983.2</ele><time>2026-04-23T08:27:19.999Z</time></trkpt><trkpt lat="42.54963411326267" lon="12.999486813087113"><ele>981.4</ele><time>2026-04-23T08:27:20.999Z</time></trkpt><trkpt lat="42.54963003570857" lon="12.999622650836471"><ele>979.5999999999999</ele><time>2026-04-23T08:27:21.999Z</time></trkpt><trkpt lat="42.54961598192467" lon="12.999748907219386"><ele>977.8</ele><time>2026-04-23T08:27:22.999Z</time></trkpt><trkpt lat="42.549589000683284" lon="12.999863491715855"><ele>976.0</ele><time>2026-04-23T08:27:23.999Z</time></trkpt><trkpt lat="42.54955077747941" lon="12.999965632558443"><ele>978.25</ele><time>2026-04-23T08:27:24.999Z</time></trkpt><trkpt lat="42.54950183509783" lon="13.000081391487416"><ele>980.5</ele><time>2026-04-23T08:27:25.999Z</time></trkpt><trkpt lat="42.54947425650295" lon="13.000197102145917"><ele>982.75</ele><time>2026-04-23T08:27:26.999Z</time></trkpt><trkpt lat="42.54947411647402" lon="13.000311595720175"><ele>985.0</ele><time>2026-04-23T08:27:27.999Z</time></trkpt><trkpt lat="42.54949234683329" lon="13.000563736584569"><ele>984.9999999999999</ele><time>2026-04-23T08:27:29.999Z</time></trkpt><trkpt lat="42.54946725970351" lon="13.000644165901054"><ele>985.0</ele><time>2026-04-23T08:27:30.999Z</time></trkpt><trkpt lat="42.54942636555695" lon="13.000723934735218"><ele>985.0</ele><time>2026-04-23T08:27:31.999Z</time></trkpt><trkpt lat="42.54937573220291" lon="13.00079959689658"><ele>985.0</ele><time>2026-04-23T08:27:32.999Z</time></trkpt><trkpt lat="42.54931524328678" lon="13.000890439053485"><ele>984.9999999999999</ele><time>2026-04-23T08:27:33.999Z</time></trkpt><trkpt lat="42.549250453073434" lon="13.000987710683717"><ele>985.0</ele><time>2026-04-23T08:27:34.999Z</time></trkpt><trkpt lat="42.549180854846846" lon="13.001066689946049"><ele>984.25</ele><time>2026-04-23T08:27:36Z</time></trkpt><trkpt lat="42.54909183148973" lon="13.001136337778357"><ele>983.5</ele><time>2026-04-23T08:27:37Z</time></trkpt><trkpt lat="42.54898759217171" lon="13.001223174564316"><ele>982.75</ele><time>2026-04-23T08:27:38Z</time></trkpt><trkpt lat="42.54889418780185" lon="13.001320998467275"><ele>982.0</ele><time>2026-04-23T08:27:39Z</time></trkpt><trkpt lat="42.54880511389719" lon="13.001436658787885"><ele>982.0</ele><time>2026-04-23T08:27:40Z</time></trkpt><trkpt lat="42.54871562468855" lon="13.001555164665987"><ele>982.0</ele><time>2026-04-23T08:27:41Z</time></trkpt><trkpt lat="42.548615537605194" lon="13.001670465642055"><ele>982.0</ele><time>2026-04-23T08:27:42Z</time></trkpt><trkpt lat="42.54851876006457" lon="13.001797587561633"><ele>982.0</ele><time>2026-04-23T08:27:43Z</time></trkpt><trkpt lat="42.54842320632094" lon="13.001929219749167"><ele>983.75</ele><time>2026-04-23T08:27:44Z</time></trkpt><trkpt lat="42.54832425222235" lon="13.002055783708752"><ele>985.5</ele><time>2026-04-23T08:27:45Z</time></trkpt><trkpt lat="42.54822077582834" lon="13.002181178876386"><ele>987.25</ele><time>2026-04-23T08:27:46Z</time></trkpt><trkpt lat="42.548128124270704" lon="13.002306293173495"><ele>989.0</ele><time>2026-04-23T08:27:47Z</time></trkpt><trkpt lat="42.54804363138516" lon="13.002429276378727"><ele>989.75</ele><time>2026-04-23T08:27:48Z</time></trkpt><trkpt lat="42.547964410289275" lon="13.002541318973204"><ele>990.5</ele><time>2026-04-23T08:27:49Z</time></trkpt><trkpt lat="42.54787627192638" lon="13.002647801554044"><ele>991.25</ele><time>2026-04-23T08:27:50Z</time></trkpt><trkpt lat="42.5477894934534" lon="13.002759147060988"><ele>992.0</ele><time>2026-04-23T08:27:51Z</time></trkpt><trkpt lat="42.547711745350036" lon="13.002892511598137"><ele>992.0</ele><time>2026-04-23T08:27:52Z</time></trkpt><trkpt lat="42.54763791088571" lon="13.003028947829508"><ele>992.0</ele><time>2026-04-23T08:27:53Z</time></trkpt><trkpt lat="42.5475602614579" lon="13.003166631696516"><ele>992.0</ele><time>2026-04-23T08:27:54Z</time></trkpt><trkpt lat="42.54748148897255" lon="13.003290034249773"><ele>992.0</ele><time>2026-04-23T08:27:55Z</time></trkpt><trkpt lat="42.54740728521979" lon="13.003393005773495"><ele>990.4000000000001</ele><time>2026-04-23T08:27:56Z</time></trkpt><trkpt lat="42.547335570490624" lon="13.003493996479195"><ele>988.8000000000001</ele><time>2026-04-23T08:27:57Z</time></trkpt><trkpt lat="42.547266847969794" lon="13.003611295690098"><ele>987.2</ele><time>2026-04-23T08:27:58Z</time></trkpt><trkpt lat="42.54718567385427" lon="13.00371947757388"><ele>985.6</ele><time>2026-04-23T08:27:59Z</time></trkpt><trkpt lat="42.54711411617696" lon="13.003833400056983"><ele>984.0</ele><time>2026-04-23T08:28:00Z</time></trkpt><trkpt lat="42.54705734455694" lon="13.00396466518063"><ele>984.4000000000001</ele><time>2026-04-23T08:28:01Z</time></trkpt><trkpt lat="42.547023382226534" lon="13.004089257518212"><ele>984.8000000000001</ele><time>2026-04-23T08:28:02Z</time></trkpt><trkpt lat="42.54699788450669" lon="13.004201436672869"><ele>985.1999999999999</ele><time>2026-04-23T08:28:03Z</time></trkpt><trkpt lat="42.54697802622487" lon="13.004288075166683"><ele>985.5999999999999</ele><time>2026-04-23T08:28:04Z</time></trkpt><trkpt lat="42.5469509362845" lon="13.004426220578246"><ele>986.0</ele><time>2026-04-23T08:28:06Z</time></trkpt><trkpt lat="42.54692539233876" lon="13.004605131990912"><ele>986.0000000000001</ele><time>2026-04-23T08:28:08Z</time></trkpt><trkpt lat="42.54688799707223" lon="13.004781723739985"><ele>986.0</ele><time>2026-04-23T08:28:10Z</time></trkpt><trkpt lat="42.54685728631253" lon="13.004860067197523"><ele>986.0</ele><time>2026-04-23T08:28:11Z</time></trkpt><trkpt lat="42.5468141855273" lon="13.004937395372485"><ele>986.0</ele><time>2026-04-23T08:28:12Z</time></trkpt><trkpt lat="42.546766205148394" lon="13.005016809184081"><ele>986.0000000000001</ele><time>2026-04-23T08:28:13Z</time></trkpt><trkpt lat="42.546721371581775" lon="13.005097841537184"><ele>986.0</ele><time>2026-04-23T08:28:14Z</time></trkpt><trkpt lat="42.54667058638323" lon="13.005182964505451"><ele>985.5999999999999</ele><time>2026-04-23T08:28:15Z</time></trkpt><trkpt lat="42.54662544750163" lon="13.005265511162253"><ele>985.1999999999999</ele><time>2026-04-23T08:28:16Z</time></trkpt><trkpt lat="42.54658282302703" lon="13.005348361633132"><ele>984.8000000000001</ele><time>2026-04-23T08:28:17Z</time></trkpt><trkpt lat="42.54654127257296" lon="13.005429463002198"><ele>984.4000000000001</ele><time>2026-04-23T08:28:18Z</time></trkpt><trkpt lat="42.54648935479873" lon="13.005579104613814"><ele>984.0</ele><time>2026-04-23T08:28:20Z</time></trkpt><trkpt lat="42.54648484956986" lon="13.005752099366807"><ele>984.0000000000001</ele><time>2026-04-23T08:28:22Z</time></trkpt><trkpt lat="42.546495970780185" lon="13.005839960201051"><ele>984.0</ele><time>2026-04-23T08:28:23Z</time></trkpt><trkpt lat="42.546506349196314" lon="13.005934495158577"><ele>984.0000000000001</ele><time>2026-04-23T08:28:24Z</time></trkpt><trkpt lat="42.54651887738276" lon="13.006036833747045"><ele>984.0000000000001</ele><time>2026-04-23T08:28:25Z</time></trkpt><trkpt lat="42.54653199993714" lon="13.006134765088666"><ele>984.0</ele><time>2026-04-23T08:28:26Z</time></trkpt><trkpt lat="42.546542129946324" lon="13.006227867379822"><ele>984.0000000000001</ele><time>2026-04-23T08:28:27Z</time></trkpt><trkpt lat="42.546556361750525" lon="13.00632260502688"><ele>984.0000000000001</ele><time>2026-04-23T08:28:28Z</time></trkpt><trkpt lat="42.546557441639166" lon="13.006410678105743"><ele>984.0</ele><time>2026-04-23T08:28:29Z</time></trkpt><trkpt lat="42.54652949107364" lon="13.006554954349395"><ele>984.0000000000001</ele><time>2026-04-23T08:28:31Z</time></trkpt><trkpt lat="42.546449692417035" lon="13.00666711157803"><ele>984.0000000000001</ele><time>2026-04-23T08:28:33Z</time></trkpt><trkpt lat="42.546397919489614" lon="13.006722124759024"><ele>984.0</ele><time>2026-04-23T08:28:34Z</time></trkpt><trkpt lat="42.5463438575074" lon="13.00677025362102"><ele>984.0</ele><time>2026-04-23T08:28:35Z</time></trkpt><trkpt lat="42.54624194311675" lon="13.006827646328185"><ele>988.0</ele><time>2026-04-23T08:28:37Z</time></trkpt><trkpt lat="42.546139700694674" lon="13.006832845657488"><ele>992.0000000000001</ele><time>2026-04-23T08:28:39Z</time></trkpt><trkpt lat="42.54603131552965" lon="13.006821457465428"><ele>996.0000000000001</ele><time>2026-04-23T08:28:41Z</time></trkpt><trkpt lat="42.54590556380686" lon="13.00687124165864"><ele>1000.0</ele><time>2026-04-23T08:28:43Z</time></trkpt><trkpt lat="42.54583918430351" lon="13.006918242305904"><ele>1004.0</ele><time>2026-04-23T08:28:44Z</time></trkpt><trkpt lat="42.54575778240244" lon="13.006987093690812"><ele>1004.0</ele><time>2026-04-23T08:28:45Z</time></trkpt><trkpt lat="42.54568969455348" lon="13.007070763417005"><ele>1004.0000000000001</ele><time>2026-04-23T08:28:46Z</time></trkpt><trkpt lat="42.54563162495345" lon="13.007181069402817"><ele>1004.0000000000001</ele><time>2026-04-23T08:28:47Z</time></trkpt><trkpt lat="42.545585164521654" lon="13.007291017068047"><ele>1004.0</ele><time>2026-04-23T08:28:48Z</time></trkpt><trkpt lat="42.545559585080795" lon="13.00739340684276"><ele>1004.0</ele><time>2026-04-23T08:28:49Z</time></trkpt><trkpt lat="42.54554439833188" lon="13.007511998874712"><ele>1002.4000000000001</ele><time>2026-04-23T08:28:50Z</time></trkpt><trkpt lat="42.54554492358681" lon="13.00762466420835"><ele>1000.8000000000001</ele><time>2026-04-23T08:28:51Z</time></trkpt><trkpt lat="42.54553877752877" lon="13.00775114227169"><ele>999.1999999999999</ele><time>2026-04-23T08:28:52Z</time></trkpt><trkpt lat="42.545525460833275" lon="13.007898831315188"><ele>997.5999999999999</ele><time>2026-04-23T08:28:53Z</time></trkpt><trkpt lat="42.54550533097707" lon="13.008046809325895"><ele>996.0</ele><time>2026-04-23T08:28:54Z</time></trkpt><trkpt lat="42.54547606781535" lon="13.008182996430804"><ele>996.0</ele><time>2026-04-23T08:28:55Z</time></trkpt><trkpt lat="42.545456899722886" lon="13.008307354426439"><ele>995.9999999999999</ele><time>2026-04-23T08:28:56Z</time></trkpt><trkpt lat="42.545417758481065" lon="13.008441182923908"><ele>995.9999999999999</ele><time>2026-04-23T08:28:57Z</time></trkpt><trkpt lat="42.545366761705054" lon="13.008569801318767"><ele>996.0</ele><time>2026-04-23T08:28:58Z</time></trkpt><trkpt lat="42.54529946079058" lon="13.008688358792686"><ele>996.0</ele><time>2026-04-23T08:28:59Z</time></trkpt><trkpt lat="42.545219899836766" lon="13.008798583820102"><ele>998.1999999999999</ele><time>2026-04-23T08:29:00Z</time></trkpt><trkpt lat="42.545136396438906" lon="13.008897839932054"><ele>1000.3999999999999</ele><time>2026-04-23T08:29:01Z</time></trkpt><trkpt lat="42.54504779475128" lon="13.008987137162606"><ele>1002.6</ele><time>2026-04-23T08:29:02Z</time></trkpt><trkpt lat="42.54496149914697" lon="13.009082575699988"><ele>1004.8</ele><time>2026-04-23T08:29:03Z</time></trkpt><trkpt lat="42.544903587110596" lon="13.00918289762297"><ele>1007.0</ele><time>2026-04-23T08:29:04Z</time></trkpt><trkpt lat="42.54485998861834" lon="13.00930566523954"><ele>1007.0000000000001</ele><time>2026-04-23T08:29:05Z</time></trkpt><trkpt lat="42.54481564992787" lon="13.009431037694306"><ele>1007.0</ele><time>2026-04-23T08:29:06Z</time></trkpt><trkpt lat="42.54477943381159" lon="13.00955196167054"><ele>1007.0</ele><time>2026-04-23T08:29:07Z</time></trkpt><trkpt lat="42.544767387139" lon="13.009693201796177"><ele>1007.0</ele><time>2026-04-23T08:29:08Z</time></trkpt><trkpt lat="42.544755874713466" lon="13.009799574143278"><ele>1007.0000000000001</ele><time>2026-04-23T08:29:09Z</time></trkpt><trkpt lat="42.54472268677944" lon="13.009874101701762"><ele>1007.0</ele><time>2026-04-23T08:29:10Z</time></trkpt><trkpt lat="42.544666124359054" lon="13.009922631348836"><ele>1007.0</ele><time>2026-04-23T08:29:11Z</time></trkpt><trkpt lat="42.54454840754699" lon="13.009953501491374"><ele>1007.0</ele><time>2026-04-23T08:29:13Z</time></trkpt><trkpt lat="42.54448612762178" lon="13.009990386673547"><ele>1007.0</ele><time>2026-04-23T08:29:14Z</time></trkpt><trkpt lat="42.54444510243565" lon="13.010073157776592"><ele>1007.0</ele><time>2026-04-23T08:29:15Z</time></trkpt><trkpt lat="42.54440816043956" lon="13.01020335567834"><ele>1007.0</ele><time>2026-04-23T08:29:16Z</time></trkpt><trkpt lat="42.544377310316726" lon="13.01034928000544"><ele>1008.0</ele><time>2026-04-23T08:29:17Z</time></trkpt><trkpt lat="42.54432035408196" lon="13.010504740010292"><ele>1009.0</ele><time>2026-04-23T08:29:18Z</time></trkpt><trkpt lat="42.5442464660059" lon="13.010650027891435"><ele>1010.0</ele><time>2026-04-23T08:29:19Z</time></trkpt><trkpt lat="42.54416807779672" lon="13.010787856147967"><ele>1011.0</ele><time>2026-04-23T08:29:20Z</time></trkpt><trkpt lat="42.54408657372638" lon="13.010904061948333"><ele>1011.0</ele><time>2026-04-23T08:29:20.999Z</time></trkpt><trkpt lat="42.54401498286395" lon="13.01099002301871"><ele>1011.0</ele><time>2026-04-23T08:29:21.999Z</time></trkpt><trkpt lat="42.54395828189983" lon="13.01106107105324"><ele>1011.0</ele><time>2026-04-23T08:29:22.999Z</time></trkpt><trkpt lat="42.54389057493055" lon="13.011130314481719"><ele>1011.0</ele><time>2026-04-23T08:29:23.999Z</time></trkpt><trkpt lat="42.54380578411424" lon="13.011193582607731"><ele>1011.0</ele><time>2026-04-23T08:29:24.999Z</time></trkpt><trkpt lat="42.543727619338924" lon="13.011227744258502"><ele>1011.0</ele><time>2026-04-23T08:29:25.999Z</time></trkpt><trkpt lat="42.54366182548679" lon="13.0112308096037"><ele>1012.5</ele><time>2026-04-23T08:29:26.999Z</time></trkpt><trkpt lat="42.5435748673756" lon="13.011169598072224"><ele>1014.0</ele><time>2026-04-23T08:29:28.999Z</time></trkpt><trkpt lat="42.543469860525065" lon="13.011128323989462"><ele>1015.5</ele><time>2026-04-23T08:29:30.999Z</time></trkpt><trkpt lat="42.543419454627134" lon="13.011180189954237"><ele>1017.0</ele><time>2026-04-23T08:29:32.999Z</time></trkpt><trkpt lat="42.54337626262025" lon="13.011317099700328"><ele>1018.5</ele><time>2026-04-23T08:29:35.999Z</time></trkpt><trkpt lat="42.543362441751775" lon="13.011408299291176"><ele>1020.0</ele><time>2026-04-23T08:29:36.999Z</time></trkpt><trkpt lat="42.54333565811807" lon="13.011516248594546"><ele>1020.0</ele><time>2026-04-23T08:29:37.999Z</time></trkpt><trkpt lat="42.543294992780204" lon="13.011625316987738"><ele>1020.0</ele><time>2026-04-23T08:29:38.999Z</time></trkpt><trkpt lat="42.54324485572344" lon="13.011730353341449"><ele>1020.0</ele><time>2026-04-23T08:29:39.999Z</time></trkpt><trkpt lat="42.54318955988904" lon="13.011814842156049"><ele>1020.0</ele><time>2026-04-23T08:29:40.999Z</time></trkpt><trkpt lat="42.543135164330955" lon="13.011878678740304"><ele>1020.0</ele><time>2026-04-23T08:29:42Z</time></trkpt><trkpt lat="42.54307051792367" lon="13.011941773207388"><ele>1020.0</ele><time>2026-04-23T08:29:43Z</time></trkpt><trkpt lat="42.54298873784683" lon="13.01201437990165"><ele>1020.25</ele><time>2026-04-23T08:29:44Z</time></trkpt><trkpt lat="42.54289542373374" lon="13.012112582603882"><ele>1020.5</ele><time>2026-04-23T08:29:45Z</time></trkpt><trkpt lat="42.54279991395962" lon="13.012201893645615"><ele>1020.75</ele><time>2026-04-23T08:29:46Z</time></trkpt><trkpt lat="42.54270323239423" lon="13.012277732863721"><ele>1021.0</ele><time>2026-04-23T08:29:47Z</time></trkpt><trkpt lat="42.54260459578711" lon="13.012367119087232"><ele>1020.9999999999999</ele><time>2026-04-23T08:29:48Z</time></trkpt><trkpt lat="42.54252158470302" lon="13.01244266259649"><ele>1021.0</ele><time>2026-04-23T08:29:49Z</time></trkpt><trkpt lat="42.54243469477311" lon="13.012501668864042"><ele>1021.0</ele><time>2026-04-23T08:29:50Z</time></trkpt><trkpt lat="42.54235534938373" lon="13.012537876645453"><ele>1021.0</ele><time>2026-04-23T08:29:51Z</time></trkpt><trkpt lat="42.542270646000624" lon="13.012551515421112"><ele>1020.9999999999999</ele><time>2026-04-23T08:29:52Z</time></trkpt><trkpt lat="42.54219012543082" lon="13.012562266186588"><ele>1021.0</ele><time>2026-04-23T08:29:53Z</time></trkpt><trkpt lat="42.54211332149498" lon="13.01257684616126"><ele>1018.5999999999999</ele><time>2026-04-23T08:29:54Z</time></trkpt><trkpt lat="42.542030013579996" lon="13.012574726384146"><ele>1016.1999999999999</ele><time>2026-04-23T08:29:55Z</time></trkpt><trkpt lat="42.541954684541444" lon="13.012555949001799"><ele>1013.8000000000001</ele><time>2026-04-23T08:29:56Z</time></trkpt><trkpt lat="42.54185839473458" lon="13.01254017873914"><ele>1011.4000000000001</ele><time>2026-04-23T08:29:57Z</time></trkpt><trkpt lat="42.5417560465719" lon="13.01252610641879"><ele>1009.0</ele><time>2026-04-23T08:29:58Z</time></trkpt><trkpt lat="42.54165386910043" lon="13.012554795528871"><ele>1009.0</ele><time>2026-04-23T08:29:59Z</time></trkpt><trkpt lat="42.54156050431444" lon="13.012607781216428"><ele>1009.0000000000001</ele><time>2026-04-23T08:30:00Z</time></trkpt><trkpt lat="42.54146739496321" lon="13.012673991352338"><ele>1009.0000000000001</ele><time>2026-04-23T08:30:01Z</time></trkpt><trkpt lat="42.541386679459826" lon="13.012735355290122"><ele>1009.0</ele><time>2026-04-23T08:30:02Z</time></trkpt><trkpt lat="42.541318153413336" lon="13.012800107947287"><ele>1009.0</ele><time>2026-04-23T08:30:03Z</time></trkpt><trkpt lat="42.54126791376298" lon="13.012881939453873"><ele>1008.9999999999999</ele><time>2026-04-23T08:30:04Z</time></trkpt><trkpt lat="42.541242379114685" lon="13.012982872246846"><ele>1009.0</ele><time>2026-04-23T08:30:05Z</time></trkpt><trkpt lat="42.541225743463734" lon="13.013097626766571"><ele>1009.0</ele><time>2026-04-23T08:30:06Z</time></trkpt><trkpt lat="42.541198835764966" lon="13.013190619493612"><ele>1009.0</ele><time>2026-04-23T08:30:07Z</time></trkpt><trkpt lat="42.54114227891254" lon="13.013274009761217"><ele>1008.9999999999999</ele><time>2026-04-23T08:30:08Z</time></trkpt><trkpt lat="42.54107745667838" lon="13.013353228395735"><ele>1009.0</ele><time>2026-04-23T08:30:09Z</time></trkpt><trkpt lat="42.54100933382655" lon="13.013432100809077"><ele>1009.0</ele><time>2026-04-23T08:30:10Z</time></trkpt><trkpt lat="42.54094428040134" lon="13.01350253433533"><ele>1009.0000000000001</ele><time>2026-04-23T08:30:11Z</time></trkpt><trkpt lat="42.54087409379898" lon="13.013590180488846"><ele>1009.0000000000001</ele><time>2026-04-23T08:30:12Z</time></trkpt><trkpt lat="42.540805991565456" lon="13.013704250387798"><ele>1009.0</ele><time>2026-04-23T08:30:13Z</time></trkpt><trkpt lat="42.540745634062034" lon="13.01383005601391"><ele>1009.0</ele><time>2026-04-23T08:30:14Z</time></trkpt><trkpt lat="42.54068590589231" lon="13.013963097317399"><ele>1009.0</ele><time>2026-04-23T08:30:15Z</time></trkpt><trkpt lat="42.54062430947095" lon="13.014070347740285"><ele>1009.0000000000001</ele><time>2026-04-23T08:30:16Z</time></trkpt><trkpt lat="42.540567044381035" lon="13.014166450612423"><ele>1009.0000000000001</ele><time>2026-04-23T08:30:17Z</time></trkpt><trkpt lat="42.54051734108142" lon="13.01424320380986"><ele>1009.0</ele><time>2026-04-23T08:30:18Z</time></trkpt><trkpt lat="42.54047542111936" lon="13.014321399636069"><ele>1009.0</ele><time>2026-04-23T08:30:19Z</time></trkpt><trkpt lat="42.54040886595304" lon="13.014445236333682"><ele>1008.8000000000001</ele><time>2026-04-23T08:30:21Z</time></trkpt><trkpt lat="42.54031704182504" lon="13.01450629872473"><ele>1008.6000000000001</ele><time>2026-04-23T08:30:23Z</time></trkpt><trkpt lat="42.54020603516628" lon="13.014505816401355"><ele>1008.4</ele><time>2026-04-23T08:30:25Z</time></trkpt><trkpt lat="42.54011762311778" lon="13.014495339087418"><ele>1008.2</ele><time>2026-04-23T08:30:27Z</time></trkpt><trkpt lat="42.54005286112175" lon="13.01457399475158"><ele>1008.0</ele><time>2026-04-23T08:30:29Z</time></trkpt><trkpt lat="42.540011241619936" lon="13.01466268451686"><ele>1008.0</ele><time>2026-04-23T08:30:31Z</time></trkpt><trkpt lat="42.53999156402917" lon="13.014794513890191"><ele>1008.0</ele><time>2026-04-23T08:31:23Z</time></trkpt><trkpt lat="42.53999459739497" lon="13.014966830728975"><ele>1008.0</ele><time>2026-04-23T08:31:25Z</time></trkpt><trkpt lat="42.54001470833918" lon="13.015052525673827"><ele>1008.0</ele><time>2026-04-23T08:31:25.999Z</time></trkpt><trkpt lat="42.54003552139935" lon="13.015148418483504"><ele>1008.0</ele><time>2026-04-23T08:31:26.999Z</time></trkpt><trkpt lat="42.540047938236924" lon="13.015240892999673"><ele>1008.0</ele><time>2026-04-23T08:31:27.999Z</time></trkpt><trkpt lat="42.540014931680005" lon="13.015359953460013"><ele>1007.2</ele><time>2026-04-23T08:31:29.999Z</time></trkpt><trkpt lat="42.539920079528095" lon="13.015504921993879"><ele>1006.4</ele><time>2026-04-23T08:31:31.999Z</time></trkpt><trkpt lat="42.539848859367765" lon="13.015606700577644"><ele>1005.6000000000001</ele><time>2026-04-23T08:31:32.999Z</time></trkpt><trkpt lat="42.53976953342178" lon="13.015707536321473"><ele>1004.8000000000001</ele><time>2026-04-23T08:31:33.999Z</time></trkpt><trkpt lat="42.53969861287597" lon="13.015792055670293"><ele>1004.0</ele><time>2026-04-23T08:31:34.999Z</time></trkpt><trkpt lat="42.53965333126573" lon="13.015866791085347"><ele>1003.6</ele><time>2026-04-23T08:31:35.999Z</time></trkpt><trkpt lat="42.53963525917587" lon="13.015958649602291"><ele>1003.2</ele><time>2026-04-23T08:31:36.999Z</time></trkpt><trkpt lat="42.53963174497874" lon="13.01608266949604"><ele>1002.8000000000001</ele><time>2026-04-23T08:31:37.999Z</time></trkpt><trkpt lat="42.539630919863" lon="13.016210499873678"><ele>1002.4000000000001</ele><time>2026-04-23T08:31:38.999Z</time></trkpt><trkpt lat="42.53961747859689" lon="13.01633930708661"><ele>1002.0</ele><time>2026-04-23T08:31:39.999Z</time></trkpt><trkpt lat="42.53961756321411" lon="13.016477787663836"><ele>1002.0</ele><time>2026-04-23T08:31:40.999Z</time></trkpt><trkpt lat="42.539616687623436" lon="13.01659390974418"><ele>1002.0</ele><time>2026-04-23T08:31:41.999Z</time></trkpt><trkpt lat="42.53960769840371" lon="13.016693416604234"><ele>1002.0</ele><time>2026-04-23T08:31:42.999Z</time></trkpt><trkpt lat="42.539583517079265" lon="13.01677730247833"><ele>1002.0</ele><time>2026-04-23T08:31:43.999Z</time></trkpt><trkpt lat="42.53954524876008" lon="13.01687214829756"><ele>1002.0</ele><time>2026-04-23T08:31:45.999Z</time></trkpt><trkpt lat="42.53948646434407" lon="13.016973593383069"><ele>1002.0</ele><time>2026-04-23T08:31:48Z</time></trkpt><trkpt lat="42.539450793228255" lon="13.017066829284362"><ele>1003.5</ele><time>2026-04-23T08:31:49Z</time></trkpt><trkpt lat="42.53940037367738" lon="13.017153033833262"><ele>1005.0</ele><time>2026-04-23T08:31:50Z</time></trkpt><trkpt lat="42.53934462324206" lon="13.017223786889135"><ele>1006.5</ele><time>2026-04-23T08:31:51Z</time></trkpt><trkpt lat="42.53930288233347" lon="13.017313409630761"><ele>1008.0</ele><time>2026-04-23T08:31:52Z</time></trkpt><trkpt lat="42.53927775017492" lon="13.017418492905847"><ele>1009.5</ele><time>2026-04-23T08:31:53Z</time></trkpt><trkpt lat="42.539264448684165" lon="13.017555078876583"><ele>1011.0</ele><time>2026-04-23T08:31:54Z</time></trkpt><trkpt lat="42.539272702803316" lon="13.017712028865882"><ele>1011.1999999999999</ele><time>2026-04-23T08:31:55Z</time></trkpt><trkpt lat="42.539272628449545" lon="13.017866802390609"><ele>1011.3999999999999</ele><time>2026-04-23T08:31:56Z</time></trkpt><trkpt lat="42.53925803877656" lon="13.017999173883137"><ele>1011.6</ele><time>2026-04-23T08:31:57Z</time></trkpt><trkpt lat="42.53923729003849" lon="13.018105912976521"><ele>1011.8</ele><time>2026-04-23T08:31:58Z</time></trkpt><trkpt lat="42.53921559816366" lon="13.018198944885642"><ele>1012.0</ele><time>2026-04-23T08:31:59Z</time></trkpt><trkpt lat="42.539179572369264" lon="13.018319296092335"><ele>1011.6</ele><time>2026-04-23T08:32:00Z</time></trkpt><trkpt lat="42.53913898202846" lon="13.018449402465874"><ele>1011.2</ele><time>2026-04-23T08:32:01.001Z</time></trkpt><trkpt lat="42.53908936145435" lon="13.018585643674943"><ele>1010.8</ele><time>2026-04-23T08:32:02Z</time></trkpt><trkpt lat="42.53903322065622" lon="13.018710838001477"><ele>1010.4</ele><time>2026-04-23T08:32:03Z</time></trkpt><trkpt lat="42.538969197924246" lon="13.01883595315766"><ele>1010.0</ele><time>2026-04-23T08:32:04Z</time></trkpt><trkpt lat="42.53891867812899" lon="13.018933830354536"><ele>1010.0000000000001</ele><time>2026-04-23T08:32:05Z</time></trkpt><trkpt lat="42.5388574445483" lon="13.019024133946905"><ele>1010.0</ele><time>2026-04-23T08:32:06Z</time></trkpt><trkpt lat="42.53879824750865" lon="13.019144857750163"><ele>1010.0</ele><time>2026-04-23T08:32:07Z</time></trkpt><trkpt lat="42.53874971276013" lon="13.019245061644302"><ele>1010.0</ele><time>2026-04-23T08:32:08Z</time></trkpt><trkpt lat="42.53870911037142" lon="13.019334049556525"><ele>1010.0000000000001</ele><time>2026-04-23T08:32:09Z</time></trkpt><trkpt lat="42.53869922575847" lon="13.019423769750984"><ele>1010.0</ele><time>2026-04-23T08:32:10Z</time></trkpt><trkpt lat="42.53871094956933" lon="13.019543423174117"><ele>1011.0</ele><time>2026-04-23T08:32:11Z</time></trkpt><trkpt lat="42.538745459867464" lon="13.019677195560995"><ele>1012.0</ele><time>2026-04-23T08:32:12Z</time></trkpt><trkpt lat="42.53875893826978" lon="13.019818245381938"><ele>1013.0</ele><time>2026-04-23T08:32:13Z</time></trkpt><trkpt lat="42.53874197400509" lon="13.01993406852056"><ele>1014.0</ele><time>2026-04-23T08:32:14Z</time></trkpt><trkpt lat="42.53870933310293" lon="13.020067154786602"><ele>1015.0</ele><time>2026-04-23T08:32:15Z</time></trkpt><trkpt lat="42.53868059161805" lon="13.02017975013682"><ele>1014.9999999999999</ele><time>2026-04-23T08:32:16Z</time></trkpt><trkpt lat="42.53866680196176" lon="13.020277782646938"><ele>1015.0</ele><time>2026-04-23T08:32:17Z</time></trkpt><trkpt lat="42.53865603499937" lon="13.020367936700742"><ele>1015.0</ele><time>2026-04-23T08:32:18Z</time></trkpt><trkpt lat="42.538613386094696" lon="13.02046410273895"><ele>1015.0</ele><time>2026-04-23T08:32:19Z</time></trkpt><trkpt lat="42.53856234369731" lon="13.020547300972957"><ele>1014.9999999999999</ele><time>2026-04-23T08:32:20Z</time></trkpt><trkpt lat="42.53849618407031" lon="13.02062313640507"><ele>1015.0</ele><time>2026-04-23T08:32:21Z</time></trkpt><trkpt lat="42.53841021788339" lon="13.020678346714387"><ele>1014.9999999999999</ele><time>2026-04-23T08:32:22Z</time></trkpt><trkpt lat="42.53833605936164" lon="13.020736645538735"><ele>1015.0</ele><time>2026-04-23T08:32:23Z</time></trkpt><trkpt lat="42.53825171239809" lon="13.020871425040788"><ele>1015.0</ele><time>2026-04-23T08:32:25Z</time></trkpt><trkpt lat="42.53822555963197" lon="13.0209650821526"><ele>1015.0</ele><time>2026-04-23T08:32:26Z</time></trkpt><trkpt lat="42.53821260696146" lon="13.021061101191139"><ele>1014.9999999999999</ele><time>2026-04-23T08:32:27Z</time></trkpt><trkpt lat="42.53818620606817" lon="13.021160975189323"><ele>1015.0</ele><time>2026-04-23T08:32:28Z</time></trkpt><trkpt lat="42.538188179900175" lon="13.021283903977483"><ele>1014.4</ele><time>2026-04-23T08:32:29Z</time></trkpt><trkpt lat="42.53820600881339" lon="13.021420727633382"><ele>1013.8</ele><time>2026-04-23T08:32:30Z</time></trkpt><trkpt lat="42.538214170725155" lon="13.02156113794526"><ele>1013.2</ele><time>2026-04-23T08:32:31Z</time></trkpt><trkpt lat="42.53821076460889" lon="13.02166432353901"><ele>1012.6</ele><time>2026-04-23T08:32:32Z</time></trkpt><trkpt lat="42.53817869909508" lon="13.021812885268963"><ele>1012.0</ele><time>2026-04-23T08:32:34Z</time></trkpt><trkpt lat="42.53811794328713" lon="13.021931854095055"><ele>1012.0</ele><time>2026-04-23T08:32:36Z</time></trkpt><trkpt lat="42.5379853560554" lon="13.022001637101344"><ele>1012.0</ele><time>2026-04-23T08:32:38Z</time></trkpt><trkpt lat="42.53788967452609" lon="13.022051486571668"><ele>1012.0</ele><time>2026-04-23T08:32:39Z</time></trkpt><trkpt lat="42.53778360520967" lon="13.022120977167031"><ele>1012.0</ele><time>2026-04-23T08:32:40Z</time></trkpt><trkpt lat="42.53768696142106" lon="13.022204474439889"><ele>1011.4000000000001</ele><time>2026-04-23T08:32:41Z</time></trkpt><trkpt lat="42.5375911603117" lon="13.02227454541556"><ele>1010.8000000000001</ele><time>2026-04-23T08:32:42Z</time></trkpt><trkpt lat="42.53749868840931" lon="13.022307396834355"><ele>1010.2</ele><time>2026-04-23T08:32:43Z</time></trkpt><trkpt lat="42.537413287675996" lon="13.022380073690739"><ele>1009.6</ele><time>2026-04-23T08:32:44Z</time></trkpt><trkpt lat="42.5373474753394" lon="13.022434788292173"><ele>1009.0</ele><time>2026-04-23T08:32:45Z</time></trkpt><trkpt lat="42.53730045908558" lon="13.022500292374923"><ele>1009.0</ele><time>2026-04-23T08:32:46Z</time></trkpt><trkpt lat="42.53725779654607" lon="13.022570462405987"><ele>1009.0</ele><time>2026-04-23T08:32:47Z</time></trkpt><trkpt lat="42.53725057962436" lon="13.022663177748775"><ele>1009.0</ele><time>2026-04-23T08:32:47.999Z</time></trkpt><trkpt lat="42.537273009420446" lon="13.022759321620141"><ele>1009.0</ele><time>2026-04-23T08:32:48.999Z</time></trkpt><trkpt lat="42.53728590173423" lon="13.02284920860509"><ele>1009.0</ele><time>2026-04-23T08:32:49.999Z</time></trkpt><trkpt lat="42.53728852524499" lon="13.02294480378059"><ele>1009.0</ele><time>2026-04-23T08:32:50.999Z</time></trkpt><trkpt lat="42.537292401589475" lon="13.023064911245125"><ele>1009.0</ele><time>2026-04-23T08:32:51.999Z</time></trkpt><trkpt lat="42.537281367782285" lon="13.02317814258368"><ele>1008.9999999999999</ele><time>2026-04-23T08:32:52.999Z</time></trkpt><trkpt lat="42.53724710504854" lon="13.023256037916443"><ele>1009.0</ele><time>2026-04-23T08:32:53.999Z</time></trkpt><trkpt lat="42.537203090732845" lon="13.023331464212385"><ele>1009.0</ele><time>2026-04-23T08:32:54.999Z</time></trkpt><trkpt lat="42.5371492566005" lon="13.023422425616888"><ele>1009.0</ele><time>2026-04-23T08:32:55.999Z</time></trkpt><trkpt lat="42.537083386790734" lon="13.023521258557363"><ele>1008.9999999999999</ele><time>2026-04-23T08:32:56.999Z</time></trkpt><trkpt lat="42.537017411058635" lon="13.023591386757715"><ele>1009.0</ele><time>2026-04-23T08:32:57.999Z</time></trkpt><trkpt lat="42.536946588297475" lon="13.023634673388967"><ele>1009.3333333333333</ele><time>2026-04-23T08:32:58.999Z</time></trkpt><trkpt lat="42.53688115116347" lon="13.023673805515788"><ele>1009.6666666666666</ele><time>2026-04-23T08:32:59.999Z</time></trkpt><trkpt lat="42.536812633257895" lon="13.023668914736803"><ele>1010.0</ele><time>2026-04-23T08:33:01.999Z</time></trkpt><trkpt lat="42.53671132862703" lon="13.023697963306656"><ele>1010.3333333333333</ele><time>2026-04-23T08:33:03.999Z</time></trkpt><trkpt lat="42.53659483926229" lon="13.023738622929061"><ele>1010.6666666666666</ele><time>2026-04-23T08:33:05.999Z</time></trkpt><trkpt lat="42.5365230701592" lon="13.02376468337307"><ele>1011.0</ele><time>2026-04-23T08:33:06.999Z</time></trkpt><trkpt lat="42.5364271414999" lon="13.023853424840063"><ele>1011.0</ele><time>2026-04-23T08:33:08.999Z</time></trkpt><trkpt lat="42.536383848577245" lon="13.024023819421668"><ele>1010.9999999999999</ele><time>2026-04-23T08:33:10.999Z</time></trkpt><trkpt lat="42.53637148567041" lon="13.02412863035129"><ele>1010.9999999999999</ele><time>2026-04-23T08:33:11.999Z</time></trkpt><trkpt lat="42.536359593115954" lon="13.024252670508275"><ele>1011.0</ele><time>2026-04-23T08:33:12.999Z</time></trkpt><trkpt lat="42.53634904190575" lon="13.02436824089032"><ele>1011.0</ele><time>2026-04-23T08:33:13.999Z</time></trkpt><trkpt lat="42.536341256808086" lon="13.024488376422454"><ele>1010.5</ele><time>2026-04-23T08:33:14.999Z</time></trkpt><trkpt lat="42.53634994183995" lon="13.024600829504381"><ele>1010.0</ele><time>2026-04-23T08:33:15.999Z</time></trkpt><trkpt lat="42.536372038805254" lon="13.024685057229634"><ele>1009.5</ele><time>2026-04-23T08:33:16.999Z</time></trkpt><trkpt lat="42.53639276195993" lon="13.02480150858733"><ele>1009.0</ele><time>2026-04-23T08:33:17.999Z</time></trkpt><trkpt lat="42.53640364546999" lon="13.024921122297629"><ele>1008.5</ele><time>2026-04-23T08:33:18.999Z</time></trkpt><trkpt lat="42.53640394269382" lon="13.025037049436156"><ele>1008.0</ele><time>2026-04-23T08:33:19.999Z</time></trkpt><trkpt lat="42.53639618958976" lon="13.025123139251699"><ele>1008.0</ele><time>2026-04-23T08:33:20.999Z</time></trkpt><trkpt lat="42.53636326714603" lon="13.025265006719716"><ele>1008.0</ele><time>2026-04-23T08:33:22.999Z</time></trkpt><trkpt lat="42.53633570930821" lon="13.025348008127397"><ele>1008.0</ele><time>2026-04-23T08:33:23.999Z</time></trkpt><trkpt lat="42.536280190590254" lon="13.02551467385294"><ele>1008.0</ele><time>2026-04-23T08:33:25.999Z</time></trkpt><trkpt lat="42.536267875014126" lon="13.025612821851396"><ele>1008.0</ele><time>2026-04-23T08:33:26.999Z</time></trkpt><trkpt lat="42.53631304412164" lon="13.025717903694433"><ele>1009.4</ele><time>2026-04-23T08:33:28.999Z</time></trkpt><trkpt lat="42.53644065888114" lon="13.025836627684818"><ele>1010.8</ele><time>2026-04-23T08:33:30.999Z</time></trkpt><trkpt lat="42.536525370131166" lon="13.025886734895836"><ele>1012.2</ele><time>2026-04-23T08:33:31.999Z</time></trkpt><trkpt lat="42.53660871354878" lon="13.025920576543589"><ele>1013.6</ele><time>2026-04-23T08:33:32.999Z</time></trkpt><trkpt lat="42.53667917691286" lon="13.025947901060832"><ele>1015.0</ele><time>2026-04-23T08:33:33.999Z</time></trkpt><trkpt lat="42.53674596292571" lon="13.026037616810402"><ele>1014.9999999999999</ele><time>2026-04-23T08:33:35.999Z</time></trkpt><trkpt lat="42.5367296166096" lon="13.026179901992094"><ele>1015.0</ele><time>2026-04-23T08:33:37.999Z</time></trkpt><trkpt lat="42.53672032991024" lon="13.026275404779852"><ele>1015.0</ele><time>2026-04-23T08:33:38.999Z</time></trkpt><trkpt lat="42.53670861629508" lon="13.026405082689973"><ele>1015.0</ele><time>2026-04-23T08:33:39.999Z</time></trkpt><trkpt lat="42.53670775879142" lon="13.026536333446357"><ele>1014.9999999999999</ele><time>2026-04-23T08:33:40.999Z</time></trkpt><trkpt lat="42.53671035988874" lon="13.026629937150336"><ele>1015.0</ele><time>2026-04-23T08:33:41.999Z</time></trkpt><trkpt lat="42.536704869740014" lon="13.026720350270214"><ele>1015.0</ele><time>2026-04-23T08:33:42.999Z</time></trkpt><trkpt lat="42.53664509483728" lon="13.026927958554927"><ele>1015.0</ele><time>2026-04-23T08:33:44.999Z</time></trkpt><trkpt lat="42.536577551437" lon="13.02705174075106"><ele>1015.0</ele><time>2026-04-23T08:33:45.999Z</time></trkpt><trkpt lat="42.53652651874621" lon="13.027123319343294"><ele>1015.0</ele><time>2026-04-23T08:33:46.999Z</time></trkpt><trkpt lat="42.536478738880795" lon="13.027220736582544"><ele>1015.0</ele><time>2026-04-23T08:33:48.999Z</time></trkpt><trkpt lat="42.536474933111286" lon="13.0273744493097"><ele>1014.2</ele><time>2026-04-23T08:33:50.999Z</time></trkpt><trkpt lat="42.53647887587257" lon="13.027487459715761"><ele>1013.4</ele><time>2026-04-23T08:33:51.999Z</time></trkpt><trkpt lat="42.536478387738285" lon="13.027620807719325"><ele>1012.5999999999999</ele><time>2026-04-23T08:33:52.999Z</time></trkpt><trkpt lat="42.53647569084531" lon="13.02776137163138"><ele>1011.8</ele><time>2026-04-23T08:33:54Z</time></trkpt><trkpt lat="42.536463003430015" lon="13.027900398452923"><ele>1011.0</ele><time>2026-04-23T08:33:55Z</time></trkpt><trkpt lat="42.53642816228509" lon="13.028029689620753"><ele>1011.0</ele><time>2026-04-23T08:33:56Z</time></trkpt><trkpt lat="42.536378727347596" lon="13.028154722893447"><ele>1010.9999999999999</ele><time>2026-04-23T08:33:57Z</time></trkpt><trkpt lat="42.53632055145493" lon="13.028248566022484"><ele>1010.9999999999999</ele><time>2026-04-23T08:33:58Z</time></trkpt><trkpt lat="42.53625342468735" lon="13.028325075256184"><ele>1011.0</ele><time>2026-04-23T08:33:59Z</time></trkpt><trkpt lat="42.53618202562841" lon="13.028401638373404"><ele>1011.0</ele><time>2026-04-23T08:34:00Z</time></trkpt><trkpt lat="42.53609845315471" lon="13.02849402233817"><ele>1011.4</ele><time>2026-04-23T08:34:01Z</time></trkpt><trkpt lat="42.53601997712095" lon="13.028597301446501"><ele>1011.8</ele><time>2026-04-23T08:34:02Z</time></trkpt><trkpt lat="42.535956240504106" lon="13.028698043378382"><ele>1012.1999999999999</ele><time>2026-04-23T08:34:03Z</time></trkpt><trkpt lat="42.53591537084786" lon="13.028799204360423"><ele>1012.5999999999999</ele><time>2026-04-23T08:34:03.999Z</time></trkpt><trkpt lat="42.53589763817058" lon="13.02891472722191"><ele>1013.0</ele><time>2026-04-23T08:34:04.999Z</time></trkpt><trkpt lat="42.53590360045923" lon="13.02903803346408"><ele>1012.5</ele><time>2026-04-23T08:34:05.999Z</time></trkpt><trkpt lat="42.53594059371117" lon="13.02918721872423"><ele>1012.0</ele><time>2026-04-23T08:34:06.999Z</time></trkpt><trkpt lat="42.53595747656603" lon="13.029363898144604"><ele>1011.5</ele><time>2026-04-23T08:34:07.999Z</time></trkpt><trkpt lat="42.535979964890686" lon="13.029525959950984"><ele>1011.0</ele><time>2026-04-23T08:34:08.999Z</time></trkpt><trkpt lat="42.53599646375715" lon="13.029674150923693"><ele>1011.0</ele><time>2026-04-23T08:34:09.999Z</time></trkpt><trkpt lat="42.53599377142594" lon="13.029820203606153"><ele>1010.9999999999999</ele><time>2026-04-23T08:34:10.999Z</time></trkpt><trkpt lat="42.535978630651336" lon="13.029972206080688"><ele>1010.9999999999999</ele><time>2026-04-23T08:34:11.999Z</time></trkpt><trkpt lat="42.535954804786165" lon="13.030111228533505"><ele>1011.0</ele><time>2026-04-23T08:34:12.999Z</time></trkpt><trkpt lat="42.53591005670316" lon="13.030247243819646"><ele>1011.0</ele><time>2026-04-23T08:34:13.999Z</time></trkpt><trkpt lat="42.53584845694273" lon="13.030396602723854"><ele>1011.0</ele><time>2026-04-23T08:34:14.999Z</time></trkpt><trkpt lat="42.535783856968756" lon="13.030552259096394"><ele>1011.0</ele><time>2026-04-23T08:34:15.999Z</time></trkpt><trkpt lat="42.53571817110285" lon="13.030709595585119"><ele>1011.0</ele><time>2026-04-23T08:34:16.999Z</time></trkpt><trkpt lat="42.535665856312114" lon="13.03087253195405"><ele>1011.0</ele><time>2026-04-23T08:34:17.999Z</time></trkpt><trkpt lat="42.53560122693009" lon="13.031034967338831"><ele>1011.0</ele><time>2026-04-23T08:34:18.999Z</time></trkpt><trkpt lat="42.53553958119788" lon="13.031183850004947"><ele>1011.0</ele><time>2026-04-23T08:34:19.999Z</time></trkpt><trkpt lat="42.53549460072057" lon="13.031330484668008"><ele>1011.0</ele><time>2026-04-23T08:34:20.999Z</time></trkpt><trkpt lat="42.535454216931626" lon="13.031464863384718"><ele>1011.0</ele><time>2026-04-23T08:34:21.999Z</time></trkpt><trkpt lat="42.535421982614686" lon="13.031611524750321"><ele>1010.75</ele><time>2026-04-23T08:34:22.999Z</time></trkpt><trkpt lat="42.53538734672093" lon="13.031776686492707"><ele>1010.5</ele><time>2026-04-23T08:34:23.999Z</time></trkpt><trkpt lat="42.53537102429482" lon="13.031943386907175"><ele>1010.25</ele><time>2026-04-23T08:34:24.999Z</time></trkpt><trkpt lat="42.535348287058326" lon="13.032106857248484"><ele>1010.0</ele><time>2026-04-23T08:34:25.999Z</time></trkpt><trkpt lat="42.53533937674328" lon="13.0322759764"><ele>1011.25</ele><time>2026-04-23T08:34:26.999Z</time></trkpt><trkpt lat="42.535352414360304" lon="13.032437205641894"><ele>1012.5</ele><time>2026-04-23T08:34:27.999Z</time></trkpt><trkpt lat="42.53537212207595" lon="13.032599174977632"><ele>1013.75</ele><time>2026-04-23T08:34:28.999Z</time></trkpt><trkpt lat="42.53537832222357" lon="13.032757981805574"><ele>1015.0</ele><time>2026-04-23T08:34:29.999Z</time></trkpt><trkpt lat="42.53536433390823" lon="13.03291863614797"><ele>1015.0</ele><time>2026-04-23T08:34:30.999Z</time></trkpt><trkpt lat="42.53533712168879" lon="13.033084251822798"><ele>1015.0</ele><time>2026-04-23T08:34:31.999Z</time></trkpt><trkpt lat="42.53531609677461" lon="13.03324197942723"><ele>1015.0</ele><time>2026-04-23T08:34:32.999Z</time></trkpt><trkpt lat="42.53529362096582" lon="13.033380032169278"><ele>1015.0</ele><time>2026-04-23T08:34:33.999Z</time></trkpt><trkpt lat="42.53524245494963" lon="13.033492389432691"><ele>1015.0</ele><time>2026-04-23T08:34:34.999Z</time></trkpt><trkpt lat="42.535196666416915" lon="13.033630270213251"><ele>1014.25</ele><time>2026-04-23T08:34:35.999Z</time></trkpt><trkpt lat="42.53513738618485" lon="13.033771940193857"><ele>1013.5</ele><time>2026-04-23T08:34:36.999Z</time></trkpt><trkpt lat="42.535065102112156" lon="13.033909567602528"><ele>1012.75</ele><time>2026-04-23T08:34:37.999Z</time></trkpt><trkpt lat="42.53499568047063" lon="13.034052371293992"><ele>1012.0</ele><time>2026-04-23T08:34:38.999Z</time></trkpt><trkpt lat="42.534924134352316" lon="13.034198233326357"><ele>1011.25</ele><time>2026-04-23T08:34:39.999Z</time></trkpt><trkpt lat="42.534847332841345" lon="13.034362922413862"><ele>1010.5</ele><time>2026-04-23T08:34:40.999Z</time></trkpt><trkpt lat="42.534777560022015" lon="13.034532471748888"><ele>1009.75</ele><time>2026-04-23T08:34:41.999Z</time></trkpt><trkpt lat="42.53472054525508" lon="13.034711334586941"><ele>1009.0</ele><time>2026-04-23T08:34:42.999Z</time></trkpt><trkpt lat="42.53467918338708" lon="13.034877643272473"><ele>1008.8000000000001</ele><time>2026-04-23T08:34:43.999Z</time></trkpt><trkpt lat="42.53464984637873" lon="13.035022107799236"><ele>1008.6000000000001</ele><time>2026-04-23T08:34:44.999Z</time></trkpt><trkpt lat="42.53462302752597" lon="13.035159374148341"><ele>1008.4</ele><time>2026-04-23T08:34:45.999Z</time></trkpt><trkpt lat="42.534611936600804" lon="13.035282163473441"><ele>1008.2</ele><time>2026-04-23T08:34:46.999Z</time></trkpt><trkpt lat="42.53456772089705" lon="13.035401588487643"><ele>1008.0</ele><time>2026-04-23T08:34:47.999Z</time></trkpt><trkpt lat="42.534545337082065" lon="13.035543114738216"><ele>1008.5999999999999</ele><time>2026-04-23T08:34:48.999Z</time></trkpt><trkpt lat="42.53452902214213" lon="13.035687715387917"><ele>1009.1999999999999</ele><time>2026-04-23T08:34:49.999Z</time></trkpt><trkpt lat="42.53452118002714" lon="13.035829915895887"><ele>1009.8</ele><time>2026-04-23T08:34:50.999Z</time></trkpt><trkpt lat="42.53451774052177" lon="13.035978592986208"><ele>1010.4</ele><time>2026-04-23T08:34:51.999Z</time></trkpt><trkpt lat="42.5345197128411" lon="13.036143456563739"><ele>1011.0</ele><time>2026-04-23T08:34:52.999Z</time></trkpt><trkpt lat="42.53452664260105" lon="13.036301272312834"><ele>1011.25</ele><time>2026-04-23T08:34:53.999Z</time></trkpt><trkpt lat="42.53454111861352" lon="13.036461567055158"><ele>1011.5</ele><time>2026-04-23T08:34:54.999Z</time></trkpt><trkpt lat="42.534567302491276" lon="13.036614749945624"><ele>1011.75</ele><time>2026-04-23T08:34:55.999Z</time></trkpt><trkpt lat="42.53460114041918" lon="13.036749360885915"><ele>1012.0</ele><time>2026-04-23T08:34:56.999Z</time></trkpt><trkpt lat="42.534616315693334" lon="13.036897622937902"><ele>1012.0</ele><time>2026-04-23T08:34:57.999Z</time></trkpt><trkpt lat="42.53464735877119" lon="13.037042120546971"><ele>1012.0</ele><time>2026-04-23T08:34:58.999Z</time></trkpt><trkpt lat="42.534694645418185" lon="13.037190451569407"><ele>1012.0</ele><time>2026-04-23T08:34:59.999Z</time></trkpt><trkpt lat="42.534728556726755" lon="13.03735380329537"><ele>1012.0</ele><time>2026-04-23T08:35:00.999Z</time></trkpt><trkpt lat="42.53477863550277" lon="13.037474727211825"><ele>1012.6</ele><time>2026-04-23T08:35:01.999Z</time></trkpt><trkpt lat="42.534830890136206" lon="13.037567068434079"><ele>1013.2</ele><time>2026-04-23T08:35:02.999Z</time></trkpt><trkpt lat="42.53489665257584" lon="13.037657808417544"><ele>1013.8</ele><time>2026-04-23T08:35:03.999Z</time></trkpt><trkpt lat="42.534961722722585" lon="13.037765809200463"><ele>1014.4</ele><time>2026-04-23T08:35:04.999Z</time></trkpt><trkpt lat="42.534991816941194" lon="13.037888448536075"><ele>1015.0</ele><time>2026-04-23T08:35:05.999Z</time></trkpt><trkpt lat="42.53501716228964" lon="13.038004336561128"><ele>1015.0</ele><time>2026-04-23T08:35:06.999Z</time></trkpt><trkpt lat="42.535030313423746" lon="13.038133169023546"><ele>1015.0</ele><time>2026-04-23T08:35:07.999Z</time></trkpt><trkpt lat="42.5350373201992" lon="13.038277612341217"><ele>1015.0</ele><time>2026-04-23T08:35:08.999Z</time></trkpt><trkpt lat="42.53505570338225" lon="13.038409614750972"><ele>1015.0</ele><time>2026-04-23T08:35:09.999Z</time></trkpt><trkpt lat="42.5350870734404" lon="13.038548148014135"><ele>1015.0</ele><time>2026-04-23T08:35:10.999Z</time></trkpt><trkpt lat="42.53511139968039" lon="13.038690177972134"><ele>1015.6666666666666</ele><time>2026-04-23T08:35:11.999Z</time></trkpt><trkpt lat="42.53513789279592" lon="13.038819013709734"><ele>1016.3333333333333</ele><time>2026-04-23T08:35:12.999Z</time></trkpt><trkpt lat="42.5351444607268" lon="13.038929432606203"><ele>1017.0</ele><time>2026-04-23T08:35:13.999Z</time></trkpt><trkpt lat="42.53514725941444" lon="13.039042314204062"><ele>1017.6666666666667</ele><time>2026-04-23T08:35:14.999Z</time></trkpt><trkpt lat="42.5351466263269" lon="13.039171648949747"><ele>1018.3333333333334</ele><time>2026-04-23T08:35:15.999Z</time></trkpt><trkpt lat="42.5351422352555" lon="13.039279341636549"><ele>1019.0</ele><time>2026-04-23T08:35:16.999Z</time></trkpt><trkpt lat="42.53513619162039" lon="13.039368598377163"><ele>1019.6</ele><time>2026-04-23T08:35:17.999Z</time></trkpt><trkpt lat="42.53511616302723" lon="13.039560351473328"><ele>1020.2</ele><time>2026-04-23T08:35:19.999Z</time></trkpt><trkpt lat="42.53508675457613" lon="13.039696243747974"><ele>1020.8000000000001</ele><time>2026-04-23T08:35:20.999Z</time></trkpt><trkpt lat="42.535050556040105" lon="13.039812889028614"><ele>1021.4000000000001</ele><time>2026-04-23T08:35:21.999Z</time></trkpt><trkpt lat="42.53500964643023" lon="13.03992819627262"><ele>1022.0</ele><time>2026-04-23T08:35:22.999Z</time></trkpt><trkpt lat="42.5349638911969" lon="13.040061024396696"><ele>1022.5</ele><time>2026-04-23T08:35:23.999Z</time></trkpt><trkpt lat="42.53492745908033" lon="13.040197548180462"><ele>1023.0</ele><time>2026-04-23T08:35:24.999Z</time></trkpt><trkpt lat="42.53490780862542" lon="13.040297041597466"><ele>1023.5</ele><time>2026-04-23T08:35:25.999Z</time></trkpt><trkpt lat="42.53488249864711" lon="13.040474573455946"><ele>1024.0</ele><time>2026-04-23T08:35:27.999Z</time></trkpt><trkpt lat="42.53486593709562" lon="13.040658664505928"><ele>1023.9999999999999</ele><time>2026-04-23T08:35:29.999Z</time></trkpt><trkpt lat="42.534862749293914" lon="13.040753640903704"><ele>1024.0</ele><time>2026-04-23T08:35:30.999Z</time></trkpt><trkpt lat="42.53487455975681" lon="13.040888006261888"><ele>1024.0</ele><time>2026-04-23T08:35:31.999Z</time></trkpt><trkpt lat="42.534895864707735" lon="13.041021961069369"><ele>1024.0</ele><time>2026-04-23T08:35:32.999Z</time></trkpt><trkpt lat="42.53493304604829" lon="13.04110568004924"><ele>1023.9999999999999</ele><time>2026-04-23T08:35:33.999Z</time></trkpt><trkpt lat="42.53494405015533" lon="13.041194037134419"><ele>1024.0</ele><time>2026-04-23T08:35:34.999Z</time></trkpt><trkpt lat="42.53497334751293" lon="13.041291201135577"><ele>1024.25</ele><time>2026-04-23T08:35:35.999Z</time></trkpt><trkpt lat="42.535000728826795" lon="13.041417645681218"><ele>1024.5</ele><time>2026-04-23T08:35:36.999Z</time></trkpt><trkpt lat="42.535023860630744" lon="13.041586888264312"><ele>1024.75</ele><time>2026-04-23T08:35:37.999Z</time></trkpt><trkpt lat="42.53507334345078" lon="13.041757427462402"><ele>1025.0</ele><time>2026-04-23T08:35:38.999Z</time></trkpt><trkpt lat="42.535128547943195" lon="13.041890209144551"><ele>1025.2</ele><time>2026-04-23T08:35:39.999Z</time></trkpt><trkpt lat="42.53519089350231" lon="13.042023480819811"><ele>1025.4</ele><time>2026-04-23T08:35:40.999Z</time></trkpt><trkpt lat="42.53524140223809" lon="13.042144546416397"><ele>1025.6</ele><time>2026-04-23T08:35:41.999Z</time></trkpt><trkpt lat="42.53528131608812" lon="13.042261935540045"><ele>1025.8</ele><time>2026-04-23T08:35:42.999Z</time></trkpt><trkpt lat="42.535299469970454" lon="13.042372493895469"><ele>1026.0</ele><time>2026-04-23T08:35:43.999Z</time></trkpt><trkpt lat="42.53530328206594" lon="13.042482160233133"><ele>1026.3333333333333</ele><time>2026-04-23T08:35:44.999Z</time></trkpt><trkpt lat="42.535293546491836" lon="13.042578880655045"><ele>1026.6666666666667</ele><time>2026-04-23T08:35:45.999Z</time></trkpt><trkpt lat="42.53527556378926" lon="13.042673121037206"><ele>1027.0</ele><time>2026-04-23T08:35:46.999Z</time></trkpt><trkpt lat="42.53525017303647" lon="13.042806311717689"><ele>1027.3333333333335</ele><time>2026-04-23T08:35:47.999Z</time></trkpt><trkpt lat="42.5352372038619" lon="13.04292238829479"><ele>1027.6666666666667</ele><time>2026-04-23T08:35:48.999Z</time></trkpt><trkpt lat="42.53524801478525" lon="13.043049032549641"><ele>1028.0</ele><time>2026-04-23T08:35:49.999Z</time></trkpt><trkpt lat="42.53525703659275" lon="13.043194237487025"><ele>1028.4</ele><time>2026-04-23T08:35:50.999Z</time></trkpt><trkpt lat="42.535243064219365" lon="13.043333169812227"><ele>1028.8</ele><time>2026-04-23T08:35:51.999Z</time></trkpt><trkpt lat="42.53522959044121" lon="13.043456577166197"><ele>1029.2</ele><time>2026-04-23T08:35:52.999Z</time></trkpt><trkpt lat="42.53521419340379" lon="13.043557389007429"><ele>1029.6</ele><time>2026-04-23T08:35:53.999Z</time></trkpt><trkpt lat="42.53519085608867" lon="13.043673675877484"><ele>1030.0</ele><time>2026-04-23T08:35:54.999Z</time></trkpt><trkpt lat="42.535171124602286" lon="13.043803290338774"><ele>1030.0</ele><time>2026-04-23T08:35:55.999Z</time></trkpt><trkpt lat="42.53514245936867" lon="13.043930973536874"><ele>1030.0</ele><time>2026-04-23T08:35:56.999Z</time></trkpt><trkpt lat="42.535097039887894" lon="13.044029064244128"><ele>1030.0</ele><time>2026-04-23T08:35:57.999Z</time></trkpt><trkpt lat="42.535061501922904" lon="13.04414315225282"><ele>1030.0</ele><time>2026-04-23T08:35:58.999Z</time></trkpt><trkpt lat="42.535016808269695" lon="13.044281701410823"><ele>1030.0</ele><time>2026-04-23T08:35:59.999Z</time></trkpt><trkpt lat="42.534973949221964" lon="13.044412905828116"><ele>1030.25</ele><time>2026-04-23T08:36:00.999Z</time></trkpt><trkpt lat="42.53492710354267" lon="13.044556314474661"><ele>1030.5</ele><time>2026-04-23T08:36:01.999Z</time></trkpt><trkpt lat="42.53489769463323" lon="13.044703828630487"><ele>1030.75</ele><time>2026-04-23T08:36:02.999Z</time></trkpt><trkpt lat="42.53483398812462" lon="13.044851023495942"><ele>1031.0</ele><time>2026-04-23T08:36:03.999Z</time></trkpt><trkpt lat="42.534803364965775" lon="13.045003878741756"><ele>1031.25</ele><time>2026-04-23T08:36:04.999Z</time></trkpt><trkpt lat="42.5347682844686" lon="13.045166492977733"><ele>1031.5</ele><time>2026-04-23T08:36:05.999Z</time></trkpt><trkpt lat="42.534733053621984" lon="13.045327655908558"><ele>1031.75</ele><time>2026-04-23T08:36:06.999Z</time></trkpt><trkpt lat="42.53468897828828" lon="13.04549184294746"><ele>1032.0</ele><time>2026-04-23T08:36:07.999Z</time></trkpt><trkpt lat="42.53462496247298" lon="13.04564150016845"><ele>1032.0</ele><time>2026-04-23T08:36:08.999Z</time></trkpt><trkpt lat="42.53457271206133" lon="13.045773907626556"><ele>1032.0</ele><time>2026-04-23T08:36:09.999Z</time></trkpt><trkpt lat="42.53450189939564" lon="13.045919403087987"><ele>1032.0</ele><time>2026-04-23T08:36:10.999Z</time></trkpt><trkpt lat="42.53444935586741" lon="13.046061162268845"><ele>1032.0</ele><time>2026-04-23T08:36:11.999Z</time></trkpt><trkpt lat="42.53437238589454" lon="13.046186083852627"><ele>1033.75</ele><time>2026-04-23T08:36:12.999Z</time></trkpt><trkpt lat="42.53432601202332" lon="13.046326569497792"><ele>1035.5</ele><time>2026-04-23T08:36:13.999Z</time></trkpt><trkpt lat="42.53426382959152" lon="13.046459615957389"><ele>1037.25</ele><time>2026-04-23T08:36:14.999Z</time></trkpt><trkpt lat="42.53418864499723" lon="13.04659817801186"><ele>1039.0</ele><time>2026-04-23T08:36:15.999Z</time></trkpt><trkpt lat="42.53414739892012" lon="13.04674718055919"><ele>1039.4</ele><time>2026-04-23T08:36:16.999Z</time></trkpt><trkpt lat="42.53408347659224" lon="13.046866494231379"><ele>1039.8000000000002</ele><time>2026-04-23T08:36:17.999Z</time></trkpt><trkpt lat="42.53405759592312" lon="13.046974271642448"><ele>1040.1999999999998</ele><time>2026-04-23T08:36:18.999Z</time></trkpt><trkpt lat="42.53402403486882" lon="13.047058754097932"><ele>1040.6</ele><time>2026-04-23T08:36:19.999Z</time></trkpt><trkpt lat="42.53397504203434" lon="13.04715237667004"><ele>1041.0</ele><time>2026-04-23T08:36:21.999Z</time></trkpt><trkpt lat="42.534057410374366" lon="13.0472635946282"><ele>1041.0</ele><time>2026-04-23T08:36:23.999Z</time></trkpt><trkpt lat="42.53411668949644" lon="13.047321358463387"><ele>1041.0</ele><time>2026-04-23T08:36:24.999Z</time></trkpt><trkpt lat="42.53419141995516" lon="13.047381535988496"><ele>1041.0</ele><time>2026-04-23T08:36:25.999Z</time></trkpt><trkpt lat="42.53424292008383" lon="13.04745947469859"><ele>1041.0</ele><time>2026-04-23T08:36:26.999Z</time></trkpt><trkpt lat="42.53428988476806" lon="13.047520002560692"><ele>1041.0</ele><time>2026-04-23T08:36:28.999Z</time></trkpt><trkpt lat="42.53421933235347" lon="13.047610260022891"><ele>1041.0</ele><time>2026-04-23T08:36:30.999Z</time></trkpt><trkpt lat="42.5341673520786" lon="13.047708145457873"><ele>1041.8</ele><time>2026-04-23T08:36:31.999Z</time></trkpt><trkpt lat="42.534127982265126" lon="13.047822764836953"><ele>1042.6</ele><time>2026-04-23T08:36:32.999Z</time></trkpt><trkpt lat="42.534064453986836" lon="13.047936065643393"><ele>1043.4</ele><time>2026-04-23T08:36:33.999Z</time></trkpt><trkpt lat="42.533997392015365" lon="13.048066066475387"><ele>1044.2</ele><time>2026-04-23T08:36:34.999Z</time></trkpt><trkpt lat="42.53392706923397" lon="13.048194062938322"><ele>1045.0</ele><time>2026-04-23T08:36:35.999Z</time></trkpt><trkpt lat="42.53385544632439" lon="13.04833136145967"><ele>1045.5</ele><time>2026-04-23T08:36:36.999Z</time></trkpt><trkpt lat="42.53377584202198" lon="13.048475404976378"><ele>1046.0</ele><time>2026-04-23T08:36:37.999Z</time></trkpt><trkpt lat="42.5337009450451" lon="13.048620144694452"><ele>1046.5</ele><time>2026-04-23T08:36:38.999Z</time></trkpt><trkpt lat="42.53362011583277" lon="13.04876804191052"><ele>1047.0</ele><time>2026-04-23T08:36:39.999Z</time></trkpt><trkpt lat="42.533530470950105" lon="13.048900538546393"><ele>1047.0</ele><time>2026-04-23T08:36:40.999Z</time></trkpt><trkpt lat="42.53345944695866" lon="13.049033226113307"><ele>1047.0</ele><time>2026-04-23T08:36:41.999Z</time></trkpt><trkpt lat="42.53340607310289" lon="13.04916950243623"><ele>1047.0</ele><time>2026-04-23T08:36:42.999Z</time></trkpt><trkpt lat="42.53333844236763" lon="13.049293307438848"><ele>1047.0</ele><time>2026-04-23T08:36:43.999Z</time></trkpt><trkpt lat="42.533271504019325" lon="13.049419139846462"><ele>1047.25</ele><time>2026-04-23T08:36:44.999Z</time></trkpt><trkpt lat="42.53320555979715" lon="13.049546932620963"><ele>1047.5</ele><time>2026-04-23T08:36:45.999Z</time></trkpt><trkpt lat="42.53313779301971" lon="13.049674260218696"><ele>1047.75</ele><time>2026-04-23T08:36:46.999Z</time></trkpt><trkpt lat="42.533068233794076" lon="13.04979979682108"><ele>1048.0</ele><time>2026-04-23T08:36:47.999Z</time></trkpt><trkpt lat="42.532997844684814" lon="13.049926383385104"><ele>1048.75</ele><time>2026-04-23T08:36:48.999Z</time></trkpt><trkpt lat="42.53293042493459" lon="13.050053360963519"><ele>1049.5</ele><time>2026-04-23T08:36:49.999Z</time></trkpt><trkpt lat="42.53286486158357" lon="13.050181066292657"><ele>1050.25</ele><time>2026-04-23T08:36:50.999Z</time></trkpt><trkpt lat="42.53279475530409" lon="13.050307578867693"><ele>1051.0</ele><time>2026-04-23T08:36:51.999Z</time></trkpt><trkpt lat="42.532724328013806" lon="13.050432609309714"><ele>1051.0</ele><time>2026-04-23T08:36:52.999Z</time></trkpt><trkpt lat="42.53265639503496" lon="13.050559659908995"><ele>1051.0</ele><time>2026-04-23T08:36:53.999Z</time></trkpt><trkpt lat="42.532385235765155" lon="13.051036648901682"><ele>1051.0</ele><time>2026-04-23T08:36:57.999Z</time></trkpt><trkpt lat="42.53231821484736" lon="13.051160518916754"><ele>1051.0</ele><time>2026-04-23T08:36:58.999Z</time></trkpt><trkpt lat="42.5322567092356" lon="13.051275041538696"><ele>1051.0</ele><time>2026-04-23T08:36:59.999Z</time></trkpt><trkpt lat="42.5322041232272" lon="13.05140749338638"><ele>1051.0</ele><time>2026-04-23T08:37:00.999Z</time></trkpt><trkpt lat="42.532143029662244" lon="13.051523351003906"><ele>1051.0</ele><time>2026-04-23T08:37:01.999Z</time></trkpt><trkpt lat="42.53208336948369" lon="13.051633374524792"><ele>1051.3999999999999</ele><time>2026-04-23T08:37:02.999Z</time></trkpt><trkpt lat="42.532012237046125" lon="13.05173111845384"><ele>1051.8</ele><time>2026-04-23T08:37:03.999Z</time></trkpt><trkpt lat="42.531951261946645" lon="13.051845698275748"><ele>1052.1999999999998</ele><time>2026-04-23T08:37:04.999Z</time></trkpt><trkpt lat="42.53190172031502" lon="13.051976226273876"><ele>1052.6</ele><time>2026-04-23T08:37:05.999Z</time></trkpt><trkpt lat="42.531817982591505" lon="13.052096086207932"><ele>1053.0</ele><time>2026-04-23T08:37:06.999Z</time></trkpt><trkpt lat="42.53174320836073" lon="13.052236097824792"><ele>1053.0</ele><time>2026-04-23T08:37:07.999Z</time></trkpt><trkpt lat="42.53166424915436" lon="13.052383945595267"><ele>1053.0</ele><time>2026-04-23T08:37:08.999Z</time></trkpt><trkpt lat="42.531593501706254" lon="13.052550600015866"><ele>1053.0</ele><time>2026-04-23T08:37:09.999Z</time></trkpt><trkpt lat="42.53150345405083" lon="13.052710423731332"><ele>1053.0</ele><time>2026-04-23T08:37:10.999Z</time></trkpt><trkpt lat="42.53140941340585" lon="13.052878488429618"><ele>1053.0</ele><time>2026-04-23T08:37:11.999Z</time></trkpt><trkpt lat="42.53131264113221" lon="13.053059660890561"><ele>1053.0</ele><time>2026-04-23T08:37:12.999Z</time></trkpt><trkpt lat="42.53121573490394" lon="13.053254210278851"><ele>1053.0</ele><time>2026-04-23T08:37:13.999Z</time></trkpt><trkpt lat="42.531109006598534" lon="13.053449015777"><ele>1053.0</ele><time>2026-04-23T08:37:14.999Z</time></trkpt><trkpt lat="42.53099986094551" lon="13.053650998474604"><ele>1053.0</ele><time>2026-04-23T08:37:15.999Z</time></trkpt><trkpt lat="42.530889571033946" lon="13.05386313554135"><ele>1053.0</ele><time>2026-04-23T08:37:16.999Z</time></trkpt><trkpt lat="42.530768203146685" lon="13.054060126122724"><ele>1052.3333333333333</ele><time>2026-04-23T08:37:17.999Z</time></trkpt><trkpt lat="42.53066464787107" lon="13.054277454837722"><ele>1051.6666666666665</ele><time>2026-04-23T08:37:18.999Z</time></trkpt><trkpt lat="42.53057665158568" lon="13.054500431277527"><ele>1051.0</ele><time>2026-04-23T08:37:19.999Z</time></trkpt><trkpt lat="42.530516342098885" lon="13.05473750125241"><ele>1051.0</ele><time>2026-04-23T08:37:20.999Z</time></trkpt><trkpt lat="42.53043519056518" lon="13.054949864831848"><ele>1051.0</ele><time>2026-04-23T08:37:21.999Z</time></trkpt><trkpt lat="42.53038467853418" lon="13.055178615910645"><ele>1051.0</ele><time>2026-04-23T08:37:22.999Z</time></trkpt><trkpt lat="42.5303070902272" lon="13.055382877191974"><ele>1049.6666666666665</ele><time>2026-04-23T08:37:23.999Z</time></trkpt><trkpt lat="42.53024350524742" lon="13.055592059366505"><ele>1048.3333333333333</ele><time>2026-04-23T08:37:24.999Z</time></trkpt><trkpt lat="42.53017865178552" lon="13.055802353331016"><ele>1047.0</ele><time>2026-04-23T08:37:25.999Z</time></trkpt><trkpt lat="42.53011210480763" lon="13.056010527859904"><ele>1046.3333333333333</ele><time>2026-04-23T08:37:26.999Z</time></trkpt><trkpt lat="42.53004347711833" lon="13.056223499837522"><ele>1045.6666666666665</ele><time>2026-04-23T08:37:27.999Z</time></trkpt><trkpt lat="42.52999577505103" lon="13.056433305233814"><ele>1045.0</ele><time>2026-04-23T08:37:28.999Z</time></trkpt><trkpt lat="42.529989335722654" lon="13.0566337449423"><ele>1044.75</ele><time>2026-04-23T08:37:29.999Z</time></trkpt><trkpt lat="42.52999624671431" lon="13.056816406043097"><ele>1044.5</ele><time>2026-04-23T08:37:30.999Z</time></trkpt><trkpt lat="42.52996528709508" lon="13.056977151145698"><ele>1044.25</ele><time>2026-04-23T08:37:31.999Z</time></trkpt><trkpt lat="42.52991980342632" lon="13.057099437682224"><ele>1044.0</ele><time>2026-04-23T08:37:32.999Z</time></trkpt><trkpt lat="42.529846235850805" lon="13.057178581254293"><ele>1044.0</ele><time>2026-04-23T08:37:33.999Z</time></trkpt><trkpt lat="42.52974697649627" lon="13.057197605375169"><ele>1044.0</ele><time>2026-04-23T08:37:34.999Z</time></trkpt><trkpt lat="42.529646905474074" lon="13.05724867428783"><ele>1044.0</ele><time>2026-04-23T08:37:35.999Z</time></trkpt><trkpt lat="42.52957019068608" lon="13.057325476402735"><ele>1044.0</ele><time>2026-04-23T08:37:36.999Z</time></trkpt><trkpt lat="42.52953201626953" lon="13.057458969107163"><ele>1044.0</ele><time>2026-04-23T08:37:37.999Z</time></trkpt><trkpt lat="42.52953968060268" lon="13.05760596195809"><ele>1044.4</ele><time>2026-04-23T08:37:38.999Z</time></trkpt><trkpt lat="42.5296151877991" lon="13.057704925510205"><ele>1044.8000000000002</ele><time>2026-04-23T08:37:39.999Z</time></trkpt><trkpt lat="42.52970334800289" lon="13.057770116125933"><ele>1045.1999999999998</ele><time>2026-04-23T08:37:40.999Z</time></trkpt><trkpt lat="42.52981213105202" lon="13.057783259283086"><ele>1045.6</ele><time>2026-04-23T08:37:41.999Z</time></trkpt><trkpt lat="42.52993378571735" lon="13.057761826959233"><ele>1046.0</ele><time>2026-04-23T08:37:42.999Z</time></trkpt><trkpt lat="42.530046603024196" lon="13.057773536585334"><ele>1046.0</ele><time>2026-04-23T08:37:43.999Z</time></trkpt><trkpt lat="42.5301435427824" lon="13.057832778368875"><ele>1046.0</ele><time>2026-04-23T08:37:44.999Z</time></trkpt><trkpt lat="42.53020161355758" lon="13.057953944585423"><ele>1046.0</ele><time>2026-04-23T08:37:45.999Z</time></trkpt><trkpt lat="42.530236685121864" lon="13.058082501515091"><ele>1046.0</ele><time>2026-04-23T08:37:46.999Z</time></trkpt><trkpt lat="42.53024648843405" lon="13.058228095901434"><ele>1046.0</ele><time>2026-04-23T08:37:47.999Z</time></trkpt><trkpt lat="42.53018196479838" lon="13.05835132591317"><ele>1045.25</ele><time>2026-04-23T08:37:48.999Z</time></trkpt><trkpt lat="42.53009816489557" lon="13.058449099362297"><ele>1044.5</ele><time>2026-04-23T08:37:49.999Z</time></trkpt><trkpt lat="42.5300278970309" lon="13.058557360674037"><ele>1043.75</ele><time>2026-04-23T08:37:50.999Z</time></trkpt><trkpt lat="42.53000471622606" lon="13.058710041006739"><ele>1043.0</ele><time>2026-04-23T08:37:51.999Z</time></trkpt><trkpt lat="42.53003382991133" lon="13.058877304114437"><ele>1043.0</ele><time>2026-04-23T08:37:52.999Z</time></trkpt><trkpt lat="42.530088493642076" lon="13.05903082717144"><ele>1043.0</ele><time>2026-04-23T08:37:53.999Z</time></trkpt><trkpt lat="42.5301736630486" lon="13.059157490740994"><ele>1043.0</ele><time>2026-04-23T08:37:54.999Z</time></trkpt><trkpt lat="42.53029068348104" lon="13.05923963981835"><ele>1043.0</ele><time>2026-04-23T08:37:55.999Z</time></trkpt><trkpt lat="42.530419361948454" lon="13.059268288576009"><ele>1046.75</ele><time>2026-04-23T08:37:56.999Z</time></trkpt><trkpt lat="42.53054326569039" lon="13.059276637333834"><ele>1050.5</ele><time>2026-04-23T08:37:57.999Z</time></trkpt><trkpt lat="42.530648146869545" lon="13.059333584261896"><ele>1054.25</ele><time>2026-04-23T08:37:58.999Z</time></trkpt><trkpt lat="42.53070931890051" lon="13.059464169470578"><ele>1058.0</ele><time>2026-04-23T08:37:59.999Z</time></trkpt><trkpt lat="42.530761511075525" lon="13.059620403342429"><ele>1058.0</ele><time>2026-04-23T08:38:00.999Z</time></trkpt><trkpt lat="42.53077543648016" lon="13.059797643691217"><ele>1058.0</ele><time>2026-04-23T08:38:01.999Z</time></trkpt><trkpt lat="42.530755059938805" lon="13.059969812529653"><ele>1058.0</ele><time>2026-04-23T08:38:02.999Z</time></trkpt><trkpt lat="42.53070501476116" lon="13.060123781714518"><ele>1058.0</ele><time>2026-04-23T08:38:03.999Z</time></trkpt><trkpt lat="42.53060856257581" lon="13.060254389818775"><ele>1055.5</ele><time>2026-04-23T08:38:04.999Z</time></trkpt><trkpt lat="42.53052861269352" lon="13.060367435135658"><ele>1053.0</ele><time>2026-04-23T08:38:05.999Z</time></trkpt><trkpt lat="42.5304540851383" lon="13.060468534412722"><ele>1050.5</ele><time>2026-04-23T08:38:06.999Z</time></trkpt><trkpt lat="42.53043949538096" lon="13.06062278079389"><ele>1048.0</ele><time>2026-04-23T08:38:07.999Z</time></trkpt><trkpt lat="42.530484700587095" lon="13.06077463196289"><ele>1046.75</ele><time>2026-04-23T08:38:08.999Z</time></trkpt><trkpt lat="42.530586453646684" lon="13.06086864682637"><ele>1045.5</ele><time>2026-04-23T08:38:09.999Z</time></trkpt><trkpt lat="42.530680768145956" lon="13.060945011779078"><ele>1044.25</ele><time>2026-04-23T08:38:10.999Z</time></trkpt><trkpt lat="42.53078174486322" lon="13.061015467844578"><ele>1043.0</ele><time>2026-04-23T08:38:11.999Z</time></trkpt><trkpt lat="42.530894496105546" lon="13.061096192541259"><ele>1043.0</ele><time>2026-04-23T08:38:12.999Z</time></trkpt><trkpt lat="42.530996691650095" lon="13.061160290124707"><ele>1043.0</ele><time>2026-04-23T08:38:13.999Z</time></trkpt><trkpt lat="42.531059033322116" lon="13.06126694271913"><ele>1043.0</ele><time>2026-04-23T08:38:14.999Z</time></trkpt><trkpt lat="42.53107098946849" lon="13.061387842660988"><ele>1043.0</ele><time>2026-04-23T08:38:15.999Z</time></trkpt><trkpt lat="42.53103185957103" lon="13.061503632440097"><ele>1043.0</ele><time>2026-04-23T08:38:16.999Z</time></trkpt><trkpt lat="42.5309457804593" lon="13.061552587595328"><ele>1043.0</ele><time>2026-04-23T08:38:18Z</time></trkpt><trkpt lat="42.53085311958471" lon="13.061608249210405"><ele>1043.0</ele><time>2026-04-23T08:38:19Z</time></trkpt><trkpt lat="42.53073192322552" lon="13.06161662121273"><ele>1043.0</ele><time>2026-04-23T08:38:20Z</time></trkpt><trkpt lat="42.53059007833551" lon="13.06162436219748"><ele>1043.0</ele><time>2026-04-23T08:38:20.999Z</time></trkpt><trkpt lat="42.53045394886165" lon="13.061651447129123"><ele>1039.5</ele><time>2026-04-23T08:38:21.999Z</time></trkpt><trkpt lat="42.5303332863881" lon="13.061699126756134"><ele>1036.0</ele><time>2026-04-23T08:38:22.999Z</time></trkpt><trkpt lat="42.530255061588655" lon="13.061844695022105"><ele>1032.5</ele><time>2026-04-23T08:38:23.999Z</time></trkpt><trkpt lat="42.53018113205497" lon="13.06198795383968"><ele>1029.0</ele><time>2026-04-23T08:38:24.999Z</time></trkpt><trkpt lat="42.53011090041952" lon="13.06210902534861"><ele>1029.0</ele><time>2026-04-23T08:38:25.999Z</time></trkpt><trkpt lat="42.53001126400191" lon="13.06215234073141"><ele>1029.0</ele><time>2026-04-23T08:38:26.999Z</time></trkpt><trkpt lat="42.529899865546255" lon="13.062161761049378"><ele>1029.0</ele><time>2026-04-23T08:38:27.999Z</time></trkpt><trkpt lat="42.52976340671476" lon="13.062176679068054"><ele>1029.0</ele><time>2026-04-23T08:38:28.999Z</time></trkpt><trkpt lat="42.529613762372335" lon="13.062235957492797"><ele>1027.6666666666667</ele><time>2026-04-23T08:38:29.999Z</time></trkpt><trkpt lat="42.529459003532914" lon="13.062282244480597"><ele>1026.3333333333335</ele><time>2026-04-23T08:38:30.999Z</time></trkpt><trkpt lat="42.52930842727768" lon="13.062383764578861"><ele>1025.0</ele><time>2026-04-23T08:38:31.999Z</time></trkpt><trkpt lat="42.529173414341805" lon="13.062545003257492"><ele>1025.0</ele><time>2026-04-23T08:38:32.999Z</time></trkpt><trkpt lat="42.529044494668305" lon="13.06270707287616"><ele>1025.0</ele><time>2026-04-23T08:38:33.999Z</time></trkpt><trkpt lat="42.52893352396775" lon="13.062893356014076"><ele>1025.0</ele><time>2026-04-23T08:38:34.999Z</time></trkpt><trkpt lat="42.5288374482257" lon="13.063097134456287"><ele>1026.6666666666667</ele><time>2026-04-23T08:38:35.998Z</time></trkpt><trkpt lat="42.52876672147577" lon="13.063315024499044"><ele>1028.3333333333333</ele><time>2026-04-23T08:38:36.998Z</time></trkpt><trkpt lat="42.52872092469476" lon="13.063530841036489"><ele>1030.0</ele><time>2026-04-23T08:38:37.998Z</time></trkpt><trkpt lat="42.52869349194046" lon="13.063728446704612"><ele>1030.0</ele><time>2026-04-23T08:38:38.998Z</time></trkpt><trkpt lat="42.52869944974742" lon="13.06391634462575"><ele>1030.0</ele><time>2026-04-23T08:38:39.998Z</time></trkpt><trkpt lat="42.52874995076995" lon="13.064098367511829"><ele>1030.0</ele><time>2026-04-23T08:38:40.998Z</time></trkpt><trkpt lat="42.528839040036864" lon="13.06425594074615"><ele>1030.0</ele><time>2026-04-23T08:38:41.998Z</time></trkpt><trkpt lat="42.52896509923543" lon="13.064390911708516"><ele>1027.3333333333333</ele><time>2026-04-23T08:38:42.998Z</time></trkpt><trkpt lat="42.52911862433911" lon="13.064507808521281"><ele>1024.6666666666667</ele><time>2026-04-23T08:38:43.998Z</time></trkpt><trkpt lat="42.52928540124124" lon="13.064633024413117"><ele>1022.0</ele><time>2026-04-23T08:38:44.998Z</time></trkpt><trkpt lat="42.52943526645031" lon="13.064767808914558"><ele>1022.0</ele><time>2026-04-23T08:38:45.998Z</time></trkpt><trkpt lat="42.52955390926893" lon="13.064936683271165"><ele>1022.0</ele><time>2026-04-23T08:38:46.998Z</time></trkpt><trkpt lat="42.529619101698046" lon="13.06514516517887"><ele>1022.0</ele><time>2026-04-23T08:38:47.998Z</time></trkpt><trkpt lat="42.52968610305625" lon="13.065321697054467"><ele>1021.5</ele><time>2026-04-23T08:38:48.998Z</time></trkpt><trkpt lat="42.529732232342184" lon="13.065493261678833"><ele>1021.0</ele><time>2026-04-23T08:38:49.998Z</time></trkpt><trkpt lat="42.52978443970348" lon="13.065631825898285"><ele>1020.5</ele><time>2026-04-23T08:38:50.998Z</time></trkpt><trkpt lat="42.52985082593641" lon="13.065754274572798"><ele>1020.0</ele><time>2026-04-23T08:38:51.998Z</time></trkpt><trkpt lat="42.5299202686233" lon="13.065858526422167"><ele>1018.8</ele><time>2026-04-23T08:38:52.998Z</time></trkpt><trkpt lat="42.52999107802511" lon="13.065947926645235"><ele>1017.6</ele><time>2026-04-23T08:38:53.998Z</time></trkpt><trkpt lat="42.530029737492086" lon="13.066063885561212"><ele>1016.4000000000001</ele><time>2026-04-23T08:38:54.998Z</time></trkpt><trkpt lat="42.5300693349836" lon="13.066167111765735"><ele>1015.2</ele><time>2026-04-23T08:38:55.998Z</time></trkpt><trkpt lat="42.53009842619226" lon="13.06627958172253"><ele>1014.0</ele><time>2026-04-23T08:38:56.998Z</time></trkpt><trkpt lat="42.53011851657459" lon="13.06642149447809"><ele>1014.0</ele><time>2026-04-23T08:38:57.998Z</time></trkpt><trkpt lat="42.530137275644805" lon="13.066576928348786"><ele>1014.0</ele><time>2026-04-23T08:38:58.998Z</time></trkpt><trkpt lat="42.530193962749344" lon="13.066718152067278"><ele>1014.0</ele><time>2026-04-23T08:38:59.998Z</time></trkpt><trkpt lat="42.530307076749864" lon="13.066804323579747"><ele>1014.0</ele><time>2026-04-23T08:39:00.998Z</time></trkpt><trkpt lat="42.530429368033026" lon="13.066873731200037"><ele>1015.5</ele><time>2026-04-23T08:39:01.998Z</time></trkpt><trkpt lat="42.53055043742321" lon="13.06696130207546"><ele>1017.0</ele><time>2026-04-23T08:39:02.998Z</time></trkpt><trkpt lat="42.53065132645038" lon="13.067110430958943"><ele>1018.5</ele><time>2026-04-23T08:39:03.998Z</time></trkpt><trkpt lat="42.53071379101296" lon="13.067297740125502"><ele>1020.0</ele><time>2026-04-23T08:39:04.998Z</time></trkpt><trkpt lat="42.53076970432096" lon="13.067476367878179"><ele>1015.25</ele><time>2026-04-23T08:39:05.998Z</time></trkpt><trkpt lat="42.5308422244428" lon="13.067631789472653"><ele>1010.5</ele><time>2026-04-23T08:39:06.998Z</time></trkpt><trkpt lat="42.53094416157405" lon="13.067740414523762"><ele>1005.75</ele><time>2026-04-23T08:39:07.998Z</time></trkpt><trkpt lat="42.53105778260384" lon="13.067798043883414"><ele>1001.0</ele><time>2026-04-23T08:39:08.998Z</time></trkpt><trkpt lat="42.531135380962326" lon="13.06781944102895"><ele>1001.0</ele><time>2026-04-23T08:39:09.998Z</time></trkpt><trkpt lat="42.53117502409569" lon="13.067911980019034"><ele>1000.9999999999999</ele><time>2026-04-23T08:39:11.998Z</time></trkpt><trkpt lat="42.53106957338698" lon="13.068000923631551"><ele>1000.9999999999999</ele><time>2026-04-23T08:39:13.998Z</time></trkpt><trkpt lat="42.530974130298986" lon="13.067980654878781"><ele>1001.0</ele><time>2026-04-23T08:39:14.998Z</time></trkpt><trkpt lat="42.5308843543121" lon="13.067959063766196"><ele>1001.0</ele><time>2026-04-23T08:39:15.998Z</time></trkpt><trkpt lat="42.53080168665547" lon="13.067901153439578"><ele>1001.0</ele><time>2026-04-23T08:39:16.998Z</time></trkpt><trkpt lat="42.53073352929634" lon="13.067805822247912"><ele>1000.9999999999999</ele><time>2026-04-23T08:39:17.998Z</time></trkpt><trkpt lat="42.53067778729246" lon="13.067678226666724"><ele>1000.9999999999999</ele><time>2026-04-23T08:39:18.998Z</time></trkpt><trkpt lat="42.53063112238943" lon="13.06755713222638"><ele>1001.0</ele><time>2026-04-23T08:39:19.998Z</time></trkpt><trkpt lat="42.530581131502586" lon="13.067448702297643"><ele>1001.0</ele><time>2026-04-23T08:39:20.998Z</time></trkpt><trkpt lat="42.530524508804014" lon="13.067349314054445"><ele>1001.1666666666667</ele><time>2026-04-23T08:39:21.998Z</time></trkpt><trkpt lat="42.53046302593108" lon="13.06726029543324"><ele>1001.3333333333334</ele><time>2026-04-23T08:39:22.998Z</time></trkpt><trkpt lat="42.53038907770646" lon="13.067198512655224"><ele>1001.5</ele><time>2026-04-23T08:39:23.998Z</time></trkpt><trkpt lat="42.530307185934255" lon="13.06716196398638"><ele>1001.6666666666667</ele><time>2026-04-23T08:39:24.998Z</time></trkpt><trkpt lat="42.53022368500621" lon="13.067150857941629"><ele>1001.8333333333334</ele><time>2026-04-23T08:39:25.998Z</time></trkpt><trkpt lat="42.53014301604485" lon="13.067163910878119"><ele>1002.0</ele><time>2026-04-23T08:39:26.998Z</time></trkpt><trkpt lat="42.5300667785705" lon="13.067193317198642"><ele>1002.0</ele><time>2026-04-23T08:39:27.998Z</time></trkpt><trkpt lat="42.5299928686686" lon="13.067233070150067"><ele>1002.0</ele><time>2026-04-23T08:39:28.998Z</time></trkpt><trkpt lat="42.529925062839986" lon="13.067283641713647"><ele>1002.0</ele><time>2026-04-23T08:39:29.998Z</time></trkpt><trkpt lat="42.52985817248661" lon="13.06734482840616"><ele>1002.0</ele><time>2026-04-23T08:39:30.998Z</time></trkpt><trkpt lat="42.52978204443358" lon="13.067390617738718"><ele>1002.0</ele><time>2026-04-23T08:39:31.998Z</time></trkpt><trkpt lat="42.529700387932856" lon="13.0674117028699"><ele>1002.0</ele><time>2026-04-23T08:39:32.998Z</time></trkpt><trkpt lat="42.52962174303951" lon="13.067386627806366"><ele>998.2</ele><time>2026-04-23T08:39:33.998Z</time></trkpt><trkpt lat="42.52955878140063" lon="13.067310567881572"><ele>994.4000000000001</ele><time>2026-04-23T08:39:34.998Z</time></trkpt><trkpt lat="42.52951460336413" lon="13.06720690203989"><ele>990.5999999999999</ele><time>2026-04-23T08:39:35.998Z</time></trkpt><trkpt lat="42.529476292138675" lon="13.067087248341341"><ele>986.8</ele><time>2026-04-23T08:39:36.997Z</time></trkpt><trkpt lat="42.52944928339743" lon="13.06696113244499"><ele>983.0</ele><time>2026-04-23T08:39:37.997Z</time></trkpt><trkpt lat="42.52941392410763" lon="13.066854263511459"><ele>983.0000000000001</ele><time>2026-04-23T08:39:38.997Z</time></trkpt><trkpt lat="42.5293651715648" lon="13.06678450254679"><ele>983.0</ele><time>2026-04-23T08:39:39.997Z</time></trkpt><trkpt lat="42.52930202886935" lon="13.066734724063759"><ele>983.0</ele><time>2026-04-23T08:39:40.997Z</time></trkpt><trkpt lat="42.52920933119377" lon="13.066754344123018"><ele>983.0</ele><time>2026-04-23T08:39:41.997Z</time></trkpt><trkpt lat="42.529146307309674" lon="13.066828165523471"><ele>983.0000000000001</ele><time>2026-04-23T08:39:42.997Z</time></trkpt><trkpt lat="42.5291000021801" lon="13.066929439948629"><ele>983.0</ele><time>2026-04-23T08:39:43.997Z</time></trkpt><trkpt lat="42.52906701031896" lon="13.067018944039564"><ele>983.0000000000001</ele><time>2026-04-23T08:39:44.997Z</time></trkpt><trkpt lat="42.52902633346774" lon="13.067114628658972"><ele>983.0</ele><time>2026-04-23T08:39:45.997Z</time></trkpt><trkpt lat="42.52894855243433" lon="13.067163791105054"><ele>983.0</ele><time>2026-04-23T08:39:46.997Z</time></trkpt><trkpt lat="42.52887573659102" lon="13.067213975425153"><ele>983.0</ele><time>2026-04-23T08:39:47.997Z</time></trkpt><trkpt lat="42.52879832444515" lon="13.067256634459909"><ele>983.0000000000001</ele><time>2026-04-23T08:39:48.997Z</time></trkpt><trkpt lat="42.528715811618" lon="13.067286520016848"><ele>983.0</ele><time>2026-04-23T08:39:49.997Z</time></trkpt><trkpt lat="42.52863475642078" lon="13.067321743100928"><ele>980.0</ele><time>2026-04-23T08:39:50.997Z</time></trkpt><trkpt lat="42.52855504196676" lon="13.06727473521535"><ele>977.0</ele><time>2026-04-23T08:39:51.997Z</time></trkpt><trkpt lat="42.52849767367623" lon="13.06718725858372"><ele>974.0</ele><time>2026-04-23T08:39:52.997Z</time></trkpt><trkpt lat="42.52846342297857" lon="13.06706962092193"><ele>971.0</ele><time>2026-04-23T08:39:53.997Z</time></trkpt><trkpt lat="42.52844981787948" lon="13.066936095858875"><ele>968.0</ele><time>2026-04-23T08:39:54.997Z</time></trkpt><trkpt lat="42.52843547019156" lon="13.06680933478391"><ele>968.0000000000001</ele><time>2026-04-23T08:39:55.997Z</time></trkpt><trkpt lat="42.528404211463055" lon="13.066703044036824"><ele>968.0</ele><time>2026-04-23T08:39:56.997Z</time></trkpt><trkpt lat="42.528353907022925" lon="13.06662774258528"><ele>968.0</ele><time>2026-04-23T08:39:57.997Z</time></trkpt><trkpt lat="42.52829290129486" lon="13.066588085991546"><ele>968.0</ele><time>2026-04-23T08:39:58.997Z</time></trkpt><trkpt lat="42.52820939535548" lon="13.066595651139771"><ele>968.0000000000001</ele><time>2026-04-23T08:40:00.997Z</time></trkpt><trkpt lat="42.52819586106844" lon="13.06672592312267"><ele>968.0</ele><time>2026-04-23T08:40:51.999Z</time></trkpt><trkpt lat="42.52821129665127" lon="13.0668109066302"><ele>968.0000000000001</ele><time>2026-04-23T08:40:52.999Z</time></trkpt><trkpt lat="42.52826322026726" lon="13.06696731518468"><ele>968.0</ele><time>2026-04-23T08:40:54.999Z</time></trkpt><trkpt lat="42.528294335947336" lon="13.067045011372286"><ele>968.0</ele><time>2026-04-23T08:40:55.999Z</time></trkpt><trkpt lat="42.52832818073481" lon="13.067130193534833"><ele>968.0</ele><time>2026-04-23T08:40:56.999Z</time></trkpt><trkpt lat="42.52836253589686" lon="13.067214827638072"><ele>968.0000000000001</ele><time>2026-04-23T08:40:57.999Z</time></trkpt><trkpt lat="42.528399084170445" lon="13.067310305463009"><ele>968.0</ele><time>2026-04-23T08:40:58.999Z</time></trkpt><trkpt lat="42.52844607347863" lon="13.067409112788603"><ele>968.0</ele><time>2026-04-23T08:40:59.999Z</time></trkpt><trkpt lat="42.52850299530216" lon="13.067488718078089"><ele>968.0</ele><time>2026-04-23T08:41:00.999Z</time></trkpt><trkpt lat="42.52857178628687" lon="13.067543931341307"><ele>968.0</ele><time>2026-04-23T08:41:01.999Z</time></trkpt><trkpt lat="42.528659000151116" lon="13.067575638711284"><ele>968.0</ele><time>2026-04-23T08:41:02.999Z</time></trkpt><trkpt lat="42.5287621808525" lon="13.067574984054904"><ele>968.0</ele><time>2026-04-23T08:41:03.999Z</time></trkpt><trkpt lat="42.52886821099465" lon="13.0675642050394"><ele>968.0</ele><time>2026-04-23T08:41:04.999Z</time></trkpt><trkpt lat="42.528972039300086" lon="13.06755456427519"><ele>968.0</ele><time>2026-04-23T08:41:05.999Z</time></trkpt><trkpt lat="42.52906955393882" lon="13.067568715767916"><ele>968.0</ele><time>2026-04-23T08:41:06.999Z</time></trkpt><trkpt lat="42.52915308658378" lon="13.067640157736122"><ele>968.0</ele><time>2026-04-23T08:41:07.999Z</time></trkpt><trkpt lat="42.52918967489465" lon="13.067767485749298"><ele>968.0</ele><time>2026-04-23T08:41:08.999Z</time></trkpt><trkpt lat="42.5292536862923" lon="13.067910257725254"><ele>968.0</ele><time>2026-04-23T08:41:09.999Z</time></trkpt><trkpt lat="42.52930389907696" lon="13.0680851102704"><ele>968.0</ele><time>2026-04-23T08:41:10.999Z</time></trkpt><trkpt lat="42.52936462853105" lon="13.068272629019084"><ele>968.0</ele><time>2026-04-23T08:41:11.999Z</time></trkpt><trkpt lat="42.52944181540846" lon="13.068450244747133"><ele>968.0</ele><time>2026-04-23T08:41:12.999Z</time></trkpt><trkpt lat="42.529544167011636" lon="13.06858673154544"><ele>966.3333333333334</ele><time>2026-04-23T08:41:13.999Z</time></trkpt><trkpt lat="42.52967671933311" lon="13.068683085620371"><ele>964.6666666666667</ele><time>2026-04-23T08:41:14.999Z</time></trkpt><trkpt lat="42.52983368245687" lon="13.068745028305832"><ele>963.0</ele><time>2026-04-23T08:41:15.999Z</time></trkpt><trkpt lat="42.529999037255735" lon="13.068775993400497"><ele>963.0</ele><time>2026-04-23T08:41:16.999Z</time></trkpt><trkpt lat="42.530157051027075" lon="13.068784808350058"><ele>963.0</ele><time>2026-04-23T08:41:17.999Z</time></trkpt><trkpt lat="42.53030096142434" lon="13.068774710182348"><ele>963.0</ele><time>2026-04-23T08:41:18.999Z</time></trkpt><trkpt lat="42.53042613853555" lon="13.068833495729482"><ele>963.0</ele><time>2026-04-23T08:41:19.999Z</time></trkpt><trkpt lat="42.5305313962128" lon="13.068939877104079"><ele>967.6666666666667</ele><time>2026-04-23T08:41:20.999Z</time></trkpt><trkpt lat="42.53059244672977" lon="13.069105213894034"><ele>972.3333333333334</ele><time>2026-04-23T08:41:21.999Z</time></trkpt><trkpt lat="42.53067262883388" lon="13.069296011223294"><ele>977.0</ele><time>2026-04-23T08:41:22.999Z</time></trkpt><trkpt lat="42.530725748006695" lon="13.069519601527261"><ele>970.0</ele><time>2026-04-23T08:41:23.999Z</time></trkpt><trkpt lat="42.53073712193599" lon="13.06974595335307"><ele>963.0</ele><time>2026-04-23T08:41:24.999Z</time></trkpt><trkpt lat="42.53072907381687" lon="13.069930253601976"><ele>956.0</ele><time>2026-04-23T08:41:25.999Z</time></trkpt><trkpt lat="42.53069019879011" lon="13.070098709867134"><ele>949.0</ele><time>2026-04-23T08:41:26.999Z</time></trkpt><trkpt lat="42.53061837518704" lon="13.070223328112931"><ele>944.3333333333333</ele><time>2026-04-23T08:41:27.999Z</time></trkpt><trkpt lat="42.53051161997641" lon="13.070320269192656"><ele>939.6666666666667</ele><time>2026-04-23T08:41:28.999Z</time></trkpt><trkpt lat="42.530373117043055" lon="13.070430392116057"><ele>935.0</ele><time>2026-04-23T08:41:29.999Z</time></trkpt><trkpt lat="42.53022559334193" lon="13.070551940750404"><ele>934.25</ele><time>2026-04-23T08:41:30.999Z</time></trkpt><trkpt lat="42.53009400495655" lon="13.070678685540003"><ele>933.5</ele><time>2026-04-23T08:41:31.999Z</time></trkpt><trkpt lat="42.530001879897405" lon="13.070827278162213"><ele>932.75</ele><time>2026-04-23T08:41:32.999Z</time></trkpt><trkpt lat="42.5299130192438" lon="13.07093500916446"><ele>932.0</ele><time>2026-04-23T08:41:33.999Z</time></trkpt><trkpt lat="42.529792840364706" lon="13.070978326238759"><ele>932.0</ele><time>2026-04-23T08:41:34.999Z</time></trkpt><trkpt lat="42.529654011418316" lon="13.070955664933347"><ele>932.0</ele><time>2026-04-23T08:41:35.999Z</time></trkpt><trkpt lat="42.52949174405961" lon="13.070949245810565"><ele>932.0</ele><time>2026-04-23T08:41:36.999Z</time></trkpt><trkpt lat="42.52931700086514" lon="13.070940790847272"><ele>929.0</ele><time>2026-04-23T08:41:37.999Z</time></trkpt><trkpt lat="42.529152160821106" lon="13.07094093883666"><ele>926.0</ele><time>2026-04-23T08:41:38.999Z</time></trkpt><trkpt lat="42.52900734847382" lon="13.070942318916273"><ele>923.0</ele><time>2026-04-23T08:41:39.999Z</time></trkpt><trkpt lat="42.52888200220724" lon="13.070980953947833"><ele>920.0</ele><time>2026-04-23T08:41:40.999Z</time></trkpt><trkpt lat="42.528780545053" lon="13.071069319499165"><ele>921.5</ele><time>2026-04-23T08:41:41.999Z</time></trkpt><trkpt lat="42.52871908578151" lon="13.071211789844673"><ele>923.0</ele><time>2026-04-23T08:41:42.999Z</time></trkpt><trkpt lat="42.528701647720204" lon="13.071394736356089"><ele>924.5</ele><time>2026-04-23T08:41:43.999Z</time></trkpt><trkpt lat="42.528722341203185" lon="13.071603072254558"><ele>926.0</ele><time>2026-04-23T08:41:44.999Z</time></trkpt><trkpt lat="42.528766197455056" lon="13.07181420745869"><ele>926.0</ele><time>2026-04-23T08:41:45.999Z</time></trkpt><trkpt lat="42.52882672206058" lon="13.071987164557553"><ele>926.0</ele><time>2026-04-23T08:41:46.999Z</time></trkpt><trkpt lat="42.528923789557986" lon="13.072130070965205"><ele>926.0</ele><time>2026-04-23T08:41:47.999Z</time></trkpt><trkpt lat="42.52906024721783" lon="13.072244930090012"><ele>926.0</ele><time>2026-04-23T08:41:48.999Z</time></trkpt><trkpt lat="42.52921875654599" lon="13.072371590474956"><ele>926.6666666666667</ele><time>2026-04-23T08:41:49.999Z</time></trkpt><trkpt lat="42.52936921614248" lon="13.07254437159627"><ele>927.3333333333333</ele><time>2026-04-23T08:41:50.999Z</time></trkpt><trkpt lat="42.529507462134966" lon="13.07270051502991"><ele>928.0</ele><time>2026-04-23T08:41:51.999Z</time></trkpt><trkpt lat="42.52963530393848" lon="13.072858657716093"><ele>928.0</ele><time>2026-04-23T08:41:52.999Z</time></trkpt><trkpt lat="42.52975467661919" lon="13.073018953714241"><ele>928.0</ele><time>2026-04-23T08:41:53.999Z</time></trkpt><trkpt lat="42.52986737001029" lon="13.073177996403276"><ele>928.0</ele><time>2026-04-23T08:41:54.999Z</time></trkpt><trkpt lat="42.52998956993332" lon="13.073311436978376"><ele>922.6666666666666</ele><time>2026-04-23T08:41:55.999Z</time></trkpt><trkpt lat="42.53013882265126" lon="13.07340603351427"><ele>917.3333333333333</ele><time>2026-04-23T08:41:56.999Z</time></trkpt><trkpt lat="42.53029692215036" lon="13.073479209867946"><ele>912.0</ele><time>2026-04-23T08:41:57.999Z</time></trkpt><trkpt lat="42.53044048466038" lon="13.073530442893427"><ele>911.0</ele><time>2026-04-23T08:41:58.999Z</time></trkpt><trkpt lat="42.530550487017344" lon="13.07355726050246"><ele>910.0</ele><time>2026-04-23T08:41:59.999Z</time></trkpt><trkpt lat="42.53064634989476" lon="13.073543556637247"><ele>909.0</ele><time>2026-04-23T08:42:00.999Z</time></trkpt><trkpt lat="42.530718534869706" lon="13.073460734884696"><ele>908.0</ele><time>2026-04-23T08:42:01.999Z</time></trkpt><trkpt lat="42.53074807262481" lon="13.073332065351625"><ele>907.0</ele><time>2026-04-23T08:42:02.999Z</time></trkpt><trkpt lat="42.530732767964416" lon="13.073172670879"><ele>909.8</ele><time>2026-04-23T08:42:03.999Z</time></trkpt><trkpt lat="42.530705751148666" lon="13.072985895557467"><ele>912.6</ele><time>2026-04-23T08:42:04.999Z</time></trkpt><trkpt lat="42.53067239764696" lon="13.07286300321683"><ele>915.3999999999999</ele><time>2026-04-23T08:42:05.999Z</time></trkpt><trkpt lat="42.53069515512434" lon="13.072756095110906"><ele>918.1999999999999</ele><time>2026-04-23T08:42:06.999Z</time></trkpt><trkpt lat="42.53075139774066" lon="13.072667114495786"><ele>921.0</ele><time>2026-04-23T08:42:07.999Z</time></trkpt><trkpt lat="42.53084005204026" lon="13.072613042781779"><ele>921.0</ele><time>2026-04-23T08:42:08.999Z</time></trkpt><trkpt lat="42.53095573130449" lon="13.072596452731354"><ele>921.0</ele><time>2026-04-23T08:42:09.999Z</time></trkpt><trkpt lat="42.53110972922217" lon="13.072603845373331"><ele>921.0</ele><time>2026-04-23T08:42:10.999Z</time></trkpt><trkpt lat="42.531268366689694" lon="13.072596873476808"><ele>921.0</ele><time>2026-04-23T08:42:11.999Z</time></trkpt><trkpt lat="42.53141040552936" lon="13.072540674614691"><ele>918.6666666666667</ele><time>2026-04-23T08:42:12.999Z</time></trkpt><trkpt lat="42.53153247275334" lon="13.07244070293853"><ele>916.3333333333334</ele><time>2026-04-23T08:42:13.999Z</time></trkpt><trkpt lat="42.53163240273932" lon="13.072288567746089"><ele>914.0</ele><time>2026-04-23T08:42:14.999Z</time></trkpt><trkpt lat="42.53171412105406" lon="13.072084116892524"><ele>914.0</ele><time>2026-04-23T08:42:15.999Z</time></trkpt><trkpt lat="42.531781515837025" lon="13.071862371534296"><ele>914.0</ele><time>2026-04-23T08:42:16.999Z</time></trkpt><trkpt lat="42.53185665179089" lon="13.071627803415792"><ele>914.0</ele><time>2026-04-23T08:42:18Z</time></trkpt><trkpt lat="42.53193991237317" lon="13.071408780554922"><ele>916.6666666666667</ele><time>2026-04-23T08:42:19Z</time></trkpt><trkpt lat="42.53203454029076" lon="13.071203297919455"><ele>919.3333333333333</ele><time>2026-04-23T08:42:20Z</time></trkpt><trkpt lat="42.53212132897317" lon="13.071015686754482"><ele>922.0</ele><time>2026-04-23T08:42:21Z</time></trkpt><trkpt lat="42.53219875181989" lon="13.070844837283351"><ele>921.0</ele><time>2026-04-23T08:42:22Z</time></trkpt><trkpt lat="42.532294443665144" lon="13.070711339082774"><ele>920.0</ele><time>2026-04-23T08:42:23Z</time></trkpt><trkpt lat="42.53240877485037" lon="13.070629435015752"><ele>919.0</ele><time>2026-04-23T08:42:24Z</time></trkpt><trkpt lat="42.532530130954264" lon="13.070590961112977"><ele>918.0</ele><time>2026-04-23T08:42:25Z</time></trkpt><trkpt lat="42.53263063251897" lon="13.070606220003452"><ele>918.0</ele><time>2026-04-23T08:42:26Z</time></trkpt><trkpt lat="42.532700831075736" lon="13.070668720743482"><ele>918.0</ele><time>2026-04-23T08:42:27Z</time></trkpt><trkpt lat="42.53273685092275" lon="13.070772463106561"><ele>918.0</ele><time>2026-04-23T08:42:28Z</time></trkpt><trkpt lat="42.53274451841193" lon="13.070911609449116"><ele>918.0</ele><time>2026-04-23T08:42:29Z</time></trkpt><trkpt lat="42.532687466563715" lon="13.071066599983647"><ele>918.0</ele><time>2026-04-23T08:42:30Z</time></trkpt><trkpt lat="42.53263063015041" lon="13.071257050043931"><ele>911.0</ele><time>2026-04-23T08:42:31Z</time></trkpt><trkpt lat="42.53258884689401" lon="13.071483701882416"><ele>904.0</ele><time>2026-04-23T08:42:32Z</time></trkpt><trkpt lat="42.53256339433824" lon="13.071708866361636"><ele>897.0</ele><time>2026-04-23T08:42:33Z</time></trkpt><trkpt lat="42.53255980751617" lon="13.071959705810785"><ele>895.3333333333333</ele><time>2026-04-23T08:42:34Z</time></trkpt><trkpt lat="42.532565199055576" lon="13.072223925300076"><ele>893.6666666666666</ele><time>2026-04-23T08:42:35Z</time></trkpt><trkpt lat="42.53254670590505" lon="13.072483146968617"><ele>892.0</ele><time>2026-04-23T08:42:36Z</time></trkpt><trkpt lat="42.53254391032364" lon="13.072742299177035"><ele>889.0</ele><time>2026-04-23T08:42:37Z</time></trkpt><trkpt lat="42.53256370910442" lon="13.072986640030665"><ele>886.0</ele><time>2026-04-23T08:42:38Z</time></trkpt><trkpt lat="42.53255449928806" lon="13.073228988382994"><ele>883.0</ele><time>2026-04-23T08:42:39Z</time></trkpt><trkpt lat="42.532528799716715" lon="13.07340877580326"><ele>880.8</ele><time>2026-04-23T08:42:40Z</time></trkpt><trkpt lat="42.53254989787173" lon="13.073578469470858"><ele>878.5999999999999</ele><time>2026-04-23T08:42:41Z</time></trkpt><trkpt lat="42.53256693931356" lon="13.07371959080549"><ele>876.4000000000001</ele><time>2026-04-23T08:42:42Z</time></trkpt><trkpt lat="42.532627423001465" lon="13.073820086091603"><ele>874.2</ele><time>2026-04-23T08:42:43Z</time></trkpt><trkpt lat="42.53271993908029" lon="13.073861601614254"><ele>872.0</ele><time>2026-04-23T08:42:44Z</time></trkpt><trkpt lat="42.5328144938544" lon="13.073803898964734"><ele>877.0</ele><time>2026-04-23T08:42:45Z</time></trkpt><trkpt lat="42.532914149242316" lon="13.073764554803931"><ele>882.0</ele><time>2026-04-23T08:42:46Z</time></trkpt><trkpt lat="42.533026765410106" lon="13.073727066286123"><ele>887.0</ele><time>2026-04-23T08:42:47Z</time></trkpt><trkpt lat="42.53312000791861" lon="13.073758329343415"><ele>892.0</ele><time>2026-04-23T08:42:48Z</time></trkpt><trkpt lat="42.533169751724955" lon="13.073838233963926"><ele>897.0</ele><time>2026-04-23T08:42:49Z</time></trkpt><trkpt lat="42.53312804229444" lon="13.073956318908074"><ele>897.0</ele><time>2026-04-23T08:42:50Z</time></trkpt><trkpt lat="42.53311201717044" lon="13.074066979091924"><ele>897.0</ele><time>2026-04-23T08:42:51Z</time></trkpt><trkpt lat="42.533045251135704" lon="13.07414361768813"><ele>897.0</ele><time>2026-04-23T08:42:52Z</time></trkpt><trkpt lat="42.53294595482455" lon="13.074211594739094"><ele>897.0</ele><time>2026-04-23T08:42:53Z</time></trkpt><trkpt lat="42.532836240821624" lon="13.07432175122246"><ele>897.0</ele><time>2026-04-23T08:42:54Z</time></trkpt><trkpt lat="42.53276263530417" lon="13.074488417466558"><ele>884.6666666666667</ele><time>2026-04-23T08:42:55Z</time></trkpt><trkpt lat="42.53267856441895" lon="13.0746635030385"><ele>872.3333333333334</ele><time>2026-04-23T08:42:56Z</time></trkpt><trkpt lat="42.53260790929645" lon="13.074858429833405"><ele>860.0</ele><time>2026-04-23T08:42:57Z</time></trkpt><trkpt lat="42.532531986051524" lon="13.075034746192545"><ele>859.5</ele><time>2026-04-23T08:42:58Z</time></trkpt><trkpt lat="42.53244581856107" lon="13.075198395670574"><ele>859.0</ele><time>2026-04-23T08:42:59Z</time></trkpt><trkpt lat="42.53236813920989" lon="13.075361686365207"><ele>858.5</ele><time>2026-04-23T08:43:00Z</time></trkpt><trkpt lat="42.532320016201176" lon="13.075545854468418"><ele>858.0</ele><time>2026-04-23T08:43:01Z</time></trkpt><trkpt lat="42.53231069998255" lon="13.075767501358138"><ele>859.0</ele><time>2026-04-23T08:43:02Z</time></trkpt><trkpt lat="42.53228383958965" lon="13.075961366160847"><ele>860.0</ele><time>2026-04-23T08:43:03Z</time></trkpt><trkpt lat="42.53225891682952" lon="13.07613745716501"><ele>861.0</ele><time>2026-04-23T08:43:04Z</time></trkpt><trkpt lat="42.53226956998154" lon="13.076317651574191"><ele>862.0</ele><time>2026-04-23T08:43:05Z</time></trkpt><trkpt lat="42.53232605293628" lon="13.076508794685012"><ele>860.5</ele><time>2026-04-23T08:43:06Z</time></trkpt><trkpt lat="42.53238416598818" lon="13.076702745941574"><ele>859.0</ele><time>2026-04-23T08:43:07Z</time></trkpt><trkpt lat="42.53243303765943" lon="13.076875958772579"><ele>857.5</ele><time>2026-04-23T08:43:08Z</time></trkpt><trkpt lat="42.532499410836046" lon="13.077023877716234"><ele>856.0</ele><time>2026-04-23T08:43:09Z</time></trkpt><trkpt lat="42.53259437685743" lon="13.077141362240829"><ele>856.0</ele><time>2026-04-23T08:43:10Z</time></trkpt><trkpt lat="42.53269355206905" lon="13.07721202215804"><ele>855.9999999999999</ele><time>2026-04-23T08:43:11Z</time></trkpt><trkpt lat="42.532760739764036" lon="13.077256842430385"><ele>855.9999999999999</ele><time>2026-04-23T08:43:11.999Z</time></trkpt><trkpt lat="42.53275983045017" lon="13.07740045037438"><ele>856.0</ele><time>2026-04-23T08:43:13.999Z</time></trkpt><trkpt lat="42.532702011558406" lon="13.077462907095716"><ele>856.0</ele><time>2026-04-23T08:43:14.999Z</time></trkpt><trkpt lat="42.532604713068345" lon="13.077474384944685"><ele>854.75</ele><time>2026-04-23T08:43:15.999Z</time></trkpt><trkpt lat="42.53249042898923" lon="13.077495151208538"><ele>853.5</ele><time>2026-04-23T08:43:16.999Z</time></trkpt><trkpt lat="42.53236163999656" lon="13.077539927458828"><ele>852.25</ele><time>2026-04-23T08:43:17.999Z</time></trkpt><trkpt lat="42.53222385929696" lon="13.077556750497047"><ele>851.0</ele><time>2026-04-23T08:43:18.999Z</time></trkpt><trkpt lat="42.532083542571215" lon="13.077546078211999"><ele>847.75</ele><time>2026-04-23T08:43:19.999Z</time></trkpt><trkpt lat="42.53196325752362" lon="13.077513117928264"><ele>844.5</ele><time>2026-04-23T08:43:20.999Z</time></trkpt><trkpt lat="42.53185596905193" lon="13.077503549725995"><ele>841.25</ele><time>2026-04-23T08:43:21.999Z</time></trkpt><trkpt lat="42.53175606552655" lon="13.077556120256848"><ele>838.0</ele><time>2026-04-23T08:43:22.999Z</time></trkpt><trkpt lat="42.53166064502118" lon="13.077675898740493"><ele>838.0</ele><time>2026-04-23T08:43:23.999Z</time></trkpt><trkpt lat="42.53157868684121" lon="13.07784476701345"><ele>838.0</ele><time>2026-04-23T08:43:24.999Z</time></trkpt><trkpt lat="42.531466187864744" lon="13.077994082240378"><ele>838.0</ele><time>2026-04-23T08:43:25.999Z</time></trkpt><trkpt lat="42.531342980544686" lon="13.078132059238847"><ele>841.0</ele><time>2026-04-23T08:43:26.999Z</time></trkpt><trkpt lat="42.531225478814875" lon="13.07828615068339"><ele>844.0</ele><time>2026-04-23T08:43:27.999Z</time></trkpt><trkpt lat="42.531098656305744" lon="13.078407277438508"><ele>847.0</ele><time>2026-04-23T08:43:28.999Z</time></trkpt><trkpt lat="42.53099179232581" lon="13.078524583220721"><ele>843.75</ele><time>2026-04-23T08:43:29.999Z</time></trkpt><trkpt lat="42.530911613276324" lon="13.07865102138476"><ele>840.5</ele><time>2026-04-23T08:43:30.999Z</time></trkpt><trkpt lat="42.530863433298954" lon="13.078807220889564"><ele>837.25</ele><time>2026-04-23T08:43:31.999Z</time></trkpt><trkpt lat="42.53084998565569" lon="13.07896775227139"><ele>834.0</ele><time>2026-04-23T08:43:32.999Z</time></trkpt><trkpt lat="42.53081841474734" lon="13.079103825174668"><ele>834.0</ele><time>2026-04-23T08:43:33.999Z</time></trkpt><trkpt lat="42.53072618144876" lon="13.079171604446692"><ele>834.0</ele><time>2026-04-23T08:43:34.999Z</time></trkpt><trkpt lat="42.53061490504504" lon="13.079176456945968"><ele>834.0</ele><time>2026-04-23T08:43:35.999Z</time></trkpt><trkpt lat="42.530497821962534" lon="13.079140955527908"><ele>834.0</ele><time>2026-04-23T08:43:36.999Z</time></trkpt><trkpt lat="42.5303598080945" lon="13.079132880755482"><ele>829.75</ele><time>2026-04-23T08:43:37.999Z</time></trkpt><trkpt lat="42.530239726346856" lon="13.079127464817336"><ele>825.5</ele><time>2026-04-23T08:43:38.999Z</time></trkpt><trkpt lat="42.530120198588094" lon="13.079198739784104"><ele>821.25</ele><time>2026-04-23T08:43:39.999Z</time></trkpt><trkpt lat="42.53000178552324" lon="13.079315096078062"><ele>817.0</ele><time>2026-04-23T08:43:40.999Z</time></trkpt><trkpt lat="42.529877789686104" lon="13.079418659618556"><ele>817.0</ele><time>2026-04-23T08:43:41.999Z</time></trkpt><trkpt lat="42.52973651821958" lon="13.079459505547575"><ele>817.0</ele><time>2026-04-23T08:43:42.999Z</time></trkpt><trkpt lat="42.529602155789874" lon="13.079516181974283"><ele>817.0</ele><time>2026-04-23T08:43:43.999Z</time></trkpt><trkpt lat="42.52947401681544" lon="13.079556759071341"><ele>817.0</ele><time>2026-04-23T08:43:44.999Z</time></trkpt><trkpt lat="42.5293480786802" lon="13.07963307744552"><ele>816.6666666666666</ele><time>2026-04-23T08:43:45.999Z</time></trkpt><trkpt lat="42.529255103308216" lon="13.079807205587752"><ele>816.3333333333333</ele><time>2026-04-23T08:43:46.999Z</time></trkpt><trkpt lat="42.5291630508766" lon="13.079996225626468"><ele>816.0</ele><time>2026-04-23T08:43:47.999Z</time></trkpt><trkpt lat="42.52904737190428" lon="13.08018270126494"><ele>816.0</ele><time>2026-04-23T08:43:48.999Z</time></trkpt><trkpt lat="42.528979053354725" lon="13.080419381647403"><ele>816.0</ele><time>2026-04-23T08:43:49.999Z</time></trkpt><trkpt lat="42.528931032758805" lon="13.080659813869293"><ele>816.0</ele><time>2026-04-23T08:43:50.999Z</time></trkpt><trkpt lat="42.52890384149677" lon="13.080906685257348"><ele>815.5</ele><time>2026-04-23T08:43:51.999Z</time></trkpt><trkpt lat="42.52889394742934" lon="13.08111819200861"><ele>815.0</ele><time>2026-04-23T08:43:52.999Z</time></trkpt><trkpt lat="42.52888627606869" lon="13.081294100914802"><ele>814.5</ele><time>2026-04-23T08:43:53.999Z</time></trkpt><trkpt lat="42.52886903823477" lon="13.081452732886088"><ele>814.0</ele><time>2026-04-23T08:43:54.999Z</time></trkpt><trkpt lat="42.52891908403089" lon="13.081605686218943"><ele>814.0</ele><time>2026-04-23T08:43:55.999Z</time></trkpt><trkpt lat="42.52898824100647" lon="13.08173954920395"><ele>814.0</ele><time>2026-04-23T08:43:56.999Z</time></trkpt><trkpt lat="42.52908807936265" lon="13.081848005360987"><ele>814.0</ele><time>2026-04-23T08:43:57.999Z</time></trkpt><trkpt lat="42.52921062543923" lon="13.08194326855429"><ele>814.0</ele><time>2026-04-23T08:43:58.999Z</time></trkpt><trkpt lat="42.529352937129666" lon="13.082032059687076"><ele>814.0</ele><time>2026-04-23T08:43:59.999Z</time></trkpt><trkpt lat="42.529497783669136" lon="13.082127974775833"><ele>814.0</ele><time>2026-04-23T08:44:00.999Z</time></trkpt><trkpt lat="42.52963053463076" lon="13.082207527525703"><ele>814.0</ele><time>2026-04-23T08:44:01.999Z</time></trkpt><trkpt lat="42.5297585120884" lon="13.08226027230235"><ele>814.0</ele><time>2026-04-23T08:44:02.999Z</time></trkpt><trkpt lat="42.529886615190534" lon="13.082269957664657"><ele>814.75</ele><time>2026-04-23T08:44:03.999Z</time></trkpt><trkpt lat="42.53001910393575" lon="13.082234942484009"><ele>815.5</ele><time>2026-04-23T08:44:04.999Z</time></trkpt><trkpt lat="42.53015177890971" lon="13.08218587622913"><ele>816.25</ele><time>2026-04-23T08:44:05.999Z</time></trkpt><trkpt lat="42.53027441521129" lon="13.08215733656828"><ele>817.0</ele><time>2026-04-23T08:44:06.999Z</time></trkpt><trkpt lat="42.530385931865794" lon="13.082199495250418"><ele>816.8</ele><time>2026-04-23T08:44:07.999Z</time></trkpt><trkpt lat="42.5304674319627" lon="13.082284062571684"><ele>816.6</ele><time>2026-04-23T08:44:08.999Z</time></trkpt><trkpt lat="42.530509915900545" lon="13.082401284865583"><ele>816.4</ele><time>2026-04-23T08:44:09.999Z</time></trkpt><trkpt lat="42.53056454984906" lon="13.082531710883636"><ele>816.1999999999999</ele><time>2026-04-23T08:44:10.999Z</time></trkpt><trkpt lat="42.530609553833614" lon="13.082675343896556"><ele>816.0</ele><time>2026-04-23T08:44:11.999Z</time></trkpt><trkpt lat="42.53054111957826" lon="13.082819606075335"><ele>815.6666666666667</ele><time>2026-04-23T08:44:12.999Z</time></trkpt><trkpt lat="42.530484459123386" lon="13.083000032200973"><ele>815.3333333333334</ele><time>2026-04-23T08:44:13.999Z</time></trkpt><trkpt lat="42.53041799441803" lon="13.083206686968472"><ele>815.0</ele><time>2026-04-23T08:44:14.999Z</time></trkpt><trkpt lat="42.53033984292578" lon="13.083411725818207"><ele>809.6666666666667</ele><time>2026-04-23T08:44:15.999Z</time></trkpt><trkpt lat="42.53024348998151" lon="13.083597691295548"><ele>804.3333333333333</ele><time>2026-04-23T08:44:16.999Z</time></trkpt><trkpt lat="42.53012787618004" lon="13.083759504952397"><ele>799.0</ele><time>2026-04-23T08:44:17.999Z</time></trkpt><trkpt lat="42.52998300329598" lon="13.083907829779129"><ele>799.0</ele><time>2026-04-23T08:44:18.999Z</time></trkpt><trkpt lat="42.529818657846434" lon="13.084028082830578"><ele>799.0</ele><time>2026-04-23T08:44:19.999Z</time></trkpt><trkpt lat="42.52964747843502" lon="13.08411316800425"><ele>799.0</ele><time>2026-04-23T08:44:20.999Z</time></trkpt><trkpt lat="42.5294634281161" lon="13.084154184627318"><ele>795.6666666666666</ele><time>2026-04-23T08:44:21.999Z</time></trkpt><trkpt lat="42.5292892717543" lon="13.084203271150612"><ele>792.3333333333333</ele><time>2026-04-23T08:44:22.999Z</time></trkpt><trkpt lat="42.529124577832945" lon="13.08424236632708"><ele>789.0</ele><time>2026-04-23T08:44:24Z</time></trkpt><trkpt lat="42.52896588804786" lon="13.084340255820367"><ele>789.0</ele><time>2026-04-23T08:44:25Z</time></trkpt><trkpt lat="42.528815058893706" lon="13.084463477629015"><ele>789.0</ele><time>2026-04-23T08:44:26Z</time></trkpt><trkpt lat="42.528667430788296" lon="13.084593880091063"><ele>789.0</ele><time>2026-04-23T08:44:27Z</time></trkpt><trkpt lat="42.52855733988732" lon="13.084717939779262"><ele>788.2</ele><time>2026-04-23T08:44:28Z</time></trkpt><trkpt lat="42.52849039098748" lon="13.084837547556901"><ele>787.4000000000001</ele><time>2026-04-23T08:44:29Z</time></trkpt><trkpt lat="42.52845783423943" lon="13.084972690128872"><ele>786.6</ele><time>2026-04-23T08:44:30Z</time></trkpt><trkpt lat="42.52846774089609" lon="13.08511917983768"><ele>785.8</ele><time>2026-04-23T08:44:31Z</time></trkpt><trkpt lat="42.52850533951203" lon="13.085268745477231"><ele>785.0</ele><time>2026-04-23T08:44:32Z</time></trkpt><trkpt lat="42.52852487434955" lon="13.085434672438797"><ele>785.0</ele><time>2026-04-23T08:44:33Z</time></trkpt><trkpt lat="42.528552248099004" lon="13.085607245798323"><ele>785.0</ele><time>2026-04-23T08:44:34Z</time></trkpt><trkpt lat="42.528581127524" lon="13.085784139603902"><ele>785.0</ele><time>2026-04-23T08:44:35Z</time></trkpt><trkpt lat="42.52860601332893" lon="13.085954486239393"><ele>785.0</ele><time>2026-04-23T08:44:36Z</time></trkpt><trkpt lat="42.5286237919088" lon="13.086107346558626"><ele>783.8</ele><time>2026-04-23T08:44:37Z</time></trkpt><trkpt lat="42.528625447921144" lon="13.086236148209386"><ele>782.6</ele><time>2026-04-23T08:44:38Z</time></trkpt><trkpt lat="42.52859190245808" lon="13.08633051469722"><ele>781.4000000000001</ele><time>2026-04-23T08:44:39Z</time></trkpt><trkpt lat="42.528548480395195" lon="13.086403082168724"><ele>780.2</ele><time>2026-04-23T08:44:40Z</time></trkpt><trkpt lat="42.52845278204746" lon="13.086352315731467"><ele>779.0</ele><time>2026-04-23T08:44:41Z</time></trkpt><trkpt lat="42.528341601050215" lon="13.086343729320877"><ele>779.0</ele><time>2026-04-23T08:44:42Z</time></trkpt><trkpt lat="42.52819035779023" lon="13.086377090623433"><ele>779.0</ele><time>2026-04-23T08:44:43Z</time></trkpt><trkpt lat="42.5280361452845" lon="13.086380174661569"><ele>779.0</ele><time>2026-04-23T08:44:44Z</time></trkpt><trkpt lat="42.52790701528072" lon="13.086412511277238"><ele>779.0</ele><time>2026-04-23T08:44:45Z</time></trkpt><trkpt lat="42.52780266214265" lon="13.086474773414475"><ele>775.25</ele><time>2026-04-23T08:44:46Z</time></trkpt><trkpt lat="42.527727765756026" lon="13.086586868094425"><ele>771.5</ele><time>2026-04-23T08:44:47Z</time></trkpt><trkpt lat="42.5277008381484" lon="13.086742517777807"><ele>767.75</ele><time>2026-04-23T08:44:48Z</time></trkpt><trkpt lat="42.52771262420497" lon="13.086928588093246"><ele>764.0</ele><time>2026-04-23T08:44:49Z</time></trkpt><trkpt lat="42.5277429445958" lon="13.087143407426565"><ele>763.3333333333333</ele><time>2026-04-23T08:44:50Z</time></trkpt><trkpt lat="42.52774985377612" lon="13.087372437637844"><ele>762.6666666666666</ele><time>2026-04-23T08:44:51Z</time></trkpt><trkpt lat="42.52776310344964" lon="13.087581467310768"><ele>762.0</ele><time>2026-04-23T08:44:52Z</time></trkpt><trkpt lat="42.52778419642111" lon="13.087773784397083"><ele>762.0</ele><time>2026-04-23T08:44:53Z</time></trkpt><trkpt lat="42.527796439242834" lon="13.087942185601925"><ele>762.0</ele><time>2026-04-23T08:44:54Z</time></trkpt><trkpt lat="42.527772971369814" lon="13.08809630817813"><ele>762.0</ele><time>2026-04-23T08:44:55Z</time></trkpt><trkpt lat="42.52769039989771" lon="13.088222903040366"><ele>762.0</ele><time>2026-04-23T08:44:56Z</time></trkpt><trkpt lat="42.52759957481561" lon="13.088382900857244"><ele>762.3333333333334</ele><time>2026-04-23T08:44:57Z</time></trkpt><trkpt lat="42.5275324164116" lon="13.08858778817509"><ele>762.6666666666667</ele><time>2026-04-23T08:44:58Z</time></trkpt><trkpt lat="42.52747221985274" lon="13.088789191877883"><ele>763.0</ele><time>2026-04-23T08:44:59Z</time></trkpt><trkpt lat="42.527424936597214" lon="13.088970569447042"><ele>762.75</ele><time>2026-04-23T08:45:00Z</time></trkpt><trkpt lat="42.52738702646085" lon="13.08913415230371"><ele>762.5</ele><time>2026-04-23T08:45:01Z</time></trkpt><trkpt lat="42.52742595737826" lon="13.08929022261537"><ele>762.25</ele><time>2026-04-23T08:45:02Z</time></trkpt><trkpt lat="42.527490992719486" lon="13.089405257732329"><ele>762.0</ele><time>2026-04-23T08:45:03Z</time></trkpt><trkpt lat="42.52759478888817" lon="13.089489953643955"><ele>762.0</ele><time>2026-04-23T08:45:04Z</time></trkpt><trkpt lat="42.52771274764085" lon="13.089535434793547"><ele>762.0</ele><time>2026-04-23T08:45:05Z</time></trkpt><trkpt lat="42.52779804192767" lon="13.089602907831075"><ele>762.0</ele><time>2026-04-23T08:45:06Z</time></trkpt><trkpt lat="42.52785806799675" lon="13.089657251673293"><ele>762.0</ele><time>2026-04-23T08:45:07Z</time></trkpt><trkpt lat="42.52785220552326" lon="13.08975687525802"><ele>762.0</ele><time>2026-04-23T08:45:08Z</time></trkpt><trkpt lat="42.52777417685726" lon="13.089849508874432"><ele>762.0</ele><time>2026-04-23T08:45:09Z</time></trkpt><trkpt lat="42.52768912241643" lon="13.08995351485319"><ele>762.0</ele><time>2026-04-23T08:45:10Z</time></trkpt><trkpt lat="42.52756763829803" lon="13.090056275833659"><ele>762.0</ele><time>2026-04-23T08:45:11Z</time></trkpt><trkpt lat="42.52742788230486" lon="13.090183577533226"><ele>762.0</ele><time>2026-04-23T08:45:12Z</time></trkpt><trkpt lat="42.527308503385406" lon="13.090345424324848"><ele>762.0</ele><time>2026-04-23T08:45:13Z</time></trkpt><trkpt lat="42.527234335182186" lon="13.090518589986596"><ele>762.0</ele><time>2026-04-23T08:45:14Z</time></trkpt><trkpt lat="42.527185013210385" lon="13.090718312489697"><ele>762.0</ele><time>2026-04-23T08:45:15Z</time></trkpt><trkpt lat="42.52716230986605" lon="13.090951430351572"><ele>763.6666666666666</ele><time>2026-04-23T08:45:16Z</time></trkpt><trkpt lat="42.527140480614825" lon="13.091192709285554"><ele>765.3333333333333</ele><time>2026-04-23T08:45:17Z</time></trkpt><trkpt lat="42.52711891964299" lon="13.09143102287733"><ele>767.0</ele><time>2026-04-23T08:45:18Z</time></trkpt><trkpt lat="42.52709830220665" lon="13.091658907678694"><ele>767.0</ele><time>2026-04-23T08:45:19Z</time></trkpt><trkpt lat="42.52708339518329" lon="13.091880988958899"><ele>767.0</ele><time>2026-04-23T08:45:20Z</time></trkpt><trkpt lat="42.52710760447991" lon="13.092091650788966"><ele>767.0</ele><time>2026-04-23T08:45:21Z</time></trkpt><trkpt lat="42.527138325931446" lon="13.092291653981196"><ele>765.75</ele><time>2026-04-23T08:45:22Z</time></trkpt><trkpt lat="42.52716386848688" lon="13.092494712603457"><ele>764.5</ele><time>2026-04-23T08:45:23Z</time></trkpt><trkpt lat="42.527123332208895" lon="13.092692007680158"><ele>763.25</ele><time>2026-04-23T08:45:24Z</time></trkpt><trkpt lat="42.52710607020896" lon="13.092879769151345"><ele>762.0</ele><time>2026-04-23T08:45:25Z</time></trkpt><trkpt lat="42.52715318984298" lon="13.093056709385648"><ele>762.0</ele><time>2026-04-23T08:45:26Z</time></trkpt><trkpt lat="42.52718656846206" lon="13.09321071968151"><ele>762.0</ele><time>2026-04-23T08:45:27Z</time></trkpt><trkpt lat="42.52721340864352" lon="13.093362004352816"><ele>762.0</ele><time>2026-04-23T08:45:28Z</time></trkpt><trkpt lat="42.52717339141851" lon="13.093498349088474"><ele>762.0</ele><time>2026-04-23T08:45:29Z</time></trkpt><trkpt lat="42.52707635237605" lon="13.09357121161892"><ele>756.0</ele><time>2026-04-23T08:45:30Z</time></trkpt><trkpt lat="42.52698938965192" lon="13.093669765495706"><ele>750.0</ele><time>2026-04-23T08:45:31Z</time></trkpt><trkpt lat="42.5268923631865" lon="13.093768995733475"><ele>744.0</ele><time>2026-04-23T08:45:32Z</time></trkpt><trkpt lat="42.5267872019218" lon="13.093903005152686"><ele>738.0</ele><time>2026-04-23T08:45:32.999Z</time></trkpt><trkpt lat="42.52672427890375" lon="13.094101955100053"><ele>738.0</ele><time>2026-04-23T08:45:33.999Z</time></trkpt><trkpt lat="42.52670069134754" lon="13.0943175314023"><ele>738.0</ele><time>2026-04-23T08:45:34.999Z</time></trkpt><trkpt lat="42.52664767641901" lon="13.094535311633829"><ele>738.0</ele><time>2026-04-23T08:45:35.999Z</time></trkpt><trkpt lat="42.52655418865352" lon="13.094734908769677"><ele>740.3333333333334</ele><time>2026-04-23T08:45:36.999Z</time></trkpt><trkpt lat="42.52648307980486" lon="13.094947873179148"><ele>742.6666666666667</ele><time>2026-04-23T08:45:37.999Z</time></trkpt><trkpt lat="42.526412751031444" lon="13.095158501036343"><ele>745.0</ele><time>2026-04-23T08:45:38.999Z</time></trkpt><trkpt lat="42.52634515777229" lon="13.095360936294144"><ele>745.0</ele><time>2026-04-23T08:45:39.999Z</time></trkpt><trkpt lat="42.52648036608696" lon="13.095677714343735"><ele>745.0</ele><time>2026-04-23T08:45:40.999Z</time></trkpt><trkpt lat="42.52651085965942" lon="13.095913641375885"><ele>745.0</ele><time>2026-04-23T08:45:41.999Z</time></trkpt><trkpt lat="42.52654984358802" lon="13.096143121614842"><ele>745.0</ele><time>2026-04-23T08:45:42.999Z</time></trkpt><trkpt lat="42.52657553064214" lon="13.096363675591466"><ele>745.0</ele><time>2026-04-23T08:45:43.999Z</time></trkpt><trkpt lat="42.526594379169765" lon="13.096579400651024"><ele>745.0</ele><time>2026-04-23T08:45:44.999Z</time></trkpt><trkpt lat="42.526619889588765" lon="13.09678246067428"><ele>742.75</ele><time>2026-04-23T08:45:45.999Z</time></trkpt><trkpt lat="42.52665856699188" lon="13.096959368070923"><ele>740.5</ele><time>2026-04-23T08:45:46.999Z</time></trkpt><trkpt lat="42.526697652391846" lon="13.097123378830897"><ele>738.25</ele><time>2026-04-23T08:45:47.999Z</time></trkpt><trkpt lat="42.5267135517813" lon="13.09728225785818"><ele>736.0</ele><time>2026-04-23T08:45:48.999Z</time></trkpt><trkpt lat="42.526710130661264" lon="13.097437694021618"><ele>733.25</ele><time>2026-04-23T08:45:49.999Z</time></trkpt><trkpt lat="42.52668819500524" lon="13.097581315644122"><ele>730.5</ele><time>2026-04-23T08:45:50.999Z</time></trkpt><trkpt lat="42.52665735038474" lon="13.097726475915492"><ele>727.75</ele><time>2026-04-23T08:45:51.999Z</time></trkpt><trkpt lat="42.526618090341216" lon="13.097875797868939"><ele>725.0</ele><time>2026-04-23T08:45:52.999Z</time></trkpt><trkpt lat="42.52657771971375" lon="13.098021136291992"><ele>725.0</ele><time>2026-04-23T08:45:53.999Z</time></trkpt><trkpt lat="42.526538604623966" lon="13.098154673550761"><ele>725.0</ele><time>2026-04-23T08:45:54.999Z</time></trkpt><trkpt lat="42.52649681782058" lon="13.098280415125524"><ele>725.0</ele><time>2026-04-23T08:45:55.999Z</time></trkpt><trkpt lat="42.52645532965587" lon="13.09839875634759"><ele>725.0</ele><time>2026-04-23T08:45:56.999Z</time></trkpt><trkpt lat="42.526408211307505" lon="13.098508986909266"><ele>725.0</ele><time>2026-04-23T08:45:57.999Z</time></trkpt><trkpt lat="42.52634885548889" lon="13.098609599416243"><ele>724.5</ele><time>2026-04-23T08:45:58.999Z</time></trkpt><trkpt lat="42.5262766222765" lon="13.098698568419454"><ele>724.0</ele><time>2026-04-23T08:45:59.999Z</time></trkpt><trkpt lat="42.526204980249254" lon="13.098769917355941"><ele>723.5</ele><time>2026-04-23T08:46:00.999Z</time></trkpt><trkpt lat="42.52613464173844" lon="13.098807894079524"><ele>723.0</ele><time>2026-04-23T08:46:01.999Z</time></trkpt><trkpt lat="42.52605136193761" lon="13.098815250009963"><ele>722.5</ele><time>2026-04-23T08:46:02.999Z</time></trkpt><trkpt lat="42.525949663027184" lon="13.098805554426923"><ele>722.0</ele><time>2026-04-23T08:46:03.999Z</time></trkpt><trkpt lat="42.5258321536498" lon="13.098784100757346"><ele>722.0</ele><time>2026-04-23T08:46:04.999Z</time></trkpt><trkpt lat="42.52571472719499" lon="13.098754948092626"><ele>722.0</ele><time>2026-04-23T08:46:05.999Z</time></trkpt><trkpt lat="42.52558802311999" lon="13.098720525050082"><ele>722.0</ele><time>2026-04-23T08:46:06.999Z</time></trkpt><trkpt lat="42.52545056564959" lon="13.098675698704602"><ele>722.0</ele><time>2026-04-23T08:46:07.999Z</time></trkpt><trkpt lat="42.525306565178205" lon="13.098607742113286"><ele>721.0</ele><time>2026-04-23T08:46:08.999Z</time></trkpt><trkpt lat="42.52515392087071" lon="13.098516926189887"><ele>720.0</ele><time>2026-04-23T08:46:09.999Z</time></trkpt><trkpt lat="42.52500342942696" lon="13.09841916714933"><ele>719.0</ele><time>2026-04-23T08:46:10.999Z</time></trkpt><trkpt lat="42.5248516088379" lon="13.098305120396736"><ele>719.3333333333333</ele><time>2026-04-23T08:46:11.999Z</time></trkpt><trkpt lat="42.52469804245182" lon="13.098179693452803"><ele>719.6666666666666</ele><time>2026-04-23T08:46:12.999Z</time></trkpt><trkpt lat="42.52454194786324" lon="13.098040624224161"><ele>720.0</ele><time>2026-04-23T08:46:13.999Z</time></trkpt><trkpt lat="42.52438029027304" lon="13.09789549943052"><ele>720.0</ele><time>2026-04-23T08:46:14.999Z</time></trkpt><trkpt lat="42.52421527247486" lon="13.097753309281574"><ele>720.0</ele><time>2026-04-23T08:46:15.999Z</time></trkpt><trkpt lat="42.524056209123025" lon="13.097612305450564"><ele>720.0</ele><time>2026-04-23T08:46:16.999Z</time></trkpt><trkpt lat="42.52389701836811" lon="13.09746677595286"><ele>718.6666666666666</ele><time>2026-04-23T08:46:17.999Z</time></trkpt><trkpt lat="42.52373503782121" lon="13.097329735402623"><ele>717.3333333333333</ele><time>2026-04-23T08:46:18.999Z</time></trkpt><trkpt lat="42.523560822968975" lon="13.097204165484431"><ele>716.0</ele><time>2026-04-23T08:46:19.999Z</time></trkpt><trkpt lat="42.52337659707749" lon="13.097101268636498"><ele>716.0</ele><time>2026-04-23T08:46:20.999Z</time></trkpt><trkpt lat="42.523192465667194" lon="13.097031882262344"><ele>716.0</ele><time>2026-04-23T08:46:21.999Z</time></trkpt><trkpt lat="42.523024278722836" lon="13.096995208092185"><ele>716.0</ele><time>2026-04-23T08:46:22.999Z</time></trkpt><trkpt lat="42.522874634505946" lon="13.096977266100582"><ele>716.0</ele><time>2026-04-23T08:46:23.999Z</time></trkpt><trkpt lat="42.522738453204866" lon="13.096974569274984"><ele>716.0</ele><time>2026-04-23T08:46:24.999Z</time></trkpt><trkpt lat="42.52261336334513" lon="13.096976375669671"><ele>716.0</ele><time>2026-04-23T08:46:25.999Z</time></trkpt><trkpt lat="42.52252390813478" lon="13.096975455774825"><ele>716.0</ele><time>2026-04-23T08:46:26.999Z</time></trkpt><trkpt lat="42.52245387950115" lon="13.096975722830845"><ele>716.0</ele><time>2026-04-23T08:46:27.999Z</time></trkpt><trkpt lat="42.52232559037269" lon="13.097010479509311"><ele>716.0</ele><time>2026-04-23T08:46:30Z</time></trkpt><trkpt lat="42.522246790408175" lon="13.097047996049609"><ele>716.0</ele><time>2026-04-23T08:46:31Z</time></trkpt><trkpt lat="42.522066586884826" lon="13.097150921828202"><ele>716.0</ele><time>2026-04-23T08:46:33Z</time></trkpt><trkpt lat="42.521980020955446" lon="13.097216466599338"><ele>716.0</ele><time>2026-04-23T08:46:34Z</time></trkpt><trkpt lat="42.521903535074806" lon="13.097296047223589"><ele>715.8</ele><time>2026-04-23T08:46:35Z</time></trkpt><trkpt lat="42.52185283362887" lon="13.097394072449406"><ele>715.5999999999999</ele><time>2026-04-23T08:46:36Z</time></trkpt><trkpt lat="42.52182041911498" lon="13.097508385885446"><ele>715.4</ele><time>2026-04-23T08:46:37Z</time></trkpt><trkpt lat="42.521803324188234" lon="13.097640089236318"><ele>715.2</ele><time>2026-04-23T08:46:38Z</time></trkpt><trkpt lat="42.52178460160177" lon="13.097793852083509"><ele>715.0</ele><time>2026-04-23T08:46:39Z</time></trkpt><trkpt lat="42.52176504432445" lon="13.097957823142233"><ele>716.6666666666667</ele><time>2026-04-23T08:46:40Z</time></trkpt><trkpt lat="42.52173368505019" lon="13.098128043404555"><ele>718.3333333333334</ele><time>2026-04-23T08:46:41Z</time></trkpt><trkpt lat="42.52170506542622" lon="13.098301466057844"><ele>720.0</ele><time>2026-04-23T08:46:42Z</time></trkpt><trkpt lat="42.52158536075194" lon="13.098705605908737"><ele>720.6</ele><time>2026-04-23T08:46:44Z</time></trkpt><trkpt lat="42.521580212197044" lon="13.098869480098056"><ele>721.2</ele><time>2026-04-23T08:46:45Z</time></trkpt><trkpt lat="42.521608630056285" lon="13.09899724063458"><ele>721.8</ele><time>2026-04-23T08:46:46Z</time></trkpt><trkpt lat="42.52167236518393" lon="13.099092320596808"><ele>722.4</ele><time>2026-04-23T08:46:47Z</time></trkpt><trkpt lat="42.52177276673631" lon="13.099176002925558"><ele>723.0</ele><time>2026-04-23T08:46:48Z</time></trkpt><trkpt lat="42.52190492777101" lon="13.099259192378286"><ele>723.0</ele><time>2026-04-23T08:46:49Z</time></trkpt><trkpt lat="42.522046205017794" lon="13.099362933944695"><ele>723.0</ele><time>2026-04-23T08:46:50Z</time></trkpt><trkpt lat="42.52217088248585" lon="13.09945912832053"><ele>723.0</ele><time>2026-04-23T08:46:51Z</time></trkpt><trkpt lat="42.52226188639285" lon="13.099536786952461"><ele>723.0</ele><time>2026-04-23T08:46:52Z</time></trkpt><trkpt lat="42.52233406015729" lon="13.099594886641782"><ele>723.5</ele><time>2026-04-23T08:46:53Z</time></trkpt><trkpt lat="42.522401312176136" lon="13.099647643415848"><ele>724.0</ele><time>2026-04-23T08:46:54Z</time></trkpt><trkpt lat="42.52246182324029" lon="13.099691304740427"><ele>724.5</ele><time>2026-04-23T08:46:55Z</time></trkpt><trkpt lat="42.52251210647207" lon="13.09975313463753"><ele>725.0</ele><time>2026-04-23T08:46:56Z</time></trkpt><trkpt lat="42.522555807846715" lon="13.099819118267154"><ele>725.5</ele><time>2026-04-23T08:46:57Z</time></trkpt><trkpt lat="42.522610973887396" lon="13.0999146526574"><ele>726.0</ele><time>2026-04-23T08:46:59Z</time></trkpt><trkpt lat="42.52262344071464" lon="13.100027461364204"><ele>726.0</ele><time>2026-04-23T08:47:20Z</time></trkpt><trkpt lat="42.52266009114242" lon="13.100122967593586"><ele>726.0</ele><time>2026-04-23T08:47:21Z</time></trkpt><trkpt lat="42.5227073937568" lon="13.100238943005476"><ele>726.0</ele><time>2026-04-23T08:47:22Z</time></trkpt><trkpt lat="42.52275058542477" lon="13.10037229114846"><ele>726.0</ele><time>2026-04-23T08:47:23Z</time></trkpt><trkpt lat="42.522794715964444" lon="13.100538569134416"><ele>726.0</ele><time>2026-04-23T08:47:24Z</time></trkpt><trkpt lat="42.52282978284627" lon="13.100716374592595"><ele>724.75</ele><time>2026-04-23T08:47:25Z</time></trkpt><trkpt lat="42.52286430562841" lon="13.100882080135513"><ele>723.5</ele><time>2026-04-23T08:47:26Z</time></trkpt><trkpt lat="42.522909344118695" lon="13.101032674584966"><ele>722.25</ele><time>2026-04-23T08:47:27Z</time></trkpt><trkpt lat="42.522977269309365" lon="13.101144024338895"><ele>721.0</ele><time>2026-04-23T08:47:28Z</time></trkpt><trkpt lat="42.5230858596965" lon="13.101247709840752"><ele>722.3333333333334</ele><time>2026-04-23T08:47:29Z</time></trkpt><trkpt lat="42.52321897159235" lon="13.101348409709539"><ele>723.6666666666666</ele><time>2026-04-23T08:47:30Z</time></trkpt><trkpt lat="42.5233591276304" lon="13.101477098593344"><ele>725.0</ele><time>2026-04-23T08:47:31Z</time></trkpt><trkpt lat="42.52349369074892" lon="13.101599444644867"><ele>725.0</ele><time>2026-04-23T08:47:32Z</time></trkpt><trkpt lat="42.523626294294935" lon="13.101723765743515"><ele>725.0</ele><time>2026-04-23T08:47:33Z</time></trkpt><trkpt lat="42.52375627448946" lon="13.10185621612956"><ele>725.0</ele><time>2026-04-23T08:47:34Z</time></trkpt><trkpt lat="42.52388123081807" lon="13.102016893028258"><ele>727.0</ele><time>2026-04-23T08:47:35Z</time></trkpt><trkpt lat="42.52399415835462" lon="13.102201430857003"><ele>729.0</ele><time>2026-04-23T08:47:36Z</time></trkpt><trkpt lat="42.52410018623271" lon="13.10240222322644"><ele>731.0</ele><time>2026-04-23T08:47:37Z</time></trkpt><trkpt lat="42.524193908759074" lon="13.102615433671044"><ele>731.0</ele><time>2026-04-23T08:47:38Z</time></trkpt><trkpt lat="42.52426668347545" lon="13.102824538947539"><ele>731.0</ele><time>2026-04-23T08:47:39Z</time></trkpt><trkpt lat="42.52431345806923" lon="13.103030189037332"><ele>731.0</ele><time>2026-04-23T08:47:40Z</time></trkpt><trkpt lat="42.52433455889309" lon="13.103235833148615"><ele>729.25</ele><time>2026-04-23T08:47:40.999Z</time></trkpt><trkpt lat="42.524352730087855" lon="13.103414641551533"><ele>727.5</ele><time>2026-04-23T08:47:41.999Z</time></trkpt><trkpt lat="42.52440325792641" lon="13.103563474134798"><ele>725.75</ele><time>2026-04-23T08:47:42.999Z</time></trkpt><trkpt lat="42.52450331137898" lon="13.103670155095234"><ele>724.0</ele><time>2026-04-23T08:47:43.999Z</time></trkpt><trkpt lat="42.52463321009591" lon="13.103748414499517"><ele>732.0</ele><time>2026-04-23T08:47:44.999Z</time></trkpt><trkpt lat="42.52477903349429" lon="13.103824443199406"><ele>740.0</ele><time>2026-04-23T08:47:45.999Z</time></trkpt><trkpt lat="42.52492822710648" lon="13.103914600005417"><ele>748.0</ele><time>2026-04-23T08:47:46.999Z</time></trkpt><trkpt lat="42.52507721259468" lon="13.104016836427878"><ele>749.6666666666667</ele><time>2026-04-23T08:47:47.999Z</time></trkpt><trkpt lat="42.525222980333396" lon="13.104133622182971"><ele>751.3333333333334</ele><time>2026-04-23T08:47:48.999Z</time></trkpt><trkpt lat="42.52535480408601" lon="13.104256657940713"><ele>753.0</ele><time>2026-04-23T08:47:49.999Z</time></trkpt><trkpt lat="42.525456549382525" lon="13.104401613007063"><ele>753.0</ele><time>2026-04-23T08:47:50.999Z</time></trkpt><trkpt lat="42.52552407044522" lon="13.104586503580073"><ele>753.0</ele><time>2026-04-23T08:47:51.999Z</time></trkpt><trkpt lat="42.52557177313093" lon="13.10481445152293"><ele>753.0</ele><time>2026-04-23T08:47:52.999Z</time></trkpt><trkpt lat="42.52561053104184" lon="13.105061423082272"><ele>748.6666666666666</ele><time>2026-04-23T08:47:53.999Z</time></trkpt><trkpt lat="42.52564707970789" lon="13.105307409312038"><ele>744.3333333333333</ele><time>2026-04-23T08:47:54.999Z</time></trkpt><trkpt lat="42.52568268126368" lon="13.10555631790506"><ele>740.0</ele><time>2026-04-23T08:47:55.999Z</time></trkpt><trkpt lat="42.52572399388304" lon="13.10580479584991"><ele>737.6666666666666</ele><time>2026-04-23T08:47:56.999Z</time></trkpt><trkpt lat="42.52577379993281" lon="13.106036002349942"><ele>735.3333333333334</ele><time>2026-04-23T08:47:57.999Z</time></trkpt><trkpt lat="42.52582942835315" lon="13.106231519939069"><ele>733.0</ele><time>2026-04-23T08:47:58.999Z</time></trkpt><trkpt lat="42.52590915088521" lon="13.106385129317118"><ele>733.0</ele><time>2026-04-23T08:47:59.999Z</time></trkpt><trkpt lat="42.52602135069639" lon="13.106488680245413"><ele>733.0</ele><time>2026-04-23T08:48:00.999Z</time></trkpt><trkpt lat="42.52615994368099" lon="13.106558749233173"><ele>733.0</ele><time>2026-04-23T08:48:01.999Z</time></trkpt><trkpt lat="42.526305599310824" lon="13.106641045790353"><ele>733.0</ele><time>2026-04-23T08:48:02.999Z</time></trkpt><trkpt lat="42.52643237765531" lon="13.106782486166827"><ele>732.6666666666667</ele><time>2026-04-23T08:48:03.999Z</time></trkpt><trkpt lat="42.52654169340603" lon="13.106972638378556"><ele>732.3333333333334</ele><time>2026-04-23T08:48:04.999Z</time></trkpt><trkpt lat="42.526636778956664" lon="13.107187109050512"><ele>732.0</ele><time>2026-04-23T08:48:05.999Z</time></trkpt><trkpt lat="42.526722719268136" lon="13.10741386135565"><ele>732.0</ele><time>2026-04-23T08:48:06.999Z</time></trkpt><trkpt lat="42.5268015631945" lon="13.107649750117334"><ele>732.0</ele><time>2026-04-23T08:48:07.999Z</time></trkpt><trkpt lat="42.526855485689545" lon="13.107889434543816"><ele>732.0</ele><time>2026-04-23T08:48:08.999Z</time></trkpt><trkpt lat="42.52686583282145" lon="13.108138312397022"><ele>730.6666666666666</ele><time>2026-04-23T08:48:09.999Z</time></trkpt><trkpt lat="42.52683731430678" lon="13.108396895855964"><ele>729.3333333333333</ele><time>2026-04-23T08:48:10.999Z</time></trkpt><trkpt lat="42.526781971296906" lon="13.108654557324895"><ele>728.0</ele><time>2026-04-23T08:48:11.999Z</time></trkpt><trkpt lat="42.52670929475702" lon="13.108900433295103"><ele>729.6666666666666</ele><time>2026-04-23T08:48:12.999Z</time></trkpt><trkpt lat="42.52663190227805" lon="13.109153338622473"><ele>731.3333333333334</ele><time>2026-04-23T08:48:13.999Z</time></trkpt><trkpt lat="42.52657027272548" lon="13.10942164796872"><ele>733.0</ele><time>2026-04-23T08:48:14.999Z</time></trkpt><trkpt lat="42.526518783455046" lon="13.109706064354672"><ele>734.6666666666667</ele><time>2026-04-23T08:48:15.999Z</time></trkpt><trkpt lat="42.52645449165697" lon="13.109985852936688"><ele>736.3333333333334</ele><time>2026-04-23T08:48:16.999Z</time></trkpt><trkpt lat="42.52636734741523" lon="13.110246458209156"><ele>738.0</ele><time>2026-04-23T08:48:17.999Z</time></trkpt><trkpt lat="42.52626646146443" lon="13.110489972535794"><ele>735.3333333333334</ele><time>2026-04-23T08:48:18.999Z</time></trkpt><trkpt lat="42.52616173292768" lon="13.110715733866215"><ele>732.6666666666667</ele><time>2026-04-23T08:48:19.999Z</time></trkpt><trkpt lat="42.526066335013404" lon="13.110947705830224"><ele>730.0</ele><time>2026-04-23T08:48:20.999Z</time></trkpt><trkpt lat="42.52599570199222" lon="13.111201539057584"><ele>729.3333333333334</ele><time>2026-04-23T08:48:21.999Z</time></trkpt><trkpt lat="42.525942251915254" lon="13.111469950730836"><ele>728.6666666666666</ele><time>2026-04-23T08:48:22.999Z</time></trkpt><trkpt lat="42.52589226700829" lon="13.111733641966175"><ele>728.0</ele><time>2026-04-23T08:48:23.999Z</time></trkpt><trkpt lat="42.52584834365957" lon="13.111983801063557"><ele>728.0</ele><time>2026-04-23T08:48:24.999Z</time></trkpt><trkpt lat="42.52583153128182" lon="13.11222231810728"><ele>728.0</ele><time>2026-04-23T08:48:25.999Z</time></trkpt><trkpt lat="42.52585008018495" lon="13.112446761628174"><ele>728.0</ele><time>2026-04-23T08:48:26.999Z</time></trkpt><trkpt lat="42.52587602035173" lon="13.112661772249249"><ele>728.3333333333333</ele><time>2026-04-23T08:48:27.999Z</time></trkpt><trkpt lat="42.52585816154878" lon="13.11286339489701"><ele>728.6666666666666</ele><time>2026-04-23T08:48:28.999Z</time></trkpt><trkpt lat="42.52581125907964" lon="13.113073152169456"><ele>729.0</ele><time>2026-04-23T08:48:29.999Z</time></trkpt><trkpt lat="42.52572004646522" lon="13.113261638310393"><ele>727.6666666666666</ele><time>2026-04-23T08:48:30.999Z</time></trkpt><trkpt lat="42.52559462963772" lon="13.113437735927075"><ele>726.3333333333333</ele><time>2026-04-23T08:48:31.999Z</time></trkpt><trkpt lat="42.52545847228492" lon="13.113623248205862"><ele>725.0</ele><time>2026-04-23T08:48:32.999Z</time></trkpt><trkpt lat="42.52531739372029" lon="13.113812529480327"><ele>725.0</ele><time>2026-04-23T08:48:33.999Z</time></trkpt><trkpt lat="42.525173262730355" lon="13.11399409166713"><ele>725.0</ele><time>2026-04-23T08:48:34.999Z</time></trkpt><trkpt lat="42.525008076310506" lon="13.114146497580153"><ele>725.0</ele><time>2026-04-23T08:48:36Z</time></trkpt><trkpt lat="42.52482978905202" lon="13.114293111888058"><ele>725.6666666666666</ele><time>2026-04-23T08:48:37Z</time></trkpt><trkpt lat="42.52465156233591" lon="13.114442600580484"><ele>726.3333333333334</ele><time>2026-04-23T08:48:38Z</time></trkpt><trkpt lat="42.524506785304666" lon="13.11461164791918"><ele>727.0</ele><time>2026-04-23T08:48:39Z</time></trkpt><trkpt lat="42.52439310335745" lon="13.114788612250301"><ele>727.6666666666667</ele><time>2026-04-23T08:48:40Z</time></trkpt><trkpt lat="42.52432157091819" lon="13.114998117958729"><ele>728.3333333333334</ele><time>2026-04-23T08:48:41Z</time></trkpt><trkpt lat="42.52427241588788" lon="13.115243762180611"><ele>729.0</ele><time>2026-04-23T08:48:42Z</time></trkpt><trkpt lat="42.52420353602048" lon="13.115498124998563"><ele>732.0</ele><time>2026-04-23T08:48:43Z</time></trkpt><trkpt lat="42.524147542633884" lon="13.115768033917277"><ele>735.0</ele><time>2026-04-23T08:48:44Z</time></trkpt><trkpt lat="42.52409891055294" lon="13.116048819892269"><ele>738.0</ele><time>2026-04-23T08:48:45Z</time></trkpt><trkpt lat="42.52405090242394" lon="13.116334887897846"><ele>740.0</ele><time>2026-04-23T08:48:46Z</time></trkpt><trkpt lat="42.524003389874714" lon="13.116613390089107"><ele>742.0</ele><time>2026-04-23T08:48:47Z</time></trkpt><trkpt lat="42.52395141967233" lon="13.116879317724852"><ele>744.0</ele><time>2026-04-23T08:48:48Z</time></trkpt><trkpt lat="42.52387920102126" lon="13.117108862307182"><ele>744.0</ele><time>2026-04-23T08:48:49Z</time></trkpt><trkpt lat="42.52376970421827" lon="13.11732551057699"><ele>744.0</ele><time>2026-04-23T08:48:50Z</time></trkpt><trkpt lat="42.523637773429755" lon="13.117546594895991"><ele>744.0</ele><time>2026-04-23T08:48:51Z</time></trkpt><trkpt lat="42.52349586660668" lon="13.117764546998403"><ele>746.6666666666666</ele><time>2026-04-23T08:48:52Z</time></trkpt><trkpt lat="42.52333652360169" lon="13.117961016206463"><ele>749.3333333333333</ele><time>2026-04-23T08:48:53Z</time></trkpt><trkpt lat="42.52315392328908" lon="13.118122936486763"><ele>752.0</ele><time>2026-04-23T08:48:54Z</time></trkpt><trkpt lat="42.52295702593751" lon="13.11826289146435"><ele>746.6666666666666</ele><time>2026-04-23T08:48:55Z</time></trkpt><trkpt lat="42.522756705170636" lon="13.118393687732404"><ele>741.3333333333334</ele><time>2026-04-23T08:48:56Z</time></trkpt><trkpt lat="42.52257529879291" lon="13.118526400796151"><ele>736.0</ele><time>2026-04-23T08:48:57Z</time></trkpt><trkpt lat="42.522407957563956" lon="13.118635671779018"><ele>736.0</ele><time>2026-04-23T08:48:58Z</time></trkpt><trkpt lat="42.522272706324124" lon="13.118734113147088"><ele>736.0</ele><time>2026-04-23T08:48:59Z</time></trkpt><trkpt lat="42.52216290880903" lon="13.118837445843697"><ele>736.0</ele><time>2026-04-23T08:49:00Z</time></trkpt><trkpt lat="42.52208948524209" lon="13.118973348851782"><ele>736.0</ele><time>2026-04-23T08:49:01Z</time></trkpt><trkpt lat="42.522060555032716" lon="13.119157265593952"><ele>736.0</ele><time>2026-04-23T08:49:02Z</time></trkpt><trkpt lat="42.52205963915797" lon="13.119376962497245"><ele>736.0</ele><time>2026-04-23T08:49:03Z</time></trkpt><trkpt lat="42.522033897628106" lon="13.119610082416811"><ele>736.0</ele><time>2026-04-23T08:49:04Z</time></trkpt><trkpt lat="42.521993340433326" lon="13.119820355204363"><ele>737.3333333333334</ele><time>2026-04-23T08:49:05Z</time></trkpt><trkpt lat="42.521913161669694" lon="13.120013777356785"><ele>738.6666666666666</ele><time>2026-04-23T08:49:06Z</time></trkpt><trkpt lat="42.521809625292356" lon="13.120204656611362"><ele>740.0</ele><time>2026-04-23T08:49:07Z</time></trkpt><trkpt lat="42.521684119841375" lon="13.120404126086592"><ele>740.0</ele><time>2026-04-23T08:49:08Z</time></trkpt><trkpt lat="42.52154056075599" lon="13.120570416638003"><ele>740.0</ele><time>2026-04-23T08:49:09Z</time></trkpt><trkpt lat="42.52138784191725" lon="13.120727068076173"><ele>740.0</ele><time>2026-04-23T08:49:10Z</time></trkpt><trkpt lat="42.521261104893" lon="13.120913955841923"><ele>739.3333333333333</ele><time>2026-04-23T08:49:11Z</time></trkpt><trkpt lat="42.52115162519985" lon="13.121121697413356"><ele>738.6666666666666</ele><time>2026-04-23T08:49:12Z</time></trkpt><trkpt lat="42.52108136024344" lon="13.121363615005638"><ele>738.0</ele><time>2026-04-23T08:49:13Z</time></trkpt><trkpt lat="42.52103800636509" lon="13.121627572317626"><ele>738.0</ele><time>2026-04-23T08:49:14Z</time></trkpt><trkpt lat="42.521021446711465" lon="13.12189226926278"><ele>738.0</ele><time>2026-04-23T08:49:15Z</time></trkpt><trkpt lat="42.52102962379509" lon="13.122151401371339"><ele>738.0</ele><time>2026-04-23T08:49:16Z</time></trkpt><trkpt lat="42.52100647905658" lon="13.12236965657615"><ele>740.6666666666666</ele><time>2026-04-23T08:49:17Z</time></trkpt><trkpt lat="42.52095875767712" lon="13.122537056460528"><ele>743.3333333333333</ele><time>2026-04-23T08:49:18Z</time></trkpt><trkpt lat="42.52085237412754" lon="13.122677675001167"><ele>746.0</ele><time>2026-04-23T08:49:19Z</time></trkpt><trkpt lat="42.5207185616881" lon="13.122847226967696"><ele>746.0</ele><time>2026-04-23T08:49:20Z</time></trkpt><trkpt lat="42.52057263558128" lon="13.123036232666768"><ele>746.0</ele><time>2026-04-23T08:49:21Z</time></trkpt><trkpt lat="42.52040083851366" lon="13.123202126849739"><ele>746.0</ele><time>2026-04-23T08:49:22Z</time></trkpt><trkpt lat="42.52023880586383" lon="13.123369599947592"><ele>744.0</ele><time>2026-04-23T08:49:23Z</time></trkpt><trkpt lat="42.52001385559221" lon="13.123710118750616"><ele>742.0</ele><time>2026-04-23T08:49:25Z</time></trkpt><trkpt lat="42.51996276901021" lon="13.123924862635997"><ele>744.3333333333334</ele><time>2026-04-23T08:49:26Z</time></trkpt><trkpt lat="42.51991863888684" lon="13.124164736686616"><ele>746.6666666666666</ele><time>2026-04-23T08:49:27Z</time></trkpt><trkpt lat="42.519883890051574" lon="13.124391363667538"><ele>749.0</ele><time>2026-04-23T08:49:28Z</time></trkpt><trkpt lat="42.5198842665468" lon="13.12460879018178"><ele>749.0</ele><time>2026-04-23T08:49:29Z</time></trkpt><trkpt lat="42.51992307846542" lon="13.124830193091949"><ele>749.0</ele><time>2026-04-23T08:49:30Z</time></trkpt><trkpt lat="42.519999589907655" lon="13.125056836330051"><ele>749.0</ele><time>2026-04-23T08:49:31Z</time></trkpt><trkpt lat="42.52006281325469" lon="13.125296830651369"><ele>748.0</ele><time>2026-04-23T08:49:32Z</time></trkpt><trkpt lat="42.5201135628527" lon="13.125544038312935"><ele>747.0</ele><time>2026-04-23T08:49:33Z</time></trkpt><trkpt lat="42.52012820513921" lon="13.125802432468989"><ele>746.0</ele><time>2026-04-23T08:49:34Z</time></trkpt><trkpt lat="42.520121862670585" lon="13.12605961516235"><ele>745.3333333333333</ele><time>2026-04-23T08:49:35Z</time></trkpt><trkpt lat="42.52010894962561" lon="13.126302643331389"><ele>744.6666666666666</ele><time>2026-04-23T08:49:36Z</time></trkpt><trkpt lat="42.520086657822766" lon="13.126517429598954"><ele>744.0</ele><time>2026-04-23T08:49:37Z</time></trkpt><trkpt lat="42.52005914328264" lon="13.126715405008785"><ele>744.0</ele><time>2026-04-23T08:49:38Z</time></trkpt><trkpt lat="42.51998087894851" lon="13.126884092528336"><ele>744.0</ele><time>2026-04-23T08:49:39Z</time></trkpt><trkpt lat="42.51984701817709" lon="13.126987664258458"><ele>744.0</ele><time>2026-04-23T08:49:40Z</time></trkpt><trkpt lat="42.51969982671201" lon="13.127106426596498"><ele>744.0</ele><time>2026-04-23T08:49:41Z</time></trkpt><trkpt lat="42.51953390997709" lon="13.127221996319115"><ele>744.0</ele><time>2026-04-23T08:49:42Z</time></trkpt><trkpt lat="42.519357489332315" lon="13.127345257041597"><ele>744.0</ele><time>2026-04-23T08:49:43Z</time></trkpt><trkpt lat="42.51918288961619" lon="13.12744584129175"><ele>744.0</ele><time>2026-04-23T08:49:44Z</time></trkpt><trkpt lat="42.51903870492081" lon="13.127559228050607"><ele>744.0</ele><time>2026-04-23T08:49:45Z</time></trkpt><trkpt lat="42.51891869714728" lon="13.127704649715238"><ele>744.0</ele><time>2026-04-23T08:49:46Z</time></trkpt><trkpt lat="42.51883744173191" lon="13.127871650939072"><ele>744.0</ele><time>2026-04-23T08:49:47Z</time></trkpt><trkpt lat="42.518797262683016" lon="13.128072723853618"><ele>744.0</ele><time>2026-04-23T08:49:48Z</time></trkpt><trkpt lat="42.51878916357982" lon="13.12830276065889"><ele>744.0</ele><time>2026-04-23T08:49:49Z</time></trkpt><trkpt lat="42.518767388604324" lon="13.128549024566336"><ele>744.0</ele><time>2026-04-23T08:49:50Z</time></trkpt><trkpt lat="42.51870693655254" lon="13.12879706212633"><ele>744.0</ele><time>2026-04-23T08:49:51Z</time></trkpt><trkpt lat="42.518639199582786" lon="13.12904678512237"><ele>744.0</ele><time>2026-04-23T08:49:52Z</time></trkpt><trkpt lat="42.51856780128242" lon="13.129271883316385"><ele>744.0</ele><time>2026-04-23T08:49:53Z</time></trkpt><trkpt lat="42.51849698753743" lon="13.12947161297895"><ele>744.0</ele><time>2026-04-23T08:49:54Z</time></trkpt><trkpt lat="42.51837266064647" lon="13.129605101360008"><ele>744.0</ele><time>2026-04-23T08:49:55Z</time></trkpt><trkpt lat="42.51823855249972" lon="13.129713022054672"><ele>744.0</ele><time>2026-04-23T08:49:56Z</time></trkpt><trkpt lat="42.518086973659756" lon="13.129777940399391"><ele>744.0</ele><time>2026-04-23T08:49:57Z</time></trkpt><trkpt lat="42.51792589772895" lon="13.12980196994452"><ele>744.0</ele><time>2026-04-23T08:49:58Z</time></trkpt><trkpt lat="42.51775932737058" lon="13.129741818402321"><ele>744.0</ele><time>2026-04-23T08:49:59Z</time></trkpt><trkpt lat="42.517599593692495" lon="13.129628252474413"><ele>744.0</ele><time>2026-04-23T08:50:00Z</time></trkpt><trkpt lat="42.51744593875032" lon="13.129462821605804"><ele>744.0</ele><time>2026-04-23T08:50:01Z</time></trkpt><trkpt lat="42.51729699079832" lon="13.129310222156173"><ele>744.0</ele><time>2026-04-23T08:50:02Z</time></trkpt><trkpt lat="42.5171348015654" lon="13.129212007368514"><ele>744.0</ele><time>2026-04-23T08:50:03Z</time></trkpt><trkpt lat="42.516973545657294" lon="13.129090415129582"><ele>744.0</ele><time>2026-04-23T08:50:04Z</time></trkpt><trkpt lat="42.51683583479198" lon="13.128987882911327"><ele>743.25</ele><time>2026-04-23T08:50:05Z</time></trkpt><trkpt lat="42.51671589940038" lon="13.128916791614003"><ele>742.5</ele><time>2026-04-23T08:50:06Z</time></trkpt><trkpt lat="42.516592760927715" lon="13.128898047223153"><ele>741.75</ele><time>2026-04-23T08:50:07Z</time></trkpt><trkpt lat="42.516458303678306" lon="13.128932758492464"><ele>741.0</ele><time>2026-04-23T08:50:08Z</time></trkpt><trkpt lat="42.51631428696496" lon="13.128991977624008"><ele>742.0</ele><time>2026-04-23T08:50:09Z</time></trkpt><trkpt lat="42.51620291611452" lon="13.129062464111254"><ele>743.0</ele><time>2026-04-23T08:50:10Z</time></trkpt><trkpt lat="42.51611624912535" lon="13.129176346369618"><ele>744.0</ele><time>2026-04-23T08:50:11Z</time></trkpt><trkpt lat="42.51603535696606" lon="13.12933023740027"><ele>745.0</ele><time>2026-04-23T08:50:12Z</time></trkpt><trkpt lat="42.515981011564364" lon="13.129523427596276"><ele>745.0</ele><time>2026-04-23T08:50:13Z</time></trkpt><trkpt lat="42.51592076893985" lon="13.129719923101469"><ele>745.0</ele><time>2026-04-23T08:50:14Z</time></trkpt><trkpt lat="42.51586261527937" lon="13.129904669281405"><ele>745.0</ele><time>2026-04-23T08:50:15Z</time></trkpt><trkpt lat="42.515804822795275" lon="13.130088268056587"><ele>745.25</ele><time>2026-04-23T08:50:16Z</time></trkpt><trkpt lat="42.51576242040121" lon="13.130280205487527"><ele>745.5</ele><time>2026-04-23T08:50:17Z</time></trkpt><trkpt lat="42.51570605451884" lon="13.130459936799593"><ele>745.75</ele><time>2026-04-23T08:50:18Z</time></trkpt><trkpt lat="42.51565358673102" lon="13.130625985354252"><ele>746.0</ele><time>2026-04-23T08:50:19Z</time></trkpt><trkpt lat="42.51560329944811" lon="13.130782757987536"><ele>746.0</ele><time>2026-04-23T08:50:20Z</time></trkpt><trkpt lat="42.51555454902493" lon="13.130939191189382"><ele>746.0</ele><time>2026-04-23T08:50:21Z</time></trkpt><trkpt lat="42.51550352535281" lon="13.131099369148924"><ele>746.0</ele><time>2026-04-23T08:50:22Z</time></trkpt><trkpt lat="42.5154481378937" lon="13.131257931719476"><ele>746.0</ele><time>2026-04-23T08:50:23Z</time></trkpt><trkpt lat="42.515392986940746" lon="13.131419252203822"><ele>745.75</ele><time>2026-04-23T08:50:24Z</time></trkpt><trkpt lat="42.515308861511805" lon="13.131565025030485"><ele>745.5</ele><time>2026-04-23T08:50:25Z</time></trkpt><trkpt lat="42.51522547539924" lon="13.131715136301336"><ele>745.25</ele><time>2026-04-23T08:50:26Z</time></trkpt><trkpt lat="42.51513523639517" lon="13.131868923848595"><ele>745.0</ele><time>2026-04-23T08:50:27Z</time></trkpt><trkpt lat="42.51505250243971" lon="13.132037496312302"><ele>745.0</ele><time>2026-04-23T08:50:28Z</time></trkpt><trkpt lat="42.51494927923731" lon="13.132189058549452"><ele>745.0</ele><time>2026-04-23T08:50:28.999Z</time></trkpt><trkpt lat="42.514845490799644" lon="13.132335745411691"><ele>745.0</ele><time>2026-04-23T08:50:29.999Z</time></trkpt><trkpt lat="42.51473741594652" lon="13.132478622650128"><ele>746.0</ele><time>2026-04-23T08:50:30.999Z</time></trkpt><trkpt lat="42.514623602729124" lon="13.13261138582791"><ele>747.0</ele><time>2026-04-23T08:50:31.999Z</time></trkpt><trkpt lat="42.51450128611728" lon="13.132729868396343"><ele>748.0</ele><time>2026-04-23T08:50:32.999Z</time></trkpt><trkpt lat="42.51436482505132" lon="13.132815520550944"><ele>748.0</ele><time>2026-04-23T08:50:33.999Z</time></trkpt><trkpt lat="42.51424686804213" lon="13.132934920387346"><ele>748.0</ele><time>2026-04-23T08:50:34.999Z</time></trkpt><trkpt lat="42.51412863831946" lon="13.133031079572184"><ele>748.0</ele><time>2026-04-23T08:50:35.999Z</time></trkpt><trkpt lat="42.51402080290034" lon="13.13312268647632"><ele>748.0</ele><time>2026-04-23T08:50:36.999Z</time></trkpt><trkpt lat="42.51391426512133" lon="13.133215089072486"><ele>748.25</ele><time>2026-04-23T08:50:37.999Z</time></trkpt><trkpt lat="42.51381113118209" lon="13.133302954769565"><ele>748.5</ele><time>2026-04-23T08:50:38.999Z</time></trkpt><trkpt lat="42.51370894254181" lon="13.133387707927866"><ele>748.75</ele><time>2026-04-23T08:50:39.999Z</time></trkpt><trkpt lat="42.51360715738075" lon="13.133471507280351"><ele>749.0</ele><time>2026-04-23T08:50:40.999Z</time></trkpt><trkpt lat="42.51350604323701" lon="13.133555311818103"><ele>749.5</ele><time>2026-04-23T08:50:42Z</time></trkpt><trkpt lat="42.51340533570398" lon="13.133637658057431"><ele>750.0</ele><time>2026-04-23T08:50:43Z</time></trkpt><trkpt lat="42.513302751093775" lon="13.133713472687859"><ele>750.5</ele><time>2026-04-23T08:50:44Z</time></trkpt><trkpt lat="42.51319728451616" lon="13.13378056163912"><ele>751.0</ele><time>2026-04-23T08:50:45Z</time></trkpt><trkpt lat="42.51309191081281" lon="13.13383853636841"><ele>751.0</ele><time>2026-04-23T08:50:46Z</time></trkpt><trkpt lat="42.51298780219225" lon="13.133889542265981"><ele>751.0</ele><time>2026-04-23T08:50:47Z</time></trkpt><trkpt lat="42.512884529570485" lon="13.13394044273611"><ele>751.0</ele><time>2026-04-23T08:50:48Z</time></trkpt><trkpt lat="42.51277759782699" lon="13.133952824233809"><ele>751.0</ele><time>2026-04-23T08:50:49Z</time></trkpt><trkpt lat="42.51269529628411" lon="13.134044295363612"><ele>751.0</ele><time>2026-04-23T08:50:50Z</time></trkpt><trkpt lat="42.51261617131147" lon="13.13412479236371"><ele>751.4</ele><time>2026-04-23T08:50:51Z</time></trkpt><trkpt lat="42.51254547147308" lon="13.134225973862462"><ele>751.8</ele><time>2026-04-23T08:50:52Z</time></trkpt><trkpt lat="42.51247313522814" lon="13.134334586399833"><ele>752.1999999999999</ele><time>2026-04-23T08:50:53Z</time></trkpt><trkpt lat="42.51238756873215" lon="13.134437124278689"><ele>752.5999999999999</ele><time>2026-04-23T08:50:54Z</time></trkpt><trkpt lat="42.51233892682095" lon="13.134568699093267"><ele>753.0</ele><time>2026-04-23T08:50:55Z</time></trkpt><trkpt lat="42.51228837778362" lon="13.134688080380755"><ele>753.0</ele><time>2026-04-23T08:50:56Z</time></trkpt><trkpt lat="42.51224728274051" lon="13.134811606743488"><ele>753.0</ele><time>2026-04-23T08:50:57Z</time></trkpt><trkpt lat="42.51221843968491" lon="13.134940479706064"><ele>753.0</ele><time>2026-04-23T08:50:58Z</time></trkpt><trkpt lat="42.51219939143629" lon="13.135075903994599"><ele>753.0</ele><time>2026-04-23T08:50:59Z</time></trkpt><trkpt lat="42.51218356633976" lon="13.135218785772889"><ele>753.0</ele><time>2026-04-23T08:51:00Z</time></trkpt><trkpt lat="42.51213471259455" lon="13.13536180800792"><ele>754.8</ele><time>2026-04-23T08:51:01Z</time></trkpt><trkpt lat="42.51213162855539" lon="13.135509935507585"><ele>756.5999999999999</ele><time>2026-04-23T08:51:02Z</time></trkpt><trkpt lat="42.512127433349164" lon="13.135659683086619"><ele>758.4000000000001</ele><time>2026-04-23T08:51:03Z</time></trkpt><trkpt lat="42.51212244517825" lon="13.135808370876147"><ele>760.2</ele><time>2026-04-23T08:51:04Z</time></trkpt><trkpt lat="42.51211722025516" lon="13.135940834279674"><ele>762.0</ele><time>2026-04-23T08:51:05Z</time></trkpt><trkpt lat="42.512112128736796" lon="13.136054974604226"><ele>762.0</ele><time>2026-04-23T08:51:06Z</time></trkpt><trkpt lat="42.51210503904956" lon="13.13615280156923"><ele>762.0</ele><time>2026-04-23T08:51:07Z</time></trkpt><trkpt lat="42.512095991594" lon="13.136244222980542"><ele>762.0</ele><time>2026-04-23T08:51:08Z</time></trkpt><trkpt lat="42.512081922982105" lon="13.136335100536837"><ele>762.0</ele><time>2026-04-23T08:51:09Z</time></trkpt><trkpt lat="42.512049470315716" lon="13.136420822089818"><ele>762.0</ele><time>2026-04-23T08:51:10Z</time></trkpt><trkpt lat="42.51202060360325" lon="13.136525463692266"><ele>762.0</ele><time>2026-04-23T08:51:11Z</time></trkpt><trkpt lat="42.511972949920654" lon="13.136626121746065"><ele>760.4000000000001</ele><time>2026-04-23T08:51:12Z</time></trkpt><trkpt lat="42.51190857263258" lon="13.13672609973835"><ele>758.8000000000001</ele><time>2026-04-23T08:51:13Z</time></trkpt><trkpt lat="42.511852107571414" lon="13.136847834424573"><ele>757.2</ele><time>2026-04-23T08:51:14Z</time></trkpt><trkpt lat="42.511795960809174" lon="13.13698049131071"><ele>755.6</ele><time>2026-04-23T08:51:15Z</time></trkpt><trkpt lat="42.511742693546466" lon="13.137112234397934"><ele>754.0</ele><time>2026-04-23T08:51:16Z</time></trkpt><trkpt lat="42.51169483517736" lon="13.137244802172791"><ele>754.0</ele><time>2026-04-23T08:51:17Z</time></trkpt><trkpt lat="42.511650037642305" lon="13.137383496906173"><ele>754.0</ele><time>2026-04-23T08:51:18Z</time></trkpt><trkpt lat="42.51160542174359" lon="13.137529741755793"><ele>754.0</ele><time>2026-04-23T08:51:19Z</time></trkpt><trkpt lat="42.51156018434733" lon="13.137679194373266"><ele>754.0</ele><time>2026-04-23T08:51:20Z</time></trkpt><trkpt lat="42.51152127896352" lon="13.137822639418284"><ele>754.5</ele><time>2026-04-23T08:51:21Z</time></trkpt><trkpt lat="42.51147954388742" lon="13.137964971197395"><ele>755.0</ele><time>2026-04-23T08:51:22Z</time></trkpt><trkpt lat="42.51143848128428" lon="13.13810092283678"><ele>755.5</ele><time>2026-04-23T08:51:23Z</time></trkpt><trkpt lat="42.51135058961782" lon="13.138199054097822"><ele>756.0</ele><time>2026-04-23T08:51:24Z</time></trkpt><trkpt lat="42.511264585558514" lon="13.138302838070167"><ele>755.75</ele><time>2026-04-23T08:51:25Z</time></trkpt><trkpt lat="42.511172754552845" lon="13.138413145610558"><ele>755.5</ele><time>2026-04-23T08:51:26Z</time></trkpt><trkpt lat="42.511086775383575" lon="13.138539158207536"><ele>755.25</ele><time>2026-04-23T08:51:27Z</time></trkpt><trkpt lat="42.51097109518562" lon="13.138603592183376"><ele>755.0</ele><time>2026-04-23T08:51:28Z</time></trkpt><trkpt lat="42.51086218846102" lon="13.138649254780969"><ele>755.0</ele><time>2026-04-23T08:51:29Z</time></trkpt><trkpt lat="42.51075354745422" lon="13.13869623166494"><ele>755.0</ele><time>2026-04-23T08:51:30Z</time></trkpt><trkpt lat="42.51064778048465" lon="13.138744552367635"><ele>755.0</ele><time>2026-04-23T08:51:31Z</time></trkpt><trkpt lat="42.51054047662469" lon="13.13880410417488"><ele>755.0</ele><time>2026-04-23T08:51:32Z</time></trkpt><trkpt lat="42.510436255114755" lon="13.138874711645709"><ele>754.75</ele><time>2026-04-23T08:51:33Z</time></trkpt><trkpt lat="42.51033837270969" lon="13.138968268529638"><ele>754.5</ele><time>2026-04-23T08:51:34Z</time></trkpt><trkpt lat="42.5102283025286" lon="13.139039432720235"><ele>754.25</ele><time>2026-04-23T08:51:35Z</time></trkpt><trkpt lat="42.51011295988019" lon="13.139112792249147"><ele>754.0</ele><time>2026-04-23T08:51:36Z</time></trkpt><trkpt lat="42.50998420427024" lon="13.139177518500054"><ele>755.0</ele><time>2026-04-23T08:51:37Z</time></trkpt><trkpt lat="42.50984420849833" lon="13.139225397601571"><ele>756.0</ele><time>2026-04-23T08:51:38Z</time></trkpt><trkpt lat="42.509702686193485" lon="13.139260075143309"><ele>757.0</ele><time>2026-04-23T08:51:39Z</time></trkpt><trkpt lat="42.50955976669598" lon="13.139295836196444"><ele>758.0</ele><time>2026-04-23T08:51:40Z</time></trkpt><trkpt lat="42.509414507035615" lon="13.13932493753559"><ele>758.0</ele><time>2026-04-23T08:51:41Z</time></trkpt><trkpt lat="42.509276982460726" lon="13.139338897503556"><ele>758.0</ele><time>2026-04-23T08:51:42Z</time></trkpt><trkpt lat="42.50913785655475" lon="13.139329992800237"><ele>758.0</ele><time>2026-04-23T08:51:43Z</time></trkpt><trkpt lat="42.50899784891074" lon="13.139298232694689"><ele>758.0</ele><time>2026-04-23T08:51:44Z</time></trkpt><trkpt lat="42.50885607816223" lon="13.139254238958461"><ele>757.75</ele><time>2026-04-23T08:51:45Z</time></trkpt><trkpt lat="42.50872062789233" lon="13.139221502766418"><ele>757.5</ele><time>2026-04-23T08:51:46Z</time></trkpt><trkpt lat="42.50859335500648" lon="13.139196907269309"><ele>757.25</ele><time>2026-04-23T08:51:47Z</time></trkpt><trkpt lat="42.50847270608191" lon="13.139259830504068"><ele>757.0</ele><time>2026-04-23T08:51:48Z</time></trkpt><trkpt lat="42.50836349778344" lon="13.139297650948325"><ele>757.0</ele><time>2026-04-23T08:51:49Z</time></trkpt><trkpt lat="42.50829010247119" lon="13.139382379368243"><ele>757.0</ele><time>2026-04-23T08:51:50Z</time></trkpt><trkpt lat="42.50823407419257" lon="13.13948023436045"><ele>757.0</ele><time>2026-04-23T08:51:51Z</time></trkpt><trkpt lat="42.508246566009085" lon="13.139640658407378"><ele>757.0</ele><time>2026-04-23T08:51:52Z</time></trkpt><trkpt lat="42.5082660055659" lon="13.139780957129998"><ele>757.0</ele><time>2026-04-23T08:51:53Z</time></trkpt><trkpt lat="42.50832138208548" lon="13.13993824736132"><ele>758.25</ele><time>2026-04-23T08:51:54Z</time></trkpt><trkpt lat="42.50839321201169" lon="13.14009414000113"><ele>759.5</ele><time>2026-04-23T08:51:55Z</time></trkpt><trkpt lat="42.5084631189683" lon="13.140260196167768"><ele>760.75</ele><time>2026-04-23T08:51:56Z</time></trkpt><trkpt lat="42.508536969002634" lon="13.14044425155825"><ele>762.0</ele><time>2026-04-23T08:51:57Z</time></trkpt><trkpt lat="42.50861553004078" lon="13.14063833525398"><ele>761.75</ele><time>2026-04-23T08:51:58Z</time></trkpt><trkpt lat="42.50869411417453" lon="13.140832210686733"><ele>761.5</ele><time>2026-04-23T08:51:59Z</time></trkpt><trkpt lat="42.508764385894764" lon="13.141009340895367"><ele>761.25</ele><time>2026-04-23T08:52:00Z</time></trkpt><trkpt lat="42.50882965957102" lon="13.141173448836996"><ele>761.0</ele><time>2026-04-23T08:52:01Z</time></trkpt><trkpt lat="42.508888651288416" lon="13.141323105565343"><ele>763.0</ele><time>2026-04-23T08:52:02Z</time></trkpt><trkpt lat="42.50894131777111" lon="13.141458165641547"><ele>765.0</ele><time>2026-04-23T08:52:03Z</time></trkpt><trkpt lat="42.50897428453947" lon="13.141591814791152"><ele>767.0</ele><time>2026-04-23T08:52:04Z</time></trkpt><trkpt lat="42.50901471384496" lon="13.14170151995854"><ele>769.0</ele><time>2026-04-23T08:52:05Z</time></trkpt><trkpt lat="42.50906440265877" lon="13.141787117033639"><ele>771.0</ele><time>2026-04-23T08:52:06Z</time></trkpt><trkpt lat="42.50908919918214" lon="13.14188034177133"><ele>771.0</ele><time>2026-04-23T08:52:07Z</time></trkpt><trkpt lat="42.509125459437605" lon="13.141982117728757"><ele>771.0</ele><time>2026-04-23T08:52:08Z</time></trkpt><trkpt lat="42.50917369229863" lon="13.14210555610227"><ele>771.0</ele><time>2026-04-23T08:52:09Z</time></trkpt><trkpt lat="42.50923218245898" lon="13.142254281759245"><ele>771.0</ele><time>2026-04-23T08:52:10Z</time></trkpt><trkpt lat="42.509295304409214" lon="13.142421364694536"><ele>771.0</ele><time>2026-04-23T08:52:11Z</time></trkpt><trkpt lat="42.50934449348931" lon="13.142612794454427"><ele>769.75</ele><time>2026-04-23T08:52:12Z</time></trkpt><trkpt lat="42.50940531304651" lon="13.142791401530685"><ele>768.5</ele><time>2026-04-23T08:52:13Z</time></trkpt><trkpt lat="42.50943748074598" lon="13.142959780798906"><ele>767.25</ele><time>2026-04-23T08:52:14Z</time></trkpt><trkpt lat="42.50942926158428" lon="13.143118456705812"><ele>766.0</ele><time>2026-04-23T08:52:15Z</time></trkpt><trkpt lat="42.50940628461018" lon="13.143267556990926"><ele>764.75</ele><time>2026-04-23T08:52:16Z</time></trkpt><trkpt lat="42.50931303150027" lon="13.143363940840342"><ele>763.5</ele><time>2026-04-23T08:52:17Z</time></trkpt><trkpt lat="42.50922314498238" lon="13.143448918902694"><ele>762.25</ele><time>2026-04-23T08:52:18Z</time></trkpt><trkpt lat="42.50911314398069" lon="13.143558460304629"><ele>761.0</ele><time>2026-04-23T08:52:19Z</time></trkpt><trkpt lat="42.508985361554124" lon="13.143668263237817"><ele>761.0</ele><time>2026-04-23T08:52:20Z</time></trkpt><trkpt lat="42.508852342680306" lon="13.143793773571623"><ele>761.0</ele><time>2026-04-23T08:52:21Z</time></trkpt><trkpt lat="42.50872371216978" lon="13.143923651937007"><ele>761.0</ele><time>2026-04-23T08:52:22Z</time></trkpt><trkpt lat="42.508608145832945" lon="13.144047574130182"><ele>761.5</ele><time>2026-04-23T08:52:23Z</time></trkpt><trkpt lat="42.50850701871828" lon="13.144170777804943"><ele>762.0</ele><time>2026-04-23T08:52:24Z</time></trkpt><trkpt lat="42.508404823552695" lon="13.1442888760058"><ele>762.5</ele><time>2026-04-23T08:52:24.999Z</time></trkpt><trkpt lat="42.508359992244955" lon="13.144485773190528"><ele>763.0</ele><time>2026-04-23T08:52:25.999Z</time></trkpt><trkpt lat="42.508322070970294" lon="13.144690886035123"><ele>765.0</ele><time>2026-04-23T08:52:26.999Z</time></trkpt><trkpt lat="42.50829076800765" lon="13.14491332943786"><ele>767.0</ele><time>2026-04-23T08:52:27.999Z</time></trkpt><trkpt lat="42.508255135453396" lon="13.145144031931457"><ele>769.0</ele><time>2026-04-23T08:52:28.999Z</time></trkpt><trkpt lat="42.508221392798895" lon="13.1453817652907"><ele>769.0</ele><time>2026-04-23T08:52:29.999Z</time></trkpt><trkpt lat="42.50820960563151" lon="13.145622400739795"><ele>769.0</ele><time>2026-04-23T08:52:30.999Z</time></trkpt><trkpt lat="42.508230483339446" lon="13.145853463795545"><ele>769.0</ele><time>2026-04-23T08:52:31.999Z</time></trkpt><trkpt lat="42.50827188484107" lon="13.146077524899496"><ele>768.0</ele><time>2026-04-23T08:52:32.999Z</time></trkpt><trkpt lat="42.50831075300156" lon="13.146287777656369"><ele>767.0</ele><time>2026-04-23T08:52:33.999Z</time></trkpt><trkpt lat="42.508390251585666" lon="13.146461264742882"><ele>766.0</ele><time>2026-04-23T08:52:34.999Z</time></trkpt><trkpt lat="42.508508298933556" lon="13.146593250443003"><ele>766.0</ele><time>2026-04-23T08:52:35.999Z</time></trkpt><trkpt lat="42.508641396347194" lon="13.146697748167057"><ele>766.0</ele><time>2026-04-23T08:52:36.999Z</time></trkpt><trkpt lat="42.508787739036286" lon="13.146752701626546"><ele>766.0</ele><time>2026-04-23T08:52:37.999Z</time></trkpt><trkpt lat="42.508939281630234" lon="13.146763859214275"><ele>771.0</ele><time>2026-04-23T08:52:38.999Z</time></trkpt><trkpt lat="42.509091287267886" lon="13.146757844016504"><ele>776.0</ele><time>2026-04-23T08:52:39.999Z</time></trkpt><trkpt lat="42.50924396080329" lon="13.146789771627308"><ele>781.0</ele><time>2026-04-23T08:52:40.999Z</time></trkpt><trkpt lat="42.50937326445277" lon="13.146896826691707"><ele>781.0</ele><time>2026-04-23T08:52:41.999Z</time></trkpt><trkpt lat="42.509481470886996" lon="13.147036850104751"><ele>781.0</ele><time>2026-04-23T08:52:42.999Z</time></trkpt><trkpt lat="42.50956886398124" lon="13.147217633817462"><ele>781.0</ele><time>2026-04-23T08:52:43.999Z</time></trkpt><trkpt lat="42.50965660715666" lon="13.147405243085316"><ele>781.6666666666666</ele><time>2026-04-23T08:52:44.999Z</time></trkpt><trkpt lat="42.509734965291074" lon="13.14758250128058"><ele>782.3333333333333</ele><time>2026-04-23T08:52:45.999Z</time></trkpt><trkpt lat="42.509728181291926" lon="13.147789230024795"><ele>783.0</ele><time>2026-04-23T08:52:46.999Z</time></trkpt><trkpt lat="42.50971787103573" lon="13.148021197056233"><ele>782.0</ele><time>2026-04-23T08:52:48Z</time></trkpt><trkpt lat="42.50972324691603" lon="13.148266869380057"><ele>781.0</ele><time>2026-04-23T08:52:49Z</time></trkpt><trkpt lat="42.50970137381761" lon="13.148513165204244"><ele>780.0</ele><time>2026-04-23T08:52:50Z</time></trkpt><trkpt lat="42.509612447673426" lon="13.148732699733022"><ele>778.0</ele><time>2026-04-23T08:52:51Z</time></trkpt><trkpt lat="42.50952356398986" lon="13.148952760957794"><ele>776.0</ele><time>2026-04-23T08:52:52Z</time></trkpt><trkpt lat="42.509433509839916" lon="13.149175934320802"><ele>774.0</ele><time>2026-04-23T08:52:53Z</time></trkpt><trkpt lat="42.50931988935588" lon="13.14936720440054"><ele>774.0</ele><time>2026-04-23T08:52:54Z</time></trkpt><trkpt lat="42.5092233447549" lon="13.149543827018539"><ele>774.0</ele><time>2026-04-23T08:52:55Z</time></trkpt><trkpt lat="42.50914728133703" lon="13.14972994153191"><ele>774.0</ele><time>2026-04-23T08:52:56Z</time></trkpt><trkpt lat="42.50915601490108" lon="13.149956366046109"><ele>775.0</ele><time>2026-04-23T08:52:57Z</time></trkpt><trkpt lat="42.50914699324231" lon="13.150198405355763"><ele>776.0</ele><time>2026-04-23T08:52:58Z</time></trkpt><trkpt lat="42.50912317146754" lon="13.150435903087775"><ele>777.0</ele><time>2026-04-23T08:52:59Z</time></trkpt><trkpt lat="42.50907060153522" lon="13.150685965721806"><ele>780.0</ele><time>2026-04-23T08:53:00Z</time></trkpt><trkpt lat="42.509013938719015" lon="13.15093913987011"><ele>783.0</ele><time>2026-04-23T08:53:01Z</time></trkpt><trkpt lat="42.508948733890875" lon="13.151196133930434"><ele>786.0</ele><time>2026-04-23T08:53:02Z</time></trkpt><trkpt lat="42.50883598811394" lon="13.15142378429053"><ele>785.3333333333333</ele><time>2026-04-23T08:53:03Z</time></trkpt><trkpt lat="42.50871709159953" lon="13.151646625899497"><ele>784.6666666666666</ele><time>2026-04-23T08:53:04Z</time></trkpt><trkpt lat="42.5086196755695" lon="13.151865898894593"><ele>784.0</ele><time>2026-04-23T08:53:05Z</time></trkpt><trkpt lat="42.508551749292934" lon="13.152079483006798"><ele>784.0</ele><time>2026-04-23T08:53:06Z</time></trkpt><trkpt lat="42.508520183762144" lon="13.152309051199518"><ele>784.0</ele><time>2026-04-23T08:53:07Z</time></trkpt><trkpt lat="42.50851421553987" lon="13.15254714071511"><ele>784.0</ele><time>2026-04-23T08:53:08Z</time></trkpt><trkpt lat="42.50849113261052" lon="13.152785751132669"><ele>782.5</ele><time>2026-04-23T08:53:09Z</time></trkpt><trkpt lat="42.50845516569864" lon="13.152995587497369"><ele>781.0</ele><time>2026-04-23T08:53:10Z</time></trkpt><trkpt lat="42.50844559821848" lon="13.153167360556477"><ele>779.5</ele><time>2026-04-23T08:53:11Z</time></trkpt><trkpt lat="42.50848215872835" lon="13.15331421018047"><ele>778.0</ele><time>2026-04-23T08:53:12Z</time></trkpt><trkpt lat="42.50855679983365" lon="13.153436663043932"><ele>778.0</ele><time>2026-04-23T08:53:13Z</time></trkpt><trkpt lat="42.50860947542363" lon="13.153554667800277"><ele>778.0</ele><time>2026-04-23T08:53:14Z</time></trkpt><trkpt lat="42.50860495600556" lon="13.15368762229184"><ele>778.0</ele><time>2026-04-23T08:53:15Z</time></trkpt><trkpt lat="42.50855240705451" lon="13.153788227386373"><ele>778.0</ele><time>2026-04-23T08:53:16Z</time></trkpt><trkpt lat="42.5084683002133" lon="13.153858991527859"><ele>778.0</ele><time>2026-04-23T08:53:17Z</time></trkpt><trkpt lat="42.508360844532255" lon="13.153914718564433"><ele>778.0</ele><time>2026-04-23T08:53:18Z</time></trkpt><trkpt lat="42.50825261792717" lon="13.154015915598682"><ele>778.0</ele><time>2026-04-23T08:53:19Z</time></trkpt><trkpt lat="42.508179395645364" lon="13.154162821060508"><ele>778.0</ele><time>2026-04-23T08:53:20Z</time></trkpt><trkpt lat="42.50815729429226" lon="13.15431568874542"><ele>778.0</ele><time>2026-04-23T08:53:21Z</time></trkpt><trkpt lat="42.50819360769718" lon="13.154463334328197"><ele>778.25</ele><time>2026-04-23T08:53:22Z</time></trkpt><trkpt lat="42.5082701747444" lon="13.154575185927113"><ele>778.5</ele><time>2026-04-23T08:53:23Z</time></trkpt><trkpt lat="42.508378531769615" lon="13.154625323756118"><ele>778.75</ele><time>2026-04-23T08:53:24Z</time></trkpt><trkpt lat="42.50850656384274" lon="13.154624190056172"><ele>779.0</ele><time>2026-04-23T08:53:25Z</time></trkpt><trkpt lat="42.5086512910223" lon="13.154617736971238"><ele>783.6666666666667</ele><time>2026-04-23T08:53:26Z</time></trkpt><trkpt lat="42.50880755701306" lon="13.154646684309522"><ele>788.3333333333333</ele><time>2026-04-23T08:53:27Z</time></trkpt><trkpt lat="42.508955911036644" lon="13.154723561936427"><ele>793.0</ele><time>2026-04-23T08:53:28Z</time></trkpt><trkpt lat="42.5090938087291" lon="13.154857412855861"><ele>792.3333333333333</ele><time>2026-04-23T08:53:29Z</time></trkpt><trkpt lat="42.50922262218628" lon="13.155022543645542"><ele>791.6666666666667</ele><time>2026-04-23T08:53:30Z</time></trkpt><trkpt lat="42.50935980215602" lon="13.1551880407778"><ele>791.0</ele><time>2026-04-23T08:53:31Z</time></trkpt><trkpt lat="42.509498480745044" lon="13.155358776397662"><ele>796.6666666666667</ele><time>2026-04-23T08:53:32Z</time></trkpt><trkpt lat="42.50960032054311" lon="13.155570362087444"><ele>802.3333333333333</ele><time>2026-04-23T08:53:33Z</time></trkpt><trkpt lat="42.50969189953926" lon="13.155793065875642"><ele>808.0</ele><time>2026-04-23T08:53:34Z</time></trkpt><trkpt lat="42.509802775865126" lon="13.15601988387749"><ele>808.0</ele><time>2026-04-23T08:53:35Z</time></trkpt><trkpt lat="42.50989199014176" lon="13.156231714888905"><ele>808.0</ele><time>2026-04-23T08:53:36Z</time></trkpt><trkpt lat="42.50996770499777" lon="13.156416605873465"><ele>808.0</ele><time>2026-04-23T08:53:37Z</time></trkpt><trkpt lat="42.51002954531461" lon="13.156569845237076"><ele>805.8</ele><time>2026-04-23T08:53:38Z</time></trkpt><trkpt lat="42.51006303445797" lon="13.156700858383186"><ele>803.5999999999999</ele><time>2026-04-23T08:53:39Z</time></trkpt><trkpt lat="42.51004763308836" lon="13.156805156468643"><ele>801.4000000000001</ele><time>2026-04-23T08:53:40Z</time></trkpt><trkpt lat="42.50999256560062" lon="13.156874999695686"><ele>799.2</ele><time>2026-04-23T08:53:41Z</time></trkpt><trkpt lat="42.50989888093137" lon="13.156879011879639"><ele>797.0</ele><time>2026-04-23T08:53:42Z</time></trkpt><trkpt lat="42.509783394258285" lon="13.156917934202603"><ele>797.0</ele><time>2026-04-23T08:53:43Z</time></trkpt><trkpt lat="42.5096310094866" lon="13.156947720169496"><ele>797.0</ele><time>2026-04-23T08:53:44Z</time></trkpt><trkpt lat="42.50948249238948" lon="13.157040924268681"><ele>797.0</ele><time>2026-04-23T08:53:45Z</time></trkpt><trkpt lat="42.50933982619523" lon="13.157177852608"><ele>798.6666666666667</ele><time>2026-04-23T08:53:46Z</time></trkpt><trkpt lat="42.50919559635582" lon="13.157321399871249"><ele>800.3333333333333</ele><time>2026-04-23T08:53:47Z</time></trkpt><trkpt lat="42.50905911017159" lon="13.157428415633202"><ele>802.0</ele><time>2026-04-23T08:53:48Z</time></trkpt><trkpt lat="42.508913055835194" lon="13.157497857448416"><ele>796.0</ele><time>2026-04-23T08:53:49Z</time></trkpt><trkpt lat="42.508585344344695" lon="13.157511808756198"><ele>790.0</ele><time>2026-04-23T08:53:51Z</time></trkpt><trkpt lat="42.50843338169622" lon="13.157461320541268"><ele>790.0</ele><time>2026-04-23T08:53:52Z</time></trkpt><trkpt lat="42.50829523579006" lon="13.157431475398827"><ele>790.0</ele><time>2026-04-23T08:53:53Z</time></trkpt><trkpt lat="42.508177295112205" lon="13.15742328300176"><ele>790.0</ele><time>2026-04-23T08:53:54Z</time></trkpt><trkpt lat="42.508084367813666" lon="13.157471149629089"><ele>790.0</ele><time>2026-04-23T08:53:55Z</time></trkpt><trkpt lat="42.50800722572255" lon="13.157557202913786"><ele>790.0</ele><time>2026-04-23T08:53:56Z</time></trkpt><trkpt lat="42.50797582122405" lon="13.157720029117089"><ele>790.0</ele><time>2026-04-23T08:53:57Z</time></trkpt><trkpt lat="42.508006910715885" lon="13.157907390127368"><ele>790.0</ele><time>2026-04-23T08:53:58Z</time></trkpt><trkpt lat="42.50803905191553" lon="13.15810256942744"><ele>790.0</ele><time>2026-04-23T08:53:59Z</time></trkpt><trkpt lat="42.50808278842808" lon="13.15830664275504"><ele>793.3333333333333</ele><time>2026-04-23T08:54:00Z</time></trkpt><trkpt lat="42.5081358651889" lon="13.15850538558397"><ele>796.6666666666667</ele><time>2026-04-23T08:54:01Z</time></trkpt><trkpt lat="42.50819689432204" lon="13.158717384454707"><ele>800.0</ele><time>2026-04-23T08:54:02Z</time></trkpt><trkpt lat="42.50826082807554" lon="13.158936256924255"><ele>798.3333333333334</ele><time>2026-04-23T08:54:03Z</time></trkpt><trkpt lat="42.50832180234951" lon="13.159163885283016"><ele>796.6666666666667</ele><time>2026-04-23T08:54:04Z</time></trkpt><trkpt lat="42.50837495494967" lon="13.159398617031618"><ele>795.0</ele><time>2026-04-23T08:54:05Z</time></trkpt><trkpt lat="42.50844140377726" lon="13.159621709044574"><ele>795.0</ele><time>2026-04-23T08:54:06Z</time></trkpt><trkpt lat="42.50854446081524" lon="13.159813567113233"><ele>795.0</ele><time>2026-04-23T08:54:07Z</time></trkpt><trkpt lat="42.50867932329951" lon="13.159970575480173"><ele>795.0</ele><time>2026-04-23T08:54:08Z</time></trkpt><trkpt lat="42.508821462223686" lon="13.160138223401278"><ele>793.6666666666667</ele><time>2026-04-23T08:54:09Z</time></trkpt><trkpt lat="42.50894544685326" lon="13.160337930008577"><ele>792.3333333333334</ele><time>2026-04-23T08:54:10Z</time></trkpt><trkpt lat="42.5090484465468" lon="13.160555493361262"><ele>791.0</ele><time>2026-04-23T08:54:11Z</time></trkpt><trkpt lat="42.50916039658889" lon="13.160732555854374"><ele>791.0</ele><time>2026-04-23T08:54:12Z</time></trkpt><trkpt lat="42.50927855003167" lon="13.160851253859738"><ele>791.0</ele><time>2026-04-23T08:54:13Z</time></trkpt><trkpt lat="42.509385098057244" lon="13.160906288239797"><ele>791.0</ele><time>2026-04-23T08:54:14Z</time></trkpt><trkpt lat="42.5095010364299" lon="13.16089916549032"><ele>791.0</ele><time>2026-04-23T08:54:15Z</time></trkpt><trkpt lat="42.50961740968452" lon="13.160832670873008"><ele>791.6666666666667</ele><time>2026-04-23T08:54:16Z</time></trkpt><trkpt lat="42.509767294035626" lon="13.16074297788671"><ele>792.3333333333333</ele><time>2026-04-23T08:54:17Z</time></trkpt><trkpt lat="42.509922592053314" lon="13.160680168549554"><ele>793.0</ele><time>2026-04-23T08:54:18Z</time></trkpt><trkpt lat="42.51008518476112" lon="13.160634854411416"><ele>796.5</ele><time>2026-04-23T08:54:19Z</time></trkpt><trkpt lat="42.51023555762175" lon="13.160555017401663"><ele>800.0</ele><time>2026-04-23T08:54:20Z</time></trkpt><trkpt lat="42.51034770489269" lon="13.160430776699307"><ele>803.5</ele><time>2026-04-23T08:54:21Z</time></trkpt><trkpt lat="42.510414821183375" lon="13.160315238357827"><ele>807.0</ele><time>2026-04-23T08:54:22Z</time></trkpt><trkpt lat="42.51047538083084" lon="13.160244729859025"><ele>807.0</ele><time>2026-04-23T08:54:23Z</time></trkpt><trkpt lat="42.510538106328475" lon="13.16021514428402"><ele>807.0</ele><time>2026-04-23T08:54:24Z</time></trkpt><trkpt lat="42.510601669783334" lon="13.16022375865254"><ele>807.0</ele><time>2026-04-23T08:54:25Z</time></trkpt><trkpt lat="42.51065995965894" lon="13.16027248355408"><ele>807.0</ele><time>2026-04-23T08:54:26Z</time></trkpt><trkpt lat="42.51070974087007" lon="13.16036205676958"><ele>807.0</ele><time>2026-04-23T08:54:27Z</time></trkpt><trkpt lat="42.51075899146612" lon="13.16047087181019"><ele>807.0</ele><time>2026-04-23T08:54:28Z</time></trkpt><trkpt lat="42.51081284872929" lon="13.160603080733965"><ele>805.25</ele><time>2026-04-23T08:54:29Z</time></trkpt><trkpt lat="42.51087435652437" lon="13.160734761966932"><ele>803.5</ele><time>2026-04-23T08:54:30Z</time></trkpt><trkpt lat="42.510946190489456" lon="13.160877506572707"><ele>801.75</ele><time>2026-04-23T08:54:31Z</time></trkpt><trkpt lat="42.511023355582616" lon="13.161029532510383"><ele>800.0</ele><time>2026-04-23T08:54:32Z</time></trkpt><trkpt lat="42.51109517238381" lon="13.161198757455466"><ele>800.0</ele><time>2026-04-23T08:54:33Z</time></trkpt><trkpt lat="42.5111400179481" lon="13.161385075658826"><ele>800.0</ele><time>2026-04-23T08:54:34Z</time></trkpt><trkpt lat="42.511156130374346" lon="13.161598172461565"><ele>800.0</ele><time>2026-04-23T08:54:35Z</time></trkpt><trkpt lat="42.51116200547394" lon="13.161818055334761"><ele>798.0</ele><time>2026-04-23T08:54:36Z</time></trkpt><trkpt lat="42.5111595197012" lon="13.162058526940363"><ele>796.0</ele><time>2026-04-23T08:54:37Z</time></trkpt><trkpt lat="42.511139838018195" lon="13.16229996749277"><ele>794.0</ele><time>2026-04-23T08:54:38Z</time></trkpt><trkpt lat="42.511099226351284" lon="13.162532398717893"><ele>793.6666666666667</ele><time>2026-04-23T08:54:39Z</time></trkpt><trkpt lat="42.51104762555222" lon="13.162749242918082"><ele>793.3333333333333</ele><time>2026-04-23T08:54:40Z</time></trkpt><trkpt lat="42.51100747736754" lon="13.162940676487482"><ele>793.0</ele><time>2026-04-23T08:54:41Z</time></trkpt><trkpt lat="42.51099557220093" lon="13.163127691026306"><ele>793.0</ele><time>2026-04-23T08:54:42Z</time></trkpt><trkpt lat="42.51102717714988" lon="13.16329032750081"><ele>793.0</ele><time>2026-04-23T08:54:43Z</time></trkpt><trkpt lat="42.511090015916935" lon="13.16339343270106"><ele>793.0</ele><time>2026-04-23T08:54:44Z</time></trkpt><trkpt lat="42.51117297039788" lon="13.163431087342362"><ele>793.0</ele><time>2026-04-23T08:54:45Z</time></trkpt><trkpt lat="42.51126193554485" lon="13.163398753992723"><ele>793.0</ele><time>2026-04-23T08:54:46Z</time></trkpt><trkpt lat="42.51137456997512" lon="13.163334670696885"><ele>798.3333333333333</ele><time>2026-04-23T08:54:47Z</time></trkpt><trkpt lat="42.5115047926085" lon="13.163306882716778"><ele>803.6666666666667</ele><time>2026-04-23T08:54:48Z</time></trkpt><trkpt lat="42.51164401799744" lon="13.16335901113134"><ele>809.0</ele><time>2026-04-23T08:54:49Z</time></trkpt><trkpt lat="42.51180768780961" lon="13.163440832017212"><ele>809.0</ele><time>2026-04-23T08:54:50Z</time></trkpt><trkpt lat="42.51196536359972" lon="13.163508838829424"><ele>809.0</ele><time>2026-04-23T08:54:51Z</time></trkpt><trkpt lat="42.51212136111446" lon="13.163523534049363"><ele>809.0</ele><time>2026-04-23T08:54:52Z</time></trkpt><trkpt lat="42.51226088506243" lon="13.163559235170395"><ele>812.6666666666667</ele><time>2026-04-23T08:54:53Z</time></trkpt><trkpt lat="42.51237891765596" lon="13.163657512030737"><ele>816.3333333333333</ele><time>2026-04-23T08:54:54Z</time></trkpt><trkpt lat="42.51249195240999" lon="13.163809862332371"><ele>820.0</ele><time>2026-04-23T08:54:55Z</time></trkpt><trkpt lat="42.512613028181036" lon="13.16397744484048"><ele>814.3333333333333</ele><time>2026-04-23T08:54:56Z</time></trkpt><trkpt lat="42.5127431317359" lon="13.164151174430847"><ele>808.6666666666667</ele><time>2026-04-23T08:54:57Z</time></trkpt><trkpt lat="42.51287390444388" lon="13.164345858254807"><ele>803.0</ele><time>2026-04-23T08:54:58Z</time></trkpt><trkpt lat="42.51298787526888" lon="13.164553351569873"><ele>807.6666666666667</ele><time>2026-04-23T08:54:59Z</time></trkpt><trkpt lat="42.51308177787679" lon="13.164785757996132"><ele>812.3333333333333</ele><time>2026-04-23T08:55:00Z</time></trkpt><trkpt lat="42.51315938594771" lon="13.165034721004556"><ele>817.0</ele><time>2026-04-23T08:55:01Z</time></trkpt><trkpt lat="42.513225758637866" lon="13.165289237103918"><ele>817.0</ele><time>2026-04-23T08:55:02Z</time></trkpt><trkpt lat="42.513291991888714" lon="13.165540325528875"><ele>817.0</ele><time>2026-04-23T08:55:03Z</time></trkpt><trkpt lat="42.51334180378794" lon="13.16579330176216"><ele>817.0</ele><time>2026-04-23T08:55:04Z</time></trkpt><trkpt lat="42.513348736516384" lon="13.16603361780389"><ele>815.25</ele><time>2026-04-23T08:55:05Z</time></trkpt><trkpt lat="42.513341214687856" lon="13.166247245201955"><ele>813.5</ele><time>2026-04-23T08:55:06Z</time></trkpt><trkpt lat="42.51336042237105" lon="13.166425068821912"><ele>811.75</ele><time>2026-04-23T08:55:07Z</time></trkpt><trkpt lat="42.51342262752931" lon="13.166573466045135"><ele>810.0</ele><time>2026-04-23T08:55:08Z</time></trkpt><trkpt lat="42.513457586556505" lon="13.16668413638893"><ele>810.0</ele><time>2026-04-23T08:55:09Z</time></trkpt><trkpt lat="42.5134372902205" lon="13.166789307388935"><ele>810.0</ele><time>2026-04-23T08:55:10Z</time></trkpt><trkpt lat="42.513379741952164" lon="13.166842486078908"><ele>810.0</ele><time>2026-04-23T08:55:11Z</time></trkpt><trkpt lat="42.51330254616143" lon="13.166842591361078"><ele>810.0</ele><time>2026-04-23T08:55:12Z</time></trkpt><trkpt lat="42.513183393218085" lon="13.166800240517391"><ele>810.0</ele><time>2026-04-23T08:55:13Z</time></trkpt><trkpt lat="42.513046619506184" lon="13.166764468430378"><ele>810.0</ele><time>2026-04-23T08:55:14Z</time></trkpt><trkpt lat="42.512910586266585" lon="13.166765899756824"><ele>810.0</ele><time>2026-04-23T08:55:15Z</time></trkpt><trkpt lat="42.51276741279741" lon="13.166795755444054"><ele>810.0</ele><time>2026-04-23T08:55:16Z</time></trkpt><trkpt lat="42.51263366459107" lon="13.166847887167618"><ele>810.0</ele><time>2026-04-23T08:55:17Z</time></trkpt><trkpt lat="42.51252577852832" lon="13.166927159333767"><ele>811.75</ele><time>2026-04-23T08:55:18Z</time></trkpt><trkpt lat="42.512439486757735" lon="13.167057560235572"><ele>813.5</ele><time>2026-04-23T08:55:19Z</time></trkpt><trkpt lat="42.51236630673364" lon="13.167240685025124"><ele>815.25</ele><time>2026-04-23T08:55:20Z</time></trkpt><trkpt lat="42.51230443133699" lon="13.167432008214906"><ele>817.0</ele><time>2026-04-23T08:55:21Z</time></trkpt><trkpt lat="42.5122326293054" lon="13.167626518754783"><ele>817.0</ele><time>2026-04-23T08:55:22Z</time></trkpt><trkpt lat="42.51215578780458" lon="13.167819904344176"><ele>817.0</ele><time>2026-04-23T08:55:23Z</time></trkpt><trkpt lat="42.51209051207213" lon="13.167992933744495"><ele>817.0</ele><time>2026-04-23T08:55:24Z</time></trkpt><trkpt lat="42.51206500330842" lon="13.168157274868713"><ele>817.0</ele><time>2026-04-23T08:55:25Z</time></trkpt><trkpt lat="42.51206899677765" lon="13.168309727898118"><ele>817.6</ele><time>2026-04-23T08:55:26Z</time></trkpt><trkpt lat="42.51210842936257" lon="13.168410641423781"><ele>818.2</ele><time>2026-04-23T08:55:27Z</time></trkpt><trkpt lat="42.51218457582327" lon="13.168477514191988"><ele>818.8</ele><time>2026-04-23T08:55:28Z</time></trkpt><trkpt lat="42.51229315809092" lon="13.168511388714885"><ele>819.4</ele><time>2026-04-23T08:55:29Z</time></trkpt><trkpt lat="42.512422720238796" lon="13.168534560910858"><ele>820.0</ele><time>2026-04-23T08:55:30Z</time></trkpt><trkpt lat="42.51255693542915" lon="13.168602694431787"><ele>820.0</ele><time>2026-04-23T08:55:31Z</time></trkpt><trkpt lat="42.51270180764161" lon="13.168698226916481"><ele>820.0</ele><time>2026-04-23T08:55:32Z</time></trkpt><trkpt lat="42.512830525403764" lon="13.16882624842125"><ele>820.0</ele><time>2026-04-23T08:55:33Z</time></trkpt><trkpt lat="42.512947656354335" lon="13.168985094630616"><ele>824.0</ele><time>2026-04-23T08:55:34Z</time></trkpt><trkpt lat="42.51304720861705" lon="13.169176669779747"><ele>828.0</ele><time>2026-04-23T08:55:35Z</time></trkpt><trkpt lat="42.51311258664868" lon="13.16939314028963"><ele>832.0</ele><time>2026-04-23T08:55:36Z</time></trkpt><trkpt lat="42.513135383662416" lon="13.169625768529224"><ele>829.3333333333333</ele><time>2026-04-23T08:55:37Z</time></trkpt><trkpt lat="42.51312820470117" lon="13.169860268910895"><ele>826.6666666666667</ele><time>2026-04-23T08:55:38Z</time></trkpt><trkpt lat="42.513105334221166" lon="13.170084745665239"><ele>824.0</ele><time>2026-04-23T08:55:39Z</time></trkpt><trkpt lat="42.513073481698704" lon="13.170307037545939"><ele>824.0</ele><time>2026-04-23T08:55:40Z</time></trkpt><trkpt lat="42.51307315628758" lon="13.170513742585106"><ele>824.0</ele><time>2026-04-23T08:55:41Z</time></trkpt><trkpt lat="42.51312480939379" lon="13.170696514579511"><ele>824.0</ele><time>2026-04-23T08:55:42Z</time></trkpt><trkpt lat="42.513203334992184" lon="13.170858485210529"><ele>824.0</ele><time>2026-04-23T08:55:43Z</time></trkpt><trkpt lat="42.51324772956915" lon="13.171042379609595"><ele>822.0</ele><time>2026-04-23T08:55:44Z</time></trkpt><trkpt lat="42.513240946537984" lon="13.171243027329398"><ele>820.0</ele><time>2026-04-23T08:55:45Z</time></trkpt><trkpt lat="42.513196489662576" lon="13.171455215880178"><ele>818.0</ele><time>2026-04-23T08:55:46Z</time></trkpt><trkpt lat="42.51313200662283" lon="13.171672299225891"><ele>818.6666666666667</ele><time>2026-04-23T08:55:47Z</time></trkpt><trkpt lat="42.513060297232364" lon="13.171902942579397"><ele>819.3333333333333</ele><time>2026-04-23T08:55:48Z</time></trkpt><trkpt lat="42.512994184805905" lon="13.172150842907287"><ele>820.0</ele><time>2026-04-23T08:55:49Z</time></trkpt><trkpt lat="42.512948631911456" lon="13.172400812459538"><ele>820.0</ele><time>2026-04-23T08:55:50Z</time></trkpt><trkpt lat="42.512922227592725" lon="13.172658749709402"><ele>820.0</ele><time>2026-04-23T08:55:51Z</time></trkpt><trkpt lat="42.51291092418162" lon="13.172899726172869"><ele>820.0</ele><time>2026-04-23T08:55:52Z</time></trkpt><trkpt lat="42.51290986927594" lon="13.173122943717052"><ele>819.6</ele><time>2026-04-23T08:55:53Z</time></trkpt><trkpt lat="42.5129183733043" lon="13.17329421299297"><ele>819.2</ele><time>2026-04-23T08:55:54Z</time></trkpt><trkpt lat="42.51294779664858" lon="13.173419920404388"><ele>818.8</ele><time>2026-04-23T08:55:55Z</time></trkpt><trkpt lat="42.51301012671382" lon="13.173488988524078"><ele>818.4</ele><time>2026-04-23T08:55:56Z</time></trkpt><trkpt lat="42.513093861595394" lon="13.173489411080052"><ele>818.0</ele><time>2026-04-23T08:55:57Z</time></trkpt><trkpt lat="42.51319307192353" lon="13.173459916904564"><ele>818.0</ele><time>2026-04-23T08:55:58Z</time></trkpt><trkpt lat="42.51328208808982" lon="13.173502694430091"><ele>818.0</ele><time>2026-04-23T08:55:59Z</time></trkpt><trkpt lat="42.513438474632785" lon="13.173442893288003"><ele>818.0</ele><time>2026-04-23T08:56:00Z</time></trkpt><trkpt lat="42.513752677846135" lon="13.173462150513634"><ele>821.6666666666667</ele><time>2026-04-23T08:56:02Z</time></trkpt><trkpt lat="42.51389222512044" lon="13.173538848523949"><ele>825.3333333333333</ele><time>2026-04-23T08:56:03Z</time></trkpt><trkpt lat="42.51400825275761" lon="13.17367637042841"><ele>829.0</ele><time>2026-04-23T08:56:04Z</time></trkpt><trkpt lat="42.5141029121087" lon="13.173839791763246"><ele>829.0</ele><time>2026-04-23T08:56:05Z</time></trkpt><trkpt lat="42.514172964975984" lon="13.174013976619388"><ele>829.0</ele><time>2026-04-23T08:56:06Z</time></trkpt><trkpt lat="42.51419335206873" lon="13.174200338787443"><ele>829.0</ele><time>2026-04-23T08:56:07Z</time></trkpt><trkpt lat="42.514176096675534" lon="13.174403928663564"><ele>829.0</ele><time>2026-04-23T08:56:08Z</time></trkpt><trkpt lat="42.51415664915347" lon="13.174613809449177"><ele>824.6666666666666</ele><time>2026-04-23T08:56:09Z</time></trkpt><trkpt lat="42.514140413788176" lon="13.174835351354794"><ele>820.3333333333333</ele><time>2026-04-23T08:56:10Z</time></trkpt><trkpt lat="42.51413496536422" lon="13.1750483985366"><ele>816.0</ele><time>2026-04-23T08:56:11Z</time></trkpt><trkpt lat="42.514155295725494" lon="13.175232549351172"><ele>816.0</ele><time>2026-04-23T08:56:12Z</time></trkpt><trkpt lat="42.51420888151313" lon="13.175368373156068"><ele>816.0</ele><time>2026-04-23T08:56:13Z</time></trkpt><trkpt lat="42.514302487479824" lon="13.175452704189938"><ele>816.0</ele><time>2026-04-23T08:56:14Z</time></trkpt><trkpt lat="42.514420882987004" lon="13.175484498127563"><ele>816.0</ele><time>2026-04-23T08:56:15Z</time></trkpt><trkpt lat="42.514556085598706" lon="13.175475417231585"><ele>818.6666666666667</ele><time>2026-04-23T08:56:16Z</time></trkpt><trkpt lat="42.51469883434128" lon="13.175426081565398"><ele>821.3333333333334</ele><time>2026-04-23T08:56:17Z</time></trkpt><trkpt lat="42.51484241085562" lon="13.175336424221028"><ele>824.0</ele><time>2026-04-23T08:56:18Z</time></trkpt><trkpt lat="42.51498006933858" lon="13.175221266428734"><ele>824.0</ele><time>2026-04-23T08:56:19Z</time></trkpt><trkpt lat="42.51509965422214" lon="13.175115952090533"><ele>824.0</ele><time>2026-04-23T08:56:20Z</time></trkpt><trkpt lat="42.515183426516025" lon="13.1750417286524"><ele>824.0</ele><time>2026-04-23T08:56:21Z</time></trkpt><trkpt lat="42.51527409671674" lon="13.175061970421593"><ele>824.0</ele><time>2026-04-23T08:56:23Z</time></trkpt><trkpt lat="42.51526665310768" lon="13.175233810585668"><ele>824.0</ele><time>2026-04-23T08:56:25Z</time></trkpt><trkpt lat="42.51521820786535" lon="13.175328587978102"><ele>824.0</ele><time>2026-04-23T08:56:26Z</time></trkpt><trkpt lat="42.51508542964511" lon="13.175557214847855"><ele>824.0</ele><time>2026-04-23T08:56:28Z</time></trkpt><trkpt lat="42.51499623748373" lon="13.175675494772724"><ele>824.0</ele><time>2026-04-23T08:56:29Z</time></trkpt><trkpt lat="42.514902952185714" lon="13.17579179557631"><ele>822.5</ele><time>2026-04-23T08:56:30Z</time></trkpt><trkpt lat="42.514799245320305" lon="13.17589833255804"><ele>821.0</ele><time>2026-04-23T08:56:31Z</time></trkpt><trkpt lat="42.514679951527235" lon="13.17599490181692"><ele>819.5</ele><time>2026-04-23T08:56:32Z</time></trkpt><trkpt lat="42.51454996903473" lon="13.17606906163266"><ele>818.0</ele><time>2026-04-23T08:56:33Z</time></trkpt><trkpt lat="42.51441800818297" lon="13.176119166317747"><ele>817.25</ele><time>2026-04-23T08:56:34Z</time></trkpt><trkpt lat="42.514287209112915" lon="13.176142642284804"><ele>816.5</ele><time>2026-04-23T08:56:35Z</time></trkpt><trkpt lat="42.51416420067094" lon="13.176157310347637"><ele>815.75</ele><time>2026-04-23T08:56:36Z</time></trkpt><trkpt lat="42.514051860916936" lon="13.176221203697535"><ele>815.0</ele><time>2026-04-23T08:56:37Z</time></trkpt><trkpt lat="42.513945080134064" lon="13.176330466726379"><ele>815.0</ele><time>2026-04-23T08:56:38Z</time></trkpt><trkpt lat="42.51384327855617" lon="13.176468396902115"><ele>815.0</ele><time>2026-04-23T08:56:39Z</time></trkpt><trkpt lat="42.51374422379497" lon="13.176635952922977"><ele>815.0</ele><time>2026-04-23T08:56:40Z</time></trkpt><trkpt lat="42.513662107815975" lon="13.17681986852938"><ele>816.0</ele><time>2026-04-23T08:56:41Z</time></trkpt><trkpt lat="42.513580104267525" lon="13.17700892237483"><ele>817.0</ele><time>2026-04-23T08:56:42Z</time></trkpt><trkpt lat="42.51349305129139" lon="13.177204013406634"><ele>818.0</ele><time>2026-04-23T08:56:43Z</time></trkpt><trkpt lat="42.51339388685124" lon="13.177397426831305"><ele>820.3333333333334</ele><time>2026-04-23T08:56:44Z</time></trkpt><trkpt lat="42.513300512205326" lon="13.177591638246549"><ele>822.6666666666667</ele><time>2026-04-23T08:56:45Z</time></trkpt><trkpt lat="42.51320941748154" lon="13.177791771793268"><ele>825.0</ele><time>2026-04-23T08:56:46Z</time></trkpt><trkpt lat="42.51312270021857" lon="13.177969212192489"><ele>825.0</ele><time>2026-04-23T08:56:47Z</time></trkpt><trkpt lat="42.51304808706933" lon="13.178125487135485"><ele>825.0</ele><time>2026-04-23T08:56:48Z</time></trkpt><trkpt lat="42.512974907829275" lon="13.178247017660615"><ele>825.0</ele><time>2026-04-23T08:56:49Z</time></trkpt><trkpt lat="42.5128822409196" lon="13.178335400098556"><ele>825.0</ele><time>2026-04-23T08:56:50Z</time></trkpt><trkpt lat="42.512762018027736" lon="13.17838183487394"><ele>826.75</ele><time>2026-04-23T08:56:51Z</time></trkpt><trkpt lat="42.51264310822174" lon="13.178429051837648"><ele>828.5</ele><time>2026-04-23T08:56:52Z</time></trkpt><trkpt lat="42.51255413318306" lon="13.178527808572287"><ele>830.25</ele><time>2026-04-23T08:56:53Z</time></trkpt><trkpt lat="42.51249703772574" lon="13.178667099904887"><ele>832.0</ele><time>2026-04-23T08:56:54Z</time></trkpt><trkpt lat="42.51246189594566" lon="13.17883415315539"><ele>832.3333333333333</ele><time>2026-04-23T08:56:55Z</time></trkpt><trkpt lat="42.512437848915766" lon="13.179022506141562"><ele>832.6666666666667</ele><time>2026-04-23T08:56:56Z</time></trkpt><trkpt lat="42.51240398117469" lon="13.179230990993096"><ele>833.0</ele><time>2026-04-23T08:56:57Z</time></trkpt><trkpt lat="42.51236225359899" lon="13.179435354091163"><ele>833.0</ele><time>2026-04-23T08:56:58Z</time></trkpt><trkpt lat="42.51230944938862" lon="13.179637271901095"><ele>833.0</ele><time>2026-04-23T08:56:59Z</time></trkpt><trkpt lat="42.51222985654711" lon="13.17984409907414"><ele>833.0</ele><time>2026-04-23T08:57:00Z</time></trkpt><trkpt lat="42.51215470738075" lon="13.180034166170014"><ele>833.5</ele><time>2026-04-23T08:57:01Z</time></trkpt><trkpt lat="42.512091746156386" lon="13.180216163114961"><ele>834.0</ele><time>2026-04-23T08:57:02Z</time></trkpt><trkpt lat="42.51203869278179" lon="13.180375398151272"><ele>834.5</ele><time>2026-04-23T08:57:03Z</time></trkpt><trkpt lat="42.51197264959887" lon="13.180516267250102"><ele>835.0</ele><time>2026-04-23T08:57:04Z</time></trkpt><trkpt lat="42.51187410382226" lon="13.180629448344842"><ele>837.25</ele><time>2026-04-23T08:57:05Z</time></trkpt><trkpt lat="42.511753700304745" lon="13.180700109546352"><ele>839.5</ele><time>2026-04-23T08:57:06Z</time></trkpt><trkpt lat="42.51162349039128" lon="13.18071963399352"><ele>841.75</ele><time>2026-04-23T08:57:07Z</time></trkpt><trkpt lat="42.51148667236189" lon="13.180698751794065"><ele>844.0</ele><time>2026-04-23T08:57:08Z</time></trkpt><trkpt lat="42.51134345164865" lon="13.180647365364859"><ele>850.0</ele><time>2026-04-23T08:57:09Z</time></trkpt><trkpt lat="42.511193568022954" lon="13.18057296725778"><ele>856.0</ele><time>2026-04-23T08:57:10Z</time></trkpt><trkpt lat="42.51103996111639" lon="13.180500456364477"><ele>862.0</ele><time>2026-04-23T08:57:11Z</time></trkpt><trkpt lat="42.51087434175889" lon="13.180456572157338"><ele>862.0</ele><time>2026-04-23T08:57:12Z</time></trkpt><trkpt lat="42.510706012516145" lon="13.180475492410434"><ele>862.0</ele><time>2026-04-23T08:57:13Z</time></trkpt><trkpt lat="42.510553528148186" lon="13.180542717998613"><ele>862.0</ele><time>2026-04-23T08:57:14Z</time></trkpt><trkpt lat="42.510405416040626" lon="13.180650212030384"><ele>863.6666666666666</ele><time>2026-04-23T08:57:15Z</time></trkpt><trkpt lat="42.51027861802631" lon="13.180793369537454"><ele>865.3333333333333</ele><time>2026-04-23T08:57:16Z</time></trkpt><trkpt lat="42.510162248151396" lon="13.180964504163718"><ele>867.0</ele><time>2026-04-23T08:57:17Z</time></trkpt><trkpt lat="42.510049704939576" lon="13.181136810292553"><ele>867.0</ele><time>2026-04-23T08:57:18Z</time></trkpt><trkpt lat="42.50992287044949" lon="13.181275527977702"><ele>867.0</ele><time>2026-04-23T08:57:19Z</time></trkpt><trkpt lat="42.50977362922716" lon="13.18136878357058"><ele>867.0</ele><time>2026-04-23T08:57:20Z</time></trkpt><trkpt lat="42.50961803751123" lon="13.18142965471324"><ele>869.6666666666667</ele><time>2026-04-23T08:57:21Z</time></trkpt><trkpt lat="42.50948958145333" lon="13.181532282855065"><ele>872.3333333333334</ele><time>2026-04-23T08:57:22Z</time></trkpt><trkpt lat="42.50937683425807" lon="13.181704305203858"><ele>875.0</ele><time>2026-04-23T08:57:23Z</time></trkpt><trkpt lat="42.509274787171904" lon="13.181896058634193"><ele>875.0</ele><time>2026-04-23T08:57:24Z</time></trkpt><trkpt lat="42.50915919545179" lon="13.1820818775177"><ele>875.0</ele><time>2026-04-23T08:57:25Z</time></trkpt><trkpt lat="42.509033107902425" lon="13.182237994820294"><ele>875.0</ele><time>2026-04-23T08:57:26Z</time></trkpt><trkpt lat="42.5089039714584" lon="13.182350822460064"><ele>876.0</ele><time>2026-04-23T08:57:27Z</time></trkpt><trkpt lat="42.50876897966418" lon="13.182427660641396"><ele>877.0</ele><time>2026-04-23T08:57:28Z</time></trkpt><trkpt lat="42.50862374063908" lon="13.182476223120181"><ele>878.0</ele><time>2026-04-23T08:57:29Z</time></trkpt><trkpt lat="42.50847312971287" lon="13.182529275465281"><ele>878.0</ele><time>2026-04-23T08:57:30Z</time></trkpt><trkpt lat="42.50832609284535" lon="13.182606930657"><ele>878.0</ele><time>2026-04-23T08:57:31Z</time></trkpt><trkpt lat="42.508208881598506" lon="13.182683299129463"><ele>878.0</ele><time>2026-04-23T08:57:32Z</time></trkpt><trkpt lat="42.50811503862495" lon="13.182717481349261"><ele>878.0</ele><time>2026-04-23T08:57:33Z</time></trkpt><trkpt lat="42.508022792934625" lon="13.182688357725922"><ele>878.0</ele><time>2026-04-23T08:57:34Z</time></trkpt><trkpt lat="42.50792256293892" lon="13.1826256772233"><ele>878.0</ele><time>2026-04-23T08:57:35Z</time></trkpt><trkpt lat="42.507819223317256" lon="13.182533038013165"><ele>878.0</ele><time>2026-04-23T08:57:36Z</time></trkpt><trkpt lat="42.50772606615772" lon="13.182427943003702"><ele>878.0</ele><time>2026-04-23T08:57:37Z</time></trkpt><trkpt lat="42.50769049233945" lon="13.18235027567032"><ele>878.0</ele><time>2026-04-23T08:57:38Z</time></trkpt><trkpt lat="42.507726229082095" lon="13.182226795076867"><ele>881.0</ele><time>2026-04-23T08:57:40Z</time></trkpt><trkpt lat="42.50778335602007" lon="13.18217821420104"><ele>884.0</ele><time>2026-04-23T08:57:41Z</time></trkpt><trkpt lat="42.50786870765255" lon="13.182157262375776"><ele>887.0</ele><time>2026-04-23T08:57:42Z</time></trkpt><trkpt lat="42.507975282273605" lon="13.18217555345968"><ele>890.0</ele><time>2026-04-23T08:57:43Z</time></trkpt><trkpt lat="42.50807729005424" lon="13.182192078620353"><ele>893.0</ele><time>2026-04-23T08:57:44Z</time></trkpt><trkpt lat="42.50816988587934" lon="13.182172056452261"><ele>893.0</ele><time>2026-04-23T08:57:45Z</time></trkpt><trkpt lat="42.50824852264555" lon="13.182089883726048"><ele>893.0</ele><time>2026-04-23T08:57:46Z</time></trkpt><trkpt lat="42.508319360156456" lon="13.181958347809926"><ele>893.0</ele><time>2026-04-23T08:57:47Z</time></trkpt><trkpt lat="42.50838862353552" lon="13.18179159095101"><ele>893.0</ele><time>2026-04-23T08:57:48Z</time></trkpt><trkpt lat="42.508463076673976" lon="13.181622741303268"><ele>897.6666666666667</ele><time>2026-04-23T08:57:49Z</time></trkpt><trkpt lat="42.508553454249096" lon="13.181432892256614"><ele>902.3333333333333</ele><time>2026-04-23T08:57:50Z</time></trkpt><trkpt lat="42.50863896763682" lon="13.181229762565946"><ele>907.0</ele><time>2026-04-23T08:57:51Z</time></trkpt><trkpt lat="42.50871799422816" lon="13.181038835366202"><ele>904.75</ele><time>2026-04-23T08:57:52Z</time></trkpt><trkpt lat="42.50880593241113" lon="13.18087386930019"><ele>902.5</ele><time>2026-04-23T08:57:53Z</time></trkpt><trkpt lat="42.508889615859594" lon="13.180746951686043"><ele>900.25</ele><time>2026-04-23T08:57:54Z</time></trkpt><trkpt lat="42.50894787136977" lon="13.180592380519434"><ele>898.0</ele><time>2026-04-23T08:57:55Z</time></trkpt><trkpt lat="42.50897043585221" lon="13.180393097528677"><ele>898.0</ele><time>2026-04-23T08:57:56Z</time></trkpt><trkpt lat="42.50900123064358" lon="13.180170473249325"><ele>898.0</ele><time>2026-04-23T08:57:57Z</time></trkpt><trkpt lat="42.509063711379895" lon="13.179951881931204"><ele>898.0</ele><time>2026-04-23T08:57:58Z</time></trkpt><trkpt lat="42.509138079373116" lon="13.17975012945157"><ele>903.0</ele><time>2026-04-23T08:57:59Z</time></trkpt><trkpt lat="42.5092005484274" lon="13.17958046222838"><ele>908.0</ele><time>2026-04-23T08:58:00Z</time></trkpt><trkpt lat="42.509260919574274" lon="13.17944604721456"><ele>913.0</ele><time>2026-04-23T08:58:01Z</time></trkpt><trkpt lat="42.509347309151295" lon="13.179358939394703"><ele>918.0</ele><time>2026-04-23T08:58:02Z</time></trkpt><trkpt lat="42.50944663201036" lon="13.179287059576726"><ele>918.0</ele><time>2026-04-23T08:58:03Z</time></trkpt><trkpt lat="42.509524211926006" lon="13.17917636122302"><ele>918.0</ele><time>2026-04-23T08:58:04Z</time></trkpt><trkpt lat="42.50958628025954" lon="13.179027821942535"><ele>918.0</ele><time>2026-04-23T08:58:05Z</time></trkpt><trkpt lat="42.50963687354175" lon="13.178867418545197"><ele>918.0</ele><time>2026-04-23T08:58:06Z</time></trkpt><trkpt lat="42.50967826497912" lon="13.178709829686408"><ele>917.5999999999999</ele><time>2026-04-23T08:58:07Z</time></trkpt><trkpt lat="42.50969053822778" lon="13.178587065203637"><ele>917.1999999999999</ele><time>2026-04-23T08:58:08Z</time></trkpt><trkpt lat="42.50967165611929" lon="13.178479338942228"><ele>916.8</ele><time>2026-04-23T08:58:09Z</time></trkpt><trkpt lat="42.50961467123326" lon="13.178376377499989"><ele>916.4</ele><time>2026-04-23T08:58:10Z</time></trkpt><trkpt lat="42.50952506957137" lon="13.17830109219278"><ele>916.0</ele><time>2026-04-23T08:58:11Z</time></trkpt><trkpt lat="42.509401079263974" lon="13.178240305540363"><ele>916.0</ele><time>2026-04-23T08:58:12Z</time></trkpt><trkpt lat="42.50927196659964" lon="13.178187534199434"><ele>916.0</ele><time>2026-04-23T08:58:13Z</time></trkpt><trkpt lat="42.50913629822581" lon="13.178135789236991"><ele>916.0</ele><time>2026-04-23T08:58:14Z</time></trkpt><trkpt lat="42.50898500617892" lon="13.178104669708606"><ele>916.0</ele><time>2026-04-23T08:58:15Z</time></trkpt><trkpt lat="42.508824835112485" lon="13.178108027994455"><ele>914.3333333333333</ele><time>2026-04-23T08:58:16Z</time></trkpt><trkpt lat="42.5086650688457" lon="13.178111100661368"><ele>912.6666666666667</ele><time>2026-04-23T08:58:17Z</time></trkpt><trkpt lat="42.508517970903256" lon="13.178107205166304"><ele>911.0</ele><time>2026-04-23T08:58:18Z</time></trkpt><trkpt lat="42.508368283471775" lon="13.178108594804717"><ele>911.0</ele><time>2026-04-23T08:58:19Z</time></trkpt><trkpt lat="42.50822016599709" lon="13.178144308019757"><ele>911.0</ele><time>2026-04-23T08:58:20Z</time></trkpt><trkpt lat="42.50806695899929" lon="13.178211091407666"><ele>911.0</ele><time>2026-04-23T08:58:21Z</time></trkpt><trkpt lat="42.50791600571394" lon="13.17829655128269"><ele>917.3333333333334</ele><time>2026-04-23T08:58:22Z</time></trkpt><trkpt lat="42.5077637342253" lon="13.178403477148223"><ele>923.6666666666667</ele><time>2026-04-23T08:58:23Z</time></trkpt><trkpt lat="42.50761918426428" lon="13.17851497484051"><ele>930.0</ele><time>2026-04-23T08:58:24Z</time></trkpt><trkpt lat="42.50747227643362" lon="13.17862069657593"><ele>930.0</ele><time>2026-04-23T08:58:25Z</time></trkpt><trkpt lat="42.50732029922406" lon="13.178693494155098"><ele>930.0</ele><time>2026-04-23T08:58:26Z</time></trkpt><trkpt lat="42.50716663255065" lon="13.178717475361095"><ele>930.0</ele><time>2026-04-23T08:58:27Z</time></trkpt><trkpt lat="42.50702910574012" lon="13.178705803077692"><ele>934.5</ele><time>2026-04-23T08:58:28Z</time></trkpt><trkpt lat="42.506916633930615" lon="13.178655833880068"><ele>939.0</ele><time>2026-04-23T08:58:29Z</time></trkpt><trkpt lat="42.506823320316805" lon="13.178566236209363"><ele>943.5</ele><time>2026-04-23T08:58:30Z</time></trkpt><trkpt lat="42.506717912962834" lon="13.178469568105555"><ele>948.0</ele><time>2026-04-23T08:58:31Z</time></trkpt><trkpt lat="42.50658773245688" lon="13.178399451930236"><ele>948.0</ele><time>2026-04-23T08:58:32Z</time></trkpt><trkpt lat="42.50644495105512" lon="13.178342360424177"><ele>948.0</ele><time>2026-04-23T08:58:33Z</time></trkpt><trkpt lat="42.50632000145498" lon="13.178280192902296"><ele>948.0</ele><time>2026-04-23T08:58:34Z</time></trkpt><trkpt lat="42.506227188897434" lon="13.178212638226102"><ele>948.0</ele><time>2026-04-23T08:58:35Z</time></trkpt><trkpt lat="42.50617287136617" lon="13.178128758348077"><ele>948.6666666666666</ele><time>2026-04-23T08:58:36Z</time></trkpt><trkpt lat="42.506165791485174" lon="13.178035432376053"><ele>949.3333333333333</ele><time>2026-04-23T08:58:37Z</time></trkpt><trkpt lat="42.50620468955332" lon="13.177957136487152"><ele>950.0</ele><time>2026-04-23T08:58:38Z</time></trkpt><trkpt lat="42.506279034887285" lon="13.177896983823228"><ele>950.6666666666666</ele><time>2026-04-23T08:58:39Z</time></trkpt><trkpt lat="42.506379860678095" lon="13.177868943688104"><ele>951.3333333333333</ele><time>2026-04-23T08:58:40Z</time></trkpt><trkpt lat="42.5064972239566" lon="13.177833632994828"><ele>952.0</ele><time>2026-04-23T08:58:41Z</time></trkpt><trkpt lat="42.506594391736066" lon="13.177745273370665"><ele>952.0</ele><time>2026-04-23T08:58:42Z</time></trkpt><trkpt lat="42.506671623041434" lon="13.17761070873892"><ele>952.0</ele><time>2026-04-23T08:58:43Z</time></trkpt><trkpt lat="42.50672878438931" lon="13.177477881719318"><ele>952.0</ele><time>2026-04-23T08:58:44Z</time></trkpt><trkpt lat="42.50674995497402" lon="13.177364084442004"><ele>952.0</ele><time>2026-04-23T08:58:45Z</time></trkpt><trkpt lat="42.50673369737624" lon="13.177256750047974"><ele>952.0</ele><time>2026-04-23T08:58:46Z</time></trkpt><trkpt lat="42.50667473959148" lon="13.17715770954297"><ele>951.25</ele><time>2026-04-23T08:58:47Z</time></trkpt><trkpt lat="42.506579777172995" lon="13.177049924305145"><ele>950.5</ele><time>2026-04-23T08:58:48Z</time></trkpt><trkpt lat="42.50647691481021" lon="13.176940002331754"><ele>949.75</ele><time>2026-04-23T08:58:49Z</time></trkpt><trkpt lat="42.50637135413052" lon="13.17682167440564"><ele>949.0</ele><time>2026-04-23T08:58:50Z</time></trkpt><trkpt lat="42.506254170825876" lon="13.176692821648983"><ele>951.5</ele><time>2026-04-23T08:58:51Z</time></trkpt><trkpt lat="42.5061314012829" lon="13.1765532951891"><ele>954.0</ele><time>2026-04-23T08:58:52Z</time></trkpt><trkpt lat="42.506023545490045" lon="13.176411739418668"><ele>956.5</ele><time>2026-04-23T08:58:53Z</time></trkpt><trkpt lat="42.50595001508806" lon="13.176273662789848"><ele>959.0</ele><time>2026-04-23T08:58:54Z</time></trkpt><trkpt lat="42.505885388002724" lon="13.176144930907897"><ele>959.0000000000001</ele><time>2026-04-23T08:58:55Z</time></trkpt><trkpt lat="42.505822314683755" lon="13.176027817409626"><ele>959.0</ele><time>2026-04-23T08:58:56Z</time></trkpt><trkpt lat="42.505755598019164" lon="13.175931943513941"><ele>959.0</ele><time>2026-04-23T08:58:57Z</time></trkpt><trkpt lat="42.50568150486081" lon="13.175868934623322"><ele>959.0</ele><time>2026-04-23T08:58:58Z</time></trkpt><trkpt lat="42.505600986998076" lon="13.175853829021378"><ele>959.0000000000001</ele><time>2026-04-23T08:58:59Z</time></trkpt><trkpt lat="42.50553180005548" lon="13.17589295322784"><ele>959.0</ele><time>2026-04-23T08:59:00Z</time></trkpt><trkpt lat="42.50548860561406" lon="13.175978744809527"><ele>959.0</ele><time>2026-04-23T08:59:01Z</time></trkpt><trkpt lat="42.50547786390891" lon="13.176096216684998"><ele>959.0000000000001</ele><time>2026-04-23T08:59:02Z</time></trkpt><trkpt lat="42.505499385162345" lon="13.176225647354714"><ele>959.0000000000001</ele><time>2026-04-23T08:59:03Z</time></trkpt><trkpt lat="42.50555129292962" lon="13.176369075465638"><ele>959.0</ele><time>2026-04-23T08:59:04Z</time></trkpt><trkpt lat="42.50561490043231" lon="13.176525865771316"><ele>959.0</ele><time>2026-04-23T08:59:05Z</time></trkpt><trkpt lat="42.5056693610647" lon="13.176673630743899"><ele>959.6</ele><time>2026-04-23T08:59:06.001Z</time></trkpt><trkpt lat="42.50568804287438" lon="13.176823161102204"><ele>960.2</ele><time>2026-04-23T08:59:07.001Z</time></trkpt><trkpt lat="42.50566884176858" lon="13.176947380354115"><ele>960.8000000000001</ele><time>2026-04-23T08:59:08.001Z</time></trkpt><trkpt lat="42.50561430296739" lon="13.177049028964591"><ele>961.4000000000001</ele><time>2026-04-23T08:59:09.001Z</time></trkpt><trkpt lat="42.505524797183256" lon="13.177140486177192"><ele>962.0</ele><time>2026-04-23T08:59:10Z</time></trkpt><trkpt lat="42.505428501439035" lon="13.177261811288181"><ele>964.25</ele><time>2026-04-23T08:59:11Z</time></trkpt><trkpt lat="42.50533569774117" lon="13.17738824611432"><ele>966.5</ele><time>2026-04-23T08:59:12Z</time></trkpt><trkpt lat="42.505235326505094" lon="13.177516900517942"><ele>968.75</ele><time>2026-04-23T08:59:13Z</time></trkpt><trkpt lat="42.50513434273331" lon="13.177656508949088"><ele>971.0</ele><time>2026-04-23T08:59:14Z</time></trkpt><trkpt lat="42.50504134097031" lon="13.177807807011517"><ele>971.0</ele><time>2026-04-23T08:59:15Z</time></trkpt><trkpt lat="42.50496074647121" lon="13.177963444155408"><ele>971.0</ele><time>2026-04-23T08:59:16Z</time></trkpt><trkpt lat="42.50488265525032" lon="13.178125649084159"><ele>971.0</ele><time>2026-04-23T08:59:17Z</time></trkpt><trkpt lat="42.504794829803956" lon="13.178269717663769"><ele>971.0</ele><time>2026-04-23T08:59:18Z</time></trkpt><trkpt lat="42.50468225817829" lon="13.178396016039164"><ele>973.0</ele><time>2026-04-23T08:59:19Z</time></trkpt><trkpt lat="42.50456197775559" lon="13.178510954173182"><ele>975.0</ele><time>2026-04-23T08:59:20Z</time></trkpt><trkpt lat="42.50444105790223" lon="13.178627287244625"><ele>977.0</ele><time>2026-04-23T08:59:21Z</time></trkpt><trkpt lat="42.50431298484205" lon="13.178745814365453"><ele>977.0</ele><time>2026-04-23T08:59:22Z</time></trkpt><trkpt lat="42.50418233389028" lon="13.178865848155548"><ele>977.0</ele><time>2026-04-23T08:59:23Z</time></trkpt><trkpt lat="42.50404840261426" lon="13.178981825578177"><ele>977.0</ele><time>2026-04-23T08:59:24Z</time></trkpt><trkpt lat="42.503916556033914" lon="13.179083873623746"><ele>977.0</ele><time>2026-04-23T08:59:25Z</time></trkpt><trkpt lat="42.50377979524743" lon="13.179165688803467"><ele>977.0</ele><time>2026-04-23T08:59:26Z</time></trkpt><trkpt lat="42.50364053944217" lon="13.179218347839237"><ele>977.0</ele><time>2026-04-23T08:59:27Z</time></trkpt><trkpt lat="42.50349869626602" lon="13.179262085643563"><ele>977.0</ele><time>2026-04-23T08:59:28Z</time></trkpt><trkpt lat="42.50335880080662" lon="13.179312783318586"><ele>977.0</ele><time>2026-04-23T08:59:28.999Z</time></trkpt><trkpt lat="42.50321755371266" lon="13.179370094427137"><ele>977.0</ele><time>2026-04-23T08:59:29.999Z</time></trkpt><trkpt lat="42.50308127299919" lon="13.179441073023456"><ele>977.0</ele><time>2026-04-23T08:59:30.999Z</time></trkpt><trkpt lat="42.50294674322816" lon="13.179530083241717"><ele>977.0</ele><time>2026-04-23T08:59:31.999Z</time></trkpt><trkpt lat="42.502814492400425" lon="13.179634063745572"><ele>977.0</ele><time>2026-04-23T08:59:32.999Z</time></trkpt><trkpt lat="42.50268375500202" lon="13.179742969426753"><ele>977.0</ele><time>2026-04-23T08:59:33.999Z</time></trkpt><trkpt lat="42.502550287225404" lon="13.179852604754926"><ele>977.0</ele><time>2026-04-23T08:59:34.999Z</time></trkpt><trkpt lat="42.50241819189363" lon="13.179968033141815"><ele>977.3333333333334</ele><time>2026-04-23T08:59:35.999Z</time></trkpt><trkpt lat="42.50229522036468" lon="13.180104286356865"><ele>977.6666666666667</ele><time>2026-04-23T08:59:36.999Z</time></trkpt><trkpt lat="42.50217973161008" lon="13.180267065926548"><ele>978.0</ele><time>2026-04-23T08:59:37.999Z</time></trkpt><trkpt lat="42.50207028348492" lon="13.180446822777247"><ele>978.0</ele><time>2026-04-23T08:59:38.999Z</time></trkpt><trkpt lat="42.501959819131194" lon="13.180624689888775"><ele>978.0</ele><time>2026-04-23T08:59:39.999Z</time></trkpt><trkpt lat="42.501839344642754" lon="13.180794137131164"><ele>978.0</ele><time>2026-04-23T08:59:40.999Z</time></trkpt><trkpt lat="42.50169988685354" lon="13.180942517722578"><ele>981.3333333333333</ele><time>2026-04-23T08:59:41.999Z</time></trkpt><trkpt lat="42.50155395277077" lon="13.181079759657676"><ele>984.6666666666666</ele><time>2026-04-23T08:59:42.999Z</time></trkpt><trkpt lat="42.501407482582046" lon="13.181218925724334"><ele>988.0</ele><time>2026-04-23T08:59:43.999Z</time></trkpt><trkpt lat="42.50126770472517" lon="13.181360053864925"><ele>988.5</ele><time>2026-04-23T08:59:44.999Z</time></trkpt><trkpt lat="42.50114482900315" lon="13.181488636247167"><ele>989.0</ele><time>2026-04-23T08:59:45.999Z</time></trkpt><trkpt lat="42.50102845974116" lon="13.181603678022595"><ele>989.5</ele><time>2026-04-23T08:59:46.999Z</time></trkpt><trkpt lat="42.50092098010067" lon="13.181691759226277"><ele>990.0</ele><time>2026-04-23T08:59:47.999Z</time></trkpt><trkpt lat="42.50081934083292" lon="13.181721007901375"><ele>990.0</ele><time>2026-04-23T08:59:48.999Z</time></trkpt><trkpt lat="42.5007223819947" lon="13.181685671673165"><ele>990.0</ele><time>2026-04-23T08:59:49.999Z</time></trkpt><trkpt lat="42.50063566897806" lon="13.181600001557568"><ele>990.0</ele><time>2026-04-23T08:59:50.999Z</time></trkpt><trkpt lat="42.50055676129954" lon="13.181472986522024"><ele>990.0</ele><time>2026-04-23T08:59:51.999Z</time></trkpt><trkpt lat="42.50048046857895" lon="13.18131877169704"><ele>999.0</ele><time>2026-04-23T08:59:52.999Z</time></trkpt><trkpt lat="42.500412354342856" lon="13.181143353755704"><ele>1008.0</ele><time>2026-04-23T08:59:53.999Z</time></trkpt><trkpt lat="42.500353015898575" lon="13.180948749290515"><ele>1017.0</ele><time>2026-04-23T08:59:54.999Z</time></trkpt><trkpt lat="42.500304554941344" lon="13.180742163795903"><ele>1013.75</ele><time>2026-04-23T08:59:55.999Z</time></trkpt><trkpt lat="42.500274957705464" lon="13.180542111534582"><ele>1010.5</ele><time>2026-04-23T08:59:56.999Z</time></trkpt><trkpt lat="42.500274485267916" lon="13.180354353351033"><ele>1007.25</ele><time>2026-04-23T08:59:57.999Z</time></trkpt><trkpt lat="42.5002960385507" lon="13.180183135468527"><ele>1004.0</ele><time>2026-04-23T08:59:58.999Z</time></trkpt><trkpt lat="42.500330801018286" lon="13.180048570320265"><ele>1004.0000000000001</ele><time>2026-04-23T08:59:59.999Z</time></trkpt><trkpt lat="42.50035424860614" lon="13.179941536103046"><ele>1004.0</ele><time>2026-04-23T09:00:00.999Z</time></trkpt><trkpt lat="42.500338364193574" lon="13.179850454371284"><ele>1004.0</ele><time>2026-04-23T09:00:01.999Z</time></trkpt><trkpt lat="42.50023179603314" lon="13.179823127834243"><ele>1004.0</ele><time>2026-04-23T09:00:03.999Z</time></trkpt><trkpt lat="42.500181440011914" lon="13.17989902728842"><ele>1004.0000000000001</ele><time>2026-04-23T09:00:04.999Z</time></trkpt><trkpt lat="42.50016422160727" lon="13.180015255986408"><ele>1004.0</ele><time>2026-04-23T09:00:05.999Z</time></trkpt><trkpt lat="42.50015209491186" lon="13.180156649291341"><ele>1004.0</ele><time>2026-04-23T09:00:06.999Z</time></trkpt><trkpt lat="42.500136185558745" lon="13.180318377352604"><ele>1004.0</ele><time>2026-04-23T09:00:07.999Z</time></trkpt><trkpt lat="42.50012261487021" lon="13.18048964025114"><ele>1004.0</ele><time>2026-04-23T09:00:08.999Z</time></trkpt><trkpt lat="42.500118361726884" lon="13.18065382429997"><ele>1004.0</ele><time>2026-04-23T09:00:09.999Z</time></trkpt><trkpt lat="42.50011837878703" lon="13.180831536182408"><ele>1007.25</ele><time>2026-04-23T09:00:10.999Z</time></trkpt><trkpt lat="42.50009333380191" lon="13.181011970832952"><ele>1010.5</ele><time>2026-04-23T09:00:11.999Z</time></trkpt><trkpt lat="42.50007970882046" lon="13.181203958765986"><ele>1013.75</ele><time>2026-04-23T09:00:12.999Z</time></trkpt><trkpt lat="42.50005640181548" lon="13.181395026529023"><ele>1017.0</ele><time>2026-04-23T09:00:13.999Z</time></trkpt><trkpt lat="42.50002518797396" lon="13.18157552180762"><ele>1018.0</ele><time>2026-04-23T09:00:14.999Z</time></trkpt><trkpt lat="42.499982864360014" lon="13.18174848835689"><ele>1019.0</ele><time>2026-04-23T09:00:15.999Z</time></trkpt><trkpt lat="42.49988297848665" lon="13.181896093620093"><ele>1020.0</ele><time>2026-04-23T09:00:16.999Z</time></trkpt><trkpt lat="42.49977762704088" lon="13.182051432421792"><ele>1021.0</ele><time>2026-04-23T09:00:17.999Z</time></trkpt><trkpt lat="42.49966942427411" lon="13.18220739042193"><ele>1030.3333333333333</ele><time>2026-04-23T09:00:18.999Z</time></trkpt><trkpt lat="42.49956937880344" lon="13.182359834559454"><ele>1039.6666666666667</ele><time>2026-04-23T09:00:19.999Z</time></trkpt><trkpt lat="42.49947725765104" lon="13.18252188944384"><ele>1049.0</ele><time>2026-04-23T09:00:20.999Z</time></trkpt><trkpt lat="42.499413686960416" lon="13.182719583020877"><ele>1049.0</ele><time>2026-04-23T09:00:21.999Z</time></trkpt><trkpt lat="42.49935873103424" lon="13.182921566009675"><ele>1049.0</ele><time>2026-04-23T09:00:22.999Z</time></trkpt><trkpt lat="42.49929291947803" lon="13.183118377450988"><ele>1049.0</ele><time>2026-04-23T09:00:23.999Z</time></trkpt><trkpt lat="42.499228397644536" lon="13.183303579101926"><ele>1046.75</ele><time>2026-04-23T09:00:24.999Z</time></trkpt><trkpt lat="42.49916775475631" lon="13.183485553428863"><ele>1044.5</ele><time>2026-04-23T09:00:25.999Z</time></trkpt><trkpt lat="42.49911906030793" lon="13.183657839885159"><ele>1042.25</ele><time>2026-04-23T09:00:26.999Z</time></trkpt><trkpt lat="42.49907786597891" lon="13.18381852989097"><ele>1040.0</ele><time>2026-04-23T09:00:27.999Z</time></trkpt><trkpt lat="42.4990413399223" lon="13.183961009902365"><ele>1038.6</ele><time>2026-04-23T09:00:28.999Z</time></trkpt><trkpt lat="42.499007006964135" lon="13.184083076449902"><ele>1037.2</ele><time>2026-04-23T09:00:29.999Z</time></trkpt><trkpt lat="42.49896887463041" lon="13.184200808809342"><ele>1035.8</ele><time>2026-04-23T09:00:30.999Z</time></trkpt><trkpt lat="42.49892848037577" lon="13.184316842017578"><ele>1034.4</ele><time>2026-04-23T09:00:31.999Z</time></trkpt><trkpt lat="42.498885524838805" lon="13.18443147213119"><ele>1033.0</ele><time>2026-04-23T09:00:32.999Z</time></trkpt><trkpt lat="42.49883657518834" lon="13.184545326366987"><ele>1033.0</ele><time>2026-04-23T09:00:33.999Z</time></trkpt><trkpt lat="42.498780615575825" lon="13.184649250916326"><ele>1033.0</ele><time>2026-04-23T09:00:34.999Z</time></trkpt><trkpt lat="42.498718048607124" lon="13.184746580022619"><ele>1033.0</ele><time>2026-04-23T09:00:35.999Z</time></trkpt><trkpt lat="42.49864655066516" lon="13.184838736750152"><ele>1033.0</ele><time>2026-04-23T09:00:36.999Z</time></trkpt><trkpt lat="42.49856401178176" lon="13.184913267907575"><ele>1033.0</ele><time>2026-04-23T09:00:37.999Z</time></trkpt><trkpt lat="42.498472654209145" lon="13.184979698615644"><ele>1036.4</ele><time>2026-04-23T09:00:38.999Z</time></trkpt><trkpt lat="42.49839056560709" lon="13.18506191262544"><ele>1039.8</ele><time>2026-04-23T09:00:39.999Z</time></trkpt><trkpt lat="42.498317514867225" lon="13.185164010849014"><ele>1043.2</ele><time>2026-04-23T09:00:40.999Z</time></trkpt><trkpt lat="42.498270618720895" lon="13.185289908176717"><ele>1046.6</ele><time>2026-04-23T09:00:41.999Z</time></trkpt><trkpt lat="42.49824096497006" lon="13.185407787855816"><ele>1050.0</ele><time>2026-04-23T09:00:42.999Z</time></trkpt><trkpt lat="42.49820434039288" lon="13.185515820136313"><ele>1050.0</ele><time>2026-04-23T09:00:43.999Z</time></trkpt><trkpt lat="42.498150208452685" lon="13.185615175788259"><ele>1050.0</ele><time>2026-04-23T09:00:44.999Z</time></trkpt><trkpt lat="42.498104627506365" lon="13.185720780108053"><ele>1050.0</ele><time>2026-04-23T09:00:45.999Z</time></trkpt><trkpt lat="42.49807210938613" lon="13.185837993630965"><ele>1050.0</ele><time>2026-04-23T09:00:46.999Z</time></trkpt><trkpt lat="42.498025786920046" lon="13.185940513723258"><ele>1050.0</ele><time>2026-04-23T09:00:47.999Z</time></trkpt><trkpt lat="42.49797331459444" lon="13.186018896793533"><ele>1050.0</ele><time>2026-04-23T09:00:48.999Z</time></trkpt><trkpt lat="42.49793970771093" lon="13.186099848802083"><ele>1052.3333333333333</ele><time>2026-04-23T09:00:49.999Z</time></trkpt><trkpt lat="42.49789765398555" lon="13.18621411611196"><ele>1054.6666666666667</ele><time>2026-04-23T09:00:51.999Z</time></trkpt><trkpt lat="42.49786167946066" lon="13.186299526138201"><ele>1057.0</ele><time>2026-04-23T09:00:53.999Z</time></trkpt><trkpt lat="42.49775426658632" lon="13.186279328741167"><ele>1059.3333333333335</ele><time>2026-04-23T09:00:55.999Z</time></trkpt><trkpt lat="42.497675355666956" lon="13.186262543978799"><ele>1061.6666666666667</ele><time>2026-04-23T09:00:56.999Z</time></trkpt><trkpt lat="42.497599441353515" lon="13.186225212451918"><ele>1064.0</ele><time>2026-04-23T09:00:57.999Z</time></trkpt><trkpt lat="42.49750632142779" lon="13.186172197397678"><ele>1064.0</ele><time>2026-04-23T09:00:58.999Z</time></trkpt><trkpt lat="42.497399102079385" lon="13.186134844128704"><ele>1064.0</ele><time>2026-04-23T09:00:59.999Z</time></trkpt><trkpt lat="42.497281866726375" lon="13.186156163172674"><ele>1064.0</ele><time>2026-04-23T09:01:00.999Z</time></trkpt><trkpt lat="42.49717971866204" lon="13.186188934559848"><ele>1064.0</ele><time>2026-04-23T09:01:01.999Z</time></trkpt><trkpt lat="42.497067195371855" lon="13.186263558638263"><ele>1062.25</ele><time>2026-04-23T09:01:02.999Z</time></trkpt><trkpt lat="42.496942190599036" lon="13.186337389586065"><ele>1060.5</ele><time>2026-04-23T09:01:03.999Z</time></trkpt><trkpt lat="42.49682693718362" lon="13.186457722699242"><ele>1058.75</ele><time>2026-04-23T09:01:04.999Z</time></trkpt><trkpt lat="42.49669538057345" lon="13.186558667487017"><ele>1057.0</ele><time>2026-04-23T09:01:05.999Z</time></trkpt><trkpt lat="42.49656029867763" lon="13.186641901773807"><ele>1057.0</ele><time>2026-04-23T09:01:06.999Z</time></trkpt><trkpt lat="42.49644562633133" lon="13.1867290241106"><ele>1057.0</ele><time>2026-04-23T09:01:07.999Z</time></trkpt><trkpt lat="42.49634814844686" lon="13.186799253926354"><ele>1057.0</ele><time>2026-04-23T09:01:08.999Z</time></trkpt><trkpt lat="42.49625537196143" lon="13.186854687198942"><ele>1057.0</ele><time>2026-04-23T09:01:09.999Z</time></trkpt><trkpt lat="42.49616507519728" lon="13.186908892154802"><ele>1057.0</ele><time>2026-04-23T09:01:10.999Z</time></trkpt><trkpt lat="42.496067567289096" lon="13.186903957575725"><ele>1057.6</ele><time>2026-04-23T09:01:12Z</time></trkpt><trkpt lat="42.495985708021365" lon="13.186855968491717"><ele>1058.2</ele><time>2026-04-23T09:01:13Z</time></trkpt><trkpt lat="42.49591279299939" lon="13.186774884285914"><ele>1058.8</ele><time>2026-04-23T09:01:14Z</time></trkpt><trkpt lat="42.49585793384404" lon="13.186653845976771"><ele>1059.4</ele><time>2026-04-23T09:01:15Z</time></trkpt><trkpt lat="42.49580816890036" lon="13.186500479394894"><ele>1060.0</ele><time>2026-04-23T09:01:16Z</time></trkpt><trkpt lat="42.49576090007475" lon="13.186327404875454"><ele>1063.0</ele><time>2026-04-23T09:01:17Z</time></trkpt><trkpt lat="42.49571479692354" lon="13.18614927718517"><ele>1066.0</ele><time>2026-04-23T09:01:18Z</time></trkpt><trkpt lat="42.495677750396716" lon="13.185978611876639"><ele>1069.0</ele><time>2026-04-23T09:01:19Z</time></trkpt><trkpt lat="42.49564806229632" lon="13.185812442402716"><ele>1072.0</ele><time>2026-04-23T09:01:20Z</time></trkpt><trkpt lat="42.495630189918685" lon="13.18566789092765"><ele>1071.2</ele><time>2026-04-23T09:01:21Z</time></trkpt><trkpt lat="42.49560416944049" lon="13.185538394704356"><ele>1070.4</ele><time>2026-04-23T09:01:22Z</time></trkpt><trkpt lat="42.49558367583946" lon="13.185400314409579"><ele>1069.6</ele><time>2026-04-23T09:01:23Z</time></trkpt><trkpt lat="42.49551811935792" lon="13.185282649713079"><ele>1068.8</ele><time>2026-04-23T09:01:24Z</time></trkpt><trkpt lat="42.495421028482625" lon="13.18519742093288"><ele>1068.0</ele><time>2026-04-23T09:01:25Z</time></trkpt><trkpt lat="42.49531111582379" lon="13.18513638301381"><ele>1068.0</ele><time>2026-04-23T09:01:26Z</time></trkpt><trkpt lat="42.49518414746055" lon="13.18508938764838"><ele>1068.0</ele><time>2026-04-23T09:01:27Z</time></trkpt><trkpt lat="42.49505789617072" lon="13.185038767214198"><ele>1068.0</ele><time>2026-04-23T09:01:28Z</time></trkpt><trkpt lat="42.494933370198794" lon="13.184951521403535"><ele>1068.0</ele><time>2026-04-23T09:01:29Z</time></trkpt><trkpt lat="42.49481069835259" lon="13.184841417458651"><ele>1072.25</ele><time>2026-04-23T09:01:30Z</time></trkpt><trkpt lat="42.4946983964738" lon="13.18474602961372"><ele>1076.5</ele><time>2026-04-23T09:01:31Z</time></trkpt><trkpt lat="42.49458122712753" lon="13.184677904898201"><ele>1080.75</ele><time>2026-04-23T09:01:32Z</time></trkpt><trkpt lat="42.494480977304406" lon="13.184578301227106"><ele>1085.0</ele><time>2026-04-23T09:01:33Z</time></trkpt><trkpt lat="42.494367615534195" lon="13.184543556780909"><ele>1085.0</ele><time>2026-04-23T09:01:34Z</time></trkpt><trkpt lat="42.49426112413155" lon="13.184524274207416"><ele>1085.0</ele><time>2026-04-23T09:01:35Z</time></trkpt><trkpt lat="42.494147381760996" lon="13.184546232744951"><ele>1085.0</ele><time>2026-04-23T09:01:36Z</time></trkpt><trkpt lat="42.49404003302597" lon="13.184608293078917"><ele>1085.0</ele><time>2026-04-23T09:01:37Z</time></trkpt><trkpt lat="42.49393588020306" lon="13.184683844588115"><ele>1085.0</ele><time>2026-04-23T09:01:38Z</time></trkpt><trkpt lat="42.49384834089299" lon="13.18476425097838"><ele>1085.0</ele><time>2026-04-23T09:01:39Z</time></trkpt><trkpt lat="42.49377163023219" lon="13.184857447051419"><ele>1085.0</ele><time>2026-04-23T09:01:40Z</time></trkpt><trkpt lat="42.49376409404611" lon="13.184997340559983"><ele>1085.0</ele><time>2026-04-23T09:01:41Z</time></trkpt><trkpt lat="42.49378820755358" lon="13.18511931711001"><ele>1085.0</ele><time>2026-04-23T09:01:42Z</time></trkpt><trkpt lat="42.493844595867195" lon="13.18525389526226"><ele>1080.5</ele><time>2026-04-23T09:01:43Z</time></trkpt><trkpt lat="42.49391843768174" lon="13.185401862387558"><ele>1076.0</ele><time>2026-04-23T09:01:43.999Z</time></trkpt><trkpt lat="42.4939843988269" lon="13.185572204631905"><ele>1071.5</ele><time>2026-04-23T09:01:44.999Z</time></trkpt><trkpt lat="42.49402884647239" lon="13.185768474116342"><ele>1067.0</ele><time>2026-04-23T09:01:45.999Z</time></trkpt><trkpt lat="42.49404818512516" lon="13.185976753731238"><ele>1067.0</ele><time>2026-04-23T09:01:46.999Z</time></trkpt><trkpt lat="42.49403051968234" lon="13.186176825183063"><ele>1067.0</ele><time>2026-04-23T09:01:47.999Z</time></trkpt><trkpt lat="42.494023252430246" lon="13.186370720909823"><ele>1067.0</ele><time>2026-04-23T09:01:48.999Z</time></trkpt><trkpt lat="42.49398354347378" lon="13.186557034246563"><ele>1067.0</ele><time>2026-04-23T09:01:49.999Z</time></trkpt><trkpt lat="42.49394493289186" lon="13.186721752883768"><ele>1066.25</ele><time>2026-04-23T09:01:50.999Z</time></trkpt><trkpt lat="42.49389086927134" lon="13.186856649118834"><ele>1065.5</ele><time>2026-04-23T09:01:51.999Z</time></trkpt><trkpt lat="42.49380907705519" lon="13.186967471783257"><ele>1064.75</ele><time>2026-04-23T09:01:52.999Z</time></trkpt><trkpt lat="42.49369704406229" lon="13.187049799120365"><ele>1064.0</ele><time>2026-04-23T09:01:53.999Z</time></trkpt><trkpt lat="42.49358482833697" lon="13.187166457732722"><ele>1068.75</ele><time>2026-04-23T09:01:54.999Z</time></trkpt><trkpt lat="42.4935089010756" lon="13.187344337221866"><ele>1073.5</ele><time>2026-04-23T09:01:55.999Z</time></trkpt><trkpt lat="42.49339652420809" lon="13.187463499794363"><ele>1078.25</ele><time>2026-04-23T09:01:56.999Z</time></trkpt><trkpt lat="42.49326628932642" lon="13.187547228060275"><ele>1083.0</ele><time>2026-04-23T09:01:57.999Z</time></trkpt><trkpt lat="42.493124019994056" lon="13.187632992167135"><ele>1083.0</ele><time>2026-04-23T09:01:58.999Z</time></trkpt><trkpt lat="42.49301072626574" lon="13.187764483776622"><ele>1083.0</ele><time>2026-04-23T09:01:59.999Z</time></trkpt><trkpt lat="42.49289915512092" lon="13.187905322715588"><ele>1083.0</ele><time>2026-04-23T09:02:00.999Z</time></trkpt><trkpt lat="42.49277502276627" lon="13.188029754516364"><ele>1084.0</ele><time>2026-04-23T09:02:01.999Z</time></trkpt><trkpt lat="42.49261937280955" lon="13.188103252683632"><ele>1085.0</ele><time>2026-04-23T09:02:02.999Z</time></trkpt><trkpt lat="42.49246468262476" lon="13.18818943968278"><ele>1086.0</ele><time>2026-04-23T09:02:03.999Z</time></trkpt><trkpt lat="42.49232076565438" lon="13.188288588465188"><ele>1086.0</ele><time>2026-04-23T09:02:04.999Z</time></trkpt><trkpt lat="42.492224540285214" lon="13.188447304165027"><ele>1086.0</ele><time>2026-04-23T09:02:05.999Z</time></trkpt><trkpt lat="42.49215736115706" lon="13.18857482615913"><ele>1086.0</ele><time>2026-04-23T09:02:06.999Z</time></trkpt><trkpt lat="42.492127736757766" lon="13.188688993355864"><ele>1086.0</ele><time>2026-04-23T09:02:07.999Z</time></trkpt><trkpt lat="42.49212984197718" lon="13.188791490059481"><ele>1086.0</ele><time>2026-04-23T09:02:08.999Z</time></trkpt><trkpt lat="42.49215442409001" lon="13.188892935373758"><ele>1086.0</ele><time>2026-04-23T09:02:09.999Z</time></trkpt><trkpt lat="42.49220581755237" lon="13.18899366522471"><ele>1086.0</ele><time>2026-04-23T09:02:10.999Z</time></trkpt><trkpt lat="42.49228387752198" lon="13.18910468847541"><ele>1086.0</ele><time>2026-04-23T09:02:11.999Z</time></trkpt><trkpt lat="42.49239027474564" lon="13.189218771576641"><ele>1086.0</ele><time>2026-04-23T09:02:12.999Z</time></trkpt><trkpt lat="42.492507575417385" lon="13.189348876236087"><ele>1086.25</ele><time>2026-04-23T09:02:13.999Z</time></trkpt><trkpt lat="42.49262700419539" lon="13.189487918450807"><ele>1086.5</ele><time>2026-04-23T09:02:14.999Z</time></trkpt><trkpt lat="42.49273044705536" lon="13.189615193723455"><ele>1086.75</ele><time>2026-04-23T09:02:15.999Z</time></trkpt><trkpt lat="42.49282286982869" lon="13.189733135852244"><ele>1087.0</ele><time>2026-04-23T09:02:16.999Z</time></trkpt><trkpt lat="42.49289579487476" lon="13.189850702011826"><ele>1088.4</ele><time>2026-04-23T09:02:17.999Z</time></trkpt><trkpt lat="42.492917450763386" lon="13.18997795042836"><ele>1089.8000000000002</ele><time>2026-04-23T09:02:18.999Z</time></trkpt><trkpt lat="42.49289959404326" lon="13.190080954056798"><ele>1091.2</ele><time>2026-04-23T09:02:19.999Z</time></trkpt><trkpt lat="42.49285403827012" lon="13.190161103872567"><ele>1092.6000000000001</ele><time>2026-04-23T09:02:20.999Z</time></trkpt><trkpt lat="42.49276521034462" lon="13.190211445642925"><ele>1094.0</ele><time>2026-04-23T09:02:21.999Z</time></trkpt><trkpt lat="42.492661294690585" lon="13.190259739255183"><ele>1094.0</ele><time>2026-04-23T09:02:22.999Z</time></trkpt><trkpt lat="42.49253519671412" lon="13.19031568896662"><ele>1094.0</ele><time>2026-04-23T09:02:23.999Z</time></trkpt><trkpt lat="42.49239532698079" lon="13.190372483286472"><ele>1094.0</ele><time>2026-04-23T09:02:24.999Z</time></trkpt><trkpt lat="42.49224333098069" lon="13.19045199503176"><ele>1094.0</ele><time>2026-04-23T09:02:25.999Z</time></trkpt><trkpt lat="42.49209751165629" lon="13.190505664874687"><ele>1098.0</ele><time>2026-04-23T09:02:26.999Z</time></trkpt><trkpt lat="42.49196887210915" lon="13.19059277057551"><ele>1102.0</ele><time>2026-04-23T09:02:27.999Z</time></trkpt><trkpt lat="42.49184470704125" lon="13.190662234655317"><ele>1106.0</ele><time>2026-04-23T09:02:28.999Z</time></trkpt><trkpt lat="42.491756573537096" lon="13.19078342519145"><ele>1110.0</ele><time>2026-04-23T09:02:29.999Z</time></trkpt><trkpt lat="42.49170939205132" lon="13.19090830253323"><ele>1110.0</ele><time>2026-04-23T09:02:30.999Z</time></trkpt><trkpt lat="42.4917013761031" lon="13.191028270388767"><ele>1110.0</ele><time>2026-04-23T09:02:31.999Z</time></trkpt><trkpt lat="42.49174284894966" lon="13.19113980139763"><ele>1110.0</ele><time>2026-04-23T09:02:32.999Z</time></trkpt><trkpt lat="42.49179772750639" lon="13.19126658792775"><ele>1110.0</ele><time>2026-04-23T09:02:33.999Z</time></trkpt><trkpt lat="42.49184956800531" lon="13.191434428090746"><ele>1110.0</ele><time>2026-04-23T09:02:34.999Z</time></trkpt><trkpt lat="42.49190503143711" lon="13.191607648096488"><ele>1109.25</ele><time>2026-04-23T09:02:35.999Z</time></trkpt><trkpt lat="42.49193642741872" lon="13.19176798604042"><ele>1108.5</ele><time>2026-04-23T09:02:36.999Z</time></trkpt><trkpt lat="42.49194704390337" lon="13.191923433981197"><ele>1107.75</ele><time>2026-04-23T09:02:37.999Z</time></trkpt><trkpt lat="42.4918930181777" lon="13.192065211343756"><ele>1107.0</ele><time>2026-04-23T09:02:38.999Z</time></trkpt><trkpt lat="42.4918194231443" lon="13.192206480378706"><ele>1105.75</ele><time>2026-04-23T09:02:39.999Z</time></trkpt><trkpt lat="42.491727977886" lon="13.192366755224818"><ele>1104.5</ele><time>2026-04-23T09:02:40.999Z</time></trkpt><trkpt lat="42.49164975275125" lon="13.192539833183591"><ele>1103.25</ele><time>2026-04-23T09:02:41.999Z</time></trkpt><trkpt lat="42.49155039936089" lon="13.192686982921474"><ele>1102.0</ele><time>2026-04-23T09:02:42.999Z</time></trkpt><trkpt lat="42.49147627816739" lon="13.19284460206042"><ele>1102.0</ele><time>2026-04-23T09:02:43.999Z</time></trkpt><trkpt lat="42.49142067769839" lon="13.192995346406924"><ele>1102.0</ele><time>2026-04-23T09:02:44.999Z</time></trkpt><trkpt lat="42.49140065171134" lon="13.19314161123217"><ele>1102.0</ele><time>2026-04-23T09:02:45.999Z</time></trkpt><trkpt lat="42.491428048563336" lon="13.193279602723239"><ele>1102.0</ele><time>2026-04-23T09:02:46.999Z</time></trkpt><trkpt lat="42.49149480679014" lon="13.193378654101691"><ele>1102.0</ele><time>2026-04-23T09:02:47.999Z</time></trkpt><trkpt lat="42.491580389940054" lon="13.193465568767003"><ele>1100.2</ele><time>2026-04-23T09:02:48.999Z</time></trkpt><trkpt lat="42.49166296393203" lon="13.193556985206156"><ele>1098.4</ele><time>2026-04-23T09:02:49.999Z</time></trkpt><trkpt lat="42.49173177780229" lon="13.19365513362801"><ele>1096.6</ele><time>2026-04-23T09:02:50.999Z</time></trkpt><trkpt lat="42.49174848062291" lon="13.193779557946401"><ele>1094.8</ele><time>2026-04-23T09:02:51.999Z</time></trkpt><trkpt lat="42.4917238929009" lon="13.193895714086587"><ele>1093.0</ele><time>2026-04-23T09:02:52.999Z</time></trkpt><trkpt lat="42.491666013233214" lon="13.19398912691958"><ele>1091.75</ele><time>2026-04-23T09:02:53.999Z</time></trkpt><trkpt lat="42.49157484917629" lon="13.194053742089057"><ele>1090.5</ele><time>2026-04-23T09:02:54.999Z</time></trkpt><trkpt lat="42.4914546463968" lon="13.194063611693771"><ele>1089.25</ele><time>2026-04-23T09:02:55.999Z</time></trkpt><trkpt lat="42.49131610384465" lon="13.194085214449506"><ele>1088.0</ele><time>2026-04-23T09:02:56.999Z</time></trkpt><trkpt lat="42.491160677081126" lon="13.194110272664766"><ele>1088.0</ele><time>2026-04-23T09:02:57.999Z</time></trkpt><trkpt lat="42.49099546638133" lon="13.194159726107292"><ele>1088.0</ele><time>2026-04-23T09:02:58.999Z</time></trkpt><trkpt lat="42.490832271835956" lon="13.194198237610392"><ele>1088.0</ele><time>2026-04-23T09:02:59.999Z</time></trkpt><trkpt lat="42.49066635546743" lon="13.194229582188964"><ele>1088.0</ele><time>2026-04-23T09:03:00.999Z</time></trkpt><trkpt lat="42.4905001919437" lon="13.194210448837683"><ele>1088.0</ele><time>2026-04-23T09:03:01.999Z</time></trkpt><trkpt lat="42.49033982206161" lon="13.194205145002922"><ele>1088.0</ele><time>2026-04-23T09:03:02.999Z</time></trkpt><trkpt lat="42.490189758362845" lon="13.194134676766222"><ele>1086.6666666666667</ele><time>2026-04-23T09:03:03.999Z</time></trkpt><trkpt lat="42.490038852017214" lon="13.194035810668742"><ele>1085.3333333333333</ele><time>2026-04-23T09:03:04.999Z</time></trkpt><trkpt lat="42.48989678145043" lon="13.1939044618454"><ele>1084.0</ele><time>2026-04-23T09:03:05.999Z</time></trkpt><trkpt lat="42.48974019790498" lon="13.193795455353584"><ele>1089.6666666666665</ele><time>2026-04-23T09:03:06.999Z</time></trkpt><trkpt lat="42.489562535002705" lon="13.193748818257024"><ele>1095.3333333333333</ele><time>2026-04-23T09:03:07.999Z</time></trkpt><trkpt lat="42.48939012762541" lon="13.193688474586642"><ele>1101.0</ele><time>2026-04-23T09:03:08.999Z</time></trkpt><trkpt lat="42.48922480238313" lon="13.193636876125979"><ele>1101.0</ele><time>2026-04-23T09:03:09.999Z</time></trkpt><trkpt lat="42.48906653558306" lon="13.193582152034045"><ele>1101.0</ele><time>2026-04-23T09:03:10.999Z</time></trkpt><trkpt lat="42.48891908890308" lon="13.19352352349305"><ele>1101.0</ele><time>2026-04-23T09:03:11.999Z</time></trkpt><trkpt lat="42.48880128835618" lon="13.193434739240983"><ele>1100.0</ele><time>2026-04-23T09:03:12.999Z</time></trkpt><trkpt lat="42.488676469556516" lon="13.193410590107147"><ele>1099.0</ele><time>2026-04-23T09:03:13.999Z</time></trkpt><trkpt lat="42.48856581778165" lon="13.193530141097565"><ele>1098.0</ele><time>2026-04-23T09:03:14.999Z</time></trkpt><trkpt lat="42.48848373048001" lon="13.193610428412292"><ele>1097.0</ele><time>2026-04-23T09:03:15.999Z</time></trkpt><trkpt lat="42.4883845599306" lon="13.193650283488598"><ele>1097.0</ele><time>2026-04-23T09:03:16.999Z</time></trkpt><trkpt lat="42.48827157845389" lon="13.193645294121335"><ele>1097.0</ele><time>2026-04-23T09:03:18Z</time></trkpt><trkpt lat="42.48817286568359" lon="13.19358817547194"><ele>1097.0</ele><time>2026-04-23T09:03:19Z</time></trkpt><trkpt lat="42.48807585119815" lon="13.193571697760616"><ele>1097.0</ele><time>2026-04-23T09:03:20Z</time></trkpt><trkpt lat="42.48798746478486" lon="13.193591256552747"><ele>1097.0</ele><time>2026-04-23T09:03:21Z</time></trkpt><trkpt lat="42.487925262739054" lon="13.193697202165461"><ele>1098.2</ele><time>2026-04-23T09:03:22Z</time></trkpt><trkpt lat="42.487875270064926" lon="13.193809430082197"><ele>1099.4</ele><time>2026-04-23T09:03:23Z</time></trkpt><trkpt lat="42.487848443494734" lon="13.19394014894008"><ele>1100.6</ele><time>2026-04-23T09:03:24Z</time></trkpt><trkpt lat="42.48782059468156" lon="13.194084107967733"><ele>1101.8</ele><time>2026-04-23T09:03:25Z</time></trkpt><trkpt lat="42.48785417509091" lon="13.194251549023472"><ele>1103.0</ele><time>2026-04-23T09:03:26Z</time></trkpt><trkpt lat="42.487907945288434" lon="13.194425453267401"><ele>1096.0</ele><time>2026-04-23T09:03:27Z</time></trkpt><trkpt lat="42.48797452126765" lon="13.19461846736764"><ele>1089.0</ele><time>2026-04-23T09:03:28Z</time></trkpt><trkpt lat="42.48801920394458" lon="13.194823333533996"><ele>1082.0</ele><time>2026-04-23T09:03:29Z</time></trkpt><trkpt lat="42.48810296825921" lon="13.194997149765793"><ele>1082.0</ele><time>2026-04-23T09:03:30Z</time></trkpt><trkpt lat="42.48824035299704" lon="13.195120856980317"><ele>1082.0</ele><time>2026-04-23T09:03:31Z</time></trkpt><trkpt lat="42.48837418341635" lon="13.195239260620948"><ele>1082.0</ele><time>2026-04-23T09:03:32Z</time></trkpt><trkpt lat="42.488489142946996" lon="13.1954156657219"><ele>1082.0</ele><time>2026-04-23T09:03:33Z</time></trkpt><trkpt lat="42.48859769183445" lon="13.195587938234986"><ele>1082.0</ele><time>2026-04-23T09:03:34Z</time></trkpt><trkpt lat="42.48869403845978" lon="13.195799979701267"><ele>1082.0</ele><time>2026-04-23T09:03:35Z</time></trkpt><trkpt lat="42.488792179232846" lon="13.196025065161148"><ele>1080.0</ele><time>2026-04-23T09:03:36Z</time></trkpt><trkpt lat="42.4888934738347" lon="13.196248012057959"><ele>1078.0</ele><time>2026-04-23T09:03:37Z</time></trkpt><trkpt lat="42.488985527643266" lon="13.19645633843768"><ele>1076.0</ele><time>2026-04-23T09:03:38Z</time></trkpt><trkpt lat="42.48905790558678" lon="13.196664621246397"><ele>1076.0</ele><time>2026-04-23T09:03:39Z</time></trkpt><trkpt lat="42.48913827006226" lon="13.19685422559037"><ele>1076.0</ele><time>2026-04-23T09:03:40Z</time></trkpt><trkpt lat="42.489208639490705" lon="13.197043771076082"><ele>1076.0</ele><time>2026-04-23T09:03:41Z</time></trkpt><trkpt lat="42.48925521122777" lon="13.197235045378033"><ele>1076.0</ele><time>2026-04-23T09:03:42Z</time></trkpt><trkpt lat="42.48929410998966" lon="13.19743691120342"><ele>1076.0</ele><time>2026-04-23T09:03:43Z</time></trkpt><trkpt lat="42.48932682891208" lon="13.197635190308235"><ele>1076.0</ele><time>2026-04-23T09:03:44Z</time></trkpt><trkpt lat="42.48935202568736" lon="13.197820770727407"><ele>1076.0</ele><time>2026-04-23T09:03:45Z</time></trkpt><trkpt lat="42.48936939705792" lon="13.198096866706127"><ele>1074.8</ele><time>2026-04-23T09:03:46Z</time></trkpt><trkpt lat="42.4893374920731" lon="13.198246595597343"><ele>1073.6</ele><time>2026-04-23T09:03:47Z</time></trkpt><trkpt lat="42.48927470154027" lon="13.198334476023946"><ele>1072.4</ele><time>2026-04-23T09:03:48Z</time></trkpt><trkpt lat="42.48922515684161" lon="13.198387689606104"><ele>1071.2</ele><time>2026-04-23T09:03:49Z</time></trkpt><trkpt lat="42.48910595671526" lon="13.198315562308137"><ele>1070.0</ele><time>2026-04-23T09:03:51Z</time></trkpt><trkpt lat="42.48901282171759" lon="13.198226699727842"><ele>1072.0</ele><time>2026-04-23T09:03:52Z</time></trkpt><trkpt lat="42.488883929992916" lon="13.19813391629753"><ele>1074.0</ele><time>2026-04-23T09:03:53Z</time></trkpt><trkpt lat="42.48872285542476" lon="13.198097767479867"><ele>1076.0</ele><time>2026-04-23T09:03:54Z</time></trkpt><trkpt lat="42.48855344034281" lon="13.198078141584276"><ele>1081.0</ele><time>2026-04-23T09:03:55Z</time></trkpt><trkpt lat="42.48838151025225" lon="13.19809105546338"><ele>1086.0</ele><time>2026-04-23T09:03:56Z</time></trkpt><trkpt lat="42.48821297617358" lon="13.19804190111229"><ele>1091.0</ele><time>2026-04-23T09:03:57Z</time></trkpt><trkpt lat="42.48803383029804" lon="13.19797992556037"><ele>1087.3333333333335</ele><time>2026-04-23T09:03:58Z</time></trkpt><trkpt lat="42.487850215598435" lon="13.197914643690325"><ele>1083.6666666666667</ele><time>2026-04-23T09:03:59Z</time></trkpt><trkpt lat="42.48767973279843" lon="13.19785573513661"><ele>1080.0</ele><time>2026-04-23T09:04:00Z</time></trkpt><trkpt lat="42.48751945728995" lon="13.197807380031692"><ele>1080.0</ele><time>2026-04-23T09:04:01Z</time></trkpt><trkpt lat="42.487373898086226" lon="13.197786177303104"><ele>1080.0</ele><time>2026-04-23T09:04:02Z</time></trkpt><trkpt lat="42.48726133109435" lon="13.197758453880992"><ele>1080.0</ele><time>2026-04-23T09:04:03Z</time></trkpt><trkpt lat="42.487164801779244" lon="13.19772983369324"><ele>1080.0</ele><time>2026-04-23T09:04:04Z</time></trkpt><trkpt lat="42.48708264747773" lon="13.19765483106036"><ele>1082.25</ele><time>2026-04-23T09:04:05Z</time></trkpt><trkpt lat="42.48701520031948" lon="13.197545851603593"><ele>1084.5</ele><time>2026-04-23T09:04:06Z</time></trkpt><trkpt lat="42.48694421804119" lon="13.197405969402213"><ele>1086.75</ele><time>2026-04-23T09:04:07Z</time></trkpt><trkpt lat="42.486861915797235" lon="13.197239569808136"><ele>1089.0</ele><time>2026-04-23T09:04:08Z</time></trkpt><trkpt lat="42.48676750645112" lon="13.197089634844131"><ele>1089.0</ele><time>2026-04-23T09:04:09Z</time></trkpt><trkpt lat="42.486679774535766" lon="13.196960503576635"><ele>1089.0</ele><time>2026-04-23T09:04:10Z</time></trkpt><trkpt lat="42.48658557393172" lon="13.196869600475555"><ele>1089.0</ele><time>2026-04-23T09:04:11Z</time></trkpt><trkpt lat="42.48646423807105" lon="13.1968543222615"><ele>1089.0</ele><time>2026-04-23T09:04:12Z</time></trkpt><trkpt lat="42.48633940845425" lon="13.196907195469397"><ele>1087.75</ele><time>2026-04-23T09:04:12.999Z</time></trkpt><trkpt lat="42.486231554452445" lon="13.197025308499004"><ele>1086.5</ele><time>2026-04-23T09:04:13.999Z</time></trkpt><trkpt lat="42.48610958105238" lon="13.197122455610982"><ele>1085.25</ele><time>2026-04-23T09:04:14.999Z</time></trkpt><trkpt lat="42.48600125439009" lon="13.197247274651348"><ele>1084.0</ele><time>2026-04-23T09:04:15.999Z</time></trkpt><trkpt lat="42.48589838875054" lon="13.197345277737956"><ele>1082.0</ele><time>2026-04-23T09:04:16.999Z</time></trkpt><trkpt lat="42.48579370578793" lon="13.197394206959416"><ele>1080.0</ele><time>2026-04-23T09:04:17.999Z</time></trkpt><trkpt lat="42.485679849829836" lon="13.1974053481128"><ele>1078.0</ele><time>2026-04-23T09:04:18.999Z</time></trkpt><trkpt lat="42.485559024583935" lon="13.197362075256706"><ele>1076.0</ele><time>2026-04-23T09:04:19.999Z</time></trkpt><trkpt lat="42.48542392718142" lon="13.197310018802604"><ele>1076.0</ele><time>2026-04-23T09:04:20.999Z</time></trkpt><trkpt lat="42.48528548069076" lon="13.197241874004613"><ele>1076.0</ele><time>2026-04-23T09:04:21.999Z</time></trkpt><trkpt lat="42.48515794645597" lon="13.19716909533462"><ele>1076.0</ele><time>2026-04-23T09:04:22.999Z</time></trkpt><trkpt lat="42.485074703011705" lon="13.1970318964836"><ele>1076.0</ele><time>2026-04-23T09:04:23.999Z</time></trkpt><trkpt lat="42.4849802692384" lon="13.196938138375929"><ele>1076.0</ele><time>2026-04-23T09:04:24.999Z</time></trkpt><trkpt lat="42.48488606604239" lon="13.19687853023359"><ele>1076.0</ele><time>2026-04-23T09:04:25.999Z</time></trkpt><trkpt lat="42.48477575501961" lon="13.19688170047323"><ele>1076.0</ele><time>2026-04-23T09:04:26.999Z</time></trkpt><trkpt lat="42.484648867806264" lon="13.196929046226506"><ele>1076.0</ele><time>2026-04-23T09:04:27.999Z</time></trkpt><trkpt lat="42.484500002764015" lon="13.196950866251962"><ele>1075.5</ele><time>2026-04-23T09:04:28.999Z</time></trkpt><trkpt lat="42.48434410165626" lon="13.196972827159723"><ele>1075.0</ele><time>2026-04-23T09:04:29.999Z</time></trkpt><trkpt lat="42.4841975239904" lon="13.196975902443391"><ele>1074.5</ele><time>2026-04-23T09:04:30.999Z</time></trkpt><trkpt lat="42.48405523826048" lon="13.1969873918807"><ele>1074.0</ele><time>2026-04-23T09:04:31.999Z</time></trkpt><trkpt lat="42.48391463629858" lon="13.196944130421118"><ele>1074.0</ele><time>2026-04-23T09:04:32.999Z</time></trkpt><trkpt lat="42.483773890499776" lon="13.196922818147398"><ele>1074.0</ele><time>2026-04-23T09:04:33.999Z</time></trkpt><trkpt lat="42.48363705083689" lon="13.196955321978471"><ele>1074.0</ele><time>2026-04-23T09:04:34.999Z</time></trkpt><trkpt lat="42.483530567471156" lon="13.1970731928893"><ele>1074.0</ele><time>2026-04-23T09:04:35.999Z</time></trkpt><trkpt lat="42.48343570772078" lon="13.197206979403525"><ele>1071.25</ele><time>2026-04-23T09:04:36.999Z</time></trkpt><trkpt lat="42.48335164799019" lon="13.197362311005966"><ele>1068.5</ele><time>2026-04-23T09:04:37.999Z</time></trkpt><trkpt lat="42.48324544650443" lon="13.197492658618577"><ele>1065.75</ele><time>2026-04-23T09:04:38.999Z</time></trkpt><trkpt lat="42.48315230207026" lon="13.19762838653137"><ele>1063.0</ele><time>2026-04-23T09:04:39.999Z</time></trkpt><trkpt lat="42.48308456957476" lon="13.19776502532724"><ele>1063.0</ele><time>2026-04-23T09:04:40.999Z</time></trkpt><trkpt lat="42.48302906391689" lon="13.19789269190441"><ele>1063.0</ele><time>2026-04-23T09:04:41.999Z</time></trkpt><trkpt lat="42.483020680693485" lon="13.198023982665735"><ele>1063.0</ele><time>2026-04-23T09:04:42.999Z</time></trkpt><trkpt lat="42.48305129514535" lon="13.19814744094852"><ele>1063.0</ele><time>2026-04-23T09:04:43.999Z</time></trkpt><trkpt lat="42.48312144414266" lon="13.198231544897576"><ele>1063.0</ele><time>2026-04-23T09:04:44.999Z</time></trkpt><trkpt lat="42.48320973553998" lon="13.198315172885833"><ele>1062.25</ele><time>2026-04-23T09:04:45.999Z</time></trkpt><trkpt lat="42.48331106236731" lon="13.198400420411895"><ele>1061.5</ele><time>2026-04-23T09:04:46.999Z</time></trkpt><trkpt lat="42.483418037554166" lon="13.198495066115795"><ele>1060.75</ele><time>2026-04-23T09:04:47.999Z</time></trkpt><trkpt lat="42.48353110906961" lon="13.198604730307467"><ele>1060.0</ele><time>2026-04-23T09:04:48.999Z</time></trkpt><trkpt lat="42.48363686913637" lon="13.198722284664903"><ele>1060.0</ele><time>2026-04-23T09:04:49.999Z</time></trkpt><trkpt lat="42.48373939312225" lon="13.198834790647938"><ele>1060.0</ele><time>2026-04-23T09:04:50.999Z</time></trkpt><trkpt lat="42.48383191362977" lon="13.198932968658212"><ele>1060.0</ele><time>2026-04-23T09:04:51.999Z</time></trkpt><trkpt lat="42.48391538703906" lon="13.1990172609811"><ele>1060.0</ele><time>2026-04-23T09:04:52.999Z</time></trkpt><trkpt lat="42.48397820916527" lon="13.199085221664939"><ele>1060.0</ele><time>2026-04-23T09:04:53.999Z</time></trkpt><trkpt lat="42.484041989824625" lon="13.19921010065747"><ele>1060.0</ele><time>2026-04-23T09:04:55.999Z</time></trkpt><trkpt lat="42.48409616393695" lon="13.199317589880334"><ele>1060.0</ele><time>2026-04-23T09:04:57.999Z</time></trkpt><trkpt lat="42.48409595261528" lon="13.1994504209031"><ele>1060.0</ele><time>2026-04-23T09:04:59.999Z</time></trkpt><trkpt lat="42.48409461829672" lon="13.199599169520269"><ele>1060.0</ele><time>2026-04-23T09:05:01.999Z</time></trkpt><trkpt lat="42.48408713623786" lon="13.199750209521625"><ele>1060.0</ele><time>2026-04-23T09:05:03.999Z</time></trkpt><trkpt lat="42.484085708126464" lon="13.199915803870955"><ele>1060.0</ele><time>2026-04-23T09:05:05.999Z</time></trkpt><trkpt lat="42.484053253716795" lon="13.200057604133157"><ele>1060.0</ele><time>2026-04-23T09:05:07.999Z</time></trkpt><trkpt lat="42.484039927847896" lon="13.200189124647727"><ele>1060.0</ele><time>2026-04-23T09:05:09.999Z</time></trkpt><trkpt lat="42.48402360668213" lon="13.200310353330172"><ele>1060.0</ele><time>2026-04-23T09:05:11.999Z</time></trkpt><trkpt lat="42.48399963167474" lon="13.200404064625374"><ele>1060.0</ele><time>2026-04-23T09:05:13.999Z</time></trkpt><trkpt lat="42.483974683796205" lon="13.200518781617191"><ele>1060.0</ele><time>2026-04-23T09:05:15.999Z</time></trkpt><trkpt lat="42.483910005641604" lon="13.200627132211658"><ele>1060.0</ele><time>2026-04-23T09:05:17.999Z</time></trkpt><trkpt lat="42.48385435460456" lon="13.200756080976785"><ele>1060.0</ele><time>2026-04-23T09:05:19.999Z</time></trkpt><trkpt lat="42.48378943472863" lon="13.200900541471237"><ele>1060.0</ele><time>2026-04-23T09:05:21.999Z</time></trkpt><trkpt lat="42.48374823832384" lon="13.200978696391974"><ele>1060.0</ele><time>2026-04-23T09:05:23Z</time></trkpt><trkpt lat="42.48369127690012" lon="13.201070948633431"><ele>1062.5</ele><time>2026-04-23T09:05:24Z</time></trkpt><trkpt lat="42.48362910588118" lon="13.201185562598706"><ele>1065.0</ele><time>2026-04-23T09:05:25Z</time></trkpt><trkpt lat="42.483548038054224" lon="13.201282463273783"><ele>1067.5</ele><time>2026-04-23T09:05:26Z</time></trkpt><trkpt lat="42.4834526927113" lon="13.201365550890614"><ele>1070.0</ele><time>2026-04-23T09:05:27Z</time></trkpt><trkpt lat="42.48335293450312" lon="13.201468699762007"><ele>1068.5</ele><time>2026-04-23T09:05:28Z</time></trkpt><trkpt lat="42.48324202335954" lon="13.201577424719964"><ele>1067.0</ele><time>2026-04-23T09:05:29Z</time></trkpt><trkpt lat="42.483124772530175" lon="13.201687400594363"><ele>1065.5</ele><time>2026-04-23T09:05:30Z</time></trkpt><trkpt lat="42.483011869180565" lon="13.201790155698708"><ele>1064.0</ele><time>2026-04-23T09:05:31Z</time></trkpt><trkpt lat="42.482905707284196" lon="13.201886457085681"><ele>1064.0</ele><time>2026-04-23T09:05:32Z</time></trkpt><trkpt lat="42.482816843819805" lon="13.202000078076926"><ele>1064.0</ele><time>2026-04-23T09:05:33Z</time></trkpt><trkpt lat="42.4827188860312" lon="13.202088450240346"><ele>1064.0</ele><time>2026-04-23T09:05:34Z</time></trkpt><trkpt lat="42.48267477837854" lon="13.202247857981492"><ele>1064.0</ele><time>2026-04-23T09:05:35Z</time></trkpt><trkpt lat="42.48264566176692" lon="13.202407856874373"><ele>1059.0</ele><time>2026-04-23T09:05:36Z</time></trkpt><trkpt lat="42.48262485125113" lon="13.202567935545028"><ele>1054.0</ele><time>2026-04-23T09:05:37Z</time></trkpt><trkpt lat="42.482585310909464" lon="13.202826589440408"><ele>1049.0</ele><time>2026-04-23T09:05:39Z</time></trkpt><trkpt lat="42.482591579111926" lon="13.20291775023381"><ele>1044.0</ele><time>2026-04-23T09:05:40Z</time></trkpt><trkpt lat="42.48255670860996" lon="13.203061891410576"><ele>1044.0</ele><time>2026-04-23T09:05:42Z</time></trkpt><trkpt lat="42.482462730822114" lon="13.203153047091458"><ele>1044.0</ele><time>2026-04-23T09:05:44Z</time></trkpt><trkpt lat="42.4823874550692" lon="13.203140743020178"><ele>1044.0</ele><time>2026-04-23T09:05:45Z</time></trkpt><trkpt lat="42.4823096625114" lon="13.203122449829111"><ele>1044.0</ele><time>2026-04-23T09:05:46Z</time></trkpt><trkpt lat="42.48222096301603" lon="13.203105672219502"><ele>1044.0</ele><time>2026-04-23T09:05:47Z</time></trkpt><trkpt lat="42.48212115948364" lon="13.20308059285877"><ele>1044.25</ele><time>2026-04-23T09:05:48Z</time></trkpt><trkpt lat="42.482013289928624" lon="13.203055427107778"><ele>1044.5</ele><time>2026-04-23T09:05:49Z</time></trkpt><trkpt lat="42.48190137443376" lon="13.20305907546515"><ele>1044.75</ele><time>2026-04-23T09:05:50Z</time></trkpt><trkpt lat="42.4817815881894" lon="13.203056815198439"><ele>1045.0</ele><time>2026-04-23T09:05:51Z</time></trkpt><trkpt lat="42.48167116827179" lon="13.203081744152042"><ele>1045.0</ele><time>2026-04-23T09:05:52Z</time></trkpt><trkpt lat="42.48157015316188" lon="13.203115757050782"><ele>1045.0</ele><time>2026-04-23T09:05:53Z</time></trkpt><trkpt lat="42.481491901016774" lon="13.20321597926772"><ele>1045.0</ele><time>2026-04-23T09:05:54Z</time></trkpt><trkpt lat="42.48144412664487" lon="13.203343701627109"><ele>1045.0</ele><time>2026-04-23T09:05:55Z</time></trkpt><trkpt lat="42.48146017070072" lon="13.203498193722666"><ele>1045.0</ele><time>2026-04-23T09:05:56Z</time></trkpt><trkpt lat="42.48147705643592" lon="13.203644920456865"><ele>1042.5</ele><time>2026-04-23T09:05:57Z</time></trkpt><trkpt lat="42.481497434359184" lon="13.203803388100765"><ele>1040.0</ele><time>2026-04-23T09:05:58Z</time></trkpt><trkpt lat="42.48148118045376" lon="13.2039705850241"><ele>1037.5</ele><time>2026-04-23T09:05:59Z</time></trkpt><trkpt lat="42.48146033739058" lon="13.204140096732292"><ele>1035.0</ele><time>2026-04-23T09:06:00Z</time></trkpt><trkpt lat="42.481433460654216" lon="13.204306478922383"><ele>1032.25</ele><time>2026-04-23T09:06:01Z</time></trkpt><trkpt lat="42.48140239801688" lon="13.204474701700988"><ele>1029.5</ele><time>2026-04-23T09:06:02Z</time></trkpt><trkpt lat="42.48136397350081" lon="13.204649754729552"><ele>1026.75</ele><time>2026-04-23T09:06:03Z</time></trkpt><trkpt lat="42.481324288967144" lon="13.204833611697806"><ele>1024.0</ele><time>2026-04-23T09:06:04Z</time></trkpt><trkpt lat="42.48128358500786" lon="13.205022191631508"><ele>1031.3333333333333</ele><time>2026-04-23T09:06:05Z</time></trkpt><trkpt lat="42.48124171167592" lon="13.205216189222261"><ele>1038.6666666666667</ele><time>2026-04-23T09:06:06Z</time></trkpt><trkpt lat="42.48119617424541" lon="13.20541474953888"><ele>1046.0</ele><time>2026-04-23T09:06:07Z</time></trkpt><trkpt lat="42.48114918606838" lon="13.205606633424408"><ele>1042.0</ele><time>2026-04-23T09:06:08Z</time></trkpt><trkpt lat="42.4811005577216" lon="13.205793603885645"><ele>1038.0</ele><time>2026-04-23T09:06:09Z</time></trkpt><trkpt lat="42.48105230986094" lon="13.205971885601823"><ele>1034.0</ele><time>2026-04-23T09:06:10Z</time></trkpt><trkpt lat="42.48099042963876" lon="13.20614490926145"><ele>1030.0</ele><time>2026-04-23T09:06:11Z</time></trkpt><trkpt lat="42.48091369529372" lon="13.206319100040497"><ele>1030.0</ele><time>2026-04-23T09:06:12Z</time></trkpt><trkpt lat="42.48082408880172" lon="13.20648624593098"><ele>1030.0</ele><time>2026-04-23T09:06:13Z</time></trkpt><trkpt lat="42.4807369888101" lon="13.206663334618005"><ele>1030.0</ele><time>2026-04-23T09:06:14Z</time></trkpt><trkpt lat="42.48066016668616" lon="13.206853299855077"><ele>1024.3333333333333</ele><time>2026-04-23T09:06:15Z</time></trkpt><trkpt lat="42.48059291585417" lon="13.207052394340387"><ele>1018.6666666666667</ele><time>2026-04-23T09:06:16Z</time></trkpt><trkpt lat="42.48051806116927" lon="13.207256635873048"><ele>1013.0</ele><time>2026-04-23T09:06:17Z</time></trkpt><trkpt lat="42.480439117963016" lon="13.207458362872066"><ele>1020.0</ele><time>2026-04-23T09:06:18Z</time></trkpt><trkpt lat="42.48035224308112" lon="13.207658800979308"><ele>1027.0</ele><time>2026-04-23T09:06:19Z</time></trkpt><trkpt lat="42.4802597574391" lon="13.20785527627277"><ele>1034.0</ele><time>2026-04-23T09:06:20Z</time></trkpt><trkpt lat="42.480162125672734" lon="13.208052398584039"><ele>1026.0</ele><time>2026-04-23T09:06:21Z</time></trkpt><trkpt lat="42.48005861058917" lon="13.208245222186132"><ele>1018.0</ele><time>2026-04-23T09:06:22Z</time></trkpt><trkpt lat="42.47996423281776" lon="13.208457097572369"><ele>1010.0</ele><time>2026-04-23T09:06:23Z</time></trkpt><trkpt lat="42.47988075077664" lon="13.208674520051215"><ele>1010.0</ele><time>2026-04-23T09:06:24Z</time></trkpt><trkpt lat="42.47979764118412" lon="13.208888294770718"><ele>1010.0</ele><time>2026-04-23T09:06:25Z</time></trkpt><trkpt lat="42.4797016963644" lon="13.209095021207563"><ele>1010.0</ele><time>2026-04-23T09:06:26Z</time></trkpt><trkpt lat="42.479592289795704" lon="13.209284390738295"><ele>1017.0</ele><time>2026-04-23T09:06:27Z</time></trkpt><trkpt lat="42.47946748844434" lon="13.20946638839643"><ele>1024.0</ele><time>2026-04-23T09:06:28Z</time></trkpt><trkpt lat="42.47933558998721" lon="13.209631978284422"><ele>1031.0</ele><time>2026-04-23T09:06:29Z</time></trkpt><trkpt lat="42.479196801820564" lon="13.20980375842553"><ele>1021.3333333333334</ele><time>2026-04-23T09:06:29.999Z</time></trkpt><trkpt lat="42.479062370455644" lon="13.209967015064176"><ele>1011.6666666666667</ele><time>2026-04-23T09:06:30.999Z</time></trkpt><trkpt lat="42.47892765787888" lon="13.2101273389982"><ele>1002.0</ele><time>2026-04-23T09:06:31.999Z</time></trkpt><trkpt lat="42.47880829747711" lon="13.210321742168558"><ele>1004.3333333333333</ele><time>2026-04-23T09:06:32.999Z</time></trkpt><trkpt lat="42.47868351149557" lon="13.210516157797755"><ele>1006.6666666666666</ele><time>2026-04-23T09:06:33.999Z</time></trkpt><trkpt lat="42.478565419067685" lon="13.210709166330188"><ele>1009.0</ele><time>2026-04-23T09:06:34.999Z</time></trkpt><trkpt lat="42.47844855133349" lon="13.21089970082658"><ele>1009.0</ele><time>2026-04-23T09:06:35.999Z</time></trkpt><trkpt lat="42.47833005334094" lon="13.211090113109327"><ele>1009.0</ele><time>2026-04-23T09:06:36.999Z</time></trkpt><trkpt lat="42.47821091354349" lon="13.211279104951789"><ele>1009.0</ele><time>2026-04-23T09:06:37.999Z</time></trkpt><trkpt lat="42.47809178085204" lon="13.211463792369448"><ele>1011.6666666666666</ele><time>2026-04-23T09:06:38.999Z</time></trkpt><trkpt lat="42.477985021928205" lon="13.211668749630169"><ele>1014.3333333333333</ele><time>2026-04-23T09:06:39.999Z</time></trkpt><trkpt lat="42.47790602358983" lon="13.21189027059528"><ele>1017.0</ele><time>2026-04-23T09:06:40.999Z</time></trkpt><trkpt lat="42.47783123635012" lon="13.212107798222494"><ele>1011.6666666666667</ele><time>2026-04-23T09:06:41.999Z</time></trkpt><trkpt lat="42.47776593808278" lon="13.212324690615318"><ele>1006.3333333333334</ele><time>2026-04-23T09:06:42.999Z</time></trkpt><trkpt lat="42.47769302934127" lon="13.212540508335449"><ele>1001.0</ele><time>2026-04-23T09:06:43.999Z</time></trkpt><trkpt lat="42.47758997784255" lon="13.21273411284868"><ele>1001.0</ele><time>2026-04-23T09:06:44.999Z</time></trkpt><trkpt lat="42.47748545388206" lon="13.21291703975594"><ele>1001.0</ele><time>2026-04-23T09:06:45.999Z</time></trkpt><trkpt lat="42.477377187302004" lon="13.213103112031458"><ele>1001.0</ele><time>2026-04-23T09:06:46.999Z</time></trkpt><trkpt lat="42.47726719948635" lon="13.213286717790119"><ele>1000.3333333333334</ele><time>2026-04-23T09:06:47.999Z</time></trkpt><trkpt lat="42.47716322918557" lon="13.213464457244754"><ele>999.6666666666667</ele><time>2026-04-23T09:06:48.999Z</time></trkpt><trkpt lat="42.47705304861736" lon="13.213626119934496"><ele>999.0</ele><time>2026-04-23T09:06:49.999Z</time></trkpt><trkpt lat="42.47692614576146" lon="13.213751701503195"><ele>997.0</ele><time>2026-04-23T09:06:50.999Z</time></trkpt><trkpt lat="42.47677536886976" lon="13.213824685042434"><ele>995.0</ele><time>2026-04-23T09:06:51.999Z</time></trkpt><trkpt lat="42.4766066584583" lon="13.213898199357718"><ele>993.0</ele><time>2026-04-23T09:06:52.999Z</time></trkpt><trkpt lat="42.476437517643625" lon="13.21397539998855"><ele>992.0</ele><time>2026-04-23T09:06:53.999Z</time></trkpt><trkpt lat="42.4762666576347" lon="13.214053386999352"><ele>991.0</ele><time>2026-04-23T09:06:54.999Z</time></trkpt><trkpt lat="42.47610743057451" lon="13.214126061393848"><ele>990.0</ele><time>2026-04-23T09:06:55.999Z</time></trkpt><trkpt lat="42.47595736910074" lon="13.214193271237976"><ele>990.0</ele><time>2026-04-23T09:06:56.999Z</time></trkpt><trkpt lat="42.47580996196729" lon="13.214235851326206"><ele>990.0</ele><time>2026-04-23T09:06:57.999Z</time></trkpt><trkpt lat="42.47566808297523" lon="13.214223470272568"><ele>990.0</ele><time>2026-04-23T09:06:58.999Z</time></trkpt><trkpt lat="42.475529340192544" lon="13.214171066352314"><ele>990.0</ele><time>2026-04-23T09:06:59.999Z</time></trkpt><trkpt lat="42.475377469463744" lon="13.214100449236522"><ele>989.6666666666667</ele><time>2026-04-23T09:07:00.999Z</time></trkpt><trkpt lat="42.475216060574866" lon="13.214024664016705"><ele>989.3333333333334</ele><time>2026-04-23T09:07:01.999Z</time></trkpt><trkpt lat="42.4750458258592" lon="13.21395587024406"><ele>989.0</ele><time>2026-04-23T09:07:02.999Z</time></trkpt><trkpt lat="42.47487139079405" lon="13.213882432291692"><ele>992.0</ele><time>2026-04-23T09:07:03.999Z</time></trkpt><trkpt lat="42.4746918123176" lon="13.21382672075312"><ele>995.0</ele><time>2026-04-23T09:07:04.999Z</time></trkpt><trkpt lat="42.474506537098655" lon="13.213774042012416"><ele>998.0</ele><time>2026-04-23T09:07:05.999Z</time></trkpt><trkpt lat="42.474316282170015" lon="13.213713683361334"><ele>998.0</ele><time>2026-04-23T09:07:06.999Z</time></trkpt><trkpt lat="42.4741304866963" lon="13.213657580456962"><ele>998.0</ele><time>2026-04-23T09:07:07.999Z</time></trkpt><trkpt lat="42.47394011441899" lon="13.213600311880345"><ele>998.0</ele><time>2026-04-23T09:07:08.999Z</time></trkpt><trkpt lat="42.47374976923941" lon="13.213556841776446"><ele>996.0</ele><time>2026-04-23T09:07:09.999Z</time></trkpt><trkpt lat="42.47355667060416" lon="13.21352895734854"><ele>994.0</ele><time>2026-04-23T09:07:10.999Z</time></trkpt><trkpt lat="42.47337310223206" lon="13.213513825280092"><ele>992.0</ele><time>2026-04-23T09:07:11.999Z</time></trkpt><trkpt lat="42.47320162203342" lon="13.213510454497943"><ele>992.0</ele><time>2026-04-23T09:07:12.999Z</time></trkpt><trkpt lat="42.47302906873181" lon="13.21349517286618"><ele>992.0</ele><time>2026-04-23T09:07:13.999Z</time></trkpt><trkpt lat="42.472869514948734" lon="13.21346138899192"><ele>992.0</ele><time>2026-04-23T09:07:14.999Z</time></trkpt><trkpt lat="42.472733308767054" lon="13.213369168143144"><ele>991.6666666666667</ele><time>2026-04-23T09:07:15.999Z</time></trkpt><trkpt lat="42.47258568002302" lon="13.213268195573784"><ele>991.3333333333333</ele><time>2026-04-23T09:07:16.999Z</time></trkpt><trkpt lat="42.47243200908393" lon="13.213178785100675"><ele>991.0</ele><time>2026-04-23T09:07:17.999Z</time></trkpt><trkpt lat="42.4722869277537" lon="13.21307661290746"><ele>992.0</ele><time>2026-04-23T09:07:18.999Z</time></trkpt><trkpt lat="42.472139040659506" lon="13.213002752176058"><ele>993.0</ele><time>2026-04-23T09:07:19.999Z</time></trkpt><trkpt lat="42.47199921167954" lon="13.212965655277461"><ele>994.0</ele><time>2026-04-23T09:07:20.999Z</time></trkpt><trkpt lat="42.471873380790896" lon="13.212969978452465"><ele>995.0</ele><time>2026-04-23T09:07:21.999Z</time></trkpt><trkpt lat="42.47176831510846" lon="13.212998856871423"><ele>995.0</ele><time>2026-04-23T09:07:22.999Z</time></trkpt><trkpt lat="42.47167788975449" lon="13.21299283673334"><ele>995.0</ele><time>2026-04-23T09:07:23.999Z</time></trkpt><trkpt lat="42.471592366548954" lon="13.213005422554216"><ele>995.0</ele><time>2026-04-23T09:07:24.999Z</time></trkpt><trkpt lat="42.471510629624355" lon="13.213015573560181"><ele>995.0</ele><time>2026-04-23T09:07:25.999Z</time></trkpt><trkpt lat="42.47141368075785" lon="13.213024438989976"><ele>995.0</ele><time>2026-04-23T09:07:26.999Z</time></trkpt><trkpt lat="42.4713179991984" lon="13.213030607328589"><ele>995.1666666666667</ele><time>2026-04-23T09:07:27.999Z</time></trkpt><trkpt lat="42.471223968730534" lon="13.213024125507193"><ele>995.3333333333334</ele><time>2026-04-23T09:07:29Z</time></trkpt><trkpt lat="42.471143488259365" lon="13.21299275834307"><ele>995.5</ele><time>2026-04-23T09:07:30Z</time></trkpt><trkpt lat="42.47105554660054" lon="13.212961843441528"><ele>995.6666666666667</ele><time>2026-04-23T09:07:31Z</time></trkpt><trkpt lat="42.470966385520924" lon="13.21294726565484"><ele>995.8333333333334</ele><time>2026-04-23T09:07:32Z</time></trkpt><trkpt lat="42.470890687263896" lon="13.21293862670453"><ele>996.0</ele><time>2026-04-23T09:07:33Z</time></trkpt><trkpt lat="42.470814785593134" lon="13.212954381250212"><ele>996.0</ele><time>2026-04-23T09:07:34Z</time></trkpt><trkpt lat="42.47073406707476" lon="13.212991940496305"><ele>995.9999999999999</ele><time>2026-04-23T09:07:35Z</time></trkpt><trkpt lat="42.470646812319224" lon="13.213045281414246"><ele>995.9999999999999</ele><time>2026-04-23T09:07:36Z</time></trkpt><trkpt lat="42.47054678586786" lon="13.213078364996274"><ele>996.0</ele><time>2026-04-23T09:07:37Z</time></trkpt><trkpt lat="42.470457616029385" lon="13.213108984218968"><ele>996.0</ele><time>2026-04-23T09:07:38Z</time></trkpt><trkpt lat="42.47035776300632" lon="13.213119347249917"><ele>994.8333333333334</ele><time>2026-04-23T09:07:39Z</time></trkpt><trkpt lat="42.47025390327893" lon="13.213121612546189"><ele>993.6666666666667</ele><time>2026-04-23T09:07:40Z</time></trkpt><trkpt lat="42.47015303457794" lon="13.21311481858776"><ele>992.5</ele><time>2026-04-23T09:07:41Z</time></trkpt><trkpt lat="42.470068653449715" lon="13.21308912878128"><ele>991.3333333333334</ele><time>2026-04-23T09:07:42Z</time></trkpt><trkpt lat="42.470007191648634" lon="13.213032933466641"><ele>990.1666666666667</ele><time>2026-04-23T09:07:43Z</time></trkpt><trkpt lat="42.46994407922524" lon="13.212972389539472"><ele>989.0</ele><time>2026-04-23T09:07:44Z</time></trkpt><trkpt lat="42.46986896765126" lon="13.212916955482306"><ele>989.0</ele><time>2026-04-23T09:07:45Z</time></trkpt><trkpt lat="42.469808696944135" lon="13.212844747685654"><ele>989.0000000000001</ele><time>2026-04-23T09:07:46Z</time></trkpt><trkpt lat="42.469753786594794" lon="13.212777293507099"><ele>989.0000000000001</ele><time>2026-04-23T09:07:47Z</time></trkpt><trkpt lat="42.46967939526847" lon="13.212721026830355"><ele>989.0</ele><time>2026-04-23T09:07:48Z</time></trkpt><trkpt lat="42.46953492305958" lon="13.212637707700836"><ele>989.0</ele><time>2026-04-23T09:07:50Z</time></trkpt><trkpt lat="42.46946016937642" lon="13.212619132416288"><ele>987.4000000000001</ele><time>2026-04-23T09:07:51Z</time></trkpt><trkpt lat="42.46938421120039" lon="13.212647425383741"><ele>985.8000000000001</ele><time>2026-04-23T09:07:52Z</time></trkpt><trkpt lat="42.46930490483055" lon="13.212706306731906"><ele>984.1999999999999</ele><time>2026-04-23T09:07:53Z</time></trkpt><trkpt lat="42.4692067787287" lon="13.212741811920491"><ele>982.5999999999999</ele><time>2026-04-23T09:07:54Z</time></trkpt><trkpt lat="42.46911182716034" lon="13.212794839827056"><ele>981.0</ele><time>2026-04-23T09:07:55Z</time></trkpt><trkpt lat="42.46901657066823" lon="13.212869362524991"><ele>981.0</ele><time>2026-04-23T09:07:56Z</time></trkpt><trkpt lat="42.4689038381938" lon="13.21292279367754"><ele>981.0</ele><time>2026-04-23T09:07:57Z</time></trkpt><trkpt lat="42.468785306103484" lon="13.212978913566955"><ele>981.0</ele><time>2026-04-23T09:07:58Z</time></trkpt><trkpt lat="42.468660613775306" lon="13.21303539037299"><ele>981.0</ele><time>2026-04-23T09:07:59Z</time></trkpt><trkpt lat="42.468523872059116" lon="13.213105394373505"><ele>978.6666666666667</ele><time>2026-04-23T09:08:00Z</time></trkpt><trkpt lat="42.46836966963625" lon="13.213156512646297"><ele>976.3333333333334</ele><time>2026-04-23T09:08:01Z</time></trkpt><trkpt lat="42.46822284408901" lon="13.213250457920816"><ele>974.0</ele><time>2026-04-23T09:08:02Z</time></trkpt><trkpt lat="42.46805560619662" lon="13.213307860618183"><ele>974.0</ele><time>2026-04-23T09:08:03Z</time></trkpt><trkpt lat="42.46788971728112" lon="13.213409801089062"><ele>974.0</ele><time>2026-04-23T09:08:04Z</time></trkpt><trkpt lat="42.467722064864674" lon="13.213489344803127"><ele>974.0</ele><time>2026-04-23T09:08:05Z</time></trkpt><trkpt lat="42.4675564060096" lon="13.213548186170081"><ele>974.0</ele><time>2026-04-23T09:08:06Z</time></trkpt><trkpt lat="42.46739244797084" lon="13.21364808498232"><ele>974.0</ele><time>2026-04-23T09:08:07Z</time></trkpt><trkpt lat="42.467229567799976" lon="13.213727541162214"><ele>974.0</ele><time>2026-04-23T09:08:08Z</time></trkpt><trkpt lat="42.467065919086686" lon="13.213804969645196"><ele>973.3333333333334</ele><time>2026-04-23T09:08:09Z</time></trkpt><trkpt lat="42.466913355562575" lon="13.213882977124413"><ele>972.6666666666667</ele><time>2026-04-23T09:08:10Z</time></trkpt><trkpt lat="42.4667729692946" lon="13.213962637633612"><ele>972.0</ele><time>2026-04-23T09:08:11Z</time></trkpt><trkpt lat="42.46664613421987" lon="13.214047590609239"><ele>972.0</ele><time>2026-04-23T09:08:12Z</time></trkpt><trkpt lat="42.466532040891906" lon="13.214164899869017"><ele>972.0</ele><time>2026-04-23T09:08:13Z</time></trkpt><trkpt lat="42.46643009523716" lon="13.214321243816718"><ele>972.0</ele><time>2026-04-23T09:08:14Z</time></trkpt><trkpt lat="42.466339752045556" lon="13.21450815558898"><ele>973.0</ele><time>2026-04-23T09:08:15Z</time></trkpt><trkpt lat="42.46624637149929" lon="13.214711732535068"><ele>974.0</ele><time>2026-04-23T09:08:16Z</time></trkpt><trkpt lat="42.466139234059376" lon="13.214906003455797"><ele>975.0</ele><time>2026-04-23T09:08:17Z</time></trkpt><trkpt lat="42.465947257529585" lon="13.215350407236901"><ele>970.0</ele><time>2026-04-23T09:08:19Z</time></trkpt><trkpt lat="42.46582919508919" lon="13.215543933261788"><ele>965.0</ele><time>2026-04-23T09:08:20Z</time></trkpt><trkpt lat="42.465723561217594" lon="13.21573089271731"><ele>960.0</ele><time>2026-04-23T09:08:21Z</time></trkpt><trkpt lat="42.46560537451143" lon="13.215900302168784"><ele>960.0</ele><time>2026-04-23T09:08:22Z</time></trkpt><trkpt lat="42.46547862914567" lon="13.216059353241645"><ele>960.0</ele><time>2026-04-23T09:08:23Z</time></trkpt><trkpt lat="42.46534266825962" lon="13.216219226850304"><ele>960.0</ele><time>2026-04-23T09:08:24Z</time></trkpt><trkpt lat="42.46519922717072" lon="13.216388775514169"><ele>957.3333333333333</ele><time>2026-04-23T09:08:25Z</time></trkpt><trkpt lat="42.465062258871924" lon="13.21656705792128"><ele>954.6666666666666</ele><time>2026-04-23T09:08:26Z</time></trkpt><trkpt lat="42.46494379665977" lon="13.216757646392788"><ele>952.0</ele><time>2026-04-23T09:08:27Z</time></trkpt><trkpt lat="42.4648403346961" lon="13.216944325696517"><ele>952.0</ele><time>2026-04-23T09:08:28Z</time></trkpt><trkpt lat="42.46468294844645" lon="13.21703289673618"><ele>952.0</ele><time>2026-04-23T09:08:29Z</time></trkpt><trkpt lat="42.464521963215645" lon="13.217126402478184"><ele>952.0</ele><time>2026-04-23T09:08:30Z</time></trkpt><trkpt lat="42.46435740166574" lon="13.217255009749225"><ele>949.6666666666666</ele><time>2026-04-23T09:08:31Z</time></trkpt><trkpt lat="42.464186666468564" lon="13.21737096129946"><ele>947.3333333333333</ele><time>2026-04-23T09:08:32Z</time></trkpt><trkpt lat="42.46402057273968" lon="13.217511259840455"><ele>945.0</ele><time>2026-04-23T09:08:33Z</time></trkpt><trkpt lat="42.46385916833809" lon="13.217664349500987"><ele>939.3333333333333</ele><time>2026-04-23T09:08:34Z</time></trkpt><trkpt lat="42.46371663480547" lon="13.217828207766063"><ele>933.6666666666666</ele><time>2026-04-23T09:08:35Z</time></trkpt><trkpt lat="42.46358710107543" lon="13.21800299560593"><ele>928.0</ele><time>2026-04-23T09:08:36Z</time></trkpt><trkpt lat="42.4634635962584" lon="13.218182373635829"><ele>928.0</ele><time>2026-04-23T09:08:37Z</time></trkpt><trkpt lat="42.46336274634365" lon="13.218357790525888"><ele>928.0</ele><time>2026-04-23T09:08:38Z</time></trkpt><trkpt lat="42.4632931094384" lon="13.218515427178104"><ele>928.0</ele><time>2026-04-23T09:08:39Z</time></trkpt><trkpt lat="42.4632535115617" lon="13.218686536707692"><ele>928.0</ele><time>2026-04-23T09:08:40Z</time></trkpt><trkpt lat="42.46324126886161" lon="13.2188705972718"><ele>927.0</ele><time>2026-04-23T09:08:41Z</time></trkpt><trkpt lat="42.46325641247645" lon="13.219063063700917"><ele>926.0</ele><time>2026-04-23T09:08:42Z</time></trkpt><trkpt lat="42.46330347100173" lon="13.219254624733376"><ele>925.0</ele><time>2026-04-23T09:08:42.999Z</time></trkpt><trkpt lat="42.46338043052421" lon="13.219414243250615"><ele>924.0</ele><time>2026-04-23T09:08:43.999Z</time></trkpt><trkpt lat="42.46348500393902" lon="13.219529346170432"><ele>924.0</ele><time>2026-04-23T09:08:44.999Z</time></trkpt><trkpt lat="42.46360081886744" lon="13.219597667623074"><ele>924.0000000000001</ele><time>2026-04-23T09:08:45.999Z</time></trkpt><trkpt lat="42.463718733507136" lon="13.219639225432768"><ele>924.0000000000001</ele><time>2026-04-23T09:08:46.999Z</time></trkpt><trkpt lat="42.46380250038138" lon="13.219675510943068"><ele>924.0</ele><time>2026-04-23T09:08:47.999Z</time></trkpt><trkpt lat="42.463847842084526" lon="13.219747457912014"><ele>924.0</ele><time>2026-04-23T09:08:48.999Z</time></trkpt><trkpt lat="42.463845803268015" lon="13.219852375219885"><ele>924.0</ele><time>2026-04-23T09:08:49.999Z</time></trkpt><trkpt lat="42.463809615046394" lon="13.219941775839775"><ele>924.0000000000001</ele><time>2026-04-23T09:08:50.999Z</time></trkpt><trkpt lat="42.46373123237793" lon="13.219994608135236"><ele>924.0000000000001</ele><time>2026-04-23T09:08:51.999Z</time></trkpt><trkpt lat="42.46362693481297" lon="13.219949176195199"><ele>924.0</ele><time>2026-04-23T09:08:52.999Z</time></trkpt><trkpt lat="42.463528841253414" lon="13.21988281372294"><ele>924.0</ele><time>2026-04-23T09:08:53.999Z</time></trkpt><trkpt lat="42.46341749323919" lon="13.219810622420882"><ele>924.0</ele><time>2026-04-23T09:08:54.999Z</time></trkpt><trkpt lat="42.4632934049864" lon="13.21975325745136"><ele>924.0</ele><time>2026-04-23T09:08:55.999Z</time></trkpt><trkpt lat="42.463189633062385" lon="13.219675408434787"><ele>924.0</ele><time>2026-04-23T09:08:56.999Z</time></trkpt><trkpt lat="42.46309986304554" lon="13.219583273694235"><ele>924.0</ele><time>2026-04-23T09:08:57.999Z</time></trkpt><trkpt lat="42.463033093285354" lon="13.219464578091202"><ele>924.0</ele><time>2026-04-23T09:08:58.999Z</time></trkpt><trkpt lat="42.46300668529757" lon="13.219314538403276"><ele>924.0000000000001</ele><time>2026-04-23T09:08:59.999Z</time></trkpt><trkpt lat="42.462966042189834" lon="13.219176201245734"><ele>924.0000000000001</ele><time>2026-04-23T09:09:00.999Z</time></trkpt><trkpt lat="42.46293505180673" lon="13.219055462705441"><ele>924.0</ele><time>2026-04-23T09:09:01.999Z</time></trkpt><trkpt lat="42.46289269229047" lon="13.218961735170838"><ele>924.0</ele><time>2026-04-23T09:09:02.999Z</time></trkpt><trkpt lat="42.46282967918032" lon="13.218925194424614"><ele>921.6</ele><time>2026-04-23T09:09:03.999Z</time></trkpt><trkpt lat="42.46276032946999" lon="13.218942194707772"><ele>919.2</ele><time>2026-04-23T09:09:04.999Z</time></trkpt><trkpt lat="42.46269090428828" lon="13.21901417744611"><ele>916.8000000000001</ele><time>2026-04-23T09:09:05.999Z</time></trkpt><trkpt lat="42.46263916211426" lon="13.219126119075275"><ele>914.4000000000001</ele><time>2026-04-23T09:09:06.999Z</time></trkpt><trkpt lat="42.462620773264504" lon="13.219277406719424"><ele>912.0</ele><time>2026-04-23T09:09:07.999Z</time></trkpt><trkpt lat="42.46262421273475" lon="13.21943278475166"><ele>910.8</ele><time>2026-04-23T09:09:08.999Z</time></trkpt><trkpt lat="42.46264357172493" lon="13.219576523030362"><ele>909.6</ele><time>2026-04-23T09:09:09.999Z</time></trkpt><trkpt lat="42.46265466866361" lon="13.219717878855425"><ele>908.3999999999999</ele><time>2026-04-23T09:09:10.999Z</time></trkpt><trkpt lat="42.462670897754265" lon="13.219855917460896"><ele>907.1999999999999</ele><time>2026-04-23T09:09:11.999Z</time></trkpt><trkpt lat="42.46270724210171" lon="13.21999269462845"><ele>906.0</ele><time>2026-04-23T09:09:12.999Z</time></trkpt><trkpt lat="42.46275248863521" lon="13.220123762863157"><ele>904.1999999999999</ele><time>2026-04-23T09:09:13.999Z</time></trkpt><trkpt lat="42.462807161447124" lon="13.220256293960038"><ele>902.3999999999999</ele><time>2026-04-23T09:09:14.999Z</time></trkpt><trkpt lat="42.46285951295765" lon="13.22037986335202"><ele>900.6</ele><time>2026-04-23T09:09:15.999Z</time></trkpt><trkpt lat="42.46289507153559" lon="13.220499845258527"><ele>898.8</ele><time>2026-04-23T09:09:16.999Z</time></trkpt><trkpt lat="42.4629138557655" lon="13.220609154446992"><ele>897.0</ele><time>2026-04-23T09:09:17.999Z</time></trkpt><trkpt lat="42.46288965832437" lon="13.220714494017958"><ele>896.3333333333334</ele><time>2026-04-23T09:09:18.999Z</time></trkpt><trkpt lat="42.46285551270994" lon="13.2207988525583"><ele>895.6666666666667</ele><time>2026-04-23T09:09:19.999Z</time></trkpt><trkpt lat="42.46281537574988" lon="13.220875038984913"><ele>895.0</ele><time>2026-04-23T09:09:20.999Z</time></trkpt><trkpt lat="42.4627445881578" lon="13.220925584775125"><ele>894.3333333333334</ele><time>2026-04-23T09:09:21.999Z</time></trkpt><trkpt lat="42.46265911045862" lon="13.22094633545385"><ele>893.6666666666667</ele><time>2026-04-23T09:09:22.999Z</time></trkpt><trkpt lat="42.462576010824655" lon="13.220928701890072"><ele>893.0</ele><time>2026-04-23T09:09:23.999Z</time></trkpt><trkpt lat="42.462499197966444" lon="13.220873604281595"><ele>893.0000000000001</ele><time>2026-04-23T09:09:24.999Z</time></trkpt><trkpt lat="42.46244177249291" lon="13.220791631535723"><ele>893.0</ele><time>2026-04-23T09:09:25.999Z</time></trkpt><trkpt lat="42.462399282943295" lon="13.220702394495111"><ele>893.0</ele><time>2026-04-23T09:09:26.999Z</time></trkpt><trkpt lat="42.462355188414506" lon="13.220626104228263"><ele>893.0</ele><time>2026-04-23T09:09:27.999Z</time></trkpt><trkpt lat="42.46232234572901" lon="13.220539819890032"><ele>893.0000000000001</ele><time>2026-04-23T09:09:28.999Z</time></trkpt><trkpt lat="42.46226987639557" lon="13.220465910343927"><ele>893.0</ele><time>2026-04-23T09:09:29.999Z</time></trkpt><trkpt lat="42.46220263601591" lon="13.220402602935746"><ele>892.1666666666667</ele><time>2026-04-23T09:09:30.999Z</time></trkpt><trkpt lat="42.46211470861872" lon="13.220369127651606"><ele>891.3333333333334</ele><time>2026-04-23T09:09:31.999Z</time></trkpt><trkpt lat="42.462034874110344" lon="13.220326492540808"><ele>890.5</ele><time>2026-04-23T09:09:32.999Z</time></trkpt><trkpt lat="42.46195367588567" lon="13.220304121099124"><ele>889.6666666666667</ele><time>2026-04-23T09:09:33.999Z</time></trkpt><trkpt lat="42.461868419565164" lon="13.220376878314578"><ele>888.8333333333334</ele><time>2026-04-23T09:09:35Z</time></trkpt><trkpt lat="42.46179864470933" lon="13.220443436044727"><ele>888.0</ele><time>2026-04-23T09:09:36Z</time></trkpt><trkpt lat="42.46175180683019" lon="13.220531304038563"><ele>888.0</ele><time>2026-04-23T09:09:37Z</time></trkpt><trkpt lat="42.46171200775751" lon="13.220645536887714"><ele>888.0</ele><time>2026-04-23T09:09:38Z</time></trkpt><trkpt lat="42.4616696634103" lon="13.220779392715519"><ele>888.0</ele><time>2026-04-23T09:09:39Z</time></trkpt><trkpt lat="42.461602542698714" lon="13.220895274385446"><ele>888.0</ele><time>2026-04-23T09:09:40Z</time></trkpt><trkpt lat="42.461552652970106" lon="13.221014816962757"><ele>888.0</ele><time>2026-04-23T09:09:41Z</time></trkpt><trkpt lat="42.46149960662064" lon="13.221128615530343"><ele>886.3333333333333</ele><time>2026-04-23T09:09:42Z</time></trkpt><trkpt lat="42.46137904902827" lon="13.221387559786663"><ele>884.6666666666666</ele><time>2026-04-23T09:09:44Z</time></trkpt><trkpt lat="42.46128070559862" lon="13.221505690909499"><ele>883.0</ele><time>2026-04-23T09:09:45Z</time></trkpt><trkpt lat="42.46118772836793" lon="13.221629755106203"><ele>881.0</ele><time>2026-04-23T09:09:46Z</time></trkpt><trkpt lat="42.46109204120049" lon="13.221758313772808"><ele>879.0</ele><time>2026-04-23T09:09:47Z</time></trkpt><trkpt lat="42.46099513676459" lon="13.221893138815489"><ele>877.0</ele><time>2026-04-23T09:09:48Z</time></trkpt><trkpt lat="42.460905865026845" lon="13.222019174963055"><ele>875.0</ele><time>2026-04-23T09:09:49Z</time></trkpt><trkpt lat="42.46081972353285" lon="13.222143013436446"><ele>875.0</ele><time>2026-04-23T09:09:50Z</time></trkpt><trkpt lat="42.460738037570785" lon="13.22226451581589"><ele>875.0</ele><time>2026-04-23T09:09:51Z</time></trkpt><trkpt lat="42.46065454148494" lon="13.22238197188642"><ele>875.0</ele><time>2026-04-23T09:09:52Z</time></trkpt><trkpt lat="42.46058107576847" lon="13.222531484531476"><ele>875.0</ele><time>2026-04-23T09:09:53Z</time></trkpt><trkpt lat="42.46050355815592" lon="13.222686543324125"><ele>873.3333333333334</ele><time>2026-04-23T09:09:54Z</time></trkpt><trkpt lat="42.46043190250192" lon="13.222868123581549"><ele>871.6666666666667</ele><time>2026-04-23T09:09:55Z</time></trkpt><trkpt lat="42.46036283924148" lon="13.223065937329444"><ele>870.0</ele><time>2026-04-23T09:09:56Z</time></trkpt><trkpt lat="42.460293866108486" lon="13.223262222902964"><ele>870.0</ele><time>2026-04-23T09:09:57Z</time></trkpt><trkpt lat="42.460222296777474" lon="13.22344635706309"><ele>870.0</ele><time>2026-04-23T09:09:58Z</time></trkpt><trkpt lat="42.460139585750106" lon="13.223615078169928"><ele>870.0</ele><time>2026-04-23T09:09:59Z</time></trkpt><trkpt lat="42.460019241629766" lon="13.223721024557376"><ele>870.0</ele><time>2026-04-23T09:10:00Z</time></trkpt><trkpt lat="42.45990534442623" lon="13.223823170086947"><ele>870.0</ele><time>2026-04-23T09:10:01Z</time></trkpt><trkpt lat="42.45978979382596" lon="13.223923532180708"><ele>870.0</ele><time>2026-04-23T09:10:02Z</time></trkpt><trkpt lat="42.45968702599997" lon="13.224019050575658"><ele>870.0</ele><time>2026-04-23T09:10:03Z</time></trkpt><trkpt lat="42.45959760244121" lon="13.224116479241056"><ele>870.0</ele><time>2026-04-23T09:10:04Z</time></trkpt><trkpt lat="42.459523460102005" lon="13.224209268978573"><ele>869.7142857142858</ele><time>2026-04-23T09:10:05Z</time></trkpt><trkpt lat="42.45945999608398" lon="13.224293983568868"><ele>869.4285714285714</ele><time>2026-04-23T09:10:06Z</time></trkpt><trkpt lat="42.45940738302056" lon="13.224371944906704"><ele>869.1428571428571</ele><time>2026-04-23T09:10:07Z</time></trkpt><trkpt lat="42.459359616920295" lon="13.224442724884561"><ele>868.8571428571429</ele><time>2026-04-23T09:10:08Z</time></trkpt><trkpt lat="42.45930901895126" lon="13.224494378948474"><ele>868.5714285714286</ele><time>2026-04-23T09:10:09Z</time></trkpt><trkpt lat="42.45925790586829" lon="13.224552055601036"><ele>868.2857142857143</ele><time>2026-04-23T09:10:10Z</time></trkpt><trkpt lat="42.45922012131805" lon="13.224625920653159"><ele>868.0</ele><time>2026-04-23T09:10:11Z</time></trkpt><trkpt lat="42.45916617058152" lon="13.224703946189683"><ele>867.75</ele><time>2026-04-23T09:10:12Z</time></trkpt><trkpt lat="42.45905716504436" lon="13.224885711786118"><ele>867.5</ele><time>2026-04-23T09:10:14Z</time></trkpt><trkpt lat="42.458998555337445" lon="13.224983777126003"><ele>867.25</ele><time>2026-04-23T09:10:15Z</time></trkpt><trkpt lat="42.45891783977343" lon="13.225075056469626"><ele>867.0</ele><time>2026-04-23T09:10:16Z</time></trkpt><trkpt lat="42.45885589416176" lon="13.225183777442389"><ele>867.0</ele><time>2026-04-23T09:10:17Z</time></trkpt><trkpt lat="42.45881065842285" lon="13.225308158945795"><ele>867.0</ele><time>2026-04-23T09:10:18Z</time></trkpt><trkpt lat="42.458749849492996" lon="13.225441424621756"><ele>867.0</ele><time>2026-04-23T09:10:19Z</time></trkpt><trkpt lat="42.45869767086548" lon="13.225589153571793"><ele>867.0</ele><time>2026-04-23T09:10:20Z</time></trkpt><trkpt lat="42.45864509147763" lon="13.22574802781056"><ele>866.0</ele><time>2026-04-23T09:10:21Z</time></trkpt><trkpt lat="42.458594518711955" lon="13.225911632720546"><ele>865.0</ele><time>2026-04-23T09:10:22Z</time></trkpt><trkpt lat="42.458541577623826" lon="13.226073146247732"><ele>864.0</ele><time>2026-04-23T09:10:23Z</time></trkpt><trkpt lat="42.45848173624828" lon="13.226223960179139"><ele>863.0</ele><time>2026-04-23T09:10:24Z</time></trkpt><trkpt lat="42.45840346772763" lon="13.226359618606415"><ele>863.25</ele><time>2026-04-23T09:10:25Z</time></trkpt><trkpt lat="42.458315795579274" lon="13.226504384301462"><ele>863.5</ele><time>2026-04-23T09:10:26Z</time></trkpt><trkpt lat="42.45821698601702" lon="13.22665048172237"><ele>863.75</ele><time>2026-04-23T09:10:27Z</time></trkpt><trkpt lat="42.45811318240877" lon="13.226796716987153"><ele>864.0</ele><time>2026-04-23T09:10:28Z</time></trkpt><trkpt lat="42.45799375212485" lon="13.22691826591312"><ele>862.75</ele><time>2026-04-23T09:10:29Z</time></trkpt><trkpt lat="42.457904844228395" lon="13.227069782227241"><ele>861.5</ele><time>2026-04-23T09:10:30Z</time></trkpt><trkpt lat="42.457815217604555" lon="13.227206186534234"><ele>860.25</ele><time>2026-04-23T09:10:31Z</time></trkpt><trkpt lat="42.45772196870333" lon="13.227322631603181"><ele>859.0</ele><time>2026-04-23T09:10:32Z</time></trkpt><trkpt lat="42.45762938019134" lon="13.22743173918106"><ele>859.0</ele><time>2026-04-23T09:10:33Z</time></trkpt><trkpt lat="42.45752086136869" lon="13.227533509014123"><ele>859.0</ele><time>2026-04-23T09:10:34Z</time></trkpt><trkpt lat="42.457402333483174" lon="13.227623542653852"><ele>859.0</ele><time>2026-04-23T09:10:35Z</time></trkpt><trkpt lat="42.45728688767009" lon="13.22772972069744"><ele>859.0</ele><time>2026-04-23T09:10:36Z</time></trkpt><trkpt lat="42.45719570533203" lon="13.227858727887718"><ele>857.75</ele><time>2026-04-23T09:10:37Z</time></trkpt><trkpt lat="42.45709779431251" lon="13.22798724251346"><ele>856.5</ele><time>2026-04-23T09:10:38Z</time></trkpt><trkpt lat="42.45698194557706" lon="13.22810046328979"><ele>855.25</ele><time>2026-04-23T09:10:39Z</time></trkpt><trkpt lat="42.45689148726261" lon="13.228254724905055"><ele>854.0</ele><time>2026-04-23T09:10:40Z</time></trkpt><trkpt lat="42.456796151735226" lon="13.228407602039391"><ele>854.0</ele><time>2026-04-23T09:10:41Z</time></trkpt><trkpt lat="42.45671850373201" lon="13.228566499773226"><ele>854.0</ele><time>2026-04-23T09:10:42Z</time></trkpt><trkpt lat="42.456652010114" lon="13.228729554732158"><ele>854.0</ele><time>2026-04-23T09:10:43Z</time></trkpt><trkpt lat="42.4565877707571" lon="13.228899101716532"><ele>854.0</ele><time>2026-04-23T09:10:44Z</time></trkpt><trkpt lat="42.45650897846926" lon="13.229063076921895"><ele>853.3333333333334</ele><time>2026-04-23T09:10:45Z</time></trkpt><trkpt lat="42.456419994830334" lon="13.229226474137521"><ele>852.6666666666667</ele><time>2026-04-23T09:10:46Z</time></trkpt><trkpt lat="42.45632482257743" lon="13.229380513800502"><ele>852.0</ele><time>2026-04-23T09:10:47Z</time></trkpt><trkpt lat="42.456225028364294" lon="13.229535588464845"><ele>851.75</ele><time>2026-04-23T09:10:48Z</time></trkpt><trkpt lat="42.45611565915328" lon="13.229662206632911"><ele>851.5</ele><time>2026-04-23T09:10:49Z</time></trkpt><trkpt lat="42.45601702872517" lon="13.229792290091519"><ele>851.25</ele><time>2026-04-23T09:10:50Z</time></trkpt><trkpt lat="42.45592385248145" lon="13.22990183468498"><ele>851.0</ele><time>2026-04-23T09:10:51Z</time></trkpt><trkpt lat="42.45584069647909" lon="13.229996416867754"><ele>850.8333333333334</ele><time>2026-04-23T09:10:52Z</time></trkpt><trkpt lat="42.455772097049255" lon="13.230075143439471"><ele>850.6666666666667</ele><time>2026-04-23T09:10:53Z</time></trkpt><trkpt lat="42.45572189813933" lon="13.230154612213203"><ele>850.5</ele><time>2026-04-23T09:10:54Z</time></trkpt><trkpt lat="42.45564384906322" lon="13.230212747603623"><ele>850.3333333333333</ele><time>2026-04-23T09:10:56Z</time></trkpt><trkpt lat="42.455572981368825" lon="13.230200987221894"><ele>850.1666666666666</ele><time>2026-04-23T09:10:57.999Z</time></trkpt><trkpt lat="42.45551817228962" lon="13.230156415327482"><ele>850.0</ele><time>2026-04-23T09:10:58.999Z</time></trkpt><trkpt lat="42.45545095776666" lon="13.230087771425044"><ele>849.8</ele><time>2026-04-23T09:10:59.999Z</time></trkpt><trkpt lat="42.455398478616296" lon="13.230010092594444"><ele>849.6</ele><time>2026-04-23T09:11:00.999Z</time></trkpt><trkpt lat="42.45534474901764" lon="13.229914496794667"><ele>849.4000000000001</ele><time>2026-04-23T09:11:01.999Z</time></trkpt><trkpt lat="42.455288038739646" lon="13.22978820062401"><ele>849.2</ele><time>2026-04-23T09:11:02.999Z</time></trkpt><trkpt lat="42.455237649742315" lon="13.22966442016759"><ele>849.0</ele><time>2026-04-23T09:11:03.999Z</time></trkpt><trkpt lat="42.45518278482802" lon="13.229526828832968"><ele>849.0</ele><time>2026-04-23T09:11:04.999Z</time></trkpt><trkpt lat="42.45512184157575" lon="13.229382072961165"><ele>849.0</ele><time>2026-04-23T09:11:05.999Z</time></trkpt><trkpt lat="42.45505303574955" lon="13.229226263289762"><ele>849.0</ele><time>2026-04-23T09:11:06.999Z</time></trkpt><trkpt lat="42.45498121943229" lon="13.229061741401496"><ele>849.0</ele><time>2026-04-23T09:11:07.999Z</time></trkpt><trkpt lat="42.454912027188506" lon="13.228891945218171"><ele>848.75</ele><time>2026-04-23T09:11:08.999Z</time></trkpt><trkpt lat="42.45484634673326" lon="13.2287258608542"><ele>848.5</ele><time>2026-04-23T09:11:09.999Z</time></trkpt><trkpt lat="42.454782448534445" lon="13.22856472639258"><ele>848.25</ele><time>2026-04-23T09:11:10.999Z</time></trkpt><trkpt lat="42.45472011053015" lon="13.228402012636229"><ele>848.0</ele><time>2026-04-23T09:11:11.999Z</time></trkpt><trkpt lat="42.454663351415476" lon="13.228241173195286"><ele>847.4</ele><time>2026-04-23T09:11:12.999Z</time></trkpt><trkpt lat="42.454619399734604" lon="13.228090135312652"><ele>846.8</ele><time>2026-04-23T09:11:13.999Z</time></trkpt><trkpt lat="42.45458272767231" lon="13.22796731274902"><ele>846.2</ele><time>2026-04-23T09:11:14.999Z</time></trkpt><trkpt lat="42.454551012221486" lon="13.227872327540883"><ele>845.6</ele><time>2026-04-23T09:11:15.999Z</time></trkpt><trkpt lat="42.454507952837204" lon="13.227740730201239"><ele>845.0</ele><time>2026-04-23T09:11:17.999Z</time></trkpt><trkpt lat="42.4543396911178" lon="13.22783353250303"><ele>845.0</ele><time>2026-04-23T09:11:19.999Z</time></trkpt><trkpt lat="42.454145503507526" lon="13.227963346725138"><ele>845.0</ele><time>2026-04-23T09:11:21.999Z</time></trkpt><trkpt lat="42.45403030068849" lon="13.228047787006634"><ele>845.0</ele><time>2026-04-23T09:11:22.999Z</time></trkpt><trkpt lat="42.45390681072545" lon="13.22813830168817"><ele>844.5</ele><time>2026-04-23T09:11:23.999Z</time></trkpt><trkpt lat="42.45377156857414" lon="13.2282374301819"><ele>844.0</ele><time>2026-04-23T09:11:24.999Z</time></trkpt><trkpt lat="42.453641294098475" lon="13.228332917679289"><ele>843.5</ele><time>2026-04-23T09:11:25.999Z</time></trkpt><trkpt lat="42.45352302170541" lon="13.228418652038231"><ele>843.0</ele><time>2026-04-23T09:11:26.999Z</time></trkpt><trkpt lat="42.45341434800793" lon="13.228496897141579"><ele>843.0</ele><time>2026-04-23T09:11:27.999Z</time></trkpt><trkpt lat="42.453317911767556" lon="13.228578409231861"><ele>843.0</ele><time>2026-04-23T09:11:28.999Z</time></trkpt><trkpt lat="42.45323823125388" lon="13.2286770332323"><ele>843.0</ele><time>2026-04-23T09:11:29.999Z</time></trkpt><trkpt lat="42.4532148571808" lon="13.228807931093945"><ele>843.0</ele><time>2026-04-23T09:11:30.999Z</time></trkpt><trkpt lat="42.45320719809599" lon="13.228933369040387"><ele>843.0</ele><time>2026-04-23T09:11:31.999Z</time></trkpt><trkpt lat="42.453226711866755" lon="13.229073407925949"><ele>842.75</ele><time>2026-04-23T09:11:32.999Z</time></trkpt><trkpt lat="42.45327346862169" lon="13.229235434290288"><ele>842.5</ele><time>2026-04-23T09:11:33.999Z</time></trkpt><trkpt lat="42.453323960925154" lon="13.22941012958232"><ele>842.25</ele><time>2026-04-23T09:11:34.999Z</time></trkpt><trkpt lat="42.453377335559026" lon="13.229595154971761"><ele>842.0</ele><time>2026-04-23T09:11:35.999Z</time></trkpt><trkpt lat="42.4534338317976" lon="13.229795229041134"><ele>841.25</ele><time>2026-04-23T09:11:36.999Z</time></trkpt><trkpt lat="42.45348488036902" lon="13.229987117503445"><ele>840.5</ele><time>2026-04-23T09:11:37.999Z</time></trkpt><trkpt lat="42.453531291937765" lon="13.230177622820872"><ele>839.75</ele><time>2026-04-23T09:11:38.999Z</time></trkpt><trkpt lat="42.45358062236666" lon="13.230366991396304"><ele>839.0</ele><time>2026-04-23T09:11:40Z</time></trkpt><trkpt lat="42.45362793799002" lon="13.230548918341233"><ele>839.75</ele><time>2026-04-23T09:11:41Z</time></trkpt><trkpt lat="42.45367197298838" lon="13.230713017618468"><ele>840.5</ele><time>2026-04-23T09:11:42Z</time></trkpt><trkpt lat="42.45370734355642" lon="13.230873670138552"><ele>841.25</ele><time>2026-04-23T09:11:43Z</time></trkpt><trkpt lat="42.453695455669155" lon="13.23103241044622"><ele>842.0</ele><time>2026-04-23T09:11:44Z</time></trkpt><trkpt lat="42.45367492847144" lon="13.231191804272266"><ele>842.0</ele><time>2026-04-23T09:11:45Z</time></trkpt><trkpt lat="42.453629146175885" lon="13.231356239699647"><ele>842.0</ele><time>2026-04-23T09:11:46Z</time></trkpt><trkpt lat="42.4535541545409" lon="13.23151755125869"><ele>842.0</ele><time>2026-04-23T09:11:47Z</time></trkpt><trkpt lat="42.45348078494275" lon="13.231690572907306"><ele>842.0</ele><time>2026-04-23T09:11:48Z</time></trkpt><trkpt lat="42.45342048889188" lon="13.231876528435762"><ele>842.3333333333334</ele><time>2026-04-23T09:11:49Z</time></trkpt><trkpt lat="42.45332701340868" lon="13.232046910317798"><ele>842.6666666666667</ele><time>2026-04-23T09:11:50Z</time></trkpt><trkpt lat="42.45324381078539" lon="13.232230838757687"><ele>843.0</ele><time>2026-04-23T09:11:51Z</time></trkpt><trkpt lat="42.45316272692031" lon="13.232414444582108"><ele>843.0</ele><time>2026-04-23T09:11:52Z</time></trkpt><trkpt lat="42.45308308220078" lon="13.232610859371995"><ele>843.0</ele><time>2026-04-23T09:11:53Z</time></trkpt><trkpt lat="42.4530157764249" lon="13.232801146218666"><ele>843.0</ele><time>2026-04-23T09:11:54Z</time></trkpt><trkpt lat="42.452960229464104" lon="13.232995740258945"><ele>843.25</ele><time>2026-04-23T09:11:55Z</time></trkpt><trkpt lat="42.452887482074686" lon="13.233176869410919"><ele>843.5</ele><time>2026-04-23T09:11:56Z</time></trkpt><trkpt lat="42.45282191621145" lon="13.233344107437983"><ele>843.75</ele><time>2026-04-23T09:11:57Z</time></trkpt><trkpt lat="42.45275598815459" lon="13.233491003364465"><ele>844.0</ele><time>2026-04-23T09:11:58Z</time></trkpt><trkpt lat="42.45270215770137" lon="13.233632940735873"><ele>844.0</ele><time>2026-04-23T09:11:59Z</time></trkpt><trkpt lat="42.45263238430156" lon="13.233740293587388"><ele>844.0</ele><time>2026-04-23T09:12:00Z</time></trkpt><trkpt lat="42.45255073842161" lon="13.233813012384509"><ele>844.0</ele><time>2026-04-23T09:12:01Z</time></trkpt><trkpt lat="42.4524566460903" lon="13.233849557091029"><ele>844.0</ele><time>2026-04-23T09:12:02Z</time></trkpt><trkpt lat="42.45234083980572" lon="13.233817894766641"><ele>844.0</ele><time>2026-04-23T09:12:03Z</time></trkpt><trkpt lat="42.45222199494189" lon="13.233806890188934"><ele>844.0</ele><time>2026-04-23T09:12:04Z</time></trkpt><trkpt lat="42.452084667740905" lon="13.233792784973113"><ele>844.0</ele><time>2026-04-23T09:12:05Z</time></trkpt><trkpt lat="42.45193856565444" lon="13.233779703116237"><ele>844.0</ele><time>2026-04-23T09:12:06Z</time></trkpt><trkpt lat="42.45178838291389" lon="13.233773434714795"><ele>844.0</ele><time>2026-04-23T09:12:07Z</time></trkpt><trkpt lat="42.4516351316817" lon="13.233768899986131"><ele>844.0</ele><time>2026-04-23T09:12:08Z</time></trkpt><trkpt lat="42.451480440742145" lon="13.233741412989756"><ele>844.0</ele><time>2026-04-23T09:12:09Z</time></trkpt><trkpt lat="42.45131624916784" lon="13.233780149707636"><ele>844.0</ele><time>2026-04-23T09:12:10Z</time></trkpt><trkpt lat="42.45115499836089" lon="13.233823157869097"><ele>845.6666666666666</ele><time>2026-04-23T09:12:11Z</time></trkpt><trkpt lat="42.45098164237755" lon="13.233883928812045"><ele>847.3333333333333</ele><time>2026-04-23T09:12:12Z</time></trkpt><trkpt lat="42.45080586144392" lon="13.233961729866419"><ele>849.0</ele><time>2026-04-23T09:12:13Z</time></trkpt><trkpt lat="42.450622710594764" lon="13.234048391634337"><ele>851.3333333333333</ele><time>2026-04-23T09:12:14Z</time></trkpt><trkpt lat="42.450438196683535" lon="13.234116878195458"><ele>853.6666666666666</ele><time>2026-04-23T09:12:15Z</time></trkpt><trkpt lat="42.45025995021418" lon="13.23420016965963"><ele>856.0</ele><time>2026-04-23T09:12:16Z</time></trkpt><trkpt lat="42.45009232154823" lon="13.234283154372507"><ele>856.0</ele><time>2026-04-23T09:12:17Z</time></trkpt><trkpt lat="42.44994936786171" lon="13.234376168556555"><ele>856.0</ele><time>2026-04-23T09:12:18Z</time></trkpt><trkpt lat="42.44983393124153" lon="13.234499496786789"><ele>856.0</ele><time>2026-04-23T09:12:19Z</time></trkpt><trkpt lat="42.44973467109874" lon="13.234673505992195"><ele>858.0</ele><time>2026-04-23T09:12:20Z</time></trkpt><trkpt lat="42.44963783347429" lon="13.23486855347277"><ele>860.0</ele><time>2026-04-23T09:12:21Z</time></trkpt><trkpt lat="42.449546558967974" lon="13.235072649820525"><ele>862.0</ele><time>2026-04-23T09:12:22Z</time></trkpt><trkpt lat="42.44945245107408" lon="13.235287333514039"><ele>862.0</ele><time>2026-04-23T09:12:23Z</time></trkpt><trkpt lat="42.449359066013464" lon="13.235503139582228"><ele>862.0</ele><time>2026-04-23T09:12:24Z</time></trkpt><trkpt lat="42.44926787099583" lon="13.23570343740867"><ele>862.0</ele><time>2026-04-23T09:12:25Z</time></trkpt><trkpt lat="42.44915279827564" lon="13.235870348496052"><ele>863.3333333333333</ele><time>2026-04-23T09:12:26Z</time></trkpt><trkpt lat="42.449023756486895" lon="13.23603238546412"><ele>864.6666666666667</ele><time>2026-04-23T09:12:27Z</time></trkpt><trkpt lat="42.4488847006577" lon="13.236194334216542"><ele>866.0</ele><time>2026-04-23T09:12:28Z</time></trkpt><trkpt lat="42.44874121014304" lon="13.236350470798142"><ele>869.3333333333334</ele><time>2026-04-23T09:12:29Z</time></trkpt><trkpt lat="42.44861646398765" lon="13.236529493958887"><ele>872.6666666666667</ele><time>2026-04-23T09:12:30Z</time></trkpt><trkpt lat="42.448488389542426" lon="13.236708197007854"><ele>876.0</ele><time>2026-04-23T09:12:31Z</time></trkpt><trkpt lat="42.44836445301754" lon="13.236908400601783"><ele>876.0</ele><time>2026-04-23T09:12:32Z</time></trkpt><trkpt lat="42.448248881014734" lon="13.237118527664247"><ele>876.0</ele><time>2026-04-23T09:12:33Z</time></trkpt><trkpt lat="42.44812648007236" lon="13.237329832841086"><ele>876.0</ele><time>2026-04-23T09:12:34Z</time></trkpt><trkpt lat="42.4479986799673" lon="13.237541493619604"><ele>878.3333333333333</ele><time>2026-04-23T09:12:35Z</time></trkpt><trkpt lat="42.44786296559073" lon="13.237739350915618"><ele>880.6666666666666</ele><time>2026-04-23T09:12:36Z</time></trkpt><trkpt lat="42.44771918843629" lon="13.237919183641951"><ele>883.0</ele><time>2026-04-23T09:12:37Z</time></trkpt><trkpt lat="42.447552169552665" lon="13.238050733057769"><ele>885.3333333333333</ele><time>2026-04-23T09:12:38Z</time></trkpt><trkpt lat="42.4473878214927" lon="13.238195421208502"><ele>887.6666666666667</ele><time>2026-04-23T09:12:39Z</time></trkpt><trkpt lat="42.44722038859567" lon="13.238343868706716"><ele>890.0</ele><time>2026-04-23T09:12:40Z</time></trkpt><trkpt lat="42.44708575189796" lon="13.23854308214684"><ele>891.0</ele><time>2026-04-23T09:12:41Z</time></trkpt><trkpt lat="42.44694795416899" lon="13.238736280142486"><ele>892.0</ele><time>2026-04-23T09:12:42Z</time></trkpt><trkpt lat="42.44681407233932" lon="13.238933268366234"><ele>893.0</ele><time>2026-04-23T09:12:43Z</time></trkpt><trkpt lat="42.4466688900751" lon="13.239116880740628"><ele>894.0</ele><time>2026-04-23T09:12:44Z</time></trkpt><trkpt lat="42.446542597662024" lon="13.239321356718579"><ele>895.0</ele><time>2026-04-23T09:12:45Z</time></trkpt><trkpt lat="42.44642744400541" lon="13.239531074555853"><ele>896.0</ele><time>2026-04-23T09:12:46Z</time></trkpt><trkpt lat="42.44632056155354" lon="13.23974873541111"><ele>895.3333333333334</ele><time>2026-04-23T09:12:47Z</time></trkpt><trkpt lat="42.44621690724931" lon="13.239972824834126"><ele>894.6666666666667</ele><time>2026-04-23T09:12:48Z</time></trkpt><trkpt lat="42.44610643682115" lon="13.24019591625645"><ele>894.0</ele><time>2026-04-23T09:12:49Z</time></trkpt><trkpt lat="42.44599265134752" lon="13.240424559172427"><ele>894.0</ele><time>2026-04-23T09:12:50Z</time></trkpt><trkpt lat="42.44588310731803" lon="13.240656384224314"><ele>894.0</ele><time>2026-04-23T09:12:51Z</time></trkpt><trkpt lat="42.44577761187779" lon="13.240866669448852"><ele>894.0</ele><time>2026-04-23T09:12:52Z</time></trkpt><trkpt lat="42.44565901786568" lon="13.241066633854535"><ele>894.0</ele><time>2026-04-23T09:12:53Z</time></trkpt><trkpt lat="42.445515932067664" lon="13.241229468089768"><ele>894.0</ele><time>2026-04-23T09:12:54Z</time></trkpt><trkpt lat="42.445345395012374" lon="13.241346059075127"><ele>894.0</ele><time>2026-04-23T09:12:55Z</time></trkpt><trkpt lat="42.4451656163014" lon="13.241461152172656"><ele>897.0</ele><time>2026-04-23T09:12:56Z</time></trkpt><trkpt lat="42.444982173765496" lon="13.241576495027056"><ele>900.0</ele><time>2026-04-23T09:12:57Z</time></trkpt><trkpt lat="42.4448019437995" lon="13.241689072579108"><ele>903.0</ele><time>2026-04-23T09:12:58Z</time></trkpt><trkpt lat="42.444617255099885" lon="13.24180116202159"><ele>903.6666666666667</ele><time>2026-04-23T09:12:59Z</time></trkpt><trkpt lat="42.44443290493915" lon="13.241904727753836"><ele>904.3333333333334</ele><time>2026-04-23T09:13:00Z</time></trkpt><trkpt lat="42.44423475553259" lon="13.242002614217071"><ele>905.0</ele><time>2026-04-23T09:13:01Z</time></trkpt><trkpt lat="42.44404247481392" lon="13.242081868761085"><ele>905.0</ele><time>2026-04-23T09:13:02Z</time></trkpt><trkpt lat="42.44384702095823" lon="13.242157987572114"><ele>905.0</ele><time>2026-04-23T09:13:03Z</time></trkpt><trkpt lat="42.443650208096955" lon="13.242233878245608"><ele>905.0</ele><time>2026-04-23T09:13:04Z</time></trkpt><trkpt lat="42.443453000049075" lon="13.2423004788869"><ele>909.6666666666667</ele><time>2026-04-23T09:13:05Z</time></trkpt><trkpt lat="42.44325840404405" lon="13.242344106437963"><ele>914.3333333333333</ele><time>2026-04-23T09:13:06Z</time></trkpt><trkpt lat="42.4430750057803" lon="13.242371377527375"><ele>919.0</ele><time>2026-04-23T09:13:06.999Z</time></trkpt><trkpt lat="42.44290804131996" lon="13.2423863261027"><ele>919.0</ele><time>2026-04-23T09:13:07.999Z</time></trkpt><trkpt lat="42.44275843718178" lon="13.242387729066582"><ele>919.0</ele><time>2026-04-23T09:13:08.999Z</time></trkpt><trkpt lat="42.442634206106945" lon="13.242374414796437"><ele>919.0</ele><time>2026-04-23T09:13:09.999Z</time></trkpt><trkpt lat="42.442549023348946" lon="13.242315496951283"><ele>919.0</ele><time>2026-04-23T09:13:10.999Z</time></trkpt><trkpt lat="42.4424848531267" lon="13.242191829591276"><ele>919.0</ele><time>2026-04-23T09:13:11.999Z</time></trkpt><trkpt lat="42.442396111826596" lon="13.242055748295787"><ele>919.0</ele><time>2026-04-23T09:13:12.999Z</time></trkpt><trkpt lat="42.44229168768293" lon="13.241903595810273"><ele>919.0</ele><time>2026-04-23T09:13:13.999Z</time></trkpt><trkpt lat="42.442187218799994" lon="13.241747081900858"><ele>919.0</ele><time>2026-04-23T09:13:14.999Z</time></trkpt><trkpt lat="42.44208782967327" lon="13.241608792157734"><ele>921.8333333333333</ele><time>2026-04-23T09:13:15.999Z</time></trkpt><trkpt lat="42.44199098060993" lon="13.241517690355487"><ele>924.6666666666666</ele><time>2026-04-23T09:13:16.999Z</time></trkpt><trkpt lat="42.44190843491827" lon="13.24148128520943"><ele>927.5</ele><time>2026-04-23T09:13:17.999Z</time></trkpt><trkpt lat="42.44184407303038" lon="13.241483010040916"><ele>930.3333333333333</ele><time>2026-04-23T09:13:18.999Z</time></trkpt><trkpt lat="42.44178322087222" lon="13.241552409051083"><ele>933.1666666666666</ele><time>2026-04-23T09:13:19.999Z</time></trkpt><trkpt lat="42.44176160892999" lon="13.24166375337403"><ele>936.0</ele><time>2026-04-23T09:13:20.999Z</time></trkpt><trkpt lat="42.44179484999537" lon="13.241784495952434"><ele>936.0</ele><time>2026-04-23T09:13:21.999Z</time></trkpt><trkpt lat="42.441830956304834" lon="13.241929823331446"><ele>936.0</ele><time>2026-04-23T09:13:22.999Z</time></trkpt><trkpt lat="42.44187300899225" lon="13.242105542259184"><ele>936.0</ele><time>2026-04-23T09:13:23.999Z</time></trkpt><trkpt lat="42.44187190498275" lon="13.242291535926219"><ele>936.0</ele><time>2026-04-23T09:13:24.999Z</time></trkpt><trkpt lat="42.441878878118054" lon="13.242489847161137"><ele>938.3333333333333</ele><time>2026-04-23T09:13:25.999Z</time></trkpt><trkpt lat="42.44187659679588" lon="13.242698852076225"><ele>940.6666666666666</ele><time>2026-04-23T09:13:26.999Z</time></trkpt><trkpt lat="42.44187544746985" lon="13.242926234187145"><ele>943.0</ele><time>2026-04-23T09:13:27.999Z</time></trkpt><trkpt lat="42.44189298970259" lon="13.243158360004088"><ele>944.0</ele><time>2026-04-23T09:13:28.999Z</time></trkpt><trkpt lat="42.441871632569764" lon="13.243369621366238"><ele>945.0</ele><time>2026-04-23T09:13:29.999Z</time></trkpt><trkpt lat="42.44185715132803" lon="13.243547578456623"><ele>946.0</ele><time>2026-04-23T09:13:30.999Z</time></trkpt><trkpt lat="42.44182032512592" lon="13.24369917541731"><ele>947.0</ele><time>2026-04-23T09:13:31.999Z</time></trkpt><trkpt lat="42.44175970776386" lon="13.243822094235451"><ele>947.0</ele><time>2026-04-23T09:13:32.999Z</time></trkpt><trkpt lat="42.441680329966424" lon="13.243923326073983"><ele>947.0</ele><time>2026-04-23T09:13:33.999Z</time></trkpt><trkpt lat="42.44159057266668" lon="13.244023426268901"><ele>947.0</ele><time>2026-04-23T09:13:34.999Z</time></trkpt><trkpt lat="42.4414872797052" lon="13.244125651715551"><ele>947.0</ele><time>2026-04-23T09:13:35.999Z</time></trkpt><trkpt lat="42.44137320157607" lon="13.244230826041532"><ele>947.0</ele><time>2026-04-23T09:13:36.999Z</time></trkpt><trkpt lat="42.441251190173524" lon="13.24434296148814"><ele>947.0</ele><time>2026-04-23T09:13:37.999Z</time></trkpt><trkpt lat="42.44112561237164" lon="13.244460146661343"><ele>947.0</ele><time>2026-04-23T09:13:38.999Z</time></trkpt><trkpt lat="42.44100087388489" lon="13.244591867008783"><ele>947.0</ele><time>2026-04-23T09:13:39.999Z</time></trkpt><trkpt lat="42.440884671567716" lon="13.244759242333993"><ele>947.0</ele><time>2026-04-23T09:13:40.999Z</time></trkpt><trkpt lat="42.4407689698058" lon="13.24492491012412"><ele>947.0</ele><time>2026-04-23T09:13:41.999Z</time></trkpt><trkpt lat="42.44066751274005" lon="13.245118284205882"><ele>945.0</ele><time>2026-04-23T09:13:42.999Z</time></trkpt><trkpt lat="42.440586566955304" lon="13.24533027757443"><ele>943.0</ele><time>2026-04-23T09:13:43.999Z</time></trkpt><trkpt lat="42.44052279942805" lon="13.245556769822347"><ele>941.0</ele><time>2026-04-23T09:13:44.999Z</time></trkpt><trkpt lat="42.440466994841" lon="13.245790166747705"><ele>939.6666666666667</ele><time>2026-04-23T09:13:46Z</time></trkpt><trkpt lat="42.440398325544315" lon="13.24600083187141"><ele>938.3333333333333</ele><time>2026-04-23T09:13:47Z</time></trkpt><trkpt lat="42.44034243183697" lon="13.24620613712132"><ele>937.0</ele><time>2026-04-23T09:13:48Z</time></trkpt><trkpt lat="42.44027121590637" lon="13.246401406520327"><ele>936.6666666666666</ele><time>2026-04-23T09:13:49Z</time></trkpt><trkpt lat="42.44017720309121" lon="13.2465757646188"><ele>936.3333333333333</ele><time>2026-04-23T09:13:50Z</time></trkpt><trkpt lat="42.44007473367988" lon="13.246751556325378"><ele>936.0</ele><time>2026-04-23T09:13:51Z</time></trkpt><trkpt lat="42.43996788622706" lon="13.246929766945074"><ele>936.0</ele><time>2026-04-23T09:13:52Z</time></trkpt><trkpt lat="42.43987756244242" lon="13.24711237672947"><ele>936.0</ele><time>2026-04-23T09:13:53Z</time></trkpt><trkpt lat="42.43977882537404" lon="13.247257022334479"><ele>936.0</ele><time>2026-04-23T09:13:54Z</time></trkpt><trkpt lat="42.4396616624827" lon="13.24735437018673"><ele>936.0</ele><time>2026-04-23T09:13:55Z</time></trkpt><trkpt lat="42.43953758148886" lon="13.247420262864793"><ele>932.3333333333333</ele><time>2026-04-23T09:13:56Z</time></trkpt><trkpt lat="42.43939338330925" lon="13.247474994115517"><ele>928.6666666666666</ele><time>2026-04-23T09:13:57Z</time></trkpt><trkpt lat="42.439231792316974" lon="13.247534968685239"><ele>925.0</ele><time>2026-04-23T09:13:58Z</time></trkpt><trkpt lat="42.43908039390589" lon="13.247615524992991"><ele>925.0</ele><time>2026-04-23T09:13:59Z</time></trkpt><trkpt lat="42.43892638025922" lon="13.247691829404323"><ele>925.0</ele><time>2026-04-23T09:14:00Z</time></trkpt><trkpt lat="42.438783249821554" lon="13.247801730287437"><ele>925.0</ele><time>2026-04-23T09:14:01Z</time></trkpt><trkpt lat="42.43866455278658" lon="13.24795601373113"><ele>925.3333333333333</ele><time>2026-04-23T09:14:02Z</time></trkpt><trkpt lat="42.43854798164864" lon="13.248145862325694"><ele>925.6666666666667</ele><time>2026-04-23T09:14:03Z</time></trkpt><trkpt lat="42.43842230978252" lon="13.248336345277417"><ele>926.0</ele><time>2026-04-23T09:14:04Z</time></trkpt><trkpt lat="42.43828865722094" lon="13.248520763886935"><ele>926.0</ele><time>2026-04-23T09:14:05Z</time></trkpt><trkpt lat="42.43815476117745" lon="13.248702864607377"><ele>926.0</ele><time>2026-04-23T09:14:06Z</time></trkpt><trkpt lat="42.43800912302132" lon="13.248867362959801"><ele>926.0</ele><time>2026-04-23T09:14:07Z</time></trkpt><trkpt lat="42.43786605989603" lon="13.2490477685233"><ele>927.6666666666667</ele><time>2026-04-23T09:14:08Z</time></trkpt><trkpt lat="42.4377451364699" lon="13.24926560971336"><ele>929.3333333333333</ele><time>2026-04-23T09:14:09Z</time></trkpt><trkpt lat="42.4376191169848" lon="13.249465880369474"><ele>931.0</ele><time>2026-04-23T09:14:10Z</time></trkpt><trkpt lat="42.437499404891916" lon="13.249680585438329"><ele>932.6666666666666</ele><time>2026-04-23T09:14:11Z</time></trkpt><trkpt lat="42.43736478960426" lon="13.2498749580459"><ele>934.3333333333333</ele><time>2026-04-23T09:14:12Z</time></trkpt><trkpt lat="42.437242959026456" lon="13.250085370944218"><ele>936.0</ele><time>2026-04-23T09:14:13Z</time></trkpt><trkpt lat="42.437125043241814" lon="13.250297102922444"><ele>936.6666666666667</ele><time>2026-04-23T09:14:14Z</time></trkpt><trkpt lat="42.43700630028755" lon="13.250508264534703"><ele>937.3333333333334</ele><time>2026-04-23T09:14:15Z</time></trkpt><trkpt lat="42.436882976902325" lon="13.25071452596795"><ele>938.0</ele><time>2026-04-23T09:14:16Z</time></trkpt><trkpt lat="42.43675889482016" lon="13.250916158519837"><ele>938.0</ele><time>2026-04-23T09:14:17Z</time></trkpt><trkpt lat="42.43664049704877" lon="13.251106966584066"><ele>938.0</ele><time>2026-04-23T09:14:18Z</time></trkpt><trkpt lat="42.43642524043282" lon="13.251468629465732"><ele>937.6666666666667</ele><time>2026-04-23T09:14:20Z</time></trkpt><trkpt lat="42.43635727710943" lon="13.25167346618298"><ele>937.3333333333333</ele><time>2026-04-23T09:14:21Z</time></trkpt><trkpt lat="42.436302935582894" lon="13.251879037128733"><ele>937.0</ele><time>2026-04-23T09:14:22Z</time></trkpt><trkpt lat="42.436253643031414" lon="13.252113033649458"><ele>935.6666666666666</ele><time>2026-04-23T09:14:23Z</time></trkpt><trkpt lat="42.43620687065747" lon="13.252349842816457"><ele>934.3333333333333</ele><time>2026-04-23T09:14:24Z</time></trkpt><trkpt lat="42.436141617573284" lon="13.252587291256342"><ele>933.0</ele><time>2026-04-23T09:14:25Z</time></trkpt><trkpt lat="42.43606486374502" lon="13.25282243986911"><ele>933.0</ele><time>2026-04-23T09:14:26Z</time></trkpt><trkpt lat="42.4359531137692" lon="13.253049263655104"><ele>933.0</ele><time>2026-04-23T09:14:27Z</time></trkpt><trkpt lat="42.43586249010206" lon="13.253295950801679"><ele>933.0</ele><time>2026-04-23T09:14:28Z</time></trkpt><trkpt lat="42.435750325563234" lon="13.253541229371155"><ele>931.3333333333333</ele><time>2026-04-23T09:14:29Z</time></trkpt><trkpt lat="42.43563902544015" lon="13.253793200520182"><ele>929.6666666666666</ele><time>2026-04-23T09:14:30Z</time></trkpt><trkpt lat="42.43552942812063" lon="13.254033973776904"><ele>928.0</ele><time>2026-04-23T09:14:31Z</time></trkpt><trkpt lat="42.43543129951903" lon="13.254254225311595"><ele>927.0</ele><time>2026-04-23T09:14:32Z</time></trkpt><trkpt lat="42.43534707133527" lon="13.254432023794319"><ele>926.0</ele><time>2026-04-23T09:14:33Z</time></trkpt><trkpt lat="42.435267619735065" lon="13.254584963021847"><ele>925.0</ele><time>2026-04-23T09:14:34Z</time></trkpt><trkpt lat="42.43519384875586" lon="13.254716294383854"><ele>924.0</ele><time>2026-04-23T09:14:35Z</time></trkpt><trkpt lat="42.43511126653131" lon="13.254810822542074"><ele>924.0</ele><time>2026-04-23T09:14:36Z</time></trkpt><trkpt lat="42.43505292492435" lon="13.254889989254183"><ele>924.0000000000001</ele><time>2026-04-23T09:14:37Z</time></trkpt><trkpt lat="42.434968779736224" lon="13.25496998185287"><ele>924.0000000000001</ele><time>2026-04-23T09:14:39Z</time></trkpt><trkpt lat="42.43506587379757" lon="13.254871581119877"><ele>924.0</ele><time>2026-04-23T09:14:44Z</time></trkpt><trkpt lat="42.435129137111225" lon="13.254805033615261"><ele>924.0</ele><time>2026-04-23T09:14:45Z</time></trkpt><trkpt lat="42.435196809085866" lon="13.254747019047095"><ele>924.0</ele><time>2026-04-23T09:14:46Z</time></trkpt><trkpt lat="42.435258323739795" lon="13.254633474358037"><ele>924.0000000000001</ele><time>2026-04-23T09:14:47Z</time></trkpt><trkpt lat="42.43531774366827" lon="13.254516417205036"><ele>924.0000000000001</ele><time>2026-04-23T09:14:48Z</time></trkpt><trkpt lat="42.435379912729765" lon="13.254394503252794"><ele>924.0</ele><time>2026-04-23T09:14:49Z</time></trkpt><trkpt lat="42.43544270983373" lon="13.254271490945927"><ele>924.0</ele><time>2026-04-23T09:14:50Z</time></trkpt><trkpt lat="42.43550385916207" lon="13.254143888488102"><ele>924.4000000000001</ele><time>2026-04-23T09:14:51Z</time></trkpt><trkpt lat="42.435561806486085" lon="13.254018921673879"><ele>924.8000000000001</ele><time>2026-04-23T09:14:52Z</time></trkpt><trkpt lat="42.435609403634736" lon="13.25391099466005"><ele>925.1999999999999</ele><time>2026-04-23T09:14:53Z</time></trkpt><trkpt lat="42.43565132693716" lon="13.253824892161333"><ele>925.5999999999999</ele><time>2026-04-23T09:14:54Z</time></trkpt><trkpt lat="42.43575510687021" lon="13.253959478516046"><ele>926.0</ele><time>2026-04-23T09:14:58Z</time></trkpt><trkpt lat="42.43577399847262" lon="13.254070111227026"><ele>926.0</ele><time>2026-04-23T09:14:59Z</time></trkpt><trkpt lat="42.43581404781207" lon="13.254204359379429"><ele>926.0</ele><time>2026-04-23T09:15:00Z</time></trkpt><trkpt lat="42.43584033413894" lon="13.254356495204808"><ele>926.0</ele><time>2026-04-23T09:15:01Z</time></trkpt><trkpt lat="42.43588332766593" lon="13.254520153878579"><ele>926.0</ele><time>2026-04-23T09:15:02Z</time></trkpt><trkpt lat="42.43591902601497" lon="13.254673194080173"><ele>925.5</ele><time>2026-04-23T09:15:03Z</time></trkpt><trkpt lat="42.435964775394716" lon="13.2548090110359"><ele>925.0</ele><time>2026-04-23T09:15:04Z</time></trkpt><trkpt lat="42.43602269448864" lon="13.254938276285353"><ele>924.5</ele><time>2026-04-23T09:15:05Z</time></trkpt><trkpt lat="42.43609816530553" lon="13.255060259833012"><ele>924.0</ele><time>2026-04-23T09:15:06Z</time></trkpt><trkpt lat="42.436186023112484" lon="13.255155572395582"><ele>924.0</ele><time>2026-04-23T09:15:07Z</time></trkpt><trkpt lat="42.4362740803241" lon="13.255229472540263"><ele>924.0000000000001</ele><time>2026-04-23T09:15:08Z</time></trkpt><trkpt lat="42.43636255015675" lon="13.255286636600577"><ele>924.0000000000001</ele><time>2026-04-23T09:15:09Z</time></trkpt><trkpt lat="42.43645786466895" lon="13.255349705036545"><ele>924.0</ele><time>2026-04-23T09:15:10Z</time></trkpt><trkpt lat="42.43656750138286" lon="13.25542029689366"><ele>924.0</ele><time>2026-04-23T09:15:11Z</time></trkpt><trkpt lat="42.43667835969217" lon="13.255491442340386"><ele>924.25</ele><time>2026-04-23T09:15:12Z</time></trkpt><trkpt lat="42.43679287775325" lon="13.255568568880504"><ele>924.5</ele><time>2026-04-23T09:15:13Z</time></trkpt><trkpt lat="42.43688887169085" lon="13.255659972826205"><ele>924.75</ele><time>2026-04-23T09:15:14Z</time></trkpt><trkpt lat="42.43698213273852" lon="13.255756167463723"><ele>925.0</ele><time>2026-04-23T09:15:15Z</time></trkpt><trkpt lat="42.43706481488046" lon="13.25585345715993"><ele>923.2</ele><time>2026-04-23T09:15:16Z</time></trkpt><trkpt lat="42.437149062053045" lon="13.255943199821624"><ele>921.4</ele><time>2026-04-23T09:15:17Z</time></trkpt><trkpt lat="42.437244560916795" lon="13.256033465983602"><ele>919.5999999999999</ele><time>2026-04-23T09:15:18Z</time></trkpt><trkpt lat="42.437339339751546" lon="13.256112677108698"><ele>917.8</ele><time>2026-04-23T09:15:19Z</time></trkpt><trkpt lat="42.437438686099846" lon="13.256189072188652"><ele>916.0</ele><time>2026-04-23T09:15:20Z</time></trkpt><trkpt lat="42.43753443250276" lon="13.25625575927532"><ele>916.0</ele><time>2026-04-23T09:15:21Z</time></trkpt><trkpt lat="42.43763051470738" lon="13.256322235235736"><ele>915.9999999999999</ele><time>2026-04-23T09:15:22Z</time></trkpt><trkpt lat="42.43769599632008" lon="13.256414997557815"><ele>915.9999999999999</ele><time>2026-04-23T09:15:23Z</time></trkpt><trkpt lat="42.437768075615885" lon="13.256500523840572"><ele>916.0</ele><time>2026-04-23T09:15:24Z</time></trkpt><trkpt lat="42.43785245727137" lon="13.256598963957279"><ele>916.0</ele><time>2026-04-23T09:15:25Z</time></trkpt><trkpt lat="42.43791679172884" lon="13.256705901838032"><ele>915.5999999999999</ele><time>2026-04-23T09:15:25.999Z</time></trkpt><trkpt lat="42.43798505194134" lon="13.25683652837275"><ele>915.1999999999999</ele><time>2026-04-23T09:15:26.999Z</time></trkpt><trkpt lat="42.438055023535526" lon="13.256950423031755"><ele>914.8000000000001</ele><time>2026-04-23T09:15:27.999Z</time></trkpt><trkpt lat="42.43812042466295" lon="13.257070501294484"><ele>914.4000000000001</ele><time>2026-04-23T09:15:28.999Z</time></trkpt><trkpt lat="42.438178491819556" lon="13.25718848269415"><ele>914.0</ele><time>2026-04-23T09:15:29.999Z</time></trkpt><trkpt lat="42.43824286977163" lon="13.257303320493964"><ele>914.0</ele><time>2026-04-23T09:15:30.999Z</time></trkpt><trkpt lat="42.43831506106504" lon="13.257407453593167"><ele>914.0000000000001</ele><time>2026-04-23T09:15:31.999Z</time></trkpt><trkpt lat="42.43838878217171" lon="13.257517226663296"><ele>914.0000000000001</ele><time>2026-04-23T09:15:32.999Z</time></trkpt><trkpt lat="42.4384510155327" lon="13.257646437652578"><ele>914.0</ele><time>2026-04-23T09:15:33.999Z</time></trkpt><trkpt lat="42.438515773997175" lon="13.25775627538576"><ele>914.0</ele><time>2026-04-23T09:15:34.999Z</time></trkpt><trkpt lat="42.43857066466777" lon="13.2578761007298"><ele>914.0000000000001</ele><time>2026-04-23T09:15:35.999Z</time></trkpt><trkpt lat="42.438608219613855" lon="13.257983954396472"><ele>914.0</ele><time>2026-04-23T09:15:36.999Z</time></trkpt><trkpt lat="42.438619491187545" lon="13.258073424694693"><ele>914.0</ele><time>2026-04-23T09:15:37.999Z</time></trkpt><trkpt lat="42.438624451155796" lon="13.258175073256254"><ele>914.0</ele><time>2026-04-23T09:15:38.999Z</time></trkpt><trkpt lat="42.43860713997301" lon="13.258292784420222"><ele>914.0000000000001</ele><time>2026-04-23T09:15:39.999Z</time></trkpt><trkpt lat="42.438600485208084" lon="13.258425160646837"><ele>914.0</ele><time>2026-04-23T09:15:40.999Z</time></trkpt><trkpt lat="42.43859970456604" lon="13.258556164962169"><ele>914.0000000000001</ele><time>2026-04-23T09:15:41.999Z</time></trkpt><trkpt lat="42.438603192754584" lon="13.2586705206723"><ele>914.0</ele><time>2026-04-23T09:15:42.999Z</time></trkpt><trkpt lat="42.43860781508754" lon="13.258781495521548"><ele>914.0</ele><time>2026-04-23T09:15:43.999Z</time></trkpt><trkpt lat="42.43861149289145" lon="13.258869793903415"><ele>914.0</ele><time>2026-04-23T09:15:44.999Z</time></trkpt><trkpt lat="42.43862919578624" lon="13.258989960418972"><ele>914.0000000000001</ele><time>2026-04-23T09:15:45.999Z</time></trkpt><trkpt lat="42.4386153411307" lon="13.25908121066496"><ele>914.0</ele><time>2026-04-23T09:15:46.999Z</time></trkpt><trkpt lat="42.438616187378585" lon="13.259246907222275"><ele>912.8000000000001</ele><time>2026-04-23T09:15:48.999Z</time></trkpt><trkpt lat="42.43861566184395" lon="13.25934429217913"><ele>911.6000000000001</ele><time>2026-04-23T09:15:49.999Z</time></trkpt><trkpt lat="42.43861452622053" lon="13.259433930910768"><ele>910.4</ele><time>2026-04-23T09:15:51Z</time></trkpt><trkpt lat="42.43861031710296" lon="13.259605399401808"><ele>909.2</ele><time>2026-04-23T09:15:53Z</time></trkpt><trkpt lat="42.43860662759609" lon="13.259770891550508"><ele>908.0</ele><time>2026-04-23T09:15:55Z</time></trkpt><trkpt lat="42.4386154376591" lon="13.259933654377713"><ele>906.8</ele><time>2026-04-23T09:15:57Z</time></trkpt><trkpt lat="42.43860595887415" lon="13.260095169376097"><ele>905.5999999999999</ele><time>2026-04-23T09:15:59Z</time></trkpt><trkpt lat="42.438615821896036" lon="13.260256864900775"><ele>904.4000000000001</ele><time>2026-04-23T09:16:01Z</time></trkpt><trkpt lat="42.43862882172928" lon="13.260357189737011"><ele>903.2</ele><time>2026-04-23T09:16:02Z</time></trkpt><trkpt lat="42.43864313753644" lon="13.260470483154954"><ele>902.0</ele><time>2026-04-23T09:16:03Z</time></trkpt><trkpt lat="42.43866608504046" lon="13.260564192511143"><ele>900.8571428571428</ele><time>2026-04-23T09:16:04Z</time></trkpt><trkpt lat="42.43868345765856" lon="13.26065429542918"><ele>899.7142857142858</ele><time>2026-04-23T09:16:05Z</time></trkpt><trkpt lat="42.43869834449236" lon="13.260743497005278"><ele>898.5714285714286</ele><time>2026-04-23T09:16:06Z</time></trkpt><trkpt lat="42.43870741990036" lon="13.260833259919105"><ele>897.4285714285713</ele><time>2026-04-23T09:16:07Z</time></trkpt><trkpt lat="42.43871118880311" lon="13.26092985381376"><ele>896.2857142857142</ele><time>2026-04-23T09:16:08Z</time></trkpt><trkpt lat="42.43874167688336" lon="13.261038883893988"><ele>895.1428571428571</ele><time>2026-04-23T09:16:09Z</time></trkpt><trkpt lat="42.43875281030893" lon="13.261151909463077"><ele>894.0</ele><time>2026-04-23T09:16:10Z</time></trkpt><trkpt lat="42.438737978527676" lon="13.261250371274786"><ele>894.0</ele><time>2026-04-23T09:16:11Z</time></trkpt><trkpt lat="42.438689588004095" lon="13.261391024842972"><ele>894.0</ele><time>2026-04-23T09:16:13Z</time></trkpt><trkpt lat="42.43864948290389" lon="13.261463347940508"><ele>894.0</ele><time>2026-04-23T09:16:14Z</time></trkpt><trkpt lat="42.43859304640237" lon="13.261540970716124"><ele>894.0</ele><time>2026-04-23T09:16:15Z</time></trkpt><trkpt lat="42.438541792795625" lon="13.261615520108844"><ele>894.0</ele><time>2026-04-23T09:16:16Z</time></trkpt><trkpt lat="42.43849951544201" lon="13.261682211545576"><ele>894.0</ele><time>2026-04-23T09:16:17Z</time></trkpt><trkpt lat="42.43844791705772" lon="13.261833558450624"><ele>893.4285714285713</ele><time>2026-04-23T09:16:19Z</time></trkpt><trkpt lat="42.43842688696458" lon="13.261914940244234"><ele>892.8571428571429</ele><time>2026-04-23T09:16:20Z</time></trkpt><trkpt lat="42.4384188903174" lon="13.262008575685787"><ele>892.2857142857142</ele><time>2026-04-23T09:16:21Z</time></trkpt><trkpt lat="42.43838985802383" lon="13.26210518262653"><ele>891.7142857142857</ele><time>2026-04-23T09:16:22Z</time></trkpt><trkpt lat="42.43838865593897" lon="13.26220198898522"><ele>891.1428571428571</ele><time>2026-04-23T09:16:23Z</time></trkpt><trkpt lat="42.438369010759814" lon="13.26228916614156"><ele>890.5714285714286</ele><time>2026-04-23T09:16:24Z</time></trkpt><trkpt lat="42.43833652327105" lon="13.26237512467493"><ele>890.0</ele><time>2026-04-23T09:16:25Z</time></trkpt><trkpt lat="42.43832187591146" lon="13.26246667424954"><ele>888.2857142857143</ele><time>2026-04-23T09:16:26Z</time></trkpt><trkpt lat="42.43831114282351" lon="13.262557951924535"><ele>886.5714285714286</ele><time>2026-04-23T09:16:27Z</time></trkpt><trkpt lat="42.438319963313994" lon="13.262649357119635"><ele>884.8571428571429</ele><time>2026-04-23T09:16:28Z</time></trkpt><trkpt lat="42.438316784881735" lon="13.262735780590019"><ele>883.1428571428571</ele><time>2026-04-23T09:16:29Z</time></trkpt><trkpt lat="42.43832153868131" lon="13.262845399410415"><ele>881.4285714285713</ele><time>2026-04-23T09:16:30Z</time></trkpt><trkpt lat="42.438336918931654" lon="13.262952290796056"><ele>879.7142857142857</ele><time>2026-04-23T09:16:31Z</time></trkpt><trkpt lat="42.43835316836641" lon="13.263049854788477"><ele>878.0</ele><time>2026-04-23T09:16:32Z</time></trkpt><trkpt lat="42.43834617340959" lon="13.263142967383422"><ele>875.8</ele><time>2026-04-23T09:16:33Z</time></trkpt><trkpt lat="42.43835775198297" lon="13.263234556182658"><ele>873.5999999999999</ele><time>2026-04-23T09:16:34Z</time></trkpt><trkpt lat="42.43837008169382" lon="13.263324224403624"><ele>871.4000000000001</ele><time>2026-04-23T09:16:35Z</time></trkpt><trkpt lat="42.43840468869573" lon="13.263460983767258"><ele>869.2</ele><time>2026-04-23T09:16:37Z</time></trkpt><trkpt lat="42.438429980405445" lon="13.2636009905587"><ele>867.0</ele><time>2026-04-23T09:16:39Z</time></trkpt><trkpt lat="42.438460603924554" lon="13.263735336648486"><ele>867.0</ele><time>2026-04-23T09:16:41Z</time></trkpt><trkpt lat="42.438490361092185" lon="13.263823812199936"><ele>867.0</ele><time>2026-04-23T09:16:42Z</time></trkpt><trkpt lat="42.438517469255515" lon="13.263906089053723"><ele>867.0</ele><time>2026-04-23T09:16:43Z</time></trkpt><trkpt lat="42.438548138109084" lon="13.263987918601186"><ele>867.0</ele><time>2026-04-23T09:16:44Z</time></trkpt><trkpt lat="42.43856067599884" lon="13.264076711133619"><ele>867.0</ele><time>2026-04-23T09:16:45Z</time></trkpt><trkpt lat="42.43859901805863" lon="13.264153894040078"><ele>867.0</ele><time>2026-04-23T09:16:46Z</time></trkpt><trkpt lat="42.438613463982044" lon="13.264245057870282"><ele>867.0</ele><time>2026-04-23T09:16:47Z</time></trkpt><trkpt lat="42.43863811729829" lon="13.264332983790712"><ele>864.6666666666666</ele><time>2026-04-23T09:16:48Z</time></trkpt><trkpt lat="42.43865684784053" lon="13.264418965698933"><ele>862.3333333333333</ele><time>2026-04-23T09:16:49Z</time></trkpt><trkpt lat="42.43865751494458" lon="13.264509967504079"><ele>860.0</ele><time>2026-04-23T09:16:50Z</time></trkpt><trkpt lat="42.438651431632984" lon="13.264623822105033"><ele>857.6666666666666</ele><time>2026-04-23T09:16:51Z</time></trkpt><trkpt lat="42.438644401136074" lon="13.264754565494517"><ele>855.3333333333333</ele><time>2026-04-23T09:16:52Z</time></trkpt><trkpt lat="42.43863943575235" lon="13.264876000441268"><ele>853.0</ele><time>2026-04-23T09:16:53Z</time></trkpt><trkpt lat="42.43863880042456" lon="13.26498744264926"><ele>852.3333333333333</ele><time>2026-04-23T09:16:54Z</time></trkpt><trkpt lat="42.438643136510166" lon="13.265084347814414"><ele>851.6666666666666</ele><time>2026-04-23T09:16:55Z</time></trkpt><trkpt lat="42.43867739459201" lon="13.265167465508682"><ele>851.0</ele><time>2026-04-23T09:16:56Z</time></trkpt><trkpt lat="42.43870022711789" lon="13.265251787717725"><ele>850.3333333333333</ele><time>2026-04-23T09:16:57Z</time></trkpt><trkpt lat="42.43873756040407" lon="13.265337346902031"><ele>849.6666666666666</ele><time>2026-04-23T09:16:58Z</time></trkpt><trkpt lat="42.438828705462996" lon="13.265477444686576"><ele>849.0</ele><time>2026-04-23T09:17:00Z</time></trkpt><trkpt lat="42.43888673414019" lon="13.265543750175922"><ele>846.8333333333334</ele><time>2026-04-23T09:17:01Z</time></trkpt><trkpt lat="42.438931550853276" lon="13.265612489988785"><ele>844.6666666666667</ele><time>2026-04-23T09:17:02Z</time></trkpt><trkpt lat="42.4389737213317" lon="13.265676396011303"><ele>842.5</ele><time>2026-04-23T09:17:03Z</time></trkpt><trkpt lat="42.43901869021449" lon="13.265763673285795"><ele>840.3333333333334</ele><time>2026-04-23T09:17:04Z</time></trkpt><trkpt lat="42.43906106566628" lon="13.265841236408948"><ele>838.1666666666667</ele><time>2026-04-23T09:17:05Z</time></trkpt><trkpt lat="42.43914110469954" lon="13.265975325530336"><ele>836.0</ele><time>2026-04-23T09:17:07Z</time></trkpt><trkpt lat="42.43917631936491" lon="13.266050777265876"><ele>836.0</ele><time>2026-04-23T09:17:08Z</time></trkpt><trkpt lat="42.43924577984082" lon="13.266175338043945"><ele>836.0</ele><time>2026-04-23T09:17:10Z</time></trkpt><trkpt lat="42.43932501388368" lon="13.266261564184731"><ele>836.0</ele><time>2026-04-23T09:17:12Z</time></trkpt><trkpt lat="42.43940056547472" lon="13.266345312132525"><ele>836.0</ele><time>2026-04-23T09:17:14Z</time></trkpt><trkpt lat="42.439469628746" lon="13.266429584828177"><ele>836.0</ele><time>2026-04-23T09:17:16Z</time></trkpt><trkpt lat="42.439546147206705" lon="13.266519705151529"><ele>832.5</ele><time>2026-04-23T09:17:18Z</time></trkpt><trkpt lat="42.43960446754293" lon="13.266618076276563"><ele>829.0</ele><time>2026-04-23T09:17:20Z</time></trkpt><trkpt lat="42.439678013386924" lon="13.266734408732324"><ele>825.5</ele><time>2026-04-23T09:17:22Z</time></trkpt><trkpt lat="42.43975301983313" lon="13.266836632642056"><ele>822.0</ele><time>2026-04-23T09:17:24Z</time></trkpt><trkpt lat="42.43984273602564" lon="13.266978991735783"><ele>821.4000000000001</ele><time>2026-04-23T09:17:26Z</time></trkpt><trkpt lat="42.43987888461276" lon="13.267055500585279"><ele>820.8000000000001</ele><time>2026-04-23T09:17:27Z</time></trkpt><trkpt lat="42.439910228420494" lon="13.267133857661277"><ele>820.2</ele><time>2026-04-23T09:17:28Z</time></trkpt><trkpt lat="42.43997881921752" lon="13.267278784821357"><ele>819.6</ele><time>2026-04-23T09:17:30Z</time></trkpt><trkpt lat="42.44002546057076" lon="13.267336165002034"><ele>819.0</ele><time>2026-04-23T09:17:31Z</time></trkpt><trkpt lat="42.44012923401461" lon="13.2674438184191"><ele>817.4000000000001</ele><time>2026-04-23T09:17:33Z</time></trkpt><trkpt lat="42.44018543043023" lon="13.267506688323314"><ele>815.8</ele><time>2026-04-23T09:17:34Z</time></trkpt><trkpt lat="42.440282113999984" lon="13.26757220437466"><ele>814.2</ele><time>2026-04-23T09:17:36Z</time></trkpt><trkpt lat="42.440374932577896" lon="13.26759657556236"><ele>812.5999999999999</ele><time>2026-04-23T09:17:38Z</time></trkpt><trkpt lat="42.44045954197955" lon="13.267599919814542"><ele>811.0</ele><time>2026-04-23T09:17:40Z</time></trkpt><trkpt lat="42.440562949930026" lon="13.267628867121928"><ele>809.0</ele><time>2026-04-23T09:17:42Z</time></trkpt><trkpt lat="42.44067122459494" lon="13.267608554334732"><ele>807.0</ele><time>2026-04-23T09:17:44Z</time></trkpt><trkpt lat="42.440778716640175" lon="13.267603368769908"><ele>805.0</ele><time>2026-04-23T09:17:45.999Z</time></trkpt><trkpt lat="42.440861343091925" lon="13.267619149410008"><ele>803.0</ele><time>2026-04-23T09:17:47.999Z</time></trkpt><trkpt lat="42.44095340178693" lon="13.267675078700927"><ele>801.0</ele><time>2026-04-23T09:17:49.999Z</time></trkpt><trkpt lat="42.44104575787801" lon="13.267739555529657"><ele>801.0</ele><time>2026-04-23T09:17:51.999Z</time></trkpt><trkpt lat="42.4410942222703" lon="13.267797685591205"><ele>801.0</ele><time>2026-04-23T09:17:52.999Z</time></trkpt><trkpt lat="42.44115029452472" lon="13.267842858493163"><ele>801.0</ele><time>2026-04-23T09:17:53.999Z</time></trkpt><trkpt lat="42.441206302751006" lon="13.267890722083584"><ele>801.0</ele><time>2026-04-23T09:17:54.999Z</time></trkpt><trkpt lat="42.441273506507414" lon="13.267949695656707"><ele>801.0</ele><time>2026-04-23T09:17:57Z</time></trkpt><trkpt lat="42.44135068410919" lon="13.268006852767716"><ele>801.0</ele><time>2026-04-23T09:17:59Z</time></trkpt><trkpt lat="42.44143747913927" lon="13.268084905984557"><ele>798.6666666666666</ele><time>2026-04-23T09:18:01Z</time></trkpt><trkpt lat="42.441488062013185" lon="13.268144833591775"><ele>796.3333333333333</ele><time>2026-04-23T09:18:02Z</time></trkpt><trkpt lat="42.44154231390352" lon="13.268202347012181"><ele>794.0</ele><time>2026-04-23T09:18:03Z</time></trkpt><trkpt lat="42.44159735644159" lon="13.268253850591496"><ele>791.6666666666666</ele><time>2026-04-23T09:18:04Z</time></trkpt><trkpt lat="42.44164283268064" lon="13.268356003728574"><ele>789.3333333333333</ele><time>2026-04-23T09:18:06Z</time></trkpt><trkpt lat="42.441682338803616" lon="13.268457669396852"><ele>787.0</ele><time>2026-04-23T09:18:08Z</time></trkpt><trkpt lat="42.44173716734385" lon="13.268571060421415"><ele>786.9999999999999</ele><time>2026-04-23T09:18:10Z</time></trkpt><trkpt lat="42.44176649269073" lon="13.268653151753222"><ele>787.0</ele><time>2026-04-23T09:18:11Z</time></trkpt><trkpt lat="42.44181078057096" lon="13.268754523373039"><ele>787.0</ele><time>2026-04-23T09:18:13Z</time></trkpt><trkpt lat="42.44185363097108" lon="13.268857907951102"><ele>787.0</ele><time>2026-04-23T09:18:15Z</time></trkpt><trkpt lat="42.4418977279347" lon="13.26891951860408"><ele>786.9999999999999</ele><time>2026-04-23T09:18:16Z</time></trkpt><trkpt lat="42.441980017037" lon="13.269030757130057"><ele>787.0</ele><time>2026-04-23T09:18:18Z</time></trkpt><trkpt lat="42.44207992083019" lon="13.2691217301274"><ele>784.0</ele><time>2026-04-23T09:18:20Z</time></trkpt><trkpt lat="42.442156624271604" lon="13.269229409623858"><ele>781.0</ele><time>2026-04-23T09:18:22Z</time></trkpt><trkpt lat="42.44221994230706" lon="13.269335231139221"><ele>778.0</ele><time>2026-04-23T09:18:24Z</time></trkpt><trkpt lat="42.44226930746633" lon="13.269477776643612"><ele>775.0</ele><time>2026-04-23T09:18:26Z</time></trkpt><trkpt lat="42.442315927777386" lon="13.269586702213894"><ele>772.0</ele><time>2026-04-23T09:18:28Z</time></trkpt><trkpt lat="42.442365033264274" lon="13.269693213577943"><ele>769.4000000000001</ele><time>2026-04-23T09:18:30Z</time></trkpt><trkpt lat="42.442400267966526" lon="13.269776955000836"><ele>766.8000000000001</ele><time>2026-04-23T09:18:31Z</time></trkpt><trkpt lat="42.4424494448594" lon="13.269899928042534"><ele>764.2</ele><time>2026-04-23T09:18:33Z</time></trkpt><trkpt lat="42.442506400362774" lon="13.270036587763425"><ele>761.6</ele><time>2026-04-23T09:18:35Z</time></trkpt><trkpt lat="42.44256340197826" lon="13.270157144425482"><ele>759.0</ele><time>2026-04-23T09:18:37Z</time></trkpt><trkpt lat="42.44262273848919" lon="13.270284742431315"><ele>759.0</ele><time>2026-04-23T09:18:39Z</time></trkpt><trkpt lat="42.442660600775746" lon="13.270428391098404"><ele>759.0</ele><time>2026-04-23T09:18:41Z</time></trkpt><trkpt lat="42.442681478843" lon="13.27055550135118"><ele>759.0</ele><time>2026-04-23T09:18:43Z</time></trkpt><trkpt lat="42.44266701454218" lon="13.270695833566313"><ele>759.0</ele><time>2026-04-23T09:18:45Z</time></trkpt><trkpt lat="42.44262343085381" lon="13.27081521241904"><ele>759.0</ele><time>2026-04-23T09:18:47Z</time></trkpt><trkpt lat="42.44258466293117" lon="13.270976413435738"><ele>757.1428571428571</ele><time>2026-04-23T09:18:49Z</time></trkpt><trkpt lat="42.44256910074803" lon="13.27106572110198"><ele>755.2857142857142</ele><time>2026-04-23T09:18:50Z</time></trkpt><trkpt lat="42.44257567168295" lon="13.27116558569483"><ele>753.4285714285714</ele><time>2026-04-23T09:18:51Z</time></trkpt><trkpt lat="42.44257366440113" lon="13.271268962136539"><ele>751.5714285714286</ele><time>2026-04-23T09:18:52Z</time></trkpt><trkpt lat="42.442581028565094" lon="13.271368527826617"><ele>749.7142857142858</ele><time>2026-04-23T09:18:53Z</time></trkpt><trkpt lat="42.44256560765543" lon="13.27145516336697"><ele>747.8571428571429</ele><time>2026-04-23T09:18:54Z</time></trkpt><trkpt lat="42.44256169032948" lon="13.271557544598588"><ele>746.0</ele><time>2026-04-23T09:18:55Z</time></trkpt><trkpt lat="42.44255964753433" lon="13.271657032238563"><ele>743.6666666666666</ele><time>2026-04-23T09:18:56Z</time></trkpt><trkpt lat="42.442563610554835" lon="13.27174590941248"><ele>741.3333333333333</ele><time>2026-04-23T09:18:57Z</time></trkpt><trkpt lat="42.4425915068365" lon="13.271824791693335"><ele>739.0</ele><time>2026-04-23T09:18:58Z</time></trkpt><trkpt lat="42.44261333154537" lon="13.271909288481345"><ele>736.6666666666666</ele><time>2026-04-23T09:18:59Z</time></trkpt><trkpt lat="42.442648811732376" lon="13.272010067112111"><ele>734.3333333333334</ele><time>2026-04-23T09:19:00Z</time></trkpt><trkpt lat="42.44269700533857" lon="13.272138635113217"><ele>732.0</ele><time>2026-04-23T09:19:01Z</time></trkpt><trkpt lat="42.442755449574136" lon="13.272283250291105"><ele>729.5</ele><time>2026-04-23T09:19:02Z</time></trkpt><trkpt lat="42.44281491230715" lon="13.272450267539272"><ele>727.0</ele><time>2026-04-23T09:19:03Z</time></trkpt><trkpt lat="42.4428757454456" lon="13.272626415953612"><ele>724.5</ele><time>2026-04-23T09:19:04Z</time></trkpt><trkpt lat="42.44293750385461" lon="13.27279453481625"><ele>722.0</ele><time>2026-04-23T09:19:05Z</time></trkpt><trkpt lat="42.44299575617622" lon="13.272952151312822"><ele>721.2</ele><time>2026-04-23T09:19:06Z</time></trkpt><trkpt lat="42.44304894780868" lon="13.273095959144893"><ele>720.4000000000001</ele><time>2026-04-23T09:19:07Z</time></trkpt><trkpt lat="42.44310126422953" lon="13.273229531339556"><ele>719.5999999999999</ele><time>2026-04-23T09:19:08Z</time></trkpt><trkpt lat="42.44314480286052" lon="13.273348459369663"><ele>718.8</ele><time>2026-04-23T09:19:09Z</time></trkpt><trkpt lat="42.443190476926155" lon="13.273441009700964"><ele>718.0</ele><time>2026-04-23T09:19:10Z</time></trkpt><trkpt lat="42.44321574991223" lon="13.273538096779575"><ele>717.3333333333334</ele><time>2026-04-23T09:19:11Z</time></trkpt><trkpt lat="42.44321199667462" lon="13.273673966429426"><ele>716.6666666666666</ele><time>2026-04-23T09:19:13Z</time></trkpt><trkpt lat="42.44323260748883" lon="13.273821992745114"><ele>716.0</ele><time>2026-04-23T09:19:15Z</time></trkpt><trkpt lat="42.443456324845855" lon="13.27397563315038"><ele>715.75</ele><time>2026-04-23T09:19:17Z</time></trkpt><trkpt lat="42.44354276325988" lon="13.27407907693219"><ele>715.5</ele><time>2026-04-23T09:19:18Z</time></trkpt><trkpt lat="42.443632947002094" lon="13.27418867647701"><ele>715.25</ele><time>2026-04-23T09:19:19Z</time></trkpt><trkpt lat="42.44371530385241" lon="13.274297924391652"><ele>715.0</ele><time>2026-04-23T09:19:20Z</time></trkpt><trkpt lat="42.443802307154726" lon="13.274414221563205"><ele>715.0</ele><time>2026-04-23T09:19:21Z</time></trkpt><trkpt lat="42.44390293448643" lon="13.274541025211501"><ele>715.0</ele><time>2026-04-23T09:19:22Z</time></trkpt><trkpt lat="42.44400825439652" lon="13.2746635319908"><ele>715.0</ele><time>2026-04-23T09:19:23Z</time></trkpt><trkpt lat="42.44411349058501" lon="13.27478031291781"><ele>715.0</ele><time>2026-04-23T09:19:24Z</time></trkpt><trkpt lat="42.44421816809309" lon="13.27489368752"><ele>715.0</ele><time>2026-04-23T09:19:25Z</time></trkpt><trkpt lat="42.44432758939105" lon="13.274998491476024"><ele>715.0</ele><time>2026-04-23T09:19:26Z</time></trkpt><trkpt lat="42.44443239089994" lon="13.275089745861443"><ele>715.0</ele><time>2026-04-23T09:19:27Z</time></trkpt><trkpt lat="42.44453206489328" lon="13.275172935990206"><ele>715.0</ele><time>2026-04-23T09:19:28Z</time></trkpt><trkpt lat="42.44462564350128" lon="13.275253473103655"><ele>714.6</ele><time>2026-04-23T09:19:29Z</time></trkpt><trkpt lat="42.44471024961818" lon="13.275333604354792"><ele>714.2</ele><time>2026-04-23T09:19:30Z</time></trkpt><trkpt lat="42.44477742918346" lon="13.275410947981252"><ele>713.8</ele><time>2026-04-23T09:19:31Z</time></trkpt><trkpt lat="42.44482765149655" lon="13.275483166608543"><ele>713.4</ele><time>2026-04-23T09:19:32Z</time></trkpt><trkpt lat="42.44484480888926" lon="13.275644102277576"><ele>713.0</ele><time>2026-04-23T09:19:34Z</time></trkpt><trkpt lat="42.444827620891445" lon="13.275741192342014"><ele>713.0</ele><time>2026-04-23T09:19:35Z</time></trkpt><trkpt lat="42.44480483830839" lon="13.275870260822707"><ele>713.0</ele><time>2026-04-23T09:19:36Z</time></trkpt><trkpt lat="42.44478270409857" lon="13.276035425682032"><ele>713.0</ele><time>2026-04-23T09:19:37Z</time></trkpt><trkpt lat="42.4447538997876" lon="13.276226782521555"><ele>713.0</ele><time>2026-04-23T09:19:38Z</time></trkpt><trkpt lat="42.444706215217" lon="13.276407395557365"><ele>714.0</ele><time>2026-04-23T09:19:39Z</time></trkpt><trkpt lat="42.44461727559911" lon="13.276578514410934"><ele>715.0</ele><time>2026-04-23T09:19:40Z</time></trkpt><trkpt lat="42.4445033364688" lon="13.27674083099277"><ele>716.0</ele><time>2026-04-23T09:19:41Z</time></trkpt><trkpt lat="42.444380244322716" lon="13.276902101054386"><ele>716.0</ele><time>2026-04-23T09:19:42Z</time></trkpt><trkpt lat="42.444254477456354" lon="13.27706910278567"><ele>716.0</ele><time>2026-04-23T09:19:43Z</time></trkpt><trkpt lat="42.4441275658113" lon="13.27723553477321"><ele>716.0</ele><time>2026-04-23T09:19:44Z</time></trkpt><trkpt lat="42.443991343284786" lon="13.277405581181466"><ele>716.6666666666666</ele><time>2026-04-23T09:19:45Z</time></trkpt><trkpt lat="42.44385317556452" lon="13.277579275485916"><ele>717.3333333333334</ele><time>2026-04-23T09:19:46Z</time></trkpt><trkpt lat="42.443703352606995" lon="13.277760852793419"><ele>718.0</ele><time>2026-04-23T09:19:47Z</time></trkpt><trkpt lat="42.443545480161426" lon="13.277948864741319"><ele>718.0</ele><time>2026-04-23T09:19:48Z</time></trkpt><trkpt lat="42.443232189888" lon="13.278339991202918"><ele>718.0</ele><time>2026-04-23T09:19:50Z</time></trkpt><trkpt lat="42.44307129372716" lon="13.278538145019258"><ele>717.3333333333334</ele><time>2026-04-23T09:19:51Z</time></trkpt><trkpt lat="42.44290881492145" lon="13.278738785222124"><ele>716.6666666666666</ele><time>2026-04-23T09:19:52Z</time></trkpt><trkpt lat="42.442744408694686" lon="13.278943568645422"><ele>716.0</ele><time>2026-04-23T09:19:53Z</time></trkpt><trkpt lat="42.442576373483085" lon="13.279148930086034"><ele>716.0</ele><time>2026-04-23T09:19:54Z</time></trkpt><trkpt lat="42.442408893038326" lon="13.279360268355852"><ele>716.0</ele><time>2026-04-23T09:19:55Z</time></trkpt><trkpt lat="42.44224398989581" lon="13.27958161664305"><ele>713.0</ele><time>2026-04-23T09:19:56Z</time></trkpt><trkpt lat="42.442079477561144" lon="13.279804459866899"><ele>710.0</ele><time>2026-04-23T09:19:57Z</time></trkpt><trkpt lat="42.44190937983061" lon="13.280027801511473"><ele>710.0</ele><time>2026-04-23T09:19:58Z</time></trkpt><trkpt lat="42.44173779974789" lon="13.28025008932766"><ele>710.0</ele><time>2026-04-23T09:19:59Z</time></trkpt><trkpt lat="42.441568351039265" lon="13.280476004597492"><ele>710.0</ele><time>2026-04-23T09:20:00Z</time></trkpt><trkpt lat="42.44139965137522" lon="13.280705436801789"><ele>710.0</ele><time>2026-04-23T09:20:01Z</time></trkpt><trkpt lat="42.441228384349664" lon="13.280938477333288"><ele>710.0</ele><time>2026-04-23T09:20:02Z</time></trkpt><trkpt lat="42.44105841185675" lon="13.281170559677111"><ele>710.0</ele><time>2026-04-23T09:20:03Z</time></trkpt><trkpt lat="42.44088554736823" lon="13.281402851615077"><ele>712.0</ele><time>2026-04-23T09:20:04Z</time></trkpt><trkpt lat="42.440706908684" lon="13.28163586053986"><ele>714.0</ele><time>2026-04-23T09:20:05Z</time></trkpt><trkpt lat="42.44052827949485" lon="13.281869681836447"><ele>711.5</ele><time>2026-04-23T09:20:06Z</time></trkpt><trkpt lat="42.440353684099435" lon="13.2821020428483"><ele>709.0</ele><time>2026-04-23T09:20:07Z</time></trkpt><trkpt lat="42.44017525726319" lon="13.282335362434123"><ele>709.0</ele><time>2026-04-23T09:20:08Z</time></trkpt><trkpt lat="42.43999882441964" lon="13.282570305402647"><ele>709.0</ele><time>2026-04-23T09:20:09Z</time></trkpt><trkpt lat="42.439826064515465" lon="13.282807321605477"><ele>709.0</ele><time>2026-04-23T09:20:10Z</time></trkpt><trkpt lat="42.4396471567241" lon="13.283046554587724"><ele>709.0</ele><time>2026-04-23T09:20:11Z</time></trkpt><trkpt lat="42.43947605504854" lon="13.283282032053968"><ele>709.0</ele><time>2026-04-23T09:20:12Z</time></trkpt><trkpt lat="42.43929791563043" lon="13.283516336318627"><ele>709.0</ele><time>2026-04-23T09:20:13Z</time></trkpt><trkpt lat="42.43911941911641" lon="13.283750827725779"><ele>709.0</ele><time>2026-04-23T09:20:14Z</time></trkpt><trkpt lat="42.43894165709682" lon="13.283989180501111"><ele>709.0</ele><time>2026-04-23T09:20:15Z</time></trkpt><trkpt lat="42.43876841998168" lon="13.284228016125658"><ele>709.0</ele><time>2026-04-23T09:20:16Z</time></trkpt><trkpt lat="42.43859113564959" lon="13.284467495750993"><ele>709.0</ele><time>2026-04-23T09:20:17Z</time></trkpt><trkpt lat="42.43841489666762" lon="13.284704033944633"><ele>710.5</ele><time>2026-04-23T09:20:18Z</time></trkpt><trkpt lat="42.438237283944936" lon="13.28493803668328"><ele>712.0</ele><time>2026-04-23T09:20:19Z</time></trkpt><trkpt lat="42.43805622136498" lon="13.285176601788732"><ele>710.0</ele><time>2026-04-23T09:20:20Z</time></trkpt><trkpt lat="42.43788028605516" lon="13.285410694792516"><ele>708.0</ele><time>2026-04-23T09:20:21Z</time></trkpt><trkpt lat="42.437703414452464" lon="13.2856466864656"><ele>708.0</ele><time>2026-04-23T09:20:22Z</time></trkpt><trkpt lat="42.43753248712453" lon="13.285879564629264"><ele>708.0</ele><time>2026-04-23T09:20:23Z</time></trkpt><trkpt lat="42.437359007131946" lon="13.286114757362048"><ele>708.0</ele><time>2026-04-23T09:20:24Z</time></trkpt><trkpt lat="42.43718516835203" lon="13.286348085975684"><ele>708.0</ele><time>2026-04-23T09:20:25Z</time></trkpt><trkpt lat="42.43683528269238" lon="13.286807729337564"><ele>707.5</ele><time>2026-04-23T09:20:27Z</time></trkpt><trkpt lat="42.43666171171707" lon="13.287037592900814"><ele>707.0</ele><time>2026-04-23T09:20:28Z</time></trkpt><trkpt lat="42.436486758577956" lon="13.287269610842143"><ele>708.0</ele><time>2026-04-23T09:20:29Z</time></trkpt><trkpt lat="42.43631761939671" lon="13.287497010057386"><ele>709.0</ele><time>2026-04-23T09:20:30Z</time></trkpt><trkpt lat="42.436152417133655" lon="13.287726836673409"><ele>709.0</ele><time>2026-04-23T09:20:31Z</time></trkpt><trkpt lat="42.43599770175726" lon="13.28796988134701"><ele>709.0</ele><time>2026-04-23T09:20:32Z</time></trkpt><trkpt lat="42.43586059708699" lon="13.288220948660141"><ele>710.5</ele><time>2026-04-23T09:20:33Z</time></trkpt><trkpt lat="42.43573474928142" lon="13.288492317323676"><ele>712.0</ele><time>2026-04-23T09:20:34Z</time></trkpt><trkpt lat="42.43562256465633" lon="13.288767272069155"><ele>711.5</ele><time>2026-04-23T09:20:35Z</time></trkpt><trkpt lat="42.43552128527742" lon="13.289052669976936"><ele>711.0</ele><time>2026-04-23T09:20:36Z</time></trkpt><trkpt lat="42.435430350600086" lon="13.289339535407692"><ele>710.5</ele><time>2026-04-23T09:20:37Z</time></trkpt><trkpt lat="42.43533723054426" lon="13.289636152157403"><ele>710.0</ele><time>2026-04-23T09:20:38Z</time></trkpt><trkpt lat="42.43524316855394" lon="13.2899273907798"><ele>710.0</ele><time>2026-04-23T09:20:39Z</time></trkpt><trkpt lat="42.43514614333032" lon="13.290226322588712"><ele>710.0</ele><time>2026-04-23T09:20:40Z</time></trkpt><trkpt lat="42.435052536541775" lon="13.290518489303537"><ele>711.0</ele><time>2026-04-23T09:20:41Z</time></trkpt><trkpt lat="42.43496292298071" lon="13.290814508256734"><ele>712.0</ele><time>2026-04-23T09:20:42Z</time></trkpt><trkpt lat="42.43486699052993" lon="13.291112027919235"><ele>712.0</ele><time>2026-04-23T09:20:43Z</time></trkpt><trkpt lat="42.43476980662202" lon="13.291410272358329"><ele>712.0</ele><time>2026-04-23T09:20:44Z</time></trkpt><trkpt lat="42.434676071596975" lon="13.291704500050887"><ele>711.0</ele><time>2026-04-23T09:20:45Z</time></trkpt><trkpt lat="42.434586035606394" lon="13.291994917781498"><ele>710.0</ele><time>2026-04-23T09:20:46Z</time></trkpt><trkpt lat="42.434492950754326" lon="13.292293711137983"><ele>710.0</ele><time>2026-04-23T09:20:47Z</time></trkpt><trkpt lat="42.43439798897985" lon="13.292589341616916"><ele>710.0</ele><time>2026-04-23T09:20:48Z</time></trkpt><trkpt lat="42.434303522728484" lon="13.292886151023213"><ele>711.0</ele><time>2026-04-23T09:20:49Z</time></trkpt><trkpt lat="42.43420974338353" lon="13.293186404130061"><ele>712.0</ele><time>2026-04-23T09:20:50Z</time></trkpt><trkpt lat="42.434118204919926" lon="13.293483425600423"><ele>712.0</ele><time>2026-04-23T09:20:51Z</time></trkpt><trkpt lat="42.43402562044532" lon="13.293779727806697"><ele>712.0</ele><time>2026-04-23T09:20:52Z</time></trkpt><trkpt lat="42.43393160080231" lon="13.294070061830068"><ele>712.0</ele><time>2026-04-23T09:20:53Z</time></trkpt><trkpt lat="42.433835091004156" lon="13.294359337879468"><ele>712.0</ele><time>2026-04-23T09:20:54Z</time></trkpt><trkpt lat="42.433735683473756" lon="13.294647459559963"><ele>708.5</ele><time>2026-04-23T09:20:55Z</time></trkpt><trkpt lat="42.433627639871546" lon="13.294923798516702"><ele>705.0</ele><time>2026-04-23T09:20:56Z</time></trkpt><trkpt lat="42.43351027282068" lon="13.29517590595147"><ele>705.0</ele><time>2026-04-23T09:20:57Z</time></trkpt><trkpt lat="42.43337884291152" lon="13.295415550415708"><ele>705.0</ele><time>2026-04-23T09:20:58Z</time></trkpt><trkpt lat="42.433243925381326" lon="13.2956395548655"><ele>705.0</ele><time>2026-04-23T09:20:59Z</time></trkpt><trkpt lat="42.43311492427915" lon="13.295846097459563"><ele>705.3333333333334</ele><time>2026-04-23T09:21:00Z</time></trkpt><trkpt lat="42.432993385187" lon="13.296015014371697"><ele>705.6666666666667</ele><time>2026-04-23T09:21:01Z</time></trkpt><trkpt lat="42.432865716172294" lon="13.296156469595662"><ele>706.0</ele><time>2026-04-23T09:21:02Z</time></trkpt><trkpt lat="42.43273587610136" lon="13.296286756231117"><ele>705.3333333333334</ele><time>2026-04-23T09:21:03Z</time></trkpt><trkpt lat="42.43258963017708" lon="13.296412430137154"><ele>704.6666666666666</ele><time>2026-04-23T09:21:04Z</time></trkpt><trkpt lat="42.432414637698656" lon="13.296540114711343"><ele>704.0</ele><time>2026-04-23T09:21:05Z</time></trkpt><trkpt lat="42.4322032823957" lon="13.296643640629712"><ele>703.0</ele><time>2026-04-23T09:21:06Z</time></trkpt><trkpt lat="42.43199301047163" lon="13.296742952767383"><ele>702.0</ele><time>2026-04-23T09:21:07Z</time></trkpt><trkpt lat="42.43177673927071" lon="13.296835769827908"><ele>702.0</ele><time>2026-04-23T09:21:08Z</time></trkpt><trkpt lat="42.431570847958966" lon="13.296930984411883"><ele>702.0</ele><time>2026-04-23T09:21:09Z</time></trkpt><trkpt lat="42.43136633976228" lon="13.297031272963764"><ele>702.0</ele><time>2026-04-23T09:21:10Z</time></trkpt><trkpt lat="42.43115717590654" lon="13.29713195978197"><ele>702.0</ele><time>2026-04-23T09:21:11Z</time></trkpt><trkpt lat="42.4309481773536" lon="13.297229881387127"><ele>702.0</ele><time>2026-04-23T09:21:12Z</time></trkpt><trkpt lat="42.43073835316878" lon="13.297331030595005"><ele>702.0</ele><time>2026-04-23T09:21:13Z</time></trkpt><trkpt lat="42.430533965759075" lon="13.297427576669849"><ele>701.6666666666666</ele><time>2026-04-23T09:21:14Z</time></trkpt><trkpt lat="42.43033633857547" lon="13.297518798287975"><ele>701.3333333333333</ele><time>2026-04-23T09:21:15Z</time></trkpt><trkpt lat="42.43015209179685" lon="13.297607694065428"><ele>701.0</ele><time>2026-04-23T09:21:16Z</time></trkpt><trkpt lat="42.42997262864704" lon="13.29769356484456"><ele>701.0</ele><time>2026-04-23T09:21:17Z</time></trkpt><trkpt lat="42.429804829126105" lon="13.297776624791442"><ele>701.0</ele><time>2026-04-23T09:21:18Z</time></trkpt><trkpt lat="42.42964643618504" lon="13.297861276264818"><ele>701.0</ele><time>2026-04-23T09:21:19Z</time></trkpt><trkpt lat="42.429476500130875" lon="13.297930151766057"><ele>700.8333333333333</ele><time>2026-04-23T09:21:20Z</time></trkpt><trkpt lat="42.42935216787747" lon="13.297983360314735"><ele>700.6666666666666</ele><time>2026-04-23T09:21:21Z</time></trkpt><trkpt lat="42.42926704504716" lon="13.298021177071774"><ele>700.5</ele><time>2026-04-23T09:21:22Z</time></trkpt><trkpt lat="42.42919967306724" lon="13.298060907873573"><ele>700.3333333333334</ele><time>2026-04-23T09:21:23Z</time></trkpt><trkpt lat="42.42912767467202" lon="13.298103888419067"><ele>700.1666666666667</ele><time>2026-04-23T09:21:25Z</time></trkpt><trkpt lat="42.42916586460391" lon="13.298180598190223"><ele>700.0</ele><time>2026-04-23T09:21:27Z</time></trkpt><trkpt lat="42.42929132658601" lon="13.298237643726198"><ele>700.0</ele><time>2026-04-23T09:21:29Z</time></trkpt><trkpt lat="42.42937494220956" lon="13.298286676413822"><ele>700.0</ele><time>2026-04-23T09:21:31Z</time></trkpt><trkpt lat="42.42943802344767" lon="13.29829666246648"><ele>700.0</ele><time>2026-04-23T09:21:34Z</time></trkpt><trkpt lat="42.429569029464595" lon="13.298148066793868"><ele>700.0</ele><time>2026-04-23T09:26:27.001Z</time></trkpt><trkpt lat="42.429612911788915" lon="13.298022730094681"><ele>700.0</ele><time>2026-04-23T09:26:29.001Z</time></trkpt><trkpt lat="42.4295957535231" lon="13.297916051756506"><ele>700.0</ele><time>2026-04-23T09:26:33.001Z</time></trkpt><trkpt lat="42.42937996255649" lon="13.297935816303418"><ele>700.0</ele><time>2026-04-23T09:26:36Z</time></trkpt><trkpt lat="42.429289303027424" lon="13.29797891888897"><ele>700.0</ele><time>2026-04-23T09:26:37Z</time></trkpt><trkpt lat="42.42918165550444" lon="13.298035389946328"><ele>700.0</ele><time>2026-04-23T09:26:38Z</time></trkpt><trkpt lat="42.42905609958217" lon="13.298096818611189"><ele>700.6666666666667</ele><time>2026-04-23T09:26:39Z</time></trkpt><trkpt lat="42.42892358018657" lon="13.298160988056225"><ele>701.3333333333334</ele><time>2026-04-23T09:26:40Z</time></trkpt><trkpt lat="42.42878265684779" lon="13.298230221931624"><ele>702.0</ele><time>2026-04-23T09:26:41Z</time></trkpt><trkpt lat="42.428627856964496" lon="13.298304894164206"><ele>702.0</ele><time>2026-04-23T09:26:42Z</time></trkpt><trkpt lat="42.42846559760917" lon="13.29838220664291"><ele>702.0</ele><time>2026-04-23T09:26:43Z</time></trkpt><trkpt lat="42.428303343215546" lon="13.29846024355516"><ele>702.0</ele><time>2026-04-23T09:26:44Z</time></trkpt><trkpt lat="42.42813250391923" lon="13.298542610556895"><ele>701.3333333333334</ele><time>2026-04-23T09:26:45Z</time></trkpt><trkpt lat="42.42796347696492" lon="13.298629213007167"><ele>700.6666666666667</ele><time>2026-04-23T09:26:46Z</time></trkpt><trkpt lat="42.42777985338012" lon="13.298711179682973"><ele>700.0</ele><time>2026-04-23T09:26:47Z</time></trkpt><trkpt lat="42.427598412031564" lon="13.298796254595734"><ele>700.0</ele><time>2026-04-23T09:26:48Z</time></trkpt><trkpt lat="42.42741157049601" lon="13.298879948599012"><ele>700.0</ele><time>2026-04-23T09:26:49Z</time></trkpt><trkpt lat="42.427221622626696" lon="13.29896583725163"><ele>700.0</ele><time>2026-04-23T09:26:50Z</time></trkpt><trkpt lat="42.42703164188098" lon="13.299049858673479"><ele>699.3333333333334</ele><time>2026-04-23T09:26:51Z</time></trkpt><trkpt lat="42.426836721173835" lon="13.299122531734866"><ele>698.6666666666666</ele><time>2026-04-23T09:26:52Z</time></trkpt><trkpt lat="42.4266341536441" lon="13.299182554802803"><ele>698.0</ele><time>2026-04-23T09:26:53Z</time></trkpt><trkpt lat="42.42642639118107" lon="13.299236218720202"><ele>697.0</ele><time>2026-04-23T09:26:54Z</time></trkpt><trkpt lat="42.4262131249786" lon="13.299281204375397"><ele>696.0</ele><time>2026-04-23T09:26:55Z</time></trkpt><trkpt lat="42.42599872936218" lon="13.299316854801422"><ele>695.0</ele><time>2026-04-23T09:26:56Z</time></trkpt><trkpt lat="42.425780469032865" lon="13.299345755843795"><ele>695.0</ele><time>2026-04-23T09:26:57Z</time></trkpt><trkpt lat="42.42555766250885" lon="13.299366779260918"><ele>695.0</ele><time>2026-04-23T09:26:58Z</time></trkpt><trkpt lat="42.42533879677244" lon="13.299390559830094"><ele>695.0</ele><time>2026-04-23T09:26:59Z</time></trkpt><trkpt lat="42.425138552042455" lon="13.299415796797895"><ele>694.3333333333333</ele><time>2026-04-23T09:27:00Z</time></trkpt><trkpt lat="42.424951120865394" lon="13.299438984137483"><ele>693.6666666666666</ele><time>2026-04-23T09:27:01Z</time></trkpt><trkpt lat="42.42478254461048" lon="13.299451949845315"><ele>693.0</ele><time>2026-04-23T09:27:02Z</time></trkpt><trkpt lat="42.42463433309119" lon="13.299461378566177"><ele>692.25</ele><time>2026-04-23T09:27:03Z</time></trkpt><trkpt lat="42.42450557207806" lon="13.299452560717057"><ele>691.5</ele><time>2026-04-23T09:27:04Z</time></trkpt><trkpt lat="42.42438732105125" lon="13.299420908774044"><ele>690.75</ele><time>2026-04-23T09:27:05Z</time></trkpt><trkpt lat="42.424279427607324" lon="13.299363828151874"><ele>690.0</ele><time>2026-04-23T09:27:06Z</time></trkpt><trkpt lat="42.424193827792365" lon="13.2992844740154"><ele>690.0</ele><time>2026-04-23T09:27:07Z</time></trkpt><trkpt lat="42.42412342363383" lon="13.299222100904366"><ele>690.0</ele><time>2026-04-23T09:27:08Z</time></trkpt><trkpt lat="42.424048385850675" lon="13.299189904978956"><ele>690.0</ele><time>2026-04-23T09:27:09Z</time></trkpt><trkpt lat="42.42390900823236" lon="13.299237894309563"><ele>690.0</ele><time>2026-04-23T09:27:11Z</time></trkpt><trkpt lat="42.423851718321465" lon="13.299335869983114"><ele>690.0</ele><time>2026-04-23T09:27:11.999Z</time></trkpt><trkpt lat="42.4237880729819" lon="13.299453089458325"><ele>690.25</ele><time>2026-04-23T09:27:12.999Z</time></trkpt><trkpt lat="42.42368834829516" lon="13.299542015595744"><ele>690.5</ele><time>2026-04-23T09:27:13.999Z</time></trkpt><trkpt lat="42.42355133375904" lon="13.299604407937391"><ele>690.75</ele><time>2026-04-23T09:27:14.999Z</time></trkpt><trkpt lat="42.423389341448" lon="13.29964190050752"><ele>691.0</ele><time>2026-04-23T09:27:15.999Z</time></trkpt><trkpt lat="42.42322442754494" lon="13.299657089006368"><ele>691.0</ele><time>2026-04-23T09:27:16.999Z</time></trkpt><trkpt lat="42.423054108334334" lon="13.299667469475658"><ele>691.0</ele><time>2026-04-23T09:27:17.999Z</time></trkpt><trkpt lat="42.422868462451476" lon="13.299686100684756"><ele>691.0</ele><time>2026-04-23T09:27:18.999Z</time></trkpt><trkpt lat="42.42268528761815" lon="13.299706944773309"><ele>691.0</ele><time>2026-04-23T09:27:19.999Z</time></trkpt><trkpt lat="42.42249698493706" lon="13.299732385065829"><ele>691.0</ele><time>2026-04-23T09:27:20.999Z</time></trkpt><trkpt lat="42.42229401212311" lon="13.299774675073419"><ele>691.0</ele><time>2026-04-23T09:27:21.999Z</time></trkpt><trkpt lat="42.422093245072105" lon="13.299828732019275"><ele>691.0</ele><time>2026-04-23T09:27:22.999Z</time></trkpt><trkpt lat="42.42188760078092" lon="13.299906993321354"><ele>691.0</ele><time>2026-04-23T09:27:23.999Z</time></trkpt><trkpt lat="42.42167437481423" lon="13.299998930274441"><ele>691.0</ele><time>2026-04-23T09:27:24.999Z</time></trkpt><trkpt lat="42.42146337449316" lon="13.300106587846395"><ele>689.5</ele><time>2026-04-23T09:27:25.999Z</time></trkpt><trkpt lat="42.421248915103405" lon="13.300231958423076"><ele>688.0</ele><time>2026-04-23T09:27:26.999Z</time></trkpt><trkpt lat="42.421037300525" lon="13.300351248877524"><ele>688.0</ele><time>2026-04-23T09:27:27.999Z</time></trkpt><trkpt lat="42.42082158815056" lon="13.300472061190215"><ele>688.0</ele><time>2026-04-23T09:27:28.999Z</time></trkpt><trkpt lat="42.4205984762355" lon="13.300591845450713"><ele>688.0</ele><time>2026-04-23T09:27:29.999Z</time></trkpt><trkpt lat="42.42037292215941" lon="13.300716426190785"><ele>688.0</ele><time>2026-04-23T09:27:30.999Z</time></trkpt><trkpt lat="42.42014569018096" lon="13.300843247091402"><ele>688.0</ele><time>2026-04-23T09:27:31.999Z</time></trkpt><trkpt lat="42.41991640912685" lon="13.300967557444157"><ele>688.0</ele><time>2026-04-23T09:27:32.999Z</time></trkpt><trkpt lat="42.419451787804256" lon="13.301228377727773"><ele>687.5</ele><time>2026-04-23T09:27:34.999Z</time></trkpt><trkpt lat="42.419213217611016" lon="13.301355981483907"><ele>687.0</ele><time>2026-04-23T09:27:35.999Z</time></trkpt><trkpt lat="42.418974231589" lon="13.301487136922134"><ele>687.0</ele><time>2026-04-23T09:27:36.999Z</time></trkpt><trkpt lat="42.4187306493889" lon="13.301619916343961"><ele>687.0</ele><time>2026-04-23T09:27:37.999Z</time></trkpt><trkpt lat="42.41848665629132" lon="13.301753234751104"><ele>687.0</ele><time>2026-04-23T09:27:38.999Z</time></trkpt><trkpt lat="42.41824591153802" lon="13.3018906611719"><ele>687.0</ele><time>2026-04-23T09:27:39.999Z</time></trkpt><trkpt lat="42.41801454099451" lon="13.30205573801108"><ele>687.5</ele><time>2026-04-23T09:27:40.999Z</time></trkpt><trkpt lat="42.41778458439603" lon="13.302217022099178"><ele>688.0</ele><time>2026-04-23T09:27:41.999Z</time></trkpt><trkpt lat="42.41756371512677" lon="13.302403172232992"><ele>688.0</ele><time>2026-04-23T09:27:42.999Z</time></trkpt><trkpt lat="42.41735088553408" lon="13.302603127920742"><ele>688.0</ele><time>2026-04-23T09:27:43.999Z</time></trkpt><trkpt lat="42.41713939653985" lon="13.302804516698151"><ele>687.0</ele><time>2026-04-23T09:27:44.999Z</time></trkpt><trkpt lat="42.4169320693197" lon="13.303012333433893"><ele>686.0</ele><time>2026-04-23T09:27:45.999Z</time></trkpt><trkpt lat="42.41672131132977" lon="13.303212658443742"><ele>686.0</ele><time>2026-04-23T09:27:46.999Z</time></trkpt><trkpt lat="42.41650812805242" lon="13.303407106427814"><ele>686.0</ele><time>2026-04-23T09:27:47.999Z</time></trkpt><trkpt lat="42.4162958334701" lon="13.30360275337971"><ele>686.0</ele><time>2026-04-23T09:27:48.999Z</time></trkpt><trkpt lat="42.41608371997674" lon="13.303797690946016"><ele>686.0</ele><time>2026-04-23T09:27:49.999Z</time></trkpt><trkpt lat="42.41586580024444" lon="13.303988744480709"><ele>687.5</ele><time>2026-04-23T09:27:50.999Z</time></trkpt><trkpt lat="42.4156417362667" lon="13.304171643429234"><ele>689.0</ele><time>2026-04-23T09:27:51.999Z</time></trkpt><trkpt lat="42.41541001111045" lon="13.30434422643935"><ele>689.0</ele><time>2026-04-23T09:27:52.999Z</time></trkpt><trkpt lat="42.41516704776124" lon="13.304493798603312"><ele>689.0</ele><time>2026-04-23T09:27:53.999Z</time></trkpt><trkpt lat="42.41492731656565" lon="13.304631748963628"><ele>689.0</ele><time>2026-04-23T09:27:54.999Z</time></trkpt><trkpt lat="42.41469424835643" lon="13.30475891980595"><ele>689.0</ele><time>2026-04-23T09:27:55.999Z</time></trkpt><trkpt lat="42.414467439618804" lon="13.30487549799467"><ele>689.0</ele><time>2026-04-23T09:27:56.999Z</time></trkpt><trkpt lat="42.414240288287324" lon="13.304980245041094"><ele>689.0</ele><time>2026-04-23T09:27:57.999Z</time></trkpt><trkpt lat="42.414012460060334" lon="13.305074052849195"><ele>688.0</ele><time>2026-04-23T09:27:58.999Z</time></trkpt><trkpt lat="42.41378469539785" lon="13.305154304080823"><ele>687.0</ele><time>2026-04-23T09:27:59.999Z</time></trkpt><trkpt lat="42.41357104961642" lon="13.305218516942897"><ele>687.0</ele><time>2026-04-23T09:28:00.999Z</time></trkpt><trkpt lat="42.41336841098391" lon="13.305268981444618"><ele>687.0</ele><time>2026-04-23T09:28:01.999Z</time></trkpt><trkpt lat="42.412942980596796" lon="13.305419399960913"><ele>685.5</ele><time>2026-04-23T09:28:03.999Z</time></trkpt><trkpt lat="42.412720661577" lon="13.305509320636878"><ele>684.0</ele><time>2026-04-23T09:28:04.999Z</time></trkpt><trkpt lat="42.41249512370148" lon="13.305596674731198"><ele>685.0</ele><time>2026-04-23T09:28:05.999Z</time></trkpt><trkpt lat="42.41226453504311" lon="13.30568659417375"><ele>686.0</ele><time>2026-04-23T09:28:06.999Z</time></trkpt><trkpt lat="42.412030477865414" lon="13.305784071100788"><ele>686.0</ele><time>2026-04-23T09:28:07.999Z</time></trkpt><trkpt lat="42.411793781853646" lon="13.305882641718158"><ele>686.0</ele><time>2026-04-23T09:28:08.999Z</time></trkpt><trkpt lat="42.411553563615634" lon="13.305962946792365"><ele>685.0</ele><time>2026-04-23T09:28:09.999Z</time></trkpt><trkpt lat="42.41131155241379" lon="13.30601960067506"><ele>684.0</ele><time>2026-04-23T09:28:10.999Z</time></trkpt><trkpt lat="42.411069307728994" lon="13.306051066873437"><ele>684.0</ele><time>2026-04-23T09:28:11.999Z</time></trkpt><trkpt lat="42.410825458473774" lon="13.306071163198817"><ele>684.0</ele><time>2026-04-23T09:28:12.999Z</time></trkpt><trkpt lat="42.41058400865598" lon="13.306099692763867"><ele>682.5</ele><time>2026-04-23T09:28:13.999Z</time></trkpt><trkpt lat="42.410344001098935" lon="13.306134689092342"><ele>681.0</ele><time>2026-04-23T09:28:14.999Z</time></trkpt><trkpt lat="42.41011621840656" lon="13.306175983680896"><ele>681.0</ele><time>2026-04-23T09:28:15.999Z</time></trkpt><trkpt lat="42.40990464413395" lon="13.306222434446651"><ele>681.0</ele><time>2026-04-23T09:28:16.999Z</time></trkpt><trkpt lat="42.409705216113544" lon="13.306272647060302"><ele>681.0</ele><time>2026-04-23T09:28:17.999Z</time></trkpt><trkpt lat="42.40951864922877" lon="13.306327170250647"><ele>680.6666666666666</ele><time>2026-04-23T09:28:18.999Z</time></trkpt><trkpt lat="42.40935811735317" lon="13.306375998834712"><ele>680.3333333333333</ele><time>2026-04-23T09:28:19.999Z</time></trkpt><trkpt lat="42.40920336483484" lon="13.30641156829482"><ele>680.0</ele><time>2026-04-23T09:28:20.999Z</time></trkpt><trkpt lat="42.409075648081405" lon="13.306434089512733"><ele>680.3333333333333</ele><time>2026-04-23T09:28:21.999Z</time></trkpt><trkpt lat="42.40897234066722" lon="13.306443893484222"><ele>680.6666666666666</ele><time>2026-04-23T09:28:22.999Z</time></trkpt><trkpt lat="42.40889613762047" lon="13.306458909038458"><ele>681.0</ele><time>2026-04-23T09:28:23.999Z</time></trkpt><trkpt lat="42.408835030819276" lon="13.3064879237824"><ele>681.3333333333334</ele><time>2026-04-23T09:28:24.999Z</time></trkpt><trkpt lat="42.408815348158384" lon="13.306620305166462"><ele>681.6666666666667</ele><time>2026-04-23T09:28:27Z</time></trkpt><trkpt lat="42.40886164871255" lon="13.306687023362642"><ele>682.0</ele><time>2026-04-23T09:28:28Z</time></trkpt><trkpt lat="42.40893568989618" lon="13.306757409059152"><ele>683.25</ele><time>2026-04-23T09:28:29Z</time></trkpt><trkpt lat="42.409043639325496" lon="13.30685354176792"><ele>684.5</ele><time>2026-04-23T09:28:30Z</time></trkpt><trkpt lat="42.40915617908015" lon="13.30697160709157"><ele>685.75</ele><time>2026-04-23T09:28:31Z</time></trkpt><trkpt lat="42.40925909670272" lon="13.307098986561556"><ele>687.0</ele><time>2026-04-23T09:28:32Z</time></trkpt><trkpt lat="42.409365465020855" lon="13.30724980444013"><ele>687.0</ele><time>2026-04-23T09:28:33Z</time></trkpt><trkpt lat="42.40947293101108" lon="13.307420921859373"><ele>687.0</ele><time>2026-04-23T09:28:34Z</time></trkpt><trkpt lat="42.4095884382216" lon="13.307608486353189"><ele>687.0</ele><time>2026-04-23T09:28:35Z</time></trkpt><trkpt lat="42.409707429000186" lon="13.307791795508457"><ele>688.3333333333334</ele><time>2026-04-23T09:28:36Z</time></trkpt><trkpt lat="42.40983587708975" lon="13.307990480789417"><ele>689.6666666666667</ele><time>2026-04-23T09:28:37Z</time></trkpt><trkpt lat="42.409967326209646" lon="13.308196126464114"><ele>691.0</ele><time>2026-04-23T09:28:38Z</time></trkpt><trkpt lat="42.41010410372647" lon="13.308403957024789"><ele>691.0</ele><time>2026-04-23T09:28:39Z</time></trkpt><trkpt lat="42.41024069703494" lon="13.308611787532483"><ele>691.0</ele><time>2026-04-23T09:28:40Z</time></trkpt><trkpt lat="42.410377915629304" lon="13.308823424256007"><ele>691.0</ele><time>2026-04-23T09:28:41Z</time></trkpt><trkpt lat="42.41051594024102" lon="13.309040584157845"><ele>692.3333333333334</ele><time>2026-04-23T09:28:42Z</time></trkpt><trkpt lat="42.410653406169565" lon="13.309268350004363"><ele>693.6666666666666</ele><time>2026-04-23T09:28:43Z</time></trkpt><trkpt lat="42.41078879984162" lon="13.309508108464026"><ele>695.0</ele><time>2026-04-23T09:28:44Z</time></trkpt><trkpt lat="42.41091740356444" lon="13.30975275102643"><ele>695.0</ele><time>2026-04-23T09:28:45Z</time></trkpt><trkpt lat="42.4110360025658" lon="13.310004274900711"><ele>695.0</ele><time>2026-04-23T09:28:46Z</time></trkpt><trkpt lat="42.41115405672292" lon="13.310257612565751"><ele>695.0</ele><time>2026-04-23T09:28:47Z</time></trkpt><trkpt lat="42.411282708933946" lon="13.31050597005932"><ele>700.0</ele><time>2026-04-23T09:28:48Z</time></trkpt><trkpt lat="42.41142768491096" lon="13.310745212099091"><ele>705.0</ele><time>2026-04-23T09:28:49Z</time></trkpt><trkpt lat="42.41158392331221" lon="13.310979027257535"><ele>705.0</ele><time>2026-04-23T09:28:50Z</time></trkpt><trkpt lat="42.4117461096372" lon="13.311209335096471"><ele>705.0</ele><time>2026-04-23T09:28:51Z</time></trkpt><trkpt lat="42.41190767906675" lon="13.311440908912648"><ele>703.0</ele><time>2026-04-23T09:28:52Z</time></trkpt><trkpt lat="42.41205656023556" lon="13.311671929720724"><ele>701.0</ele><time>2026-04-23T09:28:53Z</time></trkpt><trkpt lat="42.41219001823168" lon="13.311907005883516"><ele>699.0</ele><time>2026-04-23T09:28:54Z</time></trkpt><trkpt lat="42.41230015463047" lon="13.312154694872152"><ele>702.0</ele><time>2026-04-23T09:28:55Z</time></trkpt><trkpt lat="42.41238437137339" lon="13.3124025280934"><ele>705.0</ele><time>2026-04-23T09:28:56Z</time></trkpt><trkpt lat="42.412446424883875" lon="13.31264800908263"><ele>708.0</ele><time>2026-04-23T09:28:57Z</time></trkpt><trkpt lat="42.41249630907003" lon="13.312896497903038"><ele>708.0</ele><time>2026-04-23T09:28:58Z</time></trkpt><trkpt lat="42.41253510299286" lon="13.313154709596752"><ele>708.0</ele><time>2026-04-23T09:28:59Z</time></trkpt><trkpt lat="42.41256194749456" lon="13.313683685528568"><ele>708.0</ele><time>2026-04-23T09:29:01Z</time></trkpt><trkpt lat="42.41258114993127" lon="13.313946320415766"><ele>708.0</ele><time>2026-04-23T09:29:01.999Z</time></trkpt><trkpt lat="42.41262702281986" lon="13.31420532222823"><ele>708.0</ele><time>2026-04-23T09:29:02.999Z</time></trkpt><trkpt lat="42.41269658308841" lon="13.314464315962084"><ele>708.0</ele><time>2026-04-23T09:29:03.999Z</time></trkpt><trkpt lat="42.412778857821515" lon="13.31471692800356"><ele>708.0</ele><time>2026-04-23T09:29:04.999Z</time></trkpt><trkpt lat="42.41285236902477" lon="13.314975698287965"><ele>708.0</ele><time>2026-04-23T09:29:05.999Z</time></trkpt><trkpt lat="42.41290852681451" lon="13.315237296323133"><ele>708.0</ele><time>2026-04-23T09:29:06.999Z</time></trkpt><trkpt lat="42.41294171446234" lon="13.315494483252131"><ele>708.0</ele><time>2026-04-23T09:29:07.999Z</time></trkpt><trkpt lat="42.41296183045969" lon="13.31572603701202"><ele>708.0</ele><time>2026-04-23T09:29:08.999Z</time></trkpt><trkpt lat="42.412973845187224" lon="13.315936113181035"><ele>708.25</ele><time>2026-04-23T09:29:09.999Z</time></trkpt><trkpt lat="42.41297710048575" lon="13.316131925516126"><ele>708.5</ele><time>2026-04-23T09:29:10.999Z</time></trkpt><trkpt lat="42.412975459035955" lon="13.316298407683059"><ele>708.75</ele><time>2026-04-23T09:29:11.999Z</time></trkpt><trkpt lat="42.41296190820734" lon="13.316451058053117"><ele>709.0</ele><time>2026-04-23T09:29:12.999Z</time></trkpt><trkpt lat="42.41291816373283" lon="13.316596143814596"><ele>710.0</ele><time>2026-04-23T09:29:13.999Z</time></trkpt><trkpt lat="42.4128551011312" lon="13.316745735704037"><ele>711.0</ele><time>2026-04-23T09:29:14.999Z</time></trkpt><trkpt lat="42.41279358457093" lon="13.31692527116342"><ele>712.0</ele><time>2026-04-23T09:29:15.999Z</time></trkpt><trkpt lat="42.41273944514487" lon="13.317132708669304"><ele>713.0</ele><time>2026-04-23T09:29:16.999Z</time></trkpt><trkpt lat="42.41270058617439" lon="13.317339423685006"><ele>713.6666666666666</ele><time>2026-04-23T09:29:17.999Z</time></trkpt><trkpt lat="42.41267044252977" lon="13.31757003967224"><ele>714.3333333333334</ele><time>2026-04-23T09:29:18.999Z</time></trkpt><trkpt lat="42.412641660117266" lon="13.317806710781948"><ele>715.0</ele><time>2026-04-23T09:29:19.999Z</time></trkpt><trkpt lat="42.41261478560431" lon="13.318054276134552"><ele>716.3333333333334</ele><time>2026-04-23T09:29:20.999Z</time></trkpt><trkpt lat="42.41259493721785" lon="13.3183059674727"><ele>717.6666666666666</ele><time>2026-04-23T09:29:21.999Z</time></trkpt><trkpt lat="42.41258905570566" lon="13.31855729490103"><ele>719.0</ele><time>2026-04-23T09:29:22.999Z</time></trkpt><trkpt lat="42.4126044050369" lon="13.318817616841663"><ele>721.0</ele><time>2026-04-23T09:29:23.999Z</time></trkpt><trkpt lat="42.41262036724527" lon="13.319080149953415"><ele>723.0</ele><time>2026-04-23T09:29:24.999Z</time></trkpt><trkpt lat="42.41260815154157" lon="13.319342086867314"><ele>725.0</ele><time>2026-04-23T09:29:25.999Z</time></trkpt><trkpt lat="42.412562336480875" lon="13.319602094435082"><ele>725.6666666666666</ele><time>2026-04-23T09:29:26.999Z</time></trkpt><trkpt lat="42.412536702485205" lon="13.319856910186422"><ele>726.3333333333334</ele><time>2026-04-23T09:29:27.999Z</time></trkpt><trkpt lat="42.41255261555769" lon="13.320118245916785"><ele>727.0</ele><time>2026-04-23T09:29:28.999Z</time></trkpt><trkpt lat="42.41264033722979" lon="13.320654508090463"><ele>727.6666666666667</ele><time>2026-04-23T09:29:30.999Z</time></trkpt><trkpt lat="42.41267578691248" lon="13.320926451179863"><ele>728.3333333333334</ele><time>2026-04-23T09:29:31.999Z</time></trkpt><trkpt lat="42.41269234478973" lon="13.321204408383146"><ele>729.0</ele><time>2026-04-23T09:29:32.999Z</time></trkpt><trkpt lat="42.412694088831" lon="13.321472432514824"><ele>729.25</ele><time>2026-04-23T09:29:33.999Z</time></trkpt><trkpt lat="42.41268386665718" lon="13.321710795649405"><ele>729.5</ele><time>2026-04-23T09:29:34.999Z</time></trkpt><trkpt lat="42.412665270225624" lon="13.32191487815188"><ele>729.75</ele><time>2026-04-23T09:29:35.999Z</time></trkpt><trkpt lat="42.412634480777626" lon="13.32206466543287"><ele>730.0</ele><time>2026-04-23T09:29:36.999Z</time></trkpt><trkpt lat="42.412606053438736" lon="13.32218734675009"><ele>730.0</ele><time>2026-04-23T09:29:37.999Z</time></trkpt><trkpt lat="42.412592694431524" lon="13.322279665074786"><ele>730.0</ele><time>2026-04-23T09:29:38.999Z</time></trkpt><trkpt lat="42.41264303103312" lon="13.322415467134679"><ele>730.0</ele><time>2026-04-23T09:29:40.999Z</time></trkpt><trkpt lat="42.41269789722004" lon="13.322471868325872"><ele>730.0</ele><time>2026-04-23T09:29:42.999Z</time></trkpt><trkpt lat="42.4127635247548" lon="13.322332601591757"><ele>730.0</ele><time>2026-04-23T09:29:45.999Z</time></trkpt><trkpt lat="42.412744349668806" lon="13.322195296073088"><ele>730.0</ele><time>2026-04-23T09:29:46.999Z</time></trkpt><trkpt lat="42.41271698180983" lon="13.32203319832184"><ele>730.0</ele><time>2026-04-23T09:29:47.999Z</time></trkpt><trkpt lat="42.412706919993724" lon="13.321848336884672"><ele>730.0</ele><time>2026-04-23T09:29:48.999Z</time></trkpt><trkpt lat="42.412714513195425" lon="13.321659478727794"><ele>730.0</ele><time>2026-04-23T09:29:49.999Z</time></trkpt><trkpt lat="42.412727596718824" lon="13.321445914632497"><ele>729.6666666666667</ele><time>2026-04-23T09:29:50.999Z</time></trkpt><trkpt lat="42.412724178752185" lon="13.321225144425389"><ele>729.3333333333334</ele><time>2026-04-23T09:29:51.999Z</time></trkpt><trkpt lat="42.412704765873926" lon="13.321015584019014"><ele>729.0</ele><time>2026-04-23T09:29:52.999Z</time></trkpt><trkpt lat="42.41268309335665" lon="13.320804293565258"><ele>729.0</ele><time>2026-04-23T09:29:53.999Z</time></trkpt><trkpt lat="42.41265908806792" lon="13.320606401723683"><ele>729.0</ele><time>2026-04-23T09:29:54.999Z</time></trkpt><trkpt lat="42.41263212943314" lon="13.320419228954194"><ele>729.0</ele><time>2026-04-23T09:29:55.999Z</time></trkpt><trkpt lat="42.41260385244485" lon="13.32024624826447"><ele>729.0</ele><time>2026-04-23T09:29:56.999Z</time></trkpt><trkpt lat="42.4125856294167" lon="13.320112416985605"><ele>728.6</ele><time>2026-04-23T09:29:57.999Z</time></trkpt><trkpt lat="42.41257279280152" lon="13.320006655035538"><ele>728.2</ele><time>2026-04-23T09:29:58.999Z</time></trkpt><trkpt lat="42.41257341111197" lon="13.319907663244063"><ele>727.8000000000001</ele><time>2026-04-23T09:30:00.999Z</time></trkpt><trkpt lat="42.41244033191193" lon="13.319914378167418"><ele>727.4000000000001</ele><time>2026-04-23T09:30:02.999Z</time></trkpt><trkpt lat="42.412369841022105" lon="13.320003265989971"><ele>727.0</ele><time>2026-04-23T09:30:03.999Z</time></trkpt><trkpt lat="42.412292498445545" lon="13.320140963783805"><ele>727.0</ele><time>2026-04-23T09:30:04.999Z</time></trkpt><trkpt lat="42.41222978238289" lon="13.320261528741852"><ele>727.0</ele><time>2026-04-23T09:30:05.999Z</time></trkpt><trkpt lat="42.41217403993979" lon="13.320372571224857"><ele>727.0</ele><time>2026-04-23T09:30:06.999Z</time></trkpt><trkpt lat="42.412119661017925" lon="13.32046574880188"><ele>727.0</ele><time>2026-04-23T09:30:07.999Z</time></trkpt><trkpt lat="42.412063185543474" lon="13.32053268654397"><ele>727.0</ele><time>2026-04-23T09:30:09.999Z</time></trkpt><trkpt lat="42.41215128552053" lon="13.320773248607129"><ele>727.4000000000001</ele><time>2026-04-23T09:30:17.999Z</time></trkpt><trkpt lat="42.4121817395169" lon="13.320871002780315"><ele>727.8000000000001</ele><time>2026-04-23T09:30:18.999Z</time></trkpt><trkpt lat="42.41218935609489" lon="13.320991798425126"><ele>728.2</ele><time>2026-04-23T09:30:19.999Z</time></trkpt><trkpt lat="42.41216202072346" lon="13.32113242699041"><ele>728.6</ele><time>2026-04-23T09:30:20.999Z</time></trkpt><trkpt lat="42.4121557284913" lon="13.321251665255666"><ele>729.0</ele><time>2026-04-23T09:30:21.999Z</time></trkpt><trkpt lat="42.41215414532759" lon="13.321381410789998"><ele>729.2</ele><time>2026-04-23T09:30:22.999Z</time></trkpt><trkpt lat="42.41215509403813" lon="13.321510168584787"><ele>729.4000000000001</ele><time>2026-04-23T09:30:23.999Z</time></trkpt><trkpt lat="42.41215941105353" lon="13.321637351451976"><ele>729.6</ele><time>2026-04-23T09:30:24.999Z</time></trkpt><trkpt lat="42.41217047372532" lon="13.321783044837707"><ele>729.8</ele><time>2026-04-23T09:30:25.999Z</time></trkpt><trkpt lat="42.412187115208134" lon="13.321925017994117"><ele>730.0</ele><time>2026-04-23T09:30:26.999Z</time></trkpt><trkpt lat="42.412206347121256" lon="13.322059671169434"><ele>730.0</ele><time>2026-04-23T09:30:27.999Z</time></trkpt><trkpt lat="42.41224183828802" lon="13.322184787889658"><ele>730.0</ele><time>2026-04-23T09:30:28.999Z</time></trkpt><trkpt lat="42.41225556510244" lon="13.322311429870343"><ele>730.0</ele><time>2026-04-23T09:30:29.999Z</time></trkpt><trkpt lat="42.412278600117546" lon="13.32243587065627"><ele>730.0</ele><time>2026-04-23T09:30:30.999Z</time></trkpt><trkpt lat="42.412303365024265" lon="13.32256730251396"><ele>730.0</ele><time>2026-04-23T09:30:31.999Z</time></trkpt><trkpt lat="42.412322055869325" lon="13.322695791031682"><ele>730.6</ele><time>2026-04-23T09:30:32.999Z</time></trkpt><trkpt lat="42.412347112039505" lon="13.322823941911095"><ele>731.2</ele><time>2026-04-23T09:30:33.999Z</time></trkpt><trkpt lat="42.412375359630396" lon="13.322968415451328"><ele>731.8</ele><time>2026-04-23T09:30:34.999Z</time></trkpt><trkpt lat="42.4124177302952" lon="13.323103896525542"><ele>732.4</ele><time>2026-04-23T09:30:35.999Z</time></trkpt><trkpt lat="42.412431614175475" lon="13.323252387375968"><ele>733.0</ele><time>2026-04-23T09:30:36.999Z</time></trkpt><trkpt lat="42.41244664490104" lon="13.323401051574704"><ele>733.0</ele><time>2026-04-23T09:30:37.999Z</time></trkpt><trkpt lat="42.41246398294754" lon="13.32352968463771"><ele>733.0</ele><time>2026-04-23T09:30:38.999Z</time></trkpt><trkpt lat="42.41248554799038" lon="13.323659971467197"><ele>733.0</ele><time>2026-04-23T09:30:39.999Z</time></trkpt><trkpt lat="42.41250582847505" lon="13.323801131056532"><ele>733.0</ele><time>2026-04-23T09:30:40.999Z</time></trkpt><trkpt lat="42.41253682511704" lon="13.323948198984514"><ele>733.0</ele><time>2026-04-23T09:30:41.999Z</time></trkpt><trkpt lat="42.41254794119651" lon="13.324079127059274"><ele>733.0</ele><time>2026-04-23T09:30:42.999Z</time></trkpt><trkpt lat="42.41256804844272" lon="13.32422431232002"><ele>733.0</ele><time>2026-04-23T09:30:43.999Z</time></trkpt><trkpt lat="42.412589232386026" lon="13.3243860694821"><ele>733.0</ele><time>2026-04-23T09:30:44.999Z</time></trkpt><trkpt lat="42.41261045859305" lon="13.324530452062556"><ele>733.0</ele><time>2026-04-23T09:30:45.999Z</time></trkpt><trkpt lat="42.41264476635197" lon="13.324656471187156"><ele>733.0</ele><time>2026-04-23T09:30:46.999Z</time></trkpt><trkpt lat="42.41267157052297" lon="13.324780436309698"><ele>733.0</ele><time>2026-04-23T09:30:47.999Z</time></trkpt><trkpt lat="42.41268717152327" lon="13.324903003449325"><ele>733.0</ele><time>2026-04-23T09:30:48.999Z</time></trkpt><trkpt lat="42.412722551860554" lon="13.325026168226456"><ele>733.0</ele><time>2026-04-23T09:30:49.999Z</time></trkpt><trkpt lat="42.41276025051119" lon="13.325153745739224"><ele>733.0</ele><time>2026-04-23T09:30:50.999Z</time></trkpt><trkpt lat="42.412803782638214" lon="13.325287020452166"><ele>733.0</ele><time>2026-04-23T09:30:51.999Z</time></trkpt><trkpt lat="42.412846224760344" lon="13.325418318722322"><ele>733.0</ele><time>2026-04-23T09:30:52.999Z</time></trkpt><trkpt lat="42.41288244437011" lon="13.325552843462294"><ele>733.0</ele><time>2026-04-23T09:30:53.999Z</time></trkpt><trkpt lat="42.41288490305253" lon="13.325671121135727"><ele>733.0</ele><time>2026-04-23T09:30:54.999Z</time></trkpt><trkpt lat="42.41291241585057" lon="13.325772354075848"><ele>733.0</ele><time>2026-04-23T09:30:55.999Z</time></trkpt><trkpt lat="42.41293140495824" lon="13.32586054366857"><ele>733.0</ele><time>2026-04-23T09:30:56.999Z</time></trkpt><trkpt lat="42.412974808357326" lon="13.3259262203752"><ele>733.0</ele><time>2026-04-23T09:30:57.999Z</time></trkpt><trkpt lat="42.4130427310074" lon="13.325969214508465"><ele>734.5999999999999</ele><time>2026-04-23T09:30:58.999Z</time></trkpt><trkpt lat="42.413135155636475" lon="13.32602600913232"><ele>736.1999999999999</ele><time>2026-04-23T09:30:59.999Z</time></trkpt><trkpt lat="42.41322141806404" lon="13.326099892520416"><ele>737.8</ele><time>2026-04-23T09:31:00.999Z</time></trkpt><trkpt lat="42.413282799902646" lon="13.326170241438323"><ele>739.4</ele><time>2026-04-23T09:31:01.999Z</time></trkpt><trkpt lat="42.413350797139344" lon="13.32625023671896"><ele>741.0</ele><time>2026-04-23T09:31:02.999Z</time></trkpt><trkpt lat="42.413423679388096" lon="13.32632243438831"><ele>741.0</ele><time>2026-04-23T09:31:03.999Z</time></trkpt><trkpt lat="42.41350748112218" lon="13.326357830965803"><ele>741.0</ele><time>2026-04-23T09:31:04.999Z</time></trkpt><trkpt lat="42.41360567536644" lon="13.326366619176941"><ele>741.0</ele><time>2026-04-23T09:31:05.999Z</time></trkpt><trkpt lat="42.41370021805194" lon="13.326389988316233"><ele>741.0</ele><time>2026-04-23T09:31:06.999Z</time></trkpt><trkpt lat="42.413773395867885" lon="13.326433522353515"><ele>741.0</ele><time>2026-04-23T09:31:07.999Z</time></trkpt><trkpt lat="42.41383907883014" lon="13.326507949729624"><ele>741.0</ele><time>2026-04-23T09:31:08.999Z</time></trkpt><trkpt lat="42.4138737488972" lon="13.326604206350382"><ele>741.1666666666666</ele><time>2026-04-23T09:31:09.999Z</time></trkpt><trkpt lat="42.41387066903869" lon="13.326708067888212"><ele>741.3333333333334</ele><time>2026-04-23T09:31:10.999Z</time></trkpt><trkpt lat="42.41388813106156" lon="13.32681449768347"><ele>741.5</ele><time>2026-04-23T09:31:11.999Z</time></trkpt><trkpt lat="42.41390141358252" lon="13.326921149577556"><ele>741.6666666666667</ele><time>2026-04-23T09:31:12.999Z</time></trkpt><trkpt lat="42.413910020505405" lon="13.327057618250967"><ele>741.8333333333334</ele><time>2026-04-23T09:31:13.999Z</time></trkpt><trkpt lat="42.41390737276916" lon="13.327193089635278"><ele>742.0</ele><time>2026-04-23T09:31:14.999Z</time></trkpt><trkpt lat="42.41389645749446" lon="13.32732673012139"><ele>741.2</ele><time>2026-04-23T09:31:15.999Z</time></trkpt><trkpt lat="42.41388035585136" lon="13.327471643024218"><ele>740.4000000000001</ele><time>2026-04-23T09:31:16.999Z</time></trkpt><trkpt lat="42.41385959067912" lon="13.327623562579593"><ele>739.5999999999999</ele><time>2026-04-23T09:31:17.999Z</time></trkpt><trkpt lat="42.413839118023546" lon="13.327752284794881"><ele>738.8</ele><time>2026-04-23T09:31:18.999Z</time></trkpt><trkpt lat="42.413816962420306" lon="13.327870305805586"><ele>738.0</ele><time>2026-04-23T09:31:19.999Z</time></trkpt><trkpt lat="42.41378373546235" lon="13.327999756189312"><ele>739.5999999999999</ele><time>2026-04-23T09:31:20.999Z</time></trkpt><trkpt lat="42.413736767848185" lon="13.328124699713818"><ele>741.1999999999999</ele><time>2026-04-23T09:31:21.999Z</time></trkpt><trkpt lat="42.413682455785455" lon="13.328251112128864"><ele>742.8</ele><time>2026-04-23T09:31:22.999Z</time></trkpt><trkpt lat="42.4136247586198" lon="13.328377005106406"><ele>744.4</ele><time>2026-04-23T09:31:23.999Z</time></trkpt><trkpt lat="42.413563254387455" lon="13.32849805326769"><ele>746.0</ele><time>2026-04-23T09:31:24.999Z</time></trkpt><trkpt lat="42.413492544613746" lon="13.328623681161188"><ele>746.0</ele><time>2026-04-23T09:31:25.999Z</time></trkpt><trkpt lat="42.41342084658327" lon="13.328745937499674"><ele>746.0</ele><time>2026-04-23T09:31:26.999Z</time></trkpt><trkpt lat="42.41335028605422" lon="13.3288691618339"><ele>746.0</ele><time>2026-04-23T09:31:27.999Z</time></trkpt><trkpt lat="42.41329606444714" lon="13.3290097008635"><ele>746.0</ele><time>2026-04-23T09:31:28.999Z</time></trkpt><trkpt lat="42.413217678295766" lon="13.329131677327618"><ele>745.0</ele><time>2026-04-23T09:31:29.999Z</time></trkpt><trkpt lat="42.413152807229" lon="13.329271911249933"><ele>744.0</ele><time>2026-04-23T09:31:30.999Z</time></trkpt><trkpt lat="42.413070706005335" lon="13.329415425666554"><ele>743.0</ele><time>2026-04-23T09:31:31.999Z</time></trkpt><trkpt lat="42.412998832842106" lon="13.329577677832166"><ele>742.0</ele><time>2026-04-23T09:31:32.999Z</time></trkpt><trkpt lat="42.412913249967346" lon="13.32972777984248"><ele>744.5</ele><time>2026-04-23T09:31:33.999Z</time></trkpt><trkpt lat="42.412835294241724" lon="13.329887503079272"><ele>747.0</ele><time>2026-04-23T09:31:34.999Z</time></trkpt><trkpt lat="42.41274726452823" lon="13.330037222402167"><ele>749.5</ele><time>2026-04-23T09:31:35.999Z</time></trkpt><trkpt lat="42.41266786096502" lon="13.330179906217912"><ele>752.0</ele><time>2026-04-23T09:31:36.999Z</time></trkpt><trkpt lat="42.41258441434353" lon="13.330285153362015"><ele>752.0</ele><time>2026-04-23T09:31:37.999Z</time></trkpt><trkpt lat="42.412512831870224" lon="13.330384545026591"><ele>752.0</ele><time>2026-04-23T09:31:38.999Z</time></trkpt><trkpt lat="42.412430923701706" lon="13.330464383026085"><ele>752.0</ele><time>2026-04-23T09:31:39.999Z</time></trkpt><trkpt lat="42.41237568637801" lon="13.330561753153427"><ele>752.0</ele><time>2026-04-23T09:31:40.999Z</time></trkpt><trkpt lat="42.41234204040014" lon="13.33069752192249"><ele>752.0</ele><time>2026-04-23T09:31:41.999Z</time></trkpt><trkpt lat="42.412295162764856" lon="13.330880565390508"><ele>750.5</ele><time>2026-04-23T09:31:42.999Z</time></trkpt><trkpt lat="42.41221620849709" lon="13.331044847085945"><ele>749.0</ele><time>2026-04-23T09:31:43.999Z</time></trkpt><trkpt lat="42.41215847951607" lon="13.331219040848755"><ele>747.5</ele><time>2026-04-23T09:31:44.999Z</time></trkpt><trkpt lat="42.412071539510094" lon="13.331378920801178"><ele>746.0</ele><time>2026-04-23T09:31:45.999Z</time></trkpt><trkpt lat="42.41199506248102" lon="13.331556609792626"><ele>746.0</ele><time>2026-04-23T09:31:46.999Z</time></trkpt><trkpt lat="42.41191833051378" lon="13.331733278959817"><ele>746.0</ele><time>2026-04-23T09:31:47.999Z</time></trkpt><trkpt lat="42.41184192212791" lon="13.331893978620014"><ele>746.0</ele><time>2026-04-23T09:31:48.999Z</time></trkpt><trkpt lat="42.411765168895485" lon="13.332045910038604"><ele>746.0</ele><time>2026-04-23T09:31:49.999Z</time></trkpt><trkpt lat="42.41169311943802" lon="13.332192000112254"><ele>746.5999999999999</ele><time>2026-04-23T09:31:50.999Z</time></trkpt><trkpt lat="42.411631693915766" lon="13.332326596244782"><ele>747.2</ele><time>2026-04-23T09:31:51.999Z</time></trkpt><trkpt lat="42.411581167187556" lon="13.332441582056447"><ele>747.8</ele><time>2026-04-23T09:31:52.999Z</time></trkpt><trkpt lat="42.41154102076752" lon="13.332540716178402"><ele>748.4000000000001</ele><time>2026-04-23T09:31:53.999Z</time></trkpt><trkpt lat="42.41149348781748" lon="13.332665874333081"><ele>749.0</ele><time>2026-04-23T09:31:54.999Z</time></trkpt><trkpt lat="42.411453501678324" lon="13.332827859643928"><ele>749.0</ele><time>2026-04-23T09:31:55.999Z</time></trkpt><trkpt lat="42.41140574189571" lon="13.332982410891143"><ele>749.0</ele><time>2026-04-23T09:31:56.999Z</time></trkpt><trkpt lat="42.41135112516685" lon="13.333147397923158"><ele>749.0</ele><time>2026-04-23T09:31:57.999Z</time></trkpt><trkpt lat="42.411299833544305" lon="13.333312730652631"><ele>749.0</ele><time>2026-04-23T09:31:58.999Z</time></trkpt><trkpt lat="42.411235845477464" lon="13.33346229177755"><ele>749.25</ele><time>2026-04-23T09:31:59.999Z</time></trkpt><trkpt lat="42.41117802329583" lon="13.333591386486962"><ele>749.5</ele><time>2026-04-23T09:32:00.999Z</time></trkpt><trkpt lat="42.411118745956294" lon="13.333719063221752"><ele>749.75</ele><time>2026-04-23T09:32:01.999Z</time></trkpt><trkpt lat="42.41106690590567" lon="13.333868715090192"><ele>750.0</ele><time>2026-04-23T09:32:02.999Z</time></trkpt><trkpt lat="42.41102444772523" lon="13.334003886470308"><ele>750.8</ele><time>2026-04-23T09:32:03.999Z</time></trkpt><trkpt lat="42.41098839589496" lon="13.33412599471218"><ele>751.6</ele><time>2026-04-23T09:32:04.999Z</time></trkpt><trkpt lat="42.41096077716384" lon="13.334241992583038"><ele>752.4000000000001</ele><time>2026-04-23T09:32:05.999Z</time></trkpt><trkpt lat="42.41095030182159" lon="13.334380713020721"><ele>753.2</ele><time>2026-04-23T09:32:06.999Z</time></trkpt><trkpt lat="42.410938517072054" lon="13.334522751343364"><ele>754.0</ele><time>2026-04-23T09:32:07.999Z</time></trkpt><trkpt lat="42.41091584987149" lon="13.334706971718782"><ele>754.5</ele><time>2026-04-23T09:32:08.999Z</time></trkpt><trkpt lat="42.41087165414245" lon="13.334891019208845"><ele>755.0</ele><time>2026-04-23T09:32:09.999Z</time></trkpt><trkpt lat="42.410843801823496" lon="13.335081075073079"><ele>755.5</ele><time>2026-04-23T09:32:10.999Z</time></trkpt><trkpt lat="42.41083704702397" lon="13.335267591853642"><ele>756.0</ele><time>2026-04-23T09:32:11.999Z</time></trkpt><trkpt lat="42.41083337237039" lon="13.335419592957416"><ele>756.0</ele><time>2026-04-23T09:32:12.999Z</time></trkpt><trkpt lat="42.410841188189146" lon="13.335552120121447"><ele>756.0</ele><time>2026-04-23T09:32:13.999Z</time></trkpt><trkpt lat="42.41085690851713" lon="13.335685407785496"><ele>756.0</ele><time>2026-04-23T09:32:14.999Z</time></trkpt><trkpt lat="42.41086691023588" lon="13.33580983852072"><ele>756.0</ele><time>2026-04-23T09:32:15.999Z</time></trkpt><trkpt lat="42.41085638777893" lon="13.335961185731934"><ele>756.0</ele><time>2026-04-23T09:32:16.999Z</time></trkpt><trkpt lat="42.41085724736506" lon="13.336115053015549"><ele>756.25</ele><time>2026-04-23T09:32:17.999Z</time></trkpt><trkpt lat="42.41087552409771" lon="13.336274913878457"><ele>756.5</ele><time>2026-04-23T09:32:18.999Z</time></trkpt><trkpt lat="42.41086921359121" lon="13.336438963479887"><ele>756.75</ele><time>2026-04-23T09:32:19.999Z</time></trkpt><trkpt lat="42.41087367370496" lon="13.33659629052748"><ele>757.0</ele><time>2026-04-23T09:32:20.999Z</time></trkpt><trkpt lat="42.4108817901574" lon="13.336766112682747"><ele>757.0</ele><time>2026-04-23T09:32:21.999Z</time></trkpt><trkpt lat="42.41088488078038" lon="13.336939617423225"><ele>757.0</ele><time>2026-04-23T09:32:22.999Z</time></trkpt><trkpt lat="42.41089627162682" lon="13.337100941974212"><ele>757.0</ele><time>2026-04-23T09:32:23.999Z</time></trkpt><trkpt lat="42.410919060456365" lon="13.337263289504657"><ele>757.0</ele><time>2026-04-23T09:32:24.999Z</time></trkpt><trkpt lat="42.410943647116504" lon="13.33742662210298"><ele>757.25</ele><time>2026-04-23T09:32:25.999Z</time></trkpt><trkpt lat="42.41097074275652" lon="13.3375976290933"><ele>757.5</ele><time>2026-04-23T09:32:26.999Z</time></trkpt><trkpt lat="42.411000657090526" lon="13.337766392281795"><ele>757.75</ele><time>2026-04-23T09:32:27.999Z</time></trkpt><trkpt lat="42.41102942425102" lon="13.337931164936606"><ele>758.0</ele><time>2026-04-23T09:32:28.999Z</time></trkpt><trkpt lat="42.41104464910516" lon="13.338110558011905"><ele>758.5</ele><time>2026-04-23T09:32:29.999Z</time></trkpt><trkpt lat="42.41107849368595" lon="13.338264837804743"><ele>759.0</ele><time>2026-04-23T09:32:30.999Z</time></trkpt><trkpt lat="42.41110910981601" lon="13.338431462792819"><ele>759.5</ele><time>2026-04-23T09:32:31.999Z</time></trkpt><trkpt lat="42.41113728111954" lon="13.33858729695719"><ele>760.0</ele><time>2026-04-23T09:32:32.999Z</time></trkpt><trkpt lat="42.41115373302263" lon="13.338737286024983"><ele>760.75</ele><time>2026-04-23T09:32:33.999Z</time></trkpt><trkpt lat="42.41118596662668" lon="13.338889005299402"><ele>761.5</ele><time>2026-04-23T09:32:34.999Z</time></trkpt><trkpt lat="42.41121654352111" lon="13.339038795299556"><ele>762.25</ele><time>2026-04-23T09:32:35.999Z</time></trkpt><trkpt lat="42.41124598641398" lon="13.339192777795107"><ele>763.0</ele><time>2026-04-23T09:32:36.999Z</time></trkpt><trkpt lat="42.411278003459614" lon="13.339330657559435"><ele>763.0</ele><time>2026-04-23T09:32:37.999Z</time></trkpt><trkpt lat="42.41130608972749" lon="13.339472823447196"><ele>763.0</ele><time>2026-04-23T09:32:38.999Z</time></trkpt><trkpt lat="42.41133487279159" lon="13.33962774596837"><ele>763.0</ele><time>2026-04-23T09:32:39.999Z</time></trkpt><trkpt lat="42.411378794797756" lon="13.339783985428495"><ele>763.0</ele><time>2026-04-23T09:32:40.999Z</time></trkpt><trkpt lat="42.41142820770031" lon="13.339914809876804"><ele>764.2</ele><time>2026-04-23T09:32:41.999Z</time></trkpt><trkpt lat="42.41148281924016" lon="13.340021146246386"><ele>765.4</ele><time>2026-04-23T09:32:42.999Z</time></trkpt><trkpt lat="42.41154299898855" lon="13.340127950871727"><ele>766.6</ele><time>2026-04-23T09:32:43.999Z</time></trkpt><trkpt lat="42.411589431720195" lon="13.340240969226418"><ele>767.8000000000001</ele><time>2026-04-23T09:32:44.999Z</time></trkpt><trkpt lat="42.4115901419322" lon="13.340368264624178"><ele>769.0</ele><time>2026-04-23T09:32:45.999Z</time></trkpt><trkpt lat="42.411592247552704" lon="13.340475976030504"><ele>769.4000000000001</ele><time>2026-04-23T09:32:46.999Z</time></trkpt><trkpt lat="42.41158243611376" lon="13.340584339977422"><ele>769.8</ele><time>2026-04-23T09:32:47.999Z</time></trkpt><trkpt lat="42.41156515083435" lon="13.340723940964898"><ele>770.2</ele><time>2026-04-23T09:32:48.999Z</time></trkpt><trkpt lat="42.41156278065741" lon="13.34086642411957"><ele>770.5999999999999</ele><time>2026-04-23T09:32:49.999Z</time></trkpt><trkpt lat="42.41157581127708" lon="13.34102609550773"><ele>771.0</ele><time>2026-04-23T09:32:50.999Z</time></trkpt><trkpt lat="42.411576928404344" lon="13.341199330335334"><ele>771.0</ele><time>2026-04-23T09:32:51.999Z</time></trkpt><trkpt lat="42.41159437383101" lon="13.341382023750578"><ele>771.0</ele><time>2026-04-23T09:32:52.999Z</time></trkpt><trkpt lat="42.41163063834745" lon="13.341560255893972"><ele>771.0</ele><time>2026-04-23T09:32:53.999Z</time></trkpt><trkpt lat="42.41165491702213" lon="13.341738136393499"><ele>771.0</ele><time>2026-04-23T09:32:54.999Z</time></trkpt><trkpt lat="42.411681117303054" lon="13.341915046745713"><ele>771.75</ele><time>2026-04-23T09:32:55.999Z</time></trkpt><trkpt lat="42.41168485574563" lon="13.342101633272943"><ele>772.5</ele><time>2026-04-23T09:32:56.999Z</time></trkpt><trkpt lat="42.41169532513551" lon="13.342275442912397"><ele>773.25</ele><time>2026-04-23T09:32:57.999Z</time></trkpt><trkpt lat="42.411718000076874" lon="13.342449329346623"><ele>774.0</ele><time>2026-04-23T09:32:58.999Z</time></trkpt><trkpt lat="42.411716808272494" lon="13.342623359003385"><ele>774.6</ele><time>2026-04-23T09:32:59.999Z</time></trkpt><trkpt lat="42.41172237505396" lon="13.342759653044592"><ele>775.2</ele><time>2026-04-23T09:33:00.999Z</time></trkpt><trkpt lat="42.411739605803305" lon="13.342884487418202"><ele>775.8000000000001</ele><time>2026-04-23T09:33:01.999Z</time></trkpt><trkpt lat="42.411760772438235" lon="13.342994673800524"><ele>776.4000000000001</ele><time>2026-04-23T09:33:02.999Z</time></trkpt><trkpt lat="42.41176178670659" lon="13.343117799056744"><ele>777.0</ele><time>2026-04-23T09:33:03.999Z</time></trkpt><trkpt lat="42.41176761615574" lon="13.343252070667448"><ele>777.5</ele><time>2026-04-23T09:33:04.999Z</time></trkpt><trkpt lat="42.41177650648837" lon="13.343399713971857"><ele>778.0</ele><time>2026-04-23T09:33:05.999Z</time></trkpt><trkpt lat="42.41180492952644" lon="13.343573692681568"><ele>778.5</ele><time>2026-04-23T09:33:06.999Z</time></trkpt><trkpt lat="42.4118097160187" lon="13.34378877839416"><ele>779.0</ele><time>2026-04-23T09:33:07.999Z</time></trkpt><trkpt lat="42.41183199367608" lon="13.344008027919118"><ele>779.25</ele><time>2026-04-23T09:33:08.999Z</time></trkpt><trkpt lat="42.411839928563346" lon="13.344197969353438"><ele>779.5</ele><time>2026-04-23T09:33:09.999Z</time></trkpt><trkpt lat="42.41180573010847" lon="13.344361848816117"><ele>779.75</ele><time>2026-04-23T09:33:10.999Z</time></trkpt><trkpt lat="42.411787358259275" lon="13.344510765622083"><ele>780.0</ele><time>2026-04-23T09:33:11.999Z</time></trkpt><trkpt lat="42.41179341148751" lon="13.344635722092796"><ele>780.4</ele><time>2026-04-23T09:33:12.999Z</time></trkpt><trkpt lat="42.41181703164248" lon="13.344757658672117"><ele>780.8</ele><time>2026-04-23T09:33:14.999Z</time></trkpt><trkpt lat="42.411919583104535" lon="13.344849705704963"><ele>781.2</ele><time>2026-04-23T09:33:16.999Z</time></trkpt><trkpt lat="42.412022608509176" lon="13.344932419685325"><ele>781.6</ele><time>2026-04-23T09:33:17.999Z</time></trkpt><trkpt lat="42.4121026756124" lon="13.345020079239287"><ele>782.0</ele><time>2026-04-23T09:33:18.999Z</time></trkpt><trkpt lat="42.41215979242333" lon="13.345139732743185"><ele>782.8</ele><time>2026-04-23T09:33:19.999Z</time></trkpt><trkpt lat="42.41224129929735" lon="13.345251423982868"><ele>783.6</ele><time>2026-04-23T09:33:20.999Z</time></trkpt><trkpt lat="42.412300833071214" lon="13.345378501227236"><ele>784.4</ele><time>2026-04-23T09:33:21.999Z</time></trkpt><trkpt lat="42.41235745255893" lon="13.345487612168869"><ele>785.1999999999999</ele><time>2026-04-23T09:33:22.999Z</time></trkpt><trkpt lat="42.41240028437183" lon="13.345588724807005"><ele>786.0</ele><time>2026-04-23T09:33:23.999Z</time></trkpt><trkpt lat="42.41247902296823" lon="13.345819048973558"><ele>786.0</ele><time>2026-04-23T09:33:25.999Z</time></trkpt><trkpt lat="42.41251663621967" lon="13.34594788132592"><ele>786.0</ele><time>2026-04-23T09:33:26.999Z</time></trkpt><trkpt lat="42.41255298645068" lon="13.34609023317666"><ele>786.0</ele><time>2026-04-23T09:33:27.999Z</time></trkpt><trkpt lat="42.412575934856086" lon="13.346207040285222"><ele>786.0</ele><time>2026-04-23T09:33:28.999Z</time></trkpt><trkpt lat="42.41261621367437" lon="13.346353016812719"><ele>786.0</ele><time>2026-04-23T09:33:29.999Z</time></trkpt><trkpt lat="42.41263187163157" lon="13.346502495473363"><ele>786.0</ele><time>2026-04-23T09:33:30.999Z</time></trkpt><trkpt lat="42.41266574692015" lon="13.346678212001185"><ele>786.0</ele><time>2026-04-23T09:33:31.999Z</time></trkpt><trkpt lat="42.41270965486224" lon="13.346857354866243"><ele>786.0</ele><time>2026-04-23T09:33:32.999Z</time></trkpt><trkpt lat="42.41276668017394" lon="13.347037428750559"><ele>786.0</ele><time>2026-04-23T09:33:33.999Z</time></trkpt><trkpt lat="42.41283187757792" lon="13.347198437404723"><ele>786.5</ele><time>2026-04-23T09:33:34.999Z</time></trkpt><trkpt lat="42.41291372267686" lon="13.34736038973664"><ele>787.0</ele><time>2026-04-23T09:33:35.999Z</time></trkpt><trkpt lat="42.41300978495527" lon="13.347507940191937"><ele>787.5</ele><time>2026-04-23T09:33:36.999Z</time></trkpt><trkpt lat="42.41311574565355" lon="13.347642638408868"><ele>788.0</ele><time>2026-04-23T09:33:37.999Z</time></trkpt><trkpt lat="42.41321979564242" lon="13.34777230861685"><ele>788.75</ele><time>2026-04-23T09:33:38.999Z</time></trkpt><trkpt lat="42.41331572677337" lon="13.347907872945292"><ele>789.5</ele><time>2026-04-23T09:33:39.999Z</time></trkpt><trkpt lat="42.41340286272843" lon="13.34805461236982"><ele>790.25</ele><time>2026-04-23T09:33:40.999Z</time></trkpt><trkpt lat="42.413478675280345" lon="13.348214413643358"><ele>791.0</ele><time>2026-04-23T09:33:41.999Z</time></trkpt><trkpt lat="42.41354900509842" lon="13.348378887066701"><ele>791.0</ele><time>2026-04-23T09:33:42.999Z</time></trkpt><trkpt lat="42.41362019283853" lon="13.348538398770419"><ele>791.0</ele><time>2026-04-23T09:33:43.999Z</time></trkpt><trkpt lat="42.41368287368018" lon="13.348691052707457"><ele>791.0</ele><time>2026-04-23T09:33:44.999Z</time></trkpt><trkpt lat="42.41373046835047" lon="13.348824283157157"><ele>791.0</ele><time>2026-04-23T09:33:45.999Z</time></trkpt><trkpt lat="42.41377602721223" lon="13.348951667377305"><ele>791.3333333333334</ele><time>2026-04-23T09:33:46.999Z</time></trkpt><trkpt lat="42.41381413827288" lon="13.349055094892227"><ele>791.6666666666667</ele><time>2026-04-23T09:33:47.999Z</time></trkpt><trkpt lat="42.41383216009077" lon="13.349141782842066"><ele>792.0</ele><time>2026-04-23T09:33:48.999Z</time></trkpt><trkpt lat="42.413853470541255" lon="13.349249617578405"><ele>792.3333333333333</ele><time>2026-04-23T09:33:50.999Z</time></trkpt><trkpt lat="42.4138760022748" lon="13.34933578231805"><ele>792.6666666666666</ele><time>2026-04-23T09:33:51.999Z</time></trkpt><trkpt lat="42.41389601927133" lon="13.349452309619519"><ele>793.0</ele><time>2026-04-23T09:33:52.999Z</time></trkpt><trkpt lat="42.413918620272135" lon="13.349586714000308"><ele>794.25</ele><time>2026-04-23T09:33:53.999Z</time></trkpt><trkpt lat="42.413945961558014" lon="13.34975157940581"><ele>795.5</ele><time>2026-04-23T09:33:54.999Z</time></trkpt><trkpt lat="42.41396058477704" lon="13.349923778269895"><ele>796.75</ele><time>2026-04-23T09:33:55.999Z</time></trkpt><trkpt lat="42.41397285502189" lon="13.3500953148333"><ele>798.0</ele><time>2026-04-23T09:33:56.999Z</time></trkpt><trkpt lat="42.413977938476265" lon="13.350265530980854"><ele>798.0</ele><time>2026-04-23T09:33:57.999Z</time></trkpt><trkpt lat="42.413979432182956" lon="13.35042575774372"><ele>798.0</ele><time>2026-04-23T09:33:58.999Z</time></trkpt><trkpt lat="42.41397944722885" lon="13.350594786141821"><ele>798.0</ele><time>2026-04-23T09:33:59.999Z</time></trkpt><trkpt lat="42.413978950337516" lon="13.35076752135181"><ele>798.0</ele><time>2026-04-23T09:34:00.999Z</time></trkpt><trkpt lat="42.413971058389684" lon="13.350937271729773"><ele>798.0</ele><time>2026-04-23T09:34:01.999Z</time></trkpt><trkpt lat="42.41395981908372" lon="13.351115457842353"><ele>798.0</ele><time>2026-04-23T09:34:02.999Z</time></trkpt><trkpt lat="42.413941605476424" lon="13.351290831062107"><ele>798.0</ele><time>2026-04-23T09:34:03.999Z</time></trkpt><trkpt lat="42.41392167246244" lon="13.351487558163004"><ele>798.0</ele><time>2026-04-23T09:34:04.999Z</time></trkpt><trkpt lat="42.41390380099571" lon="13.351688070173392"><ele>798.75</ele><time>2026-04-23T09:34:05.999Z</time></trkpt><trkpt lat="42.4138963291201" lon="13.351860350708858"><ele>799.5</ele><time>2026-04-23T09:34:06.999Z</time></trkpt><trkpt lat="42.41388570044885" lon="13.352049827414948"><ele>800.25</ele><time>2026-04-23T09:34:07.999Z</time></trkpt><trkpt lat="42.41389456349817" lon="13.3522396305488"><ele>801.0</ele><time>2026-04-23T09:34:08.999Z</time></trkpt><trkpt lat="42.41391688856713" lon="13.352431178043759"><ele>801.0</ele><time>2026-04-23T09:34:09.999Z</time></trkpt><trkpt lat="42.41394719543747" lon="13.352632251631993"><ele>801.0</ele><time>2026-04-23T09:34:10.999Z</time></trkpt><trkpt lat="42.41397519484526" lon="13.352829344335957"><ele>801.0</ele><time>2026-04-23T09:34:11.999Z</time></trkpt><trkpt lat="42.41399930985043" lon="13.353029412569741"><ele>801.0</ele><time>2026-04-23T09:34:12.999Z</time></trkpt><trkpt lat="42.41402145898242" lon="13.35323062872478"><ele>802.0</ele><time>2026-04-23T09:34:13.999Z</time></trkpt><trkpt lat="42.41405325988346" lon="13.353433332674491"><ele>803.0</ele><time>2026-04-23T09:34:14.999Z</time></trkpt><trkpt lat="42.41409315914579" lon="13.353642966252965"><ele>804.0</ele><time>2026-04-23T09:34:15.999Z</time></trkpt><trkpt lat="42.41413085220273" lon="13.35384648293859"><ele>804.75</ele><time>2026-04-23T09:34:16.999Z</time></trkpt><trkpt lat="42.41416755298378" lon="13.354040186506664"><ele>805.5</ele><time>2026-04-23T09:34:17.999Z</time></trkpt><trkpt lat="42.414202995858545" lon="13.354217492315787"><ele>806.25</ele><time>2026-04-23T09:34:18.999Z</time></trkpt><trkpt lat="42.41422860997093" lon="13.354394507546724"><ele>807.0</ele><time>2026-04-23T09:34:19.999Z</time></trkpt><trkpt lat="42.41424664926047" lon="13.354536462066113"><ele>807.0</ele><time>2026-04-23T09:34:20.999Z</time></trkpt><trkpt lat="42.41428539903434" lon="13.354649627940935"><ele>807.0</ele><time>2026-04-23T09:34:21.999Z</time></trkpt><trkpt lat="42.41432083608579" lon="13.354751732187"><ele>807.0</ele><time>2026-04-23T09:34:22.999Z</time></trkpt><trkpt lat="42.41436248853822" lon="13.35488241700376"><ele>807.0</ele><time>2026-04-23T09:34:23.999Z</time></trkpt><trkpt lat="42.4144069401323" lon="13.355012619662597"><ele>807.0</ele><time>2026-04-23T09:34:24.999Z</time></trkpt><trkpt lat="42.41446487107026" lon="13.35516524230513"><ele>807.4000000000001</ele><time>2026-04-23T09:34:25.999Z</time></trkpt><trkpt lat="42.41457602786472" lon="13.355365006940646"><ele>807.8000000000001</ele><time>2026-04-23T09:34:26.999Z</time></trkpt><trkpt lat="42.414569740798655" lon="13.355468711915192"><ele>808.2</ele><time>2026-04-23T09:34:27.999Z</time></trkpt><trkpt lat="42.414576621310296" lon="13.35557430570526"><ele>808.6</ele><time>2026-04-23T09:34:28.999Z</time></trkpt><trkpt lat="42.414571107325095" lon="13.355671773109691"><ele>809.0</ele><time>2026-04-23T09:34:29.999Z</time></trkpt><trkpt lat="42.41478476109149" lon="13.356016803136335"><ele>809.75</ele><time>2026-04-23T09:34:30.999Z</time></trkpt><trkpt lat="42.4148587700821" lon="13.356203749872837"><ele>810.5</ele><time>2026-04-23T09:34:31.999Z</time></trkpt><trkpt lat="42.41493074164947" lon="13.356370310941548"><ele>811.25</ele><time>2026-04-23T09:34:32.999Z</time></trkpt><trkpt lat="42.41499636946374" lon="13.35653232057656"><ele>812.0</ele><time>2026-04-23T09:34:33.999Z</time></trkpt><trkpt lat="42.41506132721821" lon="13.356698266376783"><ele>812.0</ele><time>2026-04-23T09:34:34.999Z</time></trkpt><trkpt lat="42.415124395997985" lon="13.35687218848582"><ele>812.0</ele><time>2026-04-23T09:34:35.999Z</time></trkpt><trkpt lat="42.41517560550317" lon="13.357037132689406"><ele>812.0</ele><time>2026-04-23T09:34:36.999Z</time></trkpt><trkpt lat="42.41521154701931" lon="13.3571879806502"><ele>812.0</ele><time>2026-04-23T09:34:37.999Z</time></trkpt><trkpt lat="42.41526183232996" lon="13.357328610497682"><ele>812.8333333333334</ele><time>2026-04-23T09:34:38.999Z</time></trkpt><trkpt lat="42.415307128154716" lon="13.357431746436024"><ele>813.6666666666667</ele><time>2026-04-23T09:34:39.999Z</time></trkpt><trkpt lat="42.415358983898685" lon="13.357504415583923"><ele>814.5</ele><time>2026-04-23T09:34:41.999Z</time></trkpt><trkpt lat="42.41537476324802" lon="13.357588364658657"><ele>815.3333333333333</ele><time>2026-04-23T09:34:59.999Z</time></trkpt><trkpt lat="42.41542167864301" lon="13.357681697223232"><ele>816.1666666666666</ele><time>2026-04-23T09:35:00.999Z</time></trkpt><trkpt lat="42.41546346146975" lon="13.357785280699614"><ele>817.0</ele><time>2026-04-23T09:35:01.999Z</time></trkpt><trkpt lat="42.41550365924372" lon="13.357891735909933"><ele>817.9999999999999</ele><time>2026-04-23T09:35:02.999Z</time></trkpt><trkpt lat="42.41553882390307" lon="13.358008051028852"><ele>819.0</ele><time>2026-04-23T09:35:03.999Z</time></trkpt><trkpt lat="42.41557264127638" lon="13.358120218555534"><ele>820.0</ele><time>2026-04-23T09:35:04.999Z</time></trkpt><trkpt lat="42.41560687874351" lon="13.358239292145514"><ele>821.0</ele><time>2026-04-23T09:35:05.999Z</time></trkpt><trkpt lat="42.415644190067496" lon="13.358344286815809"><ele>821.9999999999999</ele><time>2026-04-23T09:35:06.999Z</time></trkpt><trkpt lat="42.41567304557184" lon="13.358447817057696"><ele>823.0</ele><time>2026-04-23T09:35:07.999Z</time></trkpt><trkpt lat="42.415672627419646" lon="13.358578437754023"><ele>823.3333333333333</ele><time>2026-04-23T09:35:08.999Z</time></trkpt><trkpt lat="42.41566290999798" lon="13.35871799481167"><ele>823.6666666666666</ele><time>2026-04-23T09:35:09.999Z</time></trkpt><trkpt lat="42.41566824257143" lon="13.35884843575366"><ele>824.0</ele><time>2026-04-23T09:35:10.999Z</time></trkpt><trkpt lat="42.415689701276484" lon="13.358952911470803"><ele>824.3333333333333</ele><time>2026-04-23T09:35:11.999Z</time></trkpt><trkpt lat="42.41570430511258" lon="13.359056917631236"><ele>824.6666666666666</ele><time>2026-04-23T09:35:12.999Z</time></trkpt><trkpt lat="42.41573833113353" lon="13.35915409478551"><ele>825.0</ele><time>2026-04-23T09:35:13.999Z</time></trkpt><trkpt lat="42.41578946247556" lon="13.359256159737935"><ele>825.0</ele><time>2026-04-23T09:35:14.999Z</time></trkpt><trkpt lat="42.41584117151753" lon="13.359359524063015"><ele>825.0</ele><time>2026-04-23T09:35:15.999Z</time></trkpt><trkpt lat="42.41598141105355" lon="13.359566805695076"><ele>825.0</ele><time>2026-04-23T09:35:17.999Z</time></trkpt><trkpt lat="42.41603249105066" lon="13.359646120954562"><ele>825.0</ele><time>2026-04-23T09:35:18.999Z</time></trkpt><trkpt lat="42.41607182031402" lon="13.359731573806506"><ele>825.0</ele><time>2026-04-23T09:35:19.999Z</time></trkpt><trkpt lat="42.416108845083464" lon="13.359830304159997"><ele>825.0</ele><time>2026-04-23T09:35:21.999Z</time></trkpt><trkpt lat="42.41606776552651" lon="13.35974056707429"><ele>825.0</ele><time>2026-04-23T09:35:38.999Z</time></trkpt><trkpt lat="42.41601117274258" lon="13.35962401257583"><ele>825.0</ele><time>2026-04-23T09:35:40.999Z</time></trkpt><trkpt lat="42.41610758264173" lon="13.35959224652783"><ele>825.0</ele><time>2026-04-23T09:35:45.999Z</time></trkpt><trkpt lat="42.41617100355176" lon="13.35958531864814"><ele>825.0</ele><time>2026-04-23T09:35:46.999Z</time></trkpt><trkpt lat="42.416259893364575" lon="13.359702971613121"><ele>826.8</ele><time>2026-04-23T09:35:48.999Z</time></trkpt><trkpt lat="42.416340544771785" lon="13.359621371743732"><ele>828.6</ele><time>2026-04-23T09:35:49.999Z</time></trkpt><trkpt lat="42.416425086791094" lon="13.359635201435022"><ele>830.4000000000001</ele><time>2026-04-23T09:35:50.999Z</time></trkpt><trkpt lat="42.416511861379306" lon="13.359654857050263"><ele>832.2</ele><time>2026-04-23T09:35:51.999Z</time></trkpt><trkpt lat="42.41660818297244" lon="13.35967283053462"><ele>834.0</ele><time>2026-04-23T09:35:52.999Z</time></trkpt><trkpt lat="42.41669381242463" lon="13.35967192971059"><ele>834.0</ele><time>2026-04-23T09:35:53.999Z</time></trkpt><trkpt lat="42.416774867978496" lon="13.359652513564681"><ele>834.0</ele><time>2026-04-23T09:35:54.999Z</time></trkpt><trkpt lat="42.41685340495844" lon="13.3596518965536"><ele>834.0</ele><time>2026-04-23T09:35:55.999Z</time></trkpt><trkpt lat="42.41692927212457" lon="13.359675084113348"><ele>834.0</ele><time>2026-04-23T09:35:56.999Z</time></trkpt><trkpt lat="42.41700902562093" lon="13.359696968405867"><ele>834.0</ele><time>2026-04-23T09:35:57.999Z</time></trkpt><trkpt lat="42.417091408643856" lon="13.359697766564356"><ele>834.0</ele><time>2026-04-23T09:35:58.999Z</time></trkpt><trkpt lat="42.41717564432115" lon="13.359696089317762"><ele>836.4000000000001</ele><time>2026-04-23T09:35:59.999Z</time></trkpt><trkpt lat="42.41726250365984" lon="13.359696237291333"><ele>838.8</ele><time>2026-04-23T09:36:00.999Z</time></trkpt><trkpt lat="42.417354915051305" lon="13.359707494641219"><ele>841.2</ele><time>2026-04-23T09:36:01.999Z</time></trkpt><trkpt lat="42.41744971105758" lon="13.35973547179173"><ele>843.5999999999999</ele><time>2026-04-23T09:36:02.999Z</time></trkpt><trkpt lat="42.417539335890154" lon="13.359758446354833"><ele>846.0</ele><time>2026-04-23T09:36:03.999Z</time></trkpt><trkpt lat="42.41763223708292" lon="13.359776050775741"><ele>846.0</ele><time>2026-04-23T09:36:04.999Z</time></trkpt><trkpt lat="42.417719947317444" lon="13.35978946986976"><ele>846.0</ele><time>2026-04-23T09:36:05.999Z</time></trkpt><trkpt lat="42.41779686767102" lon="13.359805356459818"><ele>846.0</ele><time>2026-04-23T09:36:06.999Z</time></trkpt><trkpt lat="42.417869529166815" lon="13.35981798095774"><ele>846.0</ele><time>2026-04-23T09:36:07.999Z</time></trkpt><trkpt lat="42.41794330494273" lon="13.359832709020663"><ele>846.0</ele><time>2026-04-23T09:36:08.999Z</time></trkpt><trkpt lat="42.41801581556002" lon="13.359827483491037"><ele>846.0</ele><time>2026-04-23T09:36:09.999Z</time></trkpt><trkpt lat="42.41808506031625" lon="13.359805287556242"><ele>847.5999999999999</ele><time>2026-04-23T09:36:10.999Z</time></trkpt><trkpt lat="42.418152824301174" lon="13.359766380182558"><ele>849.2</ele><time>2026-04-23T09:36:11.999Z</time></trkpt><trkpt lat="42.41823738230605" lon="13.359714870420413"><ele>850.8000000000001</ele><time>2026-04-23T09:36:13.999Z</time></trkpt><trkpt lat="42.418282901585414" lon="13.359862216263148"><ele>852.4000000000001</ele><time>2026-04-23T09:36:16.999Z</time></trkpt><trkpt lat="42.418293781392705" lon="13.359974617807936"><ele>854.0</ele><time>2026-04-23T09:36:17.999Z</time></trkpt><trkpt lat="42.41831044243346" lon="13.360096998602561"><ele>854.0</ele><time>2026-04-23T09:36:18.999Z</time></trkpt><trkpt lat="42.418330570773094" lon="13.360229506718383"><ele>854.0000000000001</ele><time>2026-04-23T09:36:19.999Z</time></trkpt><trkpt lat="42.41834389594055" lon="13.360371321571455"><ele>854.0000000000001</ele><time>2026-04-23T09:36:20.999Z</time></trkpt><trkpt lat="42.41835132984771" lon="13.360510530840791"><ele>854.0</ele><time>2026-04-23T09:36:21.999Z</time></trkpt><trkpt lat="42.41835920592679" lon="13.360647967735945"><ele>854.0</ele><time>2026-04-23T09:36:22.999Z</time></trkpt><trkpt lat="42.41836682881715" lon="13.36077838800087"><ele>853.4000000000001</ele><time>2026-04-23T09:36:23.999Z</time></trkpt><trkpt lat="42.41838168872995" lon="13.360903021787982"><ele>852.8000000000001</ele><time>2026-04-23T09:36:24.999Z</time></trkpt><trkpt lat="42.41839894221076" lon="13.361036517494524"><ele>852.2</ele><time>2026-04-23T09:36:25.999Z</time></trkpt><trkpt lat="42.41842795090035" lon="13.361175284253477"><ele>851.5999999999999</ele><time>2026-04-23T09:36:26.999Z</time></trkpt><trkpt lat="42.41847015890146" lon="13.361312653415695"><ele>851.0</ele><time>2026-04-23T09:36:27.999Z</time></trkpt><trkpt lat="42.418511122946164" lon="13.361465152856043"><ele>848.75</ele><time>2026-04-23T09:36:28.999Z</time></trkpt><trkpt lat="42.41854565235999" lon="13.36161804290455"><ele>846.5</ele><time>2026-04-23T09:36:29.999Z</time></trkpt><trkpt lat="42.41857698757429" lon="13.361778215347309"><ele>844.25</ele><time>2026-04-23T09:36:30.999Z</time></trkpt><trkpt lat="42.41861051578876" lon="13.361940606270016"><ele>842.0</ele><time>2026-04-23T09:36:31.999Z</time></trkpt><trkpt lat="42.4186403578342" lon="13.362113107566058"><ele>841.5</ele><time>2026-04-23T09:36:32.999Z</time></trkpt><trkpt lat="42.41867080607286" lon="13.362290805845817"><ele>841.0</ele><time>2026-04-23T09:36:33.999Z</time></trkpt><trkpt lat="42.4187028008244" lon="13.362470076561944"><ele>840.5</ele><time>2026-04-23T09:36:34.999Z</time></trkpt><trkpt lat="42.418727251248626" lon="13.36262869260647"><ele>840.0</ele><time>2026-04-23T09:36:35.999Z</time></trkpt><trkpt lat="42.41874071038737" lon="13.362781374368183"><ele>840.0</ele><time>2026-04-23T09:36:36.999Z</time></trkpt><trkpt lat="42.4187437667493" lon="13.362938466606973"><ele>840.0</ele><time>2026-04-23T09:36:37.999Z</time></trkpt><trkpt lat="42.418747450718016" lon="13.363103107042097"><ele>840.0</ele><time>2026-04-23T09:36:38.999Z</time></trkpt><trkpt lat="42.418746733297" lon="13.363265690821885"><ele>840.0</ele><time>2026-04-23T09:36:39.999Z</time></trkpt><trkpt lat="42.41873745893785" lon="13.363418745656789"><ele>838.3333333333333</ele><time>2026-04-23T09:36:40.999Z</time></trkpt><trkpt lat="42.41872178139969" lon="13.363722556999514"><ele>836.6666666666666</ele><time>2026-04-23T09:36:42.999Z</time></trkpt><trkpt lat="42.41871975394384" lon="13.363889885398446"><ele>835.0</ele><time>2026-04-23T09:36:43.999Z</time></trkpt><trkpt lat="42.418725009807595" lon="13.364036187069052"><ele>835.0</ele><time>2026-04-23T09:36:44.999Z</time></trkpt><trkpt lat="42.418723100481635" lon="13.36418793556347"><ele>835.0</ele><time>2026-04-23T09:36:45.999Z</time></trkpt><trkpt lat="42.41871169872044" lon="13.364334525509504"><ele>835.0</ele><time>2026-04-23T09:36:46.999Z</time></trkpt><trkpt lat="42.41870902305621" lon="13.364470521718525"><ele>835.0</ele><time>2026-04-23T09:36:47.999Z</time></trkpt><trkpt lat="42.418725461543474" lon="13.364605469767861"><ele>835.0</ele><time>2026-04-23T09:36:48.999Z</time></trkpt><trkpt lat="42.418755948636296" lon="13.3647360987937"><ele>836.2</ele><time>2026-04-23T09:36:49.999Z</time></trkpt><trkpt lat="42.41879475775452" lon="13.364862351310938"><ele>837.4</ele><time>2026-04-23T09:36:50.999Z</time></trkpt><trkpt lat="42.418848673933915" lon="13.364983038515602"><ele>838.5999999999999</ele><time>2026-04-23T09:36:51.999Z</time></trkpt><trkpt lat="42.41892364777635" lon="13.365107487020389"><ele>839.8</ele><time>2026-04-23T09:36:52.999Z</time></trkpt><trkpt lat="42.419006188491565" lon="13.365218561290462"><ele>841.0</ele><time>2026-04-23T09:36:53.999Z</time></trkpt><trkpt lat="42.41909844427712" lon="13.365326927104082"><ele>842.0</ele><time>2026-04-23T09:36:54.999Z</time></trkpt><trkpt lat="42.41916326052987" lon="13.365452241054077"><ele>843.0</ele><time>2026-04-23T09:36:55.999Z</time></trkpt><trkpt lat="42.419232717247475" lon="13.365576026654049"><ele>844.0</ele><time>2026-04-23T09:36:57Z</time></trkpt><trkpt lat="42.41928457081813" lon="13.365722263022104"><ele>845.0</ele><time>2026-04-23T09:36:58Z</time></trkpt><trkpt lat="42.41937042190937" lon="13.366037959328313"><ele>845.0</ele><time>2026-04-23T09:37:00Z</time></trkpt><trkpt lat="42.41942043575494" lon="13.366211461799072"><ele>845.0</ele><time>2026-04-23T09:37:01Z</time></trkpt><trkpt lat="42.41946895541626" lon="13.366392742755174"><ele>845.0</ele><time>2026-04-23T09:37:02Z</time></trkpt><trkpt lat="42.41951465800489" lon="13.366574834786054"><ele>845.0</ele><time>2026-04-23T09:37:03Z</time></trkpt><trkpt lat="42.419558860299325" lon="13.366759637510564"><ele>845.0</ele><time>2026-04-23T09:37:04Z</time></trkpt><trkpt lat="42.419597001619586" lon="13.366943482923947"><ele>845.0</ele><time>2026-04-23T09:37:05Z</time></trkpt><trkpt lat="42.4196380630768" lon="13.367121359223678"><ele>845.0</ele><time>2026-04-23T09:37:06Z</time></trkpt><trkpt lat="42.41968317422436" lon="13.367286694748117"><ele>845.0</ele><time>2026-04-23T09:37:07Z</time></trkpt><trkpt lat="42.41973124707554" lon="13.367443742711213"><ele>848.0</ele><time>2026-04-23T09:37:08Z</time></trkpt><trkpt lat="42.41978452312169" lon="13.36759551892251"><ele>851.0</ele><time>2026-04-23T09:37:09Z</time></trkpt><trkpt lat="42.419810736187806" lon="13.367724064880374"><ele>854.0</ele><time>2026-04-23T09:37:10Z</time></trkpt><trkpt lat="42.41982319431122" lon="13.367863279040359"><ele>857.0</ele><time>2026-04-23T09:37:11Z</time></trkpt><trkpt lat="42.41983296047417" lon="13.368016148647127"><ele>860.0</ele><time>2026-04-23T09:37:12Z</time></trkpt><trkpt lat="42.419848176040546" lon="13.368181724819948"><ele>860.0</ele><time>2026-04-23T09:37:13Z</time></trkpt><trkpt lat="42.41986747884945" lon="13.36834358116628"><ele>860.0</ele><time>2026-04-23T09:37:14Z</time></trkpt><trkpt lat="42.41989130721116" lon="13.368500444232364"><ele>860.0</ele><time>2026-04-23T09:37:15Z</time></trkpt><trkpt lat="42.41990799675603" lon="13.368626409038047"><ele>860.0</ele><time>2026-04-23T09:37:16Z</time></trkpt><trkpt lat="42.41992277261628" lon="13.368761127770602"><ele>860.0</ele><time>2026-04-23T09:37:17Z</time></trkpt><trkpt lat="42.41993260924863" lon="13.368910151051072"><ele>859.6</ele><time>2026-04-23T09:37:18Z</time></trkpt><trkpt lat="42.41993258563798" lon="13.369056892443965"><ele>859.2</ele><time>2026-04-23T09:37:19Z</time></trkpt><trkpt lat="42.419920600774525" lon="13.369182921709438"><ele>858.8</ele><time>2026-04-23T09:37:20Z</time></trkpt><trkpt lat="42.419894157113525" lon="13.369292527381361"><ele>858.4</ele><time>2026-04-23T09:37:21Z</time></trkpt><trkpt lat="42.41985601608395" lon="13.369436384986301"><ele>858.0</ele><time>2026-04-23T09:37:22Z</time></trkpt><trkpt lat="42.41981978874565" lon="13.369569127855165"><ele>858.5999999999999</ele><time>2026-04-23T09:37:23Z</time></trkpt><trkpt lat="42.41979221904845" lon="13.369704011127666"><ele>859.1999999999999</ele><time>2026-04-23T09:37:24Z</time></trkpt><trkpt lat="42.41978498762241" lon="13.369840472975902"><ele>859.8</ele><time>2026-04-23T09:37:25Z</time></trkpt><trkpt lat="42.41979749945413" lon="13.369985685214319"><ele>860.4</ele><time>2026-04-23T09:37:26Z</time></trkpt><trkpt lat="42.419800517950826" lon="13.370118602552063"><ele>861.0</ele><time>2026-04-23T09:37:27Z</time></trkpt><trkpt lat="42.419768870513536" lon="13.370256622895667"><ele>861.0</ele><time>2026-04-23T09:37:28Z</time></trkpt><trkpt lat="42.41972412302125" lon="13.370406994386622"><ele>860.9999999999999</ele><time>2026-04-23T09:37:29Z</time></trkpt><trkpt lat="42.419693417449814" lon="13.370508507086464"><ele>860.9999999999999</ele><time>2026-04-23T09:37:30Z</time></trkpt><trkpt lat="42.41964416575681" lon="13.370642738809607"><ele>861.0</ele><time>2026-04-23T09:37:32Z</time></trkpt><trkpt lat="42.41956581589668" lon="13.370736051482094"><ele>861.0</ele><time>2026-04-23T09:37:34Z</time></trkpt><trkpt lat="42.41950053818136" lon="13.370776398745999"><ele>861.5</ele><time>2026-04-23T09:37:35Z</time></trkpt><trkpt lat="42.41943314513929" lon="13.37082094862911"><ele>862.0</ele><time>2026-04-23T09:37:36Z</time></trkpt><trkpt lat="42.41936255757698" lon="13.370895942373098"><ele>862.5</ele><time>2026-04-23T09:37:37Z</time></trkpt><trkpt lat="42.41931217554829" lon="13.370990508379801"><ele>863.0</ele><time>2026-04-23T09:37:38Z</time></trkpt><trkpt lat="42.41927706610642" lon="13.371085198599978"><ele>863.5</ele><time>2026-04-23T09:37:39Z</time></trkpt><trkpt lat="42.41925821665848" lon="13.371195601826642"><ele>864.0</ele><time>2026-04-23T09:37:40Z</time></trkpt><trkpt lat="42.41924413115644" lon="13.371314337221964"><ele>864.2</ele><time>2026-04-23T09:37:41Z</time></trkpt><trkpt lat="42.4192251051346" lon="13.371447395537082"><ele>864.4000000000001</ele><time>2026-04-23T09:37:41.999Z</time></trkpt><trkpt lat="42.419205277888274" lon="13.371554700155677"><ele>864.6</ele><time>2026-04-23T09:37:42.999Z</time></trkpt><trkpt lat="42.419167683707876" lon="13.371681074530573"><ele>864.8</ele><time>2026-04-23T09:37:43.999Z</time></trkpt><trkpt lat="42.41912280579745" lon="13.37180473801232"><ele>865.0</ele><time>2026-04-23T09:37:44.999Z</time></trkpt><trkpt lat="42.41910508061026" lon="13.371933625142956"><ele>865.0</ele><time>2026-04-23T09:37:45.999Z</time></trkpt><trkpt lat="42.41908631359952" lon="13.37208773904384"><ele>865.0</ele><time>2026-04-23T09:37:46.999Z</time></trkpt><trkpt lat="42.419062166438145" lon="13.372245613735732"><ele>865.0</ele><time>2026-04-23T09:37:47.999Z</time></trkpt><trkpt lat="42.41904031650848" lon="13.372403448243148"><ele>865.0</ele><time>2026-04-23T09:37:48.999Z</time></trkpt><trkpt lat="42.41901500691179" lon="13.372540603888531"><ele>867.0</ele><time>2026-04-23T09:37:49.999Z</time></trkpt><trkpt lat="42.41897717482119" lon="13.372673656774342"><ele>869.0</ele><time>2026-04-23T09:37:50.999Z</time></trkpt><trkpt lat="42.41893664187954" lon="13.372797490066255"><ele>871.0</ele><time>2026-04-23T09:37:51.999Z</time></trkpt><trkpt lat="42.41889160946029" lon="13.37288288274556"><ele>873.0</ele><time>2026-04-23T09:37:52.999Z</time></trkpt><trkpt lat="42.41884749933153" lon="13.372987509541574"><ele>875.0</ele><time>2026-04-23T09:37:53.999Z</time></trkpt><trkpt lat="42.41881424200486" lon="13.373089093786525"><ele>877.0000000000001</ele><time>2026-04-23T09:37:54.999Z</time></trkpt><trkpt lat="42.41878912822909" lon="13.373178873460896"><ele>879.0</ele><time>2026-04-23T09:37:55.999Z</time></trkpt><trkpt lat="42.418760493909815" lon="13.373257456192201"><ele>881.0</ele><time>2026-04-23T09:37:56.999Z</time></trkpt><trkpt lat="42.41869963523649" lon="13.373380876133059"><ele>883.0</ele><time>2026-04-23T09:37:58.999Z</time></trkpt><trkpt lat="42.418656625497086" lon="13.373468855951666"><ele>885.0000000000001</ele><time>2026-04-23T09:38:00.999Z</time></trkpt><trkpt lat="42.41862454656646" lon="13.373547631959113"><ele>887.0</ele><time>2026-04-23T09:38:01.999Z</time></trkpt><trkpt lat="42.418605768001875" lon="13.373640467355882"><ele>887.0000000000001</ele><time>2026-04-23T09:38:02.999Z</time></trkpt><trkpt lat="42.41856728709575" lon="13.373725029747604"><ele>887.0</ele><time>2026-04-23T09:38:03.999Z</time></trkpt><trkpt lat="42.418518597499826" lon="13.373808698375713"><ele>887.0</ele><time>2026-04-23T09:38:04.999Z</time></trkpt><trkpt lat="42.418458091122524" lon="13.373873421963824"><ele>887.0</ele><time>2026-04-23T09:38:05.999Z</time></trkpt><trkpt lat="42.41839664031079" lon="13.373936367080681"><ele>887.0000000000001</ele><time>2026-04-23T09:38:06.999Z</time></trkpt><trkpt lat="42.41832898740272" lon="13.374000340026429"><ele>887.0</ele><time>2026-04-23T09:38:07.999Z</time></trkpt><trkpt lat="42.41827583820414" lon="13.37407707901666"><ele>887.4000000000001</ele><time>2026-04-23T09:38:08.999Z</time></trkpt><trkpt lat="42.41821509565944" lon="13.374171223513873"><ele>887.8000000000001</ele><time>2026-04-23T09:38:09.999Z</time></trkpt><trkpt lat="42.41817244325081" lon="13.374270864313406"><ele>888.2</ele><time>2026-04-23T09:38:10.999Z</time></trkpt><trkpt lat="42.418123722449145" lon="13.374399235063597"><ele>888.6</ele><time>2026-04-23T09:38:11.999Z</time></trkpt><trkpt lat="42.4180948170088" lon="13.374531527090685"><ele>889.0</ele><time>2026-04-23T09:38:12.999Z</time></trkpt><trkpt lat="42.41806037271196" lon="13.374658591832153"><ele>891.8000000000001</ele><time>2026-04-23T09:38:13.999Z</time></trkpt><trkpt lat="42.41802733929093" lon="13.374789455626761"><ele>894.6000000000001</ele><time>2026-04-23T09:38:14.999Z</time></trkpt><trkpt lat="42.41799363835401" lon="13.374908154224483"><ele>897.4</ele><time>2026-04-23T09:38:15.999Z</time></trkpt><trkpt lat="42.41795124411799" lon="13.375037772123846"><ele>900.2</ele><time>2026-04-23T09:38:16.999Z</time></trkpt><trkpt lat="42.417895380071" lon="13.375154197574755"><ele>903.0</ele><time>2026-04-23T09:38:17.999Z</time></trkpt><trkpt lat="42.41784229409644" lon="13.375275908762271"><ele>903.2</ele><time>2026-04-23T09:38:18.999Z</time></trkpt><trkpt lat="42.41778149845695" lon="13.375412541451428"><ele>903.4</ele><time>2026-04-23T09:38:19.999Z</time></trkpt><trkpt lat="42.417739998130635" lon="13.375547915845504"><ele>903.6000000000001</ele><time>2026-04-23T09:38:20.999Z</time></trkpt><trkpt lat="42.41769500614423" lon="13.375669300104091"><ele>903.8000000000001</ele><time>2026-04-23T09:38:21.999Z</time></trkpt><trkpt lat="42.41763788008203" lon="13.375777961430865"><ele>904.0</ele><time>2026-04-23T09:38:22.999Z</time></trkpt><trkpt lat="42.4175897613232" lon="13.375872044712343"><ele>903.9999999999999</ele><time>2026-04-23T09:38:23.999Z</time></trkpt><trkpt lat="42.41754767458564" lon="13.375942091604623"><ele>904.0</ele><time>2026-04-23T09:38:24.999Z</time></trkpt><trkpt lat="42.41755502896119" lon="13.376067208253472"><ele>904.0</ele><time>2026-04-23T09:38:26.999Z</time></trkpt><trkpt lat="42.417663209396174" lon="13.376167613093141"><ele>904.0</ele><time>2026-04-23T09:38:28.999Z</time></trkpt><trkpt lat="42.417730548221066" lon="13.376179245288672"><ele>903.9999999999999</ele><time>2026-04-23T09:38:29.999Z</time></trkpt><trkpt lat="42.417791662634954" lon="13.376145149993086"><ele>904.0</ele><time>2026-04-23T09:38:30.999Z</time></trkpt><trkpt lat="42.41784466912016" lon="13.376096459242394"><ele>904.0</ele><time>2026-04-23T09:38:31.999Z</time></trkpt><trkpt lat="42.41789078856727" lon="13.376016535261932"><ele>904.0000000000001</ele><time>2026-04-23T09:38:32.999Z</time></trkpt><trkpt lat="42.41794174711584" lon="13.37592142892197"><ele>904.0000000000001</ele><time>2026-04-23T09:38:33.999Z</time></trkpt><trkpt lat="42.41800577597323" lon="13.37583631548125"><ele>904.0</ele><time>2026-04-23T09:38:34.999Z</time></trkpt><trkpt lat="42.41808151468519" lon="13.375732813723543"><ele>904.0</ele><time>2026-04-23T09:38:35.999Z</time></trkpt><trkpt lat="42.41815912216711" lon="13.37561150254534"><ele>903.8000000000001</ele><time>2026-04-23T09:38:36.999Z</time></trkpt><trkpt lat="42.418223040192636" lon="13.375486154265193"><ele>903.6000000000001</ele><time>2026-04-23T09:38:37.999Z</time></trkpt><trkpt lat="42.418281205125275" lon="13.37537210069105"><ele>903.4</ele><time>2026-04-23T09:38:38.999Z</time></trkpt><trkpt lat="42.41833316468373" lon="13.375263774745584"><ele>903.2</ele><time>2026-04-23T09:38:39.999Z</time></trkpt><trkpt lat="42.418389239486444" lon="13.375158220056097"><ele>903.0</ele><time>2026-04-23T09:38:40.999Z</time></trkpt><trkpt lat="42.41846095936617" lon="13.375064814171258"><ele>903.0</ele><time>2026-04-23T09:38:41.999Z</time></trkpt><trkpt lat="42.418542199510014" lon="13.374978426080261"><ele>903.0</ele><time>2026-04-23T09:38:42.999Z</time></trkpt><trkpt lat="42.41863387966434" lon="13.37489871022846"><ele>903.0</ele><time>2026-04-23T09:38:43.999Z</time></trkpt><trkpt lat="42.418738510395876" lon="13.374826552003956"><ele>903.0</ele><time>2026-04-23T09:38:44.999Z</time></trkpt><trkpt lat="42.41883987927433" lon="13.3747350663471"><ele>903.0</ele><time>2026-04-23T09:38:45.999Z</time></trkpt><trkpt lat="42.41892867901878" lon="13.374634259579766"><ele>903.0</ele><time>2026-04-23T09:38:46.999Z</time></trkpt><trkpt lat="42.419028791731755" lon="13.374527329515898"><ele>903.0</ele><time>2026-04-23T09:38:47.999Z</time></trkpt><trkpt lat="42.41913628002767" lon="13.374419040815484"><ele>903.0</ele><time>2026-04-23T09:38:48.999Z</time></trkpt><trkpt lat="42.41924772560218" lon="13.374311019734995"><ele>903.0</ele><time>2026-04-23T09:38:49.999Z</time></trkpt><trkpt lat="42.41936056846762" lon="13.37422311312812"><ele>903.0</ele><time>2026-04-23T09:38:50.999Z</time></trkpt><trkpt lat="42.419475067277176" lon="13.374153823614387"><ele>903.0</ele><time>2026-04-23T09:38:51.999Z</time></trkpt><trkpt lat="42.41959668811899" lon="13.374084173157172"><ele>903.0</ele><time>2026-04-23T09:38:52.999Z</time></trkpt><trkpt lat="42.4197091729331" lon="13.37399704765207"><ele>903.0</ele><time>2026-04-23T09:38:53.999Z</time></trkpt><trkpt lat="42.419812264286094" lon="13.37387770841793"><ele>903.0</ele><time>2026-04-23T09:38:54.999Z</time></trkpt><trkpt lat="42.41992950808833" lon="13.373775445519247"><ele>903.0</ele><time>2026-04-23T09:38:55.999Z</time></trkpt><trkpt lat="42.42003971659754" lon="13.373706970494833"><ele>903.0</ele><time>2026-04-23T09:38:56.999Z</time></trkpt><trkpt lat="42.42012785356319" lon="13.373649636899858"><ele>903.0</ele><time>2026-04-23T09:38:57.999Z</time></trkpt><trkpt lat="42.42022379711894" lon="13.373587820726998"><ele>903.0</ele><time>2026-04-23T09:38:59.999Z</time></trkpt><trkpt lat="42.420258188978394" lon="13.373714736821507"><ele>903.0</ele><time>2026-04-23T09:39:02.999Z</time></trkpt><trkpt lat="42.42019018967633" lon="13.373813942298847"><ele>903.0</ele><time>2026-04-23T09:39:04.999Z</time></trkpt><trkpt lat="42.420120117988795" lon="13.373828422842298"><ele>903.0</ele><time>2026-04-23T09:39:05.999Z</time></trkpt><trkpt lat="42.42005594895813" lon="13.373870582187784"><ele>903.0</ele><time>2026-04-23T09:39:06.999Z</time></trkpt><trkpt lat="42.4199936662564" lon="13.373928987492006"><ele>908.4</ele><time>2026-04-23T09:39:07.999Z</time></trkpt><trkpt lat="42.41992863796428" lon="13.373996849819294"><ele>913.8</ele><time>2026-04-23T09:39:08.999Z</time></trkpt><trkpt lat="42.41986050755429" lon="13.374081271046041"><ele>919.2</ele><time>2026-04-23T09:39:09.999Z</time></trkpt><trkpt lat="42.41979840322501" lon="13.374182972904638"><ele>924.6</ele><time>2026-04-23T09:39:10.999Z</time></trkpt><trkpt lat="42.419737366569386" lon="13.374294221397836"><ele>930.0</ele><time>2026-04-23T09:39:11.999Z</time></trkpt><trkpt lat="42.419680705550846" lon="13.374402278684093"><ele>930.4285714285713</ele><time>2026-04-23T09:39:12.999Z</time></trkpt><trkpt lat="42.41961370371281" lon="13.374484535528778"><ele>930.8571428571429</ele><time>2026-04-23T09:39:13.999Z</time></trkpt><trkpt lat="42.41954464860689" lon="13.374538976121979"><ele>931.2857142857142</ele><time>2026-04-23T09:39:15Z</time></trkpt><trkpt lat="42.41947592893701" lon="13.374573599910489"><ele>931.7142857142857</ele><time>2026-04-23T09:39:16Z</time></trkpt><trkpt lat="42.41941212113865" lon="13.374611598748208"><ele>932.1428571428571</ele><time>2026-04-23T09:39:17Z</time></trkpt><trkpt lat="42.41936723517804" lon="13.374673434713038"><ele>932.5714285714286</ele><time>2026-04-23T09:39:18Z</time></trkpt><trkpt lat="42.419350360354535" lon="13.374767638818948"><ele>933.0</ele><time>2026-04-23T09:39:20Z</time></trkpt><trkpt lat="42.41942486833624" lon="13.374818894339361"><ele>933.0</ele><time>2026-04-23T09:39:22Z</time></trkpt><trkpt lat="42.41951141929293" lon="13.374739583152877"><ele>933.0</ele><time>2026-04-23T09:39:24Z</time></trkpt><trkpt lat="42.41957100231797" lon="13.3746923033841"><ele>933.0</ele><time>2026-04-23T09:39:25Z</time></trkpt><trkpt lat="42.41963204477479" lon="13.374659759700409"><ele>933.0</ele><time>2026-04-23T09:39:26Z</time></trkpt><trkpt lat="42.41970555019393" lon="13.374629643998041"><ele>933.0</ele><time>2026-04-23T09:39:27Z</time></trkpt><trkpt lat="42.419788460452246" lon="13.374591731063093"><ele>933.0</ele><time>2026-04-23T09:39:28Z</time></trkpt><trkpt lat="42.41985676816161" lon="13.3745269183808"><ele>932.4</ele><time>2026-04-23T09:39:29Z</time></trkpt><trkpt lat="42.419923170949666" lon="13.374461304518446"><ele>931.8</ele><time>2026-04-23T09:39:30Z</time></trkpt><trkpt lat="42.42000796990009" lon="13.37439980208633"><ele>931.2</ele><time>2026-04-23T09:39:31Z</time></trkpt><trkpt lat="42.42009653390672" lon="13.374355144163765"><ele>930.6</ele><time>2026-04-23T09:39:32Z</time></trkpt><trkpt lat="42.42019318751039" lon="13.37432501535014"><ele>930.0</ele><time>2026-04-23T09:39:33Z</time></trkpt><trkpt lat="42.420306026845076" lon="13.374288218706564"><ele>930.0</ele><time>2026-04-23T09:39:34Z</time></trkpt><trkpt lat="42.42042173073185" lon="13.374257099092913"><ele>930.0</ele><time>2026-04-23T09:39:35Z</time></trkpt><trkpt lat="42.42053539746548" lon="13.37421437265529"><ele>930.0</ele><time>2026-04-23T09:39:36Z</time></trkpt><trkpt lat="42.42063741745455" lon="13.374168832697979"><ele>930.0</ele><time>2026-04-23T09:39:37Z</time></trkpt><trkpt lat="42.420741623899154" lon="13.374148110389672"><ele>930.0</ele><time>2026-04-23T09:39:38Z</time></trkpt><trkpt lat="42.42082939607563" lon="13.37414417585498"><ele>933.3333333333334</ele><time>2026-04-23T09:39:39Z</time></trkpt><trkpt lat="42.420925901001404" lon="13.374170156440018"><ele>936.6666666666667</ele><time>2026-04-23T09:39:41Z</time></trkpt><trkpt lat="42.42095366470272" lon="13.374265834674958"><ele>940.0</ele><time>2026-04-23T09:39:43Z</time></trkpt><trkpt lat="42.42092432112848" lon="13.374358538998703"><ele>943.3333333333334</ele><time>2026-04-23T09:39:44.999Z</time></trkpt><trkpt lat="42.42084612151325" lon="13.374400775260398"><ele>946.6666666666667</ele><time>2026-04-23T09:39:47.999Z</time></trkpt><trkpt lat="42.42076983290218" lon="13.374405992679433"><ele>950.0</ele><time>2026-04-23T09:39:49.999Z</time></trkpt><trkpt lat="42.42065634656523" lon="13.374425003371218"><ele>950.0000000000001</ele><time>2026-04-23T09:39:51.999Z</time></trkpt><trkpt lat="42.42058376230144" lon="13.374472261466002"><ele>950.0</ele><time>2026-04-23T09:39:52.999Z</time></trkpt><trkpt lat="42.42051640164381" lon="13.37452640012168"><ele>950.0</ele><time>2026-04-23T09:39:53.999Z</time></trkpt><trkpt lat="42.42045482588717" lon="13.374598711001296"><ele>950.0</ele><time>2026-04-23T09:39:54.999Z</time></trkpt><trkpt lat="42.420386218330854" lon="13.37466532316986"><ele>950.0000000000001</ele><time>2026-04-23T09:39:55.999Z</time></trkpt><trkpt lat="42.42032050909279" lon="13.374730991298724"><ele>950.0</ele><time>2026-04-23T09:39:56.999Z</time></trkpt><trkpt lat="42.42025645157355" lon="13.374794704412473"><ele>952.0</ele><time>2026-04-23T09:39:57.999Z</time></trkpt><trkpt lat="42.42020059086993" lon="13.374867838489283"><ele>954.0</ele><time>2026-04-23T09:39:58.999Z</time></trkpt><trkpt lat="42.420136189207554" lon="13.374960629492957"><ele>956.0</ele><time>2026-04-23T09:39:59.999Z</time></trkpt><trkpt lat="42.42007355037854" lon="13.375062422287462"><ele>958.0</ele><time>2026-04-23T09:40:00.999Z</time></trkpt><trkpt lat="42.4200118316943" lon="13.375167186657853"><ele>960.0</ele><time>2026-04-23T09:40:01.999Z</time></trkpt><trkpt lat="42.41994623517126" lon="13.375265999562734"><ele>960.0</ele><time>2026-04-23T09:40:02.999Z</time></trkpt><trkpt lat="42.41989144141667" lon="13.375335573619818"><ele>960.0</ele><time>2026-04-23T09:40:03.999Z</time></trkpt><trkpt lat="42.41983294144738" lon="13.375384046642637"><ele>960.0</ele><time>2026-04-23T09:40:04.999Z</time></trkpt><trkpt lat="42.41967805367631" lon="13.375484177243216"><ele>960.0</ele><time>2026-04-23T09:40:06.999Z</time></trkpt><trkpt lat="42.41959210449358" lon="13.375535884461204"><ele>960.0</ele><time>2026-04-23T09:40:07.999Z</time></trkpt><trkpt lat="42.419514832551215" lon="13.375598202063424"><ele>961.2</ele><time>2026-04-23T09:40:08.999Z</time></trkpt><trkpt lat="42.41943622143026" lon="13.375684760582095"><ele>962.4</ele><time>2026-04-23T09:40:09.999Z</time></trkpt><trkpt lat="42.41936013300958" lon="13.375785297937913"><ele>963.5999999999999</ele><time>2026-04-23T09:40:10.999Z</time></trkpt><trkpt lat="42.419290831799344" lon="13.375880155543568"><ele>964.8</ele><time>2026-04-23T09:40:11.999Z</time></trkpt><trkpt lat="42.41923860603318" lon="13.37597328816524"><ele>966.0</ele><time>2026-04-23T09:40:12.999Z</time></trkpt><trkpt lat="42.41919605429664" lon="13.376076528020562"><ele>966.0</ele><time>2026-04-23T09:40:14.999Z</time></trkpt><trkpt lat="42.41925096928694" lon="13.376150629254292"><ele>966.0</ele><time>2026-04-23T09:40:16.999Z</time></trkpt><trkpt lat="42.41932318666087" lon="13.376107056986214"><ele>966.0</ele><time>2026-04-23T09:40:18.999Z</time></trkpt><trkpt lat="42.41937579547648" lon="13.37605506317781"><ele>966.0</ele><time>2026-04-23T09:40:19.999Z</time></trkpt><trkpt lat="42.41941825543512" lon="13.375976624262139"><ele>966.0</ele><time>2026-04-23T09:40:20.999Z</time></trkpt><trkpt lat="42.419457689524" lon="13.375909166003702"><ele>966.0</ele><time>2026-04-23T09:40:21.999Z</time></trkpt><trkpt lat="42.41951968906344" lon="13.375855509778727"><ele>966.0</ele><time>2026-04-23T09:40:22.999Z</time></trkpt><trkpt lat="42.41958735501031" lon="13.375813349854736"><ele>970.5</ele><time>2026-04-23T09:40:23.999Z</time></trkpt><trkpt lat="42.419657585631676" lon="13.37578237125273"><ele>975.0</ele><time>2026-04-23T09:40:24.999Z</time></trkpt><trkpt lat="42.41973264791874" lon="13.375752435077484"><ele>979.5</ele><time>2026-04-23T09:40:25.999Z</time></trkpt><trkpt lat="42.41981830286565" lon="13.375728019164285"><ele>984.0</ele><time>2026-04-23T09:40:26.999Z</time></trkpt><trkpt lat="42.41991012154939" lon="13.375702175105344"><ele>988.5</ele><time>2026-04-23T09:40:27.999Z</time></trkpt><trkpt lat="42.420010093666384" lon="13.375685096871624"><ele>993.0</ele><time>2026-04-23T09:40:28.999Z</time></trkpt><trkpt lat="42.4201121524538" lon="13.375666582382017"><ele>993.0</ele><time>2026-04-23T09:40:29.999Z</time></trkpt><trkpt lat="42.42020724884052" lon="13.375629771911553"><ele>993.0</ele><time>2026-04-23T09:40:30.999Z</time></trkpt><trkpt lat="42.42029837929985" lon="13.375569698392194"><ele>993.0</ele><time>2026-04-23T09:40:31.999Z</time></trkpt><trkpt lat="42.42038907727002" lon="13.375507243595797"><ele>993.0</ele><time>2026-04-23T09:40:32.999Z</time></trkpt><trkpt lat="42.42047107013895" lon="13.3754461169697"><ele>993.0</ele><time>2026-04-23T09:40:33.999Z</time></trkpt><trkpt lat="42.420573363825866" lon="13.375385229936327"><ele>990.0</ele><time>2026-04-23T09:40:34.999Z</time></trkpt><trkpt lat="42.4206586345564" lon="13.3753495619964"><ele>987.0</ele><time>2026-04-23T09:40:35.999Z</time></trkpt><trkpt lat="42.42076397547206" lon="13.375331024303948"><ele>984.0</ele><time>2026-04-23T09:40:36.999Z</time></trkpt><trkpt lat="42.42085705821397" lon="13.3753258647446"><ele>981.0</ele><time>2026-04-23T09:40:37.999Z</time></trkpt><trkpt lat="42.42093109035498" lon="13.375321580245958"><ele>978.0</ele><time>2026-04-23T09:40:38.999Z</time></trkpt><trkpt lat="42.42103085401389" lon="13.375352924775385"><ele>978.0</ele><time>2026-04-23T09:40:40.999Z</time></trkpt><trkpt lat="42.42106451170963" lon="13.375426180385972"><ele>978.0</ele><time>2026-04-23T09:40:42.999Z</time></trkpt><trkpt lat="42.42101735603697" lon="13.375538093625424"><ele>978.0</ele><time>2026-04-23T09:40:45.999Z</time></trkpt><trkpt lat="42.42089323270654" lon="13.37554691354124"><ele>978.0</ele><time>2026-04-23T09:40:47.999Z</time></trkpt><trkpt lat="42.420815086698056" lon="13.375545284339713"><ele>978.0</ele><time>2026-04-23T09:40:48.999Z</time></trkpt><trkpt lat="42.42069234917369" lon="13.37559408032961"><ele>981.0</ele><time>2026-04-23T09:40:50.999Z</time></trkpt><trkpt lat="42.420611020421575" lon="13.375651296751567"><ele>984.0</ele><time>2026-04-23T09:40:51.999Z</time></trkpt><trkpt lat="42.420530556655834" lon="13.375719288379205"><ele>987.0</ele><time>2026-04-23T09:40:52.999Z</time></trkpt><trkpt lat="42.42045363280267" lon="13.375814395770519"><ele>990.0</ele><time>2026-04-23T09:40:53.999Z</time></trkpt><trkpt lat="42.420387822213854" lon="13.375926782055458"><ele>993.0</ele><time>2026-04-23T09:40:54.999Z</time></trkpt><trkpt lat="42.42031727515909" lon="13.376037217929966"><ele>993.0</ele><time>2026-04-23T09:40:55.999Z</time></trkpt><trkpt lat="42.42025613510007" lon="13.376155578301"><ele>993.0</ele><time>2026-04-23T09:40:56.999Z</time></trkpt><trkpt lat="42.420179726861605" lon="13.376249272885683"><ele>993.0</ele><time>2026-04-23T09:40:57.999Z</time></trkpt><trkpt lat="42.42009025004746" lon="13.376342226508156"><ele>993.0</ele><time>2026-04-23T09:40:58.999Z</time></trkpt><trkpt lat="42.42000102157541" lon="13.376415868917098"><ele>993.0</ele><time>2026-04-23T09:40:59.999Z</time></trkpt><trkpt lat="42.41990762427009" lon="13.376519668881611"><ele>999.5</ele><time>2026-04-23T09:41:00.999Z</time></trkpt><trkpt lat="42.419829960512196" lon="13.376650260726525"><ele>1006.0</ele><time>2026-04-23T09:41:01.999Z</time></trkpt><trkpt lat="42.41975838810439" lon="13.376777628543184"><ele>1012.5</ele><time>2026-04-23T09:41:02.999Z</time></trkpt><trkpt lat="42.419701748835855" lon="13.376913732614002"><ele>1019.0</ele><time>2026-04-23T09:41:03.999Z</time></trkpt><trkpt lat="42.41965844322455" lon="13.37706354527473"><ele>1016.2</ele><time>2026-04-23T09:41:04.999Z</time></trkpt><trkpt lat="42.419615319104125" lon="13.377203320780453"><ele>1013.4000000000001</ele><time>2026-04-23T09:41:05.999Z</time></trkpt><trkpt lat="42.419570670162855" lon="13.377352907731446"><ele>1010.6</ele><time>2026-04-23T09:41:06.999Z</time></trkpt><trkpt lat="42.419526427769725" lon="13.377493531180308"><ele>1007.8</ele><time>2026-04-23T09:41:07.999Z</time></trkpt><trkpt lat="42.41947634944533" lon="13.377607636358698"><ele>1005.0</ele><time>2026-04-23T09:41:08.999Z</time></trkpt><trkpt lat="42.41943143286276" lon="13.377716109496758"><ele>1005.0</ele><time>2026-04-23T09:41:09.999Z</time></trkpt><trkpt lat="42.419401525090414" lon="13.37780443521402"><ele>1005.0</ele><time>2026-04-23T09:41:10.999Z</time></trkpt><trkpt lat="42.41941450825256" lon="13.377905944858526"><ele>1005.0</ele><time>2026-04-23T09:41:12.999Z</time></trkpt><trkpt lat="42.419483608446825" lon="13.377937087828165"><ele>1005.0</ele><time>2026-04-23T09:41:14.999Z</time></trkpt><trkpt lat="42.41953712008397" lon="13.377868598676088"><ele>1005.0</ele><time>2026-04-23T09:41:17Z</time></trkpt><trkpt lat="42.41957792619738" lon="13.37771458351824"><ele>1005.0</ele><time>2026-04-23T09:41:19Z</time></trkpt><trkpt lat="42.41962105278574" lon="13.377628545878977"><ele>1007.8</ele><time>2026-04-23T09:41:20Z</time></trkpt><trkpt lat="42.41965880843596" lon="13.377547522167701"><ele>1010.6</ele><time>2026-04-23T09:41:21Z</time></trkpt><trkpt lat="42.419715544139294" lon="13.377454362943963"><ele>1013.4000000000001</ele><time>2026-04-23T09:41:22Z</time></trkpt><trkpt lat="42.41978822831853" lon="13.377355148068734"><ele>1016.2</ele><time>2026-04-23T09:41:23Z</time></trkpt><trkpt lat="42.41987730293228" lon="13.377250177350433"><ele>1019.0</ele><time>2026-04-23T09:41:24Z</time></trkpt><trkpt lat="42.4199653218143" lon="13.377142649894964"><ele>1019.0</ele><time>2026-04-23T09:41:25Z</time></trkpt><trkpt lat="42.42004764330414" lon="13.377049022335708"><ele>1019.0000000000001</ele><time>2026-04-23T09:41:26Z</time></trkpt><trkpt lat="42.42012989886164" lon="13.37696740634466"><ele>1019.0000000000001</ele><time>2026-04-23T09:41:27Z</time></trkpt><trkpt lat="42.42021180794732" lon="13.376921095245047"><ele>1019.0</ele><time>2026-04-23T09:41:28Z</time></trkpt><trkpt lat="42.420311014408234" lon="13.376886633443155"><ele>1019.0</ele><time>2026-04-23T09:41:29Z</time></trkpt><trkpt lat="42.42042218798327" lon="13.376853331981971"><ele>1021.8000000000001</ele><time>2026-04-23T09:41:30Z</time></trkpt><trkpt lat="42.42053663687902" lon="13.376821742459681"><ele>1024.6000000000001</ele><time>2026-04-23T09:41:31Z</time></trkpt><trkpt lat="42.42066060805388" lon="13.37680086343178"><ele>1027.4</ele><time>2026-04-23T09:41:32Z</time></trkpt><trkpt lat="42.42077093460556" lon="13.37677198795189"><ele>1030.2</ele><time>2026-04-23T09:41:33Z</time></trkpt><trkpt lat="42.42085777722911" lon="13.376744046899926"><ele>1033.0</ele><time>2026-04-23T09:41:34Z</time></trkpt><trkpt lat="42.42092399185446" lon="13.376731423530847"><ele>1033.0</ele><time>2026-04-23T09:41:35Z</time></trkpt><trkpt lat="42.421016297118726" lon="13.376768878559488"><ele>1033.0</ele><time>2026-04-23T09:41:37Z</time></trkpt><trkpt lat="42.42107130927054" lon="13.376873026707765"><ele>1033.0</ele><time>2026-04-23T09:41:39Z</time></trkpt><trkpt lat="42.421024817654924" lon="13.376971383825294"><ele>1033.0</ele><time>2026-04-23T09:41:41Z</time></trkpt><trkpt lat="42.42096645768584" lon="13.377007398511754"><ele>1033.0</ele><time>2026-04-23T09:41:42Z</time></trkpt><trkpt lat="42.42089120805596" lon="13.377010899172213"><ele>1033.0</ele><time>2026-04-23T09:41:43Z</time></trkpt><trkpt lat="42.42082203482253" lon="13.377014815451007"><ele>1033.0</ele><time>2026-04-23T09:41:44Z</time></trkpt><trkpt lat="42.420737561203914" lon="13.377033791556403"><ele>1033.0</ele><time>2026-04-23T09:41:45Z</time></trkpt><trkpt lat="42.420629179074936" lon="13.377080901485387"><ele>1033.0</ele><time>2026-04-23T09:41:46Z</time></trkpt><trkpt lat="42.42052841353111" lon="13.377134844122775"><ele>1033.0</ele><time>2026-04-23T09:41:47Z</time></trkpt><trkpt lat="42.4204368215658" lon="13.37720713239125"><ele>1033.0</ele><time>2026-04-23T09:41:48Z</time></trkpt><trkpt lat="42.4203611093691" lon="13.377293091817887"><ele>1034.8</ele><time>2026-04-23T09:41:49Z</time></trkpt><trkpt lat="42.420303123087315" lon="13.377398435644682"><ele>1036.6</ele><time>2026-04-23T09:41:50Z</time></trkpt><trkpt lat="42.42026283483969" lon="13.377510800532042"><ele>1038.4</ele><time>2026-04-23T09:41:51Z</time></trkpt><trkpt lat="42.42021658728621" lon="13.37763064657762"><ele>1040.2</ele><time>2026-04-23T09:41:52Z</time></trkpt><trkpt lat="42.42016200573554" lon="13.377731971069124"><ele>1042.0</ele><time>2026-04-23T09:41:53Z</time></trkpt><trkpt lat="42.42011373618665" lon="13.377843555543384"><ele>1042.0</ele><time>2026-04-23T09:41:54Z</time></trkpt><trkpt lat="42.42007781170203" lon="13.3779473423782"><ele>1042.0</ele><time>2026-04-23T09:41:55Z</time></trkpt><trkpt lat="42.42006731880923" lon="13.378066931898822"><ele>1042.0</ele><time>2026-04-23T09:41:56Z</time></trkpt><trkpt lat="42.4200506061422" lon="13.378158393070807"><ele>1042.0</ele><time>2026-04-23T09:41:57Z</time></trkpt><trkpt lat="42.42001252936272" lon="13.37831152973649"><ele>1042.0</ele><time>2026-04-23T09:41:58Z</time></trkpt><trkpt lat="42.42000296423799" lon="13.37843940646737"><ele>1045.4</ele><time>2026-04-23T09:41:59Z</time></trkpt><trkpt lat="42.42000543203486" lon="13.378590085405909"><ele>1048.8000000000002</ele><time>2026-04-23T09:42:00Z</time></trkpt><trkpt lat="42.42001541478583" lon="13.37875400478736"><ele>1052.2</ele><time>2026-04-23T09:42:01Z</time></trkpt><trkpt lat="42.420025260981134" lon="13.378905505739787"><ele>1055.6000000000001</ele><time>2026-04-23T09:42:02Z</time></trkpt><trkpt lat="42.42003106686502" lon="13.379044780884021"><ele>1059.0</ele><time>2026-04-23T09:42:03Z</time></trkpt><trkpt lat="42.42003107977351" lon="13.3791770293259"><ele>1061.0</ele><time>2026-04-23T09:42:04Z</time></trkpt><trkpt lat="42.42002669961096" lon="13.379305132653307"><ele>1063.0</ele><time>2026-04-23T09:42:05Z</time></trkpt><trkpt lat="42.42001209888543" lon="13.379397612674227"><ele>1065.0</ele><time>2026-04-23T09:42:06Z</time></trkpt><trkpt lat="42.41994646105943" lon="13.379555831429402"><ele>1067.0</ele><time>2026-04-23T09:42:08Z</time></trkpt><trkpt lat="42.419903220341574" lon="13.379654146249038"><ele>1069.0</ele><time>2026-04-23T09:42:09Z</time></trkpt><trkpt lat="42.4198653693252" lon="13.379723403920705"><ele>1071.0</ele><time>2026-04-23T09:42:10Z</time></trkpt><trkpt lat="42.41987593476184" lon="13.379827443802892"><ele>1071.0</ele><time>2026-04-23T09:42:12Z</time></trkpt><trkpt lat="42.41995909998188" lon="13.379832984290195"><ele>1071.0</ele><time>2026-04-23T09:42:14Z</time></trkpt><trkpt lat="42.42002519251344" lon="13.379700672597702"><ele>1071.0</ele><time>2026-04-23T09:42:16Z</time></trkpt><trkpt lat="42.420042556804745" lon="13.37960847006977"><ele>1071.0</ele><time>2026-04-23T09:42:17Z</time></trkpt><trkpt lat="42.420086092794136" lon="13.37950227158533"><ele>1071.0</ele><time>2026-04-23T09:42:18Z</time></trkpt><trkpt lat="42.42015084339318" lon="13.379399150796784"><ele>1071.0</ele><time>2026-04-23T09:42:19Z</time></trkpt><trkpt lat="42.42022146213675" lon="13.379314365787488"><ele>1071.0</ele><time>2026-04-23T09:42:19.999Z</time></trkpt><trkpt lat="42.42031038985861" lon="13.379226671601572"><ele>1071.0</ele><time>2026-04-23T09:42:20.999Z</time></trkpt><trkpt lat="42.42038129375779" lon="13.379127569037413"><ele>1071.0</ele><time>2026-04-23T09:42:21.999Z</time></trkpt><trkpt lat="42.42045254614885" lon="13.37903493029096"><ele>1071.0</ele><time>2026-04-23T09:42:22.999Z</time></trkpt><trkpt lat="42.42053065245398" lon="13.37895393863162"><ele>1073.6</ele><time>2026-04-23T09:42:23.999Z</time></trkpt><trkpt lat="42.42061172508648" lon="13.37887320495956"><ele>1076.1999999999998</ele><time>2026-04-23T09:42:24.999Z</time></trkpt><trkpt lat="42.42069638441406" lon="13.378790887302285"><ele>1078.8000000000002</ele><time>2026-04-23T09:42:25.999Z</time></trkpt><trkpt lat="42.4207928009986" lon="13.37870453757802"><ele>1081.4</ele><time>2026-04-23T09:42:26.999Z</time></trkpt><trkpt lat="42.420880836940256" lon="13.378639585164377"><ele>1084.0</ele><time>2026-04-23T09:42:27.999Z</time></trkpt><trkpt lat="42.42095930946484" lon="13.378599661658596"><ele>1084.0</ele><time>2026-04-23T09:42:28.999Z</time></trkpt><trkpt lat="42.421030697008575" lon="13.378570101959289"><ele>1084.0</ele><time>2026-04-23T09:42:29.999Z</time></trkpt><trkpt lat="42.421093237348884" lon="13.378551392398027"><ele>1084.0</ele><time>2026-04-23T09:42:30.999Z</time></trkpt><trkpt lat="42.42117139360524" lon="13.378591713264218"><ele>1084.0</ele><time>2026-04-23T09:42:32.999Z</time></trkpt><trkpt lat="42.4211971383394" lon="13.378688319058423"><ele>1084.0</ele><time>2026-04-23T09:42:34.999Z</time></trkpt><trkpt lat="42.4211597087444" lon="13.378764419642993"><ele>1084.0</ele><time>2026-04-23T09:42:36.999Z</time></trkpt><trkpt lat="42.42106288471844" lon="13.378808202911621"><ele>1087.4</ele><time>2026-04-23T09:42:38.999Z</time></trkpt><trkpt lat="42.42097512897774" lon="13.378887879892007"><ele>1090.8000000000002</ele><time>2026-04-23T09:42:40.999Z</time></trkpt><trkpt lat="42.42092048781944" lon="13.37896375775358"><ele>1094.1999999999998</ele><time>2026-04-23T09:42:41.999Z</time></trkpt><trkpt lat="42.42086861876533" lon="13.379061591096415"><ele>1097.6</ele><time>2026-04-23T09:42:42.999Z</time></trkpt><trkpt lat="42.42079741782325" lon="13.379175721674935"><ele>1101.0</ele><time>2026-04-23T09:42:43.999Z</time></trkpt><trkpt lat="42.42071936659682" lon="13.37930217254502"><ele>1101.0</ele><time>2026-04-23T09:42:44.999Z</time></trkpt><trkpt lat="42.420655973156684" lon="13.379442128857471"><ele>1101.0</ele><time>2026-04-23T09:42:45.999Z</time></trkpt><trkpt lat="42.420590021610714" lon="13.379600061946684"><ele>1101.0</ele><time>2026-04-23T09:42:46.999Z</time></trkpt><trkpt lat="42.42053452004775" lon="13.37976171527432"><ele>1101.0</ele><time>2026-04-23T09:42:47.999Z</time></trkpt><trkpt lat="42.42047856822439" lon="13.379912758604267"><ele>1098.0</ele><time>2026-04-23T09:42:48.999Z</time></trkpt><trkpt lat="42.42042578034297" lon="13.380037473900654"><ele>1095.0</ele><time>2026-04-23T09:42:49.999Z</time></trkpt><trkpt lat="42.420382967174454" lon="13.38014085909839"><ele>1092.0</ele><time>2026-04-23T09:42:50.999Z</time></trkpt><trkpt lat="42.42031897398837" lon="13.380274319446906"><ele>1089.0</ele><time>2026-04-23T09:42:52.999Z</time></trkpt><trkpt lat="42.42033557826157" lon="13.380387821944831"><ele>1086.0</ele><time>2026-04-23T09:42:54.999Z</time></trkpt><trkpt lat="42.42041972094731" lon="13.3803913624441"><ele>1093.2</ele><time>2026-04-23T09:42:56.999Z</time></trkpt><trkpt lat="42.42049733576293" lon="13.38027691892301"><ele>1100.3999999999999</ele><time>2026-04-23T09:42:58.999Z</time></trkpt><trkpt lat="42.42053659530371" lon="13.380193099398353"><ele>1107.6</ele><time>2026-04-23T09:42:59.999Z</time></trkpt><trkpt lat="42.42059111617864" lon="13.380101336993338"><ele>1114.8</ele><time>2026-04-23T09:43:00.999Z</time></trkpt><trkpt lat="42.42065887489895" lon="13.380019167854746"><ele>1122.0</ele><time>2026-04-23T09:43:01.999Z</time></trkpt><trkpt lat="42.420737203031486" lon="13.379948849059724"><ele>1122.0</ele><time>2026-04-23T09:43:02.999Z</time></trkpt><trkpt lat="42.42082959315707" lon="13.379872837705191"><ele>1122.0</ele><time>2026-04-23T09:43:03.999Z</time></trkpt><trkpt lat="42.42091956169045" lon="13.379802672607003"><ele>1122.0</ele><time>2026-04-23T09:43:05Z</time></trkpt><trkpt lat="42.42101030856766" lon="13.379744289623073"><ele>1122.0</ele><time>2026-04-23T09:43:06Z</time></trkpt><trkpt lat="42.421109678365134" lon="13.37968805160816"><ele>1122.0</ele><time>2026-04-23T09:43:07Z</time></trkpt><trkpt lat="42.42121043625146" lon="13.379622830392806"><ele>1122.0</ele><time>2026-04-23T09:43:08Z</time></trkpt><trkpt lat="42.42128743539304" lon="13.379579851449035"><ele>1122.0</ele><time>2026-04-23T09:43:09Z</time></trkpt><trkpt lat="42.42134862220012" lon="13.379556982875627"><ele>1122.0</ele><time>2026-04-23T09:43:10Z</time></trkpt><trkpt lat="42.4214314611717" lon="13.379590478580226"><ele>1122.0</ele><time>2026-04-23T09:43:12Z</time></trkpt><trkpt lat="42.421457105935076" lon="13.379700652524068"><ele>1122.0</ele><time>2026-04-23T09:43:14Z</time></trkpt><trkpt lat="42.421396416863765" lon="13.379807390923732"><ele>1122.0</ele><time>2026-04-23T09:43:16Z</time></trkpt><trkpt lat="42.421261740824406" lon="13.37986281324122"><ele>1122.0</ele><time>2026-04-23T09:43:18Z</time></trkpt><trkpt lat="42.42119206057908" lon="13.379920237867161"><ele>1122.0</ele><time>2026-04-23T09:43:19Z</time></trkpt><trkpt lat="42.421121517637154" lon="13.38000005515775"><ele>1122.0</ele><time>2026-04-23T09:43:20Z</time></trkpt><trkpt lat="42.42105619275617" lon="13.380102056986457"><ele>1122.0</ele><time>2026-04-23T09:43:21Z</time></trkpt><trkpt lat="42.420985758011476" lon="13.380222450541428"><ele>1122.0</ele><time>2026-04-23T09:43:22Z</time></trkpt><trkpt lat="42.420914602502535" lon="13.380364428907114"><ele>1122.0</ele><time>2026-04-23T09:43:23Z</time></trkpt><trkpt lat="42.4208376085026" lon="13.380515906481227"><ele>1122.0</ele><time>2026-04-23T09:43:24Z</time></trkpt><trkpt lat="42.42076720297379" lon="13.38067373419819"><ele>1122.0</ele><time>2026-04-23T09:43:25Z</time></trkpt><trkpt lat="42.420710837811306" lon="13.38084723186561"><ele>1122.0</ele><time>2026-04-23T09:43:26Z</time></trkpt><trkpt lat="42.42065986614231" lon="13.381039722854366"><ele>1123.0</ele><time>2026-04-23T09:43:27Z</time></trkpt><trkpt lat="42.420604712870336" lon="13.381212567374362"><ele>1124.0</ele><time>2026-04-23T09:43:28Z</time></trkpt><trkpt lat="42.42055074107226" lon="13.381389332435294"><ele>1125.0</ele><time>2026-04-23T09:43:29Z</time></trkpt><trkpt lat="42.420495424962965" lon="13.381551387375834"><ele>1126.0</ele><time>2026-04-23T09:43:30Z</time></trkpt><trkpt lat="42.42044386989196" lon="13.381705451475991"><ele>1126.0</ele><time>2026-04-23T09:43:31Z</time></trkpt><trkpt lat="42.42037074810252" lon="13.381829176494104"><ele>1126.0</ele><time>2026-04-23T09:43:32Z</time></trkpt><trkpt lat="42.42028452971815" lon="13.381958414596879"><ele>1126.0</ele><time>2026-04-23T09:43:33Z</time></trkpt><trkpt lat="42.42020971017373" lon="13.382076489137974"><ele>1126.0</ele><time>2026-04-23T09:43:34Z</time></trkpt><trkpt lat="42.42015253894874" lon="13.382200501039446"><ele>1130.0</ele><time>2026-04-23T09:43:35Z</time></trkpt><trkpt lat="42.42009893916422" lon="13.382352157256891"><ele>1134.0</ele><time>2026-04-23T09:43:36Z</time></trkpt><trkpt lat="42.420051135687636" lon="13.382514335139767"><ele>1138.0</ele><time>2026-04-23T09:43:37Z</time></trkpt><trkpt lat="42.41999078381349" lon="13.382686731148846"><ele>1142.0</ele><time>2026-04-23T09:43:38Z</time></trkpt><trkpt lat="42.41992942327478" lon="13.382854974608124"><ele>1145.25</ele><time>2026-04-23T09:43:39Z</time></trkpt><trkpt lat="42.41985987798896" lon="13.38302835831468"><ele>1148.5</ele><time>2026-04-23T09:43:40Z</time></trkpt><trkpt lat="42.41979963710022" lon="13.383201926752681"><ele>1151.75</ele><time>2026-04-23T09:43:41Z</time></trkpt><trkpt lat="42.41973291835953" lon="13.383365650635819"><ele>1155.0</ele><time>2026-04-23T09:43:42Z</time></trkpt><trkpt lat="42.41967963907531" lon="13.383506731385042"><ele>1154.5</ele><time>2026-04-23T09:43:43Z</time></trkpt><trkpt lat="42.41963663463689" lon="13.383646014800025"><ele>1154.0</ele><time>2026-04-23T09:43:44Z</time></trkpt><trkpt lat="42.41961453125299" lon="13.383804002353639"><ele>1153.5</ele><time>2026-04-23T09:43:45Z</time></trkpt><trkpt lat="42.41960324171696" lon="13.383970771423348"><ele>1153.0</ele><time>2026-04-23T09:43:46Z</time></trkpt><trkpt lat="42.41959932054684" lon="13.384134656504427"><ele>1153.0</ele><time>2026-04-23T09:43:47Z</time></trkpt><trkpt lat="42.41959172708088" lon="13.384307289267642"><ele>1153.0</ele><time>2026-04-23T09:43:48Z</time></trkpt><trkpt lat="42.41958846286138" lon="13.384481595743038"><ele>1153.0</ele><time>2026-04-23T09:43:49Z</time></trkpt><trkpt lat="42.41959624949599" lon="13.384659990285273"><ele>1153.0</ele><time>2026-04-23T09:43:50Z</time></trkpt><trkpt lat="42.419599441834116" lon="13.38482924234971"><ele>1155.2</ele><time>2026-04-23T09:43:51Z</time></trkpt><trkpt lat="42.41960598538365" lon="13.384987392848416"><ele>1157.4</ele><time>2026-04-23T09:43:52Z</time></trkpt><trkpt lat="42.41963046972002" lon="13.3851417267229"><ele>1159.6000000000001</ele><time>2026-04-23T09:43:53Z</time></trkpt><trkpt lat="42.41967465973809" lon="13.385261848921703"><ele>1161.8</ele><time>2026-04-23T09:43:54Z</time></trkpt><trkpt lat="42.41969895278703" lon="13.385394400192947"><ele>1164.0</ele><time>2026-04-23T09:43:55Z</time></trkpt><trkpt lat="42.419695858252666" lon="13.38552962171693"><ele>1166.0</ele><time>2026-04-23T09:43:56Z</time></trkpt><trkpt lat="42.41966803604583" lon="13.385668340183473"><ele>1168.0</ele><time>2026-04-23T09:43:57Z</time></trkpt><trkpt lat="42.419628918190995" lon="13.385797557638089"><ele>1170.0</ele><time>2026-04-23T09:43:58Z</time></trkpt><trkpt lat="42.419576275400274" lon="13.38594103971585"><ele>1172.0</ele><time>2026-04-23T09:43:59Z</time></trkpt><trkpt lat="42.41951817457637" lon="13.386088210906532"><ele>1172.0</ele><time>2026-04-23T09:44:00Z</time></trkpt><trkpt lat="42.41944139995785" lon="13.386232158451847"><ele>1172.0</ele><time>2026-04-23T09:44:01Z</time></trkpt><trkpt lat="42.41934300073943" lon="13.386368694220812"><ele>1172.0</ele><time>2026-04-23T09:44:02Z</time></trkpt><trkpt lat="42.419239098031824" lon="13.386495608888739"><ele>1172.0</ele><time>2026-04-23T09:44:03Z</time></trkpt><trkpt lat="42.41915548899333" lon="13.38661372979152"><ele>1173.0</ele><time>2026-04-23T09:44:04Z</time></trkpt><trkpt lat="42.41910211056083" lon="13.386726406106673"><ele>1174.0</ele><time>2026-04-23T09:44:05Z</time></trkpt><trkpt lat="42.419070738050166" lon="13.386880181640876"><ele>1175.0</ele><time>2026-04-23T09:44:06Z</time></trkpt><trkpt lat="42.41904196050667" lon="13.387033715005227"><ele>1176.0</ele><time>2026-04-23T09:44:07Z</time></trkpt><trkpt lat="42.41901641561297" lon="13.387180571192005"><ele>1177.0</ele><time>2026-04-23T09:44:08Z</time></trkpt><trkpt lat="42.41899419754663" lon="13.38730025116704"><ele>1177.0</ele><time>2026-04-23T09:44:09Z</time></trkpt><trkpt lat="42.418994622737024" lon="13.387406266352043"><ele>1177.0</ele><time>2026-04-23T09:44:10Z</time></trkpt><trkpt lat="42.41900392323765" lon="13.387509819169676"><ele>1177.0</ele><time>2026-04-23T09:44:11Z</time></trkpt><trkpt lat="42.41902820724693" lon="13.387605777263001"><ele>1177.0</ele><time>2026-04-23T09:44:12Z</time></trkpt><trkpt lat="42.419072143585296" lon="13.387682777192461"><ele>1177.0</ele><time>2026-04-23T09:44:13Z</time></trkpt><trkpt lat="42.419137834517485" lon="13.38773334607326"><ele>1177.0</ele><time>2026-04-23T09:44:14Z</time></trkpt><trkpt lat="42.419230065393926" lon="13.387757742638078"><ele>1177.0</ele><time>2026-04-23T09:44:15Z</time></trkpt><trkpt lat="42.41935378881217" lon="13.387782019275308"><ele>1177.0</ele><time>2026-04-23T09:44:16Z</time></trkpt><trkpt lat="42.41946037498215" lon="13.387817806368327"><ele>1177.0</ele><time>2026-04-23T09:44:17Z</time></trkpt><trkpt lat="42.41954540913589" lon="13.387889518101437"><ele>1177.0</ele><time>2026-04-23T09:44:18Z</time></trkpt><trkpt lat="42.419605167643645" lon="13.38799924929111"><ele>1177.0</ele><time>2026-04-23T09:44:19Z</time></trkpt><trkpt lat="42.41966920205313" lon="13.38811603935414"><ele>1178.0</ele><time>2026-04-23T09:44:20Z</time></trkpt><trkpt lat="42.41972733885019" lon="13.388280137369874"><ele>1179.0</ele><time>2026-04-23T09:44:21Z</time></trkpt><trkpt lat="42.41979053144346" lon="13.388479693316182"><ele>1180.0</ele><time>2026-04-23T09:44:22Z</time></trkpt><trkpt lat="42.41986963022579" lon="13.388700099305106"><ele>1177.3333333333333</ele><time>2026-04-23T09:44:23Z</time></trkpt><trkpt lat="42.419980363429644" lon="13.388919434514216"><ele>1174.6666666666667</ele><time>2026-04-23T09:44:24Z</time></trkpt><trkpt lat="42.420076005671845" lon="13.389109777088082"><ele>1172.0</ele><time>2026-04-23T09:44:25Z</time></trkpt><trkpt lat="42.42014808486182" lon="13.389261776675266"><ele>1172.0</ele><time>2026-04-23T09:44:26Z</time></trkpt><trkpt lat="42.42019469054455" lon="13.38938009369204"><ele>1172.0</ele><time>2026-04-23T09:44:27Z</time></trkpt><trkpt lat="42.420216823642065" lon="13.389497625304372"><ele>1172.0</ele><time>2026-04-23T09:44:28Z</time></trkpt><trkpt lat="42.420221853542806" lon="13.389625197410227"><ele>1172.0</ele><time>2026-04-23T09:44:29Z</time></trkpt><trkpt lat="42.42020436181675" lon="13.389766967871283"><ele>1172.0</ele><time>2026-04-23T09:44:30Z</time></trkpt><trkpt lat="42.420178629962706" lon="13.38992633311608"><ele>1170.25</ele><time>2026-04-23T09:44:31Z</time></trkpt><trkpt lat="42.42015537457891" lon="13.390099681718343"><ele>1168.5</ele><time>2026-04-23T09:44:32Z</time></trkpt><trkpt lat="42.42015687313723" lon="13.390284887802137"><ele>1166.75</ele><time>2026-04-23T09:44:33Z</time></trkpt><trkpt lat="42.42018002774245" lon="13.390458826100794"><ele>1165.0</ele><time>2026-04-23T09:44:34Z</time></trkpt><trkpt lat="42.42020718006897" lon="13.39058882924826"><ele>1164.6</ele><time>2026-04-23T09:44:35Z</time></trkpt><trkpt lat="42.42025339481092" lon="13.390711038612261"><ele>1164.2</ele><time>2026-04-23T09:44:36Z</time></trkpt><trkpt lat="42.420306417137745" lon="13.390832718409941"><ele>1163.8</ele><time>2026-04-23T09:44:37Z</time></trkpt><trkpt lat="42.42032366770712" lon="13.39097322254612"><ele>1163.4</ele><time>2026-04-23T09:44:38Z</time></trkpt><trkpt lat="42.42034017630555" lon="13.391126680380147"><ele>1163.0</ele><time>2026-04-23T09:44:39Z</time></trkpt><trkpt lat="42.42033880755492" lon="13.391251244597761"><ele>1164.0</ele><time>2026-04-23T09:44:40Z</time></trkpt><trkpt lat="42.420314450674795" lon="13.391411802937453"><ele>1165.0</ele><time>2026-04-23T09:44:41Z</time></trkpt><trkpt lat="42.42027866268234" lon="13.391570252202518"><ele>1166.0</ele><time>2026-04-23T09:44:42Z</time></trkpt><trkpt lat="42.420248325685904" lon="13.391719011553134"><ele>1167.0</ele><time>2026-04-23T09:44:43Z</time></trkpt><trkpt lat="42.42021745368791" lon="13.391855337378507"><ele>1167.0</ele><time>2026-04-23T09:44:44Z</time></trkpt><trkpt lat="42.42018656849479" lon="13.39197467395079"><ele>1167.0</ele><time>2026-04-23T09:44:45Z</time></trkpt><trkpt lat="42.42016512329912" lon="13.392099485458031"><ele>1167.0</ele><time>2026-04-23T09:44:46Z</time></trkpt><trkpt lat="42.42012880366127" lon="13.392251567579024"><ele>1167.0</ele><time>2026-04-23T09:44:47Z</time></trkpt><trkpt lat="42.42008165192693" lon="13.392395938601261"><ele>1167.0</ele><time>2026-04-23T09:44:48Z</time></trkpt><trkpt lat="42.4200260392636" lon="13.392507550604327"><ele>1167.6</ele><time>2026-04-23T09:44:49Z</time></trkpt><trkpt lat="42.41996272063549" lon="13.392589884425314"><ele>1168.2</ele><time>2026-04-23T09:44:50Z</time></trkpt><trkpt lat="42.419879874582556" lon="13.392645315011318"><ele>1168.8</ele><time>2026-04-23T09:44:51Z</time></trkpt><trkpt lat="42.41978658655544" lon="13.392661388132975"><ele>1169.4</ele><time>2026-04-23T09:44:52Z</time></trkpt><trkpt lat="42.41967894370368" lon="13.392661785060524"><ele>1170.0</ele><time>2026-04-23T09:44:53Z</time></trkpt><trkpt lat="42.41956714465909" lon="13.392636888422544"><ele>1168.0</ele><time>2026-04-23T09:44:54Z</time></trkpt><trkpt lat="42.419456217157794" lon="13.392602014998632"><ele>1166.0</ele><time>2026-04-23T09:44:55Z</time></trkpt><trkpt lat="42.4193472936772" lon="13.392557260946552"><ele>1164.0</ele><time>2026-04-23T09:44:56Z</time></trkpt><trkpt lat="42.41921398757433" lon="13.392504169902756"><ele>1162.0</ele><time>2026-04-23T09:44:57Z</time></trkpt><trkpt lat="42.419088344248564" lon="13.392454769369884"><ele>1162.0</ele><time>2026-04-23T09:44:58Z</time></trkpt><trkpt lat="42.418958091723326" lon="13.392402869414799"><ele>1162.0</ele><time>2026-04-23T09:44:59Z</time></trkpt><trkpt lat="42.41882269481035" lon="13.392348825789995"><ele>1162.0</ele><time>2026-04-23T09:45:00Z</time></trkpt><trkpt lat="42.418687676822614" lon="13.392314635754635"><ele>1162.0</ele><time>2026-04-23T09:45:01Z</time></trkpt><trkpt lat="42.4185498361609" lon="13.392278795520811"><ele>1160.25</ele><time>2026-04-23T09:45:02Z</time></trkpt><trkpt lat="42.41840449356174" lon="13.392248459268655"><ele>1158.5</ele><time>2026-04-23T09:45:03Z</time></trkpt><trkpt lat="42.418269901917846" lon="13.392220156678826"><ele>1156.75</ele><time>2026-04-23T09:45:04Z</time></trkpt><trkpt lat="42.41813176392339" lon="13.392207114465743"><ele>1155.0</ele><time>2026-04-23T09:45:05Z</time></trkpt><trkpt lat="42.41800746167999" lon="13.39218044153782"><ele>1154.0</ele><time>2026-04-23T09:45:06Z</time></trkpt><trkpt lat="42.417880361600254" lon="13.392177332599546"><ele>1153.0</ele><time>2026-04-23T09:45:07Z</time></trkpt><trkpt lat="42.417721856767685" lon="13.392194333997749"><ele>1152.0</ele><time>2026-04-23T09:45:08Z</time></trkpt><trkpt lat="42.41756062186588" lon="13.392217172587438"><ele>1151.0</ele><time>2026-04-23T09:45:09Z</time></trkpt><trkpt lat="42.41740272515473" lon="13.392242275361466"><ele>1151.0</ele><time>2026-04-23T09:45:10Z</time></trkpt><trkpt lat="42.41724604417185" lon="13.392291964959133"><ele>1151.0</ele><time>2026-04-23T09:45:11Z</time></trkpt><trkpt lat="42.41710332605794" lon="13.39233664289164"><ele>1151.0</ele><time>2026-04-23T09:45:12Z</time></trkpt><trkpt lat="42.41697075366168" lon="13.392378891543693"><ele>1151.0</ele><time>2026-04-23T09:45:13Z</time></trkpt><trkpt lat="42.41683441340009" lon="13.392425096449"><ele>1150.8</ele><time>2026-04-23T09:45:14Z</time></trkpt><trkpt lat="42.41670840880751" lon="13.392460410691688"><ele>1150.6</ele><time>2026-04-23T09:45:15Z</time></trkpt><trkpt lat="42.416593659685226" lon="13.392494419385754"><ele>1150.4</ele><time>2026-04-23T09:45:16Z</time></trkpt><trkpt lat="42.416506680437635" lon="13.392528090524413"><ele>1150.2</ele><time>2026-04-23T09:45:17Z</time></trkpt><trkpt lat="42.4164281088949" lon="13.392571029501333"><ele>1150.0</ele><time>2026-04-23T09:45:18Z</time></trkpt><trkpt lat="42.41635674848156" lon="13.392663564305426"><ele>1148.75</ele><time>2026-04-23T09:45:19Z</time></trkpt><trkpt lat="42.41627055748752" lon="13.39279390455022"><ele>1147.5</ele><time>2026-04-23T09:45:20Z</time></trkpt><trkpt lat="42.41617858029846" lon="13.392916207983395"><ele>1146.25</ele><time>2026-04-23T09:45:21Z</time></trkpt><trkpt lat="42.416099101149314" lon="13.393014979757794"><ele>1145.0</ele><time>2026-04-23T09:45:22Z</time></trkpt><trkpt lat="42.41603483155502" lon="13.393114275448625"><ele>1144.8333333333335</ele><time>2026-04-23T09:45:23Z</time></trkpt><trkpt lat="42.41597506576572" lon="13.393224208883309"><ele>1144.6666666666667</ele><time>2026-04-23T09:45:24Z</time></trkpt><trkpt lat="42.41591839559092" lon="13.393344150707373"><ele>1144.5</ele><time>2026-04-23T09:45:25Z</time></trkpt><trkpt lat="42.41587917703427" lon="13.393450916063104"><ele>1144.3333333333333</ele><time>2026-04-23T09:45:26Z</time></trkpt><trkpt lat="42.415871644203484" lon="13.39355093316216"><ele>1144.1666666666665</ele><time>2026-04-23T09:45:27Z</time></trkpt><trkpt lat="42.4158888770583" lon="13.393647454445656"><ele>1144.0</ele><time>2026-04-23T09:45:28Z</time></trkpt><trkpt lat="42.415942059615574" lon="13.393732233945759"><ele>1144.0</ele><time>2026-04-23T09:45:29Z</time></trkpt><trkpt lat="42.41599615468506" lon="13.393790860109906"><ele>1144.0</ele><time>2026-04-23T09:45:30Z</time></trkpt><trkpt lat="42.416067833097536" lon="13.393813927635362"><ele>1144.0</ele><time>2026-04-23T09:45:31Z</time></trkpt><trkpt lat="42.41614317513896" lon="13.39384685955876"><ele>1144.0</ele><time>2026-04-23T09:45:32Z</time></trkpt><trkpt lat="42.416261303910815" lon="13.3938676074078"><ele>1144.0</ele><time>2026-04-23T09:45:33Z</time></trkpt><trkpt lat="42.41637477853897" lon="13.39387853200908"><ele>1143.4</ele><time>2026-04-23T09:45:34Z</time></trkpt><trkpt lat="42.41646880953485" lon="13.393897659255343"><ele>1142.8000000000002</ele><time>2026-04-23T09:45:35Z</time></trkpt><trkpt lat="42.41655373630433" lon="13.393916015376929"><ele>1142.1999999999998</ele><time>2026-04-23T09:45:36Z</time></trkpt><trkpt lat="42.416653130414524" lon="13.394024785820617"><ele>1141.6</ele><time>2026-04-23T09:45:38Z</time></trkpt><trkpt lat="42.4166655822239" lon="13.394114607205472"><ele>1141.0</ele><time>2026-04-23T09:45:39Z</time></trkpt><trkpt lat="42.41664714472375" lon="13.394225154199148"><ele>1141.0</ele><time>2026-04-23T09:45:40Z</time></trkpt><trkpt lat="42.41659762147902" lon="13.394324746507788"><ele>1141.0</ele><time>2026-04-23T09:45:41Z</time></trkpt><trkpt lat="42.416510433874286" lon="13.394418590709327"><ele>1141.0</ele><time>2026-04-23T09:45:42Z</time></trkpt><trkpt lat="42.416411789003774" lon="13.39449443799384"><ele>1141.0</ele><time>2026-04-23T09:45:43Z</time></trkpt><trkpt lat="42.41629505840615" lon="13.39457538211857"><ele>1141.0</ele><time>2026-04-23T09:45:44Z</time></trkpt><trkpt lat="42.4161537515586" lon="13.39464165417791"><ele>1140.0</ele><time>2026-04-23T09:45:45Z</time></trkpt><trkpt lat="42.41599760398966" lon="13.394693699098225"><ele>1139.0</ele><time>2026-04-23T09:45:46Z</time></trkpt><trkpt lat="42.41583367801679" lon="13.394742735955118"><ele>1138.0</ele><time>2026-04-23T09:45:47Z</time></trkpt><trkpt lat="42.41568457988878" lon="13.39479404321481"><ele>1138.0</ele><time>2026-04-23T09:45:48Z</time></trkpt><trkpt lat="42.41554420309837" lon="13.39485951601833"><ele>1138.0</ele><time>2026-04-23T09:45:49Z</time></trkpt><trkpt lat="42.415420366551544" lon="13.394942152799256"><ele>1138.0</ele><time>2026-04-23T09:45:50Z</time></trkpt><trkpt lat="42.41531167289791" lon="13.395025664783812"><ele>1138.0</ele><time>2026-04-23T09:45:51Z</time></trkpt><trkpt lat="42.415216371004995" lon="13.395101357120007"><ele>1137.2</ele><time>2026-04-23T09:45:52Z</time></trkpt><trkpt lat="42.41511929484469" lon="13.395178004599549"><ele>1136.4</ele><time>2026-04-23T09:45:53Z</time></trkpt><trkpt lat="42.41503159648978" lon="13.395224699742927"><ele>1135.6000000000001</ele><time>2026-04-23T09:45:54Z</time></trkpt><trkpt lat="42.4149502684971" lon="13.395257709860909"><ele>1134.8</ele><time>2026-04-23T09:45:55Z</time></trkpt><trkpt lat="42.41485678985861" lon="13.39528104279214"><ele>1134.0</ele><time>2026-04-23T09:45:56Z</time></trkpt><trkpt lat="42.414755810907145" lon="13.395279659393438"><ele>1133.2</ele><time>2026-04-23T09:45:57Z</time></trkpt><trkpt lat="42.41464723577264" lon="13.39525803940728"><ele>1132.4</ele><time>2026-04-23T09:45:58Z</time></trkpt><trkpt lat="42.41453949208789" lon="13.395225474407187"><ele>1131.6</ele><time>2026-04-23T09:45:59Z</time></trkpt><trkpt lat="42.414431659458515" lon="13.395196866090508"><ele>1130.8</ele><time>2026-04-23T09:46:00Z</time></trkpt><trkpt lat="42.41432933344002" lon="13.39519295759152"><ele>1130.0</ele><time>2026-04-23T09:46:01Z</time></trkpt><trkpt lat="42.41423633308676" lon="13.395195344055033"><ele>1130.0</ele><time>2026-04-23T09:46:02Z</time></trkpt><trkpt lat="42.41416198876663" lon="13.39522026190607"><ele>1130.0</ele><time>2026-04-23T09:46:03Z</time></trkpt><trkpt lat="42.4140879921902" lon="13.395355963783933"><ele>1130.0</ele><time>2026-04-23T09:46:05Z</time></trkpt><trkpt lat="42.41408604550533" lon="13.395454303855189"><ele>1130.0</ele><time>2026-04-23T09:46:06Z</time></trkpt><trkpt lat="42.41410138349879" lon="13.395579015197953"><ele>1130.0</ele><time>2026-04-23T09:46:07Z</time></trkpt><trkpt lat="42.41410782618368" lon="13.395710666527116"><ele>1129.8</ele><time>2026-04-23T09:46:08Z</time></trkpt><trkpt lat="42.41409122186164" lon="13.395854384656081"><ele>1129.6</ele><time>2026-04-23T09:46:09Z</time></trkpt><trkpt lat="42.414053450212286" lon="13.395977924212685"><ele>1129.4</ele><time>2026-04-23T09:46:10Z</time></trkpt><trkpt lat="42.413998853023585" lon="13.39610381902237"><ele>1129.2</ele><time>2026-04-23T09:46:11Z</time></trkpt><trkpt lat="42.413917714970694" lon="13.396222901537158"><ele>1129.0</ele><time>2026-04-23T09:46:12Z</time></trkpt><trkpt lat="42.413832220734875" lon="13.39633458047616"><ele>1130.3333333333333</ele><time>2026-04-23T09:46:13Z</time></trkpt><trkpt lat="42.41376279676658" lon="13.396424091892783"><ele>1131.6666666666665</ele><time>2026-04-23T09:46:14Z</time></trkpt><trkpt lat="42.41371106582444" lon="13.396472866585738"><ele>1133.0</ele><time>2026-04-23T09:46:15Z</time></trkpt><trkpt lat="42.41362011361997" lon="13.39644740254591"><ele>1134.3333333333333</ele><time>2026-04-23T09:46:17Z</time></trkpt><trkpt lat="42.41357265441471" lon="13.396296221855145"><ele>1135.6666666666667</ele><time>2026-04-23T09:46:19Z</time></trkpt><trkpt lat="42.41359086492825" lon="13.396204083513735"><ele>1137.0</ele><time>2026-04-23T09:46:20Z</time></trkpt><trkpt lat="42.41362323496172" lon="13.396095392823156"><ele>1138.2</ele><time>2026-04-23T09:46:21Z</time></trkpt><trkpt lat="42.41366436693675" lon="13.395966413200052"><ele>1139.4</ele><time>2026-04-23T09:46:22Z</time></trkpt><trkpt lat="42.41370839511711" lon="13.395830533610273"><ele>1140.6</ele><time>2026-04-23T09:46:23Z</time></trkpt><trkpt lat="42.41377289897136" lon="13.395701454765462"><ele>1141.8</ele><time>2026-04-23T09:46:24Z</time></trkpt><trkpt lat="42.413831302322066" lon="13.395592806698106"><ele>1143.0</ele><time>2026-04-23T09:46:25Z</time></trkpt><trkpt lat="42.41386470838112" lon="13.39548788899473"><ele>1140.4</ele><time>2026-04-23T09:46:26Z</time></trkpt><trkpt lat="42.41387588505681" lon="13.395371497152919"><ele>1137.8</ele><time>2026-04-23T09:46:27Z</time></trkpt><trkpt lat="42.413875365244415" lon="13.395238235842145"><ele>1135.2</ele><time>2026-04-23T09:46:28Z</time></trkpt><trkpt lat="42.41388131603053" lon="13.395106897279094"><ele>1132.6</ele><time>2026-04-23T09:46:29Z</time></trkpt><trkpt lat="42.41389023042002" lon="13.39496391814588"><ele>1130.0</ele><time>2026-04-23T09:46:30Z</time></trkpt><trkpt lat="42.41390346154562" lon="13.394832224802805"><ele>1130.0</ele><time>2026-04-23T09:46:31Z</time></trkpt><trkpt lat="42.41391346802791" lon="13.394689676086854"><ele>1130.0</ele><time>2026-04-23T09:46:32Z</time></trkpt><trkpt lat="42.413938217630715" lon="13.394551603595994"><ele>1130.0</ele><time>2026-04-23T09:46:33Z</time></trkpt><trkpt lat="42.41394038894764" lon="13.394429267372875"><ele>1130.0</ele><time>2026-04-23T09:46:34Z</time></trkpt><trkpt lat="42.413929683323936" lon="13.394307618517098"><ele>1130.0</ele><time>2026-04-23T09:46:35Z</time></trkpt><trkpt lat="42.413911120605995" lon="13.394221213219266"><ele>1129.25</ele><time>2026-04-23T09:46:36Z</time></trkpt><trkpt lat="42.413871573917426" lon="13.394110325753356"><ele>1128.5</ele><time>2026-04-23T09:46:37Z</time></trkpt><trkpt lat="42.41382896904337" lon="13.393968327796328"><ele>1127.75</ele><time>2026-04-23T09:46:38Z</time></trkpt><trkpt lat="42.41377376590442" lon="13.393792508881962"><ele>1127.0</ele><time>2026-04-23T09:46:39Z</time></trkpt><trkpt lat="42.41372353718914" lon="13.393591725311309"><ele>1131.5</ele><time>2026-04-23T09:46:40Z</time></trkpt><trkpt lat="42.41368501899806" lon="13.393363679828434"><ele>1136.0</ele><time>2026-04-23T09:46:41Z</time></trkpt><trkpt lat="42.41366182043509" lon="13.3931772360909"><ele>1140.5</ele><time>2026-04-23T09:46:42Z</time></trkpt><trkpt lat="42.413643725496826" lon="13.393026639768067"><ele>1145.0</ele><time>2026-04-23T09:46:43Z</time></trkpt><trkpt lat="42.41361029786458" lon="13.392899838182819"><ele>1145.0</ele><time>2026-04-23T09:46:44Z</time></trkpt><trkpt lat="42.413495741983354" lon="13.392676725809903"><ele>1145.0</ele><time>2026-04-23T09:46:46Z</time></trkpt><trkpt lat="42.41340552029993" lon="13.392564903672756"><ele>1145.0</ele><time>2026-04-23T09:46:47Z</time></trkpt><trkpt lat="42.41332543744314" lon="13.39246760228032"><ele>1145.0</ele><time>2026-04-23T09:46:48Z</time></trkpt><trkpt lat="42.41325989705001" lon="13.392383035508933"><ele>1145.0</ele><time>2026-04-23T09:46:49Z</time></trkpt><trkpt lat="42.413197828019584" lon="13.392309241697548"><ele>1145.0</ele><time>2026-04-23T09:46:51Z</time></trkpt><trkpt lat="42.41312188555731" lon="13.3922828419106"><ele>1145.0</ele><time>2026-04-23T09:47:05Z</time></trkpt><trkpt lat="42.4130458252042" lon="13.392236264369096"><ele>1145.0</ele><time>2026-04-23T09:47:06Z</time></trkpt><trkpt lat="42.41297235053507" lon="13.392176525048338"><ele>1145.0</ele><time>2026-04-23T09:47:07Z</time></trkpt><trkpt lat="42.412900768183064" lon="13.392098072818563"><ele>1145.0</ele><time>2026-04-23T09:47:08Z</time></trkpt><trkpt lat="42.41284533963081" lon="13.392016756278252"><ele>1148.6</ele><time>2026-04-23T09:47:09Z</time></trkpt><trkpt lat="42.412813089196156" lon="13.391932515168136"><ele>1152.2</ele><time>2026-04-23T09:47:10Z</time></trkpt><trkpt lat="42.412792070040446" lon="13.391819718568355"><ele>1155.8</ele><time>2026-04-23T09:47:11Z</time></trkpt><trkpt lat="42.41276863968771" lon="13.391686493547958"><ele>1159.4</ele><time>2026-04-23T09:47:12Z</time></trkpt><trkpt lat="42.412747263735724" lon="13.391552045703344"><ele>1163.0</ele><time>2026-04-23T09:47:13Z</time></trkpt><trkpt lat="42.41272926541369" lon="13.391424201518069"><ele>1161.2</ele><time>2026-04-23T09:47:14Z</time></trkpt><trkpt lat="42.41270960966799" lon="13.39128949011807"><ele>1159.4</ele><time>2026-04-23T09:47:15Z</time></trkpt><trkpt lat="42.4126794041901" lon="13.391174873026534"><ele>1157.6000000000001</ele><time>2026-04-23T09:47:16Z</time></trkpt><trkpt lat="42.41262803666361" lon="13.391052034000817"><ele>1155.8</ele><time>2026-04-23T09:47:17Z</time></trkpt><trkpt lat="42.412579703761864" lon="13.390922066122423"><ele>1154.0</ele><time>2026-04-23T09:47:18Z</time></trkpt><trkpt lat="42.41252315937993" lon="13.390811217783263"><ele>1154.0</ele><time>2026-04-23T09:47:19Z</time></trkpt><trkpt lat="42.41245752820026" lon="13.390695936421782"><ele>1154.0</ele><time>2026-04-23T09:47:20Z</time></trkpt><trkpt lat="42.41239007691893" lon="13.390599464231634"><ele>1154.0</ele><time>2026-04-23T09:47:21Z</time></trkpt><trkpt lat="42.41232301454053" lon="13.390499770447835"><ele>1154.0</ele><time>2026-04-23T09:47:22Z</time></trkpt><trkpt lat="42.412253746512185" lon="13.390361315091397"><ele>1154.0</ele><time>2026-04-23T09:47:23Z</time></trkpt><trkpt lat="42.41217879183323" lon="13.390212785043623"><ele>1156.25</ele><time>2026-04-23T09:47:24Z</time></trkpt><trkpt lat="42.41211337076515" lon="13.390059207513717"><ele>1158.5</ele><time>2026-04-23T09:47:25Z</time></trkpt><trkpt lat="42.41204835032198" lon="13.389922573855937"><ele>1160.75</ele><time>2026-04-23T09:47:26Z</time></trkpt><trkpt lat="42.41196807305534" lon="13.38979410204433"><ele>1163.0</ele><time>2026-04-23T09:47:27Z</time></trkpt><trkpt lat="42.41188168117567" lon="13.389688283221194"><ele>1163.0</ele><time>2026-04-23T09:47:28Z</time></trkpt><trkpt lat="42.411815229924656" lon="13.38961217775321"><ele>1163.0</ele><time>2026-04-23T09:47:29Z</time></trkpt><trkpt lat="42.411725648048716" lon="13.389584891406733"><ele>1163.0</ele><time>2026-04-23T09:47:31Z</time></trkpt><trkpt lat="42.41167527021708" lon="13.389724690511475"><ele>1163.0</ele><time>2026-04-23T09:47:33Z</time></trkpt><trkpt lat="42.411681464902266" lon="13.38983996744181"><ele>1163.0</ele><time>2026-04-23T09:47:34Z</time></trkpt><trkpt lat="42.411714409507745" lon="13.389971153714084"><ele>1163.0</ele><time>2026-04-23T09:47:35Z</time></trkpt><trkpt lat="42.411753945903264" lon="13.390096636586891"><ele>1163.0</ele><time>2026-04-23T09:47:36Z</time></trkpt><trkpt lat="42.411784372117864" lon="13.390233587278361"><ele>1163.0</ele><time>2026-04-23T09:47:37Z</time></trkpt><trkpt lat="42.411821391126146" lon="13.39036136453375"><ele>1163.0</ele><time>2026-04-23T09:47:38Z</time></trkpt><trkpt lat="42.411856180300944" lon="13.390456051962662"><ele>1163.0</ele><time>2026-04-23T09:47:39Z</time></trkpt><trkpt lat="42.41186976386296" lon="13.39054039698019"><ele>1163.0</ele><time>2026-04-23T09:47:40Z</time></trkpt><trkpt lat="42.411855578896564" lon="13.39065007662846"><ele>1163.5</ele><time>2026-04-23T09:47:41Z</time></trkpt><trkpt lat="42.41184258323951" lon="13.390792606363686"><ele>1164.0</ele><time>2026-04-23T09:47:42Z</time></trkpt><trkpt lat="42.41182537418279" lon="13.390972044815209"><ele>1164.5</ele><time>2026-04-23T09:47:43Z</time></trkpt><trkpt lat="42.411804467532264" lon="13.391153151605899"><ele>1165.0</ele><time>2026-04-23T09:47:44Z</time></trkpt><trkpt lat="42.411784082516036" lon="13.391333276646556"><ele>1167.25</ele><time>2026-04-23T09:47:45Z</time></trkpt><trkpt lat="42.41176802082097" lon="13.391483412816209"><ele>1169.5</ele><time>2026-04-23T09:47:46Z</time></trkpt><trkpt lat="42.41174134247169" lon="13.391620082351277"><ele>1171.75</ele><time>2026-04-23T09:47:47Z</time></trkpt><trkpt lat="42.41170900315438" lon="13.391781270957555"><ele>1174.0</ele><time>2026-04-23T09:47:48Z</time></trkpt><trkpt lat="42.41168243368532" lon="13.391951204626743"><ele>1174.0</ele><time>2026-04-23T09:47:49Z</time></trkpt><trkpt lat="42.4116517306923" lon="13.392121801949495"><ele>1174.0</ele><time>2026-04-23T09:47:50Z</time></trkpt><trkpt lat="42.411620646631626" lon="13.39226001840535"><ele>1174.0</ele><time>2026-04-23T09:47:51Z</time></trkpt><trkpt lat="42.411595145820606" lon="13.392379101406126"><ele>1174.0</ele><time>2026-04-23T09:47:52Z</time></trkpt><trkpt lat="42.41156838931902" lon="13.3924813890643"><ele>1174.0</ele><time>2026-04-23T09:47:53Z</time></trkpt><trkpt lat="42.41153556987355" lon="13.392592828346642"><ele>1174.8</ele><time>2026-04-23T09:47:54Z</time></trkpt><trkpt lat="42.4115083828208" lon="13.3927255727665"><ele>1175.6000000000001</ele><time>2026-04-23T09:47:55Z</time></trkpt><trkpt lat="42.41148873361259" lon="13.392876093255577"><ele>1176.4</ele><time>2026-04-23T09:47:56Z</time></trkpt><trkpt lat="42.4114627814442" lon="13.393025539256099"><ele>1177.2</ele><time>2026-04-23T09:47:57Z</time></trkpt><trkpt lat="42.41142862409997" lon="13.393167385257506"><ele>1178.0</ele><time>2026-04-23T09:47:58Z</time></trkpt><trkpt lat="42.41139195177152" lon="13.393297756495645"><ele>1178.6</ele><time>2026-04-23T09:47:59Z</time></trkpt><trkpt lat="42.411356903387805" lon="13.39342897444459"><ele>1179.1999999999998</ele><time>2026-04-23T09:48:00Z</time></trkpt><trkpt lat="42.41132285199044" lon="13.393567204031438"><ele>1179.8</ele><time>2026-04-23T09:48:01Z</time></trkpt><trkpt lat="42.411293476174" lon="13.39370455647068"><ele>1180.3999999999999</ele><time>2026-04-23T09:48:02Z</time></trkpt><trkpt lat="42.41125306513662" lon="13.393851297055091"><ele>1181.0</ele><time>2026-04-23T09:48:03Z</time></trkpt><trkpt lat="42.41119750923639" lon="13.394002312390827"><ele>1178.25</ele><time>2026-04-23T09:48:04Z</time></trkpt><trkpt lat="42.41113256671732" lon="13.394156194757722"><ele>1175.5</ele><time>2026-04-23T09:48:05Z</time></trkpt><trkpt lat="42.411055052808926" lon="13.394304080884115"><ele>1172.75</ele><time>2026-04-23T09:48:06Z</time></trkpt><trkpt lat="42.41097042120968" lon="13.394472706492305"><ele>1170.0</ele><time>2026-04-23T09:48:07Z</time></trkpt><trkpt lat="42.41087026581866" lon="13.39463402247803"><ele>1171.6666666666667</ele><time>2026-04-23T09:48:08Z</time></trkpt><trkpt lat="42.410765714458805" lon="13.394812304585995"><ele>1173.3333333333335</ele><time>2026-04-23T09:48:09Z</time></trkpt><trkpt lat="42.410669722489814" lon="13.394995446803941"><ele>1175.0</ele><time>2026-04-23T09:48:10Z</time></trkpt><trkpt lat="42.41056759781137" lon="13.395170771567628"><ele>1178.5</ele><time>2026-04-23T09:48:11Z</time></trkpt><trkpt lat="42.41048385647952" lon="13.395337070143983"><ele>1182.0</ele><time>2026-04-23T09:48:12Z</time></trkpt><trkpt lat="42.41040418312556" lon="13.39547931509403"><ele>1185.5</ele><time>2026-04-23T09:48:13Z</time></trkpt><trkpt lat="42.41031652339244" lon="13.395622269315263"><ele>1189.0</ele><time>2026-04-23T09:48:14Z</time></trkpt><trkpt lat="42.41029191518301" lon="13.395744228074246"><ele>1189.8</ele><time>2026-04-23T09:48:15Z</time></trkpt><trkpt lat="42.41025916505433" lon="13.395857777844821"><ele>1190.6000000000001</ele><time>2026-04-23T09:48:16Z</time></trkpt><trkpt lat="42.4101884322121" lon="13.395986534988086"><ele>1191.4</ele><time>2026-04-23T09:48:17Z</time></trkpt><trkpt lat="42.41012065000061" lon="13.39609091880358"><ele>1192.2</ele><time>2026-04-23T09:48:18Z</time></trkpt><trkpt lat="42.41004972589379" lon="13.396179387184489"><ele>1193.0</ele><time>2026-04-23T09:48:19Z</time></trkpt><trkpt lat="42.40995722715542" lon="13.396199429821165"><ele>1193.0</ele><time>2026-04-23T09:48:21Z</time></trkpt><trkpt lat="42.409858674122106" lon="13.396094872865731"><ele>1193.0</ele><time>2026-04-23T09:48:23Z</time></trkpt><trkpt lat="42.409804770613746" lon="13.396004503834414"><ele>1193.0</ele><time>2026-04-23T09:48:24Z</time></trkpt><trkpt lat="42.40975290843866" lon="13.395935948545302"><ele>1193.0</ele><time>2026-04-23T09:48:25Z</time></trkpt><trkpt lat="42.40968247969662" lon="13.395879889460382"><ele>1193.0</ele><time>2026-04-23T09:48:26Z</time></trkpt><trkpt lat="42.40961652656967" lon="13.395860945839786"><ele>1193.0</ele><time>2026-04-23T09:48:27Z</time></trkpt><trkpt lat="42.40954277364063" lon="13.395892129734873"><ele>1194.0</ele><time>2026-04-23T09:48:28Z</time></trkpt><trkpt lat="42.4094682194038" lon="13.395956658079553"><ele>1195.0</ele><time>2026-04-23T09:48:29Z</time></trkpt><trkpt lat="42.40940533033078" lon="13.396039028607586"><ele>1196.0</ele><time>2026-04-23T09:48:30Z</time></trkpt><trkpt lat="42.40932002276033" lon="13.396147939961969"><ele>1197.0</ele><time>2026-04-23T09:48:31Z</time></trkpt><trkpt lat="42.409241791381085" lon="13.396278848110356"><ele>1198.0</ele><time>2026-04-23T09:48:32Z</time></trkpt><trkpt lat="42.40917460332417" lon="13.39640464487152"><ele>1199.25</ele><time>2026-04-23T09:48:33Z</time></trkpt><trkpt lat="42.4091034690827" lon="13.396526289828484"><ele>1200.5</ele><time>2026-04-23T09:48:34Z</time></trkpt><trkpt lat="42.40903939726918" lon="13.396683493974198"><ele>1201.75</ele><time>2026-04-23T09:48:35Z</time></trkpt><trkpt lat="42.40899306414118" lon="13.396833329645297"><ele>1203.0</ele><time>2026-04-23T09:48:36Z</time></trkpt><trkpt lat="42.40896567549515" lon="13.396957793586052"><ele>1203.0</ele><time>2026-04-23T09:48:37Z</time></trkpt><trkpt lat="42.408930179891044" lon="13.397059914460243"><ele>1203.0</ele><time>2026-04-23T09:48:38Z</time></trkpt><trkpt lat="42.40892737831052" lon="13.397160569896629"><ele>1203.0</ele><time>2026-04-23T09:48:39Z</time></trkpt><trkpt lat="42.40894719484049" lon="13.397257254836049"><ele>1203.0</ele><time>2026-04-23T09:48:40Z</time></trkpt><trkpt lat="42.40899050729917" lon="13.39735480401252"><ele>1203.0</ele><time>2026-04-23T09:48:41Z</time></trkpt><trkpt lat="42.40904980219296" lon="13.397453564004914"><ele>1203.0</ele><time>2026-04-23T09:48:42Z</time></trkpt><trkpt lat="42.4091097219877" lon="13.39755598836758"><ele>1202.8</ele><time>2026-04-23T09:48:43Z</time></trkpt><trkpt lat="42.4091589413668" lon="13.39764712618998"><ele>1202.6</ele><time>2026-04-23T09:48:44Z</time></trkpt><trkpt lat="42.40917725334196" lon="13.397735106113284"><ele>1202.4</ele><time>2026-04-23T09:48:45Z</time></trkpt><trkpt lat="42.4091311470837" lon="13.397904347782347"><ele>1202.2</ele><time>2026-04-23T09:48:47Z</time></trkpt><trkpt lat="42.4091280237558" lon="13.398055881745032"><ele>1202.0</ele><time>2026-04-23T09:48:49Z</time></trkpt><trkpt lat="42.40918120413379" lon="13.39813442351753"><ele>1200.75</ele><time>2026-04-23T09:48:50Z</time></trkpt><trkpt lat="42.409245529870454" lon="13.39824646211144"><ele>1199.5</ele><time>2026-04-23T09:48:51Z</time></trkpt><trkpt lat="42.40928531487366" lon="13.398378289426807"><ele>1198.25</ele><time>2026-04-23T09:48:52Z</time></trkpt><trkpt lat="42.40930039774538" lon="13.398539877426972"><ele>1197.0</ele><time>2026-04-23T09:48:53Z</time></trkpt><trkpt lat="42.40929653444506" lon="13.398718148404392"><ele>1195.75</ele><time>2026-04-23T09:48:54Z</time></trkpt><trkpt lat="42.409289715908976" lon="13.398903814237169"><ele>1194.5</ele><time>2026-04-23T09:48:55Z</time></trkpt><trkpt lat="42.40927080605023" lon="13.39908874705124"><ele>1193.25</ele><time>2026-04-23T09:48:56Z</time></trkpt><trkpt lat="42.409242659372666" lon="13.399252028044717"><ele>1192.0</ele><time>2026-04-23T09:48:57Z</time></trkpt><trkpt lat="42.4092203142704" lon="13.399408389785881"><ele>1192.0</ele><time>2026-04-23T09:48:58Z</time></trkpt><trkpt lat="42.40922517335292" lon="13.39954762316843"><ele>1192.0</ele><time>2026-04-23T09:48:59Z</time></trkpt><trkpt lat="42.40926058820936" lon="13.399692416669515"><ele>1192.0</ele><time>2026-04-23T09:49:00Z</time></trkpt><trkpt lat="42.409298458391206" lon="13.399852328498405"><ele>1192.0</ele><time>2026-04-23T09:49:01Z</time></trkpt><trkpt lat="42.409341328035026" lon="13.400026079688176"><ele>1192.25</ele><time>2026-04-23T09:49:02Z</time></trkpt><trkpt lat="42.40939423054073" lon="13.400220053536215"><ele>1192.5</ele><time>2026-04-23T09:49:03Z</time></trkpt><trkpt lat="42.409453831660485" lon="13.400410813380292"><ele>1192.75</ele><time>2026-04-23T09:49:04Z</time></trkpt><trkpt lat="42.409500085853566" lon="13.400563702030649"><ele>1193.0</ele><time>2026-04-23T09:49:05Z</time></trkpt><trkpt lat="42.409535528280394" lon="13.400701528878432"><ele>1194.0</ele><time>2026-04-23T09:49:06Z</time></trkpt><trkpt lat="42.4095514272146" lon="13.400801768714068"><ele>1195.0</ele><time>2026-04-23T09:49:07Z</time></trkpt><trkpt lat="42.409563882964676" lon="13.400908197825549"><ele>1196.0</ele><time>2026-04-23T09:49:08Z</time></trkpt><trkpt lat="42.40956782253673" lon="13.40103995887421"><ele>1197.0</ele><time>2026-04-23T09:49:09Z</time></trkpt><trkpt lat="42.40956795758768" lon="13.40116468235412"><ele>1198.0</ele><time>2026-04-23T09:49:10Z</time></trkpt><trkpt lat="42.40957000905542" lon="13.401283116469033"><ele>1199.0</ele><time>2026-04-23T09:49:11Z</time></trkpt><trkpt lat="42.40956205243234" lon="13.401398814193822"><ele>1200.6000000000001</ele><time>2026-04-23T09:49:12Z</time></trkpt><trkpt lat="42.409507886373355" lon="13.401595230368171"><ele>1202.2</ele><time>2026-04-23T09:49:14Z</time></trkpt><trkpt lat="42.40945571764774" lon="13.401690422253205"><ele>1203.8000000000002</ele><time>2026-04-23T09:49:15Z</time></trkpt><trkpt lat="42.40939231822122" lon="13.401771931076503"><ele>1205.4</ele><time>2026-04-23T09:49:16Z</time></trkpt><trkpt lat="42.409304383908406" lon="13.401847902560085"><ele>1207.0</ele><time>2026-04-23T09:49:17Z</time></trkpt><trkpt lat="42.4092087016014" lon="13.401914795244137"><ele>1207.0</ele><time>2026-04-23T09:49:18Z</time></trkpt><trkpt lat="42.409107755350725" lon="13.40196667239228"><ele>1207.0</ele><time>2026-04-23T09:49:19Z</time></trkpt><trkpt lat="42.40899068129924" lon="13.402004819390834"><ele>1207.0</ele><time>2026-04-23T09:49:20Z</time></trkpt><trkpt lat="42.40886492128549" lon="13.402030936873727"><ele>1207.0</ele><time>2026-04-23T09:49:21Z</time></trkpt><trkpt lat="42.408740894438466" lon="13.40204745285264"><ele>1206.8</ele><time>2026-04-23T09:49:22Z</time></trkpt><trkpt lat="42.40862070342286" lon="13.40206069492746"><ele>1206.6</ele><time>2026-04-23T09:49:23.001Z</time></trkpt><trkpt lat="42.408495828501266" lon="13.402074453390265"><ele>1206.3999999999999</ele><time>2026-04-23T09:49:24.001Z</time></trkpt><trkpt lat="42.408389994381835" lon="13.402076700128339"><ele>1206.2</ele><time>2026-04-23T09:49:25.001Z</time></trkpt><trkpt lat="42.408294881578726" lon="13.402073779917242"><ele>1206.0</ele><time>2026-04-23T09:49:26.001Z</time></trkpt><trkpt lat="42.408203289227295" lon="13.402079159552482"><ele>1206.0</ele><time>2026-04-23T09:49:27.001Z</time></trkpt><trkpt lat="42.40810641113767" lon="13.402110173500546"><ele>1206.0</ele><time>2026-04-23T09:49:28.001Z</time></trkpt><trkpt lat="42.40800834610831" lon="13.402162690052005"><ele>1206.0</ele><time>2026-04-23T09:49:29.001Z</time></trkpt><trkpt lat="42.40790553640756" lon="13.402243712489572"><ele>1206.0</ele><time>2026-04-23T09:49:30.001Z</time></trkpt><trkpt lat="42.407802099503044" lon="13.402327749083424"><ele>1206.0</ele><time>2026-04-23T09:49:31.001Z</time></trkpt><trkpt lat="42.40769440210026" lon="13.402404096885887"><ele>1205.25</ele><time>2026-04-23T09:49:32.001Z</time></trkpt><trkpt lat="42.40758981644232" lon="13.402489270778915"><ele>1204.5</ele><time>2026-04-23T09:49:33.001Z</time></trkpt><trkpt lat="42.407470336071775" lon="13.402566978952294"><ele>1203.75</ele><time>2026-04-23T09:49:34.001Z</time></trkpt><trkpt lat="42.407357497136886" lon="13.402631148388018"><ele>1203.0</ele><time>2026-04-23T09:49:35.001Z</time></trkpt><trkpt lat="42.40724789761675" lon="13.402675049791727"><ele>1201.8</ele><time>2026-04-23T09:49:36.001Z</time></trkpt><trkpt lat="42.407145514340186" lon="13.402712549623642"><ele>1200.6</ele><time>2026-04-23T09:49:37.001Z</time></trkpt><trkpt lat="42.40704887802224" lon="13.402761818097847"><ele>1199.4</ele><time>2026-04-23T09:49:38.001Z</time></trkpt><trkpt lat="42.40695733074256" lon="13.402834003435657"><ele>1198.2</ele><time>2026-04-23T09:49:39.001Z</time></trkpt><trkpt lat="42.406876206537625" lon="13.402928730244163"><ele>1197.0</ele><time>2026-04-23T09:49:40.001Z</time></trkpt><trkpt lat="42.40679775736534" lon="13.403040431806732"><ele>1197.0</ele><time>2026-04-23T09:49:41.001Z</time></trkpt><trkpt lat="42.40673386520136" lon="13.403144075116844"><ele>1197.0</ele><time>2026-04-23T09:49:42.001Z</time></trkpt><trkpt lat="42.40668131396183" lon="13.40324583900867"><ele>1197.0</ele><time>2026-04-23T09:49:43.001Z</time></trkpt><trkpt lat="42.40663890616462" lon="13.403395980365607"><ele>1197.0</ele><time>2026-04-23T09:49:44.001Z</time></trkpt><trkpt lat="42.40661336178583" lon="13.40355828299258"><ele>1197.0</ele><time>2026-04-23T09:49:45.001Z</time></trkpt><trkpt lat="42.40654381946383" lon="13.403737427991441"><ele>1196.8</ele><time>2026-04-23T09:49:46.001Z</time></trkpt><trkpt lat="42.40649169571564" lon="13.40388755401184"><ele>1196.6</ele><time>2026-04-23T09:49:47.001Z</time></trkpt><trkpt lat="42.406444402631976" lon="13.404023352380753"><ele>1196.3999999999999</ele><time>2026-04-23T09:49:48.001Z</time></trkpt><trkpt lat="42.406411912345284" lon="13.4041495918382"><ele>1196.2</ele><time>2026-04-23T09:49:49.001Z</time></trkpt><trkpt lat="42.40639915887462" lon="13.404271777261469"><ele>1196.0</ele><time>2026-04-23T09:49:50.001Z</time></trkpt><trkpt lat="42.40640321723505" lon="13.404382477950994"><ele>1196.0</ele><time>2026-04-23T09:49:51.001Z</time></trkpt><trkpt lat="42.406408818804806" lon="13.404494881336127"><ele>1196.0</ele><time>2026-04-23T09:49:52.001Z</time></trkpt><trkpt lat="42.40642518768951" lon="13.404582141404939"><ele>1196.0</ele><time>2026-04-23T09:49:53.001Z</time></trkpt><trkpt lat="42.406467626020266" lon="13.404707170366304"><ele>1196.0</ele><time>2026-04-23T09:49:54.001Z</time></trkpt><trkpt lat="42.40652064889389" lon="13.40482746945763"><ele>1196.0</ele><time>2026-04-23T09:49:55.001Z</time></trkpt><trkpt lat="42.40659371331498" lon="13.404964265856735"><ele>1194.0</ele><time>2026-04-23T09:49:56.001Z</time></trkpt><trkpt lat="42.406657523700225" lon="13.40508854107417"><ele>1192.0</ele><time>2026-04-23T09:49:57.001Z</time></trkpt><trkpt lat="42.40672390288747" lon="13.405205441751248"><ele>1190.0</ele><time>2026-04-23T09:49:58.001Z</time></trkpt><trkpt lat="42.40676671401424" lon="13.405310610895576"><ele>1188.0</ele><time>2026-04-23T09:49:59.001Z</time></trkpt><trkpt lat="42.406766339657565" lon="13.405416705272216"><ele>1186.0</ele><time>2026-04-23T09:50:00.001Z</time></trkpt><trkpt lat="42.406732183619425" lon="13.405539570278025"><ele>1185.5</ele><time>2026-04-23T09:50:01.001Z</time></trkpt><trkpt lat="42.40667098853046" lon="13.405661627803005"><ele>1185.0</ele><time>2026-04-23T09:50:02.001Z</time></trkpt><trkpt lat="42.4065839253122" lon="13.405777132071025"><ele>1184.5</ele><time>2026-04-23T09:50:03.001Z</time></trkpt><trkpt lat="42.40647031002962" lon="13.405903936295203"><ele>1184.0</ele><time>2026-04-23T09:50:04Z</time></trkpt><trkpt lat="42.406357646068486" lon="13.40603741911784"><ele>1180.5</ele><time>2026-04-23T09:50:05Z</time></trkpt><trkpt lat="42.40626128076822" lon="13.406171724238968"><ele>1177.0</ele><time>2026-04-23T09:50:06Z</time></trkpt><trkpt lat="42.40617501747041" lon="13.406311694976766"><ele>1173.5</ele><time>2026-04-23T09:50:07Z</time></trkpt><trkpt lat="42.40610069501448" lon="13.406428881298337"><ele>1170.0</ele><time>2026-04-23T09:50:08Z</time></trkpt><trkpt lat="42.40602804385786" lon="13.406532790807615"><ele>1170.0</ele><time>2026-04-23T09:50:09Z</time></trkpt><trkpt lat="42.405936818618905" lon="13.406604579903044"><ele>1170.0</ele><time>2026-04-23T09:50:10Z</time></trkpt><trkpt lat="42.405838775759655" lon="13.406635583015298"><ele>1170.0</ele><time>2026-04-23T09:50:11Z</time></trkpt><trkpt lat="42.40573444297608" lon="13.406645090427327"><ele>1170.0</ele><time>2026-04-23T09:50:12Z</time></trkpt><trkpt lat="42.405642176788696" lon="13.40662888588859"><ele>1170.0</ele><time>2026-04-23T09:50:13Z</time></trkpt><trkpt lat="42.40554992744432" lon="13.406583064705558"><ele>1167.2</ele><time>2026-04-23T09:50:14Z</time></trkpt><trkpt lat="42.40544539455039" lon="13.406515188309761"><ele>1164.4</ele><time>2026-04-23T09:50:15Z</time></trkpt><trkpt lat="42.40534997675604" lon="13.406440926731975"><ele>1161.6</ele><time>2026-04-23T09:50:16Z</time></trkpt><trkpt lat="42.40526115195563" lon="13.40636478095693"><ele>1158.8</ele><time>2026-04-23T09:50:17Z</time></trkpt><trkpt lat="42.40518059802862" lon="13.406317562588905"><ele>1156.0</ele><time>2026-04-23T09:50:18Z</time></trkpt><trkpt lat="42.40510656389439" lon="13.406291849084912"><ele>1156.0</ele><time>2026-04-23T09:50:19Z</time></trkpt><trkpt lat="42.40503151796874" lon="13.40627676442052"><ele>1156.0</ele><time>2026-04-23T09:50:20Z</time></trkpt><trkpt lat="42.404925649634976" lon="13.406303384219262"><ele>1156.0</ele><time>2026-04-23T09:50:22Z</time></trkpt><trkpt lat="42.404839277487994" lon="13.406374368419659"><ele>1156.0</ele><time>2026-04-23T09:50:24Z</time></trkpt><trkpt lat="42.40476560239467" lon="13.406500511050314"><ele>1156.0</ele><time>2026-04-23T09:50:26Z</time></trkpt><trkpt lat="42.40473297000373" lon="13.406577762029265"><ele>1156.0</ele><time>2026-04-23T09:50:27Z</time></trkpt><trkpt lat="42.40470046982301" lon="13.406661715889582"><ele>1156.0</ele><time>2026-04-23T09:50:28Z</time></trkpt><trkpt lat="42.40467983289557" lon="13.406753314767013"><ele>1156.0</ele><time>2026-04-23T09:50:29Z</time></trkpt><trkpt lat="42.40467830284436" lon="13.406840411939651"><ele>1156.0</ele><time>2026-04-23T09:50:30Z</time></trkpt><trkpt lat="42.40471352364072" lon="13.407007857120373"><ele>1156.0</ele><time>2026-04-23T09:50:32Z</time></trkpt><trkpt lat="42.40474971990106" lon="13.40708280663002"><ele>1156.0</ele><time>2026-04-23T09:50:33Z</time></trkpt><trkpt lat="42.40479401215276" lon="13.407153973113918"><ele>1153.8</ele><time>2026-04-23T09:50:34Z</time></trkpt><trkpt lat="42.40485363591902" lon="13.407231486372414"><ele>1151.6</ele><time>2026-04-23T09:50:35Z</time></trkpt><trkpt lat="42.40492389890506" lon="13.407330506496805"><ele>1149.4</ele><time>2026-04-23T09:50:36Z</time></trkpt><trkpt lat="42.40499403470853" lon="13.40742560692795"><ele>1147.2</ele><time>2026-04-23T09:50:37Z</time></trkpt><trkpt lat="42.405034487142636" lon="13.407514533958597"><ele>1145.0</ele><time>2026-04-23T09:50:38Z</time></trkpt><trkpt lat="42.40504162700682" lon="13.407641450413866"><ele>1145.0</ele><time>2026-04-23T09:50:39Z</time></trkpt><trkpt lat="42.405044899864" lon="13.407771258913803"><ele>1145.0</ele><time>2026-04-23T09:50:40Z</time></trkpt><trkpt lat="42.4050350737452" lon="13.407890613807371"><ele>1145.0</ele><time>2026-04-23T09:50:41Z</time></trkpt><trkpt lat="42.404994370021626" lon="13.407978706655141"><ele>1145.0</ele><time>2026-04-23T09:50:42Z</time></trkpt><trkpt lat="42.40491997399547" lon="13.408052800465988"><ele>1145.0</ele><time>2026-04-23T09:50:43Z</time></trkpt><trkpt lat="42.404826277075486" lon="13.408111233613827"><ele>1144.6666666666667</ele><time>2026-04-23T09:50:44Z</time></trkpt><trkpt lat="42.40474965834018" lon="13.408153741502595"><ele>1144.3333333333335</ele><time>2026-04-23T09:50:45Z</time></trkpt><trkpt lat="42.40467162492106" lon="13.40819842636101"><ele>1144.0</ele><time>2026-04-23T09:50:46Z</time></trkpt><trkpt lat="42.40460803236084" lon="13.408214501813779"><ele>1143.6666666666667</ele><time>2026-04-23T09:50:47Z</time></trkpt><trkpt lat="42.404579500353265" lon="13.408309742786303"><ele>1143.3333333333333</ele><time>2026-04-23T09:50:48Z</time></trkpt><trkpt lat="42.404564303293895" lon="13.408397654994895"><ele>1143.0</ele><time>2026-04-23T09:50:49Z</time></trkpt><trkpt lat="42.40456611908378" lon="13.408506227105368"><ele>1139.25</ele><time>2026-04-23T09:50:50Z</time></trkpt><trkpt lat="42.40455971963702" lon="13.408644688685422"><ele>1135.5</ele><time>2026-04-23T09:50:51Z</time></trkpt><trkpt lat="42.40451500919352" lon="13.408801282923614"><ele>1131.75</ele><time>2026-04-23T09:50:52Z</time></trkpt><trkpt lat="42.404445429780694" lon="13.40894579814361"><ele>1128.0</ele><time>2026-04-23T09:50:53Z</time></trkpt><trkpt lat="42.404357259037255" lon="13.409091997468282"><ele>1128.0</ele><time>2026-04-23T09:50:54Z</time></trkpt><trkpt lat="42.40424957681362" lon="13.409220085775724"><ele>1128.0</ele><time>2026-04-23T09:50:55Z</time></trkpt><trkpt lat="42.40413103432726" lon="13.409336023428137"><ele>1128.0</ele><time>2026-04-23T09:50:56Z</time></trkpt><trkpt lat="42.40401617258713" lon="13.40944039922653"><ele>1128.0</ele><time>2026-04-23T09:50:57Z</time></trkpt><trkpt lat="42.40390263566278" lon="13.409533490376875"><ele>1125.25</ele><time>2026-04-23T09:50:58Z</time></trkpt><trkpt lat="42.40379014306719" lon="13.409623790986345"><ele>1122.5</ele><time>2026-04-23T09:50:59Z</time></trkpt><trkpt lat="42.403669583827146" lon="13.409700264885371"><ele>1119.75</ele><time>2026-04-23T09:50:59.999Z</time></trkpt><trkpt lat="42.40353358463137" lon="13.409781477236127"><ele>1117.0</ele><time>2026-04-23T09:51:00.999Z</time></trkpt><trkpt lat="42.40339935572465" lon="13.409871387263408"><ele>1117.0</ele><time>2026-04-23T09:51:01.999Z</time></trkpt><trkpt lat="42.403264329681576" lon="13.409985535139631"><ele>1117.0</ele><time>2026-04-23T09:51:02.999Z</time></trkpt><trkpt lat="42.40313467350767" lon="13.410095272346734"><ele>1117.0</ele><time>2026-04-23T09:51:03.999Z</time></trkpt><trkpt lat="42.40302315194156" lon="13.410187534052769"><ele>1117.0</ele><time>2026-04-23T09:51:04.999Z</time></trkpt><trkpt lat="42.40293792509827" lon="13.410276665851212"><ele>1114.75</ele><time>2026-04-23T09:51:05.999Z</time></trkpt><trkpt lat="42.40286553942243" lon="13.410382760708893"><ele>1112.5</ele><time>2026-04-23T09:51:06.999Z</time></trkpt><trkpt lat="42.40282154090934" lon="13.410503258247326"><ele>1110.25</ele><time>2026-04-23T09:51:07.999Z</time></trkpt><trkpt lat="42.40278475223622" lon="13.410652990319381"><ele>1108.0</ele><time>2026-04-23T09:51:08.999Z</time></trkpt><trkpt lat="42.40275359377347" lon="13.410838251138962"><ele>1108.0</ele><time>2026-04-23T09:51:09.999Z</time></trkpt><trkpt lat="42.40272441467799" lon="13.41099823737121"><ele>1108.0</ele><time>2026-04-23T09:51:10.999Z</time></trkpt><trkpt lat="42.402671755438554" lon="13.411131614305809"><ele>1108.0</ele><time>2026-04-23T09:51:11.999Z</time></trkpt><trkpt lat="42.402592570102094" lon="13.411231653248851"><ele>1108.0</ele><time>2026-04-23T09:51:12.999Z</time></trkpt><trkpt lat="42.40248853490037" lon="13.411310223347625"><ele>1108.5</ele><time>2026-04-23T09:51:13.999Z</time></trkpt><trkpt lat="42.40235459217443" lon="13.411382279860604"><ele>1109.0</ele><time>2026-04-23T09:51:14.999Z</time></trkpt><trkpt lat="42.40221721490424" lon="13.411453249327083"><ele>1109.5</ele><time>2026-04-23T09:51:15.999Z</time></trkpt><trkpt lat="42.40210082602708" lon="13.411526780864627"><ele>1110.0</ele><time>2026-04-23T09:51:16.999Z</time></trkpt><trkpt lat="42.40199975868899" lon="13.41159919158435"><ele>1109.0</ele><time>2026-04-23T09:51:17.999Z</time></trkpt><trkpt lat="42.40190678122094" lon="13.411651469538763"><ele>1108.0</ele><time>2026-04-23T09:51:18.999Z</time></trkpt><trkpt lat="42.401826644936314" lon="13.411710977741707"><ele>1107.0</ele><time>2026-04-23T09:51:19.999Z</time></trkpt><trkpt lat="42.40175512126589" lon="13.411768778328458"><ele>1106.0</ele><time>2026-04-23T09:51:20.999Z</time></trkpt><trkpt lat="42.401695340377195" lon="13.411823514171815"><ele>1105.0</ele><time>2026-04-23T09:51:21.999Z</time></trkpt><trkpt lat="42.40164621370274" lon="13.411885841546251"><ele>1104.0</ele><time>2026-04-23T09:51:22.999Z</time></trkpt><trkpt lat="42.401569217150694" lon="13.41199921768973"><ele>1104.0</ele><time>2026-04-23T09:51:24.999Z</time></trkpt><trkpt lat="42.40149020769175" lon="13.412135505352818"><ele>1104.0</ele><time>2026-04-23T09:51:26.999Z</time></trkpt><trkpt lat="42.40144283425515" lon="13.412234016460102"><ele>1104.0</ele><time>2026-04-23T09:51:27.999Z</time></trkpt><trkpt lat="42.401390908758714" lon="13.412349477865007"><ele>1104.0</ele><time>2026-04-23T09:51:29Z</time></trkpt><trkpt lat="42.40133006200317" lon="13.412482608894214"><ele>1104.0</ele><time>2026-04-23T09:51:30Z</time></trkpt><trkpt lat="42.401274527338956" lon="13.412617680938872"><ele>1104.2</ele><time>2026-04-23T09:51:31Z</time></trkpt><trkpt lat="42.40122970610664" lon="13.412732118073672"><ele>1104.4</ele><time>2026-04-23T09:51:32Z</time></trkpt><trkpt lat="42.401205609020884" lon="13.41283987660379"><ele>1104.6</ele><time>2026-04-23T09:51:33Z</time></trkpt><trkpt lat="42.401211701839486" lon="13.412960167284988"><ele>1104.8</ele><time>2026-04-23T09:51:34Z</time></trkpt><trkpt lat="42.4012338734618" lon="13.413120259199308"><ele>1105.0</ele><time>2026-04-23T09:51:35Z</time></trkpt><trkpt lat="42.401308500225745" lon="13.413443286866139"><ele>1104.8</ele><time>2026-04-23T09:51:37Z</time></trkpt><trkpt lat="42.40133927136506" lon="13.413586423138947"><ele>1104.6</ele><time>2026-04-23T09:51:38Z</time></trkpt><trkpt lat="42.40135433793576" lon="13.41373321863978"><ele>1104.4</ele><time>2026-04-23T09:51:39Z</time></trkpt><trkpt lat="42.40135802989129" lon="13.41388354343136"><ele>1104.2</ele><time>2026-04-23T09:51:40Z</time></trkpt><trkpt lat="42.40134658191881" lon="13.41404026737484"><ele>1104.0</ele><time>2026-04-23T09:51:41Z</time></trkpt><trkpt lat="42.40132183485146" lon="13.414213075161978"><ele>1102.0</ele><time>2026-04-23T09:51:42Z</time></trkpt><trkpt lat="42.4012915830196" lon="13.414377308063719"><ele>1100.0</ele><time>2026-04-23T09:51:43Z</time></trkpt><trkpt lat="42.40125919860807" lon="13.414538864786826"><ele>1098.0</ele><time>2026-04-23T09:51:44Z</time></trkpt><trkpt lat="42.401218922294575" lon="13.41468419822895"><ele>1096.0</ele><time>2026-04-23T09:51:45Z</time></trkpt><trkpt lat="42.40116275151449" lon="13.414800682514846"><ele>1093.8</ele><time>2026-04-23T09:51:46Z</time></trkpt><trkpt lat="42.40107290728023" lon="13.414881048858284"><ele>1091.6</ele><time>2026-04-23T09:51:47Z</time></trkpt><trkpt lat="42.400977282918205" lon="13.414949090583653"><ele>1089.4</ele><time>2026-04-23T09:51:48Z</time></trkpt><trkpt lat="42.40089834979577" lon="13.415032832329643"><ele>1087.2</ele><time>2026-04-23T09:51:49Z</time></trkpt><trkpt lat="42.400836628632874" lon="13.415111873771744"><ele>1085.0</ele><time>2026-04-23T09:51:50Z</time></trkpt><trkpt lat="42.400787263829386" lon="13.415178300070307"><ele>1085.0</ele><time>2026-04-23T09:51:51Z</time></trkpt><trkpt lat="42.400736973637976" lon="13.415268266136652"><ele>1085.0</ele><time>2026-04-23T09:51:53Z</time></trkpt><trkpt lat="42.40077481942752" lon="13.415367522947607"><ele>1085.0</ele><time>2026-04-23T09:51:55Z</time></trkpt><trkpt lat="42.40086272676501" lon="13.415423052461463"><ele>1085.0</ele><time>2026-04-23T09:51:56Z</time></trkpt><trkpt lat="42.400937330394136" lon="13.415473549456433"><ele>1085.0</ele><time>2026-04-23T09:51:57Z</time></trkpt><trkpt lat="42.40101930215347" lon="13.41553316519596"><ele>1085.0</ele><time>2026-04-23T09:51:58Z</time></trkpt><trkpt lat="42.40110912900646" lon="13.415611013546393"><ele>1083.2</ele><time>2026-04-23T09:51:59Z</time></trkpt><trkpt lat="42.401181380010144" lon="13.415714939810757"><ele>1081.4</ele><time>2026-04-23T09:52:00Z</time></trkpt><trkpt lat="42.40122244115246" lon="13.415833905408425"><ele>1079.6</ele><time>2026-04-23T09:52:01Z</time></trkpt><trkpt lat="42.401223252569245" lon="13.415969658470896"><ele>1077.8</ele><time>2026-04-23T09:52:02Z</time></trkpt><trkpt lat="42.40119102823052" lon="13.416124248810048"><ele>1076.0</ele><time>2026-04-23T09:52:03Z</time></trkpt><trkpt lat="42.40113539263328" lon="13.416310329741911"><ele>1074.0</ele><time>2026-04-23T09:52:04Z</time></trkpt><trkpt lat="42.40107485435873" lon="13.416517949552988"><ele>1072.0</ele><time>2026-04-23T09:52:05Z</time></trkpt><trkpt lat="42.401015261307116" lon="13.416741547802848"><ele>1070.0</ele><time>2026-04-23T09:52:06Z</time></trkpt><trkpt lat="42.4009575472988" lon="13.416979596946867"><ele>1068.6666666666667</ele><time>2026-04-23T09:52:07Z</time></trkpt><trkpt lat="42.4008964124877" lon="13.417229064642667"><ele>1067.3333333333333</ele><time>2026-04-23T09:52:08Z</time></trkpt><trkpt lat="42.40083878598684" lon="13.417481016907942"><ele>1066.0</ele><time>2026-04-23T09:52:09Z</time></trkpt><trkpt lat="42.40077930952475" lon="13.41773839008937"><ele>1065.0</ele><time>2026-04-23T09:52:10Z</time></trkpt><trkpt lat="42.40071661654" lon="13.418013338323693"><ele>1064.0</ele><time>2026-04-23T09:52:11Z</time></trkpt><trkpt lat="42.400648948366005" lon="13.41829836146814"><ele>1063.0</ele><time>2026-04-23T09:52:12Z</time></trkpt><trkpt lat="42.400578272846936" lon="13.418586699070525"><ele>1062.0</ele><time>2026-04-23T09:52:13Z</time></trkpt><trkpt lat="42.40050843064518" lon="13.418879528825958"><ele>1061.0</ele><time>2026-04-23T09:52:14Z</time></trkpt><trkpt lat="42.400440083187156" lon="13.419179209816193"><ele>1058.5</ele><time>2026-04-23T09:52:15Z</time></trkpt><trkpt lat="42.4003726200894" lon="13.419482567041914"><ele>1056.0</ele><time>2026-04-23T09:52:16Z</time></trkpt><trkpt lat="42.400302830828544" lon="13.419790259794809"><ele>1052.0</ele><time>2026-04-23T09:52:17Z</time></trkpt><trkpt lat="42.40022851223" lon="13.420102448855921"><ele>1048.0</ele><time>2026-04-23T09:52:18Z</time></trkpt><trkpt lat="42.40015225848484" lon="13.420420083725611"><ele>1046.0</ele><time>2026-04-23T09:52:19Z</time></trkpt><trkpt lat="42.40007656324678" lon="13.420737458228988"><ele>1044.0</ele><time>2026-04-23T09:52:20Z</time></trkpt><trkpt lat="42.39999785838565" lon="13.421058235651792"><ele>1043.0</ele><time>2026-04-23T09:52:21Z</time></trkpt><trkpt lat="42.39991440372263" lon="13.421379066362942"><ele>1042.0</ele><time>2026-04-23T09:52:22Z</time></trkpt><trkpt lat="42.39982221744205" lon="13.421695032798205"><ele>1042.0</ele><time>2026-04-23T09:52:23Z</time></trkpt><trkpt lat="42.39972305571533" lon="13.422007658661625"><ele>1042.0</ele><time>2026-04-23T09:52:24Z</time></trkpt><trkpt lat="42.399613770494405" lon="13.422316136489274"><ele>1037.0</ele><time>2026-04-23T09:52:25Z</time></trkpt><trkpt lat="42.39950227544978" lon="13.422619950825625"><ele>1032.0</ele><time>2026-04-23T09:52:26Z</time></trkpt><trkpt lat="42.39939308081874" lon="13.422922673854508"><ele>1032.5</ele><time>2026-04-23T09:52:27Z</time></trkpt><trkpt lat="42.39928867740099" lon="13.423218585296837"><ele>1033.0</ele><time>2026-04-23T09:52:28Z</time></trkpt><trkpt lat="42.39918888852041" lon="13.423491468002085"><ele>1033.0</ele><time>2026-04-23T09:52:29Z</time></trkpt><trkpt lat="42.39909253084388" lon="13.423749827865022"><ele>1033.0</ele><time>2026-04-23T09:52:30Z</time></trkpt><trkpt lat="42.399009437173405" lon="13.424001774752087"><ele>1033.0</ele><time>2026-04-23T09:52:31Z</time></trkpt><trkpt lat="42.398945948769445" lon="13.424267203452004"><ele>1034.6666666666665</ele><time>2026-04-23T09:52:32Z</time></trkpt><trkpt lat="42.39890790413937" lon="13.424546712350057"><ele>1036.3333333333333</ele><time>2026-04-23T09:52:33Z</time></trkpt><trkpt lat="42.39888696763368" lon="13.424841210625317"><ele>1038.0</ele><time>2026-04-23T09:52:34Z</time></trkpt><trkpt lat="42.39886126081852" lon="13.42514514438631"><ele>1032.5</ele><time>2026-04-23T09:52:35Z</time></trkpt><trkpt lat="42.39882742490433" lon="13.425447647794629"><ele>1027.0</ele><time>2026-04-23T09:52:36Z</time></trkpt><trkpt lat="42.398788285611396" lon="13.425751631693036"><ele>1027.0</ele><time>2026-04-23T09:52:37Z</time></trkpt><trkpt lat="42.398738744167645" lon="13.426059432769192"><ele>1027.0</ele><time>2026-04-23T09:52:38Z</time></trkpt><trkpt lat="42.398686677329344" lon="13.426362097853685"><ele>1027.3333333333333</ele><time>2026-04-23T09:52:39Z</time></trkpt><trkpt lat="42.39864229480141" lon="13.426655254787839"><ele>1027.6666666666667</ele><time>2026-04-23T09:52:40Z</time></trkpt><trkpt lat="42.39861374212355" lon="13.426944206573186"><ele>1028.0</ele><time>2026-04-23T09:52:41Z</time></trkpt><trkpt lat="42.39860359796278" lon="13.427240583516555"><ele>1028.0</ele><time>2026-04-23T09:52:42Z</time></trkpt><trkpt lat="42.39861344233515" lon="13.427541567925761"><ele>1028.0</ele><time>2026-04-23T09:52:43Z</time></trkpt><trkpt lat="42.398637530347244" lon="13.42784708107636"><ele>1028.0</ele><time>2026-04-23T09:52:44Z</time></trkpt><trkpt lat="42.39865691126044" lon="13.428137501888527"><ele>1027.3333333333335</ele><time>2026-04-23T09:52:45Z</time></trkpt><trkpt lat="42.398653343632006" lon="13.428416319221915"><ele>1026.6666666666667</ele><time>2026-04-23T09:52:46Z</time></trkpt><trkpt lat="42.398607592550974" lon="13.428689049961903"><ele>1026.0</ele><time>2026-04-23T09:52:47Z</time></trkpt><trkpt lat="42.39852869473864" lon="13.428959601286138"><ele>1026.0</ele><time>2026-04-23T09:52:48Z</time></trkpt><trkpt lat="42.39842493687574" lon="13.42922561911271"><ele>1026.0</ele><time>2026-04-23T09:52:49Z</time></trkpt><trkpt lat="42.39834211534638" lon="13.429485727349068"><ele>1026.0</ele><time>2026-04-23T09:52:50Z</time></trkpt><trkpt lat="42.39828345830888" lon="13.42973070963008"><ele>1026.6666666666667</ele><time>2026-04-23T09:52:51Z</time></trkpt><trkpt lat="42.398252241600105" lon="13.429964086303475"><ele>1027.3333333333335</ele><time>2026-04-23T09:52:52Z</time></trkpt><trkpt lat="42.39824781330471" lon="13.430192272467728"><ele>1028.0</ele><time>2026-04-23T09:52:53Z</time></trkpt><trkpt lat="42.398294531383804" lon="13.430424217201496"><ele>1026.6666666666667</ele><time>2026-04-23T09:52:54Z</time></trkpt><trkpt lat="42.39836384440674" lon="13.430677509657842"><ele>1025.3333333333333</ele><time>2026-04-23T09:52:55Z</time></trkpt><trkpt lat="42.398425183791446" lon="13.430927672528375"><ele>1024.0</ele><time>2026-04-23T09:52:56Z</time></trkpt><trkpt lat="42.39847933150828" lon="13.43117606442358"><ele>1023.6666666666666</ele><time>2026-04-23T09:52:57Z</time></trkpt><trkpt lat="42.39851374386127" lon="13.431418741609509"><ele>1023.3333333333333</ele><time>2026-04-23T09:52:58Z</time></trkpt><trkpt lat="42.398519555787615" lon="13.431671189107513"><ele>1023.0</ele><time>2026-04-23T09:52:59Z</time></trkpt><trkpt lat="42.398485976833335" lon="13.431920160902273"><ele>1023.6666666666667</ele><time>2026-04-23T09:53:00Z</time></trkpt><trkpt lat="42.398415917560534" lon="13.43215502227862"><ele>1024.3333333333335</ele><time>2026-04-23T09:53:00.999Z</time></trkpt><trkpt lat="42.39831036903958" lon="13.432388580280934"><ele>1025.0</ele><time>2026-04-23T09:53:01.999Z</time></trkpt><trkpt lat="42.39820356529372" lon="13.432631120266871"><ele>1025.0</ele><time>2026-04-23T09:53:02.999Z</time></trkpt><trkpt lat="42.398103397924224" lon="13.432887397492193"><ele>1025.0</ele><time>2026-04-23T09:53:03.999Z</time></trkpt><trkpt lat="42.398006738163474" lon="13.433153323189263"><ele>1025.0</ele><time>2026-04-23T09:53:04.999Z</time></trkpt><trkpt lat="42.3979156011822" lon="13.433421772746057"><ele>1020.3333333333334</ele><time>2026-04-23T09:53:05.999Z</time></trkpt><trkpt lat="42.39782950086551" lon="13.433684120713071"><ele>1015.6666666666667</ele><time>2026-04-23T09:53:06.999Z</time></trkpt><trkpt lat="42.39774220944051" lon="13.433939696278454"><ele>1011.0</ele><time>2026-04-23T09:53:07.999Z</time></trkpt><trkpt lat="42.39766980309772" lon="13.434174487820258"><ele>1010.6666666666667</ele><time>2026-04-23T09:53:08.999Z</time></trkpt><trkpt lat="42.39761784742138" lon="13.434388502207986"><ele>1010.3333333333334</ele><time>2026-04-23T09:53:09.999Z</time></trkpt><trkpt lat="42.39759302779971" lon="13.434586359759573"><ele>1010.0</ele><time>2026-04-23T09:53:10.999Z</time></trkpt><trkpt lat="42.39761535668841" lon="13.434775367793009"><ele>1010.0</ele><time>2026-04-23T09:53:11.999Z</time></trkpt><trkpt lat="42.39767674166145" lon="13.43496380251997"><ele>1010.0</ele><time>2026-04-23T09:53:12.999Z</time></trkpt><trkpt lat="42.39776413877534" lon="13.43514899883425"><ele>1010.0</ele><time>2026-04-23T09:53:13.999Z</time></trkpt><trkpt lat="42.39786365061527" lon="13.43534557018532"><ele>1008.6666666666667</ele><time>2026-04-23T09:53:14.999Z</time></trkpt><trkpt lat="42.39796198241834" lon="13.43554902183785"><ele>1007.3333333333333</ele><time>2026-04-23T09:53:15.999Z</time></trkpt><trkpt lat="42.39805879927736" lon="13.435754985858612"><ele>1006.0</ele><time>2026-04-23T09:53:16.999Z</time></trkpt><trkpt lat="42.398152032931044" lon="13.435951134151319"><ele>1004.6666666666666</ele><time>2026-04-23T09:53:17.999Z</time></trkpt><trkpt lat="42.398230735555046" lon="13.436145612942802"><ele>1003.3333333333333</ele><time>2026-04-23T09:53:18.999Z</time></trkpt><trkpt lat="42.39829366377359" lon="13.436341815166054"><ele>1002.0</ele><time>2026-04-23T09:53:19.999Z</time></trkpt><trkpt lat="42.39833392700816" lon="13.436546464432105"><ele>1000.3333333333333</ele><time>2026-04-23T09:53:20.999Z</time></trkpt><trkpt lat="42.39833388954812" lon="13.436759806792264"><ele>998.6666666666666</ele><time>2026-04-23T09:53:21.999Z</time></trkpt><trkpt lat="42.39829336832881" lon="13.436986014060485"><ele>997.0</ele><time>2026-04-23T09:53:22.999Z</time></trkpt><trkpt lat="42.39823586506744" lon="13.43721700970858"><ele>997.0</ele><time>2026-04-23T09:53:23.999Z</time></trkpt><trkpt lat="42.398180968345685" lon="13.437453691487491"><ele>997.0</ele><time>2026-04-23T09:53:24.999Z</time></trkpt><trkpt lat="42.39812727497492" lon="13.437708673161051"><ele>997.0</ele><time>2026-04-23T09:53:25.999Z</time></trkpt><trkpt lat="42.39807705672114" lon="13.437971749980402"><ele>997.0</ele><time>2026-04-23T09:53:26.999Z</time></trkpt><trkpt lat="42.39802261521112" lon="13.43824764643445"><ele>997.0</ele><time>2026-04-23T09:53:27.999Z</time></trkpt><trkpt lat="42.3979676231709" lon="13.438520291134003"><ele>997.0</ele><time>2026-04-23T09:53:28.999Z</time></trkpt><trkpt lat="42.397908225373094" lon="13.43877172806403"><ele>994.0</ele><time>2026-04-23T09:53:29.999Z</time></trkpt><trkpt lat="42.397831181651846" lon="13.43900464311511"><ele>991.0</ele><time>2026-04-23T09:53:30.999Z</time></trkpt><trkpt lat="42.39773438457421" lon="13.439223585298805"><ele>988.0</ele><time>2026-04-23T09:53:31.999Z</time></trkpt><trkpt lat="42.397615780574846" lon="13.439431096254266"><ele>988.0</ele><time>2026-04-23T09:53:32.999Z</time></trkpt><trkpt lat="42.39748387332165" lon="13.439626152879715"><ele>988.0</ele><time>2026-04-23T09:53:33.999Z</time></trkpt><trkpt lat="42.39733369780619" lon="13.43982239844462"><ele>988.0</ele><time>2026-04-23T09:53:35Z</time></trkpt><trkpt lat="42.3971744118686" lon="13.4400202725594"><ele>988.0</ele><time>2026-04-23T09:53:36Z</time></trkpt><trkpt lat="42.39700890968674" lon="13.440218589222129"><ele>988.0</ele><time>2026-04-23T09:53:37Z</time></trkpt><trkpt lat="42.39683295085045" lon="13.440408654612645"><ele>988.0</ele><time>2026-04-23T09:53:38Z</time></trkpt><trkpt lat="42.39665071305983" lon="13.440579834021696"><ele>988.3333333333333</ele><time>2026-04-23T09:53:39Z</time></trkpt><trkpt lat="42.39646466841893" lon="13.44073097905227"><ele>988.6666666666667</ele><time>2026-04-23T09:53:40Z</time></trkpt><trkpt lat="42.39628516380355" lon="13.44088100410907"><ele>989.0</ele><time>2026-04-23T09:53:41Z</time></trkpt><trkpt lat="42.396116683552385" lon="13.441034395254643"><ele>989.0</ele><time>2026-04-23T09:53:42Z</time></trkpt><trkpt lat="42.39596333267144" lon="13.441184083669011"><ele>989.0</ele><time>2026-04-23T09:53:43Z</time></trkpt><trkpt lat="42.39583958704175" lon="13.441322612743749"><ele>989.0</ele><time>2026-04-23T09:53:44Z</time></trkpt><trkpt lat="42.395758280784314" lon="13.44147203020965"><ele>992.3333333333334</ele><time>2026-04-23T09:53:45Z</time></trkpt><trkpt lat="42.395711283104056" lon="13.441652471485922"><ele>995.6666666666667</ele><time>2026-04-23T09:53:46Z</time></trkpt><trkpt lat="42.39569059668518" lon="13.441856086195456"><ele>999.0</ele><time>2026-04-23T09:53:47Z</time></trkpt><trkpt lat="42.395684825462816" lon="13.442090165299708"><ele>998.6666666666667</ele><time>2026-04-23T09:53:48Z</time></trkpt><trkpt lat="42.39567334753687" lon="13.442348470443978"><ele>998.3333333333334</ele><time>2026-04-23T09:53:49Z</time></trkpt><trkpt lat="42.39565156579073" lon="13.442608682267535"><ele>998.0</ele><time>2026-04-23T09:53:50Z</time></trkpt><trkpt lat="42.39562639170603" lon="13.442869738150584"><ele>996.6666666666667</ele><time>2026-04-23T09:53:51Z</time></trkpt><trkpt lat="42.395619350226774" lon="13.443131179356056"><ele>995.3333333333333</ele><time>2026-04-23T09:53:52Z</time></trkpt><trkpt lat="42.395646665809146" lon="13.443398443477827"><ele>994.0</ele><time>2026-04-23T09:53:53Z</time></trkpt><trkpt lat="42.39568359670406" lon="13.443651772263609"><ele>994.75</ele><time>2026-04-23T09:53:54Z</time></trkpt><trkpt lat="42.395699610637415" lon="13.443875179182006"><ele>995.5</ele><time>2026-04-23T09:53:55Z</time></trkpt><trkpt lat="42.39567642645167" lon="13.444055491065896"><ele>996.25</ele><time>2026-04-23T09:53:56Z</time></trkpt><trkpt lat="42.39562064466555" lon="13.44422467421093"><ele>997.0</ele><time>2026-04-23T09:53:57Z</time></trkpt><trkpt lat="42.395534290779125" lon="13.444360501718714"><ele>995.0</ele><time>2026-04-23T09:53:58Z</time></trkpt><trkpt lat="42.395458516418955" lon="13.444493427130425"><ele>993.0</ele><time>2026-04-23T09:53:59Z</time></trkpt><trkpt lat="42.39541612792085" lon="13.444666848328811"><ele>991.0</ele><time>2026-04-23T09:54:00Z</time></trkpt><trkpt lat="42.395395839762536" lon="13.444878025873429"><ele>989.0</ele><time>2026-04-23T09:54:01Z</time></trkpt><trkpt lat="42.395390394162725" lon="13.445113991635813"><ele>988.6666666666667</ele><time>2026-04-23T09:54:02Z</time></trkpt><trkpt lat="42.39539569068329" lon="13.445363503115036"><ele>988.3333333333333</ele><time>2026-04-23T09:54:03Z</time></trkpt><trkpt lat="42.39543351985803" lon="13.445604736542771"><ele>988.0</ele><time>2026-04-23T09:54:04Z</time></trkpt><trkpt lat="42.39551831891128" lon="13.445852859680516"><ele>988.3333333333333</ele><time>2026-04-23T09:54:05Z</time></trkpt><trkpt lat="42.39562413955765" lon="13.446101057081215"><ele>988.6666666666667</ele><time>2026-04-23T09:54:06Z</time></trkpt><trkpt lat="42.395728309577734" lon="13.446350425286267"><ele>989.0</ele><time>2026-04-23T09:54:07Z</time></trkpt><trkpt lat="42.39576434103211" lon="13.446623566168748"><ele>989.0</ele><time>2026-04-23T09:54:08Z</time></trkpt><trkpt lat="42.39584672787549" lon="13.44689694194245"><ele>989.0</ele><time>2026-04-23T09:54:09Z</time></trkpt><trkpt lat="42.39592280865308" lon="13.447167026590098"><ele>989.0</ele><time>2026-04-23T09:54:10Z</time></trkpt><trkpt lat="42.39599568895576" lon="13.447442113639893"><ele>988.0</ele><time>2026-04-23T09:54:11Z</time></trkpt><trkpt lat="42.3960730422467" lon="13.447714977931154"><ele>987.0</ele><time>2026-04-23T09:54:12Z</time></trkpt><trkpt lat="42.3961406664351" lon="13.44798959157414"><ele>986.0</ele><time>2026-04-23T09:54:13Z</time></trkpt><trkpt lat="42.39618669457606" lon="13.448271091765358"><ele>985.6666666666667</ele><time>2026-04-23T09:54:14Z</time></trkpt><trkpt lat="42.39620177591009" lon="13.448556334438692"><ele>985.3333333333333</ele><time>2026-04-23T09:54:15Z</time></trkpt><trkpt lat="42.39619509742186" lon="13.448842505951248"><ele>985.0</ele><time>2026-04-23T09:54:16Z</time></trkpt><trkpt lat="42.39617658272704" lon="13.449129609683727"><ele>985.6666666666666</ele><time>2026-04-23T09:54:17Z</time></trkpt><trkpt lat="42.39615232110012" lon="13.449406198952017"><ele>986.3333333333333</ele><time>2026-04-23T09:54:18Z</time></trkpt><trkpt lat="42.396126926412904" lon="13.449677320364096"><ele>987.0</ele><time>2026-04-23T09:54:19Z</time></trkpt><trkpt lat="42.396118201021395" lon="13.4499519795831"><ele>987.6666666666667</ele><time>2026-04-23T09:54:20Z</time></trkpt><trkpt lat="42.39612071975989" lon="13.450229569597141"><ele>988.3333333333334</ele><time>2026-04-23T09:54:21Z</time></trkpt><trkpt lat="42.39612660621908" lon="13.4505044353444"><ele>989.0</ele><time>2026-04-23T09:54:22Z</time></trkpt><trkpt lat="42.39612208940904" lon="13.450772988668868"><ele>990.0</ele><time>2026-04-23T09:54:23Z</time></trkpt><trkpt lat="42.396097220926265" lon="13.451018397327854"><ele>991.0</ele><time>2026-04-23T09:54:24Z</time></trkpt><trkpt lat="42.39605556116591" lon="13.45120538602837"><ele>992.0</ele><time>2026-04-23T09:54:25Z</time></trkpt><trkpt lat="42.396007241815894" lon="13.451326185104614"><ele>993.0</ele><time>2026-04-23T09:54:26Z</time></trkpt><trkpt lat="42.39592648477754" lon="13.451364225870178"><ele>993.0</ele><time>2026-04-23T09:54:28Z</time></trkpt><trkpt lat="42.39589769378188" lon="13.45121818305694"><ele>993.0</ele><time>2026-04-23T09:54:30Z</time></trkpt><trkpt lat="42.3959158729686" lon="13.450874915012832"><ele>993.0</ele><time>2026-04-23T09:54:33Z</time></trkpt><trkpt lat="42.39591332503169" lon="13.450722988008858"><ele>993.0</ele><time>2026-04-23T09:54:34Z</time></trkpt><trkpt lat="42.39590640121648" lon="13.450570540697678"><ele>993.0</ele><time>2026-04-23T09:54:35Z</time></trkpt><trkpt lat="42.39588818047072" lon="13.450424542269369"><ele>993.0</ele><time>2026-04-23T09:54:36Z</time></trkpt><trkpt lat="42.395862412084554" lon="13.4502794151172"><ele>993.0</ele><time>2026-04-23T09:54:37Z</time></trkpt><trkpt lat="42.3958327365515" lon="13.450147328570996"><ele>993.0</ele><time>2026-04-23T09:54:38Z</time></trkpt><trkpt lat="42.39581122254669" lon="13.450032959606308"><ele>992.3333333333334</ele><time>2026-04-23T09:54:39Z</time></trkpt><trkpt lat="42.39577901635502" lon="13.449939576371822"><ele>991.6666666666667</ele><time>2026-04-23T09:54:40Z</time></trkpt><trkpt lat="42.395727055989205" lon="13.449866278758414"><ele>991.0</ele><time>2026-04-23T09:54:41Z</time></trkpt><trkpt lat="42.395658520562954" lon="13.4498114507026"><ele>990.3333333333334</ele><time>2026-04-23T09:54:42Z</time></trkpt><trkpt lat="42.39557590874403" lon="13.449762734026345"><ele>989.6666666666667</ele><time>2026-04-23T09:54:43Z</time></trkpt><trkpt lat="42.395483163547674" lon="13.449705023584805"><ele>989.0</ele><time>2026-04-23T09:54:44Z</time></trkpt><trkpt lat="42.39539942667208" lon="13.449657667491879"><ele>986.2</ele><time>2026-04-23T09:54:45Z</time></trkpt><trkpt lat="42.39532034345397" lon="13.44962223634038"><ele>983.4000000000001</ele><time>2026-04-23T09:54:46Z</time></trkpt><trkpt lat="42.395236676850374" lon="13.449631109150744"><ele>980.6</ele><time>2026-04-23T09:54:47Z</time></trkpt><trkpt lat="42.39514889651502" lon="13.449685369343648"><ele>977.8</ele><time>2026-04-23T09:54:48Z</time></trkpt><trkpt lat="42.3950463838762" lon="13.449768149469923"><ele>975.0</ele><time>2026-04-23T09:54:49Z</time></trkpt><trkpt lat="42.394915062039864" lon="13.449860042457765"><ele>975.0</ele><time>2026-04-23T09:54:50Z</time></trkpt><trkpt lat="42.39477645480942" lon="13.44994154507477"><ele>975.0</ele><time>2026-04-23T09:54:51Z</time></trkpt><trkpt lat="42.39463131896283" lon="13.450012158998724"><ele>975.0</ele><time>2026-04-23T09:54:52Z</time></trkpt><trkpt lat="42.39448837449187" lon="13.450068679747575"><ele>973.25</ele><time>2026-04-23T09:54:53Z</time></trkpt><trkpt lat="42.394360602495475" lon="13.450123376574018"><ele>971.5</ele><time>2026-04-23T09:54:54Z</time></trkpt><trkpt lat="42.394246521517054" lon="13.450202277332135"><ele>969.75</ele><time>2026-04-23T09:54:55Z</time></trkpt><trkpt lat="42.3941471299181" lon="13.450312628659713"><ele>968.0</ele><time>2026-04-23T09:54:56Z</time></trkpt><trkpt lat="42.39406613990455" lon="13.450437829056552"><ele>968.75</ele><time>2026-04-23T09:54:57Z</time></trkpt><trkpt lat="42.393999392096916" lon="13.45058025204592"><ele>969.5</ele><time>2026-04-23T09:54:58Z</time></trkpt><trkpt lat="42.39394404646104" lon="13.450733618252613"><ele>970.25</ele><time>2026-04-23T09:54:59Z</time></trkpt><trkpt lat="42.393886794387846" lon="13.45090013361777"><ele>971.0</ele><time>2026-04-23T09:55:00Z</time></trkpt><trkpt lat="42.39384047640245" lon="13.45107241816159"><ele>969.75</ele><time>2026-04-23T09:55:01Z</time></trkpt><trkpt lat="42.39379653739617" lon="13.451244860493945"><ele>968.5</ele><time>2026-04-23T09:55:02Z</time></trkpt><trkpt lat="42.39376592982267" lon="13.451431395005164"><ele>967.25</ele><time>2026-04-23T09:55:03Z</time></trkpt><trkpt lat="42.393757650633304" lon="13.451635930150653"><ele>966.0</ele><time>2026-04-23T09:55:04Z</time></trkpt><trkpt lat="42.393743550432" lon="13.451846718197894"><ele>964.6666666666667</ele><time>2026-04-23T09:55:05Z</time></trkpt><trkpt lat="42.39370712711788" lon="13.4520578986556"><ele>963.3333333333334</ele><time>2026-04-23T09:55:06Z</time></trkpt><trkpt lat="42.393652513788496" lon="13.452255955803684"><ele>962.0</ele><time>2026-04-23T09:55:07Z</time></trkpt><trkpt lat="42.39358301060018" lon="13.4524545689274"><ele>961.25</ele><time>2026-04-23T09:55:08Z</time></trkpt><trkpt lat="42.39350817914448" lon="13.452635769413618"><ele>960.5</ele><time>2026-04-23T09:55:09Z</time></trkpt><trkpt lat="42.39343423698515" lon="13.452809504366652"><ele>959.75</ele><time>2026-04-23T09:55:10Z</time></trkpt><trkpt lat="42.393357936569984" lon="13.452980434959148"><ele>959.0</ele><time>2026-04-23T09:55:11Z</time></trkpt><trkpt lat="42.39327685280931" lon="13.453140807638336"><ele>958.25</ele><time>2026-04-23T09:55:12Z</time></trkpt><trkpt lat="42.39317676642659" lon="13.453281982522567"><ele>957.5</ele><time>2026-04-23T09:55:13Z</time></trkpt><trkpt lat="42.39307990884294" lon="13.453418262796008"><ele>956.75</ele><time>2026-04-23T09:55:13.999Z</time></trkpt><trkpt lat="42.39300678506701" lon="13.453577568109646"><ele>956.0</ele><time>2026-04-23T09:55:14.999Z</time></trkpt><trkpt lat="42.392957493345044" lon="13.453749422693607"><ele>954.25</ele><time>2026-04-23T09:55:15.999Z</time></trkpt><trkpt lat="42.392916939176324" lon="13.45392633383258"><ele>952.5</ele><time>2026-04-23T09:55:16.999Z</time></trkpt><trkpt lat="42.392875797702374" lon="13.454097000237605"><ele>950.75</ele><time>2026-04-23T09:55:17.999Z</time></trkpt><trkpt lat="42.39282221903157" lon="13.454253866697343"><ele>949.0</ele><time>2026-04-23T09:55:18.999Z</time></trkpt><trkpt lat="42.39273980092257" lon="13.454382600601537"><ele>949.0</ele><time>2026-04-23T09:55:19.999Z</time></trkpt><trkpt lat="42.39262974858553" lon="13.454476902227992"><ele>949.0</ele><time>2026-04-23T09:55:20.999Z</time></trkpt><trkpt lat="42.3924977033215" lon="13.454534032452683"><ele>949.0</ele><time>2026-04-23T09:55:21.999Z</time></trkpt><trkpt lat="42.3923509102339" lon="13.454564689956568"><ele>949.0</ele><time>2026-04-23T09:55:22.999Z</time></trkpt><trkpt lat="42.39219071993648" lon="13.454587997161296"><ele>950.0</ele><time>2026-04-23T09:55:23.999Z</time></trkpt><trkpt lat="42.39201981893631" lon="13.45461658740567"><ele>951.0</ele><time>2026-04-23T09:55:24.999Z</time></trkpt><trkpt lat="42.391852993155645" lon="13.454655717087798"><ele>952.0</ele><time>2026-04-23T09:55:25.999Z</time></trkpt><trkpt lat="42.3916865410921" lon="13.454705401173541"><ele>948.6666666666666</ele><time>2026-04-23T09:55:26.999Z</time></trkpt><trkpt lat="42.39153330131525" lon="13.454736496865412"><ele>945.3333333333333</ele><time>2026-04-23T09:55:27.999Z</time></trkpt><trkpt lat="42.39138035814941" lon="13.454763582022437"><ele>942.0</ele><time>2026-04-23T09:55:28.999Z</time></trkpt><trkpt lat="42.391214042330816" lon="13.4548051503315"><ele>937.6666666666667</ele><time>2026-04-23T09:55:29.999Z</time></trkpt><trkpt lat="42.39106619259859" lon="13.454851536407686"><ele>933.3333333333334</ele><time>2026-04-23T09:55:30.999Z</time></trkpt><trkpt lat="42.39091242593993" lon="13.454912477687332"><ele>929.0</ele><time>2026-04-23T09:55:31.999Z</time></trkpt><trkpt lat="42.3907701201744" lon="13.454991157468147"><ele>929.0</ele><time>2026-04-23T09:55:32.999Z</time></trkpt><trkpt lat="42.39063064116021" lon="13.455070829788044"><ele>929.0</ele><time>2026-04-23T09:55:33.999Z</time></trkpt><trkpt lat="42.390480159723644" lon="13.455135564969734"><ele>929.0</ele><time>2026-04-23T09:55:34.999Z</time></trkpt><trkpt lat="42.39032091106487" lon="13.455172830835345"><ele>925.3333333333334</ele><time>2026-04-23T09:55:35.999Z</time></trkpt><trkpt lat="42.39016376206213" lon="13.455201247680163"><ele>921.6666666666667</ele><time>2026-04-23T09:55:36.999Z</time></trkpt><trkpt lat="42.390013241393056" lon="13.455241862082458"><ele>918.0</ele><time>2026-04-23T09:55:37.999Z</time></trkpt><trkpt lat="42.389868683471185" lon="13.455309263366853"><ele>918.0</ele><time>2026-04-23T09:55:38.999Z</time></trkpt><trkpt lat="42.38972692132847" lon="13.45539703351268"><ele>918.0</ele><time>2026-04-23T09:55:40Z</time></trkpt><trkpt lat="42.38959413022443" lon="13.455503252594372"><ele>918.0</ele><time>2026-04-23T09:55:41Z</time></trkpt><trkpt lat="42.38945360949374" lon="13.455620838445446"><ele>914.3333333333333</ele><time>2026-04-23T09:55:42Z</time></trkpt><trkpt lat="42.3893151929432" lon="13.455746473687801"><ele>910.6666666666666</ele><time>2026-04-23T09:55:43Z</time></trkpt><trkpt lat="42.3891784940664" lon="13.455879536979209"><ele>907.0</ele><time>2026-04-23T09:55:44Z</time></trkpt><trkpt lat="42.38905671455369" lon="13.456033658130988"><ele>907.0</ele><time>2026-04-23T09:55:45Z</time></trkpt><trkpt lat="42.38894313642478" lon="13.45620577271582"><ele>907.0</ele><time>2026-04-23T09:55:46Z</time></trkpt><trkpt lat="42.388825056147255" lon="13.45638607592562"><ele>907.0</ele><time>2026-04-23T09:55:47Z</time></trkpt><trkpt lat="42.38871439448031" lon="13.456557672481981"><ele>902.6666666666666</ele><time>2026-04-23T09:55:48Z</time></trkpt><trkpt lat="42.388618125016016" lon="13.45674246694689"><ele>898.3333333333333</ele><time>2026-04-23T09:55:49Z</time></trkpt><trkpt lat="42.38853609711467" lon="13.45694465954388"><ele>894.0</ele><time>2026-04-23T09:55:50Z</time></trkpt><trkpt lat="42.38846355862135" lon="13.457160824922083"><ele>893.6666666666667</ele><time>2026-04-23T09:55:51Z</time></trkpt><trkpt lat="42.388376124896645" lon="13.457372546403143"><ele>893.3333333333334</ele><time>2026-04-23T09:55:52Z</time></trkpt><trkpt lat="42.38827056199549" lon="13.457556754808325"><ele>893.0</ele><time>2026-04-23T09:55:53Z</time></trkpt><trkpt lat="42.38814738049766" lon="13.4577295572996"><ele>893.0</ele><time>2026-04-23T09:55:54Z</time></trkpt><trkpt lat="42.38801480783518" lon="13.457903782998473"><ele>893.0</ele><time>2026-04-23T09:55:55Z</time></trkpt><trkpt lat="42.38788063689161" lon="13.458088314456813"><ele>893.0</ele><time>2026-04-23T09:55:56Z</time></trkpt><trkpt lat="42.38775301215198" lon="13.458280662538064"><ele>888.6666666666667</ele><time>2026-04-23T09:55:57Z</time></trkpt><trkpt lat="42.38764647867846" lon="13.458472029058711"><ele>884.3333333333333</ele><time>2026-04-23T09:55:58Z</time></trkpt><trkpt lat="42.38756725895155" lon="13.458644355361296"><ele>880.0</ele><time>2026-04-23T09:55:59Z</time></trkpt><trkpt lat="42.3875115785725" lon="13.45880355553662"><ele>880.0</ele><time>2026-04-23T09:56:00Z</time></trkpt><trkpt lat="42.38749519517386" lon="13.45895782609182"><ele>880.0</ele><time>2026-04-23T09:56:01Z</time></trkpt><trkpt lat="42.38754854335257" lon="13.459222383289006"><ele>880.0</ele><time>2026-04-23T09:56:03Z</time></trkpt><trkpt lat="42.38762126842474" lon="13.45936511948695"><ele>880.0</ele><time>2026-04-23T09:56:04Z</time></trkpt><trkpt lat="42.387691619789955" lon="13.459537753491185"><ele>880.5</ele><time>2026-04-23T09:56:05Z</time></trkpt><trkpt lat="42.38774737436464" lon="13.4597303813165"><ele>881.0</ele><time>2026-04-23T09:56:06Z</time></trkpt><trkpt lat="42.38778102829331" lon="13.459928635482864"><ele>881.5</ele><time>2026-04-23T09:56:07Z</time></trkpt><trkpt lat="42.387801192092915" lon="13.46012297850628"><ele>882.0</ele><time>2026-04-23T09:56:08Z</time></trkpt><trkpt lat="42.38781053160746" lon="13.460320081918585"><ele>881.0</ele><time>2026-04-23T09:56:09Z</time></trkpt><trkpt lat="42.387808415528234" lon="13.460511089222097"><ele>880.0</ele><time>2026-04-23T09:56:10Z</time></trkpt><trkpt lat="42.38778777929538" lon="13.460698357213321"><ele>879.0</ele><time>2026-04-23T09:56:11Z</time></trkpt><trkpt lat="42.38774759915469" lon="13.460891085987212"><ele>878.0</ele><time>2026-04-23T09:56:12Z</time></trkpt><trkpt lat="42.38769427926111" lon="13.461090803749519"><ele>878.3333333333334</ele><time>2026-04-23T09:56:13Z</time></trkpt><trkpt lat="42.38763640873364" lon="13.461303754447302"><ele>878.6666666666667</ele><time>2026-04-23T09:56:14Z</time></trkpt><trkpt lat="42.387585037913354" lon="13.461525603646724"><ele>879.0</ele><time>2026-04-23T09:56:15Z</time></trkpt><trkpt lat="42.38753775185687" lon="13.461746494156266"><ele>879.0</ele><time>2026-04-23T09:56:16Z</time></trkpt><trkpt lat="42.3874900625089" lon="13.46195780996826"><ele>879.0</ele><time>2026-04-23T09:56:17Z</time></trkpt><trkpt lat="42.3874520462838" lon="13.462155173081566"><ele>879.0</ele><time>2026-04-23T09:56:18Z</time></trkpt><trkpt lat="42.387415222496614" lon="13.462340409387012"><ele>879.5</ele><time>2026-04-23T09:56:19Z</time></trkpt><trkpt lat="42.38738693004778" lon="13.462501861668374"><ele>880.0</ele><time>2026-04-23T09:56:20Z</time></trkpt><trkpt lat="42.38736266263289" lon="13.46263059011079"><ele>880.5</ele><time>2026-04-23T09:56:21Z</time></trkpt><trkpt lat="42.38732858562076" lon="13.462710622799886"><ele>881.0</ele><time>2026-04-23T09:56:22Z</time></trkpt><trkpt lat="42.387276908384706" lon="13.462770107059434"><ele>881.5</ele><time>2026-04-23T09:56:23Z</time></trkpt><trkpt lat="42.38721201755235" lon="13.462838647016234"><ele>882.0</ele><time>2026-04-23T09:56:24Z</time></trkpt><trkpt lat="42.38710557466579" lon="13.462928903777025"><ele>880.0</ele><time>2026-04-23T09:56:25Z</time></trkpt><trkpt lat="42.38701537543565" lon="13.463016487181326"><ele>878.0</ele><time>2026-04-23T09:56:26Z</time></trkpt><trkpt lat="42.3869363025429" lon="13.463093251571527"><ele>876.0</ele><time>2026-04-23T09:56:27Z</time></trkpt><trkpt lat="42.38686171025586" lon="13.46313235652589"><ele>874.0</ele><time>2026-04-23T09:56:28Z</time></trkpt><trkpt lat="42.38677856641409" lon="13.463072246856507"><ele>872.0</ele><time>2026-04-23T09:56:30Z</time></trkpt><trkpt lat="42.38674218144729" lon="13.46298091782874"><ele>871.0</ele><time>2026-04-23T09:56:31Z</time></trkpt><trkpt lat="42.38671147339039" lon="13.462844075948645"><ele>870.0</ele><time>2026-04-23T09:56:32Z</time></trkpt><trkpt lat="42.386667362330826" lon="13.462703391841202"><ele>869.0</ele><time>2026-04-23T09:56:33Z</time></trkpt><trkpt lat="42.38658672179894" lon="13.462603518200378"><ele>868.0</ele><time>2026-04-23T09:56:34Z</time></trkpt><trkpt lat="42.38647043486872" lon="13.462547779583042"><ele>865.75</ele><time>2026-04-23T09:56:35Z</time></trkpt><trkpt lat="42.38632602446743" lon="13.462526360904361"><ele>863.5</ele><time>2026-04-23T09:56:36Z</time></trkpt><trkpt lat="42.386180052094474" lon="13.462536924606294"><ele>861.25</ele><time>2026-04-23T09:56:37Z</time></trkpt><trkpt lat="42.386065540031545" lon="13.462554949246442"><ele>859.0</ele><time>2026-04-23T09:56:38Z</time></trkpt><trkpt lat="42.38598168431535" lon="13.462609525452006"><ele>859.0</ele><time>2026-04-23T09:56:39Z</time></trkpt><trkpt lat="42.385934727535755" lon="13.462695829971622"><ele>859.0000000000001</ele><time>2026-04-23T09:56:40Z</time></trkpt><trkpt lat="42.38592439221139" lon="13.462796481430617"><ele>859.0000000000001</ele><time>2026-04-23T09:56:41Z</time></trkpt><trkpt lat="42.38593126483977" lon="13.462914085249164"><ele>859.0</ele><time>2026-04-23T09:56:42Z</time></trkpt><trkpt lat="42.38594270629132" lon="13.463066698968264"><ele>859.0</ele><time>2026-04-23T09:56:43Z</time></trkpt><trkpt lat="42.3859517498773" lon="13.46323258542289"><ele>861.75</ele><time>2026-04-23T09:56:44Z</time></trkpt><trkpt lat="42.385948494182344" lon="13.463403230481457"><ele>864.5</ele><time>2026-04-23T09:56:45Z</time></trkpt><trkpt lat="42.38593659376184" lon="13.463585170811273"><ele>867.25</ele><time>2026-04-23T09:56:46Z</time></trkpt><trkpt lat="42.38591425095196" lon="13.463776292594053"><ele>870.0</ele><time>2026-04-23T09:56:47Z</time></trkpt><trkpt lat="42.38588048363014" lon="13.4639558069946"><ele>870.25</ele><time>2026-04-23T09:56:48Z</time></trkpt><trkpt lat="42.385833453753726" lon="13.464134272642273"><ele>870.5</ele><time>2026-04-23T09:56:49Z</time></trkpt><trkpt lat="42.385779547740725" lon="13.464314034588071"><ele>870.75</ele><time>2026-04-23T09:56:50Z</time></trkpt><trkpt lat="42.385715011301095" lon="13.4645053482126"><ele>871.0</ele><time>2026-04-23T09:56:51Z</time></trkpt><trkpt lat="42.38564660552933" lon="13.464701210935594"><ele>870.25</ele><time>2026-04-23T09:56:52Z</time></trkpt><trkpt lat="42.38558177068319" lon="13.464898246269335"><ele>869.5</ele><time>2026-04-23T09:56:53Z</time></trkpt><trkpt lat="42.38552631131722" lon="13.465081207518521"><ele>868.75</ele><time>2026-04-23T09:56:54Z</time></trkpt><trkpt lat="42.3854773173764" lon="13.465243292817883"><ele>868.0</ele><time>2026-04-23T09:56:55Z</time></trkpt><trkpt lat="42.38544856012758" lon="13.465375965685537"><ele>868.0</ele><time>2026-04-23T09:56:56Z</time></trkpt><trkpt lat="42.38544349408101" lon="13.465497803496108"><ele>868.0</ele><time>2026-04-23T09:56:57Z</time></trkpt><trkpt lat="42.385467769652195" lon="13.46563539956813"><ele>868.0</ele><time>2026-04-23T09:56:58Z</time></trkpt><trkpt lat="42.38550323706088" lon="13.46579727600189"><ele>868.0</ele><time>2026-04-23T09:56:59Z</time></trkpt><trkpt lat="42.38551252279254" lon="13.465985593315256"><ele>869.0</ele><time>2026-04-23T09:57:00Z</time></trkpt><trkpt lat="42.38549631399406" lon="13.466174853068406"><ele>870.0</ele><time>2026-04-23T09:57:01Z</time></trkpt><trkpt lat="42.385475849730746" lon="13.466342669797804"><ele>871.0</ele><time>2026-04-23T09:57:02Z</time></trkpt><trkpt lat="42.38546894010339" lon="13.466491139511495"><ele>872.0</ele><time>2026-04-23T09:57:03Z</time></trkpt><trkpt lat="42.38547298867406" lon="13.46661151293834"><ele>872.0</ele><time>2026-04-23T09:57:04Z</time></trkpt><trkpt lat="42.385459189931666" lon="13.466763986858078"><ele>872.0</ele><time>2026-04-23T09:57:06Z</time></trkpt><trkpt lat="42.38536129056735" lon="13.46681870083684"><ele>872.0</ele><time>2026-04-23T09:57:08Z</time></trkpt><trkpt lat="42.385285286112875" lon="13.466816301571354"><ele>872.0</ele><time>2026-04-23T09:57:09Z</time></trkpt><trkpt lat="42.385200305540266" lon="13.466790112613822"><ele>872.0</ele><time>2026-04-23T09:57:10Z</time></trkpt><trkpt lat="42.385099008777665" lon="13.466780177454908"><ele>872.0</ele><time>2026-04-23T09:57:11Z</time></trkpt><trkpt lat="42.38497737127763" lon="13.466797984597365"><ele>872.0</ele><time>2026-04-23T09:57:12Z</time></trkpt><trkpt lat="42.38487045893608" lon="13.466805058019437"><ele>872.0</ele><time>2026-04-23T09:57:13Z</time></trkpt><trkpt lat="42.384751836542826" lon="13.466787115514567"><ele>872.0</ele><time>2026-04-23T09:57:14Z</time></trkpt><trkpt lat="42.38465673039337" lon="13.466813288483207"><ele>872.0</ele><time>2026-04-23T09:57:15Z</time></trkpt><trkpt lat="42.384584825273016" lon="13.466846823680271"><ele>875.0000000000001</ele><time>2026-04-23T09:57:16Z</time></trkpt><trkpt lat="42.384517344587906" lon="13.466833240843545"><ele>878.0</ele><time>2026-04-23T09:57:17Z</time></trkpt><trkpt lat="42.38451718526435" lon="13.466703121051383"><ele>881.0</ele><time>2026-04-23T09:57:19Z</time></trkpt><trkpt lat="42.384493513130536" lon="13.466597370502475"><ele>884.0</ele><time>2026-04-23T09:57:19.999Z</time></trkpt><trkpt lat="42.38450007486791" lon="13.466483042437796"><ele>887.0000000000001</ele><time>2026-04-23T09:57:20.999Z</time></trkpt><trkpt lat="42.38453037519129" lon="13.466356880596917"><ele>890.0</ele><time>2026-04-23T09:57:21.999Z</time></trkpt><trkpt lat="42.38455845640146" lon="13.466223741743628"><ele>890.8</ele><time>2026-04-23T09:57:22.999Z</time></trkpt><trkpt lat="42.38459332269223" lon="13.46607999130027"><ele>891.6</ele><time>2026-04-23T09:57:23.999Z</time></trkpt><trkpt lat="42.38462099757904" lon="13.465932223425124"><ele>892.4000000000001</ele><time>2026-04-23T09:57:24.999Z</time></trkpt><trkpt lat="42.384650722730996" lon="13.465791629174147"><ele>893.2</ele><time>2026-04-23T09:57:25.999Z</time></trkpt><trkpt lat="42.38466628767495" lon="13.46567040217555"><ele>894.0</ele><time>2026-04-23T09:57:26.999Z</time></trkpt><trkpt lat="42.384680117594506" lon="13.46556161817829"><ele>894.0</ele><time>2026-04-23T09:57:27.999Z</time></trkpt><trkpt lat="42.38464114032646" lon="13.465476716493209"><ele>894.0000000000001</ele><time>2026-04-23T09:57:29.999Z</time></trkpt><trkpt lat="42.38455471912536" lon="13.465515899195504"><ele>894.0000000000001</ele><time>2026-04-23T09:57:31.999Z</time></trkpt><trkpt lat="42.384540005831326" lon="13.465675844787535"><ele>894.0</ele><time>2026-04-23T09:57:33.999Z</time></trkpt><trkpt lat="42.38447958575974" lon="13.465788423838916"><ele>894.0</ele><time>2026-04-23T09:57:34.999Z</time></trkpt><trkpt lat="42.38442467520759" lon="13.465903244529253"><ele>894.0</ele><time>2026-04-23T09:57:35.999Z</time></trkpt><trkpt lat="42.38434630701943" lon="13.466018678537608"><ele>894.0</ele><time>2026-04-23T09:57:36.999Z</time></trkpt><trkpt lat="42.38426637938973" lon="13.466122801367515"><ele>894.0</ele><time>2026-04-23T09:57:37.999Z</time></trkpt><trkpt lat="42.38418139888451" lon="13.4662437410393"><ele>894.0</ele><time>2026-04-23T09:57:38.999Z</time></trkpt><trkpt lat="42.38411668887413" lon="13.466377544351035"><ele>893.2</ele><time>2026-04-23T09:57:39.999Z</time></trkpt><trkpt lat="42.38406449075734" lon="13.466491100671286"><ele>892.4000000000001</ele><time>2026-04-23T09:57:40.999Z</time></trkpt><trkpt lat="42.384032316607694" lon="13.466603885576832"><ele>891.6</ele><time>2026-04-23T09:57:41.999Z</time></trkpt><trkpt lat="42.38399317393339" lon="13.466725942372038"><ele>890.8</ele><time>2026-04-23T09:57:42.999Z</time></trkpt><trkpt lat="42.38395226784432" lon="13.466925023212527"><ele>890.0</ele><time>2026-04-23T09:57:43.999Z</time></trkpt><trkpt lat="42.3839268672055" lon="13.467074751997965"><ele>889.4</ele><time>2026-04-23T09:57:44.999Z</time></trkpt><trkpt lat="42.3839125187344" lon="13.467202269894157"><ele>888.8</ele><time>2026-04-23T09:57:46Z</time></trkpt><trkpt lat="42.38389494004663" lon="13.467294880727088"><ele>888.2</ele><time>2026-04-23T09:57:47Z</time></trkpt><trkpt lat="42.38380075485386" lon="13.467423012127796"><ele>887.6</ele><time>2026-04-23T09:57:49Z</time></trkpt><trkpt lat="42.38373519277951" lon="13.467496500215017"><ele>887.0</ele><time>2026-04-23T09:57:50Z</time></trkpt><trkpt lat="42.38365500434188" lon="13.467572413515375"><ele>889.75</ele><time>2026-04-23T09:57:51Z</time></trkpt><trkpt lat="42.383558984630895" lon="13.46764523585529"><ele>892.5</ele><time>2026-04-23T09:57:52Z</time></trkpt><trkpt lat="42.38346716254282" lon="13.46774552645986"><ele>895.25</ele><time>2026-04-23T09:57:53Z</time></trkpt><trkpt lat="42.3833807532435" lon="13.467860267900363"><ele>898.0</ele><time>2026-04-23T09:57:54Z</time></trkpt><trkpt lat="42.38331000998791" lon="13.467980727027424"><ele>898.0</ele><time>2026-04-23T09:57:55Z</time></trkpt><trkpt lat="42.383226438131594" lon="13.468096212301708"><ele>898.0</ele><time>2026-04-23T09:57:56Z</time></trkpt><trkpt lat="42.383124900401924" lon="13.468217218737921"><ele>898.0</ele><time>2026-04-23T09:57:57Z</time></trkpt><trkpt lat="42.38302129029228" lon="13.468321141994569"><ele>898.0</ele><time>2026-04-23T09:57:58Z</time></trkpt><trkpt lat="42.38292844905823" lon="13.468421215885382"><ele>900.5999999999999</ele><time>2026-04-23T09:57:59Z</time></trkpt><trkpt lat="42.38284388018505" lon="13.468529335169869"><ele>903.1999999999999</ele><time>2026-04-23T09:58:00Z</time></trkpt><trkpt lat="42.382780851252654" lon="13.468640476703326"><ele>905.8</ele><time>2026-04-23T09:58:01Z</time></trkpt><trkpt lat="42.38272086444321" lon="13.46875149198134"><ele>908.4</ele><time>2026-04-23T09:58:02Z</time></trkpt><trkpt lat="42.382639502179494" lon="13.468875303741168"><ele>911.0</ele><time>2026-04-23T09:58:03Z</time></trkpt><trkpt lat="42.38255244541012" lon="13.469009082362158"><ele>911.0</ele><time>2026-04-23T09:58:04Z</time></trkpt><trkpt lat="42.382458356808584" lon="13.469149157806664"><ele>911.0</ele><time>2026-04-23T09:58:05Z</time></trkpt><trkpt lat="42.38238420471699" lon="13.469278220941383"><ele>911.0</ele><time>2026-04-23T09:58:06Z</time></trkpt><trkpt lat="42.382334480555194" lon="13.46939419075422"><ele>911.0</ele><time>2026-04-23T09:58:07Z</time></trkpt><trkpt lat="42.382284723438495" lon="13.469537409578015"><ele>908.5999999999999</ele><time>2026-04-23T09:58:08Z</time></trkpt><trkpt lat="42.38224070273115" lon="13.46968850652813"><ele>906.1999999999999</ele><time>2026-04-23T09:58:09Z</time></trkpt><trkpt lat="42.38218633540163" lon="13.469832895558842"><ele>903.8000000000001</ele><time>2026-04-23T09:58:10Z</time></trkpt><trkpt lat="42.38213160222006" lon="13.469959643611475"><ele>901.4000000000001</ele><time>2026-04-23T09:58:11Z</time></trkpt><trkpt lat="42.38208987624879" lon="13.470065489500934"><ele>899.0</ele><time>2026-04-23T09:58:12Z</time></trkpt><trkpt lat="42.382060122239345" lon="13.47018095450334"><ele>903.2</ele><time>2026-04-23T09:58:13Z</time></trkpt><trkpt lat="42.382022046063206" lon="13.470277965133455"><ele>907.4000000000001</ele><time>2026-04-23T09:58:14Z</time></trkpt><trkpt lat="42.38198834343334" lon="13.470366555239066"><ele>911.6</ele><time>2026-04-23T09:58:15Z</time></trkpt><trkpt lat="42.381962900452955" lon="13.470461388973868"><ele>915.8</ele><time>2026-04-23T09:58:16Z</time></trkpt><trkpt lat="42.38194374873553" lon="13.470591614537447"><ele>920.0</ele><time>2026-04-23T09:58:17Z</time></trkpt><trkpt lat="42.381903217303105" lon="13.47074985191581"><ele>920.0</ele><time>2026-04-23T09:58:18Z</time></trkpt><trkpt lat="42.38187135679748" lon="13.470912074895347"><ele>920.0</ele><time>2026-04-23T09:58:19Z</time></trkpt><trkpt lat="42.3818365945829" lon="13.471064935578747"><ele>920.0</ele><time>2026-04-23T09:58:20Z</time></trkpt><trkpt lat="42.381805547846746" lon="13.47122062036575"><ele>920.0</ele><time>2026-04-23T09:58:21Z</time></trkpt><trkpt lat="42.381770449513944" lon="13.471375238031415"><ele>918.5</ele><time>2026-04-23T09:58:22Z</time></trkpt><trkpt lat="42.38172639418211" lon="13.471530286324594"><ele>917.0</ele><time>2026-04-23T09:58:23Z</time></trkpt><trkpt lat="42.38166922846638" lon="13.471682965648599"><ele>915.5</ele><time>2026-04-23T09:58:24Z</time></trkpt><trkpt lat="42.38160729832527" lon="13.471840540928508"><ele>914.0</ele><time>2026-04-23T09:58:25Z</time></trkpt><trkpt lat="42.38154912058787" lon="13.472001052735136"><ele>912.0</ele><time>2026-04-23T09:58:26Z</time></trkpt><trkpt lat="42.38150471280427" lon="13.472156809220513"><ele>910.0</ele><time>2026-04-23T09:58:27Z</time></trkpt><trkpt lat="42.38145789651362" lon="13.472294848198732"><ele>908.0</ele><time>2026-04-23T09:58:28Z</time></trkpt><trkpt lat="42.38139631795075" lon="13.472415442053633"><ele>906.0</ele><time>2026-04-23T09:58:29Z</time></trkpt><trkpt lat="42.38131021042134" lon="13.4725408192435"><ele>909.3333333333333</ele><time>2026-04-23T09:58:30Z</time></trkpt><trkpt lat="42.381200949582116" lon="13.472673514694636"><ele>912.6666666666666</ele><time>2026-04-23T09:58:31Z</time></trkpt><trkpt lat="42.38109751194077" lon="13.472846658736174"><ele>916.0</ele><time>2026-04-23T09:58:32Z</time></trkpt><trkpt lat="42.380993320310665" lon="13.473029353786991"><ele>916.0</ele><time>2026-04-23T09:58:33Z</time></trkpt><trkpt lat="42.380876006679316" lon="13.473194499033623"><ele>916.0</ele><time>2026-04-23T09:58:34Z</time></trkpt><trkpt lat="42.38077159078897" lon="13.473339373874431"><ele>916.0</ele><time>2026-04-23T09:58:35Z</time></trkpt><trkpt lat="42.380671606153506" lon="13.473463938923794"><ele>916.0</ele><time>2026-04-23T09:58:36Z</time></trkpt><trkpt lat="42.380577579268" lon="13.47358615685706"><ele>916.0</ele><time>2026-04-23T09:58:37Z</time></trkpt><trkpt lat="42.38047672376622" lon="13.473729709334567"><ele>916.0</ele><time>2026-04-23T09:58:38Z</time></trkpt><trkpt lat="42.3803625974549" lon="13.473845987231465"><ele>916.0</ele><time>2026-04-23T09:58:39Z</time></trkpt><trkpt lat="42.38024192429605" lon="13.47397022555171"><ele>917.25</ele><time>2026-04-23T09:58:40Z</time></trkpt><trkpt lat="42.38011812962505" lon="13.474099289908695"><ele>918.5</ele><time>2026-04-23T09:58:41Z</time></trkpt><trkpt lat="42.38002240642082" lon="13.474210824312337"><ele>919.75</ele><time>2026-04-23T09:58:42Z</time></trkpt><trkpt lat="42.37993532371372" lon="13.474310449064816"><ele>921.0</ele><time>2026-04-23T09:58:43Z</time></trkpt><trkpt lat="42.379852513233224" lon="13.474393151475068"><ele>921.0</ele><time>2026-04-23T09:58:44Z</time></trkpt><trkpt lat="42.37978354723125" lon="13.474436633414962"><ele>920.9999999999999</ele><time>2026-04-23T09:58:45Z</time></trkpt><trkpt lat="42.37969346118401" lon="13.474474255231707"><ele>920.9999999999999</ele><time>2026-04-23T09:58:46Z</time></trkpt><trkpt lat="42.379588784833906" lon="13.474511269746191"><ele>921.0</ele><time>2026-04-23T09:58:47Z</time></trkpt><trkpt lat="42.37947361070295" lon="13.474550008955651"><ele>921.0</ele><time>2026-04-23T09:58:48Z</time></trkpt><trkpt lat="42.37935037020856" lon="13.474589063463348"><ele>920.5999999999999</ele><time>2026-04-23T09:58:49Z</time></trkpt><trkpt lat="42.379232747185625" lon="13.474630362253246"><ele>920.1999999999999</ele><time>2026-04-23T09:58:50Z</time></trkpt><trkpt lat="42.37913609091485" lon="13.474661361504971"><ele>919.8000000000001</ele><time>2026-04-23T09:58:51Z</time></trkpt><trkpt lat="42.37903089524846" lon="13.474694453018966"><ele>919.4000000000001</ele><time>2026-04-23T09:58:52Z</time></trkpt><trkpt lat="42.37892949916252" lon="13.47471771709411"><ele>919.0</ele><time>2026-04-23T09:58:53Z</time></trkpt><trkpt lat="42.37882927010178" lon="13.474712552153298"><ele>918.9999999999999</ele><time>2026-04-23T09:58:54Z</time></trkpt><trkpt lat="42.37874353962578" lon="13.474698870884163"><ele>919.0</ele><time>2026-04-23T09:58:55Z</time></trkpt><trkpt lat="42.378679158005305" lon="13.474669945983566"><ele>919.0</ele><time>2026-04-23T09:58:56Z</time></trkpt><trkpt lat="42.378607519857795" lon="13.474616549397181"><ele>919.0</ele><time>2026-04-23T09:58:57Z</time></trkpt><trkpt lat="42.378525538469134" lon="13.474569430346863"><ele>918.9999999999999</ele><time>2026-04-23T09:58:58Z</time></trkpt><trkpt lat="42.3784065737444" lon="13.474540667065613"><ele>919.0</ele><time>2026-04-23T09:58:59Z</time></trkpt><trkpt lat="42.37830135272035" lon="13.474542239041899"><ele>919.0</ele><time>2026-04-23T09:59:00Z</time></trkpt><trkpt lat="42.37819041940534" lon="13.474540792182601"><ele>919.0</ele><time>2026-04-23T09:59:01Z</time></trkpt><trkpt lat="42.37806616791178" lon="13.474539663407953"><ele>919.0</ele><time>2026-04-23T09:59:02Z</time></trkpt><trkpt lat="42.37795263838578" lon="13.474549672904468"><ele>919.0</ele><time>2026-04-23T09:59:03Z</time></trkpt><trkpt lat="42.37784887098797" lon="13.474569789854797"><ele>917.8333333333333</ele><time>2026-04-23T09:59:04Z</time></trkpt><trkpt lat="42.37776191175949" lon="13.474596228159523"><ele>916.6666666666666</ele><time>2026-04-23T09:59:05Z</time></trkpt><trkpt lat="42.37767652105662" lon="13.474607069318344"><ele>915.5</ele><time>2026-04-23T09:59:06Z</time></trkpt><trkpt lat="42.3775854173956" lon="13.474611410122195"><ele>914.3333333333333</ele><time>2026-04-23T09:59:07Z</time></trkpt><trkpt lat="42.377506109732856" lon="13.474597510775496"><ele>913.1666666666666</ele><time>2026-04-23T09:59:08Z</time></trkpt><trkpt lat="42.37742547478626" lon="13.474595592460766"><ele>912.0</ele><time>2026-04-23T09:59:09Z</time></trkpt><trkpt lat="42.37734569369466" lon="13.474628810973568"><ele>912.0</ele><time>2026-04-23T09:59:10Z</time></trkpt><trkpt lat="42.37728235481444" lon="13.474667313334454"><ele>912.0</ele><time>2026-04-23T09:59:11Z</time></trkpt><trkpt lat="42.37722674872303" lon="13.474724625310236"><ele>912.0</ele><time>2026-04-23T09:59:12Z</time></trkpt><trkpt lat="42.377122014109915" lon="13.47467499932734"><ele>912.0</ele><time>2026-04-23T09:59:13Z</time></trkpt><trkpt lat="42.377034409578194" lon="13.474656000449546"><ele>912.0</ele><time>2026-04-23T09:59:14Z</time></trkpt><trkpt lat="42.37691902914447" lon="13.4746437747435"><ele>910.3333333333334</ele><time>2026-04-23T09:59:15Z</time></trkpt><trkpt lat="42.37684543211859" lon="13.474643258264695"><ele>908.6666666666667</ele><time>2026-04-23T09:59:16Z</time></trkpt><trkpt lat="42.37674822180119" lon="13.474661070161362"><ele>907.0</ele><time>2026-04-23T09:59:17Z</time></trkpt><trkpt lat="42.376646094689846" lon="13.474645169449028"><ele>905.3333333333334</ele><time>2026-04-23T09:59:18Z</time></trkpt><trkpt lat="42.3765592629388" lon="13.474636180997656"><ele>903.6666666666667</ele><time>2026-04-23T09:59:18.999Z</time></trkpt><trkpt lat="42.37647538150167" lon="13.474620031801647"><ele>902.0</ele><time>2026-04-23T09:59:19.999Z</time></trkpt><trkpt lat="42.376400750081494" lon="13.474599492717386"><ele>900.1666666666667</ele><time>2026-04-23T09:59:20.999Z</time></trkpt><trkpt lat="42.37632593273438" lon="13.474581279613437"><ele>898.3333333333334</ele><time>2026-04-23T09:59:21.999Z</time></trkpt><trkpt lat="42.376238103051584" lon="13.474590415191392"><ele>896.5</ele><time>2026-04-23T09:59:22.999Z</time></trkpt><trkpt lat="42.376149618435456" lon="13.474627427212223"><ele>894.6666666666667</ele><time>2026-04-23T09:59:23.999Z</time></trkpt><trkpt lat="42.376061148657996" lon="13.474680943489188"><ele>892.8333333333334</ele><time>2026-04-23T09:59:24.999Z</time></trkpt><trkpt lat="42.37597722540161" lon="13.474742785594673"><ele>891.0</ele><time>2026-04-23T09:59:25.999Z</time></trkpt><trkpt lat="42.37589553227861" lon="13.474800504554212"><ele>891.0</ele><time>2026-04-23T09:59:26.999Z</time></trkpt><trkpt lat="42.37581858468372" lon="13.47486791756018"><ele>890.9999999999999</ele><time>2026-04-23T09:59:27.999Z</time></trkpt><trkpt lat="42.37573326739076" lon="13.47493210213972"><ele>890.9999999999999</ele><time>2026-04-23T09:59:28.999Z</time></trkpt><trkpt lat="42.37564586208188" lon="13.47499155470245"><ele>891.0</ele><time>2026-04-23T09:59:29.999Z</time></trkpt><trkpt lat="42.37555927276845" lon="13.475045283278565"><ele>891.0</ele><time>2026-04-23T09:59:30.999Z</time></trkpt><trkpt lat="42.3754756676931" lon="13.47509802100372"><ele>888.4</ele><time>2026-04-23T09:59:31.999Z</time></trkpt><trkpt lat="42.37538915421202" lon="13.475147476661881"><ele>885.8</ele><time>2026-04-23T09:59:32.999Z</time></trkpt><trkpt lat="42.37529636118043" lon="13.475191883525296"><ele>883.1999999999999</ele><time>2026-04-23T09:59:33.999Z</time></trkpt><trkpt lat="42.37520230907665" lon="13.475236162320302"><ele>880.5999999999999</ele><time>2026-04-23T09:59:34.999Z</time></trkpt><trkpt lat="42.375108455834145" lon="13.475274563756958"><ele>878.0</ele><time>2026-04-23T09:59:35.999Z</time></trkpt><trkpt lat="42.375022547885344" lon="13.475308462591888"><ele>878.0000000000001</ele><time>2026-04-23T09:59:36.999Z</time></trkpt><trkpt lat="42.37494813378859" lon="13.475335302901428"><ele>878.0</ele><time>2026-04-23T09:59:37.999Z</time></trkpt><trkpt lat="42.37487766121962" lon="13.475350038665145"><ele>878.0</ele><time>2026-04-23T09:59:38.999Z</time></trkpt><trkpt lat="42.37479664801915" lon="13.475356643083618"><ele>878.0</ele><time>2026-04-23T09:59:39.999Z</time></trkpt><trkpt lat="42.37471728040359" lon="13.475338886653141"><ele>878.0000000000001</ele><time>2026-04-23T09:59:40.999Z</time></trkpt><trkpt lat="42.37463027822136" lon="13.475344056955704"><ele>878.0</ele><time>2026-04-23T09:59:41.999Z</time></trkpt><trkpt lat="42.374549004538665" lon="13.47533780984583"><ele>876.8333333333334</ele><time>2026-04-23T09:59:42.999Z</time></trkpt><trkpt lat="42.374476087091416" lon="13.475329733120002"><ele>875.6666666666667</ele><time>2026-04-23T09:59:43.999Z</time></trkpt><trkpt lat="42.37440743571738" lon="13.475298684056982"><ele>874.5</ele><time>2026-04-23T09:59:44.999Z</time></trkpt><trkpt lat="42.374343045624904" lon="13.475284040869324"><ele>873.3333333333333</ele><time>2026-04-23T09:59:45.999Z</time></trkpt><trkpt lat="42.374257931005815" lon="13.475289658494995"><ele>872.1666666666666</ele><time>2026-04-23T09:59:46.999Z</time></trkpt><trkpt lat="42.37412065076649" lon="13.475262434955502"><ele>871.0</ele><time>2026-04-23T09:59:48.999Z</time></trkpt><trkpt lat="42.37405446888785" lon="13.475225993241486"><ele>871.0</ele><time>2026-04-23T09:59:49.999Z</time></trkpt><trkpt lat="42.37397385383975" lon="13.475190898593693"><ele>870.9999999999999</ele><time>2026-04-23T09:59:50.999Z</time></trkpt><trkpt lat="42.373879343373396" lon="13.475171835884112"><ele>870.9999999999999</ele><time>2026-04-23T09:59:52Z</time></trkpt><trkpt lat="42.37382461912844" lon="13.475089770002532"><ele>871.0</ele><time>2026-04-23T09:59:53Z</time></trkpt><trkpt lat="42.373689585319056" lon="13.475059465583609"><ele>871.0</ele><time>2026-04-23T09:59:55Z</time></trkpt><trkpt lat="42.37362292002465" lon="13.475002380131745"><ele>869.8</ele><time>2026-04-23T09:59:56Z</time></trkpt><trkpt lat="42.37354321261397" lon="13.474942333946995"><ele>868.5999999999999</ele><time>2026-04-23T09:59:57Z</time></trkpt><trkpt lat="42.373465980772366" lon="13.474876051474515"><ele>867.4</ele><time>2026-04-23T09:59:58Z</time></trkpt><trkpt lat="42.373399074468644" lon="13.474811608811446"><ele>866.2</ele><time>2026-04-23T09:59:59Z</time></trkpt><trkpt lat="42.37330584141265" lon="13.474736764625312"><ele>865.0</ele><time>2026-04-23T10:00:00Z</time></trkpt><trkpt lat="42.37322307788759" lon="13.474665965607874"><ele>863.0</ele><time>2026-04-23T10:00:01Z</time></trkpt><trkpt lat="42.373146671767394" lon="13.474592127741476"><ele>861.0</ele><time>2026-04-23T10:00:02Z</time></trkpt><trkpt lat="42.37307394873175" lon="13.4745210028031"><ele>859.0</ele><time>2026-04-23T10:00:03Z</time></trkpt><trkpt lat="42.37301038794259" lon="13.474454811559859"><ele>857.0</ele><time>2026-04-23T10:00:04Z</time></trkpt><trkpt lat="42.37292935028682" lon="13.474407312589054"><ele>855.0</ele><time>2026-04-23T10:00:05Z</time></trkpt><trkpt lat="42.372828746081424" lon="13.474367436973205"><ele>854.5</ele><time>2026-04-23T10:00:06Z</time></trkpt><trkpt lat="42.372720077531795" lon="13.474342588991819"><ele>854.0</ele><time>2026-04-23T10:00:07Z</time></trkpt><trkpt lat="42.37260102784663" lon="13.47431664699049"><ele>853.5</ele><time>2026-04-23T10:00:08Z</time></trkpt><trkpt lat="42.372474926773066" lon="13.4742974248117"><ele>853.0</ele><time>2026-04-23T10:00:09Z</time></trkpt><trkpt lat="42.37235066027039" lon="13.474285802743687"><ele>853.0</ele><time>2026-04-23T10:00:10Z</time></trkpt><trkpt lat="42.37223822985762" lon="13.47427126819206"><ele>853.0</ele><time>2026-04-23T10:00:11Z</time></trkpt><trkpt lat="42.3721338416646" lon="13.474253203763682"><ele>853.0</ele><time>2026-04-23T10:00:12Z</time></trkpt><trkpt lat="42.372021945468035" lon="13.474237883919262"><ele>853.0</ele><time>2026-04-23T10:00:13Z</time></trkpt><trkpt lat="42.371913733777205" lon="13.474224544983247"><ele>853.0</ele><time>2026-04-23T10:00:14Z</time></trkpt><trkpt lat="42.371825689819566" lon="13.47421629125906"><ele>852.4999999999999</ele><time>2026-04-23T10:00:15Z</time></trkpt><trkpt lat="42.37174465818483" lon="13.474203399287358"><ele>852.0</ele><time>2026-04-23T10:00:16Z</time></trkpt><trkpt lat="42.37167864526961" lon="13.474167179704938"><ele>851.5</ele><time>2026-04-23T10:00:17Z</time></trkpt><trkpt lat="42.37159013858544" lon="13.474150425455674"><ele>851.0</ele><time>2026-04-23T10:00:18Z</time></trkpt><trkpt lat="42.371503684690516" lon="13.47414446938607"><ele>850.4999999999999</ele><time>2026-04-23T10:00:19Z</time></trkpt><trkpt lat="42.371426128821525" lon="13.474149265951306"><ele>850.0</ele><time>2026-04-23T10:00:20Z</time></trkpt><trkpt lat="42.37135860064819" lon="13.474165590282265"><ele>848.0</ele><time>2026-04-23T10:00:21Z</time></trkpt><trkpt lat="42.37129063342582" lon="13.474193398799569"><ele>846.0</ele><time>2026-04-23T10:00:22Z</time></trkpt><trkpt lat="42.37121041479495" lon="13.474223485027135"><ele>844.0</ele><time>2026-04-23T10:00:23Z</time></trkpt><trkpt lat="42.371122931198364" lon="13.474252503435643"><ele>842.0</ele><time>2026-04-23T10:00:24Z</time></trkpt><trkpt lat="42.37102487926379" lon="13.474286581121943"><ele>840.0</ele><time>2026-04-23T10:00:25Z</time></trkpt><trkpt lat="42.37090966688321" lon="13.474316462652473"><ele>840.0</ele><time>2026-04-23T10:00:26Z</time></trkpt><trkpt lat="42.37079188176263" lon="13.474337508539705"><ele>840.0</ele><time>2026-04-23T10:00:27Z</time></trkpt><trkpt lat="42.37067976962945" lon="13.47435904854349"><ele>840.0</ele><time>2026-04-23T10:00:28Z</time></trkpt><trkpt lat="42.37056887191981" lon="13.474377673957326"><ele>840.0</ele><time>2026-04-23T10:00:29Z</time></trkpt><trkpt lat="42.37045869570751" lon="13.4743924055751"><ele>839.0</ele><time>2026-04-23T10:00:30Z</time></trkpt><trkpt lat="42.37034628373612" lon="13.47440432132296"><ele>838.0</ele><time>2026-04-23T10:00:31Z</time></trkpt><trkpt lat="42.370227763280106" lon="13.474417000559928"><ele>837.0</ele><time>2026-04-23T10:00:32Z</time></trkpt><trkpt lat="42.37011932402905" lon="13.474421830180695"><ele>836.0</ele><time>2026-04-23T10:00:33Z</time></trkpt><trkpt lat="42.37001079240193" lon="13.474425875098452"><ele>835.0</ele><time>2026-04-23T10:00:34Z</time></trkpt><trkpt lat="42.36991423302376" lon="13.474425580279933"><ele>835.0</ele><time>2026-04-23T10:00:35Z</time></trkpt><trkpt lat="42.36982483107851" lon="13.474422833643196"><ele>835.0</ele><time>2026-04-23T10:00:36Z</time></trkpt><trkpt lat="42.369730622908946" lon="13.474426555217663"><ele>835.0</ele><time>2026-04-23T10:00:37Z</time></trkpt><trkpt lat="42.369629009656485" lon="13.474444798619901"><ele>835.0</ele><time>2026-04-23T10:00:38Z</time></trkpt><trkpt lat="42.369535234400956" lon="13.474485333643344"><ele>835.0</ele><time>2026-04-23T10:00:39Z</time></trkpt><trkpt lat="42.3694486624342" lon="13.474545737044586"><ele>834.0</ele><time>2026-04-23T10:00:40Z</time></trkpt><trkpt lat="42.36937062667256" lon="13.474598315020165"><ele>833.0</ele><time>2026-04-23T10:00:41Z</time></trkpt><trkpt lat="42.36930006710326" lon="13.474629881738982"><ele>832.0</ele><time>2026-04-23T10:00:42Z</time></trkpt><trkpt lat="42.36920227020867" lon="13.474571505294225"><ele>831.0</ele><time>2026-04-23T10:00:44Z</time></trkpt><trkpt lat="42.36916003853094" lon="13.474497722596189"><ele>830.0</ele><time>2026-04-23T10:00:45Z</time></trkpt><trkpt lat="42.369152208549856" lon="13.474339560210344"><ele>829.0</ele><time>2026-04-23T10:00:47Z</time></trkpt><trkpt lat="42.36917998014109" lon="13.474247046461247"><ele>828.0</ele><time>2026-04-23T10:00:48Z</time></trkpt><trkpt lat="42.36922509279223" lon="13.474130344972487"><ele>827.0</ele><time>2026-04-23T10:00:49Z</time></trkpt><trkpt lat="42.36926899043311" lon="13.474000754222569"><ele>826.0</ele><time>2026-04-23T10:00:50Z</time></trkpt><trkpt lat="42.369321005074305" lon="13.473864566271347"><ele>825.0</ele><time>2026-04-23T10:00:51Z</time></trkpt><trkpt lat="42.36936429709527" lon="13.473742486198878"><ele>823.2</ele><time>2026-04-23T10:00:52Z</time></trkpt><trkpt lat="42.369390281635255" lon="13.473614957385028"><ele>821.4</ele><time>2026-04-23T10:00:53Z</time></trkpt><trkpt lat="42.36941417722563" lon="13.473518767862334"><ele>819.5999999999999</ele><time>2026-04-23T10:00:54Z</time></trkpt><trkpt lat="42.36945336637632" lon="13.47332611445143"><ele>817.8</ele><time>2026-04-23T10:00:56Z</time></trkpt><trkpt lat="42.36942995554105" lon="13.47315529777099"><ele>816.0</ele><time>2026-04-23T10:00:58Z</time></trkpt><trkpt lat="42.36942909203023" lon="13.473045931425188"><ele>814.1999999999999</ele><time>2026-04-23T10:00:59Z</time></trkpt><trkpt lat="42.36940468826724" lon="13.472933805171115"><ele>812.4</ele><time>2026-04-23T10:01:00Z</time></trkpt><trkpt lat="42.36937342810005" lon="13.472787848055892"><ele>810.6</ele><time>2026-04-23T10:01:01Z</time></trkpt><trkpt lat="42.369397102486175" lon="13.472643969034605"><ele>808.8</ele><time>2026-04-23T10:01:03Z</time></trkpt><trkpt lat="42.36943302131032" lon="13.472534634965838"><ele>807.0</ele><time>2026-04-23T10:01:04Z</time></trkpt><trkpt lat="42.36947607652465" lon="13.472436988410388"><ele>807.0</ele><time>2026-04-23T10:01:05Z</time></trkpt><trkpt lat="42.36952649448238" lon="13.472348048811739"><ele>807.0</ele><time>2026-04-23T10:01:06Z</time></trkpt><trkpt lat="42.36958660439883" lon="13.472291917627109"><ele>807.0</ele><time>2026-04-23T10:01:07Z</time></trkpt><trkpt lat="42.36967926825896" lon="13.472262406582178"><ele>807.0</ele><time>2026-04-23T10:01:08Z</time></trkpt><trkpt lat="42.36976339445177" lon="13.472183859676473"><ele>807.0</ele><time>2026-04-23T10:01:09Z</time></trkpt><trkpt lat="42.36985774910582" lon="13.472096942954826"><ele>805.0</ele><time>2026-04-23T10:01:10Z</time></trkpt><trkpt lat="42.36994992281811" lon="13.472012035230316"><ele>803.0</ele><time>2026-04-23T10:01:11Z</time></trkpt><trkpt lat="42.37004005602781" lon="13.47192885211109"><ele>801.0</ele><time>2026-04-23T10:01:12Z</time></trkpt><trkpt lat="42.37013216743596" lon="13.471843081914779"><ele>799.0</ele><time>2026-04-23T10:01:13Z</time></trkpt><trkpt lat="42.370229894360264" lon="13.471753879119698"><ele>799.0</ele><time>2026-04-23T10:01:14Z</time></trkpt><trkpt lat="42.37031515656087" lon="13.471678625746536"><ele>799.0</ele><time>2026-04-23T10:01:15Z</time></trkpt><trkpt lat="42.37039687895744" lon="13.47160496149928"><ele>799.0</ele><time>2026-04-23T10:01:16Z</time></trkpt><trkpt lat="42.37047375334437" lon="13.471531649874267"><ele>799.0</ele><time>2026-04-23T10:01:17Z</time></trkpt><trkpt lat="42.37055752758758" lon="13.471463499603537"><ele>799.0</ele><time>2026-04-23T10:01:18Z</time></trkpt><trkpt lat="42.37065223987377" lon="13.471402566349463"><ele>799.8333333333333</ele><time>2026-04-23T10:01:19Z</time></trkpt><trkpt lat="42.37073732388372" lon="13.471356116697322"><ele>800.6666666666666</ele><time>2026-04-23T10:01:19.999Z</time></trkpt><trkpt lat="42.37082471890807" lon="13.47131733139525"><ele>801.5</ele><time>2026-04-23T10:01:20.999Z</time></trkpt><trkpt lat="42.37090306204453" lon="13.471295300362415"><ele>802.3333333333333</ele><time>2026-04-23T10:01:21.999Z</time></trkpt><trkpt lat="42.3709726781713" lon="13.471294278626544"><ele>803.1666666666666</ele><time>2026-04-23T10:01:22.999Z</time></trkpt><trkpt lat="42.37103908824919" lon="13.4713124470659"><ele>804.0</ele><time>2026-04-23T10:01:23.999Z</time></trkpt><trkpt lat="42.371111604026666" lon="13.471345249957045"><ele>804.0</ele><time>2026-04-23T10:01:24.999Z</time></trkpt><trkpt lat="42.37117786769489" lon="13.471409765002791"><ele>804.0</ele><time>2026-04-23T10:01:25.999Z</time></trkpt><trkpt lat="42.37123723279192" lon="13.47147235309062"><ele>804.0</ele><time>2026-04-23T10:01:26.999Z</time></trkpt><trkpt lat="42.37130366414028" lon="13.47152310617249"><ele>804.0</ele><time>2026-04-23T10:01:27.999Z</time></trkpt><trkpt lat="42.3713989166616" lon="13.471572787618113"><ele>804.0</ele><time>2026-04-23T10:01:29.999Z</time></trkpt><trkpt lat="42.371503450822225" lon="13.47148572959332"><ele>804.1666666666666</ele><time>2026-04-23T10:01:31.999Z</time></trkpt><trkpt lat="42.37153489378404" lon="13.47137075007384"><ele>804.3333333333333</ele><time>2026-04-23T10:01:32.999Z</time></trkpt><trkpt lat="42.371538624309075" lon="13.471237729315263"><ele>804.5</ele><time>2026-04-23T10:01:33.999Z</time></trkpt><trkpt lat="42.37156112338467" lon="13.471120565228066"><ele>804.6666666666666</ele><time>2026-04-23T10:01:34.999Z</time></trkpt><trkpt lat="42.371597187507454" lon="13.471016601549358"><ele>804.8333333333333</ele><time>2026-04-23T10:01:35.999Z</time></trkpt><trkpt lat="42.371643208587074" lon="13.470939577704746"><ele>805.0</ele><time>2026-04-23T10:01:36.999Z</time></trkpt><trkpt lat="42.37170436035593" lon="13.47089043801533"><ele>801.3333333333333</ele><time>2026-04-23T10:01:37.999Z</time></trkpt><trkpt lat="42.371774690774785" lon="13.470877559267679"><ele>797.6666666666666</ele><time>2026-04-23T10:01:38.999Z</time></trkpt><trkpt lat="42.37185691312955" lon="13.470892588196104"><ele>794.0</ele><time>2026-04-23T10:01:39.999Z</time></trkpt><trkpt lat="42.371943911289165" lon="13.470929388843203"><ele>790.3333333333333</ele><time>2026-04-23T10:01:40.999Z</time></trkpt><trkpt lat="42.37203195794779" lon="13.470990410540976"><ele>786.6666666666666</ele><time>2026-04-23T10:01:41.999Z</time></trkpt><trkpt lat="42.37211109819739" lon="13.47104515933229"><ele>783.0</ele><time>2026-04-23T10:01:42.999Z</time></trkpt><trkpt lat="42.37217399062653" lon="13.471069371386477"><ele>786.4</ele><time>2026-04-23T10:01:43.999Z</time></trkpt><trkpt lat="42.37227222368362" lon="13.47097757063306"><ele>789.8</ele><time>2026-04-23T10:01:45.999Z</time></trkpt><trkpt lat="42.37231581469072" lon="13.470900330563035"><ele>793.2</ele><time>2026-04-23T10:01:46.999Z</time></trkpt><trkpt lat="42.37230027005628" lon="13.47076047638453"><ele>796.6</ele><time>2026-04-23T10:01:47.999Z</time></trkpt><trkpt lat="42.37228160715208" lon="13.47062343170368"><ele>800.0</ele><time>2026-04-23T10:01:48.999Z</time></trkpt><trkpt lat="42.372259420391146" lon="13.470493093040464"><ele>798.6666666666667</ele><time>2026-04-23T10:01:49.999Z</time></trkpt><trkpt lat="42.372233508164896" lon="13.470369973872739"><ele>797.3333333333334</ele><time>2026-04-23T10:01:50.999Z</time></trkpt><trkpt lat="42.37221145037852" lon="13.47024799583107"><ele>796.0</ele><time>2026-04-23T10:01:51.999Z</time></trkpt><trkpt lat="42.37220017915571" lon="13.470132340927314"><ele>794.6666666666667</ele><time>2026-04-23T10:01:52.999Z</time></trkpt><trkpt lat="42.37219212761311" lon="13.470022709793593"><ele>793.3333333333334</ele><time>2026-04-23T10:01:53.999Z</time></trkpt><trkpt lat="42.37218321422897" lon="13.469900008633259"><ele>792.0</ele><time>2026-04-23T10:01:54.999Z</time></trkpt><trkpt lat="42.3722039171595" lon="13.469750440088097"><ele>792.0</ele><time>2026-04-23T10:01:56.999Z</time></trkpt><trkpt lat="42.372233974838856" lon="13.469665683214892"><ele>792.0</ele><time>2026-04-23T10:01:58Z</time></trkpt><trkpt lat="42.37227516183728" lon="13.469577452242431"><ele>792.0</ele><time>2026-04-23T10:01:59Z</time></trkpt><trkpt lat="42.372333026399794" lon="13.469490789421627"><ele>792.0</ele><time>2026-04-23T10:02:00Z</time></trkpt><trkpt lat="42.372406017142225" lon="13.469401482477338"><ele>792.0</ele><time>2026-04-23T10:02:01Z</time></trkpt><trkpt lat="42.37249411173152" lon="13.469300595028068"><ele>792.0</ele><time>2026-04-23T10:02:02Z</time></trkpt><trkpt lat="42.37257963247149" lon="13.469191142411804"><ele>787.25</ele><time>2026-04-23T10:02:03Z</time></trkpt><trkpt lat="42.372668024561285" lon="13.469093765382478"><ele>782.5</ele><time>2026-04-23T10:02:04Z</time></trkpt><trkpt lat="42.37276207351157" lon="13.469004528987757"><ele>777.75</ele><time>2026-04-23T10:02:05Z</time></trkpt><trkpt lat="42.37285971360659" lon="13.468919025102045"><ele>773.0</ele><time>2026-04-23T10:02:06Z</time></trkpt><trkpt lat="42.372960134872386" lon="13.468846444007449"><ele>771.5</ele><time>2026-04-23T10:02:07Z</time></trkpt><trkpt lat="42.37307319561311" lon="13.468799495552409"><ele>770.0</ele><time>2026-04-23T10:02:08Z</time></trkpt><trkpt lat="42.37317765652852" lon="13.468722291280459"><ele>768.5</ele><time>2026-04-23T10:02:09Z</time></trkpt><trkpt lat="42.37328827978621" lon="13.468674749665857"><ele>767.0</ele><time>2026-04-23T10:02:10Z</time></trkpt><trkpt lat="42.37339851604851" lon="13.468606072928026"><ele>767.0</ele><time>2026-04-23T10:02:11Z</time></trkpt><trkpt lat="42.373498135264924" lon="13.468542810108211"><ele>767.0</ele><time>2026-04-23T10:02:12Z</time></trkpt><trkpt lat="42.37358790895349" lon="13.468475769572054"><ele>767.0</ele><time>2026-04-23T10:02:13Z</time></trkpt><trkpt lat="42.37368608225712" lon="13.468428126249018"><ele>767.0</ele><time>2026-04-23T10:02:14Z</time></trkpt><trkpt lat="42.37379590702465" lon="13.46839780163748"><ele>767.0</ele><time>2026-04-23T10:02:15Z</time></trkpt><trkpt lat="42.373913145852526" lon="13.468387202789923"><ele>768.6</ele><time>2026-04-23T10:02:16Z</time></trkpt><trkpt lat="42.37403059456974" lon="13.468381788709477"><ele>770.2</ele><time>2026-04-23T10:02:17Z</time></trkpt><trkpt lat="42.37414016052882" lon="13.46838294910296"><ele>771.8</ele><time>2026-04-23T10:02:18Z</time></trkpt><trkpt lat="42.37425420896505" lon="13.468387280657684"><ele>773.4</ele><time>2026-04-23T10:02:19Z</time></trkpt><trkpt lat="42.374359462446904" lon="13.468380569821603"><ele>775.0</ele><time>2026-04-23T10:02:20Z</time></trkpt><trkpt lat="42.374452987124414" lon="13.468353098152686"><ele>774.9999999999999</ele><time>2026-04-23T10:02:21Z</time></trkpt><trkpt lat="42.37453081952964" lon="13.468307108745837"><ele>775.0</ele><time>2026-04-23T10:02:22Z</time></trkpt><trkpt lat="42.37460203580466" lon="13.46823722063415"><ele>775.0</ele><time>2026-04-23T10:02:23Z</time></trkpt><trkpt lat="42.374639652172945" lon="13.46816607815656"><ele>775.0</ele><time>2026-04-23T10:02:24Z</time></trkpt><trkpt lat="42.374674980278286" lon="13.468016171187388"><ele>774.9999999999999</ele><time>2026-04-23T10:02:26Z</time></trkpt><trkpt lat="42.37464067724257" lon="13.467920317976594"><ele>775.0</ele><time>2026-04-23T10:02:27Z</time></trkpt><trkpt lat="42.37457915397425" lon="13.467861833349724"><ele>771.8</ele><time>2026-04-23T10:02:28Z</time></trkpt><trkpt lat="42.37450890088132" lon="13.467797418963489"><ele>768.6</ele><time>2026-04-23T10:02:29Z</time></trkpt><trkpt lat="42.37443222507724" lon="13.467743870084403"><ele>765.4000000000001</ele><time>2026-04-23T10:02:30Z</time></trkpt><trkpt lat="42.37434173684284" lon="13.467676132754871"><ele>762.2</ele><time>2026-04-23T10:02:31Z</time></trkpt><trkpt lat="42.37425525820965" lon="13.46759598952427"><ele>759.0</ele><time>2026-04-23T10:02:32Z</time></trkpt><trkpt lat="42.374163708757415" lon="13.467516752574262"><ele>759.0</ele><time>2026-04-23T10:02:33Z</time></trkpt><trkpt lat="42.3740827429821" lon="13.46745562227187"><ele>759.0</ele><time>2026-04-23T10:02:34Z</time></trkpt><trkpt lat="42.37399773857729" lon="13.467400918174885"><ele>759.0</ele><time>2026-04-23T10:02:35Z</time></trkpt><trkpt lat="42.373922246887744" lon="13.467373563775222"><ele>759.0</ele><time>2026-04-23T10:02:36Z</time></trkpt><trkpt lat="42.37383568343049" lon="13.467369133142762"><ele>759.0</ele><time>2026-04-23T10:02:37Z</time></trkpt><trkpt lat="42.37373742796454" lon="13.467389848652779"><ele>757.4000000000001</ele><time>2026-04-23T10:02:38Z</time></trkpt><trkpt lat="42.3736389426578" lon="13.467444558948308"><ele>755.8</ele><time>2026-04-23T10:02:39Z</time></trkpt><trkpt lat="42.37354900074956" lon="13.467508176453732"><ele>754.2</ele><time>2026-04-23T10:02:40Z</time></trkpt><trkpt lat="42.3734529280084" lon="13.467600096278836"><ele>752.5999999999999</ele><time>2026-04-23T10:02:41Z</time></trkpt><trkpt lat="42.37335336747226" lon="13.467687720915865"><ele>751.0</ele><time>2026-04-23T10:02:42Z</time></trkpt><trkpt lat="42.37324954881084" lon="13.4677432198706"><ele>751.0</ele><time>2026-04-23T10:02:43Z</time></trkpt><trkpt lat="42.373151674518084" lon="13.467770942414742"><ele>751.0</ele><time>2026-04-23T10:02:44Z</time></trkpt><trkpt lat="42.37304755878408" lon="13.467784597984146"><ele>751.0</ele><time>2026-04-23T10:02:45Z</time></trkpt><trkpt lat="42.37294141196596" lon="13.467803709715158"><ele>751.0</ele><time>2026-04-23T10:02:46Z</time></trkpt><trkpt lat="42.37282396217405" lon="13.46783181424184"><ele>751.0</ele><time>2026-04-23T10:02:47Z</time></trkpt><trkpt lat="42.37271493647924" lon="13.467889643050212"><ele>752.25</ele><time>2026-04-23T10:02:48Z</time></trkpt><trkpt lat="42.37261570594472" lon="13.467982728299766"><ele>753.5</ele><time>2026-04-23T10:02:49Z</time></trkpt><trkpt lat="42.37250847950912" lon="13.468069470873619"><ele>754.75</ele><time>2026-04-23T10:02:50Z</time></trkpt><trkpt lat="42.37240332971023" lon="13.468145077320049"><ele>756.0</ele><time>2026-04-23T10:02:51Z</time></trkpt><trkpt lat="42.372302625941764" lon="13.468193502113373"><ele>756.0</ele><time>2026-04-23T10:02:52Z</time></trkpt><trkpt lat="42.3721994261081" lon="13.468232641302128"><ele>756.0</ele><time>2026-04-23T10:02:53Z</time></trkpt><trkpt lat="42.37209068232073" lon="13.468270846973464"><ele>756.0</ele><time>2026-04-23T10:02:54Z</time></trkpt><trkpt lat="42.37197077207141" lon="13.468312975825881"><ele>756.0</ele><time>2026-04-23T10:02:55Z</time></trkpt><trkpt lat="42.37184873844257" lon="13.46835546475372"><ele>752.5</ele><time>2026-04-23T10:02:56Z</time></trkpt><trkpt lat="42.37173540630336" lon="13.468397886580071"><ele>749.0</ele><time>2026-04-23T10:02:57Z</time></trkpt><trkpt lat="42.3716272003829" lon="13.468462310038815"><ele>745.5</ele><time>2026-04-23T10:02:58Z</time></trkpt><trkpt lat="42.37151737402004" lon="13.468546503710389"><ele>742.0</ele><time>2026-04-23T10:02:59Z</time></trkpt><trkpt lat="42.3714328033356" lon="13.468644621428536"><ele>742.0</ele><time>2026-04-23T10:03:00Z</time></trkpt><trkpt lat="42.371383614545714" lon="13.468757027896979"><ele>742.0</ele><time>2026-04-23T10:03:01Z</time></trkpt><trkpt lat="42.37134843864043" lon="13.468853740034826"><ele>742.0</ele><time>2026-04-23T10:03:02Z</time></trkpt><trkpt lat="42.37130159541698" lon="13.468941604351935"><ele>742.0</ele><time>2026-04-23T10:03:03Z</time></trkpt><trkpt lat="42.37125411528688" lon="13.469032922213556"><ele>742.0</ele><time>2026-04-23T10:03:04Z</time></trkpt><trkpt lat="42.371190379855136" lon="13.469092708451067"><ele>742.0</ele><time>2026-04-23T10:03:05Z</time></trkpt><trkpt lat="42.371104307670294" lon="13.469119219629953"><ele>741.2</ele><time>2026-04-23T10:03:06Z</time></trkpt><trkpt lat="42.371002024348385" lon="13.469150797864602"><ele>740.4000000000001</ele><time>2026-04-23T10:03:07Z</time></trkpt><trkpt lat="42.37090118103999" lon="13.469173986177989"><ele>739.5999999999999</ele><time>2026-04-23T10:03:08Z</time></trkpt><trkpt lat="42.370796632754285" lon="13.469190401025607"><ele>738.8</ele><time>2026-04-23T10:03:09Z</time></trkpt><trkpt lat="42.37068157886442" lon="13.469199503862002"><ele>738.0</ele><time>2026-04-23T10:03:10Z</time></trkpt><trkpt lat="42.37056248148084" lon="13.469211060287918"><ele>737.25</ele><time>2026-04-23T10:03:11Z</time></trkpt><trkpt lat="42.37043600430687" lon="13.46922641434552"><ele>736.5</ele><time>2026-04-23T10:03:12Z</time></trkpt><trkpt lat="42.37031013469273" lon="13.469255779729783"><ele>735.75</ele><time>2026-04-23T10:03:13Z</time></trkpt><trkpt lat="42.37017620520311" lon="13.469296126734411"><ele>735.0</ele><time>2026-04-23T10:03:14Z</time></trkpt><trkpt lat="42.370049767558854" lon="13.469333127023948"><ele>735.0</ele><time>2026-04-23T10:03:15Z</time></trkpt><trkpt lat="42.369928091747845" lon="13.469352315424556"><ele>735.0</ele><time>2026-04-23T10:03:16Z</time></trkpt><trkpt lat="42.369823200333286" lon="13.469350761246858"><ele>735.0</ele><time>2026-04-23T10:03:17Z</time></trkpt><trkpt lat="42.369726708855914" lon="13.469329432966038"><ele>735.0</ele><time>2026-04-23T10:03:18Z</time></trkpt><trkpt lat="42.36962698917088" lon="13.469292336116405"><ele>735.0</ele><time>2026-04-23T10:03:19Z</time></trkpt><trkpt lat="42.369508919608705" lon="13.469278101578906"><ele>733.5</ele><time>2026-04-23T10:03:20Z</time></trkpt><trkpt lat="42.369386974149904" lon="13.469256936455892"><ele>732.0</ele><time>2026-04-23T10:03:20.999Z</time></trkpt><trkpt lat="42.3692691602927" lon="13.469223755323156"><ele>730.5</ele><time>2026-04-23T10:03:21.999Z</time></trkpt><trkpt lat="42.36915512560377" lon="13.46919611377421"><ele>729.0</ele><time>2026-04-23T10:03:22.999Z</time></trkpt><trkpt lat="42.36904712042794" lon="13.469170244722532"><ele>729.0</ele><time>2026-04-23T10:03:23.999Z</time></trkpt><trkpt lat="42.36894074949748" lon="13.469135146128142"><ele>729.0</ele><time>2026-04-23T10:03:24.999Z</time></trkpt><trkpt lat="42.36883909391203" lon="13.46908678310318"><ele>729.0</ele><time>2026-04-23T10:03:25.999Z</time></trkpt><trkpt lat="42.36872770548689" lon="13.469037098042556"><ele>729.0</ele><time>2026-04-23T10:03:26.999Z</time></trkpt><trkpt lat="42.36862174109613" lon="13.469005704949133"><ele>729.0</ele><time>2026-04-23T10:03:27.999Z</time></trkpt><trkpt lat="42.36850957158293" lon="13.468986423585427"><ele>727.75</ele><time>2026-04-23T10:03:28.999Z</time></trkpt><trkpt lat="42.36839167583189" lon="13.46898857815128"><ele>726.5</ele><time>2026-04-23T10:03:29.999Z</time></trkpt><trkpt lat="42.36826183186017" lon="13.469010012313996"><ele>725.25</ele><time>2026-04-23T10:03:30.999Z</time></trkpt><trkpt lat="42.3681344225865" lon="13.46904524262475"><ele>724.0</ele><time>2026-04-23T10:03:31.999Z</time></trkpt><trkpt lat="42.36800777842619" lon="13.469083942700472"><ele>721.0</ele><time>2026-04-23T10:03:32.999Z</time></trkpt><trkpt lat="42.367893241510544" lon="13.46911894262962"><ele>718.0</ele><time>2026-04-23T10:03:33.999Z</time></trkpt><trkpt lat="42.36768522603721" lon="13.469220492238106"><ele>715.0</ele><time>2026-04-23T10:03:35.999Z</time></trkpt><trkpt lat="42.36758736332516" lon="13.469309170745852"><ele>715.0</ele><time>2026-04-23T10:03:36.999Z</time></trkpt><trkpt lat="42.36750268670195" lon="13.469370400979756"><ele>715.0</ele><time>2026-04-23T10:03:37.999Z</time></trkpt><trkpt lat="42.36743180019135" lon="13.46939262705657"><ele>715.0</ele><time>2026-04-23T10:03:38.999Z</time></trkpt><trkpt lat="42.36732679538956" lon="13.4693536187809"><ele>715.0</ele><time>2026-04-23T10:03:40.999Z</time></trkpt><trkpt lat="42.36727146219007" lon="13.469269849268358"><ele>715.0</ele><time>2026-04-23T10:03:41.999Z</time></trkpt><trkpt lat="42.36716891029267" lon="13.469165393209952"><ele>715.25</ele><time>2026-04-23T10:03:42.999Z</time></trkpt><trkpt lat="42.367066135260444" lon="13.469061701417173"><ele>715.5</ele><time>2026-04-23T10:03:43.999Z</time></trkpt><trkpt lat="42.366963032162566" lon="13.468978598426562"><ele>715.75</ele><time>2026-04-23T10:03:44.999Z</time></trkpt><trkpt lat="42.36685941962865" lon="13.468908878783601"><ele>716.0</ele><time>2026-04-23T10:03:45.999Z</time></trkpt><trkpt lat="42.36675141257874" lon="13.468838566056256"><ele>713.25</ele><time>2026-04-23T10:03:46.999Z</time></trkpt><trkpt lat="42.36664522820889" lon="13.468770999880705"><ele>710.5</ele><time>2026-04-23T10:03:47.999Z</time></trkpt><trkpt lat="42.36653024810458" lon="13.468714801963323"><ele>707.75</ele><time>2026-04-23T10:03:48.999Z</time></trkpt><trkpt lat="42.36641066245942" lon="13.46867143585924"><ele>705.0</ele><time>2026-04-23T10:03:49.999Z</time></trkpt><trkpt lat="42.3663029985563" lon="13.4686260161551"><ele>703.75</ele><time>2026-04-23T10:03:50.999Z</time></trkpt><trkpt lat="42.366210875857696" lon="13.468573649376907"><ele>702.5</ele><time>2026-04-23T10:03:51.999Z</time></trkpt><trkpt lat="42.366110575860375" lon="13.468510561474824"><ele>701.25</ele><time>2026-04-23T10:03:52.999Z</time></trkpt><trkpt lat="42.36600360824528" lon="13.468445262376989"><ele>700.0</ele><time>2026-04-23T10:03:53.999Z</time></trkpt><trkpt lat="42.36588918555647" lon="13.46838261537221"><ele>700.0</ele><time>2026-04-23T10:03:54.999Z</time></trkpt><trkpt lat="42.36576413229714" lon="13.468336487854785"><ele>700.0</ele><time>2026-04-23T10:03:55.999Z</time></trkpt><trkpt lat="42.36566022398297" lon="13.468260457662579"><ele>700.0</ele><time>2026-04-23T10:03:56.999Z</time></trkpt><trkpt lat="42.365565547629906" lon="13.468229933314268"><ele>700.0</ele><time>2026-04-23T10:03:57.999Z</time></trkpt><trkpt lat="42.36550774707424" lon="13.468164050139949"><ele>700.0</ele><time>2026-04-23T10:03:58.999Z</time></trkpt><trkpt lat="42.36538885108577" lon="13.468078815021757"><ele>698.6</ele><time>2026-04-23T10:04:00.999Z</time></trkpt><trkpt lat="42.36532057336853" lon="13.468043986917532"><ele>697.2</ele><time>2026-04-23T10:04:01.999Z</time></trkpt><trkpt lat="42.36519199689105" lon="13.468055454894904"><ele>695.8</ele><time>2026-04-23T10:04:04Z</time></trkpt><trkpt lat="42.36515368174607" lon="13.468138803366227"><ele>694.4</ele><time>2026-04-23T10:04:05Z</time></trkpt><trkpt lat="42.36504252081258" lon="13.468306109711966"><ele>693.0</ele><time>2026-04-23T10:04:07Z</time></trkpt><trkpt lat="42.364975223145215" lon="13.4683591656689"><ele>693.0</ele><time>2026-04-23T10:04:08Z</time></trkpt><trkpt lat="42.36489903390107" lon="13.468386153493354"><ele>693.0</ele><time>2026-04-23T10:04:09Z</time></trkpt><trkpt lat="42.36482440124671" lon="13.468391018734806"><ele>693.0</ele><time>2026-04-23T10:04:10Z</time></trkpt><trkpt lat="42.36476100497113" lon="13.468344396196732"><ele>693.0</ele><time>2026-04-23T10:04:11Z</time></trkpt><trkpt lat="42.36469308181845" lon="13.468315988612888"><ele>693.0</ele><time>2026-04-23T10:04:12Z</time></trkpt><trkpt lat="42.364630417194846" lon="13.468258387871247"><ele>693.0</ele><time>2026-04-23T10:04:13Z</time></trkpt><trkpt lat="42.36457108334455" lon="13.468196865352668"><ele>693.0</ele><time>2026-04-23T10:04:14Z</time></trkpt><trkpt lat="42.364505033422944" lon="13.468122567433827"><ele>690.6666666666666</ele><time>2026-04-23T10:04:15Z</time></trkpt><trkpt lat="42.364431601707736" lon="13.468063865563552"><ele>688.3333333333334</ele><time>2026-04-23T10:04:16Z</time></trkpt><trkpt lat="42.36437688328387" lon="13.46797652956674"><ele>686.0</ele><time>2026-04-23T10:04:17Z</time></trkpt><trkpt lat="42.36431112178907" lon="13.467901541916588"><ele>683.6666666666667</ele><time>2026-04-23T10:04:18Z</time></trkpt><trkpt lat="42.36424345764987" lon="13.467825163306463"><ele>681.3333333333334</ele><time>2026-04-23T10:04:19Z</time></trkpt><trkpt lat="42.364177453900126" lon="13.467754631124377"><ele>679.0</ele><time>2026-04-23T10:04:20Z</time></trkpt><trkpt lat="42.36410862943481" lon="13.467688712281998"><ele>677.8571428571429</ele><time>2026-04-23T10:04:21Z</time></trkpt><trkpt lat="42.364041819547616" lon="13.467625997411893"><ele>676.7142857142858</ele><time>2026-04-23T10:04:22Z</time></trkpt><trkpt lat="42.36397761184412" lon="13.467565725226486"><ele>675.5714285714286</ele><time>2026-04-23T10:04:23Z</time></trkpt><trkpt lat="42.36391097064811" lon="13.467503169282388"><ele>674.4285714285714</ele><time>2026-04-23T10:04:24Z</time></trkpt><trkpt lat="42.36384966254244" lon="13.467444413970552"><ele>673.2857142857143</ele><time>2026-04-23T10:04:25Z</time></trkpt><trkpt lat="42.36379491670225" lon="13.467392372356317"><ele>672.1428571428571</ele><time>2026-04-23T10:04:26Z</time></trkpt><trkpt lat="42.36374053428187" lon="13.467340195749937"><ele>671.0</ele><time>2026-04-23T10:04:27Z</time></trkpt><trkpt lat="42.36364146876665" lon="13.467245350482907"><ele>669.75</ele><time>2026-04-23T10:04:29Z</time></trkpt><trkpt lat="42.363544785334724" lon="13.467152785856983"><ele>668.5</ele><time>2026-04-23T10:04:31Z</time></trkpt><trkpt lat="42.36344809149197" lon="13.467065507508496"><ele>667.25</ele><time>2026-04-23T10:04:33Z</time></trkpt><trkpt lat="42.363376497308835" lon="13.46700930242772"><ele>666.0</ele><time>2026-04-23T10:04:35Z</time></trkpt><trkpt lat="42.36323534703746" lon="13.467189305297218"><ele>666.0</ele><time>2026-04-23T10:04:40Z</time></trkpt><trkpt lat="42.36317687559445" lon="13.467282599672675"><ele>666.0</ele><time>2026-04-23T10:04:41Z</time></trkpt><trkpt lat="42.3631133653183" lon="13.467383922005952"><ele>666.0</ele><time>2026-04-23T10:04:42Z</time></trkpt><trkpt lat="42.363055710568176" lon="13.467505105159308"><ele>666.0</ele><time>2026-04-23T10:04:43Z</time></trkpt><trkpt lat="42.36298056204053" lon="13.467606689561917"><ele>666.0</ele><time>2026-04-23T10:04:44Z</time></trkpt><trkpt lat="42.36290191978053" lon="13.467698078382561"><ele>666.1999999999999</ele><time>2026-04-23T10:04:45Z</time></trkpt><trkpt lat="42.36282167366631" lon="13.467788211526392"><ele>666.4</ele><time>2026-04-23T10:04:46Z</time></trkpt><trkpt lat="42.36273600397494" lon="13.467882618312032"><ele>666.6</ele><time>2026-04-23T10:04:47Z</time></trkpt><trkpt lat="42.36265088830625" lon="13.467976843007133"><ele>666.8</ele><time>2026-04-23T10:04:48Z</time></trkpt><trkpt lat="42.36256389337612" lon="13.468063734622294"><ele>667.0</ele><time>2026-04-23T10:04:49Z</time></trkpt><trkpt lat="42.36247387769348" lon="13.468151280014567"><ele>667.0</ele><time>2026-04-23T10:04:50Z</time></trkpt><trkpt lat="42.36239233222451" lon="13.468209460358672"><ele>667.0</ele><time>2026-04-23T10:04:51Z</time></trkpt><trkpt lat="42.36230536029794" lon="13.468249410201494"><ele>667.0</ele><time>2026-04-23T10:04:52Z</time></trkpt><trkpt lat="42.3622162562662" lon="13.468306232777657"><ele>667.0</ele><time>2026-04-23T10:04:53Z</time></trkpt><trkpt lat="42.36212834515648" lon="13.468360561800635"><ele>667.0</ele><time>2026-04-23T10:04:54Z</time></trkpt><trkpt lat="42.36204661647026" lon="13.468394923599899"><ele>667.0</ele><time>2026-04-23T10:04:55Z</time></trkpt><trkpt lat="42.36197285334577" lon="13.468433193852798"><ele>667.0</ele><time>2026-04-23T10:04:56Z</time></trkpt><trkpt lat="42.36191747019431" lon="13.46848836911025"><ele>667.0</ele><time>2026-04-23T10:04:57Z</time></trkpt><trkpt lat="42.36185424420298" lon="13.468543839822686"><ele>667.0</ele><time>2026-04-23T10:04:58Z</time></trkpt><trkpt lat="42.361802578081324" lon="13.468627207923017"><ele>667.0</ele><time>2026-04-23T10:04:59Z</time></trkpt><trkpt lat="42.36172166069536" lon="13.468782923566867"><ele>667.0</ele><time>2026-04-23T10:05:01Z</time></trkpt><trkpt lat="42.36166269531758" lon="13.468858054604096"><ele>667.0000000000001</ele><time>2026-04-23T10:05:03Z</time></trkpt><trkpt lat="42.36161472010524" lon="13.468958448174908"><ele>667.0</ele><time>2026-04-23T10:05:06Z</time></trkpt><trkpt lat="42.361562743936446" lon="13.469017561215"><ele>667.0</ele><time>2026-04-23T10:05:08Z</time></trkpt><trkpt lat="42.361534544724606" lon="13.469094524421775"><ele>667.0</ele><time>2026-04-23T10:05:12Z</time></trkpt><trkpt lat="42.361495385548096" lon="13.469165364503512"><ele>667.0</ele><time>2026-04-23T10:05:14Z</time></trkpt><trkpt lat="42.36142627502362" lon="13.469254589310909"><ele>667.0000000000001</ele><time>2026-04-23T10:05:16Z</time></trkpt><trkpt lat="42.36138340520948" lon="13.469323930791367"><ele>667.0</ele><time>2026-04-23T10:05:18Z</time></trkpt><trkpt lat="42.361328787735644" lon="13.469412799715348"><ele>667.0</ele><time>2026-04-23T10:05:21Z</time></trkpt><trkpt lat="42.36125863545917" lon="13.469530876792483"><ele>667.0</ele><time>2026-04-23T10:05:23Z</time></trkpt><trkpt lat="42.36117598673174" lon="13.46966998735981"><ele>667.0</ele><time>2026-04-23T10:05:25Z</time></trkpt><trkpt lat="42.361133264111096" lon="13.469741896172781"><ele>667.0</ele><time>2026-04-23T10:05:26Z</time></trkpt><trkpt lat="42.36109126344347" lon="13.469812589741037"><ele>667.0</ele><time>2026-04-23T10:05:27Z</time></trkpt><trkpt lat="42.36104466011727" lon="13.469891035168622"><ele>667.0</ele><time>2026-04-23T10:05:28Z</time></trkpt><trkpt lat="42.361015054583724" lon="13.469992222134026"><ele>667.0</ele><time>2026-04-23T10:05:29Z</time></trkpt><trkpt lat="42.36097786120085" lon="13.470084993154453"><ele>667.0</ele><time>2026-04-23T10:05:30Z</time></trkpt><trkpt lat="42.36093736815046" lon="13.470188416840339"><ele>667.0</ele><time>2026-04-23T10:05:31Z</time></trkpt><trkpt lat="42.36089849127232" lon="13.470287712566286"><ele>667.0</ele><time>2026-04-23T10:05:32Z</time></trkpt><trkpt lat="42.36085828125692" lon="13.470387286800019"><ele>667.0</ele><time>2026-04-23T10:05:33Z</time></trkpt><trkpt lat="42.360821024274784" lon="13.47047628251964"><ele>667.3333333333334</ele><time>2026-04-23T10:05:34Z</time></trkpt><trkpt lat="42.36078251175711" lon="13.470567692747531"><ele>667.6666666666667</ele><time>2026-04-23T10:05:34.999Z</time></trkpt><trkpt lat="42.36074407468618" lon="13.47066898427042"><ele>668.0</ele><time>2026-04-23T10:05:35.999Z</time></trkpt><trkpt lat="42.360708434891784" lon="13.470774015436946"><ele>668.3333333333334</ele><time>2026-04-23T10:05:36.999Z</time></trkpt><trkpt lat="42.36068209500608" lon="13.470867927528897"><ele>668.6666666666666</ele><time>2026-04-23T10:05:37.999Z</time></trkpt><trkpt lat="42.36066240341441" lon="13.470953530822882"><ele>669.0</ele><time>2026-04-23T10:05:38.999Z</time></trkpt><trkpt lat="42.36064795843616" lon="13.47108235938239"><ele>667.8000000000001</ele><time>2026-04-23T10:05:40.999Z</time></trkpt><trkpt lat="42.360473082555416" lon="13.470998459196847"><ele>666.6</ele><time>2026-04-23T10:05:44.999Z</time></trkpt><trkpt lat="42.360411829961414" lon="13.470927645417369"><ele>665.4</ele><time>2026-04-23T10:05:45.999Z</time></trkpt><trkpt lat="42.360341029809135" lon="13.47085755455693"><ele>664.2</ele><time>2026-04-23T10:05:46.999Z</time></trkpt><trkpt lat="42.36027079960236" lon="13.470787015117075"><ele>663.0</ele><time>2026-04-23T10:05:47.999Z</time></trkpt><trkpt lat="42.360209918968444" lon="13.470725586840048"><ele>663.0</ele><time>2026-04-23T10:05:48.999Z</time></trkpt><trkpt lat="42.36015008042983" lon="13.470669046737743"><ele>663.0</ele><time>2026-04-23T10:05:49.999Z</time></trkpt><trkpt lat="42.3600854372122" lon="13.470605504867763"><ele>663.0</ele><time>2026-04-23T10:05:50.999Z</time></trkpt><trkpt lat="42.36001883992862" lon="13.470544006659425"><ele>663.0</ele><time>2026-04-23T10:05:51.999Z</time></trkpt><trkpt lat="42.3599601612776" lon="13.470467974955463"><ele>663.0</ele><time>2026-04-23T10:05:53.999Z</time></trkpt><trkpt lat="42.35981187091682" lon="13.470569110496605"><ele>662.9999999999999</ele><time>2026-04-23T10:05:57.999Z</time></trkpt><trkpt lat="42.35978089130256" lon="13.470660353801739"><ele>663.0</ele><time>2026-04-23T10:05:58.999Z</time></trkpt><trkpt lat="42.35974303291349" lon="13.470745306527398"><ele>663.0</ele><time>2026-04-23T10:05:59.999Z</time></trkpt><trkpt lat="42.3596982939612" lon="13.47082500643458"><ele>663.0</ele><time>2026-04-23T10:06:00.999Z</time></trkpt><trkpt lat="42.35964967924611" lon="13.47089924418681"><ele>663.0</ele><time>2026-04-23T10:06:01.999Z</time></trkpt><trkpt lat="42.35960275671747" lon="13.470974755147"><ele>662.9999999999999</ele><time>2026-04-23T10:06:02.999Z</time></trkpt><trkpt lat="42.359556769372865" lon="13.471050284063718"><ele>663.0</ele><time>2026-04-23T10:06:03.999Z</time></trkpt><trkpt lat="42.35950183948114" lon="13.471115104187236"><ele>662.3333333333334</ele><time>2026-04-23T10:06:04.999Z</time></trkpt><trkpt lat="42.35943590743269" lon="13.471158560139264"><ele>661.6666666666666</ele><time>2026-04-23T10:06:05.999Z</time></trkpt><trkpt lat="42.35936120837499" lon="13.47119062499257"><ele>661.0</ele><time>2026-04-23T10:06:06.999Z</time></trkpt><trkpt lat="42.359280847101324" lon="13.471207318782186"><ele>660.3333333333333</ele><time>2026-04-23T10:06:07.999Z</time></trkpt><trkpt lat="42.35919842835847" lon="13.47120349805926"><ele>659.6666666666666</ele><time>2026-04-23T10:06:08.999Z</time></trkpt><trkpt lat="42.35911739524498" lon="13.471183076353446"><ele>659.0</ele><time>2026-04-23T10:06:10Z</time></trkpt><trkpt lat="42.359037917979464" lon="13.47115054976145"><ele>659.0</ele><time>2026-04-23T10:06:11Z</time></trkpt><trkpt lat="42.358958053630616" lon="13.471114637287327"><ele>659.0</ele><time>2026-04-23T10:06:12Z</time></trkpt><trkpt lat="42.35887132822132" lon="13.471088654917562"><ele>659.0</ele><time>2026-04-23T10:06:13Z</time></trkpt><trkpt lat="42.35879489433722" lon="13.471077511520816"><ele>659.0</ele><time>2026-04-23T10:06:14Z</time></trkpt><trkpt lat="42.358716809912465" lon="13.471078486020195"><ele>659.0</ele><time>2026-04-23T10:06:15Z</time></trkpt><trkpt lat="42.358617090816196" lon="13.471074015520356"><ele>659.0</ele><time>2026-04-23T10:06:16Z</time></trkpt><trkpt lat="42.358535900412114" lon="13.471094367846181"><ele>658.6</ele><time>2026-04-23T10:06:17Z</time></trkpt><trkpt lat="42.35845616892441" lon="13.471119526413405"><ele>658.2</ele><time>2026-04-23T10:06:18Z</time></trkpt><trkpt lat="42.358368076823425" lon="13.47111705577485"><ele>657.8000000000001</ele><time>2026-04-23T10:06:19Z</time></trkpt><trkpt lat="42.358275550452575" lon="13.47110673420953"><ele>657.4000000000001</ele><time>2026-04-23T10:06:20Z</time></trkpt><trkpt lat="42.358177863549855" lon="13.471081332878455"><ele>657.0</ele><time>2026-04-23T10:06:21Z</time></trkpt><trkpt lat="42.35808213350425" lon="13.471040465487945"><ele>656.5</ele><time>2026-04-23T10:06:22Z</time></trkpt><trkpt lat="42.3579831987147" lon="13.471003662006039"><ele>656.0</ele><time>2026-04-23T10:06:23Z</time></trkpt><trkpt lat="42.35787527006783" lon="13.470968364412904"><ele>655.5</ele><time>2026-04-23T10:06:24Z</time></trkpt><trkpt lat="42.35776451613892" lon="13.47092215483398"><ele>655.0</ele><time>2026-04-23T10:06:25Z</time></trkpt><trkpt lat="42.357647327384186" lon="13.470870371281592"><ele>655.0</ele><time>2026-04-23T10:06:26Z</time></trkpt><trkpt lat="42.357539963321535" lon="13.470816185636902"><ele>655.0</ele><time>2026-04-23T10:06:27Z</time></trkpt><trkpt lat="42.35743197706161" lon="13.470770552905716"><ele>655.0</ele><time>2026-04-23T10:06:28Z</time></trkpt><trkpt lat="42.35733104955931" lon="13.470717219152693"><ele>655.0</ele><time>2026-04-23T10:06:29Z</time></trkpt><trkpt lat="42.35722110721086" lon="13.470671182116048"><ele>654.25</ele><time>2026-04-23T10:06:30Z</time></trkpt><trkpt lat="42.3571068659526" lon="13.470633968403897"><ele>653.5</ele><time>2026-04-23T10:06:31Z</time></trkpt><trkpt lat="42.3569818691939" lon="13.470608870037811"><ele>652.75</ele><time>2026-04-23T10:06:32Z</time></trkpt><trkpt lat="42.35684892614734" lon="13.470609731939515"><ele>652.0</ele><time>2026-04-23T10:06:33Z</time></trkpt><trkpt lat="42.35671856953296" lon="13.470605246997023"><ele>652.0</ele><time>2026-04-23T10:06:34Z</time></trkpt><trkpt lat="42.356593987916" lon="13.470611672992696"><ele>652.0</ele><time>2026-04-23T10:06:35Z</time></trkpt><trkpt lat="42.35648287288469" lon="13.470641593950319"><ele>652.0</ele><time>2026-04-23T10:06:36Z</time></trkpt><trkpt lat="42.356382329553725" lon="13.47069412295093"><ele>652.0</ele><time>2026-04-23T10:06:37Z</time></trkpt><trkpt lat="42.35628383608903" lon="13.470738618592941"><ele>651.75</ele><time>2026-04-23T10:06:38Z</time></trkpt><trkpt lat="42.35617819140226" lon="13.470758041384777"><ele>651.5</ele><time>2026-04-23T10:06:39Z</time></trkpt><trkpt lat="42.35606251708317" lon="13.47075554983901"><ele>651.25</ele><time>2026-04-23T10:06:40Z</time></trkpt><trkpt lat="42.355957644815255" lon="13.470688289962979"><ele>651.0</ele><time>2026-04-23T10:06:41Z</time></trkpt><trkpt lat="42.35585557679475" lon="13.470613949643148"><ele>651.0</ele><time>2026-04-23T10:06:42Z</time></trkpt><trkpt lat="42.35575937712482" lon="13.47051772261887"><ele>651.0</ele><time>2026-04-23T10:06:43Z</time></trkpt><trkpt lat="42.35566240284505" lon="13.470403479479117"><ele>651.0</ele><time>2026-04-23T10:06:44Z</time></trkpt><trkpt lat="42.355559598582886" lon="13.470304942073035"><ele>651.0</ele><time>2026-04-23T10:06:45Z</time></trkpt><trkpt lat="42.35547301276593" lon="13.47018402946413"><ele>650.25</ele><time>2026-04-23T10:06:46Z</time></trkpt><trkpt lat="42.35538018360056" lon="13.470078698187974"><ele>649.5</ele><time>2026-04-23T10:06:47Z</time></trkpt><trkpt lat="42.355281952710044" lon="13.46997439305598"><ele>648.75</ele><time>2026-04-23T10:06:48Z</time></trkpt><trkpt lat="42.35517777352497" lon="13.469880595640078"><ele>648.0</ele><time>2026-04-23T10:06:49Z</time></trkpt><trkpt lat="42.35507293800912" lon="13.469784468707518"><ele>648.0</ele><time>2026-04-23T10:06:50Z</time></trkpt><trkpt lat="42.354965409563576" lon="13.469695007360583"><ele>648.0</ele><time>2026-04-23T10:06:51Z</time></trkpt><trkpt lat="42.35485416184815" lon="13.469612769357068"><ele>648.0</ele><time>2026-04-23T10:06:52Z</time></trkpt><trkpt lat="42.35474359229375" lon="13.469532855673608"><ele>648.0</ele><time>2026-04-23T10:06:53Z</time></trkpt><trkpt lat="42.35462650569134" lon="13.469454921127275"><ele>647.0</ele><time>2026-04-23T10:06:54Z</time></trkpt><trkpt lat="42.35451040747432" lon="13.46937473375449"><ele>646.0</ele><time>2026-04-23T10:06:55Z</time></trkpt><trkpt lat="42.35439692986424" lon="13.469279836679084"><ele>645.0</ele><time>2026-04-23T10:06:56Z</time></trkpt><trkpt lat="42.35428666634072" lon="13.469179828532141"><ele>644.0</ele><time>2026-04-23T10:06:57Z</time></trkpt><trkpt lat="42.35418005714996" lon="13.46906865595361"><ele>644.0</ele><time>2026-04-23T10:06:58Z</time></trkpt><trkpt lat="42.35407443522429" lon="13.46896087588902"><ele>644.0</ele><time>2026-04-23T10:06:59Z</time></trkpt><trkpt lat="42.353962617451884" lon="13.468857634219487"><ele>644.0</ele><time>2026-04-23T10:07:00Z</time></trkpt><trkpt lat="42.3538466785894" lon="13.468758478186105"><ele>644.0</ele><time>2026-04-23T10:07:01Z</time></trkpt><trkpt lat="42.35372899713783" lon="13.468662397895837"><ele>643.25</ele><time>2026-04-23T10:07:02Z</time></trkpt><trkpt lat="42.353610146734674" lon="13.468564435887613"><ele>642.5</ele><time>2026-04-23T10:07:03Z</time></trkpt><trkpt lat="42.35349020409776" lon="13.468458942111404"><ele>641.75</ele><time>2026-04-23T10:07:04Z</time></trkpt><trkpt lat="42.35336658838282" lon="13.468358446046942"><ele>641.0</ele><time>2026-04-23T10:07:05Z</time></trkpt><trkpt lat="42.35324327636701" lon="13.468261208187036"><ele>641.0</ele><time>2026-04-23T10:07:06Z</time></trkpt><trkpt lat="42.353116329164465" lon="13.468167900084804"><ele>641.0</ele><time>2026-04-23T10:07:07Z</time></trkpt><trkpt lat="42.35298859972018" lon="13.468076272693475"><ele>641.0</ele><time>2026-04-23T10:07:08Z</time></trkpt><trkpt lat="42.35285984986247" lon="13.46798596995152"><ele>641.0</ele><time>2026-04-23T10:07:09Z</time></trkpt><trkpt lat="42.35273426169047" lon="13.467892987629808"><ele>639.5</ele><time>2026-04-23T10:07:10Z</time></trkpt><trkpt lat="42.35260681356041" lon="13.46780556923051"><ele>638.0</ele><time>2026-04-23T10:07:11Z</time></trkpt><trkpt lat="42.35248173342065" lon="13.467715117046856"><ele>636.5</ele><time>2026-04-23T10:07:12Z</time></trkpt><trkpt lat="42.35235853659176" lon="13.46762283138152"><ele>635.0</ele><time>2026-04-23T10:07:13Z</time></trkpt><trkpt lat="42.35223539075617" lon="13.467536054448269"><ele>634.75</ele><time>2026-04-23T10:07:14Z</time></trkpt><trkpt lat="42.35211414797429" lon="13.467453162163768"><ele>634.5</ele><time>2026-04-23T10:07:15Z</time></trkpt><trkpt lat="42.3519999927391" lon="13.467374553202868"><ele>634.25</ele><time>2026-04-23T10:07:16Z</time></trkpt><trkpt lat="42.35189393981057" lon="13.467305380471279"><ele>634.0</ele><time>2026-04-23T10:07:17Z</time></trkpt><trkpt lat="42.35180880982453" lon="13.467245090723702"><ele>634.0</ele><time>2026-04-23T10:07:18Z</time></trkpt><trkpt lat="42.35175114722494" lon="13.467179852728497"><ele>634.0</ele><time>2026-04-23T10:07:19Z</time></trkpt><trkpt lat="42.35169398315623" lon="13.467138391243328"><ele>634.0</ele><time>2026-04-23T10:07:21Z</time></trkpt><trkpt lat="42.35164891835067" lon="13.46734146760436"><ele>634.0</ele><time>2026-04-23T10:07:22Z</time></trkpt><trkpt lat="42.35162272311272" lon="13.467423307444271"><ele>634.0</ele><time>2026-04-23T10:07:23Z</time></trkpt><trkpt lat="42.35161540900055" lon="13.467543565425078"><ele>634.0</ele><time>2026-04-23T10:07:24Z</time></trkpt><trkpt lat="42.351597807895665" lon="13.46767720870353"><ele>634.0</ele><time>2026-04-23T10:07:25Z</time></trkpt><trkpt lat="42.35157308294771" lon="13.467829729420874"><ele>634.0</ele><time>2026-04-23T10:07:26Z</time></trkpt><trkpt lat="42.351551399045434" lon="13.467976321294707"><ele>634.0</ele><time>2026-04-23T10:07:27Z</time></trkpt><trkpt lat="42.35153104315603" lon="13.46812108576388"><ele>634.0</ele><time>2026-04-23T10:07:28Z</time></trkpt><trkpt lat="42.35150813678407" lon="13.468265453546172"><ele>634.4</ele><time>2026-04-23T10:07:29Z</time></trkpt><trkpt lat="42.35150940271373" lon="13.468395687925163"><ele>634.8</ele><time>2026-04-23T10:07:30Z</time></trkpt><trkpt lat="42.351510052684205" lon="13.468607734777923"><ele>635.2</ele><time>2026-04-23T10:07:32Z</time></trkpt><trkpt lat="42.35149428542481" lon="13.468696785951042"><ele>635.6</ele><time>2026-04-23T10:07:33Z</time></trkpt><trkpt lat="42.351468343148184" lon="13.468791993038145"><ele>636.0</ele><time>2026-04-23T10:07:34Z</time></trkpt><trkpt lat="42.35143272263337" lon="13.468916151553616"><ele>635.0</ele><time>2026-04-23T10:07:35Z</time></trkpt><trkpt lat="42.3513659964767" lon="13.469037419851656"><ele>634.0</ele><time>2026-04-23T10:07:36Z</time></trkpt><trkpt lat="42.351319092093135" lon="13.469157105219955"><ele>633.0</ele><time>2026-04-23T10:07:37Z</time></trkpt><trkpt lat="42.351280686565865" lon="13.469300673542312"><ele>632.0</ele><time>2026-04-23T10:07:38Z</time></trkpt><trkpt lat="42.351227559616746" lon="13.469433835456806"><ele>631.0</ele><time>2026-04-23T10:07:39Z</time></trkpt><trkpt lat="42.351171804761435" lon="13.469571121505757"><ele>631.5</ele><time>2026-04-23T10:07:40Z</time></trkpt><trkpt lat="42.35111749550303" lon="13.469706168982434"><ele>632.0</ele><time>2026-04-23T10:07:41Z</time></trkpt><trkpt lat="42.3510634870092" lon="13.469839828081716"><ele>632.5</ele><time>2026-04-23T10:07:42Z</time></trkpt><trkpt lat="42.35100795218211" lon="13.469974472586848"><ele>633.0</ele><time>2026-04-23T10:07:43Z</time></trkpt><trkpt lat="42.35094954485037" lon="13.470104867413333"><ele>633.0</ele><time>2026-04-23T10:07:44Z</time></trkpt><trkpt lat="42.3508902123527" lon="13.470229018416749"><ele>633.0</ele><time>2026-04-23T10:07:45Z</time></trkpt><trkpt lat="42.35084226849239" lon="13.470348652651749"><ele>633.0</ele><time>2026-04-23T10:07:46Z</time></trkpt><trkpt lat="42.35079046147712" lon="13.470459471452308"><ele>633.0</ele><time>2026-04-23T10:07:47Z</time></trkpt><trkpt lat="42.35074836126439" lon="13.470568326573497"><ele>633.0</ele><time>2026-04-23T10:07:48Z</time></trkpt><trkpt lat="42.35072491778802" lon="13.47068408531961"><ele>633.0</ele><time>2026-04-23T10:07:49Z</time></trkpt><trkpt lat="42.350713809249775" lon="13.470805806652617"><ele>633.0</ele><time>2026-04-23T10:07:50Z</time></trkpt><trkpt lat="42.350704377509416" lon="13.47093868442536"><ele>633.0</ele><time>2026-04-23T10:07:51Z</time></trkpt><trkpt lat="42.35069614986382" lon="13.471061986652987"><ele>633.0</ele><time>2026-04-23T10:07:52Z</time></trkpt><trkpt lat="42.35067506473537" lon="13.471199439843959"><ele>633.0</ele><time>2026-04-23T10:07:53Z</time></trkpt><trkpt lat="42.3506213766757" lon="13.471302562864585"><ele>633.0</ele><time>2026-04-23T10:07:54Z</time></trkpt><trkpt lat="42.350568678954986" lon="13.471416285831303"><ele>633.0</ele><time>2026-04-23T10:07:55Z</time></trkpt><trkpt lat="42.35052340540124" lon="13.471543175041747"><ele>633.0</ele><time>2026-04-23T10:07:56Z</time></trkpt><trkpt lat="42.35046630637425" lon="13.471657568348778"><ele>633.0</ele><time>2026-04-23T10:07:57Z</time></trkpt><trkpt lat="42.35042536528523" lon="13.47177554555046"><ele>633.0</ele><time>2026-04-23T10:07:58Z</time></trkpt><trkpt lat="42.35039975275359" lon="13.471900248735912"><ele>632.8</ele><time>2026-04-23T10:07:59Z</time></trkpt><trkpt lat="42.35037957298738" lon="13.472027110864795"><ele>632.5999999999999</ele><time>2026-04-23T10:08:00Z</time></trkpt><trkpt lat="42.35036026459864" lon="13.472128352967058"><ele>632.4000000000001</ele><time>2026-04-23T10:08:01Z</time></trkpt><trkpt lat="42.35032339736949" lon="13.472215598386121"><ele>632.2</ele><time>2026-04-23T10:08:13.999Z</time></trkpt><trkpt lat="42.35045844976603" lon="13.472310044510893"><ele>632.0</ele><time>2026-04-23T10:08:16Z</time></trkpt><trkpt lat="42.3505362136066" lon="13.4723264176624"><ele>632.4</ele><time>2026-04-23T10:08:17Z</time></trkpt><trkpt lat="42.3505985555099" lon="13.472359684776148"><ele>632.8000000000001</ele><time>2026-04-23T10:08:18Z</time></trkpt><trkpt lat="42.3506566943995" lon="13.47252264135484"><ele>633.2</ele><time>2026-04-23T10:08:20Z</time></trkpt><trkpt lat="42.35066855195942" lon="13.472634265066892"><ele>633.6</ele><time>2026-04-23T10:08:21Z</time></trkpt><trkpt lat="42.35068532501557" lon="13.472790312718812"><ele>634.0</ele><time>2026-04-23T10:08:22Z</time></trkpt><trkpt lat="42.35070996920054" lon="13.472940748627629"><ele>634.0</ele><time>2026-04-23T10:08:23Z</time></trkpt><trkpt lat="42.350730608333215" lon="13.473092545695245"><ele>634.0</ele><time>2026-04-23T10:08:24Z</time></trkpt><trkpt lat="42.350753184795" lon="13.473242900255308"><ele>634.0</ele><time>2026-04-23T10:08:25Z</time></trkpt><trkpt lat="42.35077337988992" lon="13.473397991339555"><ele>634.0</ele><time>2026-04-23T10:08:26Z</time></trkpt><trkpt lat="42.35079197154721" lon="13.473564486854023"><ele>634.0</ele><time>2026-04-23T10:08:27Z</time></trkpt><trkpt lat="42.35081071191391" lon="13.473745495922824"><ele>634.0</ele><time>2026-04-23T10:08:28Z</time></trkpt><trkpt lat="42.35083323505055" lon="13.473936255736005"><ele>634.0</ele><time>2026-04-23T10:08:29Z</time></trkpt><trkpt lat="42.35085945333886" lon="13.474134954151172"><ele>634.0</ele><time>2026-04-23T10:08:30Z</time></trkpt><trkpt lat="42.35088553677665" lon="13.47432973047787"><ele>633.6666666666667</ele><time>2026-04-23T10:08:31Z</time></trkpt><trkpt lat="42.350914706597806" lon="13.474519971472754"><ele>633.3333333333334</ele><time>2026-04-23T10:08:32Z</time></trkpt><trkpt lat="42.35094804253937" lon="13.474718134966034"><ele>633.0</ele><time>2026-04-23T10:08:33Z</time></trkpt><trkpt lat="42.35096365683892" lon="13.474932643074453"><ele>633.0</ele><time>2026-04-23T10:08:34Z</time></trkpt><trkpt lat="42.35099931968317" lon="13.475134384390795"><ele>633.0</ele><time>2026-04-23T10:08:35Z</time></trkpt><trkpt lat="42.35101999160763" lon="13.475356640272885"><ele>633.0</ele><time>2026-04-23T10:08:36Z</time></trkpt><trkpt lat="42.35103461959541" lon="13.475570392132061"><ele>633.3333333333334</ele><time>2026-04-23T10:08:37Z</time></trkpt><trkpt lat="42.351037206168364" lon="13.475799549868796"><ele>633.6666666666667</ele><time>2026-04-23T10:08:38Z</time></trkpt><trkpt lat="42.3510351294191" lon="13.476031220251809"><ele>634.0</ele><time>2026-04-23T10:08:39Z</time></trkpt><trkpt lat="42.35103203111945" lon="13.476260690755307"><ele>635.6666666666667</ele><time>2026-04-23T10:08:40Z</time></trkpt><trkpt lat="42.351030866155405" lon="13.476504429708513"><ele>637.3333333333334</ele><time>2026-04-23T10:08:41Z</time></trkpt><trkpt lat="42.35103704147241" lon="13.476747007470316"><ele>639.0</ele><time>2026-04-23T10:08:42Z</time></trkpt><trkpt lat="42.35104945507075" lon="13.47698278831243"><ele>639.6666666666666</ele><time>2026-04-23T10:08:43Z</time></trkpt><trkpt lat="42.351062560644266" lon="13.477217546779528"><ele>640.3333333333333</ele><time>2026-04-23T10:08:44Z</time></trkpt><trkpt lat="42.351086854798965" lon="13.477448025024604"><ele>641.0</ele><time>2026-04-23T10:08:45Z</time></trkpt><trkpt lat="42.35112798892414" lon="13.477675727322262"><ele>641.0</ele><time>2026-04-23T10:08:46Z</time></trkpt><trkpt lat="42.351187862728935" lon="13.477897989471563"><ele>641.0</ele><time>2026-04-23T10:08:47Z</time></trkpt><trkpt lat="42.35126613162493" lon="13.478110334836389"><ele>641.0</ele><time>2026-04-23T10:08:48Z</time></trkpt><trkpt lat="42.351362998822424" lon="13.478317893230646"><ele>643.0</ele><time>2026-04-23T10:08:49Z</time></trkpt><trkpt lat="42.35147721803599" lon="13.47851686306788"><ele>645.0</ele><time>2026-04-23T10:08:50Z</time></trkpt><trkpt lat="42.35160118287818" lon="13.47871409186952"><ele>647.0</ele><time>2026-04-23T10:08:51Z</time></trkpt><trkpt lat="42.35172623326244" lon="13.478917395935976"><ele>648.3333333333333</ele><time>2026-04-23T10:08:52Z</time></trkpt><trkpt lat="42.35185541838021" lon="13.479122509430795"><ele>649.6666666666666</ele><time>2026-04-23T10:08:53Z</time></trkpt><trkpt lat="42.35198689045887" lon="13.47933262606935"><ele>651.0</ele><time>2026-04-23T10:08:54Z</time></trkpt><trkpt lat="42.352116679746175" lon="13.479540753618695"><ele>652.6666666666666</ele><time>2026-04-23T10:08:55Z</time></trkpt><trkpt lat="42.352247853447864" lon="13.479757276909506"><ele>654.3333333333333</ele><time>2026-04-23T10:08:56Z</time></trkpt><trkpt lat="42.352381480313845" lon="13.479968609307164"><ele>656.0</ele><time>2026-04-23T10:08:57Z</time></trkpt><trkpt lat="42.35251538433055" lon="13.480185562348558"><ele>656.0</ele><time>2026-04-23T10:08:58Z</time></trkpt><trkpt lat="42.35264859918712" lon="13.4804009138146"><ele>656.0</ele><time>2026-04-23T10:08:59Z</time></trkpt><trkpt lat="42.35277600038468" lon="13.480623110600499"><ele>656.0</ele><time>2026-04-23T10:09:00Z</time></trkpt><trkpt lat="42.35289201105305" lon="13.480854023120706"><ele>657.0</ele><time>2026-04-23T10:09:01Z</time></trkpt><trkpt lat="42.35298697991184" lon="13.481093800275481"><ele>658.0</ele><time>2026-04-23T10:09:02Z</time></trkpt><trkpt lat="42.35306027132093" lon="13.481346037818371"><ele>659.0</ele><time>2026-04-23T10:09:03Z</time></trkpt><trkpt lat="42.35311317174848" lon="13.481610652597226"><ele>662.0</ele><time>2026-04-23T10:09:04Z</time></trkpt><trkpt lat="42.35314860733726" lon="13.481877091653464"><ele>665.0</ele><time>2026-04-23T10:09:05Z</time></trkpt><trkpt lat="42.35317233313927" lon="13.482147559095946"><ele>668.0</ele><time>2026-04-23T10:09:06Z</time></trkpt><trkpt lat="42.353186852695046" lon="13.482426872520582"><ele>669.3333333333333</ele><time>2026-04-23T10:09:07Z</time></trkpt><trkpt lat="42.353203897470756" lon="13.482700322389318"><ele>670.6666666666666</ele><time>2026-04-23T10:09:08Z</time></trkpt><trkpt lat="42.35322947157277" lon="13.482963719178315"><ele>672.0</ele><time>2026-04-23T10:09:09Z</time></trkpt><trkpt lat="42.35326065370087" lon="13.483514705882753"><ele>675.0</ele><time>2026-04-23T10:09:11Z</time></trkpt><trkpt lat="42.353278225688015" lon="13.483787558649594"><ele>678.0</ele><time>2026-04-23T10:09:12Z</time></trkpt><trkpt lat="42.35327403815844" lon="13.484069544387951"><ele>681.0</ele><time>2026-04-23T10:09:13Z</time></trkpt><trkpt lat="42.35325254067009" lon="13.48433967674965"><ele>681.0</ele><time>2026-04-23T10:09:14Z</time></trkpt><trkpt lat="42.353222431217" lon="13.48459314655041"><ele>681.0</ele><time>2026-04-23T10:09:15Z</time></trkpt><trkpt lat="42.35320333092326" lon="13.484825559888979"><ele>681.0</ele><time>2026-04-23T10:09:16Z</time></trkpt><trkpt lat="42.35322475834696" lon="13.485035426633159"><ele>682.3333333333334</ele><time>2026-04-23T10:09:17Z</time></trkpt><trkpt lat="42.35329415483713" lon="13.485233263579275"><ele>683.6666666666667</ele><time>2026-04-23T10:09:18Z</time></trkpt><trkpt lat="42.35339578237417" lon="13.485416721244007"><ele>685.0</ele><time>2026-04-23T10:09:19Z</time></trkpt><trkpt lat="42.3535204470934" lon="13.485577234486597"><ele>686.3333333333334</ele><time>2026-04-23T10:09:20Z</time></trkpt><trkpt lat="42.353666824152974" lon="13.485698571928308"><ele>687.6666666666666</ele><time>2026-04-23T10:09:21Z</time></trkpt><trkpt lat="42.353830854495904" lon="13.48578372620855"><ele>689.0</ele><time>2026-04-23T10:09:22Z</time></trkpt><trkpt lat="42.35400831965697" lon="13.48582135994445"><ele>691.3333333333333</ele><time>2026-04-23T10:09:23Z</time></trkpt><trkpt lat="42.354173146628156" lon="13.485805419859702"><ele>693.6666666666666</ele><time>2026-04-23T10:09:24Z</time></trkpt><trkpt lat="42.35433422354954" lon="13.485738270201233"><ele>696.0</ele><time>2026-04-23T10:09:25Z</time></trkpt><trkpt lat="42.354463800496006" lon="13.485643986118935"><ele>696.0</ele><time>2026-04-23T10:09:26Z</time></trkpt><trkpt lat="42.354570508675714" lon="13.485551055553605"><ele>696.0</ele><time>2026-04-23T10:09:27Z</time></trkpt><trkpt lat="42.35466487618942" lon="13.485496020375182"><ele>696.0</ele><time>2026-04-23T10:09:28Z</time></trkpt><trkpt lat="42.35472831499027" lon="13.485450421866625"><ele>696.0</ele><time>2026-04-23T10:09:29Z</time></trkpt><trkpt lat="42.354863149540115" lon="13.485694358336499"><ele>699.5</ele><time>2026-04-23T10:09:31Z</time></trkpt><trkpt lat="42.354928061402234" lon="13.485818762586593"><ele>703.0</ele><time>2026-04-23T10:09:32Z</time></trkpt><trkpt lat="42.35500795811252" lon="13.48596487798106"><ele>706.5</ele><time>2026-04-23T10:09:33Z</time></trkpt><trkpt lat="42.35509640852785" lon="13.486105415616802"><ele>710.0</ele><time>2026-04-23T10:09:34Z</time></trkpt><trkpt lat="42.35517367048345" lon="13.48624223893641"><ele>710.8333333333333</ele><time>2026-04-23T10:09:35Z</time></trkpt><trkpt lat="42.35523124074623" lon="13.48635977397745"><ele>711.6666666666666</ele><time>2026-04-23T10:09:36Z</time></trkpt><trkpt lat="42.35525149245363" lon="13.486483967610617"><ele>712.5</ele><time>2026-04-23T10:09:37Z</time></trkpt><trkpt lat="42.35523135384851" lon="13.486584929239276"><ele>713.3333333333334</ele><time>2026-04-23T10:09:38Z</time></trkpt><trkpt lat="42.35517695373881" lon="13.486641162101844"><ele>714.1666666666667</ele><time>2026-04-23T10:09:39Z</time></trkpt><trkpt lat="42.35509829609698" lon="13.486672715932581"><ele>715.0</ele><time>2026-04-23T10:09:40Z</time></trkpt><trkpt lat="42.35500702343597" lon="13.48663445941333"><ele>715.0</ele><time>2026-04-23T10:09:41Z</time></trkpt><trkpt lat="42.354896281900174" lon="13.486616846594035"><ele>715.0</ele><time>2026-04-23T10:09:42Z</time></trkpt><trkpt lat="42.35477489791003" lon="13.486564169037258"><ele>715.0</ele><time>2026-04-23T10:09:43Z</time></trkpt><trkpt lat="42.354653770686056" lon="13.486512319110782"><ele>715.0</ele><time>2026-04-23T10:09:44Z</time></trkpt><trkpt lat="42.35453552148339" lon="13.486480448641496"><ele>713.0</ele><time>2026-04-23T10:09:45Z</time></trkpt><trkpt lat="42.35442389704513" lon="13.486476833563007"><ele>711.0</ele><time>2026-04-23T10:09:46Z</time></trkpt><trkpt lat="42.35432407801948" lon="13.486574445235684"><ele>709.0</ele><time>2026-04-23T10:09:47Z</time></trkpt><trkpt lat="42.35423958121913" lon="13.48667999510013"><ele>707.0</ele><time>2026-04-23T10:09:48Z</time></trkpt><trkpt lat="42.35417314510129" lon="13.486831590991885"><ele>707.0</ele><time>2026-04-23T10:09:49Z</time></trkpt><trkpt lat="42.35411192906272" lon="13.48700173011601"><ele>707.0</ele><time>2026-04-23T10:09:50Z</time></trkpt><trkpt lat="42.354072297546125" lon="13.487194201105417"><ele>707.0</ele><time>2026-04-23T10:09:51Z</time></trkpt><trkpt lat="42.35405487313348" lon="13.487404096548737"><ele>707.0</ele><time>2026-04-23T10:09:52Z</time></trkpt><trkpt lat="42.35404690945777" lon="13.487612560373616"><ele>710.6666666666666</ele><time>2026-04-23T10:09:53Z</time></trkpt><trkpt lat="42.354048468470204" lon="13.487833802113395"><ele>714.3333333333334</ele><time>2026-04-23T10:09:54Z</time></trkpt><trkpt lat="42.3540525412197" lon="13.488063668936014"><ele>718.0</ele><time>2026-04-23T10:09:55Z</time></trkpt><trkpt lat="42.354054657791586" lon="13.488296235507653"><ele>720.3333333333334</ele><time>2026-04-23T10:09:56Z</time></trkpt><trkpt lat="42.354061264406745" lon="13.48853846711709"><ele>722.6666666666666</ele><time>2026-04-23T10:09:57Z</time></trkpt><trkpt lat="42.35408398951368" lon="13.488764970331893"><ele>725.0</ele><time>2026-04-23T10:09:58Z</time></trkpt><trkpt lat="42.35411461431594" lon="13.488964187839018"><ele>725.3333333333333</ele><time>2026-04-23T10:09:59Z</time></trkpt><trkpt lat="42.354160614060945" lon="13.489152954368475"><ele>725.6666666666666</ele><time>2026-04-23T10:10:00Z</time></trkpt><trkpt lat="42.35423004099711" lon="13.489331745717314"><ele>726.0</ele><time>2026-04-23T10:10:01Z</time></trkpt><trkpt lat="42.3543064972314" lon="13.489523173551609"><ele>725.6666666666666</ele><time>2026-04-23T10:10:02Z</time></trkpt><trkpt lat="42.35438165444108" lon="13.489712394065519"><ele>725.3333333333333</ele><time>2026-04-23T10:10:03Z</time></trkpt><trkpt lat="42.354430476983495" lon="13.489913688374818"><ele>725.0</ele><time>2026-04-23T10:10:04Z</time></trkpt><trkpt lat="42.35446025515188" lon="13.490105046107322"><ele>725.0</ele><time>2026-04-23T10:10:05Z</time></trkpt><trkpt lat="42.35450010526921" lon="13.490270228799146"><ele>725.0</ele><time>2026-04-23T10:10:06Z</time></trkpt><trkpt lat="42.354566086749855" lon="13.490414680729478"><ele>725.0</ele><time>2026-04-23T10:10:07Z</time></trkpt><trkpt lat="42.35465193390434" lon="13.490521255120154"><ele>725.0</ele><time>2026-04-23T10:10:08Z</time></trkpt><trkpt lat="42.35475546806045" lon="13.490589318835545"><ele>727.75</ele><time>2026-04-23T10:10:09Z</time></trkpt><trkpt lat="42.35488822061846" lon="13.49063662259882"><ele>730.5</ele><time>2026-04-23T10:10:10Z</time></trkpt><trkpt lat="42.35504254073395" lon="13.490687180180739"><ele>733.25</ele><time>2026-04-23T10:10:11Z</time></trkpt><trkpt lat="42.35518720029425" lon="13.490753987093209"><ele>736.0</ele><time>2026-04-23T10:10:12Z</time></trkpt><trkpt lat="42.35534162098177" lon="13.49082220495299"><ele>736.0</ele><time>2026-04-23T10:10:13Z</time></trkpt><trkpt lat="42.355500597517896" lon="13.49089134580448"><ele>736.0</ele><time>2026-04-23T10:10:14Z</time></trkpt><trkpt lat="42.35566195208852" lon="13.490946177950196"><ele>736.0</ele><time>2026-04-23T10:10:15Z</time></trkpt><trkpt lat="42.355826663623446" lon="13.490981043275378"><ele>738.5</ele><time>2026-04-23T10:10:15.999Z</time></trkpt><trkpt lat="42.35599217324491" lon="13.491005830199557"><ele>741.0</ele><time>2026-04-23T10:10:16.999Z</time></trkpt><trkpt lat="42.356132181305505" lon="13.491044394395239"><ele>743.5</ele><time>2026-04-23T10:10:17.999Z</time></trkpt><trkpt lat="42.356244442966684" lon="13.49108649464694"><ele>746.0</ele><time>2026-04-23T10:10:18.999Z</time></trkpt><trkpt lat="42.35633361258332" lon="13.491105180226471"><ele>746.0</ele><time>2026-04-23T10:10:19.999Z</time></trkpt><trkpt lat="42.35639874185038" lon="13.491097930644964"><ele>746.0</ele><time>2026-04-23T10:10:20.999Z</time></trkpt><trkpt lat="42.356454446802026" lon="13.490972451152025"><ele>746.0</ele><time>2026-04-23T10:10:23Z</time></trkpt><trkpt lat="42.356428932431996" lon="13.490886175658767"><ele>746.0</ele><time>2026-04-23T10:10:24Z</time></trkpt><trkpt lat="42.35636215550038" lon="13.490821302448657"><ele>746.0</ele><time>2026-04-23T10:10:25Z</time></trkpt><trkpt lat="42.35626398418359" lon="13.490780099058957"><ele>746.0</ele><time>2026-04-23T10:10:26Z</time></trkpt><trkpt lat="42.356147751534934" lon="13.490747446842263"><ele>746.0</ele><time>2026-04-23T10:10:27Z</time></trkpt><trkpt lat="42.35602937954055" lon="13.490703566163539"><ele>746.0</ele><time>2026-04-23T10:10:28Z</time></trkpt><trkpt lat="42.35590294848367" lon="13.490633907451786"><ele>746.0</ele><time>2026-04-23T10:10:29Z</time></trkpt><trkpt lat="42.35578388080442" lon="13.490535917224094"><ele>746.0</ele><time>2026-04-23T10:10:30Z</time></trkpt><trkpt lat="42.35566770827311" lon="13.490424119679702"><ele>745.8</ele><time>2026-04-23T10:10:31Z</time></trkpt><trkpt lat="42.35558062749696" lon="13.490319183869172"><ele>745.5999999999999</ele><time>2026-04-23T10:10:32Z</time></trkpt><trkpt lat="42.35551859871663" lon="13.49021644794321"><ele>745.4</ele><time>2026-04-23T10:10:33Z</time></trkpt><trkpt lat="42.3554837391021" lon="13.490099233555515"><ele>745.2</ele><time>2026-04-23T10:10:34Z</time></trkpt><trkpt lat="42.35548311380119" lon="13.489967134323019"><ele>745.0</ele><time>2026-04-23T10:10:35Z</time></trkpt><trkpt lat="42.35551164875715" lon="13.489829762412485"><ele>747.5</ele><time>2026-04-23T10:10:36Z</time></trkpt><trkpt lat="42.35556606133489" lon="13.489691792726244"><ele>750.0</ele><time>2026-04-23T10:10:37Z</time></trkpt><trkpt lat="42.35563751339821" lon="13.489560404522583"><ele>752.5</ele><time>2026-04-23T10:10:38Z</time></trkpt><trkpt lat="42.35572089923964" lon="13.489433709349429"><ele>755.0</ele><time>2026-04-23T10:10:39Z</time></trkpt><trkpt lat="42.35580240731512" lon="13.48934287611564"><ele>755.4</ele><time>2026-04-23T10:10:40Z</time></trkpt><trkpt lat="42.35588446294581" lon="13.489303654567339"><ele>755.8</ele><time>2026-04-23T10:10:41Z</time></trkpt><trkpt lat="42.35596873685432" lon="13.489305879223684"><ele>756.2</ele><time>2026-04-23T10:10:42Z</time></trkpt><trkpt lat="42.35605439571698" lon="13.48933265331946"><ele>756.6</ele><time>2026-04-23T10:10:43Z</time></trkpt><trkpt lat="42.35614524049215" lon="13.489394528522954"><ele>757.0</ele><time>2026-04-23T10:10:44Z</time></trkpt><trkpt lat="42.356258884728405" lon="13.489458706029067"><ele>758.75</ele><time>2026-04-23T10:10:45Z</time></trkpt><trkpt lat="42.35637514300915" lon="13.48952435974733"><ele>760.5</ele><time>2026-04-23T10:10:46Z</time></trkpt><trkpt lat="42.35650536495168" lon="13.489582503369482"><ele>762.25</ele><time>2026-04-23T10:10:47Z</time></trkpt><trkpt lat="42.35661775259724" lon="13.48964973156734"><ele>764.0</ele><time>2026-04-23T10:10:48Z</time></trkpt><trkpt lat="42.3567141102136" lon="13.489667660131236"><ele>764.0</ele><time>2026-04-23T10:10:49Z</time></trkpt><trkpt lat="42.35678717205517" lon="13.489635543234309"><ele>764.0</ele><time>2026-04-23T10:10:50Z</time></trkpt><trkpt lat="42.356856737786714" lon="13.489563836308102"><ele>764.0</ele><time>2026-04-23T10:10:51Z</time></trkpt><trkpt lat="42.356943199435904" lon="13.489461506927066"><ele>764.0</ele><time>2026-04-23T10:10:52Z</time></trkpt><trkpt lat="42.357005717706194" lon="13.48932707545836"><ele>764.0</ele><time>2026-04-23T10:10:53Z</time></trkpt><trkpt lat="42.357105374355655" lon="13.489252748899696"><ele>765.75</ele><time>2026-04-23T10:10:54Z</time></trkpt><trkpt lat="42.357216649652806" lon="13.489226614236129"><ele>767.5</ele><time>2026-04-23T10:10:55Z</time></trkpt><trkpt lat="42.35733394663334" lon="13.489277515421902"><ele>769.25</ele><time>2026-04-23T10:10:56Z</time></trkpt><trkpt lat="42.35745687988753" lon="13.489325374178351"><ele>771.0</ele><time>2026-04-23T10:10:57Z</time></trkpt><trkpt lat="42.35756004898019" lon="13.489424891378418"><ele>771.0</ele><time>2026-04-23T10:10:58Z</time></trkpt><trkpt lat="42.357638597691604" lon="13.489565481220097"><ele>771.0</ele><time>2026-04-23T10:10:59Z</time></trkpt><trkpt lat="42.3576867579423" lon="13.489734341333392"><ele>771.0</ele><time>2026-04-23T10:11:00Z</time></trkpt><trkpt lat="42.35771766869453" lon="13.48992745536958"><ele>771.0</ele><time>2026-04-23T10:11:01Z</time></trkpt><trkpt lat="42.357759539705135" lon="13.490129697059146"><ele>770.3333333333333</ele><time>2026-04-23T10:11:02Z</time></trkpt><trkpt lat="42.357813215136396" lon="13.490336523646931"><ele>769.6666666666666</ele><time>2026-04-23T10:11:03Z</time></trkpt><trkpt lat="42.35786846531843" lon="13.49054907547672"><ele>769.0</ele><time>2026-04-23T10:11:04Z</time></trkpt><trkpt lat="42.357926985457226" lon="13.4907699268191"><ele>769.0</ele><time>2026-04-23T10:11:05Z</time></trkpt><trkpt lat="42.357967863916876" lon="13.490971535987702"><ele>769.0</ele><time>2026-04-23T10:11:06Z</time></trkpt><trkpt lat="42.35797861084676" lon="13.491160813365738"><ele>769.0</ele><time>2026-04-23T10:11:07Z</time></trkpt><trkpt lat="42.3580006601712" lon="13.491347542678934"><ele>769.0</ele><time>2026-04-23T10:11:08Z</time></trkpt><trkpt lat="42.358063676501885" lon="13.491527273007788"><ele>772.75</ele><time>2026-04-23T10:11:09Z</time></trkpt><trkpt lat="42.35814883367675" lon="13.491707174766967"><ele>776.5</ele><time>2026-04-23T10:11:10Z</time></trkpt><trkpt lat="42.35824118135245" lon="13.49187893290927"><ele>780.25</ele><time>2026-04-23T10:11:11Z</time></trkpt><trkpt lat="42.358331435152834" lon="13.492009531527675"><ele>784.0</ele><time>2026-04-23T10:11:12Z</time></trkpt><trkpt lat="42.35844006401412" lon="13.492106310597654"><ele>784.0</ele><time>2026-04-23T10:11:12.999Z</time></trkpt><trkpt lat="42.35857474824178" lon="13.492169331451455"><ele>784.0</ele><time>2026-04-23T10:11:13.999Z</time></trkpt><trkpt lat="42.35871419941975" lon="13.492221287560099"><ele>784.0</ele><time>2026-04-23T10:11:14.999Z</time></trkpt><trkpt lat="42.35883751736213" lon="13.492294508854561"><ele>784.0</ele><time>2026-04-23T10:11:15.999Z</time></trkpt><trkpt lat="42.35893506365756" lon="13.492417941296123"><ele>788.25</ele><time>2026-04-23T10:11:16.999Z</time></trkpt><trkpt lat="42.359012806676006" lon="13.492566947359387"><ele>792.5</ele><time>2026-04-23T10:11:17.999Z</time></trkpt><trkpt lat="42.359061828695346" lon="13.492738943764092"><ele>796.75</ele><time>2026-04-23T10:11:18.999Z</time></trkpt><trkpt lat="42.35908909587892" lon="13.492930999993723"><ele>801.0</ele><time>2026-04-23T10:11:19.999Z</time></trkpt><trkpt lat="42.35913741399293" lon="13.493111339649658"><ele>801.0</ele><time>2026-04-23T10:11:20.999Z</time></trkpt><trkpt lat="42.35922400091235" lon="13.493270513456853"><ele>801.0</ele><time>2026-04-23T10:11:21.999Z</time></trkpt><trkpt lat="42.3593128726707" lon="13.493387118660046"><ele>801.0</ele><time>2026-04-23T10:11:22.999Z</time></trkpt><trkpt lat="42.3593772385617" lon="13.493445650026935"><ele>801.0</ele><time>2026-04-23T10:11:23.999Z</time></trkpt><trkpt lat="42.35945018625681" lon="13.493472397864947"><ele>801.0</ele><time>2026-04-23T10:11:24.999Z</time></trkpt><trkpt lat="42.35954487316796" lon="13.4935150779646"><ele>801.0</ele><time>2026-04-23T10:11:25.999Z</time></trkpt><trkpt lat="42.35962400932135" lon="13.493600855801821"><ele>801.0</ele><time>2026-04-23T10:11:26.999Z</time></trkpt><trkpt lat="42.359683437152086" lon="13.493731146462613"><ele>801.0</ele><time>2026-04-23T10:11:27.999Z</time></trkpt><trkpt lat="42.35972406961301" lon="13.493897526795788"><ele>801.0</ele><time>2026-04-23T10:11:28.999Z</time></trkpt><trkpt lat="42.35975985099079" lon="13.494084464494897"><ele>807.6666666666667</ele><time>2026-04-23T10:11:29.999Z</time></trkpt><trkpt lat="42.35980524267729" lon="13.494280012168543"><ele>814.3333333333334</ele><time>2026-04-23T10:11:30.999Z</time></trkpt><trkpt lat="42.359843721734514" lon="13.494478891283606"><ele>821.0</ele><time>2026-04-23T10:11:31.999Z</time></trkpt><trkpt lat="42.35986828852064" lon="13.494696751946119"><ele>821.6666666666667</ele><time>2026-04-23T10:11:32.999Z</time></trkpt><trkpt lat="42.35987952263746" lon="13.49492166296872"><ele>822.3333333333333</ele><time>2026-04-23T10:11:33.999Z</time></trkpt><trkpt lat="42.359885013930075" lon="13.495145894055057"><ele>823.0</ele><time>2026-04-23T10:11:34.999Z</time></trkpt><trkpt lat="42.359888334182685" lon="13.49535941271098"><ele>823.75</ele><time>2026-04-23T10:11:35.999Z</time></trkpt><trkpt lat="42.35987858970878" lon="13.495561071310666"><ele>824.5</ele><time>2026-04-23T10:11:36.999Z</time></trkpt><trkpt lat="42.35986153456899" lon="13.495753628649409"><ele>825.25</ele><time>2026-04-23T10:11:37.999Z</time></trkpt><trkpt lat="42.35984615183028" lon="13.495943158839017"><ele>826.0</ele><time>2026-04-23T10:11:38.999Z</time></trkpt><trkpt lat="42.35983201857002" lon="13.496129329393554"><ele>826.5</ele><time>2026-04-23T10:11:39.999Z</time></trkpt><trkpt lat="42.359817055379764" lon="13.496292230844103"><ele>827.0</ele><time>2026-04-23T10:11:40.999Z</time></trkpt><trkpt lat="42.359776201884536" lon="13.496434903290044"><ele>827.5</ele><time>2026-04-23T10:11:41.999Z</time></trkpt><trkpt lat="42.35968745491334" lon="13.496546809770285"><ele>828.0</ele><time>2026-04-23T10:11:42.999Z</time></trkpt><trkpt lat="42.35959076186803" lon="13.496656489177603"><ele>827.0</ele><time>2026-04-23T10:11:43.999Z</time></trkpt><trkpt lat="42.359511061065014" lon="13.496798200063562"><ele>826.0</ele><time>2026-04-23T10:11:44.999Z</time></trkpt><trkpt lat="42.359433373979975" lon="13.49693850946686"><ele>825.0</ele><time>2026-04-23T10:11:45.999Z</time></trkpt><trkpt lat="42.359374526795634" lon="13.497101821350006"><ele>824.0</ele><time>2026-04-23T10:11:46.999Z</time></trkpt><trkpt lat="42.35930279459159" lon="13.497268200297073"><ele>823.75</ele><time>2026-04-23T10:11:47.999Z</time></trkpt><trkpt lat="42.359242320158806" lon="13.497434073911707"><ele>823.5</ele><time>2026-04-23T10:11:48.999Z</time></trkpt><trkpt lat="42.35918725716491" lon="13.497599090291647"><ele>823.25</ele><time>2026-04-23T10:11:49.999Z</time></trkpt><trkpt lat="42.35913467236352" lon="13.497767276499465"><ele>823.0</ele><time>2026-04-23T10:11:50.999Z</time></trkpt><trkpt lat="42.35908290300234" lon="13.497966221950325"><ele>823.5</ele><time>2026-04-23T10:11:51.999Z</time></trkpt><trkpt lat="42.35904709243413" lon="13.498163409549676"><ele>824.0</ele><time>2026-04-23T10:11:52.999Z</time></trkpt><trkpt lat="42.35902805990802" lon="13.498359724509553"><ele>824.5</ele><time>2026-04-23T10:11:53.999Z</time></trkpt><trkpt lat="42.35900691645934" lon="13.498563255887763"><ele>825.0</ele><time>2026-04-23T10:11:54.999Z</time></trkpt><trkpt lat="42.35899651967293" lon="13.498776260757074"><ele>825.75</ele><time>2026-04-23T10:11:55.999Z</time></trkpt><trkpt lat="42.3589833939521" lon="13.498966870560249"><ele>826.5</ele><time>2026-04-23T10:11:56.999Z</time></trkpt><trkpt lat="42.35894647960265" lon="13.499128431133567"><ele>827.25</ele><time>2026-04-23T10:11:57.999Z</time></trkpt><trkpt lat="42.35888161327419" lon="13.49927263847048"><ele>828.0</ele><time>2026-04-23T10:11:58.999Z</time></trkpt><trkpt lat="42.35879624398645" lon="13.499400295969341"><ele>828.75</ele><time>2026-04-23T10:11:59.999Z</time></trkpt><trkpt lat="42.35870081215271" lon="13.499516078937878"><ele>829.5</ele><time>2026-04-23T10:12:00.999Z</time></trkpt><trkpt lat="42.3585927165821" lon="13.499621902402678"><ele>830.25</ele><time>2026-04-23T10:12:01.999Z</time></trkpt><trkpt lat="42.35847342687526" lon="13.499729092580907"><ele>831.0</ele><time>2026-04-23T10:12:02.999Z</time></trkpt><trkpt lat="42.35835385783183" lon="13.499858011920107"><ele>833.0</ele><time>2026-04-23T10:12:03.999Z</time></trkpt><trkpt lat="42.35823479798557" lon="13.499992867687121"><ele>835.0</ele><time>2026-04-23T10:12:04.999Z</time></trkpt><trkpt lat="42.358118776192185" lon="13.500135506087798"><ele>837.0</ele><time>2026-04-23T10:12:05.999Z</time></trkpt><trkpt lat="42.358004945085526" lon="13.500285641964629"><ele>837.75</ele><time>2026-04-23T10:12:06.999Z</time></trkpt><trkpt lat="42.35790485466466" lon="13.500441803921698"><ele>838.5</ele><time>2026-04-23T10:12:07.999Z</time></trkpt><trkpt lat="42.35783534851959" lon="13.50061378735597"><ele>839.25</ele><time>2026-04-23T10:12:08.999Z</time></trkpt><trkpt lat="42.3577866784769" lon="13.500801127835613"><ele>840.0</ele><time>2026-04-23T10:12:09.999Z</time></trkpt><trkpt lat="42.357749865133286" lon="13.500997809650015"><ele>840.0</ele><time>2026-04-23T10:12:10.999Z</time></trkpt><trkpt lat="42.35773479795021" lon="13.501201655355526"><ele>840.0</ele><time>2026-04-23T10:12:11.999Z</time></trkpt><trkpt lat="42.357755731807316" lon="13.501409734044396"><ele>840.0</ele><time>2026-04-23T10:12:12.999Z</time></trkpt><trkpt lat="42.35779127016301" lon="13.501633849878742"><ele>843.0</ele><time>2026-04-23T10:12:13.999Z</time></trkpt><trkpt lat="42.357830515836554" lon="13.501859144949986"><ele>846.0</ele><time>2026-04-23T10:12:14.999Z</time></trkpt><trkpt lat="42.3578745245673" lon="13.502106765542681"><ele>849.0</ele><time>2026-04-23T10:12:15.999Z</time></trkpt><trkpt lat="42.35793223539548" lon="13.502344843968075"><ele>850.0</ele><time>2026-04-23T10:12:16.999Z</time></trkpt><trkpt lat="42.35799020077263" lon="13.502563588464525"><ele>851.0</ele><time>2026-04-23T10:12:17.999Z</time></trkpt><trkpt lat="42.35805383376865" lon="13.502777889069694"><ele>852.0</ele><time>2026-04-23T10:12:18.999Z</time></trkpt><trkpt lat="42.35814514882371" lon="13.502972490387876"><ele>855.6666666666667</ele><time>2026-04-23T10:12:19.999Z</time></trkpt><trkpt lat="42.35827026535862" lon="13.503147175911973"><ele>859.3333333333334</ele><time>2026-04-23T10:12:20.999Z</time></trkpt><trkpt lat="42.358391784191774" lon="13.503335870594888"><ele>863.0</ele><time>2026-04-23T10:12:21.999Z</time></trkpt><trkpt lat="42.35850989467345" lon="13.503533538138184"><ele>864.3333333333334</ele><time>2026-04-23T10:12:22.999Z</time></trkpt><trkpt lat="42.35860545026283" lon="13.503758400488474"><ele>865.6666666666667</ele><time>2026-04-23T10:12:23.999Z</time></trkpt><trkpt lat="42.35868858192729" lon="13.504012390943146"><ele>867.0</ele><time>2026-04-23T10:12:24.999Z</time></trkpt><trkpt lat="42.35877516372827" lon="13.504279074180772"><ele>867.0</ele><time>2026-04-23T10:12:25.999Z</time></trkpt><trkpt lat="42.358860116739166" lon="13.504545176926134"><ele>867.0</ele><time>2026-04-23T10:12:26.999Z</time></trkpt><trkpt lat="42.358944524048994" lon="13.50481027496385"><ele>867.0</ele><time>2026-04-23T10:12:27.999Z</time></trkpt><trkpt lat="42.35903454323508" lon="13.505088204303359"><ele>870.6666666666667</ele><time>2026-04-23T10:12:28.999Z</time></trkpt><trkpt lat="42.3591269919363" lon="13.50536422718441"><ele>874.3333333333334</ele><time>2026-04-23T10:12:29.999Z</time></trkpt><trkpt lat="42.35919732656241" lon="13.505577704227308"><ele>878.0</ele><time>2026-04-23T10:12:30.999Z</time></trkpt><trkpt lat="42.359282901026724" lon="13.505781437485652"><ele>878.0</ele><time>2026-04-23T10:12:31.999Z</time></trkpt><trkpt lat="42.35933567446494" lon="13.505968743013513"><ele>878.0</ele><time>2026-04-23T10:12:33Z</time></trkpt><trkpt lat="42.359355328423" lon="13.506117207819576"><ele>878.0</ele><time>2026-04-23T10:12:34Z</time></trkpt><trkpt lat="42.359332813410894" lon="13.506241524214694"><ele>878.0</ele><time>2026-04-23T10:12:35Z</time></trkpt><trkpt lat="42.35926803132334" lon="13.506326893328605"><ele>878.0</ele><time>2026-04-23T10:12:36Z</time></trkpt><trkpt lat="42.35918420375345" lon="13.506371241329377"><ele>878.0</ele><time>2026-04-23T10:12:37Z</time></trkpt><trkpt lat="42.359099688898574" lon="13.506313759638287"><ele>878.0</ele><time>2026-04-23T10:12:38Z</time></trkpt><trkpt lat="42.359006624712244" lon="13.506271079234171"><ele>878.0</ele><time>2026-04-23T10:12:39Z</time></trkpt><trkpt lat="42.358896067116966" lon="13.506184173778674"><ele>878.0</ele><time>2026-04-23T10:12:40Z</time></trkpt><trkpt lat="42.35880668945836" lon="13.506045454517482"><ele>882.3333333333334</ele><time>2026-04-23T10:12:41Z</time></trkpt><trkpt lat="42.35870945719155" lon="13.50587541884331"><ele>886.6666666666667</ele><time>2026-04-23T10:12:42Z</time></trkpt><trkpt lat="42.358605386893636" lon="13.505682546571633"><ele>891.0</ele><time>2026-04-23T10:12:43Z</time></trkpt><trkpt lat="42.35850173313094" lon="13.505485587497187"><ele>886.0</ele><time>2026-04-23T10:12:44Z</time></trkpt><trkpt lat="42.35839225780299" lon="13.505276545041651"><ele>881.0</ele><time>2026-04-23T10:12:45Z</time></trkpt><trkpt lat="42.35827700023627" lon="13.50507021853387"><ele>876.0</ele><time>2026-04-23T10:12:46Z</time></trkpt><trkpt lat="42.3581097306235" lon="13.504919674245906"><ele>876.0</ele><time>2026-04-23T10:12:47Z</time></trkpt><trkpt lat="42.35794991275229" lon="13.50475879475358"><ele>876.0</ele><time>2026-04-23T10:12:48Z</time></trkpt><trkpt lat="42.357777011212285" lon="13.504636685062627"><ele>876.0</ele><time>2026-04-23T10:12:49Z</time></trkpt><trkpt lat="42.357614153321684" lon="13.504536897318072"><ele>876.0</ele><time>2026-04-23T10:12:50Z</time></trkpt><trkpt lat="42.357458085156814" lon="13.50449553776191"><ele>876.0</ele><time>2026-04-23T10:12:51Z</time></trkpt><trkpt lat="42.35730997275393" lon="13.504471355622057"><ele>876.0</ele><time>2026-04-23T10:12:52Z</time></trkpt><trkpt lat="42.35715205279982" lon="13.504478043136066"><ele>877.3333333333333</ele><time>2026-04-23T10:12:53Z</time></trkpt><trkpt lat="42.35699552282614" lon="13.504507429319528"><ele>878.6666666666666</ele><time>2026-04-23T10:12:54Z</time></trkpt><trkpt lat="42.35684639287936" lon="13.504575347469594"><ele>880.0</ele><time>2026-04-23T10:12:55Z</time></trkpt><trkpt lat="42.356720757347226" lon="13.504675061256476"><ele>884.5</ele><time>2026-04-23T10:12:56Z</time></trkpt><trkpt lat="42.35662999764218" lon="13.504797509106305"><ele>889.0</ele><time>2026-04-23T10:12:57Z</time></trkpt><trkpt lat="42.35656177153813" lon="13.504935525305626"><ele>893.5</ele><time>2026-04-23T10:12:58Z</time></trkpt><trkpt lat="42.356502556661965" lon="13.505101517298028"><ele>898.0</ele><time>2026-04-23T10:12:59Z</time></trkpt><trkpt lat="42.35645365213989" lon="13.505294078607644"><ele>901.0</ele><time>2026-04-23T10:13:00Z</time></trkpt><trkpt lat="42.356407567909194" lon="13.505482719033362"><ele>904.0</ele><time>2026-04-23T10:13:01Z</time></trkpt><trkpt lat="42.356335548444285" lon="13.50563118750684"><ele>907.0</ele><time>2026-04-23T10:13:02Z</time></trkpt><trkpt lat="42.35622751322563" lon="13.505692968070132"><ele>910.0</ele><time>2026-04-23T10:13:03Z</time></trkpt><trkpt lat="42.35613055897923" lon="13.505716375874645"><ele>910.25</ele><time>2026-04-23T10:13:04Z</time></trkpt><trkpt lat="42.356027895664404" lon="13.505692427969406"><ele>910.5</ele><time>2026-04-23T10:13:05Z</time></trkpt><trkpt lat="42.35591817129939" lon="13.50563367443795"><ele>910.75</ele><time>2026-04-23T10:13:06Z</time></trkpt><trkpt lat="42.3557932380393" lon="13.505539091366307"><ele>911.0</ele><time>2026-04-23T10:13:07Z</time></trkpt><trkpt lat="42.35565716751297" lon="13.5054146999456"><ele>914.0</ele><time>2026-04-23T10:13:08Z</time></trkpt><trkpt lat="42.355541276899096" lon="13.505263037488383"><ele>917.0</ele><time>2026-04-23T10:13:09Z</time></trkpt><trkpt lat="42.355430418055505" lon="13.505079631031881"><ele>920.0</ele><time>2026-04-23T10:13:10Z</time></trkpt><trkpt lat="42.3553238548166" lon="13.50487103136954"><ele>920.0</ele><time>2026-04-23T10:13:11Z</time></trkpt><trkpt lat="42.355246848727305" lon="13.504643878411818"><ele>920.0</ele><time>2026-04-23T10:13:12Z</time></trkpt><trkpt lat="42.35518888207017" lon="13.504406551506717"><ele>920.0</ele><time>2026-04-23T10:13:13Z</time></trkpt><trkpt lat="42.3551114209737" lon="13.504160765933662"><ele>916.6666666666667</ele><time>2026-04-23T10:13:14Z</time></trkpt><trkpt lat="42.35503819241385" lon="13.503913876319034"><ele>913.3333333333333</ele><time>2026-04-23T10:13:15Z</time></trkpt><trkpt lat="42.35495762966204" lon="13.503711251176883"><ele>910.0</ele><time>2026-04-23T10:13:16Z</time></trkpt><trkpt lat="42.35488523192931" lon="13.503524814357883"><ele>909.2</ele><time>2026-04-23T10:13:17Z</time></trkpt><trkpt lat="42.35482787332093" lon="13.503389376247664"><ele>908.4</ele><time>2026-04-23T10:13:18Z</time></trkpt><trkpt lat="42.35478298258383" lon="13.503294894582503"><ele>907.5999999999999</ele><time>2026-04-23T10:13:19Z</time></trkpt><trkpt lat="42.35468566068972" lon="13.50328591531146"><ele>906.8</ele><time>2026-04-23T10:13:21Z</time></trkpt><trkpt lat="42.35462395969971" lon="13.503440304075168"><ele>906.0</ele><time>2026-04-23T10:13:23Z</time></trkpt><trkpt lat="42.354640873600474" lon="13.503551670801203"><ele>905.25</ele><time>2026-04-23T10:13:24Z</time></trkpt><trkpt lat="42.35469177908456" lon="13.5036705672685"><ele>904.5</ele><time>2026-04-23T10:13:25Z</time></trkpt><trkpt lat="42.3547632129049" lon="13.503792532548797"><ele>903.75</ele><time>2026-04-23T10:13:26Z</time></trkpt><trkpt lat="42.354842608685935" lon="13.503923195590083"><ele>903.0</ele><time>2026-04-23T10:13:27Z</time></trkpt><trkpt lat="42.35490714191239" lon="13.504071741872208"><ele>904.75</ele><time>2026-04-23T10:13:28Z</time></trkpt><trkpt lat="42.35494651990263" lon="13.504248397436099"><ele>906.5</ele><time>2026-04-23T10:13:29Z</time></trkpt><trkpt lat="42.35496322271724" lon="13.504449746047172"><ele>908.25</ele><time>2026-04-23T10:13:30Z</time></trkpt><trkpt lat="42.3549774356005" lon="13.504658381581683"><ele>910.0</ele><time>2026-04-23T10:13:31Z</time></trkpt><trkpt lat="42.35499568648759" lon="13.504864742995522"><ele>913.3333333333333</ele><time>2026-04-23T10:13:32Z</time></trkpt><trkpt lat="42.355035904417925" lon="13.505078577959836"><ele>916.6666666666667</ele><time>2026-04-23T10:13:33Z</time></trkpt><trkpt lat="42.35509782682103" lon="13.50529693927481"><ele>920.0</ele><time>2026-04-23T10:13:34Z</time></trkpt><trkpt lat="42.355175113108444" lon="13.505510345878202"><ele>922.3333333333334</ele><time>2026-04-23T10:13:35Z</time></trkpt><trkpt lat="42.355269011080516" lon="13.505716754070137"><ele>924.6666666666667</ele><time>2026-04-23T10:13:36Z</time></trkpt><trkpt lat="42.35536957926562" lon="13.505909527295264"><ele>927.0</ele><time>2026-04-23T10:13:37Z</time></trkpt><trkpt lat="42.35547783761578" lon="13.50610806300253"><ele>929.3333333333333</ele><time>2026-04-23T10:13:38Z</time></trkpt><trkpt lat="42.355592215620334" lon="13.506296958197249"><ele>931.6666666666666</ele><time>2026-04-23T10:13:39Z</time></trkpt><trkpt lat="42.355705410487175" lon="13.506500009239105"><ele>934.0</ele><time>2026-04-23T10:13:40Z</time></trkpt><trkpt lat="42.355817951735425" lon="13.506701104424307"><ele>934.0</ele><time>2026-04-23T10:13:41Z</time></trkpt><trkpt lat="42.35593653562292" lon="13.50689615450674"><ele>934.0</ele><time>2026-04-23T10:13:42Z</time></trkpt><trkpt lat="42.356061639914955" lon="13.507086505122404"><ele>934.0</ele><time>2026-04-23T10:13:43Z</time></trkpt><trkpt lat="42.35618509823798" lon="13.507274789638432"><ele>933.3333333333333</ele><time>2026-04-23T10:13:44Z</time></trkpt><trkpt lat="42.35630505572189" lon="13.507478283328233"><ele>932.6666666666667</ele><time>2026-04-23T10:13:45Z</time></trkpt><trkpt lat="42.356413748174035" lon="13.507689127019585"><ele>932.0</ele><time>2026-04-23T10:13:46Z</time></trkpt><trkpt lat="42.35650591040614" lon="13.507919858818914"><ele>938.0</ele><time>2026-04-23T10:13:47Z</time></trkpt><trkpt lat="42.3565935123784" lon="13.508165778086731"><ele>944.0</ele><time>2026-04-23T10:13:48Z</time></trkpt><trkpt lat="42.35667587768056" lon="13.50840084069447"><ele>950.0</ele><time>2026-04-23T10:13:49Z</time></trkpt><trkpt lat="42.3567510408257" lon="13.508614689972568"><ele>953.0</ele><time>2026-04-23T10:13:50Z</time></trkpt><trkpt lat="42.356814393035854" lon="13.508773243223711"><ele>956.0</ele><time>2026-04-23T10:13:51Z</time></trkpt><trkpt lat="42.356868210571385" lon="13.5088719109987"><ele>959.0</ele><time>2026-04-23T10:13:52Z</time></trkpt><trkpt lat="42.356935156755604" lon="13.508933480315523"><ele>962.0</ele><time>2026-04-23T10:13:53Z</time></trkpt><trkpt lat="42.35701479821367" lon="13.50894791921294"><ele>965.0</ele><time>2026-04-23T10:13:54Z</time></trkpt><trkpt lat="42.35711576885646" lon="13.508949115537334"><ele>962.6</ele><time>2026-04-23T10:13:55Z</time></trkpt><trkpt lat="42.35721830695207" lon="13.50894633973273"><ele>960.2</ele><time>2026-04-23T10:13:56Z</time></trkpt><trkpt lat="42.35732451260693" lon="13.508952649756392"><ele>957.8</ele><time>2026-04-23T10:13:57Z</time></trkpt><trkpt lat="42.35742663169186" lon="13.508962022933641"><ele>955.4</ele><time>2026-04-23T10:13:58Z</time></trkpt><trkpt lat="42.357509603320864" lon="13.509001064162154"><ele>953.0</ele><time>2026-04-23T10:13:59Z</time></trkpt><trkpt lat="42.35757324461176" lon="13.50909163937934"><ele>953.0</ele><time>2026-04-23T10:14:00Z</time></trkpt><trkpt lat="42.35765452445555" lon="13.509187578444292"><ele>953.0</ele><time>2026-04-23T10:14:01Z</time></trkpt><trkpt lat="42.35772833799689" lon="13.509316222795999"><ele>953.0</ele><time>2026-04-23T10:14:02Z</time></trkpt><trkpt lat="42.3577954169812" lon="13.509437477544324"><ele>953.0</ele><time>2026-04-23T10:14:03Z</time></trkpt><trkpt lat="42.35785968068866" lon="13.50957964954351"><ele>955.75</ele><time>2026-04-23T10:14:04Z</time></trkpt><trkpt lat="42.35791128134433" lon="13.50973702375194"><ele>958.5</ele><time>2026-04-23T10:14:05Z</time></trkpt><trkpt lat="42.35794969105462" lon="13.509903971303249"><ele>961.25</ele><time>2026-04-23T10:14:06Z</time></trkpt><trkpt lat="42.35797584057724" lon="13.510077147978883"><ele>964.0</ele><time>2026-04-23T10:14:07Z</time></trkpt><trkpt lat="42.35797566567685" lon="13.510251874748402"><ele>963.9999999999999</ele><time>2026-04-23T10:14:08Z</time></trkpt><trkpt lat="42.35796867330211" lon="13.510394925813717"><ele>964.0</ele><time>2026-04-23T10:14:09Z</time></trkpt><trkpt lat="42.35792944820845" lon="13.510495635366244"><ele>964.0</ele><time>2026-04-23T10:14:10Z</time></trkpt><trkpt lat="42.35787877380754" lon="13.510555224286366"><ele>964.0</ele><time>2026-04-23T10:14:11Z</time></trkpt><trkpt lat="42.35780676312434" lon="13.510590146486258"><ele>963.9999999999999</ele><time>2026-04-23T10:14:12Z</time></trkpt><trkpt lat="42.35772373119552" lon="13.510564047529314"><ele>964.0</ele><time>2026-04-23T10:14:13Z</time></trkpt><trkpt lat="42.357633276620504" lon="13.51057968123098"><ele>964.4000000000001</ele><time>2026-04-23T10:14:14Z</time></trkpt><trkpt lat="42.35755599509432" lon="13.510580530843306"><ele>964.8000000000001</ele><time>2026-04-23T10:14:15Z</time></trkpt><trkpt lat="42.35749173605866" lon="13.510636635925737"><ele>965.1999999999999</ele><time>2026-04-23T10:14:18Z</time></trkpt><trkpt lat="42.35758512393919" lon="13.51082716811956"><ele>965.5999999999999</ele><time>2026-04-23T10:14:20Z</time></trkpt><trkpt lat="42.357649711578446" lon="13.510912537720488"><ele>966.0</ele><time>2026-04-23T10:14:21Z</time></trkpt><trkpt lat="42.35769262164323" lon="13.511025697366756"><ele>966.0</ele><time>2026-04-23T10:14:22Z</time></trkpt><trkpt lat="42.357742156548014" lon="13.51112211761978"><ele>966.0</ele><time>2026-04-23T10:14:23Z</time></trkpt><trkpt lat="42.357803788564475" lon="13.511319961684961"><ele>966.0</ele><time>2026-04-23T10:14:24Z</time></trkpt><trkpt lat="42.35785249728119" lon="13.511453678689223"><ele>966.0</ele><time>2026-04-23T10:14:25Z</time></trkpt><trkpt lat="42.35790929148458" lon="13.51156840433992"><ele>966.0</ele><time>2026-04-23T10:14:26Z</time></trkpt><trkpt lat="42.357951742196256" lon="13.511701150096963"><ele>965.9999999999999</ele><time>2026-04-23T10:14:27Z</time></trkpt><trkpt lat="42.35799626688017" lon="13.511833472679479"><ele>965.9999999999999</ele><time>2026-04-23T10:14:28Z</time></trkpt><trkpt lat="42.35804081167343" lon="13.511968218071178"><ele>966.0</ele><time>2026-04-23T10:14:29Z</time></trkpt><trkpt lat="42.358086395019974" lon="13.512099666992695"><ele>966.0</ele><time>2026-04-23T10:14:30Z</time></trkpt><trkpt lat="42.358136111790344" lon="13.512229669302434"><ele>966.5999999999999</ele><time>2026-04-23T10:14:31Z</time></trkpt><trkpt lat="42.35818430760065" lon="13.512362181251275"><ele>967.1999999999999</ele><time>2026-04-23T10:14:32Z</time></trkpt><trkpt lat="42.35823129197833" lon="13.512493061206287"><ele>967.8000000000001</ele><time>2026-04-23T10:14:33Z</time></trkpt><trkpt lat="42.358272083382" lon="13.51261880672735"><ele>968.4000000000001</ele><time>2026-04-23T10:14:34Z</time></trkpt><trkpt lat="42.358289738895685" lon="13.512707887952345"><ele>969.0</ele><time>2026-04-23T10:14:35Z</time></trkpt><trkpt lat="42.35834545897315" lon="13.512777955419073"><ele>969.0</ele><time>2026-04-23T10:14:58Z</time></trkpt><trkpt lat="42.3583781636474" lon="13.512861686651306"><ele>969.0</ele><time>2026-04-23T10:15:18Z</time></trkpt><trkpt lat="42.35843412392481" lon="13.513007222471058"><ele>969.0</ele><time>2026-04-23T10:15:20Z</time></trkpt><trkpt lat="42.35847280109212" lon="13.513104558457911"><ele>969.0</ele><time>2026-04-23T10:15:21Z</time></trkpt><trkpt lat="42.358522338821416" lon="13.513198202371818"><ele>969.0</ele><time>2026-04-23T10:15:22Z</time></trkpt><trkpt lat="42.358559255383895" lon="13.513310339738055"><ele>969.0</ele><time>2026-04-23T10:15:23Z</time></trkpt><trkpt lat="42.358603289232136" lon="13.513432382225114"><ele>969.5</ele><time>2026-04-23T10:15:24Z</time></trkpt><trkpt lat="42.3586522124774" lon="13.513561520860044"><ele>970.0</ele><time>2026-04-23T10:15:25Z</time></trkpt><trkpt lat="42.358698808479936" lon="13.513699505304666"><ele>970.5</ele><time>2026-04-23T10:15:26Z</time></trkpt><trkpt lat="42.3587473910492" lon="13.51383637022862"><ele>971.0</ele><time>2026-04-23T10:15:27Z</time></trkpt><trkpt lat="42.35880120234434" lon="13.513979391036775"><ele>971.25</ele><time>2026-04-23T10:15:28Z</time></trkpt><trkpt lat="42.3588620282876" lon="13.514117436151645"><ele>971.5</ele><time>2026-04-23T10:15:29Z</time></trkpt><trkpt lat="42.35892325827447" lon="13.514258767030455"><ele>971.75</ele><time>2026-04-23T10:15:30Z</time></trkpt><trkpt lat="42.35898482153366" lon="13.514403394006937"><ele>972.0</ele><time>2026-04-23T10:15:31Z</time></trkpt><trkpt lat="42.35904967637466" lon="13.514545561015156"><ele>974.6</ele><time>2026-04-23T10:15:32Z</time></trkpt><trkpt lat="42.35911347683334" lon="13.51468210981214"><ele>977.2</ele><time>2026-04-23T10:15:33Z</time></trkpt><trkpt lat="42.359172690602826" lon="13.514814013301327"><ele>979.8</ele><time>2026-04-23T10:15:34Z</time></trkpt><trkpt lat="42.359230254111196" lon="13.514937433756185"><ele>982.4</ele><time>2026-04-23T10:15:35Z</time></trkpt><trkpt lat="42.35930800811112" lon="13.51502055615525"><ele>985.0</ele><time>2026-04-23T10:15:36Z</time></trkpt><trkpt lat="42.359392430905075" lon="13.515075762547522"><ele>985.0</ele><time>2026-04-23T10:15:37Z</time></trkpt><trkpt lat="42.35948117896274" lon="13.51509919601312"><ele>985.0</ele><time>2026-04-23T10:15:37.999Z</time></trkpt><trkpt lat="42.359561755181524" lon="13.515039185840585"><ele>985.0</ele><time>2026-04-23T10:15:38.999Z</time></trkpt><trkpt lat="42.35965161171892" lon="13.514985374880853"><ele>985.0</ele><time>2026-04-23T10:15:39.999Z</time></trkpt><trkpt lat="42.35971492478491" lon="13.51486481007381"><ele>985.0</ele><time>2026-04-23T10:15:40.999Z</time></trkpt><trkpt lat="42.35978957088053" lon="13.514751686800015"><ele>986.5</ele><time>2026-04-23T10:15:41.999Z</time></trkpt><trkpt lat="42.35987006573997" lon="13.514620353904267"><ele>988.0</ele><time>2026-04-23T10:15:42.999Z</time></trkpt><trkpt lat="42.35995354502321" lon="13.51448088077587"><ele>989.5</ele><time>2026-04-23T10:15:43.999Z</time></trkpt><trkpt lat="42.360041458200946" lon="13.51433579162262"><ele>991.0</ele><time>2026-04-23T10:15:44.999Z</time></trkpt><trkpt lat="42.360132159440575" lon="13.514191459459019"><ele>991.0</ele><time>2026-04-23T10:15:45.999Z</time></trkpt><trkpt lat="42.360224578620695" lon="13.51405021818919"><ele>991.0</ele><time>2026-04-23T10:15:46.999Z</time></trkpt><trkpt lat="42.36031846334497" lon="13.513918871295905"><ele>991.0</ele><time>2026-04-23T10:15:47.999Z</time></trkpt><trkpt lat="42.36042867083476" lon="13.513811777659459"><ele>991.0</ele><time>2026-04-23T10:15:48.999Z</time></trkpt><trkpt lat="42.3605345024017" lon="13.513697358965361"><ele>992.0</ele><time>2026-04-23T10:15:49.999Z</time></trkpt><trkpt lat="42.360644628521094" lon="13.513595640772028"><ele>993.0</ele><time>2026-04-23T10:15:50.999Z</time></trkpt><trkpt lat="42.36075561186725" lon="13.513501584844958"><ele>994.0</ele><time>2026-04-23T10:15:51.999Z</time></trkpt><trkpt lat="42.36085372381758" lon="13.51339653224991"><ele>995.0</ele><time>2026-04-23T10:15:52.999Z</time></trkpt><trkpt lat="42.36095826925361" lon="13.513313392134997"><ele>995.0</ele><time>2026-04-23T10:15:53.999Z</time></trkpt><trkpt lat="42.361064950030155" lon="13.513233837137188"><ele>995.0</ele><time>2026-04-23T10:15:54.999Z</time></trkpt><trkpt lat="42.361173072125986" lon="13.513154977945323"><ele>995.0</ele><time>2026-04-23T10:15:55.999Z</time></trkpt><trkpt lat="42.36128393540662" lon="13.513080008283346"><ele>995.0</ele><time>2026-04-23T10:15:56.999Z</time></trkpt><trkpt lat="42.36140837726835" lon="13.513025923170064"><ele>998.0</ele><time>2026-04-23T10:15:57.999Z</time></trkpt><trkpt lat="42.36154077353406" lon="13.512987723315149"><ele>1001.0</ele><time>2026-04-23T10:15:58.999Z</time></trkpt><trkpt lat="42.36167934945949" lon="13.512957585992554"><ele>1004.0</ele><time>2026-04-23T10:15:59.999Z</time></trkpt><trkpt lat="42.361819833835995" lon="13.512930771864749"><ele>1007.0</ele><time>2026-04-23T10:16:00.999Z</time></trkpt><trkpt lat="42.36196675787755" lon="13.512914572127755"><ele>1007.0</ele><time>2026-04-23T10:16:01.999Z</time></trkpt><trkpt lat="42.36211371342238" lon="13.512916519631235"><ele>1007.0</ele><time>2026-04-23T10:16:02.999Z</time></trkpt><trkpt lat="42.36225834175278" lon="13.512940783256052"><ele>1007.0</ele><time>2026-04-23T10:16:03.999Z</time></trkpt><trkpt lat="42.362392264275904" lon="13.51299269388536"><ele>1007.0</ele><time>2026-04-23T10:16:04.999Z</time></trkpt><trkpt lat="42.362516566944635" lon="13.513073496132261"><ele>1007.0</ele><time>2026-04-23T10:16:05.999Z</time></trkpt><trkpt lat="42.3626428556565" lon="13.513175028677972"><ele>1007.0</ele><time>2026-04-23T10:16:06.999Z</time></trkpt><trkpt lat="42.362768609141526" lon="13.513290657386815"><ele>1007.0</ele><time>2026-04-23T10:16:07.999Z</time></trkpt><trkpt lat="42.362898151432226" lon="13.513415697700038"><ele>1007.0</ele><time>2026-04-23T10:16:08.999Z</time></trkpt><trkpt lat="42.363027824516635" lon="13.513535882762868"><ele>1007.0</ele><time>2026-04-23T10:16:09.999Z</time></trkpt><trkpt lat="42.363157126587616" lon="13.513656611303759"><ele>1007.0</ele><time>2026-04-23T10:16:10.999Z</time></trkpt><trkpt lat="42.36328838916781" lon="13.513781213453438"><ele>1009.6666666666667</ele><time>2026-04-23T10:16:11.999Z</time></trkpt><trkpt lat="42.36342090736949" lon="13.513899807013935"><ele>1012.3333333333333</ele><time>2026-04-23T10:16:12.999Z</time></trkpt><trkpt lat="42.36355603509563" lon="13.514021817058893"><ele>1015.0</ele><time>2026-04-23T10:16:13.999Z</time></trkpt><trkpt lat="42.3636919467124" lon="13.514146685072326"><ele>1015.0</ele><time>2026-04-23T10:16:14.999Z</time></trkpt><trkpt lat="42.36382238458047" lon="13.51426508856133"><ele>1015.0</ele><time>2026-04-23T10:16:15.999Z</time></trkpt><trkpt lat="42.363956132513735" lon="13.514389021281005"><ele>1015.0</ele><time>2026-04-23T10:16:16.999Z</time></trkpt><trkpt lat="42.36407371675395" lon="13.514484885347766"><ele>1015.2</ele><time>2026-04-23T10:16:17.999Z</time></trkpt><trkpt lat="42.364158432467256" lon="13.514573228349402"><ele>1015.4</ele><time>2026-04-23T10:16:18.999Z</time></trkpt><trkpt lat="42.36423323397215" lon="13.514640541659661"><ele>1015.5999999999999</ele><time>2026-04-23T10:16:20.999Z</time></trkpt><trkpt lat="42.36411998746161" lon="13.51470628841092"><ele>1015.8</ele><time>2026-04-23T10:16:23.999Z</time></trkpt><trkpt lat="42.364048085869115" lon="13.514742817241201"><ele>1016.0</ele><time>2026-04-23T10:16:24.999Z</time></trkpt><trkpt lat="42.363965581182676" lon="13.514788732785401"><ele>1016.0000000000001</ele><time>2026-04-23T10:16:25.999Z</time></trkpt><trkpt lat="42.36388799370712" lon="13.514831868246358"><ele>1016.0</ele><time>2026-04-23T10:16:26.999Z</time></trkpt><trkpt lat="42.36382112825239" lon="13.514864977354739"><ele>1016.0</ele><time>2026-04-23T10:16:27.999Z</time></trkpt><trkpt lat="42.363772132251974" lon="13.514955484509532"><ele>1016.0</ele><time>2026-04-23T10:16:28.999Z</time></trkpt><trkpt lat="42.36371888242027" lon="13.51501665543512"><ele>1016.0000000000001</ele><time>2026-04-23T10:16:29.999Z</time></trkpt><trkpt lat="42.36363403212511" lon="13.51504631800678"><ele>1016.0</ele><time>2026-04-23T10:16:30.999Z</time></trkpt><trkpt lat="42.36355798497405" lon="13.51504522660253"><ele>1018.1999999999999</ele><time>2026-04-23T10:16:31.999Z</time></trkpt><trkpt lat="42.363469020153126" lon="13.51502492818691"><ele>1020.3999999999999</ele><time>2026-04-23T10:16:33.999Z</time></trkpt><trkpt lat="42.36336769893958" lon="13.514988467418423"><ele>1022.6</ele><time>2026-04-23T10:16:37.999Z</time></trkpt><trkpt lat="42.36327122252515" lon="13.514931822683375"><ele>1024.8</ele><time>2026-04-23T10:16:39.999Z</time></trkpt><trkpt lat="42.36321210412462" lon="13.514900062934666"><ele>1027.0</ele><time>2026-04-23T10:16:40.999Z</time></trkpt><trkpt lat="42.36304144681549" lon="13.514930915863376"><ele>1027.5</ele><time>2026-04-23T10:16:42.999Z</time></trkpt><trkpt lat="42.362968362881965" lon="13.51512119596248"><ele>1028.0</ele><time>2026-04-23T10:16:43.999Z</time></trkpt><trkpt lat="42.36297155359977" lon="13.51528737033105"><ele>1028.5</ele><time>2026-04-23T10:16:44.999Z</time></trkpt><trkpt lat="42.363009115858844" lon="13.515459584600647"><ele>1029.0</ele><time>2026-04-23T10:16:46.999Z</time></trkpt><trkpt lat="42.36302096008935" lon="13.515567385498851"><ele>1029.3333333333333</ele><time>2026-04-23T10:16:49.999Z</time></trkpt><trkpt lat="42.36302411545083" lon="13.515656306833812"><ele>1029.6666666666667</ele><time>2026-04-23T10:16:52.999Z</time></trkpt><trkpt lat="42.36302216223346" lon="13.51574664395722"><ele>1030.0</ele><time>2026-04-23T10:16:55.999Z</time></trkpt><trkpt lat="42.363030245212634" lon="13.5158679518839"><ele>1030.3333333333335</ele><time>2026-04-23T10:16:57.999Z</time></trkpt><trkpt lat="42.3630821789466" lon="13.5159444284878"><ele>1030.6666666666667</ele><time>2026-04-23T10:16:58.999Z</time></trkpt><trkpt lat="42.36311197724656" lon="13.51610916023686"><ele>1031.0</ele><time>2026-04-23T10:17:00.999Z</time></trkpt><trkpt lat="42.36312564264258" lon="13.516199177774249"><ele>1033.2</ele><time>2026-04-23T10:17:01.999Z</time></trkpt><trkpt lat="42.36313330967808" lon="13.516297377350691"><ele>1035.3999999999999</ele><time>2026-04-23T10:17:02.999Z</time></trkpt><trkpt lat="42.36314729055515" lon="13.516422039023668"><ele>1037.6</ele><time>2026-04-23T10:17:03.999Z</time></trkpt><trkpt lat="42.363154519527036" lon="13.516583585280248"><ele>1039.8</ele><time>2026-04-23T10:17:05.999Z</time></trkpt><trkpt lat="42.36319678804333" lon="13.516736558595746"><ele>1042.0</ele><time>2026-04-23T10:17:07.999Z</time></trkpt><trkpt lat="42.363250292055014" lon="13.516870698164984"><ele>1042.0</ele><time>2026-04-23T10:17:09.999Z</time></trkpt><trkpt lat="42.36330947840898" lon="13.516962634533277"><ele>1042.0</ele><time>2026-04-23T10:17:11.999Z</time></trkpt><trkpt lat="42.36336994121249" lon="13.517031494902211"><ele>1042.0</ele><time>2026-04-23T10:17:13.999Z</time></trkpt><trkpt lat="42.36344428554835" lon="13.517104603359593"><ele>1042.0</ele><time>2026-04-23T10:17:15.999Z</time></trkpt><trkpt lat="42.36350928160146" lon="13.517128982216045"><ele>1042.0</ele><time>2026-04-23T10:17:16.999Z</time></trkpt><trkpt lat="42.3635779447725" lon="13.51716664426707"><ele>1042.0</ele><time>2026-04-23T10:17:17.999Z</time></trkpt><trkpt lat="42.363644813155574" lon="13.51721728135745"><ele>1044.3333333333333</ele><time>2026-04-23T10:17:18.999Z</time></trkpt><trkpt lat="42.36372168549555" lon="13.517261746122973"><ele>1046.6666666666665</ele><time>2026-04-23T10:17:19.999Z</time></trkpt><trkpt lat="42.363806336407855" lon="13.51729852066337"><ele>1049.0</ele><time>2026-04-23T10:17:20.999Z</time></trkpt><trkpt lat="42.36389300054254" lon="13.517320734317058"><ele>1051.3333333333333</ele><time>2026-04-23T10:17:21.999Z</time></trkpt><trkpt lat="42.36397367335594" lon="13.517328706709124"><ele>1053.6666666666667</ele><time>2026-04-23T10:17:22.999Z</time></trkpt><trkpt lat="42.3640497453173" lon="13.5173288939268"><ele>1056.0</ele><time>2026-04-23T10:17:23.999Z</time></trkpt><trkpt lat="42.36412623379216" lon="13.517339786019729"><ele>1056.0</ele><time>2026-04-23T10:17:24.999Z</time></trkpt><trkpt lat="42.364198522742676" lon="13.51735298715173"><ele>1056.0</ele><time>2026-04-23T10:17:25.999Z</time></trkpt><trkpt lat="42.364260438386424" lon="13.517368432523407"><ele>1056.0</ele><time>2026-04-23T10:17:26.999Z</time></trkpt><trkpt lat="42.364332541743075" lon="13.517381771212653"><ele>1056.0</ele><time>2026-04-23T10:17:27.999Z</time></trkpt><trkpt lat="42.36440469185802" lon="13.517405384135843"><ele>1056.0</ele><time>2026-04-23T10:17:28.999Z</time></trkpt><trkpt lat="42.36448655534129" lon="13.517423242603147"><ele>1056.0</ele><time>2026-04-23T10:17:29.999Z</time></trkpt><trkpt lat="42.364561607932956" lon="13.51744043527639"><ele>1056.0</ele><time>2026-04-23T10:17:30.999Z</time></trkpt><trkpt lat="42.36463439365573" lon="13.517464653467238"><ele>1056.6666666666667</ele><time>2026-04-23T10:17:31.999Z</time></trkpt><trkpt lat="42.36470203580336" lon="13.517486228531808"><ele>1057.3333333333333</ele><time>2026-04-23T10:17:32.999Z</time></trkpt><trkpt lat="42.36477424083939" lon="13.517511626768467"><ele>1058.0</ele><time>2026-04-23T10:17:33.999Z</time></trkpt><trkpt lat="42.36484746344939" lon="13.517540012954512"><ele>1058.6666666666665</ele><time>2026-04-23T10:17:34.999Z</time></trkpt><trkpt lat="42.36491989886452" lon="13.517576592793825"><ele>1059.3333333333333</ele><time>2026-04-23T10:17:35.999Z</time></trkpt><trkpt lat="42.364993454617306" lon="13.51761124879171"><ele>1060.0</ele><time>2026-04-23T10:17:36.999Z</time></trkpt><trkpt lat="42.3650731481614" lon="13.517641528709765"><ele>1060.0</ele><time>2026-04-23T10:17:37.999Z</time></trkpt><trkpt lat="42.36519626466924" lon="13.517712483413765"><ele>1060.0</ele><time>2026-04-23T10:17:39.999Z</time></trkpt><trkpt lat="42.365262163134624" lon="13.517745900396038"><ele>1060.0</ele><time>2026-04-23T10:17:40.999Z</time></trkpt><trkpt lat="42.36532920572055" lon="13.517792062056275"><ele>1060.0</ele><time>2026-04-23T10:17:41.999Z</time></trkpt><trkpt lat="42.36539831225903" lon="13.517834731093426"><ele>1060.0</ele><time>2026-04-23T10:17:42.999Z</time></trkpt><trkpt lat="42.36546208967555" lon="13.517876654544445"><ele>1060.0</ele><time>2026-04-23T10:17:43.999Z</time></trkpt><trkpt lat="42.36552837251425" lon="13.517916173255065"><ele>1061.5</ele><time>2026-04-23T10:17:44.999Z</time></trkpt><trkpt lat="42.365598754726975" lon="13.517957379962919"><ele>1063.0</ele><time>2026-04-23T10:17:45.999Z</time></trkpt><trkpt lat="42.36566437429115" lon="13.517997882004249"><ele>1064.5</ele><time>2026-04-23T10:17:46.999Z</time></trkpt><trkpt lat="42.36573214927299" lon="13.518031727194636"><ele>1066.0</ele><time>2026-04-23T10:17:47.999Z</time></trkpt><trkpt lat="42.36581628574354" lon="13.51812915390159"><ele>1067.5</ele><time>2026-04-23T10:17:49.999Z</time></trkpt><trkpt lat="42.365770944148316" lon="13.51823643247279"><ele>1069.0</ele><time>2026-04-23T10:17:51.999Z</time></trkpt><trkpt lat="42.3656914762136" lon="13.51823936815977"><ele>1069.0</ele><time>2026-04-23T10:17:53.999Z</time></trkpt><trkpt lat="42.36557054216209" lon="13.518179567852682"><ele>1069.0</ele><time>2026-04-23T10:17:55.999Z</time></trkpt><trkpt lat="42.365495569568445" lon="13.518167111586681"><ele>1069.0</ele><time>2026-04-23T10:17:56.999Z</time></trkpt><trkpt lat="42.36541342346533" lon="13.518122123043034"><ele>1069.0</ele><time>2026-04-23T10:17:57.999Z</time></trkpt><trkpt lat="42.36533194844387" lon="13.518132333162585"><ele>1069.0</ele><time>2026-04-23T10:17:58.999Z</time></trkpt><trkpt lat="42.365243171883414" lon="13.518125472037294"><ele>1070.6000000000001</ele><time>2026-04-23T10:17:59.999Z</time></trkpt><trkpt lat="42.36515004560887" lon="13.518128434343057"><ele>1072.2</ele><time>2026-04-23T10:18:00.999Z</time></trkpt><trkpt lat="42.36505255208033" lon="13.518133912365615"><ele>1073.8000000000002</ele><time>2026-04-23T10:18:01.999Z</time></trkpt><trkpt lat="42.364958600903414" lon="13.518149104006547"><ele>1075.4</ele><time>2026-04-23T10:18:02.999Z</time></trkpt><trkpt lat="42.36485113351088" lon="13.51816300599327"><ele>1077.0</ele><time>2026-04-23T10:18:03.999Z</time></trkpt><trkpt lat="42.36476143172272" lon="13.518174278177058"><ele>1077.0</ele><time>2026-04-23T10:18:04.999Z</time></trkpt><trkpt lat="42.36469035224705" lon="13.518188774454712"><ele>1077.0</ele><time>2026-04-23T10:18:05.999Z</time></trkpt><trkpt lat="42.364631373725686" lon="13.51822927731615"><ele>1077.0</ele><time>2026-04-23T10:18:06.999Z</time></trkpt><trkpt lat="42.36459244210564" lon="13.518352477245937"><ele>1077.0</ele><time>2026-04-23T10:18:08.999Z</time></trkpt><trkpt lat="42.36465219884667" lon="13.518428466563854"><ele>1077.0</ele><time>2026-04-23T10:18:09.999Z</time></trkpt><trkpt lat="42.36478114869687" lon="13.518475644918654"><ele>1077.0</ele><time>2026-04-23T10:18:11.999Z</time></trkpt><trkpt lat="42.36486014603189" lon="13.5184572711321"><ele>1077.0</ele><time>2026-04-23T10:18:12.999Z</time></trkpt><trkpt lat="42.364950089201436" lon="13.518471130301384"><ele>1077.0</ele><time>2026-04-23T10:18:13.999Z</time></trkpt><trkpt lat="42.365032919736784" lon="13.518491734402545"><ele>1077.0</ele><time>2026-04-23T10:18:14.999Z</time></trkpt><trkpt lat="42.36511792234588" lon="13.518527476163577"><ele>1077.0</ele><time>2026-04-23T10:18:15.999Z</time></trkpt><trkpt lat="42.36518935046793" lon="13.51857491157897"><ele>1077.0</ele><time>2026-04-23T10:18:16.999Z</time></trkpt><trkpt lat="42.36524135952484" lon="13.518624168707655"><ele>1077.0</ele><time>2026-04-23T10:18:17.999Z</time></trkpt><trkpt lat="42.36530618482922" lon="13.518697016879635"><ele>1077.0</ele><time>2026-04-23T10:18:18.999Z</time></trkpt><trkpt lat="42.365377836946756" lon="13.5187730648443"><ele>1077.0</ele><time>2026-04-23T10:18:19.999Z</time></trkpt><trkpt lat="42.36544651422622" lon="13.518845955726377"><ele>1077.0</ele><time>2026-04-23T10:18:20.999Z</time></trkpt><trkpt lat="42.36551427656602" lon="13.518897540696319"><ele>1077.0</ele><time>2026-04-23T10:18:21.999Z</time></trkpt><trkpt lat="42.365584977317255" lon="13.518986397319406"><ele>1077.0</ele><time>2026-04-23T10:18:22.999Z</time></trkpt><trkpt lat="42.365645397106796" lon="13.519049693625703"><ele>1078.3333333333333</ele><time>2026-04-23T10:18:23.999Z</time></trkpt><trkpt lat="42.36569989240853" lon="13.519108523928972"><ele>1079.6666666666667</ele><time>2026-04-23T10:18:24.999Z</time></trkpt><trkpt lat="42.365753538632724" lon="13.519176943480442"><ele>1081.0</ele><time>2026-04-23T10:18:25.999Z</time></trkpt><trkpt lat="42.3657990110424" lon="13.51933126647542"><ele>1082.3333333333335</ele><time>2026-04-23T10:18:27.999Z</time></trkpt><trkpt lat="42.365799401554625" lon="13.519422864247936"><ele>1083.6666666666667</ele><time>2026-04-23T10:18:28.999Z</time></trkpt><trkpt lat="42.365795584501726" lon="13.519509961666204"><ele>1085.0</ele><time>2026-04-23T10:18:29.999Z</time></trkpt><trkpt lat="42.3657977192016" lon="13.519597535733771"><ele>1087.2</ele><time>2026-04-23T10:18:30.999Z</time></trkpt><trkpt lat="42.36581035551422" lon="13.51968537941398"><ele>1089.4</ele><time>2026-04-23T10:18:31.999Z</time></trkpt><trkpt lat="42.36579579583012" lon="13.519849652800353"><ele>1091.6</ele><time>2026-04-23T10:18:33.999Z</time></trkpt><trkpt lat="42.365793814453006" lon="13.520025698540943"><ele>1093.8</ele><time>2026-04-23T10:18:35.999Z</time></trkpt><trkpt lat="42.36580528150199" lon="13.520141714216912"><ele>1096.0</ele><time>2026-04-23T10:18:36.999Z</time></trkpt><trkpt lat="42.36579144853951" lon="13.520247687582692"><ele>1096.0</ele><time>2026-04-23T10:18:37.999Z</time></trkpt><trkpt lat="42.365806707609124" lon="13.520352154179376"><ele>1096.0</ele><time>2026-04-23T10:18:38.999Z</time></trkpt><trkpt lat="42.3658167607012" lon="13.520452367299322"><ele>1096.0</ele><time>2026-04-23T10:18:39.999Z</time></trkpt><trkpt lat="42.36583915444429" lon="13.520551649335642"><ele>1096.0</ele><time>2026-04-23T10:18:40.999Z</time></trkpt><trkpt lat="42.365856929755104" lon="13.520651596199228"><ele>1096.0</ele><time>2026-04-23T10:18:41.999Z</time></trkpt><trkpt lat="42.365860680514025" lon="13.520770509005837"><ele>1096.0</ele><time>2026-04-23T10:18:42.999Z</time></trkpt><trkpt lat="42.365870395103656" lon="13.520871881970741"><ele>1096.5</ele><time>2026-04-23T10:18:43.999Z</time></trkpt><trkpt lat="42.36586291725664" lon="13.520996051650554"><ele>1097.0</ele><time>2026-04-23T10:18:46Z</time></trkpt><trkpt lat="42.365852915452926" lon="13.521148525735432"><ele>1097.5</ele><time>2026-04-23T10:18:48Z</time></trkpt><trkpt lat="42.36584313708515" lon="13.521246402937052"><ele>1098.0</ele><time>2026-04-23T10:18:49Z</time></trkpt><trkpt lat="42.36583338458155" lon="13.521344021231133"><ele>1098.5</ele><time>2026-04-23T10:18:50Z</time></trkpt><trkpt lat="42.36582472048164" lon="13.521438322160414"><ele>1099.0</ele><time>2026-04-23T10:18:51Z</time></trkpt><trkpt lat="42.36581300108317" lon="13.521544646827165"><ele>1099.3333333333333</ele><time>2026-04-23T10:18:52Z</time></trkpt><trkpt lat="42.36579120342948" lon="13.521652539620622"><ele>1099.6666666666665</ele><time>2026-04-23T10:18:53Z</time></trkpt><trkpt lat="42.36575841063169" lon="13.521761526240526"><ele>1100.0</ele><time>2026-04-23T10:18:54Z</time></trkpt><trkpt lat="42.365729708545956" lon="13.52186073142178"><ele>1100.3333333333333</ele><time>2026-04-23T10:18:55Z</time></trkpt><trkpt lat="42.36572648101446" lon="13.521982132321476"><ele>1100.6666666666667</ele><time>2026-04-23T10:18:56Z</time></trkpt><trkpt lat="42.36573952364142" lon="13.522110807016471"><ele>1101.0</ele><time>2026-04-23T10:18:57Z</time></trkpt><trkpt lat="42.36574947893137" lon="13.522227291189402"><ele>1102.3999999999999</ele><time>2026-04-23T10:18:58Z</time></trkpt><trkpt lat="42.36574438616244" lon="13.522326658238761"><ele>1103.8</ele><time>2026-04-23T10:18:59Z</time></trkpt><trkpt lat="42.36571916721415" lon="13.522410931490617"><ele>1105.1999999999998</ele><time>2026-04-23T10:19:00Z</time></trkpt><trkpt lat="42.365632537225274" lon="13.522510126177284"><ele>1106.6</ele><time>2026-04-23T10:19:02Z</time></trkpt><trkpt lat="42.36555231677026" lon="13.522659002903158"><ele>1108.0</ele><time>2026-04-23T10:19:04Z</time></trkpt><trkpt lat="42.36550753152042" lon="13.522738439556823"><ele>1108.1666666666665</ele><time>2026-04-23T10:19:05Z</time></trkpt><trkpt lat="42.365460226979984" lon="13.522826976128101"><ele>1108.3333333333333</ele><time>2026-04-23T10:19:06Z</time></trkpt><trkpt lat="42.36541343896905" lon="13.522899232450628"><ele>1108.5</ele><time>2026-04-23T10:19:07Z</time></trkpt><trkpt lat="42.36535276490243" lon="13.522963448550996"><ele>1108.6666666666667</ele><time>2026-04-23T10:19:08Z</time></trkpt><trkpt lat="42.36529995481706" lon="13.52304336524305"><ele>1108.8333333333335</ele><time>2026-04-23T10:19:09Z</time></trkpt><trkpt lat="42.365251089111084" lon="13.523114234502824"><ele>1109.0</ele><time>2026-04-23T10:19:10Z</time></trkpt><trkpt lat="42.36519414845232" lon="13.523193154505252"><ele>1109.8333333333335</ele><time>2026-04-23T10:19:11Z</time></trkpt><trkpt lat="42.365149271952944" lon="13.52325554862428"><ele>1110.6666666666667</ele><time>2026-04-23T10:19:12Z</time></trkpt><trkpt lat="42.36510933240526" lon="13.523341460895967"><ele>1111.5</ele><time>2026-04-23T10:19:13Z</time></trkpt><trkpt lat="42.365042629091356" lon="13.523433969846574"><ele>1112.3333333333333</ele><time>2026-04-23T10:19:14Z</time></trkpt><trkpt lat="42.36496336762919" lon="13.523514016856511"><ele>1113.1666666666665</ele><time>2026-04-23T10:19:15Z</time></trkpt><trkpt lat="42.36490512386525" lon="13.52359575391633"><ele>1114.0</ele><time>2026-04-23T10:19:16Z</time></trkpt><trkpt lat="42.36485505849063" lon="13.523666013503956"><ele>1115.3333333333333</ele><time>2026-04-23T10:19:17Z</time></trkpt><trkpt lat="42.3647909903365" lon="13.523764579063203"><ele>1116.6666666666665</ele><time>2026-04-23T10:19:18Z</time></trkpt><trkpt lat="42.364746244296725" lon="13.52385471832206"><ele>1118.0</ele><time>2026-04-23T10:19:19Z</time></trkpt><trkpt lat="42.36469613051577" lon="13.523947392120279"><ele>1119.3333333333333</ele><time>2026-04-23T10:19:20Z</time></trkpt><trkpt lat="42.36464986944842" lon="13.524049646557936"><ele>1120.6666666666667</ele><time>2026-04-23T10:19:21Z</time></trkpt><trkpt lat="42.364614014249305" lon="13.524156440357713"><ele>1122.0</ele><time>2026-04-23T10:19:22Z</time></trkpt><trkpt lat="42.36458742685458" lon="13.52426703501515"><ele>1122.0</ele><time>2026-04-23T10:19:23Z</time></trkpt><trkpt lat="42.36456018115476" lon="13.524384846215122"><ele>1122.0</ele><time>2026-04-23T10:19:24Z</time></trkpt><trkpt lat="42.36453681381756" lon="13.524504464644512"><ele>1122.0</ele><time>2026-04-23T10:19:25Z</time></trkpt><trkpt lat="42.364511309809025" lon="13.524615469580334"><ele>1122.0</ele><time>2026-04-23T10:19:26Z</time></trkpt><trkpt lat="42.364486921155276" lon="13.524724796047964"><ele>1122.0</ele><time>2026-04-23T10:19:27Z</time></trkpt><trkpt lat="42.364470303144515" lon="13.524843226804366"><ele>1122.0</ele><time>2026-04-23T10:19:28Z</time></trkpt><trkpt lat="42.364461695713324" lon="13.52495855936253"><ele>1122.2</ele><time>2026-04-23T10:19:29Z</time></trkpt><trkpt lat="42.36446333485417" lon="13.525079738827477"><ele>1122.4</ele><time>2026-04-23T10:19:30Z</time></trkpt><trkpt lat="42.36449036018231" lon="13.525202983536172"><ele>1122.6</ele><time>2026-04-23T10:19:31Z</time></trkpt><trkpt lat="42.36452242363605" lon="13.525332056985404"><ele>1122.8</ele><time>2026-04-23T10:19:32Z</time></trkpt><trkpt lat="42.36455011767102" lon="13.525463823838399"><ele>1123.0</ele><time>2026-04-23T10:19:33Z</time></trkpt><trkpt lat="42.364576826878924" lon="13.525591071350924"><ele>1123.25</ele><time>2026-04-23T10:19:34Z</time></trkpt><trkpt lat="42.3645735422682" lon="13.525726282035453"><ele>1123.5</ele><time>2026-04-23T10:19:35Z</time></trkpt><trkpt lat="42.364573076409705" lon="13.52586265330142"><ele>1123.75</ele><time>2026-04-23T10:19:36Z</time></trkpt><trkpt lat="42.36456905152492" lon="13.525997442981305"><ele>1124.0</ele><time>2026-04-23T10:19:37Z</time></trkpt><trkpt lat="42.364538434022485" lon="13.526265115665293"><ele>1124.4</ele><time>2026-04-23T10:19:39Z</time></trkpt><trkpt lat="42.364517518458264" lon="13.526399589067426"><ele>1124.8000000000002</ele><time>2026-04-23T10:19:40Z</time></trkpt><trkpt lat="42.36450658742184" lon="13.52654007813135"><ele>1125.1999999999998</ele><time>2026-04-23T10:19:41Z</time></trkpt><trkpt lat="42.36451286218022" lon="13.52668310412303"><ele>1125.6</ele><time>2026-04-23T10:19:42Z</time></trkpt><trkpt lat="42.364518380678234" lon="13.526806017193069"><ele>1126.0</ele><time>2026-04-23T10:19:43Z</time></trkpt><trkpt lat="42.36453673150284" lon="13.526925057781881"><ele>1126.0</ele><time>2026-04-23T10:19:44Z</time></trkpt><trkpt lat="42.36454729024256" lon="13.527047773375507"><ele>1126.0</ele><time>2026-04-23T10:19:45Z</time></trkpt><trkpt lat="42.36456634666713" lon="13.527187545890527"><ele>1126.0</ele><time>2026-04-23T10:19:46Z</time></trkpt><trkpt lat="42.364585684231535" lon="13.527332719320153"><ele>1126.0</ele><time>2026-04-23T10:19:47Z</time></trkpt><trkpt lat="42.3646085358056" lon="13.527474997054608"><ele>1126.0</ele><time>2026-04-23T10:19:48Z</time></trkpt><trkpt lat="42.364614571019374" lon="13.52760828813056"><ele>1127.2</ele><time>2026-04-23T10:19:49Z</time></trkpt><trkpt lat="42.364600291119594" lon="13.527732450753462"><ele>1128.3999999999999</ele><time>2026-04-23T10:19:50Z</time></trkpt><trkpt lat="42.36459547438795" lon="13.52785373596956"><ele>1129.6</ele><time>2026-04-23T10:19:50.999Z</time></trkpt><trkpt lat="42.36459738135032" lon="13.52798930494677"><ele>1130.8</ele><time>2026-04-23T10:19:51.999Z</time></trkpt><trkpt lat="42.36456143369661" lon="13.528117010520935"><ele>1132.0</ele><time>2026-04-23T10:19:52.999Z</time></trkpt><trkpt lat="42.364541129952066" lon="13.528247226517568"><ele>1133.2</ele><time>2026-04-23T10:19:53.999Z</time></trkpt><trkpt lat="42.36452003323201" lon="13.52838615615661"><ele>1134.4</ele><time>2026-04-23T10:19:54.999Z</time></trkpt><trkpt lat="42.364520354841666" lon="13.528540172700234"><ele>1135.6</ele><time>2026-04-23T10:19:55.999Z</time></trkpt><trkpt lat="42.364494664189486" lon="13.52869252392389"><ele>1136.8</ele><time>2026-04-23T10:19:56.999Z</time></trkpt><trkpt lat="42.364510253791494" lon="13.528846583770024"><ele>1138.0</ele><time>2026-04-23T10:19:57.999Z</time></trkpt><trkpt lat="42.36453486898723" lon="13.529003384415583"><ele>1140.0</ele><time>2026-04-23T10:19:58.999Z</time></trkpt><trkpt lat="42.36452424839958" lon="13.529151464187448"><ele>1142.0</ele><time>2026-04-23T10:19:59.999Z</time></trkpt><trkpt lat="42.36452890260429" lon="13.529290712173138"><ele>1144.0</ele><time>2026-04-23T10:20:00.999Z</time></trkpt><trkpt lat="42.364558984012476" lon="13.5293990912959"><ele>1146.0</ele><time>2026-04-23T10:20:01.999Z</time></trkpt><trkpt lat="42.3646209734396" lon="13.529502785813516"><ele>1148.0</ele><time>2026-04-23T10:20:03.999Z</time></trkpt><trkpt lat="42.36468728280042" lon="13.529503916265323"><ele>1149.6</ele><time>2026-04-23T10:20:04.999Z</time></trkpt><trkpt lat="42.36474228118126" lon="13.529458718556441"><ele>1151.1999999999998</ele><time>2026-04-23T10:20:05.999Z</time></trkpt><trkpt lat="42.36479310410798" lon="13.529365093155324"><ele>1152.8</ele><time>2026-04-23T10:20:06.999Z</time></trkpt><trkpt lat="42.36482872270114" lon="13.5292267285976"><ele>1154.3999999999999</ele><time>2026-04-23T10:20:07.999Z</time></trkpt><trkpt lat="42.36488081394836" lon="13.529107510528473"><ele>1156.0</ele><time>2026-04-23T10:20:08.999Z</time></trkpt><trkpt lat="42.3649543687172" lon="13.529005784381948"><ele>1156.0</ele><time>2026-04-23T10:20:09.999Z</time></trkpt><trkpt lat="42.365042805858096" lon="13.528911459040785"><ele>1156.0</ele><time>2026-04-23T10:20:10.999Z</time></trkpt><trkpt lat="42.36513249281749" lon="13.528842092422869"><ele>1156.0</ele><time>2026-04-23T10:20:11.999Z</time></trkpt><trkpt lat="42.365241765633066" lon="13.528775480759062"><ele>1156.0</ele><time>2026-04-23T10:20:12.999Z</time></trkpt><trkpt lat="42.365351605792355" lon="13.528703829189316"><ele>1156.0</ele><time>2026-04-23T10:20:13.999Z</time></trkpt><trkpt lat="42.365436136826936" lon="13.528627104027134"><ele>1156.0</ele><time>2026-04-23T10:20:14.999Z</time></trkpt><trkpt lat="42.365544806591885" lon="13.528662414964598"><ele>1156.0</ele><time>2026-04-23T10:20:17.999Z</time></trkpt><trkpt lat="42.365543375514356" lon="13.52876042556392"><ele>1156.0</ele><time>2026-04-23T10:20:19.999Z</time></trkpt><trkpt lat="42.36542506496229" lon="13.528815035653928"><ele>1156.0</ele><time>2026-04-23T10:20:21.999Z</time></trkpt><trkpt lat="42.36535409706862" lon="13.528864776385651"><ele>1156.0</ele><time>2026-04-23T10:20:22.999Z</time></trkpt><trkpt lat="42.36527150946633" lon="13.528936675909234"><ele>1156.0</ele><time>2026-04-23T10:20:23.999Z</time></trkpt><trkpt lat="42.36520534115617" lon="13.529002857848592"><ele>1156.0</ele><time>2026-04-23T10:20:24.999Z</time></trkpt><trkpt lat="42.365137496537294" lon="13.529109177576382"><ele>1156.0</ele><time>2026-04-23T10:20:25.999Z</time></trkpt><trkpt lat="42.36508460809314" lon="13.529233795288057"><ele>1156.0</ele><time>2026-04-23T10:20:26.999Z</time></trkpt><trkpt lat="42.365048592839806" lon="13.529369716880023"><ele>1156.0</ele><time>2026-04-23T10:20:27.999Z</time></trkpt><trkpt lat="42.365061922815016" lon="13.529517797494316"><ele>1156.0</ele><time>2026-04-23T10:20:28.999Z</time></trkpt><trkpt lat="42.365063388736885" lon="13.529643763450684"><ele>1156.0</ele><time>2026-04-23T10:20:29.999Z</time></trkpt><trkpt lat="42.365085115140545" lon="13.529746093511793"><ele>1156.0</ele><time>2026-04-23T10:20:30.999Z</time></trkpt><trkpt lat="42.36513389054706" lon="13.529842041577005"><ele>1156.0</ele><time>2026-04-23T10:20:31.999Z</time></trkpt><trkpt lat="42.36519871097479" lon="13.529932766250978"><ele>1157.0</ele><time>2026-04-23T10:20:32.999Z</time></trkpt><trkpt lat="42.36526929728827" lon="13.530022455433022"><ele>1158.0</ele><time>2026-04-23T10:20:33.999Z</time></trkpt><trkpt lat="42.36536384895331" lon="13.530113566245728"><ele>1159.0</ele><time>2026-04-23T10:20:34.999Z</time></trkpt><trkpt lat="42.36545725005062" lon="13.53021507407077"><ele>1160.0</ele><time>2026-04-23T10:20:35.999Z</time></trkpt><trkpt lat="42.36551772639484" lon="13.530331747643803"><ele>1161.0</ele><time>2026-04-23T10:20:36.999Z</time></trkpt><trkpt lat="42.36557273543506" lon="13.530443529609283"><ele>1163.3999999999999</ele><time>2026-04-23T10:20:37.999Z</time></trkpt><trkpt lat="42.365594835431324" lon="13.530579207578842"><ele>1165.8</ele><time>2026-04-23T10:20:38.999Z</time></trkpt><trkpt lat="42.36560718673865" lon="13.530726767195802"><ele>1168.1999999999998</ele><time>2026-04-23T10:20:39.999Z</time></trkpt><trkpt lat="42.36562491913233" lon="13.53089067103778"><ele>1170.6</ele><time>2026-04-23T10:20:40.999Z</time></trkpt><trkpt lat="42.365658025909404" lon="13.53103901069856"><ele>1173.0</ele><time>2026-04-23T10:20:41.999Z</time></trkpt><trkpt lat="42.36570033941503" lon="13.531176617434719"><ele>1174.0</ele><time>2026-04-23T10:20:42.999Z</time></trkpt><trkpt lat="42.365753182901514" lon="13.531302066671472"><ele>1175.0</ele><time>2026-04-23T10:20:43.999Z</time></trkpt><trkpt lat="42.36580317202919" lon="13.53142569263244"><ele>1176.0</ele><time>2026-04-23T10:20:44.999Z</time></trkpt><trkpt lat="42.36584744993383" lon="13.531561467289247"><ele>1177.0</ele><time>2026-04-23T10:20:45.999Z</time></trkpt><trkpt lat="42.365893790608894" lon="13.53161935239777"><ele>1178.0</ele><time>2026-04-23T10:20:46.999Z</time></trkpt><trkpt lat="42.36594009183128" lon="13.531757193388353"><ele>1178.0</ele><time>2026-04-23T10:20:47.999Z</time></trkpt><trkpt lat="42.36597957835883" lon="13.531891873979752"><ele>1178.0</ele><time>2026-04-23T10:20:48.999Z</time></trkpt><trkpt lat="42.366008075931276" lon="13.532024861605276"><ele>1178.0</ele><time>2026-04-23T10:20:49.999Z</time></trkpt><trkpt lat="42.36600874849142" lon="13.532143142509279"><ele>1178.0</ele><time>2026-04-23T10:20:50.999Z</time></trkpt><trkpt lat="42.36600165961456" lon="13.532251955725934"><ele>1178.0</ele><time>2026-04-23T10:20:52Z</time></trkpt><trkpt lat="42.365984577594475" lon="13.532340100709236"><ele>1178.0</ele><time>2026-04-23T10:20:53Z</time></trkpt><trkpt lat="42.36596276847354" lon="13.532438171117088"><ele>1178.1666666666667</ele><time>2026-04-23T10:20:54Z</time></trkpt><trkpt lat="42.36592325552984" lon="13.532525173418971"><ele>1178.3333333333335</ele><time>2026-04-23T10:20:55Z</time></trkpt><trkpt lat="42.365871539549126" lon="13.532619458661319"><ele>1178.5</ele><time>2026-04-23T10:20:56Z</time></trkpt><trkpt lat="42.36581664062581" lon="13.532711507477648"><ele>1178.6666666666667</ele><time>2026-04-23T10:20:57Z</time></trkpt><trkpt lat="42.36574871235638" lon="13.532803335403107"><ele>1178.8333333333333</ele><time>2026-04-23T10:20:58Z</time></trkpt><trkpt lat="42.365668146175075" lon="13.53287723007236"><ele>1179.0</ele><time>2026-04-23T10:20:59Z</time></trkpt><trkpt lat="42.36557564483615" lon="13.532929346235441"><ele>1183.8</ele><time>2026-04-23T10:21:00Z</time></trkpt><trkpt lat="42.36548617776853" lon="13.53299585454768"><ele>1188.6000000000001</ele><time>2026-04-23T10:21:01Z</time></trkpt><trkpt lat="42.36540621390032" lon="13.533061505666112"><ele>1193.4</ele><time>2026-04-23T10:21:02Z</time></trkpt><trkpt lat="42.36532621853477" lon="13.533133648841217"><ele>1198.2</ele><time>2026-04-23T10:21:03Z</time></trkpt><trkpt lat="42.36525761706841" lon="13.533231655466922"><ele>1203.0</ele><time>2026-04-23T10:21:04Z</time></trkpt><trkpt lat="42.365194906892924" lon="13.53332586277491"><ele>1203.0</ele><time>2026-04-23T10:21:05Z</time></trkpt><trkpt lat="42.36513981205908" lon="13.533441792456273"><ele>1203.0</ele><time>2026-04-23T10:21:06Z</time></trkpt><trkpt lat="42.365092045261605" lon="13.53356349134087"><ele>1203.0</ele><time>2026-04-23T10:21:07Z</time></trkpt><trkpt lat="42.3650524152103" lon="13.53368159111593"><ele>1203.0</ele><time>2026-04-23T10:21:08Z</time></trkpt><trkpt lat="42.36503880162444" lon="13.533822531676687"><ele>1203.0</ele><time>2026-04-23T10:21:09Z</time></trkpt><trkpt lat="42.36502855191862" lon="13.5339732539346"><ele>1204.0</ele><time>2026-04-23T10:21:10Z</time></trkpt><trkpt lat="42.36501083302919" lon="13.534113928263135"><ele>1205.0</ele><time>2026-04-23T10:21:11Z</time></trkpt><trkpt lat="42.36499986484026" lon="13.534270839586545"><ele>1206.0</ele><time>2026-04-23T10:21:12Z</time></trkpt><trkpt lat="42.36499031179371" lon="13.534429559112361"><ele>1207.0</ele><time>2026-04-23T10:21:13Z</time></trkpt><trkpt lat="42.36498336720788" lon="13.53457339024813"><ele>1208.0</ele><time>2026-04-23T10:21:14Z</time></trkpt><trkpt lat="42.3649830616394" lon="13.534713889033224"><ele>1209.0</ele><time>2026-04-23T10:21:15Z</time></trkpt><trkpt lat="42.36497180074349" lon="13.534858119547334"><ele>1210.0</ele><time>2026-04-23T10:21:16Z</time></trkpt><trkpt lat="42.36496860208951" lon="13.535006832339858"><ele>1211.0</ele><time>2026-04-23T10:21:17Z</time></trkpt><trkpt lat="42.36496207165731" lon="13.53516160315358"><ele>1212.0</ele><time>2026-04-23T10:21:18Z</time></trkpt><trkpt lat="42.364926052517625" lon="13.535308882986783"><ele>1213.0</ele><time>2026-04-23T10:21:19Z</time></trkpt><trkpt lat="42.364899287200764" lon="13.535466868282663"><ele>1213.25</ele><time>2026-04-23T10:21:20Z</time></trkpt><trkpt lat="42.36486914222177" lon="13.535614836097276"><ele>1213.5</ele><time>2026-04-23T10:21:21Z</time></trkpt><trkpt lat="42.36483548162781" lon="13.535771664665685"><ele>1213.75</ele><time>2026-04-23T10:21:22Z</time></trkpt><trkpt lat="42.364806210777004" lon="13.535930004285001"><ele>1214.0</ele><time>2026-04-23T10:21:23Z</time></trkpt><trkpt lat="42.36478316740137" lon="13.536096960928107"><ele>1214.5</ele><time>2026-04-23T10:21:24Z</time></trkpt><trkpt lat="42.364722080626024" lon="13.536255111399152"><ele>1215.0</ele><time>2026-04-23T10:21:25Z</time></trkpt><trkpt lat="42.364705094542444" lon="13.536426642357728"><ele>1215.5</ele><time>2026-04-23T10:21:26Z</time></trkpt><trkpt lat="42.36467392230304" lon="13.536576524572393"><ele>1216.0</ele><time>2026-04-23T10:21:27Z</time></trkpt><trkpt lat="42.36465368032132" lon="13.536729535052118"><ele>1216.0</ele><time>2026-04-23T10:21:28Z</time></trkpt><trkpt lat="42.36460261846567" lon="13.536861023858918"><ele>1216.0</ele><time>2026-04-23T10:21:29Z</time></trkpt><trkpt lat="42.36454438945623" lon="13.536987272961431"><ele>1216.0</ele><time>2026-04-23T10:21:30Z</time></trkpt><trkpt lat="42.36448384350304" lon="13.537117862735569"><ele>1216.0</ele><time>2026-04-23T10:21:31Z</time></trkpt><trkpt lat="42.36441568633835" lon="13.537253874810558"><ele>1216.75</ele><time>2026-04-23T10:21:32Z</time></trkpt><trkpt lat="42.364346280300396" lon="13.537386402172475"><ele>1217.5</ele><time>2026-04-23T10:21:33Z</time></trkpt><trkpt lat="42.36427645457209" lon="13.537517445599518"><ele>1218.25</ele><time>2026-04-23T10:21:34Z</time></trkpt><trkpt lat="42.3642054486658" lon="13.53765070378162"><ele>1219.0</ele><time>2026-04-23T10:21:35Z</time></trkpt><trkpt lat="42.36413810653553" lon="13.53778745474765"><ele>1220.0</ele><time>2026-04-23T10:21:36Z</time></trkpt><trkpt lat="42.36407052031868" lon="13.537926216462552"><ele>1221.0</ele><time>2026-04-23T10:21:37Z</time></trkpt><trkpt lat="42.36400117981999" lon="13.53806199479093"><ele>1222.0</ele><time>2026-04-23T10:21:38Z</time></trkpt><trkpt lat="42.36393330010956" lon="13.538162914775155"><ele>1223.0</ele><time>2026-04-23T10:21:39Z</time></trkpt><trkpt lat="42.36386024882402" lon="13.538253276781074"><ele>1224.0</ele><time>2026-04-23T10:21:40Z</time></trkpt><trkpt lat="42.36377813334293" lon="13.538354948371513"><ele>1224.0</ele><time>2026-04-23T10:21:41Z</time></trkpt><trkpt lat="42.36369098788796" lon="13.53846220266943"><ele>1224.0</ele><time>2026-04-23T10:21:42Z</time></trkpt><trkpt lat="42.363603610642805" lon="13.538567443021758"><ele>1224.0</ele><time>2026-04-23T10:21:43Z</time></trkpt><trkpt lat="42.36351383904127" lon="13.53867600037307"><ele>1224.0</ele><time>2026-04-23T10:21:44Z</time></trkpt><trkpt lat="42.36342801342216" lon="13.538786318341797"><ele>1225.3333333333333</ele><time>2026-04-23T10:21:45Z</time></trkpt><trkpt lat="42.36334486190364" lon="13.538895876999705"><ele>1226.6666666666665</ele><time>2026-04-23T10:21:46Z</time></trkpt><trkpt lat="42.36318989659011" lon="13.539107535939168"><ele>1228.0</ele><time>2026-04-23T10:21:48Z</time></trkpt><trkpt lat="42.36310961874637" lon="13.53922547846451"><ele>1228.25</ele><time>2026-04-23T10:21:49Z</time></trkpt><trkpt lat="42.36302710909078" lon="13.539346700006822"><ele>1228.5</ele><time>2026-04-23T10:21:50Z</time></trkpt><trkpt lat="42.36294270945186" lon="13.539466018911924"><ele>1228.75</ele><time>2026-04-23T10:21:51Z</time></trkpt><trkpt lat="42.36285560617632" lon="13.539587884050954"><ele>1229.0</ele><time>2026-04-23T10:21:52Z</time></trkpt><trkpt lat="42.36276517253" lon="13.539705862960359"><ele>1228.25</ele><time>2026-04-23T10:21:53Z</time></trkpt><trkpt lat="42.36268112055506" lon="13.539828272770642"><ele>1227.5</ele><time>2026-04-23T10:21:54Z</time></trkpt><trkpt lat="42.362613215470546" lon="13.5399686331607"><ele>1226.75</ele><time>2026-04-23T10:21:55Z</time></trkpt><trkpt lat="42.36254264937763" lon="13.54011347227878"><ele>1226.0</ele><time>2026-04-23T10:21:56Z</time></trkpt><trkpt lat="42.36247703857532" lon="13.540281214516632"><ele>1227.0</ele><time>2026-04-23T10:21:57Z</time></trkpt><trkpt lat="42.36241660406871" lon="13.540464812444153"><ele>1228.0</ele><time>2026-04-23T10:21:58Z</time></trkpt><trkpt lat="42.3623699374536" lon="13.540655423172579"><ele>1229.0</ele><time>2026-04-23T10:21:59Z</time></trkpt><trkpt lat="42.36231077857599" lon="13.540813675265579"><ele>1230.0</ele><time>2026-04-23T10:22:00Z</time></trkpt><trkpt lat="42.362280405917716" lon="13.540995501767213"><ele>1230.0</ele><time>2026-04-23T10:22:01Z</time></trkpt><trkpt lat="42.362217973889976" lon="13.541159097567588"><ele>1230.0</ele><time>2026-04-23T10:22:02Z</time></trkpt><trkpt lat="42.36216796514215" lon="13.541330461444138"><ele>1230.0</ele><time>2026-04-23T10:22:03Z</time></trkpt><trkpt lat="42.36211573911205" lon="13.541503429451295"><ele>1230.0</ele><time>2026-04-23T10:22:04Z</time></trkpt><trkpt lat="42.36206736018626" lon="13.541675604737948"><ele>1230.0</ele><time>2026-04-23T10:22:05Z</time></trkpt><trkpt lat="42.362020718289834" lon="13.541847965975176"><ele>1230.0</ele><time>2026-04-23T10:22:06Z</time></trkpt><trkpt lat="42.36197087050902" lon="13.542027353548379"><ele>1230.0</ele><time>2026-04-23T10:22:07Z</time></trkpt><trkpt lat="42.36191983350859" lon="13.542206577560622"><ele>1230.0</ele><time>2026-04-23T10:22:08Z</time></trkpt><trkpt lat="42.36186590792827" lon="13.54239594480892"><ele>1230.0</ele><time>2026-04-23T10:22:09Z</time></trkpt><trkpt lat="42.36181143108719" lon="13.542575374625017"><ele>1230.0</ele><time>2026-04-23T10:22:10Z</time></trkpt><trkpt lat="42.361771298936596" lon="13.542748137517211"><ele>1230.0</ele><time>2026-04-23T10:22:11Z</time></trkpt><trkpt lat="42.36176736992313" lon="13.542922691226082"><ele>1230.0</ele><time>2026-04-23T10:22:12Z</time></trkpt><trkpt lat="42.361768713409504" lon="13.5431038155304"><ele>1230.0</ele><time>2026-04-23T10:22:13Z</time></trkpt><trkpt lat="42.36176086095012" lon="13.543297107477814"><ele>1230.0</ele><time>2026-04-23T10:22:14Z</time></trkpt><trkpt lat="42.361721813477274" lon="13.543668427406368"><ele>1230.0</ele><time>2026-04-23T10:22:16Z</time></trkpt><trkpt lat="42.361672810166375" lon="13.543832829739042"><ele>1230.75</ele><time>2026-04-23T10:22:17Z</time></trkpt><trkpt lat="42.36162773742269" lon="13.544009113814854"><ele>1231.5</ele><time>2026-04-23T10:22:18Z</time></trkpt><trkpt lat="42.36159937330286" lon="13.544188849986368"><ele>1232.25</ele><time>2026-04-23T10:22:19Z</time></trkpt><trkpt lat="42.36155970909026" lon="13.54435808187072"><ele>1233.0</ele><time>2026-04-23T10:22:20Z</time></trkpt><trkpt lat="42.361533474742046" lon="13.544539517965047"><ele>1233.6</ele><time>2026-04-23T10:22:21Z</time></trkpt><trkpt lat="42.361518021867816" lon="13.544675793155765"><ele>1234.1999999999998</ele><time>2026-04-23T10:22:22Z</time></trkpt><trkpt lat="42.36151636683107" lon="13.544795880111701"><ele>1234.8</ele><time>2026-04-23T10:22:23Z</time></trkpt><trkpt lat="42.361509249844275" lon="13.544935638441157"><ele>1235.3999999999999</ele><time>2026-04-23T10:22:25Z</time></trkpt><trkpt lat="42.361518274355014" lon="13.545040983063094"><ele>1236.0</ele><time>2026-04-23T10:22:26Z</time></trkpt><trkpt lat="42.361530727222814" lon="13.545157161722473"><ele>1236.0</ele><time>2026-04-23T10:22:27Z</time></trkpt><trkpt lat="42.36153884194105" lon="13.545290684393649"><ele>1236.0</ele><time>2026-04-23T10:22:28Z</time></trkpt><trkpt lat="42.36155131365774" lon="13.545423303769965"><ele>1236.0</ele><time>2026-04-23T10:22:29Z</time></trkpt><trkpt lat="42.36152381169582" lon="13.545563830529558"><ele>1236.0</ele><time>2026-04-23T10:22:30Z</time></trkpt><trkpt lat="42.36150240626511" lon="13.545704590488675"><ele>1236.0</ele><time>2026-04-23T10:22:31Z</time></trkpt><trkpt lat="42.361495627130566" lon="13.5458201799706"><ele>1235.8333333333333</ele><time>2026-04-23T10:22:32Z</time></trkpt><trkpt lat="42.36150018660802" lon="13.54593208037809"><ele>1235.6666666666667</ele><time>2026-04-23T10:22:33Z</time></trkpt><trkpt lat="42.36151802761707" lon="13.546019724927131"><ele>1235.5</ele><time>2026-04-23T10:22:34Z</time></trkpt><trkpt lat="42.36155209396677" lon="13.546115692133847"><ele>1235.3333333333335</ele><time>2026-04-23T10:22:35Z</time></trkpt><trkpt lat="42.36156767206283" lon="13.54626938574533"><ele>1235.1666666666667</ele><time>2026-04-23T10:22:37Z</time></trkpt><trkpt lat="42.36154568677606" lon="13.546377545644825"><ele>1235.0</ele><time>2026-04-23T10:22:39Z</time></trkpt><trkpt lat="42.36153330807473" lon="13.5464636101697"><ele>1234.8</ele><time>2026-04-23T10:22:40Z</time></trkpt><trkpt lat="42.36150268668258" lon="13.546623672897448"><ele>1234.6</ele><time>2026-04-23T10:22:42Z</time></trkpt><trkpt lat="42.36143346060456" lon="13.54675099454513"><ele>1234.4</ele><time>2026-04-23T10:22:44Z</time></trkpt><trkpt lat="42.361378990296416" lon="13.546827551116804"><ele>1234.2</ele><time>2026-04-23T10:22:45Z</time></trkpt><trkpt lat="42.36132952070232" lon="13.546939128495946"><ele>1234.0</ele><time>2026-04-23T10:22:46Z</time></trkpt><trkpt lat="42.361297654905215" lon="13.547044963626922"><ele>1232.2</ele><time>2026-04-23T10:22:47Z</time></trkpt><trkpt lat="42.36126072523454" lon="13.547162507908157"><ele>1230.4</ele><time>2026-04-23T10:22:48Z</time></trkpt><trkpt lat="42.36120976925266" lon="13.547282594178936"><ele>1228.6</ele><time>2026-04-23T10:22:49Z</time></trkpt><trkpt lat="42.36116279761278" lon="13.547381236397124"><ele>1226.8</ele><time>2026-04-23T10:22:50Z</time></trkpt><trkpt lat="42.361106836075884" lon="13.547500271935531"><ele>1225.0</ele><time>2026-04-23T10:22:51Z</time></trkpt><trkpt lat="42.36105093226018" lon="13.547625131247447"><ele>1225.0</ele><time>2026-04-23T10:22:52Z</time></trkpt><trkpt lat="42.36101785822959" lon="13.547758196079446"><ele>1225.0</ele><time>2026-04-23T10:22:53Z</time></trkpt><trkpt lat="42.36095624701511" lon="13.54785593500279"><ele>1225.0</ele><time>2026-04-23T10:22:54Z</time></trkpt><trkpt lat="42.360904388455744" lon="13.54792974657366"><ele>1225.0</ele><time>2026-04-23T10:22:55Z</time></trkpt><trkpt lat="42.36084668525984" lon="13.547996611262185"><ele>1225.0</ele><time>2026-04-23T10:22:56Z</time></trkpt><trkpt lat="42.36077787267015" lon="13.548080212930646"><ele>1225.0</ele><time>2026-04-23T10:22:57Z</time></trkpt><trkpt lat="42.36071292858543" lon="13.548175950956432"><ele>1225.0</ele><time>2026-04-23T10:22:58Z</time></trkpt><trkpt lat="42.360651098724105" lon="13.548296721030825"><ele>1225.0</ele><time>2026-04-23T10:22:59Z</time></trkpt><trkpt lat="42.36059976288374" lon="13.54842519350427"><ele>1225.0</ele><time>2026-04-23T10:23:00Z</time></trkpt><trkpt lat="42.36055425134152" lon="13.548583922734435"><ele>1225.0</ele><time>2026-04-23T10:23:01Z</time></trkpt><trkpt lat="42.360522604360376" lon="13.548742329488364"><ele>1223.6</ele><time>2026-04-23T10:23:02Z</time></trkpt><trkpt lat="42.360496656020466" lon="13.548899902275624"><ele>1222.2</ele><time>2026-04-23T10:23:03Z</time></trkpt><trkpt lat="42.36047182013466" lon="13.549050719663274"><ele>1220.8</ele><time>2026-04-23T10:23:04Z</time></trkpt><trkpt lat="42.3604507827232" lon="13.549187849715471"><ele>1219.4</ele><time>2026-04-23T10:23:05Z</time></trkpt><trkpt lat="42.360431987072396" lon="13.549312102023332"><ele>1218.0</ele><time>2026-04-23T10:23:06Z</time></trkpt><trkpt lat="42.36041576338232" lon="13.549441214853003"><ele>1217.25</ele><time>2026-04-23T10:23:07Z</time></trkpt><trkpt lat="42.36039925667155" lon="13.549571989882576"><ele>1216.5</ele><time>2026-04-23T10:23:08Z</time></trkpt><trkpt lat="42.360386734189746" lon="13.549718959390146"><ele>1215.75</ele><time>2026-04-23T10:23:09Z</time></trkpt><trkpt lat="42.36036691564806" lon="13.549870446527967"><ele>1215.0</ele><time>2026-04-23T10:23:10Z</time></trkpt><trkpt lat="42.36033901843023" lon="13.550046503322603"><ele>1215.0</ele><time>2026-04-23T10:23:11Z</time></trkpt><trkpt lat="42.360310264680315" lon="13.550232052817872"><ele>1215.0</ele><time>2026-04-23T10:23:12Z</time></trkpt><trkpt lat="42.36027690393651" lon="13.550413183204247"><ele>1215.0</ele><time>2026-04-23T10:23:13Z</time></trkpt><trkpt lat="42.36024460407715" lon="13.550602186042891"><ele>1215.0</ele><time>2026-04-23T10:23:14Z</time></trkpt><trkpt lat="42.360208502105785" lon="13.550779375185758"><ele>1214.5</ele><time>2026-04-23T10:23:15Z</time></trkpt><trkpt lat="42.36017612834858" lon="13.550939701363545"><ele>1214.0</ele><time>2026-04-23T10:23:16Z</time></trkpt><trkpt lat="42.360139763907675" lon="13.551089909333026"><ele>1213.5</ele><time>2026-04-23T10:23:17Z</time></trkpt><trkpt lat="42.360101340342915" lon="13.551247631866236"><ele>1213.0</ele><time>2026-04-23T10:23:18Z</time></trkpt><trkpt lat="42.36006378074079" lon="13.551412777933674"><ele>1212.75</ele><time>2026-04-23T10:23:19Z</time></trkpt><trkpt lat="42.36003500169537" lon="13.551570993671229"><ele>1212.5</ele><time>2026-04-23T10:23:20Z</time></trkpt><trkpt lat="42.35998636455837" lon="13.55171683443459"><ele>1212.25</ele><time>2026-04-23T10:23:21Z</time></trkpt><trkpt lat="42.35995970737668" lon="13.551862078989814"><ele>1212.0</ele><time>2026-04-23T10:23:22Z</time></trkpt><trkpt lat="42.359907426920074" lon="13.552001137485169"><ele>1211.8</ele><time>2026-04-23T10:23:23Z</time></trkpt><trkpt lat="42.35986420838375" lon="13.55213995925566"><ele>1211.6</ele><time>2026-04-23T10:23:24Z</time></trkpt><trkpt lat="42.35981713303375" lon="13.552239747490825"><ele>1211.3999999999999</ele><time>2026-04-23T10:23:25Z</time></trkpt><trkpt lat="42.359770554484605" lon="13.55233951176986"><ele>1211.2</ele><time>2026-04-23T10:23:26Z</time></trkpt><trkpt lat="42.359730429475434" lon="13.552448927936888"><ele>1211.0</ele><time>2026-04-23T10:23:27Z</time></trkpt><trkpt lat="42.35967335110936" lon="13.552553976863141"><ele>1211.0</ele><time>2026-04-23T10:23:28Z</time></trkpt><trkpt lat="42.35960579995859" lon="13.552660830305799"><ele>1211.0</ele><time>2026-04-23T10:23:29Z</time></trkpt><trkpt lat="42.359543530458645" lon="13.552788728376258"><ele>1211.0</ele><time>2026-04-23T10:23:30Z</time></trkpt><trkpt lat="42.35947760110234" lon="13.552929313787212"><ele>1211.0</ele><time>2026-04-23T10:23:31Z</time></trkpt><trkpt lat="42.359413704519014" lon="13.553070085769152"><ele>1211.0</ele><time>2026-04-23T10:23:32Z</time></trkpt><trkpt lat="42.35936740515454" lon="13.553221553672019"><ele>1211.0</ele><time>2026-04-23T10:23:33Z</time></trkpt><trkpt lat="42.359320459160536" lon="13.553385072872516"><ele>1211.0</ele><time>2026-04-23T10:23:34Z</time></trkpt><trkpt lat="42.35926621989742" lon="13.553549759709188"><ele>1211.0</ele><time>2026-04-23T10:23:35Z</time></trkpt><trkpt lat="42.3592159475394" lon="13.553722593869221"><ele>1211.25</ele><time>2026-04-23T10:23:36Z</time></trkpt><trkpt lat="42.35916862702339" lon="13.553902937000334"><ele>1211.5</ele><time>2026-04-23T10:23:37Z</time></trkpt><trkpt lat="42.359083744345625" lon="13.554057252008535"><ele>1211.75</ele><time>2026-04-23T10:23:38Z</time></trkpt><trkpt lat="42.35902007934852" lon="13.554239016433836"><ele>1212.0</ele><time>2026-04-23T10:23:39Z</time></trkpt><trkpt lat="42.35895575221737" lon="13.554383111276932"><ele>1212.0</ele><time>2026-04-23T10:23:40Z</time></trkpt><trkpt lat="42.35888192373466" lon="13.554519281173066"><ele>1212.0</ele><time>2026-04-23T10:23:41Z</time></trkpt><trkpt lat="42.35883068843769" lon="13.554648613347313"><ele>1212.0</ele><time>2026-04-23T10:23:42Z</time></trkpt><trkpt lat="42.35878853466744" lon="13.55475816776815"><ele>1212.0</ele><time>2026-04-23T10:23:43Z</time></trkpt><trkpt lat="42.358745463426985" lon="13.554889652065471"><ele>1212.0</ele><time>2026-04-23T10:23:44Z</time></trkpt><trkpt lat="42.35869702505372" lon="13.555046275138347"><ele>1213.25</ele><time>2026-04-23T10:23:45Z</time></trkpt><trkpt lat="42.35864793736483" lon="13.555202568984821"><ele>1214.5</ele><time>2026-04-23T10:23:46Z</time></trkpt><trkpt lat="42.35858251093107" lon="13.555379430160254"><ele>1215.75</ele><time>2026-04-23T10:23:47Z</time></trkpt><trkpt lat="42.35854189715332" lon="13.555527831559884"><ele>1217.0</ele><time>2026-04-23T10:23:48Z</time></trkpt><trkpt lat="42.35850589342029" lon="13.555652362667397"><ele>1217.0</ele><time>2026-04-23T10:23:49Z</time></trkpt><trkpt lat="42.35847680280753" lon="13.55576906942114"><ele>1217.0</ele><time>2026-04-23T10:23:50Z</time></trkpt><trkpt lat="42.358427887488936" lon="13.555881496371365"><ele>1217.0</ele><time>2026-04-23T10:23:51Z</time></trkpt><trkpt lat="42.358415649916125" lon="13.55601206536076"><ele>1217.0</ele><time>2026-04-23T10:23:52Z</time></trkpt><trkpt lat="42.35841082708195" lon="13.556149406968625"><ele>1217.0</ele><time>2026-04-23T10:23:53Z</time></trkpt><trkpt lat="42.35841563284149" lon="13.556304844541604"><ele>1215.8</ele><time>2026-04-23T10:23:54Z</time></trkpt><trkpt lat="42.35843311479743" lon="13.556461719833663"><ele>1214.6</ele><time>2026-04-23T10:23:55Z</time></trkpt><trkpt lat="42.358449344275655" lon="13.556616386662295"><ele>1213.3999999999999</ele><time>2026-04-23T10:23:56Z</time></trkpt><trkpt lat="42.35846534307147" lon="13.556757177661131"><ele>1212.2</ele><time>2026-04-23T10:23:57Z</time></trkpt><trkpt lat="42.35847810370993" lon="13.556858478698425"><ele>1211.0</ele><time>2026-04-23T10:23:58Z</time></trkpt><trkpt lat="42.358494841727456" lon="13.556977131385018"><ele>1211.0</ele><time>2026-04-23T10:23:59Z</time></trkpt><trkpt lat="42.35852681119801" lon="13.557079235709177"><ele>1211.0</ele><time>2026-04-23T10:24:00Z</time></trkpt><trkpt lat="42.358572264297784" lon="13.557192038735215"><ele>1211.0</ele><time>2026-04-23T10:24:01Z</time></trkpt><trkpt lat="42.35863451216454" lon="13.557306790611662"><ele>1211.0</ele><time>2026-04-23T10:24:02Z</time></trkpt><trkpt lat="42.35869499613265" lon="13.55742972581991"><ele>1211.0</ele><time>2026-04-23T10:24:03Z</time></trkpt><trkpt lat="42.35874543652186" lon="13.557553021779444"><ele>1211.0</ele><time>2026-04-23T10:24:04Z</time></trkpt><trkpt lat="42.35878687574568" lon="13.5576866574355"><ele>1211.0</ele><time>2026-04-23T10:24:05Z</time></trkpt><trkpt lat="42.3588031664361" lon="13.557839363686378"><ele>1211.0</ele><time>2026-04-23T10:24:06Z</time></trkpt><trkpt lat="42.3588089423432" lon="13.55799168782044"><ele>1211.0</ele><time>2026-04-23T10:24:07Z</time></trkpt><trkpt lat="42.35880057566169" lon="13.558156770330527"><ele>1210.75</ele><time>2026-04-23T10:24:08Z</time></trkpt><trkpt lat="42.358805817702354" lon="13.5583236491534"><ele>1210.5</ele><time>2026-04-23T10:24:09Z</time></trkpt><trkpt lat="42.3588500594569" lon="13.558519967834728"><ele>1210.25</ele><time>2026-04-23T10:24:10Z</time></trkpt><trkpt lat="42.3588987731794" lon="13.558706912041984"><ele>1210.0</ele><time>2026-04-23T10:24:11Z</time></trkpt><trkpt lat="42.35893568245545" lon="13.55886533521717"><ele>1208.4</ele><time>2026-04-23T10:24:12Z</time></trkpt><trkpt lat="42.35896308754079" lon="13.559005810136995"><ele>1206.8</ele><time>2026-04-23T10:24:13Z</time></trkpt><trkpt lat="42.35899001814072" lon="13.55914545966658"><ele>1205.2</ele><time>2026-04-23T10:24:14Z</time></trkpt><trkpt lat="42.359010212798474" lon="13.559261641745291"><ele>1203.6</ele><time>2026-04-23T10:24:15Z</time></trkpt><trkpt lat="42.35902119650686" lon="13.559402201644923"><ele>1202.0</ele><time>2026-04-23T10:24:16Z</time></trkpt><trkpt lat="42.359009534175726" lon="13.559534946072342"><ele>1202.0</ele><time>2026-04-23T10:24:17Z</time></trkpt><trkpt lat="42.35898996542856" lon="13.559688744112623"><ele>1202.0</ele><time>2026-04-23T10:24:18Z</time></trkpt><trkpt lat="42.35896564164861" lon="13.559839807160861"><ele>1202.0</ele><time>2026-04-23T10:24:19Z</time></trkpt><trkpt lat="42.358943193196936" lon="13.55999421749843"><ele>1202.0</ele><time>2026-04-23T10:24:20Z</time></trkpt><trkpt lat="42.35892101876994" lon="13.560159009352828"><ele>1202.0</ele><time>2026-04-23T10:24:21Z</time></trkpt><trkpt lat="42.358908538087135" lon="13.560339241889357"><ele>1202.0</ele><time>2026-04-23T10:24:22Z</time></trkpt><trkpt lat="42.358903929657366" lon="13.560523143371457"><ele>1202.0</ele><time>2026-04-23T10:24:23Z</time></trkpt><trkpt lat="42.35890426057433" lon="13.560718527567658"><ele>1202.0</ele><time>2026-04-23T10:24:24Z</time></trkpt><trkpt lat="42.35890971813656" lon="13.560918038390257"><ele>1201.75</ele><time>2026-04-23T10:24:25Z</time></trkpt><trkpt lat="42.358905626002105" lon="13.561111646895156"><ele>1201.5</ele><time>2026-04-23T10:24:26Z</time></trkpt><trkpt lat="42.358901692666436" lon="13.561302498398247"><ele>1201.25</ele><time>2026-04-23T10:24:27Z</time></trkpt><trkpt lat="42.35889617408384" lon="13.561491678770004"><ele>1201.0</ele><time>2026-04-23T10:24:28Z</time></trkpt><trkpt lat="42.35889042473683" lon="13.561675946531253"><ele>1200.5</ele><time>2026-04-23T10:24:29Z</time></trkpt><trkpt lat="42.35887967195198" lon="13.561855165469527"><ele>1200.0</ele><time>2026-04-23T10:24:30Z</time></trkpt><trkpt lat="42.35888224990776" lon="13.562018669129785"><ele>1199.5</ele><time>2026-04-23T10:24:31Z</time></trkpt><trkpt lat="42.3588721761938" lon="13.56219431673133"><ele>1199.0</ele><time>2026-04-23T10:24:32Z</time></trkpt><trkpt lat="42.35886607868533" lon="13.562364150020123"><ele>1199.0</ele><time>2026-04-23T10:24:33Z</time></trkpt><trkpt lat="42.35886172028524" lon="13.562537110406991"><ele>1199.0</ele><time>2026-04-23T10:24:34Z</time></trkpt><trkpt lat="42.35886668442829" lon="13.56270509534945"><ele>1199.0</ele><time>2026-04-23T10:24:35Z</time></trkpt><trkpt lat="42.358883759338646" lon="13.562892348643476"><ele>1199.0</ele><time>2026-04-23T10:24:36Z</time></trkpt><trkpt lat="42.35889196287169" lon="13.563064142518316"><ele>1196.75</ele><time>2026-04-23T10:24:37Z</time></trkpt><trkpt lat="42.35892635014164" lon="13.563237195781785"><ele>1194.5</ele><time>2026-04-23T10:24:38Z</time></trkpt><trkpt lat="42.35896016121487" lon="13.5634176607604"><ele>1192.25</ele><time>2026-04-23T10:24:39Z</time></trkpt><trkpt lat="42.358989628165986" lon="13.563586416404773"><ele>1190.0</ele><time>2026-04-23T10:24:40Z</time></trkpt><trkpt lat="42.359000813972514" lon="13.563737964303932"><ele>1189.0</ele><time>2026-04-23T10:24:41Z</time></trkpt><trkpt lat="42.35899150359619" lon="13.563892991690874"><ele>1188.0</ele><time>2026-04-23T10:24:42Z</time></trkpt><trkpt lat="42.35897241523079" lon="13.564055636484634"><ele>1187.0</ele><time>2026-04-23T10:24:43Z</time></trkpt><trkpt lat="42.35896861228689" lon="13.564223404778856"><ele>1186.0</ele><time>2026-04-23T10:24:44Z</time></trkpt><trkpt lat="42.358986929175636" lon="13.564353790758458"><ele>1186.0</ele><time>2026-04-23T10:24:45Z</time></trkpt><trkpt lat="42.35901130830422" lon="13.564461124498198"><ele>1186.0</ele><time>2026-04-23T10:24:46Z</time></trkpt><trkpt lat="42.359022049692925" lon="13.564577578231749"><ele>1186.0</ele><time>2026-04-23T10:24:47Z</time></trkpt><trkpt lat="42.35900730693313" lon="13.5646827187172"><ele>1186.0</ele><time>2026-04-23T10:24:48Z</time></trkpt><trkpt lat="42.35891961619265" lon="13.564987272848809"><ele>1187.25</ele><time>2026-04-23T10:24:50Z</time></trkpt><trkpt lat="42.35887575420198" lon="13.56515675961202"><ele>1188.5</ele><time>2026-04-23T10:24:51Z</time></trkpt><trkpt lat="42.35884427387419" lon="13.56533376370571"><ele>1189.75</ele><time>2026-04-23T10:24:52Z</time></trkpt><trkpt lat="42.35882495533868" lon="13.565528922428294"><ele>1191.0</ele><time>2026-04-23T10:24:53Z</time></trkpt><trkpt lat="42.3588085373321" lon="13.56573801370925"><ele>1191.0</ele><time>2026-04-23T10:24:54Z</time></trkpt><trkpt lat="42.358797516928874" lon="13.56597746394681"><ele>1191.0</ele><time>2026-04-23T10:24:55Z</time></trkpt><trkpt lat="42.3587965045784" lon="13.566222714418085"><ele>1191.0</ele><time>2026-04-23T10:24:56Z</time></trkpt><trkpt lat="42.358805171043294" lon="13.566440798936664"><ele>1191.0</ele><time>2026-04-23T10:24:57Z</time></trkpt><trkpt lat="42.35881339643651" lon="13.566629949499486"><ele>1191.0</ele><time>2026-04-23T10:24:58Z</time></trkpt><trkpt lat="42.35881587828836" lon="13.566777908983491"><ele>1191.0</ele><time>2026-04-23T10:24:59Z</time></trkpt><trkpt lat="42.35881305159854" lon="13.566906192087615"><ele>1191.0</ele><time>2026-04-23T10:25:00Z</time></trkpt><trkpt lat="42.35880719148762" lon="13.566991256083003"><ele>1191.0</ele><time>2026-04-23T10:25:01Z</time></trkpt><trkpt lat="42.358834201483276" lon="13.566891132044185"><ele>1191.0</ele><time>2026-04-23T10:25:17Z</time></trkpt><trkpt lat="42.35882911597482" lon="13.566796559198163"><ele>1191.0</ele><time>2026-04-23T10:25:18Z</time></trkpt><trkpt lat="42.35882297605686" lon="13.566700650673468"><ele>1191.0</ele><time>2026-04-23T10:25:19Z</time></trkpt><trkpt lat="42.35881508380726" lon="13.566590970086743"><ele>1191.0</ele><time>2026-04-23T10:25:20Z</time></trkpt><trkpt lat="42.35880753963075" lon="13.566462106731521"><ele>1191.0</ele><time>2026-04-23T10:25:21Z</time></trkpt><trkpt lat="42.358805087611145" lon="13.566306940322605"><ele>1191.0</ele><time>2026-04-23T10:25:22Z</time></trkpt><trkpt lat="42.35880465448421" lon="13.566145721399325"><ele>1191.0</ele><time>2026-04-23T10:25:23Z</time></trkpt><trkpt lat="42.358800845760804" lon="13.565985920532427"><ele>1191.0</ele><time>2026-04-23T10:25:23.999Z</time></trkpt><trkpt lat="42.3588021345236" lon="13.565823276226192"><ele>1191.0</ele><time>2026-04-23T10:25:24.999Z</time></trkpt><trkpt lat="42.35881218879938" lon="13.565657124265948"><ele>1191.0</ele><time>2026-04-23T10:25:25.999Z</time></trkpt><trkpt lat="42.358830625414626" lon="13.56548588855437"><ele>1191.5</ele><time>2026-04-23T10:25:26.999Z</time></trkpt><trkpt lat="42.358852048284426" lon="13.565316833795004"><ele>1192.0</ele><time>2026-04-23T10:25:27.999Z</time></trkpt><trkpt lat="42.35887755485929" lon="13.565154165259838"><ele>1192.5</ele><time>2026-04-23T10:25:28.999Z</time></trkpt><trkpt lat="42.35891068559898" lon="13.564996869629926"><ele>1193.0</ele><time>2026-04-23T10:25:29.999Z</time></trkpt><trkpt lat="42.35895147962781" lon="13.564845614115912"><ele>1193.0</ele><time>2026-04-23T10:25:30.999Z</time></trkpt><trkpt lat="42.358987797115084" lon="13.564713084817463"><ele>1193.0</ele><time>2026-04-23T10:25:31.999Z</time></trkpt><trkpt lat="42.35903296716789" lon="13.564600792038883"><ele>1193.0</ele><time>2026-04-23T10:25:32.999Z</time></trkpt><trkpt lat="42.35910081078083" lon="13.564511209932789"><ele>1193.0</ele><time>2026-04-23T10:25:33.999Z</time></trkpt><trkpt lat="42.35920661475392" lon="13.564437142079102"><ele>1193.0</ele><time>2026-04-23T10:25:34.999Z</time></trkpt><trkpt lat="42.359321906641114" lon="13.564351900477758"><ele>1192.3333333333335</ele><time>2026-04-23T10:25:35.999Z</time></trkpt><trkpt lat="42.35946068248017" lon="13.564253582332842"><ele>1191.6666666666667</ele><time>2026-04-23T10:25:36.999Z</time></trkpt><trkpt lat="42.35960215774228" lon="13.56415521850266"><ele>1191.0</ele><time>2026-04-23T10:25:37.998Z</time></trkpt><trkpt lat="42.3597262680304" lon="13.564062616495198"><ele>1191.0</ele><time>2026-04-23T10:25:38.998Z</time></trkpt><trkpt lat="42.359839100841334" lon="13.56397332372621"><ele>1191.0</ele><time>2026-04-23T10:25:39.998Z</time></trkpt><trkpt lat="42.35994643175879" lon="13.56388531779765"><ele>1191.0</ele><time>2026-04-23T10:25:40.998Z</time></trkpt><trkpt lat="42.36003758365748" lon="13.563787554739875"><ele>1191.0</ele><time>2026-04-23T10:25:41.998Z</time></trkpt><trkpt lat="42.36010313830947" lon="13.563660671262864"><ele>1190.8</ele><time>2026-04-23T10:25:42.998Z</time></trkpt><trkpt lat="42.36014697957956" lon="13.5635233701005"><ele>1190.6</ele><time>2026-04-23T10:25:43.998Z</time></trkpt><trkpt lat="42.360188965790606" lon="13.563406541150103"><ele>1190.4</ele><time>2026-04-23T10:25:44.998Z</time></trkpt><trkpt lat="42.360254511038235" lon="13.563312677874965"><ele>1190.2</ele><time>2026-04-23T10:25:45.998Z</time></trkpt><trkpt lat="42.360344530775784" lon="13.56323385478694"><ele>1190.0</ele><time>2026-04-23T10:25:46.998Z</time></trkpt><trkpt lat="42.36045603177662" lon="13.563161486317131"><ele>1191.25</ele><time>2026-04-23T10:25:47.998Z</time></trkpt><trkpt lat="42.360577328018984" lon="13.56309186987385"><ele>1192.5</ele><time>2026-04-23T10:25:48.998Z</time></trkpt><trkpt lat="42.360707410439424" lon="13.563009453457594"><ele>1193.75</ele><time>2026-04-23T10:25:49.998Z</time></trkpt><trkpt lat="42.36083936715175" lon="13.562917771858165"><ele>1195.0</ele><time>2026-04-23T10:25:50.998Z</time></trkpt><trkpt lat="42.36096959534747" lon="13.562819409039104"><ele>1195.25</ele><time>2026-04-23T10:25:51.998Z</time></trkpt><trkpt lat="42.36108854546527" lon="13.562721374064504"><ele>1195.5</ele><time>2026-04-23T10:25:52.998Z</time></trkpt><trkpt lat="42.361208893644225" lon="13.562622811760985"><ele>1195.75</ele><time>2026-04-23T10:25:53.998Z</time></trkpt><trkpt lat="42.36133007320269" lon="13.562520236546035"><ele>1196.0</ele><time>2026-04-23T10:25:54.998Z</time></trkpt><trkpt lat="42.36145060277347" lon="13.562418861253798"><ele>1196.5</ele><time>2026-04-23T10:25:55.998Z</time></trkpt><trkpt lat="42.36156909245572" lon="13.562304341324888"><ele>1197.0</ele><time>2026-04-23T10:25:56.998Z</time></trkpt><trkpt lat="42.361769983328834" lon="13.561990707154171"><ele>1197.0</ele><time>2026-04-23T10:25:58.998Z</time></trkpt><trkpt lat="42.361848809274925" lon="13.561803142044853"><ele>1197.0</ele><time>2026-04-23T10:25:59.998Z</time></trkpt><trkpt lat="42.361929094713965" lon="13.561617314125593"><ele>1197.0</ele><time>2026-04-23T10:26:00.998Z</time></trkpt><trkpt lat="42.36202685856386" lon="13.561448138222366"><ele>1197.0</ele><time>2026-04-23T10:26:01.998Z</time></trkpt><trkpt lat="42.36213605097799" lon="13.561285936170828"><ele>1197.0</ele><time>2026-04-23T10:26:02.998Z</time></trkpt><trkpt lat="42.36225419591465" lon="13.561127428120436"><ele>1197.0</ele><time>2026-04-23T10:26:03.998Z</time></trkpt><trkpt lat="42.362374899918564" lon="13.560981138904516"><ele>1198.6666666666667</ele><time>2026-04-23T10:26:04.998Z</time></trkpt><trkpt lat="42.36250034726297" lon="13.560839179220551"><ele>1200.3333333333335</ele><time>2026-04-23T10:26:05.998Z</time></trkpt><trkpt lat="42.36263228755008" lon="13.560693714023033"><ele>1202.0</ele><time>2026-04-23T10:26:06.998Z</time></trkpt><trkpt lat="42.362759746328784" lon="13.560547832036871"><ele>1202.0</ele><time>2026-04-23T10:26:07.998Z</time></trkpt><trkpt lat="42.362877912691786" lon="13.560386777589331"><ele>1202.0</ele><time>2026-04-23T10:26:08.998Z</time></trkpt><trkpt lat="42.362981020193644" lon="13.560215897792842"><ele>1202.0</ele><time>2026-04-23T10:26:09.998Z</time></trkpt><trkpt lat="42.36308699221419" lon="13.56006649809713"><ele>1203.5</ele><time>2026-04-23T10:26:10.998Z</time></trkpt><trkpt lat="42.363194206200625" lon="13.55996758534819"><ele>1205.0</ele><time>2026-04-23T10:26:11.998Z</time></trkpt><trkpt lat="42.36330848732658" lon="13.559897915578455"><ele>1206.5</ele><time>2026-04-23T10:26:12.998Z</time></trkpt><trkpt lat="42.363426910698976" lon="13.559855273811758"><ele>1208.0</ele><time>2026-04-23T10:26:13.998Z</time></trkpt><trkpt lat="42.3635467718244" lon="13.559841006598495"><ele>1208.0</ele><time>2026-04-23T10:26:14.998Z</time></trkpt><trkpt lat="42.36365776999372" lon="13.559851354064767"><ele>1208.0</ele><time>2026-04-23T10:26:15.998Z</time></trkpt><trkpt lat="42.36376538592418" lon="13.559864606828532"><ele>1208.0</ele><time>2026-04-23T10:26:16.998Z</time></trkpt><trkpt lat="42.3638817405535" lon="13.559860788389589"><ele>1208.0</ele><time>2026-04-23T10:26:17.998Z</time></trkpt><trkpt lat="42.364003340243926" lon="13.55983065022374"><ele>1210.0</ele><time>2026-04-23T10:26:18.998Z</time></trkpt><trkpt lat="42.36424725647239" lon="13.559705612001437"><ele>1212.0</ele><time>2026-04-23T10:26:20.998Z</time></trkpt><trkpt lat="42.36436765361386" lon="13.559617572123353"><ele>1214.0</ele><time>2026-04-23T10:26:21.998Z</time></trkpt><trkpt lat="42.36448268378408" lon="13.559513241615624"><ele>1214.0</ele><time>2026-04-23T10:26:22.998Z</time></trkpt><trkpt lat="42.36458583389736" lon="13.559396562576005"><ele>1214.0</ele><time>2026-04-23T10:26:23.998Z</time></trkpt><trkpt lat="42.364663097920555" lon="13.55928041479865"><ele>1214.0</ele><time>2026-04-23T10:26:24.998Z</time></trkpt><trkpt lat="42.36472820025734" lon="13.559178202458659"><ele>1214.0</ele><time>2026-04-23T10:26:25.998Z</time></trkpt><trkpt lat="42.364803041004684" lon="13.55910058213583"><ele>1214.0</ele><time>2026-04-23T10:26:26.998Z</time></trkpt><trkpt lat="42.364901485069595" lon="13.559035662193915"><ele>1215.25</ele><time>2026-04-23T10:26:27.998Z</time></trkpt><trkpt lat="42.36501704535087" lon="13.558981998165333"><ele>1216.5</ele><time>2026-04-23T10:26:28.998Z</time></trkpt><trkpt lat="42.365141973363514" lon="13.558949914513573"><ele>1217.75</ele><time>2026-04-23T10:26:29.998Z</time></trkpt><trkpt lat="42.36527051173393" lon="13.558922380094574"><ele>1219.0</ele><time>2026-04-23T10:26:30.998Z</time></trkpt><trkpt lat="42.365387827288785" lon="13.558857342068828"><ele>1219.0</ele><time>2026-04-23T10:26:31.998Z</time></trkpt><trkpt lat="42.36551858442162" lon="13.558747005095569"><ele>1219.0</ele><time>2026-04-23T10:26:32.998Z</time></trkpt><trkpt lat="42.365648288520376" lon="13.558624028591469"><ele>1219.0</ele><time>2026-04-23T10:26:33.998Z</time></trkpt><trkpt lat="42.365791111265004" lon="13.55849026293576"><ele>1221.6666666666665</ele><time>2026-04-23T10:26:34.998Z</time></trkpt><trkpt lat="42.365934975977076" lon="13.558355885544842"><ele>1224.3333333333333</ele><time>2026-04-23T10:26:35.998Z</time></trkpt><trkpt lat="42.36607597108976" lon="13.558219362858969"><ele>1227.0</ele><time>2026-04-23T10:26:36.998Z</time></trkpt><trkpt lat="42.36619246370002" lon="13.55809323528692"><ele>1227.0</ele><time>2026-04-23T10:26:37.998Z</time></trkpt><trkpt lat="42.36629420079653" lon="13.557978355739515"><ele>1227.0</ele><time>2026-04-23T10:26:38.998Z</time></trkpt><trkpt lat="42.36638974157191" lon="13.557873153029258"><ele>1227.0</ele><time>2026-04-23T10:26:39.998Z</time></trkpt><trkpt lat="42.36648160758348" lon="13.557768808080812"><ele>1227.0</ele><time>2026-04-23T10:26:40.998Z</time></trkpt><trkpt lat="42.366573481773095" lon="13.557664066530938"><ele>1228.5</ele><time>2026-04-23T10:26:41.998Z</time></trkpt><trkpt lat="42.366667314206445" lon="13.557562343591703"><ele>1230.0</ele><time>2026-04-23T10:26:42.998Z</time></trkpt><trkpt lat="42.36676121357968" lon="13.557464253814128"><ele>1231.5</ele><time>2026-04-23T10:26:43.998Z</time></trkpt><trkpt lat="42.36684325408582" lon="13.557358880119061"><ele>1233.0</ele><time>2026-04-23T10:26:44.998Z</time></trkpt><trkpt lat="42.366912430469164" lon="13.557244651073349"><ele>1233.0</ele><time>2026-04-23T10:26:45.998Z</time></trkpt><trkpt lat="42.36696980572845" lon="13.557143353390657"><ele>1233.0</ele><time>2026-04-23T10:26:46.998Z</time></trkpt><trkpt lat="42.36701626470973" lon="13.557060341123222"><ele>1233.0</ele><time>2026-04-23T10:26:47.998Z</time></trkpt><trkpt lat="42.36708207142201" lon="13.556971376876566"><ele>1233.0</ele><time>2026-04-23T10:26:49.998Z</time></trkpt><trkpt lat="42.367000547416836" lon="13.557120076451604"><ele>1233.0</ele><time>2026-04-23T10:26:59.998Z</time></trkpt><trkpt lat="42.366919197438754" lon="13.557230286322907"><ele>1233.0</ele><time>2026-04-23T10:27:00.998Z</time></trkpt><trkpt lat="42.36683178350099" lon="13.557362002358667"><ele>1233.0</ele><time>2026-04-23T10:27:01.998Z</time></trkpt><trkpt lat="42.36673285377047" lon="13.55749930666713"><ele>1233.0</ele><time>2026-04-23T10:27:02.997Z</time></trkpt><trkpt lat="42.3666143126224" lon="13.55763897214914"><ele>1233.0</ele><time>2026-04-23T10:27:03.997Z</time></trkpt><trkpt lat="42.366481749592204" lon="13.557771087036253"><ele>1231.0</ele><time>2026-04-23T10:27:04.997Z</time></trkpt><trkpt lat="42.366341830549096" lon="13.557913763129806"><ele>1229.0</ele><time>2026-04-23T10:27:05.997Z</time></trkpt><trkpt lat="42.366201144217655" lon="13.558067082791236"><ele>1227.0</ele><time>2026-04-23T10:27:06.997Z</time></trkpt><trkpt lat="42.3660602655507" lon="13.558219809688598"><ele>1227.0</ele><time>2026-04-23T10:27:07.997Z</time></trkpt><trkpt lat="42.36592577507249" lon="13.558355088767142"><ele>1227.0</ele><time>2026-04-23T10:27:08.997Z</time></trkpt><trkpt lat="42.365791816194516" lon="13.558479861029996"><ele>1227.0</ele><time>2026-04-23T10:27:09.998Z</time></trkpt><trkpt lat="42.36566436537739" lon="13.558590508584693"><ele>1227.0</ele><time>2026-04-23T10:27:10.998Z</time></trkpt><trkpt lat="42.365547458772866" lon="13.558692418794847"><ele>1227.0</ele><time>2026-04-23T10:27:11.998Z</time></trkpt><trkpt lat="42.365444577698035" lon="13.558780565703591"><ele>1227.0</ele><time>2026-04-23T10:27:12.998Z</time></trkpt><trkpt lat="42.365364108046556" lon="13.55884705314938"><ele>1227.0</ele><time>2026-04-23T10:27:13.998Z</time></trkpt><trkpt lat="42.36530951128674" lon="13.558894980243544"><ele>1227.0</ele><time>2026-04-23T10:27:14.999Z</time></trkpt><trkpt lat="42.36533669825835" lon="13.558977791716346"><ele>1227.6</ele><time>2026-04-23T10:27:17.999Z</time></trkpt><trkpt lat="42.36545681236632" lon="13.559057241741364"><ele>1228.2</ele><time>2026-04-23T10:27:19.999Z</time></trkpt><trkpt lat="42.36554343657476" lon="13.559106368317078"><ele>1228.8</ele><time>2026-04-23T10:27:20.999Z</time></trkpt><trkpt lat="42.36562881588928" lon="13.559162944480658"><ele>1229.4</ele><time>2026-04-23T10:27:21.999Z</time></trkpt><trkpt lat="42.365718236514724" lon="13.559227735381853"><ele>1230.0</ele><time>2026-04-23T10:27:22.999Z</time></trkpt><trkpt lat="42.365801192417045" lon="13.559287822294356"><ele>1230.0</ele><time>2026-04-23T10:27:23.999Z</time></trkpt><trkpt lat="42.36587903210013" lon="13.559350733071364"><ele>1230.0</ele><time>2026-04-23T10:27:24.999Z</time></trkpt><trkpt lat="42.36595540471729" lon="13.559425418962453"><ele>1230.0</ele><time>2026-04-23T10:27:25.999Z</time></trkpt><trkpt lat="42.36602844296525" lon="13.559488362838252"><ele>1230.0</ele><time>2026-04-23T10:27:27Z</time></trkpt><trkpt lat="42.36609979664607" lon="13.559537088261928"><ele>1230.0</ele><time>2026-04-23T10:27:28Z</time></trkpt><trkpt lat="42.36617913593379" lon="13.55960987682304"><ele>1230.0</ele><time>2026-04-23T10:27:30Z</time></trkpt><trkpt lat="42.366157005573484" lon="13.559713584453345"><ele>1231.6666666666667</ele><time>2026-04-23T10:27:32Z</time></trkpt><trkpt lat="42.36607261110277" lon="13.559756139960621"><ele>1233.3333333333333</ele><time>2026-04-23T10:27:34Z</time></trkpt><trkpt lat="42.36600476726277" lon="13.559747420846215"><ele>1235.0</ele><time>2026-04-23T10:27:35Z</time></trkpt><trkpt lat="42.365943383977054" lon="13.559725410555675"><ele>1236.6666666666665</ele><time>2026-04-23T10:27:36Z</time></trkpt><trkpt lat="42.36586508153938" lon="13.559691198738827"><ele>1238.3333333333333</ele><time>2026-04-23T10:27:37Z</time></trkpt><trkpt lat="42.36576734097982" lon="13.559650066205045"><ele>1240.0</ele><time>2026-04-23T10:27:38Z</time></trkpt><trkpt lat="42.36567652144432" lon="13.559616909811222"><ele>1240.0</ele><time>2026-04-23T10:27:39Z</time></trkpt><trkpt lat="42.365587568223255" lon="13.559620124392426"><ele>1240.0</ele><time>2026-04-23T10:27:40Z</time></trkpt><trkpt lat="42.36550955627497" lon="13.559660157615403"><ele>1240.0</ele><time>2026-04-23T10:27:41Z</time></trkpt><trkpt lat="42.36544419282267" lon="13.559728837375806"><ele>1240.0</ele><time>2026-04-23T10:27:42Z</time></trkpt><trkpt lat="42.365384484973255" lon="13.559834923073826"><ele>1240.0</ele><time>2026-04-23T10:27:43Z</time></trkpt><trkpt lat="42.36532533211409" lon="13.55996175075928"><ele>1239.8</ele><time>2026-04-23T10:27:44Z</time></trkpt><trkpt lat="42.36525349373344" lon="13.560087793128847"><ele>1239.6</ele><time>2026-04-23T10:27:45Z</time></trkpt><trkpt lat="42.365170458793806" lon="13.560183913056743"><ele>1239.4</ele><time>2026-04-23T10:27:46Z</time></trkpt><trkpt lat="42.36507903237648" lon="13.560271254597971"><ele>1239.2</ele><time>2026-04-23T10:27:47Z</time></trkpt><trkpt lat="42.365009882172394" lon="13.560358070479262"><ele>1239.0</ele><time>2026-04-23T10:27:48Z</time></trkpt><trkpt lat="42.36496701596375" lon="13.560439929607856"><ele>1239.0</ele><time>2026-04-23T10:27:49Z</time></trkpt><trkpt lat="42.364941410339846" lon="13.560525776867348"><ele>1239.0</ele><time>2026-04-23T10:27:50Z</time></trkpt><trkpt lat="42.36493070344105" lon="13.560626477712534"><ele>1239.0</ele><time>2026-04-23T10:27:51Z</time></trkpt><trkpt lat="42.36497190133303" lon="13.560787965006345"><ele>1239.0</ele><time>2026-04-23T10:27:53Z</time></trkpt><trkpt lat="42.36502292331128" lon="13.560863111307732"><ele>1239.0</ele><time>2026-04-23T10:27:54Z</time></trkpt><trkpt lat="42.36508721127842" lon="13.560912488743785"><ele>1239.0</ele><time>2026-04-23T10:27:55Z</time></trkpt><trkpt lat="42.36519783957229" lon="13.560891652789055"><ele>1239.0</ele><time>2026-04-23T10:27:57Z</time></trkpt><trkpt lat="42.36526480170394" lon="13.560854354504482"><ele>1239.0</ele><time>2026-04-23T10:27:58Z</time></trkpt><trkpt lat="42.36531881887745" lon="13.560789565677343"><ele>1239.0</ele><time>2026-04-23T10:27:59Z</time></trkpt><trkpt lat="42.36538330466279" lon="13.560699169268496"><ele>1239.0</ele><time>2026-04-23T10:28:00Z</time></trkpt><trkpt lat="42.3654515104778" lon="13.560621218281458"><ele>1239.0</ele><time>2026-04-23T10:28:01Z</time></trkpt><trkpt lat="42.36553083207342" lon="13.560568322200368"><ele>1239.0</ele><time>2026-04-23T10:28:02Z</time></trkpt><trkpt lat="42.36562281965531" lon="13.560508870964682"><ele>1242.2</ele><time>2026-04-23T10:28:03Z</time></trkpt><trkpt lat="42.36572172323147" lon="13.560457060266572"><ele>1245.4</ele><time>2026-04-23T10:28:04Z</time></trkpt><trkpt lat="42.365811392634335" lon="13.560399796148216"><ele>1248.6</ele><time>2026-04-23T10:28:05Z</time></trkpt><trkpt lat="42.365900169566984" lon="13.560372252625928"><ele>1251.8</ele><time>2026-04-23T10:28:06Z</time></trkpt><trkpt lat="42.365981959613435" lon="13.560369313998173"><ele>1255.0</ele><time>2026-04-23T10:28:07Z</time></trkpt><trkpt lat="42.3660768814146" lon="13.560394282039457"><ele>1255.0</ele><time>2026-04-23T10:28:08Z</time></trkpt><trkpt lat="42.366153149843925" lon="13.560446822821211"><ele>1255.0</ele><time>2026-04-23T10:28:09Z</time></trkpt><trkpt lat="42.36623106248343" lon="13.560510052720343"><ele>1255.0</ele><time>2026-04-23T10:28:10Z</time></trkpt><trkpt lat="42.36629825235451" lon="13.560585758761734"><ele>1255.0</ele><time>2026-04-23T10:28:11Z</time></trkpt><trkpt lat="42.36633267853716" lon="13.560732090032896"><ele>1255.0</ele><time>2026-04-23T10:28:13Z</time></trkpt><trkpt lat="42.366322050020266" lon="13.56082580529944"><ele>1255.0</ele><time>2026-04-23T10:28:14Z</time></trkpt><trkpt lat="42.36631111758783" lon="13.560928627157796"><ele>1255.0</ele><time>2026-04-23T10:28:15Z</time></trkpt><trkpt lat="42.36629951025722" lon="13.561036902114447"><ele>1255.0</ele><time>2026-04-23T10:28:16Z</time></trkpt><trkpt lat="42.36631527537059" lon="13.561166789516294"><ele>1255.0</ele><time>2026-04-23T10:28:17Z</time></trkpt><trkpt lat="42.366366712514484" lon="13.561269394356996"><ele>1255.0</ele><time>2026-04-23T10:28:18Z</time></trkpt><trkpt lat="42.36644548311517" lon="13.561382932977844"><ele>1255.0</ele><time>2026-04-23T10:28:19Z</time></trkpt><trkpt lat="42.3665319560241" lon="13.561489859728903"><ele>1257.5</ele><time>2026-04-23T10:28:20Z</time></trkpt><trkpt lat="42.36662758918463" lon="13.56158950936446"><ele>1260.0</ele><time>2026-04-23T10:28:21Z</time></trkpt><trkpt lat="42.36672836320425" lon="13.561689456009182"><ele>1262.5</ele><time>2026-04-23T10:28:22Z</time></trkpt><trkpt lat="42.3668381693377" lon="13.561796230522013"><ele>1265.0</ele><time>2026-04-23T10:28:23Z</time></trkpt><trkpt lat="42.36694206440687" lon="13.561893860293484"><ele>1265.0</ele><time>2026-04-23T10:28:24Z</time></trkpt><trkpt lat="42.36704033788063" lon="13.561989015711381"><ele>1265.0</ele><time>2026-04-23T10:28:25Z</time></trkpt><trkpt lat="42.36713571826209" lon="13.56208508448975"><ele>1265.0</ele><time>2026-04-23T10:28:26Z</time></trkpt><trkpt lat="42.3672273170175" lon="13.562156753388601"><ele>1265.0</ele><time>2026-04-23T10:28:27Z</time></trkpt><trkpt lat="42.367306070333505" lon="13.562224806942064"><ele>1265.0</ele><time>2026-04-23T10:28:28Z</time></trkpt><trkpt lat="42.36737383121909" lon="13.562290998490251"><ele>1266.4</ele><time>2026-04-23T10:28:29Z</time></trkpt><trkpt lat="42.36743595591432" lon="13.562333739751116"><ele>1267.8</ele><time>2026-04-23T10:28:30Z</time></trkpt><trkpt lat="42.36752165896448" lon="13.562408277503053"><ele>1269.2</ele><time>2026-04-23T10:28:31Z</time></trkpt><trkpt lat="42.3676006231532" lon="13.562485398827937"><ele>1270.6</ele><time>2026-04-23T10:28:32Z</time></trkpt><trkpt lat="42.367686631642876" lon="13.562573266304922"><ele>1272.0</ele><time>2026-04-23T10:28:33Z</time></trkpt><trkpt lat="42.36778015618502" lon="13.562677242742254"><ele>1272.0</ele><time>2026-04-23T10:28:34Z</time></trkpt><trkpt lat="42.3678841752565" lon="13.562773213137788"><ele>1272.0</ele><time>2026-04-23T10:28:35Z</time></trkpt><trkpt lat="42.367998340541114" lon="13.562865278281171"><ele>1272.0</ele><time>2026-04-23T10:28:36Z</time></trkpt><trkpt lat="42.36809573769186" lon="13.562950406853728"><ele>1272.0</ele><time>2026-04-23T10:28:37Z</time></trkpt><trkpt lat="42.3681731208242" lon="13.563026531905146"><ele>1273.4</ele><time>2026-04-23T10:28:38Z</time></trkpt><trkpt lat="42.368222687855706" lon="13.563108306244127"><ele>1274.8000000000002</ele><time>2026-04-23T10:28:39Z</time></trkpt><trkpt lat="42.36822104585247" lon="13.563259366547902"><ele>1276.2</ele><time>2026-04-23T10:28:41Z</time></trkpt><trkpt lat="42.36817565778143" lon="13.563363210986935"><ele>1277.6000000000001</ele><time>2026-04-23T10:28:42Z</time></trkpt><trkpt lat="42.36810085779616" lon="13.563492459160537"><ele>1279.0</ele><time>2026-04-23T10:28:43Z</time></trkpt><trkpt lat="42.3680295485585" lon="13.563649852063806"><ele>1278.3333333333333</ele><time>2026-04-23T10:28:44Z</time></trkpt><trkpt lat="42.36796060069103" lon="13.563843470478018"><ele>1277.6666666666667</ele><time>2026-04-23T10:28:45Z</time></trkpt><trkpt lat="42.367876904551274" lon="13.564095826111537"><ele>1277.0</ele><time>2026-04-23T10:28:46Z</time></trkpt><trkpt lat="42.36778109117263" lon="13.564339436580656"><ele>1277.3333333333335</ele><time>2026-04-23T10:28:47Z</time></trkpt><trkpt lat="42.36768880637794" lon="13.56454855963541"><ele>1277.6666666666667</ele><time>2026-04-23T10:28:48Z</time></trkpt><trkpt lat="42.36760952322728" lon="13.564738038554838"><ele>1278.0</ele><time>2026-04-23T10:28:49Z</time></trkpt><trkpt lat="42.36753506409207" lon="13.564921583629122"><ele>1278.0</ele><time>2026-04-23T10:28:50Z</time></trkpt><trkpt lat="42.36746004938891" lon="13.565111831640696"><ele>1278.0</ele><time>2026-04-23T10:28:51Z</time></trkpt><trkpt lat="42.367373439203135" lon="13.565341792678872"><ele>1278.0</ele><time>2026-04-23T10:28:52Z</time></trkpt><trkpt lat="42.36729916294694" lon="13.565530536598168"><ele>1277.75</ele><time>2026-04-23T10:28:53Z</time></trkpt><trkpt lat="42.367215566711835" lon="13.565679110799021"><ele>1277.5</ele><time>2026-04-23T10:28:54Z</time></trkpt><trkpt lat="42.36711256176753" lon="13.565829609801757"><ele>1277.25</ele><time>2026-04-23T10:28:55Z</time></trkpt><trkpt lat="42.367016362885806" lon="13.565998036690491"><ele>1277.0</ele><time>2026-04-23T10:28:56Z</time></trkpt><trkpt lat="42.36692757656058" lon="13.56618558504214"><ele>1276.3333333333335</ele><time>2026-04-23T10:28:57Z</time></trkpt><trkpt lat="42.36683424701433" lon="13.566386237059504"><ele>1275.6666666666667</ele><time>2026-04-23T10:28:58Z</time></trkpt><trkpt lat="42.3667404131614" lon="13.56660007994122"><ele>1275.0</ele><time>2026-04-23T10:28:59Z</time></trkpt><trkpt lat="42.36665617705116" lon="13.566812148236448"><ele>1274.0</ele><time>2026-04-23T10:29:00Z</time></trkpt><trkpt lat="42.36655932403804" lon="13.56702927194609"><ele>1273.0</ele><time>2026-04-23T10:29:01Z</time></trkpt><trkpt lat="42.366467416649265" lon="13.567228679059008"><ele>1272.0</ele><time>2026-04-23T10:29:02Z</time></trkpt><trkpt lat="42.36636022983514" lon="13.567427692592618"><ele>1272.0</ele><time>2026-04-23T10:29:03Z</time></trkpt><trkpt lat="42.36624740977637" lon="13.567641291707957"><ele>1272.0</ele><time>2026-04-23T10:29:04Z</time></trkpt><trkpt lat="42.366148482617305" lon="13.56785175880515"><ele>1272.0</ele><time>2026-04-23T10:29:05Z</time></trkpt><trkpt lat="42.366038766931155" lon="13.568067080837242"><ele>1274.0</ele><time>2026-04-23T10:29:06Z</time></trkpt><trkpt lat="42.36593756527874" lon="13.568268230776795"><ele>1276.0</ele><time>2026-04-23T10:29:07Z</time></trkpt><trkpt lat="42.365834404762985" lon="13.568475869300533"><ele>1278.0</ele><time>2026-04-23T10:29:08Z</time></trkpt><trkpt lat="42.36573109648751" lon="13.568691055697029"><ele>1277.0</ele><time>2026-04-23T10:29:09Z</time></trkpt><trkpt lat="42.365642477952164" lon="13.568870373645089"><ele>1276.0</ele><time>2026-04-23T10:29:10Z</time></trkpt><trkpt lat="42.365564476158745" lon="13.569038110868277"><ele>1275.0</ele><time>2026-04-23T10:29:11Z</time></trkpt><trkpt lat="42.36549016441585" lon="13.569185725132508"><ele>1274.0</ele><time>2026-04-23T10:29:12Z</time></trkpt><trkpt lat="42.36543690004781" lon="13.569342938291532"><ele>1275.6666666666667</ele><time>2026-04-23T10:29:13Z</time></trkpt><trkpt lat="42.36538260706393" lon="13.569545525273961"><ele>1277.3333333333333</ele><time>2026-04-23T10:29:14Z</time></trkpt><trkpt lat="42.365308751389954" lon="13.569743619489248"><ele>1279.0</ele><time>2026-04-23T10:29:15Z</time></trkpt><trkpt lat="42.365221666307654" lon="13.56993283825577"><ele>1279.0</ele><time>2026-04-23T10:29:16Z</time></trkpt><trkpt lat="42.36513227733993" lon="13.570124159948595"><ele>1279.0</ele><time>2026-04-23T10:29:17.001Z</time></trkpt><trkpt lat="42.36503691978996" lon="13.570330500922053"><ele>1279.0</ele><time>2026-04-23T10:29:18Z</time></trkpt><trkpt lat="42.36495218477161" lon="13.570525453751602"><ele>1278.3333333333333</ele><time>2026-04-23T10:29:19Z</time></trkpt><trkpt lat="42.36487286480812" lon="13.570737103892196"><ele>1277.6666666666667</ele><time>2026-04-23T10:29:20Z</time></trkpt><trkpt lat="42.36479414029148" lon="13.570949950454757"><ele>1277.0</ele><time>2026-04-23T10:29:21Z</time></trkpt><trkpt lat="42.36469016089699" lon="13.571163019533312"><ele>1278.3333333333335</ele><time>2026-04-23T10:29:22Z</time></trkpt><trkpt lat="42.36458712539928" lon="13.571361514330317"><ele>1279.6666666666667</ele><time>2026-04-23T10:29:23Z</time></trkpt><trkpt lat="42.364477375767045" lon="13.57156665945248"><ele>1281.0</ele><time>2026-04-23T10:29:24Z</time></trkpt><trkpt lat="42.36435467838879" lon="13.571740631299342"><ele>1281.0</ele><time>2026-04-23T10:29:25Z</time></trkpt><trkpt lat="42.364224850330366" lon="13.571920463564144"><ele>1281.0</ele><time>2026-04-23T10:29:26Z</time></trkpt><trkpt lat="42.36410018146935" lon="13.57208649553712"><ele>1281.0</ele><time>2026-04-23T10:29:27Z</time></trkpt><trkpt lat="42.36398338736855" lon="13.572268398414499"><ele>1281.3333333333333</ele><time>2026-04-23T10:29:28Z</time></trkpt><trkpt lat="42.363883556361486" lon="13.572450286300446"><ele>1281.6666666666665</ele><time>2026-04-23T10:29:29Z</time></trkpt><trkpt lat="42.363794711746564" lon="13.572653358226495"><ele>1282.0</ele><time>2026-04-23T10:29:30Z</time></trkpt><trkpt lat="42.36370702030357" lon="13.57286036315991"><ele>1285.3333333333333</ele><time>2026-04-23T10:29:31Z</time></trkpt><trkpt lat="42.36362726336891" lon="13.573078482842202"><ele>1288.6666666666667</ele><time>2026-04-23T10:29:32Z</time></trkpt><trkpt lat="42.36354520372316" lon="13.57329890021875"><ele>1292.0</ele><time>2026-04-23T10:29:33Z</time></trkpt><trkpt lat="42.36346144454618" lon="13.573498924556016"><ele>1292.0</ele><time>2026-04-23T10:29:34Z</time></trkpt><trkpt lat="42.36337780913139" lon="13.573657625072181"><ele>1292.0</ele><time>2026-04-23T10:29:35Z</time></trkpt><trkpt lat="42.36328207503606" lon="13.573801868045866"><ele>1292.0</ele><time>2026-04-23T10:29:36Z</time></trkpt><trkpt lat="42.36317512194997" lon="13.573945832425558"><ele>1292.0</ele><time>2026-04-23T10:29:37Z</time></trkpt><trkpt lat="42.36305552647065" lon="13.57409345520344"><ele>1293.6666666666667</ele><time>2026-04-23T10:29:38Z</time></trkpt><trkpt lat="42.36293089593702" lon="13.574219833834013"><ele>1295.3333333333333</ele><time>2026-04-23T10:29:39Z</time></trkpt><trkpt lat="42.362794917220846" lon="13.574346729572238"><ele>1297.0</ele><time>2026-04-23T10:29:40Z</time></trkpt><trkpt lat="42.36264934354073" lon="13.5744760849846"><ele>1299.6666666666665</ele><time>2026-04-23T10:29:41Z</time></trkpt><trkpt lat="42.36250055473474" lon="13.574604972229599"><ele>1302.3333333333333</ele><time>2026-04-23T10:29:42Z</time></trkpt><trkpt lat="42.362367331820224" lon="13.574731296930606"><ele>1305.0</ele><time>2026-04-23T10:29:43Z</time></trkpt><trkpt lat="42.36224898423452" lon="13.57484451624241"><ele>1305.25</ele><time>2026-04-23T10:29:44Z</time></trkpt><trkpt lat="42.36215385800697" lon="13.574964626964881"><ele>1305.5</ele><time>2026-04-23T10:29:45Z</time></trkpt><trkpt lat="42.362065993198655" lon="13.575121940740107"><ele>1305.75</ele><time>2026-04-23T10:29:46Z</time></trkpt><trkpt lat="42.36198601643224" lon="13.575299653297037"><ele>1306.0</ele><time>2026-04-23T10:29:47Z</time></trkpt><trkpt lat="42.361915691696204" lon="13.57547797573331"><ele>1304.6666666666665</ele><time>2026-04-23T10:29:48Z</time></trkpt><trkpt lat="42.361862983782004" lon="13.575674542930635"><ele>1303.3333333333333</ele><time>2026-04-23T10:29:49Z</time></trkpt><trkpt lat="42.36180878892094" lon="13.575869877631707"><ele>1302.0</ele><time>2026-04-23T10:29:50Z</time></trkpt><trkpt lat="42.36175346914289" lon="13.57604970789667"><ele>1302.0</ele><time>2026-04-23T10:29:51Z</time></trkpt><trkpt lat="42.36169088735188" lon="13.576198807580319"><ele>1302.0</ele><time>2026-04-23T10:29:52Z</time></trkpt><trkpt lat="42.361619434893505" lon="13.576323285668082"><ele>1302.0</ele><time>2026-04-23T10:29:53Z</time></trkpt><trkpt lat="42.361548503584245" lon="13.576455200866341"><ele>1302.0</ele><time>2026-04-23T10:29:54Z</time></trkpt><trkpt lat="42.361478255235916" lon="13.576602115886896"><ele>1302.0</ele><time>2026-04-23T10:29:55Z</time></trkpt><trkpt lat="42.361404245420246" lon="13.576756817850981"><ele>1302.0</ele><time>2026-04-23T10:29:56Z</time></trkpt><trkpt lat="42.36132553533332" lon="13.576912284874407"><ele>1302.0</ele><time>2026-04-23T10:29:57Z</time></trkpt><trkpt lat="42.361248274939705" lon="13.577065801261755"><ele>1302.0</ele><time>2026-04-23T10:29:58Z</time></trkpt><trkpt lat="42.361181084605064" lon="13.577217776852814"><ele>1300.0</ele><time>2026-04-23T10:29:59Z</time></trkpt><trkpt lat="42.361133618288605" lon="13.577377177985396"><ele>1298.0</ele><time>2026-04-23T10:30:00Z</time></trkpt><trkpt lat="42.36110498968684" lon="13.577562719412738"><ele>1296.0</ele><time>2026-04-23T10:30:01Z</time></trkpt><trkpt lat="42.36107769650687" lon="13.577757030120143"><ele>1294.0</ele><time>2026-04-23T10:30:02Z</time></trkpt><trkpt lat="42.3610402871674" lon="13.577951716909903"><ele>1294.0</ele><time>2026-04-23T10:30:03Z</time></trkpt><trkpt lat="42.360986849153" lon="13.578119643169192"><ele>1294.0</ele><time>2026-04-23T10:30:04Z</time></trkpt><trkpt lat="42.36092049884551" lon="13.578283998671278"><ele>1294.0</ele><time>2026-04-23T10:30:05Z</time></trkpt><trkpt lat="42.360852637575896" lon="13.578477565013559"><ele>1294.0</ele><time>2026-04-23T10:30:06Z</time></trkpt><trkpt lat="42.36078309915928" lon="13.57864822982762"><ele>1295.3333333333333</ele><time>2026-04-23T10:30:07Z</time></trkpt><trkpt lat="42.36071900286438" lon="13.578834990237693"><ele>1296.6666666666667</ele><time>2026-04-23T10:30:08Z</time></trkpt><trkpt lat="42.36065063682877" lon="13.579027187833214"><ele>1298.0</ele><time>2026-04-23T10:30:09Z</time></trkpt><trkpt lat="42.36058623530453" lon="13.579224327337153"><ele>1296.6666666666667</ele><time>2026-04-23T10:30:10Z</time></trkpt><trkpt lat="42.36052373912273" lon="13.579436690756781"><ele>1295.3333333333333</ele><time>2026-04-23T10:30:11Z</time></trkpt><trkpt lat="42.36046549504758" lon="13.579637537032752"><ele>1294.0</ele><time>2026-04-23T10:30:12Z</time></trkpt><trkpt lat="42.360412787497864" lon="13.579811862531255"><ele>1294.0</ele><time>2026-04-23T10:30:13Z</time></trkpt><trkpt lat="42.36036917208423" lon="13.57996753875072"><ele>1294.0</ele><time>2026-04-23T10:30:14Z</time></trkpt><trkpt lat="42.36031822572671" lon="13.580098394928516"><ele>1294.0</ele><time>2026-04-23T10:30:15Z</time></trkpt><trkpt lat="42.360261689474264" lon="13.580223511026293"><ele>1294.0</ele><time>2026-04-23T10:30:16Z</time></trkpt><trkpt lat="42.360187834925966" lon="13.580356410301231"><ele>1295.25</ele><time>2026-04-23T10:30:17Z</time></trkpt><trkpt lat="42.36011035238733" lon="13.580504694482551"><ele>1296.5</ele><time>2026-04-23T10:30:18Z</time></trkpt><trkpt lat="42.36002056289181" lon="13.580662156005683"><ele>1297.75</ele><time>2026-04-23T10:30:19Z</time></trkpt><trkpt lat="42.35992726702002" lon="13.58082803651281"><ele>1299.0</ele><time>2026-04-23T10:30:20Z</time></trkpt><trkpt lat="42.3598312525495" lon="13.58098713442931"><ele>1299.0</ele><time>2026-04-23T10:30:21Z</time></trkpt><trkpt lat="42.35973193172369" lon="13.581153149020826"><ele>1299.0</ele><time>2026-04-23T10:30:22Z</time></trkpt><trkpt lat="42.35962643733966" lon="13.581327311637443"><ele>1299.0</ele><time>2026-04-23T10:30:23Z</time></trkpt><trkpt lat="42.35952110154793" lon="13.5814818162018"><ele>1299.3333333333333</ele><time>2026-04-23T10:30:24Z</time></trkpt><trkpt lat="42.3594118954215" lon="13.58164148629836"><ele>1299.6666666666665</ele><time>2026-04-23T10:30:25Z</time></trkpt><trkpt lat="42.35929678495496" lon="13.581812208480558"><ele>1300.0</ele><time>2026-04-23T10:30:26Z</time></trkpt><trkpt lat="42.35918379258527" lon="13.581979389441985"><ele>1300.3333333333333</ele><time>2026-04-23T10:30:27Z</time></trkpt><trkpt lat="42.35906444026835" lon="13.582143620396788"><ele>1300.6666666666667</ele><time>2026-04-23T10:30:28Z</time></trkpt><trkpt lat="42.358939915485195" lon="13.582305380734804"><ele>1301.0</ele><time>2026-04-23T10:30:29Z</time></trkpt><trkpt lat="42.35881444421647" lon="13.582474466777686"><ele>1301.0</ele><time>2026-04-23T10:30:30Z</time></trkpt><trkpt lat="42.35869105588478" lon="13.582629956942032"><ele>1301.0</ele><time>2026-04-23T10:30:31Z</time></trkpt><trkpt lat="42.35858626180515" lon="13.582781367940605"><ele>1301.0</ele><time>2026-04-23T10:30:32Z</time></trkpt><trkpt lat="42.358491506031456" lon="13.582936467462678"><ele>1302.75</ele><time>2026-04-23T10:30:33Z</time></trkpt><trkpt lat="42.358394946846545" lon="13.583092562882136"><ele>1304.5</ele><time>2026-04-23T10:30:34Z</time></trkpt><trkpt lat="42.358306776961406" lon="13.583253810709083"><ele>1306.25</ele><time>2026-04-23T10:30:35Z</time></trkpt><trkpt lat="42.35823478520423" lon="13.583424263797804"><ele>1308.0</ele><time>2026-04-23T10:30:36Z</time></trkpt><trkpt lat="42.35817806307025" lon="13.58359442340967"><ele>1307.75</ele><time>2026-04-23T10:30:37Z</time></trkpt><trkpt lat="42.35812478593558" lon="13.583779642758751"><ele>1307.5</ele><time>2026-04-23T10:30:38Z</time></trkpt><trkpt lat="42.358067879008644" lon="13.583958048074484"><ele>1307.25</ele><time>2026-04-23T10:30:39Z</time></trkpt><trkpt lat="42.35798246286158" lon="13.584126212893684"><ele>1307.0</ele><time>2026-04-23T10:30:40Z</time></trkpt><trkpt lat="42.35787742867166" lon="13.584304117825816"><ele>1307.0</ele><time>2026-04-23T10:30:41Z</time></trkpt><trkpt lat="42.35778407926056" lon="13.584478245374902"><ele>1307.0</ele><time>2026-04-23T10:30:42Z</time></trkpt><trkpt lat="42.3576860523714" lon="13.5846333147049"><ele>1307.0</ele><time>2026-04-23T10:30:43Z</time></trkpt><trkpt lat="42.357594182993104" lon="13.58475732816115"><ele>1307.0</ele><time>2026-04-23T10:30:44Z</time></trkpt><trkpt lat="42.35749431753434" lon="13.584862680673524"><ele>1307.25</ele><time>2026-04-23T10:30:45Z</time></trkpt><trkpt lat="42.357386901654365" lon="13.58495826573074"><ele>1307.5</ele><time>2026-04-23T10:30:46Z</time></trkpt><trkpt lat="42.35729131274318" lon="13.585076101888875"><ele>1307.75</ele><time>2026-04-23T10:30:47Z</time></trkpt><trkpt lat="42.357200084690525" lon="13.585227576226911"><ele>1308.0</ele><time>2026-04-23T10:30:48Z</time></trkpt><trkpt lat="42.35710468308034" lon="13.5853809972376"><ele>1311.6666666666667</ele><time>2026-04-23T10:30:49Z</time></trkpt><trkpt lat="42.35700146564154" lon="13.585537724396657"><ele>1315.3333333333335</ele><time>2026-04-23T10:30:50Z</time></trkpt><trkpt lat="42.356895295323284" lon="13.585682778080354"><ele>1319.0</ele><time>2026-04-23T10:30:51Z</time></trkpt><trkpt lat="42.35678375025036" lon="13.585809170021154"><ele>1319.0</ele><time>2026-04-23T10:30:52Z</time></trkpt><trkpt lat="42.35665684463695" lon="13.585957072249478"><ele>1319.0</ele><time>2026-04-23T10:30:53Z</time></trkpt><trkpt lat="42.356540855791884" lon="13.58609444392369"><ele>1319.0</ele><time>2026-04-23T10:30:54Z</time></trkpt><trkpt lat="42.356414985424685" lon="13.586235654954388"><ele>1320.25</ele><time>2026-04-23T10:30:55Z</time></trkpt><trkpt lat="42.35629574208644" lon="13.586360634856458"><ele>1321.5</ele><time>2026-04-23T10:30:56Z</time></trkpt><trkpt lat="42.35620081839727" lon="13.58647171041975"><ele>1322.75</ele><time>2026-04-23T10:30:57Z</time></trkpt><trkpt lat="42.35610761517012" lon="13.586548283464783"><ele>1324.0</ele><time>2026-04-23T10:30:58Z</time></trkpt><trkpt lat="42.35601810004274" lon="13.586581129157288"><ele>1324.0</ele><time>2026-04-23T10:30:59Z</time></trkpt><trkpt lat="42.35593505854747" lon="13.58657263017603"><ele>1324.0</ele><time>2026-04-23T10:31:00Z</time></trkpt><trkpt lat="42.35582649399599" lon="13.586532258209314"><ele>1324.0</ele><time>2026-04-23T10:31:01Z</time></trkpt><trkpt lat="42.355716466605216" lon="13.586510691059177"><ele>1324.0</ele><time>2026-04-23T10:31:02Z</time></trkpt><trkpt lat="42.3556052377562" lon="13.586542171863943"><ele>1324.0</ele><time>2026-04-23T10:31:03Z</time></trkpt><trkpt lat="42.35551451000073" lon="13.586623203506536"><ele>1323.4</ele><time>2026-04-23T10:31:04Z</time></trkpt><trkpt lat="42.35543278366289" lon="13.58674238545702"><ele>1322.8000000000002</ele><time>2026-04-23T10:31:05Z</time></trkpt><trkpt lat="42.35536347651046" lon="13.586859861405346"><ele>1322.1999999999998</ele><time>2026-04-23T10:31:06Z</time></trkpt><trkpt lat="42.355334541528364" lon="13.586966250871361"><ele>1321.6</ele><time>2026-04-23T10:31:07Z</time></trkpt><trkpt lat="42.355319447035654" lon="13.587072667866678"><ele>1321.0</ele><time>2026-04-23T10:31:08Z</time></trkpt><trkpt lat="42.35532100742967" lon="13.587178367355868"><ele>1321.0</ele><time>2026-04-23T10:31:09Z</time></trkpt><trkpt lat="42.35532516990827" lon="13.587312840049217"><ele>1321.0</ele><time>2026-04-23T10:31:10Z</time></trkpt><trkpt lat="42.35530427585954" lon="13.587433152845398"><ele>1321.0</ele><time>2026-04-23T10:31:11Z</time></trkpt><trkpt lat="42.35523997790691" lon="13.58755275881617"><ele>1321.0</ele><time>2026-04-23T10:31:12Z</time></trkpt><trkpt lat="42.35514860514041" lon="13.587656014963887"><ele>1321.0</ele><time>2026-04-23T10:31:13Z</time></trkpt><trkpt lat="42.35504816785701" lon="13.58776404149477"><ele>1321.5</ele><time>2026-04-23T10:31:14Z</time></trkpt><trkpt lat="42.35493466580685" lon="13.58789241468994"><ele>1322.0</ele><time>2026-04-23T10:31:15Z</time></trkpt><trkpt lat="42.35483022236164" lon="13.588001605264415"><ele>1322.5</ele><time>2026-04-23T10:31:16Z</time></trkpt><trkpt lat="42.354748702455566" lon="13.58810057791371"><ele>1323.0</ele><time>2026-04-23T10:31:17Z</time></trkpt><trkpt lat="42.35467948000448" lon="13.588186737415283"><ele>1323.0</ele><time>2026-04-23T10:31:18Z</time></trkpt><trkpt lat="42.35463299071497" lon="13.588282171762609"><ele>1323.0</ele><time>2026-04-23T10:31:19Z</time></trkpt><trkpt lat="42.35459819927326" lon="13.588389133995115"><ele>1323.0</ele><time>2026-04-23T10:31:20Z</time></trkpt><trkpt lat="42.35455843939686" lon="13.58851657157422"><ele>1323.0</ele><time>2026-04-23T10:31:21Z</time></trkpt><trkpt lat="42.35452198677043" lon="13.588659673924134"><ele>1323.0</ele><time>2026-04-23T10:31:22Z</time></trkpt><trkpt lat="42.35447801434975" lon="13.588796920619531"><ele>1325.5</ele><time>2026-04-23T10:31:23Z</time></trkpt><trkpt lat="42.35440813521195" lon="13.588931180365794"><ele>1328.0</ele><time>2026-04-23T10:31:24Z</time></trkpt><trkpt lat="42.354316555457764" lon="13.589059079007967"><ele>1330.5</ele><time>2026-04-23T10:31:25Z</time></trkpt><trkpt lat="42.3542046085844" lon="13.58919127405799"><ele>1333.0</ele><time>2026-04-23T10:31:26Z</time></trkpt><trkpt lat="42.35400590575866" lon="13.589441439141112"><ele>1333.0</ele><time>2026-04-23T10:31:28Z</time></trkpt><trkpt lat="42.353923027340045" lon="13.589567650975402"><ele>1333.0</ele><time>2026-04-23T10:31:29Z</time></trkpt><trkpt lat="42.353850444306616" lon="13.589707605190542"><ele>1333.0</ele><time>2026-04-23T10:31:30Z</time></trkpt><trkpt lat="42.3538024229047" lon="13.589834792906583"><ele>1333.0</ele><time>2026-04-23T10:31:31Z</time></trkpt><trkpt lat="42.35378988810938" lon="13.589937095846972"><ele>1333.0</ele><time>2026-04-23T10:31:32Z</time></trkpt><trkpt lat="42.35378778907074" lon="13.590043484649758"><ele>1333.0</ele><time>2026-04-23T10:31:33Z</time></trkpt><trkpt lat="42.35380080412548" lon="13.59017634906678"><ele>1333.0</ele><time>2026-04-23T10:31:34Z</time></trkpt><trkpt lat="42.353825163583664" lon="13.590346965670701"><ele>1333.0</ele><time>2026-04-23T10:31:35Z</time></trkpt><trkpt lat="42.35383873253373" lon="13.590520522892426"><ele>1333.0</ele><time>2026-04-23T10:31:36Z</time></trkpt><trkpt lat="42.35386263617321" lon="13.590657923530868"><ele>1335.4</ele><time>2026-04-23T10:31:37Z</time></trkpt><trkpt lat="42.35390536394246" lon="13.590797779930528"><ele>1337.8000000000002</ele><time>2026-04-23T10:31:38Z</time></trkpt><trkpt lat="42.35395831565533" lon="13.590910833670263"><ele>1340.2</ele><time>2026-04-23T10:31:39Z</time></trkpt><trkpt lat="42.35398924817725" lon="13.591028212443133"><ele>1342.6</ele><time>2026-04-23T10:31:40Z</time></trkpt><trkpt lat="42.35398113911597" lon="13.591122870360335"><ele>1345.0</ele><time>2026-04-23T10:31:41Z</time></trkpt><trkpt lat="42.35394171249692" lon="13.591212894068518"><ele>1345.2</ele><time>2026-04-23T10:31:42Z</time></trkpt><trkpt lat="42.35387192705716" lon="13.591280482861938"><ele>1345.4</ele><time>2026-04-23T10:31:43Z</time></trkpt><trkpt lat="42.35376611100882" lon="13.59133359261758"><ele>1345.6</ele><time>2026-04-23T10:31:44Z</time></trkpt><trkpt lat="42.35365560907957" lon="13.591350184115834"><ele>1345.8</ele><time>2026-04-23T10:31:45Z</time></trkpt><trkpt lat="42.35353931886368" lon="13.5912873506212"><ele>1346.0</ele><time>2026-04-23T10:31:46Z</time></trkpt><trkpt lat="42.35342716578804" lon="13.591266665707634"><ele>1346.0</ele><time>2026-04-23T10:31:47Z</time></trkpt><trkpt lat="42.35333108857977" lon="13.59123193425984"><ele>1346.0</ele><time>2026-04-23T10:31:48Z</time></trkpt><trkpt lat="42.353238380612126" lon="13.59116929080676"><ele>1346.0</ele><time>2026-04-23T10:31:49Z</time></trkpt><trkpt lat="42.353145336996384" lon="13.591065456825627"><ele>1346.0</ele><time>2026-04-23T10:31:50Z</time></trkpt><trkpt lat="42.35304992903458" lon="13.590957201277647"><ele>1346.0</ele><time>2026-04-23T10:31:51Z</time></trkpt><trkpt lat="42.352972953963324" lon="13.590864199731271"><ele>1346.6</ele><time>2026-04-23T10:31:52Z</time></trkpt><trkpt lat="42.35291623670538" lon="13.59081287696719"><ele>1347.1999999999998</ele><time>2026-04-23T10:31:53Z</time></trkpt><trkpt lat="42.35279080293046" lon="13.590910156044979"><ele>1347.8000000000002</ele><time>2026-04-23T10:31:56Z</time></trkpt><trkpt lat="42.352862802631094" lon="13.59108015901762"><ele>1348.4</ele><time>2026-04-23T10:31:58Z</time></trkpt><trkpt lat="42.3529189595457" lon="13.591160744703851"><ele>1349.0</ele><time>2026-04-23T10:31:59Z</time></trkpt><trkpt lat="42.35297150115621" lon="13.59125659532915"><ele>1351.25</ele><time>2026-04-23T10:32:00Z</time></trkpt><trkpt lat="42.35300935608133" lon="13.591362213928914"><ele>1353.5</ele><time>2026-04-23T10:32:01Z</time></trkpt><trkpt lat="42.35302510108485" lon="13.591474789947174"><ele>1355.75</ele><time>2026-04-23T10:32:02Z</time></trkpt><trkpt lat="42.35302378340942" lon="13.591695741157377"><ele>1358.0</ele><time>2026-04-23T10:32:03Z</time></trkpt><trkpt lat="42.35303261542395" lon="13.591884831609326"><ele>1357.0</ele><time>2026-04-23T10:32:04Z</time></trkpt><trkpt lat="42.35304261025918" lon="13.592060082320724"><ele>1356.0</ele><time>2026-04-23T10:32:05Z</time></trkpt><trkpt lat="42.35307158227664" lon="13.592207236474692"><ele>1355.0</ele><time>2026-04-23T10:32:06Z</time></trkpt><trkpt lat="42.35308705826165" lon="13.592358515304689"><ele>1354.0</ele><time>2026-04-23T10:32:07Z</time></trkpt><trkpt lat="42.35307984890558" lon="13.592527988205855"><ele>1354.0</ele><time>2026-04-23T10:32:08Z</time></trkpt><trkpt lat="42.35306234044128" lon="13.592687511157727"><ele>1354.0</ele><time>2026-04-23T10:32:09Z</time></trkpt><trkpt lat="42.35302895320071" lon="13.59286527661386"><ele>1354.0</ele><time>2026-04-23T10:32:10Z</time></trkpt><trkpt lat="42.35298315262339" lon="13.593081217921615"><ele>1354.0</ele><time>2026-04-23T10:32:11Z</time></trkpt><trkpt lat="42.35293376230465" lon="13.593303028352745"><ele>1355.0</ele><time>2026-04-23T10:32:12Z</time></trkpt><trkpt lat="42.35288652351898" lon="13.593511579663184"><ele>1356.0</ele><time>2026-04-23T10:32:13Z</time></trkpt><trkpt lat="42.35284524395608" lon="13.59369221830215"><ele>1357.0</ele><time>2026-04-23T10:32:14Z</time></trkpt><trkpt lat="42.35280456700019" lon="13.593840044936158"><ele>1358.0</ele><time>2026-04-23T10:32:15Z</time></trkpt><trkpt lat="42.35276258627621" lon="13.593954438974723"><ele>1358.0</ele><time>2026-04-23T10:32:16Z</time></trkpt><trkpt lat="42.35271060187056" lon="13.59405477230321"><ele>1358.0</ele><time>2026-04-23T10:32:17Z</time></trkpt><trkpt lat="42.35264018161922" lon="13.594173367218927"><ele>1358.0</ele><time>2026-04-23T10:32:18Z</time></trkpt><trkpt lat="42.35257497731484" lon="13.594281299742596"><ele>1358.0</ele><time>2026-04-23T10:32:19Z</time></trkpt><trkpt lat="42.35250714258105" lon="13.59438554500615"><ele>1358.0</ele><time>2026-04-23T10:32:20Z</time></trkpt><trkpt lat="42.35243648065436" lon="13.594482997347251"><ele>1359.8000000000002</ele><time>2026-04-23T10:32:21Z</time></trkpt><trkpt lat="42.35237280157301" lon="13.594570126058752"><ele>1361.6</ele><time>2026-04-23T10:32:22Z</time></trkpt><trkpt lat="42.35231368911018" lon="13.594651006512086"><ele>1363.4</ele><time>2026-04-23T10:32:23Z</time></trkpt><trkpt lat="42.35225721280616" lon="13.594709045930733"><ele>1365.1999999999998</ele><time>2026-04-23T10:32:24Z</time></trkpt><trkpt lat="42.3521609974477" lon="13.594772447507458"><ele>1367.0</ele><time>2026-04-23T10:32:26Z</time></trkpt><trkpt lat="42.35205862413386" lon="13.594799775969502"><ele>1367.0</ele><time>2026-04-23T10:32:28Z</time></trkpt><trkpt lat="42.35195602186074" lon="13.594889774201736"><ele>1367.0</ele><time>2026-04-23T10:32:30Z</time></trkpt><trkpt lat="42.351910625391085" lon="13.594973536054965"><ele>1367.0</ele><time>2026-04-23T10:32:31Z</time></trkpt><trkpt lat="42.351856211734805" lon="13.595111783040466"><ele>1367.0</ele><time>2026-04-23T10:32:32Z</time></trkpt><trkpt lat="42.351809858774935" lon="13.595250828423506"><ele>1367.0</ele><time>2026-04-23T10:32:33Z</time></trkpt><trkpt lat="42.35178334238325" lon="13.595362899916395"><ele>1364.5</ele><time>2026-04-23T10:32:34Z</time></trkpt><trkpt lat="42.35176372778319" lon="13.59545606152849"><ele>1362.0</ele><time>2026-04-23T10:32:35Z</time></trkpt><trkpt lat="42.351726027322606" lon="13.595524293056183"><ele>1359.5</ele><time>2026-04-23T10:32:36Z</time></trkpt><trkpt lat="42.35168413329906" lon="13.595605824125466"><ele>1357.0</ele><time>2026-04-23T10:32:39Z</time></trkpt><trkpt lat="42.35163028612002" lon="13.595672910088899"><ele>1354.5</ele><time>2026-04-23T11:02:05Z</time></trkpt><trkpt lat="42.35151664133634" lon="13.595732524053773"><ele>1352.0</ele><time>2026-04-23T11:02:07Z</time></trkpt><trkpt lat="42.35145291458875" lon="13.595770909249387"><ele>1352.0</ele><time>2026-04-23T11:02:08Z</time></trkpt><trkpt lat="42.351391980141386" lon="13.595811343079383"><ele>1352.0</ele><time>2026-04-23T11:02:09Z</time></trkpt><trkpt lat="42.351334825742335" lon="13.595854665402824"><ele>1352.0</ele><time>2026-04-23T11:02:10Z</time></trkpt><trkpt lat="42.35126661463535" lon="13.595918003139978"><ele>1352.0</ele><time>2026-04-23T11:02:11Z</time></trkpt><trkpt lat="42.351193235729376" lon="13.595996343602465"><ele>1352.0</ele><time>2026-04-23T11:02:12Z</time></trkpt><trkpt lat="42.35113657205624" lon="13.596086843563347"><ele>1352.0</ele><time>2026-04-23T11:02:13Z</time></trkpt><trkpt lat="42.35109235862075" lon="13.596184998424098"><ele>1353.6</ele><time>2026-04-23T11:02:14Z</time></trkpt><trkpt lat="42.35106075670509" lon="13.59630056785995"><ele>1355.1999999999998</ele><time>2026-04-23T11:02:15Z</time></trkpt><trkpt lat="42.351015696473006" lon="13.5964339257655"><ele>1356.8</ele><time>2026-04-23T11:02:16Z</time></trkpt><trkpt lat="42.35097868960781" lon="13.596563462561502"><ele>1358.4</ele><time>2026-04-23T11:02:17Z</time></trkpt><trkpt lat="42.35092811911575" lon="13.596673044099806"><ele>1360.0</ele><time>2026-04-23T11:02:18Z</time></trkpt><trkpt lat="42.35086552720901" lon="13.596793099762552"><ele>1360.0</ele><time>2026-04-23T11:02:19Z</time></trkpt><trkpt lat="42.350795817605615" lon="13.59691134115193"><ele>1360.0</ele><time>2026-04-23T11:02:20Z</time></trkpt><trkpt lat="42.35073295282416" lon="13.597013559339935"><ele>1360.0</ele><time>2026-04-23T11:02:21Z</time></trkpt><trkpt lat="42.35066887508293" lon="13.597109200222704"><ele>1360.0</ele><time>2026-04-23T11:02:22Z</time></trkpt><trkpt lat="42.35057986036279" lon="13.597208560031284"><ele>1360.0</ele><time>2026-04-23T11:02:23Z</time></trkpt><trkpt lat="42.35049738802619" lon="13.597300220373386"><ele>1363.0</ele><time>2026-04-23T11:02:24Z</time></trkpt><trkpt lat="42.35041769705255" lon="13.597408585579391"><ele>1366.0</ele><time>2026-04-23T11:02:25Z</time></trkpt><trkpt lat="42.350335224034694" lon="13.597534057674045"><ele>1369.0</ele><time>2026-04-23T11:02:26Z</time></trkpt><trkpt lat="42.35025583586073" lon="13.597656487532259"><ele>1372.0</ele><time>2026-04-23T11:02:27Z</time></trkpt><trkpt lat="42.350178702080825" lon="13.59777848854521"><ele>1366.8</ele><time>2026-04-23T11:02:28Z</time></trkpt><trkpt lat="42.35010865427568" lon="13.597904119382603"><ele>1361.6</ele><time>2026-04-23T11:02:29Z</time></trkpt><trkpt lat="42.35004158886239" lon="13.59803068232336"><ele>1356.3999999999999</ele><time>2026-04-23T11:02:30Z</time></trkpt><trkpt lat="42.3499870634905" lon="13.598144696301887"><ele>1351.1999999999998</ele><time>2026-04-23T11:02:31Z</time></trkpt><trkpt lat="42.34993071413796" lon="13.598254190525138"><ele>1346.0</ele><time>2026-04-23T11:02:32Z</time></trkpt><trkpt lat="42.34988326551838" lon="13.598375010051289"><ele>1346.0</ele><time>2026-04-23T11:02:33Z</time></trkpt><trkpt lat="42.34984848154696" lon="13.59851785298791"><ele>1346.0</ele><time>2026-04-23T11:02:34Z</time></trkpt><trkpt lat="42.349812038828375" lon="13.59866649690807"><ele>1346.0</ele><time>2026-04-23T11:02:35Z</time></trkpt><trkpt lat="42.34978199103056" lon="13.598818368821146"><ele>1346.0</ele><time>2026-04-23T11:02:36Z</time></trkpt><trkpt lat="42.3497642088673" lon="13.598971225819817"><ele>1343.1999999999998</ele><time>2026-04-23T11:02:37Z</time></trkpt><trkpt lat="42.34976054522618" lon="13.59911044108656"><ele>1340.3999999999999</ele><time>2026-04-23T11:02:38Z</time></trkpt><trkpt lat="42.349751203671154" lon="13.599250685327632"><ele>1337.6</ele><time>2026-04-23T11:02:39Z</time></trkpt><trkpt lat="42.3497532295255" lon="13.599395550549012"><ele>1334.8</ele><time>2026-04-23T11:02:40Z</time></trkpt><trkpt lat="42.34975046938226" lon="13.59953416411036"><ele>1332.0</ele><time>2026-04-23T11:02:41Z</time></trkpt><trkpt lat="42.349748372118974" lon="13.599678957794957"><ele>1330.0</ele><time>2026-04-23T11:02:42Z</time></trkpt><trkpt lat="42.349742291091985" lon="13.599788379464878"><ele>1328.0</ele><time>2026-04-23T11:02:43Z</time></trkpt><trkpt lat="42.349723902280516" lon="13.599901368576349"><ele>1326.0</ele><time>2026-04-23T11:02:44Z</time></trkpt><trkpt lat="42.34970365879346" lon="13.600037407665631"><ele>1324.0</ele><time>2026-04-23T11:02:45Z</time></trkpt><trkpt lat="42.34966948759276" lon="13.60018668102569"><ele>1322.0</ele><time>2026-04-23T11:02:46Z</time></trkpt><trkpt lat="42.34963124447433" lon="13.600334911526955"><ele>1327.25</ele><time>2026-04-23T11:02:47Z</time></trkpt><trkpt lat="42.34959141954561" lon="13.600496318583936"><ele>1332.5</ele><time>2026-04-23T11:02:48Z</time></trkpt><trkpt lat="42.34955897487909" lon="13.60064263931169"><ele>1337.75</ele><time>2026-04-23T11:02:49Z</time></trkpt><trkpt lat="42.34952631089225" lon="13.600787900757528"><ele>1343.0</ele><time>2026-04-23T11:02:50Z</time></trkpt><trkpt lat="42.34949118444397" lon="13.600939496880683"><ele>1343.0</ele><time>2026-04-23T11:02:51.001Z</time></trkpt><trkpt lat="42.34945677490434" lon="13.601090836029945"><ele>1343.0</ele><time>2026-04-23T11:02:52.001Z</time></trkpt><trkpt lat="42.349406904497165" lon="13.601250168265432"><ele>1343.0</ele><time>2026-04-23T11:02:53.001Z</time></trkpt><trkpt lat="42.349356889620985" lon="13.601390576880906"><ele>1343.0</ele><time>2026-04-23T11:02:54.001Z</time></trkpt><trkpt lat="42.34931589289472" lon="13.601514568076336"><ele>1341.6666666666667</ele><time>2026-04-23T11:02:55.001Z</time></trkpt><trkpt lat="42.34928668704099" lon="13.60164064493032"><ele>1340.3333333333335</ele><time>2026-04-23T11:02:56.001Z</time></trkpt><trkpt lat="42.34926727836507" lon="13.601760846936312"><ele>1339.0</ele><time>2026-04-23T11:02:57.001Z</time></trkpt><trkpt lat="42.34925096235475" lon="13.601862917269537"><ele>1337.6666666666667</ele><time>2026-04-23T11:02:58.001Z</time></trkpt><trkpt lat="42.34925860972962" lon="13.601963183738432"><ele>1336.3333333333333</ele><time>2026-04-23T11:02:59.001Z</time></trkpt><trkpt lat="42.349284589450484" lon="13.602055227464495"><ele>1335.0</ele><time>2026-04-23T11:03:00.001Z</time></trkpt><trkpt lat="42.3493360012557" lon="13.602153022694461"><ele>1335.0</ele><time>2026-04-23T11:03:01.001Z</time></trkpt><trkpt lat="42.34940203984031" lon="13.602243829840374"><ele>1335.0</ele><time>2026-04-23T11:03:02.001Z</time></trkpt><trkpt lat="42.349482317543675" lon="13.602342238345866"><ele>1335.0</ele><time>2026-04-23T11:03:03.001Z</time></trkpt><trkpt lat="42.3495577810341" lon="13.602429682812723"><ele>1335.0</ele><time>2026-04-23T11:03:04.001Z</time></trkpt><trkpt lat="42.349628545721245" lon="13.60251137120783"><ele>1335.0</ele><time>2026-04-23T11:03:05.001Z</time></trkpt><trkpt lat="42.3496824298956" lon="13.602584216500208"><ele>1332.1666666666667</ele><time>2026-04-23T11:03:06.001Z</time></trkpt><trkpt lat="42.349721059960046" lon="13.60267440890988"><ele>1329.3333333333333</ele><time>2026-04-23T11:03:07.001Z</time></trkpt><trkpt lat="42.34974679461998" lon="13.602779650175613"><ele>1326.5</ele><time>2026-04-23T11:03:08.001Z</time></trkpt><trkpt lat="42.34975839408603" lon="13.602900678798868"><ele>1323.6666666666665</ele><time>2026-04-23T11:03:09.001Z</time></trkpt><trkpt lat="42.34975677693345" lon="13.603032872455437"><ele>1320.8333333333333</ele><time>2026-04-23T11:03:10Z</time></trkpt><trkpt lat="42.349769508421694" lon="13.60315329718376"><ele>1318.0</ele><time>2026-04-23T11:03:11Z</time></trkpt><trkpt lat="42.34980339274205" lon="13.603279142848786"><ele>1318.0</ele><time>2026-04-23T11:03:12Z</time></trkpt><trkpt lat="42.349862613146435" lon="13.60339076963378"><ele>1318.0</ele><time>2026-04-23T11:03:13Z</time></trkpt><trkpt lat="42.34993975818919" lon="13.603476318897687"><ele>1318.0</ele><time>2026-04-23T11:03:14Z</time></trkpt><trkpt lat="42.35003226007301" lon="13.603561880876157"><ele>1318.0</ele><time>2026-04-23T11:03:15Z</time></trkpt><trkpt lat="42.35011726781165" lon="13.603653578779829"><ele>1318.0</ele><time>2026-04-23T11:03:16Z</time></trkpt><trkpt lat="42.350202921257974" lon="13.603763392059733"><ele>1320.3333333333333</ele><time>2026-04-23T11:03:17Z</time></trkpt><trkpt lat="42.350277220780974" lon="13.603861525981735"><ele>1322.6666666666665</ele><time>2026-04-23T11:03:18Z</time></trkpt><trkpt lat="42.3503404080123" lon="13.603945075174932"><ele>1325.0</ele><time>2026-04-23T11:03:19Z</time></trkpt><trkpt lat="42.35039791821717" lon="13.604028070285898"><ele>1327.3333333333333</ele><time>2026-04-23T11:03:20Z</time></trkpt><trkpt lat="42.350443880452225" lon="13.60409730389276"><ele>1329.6666666666667</ele><time>2026-04-23T11:03:21Z</time></trkpt><trkpt lat="42.35049532369441" lon="13.604199679631344"><ele>1332.0</ele><time>2026-04-23T11:03:22Z</time></trkpt><trkpt lat="42.3505509325309" lon="13.604301658754638"><ele>1329.0</ele><time>2026-04-23T11:03:23Z</time></trkpt><trkpt lat="42.35060757879226" lon="13.604416610284186"><ele>1326.0</ele><time>2026-04-23T11:03:24Z</time></trkpt><trkpt lat="42.35066676728144" lon="13.604520194987948"><ele>1323.0</ele><time>2026-04-23T11:03:25Z</time></trkpt><trkpt lat="42.35072195073736" lon="13.604598823533673"><ele>1320.0</ele><time>2026-04-23T11:03:26Z</time></trkpt><trkpt lat="42.35076818298378" lon="13.604673736296437"><ele>1317.0</ele><time>2026-04-23T11:03:27Z</time></trkpt><trkpt lat="42.35081672336471" lon="13.60474757043082"><ele>1314.0</ele><time>2026-04-23T11:03:28Z</time></trkpt><trkpt lat="42.35087667393772" lon="13.604835886618647"><ele>1314.0</ele><time>2026-04-23T11:03:29Z</time></trkpt><trkpt lat="42.35093225225394" lon="13.604919908893724"><ele>1314.0</ele><time>2026-04-23T11:03:30Z</time></trkpt><trkpt lat="42.35097052547844" lon="13.60499929470647"><ele>1314.0</ele><time>2026-04-23T11:03:31Z</time></trkpt><trkpt lat="42.35103663492462" lon="13.6051363859499"><ele>1314.0</ele><time>2026-04-23T11:03:33Z</time></trkpt><trkpt lat="42.3511020874802" lon="13.605308333080881"><ele>1314.0</ele><time>2026-04-23T11:03:35Z</time></trkpt><trkpt lat="42.351141045276734" lon="13.605417735053727"><ele>1317.6</ele><time>2026-04-23T11:03:36Z</time></trkpt><trkpt lat="42.35117617836698" lon="13.605537991091197"><ele>1321.2</ele><time>2026-04-23T11:03:37Z</time></trkpt><trkpt lat="42.351212634041076" lon="13.6056646692214"><ele>1324.8</ele><time>2026-04-23T11:03:38Z</time></trkpt><trkpt lat="42.35124879295298" lon="13.605789463242687"><ele>1328.3999999999999</ele><time>2026-04-23T11:03:39Z</time></trkpt><trkpt lat="42.351290062237254" lon="13.60593114528369"><ele>1332.0</ele><time>2026-04-23T11:03:40Z</time></trkpt><trkpt lat="42.351334107715054" lon="13.606063348636399"><ele>1323.75</ele><time>2026-04-23T11:03:41Z</time></trkpt><trkpt lat="42.35138241210532" lon="13.606204042281638"><ele>1315.5</ele><time>2026-04-23T11:03:42Z</time></trkpt><trkpt lat="42.351431353437796" lon="13.606351921089304"><ele>1307.25</ele><time>2026-04-23T11:03:43Z</time></trkpt><trkpt lat="42.3514747021622" lon="13.606500514667315"><ele>1299.0</ele><time>2026-04-23T11:03:44Z</time></trkpt><trkpt lat="42.351528132750246" lon="13.606636564030335"><ele>1299.0</ele><time>2026-04-23T11:03:45Z</time></trkpt><trkpt lat="42.351570513716375" lon="13.606751840448343"><ele>1299.0</ele><time>2026-04-23T11:03:46Z</time></trkpt><trkpt lat="42.35160730961597" lon="13.606878069085475"><ele>1299.0</ele><time>2026-04-23T11:03:47Z</time></trkpt><trkpt lat="42.35163506162157" lon="13.607004344499021"><ele>1299.0</ele><time>2026-04-23T11:03:48Z</time></trkpt><trkpt lat="42.35165512123622" lon="13.607146234385462"><ele>1299.0</ele><time>2026-04-23T11:03:49Z</time></trkpt><trkpt lat="42.35165611378068" lon="13.607284978890727"><ele>1300.6</ele><time>2026-04-23T11:03:50Z</time></trkpt><trkpt lat="42.35165693013316" lon="13.607423373119614"><ele>1302.2</ele><time>2026-04-23T11:03:51Z</time></trkpt><trkpt lat="42.35165575565065" lon="13.60755697313464"><ele>1303.8</ele><time>2026-04-23T11:03:52Z</time></trkpt><trkpt lat="42.351644609712665" lon="13.607658112021904"><ele>1305.3999999999999</ele><time>2026-04-23T11:03:53Z</time></trkpt><trkpt lat="42.35160304650759" lon="13.607783649334458"><ele>1307.0</ele><time>2026-04-23T11:03:55Z</time></trkpt><trkpt lat="42.35150579642652" lon="13.607900837754507"><ele>1307.0</ele><time>2026-04-23T11:03:57Z</time></trkpt><trkpt lat="42.351462984117155" lon="13.607984496362324"><ele>1307.0</ele><time>2026-04-23T11:03:58Z</time></trkpt><trkpt lat="42.35144555376471" lon="13.608086186705101"><ele>1307.0</ele><time>2026-04-23T11:03:59Z</time></trkpt><trkpt lat="42.35146469859762" lon="13.608199855907827"><ele>1307.0</ele><time>2026-04-23T11:04:00Z</time></trkpt><trkpt lat="42.3514994299181" lon="13.608324619847743"><ele>1307.0</ele><time>2026-04-23T11:04:01Z</time></trkpt><trkpt lat="42.35153347620187" lon="13.608454000806384"><ele>1307.0</ele><time>2026-04-23T11:04:02Z</time></trkpt><trkpt lat="42.35156722347681" lon="13.608582979010764"><ele>1305.3333333333335</ele><time>2026-04-23T11:04:03Z</time></trkpt><trkpt lat="42.351598747468515" lon="13.608691331887108"><ele>1303.6666666666667</ele><time>2026-04-23T11:04:04Z</time></trkpt><trkpt lat="42.351620094040975" lon="13.608784771415863"><ele>1302.0</ele><time>2026-04-23T11:04:05Z</time></trkpt><trkpt lat="42.35161186981002" lon="13.608878395201756"><ele>1300.3333333333333</ele><time>2026-04-23T11:04:06Z</time></trkpt><trkpt lat="42.35159021348733" lon="13.608962353048401"><ele>1298.6666666666665</ele><time>2026-04-23T11:04:07Z</time></trkpt><trkpt lat="42.35156416587531" lon="13.609065529557022"><ele>1297.0</ele><time>2026-04-23T11:04:08Z</time></trkpt><trkpt lat="42.35152951937092" lon="13.609165693537186"><ele>1297.0</ele><time>2026-04-23T11:04:09Z</time></trkpt><trkpt lat="42.35148749350683" lon="13.609291084816812"><ele>1297.0</ele><time>2026-04-23T11:04:10Z</time></trkpt><trkpt lat="42.35144279027366" lon="13.609425222295359"><ele>1297.0</ele><time>2026-04-23T11:04:11Z</time></trkpt><trkpt lat="42.35138964414346" lon="13.609551760443207"><ele>1297.0</ele><time>2026-04-23T11:04:12Z</time></trkpt><trkpt lat="42.351322780973085" lon="13.609675399739354"><ele>1297.0</ele><time>2026-04-23T11:04:13Z</time></trkpt><trkpt lat="42.35124830065461" lon="13.609801607027855"><ele>1299.3999999999999</ele><time>2026-04-23T11:04:14Z</time></trkpt><trkpt lat="42.35119090792056" lon="13.609918980227448"><ele>1301.8</ele><time>2026-04-23T11:04:15Z</time></trkpt><trkpt lat="42.35114527693566" lon="13.610042729684988"><ele>1304.2</ele><time>2026-04-23T11:04:16Z</time></trkpt><trkpt lat="42.351105642491845" lon="13.610170184642051"><ele>1306.6</ele><time>2026-04-23T11:04:17Z</time></trkpt><trkpt lat="42.35106747417133" lon="13.610275663447997"><ele>1309.0</ele><time>2026-04-23T11:04:18Z</time></trkpt><trkpt lat="42.35101609629681" lon="13.610372943471846"><ele>1309.0</ele><time>2026-04-23T11:04:19Z</time></trkpt><trkpt lat="42.350965043203395" lon="13.610458887124235"><ele>1309.0</ele><time>2026-04-23T11:04:20Z</time></trkpt><trkpt lat="42.35091128644905" lon="13.610554499083351"><ele>1309.0</ele><time>2026-04-23T11:04:21Z</time></trkpt><trkpt lat="42.350883488505964" lon="13.610653276303022"><ele>1309.0</ele><time>2026-04-23T11:04:22Z</time></trkpt><trkpt lat="42.35088628581506" lon="13.610772022321042"><ele>1309.0</ele><time>2026-04-23T11:04:23Z</time></trkpt><trkpt lat="42.35090712618364" lon="13.610904628537691"><ele>1309.0</ele><time>2026-04-23T11:04:24Z</time></trkpt><trkpt lat="42.35092686307531" lon="13.611053876495081"><ele>1308.0</ele><time>2026-04-23T11:04:25Z</time></trkpt><trkpt lat="42.35093125371912" lon="13.61121226775213"><ele>1307.0</ele><time>2026-04-23T11:04:26Z</time></trkpt><trkpt lat="42.350934136802536" lon="13.61137728099769"><ele>1306.0</ele><time>2026-04-23T11:04:27Z</time></trkpt><trkpt lat="42.35093495905393" lon="13.611543032010518"><ele>1305.0</ele><time>2026-04-23T11:04:28Z</time></trkpt><trkpt lat="42.35088806305426" lon="13.611835104913952"><ele>1305.0</ele><time>2026-04-23T11:04:30Z</time></trkpt><trkpt lat="42.35084697572779" lon="13.611961166943319"><ele>1305.0</ele><time>2026-04-23T11:04:31Z</time></trkpt><trkpt lat="42.350785701844444" lon="13.612098445437864"><ele>1305.0</ele><time>2026-04-23T11:04:32Z</time></trkpt><trkpt lat="42.35072677319783" lon="13.612227812542429"><ele>1305.0</ele><time>2026-04-23T11:04:33Z</time></trkpt><trkpt lat="42.350675823852036" lon="13.61233263401462"><ele>1305.0</ele><time>2026-04-23T11:04:34Z</time></trkpt><trkpt lat="42.350626504682616" lon="13.612431661173973"><ele>1304.8333333333333</ele><time>2026-04-23T11:04:35Z</time></trkpt><trkpt lat="42.350604774722385" lon="13.612524502126327"><ele>1304.6666666666667</ele><time>2026-04-23T11:04:36Z</time></trkpt><trkpt lat="42.35061951179875" lon="13.61262745506712"><ele>1304.5</ele><time>2026-04-23T11:04:37Z</time></trkpt><trkpt lat="42.350678832426794" lon="13.612708229639903"><ele>1304.3333333333335</ele><time>2026-04-23T11:04:38Z</time></trkpt><trkpt lat="42.35075716654239" lon="13.612802680916039"><ele>1304.1666666666667</ele><time>2026-04-23T11:04:39Z</time></trkpt><trkpt lat="42.350825552162625" lon="13.612915635402992"><ele>1304.0</ele><time>2026-04-23T11:04:40Z</time></trkpt><trkpt lat="42.35086944143761" lon="13.613033939567403"><ele>1304.0</ele><time>2026-04-23T11:04:41Z</time></trkpt><trkpt lat="42.35089165479362" lon="13.61314958453106"><ele>1304.0</ele><time>2026-04-23T11:04:42Z</time></trkpt><trkpt lat="42.35089658334732" lon="13.613284275199687"><ele>1304.0</ele><time>2026-04-23T11:04:43Z</time></trkpt><trkpt lat="42.35089773607453" lon="13.613420739406374"><ele>1304.0</ele><time>2026-04-23T11:04:44Z</time></trkpt><trkpt lat="42.35089784050612" lon="13.613564725171079"><ele>1304.0</ele><time>2026-04-23T11:04:45Z</time></trkpt><trkpt lat="42.35090959842603" lon="13.613687149265184"><ele>1303.4</ele><time>2026-04-23T11:04:46Z</time></trkpt><trkpt lat="42.35091403444547" lon="13.613793524979593"><ele>1302.8000000000002</ele><time>2026-04-23T11:04:46.999Z</time></trkpt><trkpt lat="42.350907109974685" lon="13.61389079300595"><ele>1302.1999999999998</ele><time>2026-04-23T11:04:47.999Z</time></trkpt><trkpt lat="42.35083545416347" lon="13.613984842253512"><ele>1301.6</ele><time>2026-04-23T11:04:48.999Z</time></trkpt><trkpt lat="42.350755280415065" lon="13.614090716940987"><ele>1301.0</ele><time>2026-04-23T11:04:49.999Z</time></trkpt><trkpt lat="42.35068060733523" lon="13.614216422831545"><ele>1301.0</ele><time>2026-04-23T11:04:50.999Z</time></trkpt><trkpt lat="42.35064834099873" lon="13.614356550966587"><ele>1301.0</ele><time>2026-04-23T11:04:51.999Z</time></trkpt><trkpt lat="42.35064840704233" lon="13.61449451351525"><ele>1301.0</ele><time>2026-04-23T11:04:52.999Z</time></trkpt><trkpt lat="42.35067246082685" lon="13.614650982527001"><ele>1301.0</ele><time>2026-04-23T11:04:53.999Z</time></trkpt><trkpt lat="42.35069475553655" lon="13.614824441712203"><ele>1300.25</ele><time>2026-04-23T11:04:54.999Z</time></trkpt><trkpt lat="42.350709890353" lon="13.615001408311958"><ele>1299.5</ele><time>2026-04-23T11:04:55.999Z</time></trkpt><trkpt lat="42.35072777856589" lon="13.615179706353603"><ele>1298.75</ele><time>2026-04-23T11:04:57Z</time></trkpt><trkpt lat="42.350739969704954" lon="13.615347974445816"><ele>1298.0</ele><time>2026-04-23T11:04:58Z</time></trkpt><trkpt lat="42.350750735592385" lon="13.615508022384462"><ele>1298.0</ele><time>2026-04-23T11:04:59Z</time></trkpt><trkpt lat="42.350766264206506" lon="13.6156507226254"><ele>1298.0</ele><time>2026-04-23T11:05:00Z</time></trkpt><trkpt lat="42.350778181520006" lon="13.61578851113567"><ele>1298.0</ele><time>2026-04-23T11:05:01Z</time></trkpt><trkpt lat="42.35078808247167" lon="13.615912265956483"><ele>1298.0</ele><time>2026-04-23T11:05:02Z</time></trkpt><trkpt lat="42.35079774147546" lon="13.61602686655198"><ele>1298.0</ele><time>2026-04-23T11:05:03Z</time></trkpt><trkpt lat="42.350830372372805" lon="13.616102974534288"><ele>1300.0</ele><time>2026-04-23T11:05:04Z</time></trkpt><trkpt lat="42.3509095117845" lon="13.616160851664858"><ele>1302.0</ele><time>2026-04-23T11:05:06Z</time></trkpt><trkpt lat="42.350975966883" lon="13.616194004317855"><ele>1304.0</ele><time>2026-04-23T11:05:09Z</time></trkpt><trkpt lat="42.35097186614017" lon="13.61631096021602"><ele>1306.0</ele><time>2026-04-23T11:05:12Z</time></trkpt><trkpt lat="42.350847723848084" lon="13.616496856799333"><ele>1308.0</ele><time>2026-04-23T11:05:15Z</time></trkpt><trkpt lat="42.35080313136493" lon="13.616569698359763"><ele>1308.0</ele><time>2026-04-23T11:05:16Z</time></trkpt><trkpt lat="42.35075848774664" lon="13.616649907720626"><ele>1308.0</ele><time>2026-04-23T11:05:17Z</time></trkpt><trkpt lat="42.35070750079735" lon="13.616735960109471"><ele>1308.0</ele><time>2026-04-23T11:05:18Z</time></trkpt><trkpt lat="42.35066164743466" lon="13.616814119402491"><ele>1308.0</ele><time>2026-04-23T11:05:19Z</time></trkpt><trkpt lat="42.35060379317786" lon="13.61691737685972"><ele>1308.0</ele><time>2026-04-23T11:05:20Z</time></trkpt><trkpt lat="42.35055552821445" lon="13.617019797928492"><ele>1308.0</ele><time>2026-04-23T11:05:21Z</time></trkpt><trkpt lat="42.3505141581126" lon="13.617104492441253"><ele>1311.5</ele><time>2026-04-23T11:05:22Z</time></trkpt><trkpt lat="42.350478211757476" lon="13.617256798870853"><ele>1315.0</ele><time>2026-04-23T11:05:24Z</time></trkpt><trkpt lat="42.350479056197024" lon="13.61734295425753"><ele>1318.5</ele><time>2026-04-23T11:05:25Z</time></trkpt><trkpt lat="42.350480553167465" lon="13.61744657121334"><ele>1322.0</ele><time>2026-04-23T11:05:26Z</time></trkpt><trkpt lat="42.35046416539514" lon="13.617559442019285"><ele>1325.5</ele><time>2026-04-23T11:05:27Z</time></trkpt><trkpt lat="42.350419742982005" lon="13.61764328182557"><ele>1329.0</ele><time>2026-04-23T11:05:28Z</time></trkpt><trkpt lat="42.350382326855126" lon="13.617728692491307"><ele>1330.8333333333333</ele><time>2026-04-23T11:05:29Z</time></trkpt><trkpt lat="42.35035511768036" lon="13.617829459246282"><ele>1332.6666666666667</ele><time>2026-04-23T11:05:30Z</time></trkpt><trkpt lat="42.35032142061382" lon="13.617925268598981"><ele>1334.5</ele><time>2026-04-23T11:05:31Z</time></trkpt><trkpt lat="42.35028250130811" lon="13.617994972164594"><ele>1336.3333333333335</ele><time>2026-04-23T11:05:32Z</time></trkpt><trkpt lat="42.35023295488286" lon="13.618077263992891"><ele>1338.1666666666667</ele><time>2026-04-23T11:05:33Z</time></trkpt><trkpt lat="42.35017880157752" lon="13.618157186005224"><ele>1340.0</ele><time>2026-04-23T11:05:34Z</time></trkpt><trkpt lat="42.35013109510959" lon="13.618227706345644"><ele>1340.0</ele><time>2026-04-23T11:05:35Z</time></trkpt><trkpt lat="42.35007989761991" lon="13.618305814032114"><ele>1340.0</ele><time>2026-04-23T11:05:36Z</time></trkpt><trkpt lat="42.35005022799635" lon="13.618387066829486"><ele>1340.0</ele><time>2026-04-23T11:05:37Z</time></trkpt><trkpt lat="42.35003516415347" lon="13.618483527269149"><ele>1340.0</ele><time>2026-04-23T11:05:38Z</time></trkpt><trkpt lat="42.35003140858205" lon="13.618589759654073"><ele>1340.0</ele><time>2026-04-23T11:05:39Z</time></trkpt><trkpt lat="42.350035554821076" lon="13.618715565108472"><ele>1340.0</ele><time>2026-04-23T11:05:40Z</time></trkpt><trkpt lat="42.35005476286183" lon="13.618847319714247"><ele>1341.6</ele><time>2026-04-23T11:05:41Z</time></trkpt><trkpt lat="42.35009108716769" lon="13.618976114750469"><ele>1343.2</ele><time>2026-04-23T11:05:42Z</time></trkpt><trkpt lat="42.35014898512298" lon="13.619098221031921"><ele>1344.8000000000002</ele><time>2026-04-23T11:05:43Z</time></trkpt><trkpt lat="42.35022060069054" lon="13.619215508081783"><ele>1346.4</ele><time>2026-04-23T11:05:44Z</time></trkpt><trkpt lat="42.35029580002084" lon="13.619342089341389"><ele>1348.0</ele><time>2026-04-23T11:05:45Z</time></trkpt><trkpt lat="42.3503690154555" lon="13.619470168067268"><ele>1347.25</ele><time>2026-04-23T11:05:46Z</time></trkpt><trkpt lat="42.35047785815782" lon="13.619650840646823"><ele>1346.5</ele><time>2026-04-23T11:05:48Z</time></trkpt><trkpt lat="42.35055014325241" lon="13.619764620105181"><ele>1345.75</ele><time>2026-04-23T11:05:50Z</time></trkpt><trkpt lat="42.35061675790252" lon="13.619912890066534"><ele>1345.0</ele><time>2026-04-23T11:05:52Z</time></trkpt><trkpt lat="42.35065005804849" lon="13.619990060696777"><ele>1345.0</ele><time>2026-04-23T11:05:53Z</time></trkpt><trkpt lat="42.35071676506286" lon="13.6201398113441"><ele>1345.0</ele><time>2026-04-23T11:05:55Z</time></trkpt><trkpt lat="42.350753831972185" lon="13.620238867028155"><ele>1345.0</ele><time>2026-04-23T11:05:56Z</time></trkpt><trkpt lat="42.3507868159244" lon="13.620353735061624"><ele>1345.0</ele><time>2026-04-23T11:05:57Z</time></trkpt><trkpt lat="42.3508242417485" lon="13.620468839981044"><ele>1345.0</ele><time>2026-04-23T11:05:58Z</time></trkpt><trkpt lat="42.35086596453005" lon="13.620597279657604"><ele>1345.4</ele><time>2026-04-23T11:05:59Z</time></trkpt><trkpt lat="42.3509113960526" lon="13.620724145596805"><ele>1345.8</ele><time>2026-04-23T11:06:00Z</time></trkpt><trkpt lat="42.35095262531451" lon="13.620824410445001"><ele>1346.1999999999998</ele><time>2026-04-23T11:06:01Z</time></trkpt><trkpt lat="42.35100649996832" lon="13.620939788389586"><ele>1346.6</ele><time>2026-04-23T11:06:02Z</time></trkpt><trkpt lat="42.351060689616965" lon="13.62106594563971"><ele>1347.0</ele><time>2026-04-23T11:06:03Z</time></trkpt><trkpt lat="42.35111327293384" lon="13.621188764531253"><ele>1348.3999999999999</ele><time>2026-04-23T11:06:04Z</time></trkpt><trkpt lat="42.35116257284669" lon="13.621301303983811"><ele>1349.8</ele><time>2026-04-23T11:06:05Z</time></trkpt><trkpt lat="42.35122191628193" lon="13.621426273084051"><ele>1351.2</ele><time>2026-04-23T11:06:06Z</time></trkpt><trkpt lat="42.351290916799535" lon="13.621546523846515"><ele>1352.6</ele><time>2026-04-23T11:06:07Z</time></trkpt><trkpt lat="42.35136669359971" lon="13.621658926367544"><ele>1354.0</ele><time>2026-04-23T11:06:08Z</time></trkpt><trkpt lat="42.351449440399016" lon="13.621758594742548"><ele>1351.6666666666665</ele><time>2026-04-23T11:06:09Z</time></trkpt><trkpt lat="42.35152830617131" lon="13.621842356710262"><ele>1349.3333333333333</ele><time>2026-04-23T11:06:10Z</time></trkpt><trkpt lat="42.35160891130943" lon="13.621913597081136"><ele>1347.0</ele><time>2026-04-23T11:06:11Z</time></trkpt><trkpt lat="42.351683584197936" lon="13.621977188129929"><ele>1344.6666666666667</ele><time>2026-04-23T11:06:12Z</time></trkpt><trkpt lat="42.35174687560155" lon="13.622041016283028"><ele>1342.3333333333335</ele><time>2026-04-23T11:06:13Z</time></trkpt><trkpt lat="42.35179487402316" lon="13.622106926640233"><ele>1340.0</ele><time>2026-04-23T11:06:14Z</time></trkpt><trkpt lat="42.351837308382365" lon="13.62218935545761"><ele>1340.0</ele><time>2026-04-23T11:06:15Z</time></trkpt><trkpt lat="42.3518756074809" lon="13.62229199561599"><ele>1340.0</ele><time>2026-04-23T11:06:16Z</time></trkpt><trkpt lat="42.35191212504507" lon="13.6224049036327"><ele>1340.0</ele><time>2026-04-23T11:06:17Z</time></trkpt><trkpt lat="42.35195181625402" lon="13.62252366350212"><ele>1340.0</ele><time>2026-04-23T11:06:18Z</time></trkpt><trkpt lat="42.351990154901074" lon="13.622641199743281"><ele>1340.0</ele><time>2026-04-23T11:06:19Z</time></trkpt><trkpt lat="42.352026698141586" lon="13.622753738463116"><ele>1340.4</ele><time>2026-04-23T11:06:20Z</time></trkpt><trkpt lat="42.35205409185312" lon="13.622877801769725"><ele>1340.8</ele><time>2026-04-23T11:06:21Z</time></trkpt><trkpt lat="42.35206414438927" lon="13.623003062656107"><ele>1341.1999999999998</ele><time>2026-04-23T11:06:22Z</time></trkpt><trkpt lat="42.35206652980672" lon="13.62314275823608"><ele>1341.6</ele><time>2026-04-23T11:06:23Z</time></trkpt><trkpt lat="42.352060093231046" lon="13.623293250331098"><ele>1342.0</ele><time>2026-04-23T11:06:24Z</time></trkpt><trkpt lat="42.352057194087045" lon="13.623449018030481"><ele>1342.0</ele><time>2026-04-23T11:06:25Z</time></trkpt><trkpt lat="42.35204916184554" lon="13.62360749416308"><ele>1342.0</ele><time>2026-04-23T11:06:26Z</time></trkpt><trkpt lat="42.352027351152834" lon="13.623763995252126"><ele>1342.0</ele><time>2026-04-23T11:06:27Z</time></trkpt><trkpt lat="42.35199038545689" lon="13.623925876886581"><ele>1342.0</ele><time>2026-04-23T11:06:28Z</time></trkpt><trkpt lat="42.35194332738576" lon="13.624087020787414"><ele>1341.75</ele><time>2026-04-23T11:06:29Z</time></trkpt><trkpt lat="42.35189204234389" lon="13.624250959740303"><ele>1341.5</ele><time>2026-04-23T11:06:30Z</time></trkpt><trkpt lat="42.35184658447901" lon="13.624417963649888"><ele>1341.25</ele><time>2026-04-23T11:06:31Z</time></trkpt><trkpt lat="42.3517985667803" lon="13.624574241084497"><ele>1341.0</ele><time>2026-04-23T11:06:32Z</time></trkpt><trkpt lat="42.35175078843559" lon="13.624721148243394"><ele>1340.0</ele><time>2026-04-23T11:06:33Z</time></trkpt><trkpt lat="42.3517085739206" lon="13.624856655645239"><ele>1339.0</ele><time>2026-04-23T11:06:34Z</time></trkpt><trkpt lat="42.35166225437417" lon="13.624984790982747"><ele>1338.0</ele><time>2026-04-23T11:06:35Z</time></trkpt><trkpt lat="42.351607552503296" lon="13.625104963768328"><ele>1337.0</ele><time>2026-04-23T11:06:36Z</time></trkpt><trkpt lat="42.35157043604186" lon="13.625206552255273"><ele>1336.0</ele><time>2026-04-23T11:06:37Z</time></trkpt><trkpt lat="42.35151672235984" lon="13.625311716280457"><ele>1335.8</ele><time>2026-04-23T11:06:38Z</time></trkpt><trkpt lat="42.35145343720709" lon="13.625402778993763"><ele>1335.6</ele><time>2026-04-23T11:06:39Z</time></trkpt><trkpt lat="42.35139449231544" lon="13.62549468677089"><ele>1335.4</ele><time>2026-04-23T11:06:39.999Z</time></trkpt><trkpt lat="42.35132935818066" lon="13.62558720341306"><ele>1335.2</ele><time>2026-04-23T11:06:40.999Z</time></trkpt><trkpt lat="42.351276866731936" lon="13.625677547573446"><ele>1335.0</ele><time>2026-04-23T11:06:41.999Z</time></trkpt><trkpt lat="42.351203664305885" lon="13.625798736590097"><ele>1335.4</ele><time>2026-04-23T11:06:42.999Z</time></trkpt><trkpt lat="42.35114310654309" lon="13.625905154279211"><ele>1335.8</ele><time>2026-04-23T11:06:43.999Z</time></trkpt><trkpt lat="42.35108628670263" lon="13.626020336807887"><ele>1336.1999999999998</ele><time>2026-04-23T11:06:44.999Z</time></trkpt><trkpt lat="42.35103001759653" lon="13.626128924920222"><ele>1336.6</ele><time>2026-04-23T11:06:45.999Z</time></trkpt><trkpt lat="42.35096871310252" lon="13.62623998027595"><ele>1337.0</ele><time>2026-04-23T11:06:46.999Z</time></trkpt><trkpt lat="42.35091664296603" lon="13.626354761863782"><ele>1333.1999999999998</ele><time>2026-04-23T11:06:47.999Z</time></trkpt><trkpt lat="42.35087118349643" lon="13.626471901007635"><ele>1329.4</ele><time>2026-04-23T11:06:48.999Z</time></trkpt><trkpt lat="42.35082052454037" lon="13.626595076744342"><ele>1325.6</ele><time>2026-04-23T11:06:49.999Z</time></trkpt><trkpt lat="42.35076887893311" lon="13.626715027453358"><ele>1321.8000000000002</ele><time>2026-04-23T11:06:50.999Z</time></trkpt><trkpt lat="42.35072634484435" lon="13.62684105939438"><ele>1318.0</ele><time>2026-04-23T11:06:51.999Z</time></trkpt><trkpt lat="42.35068128484745" lon="13.626969018198027"><ele>1316.5</ele><time>2026-04-23T11:06:52.999Z</time></trkpt><trkpt lat="42.35063720910551" lon="13.627098370249378"><ele>1315.0</ele><time>2026-04-23T11:06:53.999Z</time></trkpt><trkpt lat="42.350592546548384" lon="13.627242926068972"><ele>1313.5</ele><time>2026-04-23T11:06:54.999Z</time></trkpt><trkpt lat="42.3505444755796" lon="13.627385392202346"><ele>1312.0</ele><time>2026-04-23T11:06:55.999Z</time></trkpt><trkpt lat="42.350507879136984" lon="13.627537657932615"><ele>1310.75</ele><time>2026-04-23T11:06:56.999Z</time></trkpt><trkpt lat="42.35046687682221" lon="13.627686986360871"><ele>1309.5</ele><time>2026-04-23T11:06:57.999Z</time></trkpt><trkpt lat="42.350424115308286" lon="13.627834854727906"><ele>1308.25</ele><time>2026-04-23T11:06:58.999Z</time></trkpt><trkpt lat="42.3503817838949" lon="13.627986214149198"><ele>1307.0</ele><time>2026-04-23T11:06:59.999Z</time></trkpt><trkpt lat="42.35034445440316" lon="13.628127153484899"><ele>1307.0</ele><time>2026-04-23T11:07:00.999Z</time></trkpt><trkpt lat="42.350302028565245" lon="13.628269590629058"><ele>1307.0</ele><time>2026-04-23T11:07:01.999Z</time></trkpt><trkpt lat="42.350262487992644" lon="13.628404876255427"><ele>1307.0</ele><time>2026-04-23T11:07:03Z</time></trkpt><trkpt lat="42.350219973309144" lon="13.628539886007962"><ele>1307.0</ele><time>2026-04-23T11:07:04Z</time></trkpt><trkpt lat="42.35017314593097" lon="13.62866666892261"><ele>1307.0</ele><time>2026-04-23T11:07:05Z</time></trkpt><trkpt lat="42.35012160544388" lon="13.628792071353665"><ele>1302.75</ele><time>2026-04-23T11:07:06Z</time></trkpt><trkpt lat="42.35006234495588" lon="13.628914199526525"><ele>1298.5</ele><time>2026-04-23T11:07:07Z</time></trkpt><trkpt lat="42.34999652063064" lon="13.629049275256579"><ele>1294.25</ele><time>2026-04-23T11:07:08Z</time></trkpt><trkpt lat="42.34992943617128" lon="13.629180944030155"><ele>1290.0</ele><time>2026-04-23T11:07:09Z</time></trkpt><trkpt lat="42.34986141674865" lon="13.629304639701417"><ele>1290.3333333333333</ele><time>2026-04-23T11:07:10Z</time></trkpt><trkpt lat="42.34970249191174" lon="13.629560215308032"><ele>1290.6666666666665</ele><time>2026-04-23T11:07:12Z</time></trkpt><trkpt lat="42.3496129903876" lon="13.629696319642548"><ele>1291.0</ele><time>2026-04-23T11:07:13Z</time></trkpt><trkpt lat="42.349520320946226" lon="13.629828879636408"><ele>1291.0</ele><time>2026-04-23T11:07:14Z</time></trkpt><trkpt lat="42.34942822029394" lon="13.629954836391562"><ele>1291.0</ele><time>2026-04-23T11:07:15Z</time></trkpt><trkpt lat="42.34933552989078" lon="13.630076838948204"><ele>1291.0</ele><time>2026-04-23T11:07:16Z</time></trkpt><trkpt lat="42.34925214584" lon="13.630209721211582"><ele>1291.0</ele><time>2026-04-23T11:07:17Z</time></trkpt><trkpt lat="42.34917394475216" lon="13.630355751463965"><ele>1289.25</ele><time>2026-04-23T11:07:18Z</time></trkpt><trkpt lat="42.349101478818476" lon="13.630503323262321"><ele>1287.5</ele><time>2026-04-23T11:07:19Z</time></trkpt><trkpt lat="42.34902117972465" lon="13.630650761317002"><ele>1285.75</ele><time>2026-04-23T11:07:20Z</time></trkpt><trkpt lat="42.348938374562934" lon="13.630801761020699"><ele>1284.0</ele><time>2026-04-23T11:07:21Z</time></trkpt><trkpt lat="42.348851289093346" lon="13.630952041128198"><ele>1284.0</ele><time>2026-04-23T11:07:22Z</time></trkpt><trkpt lat="42.34875197000788" lon="13.631082638219606"><ele>1284.0</ele><time>2026-04-23T11:07:23Z</time></trkpt><trkpt lat="42.34867098971185" lon="13.631217722483443"><ele>1284.0</ele><time>2026-04-23T11:07:24Z</time></trkpt><trkpt lat="42.3485952686552" lon="13.631344033736884"><ele>1284.0</ele><time>2026-04-23T11:07:25Z</time></trkpt><trkpt lat="42.34851824307898" lon="13.63146821051376"><ele>1279.8</ele><time>2026-04-23T11:07:26Z</time></trkpt><trkpt lat="42.34845763504495" lon="13.631587411590939"><ele>1275.6000000000001</ele><time>2026-04-23T11:07:27Z</time></trkpt><trkpt lat="42.348376601086045" lon="13.63167326269802"><ele>1271.4</ele><time>2026-04-23T11:07:28Z</time></trkpt><trkpt lat="42.348298163561644" lon="13.631737296376638"><ele>1267.2</ele><time>2026-04-23T11:07:29Z</time></trkpt><trkpt lat="42.34821486559201" lon="13.631736663015555"><ele>1263.0</ele><time>2026-04-23T11:07:30Z</time></trkpt><trkpt lat="42.34814003925531" lon="13.631735707382639"><ele>1263.0</ele><time>2026-04-23T11:07:31Z</time></trkpt><trkpt lat="42.34806202381357" lon="13.631699980958922"><ele>1263.0</ele><time>2026-04-23T11:07:32Z</time></trkpt><trkpt lat="42.34797777106487" lon="13.631643625188593"><ele>1263.0</ele><time>2026-04-23T11:07:33Z</time></trkpt><trkpt lat="42.34786610463011" lon="13.631572282312382"><ele>1263.0</ele><time>2026-04-23T11:07:34Z</time></trkpt><trkpt lat="42.34776978111038" lon="13.631511375557379"><ele>1263.0</ele><time>2026-04-23T11:07:35Z</time></trkpt><trkpt lat="42.347681816981016" lon="13.631460956465249"><ele>1263.8</ele><time>2026-04-23T11:07:36Z</time></trkpt><trkpt lat="42.34759639153053" lon="13.63142716005435"><ele>1264.6</ele><time>2026-04-23T11:07:37Z</time></trkpt><trkpt lat="42.34750933430248" lon="13.631446067166834"><ele>1265.4</ele><time>2026-04-23T11:07:38Z</time></trkpt><trkpt lat="42.34743188552531" lon="13.631501190756817"><ele>1266.2</ele><time>2026-04-23T11:07:39Z</time></trkpt><trkpt lat="42.34738339132167" lon="13.631621008016046"><ele>1267.0</ele><time>2026-04-23T11:07:40Z</time></trkpt><trkpt lat="42.347336747026496" lon="13.631729318618968"><ele>1267.0</ele><time>2026-04-23T11:07:41Z</time></trkpt><trkpt lat="42.34729942729573" lon="13.631852103188322"><ele>1267.0</ele><time>2026-04-23T11:07:42Z</time></trkpt><trkpt lat="42.34726870864393" lon="13.63198374088063"><ele>1267.0</ele><time>2026-04-23T11:07:43Z</time></trkpt><trkpt lat="42.34726574640939" lon="13.632120330408686"><ele>1267.0</ele><time>2026-04-23T11:07:44Z</time></trkpt><trkpt lat="42.3472760145799" lon="13.632253468346653"><ele>1267.0</ele><time>2026-04-23T11:07:45Z</time></trkpt><trkpt lat="42.347299020496756" lon="13.632385489506559"><ele>1265.0</ele><time>2026-04-23T11:07:46Z</time></trkpt><trkpt lat="42.3473218821122" lon="13.632521857951808"><ele>1263.0</ele><time>2026-04-23T11:07:47Z</time></trkpt><trkpt lat="42.34732129131459" lon="13.63265579506891"><ele>1261.0</ele><time>2026-04-23T11:07:48Z</time></trkpt><trkpt lat="42.34731482326388" lon="13.63277511360983"><ele>1259.0</ele><time>2026-04-23T11:07:49Z</time></trkpt><trkpt lat="42.34729209492854" lon="13.632897962399051"><ele>1257.0</ele><time>2026-04-23T11:07:50Z</time></trkpt><trkpt lat="42.34724083484272" lon="13.633012757489883"><ele>1258.8</ele><time>2026-04-23T11:07:51Z</time></trkpt><trkpt lat="42.34719384516688" lon="13.633146029143454"><ele>1260.6</ele><time>2026-04-23T11:07:52Z</time></trkpt><trkpt lat="42.34715511504697" lon="13.633272429364805"><ele>1262.3999999999999</ele><time>2026-04-23T11:07:53Z</time></trkpt><trkpt lat="42.34714481978657" lon="13.633404289904705"><ele>1264.2</ele><time>2026-04-23T11:07:54Z</time></trkpt><trkpt lat="42.34713934224486" lon="13.633531676624571"><ele>1266.0</ele><time>2026-04-23T11:07:55Z</time></trkpt><trkpt lat="42.347107558911375" lon="13.633674657006834"><ele>1266.0</ele><time>2026-04-23T11:07:56Z</time></trkpt><trkpt lat="42.3470837511652" lon="13.633821411607826"><ele>1266.0</ele><time>2026-04-23T11:07:57Z</time></trkpt><trkpt lat="42.34705351559432" lon="13.633959080131781"><ele>1266.0</ele><time>2026-04-23T11:07:58Z</time></trkpt><trkpt lat="42.347018918936506" lon="13.63409715690178"><ele>1266.0</ele><time>2026-04-23T11:07:59Z</time></trkpt><trkpt lat="42.34696586313824" lon="13.634219653577114"><ele>1266.0</ele><time>2026-04-23T11:08:00Z</time></trkpt><trkpt lat="42.34691012105746" lon="13.634342287438892"><ele>1266.0</ele><time>2026-04-23T11:08:01Z</time></trkpt><trkpt lat="42.346853799475056" lon="13.634456850327561"><ele>1266.0</ele><time>2026-04-23T11:08:02Z</time></trkpt><trkpt lat="42.34680440757645" lon="13.634547433147281"><ele>1266.0</ele><time>2026-04-23T11:08:03Z</time></trkpt><trkpt lat="42.346776848189215" lon="13.634659782613424"><ele>1266.0</ele><time>2026-04-23T11:08:04Z</time></trkpt><trkpt lat="42.34674429959956" lon="13.634771539874107"><ele>1266.0</ele><time>2026-04-23T11:08:05Z</time></trkpt><trkpt lat="42.34673793484412" lon="13.634891590308019"><ele>1262.75</ele><time>2026-04-23T11:08:06Z</time></trkpt><trkpt lat="42.34672015425205" lon="13.635040383748082"><ele>1259.5</ele><time>2026-04-23T11:08:07Z</time></trkpt><trkpt lat="42.34670219447246" lon="13.635198959485791"><ele>1256.25</ele><time>2026-04-23T11:08:08Z</time></trkpt><trkpt lat="42.346682843308734" lon="13.635365755767442"><ele>1253.0</ele><time>2026-04-23T11:08:09Z</time></trkpt><trkpt lat="42.34665984596374" lon="13.635509810783859"><ele>1250.5</ele><time>2026-04-23T11:08:10Z</time></trkpt><trkpt lat="42.346646497180146" lon="13.635660479336117"><ele>1248.0</ele><time>2026-04-23T11:08:11Z</time></trkpt><trkpt lat="42.34664507257407" lon="13.635813602439645"><ele>1245.5</ele><time>2026-04-23T11:08:12Z</time></trkpt><trkpt lat="42.34665637615898" lon="13.635972723738288"><ele>1243.0</ele><time>2026-04-23T11:08:13Z</time></trkpt><trkpt lat="42.34666011837323" lon="13.636144763605566"><ele>1242.75</ele><time>2026-04-23T11:08:14Z</time></trkpt><trkpt lat="42.346663565880995" lon="13.636303563772515"><ele>1242.5</ele><time>2026-04-23T11:08:15Z</time></trkpt><trkpt lat="42.34667627642646" lon="13.636463255702166"><ele>1242.25</ele><time>2026-04-23T11:08:16Z</time></trkpt><trkpt lat="42.346698865638245" lon="13.636622601024111"><ele>1242.0</ele><time>2026-04-23T11:08:17Z</time></trkpt><trkpt lat="42.3467212117597" lon="13.636783896295563"><ele>1242.0</ele><time>2026-04-23T11:08:18Z</time></trkpt><trkpt lat="42.34674982573576" lon="13.636939977562264"><ele>1242.0</ele><time>2026-04-23T11:08:19Z</time></trkpt><trkpt lat="42.34677907264497" lon="13.637083106914647"><ele>1242.0</ele><time>2026-04-23T11:08:20Z</time></trkpt><trkpt lat="42.346799046158786" lon="13.637211670074642"><ele>1242.0</ele><time>2026-04-23T11:08:21Z</time></trkpt><trkpt lat="42.34682432773133" lon="13.637349148064168"><ele>1242.0</ele><time>2026-04-23T11:08:22Z</time></trkpt><trkpt lat="42.34684443831548" lon="13.6374817075627"><ele>1242.0</ele><time>2026-04-23T11:08:23Z</time></trkpt><trkpt lat="42.346887388627835" lon="13.637607907819708"><ele>1242.0</ele><time>2026-04-23T11:08:24Z</time></trkpt><trkpt lat="42.346917455874994" lon="13.637730107138445"><ele>1242.0</ele><time>2026-04-23T11:08:25Z</time></trkpt><trkpt lat="42.34694883165952" lon="13.637832883193607"><ele>1242.0</ele><time>2026-04-23T11:08:26Z</time></trkpt><trkpt lat="42.34697345665656" lon="13.637923773919544"><ele>1242.0</ele><time>2026-04-23T11:08:27Z</time></trkpt><trkpt lat="42.34700922490307" lon="13.638008317951849"><ele>1242.0</ele><time>2026-04-23T11:08:28Z</time></trkpt><trkpt lat="42.34703023248078" lon="13.638102657683332"><ele>1240.4</ele><time>2026-04-23T11:08:29Z</time></trkpt><trkpt lat="42.347081617552654" lon="13.638247175212916"><ele>1238.8000000000002</ele><time>2026-04-23T11:08:31Z</time></trkpt><trkpt lat="42.3471173969134" lon="13.638327248685625"><ele>1237.2</ele><time>2026-04-23T11:08:31.999Z</time></trkpt><trkpt lat="42.347157142029886" lon="13.638432907241913"><ele>1235.6000000000001</ele><time>2026-04-23T11:08:32.999Z</time></trkpt><trkpt lat="42.34718583909507" lon="13.638568877586204"><ele>1234.0</ele><time>2026-04-23T11:08:33.999Z</time></trkpt><trkpt lat="42.34720509092434" lon="13.638707740629895"><ele>1232.0</ele><time>2026-04-23T11:08:34.999Z</time></trkpt><trkpt lat="42.34722185730123" lon="13.638866700020362"><ele>1230.0</ele><time>2026-04-23T11:08:35.999Z</time></trkpt><trkpt lat="42.34724267406606" lon="13.639033745429744"><ele>1228.0</ele><time>2026-04-23T11:08:36.999Z</time></trkpt><trkpt lat="42.34726040272659" lon="13.639211408975115"><ele>1226.0</ele><time>2026-04-23T11:08:37.999Z</time></trkpt><trkpt lat="42.347282488025265" lon="13.63938088532039"><ele>1225.75</ele><time>2026-04-23T11:08:38.999Z</time></trkpt><trkpt lat="42.347297744308214" lon="13.63954499021546"><ele>1225.5</ele><time>2026-04-23T11:08:39.999Z</time></trkpt><trkpt lat="42.347296445418884" lon="13.639715565572862"><ele>1225.25</ele><time>2026-04-23T11:08:40.999Z</time></trkpt><trkpt lat="42.34727547938938" lon="13.639898157963387"><ele>1225.0</ele><time>2026-04-23T11:08:41.999Z</time></trkpt><trkpt lat="42.3472467921023" lon="13.640088852220876"><ele>1225.0</ele><time>2026-04-23T11:08:42.999Z</time></trkpt><trkpt lat="42.347219754836" lon="13.640297131788403"><ele>1225.0</ele><time>2026-04-23T11:08:43.999Z</time></trkpt><trkpt lat="42.347195373026665" lon="13.640510163956126"><ele>1225.0</ele><time>2026-04-23T11:08:44.999Z</time></trkpt><trkpt lat="42.347172784883995" lon="13.640725545286317"><ele>1225.6666666666665</ele><time>2026-04-23T11:08:45.999Z</time></trkpt><trkpt lat="42.347148471308" lon="13.64094294697193"><ele>1226.3333333333333</ele><time>2026-04-23T11:08:46.999Z</time></trkpt><trkpt lat="42.34712337737284" lon="13.641166018991802"><ele>1227.0</ele><time>2026-04-23T11:08:47.999Z</time></trkpt><trkpt lat="42.347097156364875" lon="13.641389079799707"><ele>1225.6666666666667</ele><time>2026-04-23T11:08:48.999Z</time></trkpt><trkpt lat="42.34706242945805" lon="13.64160063109099"><ele>1224.3333333333335</ele><time>2026-04-23T11:08:49.999Z</time></trkpt><trkpt lat="42.3470322657722" lon="13.64182493244577"><ele>1223.0</ele><time>2026-04-23T11:08:50.999Z</time></trkpt><trkpt lat="42.3470021167705" lon="13.642043137285961"><ele>1222.3333333333335</ele><time>2026-04-23T11:08:51.999Z</time></trkpt><trkpt lat="42.34698249438712" lon="13.642267997719513"><ele>1221.6666666666667</ele><time>2026-04-23T11:08:52.999Z</time></trkpt><trkpt lat="42.346950315213675" lon="13.642486489381714"><ele>1221.0</ele><time>2026-04-23T11:08:53.999Z</time></trkpt><trkpt lat="42.34691623791106" lon="13.642714504930158"><ele>1221.3333333333333</ele><time>2026-04-23T11:08:54.999Z</time></trkpt><trkpt lat="42.34688645755804" lon="13.642939016717499"><ele>1221.6666666666665</ele><time>2026-04-23T11:08:55.999Z</time></trkpt><trkpt lat="42.346851821212816" lon="13.643164747589864"><ele>1222.0</ele><time>2026-04-23T11:08:56.999Z</time></trkpt><trkpt lat="42.34681297739744" lon="13.643389000528904"><ele>1222.0</ele><time>2026-04-23T11:08:57.999Z</time></trkpt><trkpt lat="42.346780022242555" lon="13.643602843685715"><ele>1222.0</ele><time>2026-04-23T11:08:58.999Z</time></trkpt><trkpt lat="42.34675215070951" lon="13.643802661905687"><ele>1222.0</ele><time>2026-04-23T11:08:59.999Z</time></trkpt><trkpt lat="42.34673251472105" lon="13.643985076004839"><ele>1222.0</ele><time>2026-04-23T11:09:00.999Z</time></trkpt><trkpt lat="42.34670416447401" lon="13.644144649085334"><ele>1222.0</ele><time>2026-04-23T11:09:01.999Z</time></trkpt><trkpt lat="42.346658189723115" lon="13.644269999567332"><ele>1222.0</ele><time>2026-04-23T11:09:02.999Z</time></trkpt><trkpt lat="42.34659483224576" lon="13.644360400492332"><ele>1222.0</ele><time>2026-04-23T11:09:03.999Z</time></trkpt><trkpt lat="42.34651953272973" lon="13.644426407975724"><ele>1222.0</ele><time>2026-04-23T11:09:04.999Z</time></trkpt><trkpt lat="42.34641599673141" lon="13.644442947136126"><ele>1222.0</ele><time>2026-04-23T11:09:05.999Z</time></trkpt><trkpt lat="42.34632873947348" lon="13.644522816017266"><ele>1222.4</ele><time>2026-04-23T11:09:06.999Z</time></trkpt><trkpt lat="42.34625469173938" lon="13.64462834585769"><ele>1222.8000000000002</ele><time>2026-04-23T11:09:07.999Z</time></trkpt><trkpt lat="42.346169267645045" lon="13.644730657042496"><ele>1223.2</ele><time>2026-04-23T11:09:09Z</time></trkpt><trkpt lat="42.34608675752313" lon="13.644836938056748"><ele>1223.6000000000001</ele><time>2026-04-23T11:09:10Z</time></trkpt><trkpt lat="42.34600741853196" lon="13.644929429655988"><ele>1224.0</ele><time>2026-04-23T11:09:11Z</time></trkpt><trkpt lat="42.345931074991974" lon="13.645016229438037"><ele>1224.0</ele><time>2026-04-23T11:09:12Z</time></trkpt><trkpt lat="42.345854926200005" lon="13.645097334464271"><ele>1224.0</ele><time>2026-04-23T11:09:13Z</time></trkpt><trkpt lat="42.34578494544559" lon="13.645179728924383"><ele>1224.0</ele><time>2026-04-23T11:09:14Z</time></trkpt><trkpt lat="42.34571931453324" lon="13.645261444484499"><ele>1224.0</ele><time>2026-04-23T11:09:15Z</time></trkpt><trkpt lat="42.34566159954878" lon="13.64533536368959"><ele>1224.0</ele><time>2026-04-23T11:09:16Z</time></trkpt><trkpt lat="42.345615936876236" lon="13.645396040039978"><ele>1224.0</ele><time>2026-04-23T11:09:17Z</time></trkpt><trkpt lat="42.345515914927795" lon="13.645445894594436"><ele>1224.857142857143</ele><time>2026-04-23T11:09:19Z</time></trkpt><trkpt lat="42.345451294691735" lon="13.645417482048703"><ele>1225.7142857142858</ele><time>2026-04-23T11:09:20Z</time></trkpt><trkpt lat="42.34538314328409" lon="13.645401790675475"><ele>1226.5714285714284</ele><time>2026-04-23T11:09:21Z</time></trkpt><trkpt lat="42.34530852342996" lon="13.645389934159107"><ele>1227.4285714285716</ele><time>2026-04-23T11:09:22Z</time></trkpt><trkpt lat="42.34523684358117" lon="13.645382825414352"><ele>1228.2857142857144</ele><time>2026-04-23T11:09:23Z</time></trkpt><trkpt lat="42.34516787577572" lon="13.64537598562102"><ele>1229.142857142857</ele><time>2026-04-23T11:09:24Z</time></trkpt><trkpt lat="42.34509898087228" lon="13.64539384488394"><ele>1230.0</ele><time>2026-04-23T11:09:25Z</time></trkpt><trkpt lat="42.34503214820806" lon="13.64537427007402"><ele>1230.0</ele><time>2026-04-23T11:09:26Z</time></trkpt><trkpt lat="42.344965565166234" lon="13.645377738415613"><ele>1230.0</ele><time>2026-04-23T11:09:27Z</time></trkpt><trkpt lat="42.3448689295411" lon="13.645402308806021"><ele>1230.0</ele><time>2026-04-23T11:09:29Z</time></trkpt><trkpt lat="42.34492698628768" lon="13.645545053374953"><ele>1230.0</ele><time>2026-04-23T11:09:34Z</time></trkpt><trkpt lat="42.34499299008601" lon="13.645546447291446"><ele>1230.0</ele><time>2026-04-23T11:09:34.999Z</time></trkpt><trkpt lat="42.34506724221343" lon="13.64562121449109"><ele>1230.0</ele><time>2026-04-23T11:09:36.999Z</time></trkpt><trkpt lat="42.345102651838694" lon="13.645692987786715"><ele>1230.0</ele><time>2026-04-23T11:09:37.999Z</time></trkpt><trkpt lat="42.34513608744152" lon="13.64577145984563"><ele>1230.0</ele><time>2026-04-23T11:09:38.999Z</time></trkpt><trkpt lat="42.34517136632555" lon="13.645852121275112"><ele>1230.0</ele><time>2026-04-23T11:09:39.999Z</time></trkpt><trkpt lat="42.345212548237676" lon="13.64595296083992"><ele>1230.0</ele><time>2026-04-23T11:09:40.999Z</time></trkpt><trkpt lat="42.34525839039079" lon="13.646069295019663"><ele>1230.0</ele><time>2026-04-23T11:09:41.999Z</time></trkpt><trkpt lat="42.34530904041726" lon="13.646192155454244"><ele>1230.0</ele><time>2026-04-23T11:09:42.999Z</time></trkpt><trkpt lat="42.345363029630796" lon="13.646317144502538"><ele>1229.75</ele><time>2026-04-23T11:09:43.999Z</time></trkpt><trkpt lat="42.34542383348987" lon="13.646460315989977"><ele>1229.5</ele><time>2026-04-23T11:09:44.999Z</time></trkpt><trkpt lat="42.345489035482984" lon="13.646616444340125"><ele>1229.25</ele><time>2026-04-23T11:09:45.999Z</time></trkpt><trkpt lat="42.34555646102184" lon="13.646783385125318"><ele>1229.0</ele><time>2026-04-23T11:09:46.999Z</time></trkpt><trkpt lat="42.345626806971865" lon="13.646957623487094"><ele>1232.25</ele><time>2026-04-23T11:09:47.999Z</time></trkpt><trkpt lat="42.34569765087438" lon="13.64712536428248"><ele>1235.5</ele><time>2026-04-23T11:09:48.999Z</time></trkpt><trkpt lat="42.3457721237245" lon="13.647302124165538"><ele>1238.75</ele><time>2026-04-23T11:09:49.999Z</time></trkpt><trkpt lat="42.34584700589235" lon="13.647485789608776"><ele>1242.0</ele><time>2026-04-23T11:09:50.999Z</time></trkpt><trkpt lat="42.34592492258107" lon="13.647675057719399"><ele>1244.3333333333333</ele><time>2026-04-23T11:09:51.999Z</time></trkpt><trkpt lat="42.346005494217195" lon="13.647863223442155"><ele>1246.6666666666665</ele><time>2026-04-23T11:09:52.999Z</time></trkpt><trkpt lat="42.34608753546349" lon="13.648058408920189"><ele>1249.0</ele><time>2026-04-23T11:09:53.999Z</time></trkpt><trkpt lat="42.34616790578205" lon="13.648258289317038"><ele>1249.0</ele><time>2026-04-23T11:09:54.999Z</time></trkpt><trkpt lat="42.346247682526695" lon="13.648469088807007"><ele>1249.0</ele><time>2026-04-23T11:09:55.999Z</time></trkpt><trkpt lat="42.34632360597658" lon="13.648689677983699"><ele>1249.0</ele><time>2026-04-23T11:09:56.999Z</time></trkpt><trkpt lat="42.34639298121979" lon="13.648902966483028"><ele>1248.3333333333333</ele><time>2026-04-23T11:09:57.999Z</time></trkpt><trkpt lat="42.34645716271249" lon="13.649128486492978"><ele>1247.6666666666667</ele><time>2026-04-23T11:09:58.999Z</time></trkpt><trkpt lat="42.346500075017424" lon="13.649354401727493"><ele>1247.0</ele><time>2026-04-23T11:09:59.999Z</time></trkpt><trkpt lat="42.34652116091275" lon="13.649566793436088"><ele>1247.0</ele><time>2026-04-23T11:10:00.999Z</time></trkpt><trkpt lat="42.346512194418324" lon="13.649773973867447"><ele>1247.0</ele><time>2026-04-23T11:10:01.999Z</time></trkpt><trkpt lat="42.3464750442997" lon="13.649975727647945"><ele>1247.0</ele><time>2026-04-23T11:10:02.999Z</time></trkpt><trkpt lat="42.34641255532428" lon="13.650172428903554"><ele>1255.0</ele><time>2026-04-23T11:10:03.999Z</time></trkpt><trkpt lat="42.34632772535033" lon="13.650353232769135"><ele>1263.0</ele><time>2026-04-23T11:10:04.999Z</time></trkpt><trkpt lat="42.3463070444341" lon="13.650540149306655"><ele>1271.0</ele><time>2026-04-23T11:10:05.999Z</time></trkpt><trkpt lat="42.34631217875331" lon="13.650730254555803"><ele>1279.0</ele><time>2026-04-23T11:10:06.999Z</time></trkpt><trkpt lat="42.34634848556109" lon="13.650929020253825"><ele>1272.3333333333333</ele><time>2026-04-23T11:10:07.999Z</time></trkpt><trkpt lat="42.34639767232547" lon="13.65112718306015"><ele>1265.6666666666667</ele><time>2026-04-23T11:10:08.999Z</time></trkpt><trkpt lat="42.346445756652095" lon="13.651333564213278"><ele>1259.0</ele><time>2026-04-23T11:10:09.999Z</time></trkpt><trkpt lat="42.34648711583593" lon="13.65154697681643"><ele>1259.0</ele><time>2026-04-23T11:10:10.999Z</time></trkpt><trkpt lat="42.34651123297586" lon="13.651772728632837"><ele>1259.0</ele><time>2026-04-23T11:10:11.999Z</time></trkpt><trkpt lat="42.346516349052315" lon="13.652004626018009"><ele>1259.0</ele><time>2026-04-23T11:10:12.999Z</time></trkpt><trkpt lat="42.34650667221908" lon="13.652227949922203"><ele>1261.6666666666667</ele><time>2026-04-23T11:10:13.999Z</time></trkpt><trkpt lat="42.34650473786859" lon="13.652454203336509"><ele>1264.3333333333333</ele><time>2026-04-23T11:10:14.999Z</time></trkpt><trkpt lat="42.34651631495683" lon="13.652673853705592"><ele>1267.0</ele><time>2026-04-23T11:10:15.999Z</time></trkpt><trkpt lat="42.34653807994181" lon="13.652877590699557"><ele>1268.0</ele><time>2026-04-23T11:10:16.999Z</time></trkpt><trkpt lat="42.34657060568283" lon="13.653061898416937"><ele>1269.0</ele><time>2026-04-23T11:10:17.999Z</time></trkpt><trkpt lat="42.34661005374554" lon="13.653219767779527"><ele>1270.0</ele><time>2026-04-23T11:10:18.999Z</time></trkpt><trkpt lat="42.3466531299814" lon="13.653351190846807"><ele>1271.0</ele><time>2026-04-23T11:10:19.999Z</time></trkpt><trkpt lat="42.34669882722895" lon="13.653475257291662"><ele>1271.0</ele><time>2026-04-23T11:10:20.999Z</time></trkpt><trkpt lat="42.3467443433581" lon="13.653608438851741"><ele>1271.0</ele><time>2026-04-23T11:10:21.999Z</time></trkpt><trkpt lat="42.34679294558026" lon="13.653754097250342"><ele>1271.0</ele><time>2026-04-23T11:10:22.999Z</time></trkpt><trkpt lat="42.34683672800743" lon="13.653904334931674"><ele>1271.0</ele><time>2026-04-23T11:10:23.999Z</time></trkpt><trkpt lat="42.34687123520842" lon="13.65404103329047"><ele>1271.3999999999999</ele><time>2026-04-23T11:10:24.999Z</time></trkpt><trkpt lat="42.34688585802237" lon="13.654188977431645"><ele>1271.8</ele><time>2026-04-23T11:10:25.999Z</time></trkpt><trkpt lat="42.346838244732076" lon="13.654318142790647"><ele>1272.1999999999998</ele><time>2026-04-23T11:10:26.999Z</time></trkpt><trkpt lat="42.34677165907684" lon="13.654427984402089"><ele>1272.6</ele><time>2026-04-23T11:10:27.999Z</time></trkpt><trkpt lat="42.34667836063791" lon="13.654524933201664"><ele>1273.0</ele><time>2026-04-23T11:10:28.999Z</time></trkpt><trkpt lat="42.34658109825024" lon="13.654656609584382"><ele>1276.25</ele><time>2026-04-23T11:10:29.999Z</time></trkpt><trkpt lat="42.346489076814954" lon="13.654808026053365"><ele>1279.5</ele><time>2026-04-23T11:10:30.999Z</time></trkpt><trkpt lat="42.34638498936577" lon="13.654950402796844"><ele>1282.75</ele><time>2026-04-23T11:10:31.999Z</time></trkpt><trkpt lat="42.34628954465596" lon="13.655089392401662"><ele>1286.0</ele><time>2026-04-23T11:10:32.999Z</time></trkpt><trkpt lat="42.34620164750823" lon="13.655240516820866"><ele>1282.75</ele><time>2026-04-23T11:10:33.999Z</time></trkpt><trkpt lat="42.34611686250592" lon="13.65539814595808"><ele>1279.5</ele><time>2026-04-23T11:10:34.999Z</time></trkpt><trkpt lat="42.34603513840336" lon="13.655563063158011"><ele>1276.25</ele><time>2026-04-23T11:10:35.999Z</time></trkpt><trkpt lat="42.34595338904143" lon="13.655737372518677"><ele>1273.0</ele><time>2026-04-23T11:10:36.999Z</time></trkpt><trkpt lat="42.345879216498474" lon="13.655921534857303"><ele>1273.0</ele><time>2026-04-23T11:10:37.999Z</time></trkpt><trkpt lat="42.34581132202396" lon="13.656114040155343"><ele>1273.0</ele><time>2026-04-23T11:10:38.999Z</time></trkpt><trkpt lat="42.34575206152115" lon="13.656305596783973"><ele>1273.0</ele><time>2026-04-23T11:10:39.999Z</time></trkpt><trkpt lat="42.345697710268425" lon="13.65649789982223"><ele>1277.3333333333333</ele><time>2026-04-23T11:10:40.999Z</time></trkpt><trkpt lat="42.34564965888341" lon="13.656699160083628"><ele>1281.6666666666667</ele><time>2026-04-23T11:10:41.999Z</time></trkpt><trkpt lat="42.345615347935876" lon="13.656908642174416"><ele>1286.0</ele><time>2026-04-23T11:10:42.999Z</time></trkpt><trkpt lat="42.34559397529472" lon="13.657122156527748"><ele>1287.0</ele><time>2026-04-23T11:10:43.999Z</time></trkpt><trkpt lat="42.34559032256487" lon="13.657333764860356"><ele>1288.0</ele><time>2026-04-23T11:10:44.999Z</time></trkpt><trkpt lat="42.34560342784319" lon="13.657533400891047"><ele>1289.0</ele><time>2026-04-23T11:10:45.999Z</time></trkpt><trkpt lat="42.34563282302767" lon="13.657702391938281"><ele>1290.0</ele><time>2026-04-23T11:10:46.999Z</time></trkpt><trkpt lat="42.34567577173997" lon="13.657836431002908"><ele>1290.2</ele><time>2026-04-23T11:10:47.999Z</time></trkpt><trkpt lat="42.34574070572768" lon="13.657933279573816"><ele>1290.4</ele><time>2026-04-23T11:10:48.999Z</time></trkpt><trkpt lat="42.34582972865975" lon="13.658018722691587"><ele>1290.6</ele><time>2026-04-23T11:10:49.999Z</time></trkpt><trkpt lat="42.34592198680043" lon="13.658096820716747"><ele>1290.8</ele><time>2026-04-23T11:10:50.999Z</time></trkpt><trkpt lat="42.34599415457198" lon="13.65820476731652"><ele>1291.0</ele><time>2026-04-23T11:10:51.999Z</time></trkpt><trkpt lat="42.346034648497934" lon="13.658346655164905"><ele>1291.0</ele><time>2026-04-23T11:10:52.999Z</time></trkpt><trkpt lat="42.34603182685806" lon="13.658490634653054"><ele>1291.0</ele><time>2026-04-23T11:10:53.999Z</time></trkpt><trkpt lat="42.34597048316745" lon="13.658619632885822"><ele>1291.0</ele><time>2026-04-23T11:10:54.999Z</time></trkpt><trkpt lat="42.3459274469827" lon="13.658772278032867"><ele>1291.0</ele><time>2026-04-23T11:10:55.999Z</time></trkpt><trkpt lat="42.34588959428061" lon="13.658946122025693"><ele>1294.25</ele><time>2026-04-23T11:10:56.999Z</time></trkpt><trkpt lat="42.34583314463779" lon="13.659122855232594"><ele>1297.5</ele><time>2026-04-23T11:10:57.999Z</time></trkpt><trkpt lat="42.34577346248788" lon="13.659311129454512"><ele>1300.75</ele><time>2026-04-23T11:10:58.999Z</time></trkpt><trkpt lat="42.3457200846967" lon="13.65949778576223"><ele>1304.0</ele><time>2026-04-23T11:10:59.999Z</time></trkpt><trkpt lat="42.3456615368623" lon="13.659686559587415"><ele>1299.6666666666667</ele><time>2026-04-23T11:11:00.999Z</time></trkpt><trkpt lat="42.34559434835316" lon="13.659866652941743"><ele>1295.3333333333333</ele><time>2026-04-23T11:11:01.999Z</time></trkpt><trkpt lat="42.345510455959875" lon="13.66004909607859"><ele>1291.0</ele><time>2026-04-23T11:11:02.999Z</time></trkpt><trkpt lat="42.34541668284139" lon="13.6602208966405"><ele>1296.3333333333333</ele><time>2026-04-23T11:11:03.999Z</time></trkpt><trkpt lat="42.345314800883195" lon="13.66038949192326"><ele>1301.6666666666667</ele><time>2026-04-23T11:11:04.999Z</time></trkpt><trkpt lat="42.34521145616658" lon="13.660553123350754"><ele>1307.0</ele><time>2026-04-23T11:11:05.998Z</time></trkpt><trkpt lat="42.34510196843423" lon="13.660704045074917"><ele>1307.0</ele><time>2026-04-23T11:11:06.998Z</time></trkpt><trkpt lat="42.34500131431016" lon="13.660845845554746"><ele>1307.0</ele><time>2026-04-23T11:11:07.998Z</time></trkpt><trkpt lat="42.344923688444446" lon="13.661007200639126"><ele>1307.0</ele><time>2026-04-23T11:11:08.998Z</time></trkpt><trkpt lat="42.344868180486024" lon="13.66119254890061"><ele>1307.0</ele><time>2026-04-23T11:11:09.998Z</time></trkpt><trkpt lat="42.34482447115472" lon="13.661386320037813"><ele>1304.5</ele><time>2026-04-23T11:11:10.998Z</time></trkpt><trkpt lat="42.344774345953105" lon="13.661580013234936"><ele>1302.0</ele><time>2026-04-23T11:11:11.998Z</time></trkpt><trkpt lat="42.344702745997985" lon="13.661755912870714"><ele>1299.5</ele><time>2026-04-23T11:11:12.998Z</time></trkpt><trkpt lat="42.3446539468745" lon="13.661922334727857"><ele>1297.0</ele><time>2026-04-23T11:11:13.998Z</time></trkpt><trkpt lat="42.34463363676543" lon="13.662052140983123"><ele>1297.0</ele><time>2026-04-23T11:11:14.999Z</time></trkpt><trkpt lat="42.344588714771035" lon="13.662177153037414"><ele>1297.0</ele><time>2026-04-23T11:11:15.999Z</time></trkpt><trkpt lat="42.34458737817632" lon="13.66226718809934"><ele>1297.0</ele><time>2026-04-23T11:11:16.999Z</time></trkpt><trkpt lat="42.344585816288536" lon="13.662426997651371"><ele>1297.0</ele><time>2026-04-23T11:11:18.999Z</time></trkpt><trkpt lat="42.344596433679584" lon="13.662518472935037"><ele>1297.0</ele><time>2026-04-23T11:11:20.999Z</time></trkpt><trkpt lat="42.34457152327547" lon="13.662611256913323"><ele>1297.0</ele><time>2026-04-23T11:11:22.999Z</time></trkpt><trkpt lat="42.344558584673265" lon="13.662697224056684"><ele>1299.1999999999998</ele><time>2026-04-23T11:11:23.999Z</time></trkpt><trkpt lat="42.34454120305923" lon="13.662793786596637"><ele>1301.4</ele><time>2026-04-23T11:11:24.999Z</time></trkpt><trkpt lat="42.34451775114474" lon="13.662903450986093"><ele>1303.6</ele><time>2026-04-23T11:11:25.999Z</time></trkpt><trkpt lat="42.344490885615485" lon="13.663026028003046"><ele>1305.8000000000002</ele><time>2026-04-23T11:11:26.999Z</time></trkpt><trkpt lat="42.344464510541975" lon="13.663167281711834"><ele>1308.0</ele><time>2026-04-23T11:11:27.999Z</time></trkpt><trkpt lat="42.34444038249237" lon="13.663323487887299"><ele>1308.0</ele><time>2026-04-23T11:11:28.999Z</time></trkpt><trkpt lat="42.344415766432284" lon="13.663483137699284"><ele>1308.0</ele><time>2026-04-23T11:11:29.999Z</time></trkpt><trkpt lat="42.344384524012796" lon="13.663651716715519"><ele>1308.0</ele><time>2026-04-23T11:11:30.999Z</time></trkpt><trkpt lat="42.3443486401398" lon="13.663825861528936"><ele>1308.0</ele><time>2026-04-23T11:11:31.999Z</time></trkpt><trkpt lat="42.34430957027218" lon="13.664003993668526"><ele>1310.0</ele><time>2026-04-23T11:11:32.999Z</time></trkpt><trkpt lat="42.34427303568288" lon="13.664191945252577"><ele>1312.0</ele><time>2026-04-23T11:11:33.999Z</time></trkpt><trkpt lat="42.34422990978805" lon="13.664375025555366"><ele>1314.0</ele><time>2026-04-23T11:11:34.999Z</time></trkpt><trkpt lat="42.3441928912788" lon="13.66454348760204"><ele>1316.0</ele><time>2026-04-23T11:11:35.999Z</time></trkpt><trkpt lat="42.34416221878965" lon="13.664697506592251"><ele>1318.5</ele><time>2026-04-23T11:11:36.999Z</time></trkpt><trkpt lat="42.34414998559265" lon="13.66486120455253"><ele>1321.0</ele><time>2026-04-23T11:11:37.999Z</time></trkpt><trkpt lat="42.34415314182845" lon="13.665034255120208"><ele>1323.5</ele><time>2026-04-23T11:11:38.999Z</time></trkpt><trkpt lat="42.34416425259823" lon="13.665209034845159"><ele>1326.0</ele><time>2026-04-23T11:11:39.999Z</time></trkpt><trkpt lat="42.344159967080046" lon="13.665357338615573"><ele>1323.4</ele><time>2026-04-23T11:11:40.999Z</time></trkpt><trkpt lat="42.34411142552271" lon="13.665489967965772"><ele>1320.8</ele><time>2026-04-23T11:11:41.999Z</time></trkpt><trkpt lat="42.3440675716279" lon="13.665603236956796"><ele>1318.2</ele><time>2026-04-23T11:11:42.999Z</time></trkpt><trkpt lat="42.343999229206595" lon="13.665673327076057"><ele>1315.6000000000001</ele><time>2026-04-23T11:11:43.999Z</time></trkpt><trkpt lat="42.343920489871735" lon="13.665751308765328"><ele>1313.0</ele><time>2026-04-23T11:11:44.999Z</time></trkpt><trkpt lat="42.34382361976533" lon="13.665844281053488"><ele>1313.0</ele><time>2026-04-23T11:11:45.999Z</time></trkpt><trkpt lat="42.34373097353994" lon="13.66594993411826"><ele>1313.0</ele><time>2026-04-23T11:11:46.999Z</time></trkpt><trkpt lat="42.34363553414528" lon="13.66603868237834"><ele>1313.0</ele><time>2026-04-23T11:11:47.999Z</time></trkpt><trkpt lat="42.34355383557032" lon="13.666118299681717"><ele>1313.0</ele><time>2026-04-23T11:11:48.999Z</time></trkpt><trkpt lat="42.34347754072233" lon="13.6662035682855"><ele>1313.0</ele><time>2026-04-23T11:11:49.999Z</time></trkpt><trkpt lat="42.343418245294714" lon="13.666305045075744"><ele>1316.0</ele><time>2026-04-23T11:11:50.999Z</time></trkpt><trkpt lat="42.34336622966893" lon="13.666402771632784"><ele>1319.0</ele><time>2026-04-23T11:11:51.999Z</time></trkpt><trkpt lat="42.34333335213686" lon="13.666509101543687"><ele>1322.0</ele><time>2026-04-23T11:11:52.999Z</time></trkpt><trkpt lat="42.34331044803243" lon="13.666650607227151"><ele>1325.0</ele><time>2026-04-23T11:11:53.999Z</time></trkpt><trkpt lat="42.34326044820951" lon="13.666815305575058"><ele>1328.0</ele><time>2026-04-23T11:11:54.999Z</time></trkpt><trkpt lat="42.343204257094584" lon="13.66697965230643"><ele>1331.25</ele><time>2026-04-23T11:11:55.999Z</time></trkpt><trkpt lat="42.343132933207166" lon="13.667139060547328"><ele>1334.5</ele><time>2026-04-23T11:11:56.999Z</time></trkpt><trkpt lat="42.343052105168084" lon="13.667302865979579"><ele>1337.75</ele><time>2026-04-23T11:11:57.999Z</time></trkpt><trkpt lat="42.3429803852404" lon="13.667466845980348"><ele>1341.0</ele><time>2026-04-23T11:11:58.999Z</time></trkpt><trkpt lat="42.3429008430556" lon="13.667621366047614"><ele>1337.25</ele><time>2026-04-23T11:11:59.999Z</time></trkpt><trkpt lat="42.342827110229464" lon="13.667781606747608"><ele>1333.5</ele><time>2026-04-23T11:12:00.999Z</time></trkpt><trkpt lat="42.3427590642926" lon="13.667941429641767"><ele>1329.75</ele><time>2026-04-23T11:12:01.999Z</time></trkpt><trkpt lat="42.34268351027451" lon="13.66810292788675"><ele>1326.0</ele><time>2026-04-23T11:12:02.999Z</time></trkpt><trkpt lat="42.342615445824585" lon="13.668269990258656"><ele>1326.0</ele><time>2026-04-23T11:12:03.999Z</time></trkpt><trkpt lat="42.34254952369139" lon="13.668438751729479"><ele>1326.0</ele><time>2026-04-23T11:12:04.999Z</time></trkpt><trkpt lat="42.34248372993903" lon="13.66861306124999"><ele>1326.0</ele><time>2026-04-23T11:12:05.999Z</time></trkpt><trkpt lat="42.342390618697685" lon="13.668766023895115"><ele>1326.0</ele><time>2026-04-23T11:12:06.999Z</time></trkpt><trkpt lat="42.34230608096013" lon="13.668938028538914"><ele>1324.25</ele><time>2026-04-23T11:12:07.999Z</time></trkpt><trkpt lat="42.34223845019187" lon="13.669123411445003"><ele>1322.5</ele><time>2026-04-23T11:12:08.999Z</time></trkpt><trkpt lat="42.342156151895146" lon="13.669290031737109"><ele>1320.75</ele><time>2026-04-23T11:12:09.999Z</time></trkpt><trkpt lat="42.342091973009744" lon="13.66945146227116"><ele>1319.0</ele><time>2026-04-23T11:12:10.999Z</time></trkpt><trkpt lat="42.3420441519159" lon="13.669607241488162"><ele>1319.0</ele><time>2026-04-23T11:12:11.999Z</time></trkpt><trkpt lat="42.342004774486696" lon="13.669762474147817"><ele>1319.0</ele><time>2026-04-23T11:12:12.999Z</time></trkpt><trkpt lat="42.341968812822536" lon="13.669926802432318"><ele>1319.0</ele><time>2026-04-23T11:12:13.999Z</time></trkpt><trkpt lat="42.34195049069416" lon="13.670089872802494"><ele>1319.0</ele><time>2026-04-23T11:12:14.999Z</time></trkpt><trkpt lat="42.34194008000058" lon="13.670234626423197"><ele>1321.8333333333335</ele><time>2026-04-23T11:12:15.999Z</time></trkpt><trkpt lat="42.341930540794465" lon="13.670362958638531"><ele>1324.6666666666667</ele><time>2026-04-23T11:12:16.999Z</time></trkpt><trkpt lat="42.34194175075589" lon="13.670469432227836"><ele>1327.5</ele><time>2026-04-23T11:12:17.999Z</time></trkpt><trkpt lat="42.34192425449968" lon="13.670559836540457"><ele>1330.3333333333333</ele><time>2026-04-23T11:12:18.999Z</time></trkpt><trkpt lat="42.34184983643436" lon="13.670657748961583"><ele>1333.1666666666665</ele><time>2026-04-23T11:12:20.999Z</time></trkpt><trkpt lat="42.34178197387596" lon="13.670686011621708"><ele>1336.0</ele><time>2026-04-23T11:12:21.999Z</time></trkpt><trkpt lat="42.341696638077806" lon="13.670677840334276"><ele>1336.0</ele><time>2026-04-23T11:12:22.999Z</time></trkpt><trkpt lat="42.341586880479326" lon="13.670692160625268"><ele>1336.0</ele><time>2026-04-23T11:12:23.999Z</time></trkpt><trkpt lat="42.3414691648479" lon="13.670716900865218"><ele>1336.0</ele><time>2026-04-23T11:12:24.999Z</time></trkpt><trkpt lat="42.34135212863944" lon="13.670753779194639"><ele>1336.0</ele><time>2026-04-23T11:12:25.999Z</time></trkpt><trkpt lat="42.341235958517125" lon="13.670802530795767"><ele>1336.75</ele><time>2026-04-23T11:12:26.999Z</time></trkpt><trkpt lat="42.34113139139078" lon="13.670878524413961"><ele>1337.5</ele><time>2026-04-23T11:12:27.999Z</time></trkpt><trkpt lat="42.34101674970709" lon="13.67095415539422"><ele>1338.25</ele><time>2026-04-23T11:12:28.999Z</time></trkpt><trkpt lat="42.34091934574174" lon="13.671050561920605"><ele>1339.0</ele><time>2026-04-23T11:12:29.999Z</time></trkpt><trkpt lat="42.340826641694434" lon="13.671166359500338"><ele>1339.0</ele><time>2026-04-23T11:12:30.999Z</time></trkpt><trkpt lat="42.34072032791166" lon="13.67127929560984"><ele>1339.0</ele><time>2026-04-23T11:12:31.999Z</time></trkpt><trkpt lat="42.340624105116234" lon="13.671398054598441"><ele>1339.0</ele><time>2026-04-23T11:12:32.999Z</time></trkpt><trkpt lat="42.34052337424688" lon="13.671522377444996"><ele>1339.0</ele><time>2026-04-23T11:12:33.999Z</time></trkpt><trkpt lat="42.340428251422175" lon="13.671639778902074"><ele>1337.5</ele><time>2026-04-23T11:12:34.999Z</time></trkpt><trkpt lat="42.34034203432999" lon="13.671782004159775"><ele>1336.0</ele><time>2026-04-23T11:12:35.999Z</time></trkpt><trkpt lat="42.34025371222993" lon="13.671915873701137"><ele>1334.5</ele><time>2026-04-23T11:12:36.999Z</time></trkpt><trkpt lat="42.34017625019179" lon="13.67206425227066"><ele>1333.0</ele><time>2026-04-23T11:12:37.999Z</time></trkpt><trkpt lat="42.34008282485454" lon="13.672194838202744"><ele>1333.0</ele><time>2026-04-23T11:12:38.999Z</time></trkpt><trkpt lat="42.33999266214417" lon="13.672325145433314"><ele>1333.0</ele><time>2026-04-23T11:12:39.999Z</time></trkpt><trkpt lat="42.33990106452255" lon="13.672464344985903"><ele>1333.0</ele><time>2026-04-23T11:12:40.999Z</time></trkpt><trkpt lat="42.339826276768484" lon="13.672615028136084"><ele>1333.0</ele><time>2026-04-23T11:12:41.999Z</time></trkpt><trkpt lat="42.33973678791077" lon="13.672746093481301"><ele>1331.0</ele><time>2026-04-23T11:12:42.999Z</time></trkpt><trkpt lat="42.33965404232984" lon="13.67289542974071"><ele>1329.0</ele><time>2026-04-23T11:12:43.999Z</time></trkpt><trkpt lat="42.33957430867833" lon="13.673040664600395"><ele>1327.0</ele><time>2026-04-23T11:12:44.999Z</time></trkpt><trkpt lat="42.33951093669743" lon="13.673206123552177"><ele>1325.0</ele><time>2026-04-23T11:12:45.999Z</time></trkpt><trkpt lat="42.33947057569241" lon="13.673362864498449"><ele>1325.0</ele><time>2026-04-23T11:12:46.999Z</time></trkpt><trkpt lat="42.33941204011871" lon="13.67349660442399"><ele>1325.0</ele><time>2026-04-23T11:12:47.999Z</time></trkpt><trkpt lat="42.33934486618894" lon="13.673635851352193"><ele>1325.0</ele><time>2026-04-23T11:12:48.999Z</time></trkpt><trkpt lat="42.339267489129824" lon="13.67376025180991"><ele>1325.0</ele><time>2026-04-23T11:12:49.999Z</time></trkpt><trkpt lat="42.33917905684842" lon="13.673876753260847"><ele>1326.8</ele><time>2026-04-23T11:12:50.999Z</time></trkpt><trkpt lat="42.3390835973685" lon="13.67399069142733"><ele>1328.6</ele><time>2026-04-23T11:12:51.999Z</time></trkpt><trkpt lat="42.338996620799755" lon="13.674090671492424"><ele>1330.4</ele><time>2026-04-23T11:12:52.999Z</time></trkpt><trkpt lat="42.33891396806839" lon="13.674183046893093"><ele>1332.2</ele><time>2026-04-23T11:12:53.999Z</time></trkpt><trkpt lat="42.33883678653288" lon="13.674256164973684"><ele>1334.0</ele><time>2026-04-23T11:12:54.999Z</time></trkpt><trkpt lat="42.338754189050064" lon="13.674308434572996"><ele>1334.0</ele><time>2026-04-23T11:12:55.999Z</time></trkpt><trkpt lat="42.33869476997001" lon="13.674353152554017"><ele>1334.0</ele><time>2026-04-23T11:12:56.999Z</time></trkpt><trkpt lat="42.33864123657227" lon="13.674414174412354"><ele>1334.0</ele><time>2026-04-23T11:12:57.999Z</time></trkpt><trkpt lat="42.33859534817115" lon="13.674481296899065"><ele>1334.0</ele><time>2026-04-23T11:12:58.999Z</time></trkpt><trkpt lat="42.33858762041102" lon="13.67459928764387"><ele>1334.0</ele><time>2026-04-23T11:12:59.999Z</time></trkpt><trkpt lat="42.33858889783135" lon="13.674731108416106"><ele>1334.0</ele><time>2026-04-23T11:13:00.999Z</time></trkpt><trkpt lat="42.33861115068393" lon="13.67487547577021"><ele>1335.0</ele><time>2026-04-23T11:13:01.999Z</time></trkpt><trkpt lat="42.33865497784122" lon="13.675006973671714"><ele>1336.0</ele><time>2026-04-23T11:13:02.999Z</time></trkpt><trkpt lat="42.33865675773061" lon="13.675143746017362"><ele>1337.0</ele><time>2026-04-23T11:13:03.999Z</time></trkpt><trkpt lat="42.3386617512622" lon="13.675284797942862"><ele>1338.0</ele><time>2026-04-23T11:13:04.999Z</time></trkpt><trkpt lat="42.33865692077766" lon="13.675428601215684"><ele>1339.0</ele><time>2026-04-23T11:13:05.999Z</time></trkpt><trkpt lat="42.338646044656876" lon="13.6755759687139"><ele>1339.0</ele><time>2026-04-23T11:13:06.999Z</time></trkpt><trkpt lat="42.33862526277659" lon="13.675701642309921"><ele>1339.0</ele><time>2026-04-23T11:13:07.999Z</time></trkpt><trkpt lat="42.33858099399667" lon="13.675811838146887"><ele>1339.0</ele><time>2026-04-23T11:13:08.999Z</time></trkpt><trkpt lat="42.33853027207175" lon="13.67594120479019"><ele>1339.0</ele><time>2026-04-23T11:13:09.999Z</time></trkpt><trkpt lat="42.338472429629505" lon="13.676087085090414"><ele>1339.0</ele><time>2026-04-23T11:13:10.999Z</time></trkpt><trkpt lat="42.338428383065484" lon="13.676244450452081"><ele>1338.2</ele><time>2026-04-23T11:13:11.999Z</time></trkpt><trkpt lat="42.33841895062044" lon="13.67639163176826"><ele>1337.4</ele><time>2026-04-23T11:13:12.999Z</time></trkpt><trkpt lat="42.33841884351651" lon="13.67650567344829"><ele>1336.6</ele><time>2026-04-23T11:13:13.999Z</time></trkpt><trkpt lat="42.3384157239424" lon="13.676640064148256"><ele>1335.8</ele><time>2026-04-23T11:13:14.999Z</time></trkpt><trkpt lat="42.33847330889295" lon="13.676778019909175"><ele>1335.0</ele><time>2026-04-23T11:13:15.999Z</time></trkpt><trkpt lat="42.33851648508801" lon="13.676947945110506"><ele>1333.75</ele><time>2026-04-23T11:13:16.999Z</time></trkpt><trkpt lat="42.33857395879956" lon="13.67712132054633"><ele>1332.5</ele><time>2026-04-23T11:13:17.999Z</time></trkpt><trkpt lat="42.33862022799708" lon="13.677279303630243"><ele>1331.25</ele><time>2026-04-23T11:13:18.999Z</time></trkpt><trkpt lat="42.338648883126865" lon="13.677424688956263"><ele>1330.0</ele><time>2026-04-23T11:13:19.999Z</time></trkpt><trkpt lat="42.33865837579295" lon="13.67756120324465"><ele>1330.0</ele><time>2026-04-23T11:13:20.999Z</time></trkpt><trkpt lat="42.33864390930181" lon="13.677701778819712"><ele>1330.0</ele><time>2026-04-23T11:13:21.999Z</time></trkpt><trkpt lat="42.33861204415598" lon="13.67785536948441"><ele>1330.0</ele><time>2026-04-23T11:13:22.999Z</time></trkpt><trkpt lat="42.3385762307169" lon="13.678006197836295"><ele>1330.0</ele><time>2026-04-23T11:13:23.999Z</time></trkpt><trkpt lat="42.33854610754081" lon="13.678131394915457"><ele>1330.0</ele><time>2026-04-23T11:13:24.999Z</time></trkpt><trkpt lat="42.33851754820946" lon="13.678243583593042"><ele>1330.2</ele><time>2026-04-23T11:13:25.999Z</time></trkpt><trkpt lat="42.33849507772956" lon="13.678331628755473"><ele>1330.4</ele><time>2026-04-23T11:13:26.999Z</time></trkpt><trkpt lat="42.33844877406926" lon="13.678506647955382"><ele>1330.6</ele><time>2026-04-23T11:13:28.999Z</time></trkpt><trkpt lat="42.33841805863341" lon="13.67864677072169"><ele>1330.8</ele><time>2026-04-23T11:13:29.999Z</time></trkpt><trkpt lat="42.338383472347466" lon="13.678793566513287"><ele>1331.0</ele><time>2026-04-23T11:13:30.999Z</time></trkpt><trkpt lat="42.338353195288484" lon="13.678934521224383"><ele>1331.0</ele><time>2026-04-23T11:13:31.999Z</time></trkpt><trkpt lat="42.33831951391604" lon="13.679043323765672"><ele>1331.0</ele><time>2026-04-23T11:13:32.999Z</time></trkpt><trkpt lat="42.33826965284413" lon="13.679158228167683"><ele>1331.0</ele><time>2026-04-23T11:13:33.999Z</time></trkpt><trkpt lat="42.338211074430625" lon="13.679233982024769"><ele>1331.0</ele><time>2026-04-23T11:13:34.999Z</time></trkpt><trkpt lat="42.33813064408709" lon="13.67929990416329"><ele>1331.0</ele><time>2026-04-23T11:13:35.999Z</time></trkpt><trkpt lat="42.33805047680643" lon="13.679348937923768"><ele>1331.0</ele><time>2026-04-23T11:13:36.999Z</time></trkpt><trkpt lat="42.33797675313609" lon="13.67940904676309"><ele>1330.0</ele><time>2026-04-23T11:13:37.999Z</time></trkpt><trkpt lat="42.33792058599548" lon="13.679458327455816"><ele>1329.0</ele><time>2026-04-23T11:13:38.999Z</time></trkpt><trkpt lat="42.33785795112485" lon="13.679495448452938"><ele>1328.0</ele><time>2026-04-23T11:13:39.999Z</time></trkpt><trkpt lat="42.33780454508135" lon="13.679549664782755"><ele>1327.0</ele><time>2026-04-23T11:13:40.999Z</time></trkpt><trkpt lat="42.33772493537345" lon="13.679725721267848"><ele>1326.0</ele><time>2026-04-23T11:13:42.999Z</time></trkpt><trkpt lat="42.33767651756297" lon="13.679861639419896"><ele>1326.0</ele><time>2026-04-23T11:13:43.999Z</time></trkpt><trkpt lat="42.33764507285616" lon="13.679958815318422"><ele>1326.0</ele><time>2026-04-23T11:13:44.999Z</time></trkpt><trkpt lat="42.33760854350373" lon="13.680055444299015"><ele>1326.0</ele><time>2026-04-23T11:13:45.999Z</time></trkpt><trkpt lat="42.33756730675954" lon="13.680176907817836"><ele>1326.0</ele><time>2026-04-23T11:13:46.999Z</time></trkpt><trkpt lat="42.337528043924536" lon="13.680295345177969"><ele>1326.0</ele><time>2026-04-23T11:13:47.999Z</time></trkpt><trkpt lat="42.33749565452647" lon="13.68040936823101"><ele>1326.0</ele><time>2026-04-23T11:13:48.999Z</time></trkpt><trkpt lat="42.33747985818748" lon="13.680529288590193"><ele>1325.25</ele><time>2026-04-23T11:13:49.999Z</time></trkpt><trkpt lat="42.33745855105298" lon="13.680665993246153"><ele>1324.5</ele><time>2026-04-23T11:13:50.999Z</time></trkpt><trkpt lat="42.33744924748631" lon="13.68082019818231"><ele>1323.75</ele><time>2026-04-23T11:13:51.999Z</time></trkpt><trkpt lat="42.33743830083406" lon="13.680990718486962"><ele>1323.0</ele><time>2026-04-23T11:13:52.999Z</time></trkpt><trkpt lat="42.337427981782646" lon="13.681152701308253"><ele>1322.6000000000001</ele><time>2026-04-23T11:13:53.999Z</time></trkpt><trkpt lat="42.33742431631041" lon="13.681286118190435"><ele>1322.2</ele><time>2026-04-23T11:13:54.999Z</time></trkpt><trkpt lat="42.33741774551928" lon="13.68140816096485"><ele>1321.8</ele><time>2026-04-23T11:13:55.999Z</time></trkpt><trkpt lat="42.33736872019401" lon="13.681528774173804"><ele>1321.4</ele><time>2026-04-23T11:13:56.999Z</time></trkpt><trkpt lat="42.337328767847595" lon="13.681682251248269"><ele>1321.0</ele><time>2026-04-23T11:13:57.999Z</time></trkpt><trkpt lat="42.33731445819715" lon="13.681840648581115"><ele>1317.75</ele><time>2026-04-23T11:13:58.999Z</time></trkpt><trkpt lat="42.337282150855124" lon="13.682001438655039"><ele>1314.5</ele><time>2026-04-23T11:13:59.999Z</time></trkpt><trkpt lat="42.33726003462105" lon="13.682170399043642"><ele>1311.25</ele><time>2026-04-23T11:14:00.999Z</time></trkpt><trkpt lat="42.3372379713723" lon="13.682344395146908"><ele>1308.0</ele><time>2026-04-23T11:14:01.999Z</time></trkpt><trkpt lat="42.3372149198468" lon="13.682517390015468"><ele>1313.5</ele><time>2026-04-23T11:14:02.999Z</time></trkpt><trkpt lat="42.3371632574211" lon="13.682684492941446"><ele>1319.0</ele><time>2026-04-23T11:14:03.999Z</time></trkpt><trkpt lat="42.33710839074074" lon="13.682846164522052"><ele>1324.5</ele><time>2026-04-23T11:14:04.999Z</time></trkpt><trkpt lat="42.33705048476217" lon="13.682996844780874"><ele>1330.0</ele><time>2026-04-23T11:14:05.999Z</time></trkpt><trkpt lat="42.336994914993916" lon="13.68312801228029"><ele>1330.0</ele><time>2026-04-23T11:14:06.999Z</time></trkpt><trkpt lat="42.33693386206009" lon="13.68323898576115"><ele>1330.0</ele><time>2026-04-23T11:14:07.999Z</time></trkpt><trkpt lat="42.33686210507198" lon="13.683342458905882"><ele>1330.0</ele><time>2026-04-23T11:14:08.999Z</time></trkpt><trkpt lat="42.33677454980214" lon="13.683429070083118"><ele>1330.0</ele><time>2026-04-23T11:14:09.999Z</time></trkpt><trkpt lat="42.336673132794964" lon="13.683523810593908"><ele>1330.0</ele><time>2026-04-23T11:14:10.999Z</time></trkpt><trkpt lat="42.33657704119608" lon="13.68363767347092"><ele>1334.75</ele><time>2026-04-23T11:14:11.999Z</time></trkpt><trkpt lat="42.336493662467326" lon="13.683760392527825"><ele>1339.5</ele><time>2026-04-23T11:14:12.999Z</time></trkpt><trkpt lat="42.3364453219866" lon="13.683909589138041"><ele>1344.25</ele><time>2026-04-23T11:14:13.999Z</time></trkpt><trkpt lat="42.336389403721455" lon="13.684059712648184"><ele>1349.0</ele><time>2026-04-23T11:14:14.999Z</time></trkpt><trkpt lat="42.336337440611786" lon="13.684230689123737"><ele>1349.0</ele><time>2026-04-23T11:14:15.999Z</time></trkpt><trkpt lat="42.3362569589574" lon="13.684377893313718"><ele>1349.0</ele><time>2026-04-23T11:14:16.999Z</time></trkpt><trkpt lat="42.33618850774256" lon="13.684533975684579"><ele>1349.0</ele><time>2026-04-23T11:14:17.999Z</time></trkpt><trkpt lat="42.336118002972945" lon="13.684694283470991"><ele>1349.0</ele><time>2026-04-23T11:14:18.999Z</time></trkpt><trkpt lat="42.336046027306615" lon="13.684855725074234"><ele>1343.5</ele><time>2026-04-23T11:14:19.999Z</time></trkpt><trkpt lat="42.335973448650726" lon="13.685018519735868"><ele>1338.0</ele><time>2026-04-23T11:14:20.999Z</time></trkpt><trkpt lat="42.3358979334089" lon="13.685183230684155"><ele>1332.5</ele><time>2026-04-23T11:14:21.999Z</time></trkpt><trkpt lat="42.33582805743046" lon="13.685342463238534"><ele>1327.0</ele><time>2026-04-23T11:14:22.999Z</time></trkpt><trkpt lat="42.33577535829583" lon="13.685509759502153"><ele>1325.0</ele><time>2026-04-23T11:14:23.999Z</time></trkpt><trkpt lat="42.33569983227308" lon="13.685675385940598"><ele>1323.0</ele><time>2026-04-23T11:14:24.999Z</time></trkpt><trkpt lat="42.33562806070084" lon="13.685839251916065"><ele>1321.0</ele><time>2026-04-23T11:14:25.999Z</time></trkpt><trkpt lat="42.33555059259136" lon="13.686003682681983"><ele>1319.0</ele><time>2026-04-23T11:14:26.999Z</time></trkpt><trkpt lat="42.3354722887565" lon="13.686165538888941"><ele>1319.0</ele><time>2026-04-23T11:14:27.999Z</time></trkpt><trkpt lat="42.33538932855646" lon="13.686310189931705"><ele>1319.0</ele><time>2026-04-23T11:14:28.999Z</time></trkpt><trkpt lat="42.33529500227655" lon="13.686450076869829"><ele>1319.0</ele><time>2026-04-23T11:14:29.999Z</time></trkpt><trkpt lat="42.33519501668504" lon="13.68659207529371"><ele>1319.0</ele><time>2026-04-23T11:14:30.999Z</time></trkpt><trkpt lat="42.335088694950585" lon="13.686733192783898"><ele>1319.0</ele><time>2026-04-23T11:14:31.999Z</time></trkpt><trkpt lat="42.33497799982805" lon="13.686872873079247"><ele>1319.0</ele><time>2026-04-23T11:14:32.999Z</time></trkpt><trkpt lat="42.33486942877263" lon="13.687007833382118"><ele>1319.0</ele><time>2026-04-23T11:14:33.999Z</time></trkpt><trkpt lat="42.33477110990635" lon="13.687127540645179"><ele>1319.0</ele><time>2026-04-23T11:14:34.999Z</time></trkpt><trkpt lat="42.334671064453474" lon="13.687230631034444"><ele>1318.5</ele><time>2026-04-23T11:14:35.999Z</time></trkpt><trkpt lat="42.33456789502647" lon="13.687317234938732"><ele>1318.0</ele><time>2026-04-23T11:14:36.999Z</time></trkpt><trkpt lat="42.334455279623256" lon="13.687396484609948"><ele>1317.5</ele><time>2026-04-23T11:14:37.999Z</time></trkpt><trkpt lat="42.33432443060848" lon="13.68746885550712"><ele>1317.0</ele><time>2026-04-23T11:14:38.999Z</time></trkpt><trkpt lat="42.33419227286654" lon="13.687553039865868"><ele>1317.0</ele><time>2026-04-23T11:14:39.999Z</time></trkpt><trkpt lat="42.334065066354725" lon="13.687637626245998"><ele>1317.0</ele><time>2026-04-23T11:14:40.999Z</time></trkpt><trkpt lat="42.333942252722096" lon="13.687734803162792"><ele>1317.0</ele><time>2026-04-23T11:14:41.999Z</time></trkpt><trkpt lat="42.33384075484636" lon="13.687851503909869"><ele>1317.0</ele><time>2026-04-23T11:14:42.999Z</time></trkpt><trkpt lat="42.333738277898604" lon="13.687926772814656"><ele>1314.0</ele><time>2026-04-23T11:14:43.999Z</time></trkpt><trkpt lat="42.33362965939024" lon="13.687943645634457"><ele>1311.0</ele><time>2026-04-23T11:14:44.999Z</time></trkpt><trkpt lat="42.333509985770306" lon="13.687944431606995"><ele>1308.0</ele><time>2026-04-23T11:14:45.999Z</time></trkpt><trkpt lat="42.33337806036922" lon="13.687960032923261"><ele>1305.0</ele><time>2026-04-23T11:14:46.999Z</time></trkpt><trkpt lat="42.33325573751368" lon="13.687987961008082"><ele>1305.0</ele><time>2026-04-23T11:14:47.999Z</time></trkpt><trkpt lat="42.33315989354612" lon="13.688053908429195"><ele>1305.0</ele><time>2026-04-23T11:14:48.999Z</time></trkpt><trkpt lat="42.33307778869373" lon="13.688136257358133"><ele>1305.0</ele><time>2026-04-23T11:14:49.999Z</time></trkpt><trkpt lat="42.332997007178435" lon="13.688245934755992"><ele>1305.0</ele><time>2026-04-23T11:14:50.999Z</time></trkpt><trkpt lat="42.33289649444638" lon="13.688358649611343"><ele>1304.75</ele><time>2026-04-23T11:14:51.999Z</time></trkpt><trkpt lat="42.33279376178114" lon="13.688482800032498"><ele>1304.5</ele><time>2026-04-23T11:14:52.999Z</time></trkpt><trkpt lat="42.33270312401022" lon="13.688626946931556"><ele>1304.25</ele><time>2026-04-23T11:14:53.999Z</time></trkpt><trkpt lat="42.33258817527744" lon="13.688735434457026"><ele>1304.0</ele><time>2026-04-23T11:14:54.999Z</time></trkpt><trkpt lat="42.33246396468417" lon="13.688837440964393"><ele>1304.0</ele><time>2026-04-23T11:14:55.999Z</time></trkpt><trkpt lat="42.33234593761027" lon="13.688950646243589"><ele>1304.0</ele><time>2026-04-23T11:14:56.999Z</time></trkpt><trkpt lat="42.33222580932676" lon="13.689067745688789"><ele>1304.0</ele><time>2026-04-23T11:14:57.999Z</time></trkpt><trkpt lat="42.33210669625879" lon="13.689192199118827"><ele>1304.0</ele><time>2026-04-23T11:14:58.999Z</time></trkpt><trkpt lat="42.33199134746156" lon="13.689327436922818"><ele>1303.6666666666667</ele><time>2026-04-23T11:14:59.999Z</time></trkpt><trkpt lat="42.33187819178995" lon="13.689473025106542"><ele>1303.3333333333333</ele><time>2026-04-23T11:15:00.999Z</time></trkpt><trkpt lat="42.33177002581805" lon="13.689620316644962"><ele>1303.0</ele><time>2026-04-23T11:15:01.999Z</time></trkpt><trkpt lat="42.331653018781395" lon="13.689766930991512"><ele>1303.0</ele><time>2026-04-23T11:15:02.999Z</time></trkpt><trkpt lat="42.33153087573486" lon="13.689905356081486"><ele>1303.0</ele><time>2026-04-23T11:15:03.999Z</time></trkpt><trkpt lat="42.33141486195513" lon="13.690056203485906"><ele>1303.0</ele><time>2026-04-23T11:15:04.999Z</time></trkpt><trkpt lat="42.3312931704137" lon="13.690211694445425"><ele>1304.3333333333333</ele><time>2026-04-23T11:15:05.999Z</time></trkpt><trkpt lat="42.331180239257016" lon="13.690375813296251"><ele>1305.6666666666667</ele><time>2026-04-23T11:15:06.999Z</time></trkpt><trkpt lat="42.33106892653091" lon="13.690545704466818"><ele>1307.0</ele><time>2026-04-23T11:15:07.999Z</time></trkpt><trkpt lat="42.330952808624424" lon="13.690719398716423"><ele>1307.0</ele><time>2026-04-23T11:15:08.999Z</time></trkpt><trkpt lat="42.33083579153471" lon="13.690880766574905"><ele>1307.0</ele><time>2026-04-23T11:15:09.999Z</time></trkpt><trkpt lat="42.33070709895475" lon="13.6910400378806"><ele>1307.0</ele><time>2026-04-23T11:15:10.999Z</time></trkpt><trkpt lat="42.330582880891505" lon="13.691202056693838"><ele>1310.0</ele><time>2026-04-23T11:15:11.999Z</time></trkpt><trkpt lat="42.3304630048905" lon="13.691366990565452"><ele>1313.0</ele><time>2026-04-23T11:15:12.999Z</time></trkpt><trkpt lat="42.33035113097575" lon="13.6915218651897"><ele>1316.0</ele><time>2026-04-23T11:15:13.999Z</time></trkpt><trkpt lat="42.330249622625786" lon="13.691664611835511"><ele>1316.0</ele><time>2026-04-23T11:15:14.999Z</time></trkpt><trkpt lat="42.33017144162797" lon="13.69181313630304"><ele>1316.0</ele><time>2026-04-23T11:15:15.999Z</time></trkpt><trkpt lat="42.330107678206254" lon="13.691953694847601"><ele>1316.0</ele><time>2026-04-23T11:15:16.999Z</time></trkpt><trkpt lat="42.33005989078316" lon="13.692062772003363"><ele>1316.0</ele><time>2026-04-23T11:15:17.999Z</time></trkpt><trkpt lat="42.3300323731766" lon="13.692144012275735"><ele>1316.0</ele><time>2026-04-23T11:15:18.999Z</time></trkpt><trkpt lat="42.330017753026326" lon="13.692231162595084"><ele>1313.1999999999998</ele><time>2026-04-23T11:15:19.999Z</time></trkpt><trkpt lat="42.329978768982144" lon="13.69240693555655"><ele>1310.3999999999999</ele><time>2026-04-23T11:15:21.999Z</time></trkpt><trkpt lat="42.32994467282848" lon="13.69251719158688"><ele>1307.6</ele><time>2026-04-23T11:15:22.999Z</time></trkpt><trkpt lat="42.32990236145756" lon="13.692632207925753"><ele>1304.8</ele><time>2026-04-23T11:15:23.999Z</time></trkpt><trkpt lat="42.329859846396346" lon="13.692716922132247"><ele>1302.0</ele><time>2026-04-23T11:15:24.999Z</time></trkpt><trkpt lat="42.32981481313572" lon="13.692790487932056"><ele>1299.1999999999998</ele><time>2026-04-23T11:15:25.999Z</time></trkpt><trkpt lat="42.3297790090091" lon="13.692884436124858"><ele>1296.4</ele><time>2026-04-23T11:15:27Z</time></trkpt><trkpt lat="42.329748546740866" lon="13.693000817868903"><ele>1293.6</ele><time>2026-04-23T11:15:28Z</time></trkpt><trkpt lat="42.329693983770404" lon="13.693136124024743"><ele>1290.8000000000002</ele><time>2026-04-23T11:15:29Z</time></trkpt><trkpt lat="42.32961761009484" lon="13.693265833218206"><ele>1288.0</ele><time>2026-04-23T11:15:30Z</time></trkpt><trkpt lat="42.329545781596416" lon="13.693394102002657"><ele>1291.4</ele><time>2026-04-23T11:15:31Z</time></trkpt><trkpt lat="42.32948035955535" lon="13.693536042466974"><ele>1294.8000000000002</ele><time>2026-04-23T11:15:32Z</time></trkpt><trkpt lat="42.329431483497025" lon="13.693671336195784"><ele>1298.2</ele><time>2026-04-23T11:15:33Z</time></trkpt><trkpt lat="42.329382334193184" lon="13.693792551747668"><ele>1301.6</ele><time>2026-04-23T11:15:34Z</time></trkpt><trkpt lat="42.329334841321106" lon="13.693900174401522"><ele>1305.0</ele><time>2026-04-23T11:15:35Z</time></trkpt><trkpt lat="42.32928250373717" lon="13.693986490993638"><ele>1305.0</ele><time>2026-04-23T11:15:36Z</time></trkpt><trkpt lat="42.32924453195564" lon="13.694080189038816"><ele>1305.0</ele><time>2026-04-23T11:15:37Z</time></trkpt><trkpt lat="42.32920462074078" lon="13.694210374916327"><ele>1305.0</ele><time>2026-04-23T11:15:38Z</time></trkpt><trkpt lat="42.32916217383618" lon="13.694358803714815"><ele>1305.0</ele><time>2026-04-23T11:15:39Z</time></trkpt><trkpt lat="42.32911699976496" lon="13.694509970825466"><ele>1305.0</ele><time>2026-04-23T11:15:40Z</time></trkpt><trkpt lat="42.32907486747167" lon="13.694670149423375"><ele>1306.5</ele><time>2026-04-23T11:15:41Z</time></trkpt><trkpt lat="42.329025559834044" lon="13.694840369300938"><ele>1308.0</ele><time>2026-04-23T11:15:42Z</time></trkpt><trkpt lat="42.328964444399325" lon="13.69502123431154"><ele>1309.5</ele><time>2026-04-23T11:15:43Z</time></trkpt><trkpt lat="42.32890115902026" lon="13.695201079996032"><ele>1311.0</ele><time>2026-04-23T11:15:44Z</time></trkpt><trkpt lat="42.32883427726143" lon="13.695376298733905"><ele>1311.0</ele><time>2026-04-23T11:15:45Z</time></trkpt><trkpt lat="42.32876791785704" lon="13.695531617929285"><ele>1311.0</ele><time>2026-04-23T11:15:46Z</time></trkpt><trkpt lat="42.32870636791748" lon="13.695668294562456"><ele>1311.0</ele><time>2026-04-23T11:15:47Z</time></trkpt><trkpt lat="42.32864906767389" lon="13.695793799024404"><ele>1311.0</ele><time>2026-04-23T11:15:48Z</time></trkpt><trkpt lat="42.32858863209698" lon="13.695921548935932"><ele>1311.0</ele><time>2026-04-23T11:15:49Z</time></trkpt><trkpt lat="42.32851551858738" lon="13.696057950072193"><ele>1311.0</ele><time>2026-04-23T11:15:50Z</time></trkpt><trkpt lat="42.328446729118745" lon="13.69619821136814"><ele>1311.0</ele><time>2026-04-23T11:15:51Z</time></trkpt><trkpt lat="42.328392838010735" lon="13.69634223205183"><ele>1311.0</ele><time>2026-04-23T11:15:52Z</time></trkpt><trkpt lat="42.32835824917304" lon="13.696470859980986"><ele>1308.1999999999998</ele><time>2026-04-23T11:15:53Z</time></trkpt><trkpt lat="42.32834976198898" lon="13.696607971878116"><ele>1305.3999999999999</ele><time>2026-04-23T11:15:54Z</time></trkpt><trkpt lat="42.32835919899249" lon="13.69674107207484"><ele>1302.6</ele><time>2026-04-23T11:15:55Z</time></trkpt><trkpt lat="42.328375385012016" lon="13.696870421773033"><ele>1299.8</ele><time>2026-04-23T11:15:56Z</time></trkpt><trkpt lat="42.328374553503" lon="13.697001678072095"><ele>1297.0</ele><time>2026-04-23T11:15:57Z</time></trkpt><trkpt lat="42.32836369937984" lon="13.697130607347704"><ele>1295.8333333333333</ele><time>2026-04-23T11:15:58Z</time></trkpt><trkpt lat="42.32835509427163" lon="13.697246424622163"><ele>1294.6666666666665</ele><time>2026-04-23T11:15:59Z</time></trkpt><trkpt lat="42.32834624563288" lon="13.697379273369142"><ele>1293.5</ele><time>2026-04-23T11:16:00Z</time></trkpt><trkpt lat="42.32833768246977" lon="13.697500580219252"><ele>1292.3333333333333</ele><time>2026-04-23T11:16:01Z</time></trkpt><trkpt lat="42.328322763575166" lon="13.697621895057845"><ele>1291.1666666666667</ele><time>2026-04-23T11:16:02Z</time></trkpt><trkpt lat="42.32830739975039" lon="13.697715770399862"><ele>1290.0</ele><time>2026-04-23T11:16:03Z</time></trkpt><trkpt lat="42.32829154397152" lon="13.697798461553187"><ele>1288.5</ele><time>2026-04-23T11:16:04Z</time></trkpt><trkpt lat="42.328255323531366" lon="13.69787233240314"><ele>1287.0</ele><time>2026-04-23T11:16:07Z</time></trkpt><trkpt lat="42.32826800950458" lon="13.697981245337417"><ele>1285.5</ele><time>2026-04-23T11:16:22.999Z</time></trkpt><trkpt lat="42.32829874637091" lon="13.698064057517367"><ele>1284.0</ele><time>2026-04-23T11:16:23.999Z</time></trkpt><trkpt lat="42.32831929479405" lon="13.698210798072736"><ele>1282.5</ele><time>2026-04-23T11:16:25.999Z</time></trkpt><trkpt lat="42.32825190822611" lon="13.69828865506297"><ele>1281.0</ele><time>2026-04-23T11:16:27.999Z</time></trkpt><trkpt lat="42.32818186529461" lon="13.698245214506576"><ele>1281.0</ele><time>2026-04-23T11:16:29.999Z</time></trkpt><trkpt lat="42.32812543250985" lon="13.698077098503363"><ele>1281.0</ele><time>2026-04-23T11:16:31.999Z</time></trkpt><trkpt lat="42.32809023625113" lon="13.697983997856735"><ele>1281.0</ele><time>2026-04-23T11:16:32.999Z</time></trkpt><trkpt lat="42.328047467643664" lon="13.697898209037842"><ele>1281.0</ele><time>2026-04-23T11:16:33.999Z</time></trkpt><trkpt lat="42.32798838201726" lon="13.69781406308883"><ele>1281.0</ele><time>2026-04-23T11:16:34.999Z</time></trkpt><trkpt lat="42.32791550185753" lon="13.697735837321508"><ele>1280.8</ele><time>2026-04-23T11:16:35.999Z</time></trkpt><trkpt lat="42.327840578046015" lon="13.697650838409665"><ele>1280.6</ele><time>2026-04-23T11:16:36.999Z</time></trkpt><trkpt lat="42.327772828880406" lon="13.697554229295301"><ele>1280.4</ele><time>2026-04-23T11:16:37.999Z</time></trkpt><trkpt lat="42.32770918483727" lon="13.697437139238744"><ele>1280.2</ele><time>2026-04-23T11:16:38.999Z</time></trkpt><trkpt lat="42.32764640203294" lon="13.697298333565005"><ele>1280.0</ele><time>2026-04-23T11:16:39.999Z</time></trkpt><trkpt lat="42.32758816059223" lon="13.697143182761142"><ele>1280.0</ele><time>2026-04-23T11:16:40.999Z</time></trkpt><trkpt lat="42.3275322142023" lon="13.696977682929111"><ele>1280.0</ele><time>2026-04-23T11:16:41.999Z</time></trkpt><trkpt lat="42.32747960656925" lon="13.696805457734989"><ele>1280.0</ele><time>2026-04-23T11:16:42.999Z</time></trkpt><trkpt lat="42.32742850270077" lon="13.69661868208018"><ele>1280.0</ele><time>2026-04-23T11:16:43.999Z</time></trkpt><trkpt lat="42.32738379255759" lon="13.696422471437742"><ele>1282.75</ele><time>2026-04-23T11:16:44.999Z</time></trkpt><trkpt lat="42.32734165740977" lon="13.696241747112865"><ele>1285.5</ele><time>2026-04-23T11:16:45.999Z</time></trkpt><trkpt lat="42.32728962141292" lon="13.696067953026063"><ele>1288.25</ele><time>2026-04-23T11:16:46.999Z</time></trkpt><trkpt lat="42.327229406726225" lon="13.695905194150576"><ele>1291.0</ele><time>2026-04-23T11:16:47.999Z</time></trkpt><trkpt lat="42.327166136662086" lon="13.69574920947687"><ele>1287.0</ele><time>2026-04-23T11:16:48.999Z</time></trkpt><trkpt lat="42.32709783106259" lon="13.69560339940945"><ele>1283.0</ele><time>2026-04-23T11:16:49.999Z</time></trkpt><trkpt lat="42.32702392727528" lon="13.695468250836637"><ele>1279.0</ele><time>2026-04-23T11:16:50.999Z</time></trkpt><trkpt lat="42.32694417287002" lon="13.695339246560033"><ele>1275.0</ele><time>2026-04-23T11:16:51.999Z</time></trkpt><trkpt lat="42.32686155885765" lon="13.695209439652803"><ele>1275.0</ele><time>2026-04-23T11:16:52.999Z</time></trkpt><trkpt lat="42.32678355131974" lon="13.695072940261847"><ele>1275.0</ele><time>2026-04-23T11:16:53.999Z</time></trkpt><trkpt lat="42.32671197027817" lon="13.694925568544154"><ele>1275.0</ele><time>2026-04-23T11:16:54.999Z</time></trkpt><trkpt lat="42.32664236558007" lon="13.694767474471812"><ele>1275.0</ele><time>2026-04-23T11:16:55.999Z</time></trkpt><trkpt lat="42.32657122185991" lon="13.69460435738228"><ele>1275.0</ele><time>2026-04-23T11:16:56.999Z</time></trkpt><trkpt lat="42.32649861615302" lon="13.694425349357914"><ele>1275.0</ele><time>2026-04-23T11:16:57.999Z</time></trkpt><trkpt lat="42.32642293148479" lon="13.694235107659528"><ele>1275.0</ele><time>2026-04-23T11:16:58.999Z</time></trkpt><trkpt lat="42.326349139261644" lon="13.694037032087463"><ele>1268.6666666666667</ele><time>2026-04-23T11:16:59.999Z</time></trkpt><trkpt lat="42.32628025929879" lon="13.693821939098715"><ele>1262.3333333333335</ele><time>2026-04-23T11:17:00.999Z</time></trkpt><trkpt lat="42.32621289983883" lon="13.69360186076138"><ele>1256.0</ele><time>2026-04-23T11:17:01.999Z</time></trkpt><trkpt lat="42.326149004176074" lon="13.693388853776714"><ele>1256.0</ele><time>2026-04-23T11:17:02.999Z</time></trkpt><trkpt lat="42.326091575819575" lon="13.693185842059963"><ele>1256.0</ele><time>2026-04-23T11:17:03.999Z</time></trkpt><trkpt lat="42.32604320733428" lon="13.693006769310848"><ele>1256.0</ele><time>2026-04-23T11:17:04.999Z</time></trkpt><trkpt lat="42.32600139889722" lon="13.692841609604988"><ele>1256.0</ele><time>2026-04-23T11:17:05.999Z</time></trkpt><trkpt lat="42.325970578144386" lon="13.692693582866584"><ele>1257.3999999999999</ele><time>2026-04-23T11:17:06.999Z</time></trkpt><trkpt lat="42.325952852362015" lon="13.692555415084206"><ele>1258.8</ele><time>2026-04-23T11:17:07.999Z</time></trkpt><trkpt lat="42.32594237953107" lon="13.692434497407419"><ele>1260.1999999999998</ele><time>2026-04-23T11:17:08.999Z</time></trkpt><trkpt lat="42.325929375942835" lon="13.692341137208352"><ele>1261.6</ele><time>2026-04-23T11:17:09.999Z</time></trkpt><trkpt lat="42.32585241166487" lon="13.692256164444007"><ele>1263.0</ele><time>2026-04-23T11:17:11.999Z</time></trkpt><trkpt lat="42.325774504287814" lon="13.692357131719149"><ele>1263.0</ele><time>2026-04-23T11:17:13.999Z</time></trkpt><trkpt lat="42.32582910496157" lon="13.692594176194905"><ele>1263.0</ele><time>2026-04-23T11:17:15.999Z</time></trkpt><trkpt lat="42.325857165968145" lon="13.692752447593627"><ele>1263.0</ele><time>2026-04-23T11:17:16.999Z</time></trkpt><trkpt lat="42.325880990824935" lon="13.69291500021442"><ele>1263.0</ele><time>2026-04-23T11:17:17.999Z</time></trkpt><trkpt lat="42.325903997934915" lon="13.693070931767227"><ele>1261.6</ele><time>2026-04-23T11:17:18.999Z</time></trkpt><trkpt lat="42.325923318498766" lon="13.693218967946814"><ele>1260.1999999999998</ele><time>2026-04-23T11:17:19.999Z</time></trkpt><trkpt lat="42.32593974619568" lon="13.69335911499704"><ele>1258.8</ele><time>2026-04-23T11:17:20.999Z</time></trkpt><trkpt lat="42.32595532462228" lon="13.6934945144996"><ele>1257.3999999999999</ele><time>2026-04-23T11:17:21.999Z</time></trkpt><trkpt lat="42.32597120302055" lon="13.69362505410539"><ele>1256.0</ele><time>2026-04-23T11:17:22.999Z</time></trkpt><trkpt lat="42.3259861108492" lon="13.693750485103305"><ele>1254.2</ele><time>2026-04-23T11:17:23.999Z</time></trkpt><trkpt lat="42.32600181942162" lon="13.693875805217075"><ele>1252.3999999999999</ele><time>2026-04-23T11:17:24.999Z</time></trkpt><trkpt lat="42.32601684405003" lon="13.694004671151204"><ele>1250.6</ele><time>2026-04-23T11:17:25.999Z</time></trkpt><trkpt lat="42.32603246005457" lon="13.69413624327199"><ele>1248.8</ele><time>2026-04-23T11:17:26.999Z</time></trkpt><trkpt lat="42.326050977841" lon="13.694280149939734"><ele>1247.0</ele><time>2026-04-23T11:17:27.999Z</time></trkpt><trkpt lat="42.326078953245734" lon="13.694430139402161"><ele>1244.25</ele><time>2026-04-23T11:17:28.999Z</time></trkpt><trkpt lat="42.32611199373443" lon="13.69458793761108"><ele>1241.5</ele><time>2026-04-23T11:17:29.999Z</time></trkpt><trkpt lat="42.32614696905057" lon="13.69475401254367"><ele>1238.75</ele><time>2026-04-23T11:17:30.999Z</time></trkpt><trkpt lat="42.32618782021888" lon="13.694923536210263"><ele>1236.0</ele><time>2026-04-23T11:17:31.999Z</time></trkpt><trkpt lat="42.32623482262162" lon="13.69509545586499"><ele>1232.5</ele><time>2026-04-23T11:17:33Z</time></trkpt><trkpt lat="42.32628830269901" lon="13.695272472510908"><ele>1229.0</ele><time>2026-04-23T11:17:34Z</time></trkpt><trkpt lat="42.32634654757939" lon="13.695453057496888"><ele>1225.5</ele><time>2026-04-23T11:17:35Z</time></trkpt><trkpt lat="42.326412040555084" lon="13.69563377058469"><ele>1222.0</ele><time>2026-04-23T11:17:36Z</time></trkpt><trkpt lat="42.32647265152284" lon="13.6958127004225"><ele>1229.25</ele><time>2026-04-23T11:17:37Z</time></trkpt><trkpt lat="42.326515942630294" lon="13.695989603905648"><ele>1236.5</ele><time>2026-04-23T11:17:38Z</time></trkpt><trkpt lat="42.326540593974414" lon="13.696165386620864"><ele>1243.75</ele><time>2026-04-23T11:17:39Z</time></trkpt><trkpt lat="42.326547863357796" lon="13.696336966420086"><ele>1251.0</ele><time>2026-04-23T11:17:40Z</time></trkpt><trkpt lat="42.32654526739378" lon="13.69650127226811"><ele>1251.0</ele><time>2026-04-23T11:17:41Z</time></trkpt><trkpt lat="42.32654838775033" lon="13.696664805900014"><ele>1251.0</ele><time>2026-04-23T11:17:42Z</time></trkpt><trkpt lat="42.326558250189166" lon="13.696832540944978"><ele>1251.0</ele><time>2026-04-23T11:17:43Z</time></trkpt><trkpt lat="42.32657500957755" lon="13.697008642140645"><ele>1251.0</ele><time>2026-04-23T11:17:44Z</time></trkpt><trkpt lat="42.326603279074526" lon="13.697188342870426"><ele>1248.25</ele><time>2026-04-23T11:17:45Z</time></trkpt><trkpt lat="42.3266376811796" lon="13.697371203105366"><ele>1245.5</ele><time>2026-04-23T11:17:46Z</time></trkpt><trkpt lat="42.326675486190794" lon="13.69755693426259"><ele>1242.75</ele><time>2026-04-23T11:17:47Z</time></trkpt><trkpt lat="42.32671862420486" lon="13.697748324103864"><ele>1240.0</ele><time>2026-04-23T11:17:48Z</time></trkpt><trkpt lat="42.32676268931254" lon="13.697944420189925"><ele>1236.0</ele><time>2026-04-23T11:17:49Z</time></trkpt><trkpt lat="42.32680578536861" lon="13.698146419321837"><ele>1232.0</ele><time>2026-04-23T11:17:50Z</time></trkpt><trkpt lat="42.32685124116777" lon="13.698348829158085"><ele>1228.0</ele><time>2026-04-23T11:17:51Z</time></trkpt><trkpt lat="42.326902173938066" lon="13.698537327753177"><ele>1224.3333333333333</ele><time>2026-04-23T11:17:52Z</time></trkpt><trkpt lat="42.32695861883638" lon="13.698715846906156"><ele>1220.6666666666667</ele><time>2026-04-23T11:17:53Z</time></trkpt><trkpt lat="42.32701977632483" lon="13.69888959387393"><ele>1217.0</ele><time>2026-04-23T11:17:54Z</time></trkpt><trkpt lat="42.32714494675721" lon="13.699234736052915"><ele>1217.0</ele><time>2026-04-23T11:17:56Z</time></trkpt><trkpt lat="42.327208905111796" lon="13.699414812985301"><ele>1217.0</ele><time>2026-04-23T11:17:57Z</time></trkpt><trkpt lat="42.32727590095994" lon="13.699593668657007"><ele>1217.0</ele><time>2026-04-23T11:17:58Z</time></trkpt><trkpt lat="42.32734403505875" lon="13.699772823648201"><ele>1217.0</ele><time>2026-04-23T11:17:59Z</time></trkpt><trkpt lat="42.32740843788752" lon="13.699947877672347"><ele>1217.5</ele><time>2026-04-23T11:18:00Z</time></trkpt><trkpt lat="42.3274717016972" lon="13.700122140584527"><ele>1218.0</ele><time>2026-04-23T11:18:01Z</time></trkpt><trkpt lat="42.32753865557592" lon="13.700294895621774"><ele>1218.5</ele><time>2026-04-23T11:18:02Z</time></trkpt><trkpt lat="42.32761016750784" lon="13.700464863236968"><ele>1219.0</ele><time>2026-04-23T11:18:03Z</time></trkpt><trkpt lat="42.32767711230747" lon="13.700635588764522"><ele>1219.0</ele><time>2026-04-23T11:18:04Z</time></trkpt><trkpt lat="42.32773630125878" lon="13.700809526927305"><ele>1219.0</ele><time>2026-04-23T11:18:05Z</time></trkpt><trkpt lat="42.3277887256028" lon="13.700983654118216"><ele>1219.0</ele><time>2026-04-23T11:18:06Z</time></trkpt><trkpt lat="42.327827317785776" lon="13.70115921261631"><ele>1219.0</ele><time>2026-04-23T11:18:07Z</time></trkpt><trkpt lat="42.32785729057301" lon="13.70133999048563"><ele>1218.25</ele><time>2026-04-23T11:18:08Z</time></trkpt><trkpt lat="42.32786101133259" lon="13.701500310051568"><ele>1217.5</ele><time>2026-04-23T11:18:09Z</time></trkpt><trkpt lat="42.327858803566556" lon="13.701670098238125"><ele>1216.75</ele><time>2026-04-23T11:18:10Z</time></trkpt><trkpt lat="42.32784869265697" lon="13.701835885668551"><ele>1216.0</ele><time>2026-04-23T11:18:11Z</time></trkpt><trkpt lat="42.32783577258324" lon="13.701982170575992"><ele>1216.0</ele><time>2026-04-23T11:18:12Z</time></trkpt><trkpt lat="42.327825604869595" lon="13.702105518827375"><ele>1216.0</ele><time>2026-04-23T11:18:13Z</time></trkpt><trkpt lat="42.32781607599832" lon="13.70220651724443"><ele>1216.0</ele><time>2026-04-23T11:18:14Z</time></trkpt><trkpt lat="42.32777809479923" lon="13.702331811722912"><ele>1216.0</ele><time>2026-04-23T11:18:16Z</time></trkpt><trkpt lat="42.32769329545575" lon="13.702395018310693"><ele>1216.0</ele><time>2026-04-23T11:18:18Z</time></trkpt><trkpt lat="42.32762390173132" lon="13.702399211124206"><ele>1216.0</ele><time>2026-04-23T11:18:19Z</time></trkpt><trkpt lat="42.327543419839955" lon="13.70238515559229"><ele>1216.0</ele><time>2026-04-23T11:18:20Z</time></trkpt><trkpt lat="42.327446980373026" lon="13.70236009741169"><ele>1216.0</ele><time>2026-04-23T11:18:21Z</time></trkpt><trkpt lat="42.32733841430373" lon="13.702333811981086"><ele>1216.0</ele><time>2026-04-23T11:18:22Z</time></trkpt><trkpt lat="42.32721715751581" lon="13.702301982336298"><ele>1216.0</ele><time>2026-04-23T11:18:23Z</time></trkpt><trkpt lat="42.327086489698765" lon="13.702261209879776"><ele>1215.5</ele><time>2026-04-23T11:18:24Z</time></trkpt><trkpt lat="42.32695320440796" lon="13.702218432623285"><ele>1215.0</ele><time>2026-04-23T11:18:25Z</time></trkpt><trkpt lat="42.32682423723951" lon="13.70217507806995"><ele>1214.5</ele><time>2026-04-23T11:18:26Z</time></trkpt><trkpt lat="42.3266968305994" lon="13.702135724943602"><ele>1214.0</ele><time>2026-04-23T11:18:27Z</time></trkpt><trkpt lat="42.3265731761873" lon="13.702093377045665"><ele>1214.0</ele><time>2026-04-23T11:18:28Z</time></trkpt><trkpt lat="42.32646307903028" lon="13.70202691088939"><ele>1214.0</ele><time>2026-04-23T11:18:29Z</time></trkpt><trkpt lat="42.32636634181328" lon="13.701924417500736"><ele>1214.0</ele><time>2026-04-23T11:18:30Z</time></trkpt><trkpt lat="42.32627556345605" lon="13.70178775163296"><ele>1214.0</ele><time>2026-04-23T11:18:31Z</time></trkpt><trkpt lat="42.32617904579689" lon="13.701641660675351"><ele>1211.5</ele><time>2026-04-23T11:18:32Z</time></trkpt><trkpt lat="42.32608201441135" lon="13.701505378405383"><ele>1209.0</ele><time>2026-04-23T11:18:33Z</time></trkpt><trkpt lat="42.32599761186195" lon="13.701385315631269"><ele>1206.5</ele><time>2026-04-23T11:18:34Z</time></trkpt><trkpt lat="42.325920656005124" lon="13.701272267574215"><ele>1204.0</ele><time>2026-04-23T11:18:35Z</time></trkpt><trkpt lat="42.325856163324026" lon="13.701168627570251"><ele>1204.0</ele><time>2026-04-23T11:18:36Z</time></trkpt><trkpt lat="42.325819483749726" lon="13.701093600312388"><ele>1204.0</ele><time>2026-04-23T11:18:37Z</time></trkpt><trkpt lat="42.32575395706046" lon="13.700950774398033"><ele>1204.0</ele><time>2026-04-23T11:18:39Z</time></trkpt><trkpt lat="42.325708232353094" lon="13.700891236779452"><ele>1204.0</ele><time>2026-04-23T11:18:40Z</time></trkpt><trkpt lat="42.32564643435966" lon="13.70082572268644"><ele>1204.0</ele><time>2026-04-23T11:18:41Z</time></trkpt><trkpt lat="42.325575024196354" lon="13.70075376459692"><ele>1204.0</ele><time>2026-04-23T11:18:42Z</time></trkpt><trkpt lat="42.32549445226227" lon="13.70067309521235"><ele>1202.2</ele><time>2026-04-23T11:18:43Z</time></trkpt><trkpt lat="42.32541337137284" lon="13.700606565085385"><ele>1200.4</ele><time>2026-04-23T11:18:44Z</time></trkpt><trkpt lat="42.325348661920685" lon="13.700555580167853"><ele>1198.6</ele><time>2026-04-23T11:18:45Z</time></trkpt><trkpt lat="42.325287841931456" lon="13.700506969436303"><ele>1196.8</ele><time>2026-04-23T11:18:46Z</time></trkpt><trkpt lat="42.32522049542624" lon="13.70038295123582"><ele>1195.0</ele><time>2026-04-23T11:18:47.999Z</time></trkpt><trkpt lat="42.325278504564366" lon="13.700268058053405"><ele>1195.0</ele><time>2026-04-23T11:18:49.999Z</time></trkpt><trkpt lat="42.32534493079409" lon="13.70024803156607"><ele>1195.0</ele><time>2026-04-23T11:18:50.999Z</time></trkpt><trkpt lat="42.325418920712295" lon="13.70027292794842"><ele>1195.0</ele><time>2026-04-23T11:18:51.999Z</time></trkpt><trkpt lat="42.325489355836766" lon="13.700325198902647"><ele>1195.0</ele><time>2026-04-23T11:18:52.999Z</time></trkpt><trkpt lat="42.325548769276814" lon="13.700404656541714"><ele>1195.0</ele><time>2026-04-23T11:18:53.999Z</time></trkpt><trkpt lat="42.32559375177937" lon="13.7004888904658"><ele>1195.0</ele><time>2026-04-23T11:18:54.999Z</time></trkpt><trkpt lat="42.32568283395243" lon="13.700593208145964"><ele>1195.0</ele><time>2026-04-23T11:18:56.999Z</time></trkpt><trkpt lat="42.32579290768791" lon="13.700613194001207"><ele>1195.0</ele><time>2026-04-23T11:18:58.999Z</time></trkpt><trkpt lat="42.325861822963795" lon="13.700547493585693"><ele>1195.0</ele><time>2026-04-23T11:19:00.999Z</time></trkpt><trkpt lat="42.325873731791674" lon="13.70045790504879"><ele>1195.0</ele><time>2026-04-23T11:19:02.999Z</time></trkpt><trkpt lat="42.325772977090736" lon="13.700318531083857"><ele>1195.0</ele><time>2026-04-23T11:19:04.999Z</time></trkpt><trkpt lat="42.325693175859804" lon="13.700249409359945"><ele>1193.6</ele><time>2026-04-23T11:19:05.999Z</time></trkpt><trkpt lat="42.32561494640433" lon="13.700170744006977"><ele>1192.2</ele><time>2026-04-23T11:19:06.999Z</time></trkpt><trkpt lat="42.32553179536544" lon="13.700082954811641"><ele>1190.8</ele><time>2026-04-23T11:19:07.999Z</time></trkpt><trkpt lat="42.325437538210686" lon="13.69999206680203"><ele>1189.4</ele><time>2026-04-23T11:19:08.999Z</time></trkpt><trkpt lat="42.32533893483325" lon="13.699897241981873"><ele>1188.0</ele><time>2026-04-23T11:19:09.999Z</time></trkpt><trkpt lat="42.325244813947606" lon="13.699797637303481"><ele>1187.25</ele><time>2026-04-23T11:19:10.999Z</time></trkpt><trkpt lat="42.32515222728105" lon="13.699695590060038"><ele>1186.5</ele><time>2026-04-23T11:19:11.999Z</time></trkpt><trkpt lat="42.32505597977082" lon="13.699593907383088"><ele>1185.75</ele><time>2026-04-23T11:19:12.999Z</time></trkpt><trkpt lat="42.32495692606759" lon="13.699493167602387"><ele>1185.0</ele><time>2026-04-23T11:19:13.999Z</time></trkpt><trkpt lat="42.3248528744613" lon="13.699399526142017"><ele>1181.75</ele><time>2026-04-23T11:19:14.999Z</time></trkpt><trkpt lat="42.324742072212004" lon="13.699321980919809"><ele>1178.5</ele><time>2026-04-23T11:19:15.999Z</time></trkpt><trkpt lat="42.3246266199808" lon="13.699248691652922"><ele>1175.25</ele><time>2026-04-23T11:19:16.999Z</time></trkpt><trkpt lat="42.32451300734452" lon="13.699169640104959"><ele>1172.0</ele><time>2026-04-23T11:19:17.999Z</time></trkpt><trkpt lat="42.324402343876315" lon="13.69909155159366"><ele>1171.8</ele><time>2026-04-23T11:19:18.999Z</time></trkpt><trkpt lat="42.32429842923715" lon="13.699010481603828"><ele>1171.6</ele><time>2026-04-23T11:19:19.999Z</time></trkpt><trkpt lat="42.32421249450712" lon="13.698907547337422"><ele>1171.3999999999999</ele><time>2026-04-23T11:19:20.999Z</time></trkpt><trkpt lat="42.32415324113277" lon="13.698792272709582"><ele>1171.2</ele><time>2026-04-23T11:19:21.999Z</time></trkpt><trkpt lat="42.32410853933731" lon="13.698677661116367"><ele>1171.0</ele><time>2026-04-23T11:19:22.999Z</time></trkpt><trkpt lat="42.32405962459297" lon="13.69857040535496"><ele>1170.6</ele><time>2026-04-23T11:19:23.999Z</time></trkpt><trkpt lat="42.32400670503013" lon="13.69846575862459"><ele>1170.1999999999998</ele><time>2026-04-23T11:19:24.999Z</time></trkpt><trkpt lat="42.32394466948597" lon="13.698356976704929"><ele>1169.8000000000002</ele><time>2026-04-23T11:19:25.999Z</time></trkpt><trkpt lat="42.3238686466813" lon="13.698243417648918"><ele>1169.4</ele><time>2026-04-23T11:19:26.999Z</time></trkpt><trkpt lat="42.323782100532334" lon="13.69812857291947"><ele>1169.0</ele><time>2026-04-23T11:19:27.999Z</time></trkpt><trkpt lat="42.323695324955544" lon="13.69800892959612"><ele>1169.0</ele><time>2026-04-23T11:19:28.999Z</time></trkpt><trkpt lat="42.32360375668023" lon="13.697878206861132"><ele>1169.0</ele><time>2026-04-23T11:19:29.999Z</time></trkpt><trkpt lat="42.32350077965001" lon="13.697747289594117"><ele>1169.0</ele><time>2026-04-23T11:19:30.999Z</time></trkpt><trkpt lat="42.32338386352492" lon="13.69761932705813"><ele>1169.0</ele><time>2026-04-23T11:19:31.999Z</time></trkpt><trkpt lat="42.323257021477" lon="13.697499053164222"><ele>1165.3333333333335</ele><time>2026-04-23T11:19:32.999Z</time></trkpt><trkpt lat="42.32312088008812" lon="13.697383591820849"><ele>1161.6666666666667</ele><time>2026-04-23T11:19:33.999Z</time></trkpt><trkpt lat="42.32297700195472" lon="13.697262507712205"><ele>1158.0</ele><time>2026-04-23T11:19:34.999Z</time></trkpt><trkpt lat="42.32283549168683" lon="13.69714082053241"><ele>1158.0</ele><time>2026-04-23T11:19:35.999Z</time></trkpt><trkpt lat="42.32269951203958" lon="13.697021529821102"><ele>1158.0</ele><time>2026-04-23T11:19:36.999Z</time></trkpt><trkpt lat="42.32256216733005" lon="13.696902229012048"><ele>1158.0</ele><time>2026-04-23T11:19:38Z</time></trkpt><trkpt lat="42.32242225177814" lon="13.696794111330268"><ele>1153.0</ele><time>2026-04-23T11:19:39Z</time></trkpt><trkpt lat="42.32227137466483" lon="13.696714402982783"><ele>1148.0</ele><time>2026-04-23T11:19:40Z</time></trkpt><trkpt lat="42.32211419779662" lon="13.69666010559865"><ele>1143.0</ele><time>2026-04-23T11:19:41Z</time></trkpt><trkpt lat="42.32195993598391" lon="13.69662028921011"><ele>1142.6</ele><time>2026-04-23T11:19:42Z</time></trkpt><trkpt lat="42.321819302925874" lon="13.696577622177278"><ele>1142.1999999999998</ele><time>2026-04-23T11:19:43Z</time></trkpt><trkpt lat="42.321718130623694" lon="13.69654505763594"><ele>1141.8</ele><time>2026-04-23T11:19:44Z</time></trkpt><trkpt lat="42.32165143329474" lon="13.696518948156205"><ele>1141.3999999999999</ele><time>2026-04-23T11:19:45Z</time></trkpt><trkpt lat="42.32158295860423" lon="13.696479654359077"><ele>1141.0</ele><time>2026-04-23T11:19:54Z</time></trkpt><trkpt lat="42.32150359858376" lon="13.696481695816004"><ele>1139.8</ele><time>2026-04-23T11:20:21Z</time></trkpt><trkpt lat="42.321367983121625" lon="13.696455255236033"><ele>1138.6</ele><time>2026-04-23T11:20:23Z</time></trkpt><trkpt lat="42.321280576776516" lon="13.696444267912634"><ele>1137.4</ele><time>2026-04-23T11:20:24Z</time></trkpt><trkpt lat="42.32117365252898" lon="13.696424404984567"><ele>1136.2</ele><time>2026-04-23T11:20:25Z</time></trkpt><trkpt lat="42.32106490617755" lon="13.696412065689058"><ele>1135.0</ele><time>2026-04-23T11:20:26Z</time></trkpt><trkpt lat="42.320947141066135" lon="13.696414948109464"><ele>1135.0</ele><time>2026-04-23T11:20:27Z</time></trkpt><trkpt lat="42.32081788795053" lon="13.696433812676885"><ele>1135.0</ele><time>2026-04-23T11:20:28Z</time></trkpt><trkpt lat="42.32068414184951" lon="13.696469323708605"><ele>1135.0</ele><time>2026-04-23T11:20:29Z</time></trkpt><trkpt lat="42.320550674000955" lon="13.696532490084484"><ele>1135.0</ele><time>2026-04-23T11:20:30Z</time></trkpt><trkpt lat="42.320412411281566" lon="13.696636984120948"><ele>1135.0</ele><time>2026-04-23T11:20:31Z</time></trkpt><trkpt lat="42.32026906757686" lon="13.696763994316532"><ele>1135.0</ele><time>2026-04-23T11:20:32Z</time></trkpt><trkpt lat="42.320124303863224" lon="13.696897259988233"><ele>1135.0</ele><time>2026-04-23T11:20:33Z</time></trkpt><trkpt lat="42.31997485855858" lon="13.697042824625033"><ele>1135.0</ele><time>2026-04-23T11:20:34Z</time></trkpt><trkpt lat="42.31983199319602" lon="13.697208132058478"><ele>1135.0</ele><time>2026-04-23T11:20:35Z</time></trkpt><trkpt lat="42.319693512432764" lon="13.697392557900265"><ele>1135.0</ele><time>2026-04-23T11:20:36Z</time></trkpt><trkpt lat="42.31956095894935" lon="13.697590119336704"><ele>1128.3333333333333</ele><time>2026-04-23T11:20:37Z</time></trkpt><trkpt lat="42.319431577390326" lon="13.697804276996926"><ele>1121.6666666666667</ele><time>2026-04-23T11:20:38Z</time></trkpt><trkpt lat="42.319304026998154" lon="13.698027818298689"><ele>1115.0</ele><time>2026-04-23T11:20:39Z</time></trkpt><trkpt lat="42.31917565675562" lon="13.698254238019913"><ele>1115.0</ele><time>2026-04-23T11:20:40Z</time></trkpt><trkpt lat="42.31904862305062" lon="13.698484269727032"><ele>1115.0</ele><time>2026-04-23T11:20:41Z</time></trkpt><trkpt lat="42.31892495712724" lon="13.698710309905998"><ele>1115.0</ele><time>2026-04-23T11:20:42Z</time></trkpt><trkpt lat="42.31879448019188" lon="13.698932241571544"><ele>1113.6666666666667</ele><time>2026-04-23T11:20:43Z</time></trkpt><trkpt lat="42.318655624509745" lon="13.699147656589073"><ele>1112.3333333333333</ele><time>2026-04-23T11:20:44Z</time></trkpt><trkpt lat="42.318521908728954" lon="13.699366305989278"><ele>1111.0</ele><time>2026-04-23T11:20:45Z</time></trkpt><trkpt lat="42.31839773126256" lon="13.699592889276088"><ele>1111.0</ele><time>2026-04-23T11:20:46Z</time></trkpt><trkpt lat="42.318282806413116" lon="13.699826220022727"><ele>1111.0</ele><time>2026-04-23T11:20:47Z</time></trkpt><trkpt lat="42.31816633432669" lon="13.70005992998611"><ele>1111.0</ele><time>2026-04-23T11:20:48Z</time></trkpt><trkpt lat="42.318042204697385" lon="13.700286832133152"><ele>1102.6666666666665</ele><time>2026-04-23T11:20:49Z</time></trkpt><trkpt lat="42.317911746366285" lon="13.700508852231486"><ele>1094.3333333333333</ele><time>2026-04-23T11:20:50Z</time></trkpt><trkpt lat="42.31777583281586" lon="13.700733448184659"><ele>1086.0</ele><time>2026-04-23T11:20:51Z</time></trkpt><trkpt lat="42.31764733719025" lon="13.700964528944354"><ele>1091.0</ele><time>2026-04-23T11:20:52Z</time></trkpt><trkpt lat="42.31752554834325" lon="13.701206223392782"><ele>1096.0</ele><time>2026-04-23T11:20:53Z</time></trkpt><trkpt lat="42.31740690844693" lon="13.701450210966943"><ele>1101.0</ele><time>2026-04-23T11:20:54Z</time></trkpt><trkpt lat="42.31728984177422" lon="13.70169710715539"><ele>1091.6666666666667</ele><time>2026-04-23T11:20:55Z</time></trkpt><trkpt lat="42.31717722628972" lon="13.701948203613044"><ele>1082.3333333333335</ele><time>2026-04-23T11:20:56Z</time></trkpt><trkpt lat="42.31707288040487" lon="13.702203026064034"><ele>1073.0</ele><time>2026-04-23T11:20:57Z</time></trkpt><trkpt lat="42.31696439554973" lon="13.702457910454187"><ele>1073.0</ele><time>2026-04-23T11:20:58Z</time></trkpt><trkpt lat="42.31685130671003" lon="13.702710513526412"><ele>1073.0</ele><time>2026-04-23T11:20:58.999Z</time></trkpt><trkpt lat="42.31673186710182" lon="13.702958454256526"><ele>1073.0</ele><time>2026-04-23T11:20:59.999Z</time></trkpt><trkpt lat="42.316610843421664" lon="13.703201888308367"><ele>1077.6666666666667</ele><time>2026-04-23T11:21:00.999Z</time></trkpt><trkpt lat="42.31649420644158" lon="13.703445469057726"><ele>1082.3333333333333</ele><time>2026-04-23T11:21:01.999Z</time></trkpt><trkpt lat="42.31637661292225" lon="13.703692867603325"><ele>1087.0</ele><time>2026-04-23T11:21:02.999Z</time></trkpt><trkpt lat="42.31626053699245" lon="13.703938659305123"><ele>1081.6666666666665</ele><time>2026-04-23T11:21:03.999Z</time></trkpt><trkpt lat="42.31614536719001" lon="13.704187384590027"><ele>1076.3333333333333</ele><time>2026-04-23T11:21:04.999Z</time></trkpt><trkpt lat="42.31602995279048" lon="13.704438800406901"><ele>1071.0</ele><time>2026-04-23T11:21:05.999Z</time></trkpt><trkpt lat="42.31591675256276" lon="13.704690470769538"><ele>1071.0</ele><time>2026-04-23T11:21:06.999Z</time></trkpt><trkpt lat="42.31569456719827" lon="13.705185501471739"><ele>1071.0</ele><time>2026-04-23T11:21:08.999Z</time></trkpt><trkpt lat="42.315597513557975" lon="13.705426403314792"><ele>1063.3333333333333</ele><time>2026-04-23T11:21:09.999Z</time></trkpt><trkpt lat="42.31550952534013" lon="13.705670337546097"><ele>1055.6666666666665</ele><time>2026-04-23T11:21:10.999Z</time></trkpt><trkpt lat="42.31543116906158" lon="13.705914693133005"><ele>1048.0</ele><time>2026-04-23T11:21:11.999Z</time></trkpt><trkpt lat="42.31536811334991" lon="13.706151485753665"><ele>1048.0</ele><time>2026-04-23T11:21:12.999Z</time></trkpt><trkpt lat="42.31531678961913" lon="13.706378070094697"><ele>1048.0</ele><time>2026-04-23T11:21:13.999Z</time></trkpt><trkpt lat="42.31528633937977" lon="13.706592868392962"><ele>1048.0</ele><time>2026-04-23T11:21:14.999Z</time></trkpt><trkpt lat="42.315271374886514" lon="13.706793417777545"><ele>1048.2</ele><time>2026-04-23T11:21:15.999Z</time></trkpt><trkpt lat="42.31526609049777" lon="13.706969904365117"><ele>1048.4</ele><time>2026-04-23T11:21:16.999Z</time></trkpt><trkpt lat="42.315261805155956" lon="13.70711202729719"><ele>1048.6000000000001</ele><time>2026-04-23T11:21:17.999Z</time></trkpt><trkpt lat="42.315249169081206" lon="13.707228502234887"><ele>1048.8</ele><time>2026-04-23T11:21:18.999Z</time></trkpt><trkpt lat="42.31522505238305" lon="13.70731634755298"><ele>1049.0</ele><time>2026-04-23T11:21:19.999Z</time></trkpt><trkpt lat="42.31513053468403" lon="13.707389721915758"><ele>1049.0</ele><time>2026-04-23T11:21:21.999Z</time></trkpt><trkpt lat="42.31506106120762" lon="13.707284022277808"><ele>1049.0</ele><time>2026-04-23T11:21:23.999Z</time></trkpt><trkpt lat="42.31506356675246" lon="13.707177808961523"><ele>1049.0</ele><time>2026-04-23T11:21:24.999Z</time></trkpt><trkpt lat="42.31507919326155" lon="13.707039724886346"><ele>1049.0</ele><time>2026-04-23T11:21:25.999Z</time></trkpt><trkpt lat="42.31508396556386" lon="13.706879101816735"><ele>1049.0</ele><time>2026-04-23T11:21:26.999Z</time></trkpt><trkpt lat="42.315089905728435" lon="13.706713995759065"><ele>1048.75</ele><time>2026-04-23T11:21:27.999Z</time></trkpt><trkpt lat="42.31509517781524" lon="13.706527525323295"><ele>1048.5</ele><time>2026-04-23T11:21:28.999Z</time></trkpt><trkpt lat="42.31510026491721" lon="13.706325594610721"><ele>1048.25</ele><time>2026-04-23T11:21:29.999Z</time></trkpt><trkpt lat="42.31510711669234" lon="13.706117797199996"><ele>1048.0</ele><time>2026-04-23T11:21:30.999Z</time></trkpt><trkpt lat="42.31511697362433" lon="13.70590205409617"><ele>1046.6666666666665</ele><time>2026-04-23T11:21:31.999Z</time></trkpt><trkpt lat="42.315133269077236" lon="13.705674593667776"><ele>1045.3333333333333</ele><time>2026-04-23T11:21:32.999Z</time></trkpt><trkpt lat="42.31515898207026" lon="13.705447953747907"><ele>1044.0</ele><time>2026-04-23T11:21:33.999Z</time></trkpt><trkpt lat="42.315194645304196" lon="13.705221431169706"><ele>1041.0</ele><time>2026-04-23T11:21:34.999Z</time></trkpt><trkpt lat="42.31524177020895" lon="13.70499418228865"><ele>1038.0</ele><time>2026-04-23T11:21:35.999Z</time></trkpt><trkpt lat="42.31529901439376" lon="13.704761591669264"><ele>1035.0</ele><time>2026-04-23T11:21:36.999Z</time></trkpt><trkpt lat="42.31535979312289" lon="13.704525272031638"><ele>1031.3333333333333</ele><time>2026-04-23T11:21:37.999Z</time></trkpt><trkpt lat="42.315420110751454" lon="13.704288592175107"><ele>1027.6666666666665</ele><time>2026-04-23T11:21:38.999Z</time></trkpt><trkpt lat="42.315484803750685" lon="13.70404466680657"><ele>1024.0</ele><time>2026-04-23T11:21:39.999Z</time></trkpt><trkpt lat="42.315552490463325" lon="13.703794629876073"><ele>1032.0</ele><time>2026-04-23T11:21:40.999Z</time></trkpt><trkpt lat="42.315621316458966" lon="13.703543096133021"><ele>1040.0</ele><time>2026-04-23T11:21:41.999Z</time></trkpt><trkpt lat="42.31568810524118" lon="13.703290677924656"><ele>1048.0</ele><time>2026-04-23T11:21:42.999Z</time></trkpt><trkpt lat="42.315758045090845" lon="13.703034232332115"><ele>1048.0</ele><time>2026-04-23T11:21:44Z</time></trkpt><trkpt lat="42.31582565949532" lon="13.702778159341293"><ele>1048.0</ele><time>2026-04-23T11:21:45Z</time></trkpt><trkpt lat="42.31589491542207" lon="13.702520812676687"><ele>1048.0</ele><time>2026-04-23T11:21:46Z</time></trkpt><trkpt lat="42.31596415078107" lon="13.702260439888759"><ele>1044.3333333333333</ele><time>2026-04-23T11:21:47Z</time></trkpt><trkpt lat="42.316033542125425" lon="13.701996434079339"><ele>1040.6666666666667</ele><time>2026-04-23T11:21:48Z</time></trkpt><trkpt lat="42.31610424241752" lon="13.701730480330019"><ele>1037.0</ele><time>2026-04-23T11:21:49Z</time></trkpt><trkpt lat="42.316173897905365" lon="13.701467484336845"><ele>1031.3333333333335</ele><time>2026-04-23T11:21:50Z</time></trkpt><trkpt lat="42.31624084251312" lon="13.70121594512042"><ele>1025.6666666666667</ele><time>2026-04-23T11:21:51Z</time></trkpt><trkpt lat="42.316305543237114" lon="13.700974946914384"><ele>1020.0</ele><time>2026-04-23T11:21:52Z</time></trkpt><trkpt lat="42.31636997655631" lon="13.70074048156194"><ele>1023.6666666666667</ele><time>2026-04-23T11:21:53Z</time></trkpt><trkpt lat="42.316437309526464" lon="13.700511190825408"><ele>1027.3333333333335</ele><time>2026-04-23T11:21:54Z</time></trkpt><trkpt lat="42.316521308546825" lon="13.700301779291784"><ele>1031.0</ele><time>2026-04-23T11:21:55Z</time></trkpt><trkpt lat="42.316696153051645" lon="13.699979297927664"><ele>1031.0</ele><time>2026-04-23T11:21:57Z</time></trkpt><trkpt lat="42.316770960165705" lon="13.699853089773093"><ele>1031.0</ele><time>2026-04-23T11:21:58Z</time></trkpt><trkpt lat="42.316754884776145" lon="13.699689844610164"><ele>1031.0</ele><time>2026-04-23T11:22:00Z</time></trkpt><trkpt lat="42.3167172451424" lon="13.699619249501705"><ele>1031.0</ele><time>2026-04-23T11:22:01Z</time></trkpt><trkpt lat="42.316596637646626" lon="13.699624896686762"><ele>1031.0</ele><time>2026-04-23T11:22:03Z</time></trkpt><trkpt lat="42.316538719119066" lon="13.699717155954227"><ele>1031.0</ele><time>2026-04-23T11:22:04Z</time></trkpt><trkpt lat="42.316482614432154" lon="13.699861120460811"><ele>1031.0</ele><time>2026-04-23T11:22:05Z</time></trkpt><trkpt lat="42.31641744916489" lon="13.700014124127655"><ele>1031.0</ele><time>2026-04-23T11:22:06Z</time></trkpt><trkpt lat="42.31634279225782" lon="13.700181180587528"><ele>1031.0</ele><time>2026-04-23T11:22:07Z</time></trkpt><trkpt lat="42.31626442744521" lon="13.70036125106506"><ele>1023.6666666666667</ele><time>2026-04-23T11:22:08Z</time></trkpt><trkpt lat="42.31618483900601" lon="13.70055408994013"><ele>1016.3333333333333</ele><time>2026-04-23T11:22:09Z</time></trkpt><trkpt lat="42.31610154996688" lon="13.7007612167438"><ele>1009.0</ele><time>2026-04-23T11:22:10Z</time></trkpt><trkpt lat="42.31600978066877" lon="13.700976583242886"><ele>1012.6666666666666</ele><time>2026-04-23T11:22:11Z</time></trkpt><trkpt lat="42.31591476358674" lon="13.7011947216984"><ele>1016.3333333333333</ele><time>2026-04-23T11:22:12Z</time></trkpt><trkpt lat="42.31580670027738" lon="13.701417464660446"><ele>1020.0</ele><time>2026-04-23T11:22:13Z</time></trkpt><trkpt lat="42.31569286494231" lon="13.701644080569606"><ele>1020.0</ele><time>2026-04-23T11:22:14Z</time></trkpt><trkpt lat="42.315579055751826" lon="13.701872414429422"><ele>1020.0</ele><time>2026-04-23T11:22:15Z</time></trkpt><trkpt lat="42.31546361821705" lon="13.702105209742799"><ele>1020.0</ele><time>2026-04-23T11:22:16Z</time></trkpt><trkpt lat="42.315339572089236" lon="13.70233441061175"><ele>1018.0</ele><time>2026-04-23T11:22:17Z</time></trkpt><trkpt lat="42.315208552483" lon="13.702560059860954"><ele>1016.0</ele><time>2026-04-23T11:22:18Z</time></trkpt><trkpt lat="42.31507243543369" lon="13.702785947573036"><ele>1014.0</ele><time>2026-04-23T11:22:19Z</time></trkpt><trkpt lat="42.31493638873641" lon="13.703010959184166"><ele>1014.0</ele><time>2026-04-23T11:22:20Z</time></trkpt><trkpt lat="42.31480183573481" lon="13.703238046987638"><ele>1014.0</ele><time>2026-04-23T11:22:21Z</time></trkpt><trkpt lat="42.31468099182578" lon="13.703462728167782"><ele>1014.0</ele><time>2026-04-23T11:22:22Z</time></trkpt><trkpt lat="42.314571071787995" lon="13.703686735563316"><ele>1008.3333333333333</ele><time>2026-04-23T11:22:23Z</time></trkpt><trkpt lat="42.31447140218926" lon="13.703897886160691"><ele>1002.6666666666666</ele><time>2026-04-23T11:22:24Z</time></trkpt><trkpt lat="42.314382549493025" lon="13.704075258641288"><ele>997.0</ele><time>2026-04-23T11:22:25Z</time></trkpt><trkpt lat="42.31430740745634" lon="13.704219410774584"><ele>997.0</ele><time>2026-04-23T11:22:26Z</time></trkpt><trkpt lat="42.31424586718443" lon="13.704324732777295"><ele>997.0</ele><time>2026-04-23T11:22:27Z</time></trkpt><trkpt lat="42.3141939693306" lon="13.704403625247545"><ele>997.0</ele><time>2026-04-23T11:22:28Z</time></trkpt><trkpt lat="42.31413518218153" lon="13.70449030877013"><ele>997.0</ele><time>2026-04-23T11:22:29Z</time></trkpt><trkpt lat="42.314064062787764" lon="13.704595646833814"><ele>997.0</ele><time>2026-04-23T11:22:30Z</time></trkpt><trkpt lat="42.31399072385274" lon="13.704731742755989"><ele>999.6666666666666</ele><time>2026-04-23T11:22:31Z</time></trkpt><trkpt lat="42.31391179930762" lon="13.704890030401822"><ele>1002.3333333333333</ele><time>2026-04-23T11:22:32Z</time></trkpt><trkpt lat="42.31382908555999" lon="13.70506474255886"><ele>1005.0</ele><time>2026-04-23T11:22:33Z</time></trkpt><trkpt lat="42.31374457699" lon="13.70525169514248"><ele>999.3333333333333</ele><time>2026-04-23T11:22:34Z</time></trkpt><trkpt lat="42.31365953025601" lon="13.705453353119808"><ele>993.6666666666666</ele><time>2026-04-23T11:22:35Z</time></trkpt><trkpt lat="42.313577242219026" lon="13.70566915604918"><ele>988.0</ele><time>2026-04-23T11:22:36Z</time></trkpt><trkpt lat="42.31350457366779" lon="13.705902435954647"><ele>988.0</ele><time>2026-04-23T11:22:37Z</time></trkpt><trkpt lat="42.31343203197865" lon="13.70613703551363"><ele>988.0</ele><time>2026-04-23T11:22:38Z</time></trkpt><trkpt lat="42.313377322372276" lon="13.706368874375864"><ele>988.0</ele><time>2026-04-23T11:22:39Z</time></trkpt><trkpt lat="42.31332718291123" lon="13.70660491675586"><ele>988.0</ele><time>2026-04-23T11:22:40Z</time></trkpt><trkpt lat="42.31329504567001" lon="13.70685080195291"><ele>988.0</ele><time>2026-04-23T11:22:41Z</time></trkpt><trkpt lat="42.313282070944716" lon="13.707087982713546"><ele>988.0</ele><time>2026-04-23T11:22:42Z</time></trkpt><trkpt lat="42.313217867936046" lon="13.70734867570946"><ele>987.3333333333333</ele><time>2026-04-23T11:22:43Z</time></trkpt><trkpt lat="42.31318006334002" lon="13.707585158097215"><ele>986.6666666666667</ele><time>2026-04-23T11:22:44Z</time></trkpt><trkpt lat="42.31313185324102" lon="13.70780610181252"><ele>986.0</ele><time>2026-04-23T11:22:45Z</time></trkpt><trkpt lat="42.31308534346399" lon="13.708013971542023"><ele>983.25</ele><time>2026-04-23T11:22:46Z</time></trkpt><trkpt lat="42.31304274929696" lon="13.708207923466874"><ele>980.5</ele><time>2026-04-23T11:22:47Z</time></trkpt><trkpt lat="42.31302683727745" lon="13.708405256850686"><ele>977.75</ele><time>2026-04-23T11:22:48Z</time></trkpt><trkpt lat="42.313048374166335" lon="13.708606814213697"><ele>975.0</ele><time>2026-04-23T11:22:49Z</time></trkpt><trkpt lat="42.313105114307874" lon="13.708808830055405"><ele>975.0</ele><time>2026-04-23T11:22:50Z</time></trkpt><trkpt lat="42.31317899510655" lon="13.709016439271018"><ele>975.0</ele><time>2026-04-23T11:22:51Z</time></trkpt><trkpt lat="42.313250153296394" lon="13.709229269625313"><ele>975.0</ele><time>2026-04-23T11:22:52Z</time></trkpt><trkpt lat="42.31331546988739" lon="13.709450867967734"><ele>971.3333333333333</ele><time>2026-04-23T11:22:53Z</time></trkpt><trkpt lat="42.313372097798656" lon="13.70968663867362"><ele>967.6666666666666</ele><time>2026-04-23T11:22:54Z</time></trkpt><trkpt lat="42.31340198691308" lon="13.709936400767901"><ele>964.0</ele><time>2026-04-23T11:22:55Z</time></trkpt><trkpt lat="42.313415324893654" lon="13.710188809667798"><ele>960.0</ele><time>2026-04-23T11:22:56Z</time></trkpt><trkpt lat="42.31343984162094" lon="13.710438209155786"><ele>956.0</ele><time>2026-04-23T11:22:57Z</time></trkpt><trkpt lat="42.31348109751776" lon="13.710684061041244"><ele>952.0</ele><time>2026-04-23T11:22:58Z</time></trkpt><trkpt lat="42.31353798839327" lon="13.710921731970531"><ele>948.3333333333333</ele><time>2026-04-23T11:22:59Z</time></trkpt><trkpt lat="42.31360468818396" lon="13.711142193930982"><ele>944.6666666666667</ele><time>2026-04-23T11:23:00Z</time></trkpt><trkpt lat="42.31367983611172" lon="13.711333643393528"><ele>941.0</ele><time>2026-04-23T11:23:01Z</time></trkpt><trkpt lat="42.313761124926096" lon="13.711466369236385"><ele>941.0</ele><time>2026-04-23T11:23:02Z</time></trkpt><trkpt lat="42.31385604675735" lon="13.711557781824569"><ele>940.9999999999999</ele><time>2026-04-23T11:23:03Z</time></trkpt><trkpt lat="42.31396965023662" lon="13.71161352628831"><ele>940.9999999999999</ele><time>2026-04-23T11:23:04Z</time></trkpt><trkpt lat="42.31408390411703" lon="13.711634189965352"><ele>941.0</ele><time>2026-04-23T11:23:05Z</time></trkpt><trkpt lat="42.314171166443806" lon="13.711672641805853"><ele>941.0</ele><time>2026-04-23T11:23:06Z</time></trkpt><trkpt lat="42.314214754719984" lon="13.711778346512181"><ele>943.25</ele><time>2026-04-23T11:23:07Z</time></trkpt><trkpt lat="42.31422286757481" lon="13.71191072355741"><ele>945.5</ele><time>2026-04-23T11:23:08Z</time></trkpt><trkpt lat="42.31421049501203" lon="13.712069080143474"><ele>947.75</ele><time>2026-04-23T11:23:09Z</time></trkpt><trkpt lat="42.31419103839953" lon="13.712252911573126"><ele>950.0</ele><time>2026-04-23T11:23:10Z</time></trkpt><trkpt lat="42.314179583566904" lon="13.712456729709153"><ele>950.0</ele><time>2026-04-23T11:23:11Z</time></trkpt><trkpt lat="42.31417302127833" lon="13.712658804106328"><ele>950.0</ele><time>2026-04-23T11:23:12Z</time></trkpt><trkpt lat="42.3141639241906" lon="13.712862494877365"><ele>950.0</ele><time>2026-04-23T11:23:13Z</time></trkpt><trkpt lat="42.31416646292317" lon="13.713067099625073"><ele>947.0</ele><time>2026-04-23T11:23:14Z</time></trkpt><trkpt lat="42.31419215625522" lon="13.713270001512143"><ele>944.0</ele><time>2026-04-23T11:23:15Z</time></trkpt><trkpt lat="42.31424257212307" lon="13.713468096173145"><ele>941.0</ele><time>2026-04-23T11:23:16Z</time></trkpt><trkpt lat="42.31432153247625" lon="13.713648634501514"><ele>937.6666666666667</ele><time>2026-04-23T11:23:17Z</time></trkpt><trkpt lat="42.3144178023274" lon="13.713817660247084"><ele>934.3333333333333</ele><time>2026-04-23T11:23:18Z</time></trkpt><trkpt lat="42.31452087571021" lon="13.713969942188399"><ele>931.0</ele><time>2026-04-23T11:23:19Z</time></trkpt><trkpt lat="42.3146308856449" lon="13.714106219099804"><ele>934.75</ele><time>2026-04-23T11:23:20Z</time></trkpt><trkpt lat="42.314745600731634" lon="13.714223495084669"><ele>938.5</ele><time>2026-04-23T11:23:21Z</time></trkpt><trkpt lat="42.31486130670189" lon="13.71432006184236"><ele>942.25</ele><time>2026-04-23T11:23:22Z</time></trkpt><trkpt lat="42.314958832448305" lon="13.714403970496496"><ele>946.0</ele><time>2026-04-23T11:23:23Z</time></trkpt><trkpt lat="42.31501867450288" lon="13.714491738155406"><ele>946.4999999999999</ele><time>2026-04-23T11:23:24Z</time></trkpt><trkpt lat="42.31504231616328" lon="13.71458646094675"><ele>947.0</ele><time>2026-04-23T11:23:25Z</time></trkpt><trkpt lat="42.31502547504933" lon="13.714673865942201"><ele>947.5</ele><time>2026-04-23T11:23:26Z</time></trkpt><trkpt lat="42.31498075618377" lon="13.714739914144921"><ele>948.0</ele><time>2026-04-23T11:23:27Z</time></trkpt><trkpt lat="42.31491002727182" lon="13.714782245029145"><ele>948.4999999999999</ele><time>2026-04-23T11:23:27.999Z</time></trkpt><trkpt lat="42.314818106692" lon="13.71479949724382"><ele>949.0</ele><time>2026-04-23T11:23:28.999Z</time></trkpt><trkpt lat="42.31470975025852" lon="13.714798797942802"><ele>947.25</ele><time>2026-04-23T11:23:29.999Z</time></trkpt><trkpt lat="42.314589951721146" lon="13.714792880730728"><ele>945.5</ele><time>2026-04-23T11:23:30.999Z</time></trkpt><trkpt lat="42.3144576103306" lon="13.714788514955655"><ele>943.75</ele><time>2026-04-23T11:23:31.999Z</time></trkpt><trkpt lat="42.31431309447935" lon="13.714771508847724"><ele>942.0</ele><time>2026-04-23T11:23:32.999Z</time></trkpt><trkpt lat="42.314166428697625" lon="13.714736966630289"><ele>942.0</ele><time>2026-04-23T11:23:33.999Z</time></trkpt><trkpt lat="42.31401831059644" lon="13.71469251042954"><ele>942.0</ele><time>2026-04-23T11:23:34.999Z</time></trkpt><trkpt lat="42.313864838673354" lon="13.714640033948696"><ele>942.0</ele><time>2026-04-23T11:23:35.999Z</time></trkpt><trkpt lat="42.313705331468185" lon="13.714576826170996"><ele>941.3333333333333</ele><time>2026-04-23T11:23:36.999Z</time></trkpt><trkpt lat="42.31354535636761" lon="13.714509271785042"><ele>940.6666666666666</ele><time>2026-04-23T11:23:37.999Z</time></trkpt><trkpt lat="42.313384369101016" lon="13.714428503534775"><ele>940.0</ele><time>2026-04-23T11:23:38.999Z</time></trkpt><trkpt lat="42.31322460863345" lon="13.714351004173619"><ele>932.3333333333333</ele><time>2026-04-23T11:23:39.999Z</time></trkpt><trkpt lat="42.313059913706965" lon="13.714287934533584"><ele>924.6666666666667</ele><time>2026-04-23T11:23:40.999Z</time></trkpt><trkpt lat="42.312887432996696" lon="13.714235415730835"><ele>917.0</ele><time>2026-04-23T11:23:41.999Z</time></trkpt><trkpt lat="42.31271292345634" lon="13.714184036545074"><ele>917.0</ele><time>2026-04-23T11:23:42.999Z</time></trkpt><trkpt lat="42.312541439932865" lon="13.714133644212394"><ele>917.0</ele><time>2026-04-23T11:23:43.999Z</time></trkpt><trkpt lat="42.31237560417707" lon="13.714097273268617"><ele>917.0</ele><time>2026-04-23T11:23:44.999Z</time></trkpt><trkpt lat="42.31220831373605" lon="13.714086723627624"><ele>915.25</ele><time>2026-04-23T11:23:45.999Z</time></trkpt><trkpt lat="42.31204393321548" lon="13.714098388749546"><ele>913.5</ele><time>2026-04-23T11:23:46.999Z</time></trkpt><trkpt lat="42.31190328221737" lon="13.714115551580957"><ele>911.75</ele><time>2026-04-23T11:23:47.999Z</time></trkpt><trkpt lat="42.311782987577736" lon="13.714138025532664"><ele>910.0</ele><time>2026-04-23T11:23:48.999Z</time></trkpt><trkpt lat="42.31168574525809" lon="13.714187618651042"><ele>910.0</ele><time>2026-04-23T11:23:50Z</time></trkpt><trkpt lat="42.31160750634457" lon="13.714277482344286"><ele>910.0</ele><time>2026-04-23T11:23:51Z</time></trkpt><trkpt lat="42.31155806977214" lon="13.714404936877248"><ele>910.0</ele><time>2026-04-23T11:23:52Z</time></trkpt><trkpt lat="42.311536174813924" lon="13.714558929226223"><ele>910.0</ele><time>2026-04-23T11:23:53Z</time></trkpt><trkpt lat="42.31151085504005" lon="13.71471135343894"><ele>910.0</ele><time>2026-04-23T11:23:54Z</time></trkpt><trkpt lat="42.31144603769896" lon="13.714823009475987"><ele>906.5</ele><time>2026-04-23T11:23:55Z</time></trkpt><trkpt lat="42.31134473744653" lon="13.714885321826385"><ele>903.0</ele><time>2026-04-23T11:23:56Z</time></trkpt><trkpt lat="42.31122656228414" lon="13.714940592598493"><ele>899.5</ele><time>2026-04-23T11:23:57Z</time></trkpt><trkpt lat="42.31110423386177" lon="13.715026600348681"><ele>896.0</ele><time>2026-04-23T11:23:58Z</time></trkpt><trkpt lat="42.31098090489139" lon="13.715148078159435"><ele>893.3333333333334</ele><time>2026-04-23T11:23:59Z</time></trkpt><trkpt lat="42.31084512808609" lon="13.71528763769123"><ele>890.6666666666667</ele><time>2026-04-23T11:24:00Z</time></trkpt><trkpt lat="42.31070606558063" lon="13.715420037494017"><ele>888.0</ele><time>2026-04-23T11:24:01Z</time></trkpt><trkpt lat="42.31055961441189" lon="13.715547586679007"><ele>888.0</ele><time>2026-04-23T11:24:02Z</time></trkpt><trkpt lat="42.31040500996726" lon="13.715672006576522"><ele>888.0</ele><time>2026-04-23T11:24:03Z</time></trkpt><trkpt lat="42.31024979628033" lon="13.715796765283153"><ele>888.0</ele><time>2026-04-23T11:24:04Z</time></trkpt><trkpt lat="42.31009727163811" lon="13.715919640248295"><ele>888.0</ele><time>2026-04-23T11:24:05Z</time></trkpt><trkpt lat="42.30995445447417" lon="13.716047981848366"><ele>888.0</ele><time>2026-04-23T11:24:06Z</time></trkpt><trkpt lat="42.30982537972999" lon="13.716191796198473"><ele>888.0</ele><time>2026-04-23T11:24:07Z</time></trkpt><trkpt lat="42.30969601489355" lon="13.716341116471568"><ele>887.3333333333333</ele><time>2026-04-23T11:24:08Z</time></trkpt><trkpt lat="42.30955080157512" lon="13.716477877519319"><ele>886.6666666666666</ele><time>2026-04-23T11:24:09Z</time></trkpt><trkpt lat="42.30940857901089" lon="13.716603025248443"><ele>886.0</ele><time>2026-04-23T11:24:10Z</time></trkpt><trkpt lat="42.309268217566945" lon="13.716719859561984"><ele>886.0</ele><time>2026-04-23T11:24:11Z</time></trkpt><trkpt lat="42.30913785937199" lon="13.716824628092187"><ele>886.0</ele><time>2026-04-23T11:24:12Z</time></trkpt><trkpt lat="42.30901382929054" lon="13.716925697306738"><ele>886.0</ele><time>2026-04-23T11:24:13Z</time></trkpt><trkpt lat="42.308917787575716" lon="13.717031044280086"><ele>886.0</ele><time>2026-04-23T11:24:14Z</time></trkpt><trkpt lat="42.30884415158565" lon="13.717164244130586"><ele>883.25</ele><time>2026-04-23T11:24:15Z</time></trkpt><trkpt lat="42.30878396912991" lon="13.717329016889664"><ele>880.5</ele><time>2026-04-23T11:24:16Z</time></trkpt><trkpt lat="42.308727870744654" lon="13.717508111671144"><ele>877.75</ele><time>2026-04-23T11:24:17Z</time></trkpt><trkpt lat="42.30867370267611" lon="13.717695790170234"><ele>875.0</ele><time>2026-04-23T11:24:18Z</time></trkpt><trkpt lat="42.30862522967681" lon="13.71789486579457"><ele>875.0</ele><time>2026-04-23T11:24:19Z</time></trkpt><trkpt lat="42.30858683652933" lon="13.718091064529961"><ele>875.0</ele><time>2026-04-23T11:24:20Z</time></trkpt><trkpt lat="42.3085625727326" lon="13.718280872620909"><ele>875.0</ele><time>2026-04-23T11:24:21Z</time></trkpt><trkpt lat="42.30855407496439" lon="13.718468208161793"><ele>875.0</ele><time>2026-04-23T11:24:22Z</time></trkpt><trkpt lat="42.30856166912296" lon="13.718646519727328"><ele>873.25</ele><time>2026-04-23T11:24:23Z</time></trkpt><trkpt lat="42.308585912723125" lon="13.718817521481087"><ele>871.5</ele><time>2026-04-23T11:24:24Z</time></trkpt><trkpt lat="42.30862312592908" lon="13.718981667547277"><ele>869.75</ele><time>2026-04-23T11:24:25Z</time></trkpt><trkpt lat="42.30867994951139" lon="13.719138817601038"><ele>868.0</ele><time>2026-04-23T11:24:26Z</time></trkpt><trkpt lat="42.30875303713783" lon="13.719293469304752"><ele>870.75</ele><time>2026-04-23T11:24:27Z</time></trkpt><trkpt lat="42.30883419201711" lon="13.7194541414775"><ele>873.5</ele><time>2026-04-23T11:24:28Z</time></trkpt><trkpt lat="42.308914478779855" lon="13.719621996327588"><ele>876.25</ele><time>2026-04-23T11:24:29Z</time></trkpt><trkpt lat="42.30898884847927" lon="13.719790087623279"><ele>879.0</ele><time>2026-04-23T11:24:30Z</time></trkpt><trkpt lat="42.30905774539587" lon="13.719958443278509"><ele>879.0</ele><time>2026-04-23T11:24:31Z</time></trkpt><trkpt lat="42.30912453845306" lon="13.72012395201606"><ele>879.0</ele><time>2026-04-23T11:24:32Z</time></trkpt><trkpt lat="42.30919087088102" lon="13.720287512457878"><ele>879.0</ele><time>2026-04-23T11:24:33Z</time></trkpt><trkpt lat="42.30926115621978" lon="13.720445567484267"><ele>879.0</ele><time>2026-04-23T11:24:34Z</time></trkpt><trkpt lat="42.309342975662965" lon="13.720594671860171"><ele>873.75</ele><time>2026-04-23T11:24:35Z</time></trkpt><trkpt lat="42.309446045339826" lon="13.72072698761051"><ele>868.5</ele><time>2026-04-23T11:24:36Z</time></trkpt><trkpt lat="42.30956243157914" lon="13.720843866266476"><ele>863.25</ele><time>2026-04-23T11:24:37Z</time></trkpt><trkpt lat="42.30968616137926" lon="13.720955652396109"><ele>858.0</ele><time>2026-04-23T11:24:38Z</time></trkpt><trkpt lat="42.30981130824395" lon="13.721066047153883"><ele>855.5</ele><time>2026-04-23T11:24:39Z</time></trkpt><trkpt lat="42.30993476330652" lon="13.721160928840149"><ele>853.0</ele><time>2026-04-23T11:24:40Z</time></trkpt><trkpt lat="42.31006291515585" lon="13.721238686305478"><ele>850.5</ele><time>2026-04-23T11:24:41Z</time></trkpt><trkpt lat="42.31018809166844" lon="13.721303845793413"><ele>848.0</ele><time>2026-04-23T11:24:42Z</time></trkpt><trkpt lat="42.31029640673451" lon="13.721378293803129"><ele>848.0</ele><time>2026-04-23T11:24:43Z</time></trkpt><trkpt lat="42.31037774954372" lon="13.721469199922973"><ele>848.0</ele><time>2026-04-23T11:24:44Z</time></trkpt><trkpt lat="42.31044252145901" lon="13.721571186097094"><ele>848.0</ele><time>2026-04-23T11:24:45Z</time></trkpt><trkpt lat="42.310503976846995" lon="13.721675604210388"><ele>848.0</ele><time>2026-04-23T11:24:46Z</time></trkpt><trkpt lat="42.31057229724595" lon="13.721780764073886"><ele>848.0</ele><time>2026-04-23T11:24:47Z</time></trkpt><trkpt lat="42.31065326058992" lon="13.721885226987418"><ele>846.4</ele><time>2026-04-23T11:24:48Z</time></trkpt><trkpt lat="42.31074111165674" lon="13.72196724328193"><ele>844.8</ele><time>2026-04-23T11:24:49Z</time></trkpt><trkpt lat="42.310835422998174" lon="13.72201797495903"><ele>843.2</ele><time>2026-04-23T11:24:50Z</time></trkpt><trkpt lat="42.31093550114911" lon="13.722041498147197"><ele>841.6</ele><time>2026-04-23T11:24:51Z</time></trkpt><trkpt lat="42.31103719509596" lon="13.722057991319158"><ele>840.0</ele><time>2026-04-23T11:24:52Z</time></trkpt><trkpt lat="42.311135828312686" lon="13.722057895926161"><ele>840.0</ele><time>2026-04-23T11:24:53Z</time></trkpt><trkpt lat="42.31122842668563" lon="13.722054340335305"><ele>840.0</ele><time>2026-04-23T11:24:54Z</time></trkpt><trkpt lat="42.31129878869919" lon="13.72208353872119"><ele>840.0</ele><time>2026-04-23T11:24:55Z</time></trkpt><trkpt lat="42.311342801829355" lon="13.722151051242356"><ele>840.0</ele><time>2026-04-23T11:24:56Z</time></trkpt><trkpt lat="42.311352772916024" lon="13.7222369328704"><ele>840.0</ele><time>2026-04-23T11:24:57Z</time></trkpt><trkpt lat="42.31133181878334" lon="13.722360087111145"><ele>840.0</ele><time>2026-04-23T11:24:59Z</time></trkpt><trkpt lat="42.31132812420424" lon="13.722532315930218"><ele>840.0</ele><time>2026-04-23T11:25:01Z</time></trkpt><trkpt lat="42.3113260247346" lon="13.72263852522258"><ele>840.0</ele><time>2026-04-23T11:25:02Z</time></trkpt><trkpt lat="42.31132584881161" lon="13.72275514507118"><ele>840.0</ele><time>2026-04-23T11:25:03Z</time></trkpt><trkpt lat="42.31132345793121" lon="13.722878511057548"><ele>840.0</ele><time>2026-04-23T11:25:04Z</time></trkpt><trkpt lat="42.31132171217692" lon="13.7229950584529"><ele>840.0</ele><time>2026-04-23T11:25:05Z</time></trkpt><trkpt lat="42.31131942140619" lon="13.723110195068841"><ele>840.0</ele><time>2026-04-23T11:25:06Z</time></trkpt><trkpt lat="42.311318903951175" lon="13.72322242895176"><ele>841.0</ele><time>2026-04-23T11:25:07Z</time></trkpt><trkpt lat="42.31131731085891" lon="13.723326823273153"><ele>842.0</ele><time>2026-04-23T11:25:08Z</time></trkpt><trkpt lat="42.31131784200762" lon="13.723414785181605"><ele>843.0</ele><time>2026-04-23T11:25:09Z</time></trkpt><trkpt lat="42.31132908611866" lon="13.723501448568138"><ele>844.0</ele><time>2026-04-23T11:25:11Z</time></trkpt><trkpt lat="42.31139972964873" lon="13.723642489417504"><ele>845.0</ele><time>2026-04-23T11:26:33Z</time></trkpt><trkpt lat="42.31144593364734" lon="13.723737096391147"><ele>846.0</ele><time>2026-04-23T11:26:34Z</time></trkpt><trkpt lat="42.31150689815932" lon="13.723845652513903"><ele>846.0</ele><time>2026-04-23T11:26:35Z</time></trkpt><trkpt lat="42.31157918325683" lon="13.723963756727912"><ele>846.0</ele><time>2026-04-23T11:26:36Z</time></trkpt><trkpt lat="42.31165275302358" lon="13.724079512502811"><ele>846.0</ele><time>2026-04-23T11:26:37Z</time></trkpt><trkpt lat="42.31171775877007" lon="13.724193653002878"><ele>846.0</ele><time>2026-04-23T11:26:38Z</time></trkpt><trkpt lat="42.31177030527732" lon="13.724305719385123"><ele>846.0</ele><time>2026-04-23T11:26:39Z</time></trkpt><trkpt lat="42.3117963717192" lon="13.72442635097693"><ele>844.5999999999999</ele><time>2026-04-23T11:26:40Z</time></trkpt><trkpt lat="42.31178595581429" lon="13.7245568802317"><ele>843.2</ele><time>2026-04-23T11:26:41Z</time></trkpt><trkpt lat="42.31174627237162" lon="13.72469054918648"><ele>841.8</ele><time>2026-04-23T11:26:42Z</time></trkpt><trkpt lat="42.31168703255131" lon="13.724826294739628"><ele>840.4000000000001</ele><time>2026-04-23T11:26:43Z</time></trkpt><trkpt lat="42.3116195556205" lon="13.724973791850703"><ele>839.0</ele><time>2026-04-23T11:26:44Z</time></trkpt><trkpt lat="42.31155823383459" lon="13.725127332707647"><ele>839.25</ele><time>2026-04-23T11:26:45Z</time></trkpt><trkpt lat="42.31149733212018" lon="13.725279009775344"><ele>839.5</ele><time>2026-04-23T11:26:46Z</time></trkpt><trkpt lat="42.31143755454423" lon="13.725432694267019"><ele>839.75</ele><time>2026-04-23T11:26:47Z</time></trkpt><trkpt lat="42.31138679401787" lon="13.725591859219573"><ele>840.0</ele><time>2026-04-23T11:26:48Z</time></trkpt><trkpt lat="42.31135522034609" lon="13.725757863736904"><ele>837.5</ele><time>2026-04-23T11:26:49Z</time></trkpt><trkpt lat="42.3113430684715" lon="13.725924602345177"><ele>835.0</ele><time>2026-04-23T11:26:50Z</time></trkpt><trkpt lat="42.31135101323479" lon="13.726089235890928"><ele>832.5</ele><time>2026-04-23T11:26:51Z</time></trkpt><trkpt lat="42.3113805169777" lon="13.726254306358198"><ele>830.0</ele><time>2026-04-23T11:26:52Z</time></trkpt><trkpt lat="42.31143298335524" lon="13.72641434226593"><ele>830.0</ele><time>2026-04-23T11:26:53Z</time></trkpt><trkpt lat="42.31149326897369" lon="13.726565853754366"><ele>830.0</ele><time>2026-04-23T11:26:54Z</time></trkpt><trkpt lat="42.311555273613955" lon="13.726705286387869"><ele>830.0</ele><time>2026-04-23T11:26:55Z</time></trkpt><trkpt lat="42.31162343964698" lon="13.726828416509637"><ele>830.0</ele><time>2026-04-23T11:26:56Z</time></trkpt><trkpt lat="42.3116986225674" lon="13.7269320597308"><ele>827.6</ele><time>2026-04-23T11:26:57Z</time></trkpt><trkpt lat="42.31175565706524" lon="13.727014075032022"><ele>825.2</ele><time>2026-04-23T11:26:58Z</time></trkpt><trkpt lat="42.31177738158764" lon="13.727155119110298"><ele>822.8</ele><time>2026-04-23T11:27:00Z</time></trkpt><trkpt lat="42.311703044114054" lon="13.727221385106514"><ele>820.4</ele><time>2026-04-23T11:27:02Z</time></trkpt><trkpt lat="42.31157676680588" lon="13.727124435260551"><ele>818.0</ele><time>2026-04-23T11:27:04Z</time></trkpt><trkpt lat="42.31150183061497" lon="13.727036836429157"><ele>818.0</ele><time>2026-04-23T11:27:05Z</time></trkpt><trkpt lat="42.31141787142717" lon="13.726944638869355"><ele>818.0</ele><time>2026-04-23T11:27:06Z</time></trkpt><trkpt lat="42.31132872712294" lon="13.726840272396897"><ele>818.0</ele><time>2026-04-23T11:27:07Z</time></trkpt><trkpt lat="42.311231363814414" lon="13.72671859828796"><ele>818.0</ele><time>2026-04-23T11:27:08Z</time></trkpt><trkpt lat="42.31113275870046" lon="13.726585542583733"><ele>815.75</ele><time>2026-04-23T11:27:09Z</time></trkpt><trkpt lat="42.31104848239898" lon="13.726440105913937"><ele>813.5</ele><time>2026-04-23T11:27:10Z</time></trkpt><trkpt lat="42.31098680383827" lon="13.726280831921178"><ele>811.25</ele><time>2026-04-23T11:27:11Z</time></trkpt><trkpt lat="42.310944497041575" lon="13.726107355915115"><ele>809.0</ele><time>2026-04-23T11:27:12Z</time></trkpt><trkpt lat="42.31092014073174" lon="13.72593165229293"><ele>809.0</ele><time>2026-04-23T11:27:13Z</time></trkpt><trkpt lat="42.310913482274145" lon="13.725760382434187"><ele>809.0</ele><time>2026-04-23T11:27:14Z</time></trkpt><trkpt lat="42.310933950522696" lon="13.72559105375746"><ele>809.0</ele><time>2026-04-23T11:27:15Z</time></trkpt><trkpt lat="42.31097956042749" lon="13.725430539370697"><ele>809.0</ele><time>2026-04-23T11:27:16Z</time></trkpt><trkpt lat="42.311038820639304" lon="13.725279512198993"><ele>807.6</ele><time>2026-04-23T11:27:17Z</time></trkpt><trkpt lat="42.31109735710082" lon="13.7251424130524"><ele>806.2</ele><time>2026-04-23T11:27:18Z</time></trkpt><trkpt lat="42.31114559712462" lon="13.725033054530893"><ele>804.8000000000001</ele><time>2026-04-23T11:27:19Z</time></trkpt><trkpt lat="42.311173726278376" lon="13.724936039008497"><ele>803.4000000000001</ele><time>2026-04-23T11:27:20Z</time></trkpt><trkpt lat="42.31113038757118" lon="13.724795975090574"><ele>802.0</ele><time>2026-04-23T11:27:22Z</time></trkpt><trkpt lat="42.31104451469563" lon="13.724793651244761"><ele>802.0</ele><time>2026-04-23T11:27:24Z</time></trkpt><trkpt lat="42.310987841049155" lon="13.724886189549684"><ele>802.0</ele><time>2026-04-23T11:27:25Z</time></trkpt><trkpt lat="42.3109345945585" lon="13.725017569407735"><ele>802.0</ele><time>2026-04-23T11:27:26Z</time></trkpt><trkpt lat="42.310876536178796" lon="13.725167460227958"><ele>802.0</ele><time>2026-04-23T11:27:27Z</time></trkpt><trkpt lat="42.310805663217636" lon="13.725320995291426"><ele>803.75</ele><time>2026-04-23T11:27:28Z</time></trkpt><trkpt lat="42.31072857605277" lon="13.725480637576663"><ele>805.5</ele><time>2026-04-23T11:27:29Z</time></trkpt><trkpt lat="42.31065297866379" lon="13.725657161951201"><ele>807.25</ele><time>2026-04-23T11:27:30Z</time></trkpt><trkpt lat="42.310591180035864" lon="13.725847190698452"><ele>809.0</ele><time>2026-04-23T11:27:31Z</time></trkpt><trkpt lat="42.31055096537795" lon="13.72605407416287"><ele>796.3333333333334</ele><time>2026-04-23T11:27:32Z</time></trkpt><trkpt lat="42.310528215205125" lon="13.726267485784339"><ele>783.6666666666667</ele><time>2026-04-23T11:27:33Z</time></trkpt><trkpt lat="42.310522157275116" lon="13.72648524779149"><ele>771.0</ele><time>2026-04-23T11:27:34Z</time></trkpt><trkpt lat="42.310524908040854" lon="13.726682277039464"><ele>771.0</ele><time>2026-04-23T11:27:35Z</time></trkpt><trkpt lat="42.31053989173866" lon="13.726872772722935"><ele>771.0</ele><time>2026-04-23T11:27:36Z</time></trkpt><trkpt lat="42.310575462255564" lon="13.727049448431803"><ele>771.0</ele><time>2026-04-23T11:27:37Z</time></trkpt><trkpt lat="42.310637452634566" lon="13.727228429745669"><ele>771.0</ele><time>2026-04-23T11:27:38Z</time></trkpt><trkpt lat="42.310704003966634" lon="13.727421408840634"><ele>775.0</ele><time>2026-04-23T11:27:39Z</time></trkpt><trkpt lat="42.310765833253" lon="13.727621908262819"><ele>779.0</ele><time>2026-04-23T11:27:40Z</time></trkpt><trkpt lat="42.310818719107345" lon="13.72781694096307"><ele>783.0</ele><time>2026-04-23T11:27:41Z</time></trkpt><trkpt lat="42.31086383801636" lon="13.728003077732309"><ele>783.0</ele><time>2026-04-23T11:27:42Z</time></trkpt><trkpt lat="42.31091244880427" lon="13.728186300388218"><ele>783.0</ele><time>2026-04-23T11:27:43Z</time></trkpt><trkpt lat="42.31096069517303" lon="13.728343379830175"><ele>783.0</ele><time>2026-04-23T11:27:44Z</time></trkpt><trkpt lat="42.3110094229063" lon="13.728476163551237"><ele>783.0</ele><time>2026-04-23T11:27:45Z</time></trkpt><trkpt lat="42.31106578020131" lon="13.728587973286453"><ele>780.3333333333334</ele><time>2026-04-23T11:27:46Z</time></trkpt><trkpt lat="42.31112002099738" lon="13.728667849550103"><ele>777.6666666666666</ele><time>2026-04-23T11:27:47Z</time></trkpt><trkpt lat="42.311134605794315" lon="13.728807588915323"><ele>775.0</ele><time>2026-04-23T11:27:49Z</time></trkpt><trkpt lat="42.31103684781775" lon="13.728844482559943"><ele>772.3333333333333</ele><time>2026-04-23T11:27:51Z</time></trkpt><trkpt lat="42.31097744670638" lon="13.728794610885561"><ele>769.6666666666666</ele><time>2026-04-23T11:27:52Z</time></trkpt><trkpt lat="42.31091694304631" lon="13.728701939466179"><ele>767.0</ele><time>2026-04-23T11:27:53Z</time></trkpt><trkpt lat="42.310853986150725" lon="13.728577590271794"><ele>763.75</ele><time>2026-04-23T11:27:54Z</time></trkpt><trkpt lat="42.310787222668964" lon="13.728443370060576"><ele>760.5</ele><time>2026-04-23T11:27:55Z</time></trkpt><trkpt lat="42.310712243392764" lon="13.72830769968348"><ele>757.25</ele><time>2026-04-23T11:27:56Z</time></trkpt><trkpt lat="42.310630686211155" lon="13.728153734971011"><ele>754.0</ele><time>2026-04-23T11:27:57Z</time></trkpt><trkpt lat="42.31054859886601" lon="13.727992473541294"><ele>754.0</ele><time>2026-04-23T11:27:58Z</time></trkpt><trkpt lat="42.31046619001899" lon="13.727833788208233"><ele>754.0</ele><time>2026-04-23T11:27:58.999Z</time></trkpt><trkpt lat="42.310376778476375" lon="13.727670066457124"><ele>754.0</ele><time>2026-04-23T11:27:59.999Z</time></trkpt><trkpt lat="42.310282420292076" lon="13.72750306889286"><ele>754.0</ele><time>2026-04-23T11:28:00.999Z</time></trkpt><trkpt lat="42.310187514597985" lon="13.727342761282426"><ele>757.0</ele><time>2026-04-23T11:28:02Z</time></trkpt><trkpt lat="42.310099151545245" lon="13.727185494622535"><ele>760.0</ele><time>2026-04-23T11:28:03Z</time></trkpt><trkpt lat="42.310027955976295" lon="13.727031126446525"><ele>763.0</ele><time>2026-04-23T11:28:04Z</time></trkpt><trkpt lat="42.30997650958298" lon="13.726863526668607"><ele>766.0</ele><time>2026-04-23T11:28:05Z</time></trkpt><trkpt lat="42.30994550641587" lon="13.726688287647958"><ele>766.5</ele><time>2026-04-23T11:28:06Z</time></trkpt><trkpt lat="42.309934222586904" lon="13.726509394917224"><ele>767.0</ele><time>2026-04-23T11:28:07Z</time></trkpt><trkpt lat="42.309937746609876" lon="13.726323687231964"><ele>767.5</ele><time>2026-04-23T11:28:08Z</time></trkpt><trkpt lat="42.309952073480176" lon="13.726129526842413"><ele>768.0</ele><time>2026-04-23T11:28:09Z</time></trkpt><trkpt lat="42.309967061802475" lon="13.725940302694472"><ele>768.0</ele><time>2026-04-23T11:28:10Z</time></trkpt><trkpt lat="42.30997994521634" lon="13.72575935260714"><ele>768.0</ele><time>2026-04-23T11:28:11Z</time></trkpt><trkpt lat="42.309995874549095" lon="13.725594701676226"><ele>768.0</ele><time>2026-04-23T11:28:12Z</time></trkpt><trkpt lat="42.310022975897105" lon="13.725447630406402"><ele>768.0</ele><time>2026-04-23T11:28:13Z</time></trkpt><trkpt lat="42.31006083996801" lon="13.725326364136462"><ele>768.0</ele><time>2026-04-23T11:28:14Z</time></trkpt><trkpt lat="42.310095659176945" lon="13.725231545995657"><ele>768.0</ele><time>2026-04-23T11:28:15Z</time></trkpt><trkpt lat="42.31008445727615" lon="13.725085421974212"><ele>768.0</ele><time>2026-04-23T11:28:17Z</time></trkpt><trkpt lat="42.30995941772336" lon="13.725107042577577"><ele>768.0</ele><time>2026-04-23T11:28:19Z</time></trkpt><trkpt lat="42.30991445032285" lon="13.72520589835551"><ele>768.0</ele><time>2026-04-23T11:28:20Z</time></trkpt><trkpt lat="42.30988015557834" lon="13.725355579899329"><ele>768.0</ele><time>2026-04-23T11:28:21Z</time></trkpt><trkpt lat="42.30984492394143" lon="13.725529342932973"><ele>768.0</ele><time>2026-04-23T11:28:22Z</time></trkpt><trkpt lat="42.30980401144044" lon="13.72571210685793"><ele>768.0</ele><time>2026-04-23T11:28:23Z</time></trkpt><trkpt lat="42.30975444048354" lon="13.725913432330863"><ele>768.0</ele><time>2026-04-23T11:28:24Z</time></trkpt><trkpt lat="42.30969612205067" lon="13.72612120088341"><ele>757.0</ele><time>2026-04-23T11:28:25Z</time></trkpt><trkpt lat="42.30963000395717" lon="13.726330592436241"><ele>746.0</ele><time>2026-04-23T11:28:26Z</time></trkpt><trkpt lat="42.30956609703219" lon="13.726529304545728"><ele>735.0</ele><time>2026-04-23T11:28:27Z</time></trkpt><trkpt lat="42.30950967187537" lon="13.72672367160984"><ele>733.6666666666666</ele><time>2026-04-23T11:28:28Z</time></trkpt><trkpt lat="42.309477516788405" lon="13.72692047979421"><ele>732.3333333333333</ele><time>2026-04-23T11:28:29Z</time></trkpt><trkpt lat="42.309476287993846" lon="13.727134468123001"><ele>731.0</ele><time>2026-04-23T11:28:30Z</time></trkpt><trkpt lat="42.3094999832332" lon="13.727362203305688"><ele>731.0</ele><time>2026-04-23T11:28:31Z</time></trkpt><trkpt lat="42.30954499690922" lon="13.727580094533431"><ele>731.0</ele><time>2026-04-23T11:28:32Z</time></trkpt><trkpt lat="42.30960466750652" lon="13.727777371188015"><ele>731.0</ele><time>2026-04-23T11:28:33Z</time></trkpt><trkpt lat="42.30966848098086" lon="13.727961703495716"><ele>728.0</ele><time>2026-04-23T11:28:34Z</time></trkpt><trkpt lat="42.30971984682569" lon="13.728141129830393"><ele>725.0</ele><time>2026-04-23T11:28:35Z</time></trkpt><trkpt lat="42.309747323930935" lon="13.728323831343431"><ele>722.0</ele><time>2026-04-23T11:28:36Z</time></trkpt><trkpt lat="42.309743673898616" lon="13.728514800464943"><ele>719.0</ele><time>2026-04-23T11:28:37Z</time></trkpt><trkpt lat="42.30971629906888" lon="13.728709748262162"><ele>718.5</ele><time>2026-04-23T11:28:38Z</time></trkpt><trkpt lat="42.30968768888388" lon="13.728909600520819"><ele>718.0</ele><time>2026-04-23T11:28:39Z</time></trkpt><trkpt lat="42.30966728775881" lon="13.729102662590318"><ele>717.5</ele><time>2026-04-23T11:28:40Z</time></trkpt><trkpt lat="42.309667129686886" lon="13.729282521888774"><ele>717.0</ele><time>2026-04-23T11:28:41Z</time></trkpt><trkpt lat="42.30969669452693" lon="13.729445236311324"><ele>716.8</ele><time>2026-04-23T11:28:42Z</time></trkpt><trkpt lat="42.309751883479926" lon="13.729586446530131"><ele>716.6</ele><time>2026-04-23T11:28:43Z</time></trkpt><trkpt lat="42.30981143988896" lon="13.729705675999478"><ele>716.4</ele><time>2026-04-23T11:28:44Z</time></trkpt><trkpt lat="42.30983766506693" lon="13.729789910223008"><ele>716.1999999999999</ele><time>2026-04-23T11:28:45Z</time></trkpt><trkpt lat="42.30977061884694" lon="13.729906192898625"><ele>716.0</ele><time>2026-04-23T11:28:47Z</time></trkpt><trkpt lat="42.30965175356184" lon="13.729843385355686"><ele>716.0</ele><time>2026-04-23T11:28:49Z</time></trkpt><trkpt lat="42.30960214290254" lon="13.729740403478479"><ele>716.0</ele><time>2026-04-23T11:28:50Z</time></trkpt><trkpt lat="42.309558381416444" lon="13.729601098738131"><ele>716.0</ele><time>2026-04-23T11:28:51Z</time></trkpt><trkpt lat="42.3095159215361" lon="13.729439326805434"><ele>716.0</ele><time>2026-04-23T11:28:52Z</time></trkpt><trkpt lat="42.309475929635816" lon="13.729272160225307"><ele>716.25</ele><time>2026-04-23T11:28:53Z</time></trkpt><trkpt lat="42.309441064747546" lon="13.729087080658594"><ele>716.5</ele><time>2026-04-23T11:28:54Z</time></trkpt><trkpt lat="42.309418267155856" lon="13.728890340375793"><ele>716.75</ele><time>2026-04-23T11:28:55Z</time></trkpt><trkpt lat="42.309408021055575" lon="13.728703274715983"><ele>717.0</ele><time>2026-04-23T11:28:56Z</time></trkpt><trkpt lat="42.30939758196264" lon="13.72852641476918"><ele>717.5</ele><time>2026-04-23T11:28:57Z</time></trkpt><trkpt lat="42.30936242013161" lon="13.728363669423114"><ele>718.0</ele><time>2026-04-23T11:28:58Z</time></trkpt><trkpt lat="42.30929356099455" lon="13.728215503355383"><ele>718.5</ele><time>2026-04-23T11:28:59Z</time></trkpt><trkpt lat="42.30919951505941" lon="13.72808427470564"><ele>719.0</ele><time>2026-04-23T11:29:00Z</time></trkpt><trkpt lat="42.30910456053898" lon="13.727938198691364"><ele>719.0</ele><time>2026-04-23T11:29:01Z</time></trkpt><trkpt lat="42.309026666091754" lon="13.727767994499752"><ele>719.0</ele><time>2026-04-23T11:29:02Z</time></trkpt><trkpt lat="42.30896279001496" lon="13.727575569078294"><ele>719.0</ele><time>2026-04-23T11:29:03Z</time></trkpt><trkpt lat="42.30890921389772" lon="13.727387456069417"><ele>713.5</ele><time>2026-04-23T11:29:04Z</time></trkpt><trkpt lat="42.30886038298037" lon="13.727211743381003"><ele>708.0</ele><time>2026-04-23T11:29:05Z</time></trkpt><trkpt lat="42.308819855447084" lon="13.727049396893996"><ele>702.5</ele><time>2026-04-23T11:29:06Z</time></trkpt><trkpt lat="42.308786363001815" lon="13.726912380604622"><ele>697.0</ele><time>2026-04-23T11:29:07Z</time></trkpt><trkpt lat="42.308756477268886" lon="13.72679553279234"><ele>697.0</ele><time>2026-04-23T11:29:08Z</time></trkpt><trkpt lat="42.30872069979371" lon="13.726711909246207"><ele>697.0</ele><time>2026-04-23T11:29:09Z</time></trkpt><trkpt lat="42.30860146318859" lon="13.726709386469118"><ele>697.0</ele><time>2026-04-23T11:29:11Z</time></trkpt><trkpt lat="42.30857491369964" lon="13.726795690917104"><ele>697.0</ele><time>2026-04-23T11:29:12Z</time></trkpt><trkpt lat="42.30858824813956" lon="13.726910802847131"><ele>697.0</ele><time>2026-04-23T11:29:13Z</time></trkpt><trkpt lat="42.30863020094406" lon="13.727049934476566"><ele>696.0</ele><time>2026-04-23T11:29:14Z</time></trkpt><trkpt lat="42.308669078607814" lon="13.72720878186691"><ele>695.0</ele><time>2026-04-23T11:29:15Z</time></trkpt><trkpt lat="42.30869764345725" lon="13.727364470519195"><ele>694.0</ele><time>2026-04-23T11:29:16Z</time></trkpt><trkpt lat="42.308720691344206" lon="13.727528517048809"><ele>693.0</ele><time>2026-04-23T11:29:17Z</time></trkpt><trkpt lat="42.30874288369406" lon="13.727704409991642"><ele>691.0</ele><time>2026-04-23T11:29:18Z</time></trkpt><trkpt lat="42.308764376243985" lon="13.727887427970193"><ele>689.0</ele><time>2026-04-23T11:29:19Z</time></trkpt><trkpt lat="42.30878688035754" lon="13.728068317017797"><ele>687.0</ele><time>2026-04-23T11:29:20Z</time></trkpt><trkpt lat="42.308820008199504" lon="13.728243505856298"><ele>685.0</ele><time>2026-04-23T11:29:21Z</time></trkpt><trkpt lat="42.30886631263706" lon="13.728408517932671"><ele>684.8</ele><time>2026-04-23T11:29:22Z</time></trkpt><trkpt lat="42.30890964221635" lon="13.728559039867616"><ele>684.6</ele><time>2026-04-23T11:29:23Z</time></trkpt><trkpt lat="42.308927451597434" lon="13.728702331750076"><ele>684.4000000000001</ele><time>2026-04-23T11:29:24Z</time></trkpt><trkpt lat="42.30890077596834" lon="13.728841900013554"><ele>684.2</ele><time>2026-04-23T11:29:25Z</time></trkpt><trkpt lat="42.308844283498274" lon="13.728967672616838"><ele>684.0</ele><time>2026-04-23T11:29:26Z</time></trkpt><trkpt lat="42.308771727625974" lon="13.729095501020412"><ele>684.0</ele><time>2026-04-23T11:29:27Z</time></trkpt><trkpt lat="42.30869839378383" lon="13.729242227031323"><ele>684.0</ele><time>2026-04-23T11:29:28Z</time></trkpt><trkpt lat="42.3086283821011" lon="13.72940475664709"><ele>684.0</ele><time>2026-04-23T11:29:29Z</time></trkpt><trkpt lat="42.308557712255116" lon="13.729569910124669"><ele>684.0</ele><time>2026-04-23T11:29:30Z</time></trkpt><trkpt lat="42.3084852907051" lon="13.729733896040221"><ele>683.75</ele><time>2026-04-23T11:29:31Z</time></trkpt><trkpt lat="42.30841542551973" lon="13.72989520285504"><ele>683.5</ele><time>2026-04-23T11:29:32Z</time></trkpt><trkpt lat="42.30834919580322" lon="13.730050886317372"><ele>683.25</ele><time>2026-04-23T11:29:33Z</time></trkpt><trkpt lat="42.30829874212952" lon="13.73020626771666"><ele>683.0</ele><time>2026-04-23T11:29:34Z</time></trkpt><trkpt lat="42.308278015471565" lon="13.730379179528176"><ele>683.0</ele><time>2026-04-23T11:29:35Z</time></trkpt><trkpt lat="42.30829347651406" lon="13.730566545337574"><ele>683.0</ele><time>2026-04-23T11:29:36Z</time></trkpt><trkpt lat="42.30833170555486" lon="13.730745214955881"><ele>683.0</ele><time>2026-04-23T11:29:37Z</time></trkpt><trkpt lat="42.30839247255869" lon="13.730899653776675"><ele>683.0</ele><time>2026-04-23T11:29:38Z</time></trkpt><trkpt lat="42.308483821611375" lon="13.731029295753213"><ele>679.3333333333333</ele><time>2026-04-23T11:29:39Z</time></trkpt><trkpt lat="42.30860418872493" lon="13.73113516800545"><ele>675.6666666666666</ele><time>2026-04-23T11:29:40Z</time></trkpt><trkpt lat="42.308888627405864" lon="13.731275633481964"><ele>672.0</ele><time>2026-04-23T11:29:41.999Z</time></trkpt><trkpt lat="42.30904472709499" lon="13.731317867766698"><ele>672.0</ele><time>2026-04-23T11:29:42.999Z</time></trkpt><trkpt lat="42.309206039092764" lon="13.731352884362597"><ele>672.0</ele><time>2026-04-23T11:29:43.999Z</time></trkpt><trkpt lat="42.309358305347374" lon="13.73138552814195"><ele>672.0</ele><time>2026-04-23T11:29:44.999Z</time></trkpt><trkpt lat="42.30950678372784" lon="13.731418941037726"><ele>672.0</ele><time>2026-04-23T11:29:45.999Z</time></trkpt><trkpt lat="42.30965162837553" lon="13.731443500046224"><ele>672.0</ele><time>2026-04-23T11:29:46.999Z</time></trkpt><trkpt lat="42.30978680732147" lon="13.731452688001967"><ele>672.0</ele><time>2026-04-23T11:29:47.999Z</time></trkpt><trkpt lat="42.309898596907296" lon="13.73144668442376"><ele>672.0</ele><time>2026-04-23T11:29:48.999Z</time></trkpt><trkpt lat="42.3099812699031" lon="13.731442576290737"><ele>672.0</ele><time>2026-04-23T11:29:49.999Z</time></trkpt><trkpt lat="42.31004131964391" lon="13.731528797748522"><ele>672.0</ele><time>2026-04-23T11:29:51.999Z</time></trkpt><trkpt lat="42.309972708005446" lon="13.73163597043283"><ele>672.0</ele><time>2026-04-23T11:29:53.999Z</time></trkpt><trkpt lat="42.30989247247646" lon="13.731639108293619"><ele>672.0</ele><time>2026-04-23T11:29:54.999Z</time></trkpt><trkpt lat="42.309787692538755" lon="13.73161466449732"><ele>672.0</ele><time>2026-04-23T11:29:55.999Z</time></trkpt><trkpt lat="42.30965550228444" lon="13.731595732858155"><ele>672.0</ele><time>2026-04-23T11:29:56.999Z</time></trkpt><trkpt lat="42.309526663304325" lon="13.7315960334699"><ele>672.0</ele><time>2026-04-23T11:29:57.999Z</time></trkpt><trkpt lat="42.309380594902365" lon="13.731603162456668"><ele>672.0</ele><time>2026-04-23T11:29:58.999Z</time></trkpt><trkpt lat="42.30922876255369" lon="13.73161711868679"><ele>672.0</ele><time>2026-04-23T11:29:59.999Z</time></trkpt><trkpt lat="42.30907713382156" lon="13.731632005326603"><ele>672.0</ele><time>2026-04-23T11:30:00.999Z</time></trkpt><trkpt lat="42.30891736542835" lon="13.731643813418321"><ele>672.0</ele><time>2026-04-23T11:30:01.999Z</time></trkpt><trkpt lat="42.30876026107873" lon="13.731653185726246"><ele>672.0</ele><time>2026-04-23T11:30:02.999Z</time></trkpt><trkpt lat="42.30861274378158" lon="13.731649252361011"><ele>669.75</ele><time>2026-04-23T11:30:03.999Z</time></trkpt><trkpt lat="42.308471096346175" lon="13.731626478408433"><ele>667.5</ele><time>2026-04-23T11:30:04.999Z</time></trkpt><trkpt lat="42.30833790707448" lon="13.731584919817127"><ele>665.25</ele><time>2026-04-23T11:30:05.999Z</time></trkpt><trkpt lat="42.30820814389089" lon="13.731529637670583"><ele>663.0</ele><time>2026-04-23T11:30:06.999Z</time></trkpt><trkpt lat="42.30808273091129" lon="13.731457662399587"><ele>656.6666666666666</ele><time>2026-04-23T11:30:08Z</time></trkpt><trkpt lat="42.307957158901615" lon="13.731366091366736"><ele>650.3333333333333</ele><time>2026-04-23T11:30:09Z</time></trkpt><trkpt lat="42.30782716274526" lon="13.731257927198227"><ele>644.0</ele><time>2026-04-23T11:30:10Z</time></trkpt><trkpt lat="42.30769417697429" lon="13.73113468265195"><ele>653.0</ele><time>2026-04-23T11:30:11Z</time></trkpt><trkpt lat="42.30756114643888" lon="13.73100331243191"><ele>662.0</ele><time>2026-04-23T11:30:12Z</time></trkpt><trkpt lat="42.307289556346724" lon="13.73072759406298"><ele>655.0</ele><time>2026-04-23T11:30:14Z</time></trkpt><trkpt lat="42.30716549928817" lon="13.730589587148744"><ele>648.0</ele><time>2026-04-23T11:30:15Z</time></trkpt><trkpt lat="42.30704360345126" lon="13.730460749215826"><ele>641.0</ele><time>2026-04-23T11:30:16Z</time></trkpt><trkpt lat="42.306923121664575" lon="13.730339523631502"><ele>643.0</ele><time>2026-04-23T11:30:17Z</time></trkpt><trkpt lat="42.306811254292256" lon="13.730222097397327"><ele>645.0</ele><time>2026-04-23T11:30:18Z</time></trkpt><trkpt lat="42.30671591515481" lon="13.730116506413152"><ele>647.0</ele><time>2026-04-23T11:30:19Z</time></trkpt><trkpt lat="42.30662246992323" lon="13.730027899290285"><ele>649.0</ele><time>2026-04-23T11:30:20Z</time></trkpt><trkpt lat="42.306517566403905" lon="13.729969577244427"><ele>647.0</ele><time>2026-04-23T11:30:21Z</time></trkpt><trkpt lat="42.30641003183615" lon="13.729941348839057"><ele>645.0</ele><time>2026-04-23T11:30:22Z</time></trkpt><trkpt lat="42.30630604897588" lon="13.729937464552906"><ele>643.0</ele><time>2026-04-23T11:30:23Z</time></trkpt><trkpt lat="42.30621404200863" lon="13.729956668514982"><ele>641.0</ele><time>2026-04-23T11:30:24Z</time></trkpt><trkpt lat="42.30614344476055" lon="13.730011962898756"><ele>639.0</ele><time>2026-04-23T11:30:25Z</time></trkpt><trkpt lat="42.30609984003619" lon="13.73009971007572"><ele>639.0</ele><time>2026-04-23T11:30:26Z</time></trkpt><trkpt lat="42.30609884909646" lon="13.730198727943305"><ele>639.0</ele><time>2026-04-23T11:30:27Z</time></trkpt><trkpt lat="42.3061372696843" lon="13.730286349048932"><ele>639.0</ele><time>2026-04-23T11:30:28Z</time></trkpt><trkpt lat="42.306211594336816" lon="13.73036808165281"><ele>639.0</ele><time>2026-04-23T11:30:29Z</time></trkpt><trkpt lat="42.3063063900636" lon="13.730455343579475"><ele>639.0</ele><time>2026-04-23T11:30:30Z</time></trkpt><trkpt lat="42.30640116968949" lon="13.730554112200629"><ele>639.5</ele><time>2026-04-23T11:30:31Z</time></trkpt><trkpt lat="42.30649707695699" lon="13.73066777504968"><ele>640.0</ele><time>2026-04-23T11:30:32Z</time></trkpt><trkpt lat="42.306602266050454" lon="13.730790466455462"><ele>640.5</ele><time>2026-04-23T11:30:33Z</time></trkpt><trkpt lat="42.30671221447892" lon="13.73091718034708"><ele>641.0</ele><time>2026-04-23T11:30:34Z</time></trkpt><trkpt lat="42.30693647433874" lon="13.731192807513088"><ele>642.0</ele><time>2026-04-23T11:30:36Z</time></trkpt><trkpt lat="42.30704233312834" lon="13.731342008418846"><ele>643.0</ele><time>2026-04-23T11:30:37Z</time></trkpt><trkpt lat="42.30714499113238" lon="13.731495602237217"><ele>644.0</ele><time>2026-04-23T11:30:38Z</time></trkpt><trkpt lat="42.30724494132668" lon="13.731659313032099"><ele>644.0</ele><time>2026-04-23T11:30:39Z</time></trkpt><trkpt lat="42.30734372730904" lon="13.731824425009043"><ele>644.0</ele><time>2026-04-23T11:30:40Z</time></trkpt><trkpt lat="42.3074495066955" lon="13.731983349626148"><ele>644.0</ele><time>2026-04-23T11:30:41Z</time></trkpt><trkpt lat="42.307559438961604" lon="13.732140376848514"><ele>639.0</ele><time>2026-04-23T11:30:42Z</time></trkpt><trkpt lat="42.307669141073305" lon="13.732281699614813"><ele>634.0</ele><time>2026-04-23T11:30:43Z</time></trkpt><trkpt lat="42.30777728049604" lon="13.732413682532306"><ele>629.0</ele><time>2026-04-23T11:30:44Z</time></trkpt><trkpt lat="42.307885849627226" lon="13.73252823367292"><ele>624.0</ele><time>2026-04-23T11:30:45Z</time></trkpt><trkpt lat="42.30800211866837" lon="13.73261842450503"><ele>627.25</ele><time>2026-04-23T11:30:46Z</time></trkpt><trkpt lat="42.30813151097142" lon="13.732675668732645"><ele>630.5</ele><time>2026-04-23T11:30:47Z</time></trkpt><trkpt lat="42.308270906438985" lon="13.732697593174473"><ele>633.75</ele><time>2026-04-23T11:30:48Z</time></trkpt><trkpt lat="42.30841482547698" lon="13.732706679537262"><ele>637.0</ele><time>2026-04-23T11:30:49Z</time></trkpt><trkpt lat="42.30855242737437" lon="13.73271651647196"><ele>637.25</ele><time>2026-04-23T11:30:50Z</time></trkpt><trkpt lat="42.30868343291897" lon="13.732727376308825"><ele>637.5</ele><time>2026-04-23T11:30:51Z</time></trkpt><trkpt lat="42.30880619620468" lon="13.73274071375709"><ele>637.75</ele><time>2026-04-23T11:30:52Z</time></trkpt><trkpt lat="42.3089136658322" lon="13.732757193214843"><ele>638.0</ele><time>2026-04-23T11:30:53Z</time></trkpt><trkpt lat="42.30899840220223" lon="13.732787541214623"><ele>638.0</ele><time>2026-04-23T11:30:54Z</time></trkpt><trkpt lat="42.3090569464385" lon="13.732845659760766"><ele>638.0</ele><time>2026-04-23T11:30:55Z</time></trkpt><trkpt lat="42.309084383136806" lon="13.732928763522986"><ele>638.0</ele><time>2026-04-23T11:30:56Z</time></trkpt><trkpt lat="42.30902160383258" lon="13.733047291508083"><ele>638.0</ele><time>2026-04-23T11:30:58Z</time></trkpt><trkpt lat="42.308949838021356" lon="13.73304605851624"><ele>638.0</ele><time>2026-04-23T11:30:59Z</time></trkpt><trkpt lat="42.30886523427133" lon="13.73299462149462"><ele>638.0</ele><time>2026-04-23T11:31:00Z</time></trkpt><trkpt lat="42.308765274682955" lon="13.73293474146121"><ele>631.3333333333333</ele><time>2026-04-23T11:31:01Z</time></trkpt><trkpt lat="42.308651685554445" lon="13.732890449542719"><ele>624.6666666666666</ele><time>2026-04-23T11:31:02Z</time></trkpt><trkpt lat="42.308390787125155" lon="13.732867036481132"><ele>618.0</ele><time>2026-04-23T11:31:04Z</time></trkpt><trkpt lat="42.30824475357963" lon="13.732903219798017"><ele>618.0</ele><time>2026-04-23T11:31:05Z</time></trkpt><trkpt lat="42.30809852423269" lon="13.7329520147342"><ele>618.0</ele><time>2026-04-23T11:31:06Z</time></trkpt><trkpt lat="42.30795373139702" lon="13.732997146467074"><ele>618.0</ele><time>2026-04-23T11:31:07Z</time></trkpt><trkpt lat="42.30781557344981" lon="13.73301626529121"><ele>618.0</ele><time>2026-04-23T11:31:08Z</time></trkpt><trkpt lat="42.3076876653288" lon="13.733011268739135"><ele>615.25</ele><time>2026-04-23T11:31:09Z</time></trkpt><trkpt lat="42.30756581065027" lon="13.732981855235348"><ele>612.5</ele><time>2026-04-23T11:31:10Z</time></trkpt><trkpt lat="42.307451234428015" lon="13.732910711400297"><ele>609.75</ele><time>2026-04-23T11:31:11Z</time></trkpt><trkpt lat="42.307332282647344" lon="13.732805635339059"><ele>607.0</ele><time>2026-04-23T11:31:12Z</time></trkpt><trkpt lat="42.30720183579432" lon="13.732692634455587"><ele>606.5</ele><time>2026-04-23T11:31:13Z</time></trkpt><trkpt lat="42.307059093252306" lon="13.732576953717288"><ele>606.0</ele><time>2026-04-23T11:31:14Z</time></trkpt><trkpt lat="42.30675771552533" lon="13.732352851081654"><ele>606.0</ele><time>2026-04-23T11:31:16Z</time></trkpt><trkpt lat="42.306606421344384" lon="13.732247171263314"><ele>606.0</ele><time>2026-04-23T11:31:17Z</time></trkpt><trkpt lat="42.30644840451544" lon="13.732139332136583"><ele>606.0</ele><time>2026-04-23T11:31:18Z</time></trkpt><trkpt lat="42.306285484461775" lon="13.732038056469055"><ele>606.3333333333334</ele><time>2026-04-23T11:31:19Z</time></trkpt><trkpt lat="42.3061153232756" lon="13.731952197804002"><ele>606.6666666666667</ele><time>2026-04-23T11:31:20Z</time></trkpt><trkpt lat="42.30593752760923" lon="13.73189080966012"><ele>607.0</ele><time>2026-04-23T11:31:21Z</time></trkpt><trkpt lat="42.305755907705276" lon="13.731851331575303"><ele>601.6666666666667</ele><time>2026-04-23T11:31:22Z</time></trkpt><trkpt lat="42.30556537424299" lon="13.731770768995563"><ele>596.3333333333334</ele><time>2026-04-23T11:31:23Z</time></trkpt><trkpt lat="42.30537091915783" lon="13.731705759809193"><ele>591.0</ele><time>2026-04-23T11:31:24Z</time></trkpt><trkpt lat="42.305179311474554" lon="13.731632101039782"><ele>591.0</ele><time>2026-04-23T11:31:25Z</time></trkpt><trkpt lat="42.30499385958783" lon="13.731544226513392"><ele>591.0</ele><time>2026-04-23T11:31:26Z</time></trkpt><trkpt lat="42.30481397621237" lon="13.73145161083098"><ele>591.0</ele><time>2026-04-23T11:31:27Z</time></trkpt><trkpt lat="42.304634839422405" lon="13.7313653744992"><ele>584.6666666666666</ele><time>2026-04-23T11:31:28Z</time></trkpt><trkpt lat="42.304470226037495" lon="13.731284366276448"><ele>578.3333333333333</ele><time>2026-04-23T11:31:29Z</time></trkpt><trkpt lat="42.30430894974565" lon="13.731224483048699"><ele>572.0</ele><time>2026-04-23T11:31:30Z</time></trkpt><trkpt lat="42.30416209928844" lon="13.731165271087947"><ele>572.0</ele><time>2026-04-23T11:31:31Z</time></trkpt><trkpt lat="42.30402973149796" lon="13.731106256288838"><ele>572.0</ele><time>2026-04-23T11:31:32Z</time></trkpt><trkpt lat="42.303904309359055" lon="13.731043812582405"><ele>572.0</ele><time>2026-04-23T11:31:33Z</time></trkpt><trkpt lat="42.30380412550569" lon="13.730962833983119"><ele>572.0</ele><time>2026-04-23T11:31:34Z</time></trkpt><trkpt lat="42.30373613638787" lon="13.730868887013122"><ele>570.2</ele><time>2026-04-23T11:31:35Z</time></trkpt><trkpt lat="42.3037041085779" lon="13.730750824144272"><ele>568.4000000000001</ele><time>2026-04-23T11:31:36Z</time></trkpt><trkpt lat="42.303709130467986" lon="13.730619014769621"><ele>566.5999999999999</ele><time>2026-04-23T11:31:37Z</time></trkpt><trkpt lat="42.30373871148234" lon="13.730467309138074"><ele>564.8</ele><time>2026-04-23T11:31:38Z</time></trkpt><trkpt lat="42.30377123818139" lon="13.730298416254227"><ele>563.0</ele><time>2026-04-23T11:31:39Z</time></trkpt><trkpt lat="42.303802189976125" lon="13.73011547822897"><ele>561.25</ele><time>2026-04-23T11:31:40Z</time></trkpt><trkpt lat="42.30384872999504" lon="13.729923577790403"><ele>559.5</ele><time>2026-04-23T11:31:41Z</time></trkpt><trkpt lat="42.303905356225755" lon="13.729752703004781"><ele>557.75</ele><time>2026-04-23T11:31:42Z</time></trkpt><trkpt lat="42.30396176753596" lon="13.729573293700069"><ele>556.0</ele><time>2026-04-23T11:31:43Z</time></trkpt><trkpt lat="42.304017898943606" lon="13.729396695383521"><ele>560.2</ele><time>2026-04-23T11:31:44Z</time></trkpt><trkpt lat="42.30407133005984" lon="13.729234670744505"><ele>564.4000000000001</ele><time>2026-04-23T11:31:45Z</time></trkpt><trkpt lat="42.304119165347885" lon="13.729120744770231"><ele>568.6</ele><time>2026-04-23T11:31:46Z</time></trkpt><trkpt lat="42.30414870192057" lon="13.729023552078571"><ele>572.8000000000001</ele><time>2026-04-23T11:31:47Z</time></trkpt><trkpt lat="42.304099903971476" lon="13.728886193032949"><ele>577.0</ele><time>2026-04-23T11:31:49Z</time></trkpt><trkpt lat="42.30398663863735" lon="13.728940361294715"><ele>577.0</ele><time>2026-04-23T11:31:51Z</time></trkpt><trkpt lat="42.30394146388378" lon="13.729039731562455"><ele>577.0</ele><time>2026-04-23T11:31:52Z</time></trkpt><trkpt lat="42.303892819834374" lon="13.729178205016003"><ele>577.0</ele><time>2026-04-23T11:31:53Z</time></trkpt><trkpt lat="42.30383383892723" lon="13.729334529050366"><ele>577.0</ele><time>2026-04-23T11:31:54Z</time></trkpt><trkpt lat="42.303770403925355" lon="13.729493743869636"><ele>570.0</ele><time>2026-04-23T11:31:55Z</time></trkpt><trkpt lat="42.30369532869161" lon="13.729666993910875"><ele>563.0</ele><time>2026-04-23T11:31:56Z</time></trkpt><trkpt lat="42.30361522470155" lon="13.72983909050166"><ele>556.0</ele><time>2026-04-23T11:31:57Z</time></trkpt><trkpt lat="42.303529187304115" lon="13.730010510327883"><ele>556.0</ele><time>2026-04-23T11:31:58Z</time></trkpt><trkpt lat="42.303443726370716" lon="13.730188415872819"><ele>556.0</ele><time>2026-04-23T11:31:59Z</time></trkpt><trkpt lat="42.30335793255392" lon="13.730372728321628"><ele>556.0</ele><time>2026-04-23T11:31:59.999Z</time></trkpt><trkpt lat="42.303279879032324" lon="13.73054902255216"><ele>557.75</ele><time>2026-04-23T11:32:00.999Z</time></trkpt><trkpt lat="42.30320955778593" lon="13.730710287828021"><ele>559.5</ele><time>2026-04-23T11:32:01.999Z</time></trkpt><trkpt lat="42.30314445041441" lon="13.730858128421922"><ele>561.25</ele><time>2026-04-23T11:32:02.999Z</time></trkpt><trkpt lat="42.30309499393722" lon="13.731015917068428"><ele>563.0</ele><time>2026-04-23T11:32:03.999Z</time></trkpt><trkpt lat="42.30307800031254" lon="13.73118532538762"><ele>561.0</ele><time>2026-04-23T11:32:04.999Z</time></trkpt><trkpt lat="42.30309296074671" lon="13.73136200960107"><ele>559.0</ele><time>2026-04-23T11:32:05.999Z</time></trkpt><trkpt lat="42.3031358441952" lon="13.731538032935141"><ele>557.0</ele><time>2026-04-23T11:32:06.999Z</time></trkpt><trkpt lat="42.30319463765112" lon="13.731699682873533"><ele>555.0</ele><time>2026-04-23T11:32:07.999Z</time></trkpt><trkpt lat="42.30326074229011" lon="13.73183806210459"><ele>550.5</ele><time>2026-04-23T11:32:08.999Z</time></trkpt><trkpt lat="42.303350274107004" lon="13.731948569999837"><ele>546.0</ele><time>2026-04-23T11:32:09.999Z</time></trkpt><trkpt lat="42.30345919727343" lon="13.732037633678178"><ele>541.5</ele><time>2026-04-23T11:32:10.999Z</time></trkpt><trkpt lat="42.30357541214859" lon="13.732140092662236"><ele>537.0</ele><time>2026-04-23T11:32:11.999Z</time></trkpt><trkpt lat="42.30369354796577" lon="13.732251732935948"><ele>537.0</ele><time>2026-04-23T11:32:12.999Z</time></trkpt><trkpt lat="42.30381244639513" lon="13.732362063165583"><ele>537.0</ele><time>2026-04-23T11:32:14Z</time></trkpt><trkpt lat="42.30392637067254" lon="13.73246270919982"><ele>537.0</ele><time>2026-04-23T11:32:15Z</time></trkpt><trkpt lat="42.30403667183838" lon="13.732564702791223"><ele>537.0</ele><time>2026-04-23T11:32:16Z</time></trkpt><trkpt lat="42.30413733007059" lon="13.732677696803556"><ele>537.5</ele><time>2026-04-23T11:32:17Z</time></trkpt><trkpt lat="42.304218613099366" lon="13.73281814977834"><ele>538.0</ele><time>2026-04-23T11:32:18Z</time></trkpt><trkpt lat="42.30427584301397" lon="13.732976250101506"><ele>538.5</ele><time>2026-04-23T11:32:19Z</time></trkpt><trkpt lat="42.30431435882103" lon="13.733136470844423"><ele>539.0</ele><time>2026-04-23T11:32:20Z</time></trkpt><trkpt lat="42.304342146938836" lon="13.733294966408431"><ele>539.0</ele><time>2026-04-23T11:32:21Z</time></trkpt><trkpt lat="42.30436636508332" lon="13.733452468488114"><ele>539.0</ele><time>2026-04-23T11:32:22Z</time></trkpt><trkpt lat="42.30439717422708" lon="13.73361379534722"><ele>539.0</ele><time>2026-04-23T11:32:23Z</time></trkpt><trkpt lat="42.30443137482059" lon="13.733779193254826"><ele>539.0</ele><time>2026-04-23T11:32:24Z</time></trkpt><trkpt lat="42.30446677148885" lon="13.733943901791923"><ele>538.25</ele><time>2026-04-23T11:32:25Z</time></trkpt><trkpt lat="42.30450306534176" lon="13.734111031351617"><ele>537.5</ele><time>2026-04-23T11:32:26Z</time></trkpt><trkpt lat="42.304541246434034" lon="13.734277102893035"><ele>536.75</ele><time>2026-04-23T11:32:27Z</time></trkpt><trkpt lat="42.30458129568593" lon="13.734439939042906"><ele>536.0</ele><time>2026-04-23T11:32:28Z</time></trkpt><trkpt lat="42.304621083970126" lon="13.734584801124425"><ele>535.3333333333333</ele><time>2026-04-23T11:32:29Z</time></trkpt><trkpt lat="42.304659299791865" lon="13.734707066017597"><ele>534.6666666666666</ele><time>2026-04-23T11:32:30Z</time></trkpt><trkpt lat="42.30467437665014" lon="13.734803224146638"><ele>534.0</ele><time>2026-04-23T11:32:31Z</time></trkpt><trkpt lat="42.304592837224334" lon="13.734908325813475"><ele>533.3333333333334</ele><time>2026-04-23T11:32:33Z</time></trkpt><trkpt lat="42.30452763912166" lon="13.734885387954089"><ele>532.6666666666667</ele><time>2026-04-23T11:32:34Z</time></trkpt><trkpt lat="42.30446839029206" lon="13.73481346577441"><ele>532.0</ele><time>2026-04-23T11:32:35Z</time></trkpt><trkpt lat="42.30441794232101" lon="13.734694894435156"><ele>532.0</ele><time>2026-04-23T11:32:36Z</time></trkpt><trkpt lat="42.304355680357226" lon="13.734551239255403"><ele>532.0</ele><time>2026-04-23T11:32:37Z</time></trkpt><trkpt lat="42.30427114257141" lon="13.734431213241239"><ele>532.0</ele><time>2026-04-23T11:32:38Z</time></trkpt><trkpt lat="42.30416969582061" lon="13.734302259549679"><ele>532.0</ele><time>2026-04-23T11:32:39Z</time></trkpt><trkpt lat="42.3040624547667" lon="13.734149103926427"><ele>533.3333333333334</ele><time>2026-04-23T11:32:40Z</time></trkpt><trkpt lat="42.30396038189895" lon="13.733979480445534"><ele>534.6666666666666</ele><time>2026-04-23T11:32:41Z</time></trkpt><trkpt lat="42.30386624142487" lon="13.733796911305191"><ele>536.0</ele><time>2026-04-23T11:32:42Z</time></trkpt><trkpt lat="42.303775684632086" lon="13.733627180451604"><ele>533.0</ele><time>2026-04-23T11:32:43Z</time></trkpt><trkpt lat="42.303691386537295" lon="13.733465059080604"><ele>530.0</ele><time>2026-04-23T11:32:44Z</time></trkpt><trkpt lat="42.30361067799337" lon="13.73331013117156"><ele>527.0</ele><time>2026-04-23T11:32:45Z</time></trkpt><trkpt lat="42.3035231890541" lon="13.733162116132346"><ele>524.0</ele><time>2026-04-23T11:32:46Z</time></trkpt><trkpt lat="42.30340980093706" lon="13.733052211297823"><ele>524.0</ele><time>2026-04-23T11:32:47Z</time></trkpt><trkpt lat="42.30326530742435" lon="13.732985347964094"><ele>524.0</ele><time>2026-04-23T11:32:48Z</time></trkpt><trkpt lat="42.30310843817436" lon="13.732934242013112"><ele>524.0</ele><time>2026-04-23T11:32:49Z</time></trkpt><trkpt lat="42.30295809339894" lon="13.732875730480817"><ele>523.0</ele><time>2026-04-23T11:32:50Z</time></trkpt><trkpt lat="42.30281743230505" lon="13.732807121487463"><ele>522.0</ele><time>2026-04-23T11:32:51Z</time></trkpt><trkpt lat="42.30268297517314" lon="13.73272885210557"><ele>521.0</ele><time>2026-04-23T11:32:52Z</time></trkpt><trkpt lat="42.30255563246586" lon="13.732637134589872"><ele>520.0</ele><time>2026-04-23T11:32:53Z</time></trkpt><trkpt lat="42.30244219801922" lon="13.7325205277271"><ele>520.0</ele><time>2026-04-23T11:32:54Z</time></trkpt><trkpt lat="42.30234503022761" lon="13.732375513927543"><ele>520.0</ele><time>2026-04-23T11:32:55Z</time></trkpt><trkpt lat="42.30225023389199" lon="13.732210069089644"><ele>520.0</ele><time>2026-04-23T11:32:56Z</time></trkpt><trkpt lat="42.30215568766604" lon="13.73205016200388"><ele>515.25</ele><time>2026-04-23T11:32:57Z</time></trkpt><trkpt lat="42.30206542052388" lon="13.731905959332655"><ele>510.5</ele><time>2026-04-23T11:32:58Z</time></trkpt><trkpt lat="42.30199378424053" lon="13.731772372356755"><ele>505.75</ele><time>2026-04-23T11:32:59Z</time></trkpt><trkpt lat="42.30194856695259" lon="13.7316285189097"><ele>501.0</ele><time>2026-04-23T11:33:00Z</time></trkpt><trkpt lat="42.301929699358105" lon="13.731478443122185"><ele>501.0</ele><time>2026-04-23T11:33:01Z</time></trkpt><trkpt lat="42.30191930389868" lon="13.73132982184846"><ele>501.0</ele><time>2026-04-23T11:33:02Z</time></trkpt><trkpt lat="42.3019145084714" lon="13.731178713593527"><ele>501.0</ele><time>2026-04-23T11:33:03Z</time></trkpt><trkpt lat="42.30191196561558" lon="13.73101508164395"><ele>501.0</ele><time>2026-04-23T11:33:04Z</time></trkpt><trkpt lat="42.301914587455066" lon="13.730857317851362"><ele>501.5</ele><time>2026-04-23T11:33:05Z</time></trkpt><trkpt lat="42.3019197149371" lon="13.730720515735085"><ele>502.0</ele><time>2026-04-23T11:33:06Z</time></trkpt><trkpt lat="42.30191158233473" lon="13.730620112527742"><ele>502.5</ele><time>2026-04-23T11:33:07Z</time></trkpt><trkpt lat="42.301866587699394" lon="13.730560170610007"><ele>503.0</ele><time>2026-04-23T11:33:08Z</time></trkpt><trkpt lat="42.30180240265421" lon="13.730558339061508"><ele>503.5</ele><time>2026-04-23T11:33:09Z</time></trkpt><trkpt lat="42.30175130585557" lon="13.730619851032337"><ele>504.0</ele><time>2026-04-23T11:33:10Z</time></trkpt><trkpt lat="42.30172322757266" lon="13.730732950343356"><ele>504.0</ele><time>2026-04-23T11:33:11Z</time></trkpt><trkpt lat="42.30172383316588" lon="13.730885598862315"><ele>504.0</ele><time>2026-04-23T11:33:12Z</time></trkpt><trkpt lat="42.30174002312762" lon="13.731061284530538"><ele>504.0</ele><time>2026-04-23T11:33:13Z</time></trkpt><trkpt lat="42.30175693243058" lon="13.731243712675836"><ele>504.0</ele><time>2026-04-23T11:33:14Z</time></trkpt><trkpt lat="42.301765693643524" lon="13.731447940357032"><ele>503.25</ele><time>2026-04-23T11:33:15Z</time></trkpt><trkpt lat="42.301763203947864" lon="13.731649870972351"><ele>502.5</ele><time>2026-04-23T11:33:16Z</time></trkpt><trkpt lat="42.3017365169223" lon="13.73184337967431"><ele>501.75</ele><time>2026-04-23T11:33:17Z</time></trkpt><trkpt lat="42.30168338417041" lon="13.732035578504318"><ele>501.0</ele><time>2026-04-23T11:33:18Z</time></trkpt><trkpt lat="42.30161330347547" lon="13.73223377185998"><ele>500.33333333333337</ele><time>2026-04-23T11:33:19Z</time></trkpt><trkpt lat="42.30153703636717" lon="13.732432205067507"><ele>499.6666666666667</ele><time>2026-04-23T11:33:20Z</time></trkpt><trkpt lat="42.30144852001606" lon="13.732619101549988"><ele>499.0</ele><time>2026-04-23T11:33:21Z</time></trkpt><trkpt lat="42.30135540954885" lon="13.732781742175307"><ele>495.25</ele><time>2026-04-23T11:33:22Z</time></trkpt><trkpt lat="42.30126776400381" lon="13.732938520623561"><ele>491.5</ele><time>2026-04-23T11:33:23Z</time></trkpt><trkpt lat="42.30119417452508" lon="13.733109251264048"><ele>487.75</ele><time>2026-04-23T11:33:24Z</time></trkpt><trkpt lat="42.301135427704594" lon="13.733298525520087"><ele>484.0</ele><time>2026-04-23T11:33:25Z</time></trkpt><trkpt lat="42.3010792514612" lon="13.733488985728378"><ele>483.33333333333337</ele><time>2026-04-23T11:33:26Z</time></trkpt><trkpt lat="42.30102071913852" lon="13.73368807014198"><ele>482.66666666666663</ele><time>2026-04-23T11:33:27Z</time></trkpt><trkpt lat="42.30095748653725" lon="13.733895776856967"><ele>482.0</ele><time>2026-04-23T11:33:28Z</time></trkpt><trkpt lat="42.30088968877228" lon="13.734112485873748"><ele>482.0</ele><time>2026-04-23T11:33:29Z</time></trkpt><trkpt lat="42.30082447126535" lon="13.734325984054179"><ele>482.0</ele><time>2026-04-23T11:33:30Z</time></trkpt><trkpt lat="42.30075951482727" lon="13.734539190106464"><ele>482.0</ele><time>2026-04-23T11:33:31Z</time></trkpt><trkpt lat="42.3006952967482" lon="13.734745825739518"><ele>481.66666666666663</ele><time>2026-04-23T11:33:32Z</time></trkpt><trkpt lat="42.300633459008594" lon="13.734949255903663"><ele>481.33333333333337</ele><time>2026-04-23T11:33:33Z</time></trkpt><trkpt lat="42.30057690211921" lon="13.735162124954263"><ele>481.0</ele><time>2026-04-23T11:33:34Z</time></trkpt><trkpt lat="42.300530551122876" lon="13.73538648131288"><ele>476.0</ele><time>2026-04-23T11:33:35Z</time></trkpt><trkpt lat="42.300491834500576" lon="13.735618753209792"><ele>471.0</ele><time>2026-04-23T11:33:36Z</time></trkpt><trkpt lat="42.30045542872059" lon="13.735856773577071"><ele>466.0</ele><time>2026-04-23T11:33:37Z</time></trkpt><trkpt lat="42.300417609030696" lon="13.736092511454093"><ele>465.0</ele><time>2026-04-23T11:33:38Z</time></trkpt><trkpt lat="42.30037725684312" lon="13.736333662054061"><ele>464.0</ele><time>2026-04-23T11:33:39Z</time></trkpt><trkpt lat="42.300347043458025" lon="13.736561134467628"><ele>463.0</ele><time>2026-04-23T11:33:40Z</time></trkpt><trkpt lat="42.30032511532781" lon="13.736791597727537"><ele>461.33333333333337</ele><time>2026-04-23T11:33:41Z</time></trkpt><trkpt lat="42.30032132504117" lon="13.73702510389882"><ele>459.66666666666663</ele><time>2026-04-23T11:33:42Z</time></trkpt><trkpt lat="42.30033705134362" lon="13.737260802128668"><ele>458.0</ele><time>2026-04-23T11:33:43Z</time></trkpt><trkpt lat="42.300341379636144" lon="13.737508515450443"><ele>457.0</ele><time>2026-04-23T11:33:44Z</time></trkpt><trkpt lat="42.30033083898686" lon="13.737741560226088"><ele>456.0</ele><time>2026-04-23T11:33:45Z</time></trkpt><trkpt lat="42.30030308161137" lon="13.737979372590312"><ele>455.0</ele><time>2026-04-23T11:33:46Z</time></trkpt><trkpt lat="42.30025848095438" lon="13.738214844913939"><ele>455.0</ele><time>2026-04-23T11:33:47Z</time></trkpt><trkpt lat="42.30019659904052" lon="13.738446994779464"><ele>455.0</ele><time>2026-04-23T11:33:48Z</time></trkpt><trkpt lat="42.300139879758014" lon="13.738665792636853"><ele>455.0</ele><time>2026-04-23T11:33:49Z</time></trkpt><trkpt lat="42.30007672872008" lon="13.738873704488924"><ele>455.3333333333333</ele><time>2026-04-23T11:33:50Z</time></trkpt><trkpt lat="42.30000384216445" lon="13.739064303142404"><ele>455.66666666666663</ele><time>2026-04-23T11:33:51Z</time></trkpt><trkpt lat="42.299905556168085" lon="13.739232400329188"><ele>456.0</ele><time>2026-04-23T11:33:52Z</time></trkpt><trkpt lat="42.29978816008908" lon="13.739372206249394"><ele>451.66666666666663</ele><time>2026-04-23T11:33:53Z</time></trkpt><trkpt lat="42.29965665526851" lon="13.739491459567343"><ele>447.3333333333333</ele><time>2026-04-23T11:33:54Z</time></trkpt><trkpt lat="42.29951314711442" lon="13.73957783205532"><ele>443.0</ele><time>2026-04-23T11:33:55Z</time></trkpt><trkpt lat="42.29935625833911" lon="13.739645821390543"><ele>443.0</ele><time>2026-04-23T11:33:56Z</time></trkpt><trkpt lat="42.29921368255363" lon="13.73976252791842"><ele>443.0</ele><time>2026-04-23T11:33:56.999Z</time></trkpt><trkpt lat="42.29909103127921" lon="13.739921026852798"><ele>443.0</ele><time>2026-04-23T11:33:57.999Z</time></trkpt><trkpt lat="42.298973077738935" lon="13.74010581421451"><ele>440.0</ele><time>2026-04-23T11:33:58.999Z</time></trkpt><trkpt lat="42.29886338879749" lon="13.740294501464907"><ele>437.0</ele><time>2026-04-23T11:33:59.999Z</time></trkpt><trkpt lat="42.2987470476545" lon="13.740490268107932"><ele>434.0</ele><time>2026-04-23T11:34:00.999Z</time></trkpt><trkpt lat="42.298635742947745" lon="13.740677334964767"><ele>434.0</ele><time>2026-04-23T11:34:01.999Z</time></trkpt><trkpt lat="42.29852467117699" lon="13.740857814941249"><ele>434.0</ele><time>2026-04-23T11:34:02.999Z</time></trkpt><trkpt lat="42.29841943538866" lon="13.741013978662671"><ele>434.0</ele><time>2026-04-23T11:34:03.999Z</time></trkpt><trkpt lat="42.29831978152194" lon="13.7411394690356"><ele>434.5</ele><time>2026-04-23T11:34:04.999Z</time></trkpt><trkpt lat="42.29820475736897" lon="13.741223050679249"><ele>435.0</ele><time>2026-04-23T11:34:05.999Z</time></trkpt><trkpt lat="42.29807453707503" lon="13.741246690438823"><ele>435.5</ele><time>2026-04-23T11:34:06.999Z</time></trkpt><trkpt lat="42.29794058773019" lon="13.741212618695219"><ele>436.0</ele><time>2026-04-23T11:34:07.999Z</time></trkpt><trkpt lat="42.297802738128546" lon="13.741148867102265"><ele>432.0</ele><time>2026-04-23T11:34:08.999Z</time></trkpt><trkpt lat="42.29765606603406" lon="13.741080992288072"><ele>428.0</ele><time>2026-04-23T11:34:09.999Z</time></trkpt><trkpt lat="42.2975072047849" lon="13.741015200516983"><ele>424.0</ele><time>2026-04-23T11:34:10.999Z</time></trkpt><trkpt lat="42.297364732535875" lon="13.740959110193737"><ele>422.0</ele><time>2026-04-23T11:34:11.999Z</time></trkpt><trkpt lat="42.29722180779283" lon="13.740938324455591"><ele>420.0</ele><time>2026-04-23T11:34:12.999Z</time></trkpt><trkpt lat="42.29707681890618" lon="13.740970121703908"><ele>418.0</ele><time>2026-04-23T11:34:13.999Z</time></trkpt><trkpt lat="42.2969285100699" lon="13.741036606700533"><ele>416.0</ele><time>2026-04-23T11:34:14.999Z</time></trkpt><trkpt lat="42.29678557868602" lon="13.741126331835"><ele>415.66666666666663</ele><time>2026-04-23T11:34:15.999Z</time></trkpt><trkpt lat="42.296640903669086" lon="13.741238660090099"><ele>415.33333333333337</ele><time>2026-04-23T11:34:16.999Z</time></trkpt><trkpt lat="42.2964900279095" lon="13.741366781396337"><ele>415.0</ele><time>2026-04-23T11:34:17.999Z</time></trkpt><trkpt lat="42.29633934075747" lon="13.741508812081085"><ele>413.33333333333337</ele><time>2026-04-23T11:34:18.999Z</time></trkpt><trkpt lat="42.29619126138996" lon="13.741655831250709"><ele>411.66666666666663</ele><time>2026-04-23T11:34:19.999Z</time></trkpt><trkpt lat="42.296041192847454" lon="13.741793615830064"><ele>410.0</ele><time>2026-04-23T11:34:20.999Z</time></trkpt><trkpt lat="42.295904587142346" lon="13.741931005382432"><ele>409.5</ele><time>2026-04-23T11:34:21.999Z</time></trkpt><trkpt lat="42.29579217894626" lon="13.742074071580367"><ele>409.0</ele><time>2026-04-23T11:34:22.999Z</time></trkpt><trkpt lat="42.295710907399766" lon="13.742231887807"><ele>408.5</ele><time>2026-04-23T11:34:23.999Z</time></trkpt><trkpt lat="42.29566648904027" lon="13.742410138409074"><ele>408.0</ele><time>2026-04-23T11:34:24.999Z</time></trkpt><trkpt lat="42.29565498759426" lon="13.742615264495727"><ele>408.33333333333337</ele><time>2026-04-23T11:34:25.999Z</time></trkpt><trkpt lat="42.295654265793175" lon="13.742842646088326"><ele>408.6666666666667</ele><time>2026-04-23T11:34:26.999Z</time></trkpt><trkpt lat="42.29565337369888" lon="13.743077812805094"><ele>409.0</ele><time>2026-04-23T11:34:27.999Z</time></trkpt><trkpt lat="42.295660052944925" lon="13.743319313091568"><ele>409.6666666666667</ele><time>2026-04-23T11:34:28.999Z</time></trkpt><trkpt lat="42.295676880070346" lon="13.743560992132375"><ele>410.33333333333337</ele><time>2026-04-23T11:34:29.999Z</time></trkpt><trkpt lat="42.29568279086985" lon="13.743799801804418"><ele>411.0</ele><time>2026-04-23T11:34:30.999Z</time></trkpt><trkpt lat="42.29565920787513" lon="13.74404125480121"><ele>411.0</ele><time>2026-04-23T11:34:31.999Z</time></trkpt><trkpt lat="42.29561360751401" lon="13.744283067016028"><ele>411.0</ele><time>2026-04-23T11:34:32.999Z</time></trkpt><trkpt lat="42.295563919027465" lon="13.744531588515146"><ele>411.0</ele><time>2026-04-23T11:34:33.999Z</time></trkpt><trkpt lat="42.295521343332645" lon="13.744785360844176"><ele>407.66666666666663</ele><time>2026-04-23T11:34:34.999Z</time></trkpt><trkpt lat="42.29548063633918" lon="13.745041763807983"><ele>404.3333333333333</ele><time>2026-04-23T11:34:35.999Z</time></trkpt><trkpt lat="42.29544120395229" lon="13.745286532597742"><ele>401.0</ele><time>2026-04-23T11:34:36.999Z</time></trkpt><trkpt lat="42.29540320489945" lon="13.7455181044984"><ele>400.66666666666663</ele><time>2026-04-23T11:34:37.999Z</time></trkpt><trkpt lat="42.295366971855515" lon="13.745738455445032"><ele>400.33333333333337</ele><time>2026-04-23T11:34:38.999Z</time></trkpt><trkpt lat="42.295321268177105" lon="13.745973740396556"><ele>400.0</ele><time>2026-04-23T11:34:39.999Z</time></trkpt><trkpt lat="42.29527345716596" lon="13.746192930748576"><ele>399.0</ele><time>2026-04-23T11:34:40.999Z</time></trkpt><trkpt lat="42.295230711106974" lon="13.746409576069427"><ele>398.0</ele><time>2026-04-23T11:34:41.999Z</time></trkpt><trkpt lat="42.29520395479832" lon="13.746631006118998"><ele>397.0</ele><time>2026-04-23T11:34:42.999Z</time></trkpt><trkpt lat="42.29519525237447" lon="13.746859917636574"><ele>396.33333333333337</ele><time>2026-04-23T11:34:43.999Z</time></trkpt><trkpt lat="42.295204115196555" lon="13.74709323462614"><ele>395.66666666666663</ele><time>2026-04-23T11:34:44.999Z</time></trkpt><trkpt lat="42.2952158725149" lon="13.747334621546369"><ele>395.0</ele><time>2026-04-23T11:34:45.999Z</time></trkpt><trkpt lat="42.295225198895196" lon="13.747579405590276"><ele>395.0</ele><time>2026-04-23T11:34:46.999Z</time></trkpt><trkpt lat="42.29522986418728" lon="13.747819807507318"><ele>395.0</ele><time>2026-04-23T11:34:47.999Z</time></trkpt><trkpt lat="42.29521185592467" lon="13.748072005125222"><ele>395.0</ele><time>2026-04-23T11:34:48.999Z</time></trkpt><trkpt lat="42.29519749496335" lon="13.748295970237299"><ele>395.0</ele><time>2026-04-23T11:34:49.999Z</time></trkpt><trkpt lat="42.29517778533286" lon="13.748510418766445"><ele>395.0</ele><time>2026-04-23T11:34:50.999Z</time></trkpt><trkpt lat="42.29514952050156" lon="13.748719827914497"><ele>395.0</ele><time>2026-04-23T11:34:51.999Z</time></trkpt><trkpt lat="42.295107294475486" lon="13.748921589006608"><ele>395.66666666666663</ele><time>2026-04-23T11:34:52.999Z</time></trkpt><trkpt lat="42.29503983484769" lon="13.749116308139598"><ele>396.33333333333337</ele><time>2026-04-23T11:34:53.999Z</time></trkpt><trkpt lat="42.29494890877936" lon="13.749284608559304"><ele>397.0</ele><time>2026-04-23T11:34:54.999Z</time></trkpt><trkpt lat="42.29482950011214" lon="13.74942436142802"><ele>395.0</ele><time>2026-04-23T11:34:55.999Z</time></trkpt><trkpt lat="42.294694570253036" lon="13.749542261553298"><ele>393.0</ele><time>2026-04-23T11:34:56.999Z</time></trkpt><trkpt lat="42.29455848692781" lon="13.749673126862783"><ele>391.0</ele><time>2026-04-23T11:34:57.999Z</time></trkpt><trkpt lat="42.294434332406645" lon="13.749825663508043"><ele>391.0</ele><time>2026-04-23T11:34:58.999Z</time></trkpt><trkpt lat="42.29433022480005" lon="13.750009342157506"><ele>391.0</ele><time>2026-04-23T11:34:59.999Z</time></trkpt><trkpt lat="42.294244562855894" lon="13.750222468873147"><ele>391.0</ele><time>2026-04-23T11:35:00.999Z</time></trkpt><trkpt lat="42.2941697916268" lon="13.7504421375368"><ele>393.6666666666667</ele><time>2026-04-23T11:35:01.999Z</time></trkpt><trkpt lat="42.29409332173846" lon="13.75067414741454"><ele>396.33333333333337</ele><time>2026-04-23T11:35:02.999Z</time></trkpt><trkpt lat="42.29402248951261" lon="13.75091640722788"><ele>399.0</ele><time>2026-04-23T11:35:03.999Z</time></trkpt><trkpt lat="42.293955376201964" lon="13.751158125562311"><ele>397.0</ele><time>2026-04-23T11:35:04.999Z</time></trkpt><trkpt lat="42.29388785459877" lon="13.75139425665749"><ele>395.0</ele><time>2026-04-23T11:35:05.999Z</time></trkpt><trkpt lat="42.293819501245984" lon="13.751619165505208"><ele>393.0</ele><time>2026-04-23T11:35:06.999Z</time></trkpt><trkpt lat="42.29369949623641" lon="13.75202175888462"><ele>393.0</ele><time>2026-04-23T11:35:08.999Z</time></trkpt><trkpt lat="42.29364290430437" lon="13.75220705347997"><ele>393.0</ele><time>2026-04-23T11:35:09.999Z</time></trkpt><trkpt lat="42.29360521598713" lon="13.752384723713783"><ele>393.0</ele><time>2026-04-23T11:35:10.999Z</time></trkpt><trkpt lat="42.2935933728937" lon="13.752559797062357"><ele>393.0</ele><time>2026-04-23T11:35:11.999Z</time></trkpt><trkpt lat="42.29361078017086" lon="13.752727900277765"><ele>391.75</ele><time>2026-04-23T11:35:12.999Z</time></trkpt><trkpt lat="42.29366117936687" lon="13.75289158717493"><ele>390.5</ele><time>2026-04-23T11:35:13.999Z</time></trkpt><trkpt lat="42.2937492185357" lon="13.753043900123417"><ele>389.25</ele><time>2026-04-23T11:35:14.999Z</time></trkpt><trkpt lat="42.29386164993075" lon="13.753187420580618"><ele>388.0</ele><time>2026-04-23T11:35:15.999Z</time></trkpt><trkpt lat="42.293980870319984" lon="13.753336434086892"><ele>388.0</ele><time>2026-04-23T11:35:16.999Z</time></trkpt><trkpt lat="42.29409319660313" lon="13.753510315156971"><ele>388.0</ele><time>2026-04-23T11:35:17.999Z</time></trkpt><trkpt lat="42.29419385525436" lon="13.75368849450332"><ele>388.0</ele><time>2026-04-23T11:35:18.999Z</time></trkpt><trkpt lat="42.29428823466942" lon="13.753862297441696"><ele>385.5</ele><time>2026-04-23T11:35:19.999Z</time></trkpt><trkpt lat="42.294377635839886" lon="13.754030215743295"><ele>383.0</ele><time>2026-04-23T11:35:20.999Z</time></trkpt><trkpt lat="42.294454555635006" lon="13.754199668530985"><ele>380.5</ele><time>2026-04-23T11:35:21.999Z</time></trkpt><trkpt lat="42.29451239673847" lon="13.754367508701366"><ele>378.0</ele><time>2026-04-23T11:35:22.999Z</time></trkpt><trkpt lat="42.2945634747591" lon="13.754536066029754"><ele>378.2</ele><time>2026-04-23T11:35:23.999Z</time></trkpt><trkpt lat="42.29461120232756" lon="13.754696739411775"><ele>378.4</ele><time>2026-04-23T11:35:24.999Z</time></trkpt><trkpt lat="42.294654366345505" lon="13.754845037315468"><ele>378.59999999999997</ele><time>2026-04-23T11:35:25.999Z</time></trkpt><trkpt lat="42.29469550971443" lon="13.754984959248505"><ele>378.79999999999995</ele><time>2026-04-23T11:35:26.999Z</time></trkpt><trkpt lat="42.29472628996196" lon="13.755089763583475"><ele>379.0</ele><time>2026-04-23T11:35:27.999Z</time></trkpt><trkpt lat="42.29471330007303" lon="13.755215980887547"><ele>379.0</ele><time>2026-04-23T11:35:29.999Z</time></trkpt><trkpt lat="42.29462879113157" lon="13.755284374326"><ele>379.0</ele><time>2026-04-23T11:35:31.999Z</time></trkpt><trkpt lat="42.29454086360425" lon="13.75530452319018"><ele>379.0</ele><time>2026-04-23T11:35:32.999Z</time></trkpt><trkpt lat="42.29444053206525" lon="13.75533571079213"><ele>379.0</ele><time>2026-04-23T11:35:33.999Z</time></trkpt><trkpt lat="42.29432893303927" lon="13.755368080137767"><ele>379.0</ele><time>2026-04-23T11:35:34.999Z</time></trkpt><trkpt lat="42.29421349055286" lon="13.755386786817052"><ele>379.0</ele><time>2026-04-23T11:35:35.999Z</time></trkpt><trkpt lat="42.29408594009823" lon="13.755385853739977"><ele>379.0</ele><time>2026-04-23T11:35:36.999Z</time></trkpt><trkpt lat="42.293950829145594" lon="13.755358354413366"><ele>379.0</ele><time>2026-04-23T11:35:37.999Z</time></trkpt><trkpt lat="42.293813717599065" lon="13.75529708839584"><ele>379.0</ele><time>2026-04-23T11:35:38.999Z</time></trkpt><trkpt lat="42.293678234608066" lon="13.75522206025302"><ele>379.5</ele><time>2026-04-23T11:35:39.999Z</time></trkpt><trkpt lat="42.29354248473512" lon="13.755147096216318"><ele>380.0</ele><time>2026-04-23T11:35:40.999Z</time></trkpt><trkpt lat="42.293403305604265" lon="13.75507316467006"><ele>380.5</ele><time>2026-04-23T11:35:41.999Z</time></trkpt><trkpt lat="42.293265667185295" lon="13.754995347605362"><ele>381.0</ele><time>2026-04-23T11:35:42.999Z</time></trkpt><trkpt lat="42.2931354347182" lon="13.75491888637988"><ele>380.5</ele><time>2026-04-23T11:35:43.999Z</time></trkpt><trkpt lat="42.29301194577959" lon="13.754852841211362"><ele>380.0</ele><time>2026-04-23T11:35:44.999Z</time></trkpt><trkpt lat="42.29288894771033" lon="13.754798442991786"><ele>379.5</ele><time>2026-04-23T11:35:45.999Z</time></trkpt><trkpt lat="42.29275968862572" lon="13.754776384911004"><ele>379.0</ele><time>2026-04-23T11:35:46.999Z</time></trkpt><trkpt lat="42.2926324592696" lon="13.75480884015818"><ele>379.0</ele><time>2026-04-23T11:35:47.999Z</time></trkpt><trkpt lat="42.29250734438348" lon="13.754889369339539"><ele>379.0</ele><time>2026-04-23T11:35:48.999Z</time></trkpt><trkpt lat="42.29238897079636" lon="13.7550089283987"><ele>379.0</ele><time>2026-04-23T11:35:49.999Z</time></trkpt><trkpt lat="42.292279129332755" lon="13.75515958471955"><ele>379.0</ele><time>2026-04-23T11:35:50.999Z</time></trkpt><trkpt lat="42.292176141361416" lon="13.755330743968766"><ele>378.0</ele><time>2026-04-23T11:35:51.999Z</time></trkpt><trkpt lat="42.292087470009506" lon="13.755520887926986"><ele>377.0</ele><time>2026-04-23T11:35:52.999Z</time></trkpt><trkpt lat="42.29202650143478" lon="13.755726400813993"><ele>376.0</ele><time>2026-04-23T11:35:53.999Z</time></trkpt><trkpt lat="42.291983856499506" lon="13.755936223659347"><ele>377.75</ele><time>2026-04-23T11:35:54.999Z</time></trkpt><trkpt lat="42.29193023480273" lon="13.756118987118565"><ele>379.5</ele><time>2026-04-23T11:35:55.999Z</time></trkpt><trkpt lat="42.2918507373487" lon="13.75625898800371"><ele>381.25</ele><time>2026-04-23T11:35:56.999Z</time></trkpt><trkpt lat="42.29174614253962" lon="13.756357844845377"><ele>383.0</ele><time>2026-04-23T11:35:57.999Z</time></trkpt><trkpt lat="42.29161704730173" lon="13.75643976465103"><ele>383.0</ele><time>2026-04-23T11:35:58.999Z</time></trkpt><trkpt lat="42.29147290287247" lon="13.756521376093572"><ele>383.0</ele><time>2026-04-23T11:35:59.999Z</time></trkpt><trkpt lat="42.29132083674739" lon="13.756606017634965"><ele>383.0</ele><time>2026-04-23T11:36:00.999Z</time></trkpt><trkpt lat="42.29116913973778" lon="13.75669586760994"><ele>381.33333333333337</ele><time>2026-04-23T11:36:01.999Z</time></trkpt><trkpt lat="42.291013560499316" lon="13.756801266853333"><ele>379.6666666666667</ele><time>2026-04-23T11:36:02.999Z</time></trkpt><trkpt lat="42.29086197887708" lon="13.756918194470718"><ele>378.0</ele><time>2026-04-23T11:36:03.999Z</time></trkpt><trkpt lat="42.29071694748775" lon="13.757052764136642"><ele>378.0</ele><time>2026-04-23T11:36:04.999Z</time></trkpt><trkpt lat="42.2905762841537" lon="13.757196052488485"><ele>378.0</ele><time>2026-04-23T11:36:05.999Z</time></trkpt><trkpt lat="42.29042470534255" lon="13.757334711512136"><ele>378.0</ele><time>2026-04-23T11:36:06.999Z</time></trkpt><trkpt lat="42.290266864992084" lon="13.757465114936675"><ele>378.0</ele><time>2026-04-23T11:36:07.999Z</time></trkpt><trkpt lat="42.290103329697345" lon="13.757589174414537"><ele>378.0</ele><time>2026-04-23T11:36:08.999Z</time></trkpt><trkpt lat="42.28992796933014" lon="13.757709937957333"><ele>378.0</ele><time>2026-04-23T11:36:09.999Z</time></trkpt><trkpt lat="42.28975540741296" lon="13.757837278652543"><ele>379.6666666666667</ele><time>2026-04-23T11:36:10.999Z</time></trkpt><trkpt lat="42.28957979105696" lon="13.757973511797653"><ele>381.33333333333337</ele><time>2026-04-23T11:36:11.999Z</time></trkpt><trkpt lat="42.289404350813264" lon="13.758120845200574"><ele>383.0</ele><time>2026-04-23T11:36:12.999Z</time></trkpt><trkpt lat="42.28922758457895" lon="13.758274733262846"><ele>383.0</ele><time>2026-04-23T11:36:13.999Z</time></trkpt><trkpt lat="42.28906493958188" lon="13.75843019599021"><ele>383.0</ele><time>2026-04-23T11:36:14.999Z</time></trkpt><trkpt lat="42.288893647987216" lon="13.758585861341423"><ele>383.0</ele><time>2026-04-23T11:36:15.999Z</time></trkpt><trkpt lat="42.28872411921839" lon="13.758743410286803"><ele>382.6666666666667</ele><time>2026-04-23T11:36:16.999Z</time></trkpt><trkpt lat="42.28856525397195" lon="13.758902099214918"><ele>382.3333333333333</ele><time>2026-04-23T11:36:17.999Z</time></trkpt><trkpt lat="42.288402706308254" lon="13.759060318615646"><ele>382.0</ele><time>2026-04-23T11:36:18.999Z</time></trkpt><trkpt lat="42.28824875295144" lon="13.759228753392971"><ele>382.66666666666663</ele><time>2026-04-23T11:36:19.999Z</time></trkpt><trkpt lat="42.28810313783227" lon="13.7594108352428"><ele>383.3333333333333</ele><time>2026-04-23T11:36:20.999Z</time></trkpt><trkpt lat="42.28796890021041" lon="13.759604994175957"><ele>384.0</ele><time>2026-04-23T11:36:21.999Z</time></trkpt><trkpt lat="42.28783836900927" lon="13.759793922773248"><ele>384.0</ele><time>2026-04-23T11:36:22.999Z</time></trkpt><trkpt lat="42.28768023537841" lon="13.759955753556344"><ele>384.0</ele><time>2026-04-23T11:36:23.999Z</time></trkpt><trkpt lat="42.28750137770714" lon="13.760094900686019"><ele>384.0</ele><time>2026-04-23T11:36:24.999Z</time></trkpt><trkpt lat="42.287323964438535" lon="13.760212028266402"><ele>384.33333333333337</ele><time>2026-04-23T11:36:25.999Z</time></trkpt><trkpt lat="42.28715873872671" lon="13.760342330615645"><ele>384.6666666666667</ele><time>2026-04-23T11:36:26.999Z</time></trkpt><trkpt lat="42.287000013484054" lon="13.760490490688294"><ele>385.0</ele><time>2026-04-23T11:36:27.999Z</time></trkpt><trkpt lat="42.28685275789736" lon="13.760667745277665"><ele>385.0</ele><time>2026-04-23T11:36:28.999Z</time></trkpt><trkpt lat="42.28672196333241" lon="13.760863010977893"><ele>385.0</ele><time>2026-04-23T11:36:29.999Z</time></trkpt><trkpt lat="42.286583976586094" lon="13.761066932767475"><ele>385.0</ele><time>2026-04-23T11:36:30.999Z</time></trkpt><trkpt lat="42.286440682174494" lon="13.761273558198498"><ele>384.6666666666667</ele><time>2026-04-23T11:36:31.999Z</time></trkpt><trkpt lat="42.28630571595863" lon="13.761468416840481"><ele>384.33333333333337</ele><time>2026-04-23T11:36:32.999Z</time></trkpt><trkpt lat="42.28615507109358" lon="13.761675892523572"><ele>384.0</ele><time>2026-04-23T11:36:33.999Z</time></trkpt><trkpt lat="42.285867527255014" lon="13.762084674474396"><ele>383.6666666666667</ele><time>2026-04-23T11:36:35.999Z</time></trkpt><trkpt lat="42.285726251901224" lon="13.762289971148657"><ele>383.33333333333337</ele><time>2026-04-23T11:36:36.999Z</time></trkpt><trkpt lat="42.285590745801514" lon="13.76249323461104"><ele>383.0</ele><time>2026-04-23T11:36:37.999Z</time></trkpt><trkpt lat="42.28545086674602" lon="13.762703448392843"><ele>384.0</ele><time>2026-04-23T11:36:38.999Z</time></trkpt><trkpt lat="42.285319026179884" lon="13.762911887054397"><ele>385.0</ele><time>2026-04-23T11:36:39.999Z</time></trkpt><trkpt lat="42.285192437616" lon="13.76312405385658"><ele>386.0</ele><time>2026-04-23T11:36:40.999Z</time></trkpt><trkpt lat="42.28507464873147" lon="13.763325735800073"><ele>386.0</ele><time>2026-04-23T11:36:41.999Z</time></trkpt><trkpt lat="42.284960427478374" lon="13.76351228876231"><ele>386.0</ele><time>2026-04-23T11:36:42.999Z</time></trkpt><trkpt lat="42.28485796033639" lon="13.763666993755447"><ele>386.0</ele><time>2026-04-23T11:36:43.999Z</time></trkpt><trkpt lat="42.284759124437436" lon="13.763783580775057"><ele>386.20000000000005</ele><time>2026-04-23T11:36:44.999Z</time></trkpt><trkpt lat="42.28466165433541" lon="13.763851709404182"><ele>386.40000000000003</ele><time>2026-04-23T11:36:45.999Z</time></trkpt><trkpt lat="42.28455118337416" lon="13.763836181640073"><ele>386.6</ele><time>2026-04-23T11:36:46.999Z</time></trkpt><trkpt lat="42.284455497409475" lon="13.76383179164332"><ele>386.8</ele><time>2026-04-23T11:36:47.999Z</time></trkpt><trkpt lat="42.28436407870156" lon="13.763844694827542"><ele>387.0</ele><time>2026-04-23T11:36:48.999Z</time></trkpt><trkpt lat="42.28427606493939" lon="13.763829236906577"><ele>387.0</ele><time>2026-04-23T11:36:49.999Z</time></trkpt><trkpt lat="42.28417368491185" lon="13.76381678804327"><ele>387.0</ele><time>2026-04-23T11:36:50.999Z</time></trkpt><trkpt lat="42.284069135473" lon="13.763805675270373"><ele>387.0</ele><time>2026-04-23T11:36:51.999Z</time></trkpt><trkpt lat="42.28396613465224" lon="13.763795752267415"><ele>387.0</ele><time>2026-04-23T11:36:52.999Z</time></trkpt><trkpt lat="42.28387012717063" lon="13.763790906514908"><ele>387.0</ele><time>2026-04-23T11:36:53.999Z</time></trkpt><trkpt lat="42.28379244838288" lon="13.763777010432433"><ele>387.0</ele><time>2026-04-23T11:36:54.999Z</time></trkpt><trkpt lat="42.28369824394388" lon="13.763718939461763"><ele>387.0</ele><time>2026-04-23T11:36:57.999Z</time></trkpt><trkpt lat="42.28375635119436" lon="13.763537714023629"><ele>387.0</ele><time>2026-04-23T11:36:58.999Z</time></trkpt><trkpt lat="42.28379118914865" lon="13.76346181855816"><ele>387.0</ele><time>2026-04-23T11:36:59.999Z</time></trkpt><trkpt lat="42.28382036492759" lon="13.763373384523188"><ele>387.0</ele><time>2026-04-23T11:37:00.999Z</time></trkpt><trkpt lat="42.28388600732795" lon="13.763309635913359"><ele>387.40000000000003</ele><time>2026-04-23T11:37:01.999Z</time></trkpt><trkpt lat="42.28392179551239" lon="13.763239017852761"><ele>387.8</ele><time>2026-04-23T11:37:02.999Z</time></trkpt><trkpt lat="42.28401617116778" lon="13.76326070592286"><ele>388.2</ele><time>2026-04-23T11:37:03.999Z</time></trkpt><trkpt lat="42.28413187804052" lon="13.763334793656542"><ele>388.6</ele><time>2026-04-23T11:37:05.999Z</time></trkpt><trkpt lat="42.284178956170535" lon="13.763398748993607"><ele>389.0</ele><time>2026-04-23T11:37:06.999Z</time></trkpt><trkpt lat="42.28422641099846" lon="13.763528838977553"><ele>388.6</ele><time>2026-04-23T11:37:08.999Z</time></trkpt><trkpt lat="42.28419276715165" lon="13.763621080100767"><ele>388.2</ele><time>2026-04-23T11:37:09.999Z</time></trkpt><trkpt lat="42.28416736018343" lon="13.763738602164851"><ele>387.8</ele><time>2026-04-23T11:37:10.999Z</time></trkpt><trkpt lat="42.2840774893038" lon="13.763853696931232"><ele>387.40000000000003</ele><time>2026-04-23T11:37:11.999Z</time></trkpt><trkpt lat="42.28398246292735" lon="13.763980294379973"><ele>387.0</ele><time>2026-04-23T11:37:12.999Z</time></trkpt><trkpt lat="42.28389309643921" lon="13.764113350799324"><ele>387.0</ele><time>2026-04-23T11:37:13.999Z</time></trkpt><trkpt lat="42.2837905185208" lon="13.764280325103833"><ele>387.0</ele><time>2026-04-23T11:37:14.999Z</time></trkpt><trkpt lat="42.2836805770359" lon="13.76445045894482"><ele>387.0</ele><time>2026-04-23T11:37:15.999Z</time></trkpt><trkpt lat="42.28356374759814" lon="13.764626967319664"><ele>386.33333333333337</ele><time>2026-04-23T11:37:16.999Z</time></trkpt><trkpt lat="42.28342976859346" lon="13.764814405971622"><ele>385.6666666666667</ele><time>2026-04-23T11:37:17.999Z</time></trkpt><trkpt lat="42.28329591054464" lon="13.765000324859999"><ele>385.0</ele><time>2026-04-23T11:37:18.999Z</time></trkpt><trkpt lat="42.28315637533494" lon="13.76519299348501"><ele>383.33333333333337</ele><time>2026-04-23T11:37:19.999Z</time></trkpt><trkpt lat="42.28300633173281" lon="13.765389405674615"><ele>381.6666666666667</ele><time>2026-04-23T11:37:20.999Z</time></trkpt><trkpt lat="42.28284830370553" lon="13.765582244753835"><ele>380.0</ele><time>2026-04-23T11:37:21.999Z</time></trkpt><trkpt lat="42.28267997451683" lon="13.765784349577883"><ele>380.0</ele><time>2026-04-23T11:37:22.999Z</time></trkpt><trkpt lat="42.28252689782615" lon="13.765984486126328"><ele>380.0</ele><time>2026-04-23T11:37:23.999Z</time></trkpt><trkpt lat="42.28236133795887" lon="13.76618145809537"><ele>380.0</ele><time>2026-04-23T11:37:24.999Z</time></trkpt><trkpt lat="42.28219766242288" lon="13.766380440814258"><ele>378.0</ele><time>2026-04-23T11:37:25.999Z</time></trkpt><trkpt lat="42.28202997433816" lon="13.766583014224068"><ele>376.0</ele><time>2026-04-23T11:37:26.999Z</time></trkpt><trkpt lat="42.28185208474289" lon="13.766789102155952"><ele>375.5</ele><time>2026-04-23T11:37:27.999Z</time></trkpt><trkpt lat="42.28167923002681" lon="13.766993966567757"><ele>375.0</ele><time>2026-04-23T11:37:28.999Z</time></trkpt><trkpt lat="42.281505167916706" lon="13.767205388356441"><ele>373.0</ele><time>2026-04-23T11:37:29.999Z</time></trkpt><trkpt lat="42.28133366688113" lon="13.76742176114422"><ele>371.0</ele><time>2026-04-23T11:37:30.999Z</time></trkpt><trkpt lat="42.2811502778055" lon="13.767615137385606"><ele>370.5</ele><time>2026-04-23T11:37:31.999Z</time></trkpt><trkpt lat="42.280970621791305" lon="13.767830334304698"><ele>370.0</ele><time>2026-04-23T11:37:32.999Z</time></trkpt><trkpt lat="42.280785812390974" lon="13.768045866432146"><ele>370.0</ele><time>2026-04-23T11:37:33.999Z</time></trkpt><trkpt lat="42.280604501487105" lon="13.768268612178515"><ele>370.0</ele><time>2026-04-23T11:37:34.999Z</time></trkpt><trkpt lat="42.2804202758611" lon="13.768491950861796"><ele>367.0</ele><time>2026-04-23T11:37:35.999Z</time></trkpt><trkpt lat="42.28023562229542" lon="13.768716503098505"><ele>364.0</ele><time>2026-04-23T11:37:36.999Z</time></trkpt><trkpt lat="42.280050533170254" lon="13.768937350316104"><ele>364.0</ele><time>2026-04-23T11:37:37.999Z</time></trkpt><trkpt lat="42.27986336413409" lon="13.769160570985305"><ele>364.0</ele><time>2026-04-23T11:37:38.999Z</time></trkpt><trkpt lat="42.279673597552815" lon="13.76938019694179"><ele>362.5</ele><time>2026-04-23T11:37:39.999Z</time></trkpt><trkpt lat="42.27948633031296" lon="13.769604355829003"><ele>361.0</ele><time>2026-04-23T11:37:40.999Z</time></trkpt><trkpt lat="42.27929642822416" lon="13.76982437661121"><ele>361.0</ele><time>2026-04-23T11:37:41.999Z</time></trkpt><trkpt lat="42.279110445316846" lon="13.770044872026869"><ele>361.0</ele><time>2026-04-23T11:37:42.999Z</time></trkpt><trkpt lat="42.27892898079033" lon="13.770268639754596"><ele>359.0</ele><time>2026-04-23T11:37:43.999Z</time></trkpt><trkpt lat="42.278747051578286" lon="13.770493819762816"><ele>357.0</ele><time>2026-04-23T11:37:44.999Z</time></trkpt><trkpt lat="42.278572114033494" lon="13.770732522998266"><ele>357.0</ele><time>2026-04-23T11:37:45.999Z</time></trkpt><trkpt lat="42.27841004674809" lon="13.770976070678238"><ele>357.0</ele><time>2026-04-23T11:37:46.999Z</time></trkpt><trkpt lat="42.278259419347286" lon="13.771232456583531"><ele>356.0</ele><time>2026-04-23T11:37:47.999Z</time></trkpt><trkpt lat="42.278119796372835" lon="13.77150299055275"><ele>355.0</ele><time>2026-04-23T11:37:48.999Z</time></trkpt><trkpt lat="42.27798742370669" lon="13.771781538210172"><ele>352.5</ele><time>2026-04-23T11:37:49.999Z</time></trkpt><trkpt lat="42.277867211700965" lon="13.772069862913789"><ele>350.0</ele><time>2026-04-23T11:37:50.999Z</time></trkpt><trkpt lat="42.27776268350669" lon="13.772366573507783"><ele>350.0</ele><time>2026-04-23T11:37:51.999Z</time></trkpt><trkpt lat="42.277665559958955" lon="13.772661540612686"><ele>350.0</ele><time>2026-04-23T11:37:52.999Z</time></trkpt><trkpt lat="42.277597204114805" lon="13.772971799359906"><ele>349.0</ele><time>2026-04-23T11:37:53.999Z</time></trkpt><trkpt lat="42.27752151207431" lon="13.773283634170452"><ele>348.0</ele><time>2026-04-23T11:37:54.999Z</time></trkpt><trkpt lat="42.27744386323032" lon="13.773597271889095"><ele>347.5</ele><time>2026-04-23T11:37:55.999Z</time></trkpt><trkpt lat="42.27736664082518" lon="13.773907483021324"><ele>347.0</ele><time>2026-04-23T11:37:56.999Z</time></trkpt><trkpt lat="42.277287921178136" lon="13.774220292497143"><ele>343.0</ele><time>2026-04-23T11:37:57.999Z</time></trkpt><trkpt lat="42.277209147262454" lon="13.774534212676196"><ele>339.0</ele><time>2026-04-23T11:37:58.999Z</time></trkpt><trkpt lat="42.27713344094268" lon="13.774846512669692"><ele>339.0</ele><time>2026-04-23T11:37:59.999Z</time></trkpt><trkpt lat="42.277056896133594" lon="13.775159827546487"><ele>339.0</ele><time>2026-04-23T11:38:00.999Z</time></trkpt><trkpt lat="42.27698101662578" lon="13.775466901415212"><ele>338.5</ele><time>2026-04-23T11:38:01.999Z</time></trkpt><trkpt lat="42.27690603794153" lon="13.775777794681014"><ele>338.0</ele><time>2026-04-23T11:38:02.999Z</time></trkpt><trkpt lat="42.276831330535835" lon="13.776088434744734"><ele>338.0</ele><time>2026-04-23T11:38:03.999Z</time></trkpt><trkpt lat="42.276755993067404" lon="13.776398372082637"><ele>338.0</ele><time>2026-04-23T11:38:04.999Z</time></trkpt><trkpt lat="42.27668150569627" lon="13.776700647623116"><ele>339.0</ele><time>2026-04-23T11:38:05.999Z</time></trkpt><trkpt lat="42.276608573165305" lon="13.77700793314134"><ele>340.0</ele><time>2026-04-23T11:38:06.999Z</time></trkpt><trkpt lat="42.276537469015736" lon="13.777314971028492"><ele>340.0</ele><time>2026-04-23T11:38:07.999Z</time></trkpt><trkpt lat="42.276465758838015" lon="13.777617648515063"><ele>340.0</ele><time>2026-04-23T11:38:08.999Z</time></trkpt><trkpt lat="42.276390510954954" lon="13.77792099197202"><ele>340.0</ele><time>2026-04-23T11:38:09.999Z</time></trkpt><trkpt lat="42.27631473927464" lon="13.778224019209961"><ele>340.0</ele><time>2026-04-23T11:38:10.999Z</time></trkpt><trkpt lat="42.27623778308093" lon="13.778525612563845"><ele>340.0</ele><time>2026-04-23T11:38:11.999Z</time></trkpt><trkpt lat="42.27616117497677" lon="13.778832054816972"><ele>340.0</ele><time>2026-04-23T11:38:12.999Z</time></trkpt><trkpt lat="42.27608450576901" lon="13.779142473171461"><ele>340.5</ele><time>2026-04-23T11:38:13.999Z</time></trkpt><trkpt lat="42.27600780542573" lon="13.77945882661526"><ele>341.0</ele><time>2026-04-23T11:38:14.999Z</time></trkpt><trkpt lat="42.27593137480672" lon="13.779777614448347"><ele>341.0</ele><time>2026-04-23T11:38:15.999Z</time></trkpt><trkpt lat="42.2758533458267" lon="13.780098197892542"><ele>341.0</ele><time>2026-04-23T11:38:16.999Z</time></trkpt><trkpt lat="42.275773909772056" lon="13.780418551593993"><ele>341.0</ele><time>2026-04-23T11:38:17.999Z</time></trkpt><trkpt lat="42.27569481334461" lon="13.780736637959622"><ele>341.0</ele><time>2026-04-23T11:38:18.999Z</time></trkpt><trkpt lat="42.27561966876545" lon="13.78104946507314"><ele>340.6666666666667</ele><time>2026-04-23T11:38:19.999Z</time></trkpt><trkpt lat="42.27554987015196" lon="13.781345783505808"><ele>340.3333333333333</ele><time>2026-04-23T11:38:20.999Z</time></trkpt><trkpt lat="42.27548215350663" lon="13.781623258414651"><ele>340.0</ele><time>2026-04-23T11:38:21.999Z</time></trkpt><trkpt lat="42.27541639492365" lon="13.781890899598334"><ele>340.0</ele><time>2026-04-23T11:38:22.999Z</time></trkpt><trkpt lat="42.27534624533764" lon="13.782161367930762"><ele>340.0</ele><time>2026-04-23T11:38:23.999Z</time></trkpt><trkpt lat="42.27528118531411" lon="13.782428575351505"><ele>340.0</ele><time>2026-04-23T11:38:24.999Z</time></trkpt><trkpt lat="42.27521606145134" lon="13.782688740441722"><ele>340.3333333333333</ele><time>2026-04-23T11:38:25.999Z</time></trkpt><trkpt lat="42.2751522920059" lon="13.782944497188343"><ele>340.6666666666667</ele><time>2026-04-23T11:38:26.999Z</time></trkpt><trkpt lat="42.27509379911472" lon="13.783190431075548"><ele>341.0</ele><time>2026-04-23T11:38:27.999Z</time></trkpt><trkpt lat="42.27503755014315" lon="13.783421919239743"><ele>340.33333333333337</ele><time>2026-04-23T11:38:28.999Z</time></trkpt><trkpt lat="42.27498961588253" lon="13.783634257134155"><ele>339.6666666666667</ele><time>2026-04-23T11:38:29.999Z</time></trkpt><trkpt lat="42.27493716705176" lon="13.783833357647623"><ele>339.0</ele><time>2026-04-23T11:38:30.999Z</time></trkpt><trkpt lat="42.27489448730627" lon="13.783999892994895"><ele>339.0</ele><time>2026-04-23T11:38:31.999Z</time></trkpt><trkpt lat="42.274858070977004" lon="13.7841421503709"><ele>339.0</ele><time>2026-04-23T11:38:32.999Z</time></trkpt><trkpt lat="42.27482414455442" lon="13.784273283315656"><ele>339.0</ele><time>2026-04-23T11:38:33.999Z</time></trkpt><trkpt lat="42.274785672232184" lon="13.784393799950461"><ele>339.0</ele><time>2026-04-23T11:38:34.999Z</time></trkpt><trkpt lat="42.274743847912774" lon="13.784484737633237"><ele>339.0</ele><time>2026-04-23T11:38:35.999Z</time></trkpt><trkpt lat="42.274671562849235" lon="13.784583475481682"><ele>338.5</ele><time>2026-04-23T11:38:37.999Z</time></trkpt><trkpt lat="42.27460447463218" lon="13.784631363623307"><ele>338.0</ele><time>2026-04-23T11:38:40Z</time></trkpt><trkpt lat="42.274531427593644" lon="13.78470436699221"><ele>337.5</ele><time>2026-04-23T11:38:43Z</time></trkpt><trkpt lat="42.27450381635527" lon="13.784786949443742"><ele>337.0</ele><time>2026-04-23T11:38:45Z</time></trkpt><trkpt lat="42.274517099538" lon="13.784919669698919"><ele>336.5</ele><time>2026-04-23T11:38:47Z</time></trkpt><trkpt lat="42.27454435340554" lon="13.784999232279128"><ele>336.0</ele><time>2026-04-23T11:38:48Z</time></trkpt><trkpt lat="42.2745665410345" lon="13.785085286353642"><ele>335.8</ele><time>2026-04-23T11:38:49Z</time></trkpt><trkpt lat="42.27457383084648" lon="13.785263249256994"><ele>335.6</ele><time>2026-04-23T11:38:51Z</time></trkpt><trkpt lat="42.27455711194916" lon="13.785361104121238"><ele>335.4</ele><time>2026-04-23T11:38:52Z</time></trkpt><trkpt lat="42.27453343200391" lon="13.78546282835344"><ele>335.2</ele><time>2026-04-23T11:38:53Z</time></trkpt><trkpt lat="42.27450971370051" lon="13.785564588785704"><ele>335.0</ele><time>2026-04-23T11:38:54Z</time></trkpt><trkpt lat="42.274479992020574" lon="13.785673328408269"><ele>335.0</ele><time>2026-04-23T11:38:55Z</time></trkpt><trkpt lat="42.274454144578606" lon="13.78578103301013"><ele>335.0</ele><time>2026-04-23T11:38:56Z</time></trkpt><trkpt lat="42.27442541317229" lon="13.785893555116749"><ele>335.0</ele><time>2026-04-23T11:38:57Z</time></trkpt><trkpt lat="42.2743985674023" lon="13.786003122286921"><ele>335.0</ele><time>2026-04-23T11:38:58Z</time></trkpt><trkpt lat="42.27436342578781" lon="13.786121351207537"><ele>335.0</ele><time>2026-04-23T11:38:59Z</time></trkpt><trkpt lat="42.27432691960161" lon="13.786250313351648"><ele>335.25</ele><time>2026-04-23T11:39:00Z</time></trkpt><trkpt lat="42.27428673602529" lon="13.786382005167372"><ele>335.5</ele><time>2026-04-23T11:39:01Z</time></trkpt><trkpt lat="42.27423769567187" lon="13.786520643878884"><ele>335.75</ele><time>2026-04-23T11:39:02Z</time></trkpt><trkpt lat="42.274183820863975" lon="13.786664781685168"><ele>336.0</ele><time>2026-04-23T11:39:03Z</time></trkpt><trkpt lat="42.27412733312668" lon="13.786813484804094"><ele>336.5</ele><time>2026-04-23T11:39:04Z</time></trkpt><trkpt lat="42.27406532452112" lon="13.786966297865751"><ele>337.0</ele><time>2026-04-23T11:39:05Z</time></trkpt><trkpt lat="42.27399893309499" lon="13.787116522138732"><ele>337.5</ele><time>2026-04-23T11:39:06Z</time></trkpt><trkpt lat="42.27393198978712" lon="13.787261639902981"><ele>338.0</ele><time>2026-04-23T11:39:07Z</time></trkpt><trkpt lat="42.27385716351744" lon="13.787410091524793"><ele>338.0</ele><time>2026-04-23T11:39:08Z</time></trkpt><trkpt lat="42.273781112004144" lon="13.787558775361443"><ele>338.0</ele><time>2026-04-23T11:39:09Z</time></trkpt><trkpt lat="42.27369528141093" lon="13.787710591191997"><ele>338.0</ele><time>2026-04-23T11:39:10Z</time></trkpt><trkpt lat="42.27360227891825" lon="13.787866757357916"><ele>338.0</ele><time>2026-04-23T11:39:11Z</time></trkpt><trkpt lat="42.27350014239659" lon="13.788029087238787"><ele>338.0</ele><time>2026-04-23T11:39:12Z</time></trkpt><trkpt lat="42.27339811124102" lon="13.788188586679363"><ele>338.0</ele><time>2026-04-23T11:39:13Z</time></trkpt><trkpt lat="42.27328793709059" lon="13.788359030805369"><ele>338.0</ele><time>2026-04-23T11:39:14Z</time></trkpt><trkpt lat="42.273182153708056" lon="13.788522483991303"><ele>337.0</ele><time>2026-04-23T11:39:15Z</time></trkpt><trkpt lat="42.2730768055881" lon="13.788691397482056"><ele>336.0</ele><time>2026-04-23T11:39:16Z</time></trkpt><trkpt lat="42.272960334847376" lon="13.788872996901269"><ele>335.0</ele><time>2026-04-23T11:39:17Z</time></trkpt><trkpt lat="42.27284760962661" lon="13.78905843405028"><ele>335.0</ele><time>2026-04-23T11:39:18Z</time></trkpt><trkpt lat="42.272735797842415" lon="13.789229660118428"><ele>335.0</ele><time>2026-04-23T11:39:19Z</time></trkpt><trkpt lat="42.27261729977449" lon="13.789398941869324"><ele>335.0</ele><time>2026-04-23T11:39:20Z</time></trkpt><trkpt lat="42.27250307252867" lon="13.789573710715331"><ele>335.0</ele><time>2026-04-23T11:39:21Z</time></trkpt><trkpt lat="42.27239009895776" lon="13.789755901954484"><ele>335.0</ele><time>2026-04-23T11:39:22Z</time></trkpt><trkpt lat="42.27227506934378" lon="13.78994124852098"><ele>335.0</ele><time>2026-04-23T11:39:23Z</time></trkpt><trkpt lat="42.272151755174995" lon="13.790125918405288"><ele>335.6666666666667</ele><time>2026-04-23T11:39:24Z</time></trkpt><trkpt lat="42.27202905749588" lon="13.790313284101066"><ele>336.3333333333333</ele><time>2026-04-23T11:39:25Z</time></trkpt><trkpt lat="42.27190773923894" lon="13.790502684902343"><ele>337.0</ele><time>2026-04-23T11:39:26Z</time></trkpt><trkpt lat="42.27178467248497" lon="13.790691717028402"><ele>337.0</ele><time>2026-04-23T11:39:27Z</time></trkpt><trkpt lat="42.27165249279049" lon="13.790889662079195"><ele>337.0</ele><time>2026-04-23T11:39:28Z</time></trkpt><trkpt lat="42.27152588607616" lon="13.791084553332803"><ele>337.0</ele><time>2026-04-23T11:39:29Z</time></trkpt><trkpt lat="42.271394993903854" lon="13.791286612042857"><ele>336.0</ele><time>2026-04-23T11:39:30Z</time></trkpt><trkpt lat="42.27126527886821" lon="13.791492844357062"><ele>335.0</ele><time>2026-04-23T11:39:31Z</time></trkpt><trkpt lat="42.271125356085" lon="13.791700474148854"><ele>334.0</ele><time>2026-04-23T11:39:32Z</time></trkpt><trkpt lat="42.2709907539611" lon="13.791912855521725"><ele>333.0</ele><time>2026-04-23T11:39:33Z</time></trkpt><trkpt lat="42.27084870147246" lon="13.792130650677276"><ele>332.0</ele><time>2026-04-23T11:39:34Z</time></trkpt><trkpt lat="42.27071138147543" lon="13.792349140080166"><ele>331.0</ele><time>2026-04-23T11:39:35Z</time></trkpt><trkpt lat="42.270572815698706" lon="13.792563461527747"><ele>329.3333333333333</ele><time>2026-04-23T11:39:36Z</time></trkpt><trkpt lat="42.27043370362316" lon="13.792778264686822"><ele>327.6666666666667</ele><time>2026-04-23T11:39:37Z</time></trkpt><trkpt lat="42.270294000573166" lon="13.792991980377467"><ele>326.0</ele><time>2026-04-23T11:39:38Z</time></trkpt><trkpt lat="42.27015303763495" lon="13.793207046397253"><ele>326.0</ele><time>2026-04-23T11:39:39Z</time></trkpt><trkpt lat="42.27000621041832" lon="13.793425041199797"><ele>326.0</ele><time>2026-04-23T11:39:40Z</time></trkpt><trkpt lat="42.26986441892487" lon="13.793649047078034"><ele>326.0</ele><time>2026-04-23T11:39:41Z</time></trkpt><trkpt lat="42.26971829694674" lon="13.793873776417168"><ele>327.0</ele><time>2026-04-23T11:39:42Z</time></trkpt><trkpt lat="42.26957841792571" lon="13.794100959258369"><ele>328.0</ele><time>2026-04-23T11:39:43Z</time></trkpt><trkpt lat="42.26943395033703" lon="13.794326550134887"><ele>329.0</ele><time>2026-04-23T11:39:44Z</time></trkpt><trkpt lat="42.26929038046963" lon="13.794547263547969"><ele>329.6666666666667</ele><time>2026-04-23T11:39:45Z</time></trkpt><trkpt lat="42.269150065818565" lon="13.794760921418817"><ele>330.3333333333333</ele><time>2026-04-23T11:39:46Z</time></trkpt><trkpt lat="42.26901471889312" lon="13.794966730391565"><ele>331.0</ele><time>2026-04-23T11:39:47Z</time></trkpt><trkpt lat="42.26888737252218" lon="13.795164335655588"><ele>331.0</ele><time>2026-04-23T11:39:48Z</time></trkpt><trkpt lat="42.268759048208544" lon="13.79535903089211"><ele>331.0</ele><time>2026-04-23T11:39:49Z</time></trkpt><trkpt lat="42.26863294553907" lon="13.795551030673227"><ele>331.0</ele><time>2026-04-23T11:39:50Z</time></trkpt><trkpt lat="42.26850895290821" lon="13.795748443334237"><ele>331.0</ele><time>2026-04-23T11:39:51Z</time></trkpt><trkpt lat="42.26838694067357" lon="13.795954533662805"><ele>331.0</ele><time>2026-04-23T11:39:52Z</time></trkpt><trkpt lat="42.26826873987114" lon="13.79616579205725"><ele>331.0</ele><time>2026-04-23T11:39:53Z</time></trkpt><trkpt lat="42.26814724758847" lon="13.796392030427686"><ele>330.66666666666663</ele><time>2026-04-23T11:39:54Z</time></trkpt><trkpt lat="42.26803145524517" lon="13.796623130688534"><ele>330.3333333333333</ele><time>2026-04-23T11:39:55Z</time></trkpt><trkpt lat="42.267912863520614" lon="13.796870478445223"><ele>330.0</ele><time>2026-04-23T11:39:56Z</time></trkpt><trkpt lat="42.267793555677635" lon="13.797126450850936"><ele>331.5</ele><time>2026-04-23T11:39:57Z</time></trkpt><trkpt lat="42.267674511714944" lon="13.797407413438945"><ele>333.0</ele><time>2026-04-23T11:39:58Z</time></trkpt><trkpt lat="42.26755451875324" lon="13.797716979335364"><ele>335.0</ele><time>2026-04-23T11:39:59Z</time></trkpt><trkpt lat="42.26742628808367" lon="13.798050500973135"><ele>337.0</ele><time>2026-04-23T11:40:00Z</time></trkpt><trkpt lat="42.267279490282206" lon="13.798379528970301"><ele>335.0</ele><time>2026-04-23T11:40:01Z</time></trkpt><trkpt lat="42.26714028317413" lon="13.798733450336302"><ele>333.0</ele><time>2026-04-23T11:40:02Z</time></trkpt><trkpt lat="42.26699825167445" lon="13.799096318536947"><ele>334.5</ele><time>2026-04-23T11:40:03Z</time></trkpt><trkpt lat="42.26685434411204" lon="13.799464523770686"><ele>336.0</ele><time>2026-04-23T11:40:04Z</time></trkpt><trkpt lat="42.26672156051897" lon="13.799829890556987"><ele>336.0</ele><time>2026-04-23T11:40:05Z</time></trkpt><trkpt lat="42.26657919963103" lon="13.800163505950408"><ele>336.0</ele><time>2026-04-23T11:40:06Z</time></trkpt><trkpt lat="42.26644790958917" lon="13.8004809396814"><ele>338.0</ele><time>2026-04-23T11:40:07Z</time></trkpt><trkpt lat="42.26631813831297" lon="13.800789677102971"><ele>340.0</ele><time>2026-04-23T11:40:08Z</time></trkpt><trkpt lat="42.26617528638597" lon="13.801084708729677"><ele>342.0</ele><time>2026-04-23T11:40:09Z</time></trkpt><trkpt lat="42.26601797147818" lon="13.801352356273451"><ele>344.0</ele><time>2026-04-23T11:40:10Z</time></trkpt><trkpt lat="42.2658434259288" lon="13.801605605367945"><ele>345.0</ele><time>2026-04-23T11:40:11Z</time></trkpt><trkpt lat="42.265654985465154" lon="13.801856000949895"><ele>346.0</ele><time>2026-04-23T11:40:12Z</time></trkpt><trkpt lat="42.26546370171518" lon="13.802102174962593"><ele>349.0</ele><time>2026-04-23T11:40:13Z</time></trkpt><trkpt lat="42.26526278349086" lon="13.8023306910571"><ele>352.0</ele><time>2026-04-23T11:40:14Z</time></trkpt><trkpt lat="42.26504508471112" lon="13.802538519277505"><ele>352.0</ele><time>2026-04-23T11:40:15Z</time></trkpt><trkpt lat="42.26481969311054" lon="13.802725664020247"><ele>352.0</ele><time>2026-04-23T11:40:16Z</time></trkpt><trkpt lat="42.26459039930018" lon="13.802896560424998"><ele>354.0</ele><time>2026-04-23T11:40:17Z</time></trkpt><trkpt lat="42.264350487842115" lon="13.803049796137238"><ele>356.0</ele><time>2026-04-23T11:40:18Z</time></trkpt><trkpt lat="42.264103378542416" lon="13.803193939025949"><ele>356.5</ele><time>2026-04-23T11:40:19Z</time></trkpt><trkpt lat="42.26385406798544" lon="13.803328118636536"><ele>357.0</ele><time>2026-04-23T11:40:20Z</time></trkpt><trkpt lat="42.2636038541509" lon="13.80345808217548"><ele>359.0</ele><time>2026-04-23T11:40:21Z</time></trkpt><trkpt lat="42.263354389119485" lon="13.803590425367274"><ele>361.0</ele><time>2026-04-23T11:40:22Z</time></trkpt><trkpt lat="42.263104904740125" lon="13.803724892387438"><ele>361.0</ele><time>2026-04-23T11:40:23Z</time></trkpt><trkpt lat="42.26285904567927" lon="13.803859862305517"><ele>361.0</ele><time>2026-04-23T11:40:24Z</time></trkpt><trkpt lat="42.262614405211835" lon="13.803994078896228"><ele>361.0</ele><time>2026-04-23T11:40:25Z</time></trkpt><trkpt lat="42.26236763847944" lon="13.804125649322"><ele>361.0</ele><time>2026-04-23T11:40:26Z</time></trkpt><trkpt lat="42.26212103061847" lon="13.80425456789619"><ele>364.5</ele><time>2026-04-23T11:40:27Z</time></trkpt><trkpt lat="42.26187395452247" lon="13.804383998193815"><ele>368.0</ele><time>2026-04-23T11:40:28Z</time></trkpt><trkpt lat="42.261631180485644" lon="13.804513952872906"><ele>368.5</ele><time>2026-04-23T11:40:29Z</time></trkpt><trkpt lat="42.26138240690703" lon="13.804645311293452"><ele>369.0</ele><time>2026-04-23T11:40:30Z</time></trkpt><trkpt lat="42.26114010060954" lon="13.804779848411492"><ele>369.0</ele><time>2026-04-23T11:40:31Z</time></trkpt><trkpt lat="42.260892383420554" lon="13.80491522377467"><ele>369.0</ele><time>2026-04-23T11:40:32Z</time></trkpt><trkpt lat="42.26064824048266" lon="13.805048230536059"><ele>372.0</ele><time>2026-04-23T11:40:33Z</time></trkpt><trkpt lat="42.26040358259612" lon="13.80518005299007"><ele>375.0</ele><time>2026-04-23T11:40:34Z</time></trkpt><trkpt lat="42.26015530634943" lon="13.805312374829999"><ele>375.0</ele><time>2026-04-23T11:40:35Z</time></trkpt><trkpt lat="42.259916029072784" lon="13.80544547875644"><ele>375.0</ele><time>2026-04-23T11:40:36Z</time></trkpt><trkpt lat="42.25967352893627" lon="13.80557822115935"><ele>374.0</ele><time>2026-04-23T11:40:37Z</time></trkpt><trkpt lat="42.259427877746454" lon="13.805705693906468"><ele>373.0</ele><time>2026-04-23T11:40:38Z</time></trkpt><trkpt lat="42.25917954709667" lon="13.805833211295392"><ele>374.0</ele><time>2026-04-23T11:40:39Z</time></trkpt><trkpt lat="42.258936089679906" lon="13.805963623676085"><ele>375.0</ele><time>2026-04-23T11:40:40Z</time></trkpt><trkpt lat="42.2586870118609" lon="13.806095273764772"><ele>375.0</ele><time>2026-04-23T11:40:41Z</time></trkpt><trkpt lat="42.25844113923961" lon="13.80622866199403"><ele>375.0</ele><time>2026-04-23T11:40:42Z</time></trkpt><trkpt lat="42.258195549038575" lon="13.806362367109875"><ele>373.5</ele><time>2026-04-23T11:40:43Z</time></trkpt><trkpt lat="42.257948013983196" lon="13.80649621754671"><ele>372.0</ele><time>2026-04-23T11:40:44Z</time></trkpt><trkpt lat="42.25770067930423" lon="13.806629261063792"><ele>372.0</ele><time>2026-04-23T11:40:45Z</time></trkpt><trkpt lat="42.25744978597955" lon="13.806764602631766"><ele>372.0</ele><time>2026-04-23T11:40:46Z</time></trkpt><trkpt lat="42.25720130263623" lon="13.806901475680581"><ele>374.0</ele><time>2026-04-23T11:40:47Z</time></trkpt><trkpt lat="42.25694991712158" lon="13.807038165718607"><ele>376.0</ele><time>2026-04-23T11:40:48Z</time></trkpt><trkpt lat="42.2566962207983" lon="13.80717289789991"><ele>375.0</ele><time>2026-04-23T11:40:49Z</time></trkpt><trkpt lat="42.25644744664444" lon="13.807306042066076"><ele>374.0</ele><time>2026-04-23T11:40:50Z</time></trkpt><trkpt lat="42.256192377654784" lon="13.807441852389372"><ele>374.0</ele><time>2026-04-23T11:40:51Z</time></trkpt><trkpt lat="42.25593848141388" lon="13.80757959682976"><ele>374.0</ele><time>2026-04-23T11:40:52Z</time></trkpt><trkpt lat="42.255683693258625" lon="13.807719150263571"><ele>376.5</ele><time>2026-04-23T11:40:53Z</time></trkpt><trkpt lat="42.255428159868366" lon="13.807860988203034"><ele>379.0</ele><time>2026-04-23T11:40:54Z</time></trkpt><trkpt lat="42.255170258188684" lon="13.807999907600687"><ele>379.0</ele><time>2026-04-23T11:40:55Z</time></trkpt><trkpt lat="42.25491328214065" lon="13.808136535115093"><ele>379.0</ele><time>2026-04-23T11:40:56Z</time></trkpt><trkpt lat="42.254656185142046" lon="13.808272340867545"><ele>378.0</ele><time>2026-04-23T11:40:57Z</time></trkpt><trkpt lat="42.254419732171506" lon="13.808403234485015"><ele>377.0</ele><time>2026-04-23T11:40:58Z</time></trkpt><trkpt lat="42.25419361209168" lon="13.808524474989383"><ele>377.0</ele><time>2026-04-23T11:40:59Z</time></trkpt><trkpt lat="42.25397986479595" lon="13.808639500539998"><ele>377.0</ele><time>2026-04-23T11:41:00Z</time></trkpt><trkpt lat="42.2537772167236" lon="13.80874922310058"><ele>377.0</ele><time>2026-04-23T11:41:01Z</time></trkpt><trkpt lat="42.2535950196774" lon="13.808848805700995"><ele>376.0</ele><time>2026-04-23T11:41:02Z</time></trkpt><trkpt lat="42.25343870874674" lon="13.808926603570429"><ele>375.0</ele><time>2026-04-23T11:41:03Z</time></trkpt><trkpt lat="42.25329556591685" lon="13.808989100084899"><ele>374.0</ele><time>2026-04-23T11:41:04Z</time></trkpt><trkpt lat="42.253165771455706" lon="13.809028085580804"><ele>372.4</ele><time>2026-04-23T11:41:05Z</time></trkpt><trkpt lat="42.25304605749149" lon="13.809029536359326"><ele>370.79999999999995</ele><time>2026-04-23T11:41:06Z</time></trkpt><trkpt lat="42.25293809949641" lon="13.809000393598547"><ele>369.20000000000005</ele><time>2026-04-23T11:41:07Z</time></trkpt><trkpt lat="42.25284308984712" lon="13.80896994282068"><ele>367.6</ele><time>2026-04-23T11:41:08Z</time></trkpt><trkpt lat="42.25277210724642" lon="13.809002586077904"><ele>366.0</ele><time>2026-04-23T11:41:09Z</time></trkpt><trkpt lat="42.25271453049868" lon="13.80907695925165"><ele>366.0</ele><time>2026-04-23T11:41:10Z</time></trkpt><trkpt lat="42.25268808304683" lon="13.809166043961241"><ele>366.0</ele><time>2026-04-23T11:41:11Z</time></trkpt><trkpt lat="42.25266034074843" lon="13.809284665793783"><ele>366.0</ele><time>2026-04-23T11:41:12Z</time></trkpt><trkpt lat="42.25259137848488" lon="13.809397037983832"><ele>366.0</ele><time>2026-04-23T11:41:13Z</time></trkpt><trkpt lat="42.25247576927844" lon="13.809503086863687"><ele>366.0</ele><time>2026-04-23T11:41:14Z</time></trkpt><trkpt lat="42.252330148824235" lon="13.809608580561168"><ele>366.0</ele><time>2026-04-23T11:41:15Z</time></trkpt><trkpt lat="42.252184625942306" lon="13.809717968078235"><ele>366.0</ele><time>2026-04-23T11:41:16Z</time></trkpt><trkpt lat="42.252030498593896" lon="13.809850723352955"><ele>366.0</ele><time>2026-04-23T11:41:17Z</time></trkpt><trkpt lat="42.25186723376664" lon="13.809994956026939"><ele>366.0</ele><time>2026-04-23T11:41:18Z</time></trkpt><trkpt lat="42.25169208543255" lon="13.810142950793743"><ele>366.0</ele><time>2026-04-23T11:41:19Z</time></trkpt><trkpt lat="42.251518583364636" lon="13.81029334983504"><ele>366.0</ele><time>2026-04-23T11:41:20Z</time></trkpt><trkpt lat="42.25133813403785" lon="13.810450636052009"><ele>365.0</ele><time>2026-04-23T11:41:21Z</time></trkpt><trkpt lat="42.251150779985046" lon="13.810614551396629"><ele>364.0</ele><time>2026-04-23T11:41:22Z</time></trkpt><trkpt lat="42.2509546963184" lon="13.810783540112592"><ele>364.0</ele><time>2026-04-23T11:41:23Z</time></trkpt><trkpt lat="42.25075963718067" lon="13.81095163753697"><ele>364.0</ele><time>2026-04-23T11:41:24Z</time></trkpt><trkpt lat="42.25055683171644" lon="13.811123587292137"><ele>360.0</ele><time>2026-04-23T11:41:25Z</time></trkpt><trkpt lat="42.25035137682359" lon="13.811300026710965"><ele>356.0</ele><time>2026-04-23T11:41:26Z</time></trkpt><trkpt lat="42.25014466508153" lon="13.811482095447428"><ele>356.0</ele><time>2026-04-23T11:41:27Z</time></trkpt><trkpt lat="42.24993107683269" lon="13.811663178910965"><ele>356.0</ele><time>2026-04-23T11:41:28Z</time></trkpt><trkpt lat="42.24971431637364" lon="13.811848100106774"><ele>354.0</ele><time>2026-04-23T11:41:29Z</time></trkpt><trkpt lat="42.24949794583553" lon="13.812039401767947"><ele>352.0</ele><time>2026-04-23T11:41:30Z</time></trkpt><trkpt lat="42.24928079403116" lon="13.812232114177341"><ele>352.0</ele><time>2026-04-23T11:41:31Z</time></trkpt><trkpt lat="42.249056068421694" lon="13.812425233143687"><ele>352.0</ele><time>2026-04-23T11:41:32Z</time></trkpt><trkpt lat="42.24883035565608" lon="13.812620358995574"><ele>351.0</ele><time>2026-04-23T11:41:33Z</time></trkpt><trkpt lat="42.24860941616174" lon="13.812819300874994"><ele>350.0</ele><time>2026-04-23T11:41:34Z</time></trkpt><trkpt lat="42.24838434816313" lon="13.813016735944252"><ele>350.0</ele><time>2026-04-23T11:41:35Z</time></trkpt><trkpt lat="42.24815776486878" lon="13.813212274326368"><ele>350.0</ele><time>2026-04-23T11:41:36Z</time></trkpt><trkpt lat="42.24793459537791" lon="13.813405166106774"><ele>350.5</ele><time>2026-04-23T11:41:37Z</time></trkpt><trkpt lat="42.247712509874695" lon="13.813600025463607"><ele>351.0</ele><time>2026-04-23T11:41:38Z</time></trkpt><trkpt lat="42.247492415231136" lon="13.813793078787006"><ele>347.0</ele><time>2026-04-23T11:41:39Z</time></trkpt><trkpt lat="42.2472739375052" lon="13.813981874909453"><ele>343.0</ele><time>2026-04-23T11:41:40Z</time></trkpt><trkpt lat="42.247049361968585" lon="13.81415654969714"><ele>343.0</ele><time>2026-04-23T11:41:41Z</time></trkpt><trkpt lat="42.24681647478785" lon="13.814309627100997"><ele>343.0</ele><time>2026-04-23T11:41:42Z</time></trkpt><trkpt lat="42.246573574307696" lon="13.814442834029265"><ele>341.0</ele><time>2026-04-23T11:41:43Z</time></trkpt><trkpt lat="42.24632716998591" lon="13.814557606167426"><ele>339.0</ele><time>2026-04-23T11:41:44Z</time></trkpt><trkpt lat="42.246072321842234" lon="13.814658281093209"><ele>339.0</ele><time>2026-04-23T11:41:45Z</time></trkpt><trkpt lat="42.24581319596719" lon="13.814739351546795"><ele>339.0</ele><time>2026-04-23T11:41:46Z</time></trkpt><trkpt lat="42.245553695636026" lon="13.814797906793999"><ele>341.0</ele><time>2026-04-23T11:41:47Z</time></trkpt><trkpt lat="42.245290794200876" lon="13.81483350503986"><ele>343.0</ele><time>2026-04-23T11:41:48Z</time></trkpt><trkpt lat="42.24502420684346" lon="13.814852609162763"><ele>341.5</ele><time>2026-04-23T11:41:49Z</time></trkpt><trkpt lat="42.24475906182752" lon="13.814864279947473"><ele>340.0</ele><time>2026-04-23T11:41:50Z</time></trkpt><trkpt lat="42.24448898270247" lon="13.81487261934311"><ele>340.0</ele><time>2026-04-23T11:41:51Z</time></trkpt><trkpt lat="42.2442198604968" lon="13.814881611555426"><ele>340.0</ele><time>2026-04-23T11:41:52Z</time></trkpt><trkpt lat="42.243950402676276" lon="13.814892574777662"><ele>338.0</ele><time>2026-04-23T11:41:53Z</time></trkpt><trkpt lat="42.2436876114743" lon="13.814905956769609"><ele>336.0</ele><time>2026-04-23T11:41:54Z</time></trkpt><trkpt lat="42.24344065751793" lon="13.814913828956104"><ele>336.0</ele><time>2026-04-23T11:41:55Z</time></trkpt><trkpt lat="42.24321138925827" lon="13.814910229254705"><ele>336.0</ele><time>2026-04-23T11:41:56Z</time></trkpt><trkpt lat="42.24302188815063" lon="13.814902807000305"><ele>336.0</ele><time>2026-04-23T11:41:57Z</time></trkpt><trkpt lat="42.24286110575324" lon="13.81489468936909"><ele>333.8</ele><time>2026-04-23T11:41:58Z</time></trkpt><trkpt lat="42.242688910763164" lon="13.814889181351464"><ele>331.6</ele><time>2026-04-23T11:42:00Z</time></trkpt><trkpt lat="42.24263093278064" lon="13.814950024925706"><ele>329.4</ele><time>2026-04-23T11:42:02Z</time></trkpt><trkpt lat="42.242574019120475" lon="13.815014317486046"><ele>327.2</ele><time>2026-04-23T11:42:05Z</time></trkpt><trkpt lat="42.24246105889954" lon="13.815015904612116"><ele>325.0</ele><time>2026-04-23T11:42:07Z</time></trkpt><trkpt lat="42.24237037897245" lon="13.814998488336032"><ele>323.5</ele><time>2026-04-23T11:42:08Z</time></trkpt><trkpt lat="42.24215454308993" lon="13.814997747376232"><ele>322.0</ele><time>2026-04-23T11:42:10Z</time></trkpt><trkpt lat="42.24205278854681" lon="13.815002104311374"><ele>320.5</ele><time>2026-04-23T11:42:11Z</time></trkpt><trkpt lat="42.241963007777116" lon="13.814985680301428"><ele>319.0</ele><time>2026-04-23T11:42:12Z</time></trkpt><trkpt lat="42.241896178181555" lon="13.81496420501866"><ele>319.0</ele><time>2026-04-23T11:42:13Z</time></trkpt><trkpt lat="42.24180751320553" lon="13.814972984121978"><ele>319.0</ele><time>2026-04-23T11:42:15Z</time></trkpt><trkpt lat="42.24178190377172" lon="13.815051798200635"><ele>319.0</ele><time>2026-04-23T11:42:17Z</time></trkpt><trkpt lat="42.24176368445388" lon="13.815155192470083"><ele>319.0</ele><time>2026-04-23T11:42:18Z</time></trkpt><trkpt lat="42.241732255253616" lon="13.815263135334208"><ele>319.0</ele><time>2026-04-23T11:42:19Z</time></trkpt><trkpt lat="42.241665446616146" lon="13.81538159829526"><ele>319.0</ele><time>2026-04-23T11:42:20Z</time></trkpt><trkpt lat="42.241635750108834" lon="13.815535878895966"><ele>319.4</ele><time>2026-04-23T11:42:21Z</time></trkpt><trkpt lat="42.24164570526841" lon="13.81568628543084"><ele>319.79999999999995</ele><time>2026-04-23T11:42:22Z</time></trkpt><trkpt lat="42.24164399614336" lon="13.815812119699057"><ele>320.20000000000005</ele><time>2026-04-23T11:42:23Z</time></trkpt><trkpt lat="42.241596113934754" lon="13.815898694945814"><ele>320.6</ele><time>2026-04-23T11:42:24Z</time></trkpt><trkpt lat="42.24153745946132" lon="13.8159734594301"><ele>321.0</ele><time>2026-04-23T11:42:25Z</time></trkpt><trkpt lat="42.241461833848405" lon="13.816049466555702"><ele>322.6</ele><time>2026-04-23T11:42:26Z</time></trkpt><trkpt lat="42.24137073497747" lon="13.81611738545952"><ele>324.20000000000005</ele><time>2026-04-23T11:42:27Z</time></trkpt><trkpt lat="42.241270412660974" lon="13.81617360720629"><ele>325.79999999999995</ele><time>2026-04-23T11:42:28Z</time></trkpt><trkpt lat="42.24117098578196" lon="13.816223025016534"><ele>327.4</ele><time>2026-04-23T11:42:29Z</time></trkpt><trkpt lat="42.241079642390574" lon="13.816250877883624"><ele>329.0</ele><time>2026-04-23T11:42:30Z</time></trkpt><trkpt lat="42.24098271435975" lon="13.816266029206625"><ele>329.0</ele><time>2026-04-23T11:42:31Z</time></trkpt><trkpt lat="42.240860974793044" lon="13.81627470291372"><ele>329.0</ele><time>2026-04-23T11:42:32Z</time></trkpt><trkpt lat="42.24073000926007" lon="13.816278710259528"><ele>329.0</ele><time>2026-04-23T11:42:33Z</time></trkpt><trkpt lat="42.24059682104834" lon="13.816280596980286"><ele>329.0</ele><time>2026-04-23T11:42:34Z</time></trkpt><trkpt lat="42.240460741793946" lon="13.816287471682038"><ele>328.5</ele><time>2026-04-23T11:42:35Z</time></trkpt><trkpt lat="42.240327451485065" lon="13.816294671471118"><ele>328.0</ele><time>2026-04-23T11:42:36Z</time></trkpt><trkpt lat="42.24018948941068" lon="13.816295608349899"><ele>327.5</ele><time>2026-04-23T11:42:37Z</time></trkpt><trkpt lat="42.240055120600644" lon="13.816310789335745"><ele>327.0</ele><time>2026-04-23T11:42:38Z</time></trkpt><trkpt lat="42.23993354716151" lon="13.816350673159851"><ele>327.0</ele><time>2026-04-23T11:42:39Z</time></trkpt><trkpt lat="42.23982656799271" lon="13.816428736857267"><ele>327.0</ele><time>2026-04-23T11:42:40Z</time></trkpt><trkpt lat="42.23960138308829" lon="13.816466509535928"><ele>327.0</ele><time>2026-04-23T11:42:42Z</time></trkpt><trkpt lat="42.23951844545974" lon="13.816471587544168"><ele>327.0</ele><time>2026-04-23T11:42:43Z</time></trkpt><trkpt lat="42.23944314769851" lon="13.8164074028982"><ele>326.0</ele><time>2026-04-23T11:42:45Z</time></trkpt><trkpt lat="42.23938771593509" lon="13.81626942177056"><ele>325.0</ele><time>2026-04-23T11:42:47Z</time></trkpt><trkpt lat="42.23934468850641" lon="13.816138196167532"><ele>324.0</ele><time>2026-04-23T11:42:49Z</time></trkpt><trkpt lat="42.239191457194615" lon="13.81615494377169"><ele>323.0</ele><time>2026-04-23T11:42:50Z</time></trkpt><trkpt lat="42.23908772011081" lon="13.81614877486219"><ele>323.0</ele><time>2026-04-23T11:42:51Z</time></trkpt><trkpt lat="42.238977051077896" lon="13.816111920415556"><ele>323.0</ele><time>2026-04-23T11:42:52Z</time></trkpt><trkpt lat="42.23885368573244" lon="13.816085885849485"><ele>323.0</ele><time>2026-04-23T11:42:53Z</time></trkpt><trkpt lat="42.238721243088456" lon="13.816060888079695"><ele>323.0</ele><time>2026-04-23T11:42:54Z</time></trkpt><trkpt lat="42.238591296605904" lon="13.816068585404064"><ele>322.0</ele><time>2026-04-23T11:42:55Z</time></trkpt><trkpt lat="42.238457641580744" lon="13.816080336866484"><ele>321.0</ele><time>2026-04-23T11:42:56Z</time></trkpt><trkpt lat="42.238323518627254" lon="13.816140464449706"><ele>320.0</ele><time>2026-04-23T11:42:57Z</time></trkpt><trkpt lat="42.2381880811542" lon="13.81623187478134"><ele>319.0</ele><time>2026-04-23T11:42:58Z</time></trkpt><trkpt lat="42.23802644101649" lon="13.81628550540598"><ele>319.0</ele><time>2026-04-23T11:42:59Z</time></trkpt><trkpt lat="42.23786280711329" lon="13.816357917139204"><ele>319.0</ele><time>2026-04-23T11:43:00Z</time></trkpt><trkpt lat="42.23770247765222" lon="13.816438263842576"><ele>319.0</ele><time>2026-04-23T11:43:01Z</time></trkpt><trkpt lat="42.237545907170315" lon="13.816518914300733"><ele>319.0</ele><time>2026-04-23T11:43:02Z</time></trkpt><trkpt lat="42.23739009404054" lon="13.816592132526925"><ele>319.0</ele><time>2026-04-23T11:43:03Z</time></trkpt><trkpt lat="42.237238817860145" lon="13.81665435281554"><ele>319.0</ele><time>2026-04-23T11:43:04Z</time></trkpt><trkpt lat="42.23708756937045" lon="13.816696795799118"><ele>319.3333333333333</ele><time>2026-04-23T11:43:05Z</time></trkpt><trkpt lat="42.23693307569188" lon="13.816712680507013"><ele>319.6666666666667</ele><time>2026-04-23T11:43:06Z</time></trkpt><trkpt lat="42.23678396098185" lon="13.816702016676285"><ele>320.0</ele><time>2026-04-23T11:43:07Z</time></trkpt><trkpt lat="42.236640404065724" lon="13.816658578816273"><ele>320.0</ele><time>2026-04-23T11:43:08Z</time></trkpt><trkpt lat="42.2365049667" lon="13.816595222043546"><ele>320.0</ele><time>2026-04-23T11:43:09Z</time></trkpt><trkpt lat="42.23638375168712" lon="13.816516334519141"><ele>320.0</ele><time>2026-04-23T11:43:10Z</time></trkpt><trkpt lat="42.23626680454461" lon="13.816424521673413"><ele>320.0</ele><time>2026-04-23T11:43:11Z</time></trkpt><trkpt lat="42.23615372633948" lon="13.816315260764249"><ele>320.5</ele><time>2026-04-23T11:43:12Z</time></trkpt><trkpt lat="42.23603415541827" lon="13.81622851258236"><ele>321.0</ele><time>2026-04-23T11:43:13Z</time></trkpt><trkpt lat="42.23590848070668" lon="13.816185171740996"><ele>321.5</ele><time>2026-04-23T11:43:14Z</time></trkpt><trkpt lat="42.2357788651164" lon="13.81620635625364"><ele>322.0</ele><time>2026-04-23T11:43:15Z</time></trkpt><trkpt lat="42.235647255860876" lon="13.816245927369259"><ele>321.0</ele><time>2026-04-23T11:43:16Z</time></trkpt><trkpt lat="42.23551901265862" lon="13.816320225926804"><ele>320.0</ele><time>2026-04-23T11:43:17Z</time></trkpt><trkpt lat="42.23540561292939" lon="13.816429095332344"><ele>319.0</ele><time>2026-04-23T11:43:18Z</time></trkpt><trkpt lat="42.23531027177017" lon="13.81656958092709"><ele>318.0</ele><time>2026-04-23T11:43:19Z</time></trkpt><trkpt lat="42.23523331350413" lon="13.816731858156668"><ele>319.0</ele><time>2026-04-23T11:43:20Z</time></trkpt><trkpt lat="42.23516106176697" lon="13.816911224783432"><ele>320.0</ele><time>2026-04-23T11:43:21Z</time></trkpt><trkpt lat="42.23506430539059" lon="13.817087837277828"><ele>321.0</ele><time>2026-04-23T11:43:22Z</time></trkpt><trkpt lat="42.23498319809778" lon="13.817294283325813"><ele>321.0</ele><time>2026-04-23T11:43:23Z</time></trkpt><trkpt lat="42.23487402108561" lon="13.81748520700428"><ele>321.0</ele><time>2026-04-23T11:43:24Z</time></trkpt><trkpt lat="42.23475071065478" lon="13.817678388361536"><ele>321.0</ele><time>2026-04-23T11:43:25Z</time></trkpt><trkpt lat="42.23462102473058" lon="13.81786097925789"><ele>322.6666666666667</ele><time>2026-04-23T11:43:26Z</time></trkpt><trkpt lat="42.23447897143862" lon="13.818026693531495"><ele>324.33333333333337</ele><time>2026-04-23T11:43:27Z</time></trkpt><trkpt lat="42.23432378062601" lon="13.818173431515708"><ele>326.0</ele><time>2026-04-23T11:43:28Z</time></trkpt><trkpt lat="42.23415930641914" lon="13.818304797174067"><ele>326.0</ele><time>2026-04-23T11:43:29Z</time></trkpt><trkpt lat="42.233984543306136" lon="13.818423238617637"><ele>326.0</ele><time>2026-04-23T11:43:30Z</time></trkpt><trkpt lat="42.2337990386746" lon="13.818515363766453"><ele>326.0</ele><time>2026-04-23T11:43:31Z</time></trkpt><trkpt lat="42.23362265164877" lon="13.818645686770576"><ele>327.6666666666667</ele><time>2026-04-23T11:43:32Z</time></trkpt><trkpt lat="42.23343702270461" lon="13.81874599862148"><ele>329.3333333333333</ele><time>2026-04-23T11:43:33Z</time></trkpt><trkpt lat="42.23324558062732" lon="13.818810561343557"><ele>331.0</ele><time>2026-04-23T11:43:34Z</time></trkpt><trkpt lat="42.23307049150288" lon="13.818894588679134"><ele>327.66666666666663</ele><time>2026-04-23T11:43:35Z</time></trkpt><trkpt lat="42.232903953806705" lon="13.818967230043162"><ele>324.3333333333333</ele><time>2026-04-23T11:43:36Z</time></trkpt><trkpt lat="42.23272919598306" lon="13.818994596592368"><ele>321.0</ele><time>2026-04-23T11:43:37Z</time></trkpt><trkpt lat="42.23255069301538" lon="13.819007164918176"><ele>321.0</ele><time>2026-04-23T11:43:38Z</time></trkpt><trkpt lat="42.232370130024634" lon="13.819017827700394"><ele>321.0</ele><time>2026-04-23T11:43:39Z</time></trkpt><trkpt lat="42.23219507331626" lon="13.819024449231753"><ele>321.0</ele><time>2026-04-23T11:43:40Z</time></trkpt><trkpt lat="42.23202056185985" lon="13.81903856533751"><ele>320.6666666666667</ele><time>2026-04-23T11:43:41Z</time></trkpt><trkpt lat="42.23185876129472" lon="13.819060169707665"><ele>320.33333333333337</ele><time>2026-04-23T11:43:42Z</time></trkpt><trkpt lat="42.23170865012938" lon="13.819094084896792"><ele>320.0</ele><time>2026-04-23T11:43:43Z</time></trkpt><trkpt lat="42.23155584928871" lon="13.819157693102763"><ele>319.0</ele><time>2026-04-23T11:43:44Z</time></trkpt><trkpt lat="42.23141361402492" lon="13.819267739230197"><ele>318.0</ele><time>2026-04-23T11:43:45Z</time></trkpt><trkpt lat="42.23126780975756" lon="13.819369604593831"><ele>317.0</ele><time>2026-04-23T11:43:46Z</time></trkpt><trkpt lat="42.231125744121854" lon="13.819440023349404"><ele>319.6666666666667</ele><time>2026-04-23T11:43:47Z</time></trkpt><trkpt lat="42.23098574640439" lon="13.819510956887319"><ele>322.3333333333333</ele><time>2026-04-23T11:43:48Z</time></trkpt><trkpt lat="42.23083050795614" lon="13.819539944138414"><ele>325.0</ele><time>2026-04-23T11:43:49Z</time></trkpt><trkpt lat="42.23066130456617" lon="13.819555599056315"><ele>322.66666666666663</ele><time>2026-04-23T11:43:50Z</time></trkpt><trkpt lat="42.230479867222414" lon="13.81957550937899"><ele>320.3333333333333</ele><time>2026-04-23T11:43:51Z</time></trkpt><trkpt lat="42.230295554778735" lon="13.819612639165122"><ele>318.0</ele><time>2026-04-23T11:43:52Z</time></trkpt><trkpt lat="42.230107152645466" lon="13.819662118014001"><ele>318.0</ele><time>2026-04-23T11:43:53Z</time></trkpt><trkpt lat="42.22992840046336" lon="13.819658975751866"><ele>318.0</ele><time>2026-04-23T11:43:54Z</time></trkpt><trkpt lat="42.2297401804035" lon="13.81965571136425"><ele>318.0</ele><time>2026-04-23T11:43:55Z</time></trkpt><trkpt lat="42.22954792227707" lon="13.81966345875585"><ele>318.0</ele><time>2026-04-23T11:43:56Z</time></trkpt><trkpt lat="42.22935827175848" lon="13.81967710067336"><ele>318.0</ele><time>2026-04-23T11:43:57Z</time></trkpt><trkpt lat="42.22917182810962" lon="13.819699479528126"><ele>318.0</ele><time>2026-04-23T11:43:58Z</time></trkpt><trkpt lat="42.22897423102405" lon="13.819718826056885"><ele>320.3333333333333</ele><time>2026-04-23T11:43:59Z</time></trkpt><trkpt lat="42.22878809469684" lon="13.819732162120355"><ele>322.66666666666663</ele><time>2026-04-23T11:44:00Z</time></trkpt><trkpt lat="42.228608011181876" lon="13.81973168808736"><ele>325.0</ele><time>2026-04-23T11:44:01Z</time></trkpt><trkpt lat="42.228430167902644" lon="13.819709212606575"><ele>325.0</ele><time>2026-04-23T11:44:02Z</time></trkpt><trkpt lat="42.22825552977428" lon="13.81965646681931"><ele>325.0</ele><time>2026-04-23T11:44:03Z</time></trkpt><trkpt lat="42.22808155115889" lon="13.819595046031305"><ele>325.0</ele><time>2026-04-23T11:44:04Z</time></trkpt><trkpt lat="42.227907412520004" lon="13.819547533068732"><ele>325.0</ele><time>2026-04-23T11:44:05Z</time></trkpt><trkpt lat="42.227726466595186" lon="13.819526437797975"><ele>325.0</ele><time>2026-04-23T11:44:06Z</time></trkpt><trkpt lat="42.2275439871518" lon="13.819529781894994"><ele>325.0</ele><time>2026-04-23T11:44:07Z</time></trkpt><trkpt lat="42.22735715642308" lon="13.819543784168546"><ele>324.3333333333333</ele><time>2026-04-23T11:44:08Z</time></trkpt><trkpt lat="42.2271677085631" lon="13.819570027209913"><ele>323.6666666666667</ele><time>2026-04-23T11:44:09Z</time></trkpt><trkpt lat="42.226993933358465" lon="13.819615227888962"><ele>323.0</ele><time>2026-04-23T11:44:10Z</time></trkpt><trkpt lat="42.22684360658824" lon="13.819676731924996"><ele>323.0</ele><time>2026-04-23T11:44:11Z</time></trkpt><trkpt lat="42.226715281121876" lon="13.819765274723782"><ele>323.0</ele><time>2026-04-23T11:44:12Z</time></trkpt><trkpt lat="42.22659679432534" lon="13.819856130270693"><ele>323.0</ele><time>2026-04-23T11:44:13Z</time></trkpt><trkpt lat="42.2264798980866" lon="13.819972101628208"><ele>323.0</ele><time>2026-04-23T11:44:14Z</time></trkpt><trkpt lat="42.22636756135518" lon="13.820112717211522"><ele>321.33333333333337</ele><time>2026-04-23T11:44:15Z</time></trkpt><trkpt lat="42.2262634761678" lon="13.82028357239636"><ele>319.6666666666667</ele><time>2026-04-23T11:44:16Z</time></trkpt><trkpt lat="42.2261576728857" lon="13.820477047913572"><ele>318.0</ele><time>2026-04-23T11:44:17Z</time></trkpt><trkpt lat="42.226060037467086" lon="13.82067338450048"><ele>318.0</ele><time>2026-04-23T11:44:18Z</time></trkpt><trkpt lat="42.22596237463178" lon="13.820876716680823"><ele>318.0</ele><time>2026-04-23T11:44:19Z</time></trkpt><trkpt lat="42.22585467900528" lon="13.821073128999673"><ele>318.0</ele><time>2026-04-23T11:44:20Z</time></trkpt><trkpt lat="42.22573524636202" lon="13.821240104688709"><ele>318.3333333333333</ele><time>2026-04-23T11:44:21Z</time></trkpt><trkpt lat="42.22559775317933" lon="13.821355879429836"><ele>318.66666666666663</ele><time>2026-04-23T11:44:22Z</time></trkpt><trkpt lat="42.225458424958944" lon="13.821455075926426"><ele>319.0</ele><time>2026-04-23T11:44:23Z</time></trkpt><trkpt lat="42.2253105231534" lon="13.821544450491963"><ele>319.0</ele><time>2026-04-23T11:44:24Z</time></trkpt><trkpt lat="42.225143877098766" lon="13.8216110202329"><ele>319.0</ele><time>2026-04-23T11:44:25Z</time></trkpt><trkpt lat="42.22496081678239" lon="13.821657306574247"><ele>319.0</ele><time>2026-04-23T11:44:26Z</time></trkpt><trkpt lat="42.22477578877489" lon="13.821705210720218"><ele>318.66666666666663</ele><time>2026-04-23T11:44:27Z</time></trkpt><trkpt lat="42.224592473378124" lon="13.821773747546018"><ele>318.3333333333333</ele><time>2026-04-23T11:44:28Z</time></trkpt><trkpt lat="42.22441282347731" lon="13.821864950518735"><ele>318.0</ele><time>2026-04-23T11:44:29Z</time></trkpt><trkpt lat="42.224235090854656" lon="13.821976284774303"><ele>318.6666666666667</ele><time>2026-04-23T11:44:30Z</time></trkpt><trkpt lat="42.22408122673894" lon="13.822132284804603"><ele>319.33333333333337</ele><time>2026-04-23T11:44:31Z</time></trkpt><trkpt lat="42.22391341207649" lon="13.822263481593861"><ele>320.0</ele><time>2026-04-23T11:44:32Z</time></trkpt><trkpt lat="42.22375297026436" lon="13.822409313263307"><ele>320.0</ele><time>2026-04-23T11:44:33Z</time></trkpt><trkpt lat="42.22359425805324" lon="13.822557021662229"><ele>320.0</ele><time>2026-04-23T11:44:34Z</time></trkpt><trkpt lat="42.223426058595074" lon="13.822633012187755"><ele>320.0</ele><time>2026-04-23T11:44:35Z</time></trkpt><trkpt lat="42.22327333701766" lon="13.822720415604307"><ele>320.0</ele><time>2026-04-23T11:44:36Z</time></trkpt><trkpt lat="42.223123669669846" lon="13.822718879814369"><ele>320.0</ele><time>2026-04-23T11:44:37Z</time></trkpt><trkpt lat="42.222985185875025" lon="13.822700642431464"><ele>320.0</ele><time>2026-04-23T11:44:38Z</time></trkpt><trkpt lat="42.222832798427554" lon="13.82266610580493"><ele>320.0</ele><time>2026-04-23T11:44:39Z</time></trkpt><trkpt lat="42.2226687279116" lon="13.82262486240941"><ele>320.0</ele><time>2026-04-23T11:44:40Z</time></trkpt><trkpt lat="42.222496042522664" lon="13.822581029999712"><ele>320.0</ele><time>2026-04-23T11:44:41Z</time></trkpt><trkpt lat="42.22230919948512" lon="13.822534440875968"><ele>320.0</ele><time>2026-04-23T11:44:42Z</time></trkpt><trkpt lat="42.22194349714606" lon="13.822413180637064"><ele>322.0</ele><time>2026-04-23T11:44:44Z</time></trkpt><trkpt lat="42.221778980860805" lon="13.822349446948296"><ele>324.0</ele><time>2026-04-23T11:44:45Z</time></trkpt><trkpt lat="42.22162595846525" lon="13.82230219840161"><ele>326.0</ele><time>2026-04-23T11:44:46Z</time></trkpt><trkpt lat="42.22149261352132" lon="13.822230049467763"><ele>326.75</ele><time>2026-04-23T11:44:47Z</time></trkpt><trkpt lat="42.221360550019114" lon="13.822208022149328"><ele>327.5</ele><time>2026-04-23T11:44:48Z</time></trkpt><trkpt lat="42.22126858114189" lon="13.822227699956015"><ele>328.25</ele><time>2026-04-23T11:44:49Z</time></trkpt><trkpt lat="42.221143593855395" lon="13.822215829587153"><ele>329.0</ele><time>2026-04-23T11:44:50Z</time></trkpt><trkpt lat="42.2210187858388" lon="13.82221333384348"><ele>329.0</ele><time>2026-04-23T11:44:51Z</time></trkpt><trkpt lat="42.220905465944455" lon="13.822219251592228"><ele>329.0</ele><time>2026-04-23T11:44:52Z</time></trkpt><trkpt lat="42.22079652526345" lon="13.822242601237058"><ele>329.0</ele><time>2026-04-23T11:44:53Z</time></trkpt><trkpt lat="42.22070410645949" lon="13.82229357076464"><ele>329.0</ele><time>2026-04-23T11:44:54Z</time></trkpt><trkpt lat="42.22062063834618" lon="13.822381031694784"><ele>329.0</ele><time>2026-04-23T11:44:55Z</time></trkpt><trkpt lat="42.22053949705935" lon="13.822491835533173"><ele>327.75</ele><time>2026-04-23T11:44:56Z</time></trkpt><trkpt lat="42.22045411746688" lon="13.822619113612095"><ele>326.5</ele><time>2026-04-23T11:44:57Z</time></trkpt><trkpt lat="42.22036106626234" lon="13.822755415132336"><ele>325.25</ele><time>2026-04-23T11:44:58Z</time></trkpt><trkpt lat="42.22026206995684" lon="13.822893941011516"><ele>324.0</ele><time>2026-04-23T11:44:59Z</time></trkpt><trkpt lat="42.2201504489417" lon="13.823018099718897"><ele>324.0</ele><time>2026-04-23T11:45:00Z</time></trkpt><trkpt lat="42.220029093679386" lon="13.823120024297367"><ele>324.0</ele><time>2026-04-23T11:45:01Z</time></trkpt><trkpt lat="42.219923888592945" lon="13.82323571076519"><ele>324.0</ele><time>2026-04-23T11:45:02Z</time></trkpt><trkpt lat="42.219837990783134" lon="13.823362345761513"><ele>324.0</ele><time>2026-04-23T11:45:03Z</time></trkpt><trkpt lat="42.21974549140999" lon="13.823473733202595"><ele>323.25</ele><time>2026-04-23T11:45:04Z</time></trkpt><trkpt lat="42.21964809471339" lon="13.823593935521918"><ele>322.5</ele><time>2026-04-23T11:45:05Z</time></trkpt><trkpt lat="42.21953822958809" lon="13.823712355721334"><ele>321.75</ele><time>2026-04-23T11:45:06Z</time></trkpt><trkpt lat="42.21939603052278" lon="13.823774924275808"><ele>321.0</ele><time>2026-04-23T11:45:07Z</time></trkpt><trkpt lat="42.21925261476847" lon="13.823840686298908"><ele>321.0</ele><time>2026-04-23T11:45:08Z</time></trkpt><trkpt lat="42.21910333195011" lon="13.823908158476193"><ele>321.0</ele><time>2026-04-23T11:45:09Z</time></trkpt><trkpt lat="42.21895894843377" lon="13.82397961676569"><ele>321.0</ele><time>2026-04-23T11:45:10Z</time></trkpt><trkpt lat="42.21882054227242" lon="13.824051022812162"><ele>321.25</ele><time>2026-04-23T11:45:11Z</time></trkpt><trkpt lat="42.218676471545876" lon="13.824121954925154"><ele>321.5</ele><time>2026-04-23T11:45:12Z</time></trkpt><trkpt lat="42.21854170189975" lon="13.824182816928413"><ele>321.75</ele><time>2026-04-23T11:45:13Z</time></trkpt><trkpt lat="42.21842156551665" lon="13.8242338260337"><ele>322.0</ele><time>2026-04-23T11:45:14Z</time></trkpt><trkpt lat="42.218308663450664" lon="13.824280209778225"><ele>322.40000000000003</ele><time>2026-04-23T11:45:15Z</time></trkpt><trkpt lat="42.218201931685314" lon="13.824322861068646"><ele>322.8</ele><time>2026-04-23T11:45:16Z</time></trkpt><trkpt lat="42.21809535057629" lon="13.824364689182886"><ele>323.2</ele><time>2026-04-23T11:45:17Z</time></trkpt><trkpt lat="42.21799658947405" lon="13.824416615490565"><ele>323.6</ele><time>2026-04-23T11:45:18Z</time></trkpt><trkpt lat="42.217906224235136" lon="13.824449927534463"><ele>324.0</ele><time>2026-04-23T11:45:19Z</time></trkpt><trkpt lat="42.21780898626948" lon="13.824494257416434"><ele>324.0</ele><time>2026-04-23T11:45:20Z</time></trkpt><trkpt lat="42.21770133546167" lon="13.824551945188778"><ele>324.0</ele><time>2026-04-23T11:45:21Z</time></trkpt><trkpt lat="42.21759136824343" lon="13.824617271104085"><ele>324.0</ele><time>2026-04-23T11:45:22Z</time></trkpt><trkpt lat="42.21748050764977" lon="13.824677851412119"><ele>324.0</ele><time>2026-04-23T11:45:23Z</time></trkpt><trkpt lat="42.21737408326085" lon="13.824738260445896"><ele>323.6666666666667</ele><time>2026-04-23T11:45:24Z</time></trkpt><trkpt lat="42.21727804412867" lon="13.824797318986839"><ele>323.3333333333333</ele><time>2026-04-23T11:45:25Z</time></trkpt><trkpt lat="42.217194430982595" lon="13.824850878883417"><ele>323.0</ele><time>2026-04-23T11:45:26Z</time></trkpt><trkpt lat="42.21712181264888" lon="13.82488877051974"><ele>322.66666666666663</ele><time>2026-04-23T11:45:27Z</time></trkpt><trkpt lat="42.2170562385587" lon="13.824909725530404"><ele>322.3333333333333</ele><time>2026-04-23T11:45:28Z</time></trkpt><trkpt lat="42.21698765272443" lon="13.824971637308622"><ele>322.0</ele><time>2026-04-23T11:45:30Z</time></trkpt><trkpt lat="42.21709875568566" lon="13.825105705254481"><ele>322.0</ele><time>2026-04-23T11:45:33Z</time></trkpt><trkpt lat="42.21719590821589" lon="13.82513620890422"><ele>322.0</ele><time>2026-04-23T11:45:34Z</time></trkpt><trkpt lat="42.217292399825574" lon="13.825154883011955"><ele>322.0</ele><time>2026-04-23T11:45:35Z</time></trkpt><trkpt lat="42.21740207007397" lon="13.82516878655208"><ele>322.0</ele><time>2026-04-23T11:45:36Z</time></trkpt><trkpt lat="42.217513719100445" lon="13.825184836286914"><ele>322.0</ele><time>2026-04-23T11:45:37Z</time></trkpt><trkpt lat="42.21760600033814" lon="13.825216265426029"><ele>323.8</ele><time>2026-04-23T11:45:38Z</time></trkpt><trkpt lat="42.21766476691553" lon="13.82527189820471"><ele>325.6</ele><time>2026-04-23T11:45:39Z</time></trkpt><trkpt lat="42.21771147641352" lon="13.825424301062254"><ele>327.40000000000003</ele><time>2026-04-23T11:45:41Z</time></trkpt><trkpt lat="42.21772993848944" lon="13.825530037179055"><ele>329.20000000000005</ele><time>2026-04-23T11:45:42Z</time></trkpt><trkpt lat="42.21772793720908" lon="13.825644113730139"><ele>331.0</ele><time>2026-04-23T11:45:43Z</time></trkpt><trkpt lat="42.21768229217292" lon="13.825754922194863"><ele>331.0</ele><time>2026-04-23T11:45:44Z</time></trkpt><trkpt lat="42.217595254077175" lon="13.82584432726073"><ele>331.0</ele><time>2026-04-23T11:45:45Z</time></trkpt><trkpt lat="42.21751388066599" lon="13.825976225490423"><ele>331.0</ele><time>2026-04-23T11:45:46Z</time></trkpt><trkpt lat="42.21743304140528" lon="13.826087146160202"><ele>331.0</ele><time>2026-04-23T11:45:47Z</time></trkpt><trkpt lat="42.217367067487395" lon="13.826194178010763"><ele>332.8</ele><time>2026-04-23T11:45:48Z</time></trkpt><trkpt lat="42.217317144146676" lon="13.826284780175257"><ele>334.6</ele><time>2026-04-23T11:45:49Z</time></trkpt><trkpt lat="42.217293609100025" lon="13.826367672321041"><ele>336.4</ele><time>2026-04-23T11:45:50Z</time></trkpt><trkpt lat="42.217366137769865" lon="13.826516684728741"><ele>338.2</ele><time>2026-04-23T11:45:52Z</time></trkpt><trkpt lat="42.217446234475126" lon="13.826573138725676"><ele>340.0</ele><time>2026-04-23T11:45:53Z</time></trkpt><trkpt lat="42.21755520773776" lon="13.82663300632097"><ele>340.4</ele><time>2026-04-23T11:45:54Z</time></trkpt><trkpt lat="42.21766646908758" lon="13.826699380536283"><ele>340.8</ele><time>2026-04-23T11:45:55Z</time></trkpt><trkpt lat="42.21775574794971" lon="13.826766778696577"><ele>341.20000000000005</ele><time>2026-04-23T11:45:56Z</time></trkpt><trkpt lat="42.217813903706656" lon="13.826838258495089"><ele>341.6</ele><time>2026-04-23T11:45:57Z</time></trkpt><trkpt lat="42.21785184528496" lon="13.826933891027878"><ele>342.0</ele><time>2026-04-23T11:45:58Z</time></trkpt><trkpt lat="42.21784594993416" lon="13.827063010695664"><ele>343.75</ele><time>2026-04-23T11:45:59Z</time></trkpt><trkpt lat="42.21784314588272" lon="13.827216272380983"><ele>345.5</ele><time>2026-04-23T11:46:00Z</time></trkpt><trkpt lat="42.217851417879764" lon="13.827381548708027"><ele>347.25</ele><time>2026-04-23T11:46:01Z</time></trkpt><trkpt lat="42.2178512139796" lon="13.82753610740077"><ele>349.0</ele><time>2026-04-23T11:46:02Z</time></trkpt><trkpt lat="42.21785955896094" lon="13.827699273778457"><ele>350.75</ele><time>2026-04-23T11:46:03Z</time></trkpt><trkpt lat="42.21787062881126" lon="13.82788074164933"><ele>352.5</ele><time>2026-04-23T11:46:04Z</time></trkpt><trkpt lat="42.21788413510311" lon="13.828075958087188"><ele>354.25</ele><time>2026-04-23T11:46:05Z</time></trkpt><trkpt lat="42.21789696638576" lon="13.828280823487088"><ele>356.0</ele><time>2026-04-23T11:46:06Z</time></trkpt><trkpt lat="42.21791399349117" lon="13.828485060331277"><ele>357.6666666666667</ele><time>2026-04-23T11:46:07Z</time></trkpt><trkpt lat="42.21793439045127" lon="13.828693422341914"><ele>359.3333333333333</ele><time>2026-04-23T11:46:08Z</time></trkpt><trkpt lat="42.21795391414691" lon="13.828910403077808"><ele>361.0</ele><time>2026-04-23T11:46:09Z</time></trkpt><trkpt lat="42.21797150909698" lon="13.829132008289553"><ele>361.75</ele><time>2026-04-23T11:46:10Z</time></trkpt><trkpt lat="42.21799038132122" lon="13.829342768401375"><ele>362.5</ele><time>2026-04-23T11:46:11Z</time></trkpt><trkpt lat="42.21800255521867" lon="13.82953530982366"><ele>363.25</ele><time>2026-04-23T11:46:12Z</time></trkpt><trkpt lat="42.21800579133607" lon="13.829711015036075"><ele>364.0</ele><time>2026-04-23T11:46:13Z</time></trkpt><trkpt lat="42.21798657422059" lon="13.829878947521664"><ele>364.0</ele><time>2026-04-23T11:46:14Z</time></trkpt><trkpt lat="42.21794445277554" lon="13.830048877243305"><ele>364.0</ele><time>2026-04-23T11:46:15Z</time></trkpt><trkpt lat="42.217884640791254" lon="13.830220715901877"><ele>364.0</ele><time>2026-04-23T11:46:16Z</time></trkpt><trkpt lat="42.21779254966791" lon="13.830371646925789"><ele>364.0</ele><time>2026-04-23T11:46:17Z</time></trkpt><trkpt lat="42.21774132969673" lon="13.830566291058581"><ele>365.66666666666663</ele><time>2026-04-23T11:46:18Z</time></trkpt><trkpt lat="42.21767614298672" lon="13.830750910853068"><ele>367.3333333333333</ele><time>2026-04-23T11:46:19Z</time></trkpt><trkpt lat="42.21761930406719" lon="13.8309375948731"><ele>369.0</ele><time>2026-04-23T11:46:20Z</time></trkpt><trkpt lat="42.21756061649504" lon="13.831133315386333"><ele>370.0</ele><time>2026-04-23T11:46:21Z</time></trkpt><trkpt lat="42.2175100219777" lon="13.83133503556898"><ele>371.0</ele><time>2026-04-23T11:46:22Z</time></trkpt><trkpt lat="42.21748279382916" lon="13.831553501027898"><ele>372.0</ele><time>2026-04-23T11:46:23Z</time></trkpt><trkpt lat="42.217467093077204" lon="13.8317861816666"><ele>373.3333333333333</ele><time>2026-04-23T11:46:24Z</time></trkpt><trkpt lat="42.217454171190795" lon="13.832009392711516"><ele>374.66666666666663</ele><time>2026-04-23T11:46:25Z</time></trkpt><trkpt lat="42.217434831990865" lon="13.832241513093676"><ele>376.0</ele><time>2026-04-23T11:46:26Z</time></trkpt><trkpt lat="42.217418363086004" lon="13.832458605258893"><ele>378.3333333333333</ele><time>2026-04-23T11:46:27Z</time></trkpt><trkpt lat="42.21739879968662" lon="13.832681943800726"><ele>380.6666666666667</ele><time>2026-04-23T11:46:28Z</time></trkpt><trkpt lat="42.217387137075505" lon="13.832902537536107"><ele>383.0</ele><time>2026-04-23T11:46:29Z</time></trkpt><trkpt lat="42.21738433633719" lon="13.833115427927668"><ele>383.0</ele><time>2026-04-23T11:46:30Z</time></trkpt><trkpt lat="42.217390414013984" lon="13.833324982085216"><ele>383.0</ele><time>2026-04-23T11:46:31Z</time></trkpt><trkpt lat="42.21741289777493" lon="13.833540129373144"><ele>383.0</ele><time>2026-04-23T11:46:32Z</time></trkpt><trkpt lat="42.217440048031754" lon="13.83375949870771"><ele>385.6666666666667</ele><time>2026-04-23T11:46:33Z</time></trkpt><trkpt lat="42.21746677619557" lon="13.833980280809024"><ele>388.33333333333337</ele><time>2026-04-23T11:46:34Z</time></trkpt><trkpt lat="42.217491980010635" lon="13.834209373402432"><ele>391.0</ele><time>2026-04-23T11:46:35Z</time></trkpt><trkpt lat="42.21751875961718" lon="13.834420807202875"><ele>393.0</ele><time>2026-04-23T11:46:36Z</time></trkpt><trkpt lat="42.2175419044703" lon="13.83461840351772"><ele>395.0</ele><time>2026-04-23T11:46:37Z</time></trkpt><trkpt lat="42.217558436852144" lon="13.834786148179472"><ele>397.0</ele><time>2026-04-23T11:46:38Z</time></trkpt><trkpt lat="42.21755237076441" lon="13.834925823755226"><ele>399.0</ele><time>2026-04-23T11:46:39Z</time></trkpt><trkpt lat="42.217503747000926" lon="13.835036587596795"><ele>399.25</ele><time>2026-04-23T11:46:40Z</time></trkpt><trkpt lat="42.21744317435704" lon="13.835141076246103"><ele>399.5</ele><time>2026-04-23T11:46:41Z</time></trkpt><trkpt lat="42.21736774300442" lon="13.83527259331899"><ele>399.75</ele><time>2026-04-23T11:46:42Z</time></trkpt><trkpt lat="42.21728387193148" lon="13.835417156785084"><ele>400.0</ele><time>2026-04-23T11:46:43Z</time></trkpt><trkpt lat="42.21720594343221" lon="13.835585319798474"><ele>400.0</ele><time>2026-04-23T11:46:44Z</time></trkpt><trkpt lat="42.21711542523956" lon="13.835738998500569"><ele>400.0</ele><time>2026-04-23T11:46:45Z</time></trkpt><trkpt lat="42.21702091128716" lon="13.835890925457239"><ele>400.0</ele><time>2026-04-23T11:46:46Z</time></trkpt><trkpt lat="42.216936768939846" lon="13.836068548866871"><ele>400.0</ele><time>2026-04-23T11:46:47Z</time></trkpt><trkpt lat="42.21685552442104" lon="13.836254487358485"><ele>403.6666666666667</ele><time>2026-04-23T11:46:48Z</time></trkpt><trkpt lat="42.21677295954175" lon="13.836444494392062"><ele>407.33333333333337</ele><time>2026-04-23T11:46:49Z</time></trkpt><trkpt lat="42.21670454757166" lon="13.836639762745438"><ele>411.0</ele><time>2026-04-23T11:46:50Z</time></trkpt><trkpt lat="42.21664738514354" lon="13.836843898255808"><ele>415.0</ele><time>2026-04-23T11:46:51Z</time></trkpt><trkpt lat="42.216602689780125" lon="13.837059482180786"><ele>419.0</ele><time>2026-04-23T11:46:52Z</time></trkpt><trkpt lat="42.2165577228981" lon="13.837278625556257"><ele>423.0</ele><time>2026-04-23T11:46:53Z</time></trkpt><trkpt lat="42.216510017214254" lon="13.837497324807622"><ele>423.0</ele><time>2026-04-23T11:46:54Z</time></trkpt><trkpt lat="42.21645319800597" lon="13.837726004551005"><ele>423.0</ele><time>2026-04-23T11:46:55Z</time></trkpt><trkpt lat="42.21639958000175" lon="13.837950653245628"><ele>423.0</ele><time>2026-04-23T11:46:56Z</time></trkpt><trkpt lat="42.216344644242206" lon="13.838176838121221"><ele>423.0</ele><time>2026-04-23T11:46:57Z</time></trkpt><trkpt lat="42.21629034557376" lon="13.8383968919733"><ele>423.0</ele><time>2026-04-23T11:46:58Z</time></trkpt><trkpt lat="42.21622925861169" lon="13.838606604355915"><ele>423.0</ele><time>2026-04-23T11:46:59Z</time></trkpt><trkpt lat="42.216160417117244" lon="13.838810634250928"><ele>426.66666666666663</ele><time>2026-04-23T11:47:00Z</time></trkpt><trkpt lat="42.21608545136186" lon="13.839009744881475"><ele>430.3333333333333</ele><time>2026-04-23T11:47:01Z</time></trkpt><trkpt lat="42.21600868259678" lon="13.83919599527269"><ele>434.0</ele><time>2026-04-23T11:47:02Z</time></trkpt><trkpt lat="42.215928236492886" lon="13.839378973422821"><ele>435.25</ele><time>2026-04-23T11:47:03Z</time></trkpt><trkpt lat="42.21585264246757" lon="13.839553946054776"><ele>436.5</ele><time>2026-04-23T11:47:04Z</time></trkpt><trkpt lat="42.21576534311342" lon="13.839679276044821"><ele>437.75</ele><time>2026-04-23T11:47:05Z</time></trkpt><trkpt lat="42.215684361259704" lon="13.83978441890085"><ele>439.0</ele><time>2026-04-23T11:47:06Z</time></trkpt><trkpt lat="42.21558254505346" lon="13.83986425342601"><ele>439.0</ele><time>2026-04-23T11:47:07Z</time></trkpt><trkpt lat="42.21546539307408" lon="13.839964353828313"><ele>439.0</ele><time>2026-04-23T11:47:08Z</time></trkpt><trkpt lat="42.21534695084386" lon="13.840068729865688"><ele>439.0</ele><time>2026-04-23T11:47:09Z</time></trkpt><trkpt lat="42.21523452744006" lon="13.840175013857452"><ele>439.0</ele><time>2026-04-23T11:47:10Z</time></trkpt><trkpt lat="42.21516276383216" lon="13.840285290608493"><ele>439.33333333333337</ele><time>2026-04-23T11:47:11Z</time></trkpt><trkpt lat="42.21511570239289" lon="13.840372131814375"><ele>439.6666666666667</ele><time>2026-04-23T11:47:12Z</time></trkpt><trkpt lat="42.21510062328424" lon="13.840468093399345"><ele>440.0</ele><time>2026-04-23T11:47:13Z</time></trkpt><trkpt lat="42.215118882246905" lon="13.84057161725431"><ele>440.33333333333337</ele><time>2026-04-23T11:47:14Z</time></trkpt><trkpt lat="42.215164150148226" lon="13.840689852096071"><ele>440.6666666666667</ele><time>2026-04-23T11:47:15Z</time></trkpt><trkpt lat="42.21522553230885" lon="13.840814996032101"><ele>441.0</ele><time>2026-04-23T11:47:16Z</time></trkpt><trkpt lat="42.21527986303895" lon="13.840966264063827"><ele>442.1666666666667</ele><time>2026-04-23T11:47:17Z</time></trkpt><trkpt lat="42.21532630531985" lon="13.841093747414124"><ele>443.33333333333337</ele><time>2026-04-23T11:47:18Z</time></trkpt><trkpt lat="42.21537937239667" lon="13.84120710956496"><ele>444.5</ele><time>2026-04-23T11:47:19Z</time></trkpt><trkpt lat="42.215447053846354" lon="13.841281404265747"><ele>445.6666666666667</ele><time>2026-04-23T11:47:20Z</time></trkpt><trkpt lat="42.21552261741558" lon="13.841312604345603"><ele>446.83333333333337</ele><time>2026-04-23T11:47:21Z</time></trkpt><trkpt lat="42.215598255602025" lon="13.841320714259014"><ele>448.0</ele><time>2026-04-23T11:47:22Z</time></trkpt><trkpt lat="42.2156781107481" lon="13.84130600639326"><ele>453.5</ele><time>2026-04-23T11:47:23Z</time></trkpt><trkpt lat="42.215782400953394" lon="13.841271690994278"><ele>459.0</ele><time>2026-04-23T11:47:24Z</time></trkpt><trkpt lat="42.21589554151786" lon="13.841227863922816"><ele>464.5</ele><time>2026-04-23T11:47:25Z</time></trkpt><trkpt lat="42.21600333356732" lon="13.84117537607758"><ele>470.0</ele><time>2026-04-23T11:47:26Z</time></trkpt><trkpt lat="42.21612269790378" lon="13.841103932865577"><ele>470.0</ele><time>2026-04-23T11:47:27Z</time></trkpt><trkpt lat="42.21624740165975" lon="13.841026327985936"><ele>470.0</ele><time>2026-04-23T11:47:28Z</time></trkpt><trkpt lat="42.21637243682275" lon="13.840951007248652"><ele>470.0</ele><time>2026-04-23T11:47:29Z</time></trkpt><trkpt lat="42.21649517242685" lon="13.840878467204842"><ele>470.0</ele><time>2026-04-23T11:47:30Z</time></trkpt><trkpt lat="42.21660729113701" lon="13.840811514823432"><ele>472.5</ele><time>2026-04-23T11:47:31Z</time></trkpt><trkpt lat="42.21671777849847" lon="13.840739903701989"><ele>475.0</ele><time>2026-04-23T11:47:32Z</time></trkpt><trkpt lat="42.216827730796496" lon="13.840670160332254"><ele>477.5</ele><time>2026-04-23T11:47:33Z</time></trkpt><trkpt lat="42.216942973393394" lon="13.840595653635692"><ele>480.0</ele><time>2026-04-23T11:47:34Z</time></trkpt><trkpt lat="42.21706143497528" lon="13.840510486883735"><ele>480.0</ele><time>2026-04-23T11:47:35Z</time></trkpt><trkpt lat="42.21718320681375" lon="13.840402386022875"><ele>480.0</ele><time>2026-04-23T11:47:36Z</time></trkpt><trkpt lat="42.217305354613295" lon="13.840291366236363"><ele>480.0</ele><time>2026-04-23T11:47:37Z</time></trkpt><trkpt lat="42.217422898619034" lon="13.840181483852392"><ele>480.0</ele><time>2026-04-23T11:47:38Z</time></trkpt><trkpt lat="42.217549314482625" lon="13.840059043851701"><ele>483.66666666666663</ele><time>2026-04-23T11:47:39Z</time></trkpt><trkpt lat="42.21767956474009" lon="13.839936326360142"><ele>487.3333333333333</ele><time>2026-04-23T11:47:40Z</time></trkpt><trkpt lat="42.21781042135423" lon="13.839798081264236"><ele>491.0</ele><time>2026-04-23T11:47:41Z</time></trkpt><trkpt lat="42.21794359110761" lon="13.839652205497169"><ele>491.0</ele><time>2026-04-23T11:47:42Z</time></trkpt><trkpt lat="42.21807158031016" lon="13.839489654665186"><ele>491.0</ele><time>2026-04-23T11:47:43Z</time></trkpt><trkpt lat="42.218195871578544" lon="13.839323469317863"><ele>491.0</ele><time>2026-04-23T11:47:44Z</time></trkpt><trkpt lat="42.21832194278429" lon="13.839163553977965"><ele>495.66666666666663</ele><time>2026-04-23T11:47:45Z</time></trkpt><trkpt lat="42.218449516629924" lon="13.839000565067638"><ele>500.33333333333337</ele><time>2026-04-23T11:47:46Z</time></trkpt><trkpt lat="42.218572255393134" lon="13.838844244552305"><ele>505.0</ele><time>2026-04-23T11:47:47Z</time></trkpt><trkpt lat="42.21870527103902" lon="13.838726894269511"><ele>505.0</ele><time>2026-04-23T11:47:48Z</time></trkpt><trkpt lat="42.218829531112895" lon="13.838603777793043"><ele>505.0</ele><time>2026-04-23T11:47:49Z</time></trkpt><trkpt lat="42.218920788185" lon="13.838483347512337"><ele>505.0</ele><time>2026-04-23T11:47:50Z</time></trkpt><trkpt lat="42.218994261993856" lon="13.838385244726155"><ele>505.0</ele><time>2026-04-23T11:47:51Z</time></trkpt><trkpt lat="42.219029567520565" lon="13.83827925163414"><ele>512.25</ele><time>2026-04-23T11:47:52Z</time></trkpt><trkpt lat="42.21904101234834" lon="13.838156696310834"><ele>519.5</ele><time>2026-04-23T11:47:53Z</time></trkpt><trkpt lat="42.219035965427004" lon="13.838007605480952"><ele>526.75</ele><time>2026-04-23T11:47:54Z</time></trkpt><trkpt lat="42.219057730722696" lon="13.837845864444159"><ele>534.0</ele><time>2026-04-23T11:47:55Z</time></trkpt><trkpt lat="42.219093489674016" lon="13.837680293374696"><ele>531.75</ele><time>2026-04-23T11:47:56Z</time></trkpt><trkpt lat="42.219135590898624" lon="13.83751707651451"><ele>529.5</ele><time>2026-04-23T11:47:57Z</time></trkpt><trkpt lat="42.2191810912061" lon="13.83735551153555"><ele>527.25</ele><time>2026-04-23T11:47:58Z</time></trkpt><trkpt lat="42.21924846305104" lon="13.837194516252435"><ele>525.0</ele><time>2026-04-23T11:47:59Z</time></trkpt><trkpt lat="42.21932367599865" lon="13.837038626578689"><ele>525.0</ele><time>2026-04-23T11:48:00Z</time></trkpt><trkpt lat="42.21940243886963" lon="13.83687053362022"><ele>525.0</ele><time>2026-04-23T11:48:01Z</time></trkpt><trkpt lat="42.21948438598268" lon="13.836698286394807"><ele>525.0</ele><time>2026-04-23T11:48:02Z</time></trkpt><trkpt lat="42.219566516546436" lon="13.836535290775526"><ele>525.0</ele><time>2026-04-23T11:48:03Z</time></trkpt><trkpt lat="42.21964762176635" lon="13.836383633460052"><ele>527.75</ele><time>2026-04-23T11:48:04Z</time></trkpt><trkpt lat="42.219739682108276" lon="13.836229626271686"><ele>530.5</ele><time>2026-04-23T11:48:05Z</time></trkpt><trkpt lat="42.219835180308166" lon="13.836082419437705"><ele>533.25</ele><time>2026-04-23T11:48:06Z</time></trkpt><trkpt lat="42.21991464695964" lon="13.83593999774996"><ele>536.0</ele><time>2026-04-23T11:48:07Z</time></trkpt><trkpt lat="42.22000486220191" lon="13.835866371266295"><ele>536.0</ele><time>2026-04-23T11:48:08Z</time></trkpt><trkpt lat="42.220060433680395" lon="13.83579308730963"><ele>536.0</ele><time>2026-04-23T11:48:09Z</time></trkpt><trkpt lat="42.22013227772311" lon="13.835788540044645"><ele>536.0</ele><time>2026-04-23T11:48:11Z</time></trkpt><trkpt lat="42.22015759292068" lon="13.835905422386238"><ele>536.0</ele><time>2026-04-23T11:48:13Z</time></trkpt><trkpt lat="42.22010197050982" lon="13.835956550832083"><ele>536.0</ele><time>2026-04-23T11:48:14Z</time></trkpt><trkpt lat="42.22000196409549" lon="13.836072137518656"><ele>536.0</ele><time>2026-04-23T11:48:16Z</time></trkpt><trkpt lat="42.219953096950185" lon="13.83618196250725"><ele>533.8</ele><time>2026-04-23T11:48:17Z</time></trkpt><trkpt lat="42.21991485633305" lon="13.836287306006167"><ele>531.6</ele><time>2026-04-23T11:48:18Z</time></trkpt><trkpt lat="42.21986079827224" lon="13.836398759851088"><ele>529.4</ele><time>2026-04-23T11:48:19Z</time></trkpt><trkpt lat="42.219812903673834" lon="13.836541133309856"><ele>527.2</ele><time>2026-04-23T11:48:20Z</time></trkpt><trkpt lat="42.219769290666235" lon="13.836692427436619"><ele>525.0</ele><time>2026-04-23T11:48:21Z</time></trkpt><trkpt lat="42.21974448154134" lon="13.836849411454365"><ele>525.0</ele><time>2026-04-23T11:48:22Z</time></trkpt><trkpt lat="42.219713831599776" lon="13.83701247443224"><ele>525.0</ele><time>2026-04-23T11:48:23Z</time></trkpt><trkpt lat="42.219684218571054" lon="13.83718576929659"><ele>525.0</ele><time>2026-04-23T11:48:24Z</time></trkpt><trkpt lat="42.2196521299271" lon="13.837350000279875"><ele>525.0</ele><time>2026-04-23T11:48:25Z</time></trkpt><trkpt lat="42.219650261799565" lon="13.837522804975787"><ele>527.25</ele><time>2026-04-23T11:48:26Z</time></trkpt><trkpt lat="42.21965752663682" lon="13.837721925085502"><ele>529.5</ele><time>2026-04-23T11:48:27Z</time></trkpt><trkpt lat="42.21964942723819" lon="13.837916337019331"><ele>531.75</ele><time>2026-04-23T11:48:28Z</time></trkpt><trkpt lat="42.21967432536627" lon="13.838104430439401"><ele>534.0</ele><time>2026-04-23T11:48:29Z</time></trkpt><trkpt lat="42.219678675094045" lon="13.838281529891763"><ele>534.0</ele><time>2026-04-23T11:48:30Z</time></trkpt><trkpt lat="42.21969801316736" lon="13.838446688438248"><ele>534.0</ele><time>2026-04-23T11:48:31Z</time></trkpt><trkpt lat="42.2197308724269" lon="13.838599885661786"><ele>534.0</ele><time>2026-04-23T11:48:32Z</time></trkpt><trkpt lat="42.21975060115357" lon="13.838728084124469"><ele>534.0</ele><time>2026-04-23T11:48:33Z</time></trkpt><trkpt lat="42.21974140328726" lon="13.838838573649047"><ele>534.0</ele><time>2026-04-23T11:48:34Z</time></trkpt><trkpt lat="42.219708017070346" lon="13.83894109763587"><ele>538.75</ele><time>2026-04-23T11:48:35Z</time></trkpt><trkpt lat="42.21964650380035" lon="13.839079241012842"><ele>543.5</ele><time>2026-04-23T11:48:36Z</time></trkpt><trkpt lat="42.219579174408636" lon="13.839231457919464"><ele>548.25</ele><time>2026-04-23T11:48:37Z</time></trkpt><trkpt lat="42.21950869186042" lon="13.839396126557583"><ele>553.0</ele><time>2026-04-23T11:48:38Z</time></trkpt><trkpt lat="42.21943696752592" lon="13.839577032716601"><ele>559.6666666666667</ele><time>2026-04-23T11:48:39Z</time></trkpt><trkpt lat="42.21936520093082" lon="13.839767013904574"><ele>566.3333333333334</ele><time>2026-04-23T11:48:40Z</time></trkpt><trkpt lat="42.21929195287434" lon="13.839961759300769"><ele>573.0</ele><time>2026-04-23T11:48:41Z</time></trkpt><trkpt lat="42.21920707376784" lon="13.840132099518616"><ele>570.6666666666666</ele><time>2026-04-23T11:48:42Z</time></trkpt><trkpt lat="42.21914166394547" lon="13.84027454652788"><ele>568.3333333333334</ele><time>2026-04-23T11:48:43Z</time></trkpt><trkpt lat="42.219079579209286" lon="13.84037840281051"><ele>566.0</ele><time>2026-04-23T11:48:44Z</time></trkpt><trkpt lat="42.219019093051976" lon="13.840470696230701"><ele>563.6666666666667</ele><time>2026-04-23T11:48:45Z</time></trkpt><trkpt lat="42.218981003292605" lon="13.840547835113801"><ele>561.3333333333334</ele><time>2026-04-23T11:48:46Z</time></trkpt><trkpt lat="42.21898361336636" lon="13.84063675151456"><ele>559.0</ele><time>2026-04-23T11:48:47Z</time></trkpt><trkpt lat="42.219090672376446" lon="13.840716508757621"><ele>567.6</ele><time>2026-04-23T11:48:49Z</time></trkpt><trkpt lat="42.21915334880977" lon="13.840624775722675"><ele>576.2</ele><time>2026-04-23T11:48:50Z</time></trkpt><trkpt lat="42.219212714204964" lon="13.840531408191534"><ele>584.8000000000001</ele><time>2026-04-23T11:48:51Z</time></trkpt><trkpt lat="42.21927869551863" lon="13.840427411455297"><ele>593.4</ele><time>2026-04-23T11:48:52Z</time></trkpt><trkpt lat="42.21935576971899" lon="13.840320144573688"><ele>602.0</ele><time>2026-04-23T11:48:53Z</time></trkpt><trkpt lat="42.21943711404744" lon="13.84019188593566"><ele>607.0</ele><time>2026-04-23T11:48:54Z</time></trkpt><trkpt lat="42.219529434724784" lon="13.840068045992487"><ele>612.0</ele><time>2026-04-23T11:48:55Z</time></trkpt><trkpt lat="42.21962965671709" lon="13.83994185840726"><ele>617.0</ele><time>2026-04-23T11:48:56Z</time></trkpt><trkpt lat="42.219732231491406" lon="13.839806532649874"><ele>622.0</ele><time>2026-04-23T11:48:57Z</time></trkpt><trkpt lat="42.21983672702219" lon="13.839666780876493"><ele>622.0</ele><time>2026-04-23T11:48:58Z</time></trkpt><trkpt lat="42.21994013962511" lon="13.839530962477706"><ele>622.0</ele><time>2026-04-23T11:48:59Z</time></trkpt><trkpt lat="42.22003580931575" lon="13.839383182466717"><ele>622.0</ele><time>2026-04-23T11:49:00Z</time></trkpt><trkpt lat="42.22011777437529" lon="13.839227626126359"><ele>622.0</ele><time>2026-04-23T11:49:01Z</time></trkpt><trkpt lat="42.220187340287595" lon="13.839078653868393"><ele>617.4</ele><time>2026-04-23T11:49:02Z</time></trkpt><trkpt lat="42.220267190311475" lon="13.838980644454194"><ele>612.8000000000001</ele><time>2026-04-23T11:49:03Z</time></trkpt><trkpt lat="42.22031576263043" lon="13.83887836325301"><ele>608.2</ele><time>2026-04-23T11:49:04Z</time></trkpt><trkpt lat="42.22033622871595" lon="13.83876695811825"><ele>603.6</ele><time>2026-04-23T11:49:05Z</time></trkpt><trkpt lat="42.22031457198191" lon="13.838638285296371"><ele>599.0</ele><time>2026-04-23T11:49:06Z</time></trkpt><trkpt lat="42.22027978288747" lon="13.838497580578581"><ele>595.75</ele><time>2026-04-23T11:49:07Z</time></trkpt><trkpt lat="42.22031296441211" lon="13.838352249850875"><ele>592.5</ele><time>2026-04-23T11:49:08Z</time></trkpt><trkpt lat="42.22034935087652" lon="13.838201788776827"><ele>589.25</ele><time>2026-04-23T11:49:09Z</time></trkpt><trkpt lat="42.220376361782776" lon="13.838046373218322"><ele>586.0</ele><time>2026-04-23T11:49:10Z</time></trkpt><trkpt lat="42.220421798184816" lon="13.837893623984005"><ele>586.0</ele><time>2026-04-23T11:49:11Z</time></trkpt><trkpt lat="42.220486863702966" lon="13.837746169373668"><ele>586.0</ele><time>2026-04-23T11:49:12Z</time></trkpt><trkpt lat="42.22054911244352" lon="13.837596799404784"><ele>586.0</ele><time>2026-04-23T11:49:13Z</time></trkpt><trkpt lat="42.22061653590678" lon="13.837451481686927"><ele>586.0</ele><time>2026-04-23T11:49:14Z</time></trkpt><trkpt lat="42.22069096884308" lon="13.837308195418494"><ele>596.75</ele><time>2026-04-23T11:49:15Z</time></trkpt><trkpt lat="42.22076636400606" lon="13.837153425775279"><ele>607.5</ele><time>2026-04-23T11:49:16Z</time></trkpt><trkpt lat="42.22085880679047" lon="13.837025017204455"><ele>618.25</ele><time>2026-04-23T11:49:17Z</time></trkpt><trkpt lat="42.22096171165425" lon="13.836941331343949"><ele>629.0</ele><time>2026-04-23T11:49:18Z</time></trkpt><trkpt lat="42.22105775158345" lon="13.836858627305924"><ele>632.0</ele><time>2026-04-23T11:49:19Z</time></trkpt><trkpt lat="42.22116472029293" lon="13.836776455459518"><ele>635.0</ele><time>2026-04-23T11:49:20Z</time></trkpt><trkpt lat="42.22128570532601" lon="13.836683674557202"><ele>638.0</ele><time>2026-04-23T11:49:21Z</time></trkpt><trkpt lat="42.221408970415105" lon="13.83657368611025"><ele>641.0</ele><time>2026-04-23T11:49:22Z</time></trkpt><trkpt lat="42.2215388907441" lon="13.836459903340458"><ele>641.0</ele><time>2026-04-23T11:49:23Z</time></trkpt><trkpt lat="42.221665156977444" lon="13.83633790960766"><ele>641.0</ele><time>2026-04-23T11:49:24Z</time></trkpt><trkpt lat="42.22177677272043" lon="13.836219806523793"><ele>641.0</ele><time>2026-04-23T11:49:25Z</time></trkpt><trkpt lat="42.22186754617981" lon="13.83611469205618"><ele>641.0</ele><time>2026-04-23T11:49:26Z</time></trkpt><trkpt lat="42.22194147295239" lon="13.836026411330403"><ele>641.0</ele><time>2026-04-23T11:49:27Z</time></trkpt><trkpt lat="42.22199906627807" lon="13.835960658744707"><ele>641.0</ele><time>2026-04-23T11:49:28Z</time></trkpt><trkpt lat="42.222089007813956" lon="13.835975131982675"><ele>641.0</ele><time>2026-04-23T11:49:30Z</time></trkpt><trkpt lat="42.22208909839096" lon="13.836114581724805"><ele>641.0</ele><time>2026-04-23T11:49:32Z</time></trkpt><trkpt lat="42.222017654352946" lon="13.836171416556176"><ele>641.0</ele><time>2026-04-23T11:49:33Z</time></trkpt><trkpt lat="42.2219684542204" lon="13.836276974742548"><ele>641.0</ele><time>2026-04-23T11:49:34Z</time></trkpt><trkpt lat="42.221923731876664" lon="13.836401430862182"><ele>641.0</ele><time>2026-04-23T11:49:35Z</time></trkpt><trkpt lat="42.22185502760901" lon="13.836525880515314"><ele>641.0</ele><time>2026-04-23T11:49:36Z</time></trkpt><trkpt lat="42.221760860448704" lon="13.836637425018179"><ele>641.0</ele><time>2026-04-23T11:49:37Z</time></trkpt><trkpt lat="42.22167080007815" lon="13.836770421457748"><ele>641.0</ele><time>2026-04-23T11:49:38Z</time></trkpt><trkpt lat="42.22157538663032" lon="13.836903954709165"><ele>638.0</ele><time>2026-04-23T11:49:39Z</time></trkpt><trkpt lat="42.221470250770416" lon="13.837042993356011"><ele>635.0</ele><time>2026-04-23T11:49:40Z</time></trkpt><trkpt lat="42.221366997571295" lon="13.837161983674086"><ele>632.0</ele><time>2026-04-23T11:49:41Z</time></trkpt><trkpt lat="42.22127596788963" lon="13.837252885282002"><ele>629.0</ele><time>2026-04-23T11:49:42Z</time></trkpt><trkpt lat="42.2212010335791" lon="13.83733381674203"><ele>629.0</ele><time>2026-04-23T11:49:43Z</time></trkpt><trkpt lat="42.221150335875706" lon="13.837392051096169"><ele>629.0</ele><time>2026-04-23T11:49:44Z</time></trkpt><trkpt lat="42.221145473515584" lon="13.837530198450978"><ele>629.0</ele><time>2026-04-23T11:49:46Z</time></trkpt><trkpt lat="42.22121743368374" lon="13.83757451184747"><ele>629.0</ele><time>2026-04-23T11:49:47Z</time></trkpt><trkpt lat="42.22131011356488" lon="13.837519669660239"><ele>629.0</ele><time>2026-04-23T11:49:48Z</time></trkpt><trkpt lat="42.221391670521484" lon="13.837460006773945"><ele>629.0</ele><time>2026-04-23T11:49:49Z</time></trkpt><trkpt lat="42.22147304553938" lon="13.837404821527207"><ele>636.0</ele><time>2026-04-23T11:49:50Z</time></trkpt><trkpt lat="42.22157217172848" lon="13.837343591513608"><ele>643.0</ele><time>2026-04-23T11:49:51Z</time></trkpt><trkpt lat="42.22169082609683" lon="13.837272161076205"><ele>650.0</ele><time>2026-04-23T11:49:52Z</time></trkpt><trkpt lat="42.221813650200524" lon="13.83719639773529"><ele>657.0</ele><time>2026-04-23T11:49:53Z</time></trkpt><trkpt lat="42.22195260362738" lon="13.83711139618165"><ele>657.0</ele><time>2026-04-23T11:49:54Z</time></trkpt><trkpt lat="42.2221027879575" lon="13.837027071270192"><ele>657.0</ele><time>2026-04-23T11:49:55Z</time></trkpt><trkpt lat="42.222254820760035" lon="13.836939550782708"><ele>657.0</ele><time>2026-04-23T11:49:56Z</time></trkpt><trkpt lat="42.22239168638346" lon="13.836856825255909"><ele>657.25</ele><time>2026-04-23T11:49:57Z</time></trkpt><trkpt lat="42.22251685525577" lon="13.836767992874494"><ele>657.5</ele><time>2026-04-23T11:49:58Z</time></trkpt><trkpt lat="42.22261508165896" lon="13.836672774761041"><ele>657.75</ele><time>2026-04-23T11:49:59Z</time></trkpt><trkpt lat="42.222689106498414" lon="13.836561448887357"><ele>658.0</ele><time>2026-04-23T11:50:00Z</time></trkpt><trkpt lat="42.22275395497733" lon="13.836424093722924"><ele>658.0</ele><time>2026-04-23T11:50:01Z</time></trkpt><trkpt lat="42.2228152251991" lon="13.836268704087388"><ele>658.0</ele><time>2026-04-23T11:50:02Z</time></trkpt><trkpt lat="42.22289254480265" lon="13.836134403463975"><ele>658.0</ele><time>2026-04-23T11:50:03Z</time></trkpt><trkpt lat="42.22295405706225" lon="13.836031579346956"><ele>658.0</ele><time>2026-04-23T11:50:04Z</time></trkpt><trkpt lat="42.22302676355045" lon="13.835973395599346"><ele>658.0</ele><time>2026-04-23T11:50:06Z</time></trkpt><trkpt lat="42.22306858588925" lon="13.83610013943688"><ele>658.0</ele><time>2026-04-23T11:50:08Z</time></trkpt><trkpt lat="42.22306040971483" lon="13.836209650634242"><ele>658.0</ele><time>2026-04-23T11:50:09Z</time></trkpt><trkpt lat="42.22305323193125" lon="13.836336990093013"><ele>658.0</ele><time>2026-04-23T11:50:10Z</time></trkpt><trkpt lat="42.22305711379748" lon="13.836463152197997"><ele>658.0</ele><time>2026-04-23T11:50:11Z</time></trkpt><trkpt lat="42.223057028521616" lon="13.836608764435871"><ele>658.0</ele><time>2026-04-23T11:50:12Z</time></trkpt><trkpt lat="42.22305013700694" lon="13.836754940241786"><ele>661.0</ele><time>2026-04-23T11:50:13Z</time></trkpt><trkpt lat="42.2230269422391" lon="13.836915097194108"><ele>664.0</ele><time>2026-04-23T11:50:14Z</time></trkpt><trkpt lat="42.223000757697314" lon="13.837087665022123"><ele>667.0</ele><time>2026-04-23T11:50:15Z</time></trkpt><trkpt lat="42.22296535860225" lon="13.837258892862023"><ele>670.0</ele><time>2026-04-23T11:50:16Z</time></trkpt><trkpt lat="42.222909078028835" lon="13.837411881155607"><ele>670.0</ele><time>2026-04-23T11:50:17Z</time></trkpt><trkpt lat="42.22284825771647" lon="13.837534259736403"><ele>670.0</ele><time>2026-04-23T11:50:18Z</time></trkpt><trkpt lat="42.222783178421174" lon="13.837646417574502"><ele>670.0</ele><time>2026-04-23T11:50:19Z</time></trkpt><trkpt lat="42.22271036702621" lon="13.837754270738314"><ele>670.0</ele><time>2026-04-23T11:50:20Z</time></trkpt><trkpt lat="42.22262987946423" lon="13.837863725036033"><ele>670.0</ele><time>2026-04-23T11:50:21Z</time></trkpt><trkpt lat="42.22254244178272" lon="13.837976870501569"><ele>671.0</ele><time>2026-04-23T11:50:22Z</time></trkpt><trkpt lat="42.222447116124236" lon="13.83808844085436"><ele>672.0</ele><time>2026-04-23T11:50:23Z</time></trkpt><trkpt lat="42.22235232878702" lon="13.838203833118598"><ele>673.0</ele><time>2026-04-23T11:50:24Z</time></trkpt><trkpt lat="42.22226708063823" lon="13.838333815338098"><ele>674.0</ele><time>2026-04-23T11:50:25Z</time></trkpt><trkpt lat="42.222204811431055" lon="13.8384821169831"><ele>676.75</ele><time>2026-04-23T11:50:26Z</time></trkpt><trkpt lat="42.222136166649335" lon="13.838629578088764"><ele>679.5</ele><time>2026-04-23T11:50:27Z</time></trkpt><trkpt lat="42.22205596256809" lon="13.838774921664035"><ele>682.25</ele><time>2026-04-23T11:50:28Z</time></trkpt><trkpt lat="42.221993596820276" lon="13.838928807065102"><ele>685.0</ele><time>2026-04-23T11:50:29Z</time></trkpt><trkpt lat="42.22195036693844" lon="13.839064340490198"><ele>685.0</ele><time>2026-04-23T11:50:30Z</time></trkpt><trkpt lat="42.221932243888894" lon="13.839178773461473"><ele>685.0</ele><time>2026-04-23T11:50:31Z</time></trkpt><trkpt lat="42.221925351965226" lon="13.839265871186361"><ele>685.0</ele><time>2026-04-23T11:50:32Z</time></trkpt><trkpt lat="42.22198896282402" lon="13.839343719796759"><ele>685.0</ele><time>2026-04-23T11:50:34Z</time></trkpt><trkpt lat="42.22210649632631" lon="13.839284865802078"><ele>685.0</ele><time>2026-04-23T11:50:36Z</time></trkpt><trkpt lat="42.222158838241675" lon="13.839191856536432"><ele>685.0</ele><time>2026-04-23T11:50:37Z</time></trkpt><trkpt lat="42.222220762402976" lon="13.839105184412498"><ele>685.0</ele><time>2026-04-23T11:50:38Z</time></trkpt><trkpt lat="42.222296310007" lon="13.839022577842092"><ele>685.0</ele><time>2026-04-23T11:50:39Z</time></trkpt><trkpt lat="42.22238851126327" lon="13.838950771173065"><ele>685.0</ele><time>2026-04-23T11:50:40Z</time></trkpt><trkpt lat="42.22249881567825" lon="13.838880972271555"><ele>685.0</ele><time>2026-04-23T11:50:41Z</time></trkpt><trkpt lat="42.22261638892772" lon="13.838827722548368"><ele>685.0</ele><time>2026-04-23T11:50:42Z</time></trkpt><trkpt lat="42.22274218040645" lon="13.838779675649638"><ele>691.25</ele><time>2026-04-23T11:50:43Z</time></trkpt><trkpt lat="42.222881987233485" lon="13.838728221480672"><ele>697.5</ele><time>2026-04-23T11:50:44Z</time></trkpt><trkpt lat="42.22302614489512" lon="13.838674017659736"><ele>703.75</ele><time>2026-04-23T11:50:45Z</time></trkpt><trkpt lat="42.22316422838318" lon="13.83862000132143"><ele>710.0</ele><time>2026-04-23T11:50:46Z</time></trkpt><trkpt lat="42.22329090681256" lon="13.838567197739046"><ele>709.25</ele><time>2026-04-23T11:50:47Z</time></trkpt><trkpt lat="42.223414728882766" lon="13.838501458958852"><ele>708.5</ele><time>2026-04-23T11:50:48Z</time></trkpt><trkpt lat="42.223527912119714" lon="13.838424763237231"><ele>707.75</ele><time>2026-04-23T11:50:49Z</time></trkpt><trkpt lat="42.22362407258147" lon="13.838351639046751"><ele>707.0</ele><time>2026-04-23T11:50:50Z</time></trkpt><trkpt lat="42.22371243346832" lon="13.838272931383928"><ele>707.0</ele><time>2026-04-23T11:50:51Z</time></trkpt><trkpt lat="42.22379580742247" lon="13.838192296005529"><ele>707.0</ele><time>2026-04-23T11:50:52Z</time></trkpt><trkpt lat="42.223865179597155" lon="13.838109283265295"><ele>707.0</ele><time>2026-04-23T11:50:53Z</time></trkpt><trkpt lat="42.223938890926796" lon="13.837999649847003"><ele>707.0</ele><time>2026-04-23T11:50:54Z</time></trkpt><trkpt lat="42.224010292177034" lon="13.83785841200887"><ele>707.0</ele><time>2026-04-23T11:50:55Z</time></trkpt><trkpt lat="42.224075352236326" lon="13.837704429125846"><ele>711.25</ele><time>2026-04-23T11:50:56Z</time></trkpt><trkpt lat="42.224142544936726" lon="13.83755333214861"><ele>715.5</ele><time>2026-04-23T11:50:57Z</time></trkpt><trkpt lat="42.22421071614643" lon="13.837405414107094"><ele>719.75</ele><time>2026-04-23T11:50:58Z</time></trkpt><trkpt lat="42.22430987744572" lon="13.837290425928106"><ele>724.0</ele><time>2026-04-23T11:50:59Z</time></trkpt><trkpt lat="42.2243933177235" lon="13.837146536852647"><ele>724.0</ele><time>2026-04-23T11:51:00Z</time></trkpt><trkpt lat="42.22447527254816" lon="13.837006590761128"><ele>724.0</ele><time>2026-04-23T11:51:01Z</time></trkpt><trkpt lat="42.22454080713697" lon="13.836858170668858"><ele>724.0</ele><time>2026-04-23T11:51:02Z</time></trkpt><trkpt lat="42.2246091244564" lon="13.83671815581841"><ele>724.0</ele><time>2026-04-23T11:51:03Z</time></trkpt><trkpt lat="42.224683691730704" lon="13.83661456191864"><ele>721.25</ele><time>2026-04-23T11:51:04Z</time></trkpt><trkpt lat="42.22477979201904" lon="13.836551486031762"><ele>718.5</ele><time>2026-04-23T11:51:05Z</time></trkpt><trkpt lat="42.224886089523714" lon="13.83646676034341"><ele>715.75</ele><time>2026-04-23T11:51:06Z</time></trkpt><trkpt lat="42.22498813340498" lon="13.836360392933452"><ele>713.0</ele><time>2026-04-23T11:51:07.001Z</time></trkpt><trkpt lat="42.22510440846387" lon="13.83627454171343"><ele>716.25</ele><time>2026-04-23T11:51:08.001Z</time></trkpt><trkpt lat="42.22521789753874" lon="13.836172519410928"><ele>719.5</ele><time>2026-04-23T11:51:09.001Z</time></trkpt><trkpt lat="42.22532919327806" lon="13.836059546769793"><ele>722.75</ele><time>2026-04-23T11:51:10.001Z</time></trkpt><trkpt lat="42.225443365134794" lon="13.83595280633675"><ele>726.0</ele><time>2026-04-23T11:51:11.001Z</time></trkpt><trkpt lat="42.22556247058537" lon="13.835864633226649"><ele>732.0</ele><time>2026-04-23T11:51:12.001Z</time></trkpt><trkpt lat="42.225684844796056" lon="13.835798883460804"><ele>738.0</ele><time>2026-04-23T11:51:13.001Z</time></trkpt><trkpt lat="42.225804225661896" lon="13.835735139089872"><ele>744.0</ele><time>2026-04-23T11:51:14.001Z</time></trkpt><trkpt lat="42.225921471637214" lon="13.835669352417366"><ele>750.0</ele><time>2026-04-23T11:51:15.001Z</time></trkpt><trkpt lat="42.22604459840955" lon="13.835609974762628"><ele>750.0</ele><time>2026-04-23T11:51:16.001Z</time></trkpt><trkpt lat="42.22616693472633" lon="13.835562482984598"><ele>750.0</ele><time>2026-04-23T11:51:17.001Z</time></trkpt><trkpt lat="42.22628523489619" lon="13.835516102346618"><ele>750.0</ele><time>2026-04-23T11:51:18.001Z</time></trkpt><trkpt lat="42.22640387329252" lon="13.835471901131319"><ele>750.0</ele><time>2026-04-23T11:51:19.001Z</time></trkpt><trkpt lat="42.226526843359345" lon="13.835435950697171"><ele>753.6</ele><time>2026-04-23T11:51:20.001Z</time></trkpt><trkpt lat="42.22664146195484" lon="13.83540932389906"><ele>757.2</ele><time>2026-04-23T11:51:21.001Z</time></trkpt><trkpt lat="42.22676452561271" lon="13.835380854256885"><ele>760.8</ele><time>2026-04-23T11:51:22.001Z</time></trkpt><trkpt lat="42.22687153740667" lon="13.835355812679522"><ele>764.4</ele><time>2026-04-23T11:51:23.001Z</time></trkpt><trkpt lat="42.22696021082924" lon="13.835345585312368"><ele>768.0</ele><time>2026-04-23T11:51:24.001Z</time></trkpt><trkpt lat="42.227055174993126" lon="13.835357339896026"><ele>768.0</ele><time>2026-04-23T11:51:25.001Z</time></trkpt><trkpt lat="42.22715103018132" lon="13.835385515179969"><ele>768.0</ele><time>2026-04-23T11:51:26.001Z</time></trkpt><trkpt lat="42.22725474594224" lon="13.835433251636028"><ele>768.0</ele><time>2026-04-23T11:51:27.001Z</time></trkpt><trkpt lat="42.227355215349434" lon="13.835496700598402"><ele>768.0</ele><time>2026-04-23T11:51:28.001Z</time></trkpt><trkpt lat="42.22746602423769" lon="13.835567486945399"><ele>768.0</ele><time>2026-04-23T11:51:29.001Z</time></trkpt><trkpt lat="42.22758770461144" lon="13.83564192891333"><ele>769.25</ele><time>2026-04-23T11:51:30Z</time></trkpt><trkpt lat="42.22771889303836" lon="13.835720119037363"><ele>770.5</ele><time>2026-04-23T11:51:31Z</time></trkpt><trkpt lat="42.227846563870216" lon="13.835796667703914"><ele>771.75</ele><time>2026-04-23T11:51:32Z</time></trkpt><trkpt lat="42.227970999283805" lon="13.835871568097678"><ele>773.0</ele><time>2026-04-23T11:51:33Z</time></trkpt><trkpt lat="42.22808553609805" lon="13.835946238582869"><ele>778.5999999999999</ele><time>2026-04-23T11:51:34Z</time></trkpt><trkpt lat="42.22817950479829" lon="13.8360128385964"><ele>784.1999999999999</ele><time>2026-04-23T11:51:35Z</time></trkpt><trkpt lat="42.22826957188419" lon="13.836062556879867"><ele>789.8</ele><time>2026-04-23T11:51:36Z</time></trkpt><trkpt lat="42.22835141070794" lon="13.83607800437812"><ele>795.4</ele><time>2026-04-23T11:51:37Z</time></trkpt><trkpt lat="42.22842465366756" lon="13.836044105986558"><ele>801.0</ele><time>2026-04-23T11:51:38Z</time></trkpt><trkpt lat="42.228508015565744" lon="13.835982375561441"><ele>793.0</ele><time>2026-04-23T11:51:39Z</time></trkpt><trkpt lat="42.22861070662732" lon="13.835912530313905"><ele>785.0</ele><time>2026-04-23T11:51:40Z</time></trkpt><trkpt lat="42.228723541479205" lon="13.835850807015502"><ele>777.0</ele><time>2026-04-23T11:51:41Z</time></trkpt><trkpt lat="42.22884023969571" lon="13.835794651622741"><ele>769.0</ele><time>2026-04-23T11:51:42Z</time></trkpt><trkpt lat="42.228952576411544" lon="13.835721743294158"><ele>771.75</ele><time>2026-04-23T11:51:43Z</time></trkpt><trkpt lat="42.22907139680017" lon="13.835632366710845"><ele>774.5</ele><time>2026-04-23T11:51:44Z</time></trkpt><trkpt lat="42.2291850022629" lon="13.835530643478986"><ele>777.25</ele><time>2026-04-23T11:51:45Z</time></trkpt><trkpt lat="42.22931973428794" lon="13.83547066636205"><ele>780.0</ele><time>2026-04-23T11:51:46Z</time></trkpt><trkpt lat="42.229454480385996" lon="13.83539993980748"><ele>780.0</ele><time>2026-04-23T11:51:47Z</time></trkpt><trkpt lat="42.229593323632685" lon="13.83531360059175"><ele>780.0</ele><time>2026-04-23T11:51:48Z</time></trkpt><trkpt lat="42.229743049614804" lon="13.835248941679993"><ele>780.0</ele><time>2026-04-23T11:51:49Z</time></trkpt><trkpt lat="42.22989891184564" lon="13.835190750216062"><ele>779.6666666666667</ele><time>2026-04-23T11:51:50Z</time></trkpt><trkpt lat="42.23005625793586" lon="13.835143571413717"><ele>779.3333333333334</ele><time>2026-04-23T11:51:51Z</time></trkpt><trkpt lat="42.23021983121867" lon="13.835089343586601"><ele>779.0</ele><time>2026-04-23T11:51:52Z</time></trkpt><trkpt lat="42.23038797587861" lon="13.835033173105485"><ele>779.0</ele><time>2026-04-23T11:51:53Z</time></trkpt><trkpt lat="42.23055463492224" lon="13.83498004829439"><ele>779.0</ele><time>2026-04-23T11:51:54Z</time></trkpt><trkpt lat="42.23072253401787" lon="13.83493886715459"><ele>779.0</ele><time>2026-04-23T11:51:55Z</time></trkpt><trkpt lat="42.230870171921424" lon="13.834905132544263"><ele>781.6</ele><time>2026-04-23T11:51:56Z</time></trkpt><trkpt lat="42.23100032402838" lon="13.834885159825792"><ele>784.2</ele><time>2026-04-23T11:51:57Z</time></trkpt><trkpt lat="42.23110831793289" lon="13.834876456316337"><ele>786.8000000000001</ele><time>2026-04-23T11:51:58Z</time></trkpt><trkpt lat="42.23120306523202" lon="13.83488996810545"><ele>789.4000000000001</ele><time>2026-04-23T11:51:59Z</time></trkpt><trkpt lat="42.23129901256877" lon="13.834925466502984"><ele>792.0</ele><time>2026-04-23T11:52:00Z</time></trkpt><trkpt lat="42.23141363572693" lon="13.834970833881474"><ele>795.6666666666667</ele><time>2026-04-23T11:52:01Z</time></trkpt><trkpt lat="42.23153769363572" lon="13.834994885800906"><ele>799.3333333333334</ele><time>2026-04-23T11:52:02Z</time></trkpt><trkpt lat="42.23167060992862" lon="13.83500329379333"><ele>803.0</ele><time>2026-04-23T11:52:03Z</time></trkpt><trkpt lat="42.23187600830875" lon="13.834995703681061"><ele>803.0</ele><time>2026-04-23T11:52:05Z</time></trkpt><trkpt lat="42.23195482713522" lon="13.835057323874047"><ele>803.0</ele><time>2026-04-23T11:52:07Z</time></trkpt><trkpt lat="42.231895033364594" lon="13.835160087256867"><ele>803.0</ele><time>2026-04-23T11:52:09Z</time></trkpt><trkpt lat="42.23181229361151" lon="13.835125201543702"><ele>803.0</ele><time>2026-04-23T11:52:10Z</time></trkpt><trkpt lat="42.23171756978991" lon="13.83514279261829"><ele>803.0</ele><time>2026-04-23T11:52:11Z</time></trkpt><trkpt lat="42.2316136116478" lon="13.835163584228678"><ele>807.5</ele><time>2026-04-23T11:52:12Z</time></trkpt><trkpt lat="42.23148891259541" lon="13.835188524037797"><ele>812.0</ele><time>2026-04-23T11:52:13Z</time></trkpt><trkpt lat="42.23136107955324" lon="13.83521409065173"><ele>816.5</ele><time>2026-04-23T11:52:14Z</time></trkpt><trkpt lat="42.23122845483879" lon="13.835243184070597"><ele>821.0</ele><time>2026-04-23T11:52:15Z</time></trkpt><trkpt lat="42.23109098441294" lon="13.835284723140813"><ele>821.0</ele><time>2026-04-23T11:52:16Z</time></trkpt><trkpt lat="42.23095850911212" lon="13.835369622188413"><ele>821.0</ele><time>2026-04-23T11:52:17Z</time></trkpt><trkpt lat="42.23082481678573" lon="13.835452418189766"><ele>821.0</ele><time>2026-04-23T11:52:18Z</time></trkpt><trkpt lat="42.23068101785052" lon="13.835528991179258"><ele>821.0</ele><time>2026-04-23T11:52:19Z</time></trkpt><trkpt lat="42.2305561231624" lon="13.835656187390843"><ele>824.0</ele><time>2026-04-23T11:52:20Z</time></trkpt><trkpt lat="42.230421766970956" lon="13.835783689900005"><ele>827.0</ele><time>2026-04-23T11:52:21Z</time></trkpt><trkpt lat="42.230288188806334" lon="13.835925976005322"><ele>830.0</ele><time>2026-04-23T11:52:22Z</time></trkpt><trkpt lat="42.23014774591363" lon="13.836071285179674"><ele>830.0</ele><time>2026-04-23T11:52:23Z</time></trkpt><trkpt lat="42.23001137754535" lon="13.836225183246155"><ele>830.0</ele><time>2026-04-23T11:52:24Z</time></trkpt><trkpt lat="42.22986834242414" lon="13.83638919415251"><ele>830.0</ele><time>2026-04-23T11:52:25Z</time></trkpt><trkpt lat="42.22972368368935" lon="13.836539324407111"><ele>832.6666666666667</ele><time>2026-04-23T11:52:26Z</time></trkpt><trkpt lat="42.22960072829374" lon="13.836697032283052"><ele>835.3333333333333</ele><time>2026-04-23T11:52:27Z</time></trkpt><trkpt lat="42.229485611465606" lon="13.836824662716833"><ele>838.0</ele><time>2026-04-23T11:52:28Z</time></trkpt><trkpt lat="42.22936729022024" lon="13.836932459767414"><ele>838.0</ele><time>2026-04-23T11:52:29Z</time></trkpt><trkpt lat="42.22924210797635" lon="13.83704464961085"><ele>838.0</ele><time>2026-04-23T11:52:30Z</time></trkpt><trkpt lat="42.22911179126363" lon="13.837161441023584"><ele>838.0</ele><time>2026-04-23T11:52:31Z</time></trkpt><trkpt lat="42.2289760876762" lon="13.837291992638756"><ele>836.25</ele><time>2026-04-23T11:52:32Z</time></trkpt><trkpt lat="42.22884233243607" lon="13.837417183593638"><ele>834.5</ele><time>2026-04-23T11:52:33Z</time></trkpt><trkpt lat="42.22871785541253" lon="13.83752670193294"><ele>832.75</ele><time>2026-04-23T11:52:34Z</time></trkpt><trkpt lat="42.228608922804334" lon="13.837609322937995"><ele>831.0</ele><time>2026-04-23T11:52:35Z</time></trkpt><trkpt lat="42.228520580934095" lon="13.837680429161576"><ele>834.8333333333334</ele><time>2026-04-23T11:52:36Z</time></trkpt><trkpt lat="42.228460605256494" lon="13.837735342555888"><ele>838.6666666666667</ele><time>2026-04-23T11:52:37Z</time></trkpt><trkpt lat="42.22846964076207" lon="13.837842634912969"><ele>842.5</ele><time>2026-04-23T11:52:39Z</time></trkpt><trkpt lat="42.228572475618975" lon="13.837867027897131"><ele>846.3333333333334</ele><time>2026-04-23T11:52:41Z</time></trkpt><trkpt lat="42.228656343743886" lon="13.837817303206302"><ele>850.1666666666667</ele><time>2026-04-23T11:52:42Z</time></trkpt><trkpt lat="42.22874226801532" lon="13.83775231981791"><ele>854.0</ele><time>2026-04-23T11:52:43Z</time></trkpt><trkpt lat="42.22884014508346" lon="13.837684604102037"><ele>850.0</ele><time>2026-04-23T11:52:44Z</time></trkpt><trkpt lat="42.2289527660099" lon="13.837618370526503"><ele>846.0</ele><time>2026-04-23T11:52:45Z</time></trkpt><trkpt lat="42.2290732499392" lon="13.837555385870406"><ele>842.0</ele><time>2026-04-23T11:52:46Z</time></trkpt><trkpt lat="42.22920346212207" lon="13.837491629135572"><ele>838.0</ele><time>2026-04-23T11:52:47Z</time></trkpt><trkpt lat="42.22934569542225" lon="13.837425094847385"><ele>838.0</ele><time>2026-04-23T11:52:48Z</time></trkpt><trkpt lat="42.22949505626763" lon="13.837354646964798"><ele>838.0</ele><time>2026-04-23T11:52:49Z</time></trkpt><trkpt lat="42.229646011702535" lon="13.837278088699971"><ele>838.0</ele><time>2026-04-23T11:52:50Z</time></trkpt><trkpt lat="42.22980176508729" lon="13.837198431805751"><ele>846.3333333333333</ele><time>2026-04-23T11:52:51Z</time></trkpt><trkpt lat="42.229961631197575" lon="13.83711208195675"><ele>854.6666666666667</ele><time>2026-04-23T11:52:52Z</time></trkpt><trkpt lat="42.230119240277645" lon="13.83702242243555"><ele>863.0</ele><time>2026-04-23T11:52:53Z</time></trkpt><trkpt lat="42.23028062652617" lon="13.836940678775344"><ele>863.0</ele><time>2026-04-23T11:52:54Z</time></trkpt><trkpt lat="42.230435735237855" lon="13.83686047055597"><ele>863.0</ele><time>2026-04-23T11:52:55Z</time></trkpt><trkpt lat="42.230585260280385" lon="13.836781732173785"><ele>863.0</ele><time>2026-04-23T11:52:56Z</time></trkpt><trkpt lat="42.23072199338195" lon="13.836706822737645"><ele>860.5</ele><time>2026-04-23T11:52:57Z</time></trkpt><trkpt lat="42.23085116613362" lon="13.836649677412998"><ele>858.0</ele><time>2026-04-23T11:52:58Z</time></trkpt><trkpt lat="42.23098191011872" lon="13.836623753408258"><ele>855.5</ele><time>2026-04-23T11:52:59Z</time></trkpt><trkpt lat="42.231114481777645" lon="13.836628818400094"><ele>853.0</ele><time>2026-04-23T11:53:00Z</time></trkpt><trkpt lat="42.23125250077458" lon="13.836653365765939"><ele>853.0</ele><time>2026-04-23T11:53:01Z</time></trkpt><trkpt lat="42.23139552384501" lon="13.836685325909391"><ele>853.0</ele><time>2026-04-23T11:53:02Z</time></trkpt><trkpt lat="42.23154564193392" lon="13.836727198346638"><ele>853.0</ele><time>2026-04-23T11:53:03Z</time></trkpt><trkpt lat="42.23169666983755" lon="13.836772528725879"><ele>868.6666666666666</ele><time>2026-04-23T11:53:04Z</time></trkpt><trkpt lat="42.23184577857245" lon="13.836816945197551"><ele>884.3333333333333</ele><time>2026-04-23T11:53:05Z</time></trkpt><trkpt lat="42.23199472290726" lon="13.836855871652471"><ele>900.0</ele><time>2026-04-23T11:53:06Z</time></trkpt><trkpt lat="42.2321463921756" lon="13.83689905203655"><ele>900.0</ele><time>2026-04-23T11:53:07Z</time></trkpt><trkpt lat="42.23227730549922" lon="13.836941865256277"><ele>900.0</ele><time>2026-04-23T11:53:08Z</time></trkpt><trkpt lat="42.232376022111545" lon="13.836981608812412"><ele>900.0</ele><time>2026-04-23T11:53:09Z</time></trkpt><trkpt lat="42.23244612474726" lon="13.837008777334256"><ele>900.0</ele><time>2026-04-23T11:53:10Z</time></trkpt><trkpt lat="42.23251991314784" lon="13.837078451272166"><ele>900.0</ele><time>2026-04-23T11:53:12Z</time></trkpt><trkpt lat="42.232479223383486" lon="13.837153113705837"><ele>900.0</ele><time>2026-04-23T11:53:14Z</time></trkpt><trkpt lat="42.232409095761625" lon="13.83712156515882"><ele>900.0</ele><time>2026-04-23T11:53:15Z</time></trkpt><trkpt lat="42.23232819960768" lon="13.83707998359567"><ele>900.0</ele><time>2026-04-23T11:53:16Z</time></trkpt><trkpt lat="42.23222534031106" lon="13.837065418238101"><ele>900.0</ele><time>2026-04-23T11:53:17Z</time></trkpt><trkpt lat="42.23210763405247" lon="13.83706294637149"><ele>900.0</ele><time>2026-04-23T11:53:18Z</time></trkpt><trkpt lat="42.2319710218384" lon="13.837071613814754"><ele>900.0</ele><time>2026-04-23T11:53:19Z</time></trkpt><trkpt lat="42.23182853931564" lon="13.83709807455893"><ele>900.0</ele><time>2026-04-23T11:53:20Z</time></trkpt><trkpt lat="42.23167469906969" lon="13.837136486579226"><ele>900.0</ele><time>2026-04-23T11:53:21Z</time></trkpt><trkpt lat="42.231510200855396" lon="13.837181838102197"><ele>896.6666666666667</ele><time>2026-04-23T11:53:22Z</time></trkpt><trkpt lat="42.231350131286106" lon="13.837230186248307"><ele>893.3333333333334</ele><time>2026-04-23T11:53:23Z</time></trkpt><trkpt lat="42.23120070803972" lon="13.837296083638229"><ele>890.0</ele><time>2026-04-23T11:53:24Z</time></trkpt><trkpt lat="42.23104570240377" lon="13.837324425983471"><ele>890.0</ele><time>2026-04-23T11:53:25Z</time></trkpt><trkpt lat="42.230917872831284" lon="13.837409971656479"><ele>890.0</ele><time>2026-04-23T11:53:26Z</time></trkpt><trkpt lat="42.230808494842655" lon="13.837475283645858"><ele>890.0</ele><time>2026-04-23T11:53:27Z</time></trkpt><trkpt lat="42.23070737834491" lon="13.837555250536544"><ele>890.0</ele><time>2026-04-23T11:53:28Z</time></trkpt><trkpt lat="42.23060112174822" lon="13.837615736277577"><ele>891.5</ele><time>2026-04-23T11:53:29Z</time></trkpt><trkpt lat="42.230497254100925" lon="13.837697502621026"><ele>893.0</ele><time>2026-04-23T11:53:30Z</time></trkpt><trkpt lat="42.230389977751294" lon="13.837799364137533"><ele>894.5</ele><time>2026-04-23T11:53:31Z</time></trkpt><trkpt lat="42.230314426360984" lon="13.837927859713442"><ele>896.0</ele><time>2026-04-23T11:53:32Z</time></trkpt><trkpt lat="42.23024073828136" lon="13.838014542767771"><ele>896.0</ele><time>2026-04-23T11:53:33Z</time></trkpt><trkpt lat="42.23018172103872" lon="13.838115251601298"><ele>896.0</ele><time>2026-04-23T11:53:34Z</time></trkpt><trkpt lat="42.230128649305016" lon="13.838244686706123"><ele>896.0</ele><time>2026-04-23T11:53:35Z</time></trkpt><trkpt lat="42.23006490545191" lon="13.838387381223336"><ele>896.0</ele><time>2026-04-23T11:53:36Z</time></trkpt><trkpt lat="42.22999570279768" lon="13.83853380554687"><ele>895.0</ele><time>2026-04-23T11:53:37Z</time></trkpt><trkpt lat="42.22991902311048" lon="13.838690983443636"><ele>894.0</ele><time>2026-04-23T11:53:38Z</time></trkpt><trkpt lat="42.22983210979628" lon="13.838840614495904"><ele>893.0</ele><time>2026-04-23T11:53:39Z</time></trkpt><trkpt lat="42.22972734703301" lon="13.83897380782577"><ele>892.0</ele><time>2026-04-23T11:53:40Z</time></trkpt><trkpt lat="42.22963150568347" lon="13.83912180333289"><ele>892.0</ele><time>2026-04-23T11:53:41Z</time></trkpt><trkpt lat="42.229537281226946" lon="13.839269374583198"><ele>892.0</ele><time>2026-04-23T11:53:42Z</time></trkpt><trkpt lat="42.22944617206373" lon="13.839416108242421"><ele>892.0</ele><time>2026-04-23T11:53:43Z</time></trkpt><trkpt lat="42.22937336750854" lon="13.839573506411556"><ele>892.0</ele><time>2026-04-23T11:53:44Z</time></trkpt><trkpt lat="42.22929917155958" lon="13.839717081890601"><ele>897.5</ele><time>2026-04-23T11:53:45Z</time></trkpt><trkpt lat="42.2292328197705" lon="13.839870824553087"><ele>903.0</ele><time>2026-04-23T11:53:46Z</time></trkpt><trkpt lat="42.229173124669366" lon="13.840033751178632"><ele>908.5</ele><time>2026-04-23T11:53:47Z</time></trkpt><trkpt lat="42.22910317938706" lon="13.84020164067046"><ele>914.0</ele><time>2026-04-23T11:53:48Z</time></trkpt><trkpt lat="42.22903696342513" lon="13.84037623952647"><ele>911.3333333333334</ele><time>2026-04-23T11:53:49Z</time></trkpt><trkpt lat="42.22897321098108" lon="13.840557299087486"><ele>908.6666666666667</ele><time>2026-04-23T11:53:50Z</time></trkpt><trkpt lat="42.22891417850493" lon="13.840750555816333"><ele>906.0</ele><time>2026-04-23T11:53:51Z</time></trkpt><trkpt lat="42.228855412655754" lon="13.84094144986431"><ele>912.5</ele><time>2026-04-23T11:53:52Z</time></trkpt><trkpt lat="42.22878784524424" lon="13.841121228755986"><ele>919.0</ele><time>2026-04-23T11:53:53Z</time></trkpt><trkpt lat="42.2287181816805" lon="13.841286416250899"><ele>925.5</ele><time>2026-04-23T11:53:54Z</time></trkpt><trkpt lat="42.22865620893243" lon="13.841423156680335"><ele>932.0</ele><time>2026-04-23T11:53:55Z</time></trkpt><trkpt lat="42.22859610059753" lon="13.8415406316628"><ele>932.0</ele><time>2026-04-23T11:53:56Z</time></trkpt><trkpt lat="42.22852327813715" lon="13.841642696045426"><ele>932.0</ele><time>2026-04-23T11:53:57Z</time></trkpt><trkpt lat="42.22842627409529" lon="13.841704001654724"><ele>932.0</ele><time>2026-04-23T11:53:58Z</time></trkpt><trkpt lat="42.228325591334226" lon="13.8417506361312"><ele>932.0</ele><time>2026-04-23T11:53:59Z</time></trkpt><trkpt lat="42.22821152938812" lon="13.841801289551432"><ele>932.0</ele><time>2026-04-23T11:54:00Z</time></trkpt><trkpt lat="42.22808426099833" lon="13.84184567070405"><ele>940.0</ele><time>2026-04-23T11:54:01Z</time></trkpt><trkpt lat="42.22795061785525" lon="13.841885676119366"><ele>948.0</ele><time>2026-04-23T11:54:02Z</time></trkpt><trkpt lat="42.22780821122802" lon="13.841916985277427"><ele>956.0</ele><time>2026-04-23T11:54:03Z</time></trkpt><trkpt lat="42.22766205652991" lon="13.841943727076881"><ele>964.0</ele><time>2026-04-23T11:54:04Z</time></trkpt><trkpt lat="42.22750974157314" lon="13.841968782518155"><ele>964.0</ele><time>2026-04-23T11:54:05Z</time></trkpt><trkpt lat="42.22735279341889" lon="13.84198270882735"><ele>964.0</ele><time>2026-04-23T11:54:06Z</time></trkpt><trkpt lat="42.22718431461773" lon="13.841998055574853"><ele>964.0</ele><time>2026-04-23T11:54:07Z</time></trkpt><trkpt lat="42.22699684365428" lon="13.84201513231531"><ele>965.3333333333333</ele><time>2026-04-23T11:54:08Z</time></trkpt><trkpt lat="42.22678999177497" lon="13.84203397447309"><ele>966.6666666666667</ele><time>2026-04-23T11:54:09Z</time></trkpt><trkpt lat="42.22656985565699" lon="13.842051833790524"><ele>968.0</ele><time>2026-04-23T11:54:10Z</time></trkpt><trkpt lat="42.22640255829216" lon="13.842053839696513"><ele>968.0</ele><time>2026-04-23T11:54:11Z</time></trkpt><trkpt lat="42.22626562674691" lon="13.842041121262257"><ele>968.0</ele><time>2026-04-23T11:54:12Z</time></trkpt><trkpt lat="42.226147282950265" lon="13.842046256074221"><ele>968.0</ele><time>2026-04-23T11:54:13Z</time></trkpt><trkpt lat="42.22603514239558" lon="13.842095170424793"><ele>968.0</ele><time>2026-04-23T11:54:14Z</time></trkpt><trkpt lat="42.22592104016552" lon="13.842147959212443"><ele>968.0</ele><time>2026-04-23T11:54:15Z</time></trkpt><trkpt lat="42.22580084087103" lon="13.842228855562206"><ele>968.0</ele><time>2026-04-23T11:54:16Z</time></trkpt><trkpt lat="42.22568689722378" lon="13.84233397949358"><ele>968.0</ele><time>2026-04-23T11:54:17Z</time></trkpt><trkpt lat="42.22557343071957" lon="13.842476957949076"><ele>968.0</ele><time>2026-04-23T11:54:18Z</time></trkpt><trkpt lat="42.225459152112535" lon="13.84263601746829"><ele>969.0</ele><time>2026-04-23T11:54:19Z</time></trkpt><trkpt lat="42.22534053356586" lon="13.842809754576258"><ele>970.0</ele><time>2026-04-23T11:54:20Z</time></trkpt><trkpt lat="42.225223084450654" lon="13.842950363318517"><ele>971.0</ele><time>2026-04-23T11:54:21Z</time></trkpt><trkpt lat="42.225121067507736" lon="13.84308487525423"><ele>971.0</ele><time>2026-04-23T11:54:22Z</time></trkpt><trkpt lat="42.22503069805078" lon="13.84319586963862"><ele>971.0</ele><time>2026-04-23T11:54:23Z</time></trkpt><trkpt lat="42.224957978645364" lon="13.843300266251461"><ele>971.0</ele><time>2026-04-23T11:54:24Z</time></trkpt><trkpt lat="42.22490424594553" lon="13.843430118822642"><ele>971.0</ele><time>2026-04-23T11:54:25Z</time></trkpt><trkpt lat="42.22483415089162" lon="13.843568317850384"><ele>967.25</ele><time>2026-04-23T11:54:26Z</time></trkpt><trkpt lat="42.224769673393084" lon="13.843738429729884"><ele>963.5</ele><time>2026-04-23T11:54:27Z</time></trkpt><trkpt lat="42.22469210696045" lon="13.843909181833492"><ele>959.75</ele><time>2026-04-23T11:54:28Z</time></trkpt><trkpt lat="42.22463292375423" lon="13.844072758583305"><ele>956.0</ele><time>2026-04-23T11:54:29Z</time></trkpt><trkpt lat="42.22460090228047" lon="13.84421245143457"><ele>956.8333333333334</ele><time>2026-04-23T11:54:30Z</time></trkpt><trkpt lat="42.22456971884878" lon="13.844323353517286"><ele>957.6666666666667</ele><time>2026-04-23T11:54:31Z</time></trkpt><trkpt lat="42.22455964294552" lon="13.84442220213864"><ele>958.5</ele><time>2026-04-23T11:54:32Z</time></trkpt><trkpt lat="42.2245840820063" lon="13.844504869718461"><ele>959.3333333333333</ele><time>2026-04-23T11:54:33Z</time></trkpt><trkpt lat="42.22464265298977" lon="13.844565593404228"><ele>960.1666666666666</ele><time>2026-04-23T11:54:34Z</time></trkpt><trkpt lat="42.22472127926677" lon="13.844609448498362"><ele>961.0</ele><time>2026-04-23T11:54:35Z</time></trkpt><trkpt lat="42.224815829313236" lon="13.8446156880029"><ele>963.75</ele><time>2026-04-23T11:54:36Z</time></trkpt><trkpt lat="42.22492846091811" lon="13.844598730932887"><ele>966.5</ele><time>2026-04-23T11:54:37Z</time></trkpt><trkpt lat="42.22505168629544" lon="13.844607838020558"><ele>969.25</ele><time>2026-04-23T11:54:38Z</time></trkpt><trkpt lat="42.225164002008086" lon="13.84456836284369"><ele>972.0</ele><time>2026-04-23T11:54:39Z</time></trkpt><trkpt lat="42.225262828018735" lon="13.844552052258793"><ele>972.0</ele><time>2026-04-23T11:54:40Z</time></trkpt><trkpt lat="42.22534998210139" lon="13.844499048584858"><ele>972.0</ele><time>2026-04-23T11:54:41Z</time></trkpt><trkpt lat="42.225428453108115" lon="13.844426215947207"><ele>972.0</ele><time>2026-04-23T11:54:42Z</time></trkpt><trkpt lat="42.22552239851333" lon="13.844378935984613"><ele>972.0</ele><time>2026-04-23T11:54:43Z</time></trkpt><trkpt lat="42.22562169096679" lon="13.844323500879351"><ele>972.0</ele><time>2026-04-23T11:54:44Z</time></trkpt><trkpt lat="42.22573387540509" lon="13.84426630779879"><ele>976.5</ele><time>2026-04-23T11:54:45Z</time></trkpt><trkpt lat="42.22585900046714" lon="13.844206032968598"><ele>981.0</ele><time>2026-04-23T11:54:46Z</time></trkpt><trkpt lat="42.22598613357269" lon="13.844130279153415"><ele>985.5</ele><time>2026-04-23T11:54:47Z</time></trkpt><trkpt lat="42.22612509537434" lon="13.844071285041348"><ele>990.0</ele><time>2026-04-23T11:54:48Z</time></trkpt><trkpt lat="42.22626436220291" lon="13.844006023783088"><ele>990.0</ele><time>2026-04-23T11:54:49Z</time></trkpt><trkpt lat="42.22639635792164" lon="13.843943782603596"><ele>990.0</ele><time>2026-04-23T11:54:50Z</time></trkpt><trkpt lat="42.22650290499673" lon="13.84389415873392"><ele>990.0</ele><time>2026-04-23T11:54:51Z</time></trkpt><trkpt lat="42.2265761272603" lon="13.843863476417374"><ele>990.0</ele><time>2026-04-23T11:54:52Z</time></trkpt><trkpt lat="42.22665276824861" lon="13.843842272456035"><ele>990.0</ele><time>2026-04-23T11:54:54Z</time></trkpt><trkpt lat="42.22676753367879" lon="13.843824481966099"><ele>989.0</ele><time>2026-04-23T11:55:01Z</time></trkpt><trkpt lat="42.22684405636461" lon="13.843814985943276"><ele>988.0</ele><time>2026-04-23T11:55:02Z</time></trkpt><trkpt lat="42.226941841254714" lon="13.843821238652952"><ele>987.0</ele><time>2026-04-23T11:55:03Z</time></trkpt><trkpt lat="42.22703637421685" lon="13.843830051059422"><ele>986.0</ele><time>2026-04-23T11:55:04Z</time></trkpt><trkpt lat="42.2271277793963" lon="13.84383769023589"><ele>985.0</ele><time>2026-04-23T11:55:05Z</time></trkpt><trkpt lat="42.22722169721311" lon="13.843840178670375"><ele>984.9999999999999</ele><time>2026-04-23T11:55:06Z</time></trkpt><trkpt lat="42.22730113099664" lon="13.843828879294364"><ele>985.0</ele><time>2026-04-23T11:55:07Z</time></trkpt><trkpt lat="42.22738216930006" lon="13.843806838154837"><ele>985.0</ele><time>2026-04-23T11:55:08Z</time></trkpt><trkpt lat="42.2274554085676" lon="13.84378506632689"><ele>985.0</ele><time>2026-04-23T11:55:09Z</time></trkpt><trkpt lat="42.22752381774825" lon="13.843765489068266"><ele>984.9999999999999</ele><time>2026-04-23T11:55:10Z</time></trkpt><trkpt lat="42.22759742531878" lon="13.843773686920132"><ele>985.0</ele><time>2026-04-23T11:55:11Z</time></trkpt><trkpt lat="42.227649537736326" lon="13.843834514865126"><ele>983.8</ele><time>2026-04-23T11:55:12Z</time></trkpt><trkpt lat="42.227669781117555" lon="13.843923659575955"><ele>982.6</ele><time>2026-04-23T11:55:13Z</time></trkpt><trkpt lat="42.2276526551628" lon="13.844006328351783"><ele>981.4000000000001</ele><time>2026-04-23T11:55:14Z</time></trkpt><trkpt lat="42.227591043872735" lon="13.844052061013858"><ele>980.2</ele><time>2026-04-23T11:55:15Z</time></trkpt><trkpt lat="42.227454207558644" lon="13.84415108963471"><ele>979.0</ele><time>2026-04-23T11:55:17Z</time></trkpt><trkpt lat="42.22734637960264" lon="13.844228246019401"><ele>974.0</ele><time>2026-04-23T11:55:18Z</time></trkpt><trkpt lat="42.227223570742346" lon="13.844348609077858"><ele>969.0</ele><time>2026-04-23T11:55:19.001Z</time></trkpt><trkpt lat="42.22708806581707" lon="13.844459200206947"><ele>964.0</ele><time>2026-04-23T11:55:20.001Z</time></trkpt><trkpt lat="42.22694940744314" lon="13.844574330264884"><ele>964.0</ele><time>2026-04-23T11:55:21.001Z</time></trkpt><trkpt lat="42.226813742748234" lon="13.844679901612391"><ele>964.0</ele><time>2026-04-23T11:55:22.001Z</time></trkpt><trkpt lat="42.22668072680606" lon="13.844774491142427"><ele>964.0</ele><time>2026-04-23T11:55:23.001Z</time></trkpt><trkpt lat="42.226569702706776" lon="13.844899909393394"><ele>966.0</ele><time>2026-04-23T11:55:24.001Z</time></trkpt><trkpt lat="42.22646882310464" lon="13.844991106528038"><ele>968.0</ele><time>2026-04-23T11:55:25.001Z</time></trkpt><trkpt lat="42.22637491479902" lon="13.845083981426487"><ele>970.0</ele><time>2026-04-23T11:55:26.001Z</time></trkpt><trkpt lat="42.22627517453506" lon="13.8451613280302"><ele>972.0</ele><time>2026-04-23T11:55:27.001Z</time></trkpt><trkpt lat="42.2261804193772" lon="13.845252980499428"><ele>966.5</ele><time>2026-04-23T11:55:28.001Z</time></trkpt><trkpt lat="42.22608328935479" lon="13.845343790616864"><ele>961.0</ele><time>2026-04-23T11:55:29.001Z</time></trkpt><trkpt lat="42.22598737849371" lon="13.845428555057026"><ele>955.5</ele><time>2026-04-23T11:55:30.001Z</time></trkpt><trkpt lat="42.22589697874105" lon="13.845526092027319"><ele>950.0</ele><time>2026-04-23T11:55:31.001Z</time></trkpt><trkpt lat="42.2257932945378" lon="13.845585453998163"><ele>950.0</ele><time>2026-04-23T11:55:32.001Z</time></trkpt><trkpt lat="42.22569329793126" lon="13.845657021449641"><ele>950.0</ele><time>2026-04-23T11:55:33.001Z</time></trkpt><trkpt lat="42.225592530172875" lon="13.845723078259763"><ele>950.0</ele><time>2026-04-23T11:55:34.001Z</time></trkpt><trkpt lat="42.225489617551276" lon="13.84578697843826"><ele>950.0</ele><time>2026-04-23T11:55:35.001Z</time></trkpt><trkpt lat="42.22538961529037" lon="13.845848112398638"><ele>950.0</ele><time>2026-04-23T11:55:36.001Z</time></trkpt><trkpt lat="42.225292992488534" lon="13.845908916670579"><ele>947.4</ele><time>2026-04-23T11:55:37.001Z</time></trkpt><trkpt lat="42.22519847116309" lon="13.84597624589528"><ele>944.8</ele><time>2026-04-23T11:55:38.001Z</time></trkpt><trkpt lat="42.22511970337022" lon="13.846068027028474"><ele>942.2</ele><time>2026-04-23T11:55:39.001Z</time></trkpt><trkpt lat="42.22504293909251" lon="13.846150656541855"><ele>939.6</ele><time>2026-04-23T11:55:40.001Z</time></trkpt><trkpt lat="42.224966553664515" lon="13.84623986761242"><ele>937.0</ele><time>2026-04-23T11:55:41.001Z</time></trkpt><trkpt lat="42.22489006456174" lon="13.846343760498712"><ele>936.9999999999999</ele><time>2026-04-23T11:55:42.001Z</time></trkpt><trkpt lat="42.22481365284107" lon="13.846452163294282"><ele>937.0</ele><time>2026-04-23T11:55:43.001Z</time></trkpt><trkpt lat="42.224755693457986" lon="13.846552908539834"><ele>937.0</ele><time>2026-04-23T11:55:44.001Z</time></trkpt><trkpt lat="42.22470299257" lon="13.846639090909852"><ele>937.0</ele><time>2026-04-23T11:55:45.001Z</time></trkpt><trkpt lat="42.224649511742456" lon="13.84672623696389"><ele>936.9999999999999</ele><time>2026-04-23T11:55:46.001Z</time></trkpt><trkpt lat="42.224614188243194" lon="13.846807582495527"><ele>937.0</ele><time>2026-04-23T11:55:47.001Z</time></trkpt><trkpt lat="42.22461460910941" lon="13.846970309101838"><ele>934.1666666666666</ele><time>2026-04-23T11:55:49.001Z</time></trkpt><trkpt lat="42.22462484304406" lon="13.847099769245002"><ele>931.3333333333333</ele><time>2026-04-23T11:55:50.001Z</time></trkpt><trkpt lat="42.224650848873395" lon="13.847193613509507"><ele>928.5</ele><time>2026-04-23T11:55:51.001Z</time></trkpt><trkpt lat="42.224668103230144" lon="13.847280388065558"><ele>925.6666666666667</ele><time>2026-04-23T11:55:52.001Z</time></trkpt><trkpt lat="42.224770664528926" lon="13.847343815297416"><ele>922.8333333333334</ele><time>2026-04-23T11:55:54.001Z</time></trkpt><trkpt lat="42.2248395282744" lon="13.847375480776321"><ele>920.0</ele><time>2026-04-23T11:55:55.001Z</time></trkpt><trkpt lat="42.224923188119305" lon="13.847407728893076"><ele>920.0</ele><time>2026-04-23T11:55:56.001Z</time></trkpt><trkpt lat="42.22501395276683" lon="13.847448806776626"><ele>920.0</ele><time>2026-04-23T11:55:57.001Z</time></trkpt><trkpt lat="42.22511616740546" lon="13.847496453203405"><ele>920.0</ele><time>2026-04-23T11:55:58.001Z</time></trkpt><trkpt lat="42.22521943730103" lon="13.847545204424573"><ele>920.0</ele><time>2026-04-23T11:55:59.001Z</time></trkpt><trkpt lat="42.22532766163632" lon="13.847596666199935"><ele>920.0</ele><time>2026-04-23T11:56:00.001Z</time></trkpt><trkpt lat="42.22543135777118" lon="13.847660700068449"><ele>916.25</ele><time>2026-04-23T11:56:01.001Z</time></trkpt><trkpt lat="42.22553560986984" lon="13.847728823166669"><ele>912.5</ele><time>2026-04-23T11:56:02.001Z</time></trkpt><trkpt lat="42.225644749272654" lon="13.84777504979065"><ele>908.75</ele><time>2026-04-23T11:56:03.001Z</time></trkpt><trkpt lat="42.22576059776105" lon="13.84780280656489"><ele>905.0</ele><time>2026-04-23T11:56:04.001Z</time></trkpt><trkpt lat="42.2258800321792" lon="13.847805167335407"><ele>905.0</ele><time>2026-04-23T11:56:05.001Z</time></trkpt><trkpt lat="42.22600818760838" lon="13.847794437361708"><ele>905.0</ele><time>2026-04-23T11:56:06.001Z</time></trkpt><trkpt lat="42.226145012804345" lon="13.847784515439487"><ele>905.0</ele><time>2026-04-23T11:56:07.001Z</time></trkpt><trkpt lat="42.226287623684414" lon="13.84778333803202"><ele>905.0</ele><time>2026-04-23T11:56:08.001Z</time></trkpt><trkpt lat="42.226430491967854" lon="13.847777806727317"><ele>904.5</ele><time>2026-04-23T11:56:09.001Z</time></trkpt><trkpt lat="42.22657659540038" lon="13.847774615072659"><ele>904.0</ele><time>2026-04-23T11:56:10Z</time></trkpt><trkpt lat="42.22671964353962" lon="13.847770395658404"><ele>903.5</ele><time>2026-04-23T11:56:11Z</time></trkpt><trkpt lat="42.22685813267827" lon="13.847767292761947"><ele>903.0</ele><time>2026-04-23T11:56:12Z</time></trkpt><trkpt lat="42.22700557061107" lon="13.847766864334945"><ele>903.0</ele><time>2026-04-23T11:56:13Z</time></trkpt><trkpt lat="42.22715518549161" lon="13.847771861489976"><ele>903.0</ele><time>2026-04-23T11:56:14Z</time></trkpt><trkpt lat="42.22730609733713" lon="13.847777771981754"><ele>903.0</ele><time>2026-04-23T11:56:15Z</time></trkpt><trkpt lat="42.22745183351366" lon="13.847783631798825"><ele>903.0</ele><time>2026-04-23T11:56:16Z</time></trkpt><trkpt lat="42.22759882032104" lon="13.847787776734114"><ele>902.25</ele><time>2026-04-23T11:56:17Z</time></trkpt><trkpt lat="42.22774148997834" lon="13.847798682249866"><ele>901.5</ele><time>2026-04-23T11:56:18Z</time></trkpt><trkpt lat="42.22788412414495" lon="13.847803899631726"><ele>900.75</ele><time>2026-04-23T11:56:19Z</time></trkpt><trkpt lat="42.22801715792269" lon="13.847804080213255"><ele>900.0</ele><time>2026-04-23T11:56:20Z</time></trkpt><trkpt lat="42.22815284190237" lon="13.847805255164173"><ele>901.5</ele><time>2026-04-23T11:56:21Z</time></trkpt><trkpt lat="42.22827618506207" lon="13.847788673609394"><ele>903.0</ele><time>2026-04-23T11:56:22Z</time></trkpt><trkpt lat="42.22840572693153" lon="13.84777409246962"><ele>904.5</ele><time>2026-04-23T11:56:23Z</time></trkpt><trkpt lat="42.22853664144934" lon="13.84775431415966"><ele>906.0</ele><time>2026-04-23T11:56:24Z</time></trkpt><trkpt lat="42.22867712877126" lon="13.847711937603233"><ele>906.0</ele><time>2026-04-23T11:56:25Z</time></trkpt><trkpt lat="42.228819146010416" lon="13.847664687790425"><ele>906.0</ele><time>2026-04-23T11:56:26Z</time></trkpt><trkpt lat="42.228969836350615" lon="13.847630269166816"><ele>906.0</ele><time>2026-04-23T11:56:27Z</time></trkpt><trkpt lat="42.229120825487364" lon="13.847610798782842"><ele>917.3333333333333</ele><time>2026-04-23T11:56:28Z</time></trkpt><trkpt lat="42.22926800089258" lon="13.847586909958476"><ele>928.6666666666666</ele><time>2026-04-23T11:56:29Z</time></trkpt><trkpt lat="42.22942091603961" lon="13.847531294833255"><ele>940.0</ele><time>2026-04-23T11:56:30Z</time></trkpt><trkpt lat="42.229576713919364" lon="13.847449998489749"><ele>940.0</ele><time>2026-04-23T11:56:31Z</time></trkpt><trkpt lat="42.22973548382993" lon="13.847365071694734"><ele>940.0</ele><time>2026-04-23T11:56:32Z</time></trkpt><trkpt lat="42.229895429370096" lon="13.847287625784167"><ele>940.0</ele><time>2026-04-23T11:56:33Z</time></trkpt><trkpt lat="42.23005293585726" lon="13.84722129597667"><ele>938.5</ele><time>2026-04-23T11:56:34Z</time></trkpt><trkpt lat="42.23021055968379" lon="13.847162359564056"><ele>937.0</ele><time>2026-04-23T11:56:35Z</time></trkpt><trkpt lat="42.230354965824" lon="13.847110343092893"><ele>935.5</ele><time>2026-04-23T11:56:36Z</time></trkpt><trkpt lat="42.23048095757071" lon="13.84706664627628"><ele>934.0</ele><time>2026-04-23T11:56:36.999Z</time></trkpt><trkpt lat="42.23060000535916" lon="13.84703121713153"><ele>933.4999999999999</ele><time>2026-04-23T11:56:37.999Z</time></trkpt><trkpt lat="42.23071178758803" lon="13.846997826796704"><ele>933.0</ele><time>2026-04-23T11:56:38.999Z</time></trkpt><trkpt lat="42.23080701642804" lon="13.846964190087752"><ele>932.5</ele><time>2026-04-23T11:56:39.999Z</time></trkpt><trkpt lat="42.23088436323622" lon="13.846935272824087"><ele>932.0</ele><time>2026-04-23T11:56:40.999Z</time></trkpt><trkpt lat="42.230957252891926" lon="13.846923890173203"><ele>931.4999999999999</ele><time>2026-04-23T11:56:41.999Z</time></trkpt><trkpt lat="42.23102592052706" lon="13.846944974918578"><ele>931.0</ele><time>2026-04-23T11:56:42.999Z</time></trkpt><trkpt lat="42.23108735891069" lon="13.84701454070726"><ele>931.0</ele><time>2026-04-23T11:56:43.999Z</time></trkpt><trkpt lat="42.23115056042596" lon="13.84707295182079"><ele>930.9999999999999</ele><time>2026-04-23T11:56:44.999Z</time></trkpt><trkpt lat="42.23122116234758" lon="13.84712927775573"><ele>930.9999999999999</ele><time>2026-04-23T11:56:45.999Z</time></trkpt><trkpt lat="42.231282205250075" lon="13.847200792968033"><ele>931.0</ele><time>2026-04-23T11:56:46.999Z</time></trkpt><trkpt lat="42.23139511012437" lon="13.847270417577226"><ele>931.0</ele><time>2026-04-23T11:56:48.999Z</time></trkpt><trkpt lat="42.23152607863778" lon="13.84727418973346"><ele>931.0</ele><time>2026-04-23T11:56:50.999Z</time></trkpt><trkpt lat="42.231675132690576" lon="13.847314557482994"><ele>931.0</ele><time>2026-04-23T11:56:51.999Z</time></trkpt><trkpt lat="42.23176867607046" lon="13.847336554437883"><ele>931.0</ele><time>2026-04-23T11:56:52.999Z</time></trkpt><trkpt lat="42.23186082506842" lon="13.847400969839013"><ele>931.0</ele><time>2026-04-23T11:56:53.999Z</time></trkpt><trkpt lat="42.23195263225782" lon="13.847472163531732"><ele>931.0</ele><time>2026-04-23T11:56:54.999Z</time></trkpt><trkpt lat="42.23204918325765" lon="13.847559173658247"><ele>930.9999999999999</ele><time>2026-04-23T11:56:55.999Z</time></trkpt><trkpt lat="42.23214737040464" lon="13.847637901816372"><ele>930.9999999999999</ele><time>2026-04-23T11:56:56.999Z</time></trkpt><trkpt lat="42.23224191168285" lon="13.847709837156062"><ele>931.0</ele><time>2026-04-23T11:56:57.999Z</time></trkpt><trkpt lat="42.232335096785604" lon="13.847779115022952"><ele>931.0</ele><time>2026-04-23T11:56:58.999Z</time></trkpt><trkpt lat="42.232425904262165" lon="13.847847576607075"><ele>925.8</ele><time>2026-04-23T11:56:59.999Z</time></trkpt><trkpt lat="42.232508339453226" lon="13.847930346919778"><ele>920.5999999999999</ele><time>2026-04-23T11:57:00.999Z</time></trkpt><trkpt lat="42.23258536478537" lon="13.848015023070253"><ele>915.4</ele><time>2026-04-23T11:57:01.999Z</time></trkpt><trkpt lat="42.23263864358707" lon="13.848126185765405"><ele>910.2</ele><time>2026-04-23T11:57:02.999Z</time></trkpt><trkpt lat="42.232716347230145" lon="13.848209946303449"><ele>905.0</ele><time>2026-04-23T11:57:03.999Z</time></trkpt><trkpt lat="42.23278869637417" lon="13.84830358760489"><ele>905.0</ele><time>2026-04-23T11:57:04.999Z</time></trkpt><trkpt lat="42.23287406066902" lon="13.848374741023495"><ele>905.0</ele><time>2026-04-23T11:57:05.999Z</time></trkpt><trkpt lat="42.23297267278145" lon="13.848430330833764"><ele>905.0</ele><time>2026-04-23T11:57:06.999Z</time></trkpt><trkpt lat="42.23307673745573" lon="13.848492595038046"><ele>905.0</ele><time>2026-04-23T11:57:07.999Z</time></trkpt><trkpt lat="42.2331851585829" lon="13.84856172605755"><ele>905.0</ele><time>2026-04-23T11:57:08.999Z</time></trkpt><trkpt lat="42.233295076169085" lon="13.84862850514615"><ele>901.6</ele><time>2026-04-23T11:57:09.999Z</time></trkpt><trkpt lat="42.23339453939797" lon="13.848658392574496"><ele>898.2</ele><time>2026-04-23T11:57:10.999Z</time></trkpt><trkpt lat="42.23349230637489" lon="13.848671494560135"><ele>894.8</ele><time>2026-04-23T11:57:11.999Z</time></trkpt><trkpt lat="42.23358183663807" lon="13.848686219422847"><ele>891.4</ele><time>2026-04-23T11:57:12.999Z</time></trkpt><trkpt lat="42.23367573028502" lon="13.848697629595312"><ele>888.0</ele><time>2026-04-23T11:57:13.999Z</time></trkpt><trkpt lat="42.23376402123842" lon="13.84870773257728"><ele>888.0</ele><time>2026-04-23T11:57:14.999Z</time></trkpt><trkpt lat="42.233856550853034" lon="13.848709907728644"><ele>888.0</ele><time>2026-04-23T11:57:15.999Z</time></trkpt><trkpt lat="42.23394652609623" lon="13.848715942964239"><ele>888.0</ele><time>2026-04-23T11:57:16.999Z</time></trkpt><trkpt lat="42.2340329840024" lon="13.848744473419234"><ele>888.0</ele><time>2026-04-23T11:57:17.999Z</time></trkpt><trkpt lat="42.23410994963281" lon="13.848793025986678"><ele>888.0</ele><time>2026-04-23T11:57:18.999Z</time></trkpt><trkpt lat="42.23417038961769" lon="13.848866989644742"><ele>888.0</ele><time>2026-04-23T11:57:19.999Z</time></trkpt><trkpt lat="42.234178879094415" lon="13.848986481614917"><ele>889.1666666666666</ele><time>2026-04-23T11:57:20.999Z</time></trkpt><trkpt lat="42.23422704631446" lon="13.849076365848738"><ele>890.3333333333333</ele><time>2026-04-23T11:57:21.999Z</time></trkpt><trkpt lat="42.23425807754904" lon="13.849189834327518"><ele>891.5</ele><time>2026-04-23T11:57:22.999Z</time></trkpt><trkpt lat="42.23430908630323" lon="13.849295804035535"><ele>892.6666666666666</ele><time>2026-04-23T11:57:23.999Z</time></trkpt><trkpt lat="42.23436941722589" lon="13.849385412383098"><ele>893.8333333333333</ele><time>2026-04-23T11:57:25Z</time></trkpt><trkpt lat="42.23444498263364" lon="13.84945233352727"><ele>895.0</ele><time>2026-04-23T11:57:26Z</time></trkpt><trkpt lat="42.23452533566194" lon="13.84948699476823"><ele>892.4999999999999</ele><time>2026-04-23T11:57:27Z</time></trkpt><trkpt lat="42.2346083508192" lon="13.849493138071017"><ele>890.0</ele><time>2026-04-23T11:57:28Z</time></trkpt><trkpt lat="42.2346924783358" lon="13.849481082797997"><ele>887.5</ele><time>2026-04-23T11:57:29Z</time></trkpt><trkpt lat="42.234776626560816" lon="13.849474611602938"><ele>885.0</ele><time>2026-04-23T11:57:30Z</time></trkpt><trkpt lat="42.234861022866504" lon="13.849473659530657"><ele>882.4999999999999</ele><time>2026-04-23T11:57:31Z</time></trkpt><trkpt lat="42.234940261111795" lon="13.849489557022368"><ele>880.0</ele><time>2026-04-23T11:57:32Z</time></trkpt><trkpt lat="42.23502115381679" lon="13.849556701591096"><ele>879.9999999999999</ele><time>2026-04-23T11:57:34Z</time></trkpt><trkpt lat="42.235007181233705" lon="13.849674863822525"><ele>880.0</ele><time>2026-04-23T11:57:36Z</time></trkpt><trkpt lat="42.234963934078934" lon="13.8497632825697"><ele>880.0</ele><time>2026-04-23T11:57:37Z</time></trkpt><trkpt lat="42.23492548981569" lon="13.8498518764626"><ele>880.0</ele><time>2026-04-23T11:57:38Z</time></trkpt><trkpt lat="42.23487463524491" lon="13.84993990869504"><ele>879.9999999999999</ele><time>2026-04-23T11:57:39Z</time></trkpt><trkpt lat="42.234832550917254" lon="13.850026031591412"><ele>880.0</ele><time>2026-04-23T11:57:40Z</time></trkpt><trkpt lat="42.23476912836027" lon="13.850096819910863"><ele>874.2</ele><time>2026-04-23T11:57:41Z</time></trkpt><trkpt lat="42.23471092677307" lon="13.850162923278866"><ele>868.4</ele><time>2026-04-23T11:57:42Z</time></trkpt><trkpt lat="42.23464475633555" lon="13.850231272030765"><ele>862.5999999999999</ele><time>2026-04-23T11:57:43Z</time></trkpt><trkpt lat="42.23457485820296" lon="13.850281515107712"><ele>856.8</ele><time>2026-04-23T11:57:44Z</time></trkpt><trkpt lat="42.23446721780972" lon="13.85028444962349"><ele>851.0</ele><time>2026-04-23T11:57:46Z</time></trkpt><trkpt lat="42.23437047542196" lon="13.850215662973431"><ele>851.0000000000001</ele><time>2026-04-23T11:57:48Z</time></trkpt><trkpt lat="42.234295334597334" lon="13.850141878434425"><ele>851.0</ele><time>2026-04-23T11:57:49Z</time></trkpt><trkpt lat="42.23420680864349" lon="13.850099981032695"><ele>851.0</ele><time>2026-04-23T11:57:50Z</time></trkpt><trkpt lat="42.234125602587" lon="13.85005458214935"><ele>851.0</ele><time>2026-04-23T11:57:51Z</time></trkpt><trkpt lat="42.23409571277454" lon="13.84994819249531"><ele>851.0000000000001</ele><time>2026-04-23T11:57:52Z</time></trkpt><trkpt lat="42.23404276978775" lon="13.849882895711325"><ele>851.0</ele><time>2026-04-23T11:57:53Z</time></trkpt><trkpt lat="42.23396661355225" lon="13.84983176506487"><ele>854.0</ele><time>2026-04-23T11:57:54Z</time></trkpt><trkpt lat="42.233879520525385" lon="13.849817710876234"><ele>857.0</ele><time>2026-04-23T11:57:55Z</time></trkpt><trkpt lat="42.233769279760864" lon="13.849893229742346"><ele>859.9999999999999</ele><time>2026-04-23T11:57:56Z</time></trkpt><trkpt lat="42.23368557884361" lon="13.849942576442675"><ele>863.0</ele><time>2026-04-23T11:57:57Z</time></trkpt><trkpt lat="42.23360056373564" lon="13.849977007399453"><ele>866.0</ele><time>2026-04-23T11:57:58Z</time></trkpt><trkpt lat="42.233522026007186" lon="13.850001130621571"><ele>866.0000000000001</ele><time>2026-04-23T11:57:59Z</time></trkpt><trkpt lat="42.233445419572604" lon="13.850013551992205"><ele>866.0</ele><time>2026-04-23T11:58:00Z</time></trkpt><trkpt lat="42.23336595351532" lon="13.849995711208491"><ele>866.0</ele><time>2026-04-23T11:58:01Z</time></trkpt><trkpt lat="42.23329709606512" lon="13.849999744723231"><ele>866.0</ele><time>2026-04-23T11:58:02Z</time></trkpt><trkpt lat="42.23322224771083" lon="13.850028914916063"><ele>866.0000000000001</ele><time>2026-04-23T11:58:03Z</time></trkpt><trkpt lat="42.23314554732728" lon="13.850082342867845"><ele>866.0</ele><time>2026-04-23T11:58:05Z</time></trkpt><trkpt lat="42.23316904025033" lon="13.850202334961326"><ele>862.5000000000001</ele><time>2026-04-23T11:58:07Z</time></trkpt><trkpt lat="42.23325818289736" lon="13.850289351499026"><ele>859.0</ele><time>2026-04-23T11:58:09Z</time></trkpt><trkpt lat="42.23332469483423" lon="13.850313254699874"><ele>855.5</ele><time>2026-04-23T11:58:10Z</time></trkpt><trkpt lat="42.233391452780985" lon="13.850309661244781"><ele>852.0</ele><time>2026-04-23T11:58:11Z</time></trkpt><trkpt lat="42.23346544010003" lon="13.850295765659778"><ele>848.5000000000001</ele><time>2026-04-23T11:58:12Z</time></trkpt><trkpt lat="42.233548636277916" lon="13.850307263553288"><ele>845.0</ele><time>2026-04-23T11:58:13Z</time></trkpt><trkpt lat="42.23363113250069" lon="13.850373333500649"><ele>845.0</ele><time>2026-04-23T11:58:14Z</time></trkpt><trkpt lat="42.23370037198149" lon="13.850472256447492"><ele>845.0</ele><time>2026-04-23T11:58:15Z</time></trkpt><trkpt lat="42.23377463281253" lon="13.850575807170554"><ele>845.0</ele><time>2026-04-23T11:58:16Z</time></trkpt><trkpt lat="42.233855827967616" lon="13.85068471770272"><ele>845.0</ele><time>2026-04-23T11:58:17Z</time></trkpt><trkpt lat="42.23393592564235" lon="13.850794856900531"><ele>845.0</ele><time>2026-04-23T11:58:18Z</time></trkpt><trkpt lat="42.23401944909571" lon="13.85089795144653"><ele>842.4</ele><time>2026-04-23T11:58:19Z</time></trkpt><trkpt lat="42.23410877209632" lon="13.850986286213667"><ele>839.8</ele><time>2026-04-23T11:58:20Z</time></trkpt><trkpt lat="42.234189985160924" lon="13.851058936796687"><ele>837.2</ele><time>2026-04-23T11:58:21Z</time></trkpt><trkpt lat="42.23424147014729" lon="13.85110915950168"><ele>834.6</ele><time>2026-04-23T11:58:22Z</time></trkpt><trkpt lat="42.234242884770666" lon="13.851220889472689"><ele>832.0</ele><time>2026-04-23T11:58:24Z</time></trkpt><trkpt lat="42.23411226281941" lon="13.851254114050002"><ele>832.0</ele><time>2026-04-23T11:58:26Z</time></trkpt><trkpt lat="42.23400134170412" lon="13.85122832738713"><ele>832.0</ele><time>2026-04-23T11:58:27Z</time></trkpt><trkpt lat="42.233888942413216" lon="13.851265317851643"><ele>832.0</ele><time>2026-04-23T11:58:28Z</time></trkpt><trkpt lat="42.23378509575016" lon="13.85131639722461"><ele>832.0</ele><time>2026-04-23T11:58:29Z</time></trkpt><trkpt lat="42.23368200794244" lon="13.851368436904748"><ele>832.0</ele><time>2026-04-23T11:58:30Z</time></trkpt><trkpt lat="42.23358485186885" lon="13.851380093744481"><ele>830.8333333333333</ele><time>2026-04-23T11:58:31Z</time></trkpt><trkpt lat="42.23349264566622" lon="13.85136341187456"><ele>829.6666666666666</ele><time>2026-04-23T11:58:32Z</time></trkpt><trkpt lat="42.233394452104505" lon="13.85131534849908"><ele>828.5</ele><time>2026-04-23T11:58:33Z</time></trkpt><trkpt lat="42.23330657717589" lon="13.851296468113954"><ele>827.3333333333333</ele><time>2026-04-23T11:58:34Z</time></trkpt><trkpt lat="42.2332400901493" lon="13.851293475671845"><ele>826.1666666666666</ele><time>2026-04-23T11:58:35Z</time></trkpt><trkpt lat="42.233179456214955" lon="13.851328525018074"><ele>825.0</ele><time>2026-04-23T11:58:36Z</time></trkpt><trkpt lat="42.233145168798636" lon="13.851418503812623"><ele>825.0</ele><time>2026-04-23T11:58:37Z</time></trkpt><trkpt lat="42.23316497049052" lon="13.851521280165962"><ele>825.0</ele><time>2026-04-23T11:58:38Z</time></trkpt><trkpt lat="42.233200089954266" lon="13.851609941255932"><ele>825.0</ele><time>2026-04-23T11:58:39Z</time></trkpt><trkpt lat="42.2332623997047" lon="13.851686247466576"><ele>825.0</ele><time>2026-04-23T11:58:40Z</time></trkpt><trkpt lat="42.23334808764793" lon="13.851728905727564"><ele>825.0</ele><time>2026-04-23T11:58:41Z</time></trkpt><trkpt lat="42.23344093877222" lon="13.851773755497307"><ele>825.0</ele><time>2026-04-23T11:58:42Z</time></trkpt><trkpt lat="42.23352003197359" lon="13.851850551365967"><ele>821.2</ele><time>2026-04-23T11:58:43Z</time></trkpt><trkpt lat="42.2335766785722" lon="13.851940295509124"><ele>817.4</ele><time>2026-04-23T11:58:44Z</time></trkpt><trkpt lat="42.233638470204696" lon="13.852029495353607"><ele>813.5999999999999</ele><time>2026-04-23T11:58:45Z</time></trkpt><trkpt lat="42.233716956109994" lon="13.852088234132667"><ele>809.8</ele><time>2026-04-23T11:58:46Z</time></trkpt><trkpt lat="42.233802213369515" lon="13.852136392680151"><ele>806.0</ele><time>2026-04-23T11:58:47Z</time></trkpt><trkpt lat="42.23389500183744" lon="13.852175997958902"><ele>806.5999999999999</ele><time>2026-04-23T11:58:48Z</time></trkpt><trkpt lat="42.23400573512801" lon="13.852222139313978"><ele>807.2</ele><time>2026-04-23T11:58:49Z</time></trkpt><trkpt lat="42.23411003913586" lon="13.852231164451872"><ele>807.8</ele><time>2026-04-23T11:58:50Z</time></trkpt><trkpt lat="42.23422074963241" lon="13.852238933115109"><ele>808.4000000000001</ele><time>2026-04-23T11:58:51Z</time></trkpt><trkpt lat="42.23433299923138" lon="13.852246668098442"><ele>809.0</ele><time>2026-04-23T11:58:52Z</time></trkpt><trkpt lat="42.23444519367389" lon="13.852260212746161"><ele>809.0</ele><time>2026-04-23T11:58:53Z</time></trkpt><trkpt lat="42.234560331826984" lon="13.852282893750555"><ele>809.0</ele><time>2026-04-23T11:58:54Z</time></trkpt><trkpt lat="42.23467217449662" lon="13.852324064910187"><ele>809.0</ele><time>2026-04-23T11:58:55Z</time></trkpt><trkpt lat="42.23477756243687" lon="13.852372644323282"><ele>809.0</ele><time>2026-04-23T11:58:56Z</time></trkpt><trkpt lat="42.234880282744975" lon="13.852425741925567"><ele>808.0</ele><time>2026-04-23T11:58:57Z</time></trkpt><trkpt lat="42.23497478974537" lon="13.852458555408793"><ele>807.0</ele><time>2026-04-23T11:58:58Z</time></trkpt><trkpt lat="42.235078478412184" lon="13.852478222450687"><ele>806.0</ele><time>2026-04-23T11:58:59Z</time></trkpt><trkpt lat="42.235170882601196" lon="13.852463342243166"><ele>805.0</ele><time>2026-04-23T11:59:00Z</time></trkpt><trkpt lat="42.235273816408096" lon="13.852436905127886"><ele>804.0</ele><time>2026-04-23T11:59:01Z</time></trkpt><trkpt lat="42.23537045875377" lon="13.852409113760334"><ele>804.0</ele><time>2026-04-23T11:59:02Z</time></trkpt><trkpt lat="42.2354691445725" lon="13.852396855368418"><ele>804.0</ele><time>2026-04-23T11:59:03Z</time></trkpt><trkpt lat="42.23555977666817" lon="13.852409695454766"><ele>804.0</ele><time>2026-04-23T11:59:04Z</time></trkpt><trkpt lat="42.235643691242984" lon="13.852455067806043"><ele>804.0</ele><time>2026-04-23T11:59:05Z</time></trkpt><trkpt lat="42.23570105974895" lon="13.85252453909069"><ele>804.0</ele><time>2026-04-23T11:59:06Z</time></trkpt><trkpt lat="42.235733967356914" lon="13.85261330946404"><ele>804.0</ele><time>2026-04-23T11:59:07Z</time></trkpt><trkpt lat="42.23574076445098" lon="13.852716421295058"><ele>801.6666666666666</ele><time>2026-04-23T11:59:08Z</time></trkpt><trkpt lat="42.23572380824083" lon="13.852816926352128"><ele>799.3333333333333</ele><time>2026-04-23T11:59:09Z</time></trkpt><trkpt lat="42.235681384856996" lon="13.852905367460242"><ele>797.0</ele><time>2026-04-23T11:59:10Z</time></trkpt><trkpt lat="42.23562582551024" lon="13.852981776576552"><ele>794.6666666666666</ele><time>2026-04-23T11:59:11Z</time></trkpt><trkpt lat="42.23556238381478" lon="13.853024868562821"><ele>792.3333333333333</ele><time>2026-04-23T11:59:12Z</time></trkpt><trkpt lat="42.23548492253286" lon="13.852981566714254"><ele>790.0</ele><time>2026-04-23T11:59:13Z</time></trkpt><trkpt lat="42.23541187211878" lon="13.852955206711332"><ele>788.4</ele><time>2026-04-23T11:59:14Z</time></trkpt><trkpt lat="42.23531082872399" lon="13.85293727849035"><ele>786.8</ele><time>2026-04-23T11:59:15Z</time></trkpt><trkpt lat="42.235207447427584" lon="13.852938173541071"><ele>785.2</ele><time>2026-04-23T11:59:16Z</time></trkpt><trkpt lat="42.23510142898369" lon="13.852987832405123"><ele>783.6</ele><time>2026-04-23T11:59:17Z</time></trkpt><trkpt lat="42.23500317859306" lon="13.853044211814233"><ele>782.0</ele><time>2026-04-23T11:59:18Z</time></trkpt><trkpt lat="42.23490462628669" lon="13.853097280577602"><ele>782.75</ele><time>2026-04-23T11:59:19Z</time></trkpt><trkpt lat="42.234799803934514" lon="13.853153426366974"><ele>783.5</ele><time>2026-04-23T11:59:20Z</time></trkpt><trkpt lat="42.234691894328286" lon="13.853229302753101"><ele>784.25</ele><time>2026-04-23T11:59:21Z</time></trkpt><trkpt lat="42.234586450240265" lon="13.853311319452649"><ele>785.0</ele><time>2026-04-23T11:59:22Z</time></trkpt><trkpt lat="42.23448749879028" lon="13.853387976729092"><ele>780.4</ele><time>2026-04-23T11:59:23Z</time></trkpt><trkpt lat="42.234386147515806" lon="13.8534652138928"><ele>775.8</ele><time>2026-04-23T11:59:24Z</time></trkpt><trkpt lat="42.234285381871416" lon="13.85353657616574"><ele>771.2</ele><time>2026-04-23T11:59:25Z</time></trkpt><trkpt lat="42.23418479038257" lon="13.853593465588313"><ele>766.6</ele><time>2026-04-23T11:59:26Z</time></trkpt><trkpt lat="42.234093072870756" lon="13.853647251916751"><ele>762.0</ele><time>2026-04-23T11:59:27Z</time></trkpt><trkpt lat="42.23402812324001" lon="13.853699316907093"><ele>762.0</ele><time>2026-04-23T11:59:28Z</time></trkpt><trkpt lat="42.233998998809746" lon="13.853836969343648"><ele>762.0</ele><time>2026-04-23T11:59:30Z</time></trkpt><trkpt lat="42.234065277614896" lon="13.853938965558887"><ele>762.0</ele><time>2026-04-23T11:59:32Z</time></trkpt><trkpt lat="42.2341979880958" lon="13.853929169661077"><ele>762.0</ele><time>2026-04-23T11:59:34Z</time></trkpt><trkpt lat="42.23427662496452" lon="13.853890664913989"><ele>762.0</ele><time>2026-04-23T11:59:35Z</time></trkpt><trkpt lat="42.234363660866954" lon="13.853840380597793"><ele>762.0</ele><time>2026-04-23T11:59:36Z</time></trkpt><trkpt lat="42.23445124472684" lon="13.85381061024143"><ele>762.0</ele><time>2026-04-23T11:59:37Z</time></trkpt><trkpt lat="42.2345286717794" lon="13.853815022902866"><ele>762.0</ele><time>2026-04-23T11:59:38Z</time></trkpt><trkpt lat="42.23459933103913" lon="13.853861164101906"><ele>762.0</ele><time>2026-04-23T11:59:39Z</time></trkpt><trkpt lat="42.23465331196368" lon="13.853942715941255"><ele>762.0</ele><time>2026-04-23T11:59:40Z</time></trkpt><trkpt lat="42.234683047977306" lon="13.854043534999724"><ele>762.0</ele><time>2026-04-23T11:59:41Z</time></trkpt><trkpt lat="42.23471503773944" lon="13.854171775918221"><ele>759.6</ele><time>2026-04-23T11:59:42Z</time></trkpt><trkpt lat="42.2347403945781" lon="13.854299187668458"><ele>757.2</ele><time>2026-04-23T11:59:43Z</time></trkpt><trkpt lat="42.234758810303184" lon="13.854434670690203"><ele>754.8</ele><time>2026-04-23T11:59:44Z</time></trkpt><trkpt lat="42.23477167392878" lon="13.854573911449965"><ele>752.4</ele><time>2026-04-23T11:59:45Z</time></trkpt><trkpt lat="42.23477308866243" lon="13.854712433343396"><ele>750.0</ele><time>2026-04-23T11:59:46Z</time></trkpt><trkpt lat="42.2347723593405" lon="13.8548613441232"><ele>750.0</ele><time>2026-04-23T11:59:47Z</time></trkpt><trkpt lat="42.23477414802738" lon="13.855000987515325"><ele>750.0</ele><time>2026-04-23T11:59:48Z</time></trkpt><trkpt lat="42.23477367245244" lon="13.85513593244956"><ele>750.0</ele><time>2026-04-23T11:59:49Z</time></trkpt><trkpt lat="42.234767596785424" lon="13.855273151622082"><ele>750.0</ele><time>2026-04-23T11:59:50Z</time></trkpt><trkpt lat="42.234765020455924" lon="13.855401513467957"><ele>750.0</ele><time>2026-04-23T11:59:51Z</time></trkpt><trkpt lat="42.23476231106268" lon="13.855535343481305"><ele>749.0</ele><time>2026-04-23T11:59:52Z</time></trkpt><trkpt lat="42.23478508721409" lon="13.855648486138387"><ele>748.0</ele><time>2026-04-23T11:59:53Z</time></trkpt><trkpt lat="42.23482587514753" lon="13.855756046635882"><ele>747.0</ele><time>2026-04-23T11:59:54Z</time></trkpt><trkpt lat="42.23488566368406" lon="13.855864031020625"><ele>746.0</ele><time>2026-04-23T11:59:55Z</time></trkpt><trkpt lat="42.23497448139636" lon="13.855973208238492"><ele>745.0</ele><time>2026-04-23T11:59:56Z</time></trkpt><trkpt lat="42.23507235407128" lon="13.856073710535547"><ele>741.75</ele><time>2026-04-23T11:59:57Z</time></trkpt><trkpt lat="42.23516130235491" lon="13.856190822631723"><ele>738.5</ele><time>2026-04-23T11:59:58Z</time></trkpt><trkpt lat="42.23523632348792" lon="13.856316868445745"><ele>735.25</ele><time>2026-04-23T11:59:59Z</time></trkpt><trkpt lat="42.23529981094806" lon="13.856444735804422"><ele>732.0</ele><time>2026-04-23T12:00:00Z</time></trkpt><trkpt lat="42.235345861230826" lon="13.85657569792576"><ele>732.0</ele><time>2026-04-23T12:00:01Z</time></trkpt><trkpt lat="42.235354338297384" lon="13.856716994778093"><ele>732.0</ele><time>2026-04-23T12:00:02Z</time></trkpt><trkpt lat="42.23535828618325" lon="13.856851850006066"><ele>732.0</ele><time>2026-04-23T12:00:03Z</time></trkpt><trkpt lat="42.23538481777629" lon="13.856988428501328"><ele>732.0</ele><time>2026-04-23T12:00:04Z</time></trkpt><trkpt lat="42.23537869322127" lon="13.85713266250048"><ele>732.0</ele><time>2026-04-23T12:00:05Z</time></trkpt><trkpt lat="42.235385523544785" lon="13.857260703830004"><ele>730.4000000000001</ele><time>2026-04-23T12:00:06Z</time></trkpt><trkpt lat="42.23539846961705" lon="13.857397754474308"><ele>728.8000000000001</ele><time>2026-04-23T12:00:07Z</time></trkpt><trkpt lat="42.235407957679406" lon="13.85752032926546"><ele>727.2</ele><time>2026-04-23T12:00:08Z</time></trkpt><trkpt lat="42.23540141447129" lon="13.857669476808635"><ele>725.6</ele><time>2026-04-23T12:00:09Z</time></trkpt><trkpt lat="42.23537696209737" lon="13.857794688367841"><ele>724.0</ele><time>2026-04-23T12:00:10Z</time></trkpt><trkpt lat="42.23532476345095" lon="13.857904764760033"><ele>724.0</ele><time>2026-04-23T12:00:11Z</time></trkpt><trkpt lat="42.235283998564405" lon="13.857996222250407"><ele>724.0</ele><time>2026-04-23T12:00:12Z</time></trkpt><trkpt lat="42.23523423905066" lon="13.858055157593656"><ele>724.0</ele><time>2026-04-23T12:00:13Z</time></trkpt><trkpt lat="42.235162918570296" lon="13.858095407532153"><ele>724.0</ele><time>2026-04-23T12:00:14Z</time></trkpt><trkpt lat="42.23508311630573" lon="13.858111886768972"><ele>724.0</ele><time>2026-04-23T12:00:15Z</time></trkpt><trkpt lat="42.23500221501154" lon="13.858153661139141"><ele>724.0</ele><time>2026-04-23T12:00:16Z</time></trkpt><trkpt lat="42.23491995171998" lon="13.858224551298488"><ele>724.0</ele><time>2026-04-23T12:00:17Z</time></trkpt><trkpt lat="42.234853487251264" lon="13.858302800749728"><ele>724.0</ele><time>2026-04-23T12:00:18Z</time></trkpt><trkpt lat="42.23482366123868" lon="13.858425261571675"><ele>724.0</ele><time>2026-04-23T12:00:19Z</time></trkpt><trkpt lat="42.234788072700155" lon="13.858549058410462"><ele>724.0</ele><time>2026-04-23T12:00:20Z</time></trkpt><trkpt lat="42.234763415790376" lon="13.858681578579764"><ele>724.0</ele><time>2026-04-23T12:00:21Z</time></trkpt><trkpt lat="42.23473551372806" lon="13.8588169540425"><ele>715.25</ele><time>2026-04-23T12:00:22Z</time></trkpt><trkpt lat="42.23469430672164" lon="13.858963009716412"><ele>706.5</ele><time>2026-04-23T12:00:23Z</time></trkpt><trkpt lat="42.23463986454861" lon="13.859097219573776"><ele>697.75</ele><time>2026-04-23T12:00:24Z</time></trkpt><trkpt lat="42.234595500727885" lon="13.859240461313913"><ele>689.0</ele><time>2026-04-23T12:00:25Z</time></trkpt><trkpt lat="42.23456157979446" lon="13.859382705501345"><ele>689.0</ele><time>2026-04-23T12:00:26Z</time></trkpt><trkpt lat="42.234523889325395" lon="13.85951896080861"><ele>689.0</ele><time>2026-04-23T12:00:27Z</time></trkpt><trkpt lat="42.23448244794976" lon="13.859654240201294"><ele>689.0</ele><time>2026-04-23T12:00:28Z</time></trkpt><trkpt lat="42.234440324066064" lon="13.859779501473275"><ele>689.0</ele><time>2026-04-23T12:00:29Z</time></trkpt><trkpt lat="42.23442020001521" lon="13.85991989550426"><ele>689.0</ele><time>2026-04-23T12:00:30Z</time></trkpt><trkpt lat="42.23440002185834" lon="13.860061316340484"><ele>687.8000000000001</ele><time>2026-04-23T12:00:31Z</time></trkpt><trkpt lat="42.234387356183326" lon="13.860206158119464"><ele>686.6</ele><time>2026-04-23T12:00:32Z</time></trkpt><trkpt lat="42.234385580105524" lon="13.860353983045858"><ele>685.4</ele><time>2026-04-23T12:00:33Z</time></trkpt><trkpt lat="42.23439375515294" lon="13.86050497002846"><ele>684.2</ele><time>2026-04-23T12:00:34Z</time></trkpt><trkpt lat="42.234412702783615" lon="13.86063296876447"><ele>683.0</ele><time>2026-04-23T12:00:35Z</time></trkpt><trkpt lat="42.23443962239529" lon="13.860743676551804"><ele>683.0</ele><time>2026-04-23T12:00:36Z</time></trkpt><trkpt lat="42.234475984235864" lon="13.860823396391071"><ele>683.0</ele><time>2026-04-23T12:00:37Z</time></trkpt><trkpt lat="42.23454588303668" lon="13.860928184132238"><ele>683.0</ele><time>2026-04-23T12:00:39Z</time></trkpt><trkpt lat="42.23449940510016" lon="13.861021191063253"><ele>683.0</ele><time>2026-04-23T12:00:41Z</time></trkpt><trkpt lat="42.23443536088494" lon="13.860997880506115"><ele>683.0</ele><time>2026-04-23T12:00:42Z</time></trkpt><trkpt lat="42.234372507300336" lon="13.860951383732719"><ele>683.0</ele><time>2026-04-23T12:00:43Z</time></trkpt><trkpt lat="42.23431838207104" lon="13.860892159550293"><ele>683.0</ele><time>2026-04-23T12:00:44Z</time></trkpt><trkpt lat="42.23427408271671" lon="13.860807334806214"><ele>683.0</ele><time>2026-04-23T12:00:45Z</time></trkpt><trkpt lat="42.23423267865643" lon="13.860700004677243"><ele>683.0</ele><time>2026-04-23T12:00:46Z</time></trkpt><trkpt lat="42.23418826211273" lon="13.86058392200233"><ele>683.0</ele><time>2026-04-23T12:00:47Z</time></trkpt><trkpt lat="42.23414069624962" lon="13.860451065629048"><ele>683.0</ele><time>2026-04-23T12:00:48Z</time></trkpt><trkpt lat="42.23408415689528" lon="13.860306242401027"><ele>683.0</ele><time>2026-04-23T12:00:49Z</time></trkpt><trkpt lat="42.23403077545229" lon="13.860180371737751"><ele>683.0</ele><time>2026-04-23T12:00:50Z</time></trkpt><trkpt lat="42.23398830654286" lon="13.860063530540966"><ele>683.0</ele><time>2026-04-23T12:00:51Z</time></trkpt><trkpt lat="42.2339672728812" lon="13.859953834839851"><ele>683.0</ele><time>2026-04-23T12:00:52Z</time></trkpt><trkpt lat="42.233981465513764" lon="13.859859299662796"><ele>683.0</ele><time>2026-04-23T12:00:53Z</time></trkpt><trkpt lat="42.23400467960607" lon="13.859759941920737"><ele>683.0</ele><time>2026-04-23T12:00:54Z</time></trkpt><trkpt lat="42.23403198424907" lon="13.859644725974796"><ele>683.8</ele><time>2026-04-23T12:00:55Z</time></trkpt><trkpt lat="42.23409075777811" lon="13.859546566693004"><ele>684.5999999999999</ele><time>2026-04-23T12:00:56Z</time></trkpt><trkpt lat="42.2341730802724" lon="13.859461575126872"><ele>685.4000000000001</ele><time>2026-04-23T12:00:57Z</time></trkpt><trkpt lat="42.23423940976654" lon="13.859365831469308"><ele>686.2</ele><time>2026-04-23T12:00:58Z</time></trkpt><trkpt lat="42.23430206695943" lon="13.859254687843375"><ele>687.0</ele><time>2026-04-23T12:00:59Z</time></trkpt><trkpt lat="42.234309257876994" lon="13.859115675779051"><ele>687.0</ele><time>2026-04-23T12:01:00Z</time></trkpt><trkpt lat="42.23430977510104" lon="13.85898518781442"><ele>687.0</ele><time>2026-04-23T12:01:01Z</time></trkpt><trkpt lat="42.2342971084569" lon="13.858847573740395"><ele>687.0</ele><time>2026-04-23T12:01:02Z</time></trkpt><trkpt lat="42.23426694302406" lon="13.858703685503192"><ele>687.0</ele><time>2026-04-23T12:01:03Z</time></trkpt><trkpt lat="42.234221089849726" lon="13.858570527097955"><ele>687.0</ele><time>2026-04-23T12:01:04Z</time></trkpt><trkpt lat="42.23419734117937" lon="13.85844717274549"><ele>687.3333333333334</ele><time>2026-04-23T12:01:05Z</time></trkpt><trkpt lat="42.23419847701804" lon="13.858326344759647"><ele>687.6666666666666</ele><time>2026-04-23T12:01:06Z</time></trkpt><trkpt lat="42.23417233057725" lon="13.858237038118203"><ele>688.0</ele><time>2026-04-23T12:01:07Z</time></trkpt><trkpt lat="42.234116281754446" lon="13.85816878357269"><ele>688.3333333333333</ele><time>2026-04-23T12:01:08Z</time></trkpt><trkpt lat="42.234041989497776" lon="13.858154227957883"><ele>688.6666666666666</ele><time>2026-04-23T12:01:09Z</time></trkpt><trkpt lat="42.23397247546686" lon="13.858191514173894"><ele>689.0</ele><time>2026-04-23T12:01:10Z</time></trkpt><trkpt lat="42.23392360797662" lon="13.858278159176768"><ele>688.6666666666666</ele><time>2026-04-23T12:01:11Z</time></trkpt><trkpt lat="42.23395324722275" lon="13.858411015427285"><ele>688.3333333333333</ele><time>2026-04-23T12:01:12Z</time></trkpt><trkpt lat="42.23396798556288" lon="13.858515654569747"><ele>688.0</ele><time>2026-04-23T12:01:13Z</time></trkpt><trkpt lat="42.233973434794" lon="13.858631831300263"><ele>687.6666666666666</ele><time>2026-04-23T12:01:14Z</time></trkpt><trkpt lat="42.23397009397562" lon="13.858750172022376"><ele>687.3333333333334</ele><time>2026-04-23T12:01:15Z</time></trkpt><trkpt lat="42.233926142280396" lon="13.858856842780192"><ele>687.0</ele><time>2026-04-23T12:01:16Z</time></trkpt><trkpt lat="42.23387948825652" lon="13.858970910754206"><ele>679.5</ele><time>2026-04-23T12:01:17Z</time></trkpt><trkpt lat="42.23382145330014" lon="13.859115533033467"><ele>672.0</ele><time>2026-04-23T12:01:18Z</time></trkpt><trkpt lat="42.23375888617288" lon="13.85925665599721"><ele>664.5</ele><time>2026-04-23T12:01:19Z</time></trkpt><trkpt lat="42.23369018149098" lon="13.859381703429023"><ele>657.0</ele><time>2026-04-23T12:01:20Z</time></trkpt><trkpt lat="42.23361861569194" lon="13.859502727523559"><ele>656.2</ele><time>2026-04-23T12:01:21Z</time></trkpt><trkpt lat="42.2335666353178" lon="13.85962940215418"><ele>655.4000000000001</ele><time>2026-04-23T12:01:22Z</time></trkpt><trkpt lat="42.23355193487122" lon="13.859767041902181"><ele>654.5999999999999</ele><time>2026-04-23T12:01:23Z</time></trkpt><trkpt lat="42.23354256627042" lon="13.859874617718956"><ele>653.8</ele><time>2026-04-23T12:01:24Z</time></trkpt><trkpt lat="42.23355151666505" lon="13.859999232808018"><ele>653.0</ele><time>2026-04-23T12:01:25Z</time></trkpt><trkpt lat="42.23357396814761" lon="13.860133194519811"><ele>652.5</ele><time>2026-04-23T12:01:26Z</time></trkpt><trkpt lat="42.23356703476187" lon="13.860281142015909"><ele>652.0</ele><time>2026-04-23T12:01:27Z</time></trkpt><trkpt lat="42.233553042767554" lon="13.860446803312843"><ele>651.5</ele><time>2026-04-23T12:01:28Z</time></trkpt><trkpt lat="42.23353006520461" lon="13.86061264954626"><ele>651.0</ele><time>2026-04-23T12:01:29Z</time></trkpt><trkpt lat="42.233512749562195" lon="13.860769129178"><ele>651.0</ele><time>2026-04-23T12:01:30Z</time></trkpt><trkpt lat="42.23348204977458" lon="13.860910804210366"><ele>651.0</ele><time>2026-04-23T12:01:31Z</time></trkpt><trkpt lat="42.23344114715559" lon="13.861027880870088"><ele>651.0</ele><time>2026-04-23T12:01:32Z</time></trkpt><trkpt lat="42.233354830433996" lon="13.861096037328847"><ele>651.0</ele><time>2026-04-23T12:01:33Z</time></trkpt><trkpt lat="42.23326642057078" lon="13.861166633268239"><ele>651.0</ele><time>2026-04-23T12:01:34Z</time></trkpt><trkpt lat="42.23318975818229" lon="13.861249779602083"><ele>649.8333333333334</ele><time>2026-04-23T12:01:35Z</time></trkpt><trkpt lat="42.23312827226699" lon="13.861329473751544"><ele>648.6666666666666</ele><time>2026-04-23T12:01:36Z</time></trkpt><trkpt lat="42.23311235144283" lon="13.8614464148372"><ele>647.5</ele><time>2026-04-23T12:01:37Z</time></trkpt><trkpt lat="42.23310899596195" lon="13.861547405115232"><ele>646.3333333333333</ele><time>2026-04-23T12:01:38Z</time></trkpt><trkpt lat="42.23313457012927" lon="13.861656678811663"><ele>645.1666666666666</ele><time>2026-04-23T12:01:39Z</time></trkpt><trkpt lat="42.23318489605169" lon="13.861750629970183"><ele>644.0</ele><time>2026-04-23T12:01:40Z</time></trkpt><trkpt lat="42.23325071990489" lon="13.861848497263454"><ele>639.2</ele><time>2026-04-23T12:01:41Z</time></trkpt><trkpt lat="42.23332634242613" lon="13.861951249804683"><ele>634.4000000000001</ele><time>2026-04-23T12:01:42Z</time></trkpt><trkpt lat="42.23341305357297" lon="13.862036536146316"><ele>629.6</ele><time>2026-04-23T12:01:43Z</time></trkpt><trkpt lat="42.23351355915991" lon="13.862099732471593"><ele>624.8</ele><time>2026-04-23T12:01:44Z</time></trkpt><trkpt lat="42.23358991470486" lon="13.86218201540678"><ele>620.0</ele><time>2026-04-23T12:01:45Z</time></trkpt><trkpt lat="42.233678672369145" lon="13.862255512511023"><ele>620.0</ele><time>2026-04-23T12:01:46Z</time></trkpt><trkpt lat="42.23377788184146" lon="13.862309808643882"><ele>620.0</ele><time>2026-04-23T12:01:47Z</time></trkpt><trkpt lat="42.23388371571652" lon="13.862371132144473"><ele>620.0</ele><time>2026-04-23T12:01:48Z</time></trkpt><trkpt lat="42.23398305576334" lon="13.862438251574202"><ele>620.0</ele><time>2026-04-23T12:01:49Z</time></trkpt><trkpt lat="42.234063158840954" lon="13.86251602111169"><ele>620.0</ele><time>2026-04-23T12:01:50Z</time></trkpt><trkpt lat="42.23412401117046" lon="13.862606477103178"><ele>619.6</ele><time>2026-04-23T12:01:51Z</time></trkpt><trkpt lat="42.23417228137679" lon="13.862714506548945"><ele>619.2</ele><time>2026-04-23T12:01:52Z</time></trkpt><trkpt lat="42.23422274770882" lon="13.862841206089804"><ele>618.8</ele><time>2026-04-23T12:01:53Z</time></trkpt><trkpt lat="42.23428339415652" lon="13.862975911018111"><ele>618.4</ele><time>2026-04-23T12:01:54Z</time></trkpt><trkpt lat="42.23435522381399" lon="13.863108486845146"><ele>618.0</ele><time>2026-04-23T12:01:55Z</time></trkpt><trkpt lat="42.23443264055241" lon="13.863238593669553"><ele>618.0</ele><time>2026-04-23T12:01:56Z</time></trkpt><trkpt lat="42.23450765032321" lon="13.863369440501293"><ele>618.0</ele><time>2026-04-23T12:01:57Z</time></trkpt><trkpt lat="42.23457842413118" lon="13.86350245901904"><ele>618.0</ele><time>2026-04-23T12:01:58Z</time></trkpt><trkpt lat="42.234642154390876" lon="13.863632272899736"><ele>618.0</ele><time>2026-04-23T12:01:59Z</time></trkpt><trkpt lat="42.23471325929595" lon="13.86375422235094"><ele>618.6666666666666</ele><time>2026-04-23T12:02:00Z</time></trkpt><trkpt lat="42.234782490663925" lon="13.863867151132844"><ele>619.3333333333334</ele><time>2026-04-23T12:02:01Z</time></trkpt><trkpt lat="42.23482836510927" lon="13.863958406231445"><ele>620.0</ele><time>2026-04-23T12:02:02Z</time></trkpt><trkpt lat="42.23485227599271" lon="13.864040865067867"><ele>620.6666666666667</ele><time>2026-04-23T12:02:03Z</time></trkpt><trkpt lat="42.234843254332375" lon="13.864127480075203"><ele>621.3333333333334</ele><time>2026-04-23T12:02:04Z</time></trkpt><trkpt lat="42.23479144423065" lon="13.864230653793372"><ele>622.0</ele><time>2026-04-23T12:02:05Z</time></trkpt><trkpt lat="42.23477508965607" lon="13.864363830501206"><ele>620.0</ele><time>2026-04-23T12:02:06Z</time></trkpt><trkpt lat="42.23471521688981" lon="13.864585528243417"><ele>618.0</ele><time>2026-04-23T12:02:08Z</time></trkpt><trkpt lat="42.23470669785991" lon="13.864687162634407"><ele>616.0</ele><time>2026-04-23T12:02:09Z</time></trkpt><trkpt lat="42.23471836909023" lon="13.864800734803318"><ele>614.0</ele><time>2026-04-23T12:02:10Z</time></trkpt><trkpt lat="42.23475399955188" lon="13.864902092231839"><ele>612.0</ele><time>2026-04-23T12:02:11Z</time></trkpt><trkpt lat="42.2348093898038" lon="13.865010090329237"><ele>607.8000000000001</ele><time>2026-04-23T12:02:12Z</time></trkpt><trkpt lat="42.234883698395834" lon="13.86512760343075"><ele>603.6</ele><time>2026-04-23T12:02:13Z</time></trkpt><trkpt lat="42.23496186015542" lon="13.865240227238086"><ele>599.4000000000001</ele><time>2026-04-23T12:02:14Z</time></trkpt><trkpt lat="42.23503500617637" lon="13.865348881951649"><ele>595.2</ele><time>2026-04-23T12:02:15Z</time></trkpt><trkpt lat="42.23510265114129" lon="13.865450496346236"><ele>591.0</ele><time>2026-04-23T12:02:16Z</time></trkpt><trkpt lat="42.23515984981816" lon="13.865530700267147"><ele>591.0</ele><time>2026-04-23T12:02:17Z</time></trkpt><trkpt lat="42.23517925849827" lon="13.865723766279949"><ele>591.0</ele><time>2026-04-23T12:02:20Z</time></trkpt><trkpt lat="42.23507161765532" lon="13.86568438100098"><ele>591.0</ele><time>2026-04-23T12:02:22Z</time></trkpt><trkpt lat="42.234993014272" lon="13.865549974234872"><ele>591.0</ele><time>2026-04-23T12:02:24Z</time></trkpt><trkpt lat="42.23490825155553" lon="13.865491894214856"><ele>591.0</ele><time>2026-04-23T12:02:26Z</time></trkpt><trkpt lat="42.234854033028824" lon="13.865598263568618"><ele>591.0</ele><time>2026-04-23T12:02:28Z</time></trkpt><trkpt lat="42.23493025422573" lon="13.865749971938692"><ele>591.0</ele><time>2026-04-23T12:02:30Z</time></trkpt><trkpt lat="42.23499475118241" lon="13.865844624704232"><ele>591.0</ele><time>2026-04-23T12:02:31Z</time></trkpt><trkpt lat="42.23503971887745" lon="13.865938927445741"><ele>591.0</ele><time>2026-04-23T12:02:32Z</time></trkpt><trkpt lat="42.23507345441452" lon="13.866017392408214"><ele>588.8571428571429</ele><time>2026-04-23T12:02:33Z</time></trkpt><trkpt lat="42.235113747318564" lon="13.866084939430415"><ele>586.7142857142858</ele><time>2026-04-23T12:02:34Z</time></trkpt><trkpt lat="42.235155468242375" lon="13.866150237746982"><ele>584.5714285714287</ele><time>2026-04-23T12:02:35Z</time></trkpt><trkpt lat="42.23523688068773" lon="13.866279706361537"><ele>582.4285714285714</ele><time>2026-04-23T12:02:37Z</time></trkpt><trkpt lat="42.235275337763625" lon="13.866347414822792"><ele>580.2857142857143</ele><time>2026-04-23T12:02:38Z</time></trkpt><trkpt lat="42.235319620879174" lon="13.866408424971084"><ele>578.1428571428572</ele><time>2026-04-23T12:02:39Z</time></trkpt><trkpt lat="42.23537871370811" lon="13.8664514853029"><ele>576.0</ele><time>2026-04-23T12:02:40Z</time></trkpt><trkpt lat="42.23545463598022" lon="13.866458341600584"><ele>576.0</ele><time>2026-04-23T12:02:41Z</time></trkpt><trkpt lat="42.2355336829184" lon="13.866440497907428"><ele>576.0</ele><time>2026-04-23T12:02:42Z</time></trkpt><trkpt lat="42.23559521101609" lon="13.866514162167775"><ele>576.0</ele><time>2026-04-23T12:02:44Z</time></trkpt><trkpt lat="42.23552809890893" lon="13.866569087349285"><ele>576.0</ele><time>2026-04-23T12:02:46Z</time></trkpt><trkpt lat="42.235414395629974" lon="13.866649513840759"><ele>576.0</ele><time>2026-04-23T12:02:48Z</time></trkpt><trkpt lat="42.23534593589351" lon="13.866775820688542"><ele>572.2</ele><time>2026-04-23T12:02:50Z</time></trkpt><trkpt lat="42.23538260536626" lon="13.866874916581219"><ele>568.4000000000001</ele><time>2026-04-23T12:02:51Z</time></trkpt><trkpt lat="42.23545497316735" lon="13.866894660050558"><ele>564.6</ele><time>2026-04-23T12:02:52Z</time></trkpt><trkpt lat="42.235528973897594" lon="13.866890612480656"><ele>560.8000000000001</ele><time>2026-04-23T12:02:53Z</time></trkpt><trkpt lat="42.23568465180152" lon="13.86685994280539"><ele>557.0</ele><time>2026-04-23T12:02:55Z</time></trkpt><trkpt lat="42.23579083110833" lon="13.866811801317901"><ele>557.0</ele><time>2026-04-23T12:02:56Z</time></trkpt><trkpt lat="42.23588842375653" lon="13.866773481455597"><ele>557.0</ele><time>2026-04-23T12:02:57Z</time></trkpt><trkpt lat="42.2359870818671" lon="13.866764367172939"><ele>557.0</ele><time>2026-04-23T12:02:58Z</time></trkpt><trkpt lat="42.23608535253332" lon="13.86678639369183"><ele>557.0</ele><time>2026-04-23T12:02:59Z</time></trkpt><trkpt lat="42.23616346615188" lon="13.866861663085428"><ele>557.0</ele><time>2026-04-23T12:03:00Z</time></trkpt><trkpt lat="42.23624548023552" lon="13.86694763626586"><ele>557.0</ele><time>2026-04-23T12:03:01Z</time></trkpt><trkpt lat="42.23629131683416" lon="13.867107137631828"><ele>557.0</ele><time>2026-04-23T12:03:02Z</time></trkpt><trkpt lat="42.236353272094206" lon="13.867265351642933"><ele>557.0</ele><time>2026-04-23T12:03:03Z</time></trkpt><trkpt lat="42.2364015026792" lon="13.867387895843924"><ele>557.0</ele><time>2026-04-23T12:03:04Z</time></trkpt><trkpt lat="42.23646356968074" lon="13.867518864652402"><ele>555.6</ele><time>2026-04-23T12:03:05Z</time></trkpt><trkpt lat="42.23652968156389" lon="13.867602353771844"><ele>554.2</ele><time>2026-04-23T12:03:06Z</time></trkpt><trkpt lat="42.2366056028735" lon="13.867675079674362"><ele>552.8</ele><time>2026-04-23T12:03:07Z</time></trkpt><trkpt lat="42.23668829167661" lon="13.867729148392183"><ele>551.4</ele><time>2026-04-23T12:03:08Z</time></trkpt><trkpt lat="42.236768356832364" lon="13.867777987699485"><ele>550.0</ele><time>2026-04-23T12:03:09Z</time></trkpt><trkpt lat="42.236849900892736" lon="13.867816584670942"><ele>550.0</ele><time>2026-04-23T12:03:10Z</time></trkpt><trkpt lat="42.23693202069153" lon="13.867855583392307"><ele>550.0</ele><time>2026-04-23T12:03:11Z</time></trkpt><trkpt lat="42.2370009348765" lon="13.867888763827455"><ele>550.0</ele><time>2026-04-23T12:03:12Z</time></trkpt><trkpt lat="42.2370685138193" lon="13.867991096488463"><ele>550.0</ele><time>2026-04-23T12:03:14Z</time></trkpt><trkpt lat="42.23698662863014" lon="13.868113899984099"><ele>550.0</ele><time>2026-04-23T12:03:16Z</time></trkpt><trkpt lat="42.23688406323977" lon="13.868109787255708"><ele>550.0</ele><time>2026-04-23T12:03:17Z</time></trkpt><trkpt lat="42.236776446509" lon="13.868165795877797"><ele>550.0</ele><time>2026-04-23T12:03:18Z</time></trkpt><trkpt lat="42.23666575205114" lon="13.868223018935712"><ele>550.0</ele><time>2026-04-23T12:03:19Z</time></trkpt><trkpt lat="42.236553822399976" lon="13.868280313073749"><ele>550.0</ele><time>2026-04-23T12:03:20Z</time></trkpt><trkpt lat="42.23645310660224" lon="13.868332507662599"><ele>547.6</ele><time>2026-04-23T12:03:21Z</time></trkpt><trkpt lat="42.23636363874651" lon="13.868368376108544"><ele>545.2</ele><time>2026-04-23T12:03:22Z</time></trkpt><trkpt lat="42.236278812609925" lon="13.86840636236861"><ele>542.8</ele><time>2026-04-23T12:03:23Z</time></trkpt><trkpt lat="42.2362009889142" lon="13.868450835064944"><ele>540.4</ele><time>2026-04-23T12:03:23.999Z</time></trkpt><trkpt lat="42.23615498222105" lon="13.868525610282004"><ele>538.0</ele><time>2026-04-23T12:03:24.999Z</time></trkpt><trkpt lat="42.23615045494993" lon="13.868689737012357"><ele>537.1999999999999</ele><time>2026-04-23T12:03:26.999Z</time></trkpt><trkpt lat="42.236217478903065" lon="13.868757119577596"><ele>536.4</ele><time>2026-04-23T12:03:27.999Z</time></trkpt><trkpt lat="42.23628961712594" lon="13.868809420825343"><ele>535.5999999999999</ele><time>2026-04-23T12:03:28.999Z</time></trkpt><trkpt lat="42.23637547087268" lon="13.868868554217146"><ele>534.8</ele><time>2026-04-23T12:03:29.999Z</time></trkpt><trkpt lat="42.23646357437153" lon="13.86893594480501"><ele>534.0</ele><time>2026-04-23T12:03:30.999Z</time></trkpt><trkpt lat="42.23655569392621" lon="13.869015261959895"><ele>534.0</ele><time>2026-04-23T12:03:31.999Z</time></trkpt><trkpt lat="42.23664610843626" lon="13.869085020328114"><ele>534.0</ele><time>2026-04-23T12:03:32.999Z</time></trkpt><trkpt lat="42.23673775766567" lon="13.869157820917234"><ele>534.0</ele><time>2026-04-23T12:03:33.999Z</time></trkpt><trkpt lat="42.23683390213974" lon="13.869218932294507"><ele>534.0</ele><time>2026-04-23T12:03:34.999Z</time></trkpt><trkpt lat="42.23693406495481" lon="13.869276978861862"><ele>534.0</ele><time>2026-04-23T12:03:35.999Z</time></trkpt><trkpt lat="42.237036676829696" lon="13.869331988631798"><ele>530.2</ele><time>2026-04-23T12:03:36.999Z</time></trkpt><trkpt lat="42.23714040658213" lon="13.869387392995563"><ele>526.4</ele><time>2026-04-23T12:03:37.999Z</time></trkpt><trkpt lat="42.2372394632099" lon="13.869437995184157"><ele>522.6</ele><time>2026-04-23T12:03:38.999Z</time></trkpt><trkpt lat="42.237339707760725" lon="13.869496327764146"><ele>518.8</ele><time>2026-04-23T12:03:39.999Z</time></trkpt><trkpt lat="42.23743053280053" lon="13.869567426382817"><ele>515.0</ele><time>2026-04-23T12:03:40.999Z</time></trkpt><trkpt lat="42.2375165645082" lon="13.869636205790075"><ele>515.0</ele><time>2026-04-23T12:03:42Z</time></trkpt><trkpt lat="42.23761539759033" lon="13.869691444267323"><ele>515.0</ele><time>2026-04-23T12:03:43Z</time></trkpt><trkpt lat="42.237717568649444" lon="13.869724365853287"><ele>515.0</ele><time>2026-04-23T12:03:44Z</time></trkpt><trkpt lat="42.23781623439872" lon="13.869755996931127"><ele>515.0</ele><time>2026-04-23T12:03:45Z</time></trkpt><trkpt lat="42.237907983471224" lon="13.869806495259716"><ele>515.0</ele><time>2026-04-23T12:03:46Z</time></trkpt><trkpt lat="42.23797180584353" lon="13.869869178936321"><ele>515.0</ele><time>2026-04-23T12:03:47Z</time></trkpt><trkpt lat="42.23800011754559" lon="13.870004485956093"><ele>515.0</ele><time>2026-04-23T12:03:49Z</time></trkpt><trkpt lat="42.237931526662976" lon="13.870102795498092"><ele>515.0</ele><time>2026-04-23T12:03:51Z</time></trkpt><trkpt lat="42.23788225474638" lon="13.87020906013399"><ele>515.0</ele><time>2026-04-23T12:03:53Z</time></trkpt><trkpt lat="42.23783216423773" lon="13.870286762810485"><ele>515.0</ele><time>2026-04-23T12:03:54Z</time></trkpt><trkpt lat="42.237774219309756" lon="13.87038219978473"><ele>512.5</ele><time>2026-04-23T12:03:55Z</time></trkpt><trkpt lat="42.2376995775487" lon="13.8704581692087"><ele>510.0</ele><time>2026-04-23T12:03:56Z</time></trkpt><trkpt lat="42.23764431570968" lon="13.87056181844714"><ele>507.5</ele><time>2026-04-23T12:03:57Z</time></trkpt><trkpt lat="42.237584182402074" lon="13.870642254028681"><ele>505.0</ele><time>2026-04-23T12:03:58Z</time></trkpt><trkpt lat="42.23753049079264" lon="13.870725097618068"><ele>502.49999999999994</ele><time>2026-04-23T12:03:59Z</time></trkpt><trkpt lat="42.237485758903865" lon="13.870807359143704"><ele>500.0</ele><time>2026-04-23T12:04:00Z</time></trkpt><trkpt lat="42.23746041071857" lon="13.870885920791556"><ele>499.99999999999994</ele><time>2026-04-23T12:04:01Z</time></trkpt><trkpt lat="42.23747522761816" lon="13.870998964728656"><ele>500.0</ele><time>2026-04-23T12:04:03Z</time></trkpt><trkpt lat="42.237536177692206" lon="13.871045048360838"><ele>500.0</ele><time>2026-04-23T12:04:05Z</time></trkpt><trkpt lat="42.23760364416821" lon="13.87103942151886"><ele>500.0</ele><time>2026-04-23T12:04:39Z</time></trkpt><trkpt lat="42.2376952961259" lon="13.870971760738822"><ele>499.99999999999994</ele><time>2026-04-23T12:04:41Z</time></trkpt><trkpt lat="42.23776933204632" lon="13.870918214989707"><ele>500.0</ele><time>2026-04-23T12:04:42Z</time></trkpt><trkpt lat="42.23783220644155" lon="13.870867362048356"><ele>499.99999999999994</ele><time>2026-04-23T12:04:43Z</time></trkpt><trkpt lat="42.23789313888944" lon="13.870818664721382"><ele>500.0</ele><time>2026-04-23T12:04:44Z</time></trkpt><trkpt lat="42.23796389692893" lon="13.870769787774"><ele>500.0</ele><time>2026-04-23T12:04:45Z</time></trkpt><trkpt lat="42.238049086091685" lon="13.870727758272668"><ele>500.0</ele><time>2026-04-23T12:04:46Z</time></trkpt><trkpt lat="42.23815008870669" lon="13.870708863963952"><ele>499.99999999999994</ele><time>2026-04-23T12:04:47Z</time></trkpt><trkpt lat="42.238239733397684" lon="13.870696552597394"><ele>500.0</ele><time>2026-04-23T12:04:48Z</time></trkpt><trkpt lat="42.238323367686206" lon="13.870686015424669"><ele>498.0</ele><time>2026-04-23T12:04:49Z</time></trkpt><trkpt lat="42.23840095027714" lon="13.870677072188878"><ele>496.0</ele><time>2026-04-23T12:04:50Z</time></trkpt><trkpt lat="42.2384663028385" lon="13.870664832223776"><ele>494.0</ele><time>2026-04-23T12:04:51Z</time></trkpt><trkpt lat="42.23856428440764" lon="13.870637505588801"><ele>492.0</ele><time>2026-04-23T12:04:53Z</time></trkpt><trkpt lat="42.23863027838235" lon="13.870639289795331"><ele>490.0</ele><time>2026-04-23T12:04:56Z</time></trkpt><trkpt lat="42.23857083041933" lon="13.870881721010178"><ele>486.8</ele><time>2026-04-23T12:05:02Z</time></trkpt><trkpt lat="42.23849581149342" lon="13.870963560696515"><ele>483.6</ele><time>2026-04-23T12:05:03Z</time></trkpt><trkpt lat="42.2384209282441" lon="13.871067916643163"><ele>480.4</ele><time>2026-04-23T12:05:04Z</time></trkpt><trkpt lat="42.2383405584253" lon="13.87118448435348"><ele>477.2</ele><time>2026-04-23T12:05:05Z</time></trkpt><trkpt lat="42.238261258840296" lon="13.871309388683729"><ele>474.0</ele><time>2026-04-23T12:05:06Z</time></trkpt><trkpt lat="42.238179609062904" lon="13.87144928611317"><ele>473.75</ele><time>2026-04-23T12:05:07Z</time></trkpt><trkpt lat="42.238102237561314" lon="13.871602218995086"><ele>473.5</ele><time>2026-04-23T12:05:08Z</time></trkpt><trkpt lat="42.23803453487722" lon="13.87175954679236"><ele>473.25</ele><time>2026-04-23T12:05:09Z</time></trkpt><trkpt lat="42.2379731882538" lon="13.871918789947069"><ele>473.0</ele><time>2026-04-23T12:05:10Z</time></trkpt><trkpt lat="42.23791512180098" lon="13.87207613444832"><ele>473.0</ele><time>2026-04-23T12:05:11Z</time></trkpt><trkpt lat="42.23786061453209" lon="13.872237135433561"><ele>473.0</ele><time>2026-04-23T12:05:12Z</time></trkpt><trkpt lat="42.23781538499959" lon="13.872401410835602"><ele>473.0</ele><time>2026-04-23T12:05:13Z</time></trkpt><trkpt lat="42.23777085926856" lon="13.872563486977578"><ele>473.0</ele><time>2026-04-23T12:05:14Z</time></trkpt><trkpt lat="42.23770827285246" lon="13.872713497189318"><ele>470.25</ele><time>2026-04-23T12:05:15Z</time></trkpt><trkpt lat="42.2376231760025" lon="13.87285159471569"><ele>467.5</ele><time>2026-04-23T12:05:16Z</time></trkpt><trkpt lat="42.237515334901545" lon="13.872967653123087"><ele>464.75</ele><time>2026-04-23T12:05:17Z</time></trkpt><trkpt lat="42.23739188423807" lon="13.873071286718393"><ele>462.0</ele><time>2026-04-23T12:05:18Z</time></trkpt><trkpt lat="42.23726097583164" lon="13.87316362575411"><ele>462.0</ele><time>2026-04-23T12:05:19Z</time></trkpt><trkpt lat="42.23712479755396" lon="13.873241930355128"><ele>462.0</ele><time>2026-04-23T12:05:20Z</time></trkpt><trkpt lat="42.236989908770354" lon="13.873308725314645"><ele>462.0</ele><time>2026-04-23T12:05:21Z</time></trkpt><trkpt lat="42.23685150488581" lon="13.873349990632406"><ele>462.0</ele><time>2026-04-23T12:05:22Z</time></trkpt><trkpt lat="42.236708340903874" lon="13.873372502421855"><ele>462.0</ele><time>2026-04-23T12:05:23Z</time></trkpt><trkpt lat="42.23656395494066" lon="13.873367075713803"><ele>462.0</ele><time>2026-04-23T12:05:24Z</time></trkpt><trkpt lat="42.23641979910683" lon="13.873337626521133"><ele>462.0</ele><time>2026-04-23T12:05:25Z</time></trkpt><trkpt lat="42.23627829803552" lon="13.873300692847925"><ele>462.0</ele><time>2026-04-23T12:05:26Z</time></trkpt><trkpt lat="42.23614515644586" lon="13.873234878622757"><ele>461.75</ele><time>2026-04-23T12:05:26.999Z</time></trkpt><trkpt lat="42.236006228234785" lon="13.873211198064949"><ele>461.5</ele><time>2026-04-23T12:05:27.999Z</time></trkpt><trkpt lat="42.235878035114936" lon="13.873171139715373"><ele>461.25</ele><time>2026-04-23T12:05:28.999Z</time></trkpt><trkpt lat="42.2357540946698" lon="13.873150551688964"><ele>461.0</ele><time>2026-04-23T12:05:29.999Z</time></trkpt><trkpt lat="42.23563881129433" lon="13.873157942987303"><ele>464.20000000000005</ele><time>2026-04-23T12:05:30.999Z</time></trkpt><trkpt lat="42.235536437581615" lon="13.87319725172301"><ele>467.40000000000003</ele><time>2026-04-23T12:05:31.999Z</time></trkpt><trkpt lat="42.23545663803952" lon="13.87327545212683"><ele>470.6</ele><time>2026-04-23T12:05:32.999Z</time></trkpt><trkpt lat="42.23540122654371" lon="13.873392305670626"><ele>473.8</ele><time>2026-04-23T12:05:33.999Z</time></trkpt><trkpt lat="42.23534963380194" lon="13.873522872108005"><ele>477.0</ele><time>2026-04-23T12:05:34.999Z</time></trkpt><trkpt lat="42.23531111891696" lon="13.873634548003537"><ele>477.8333333333333</ele><time>2026-04-23T12:05:35.999Z</time></trkpt><trkpt lat="42.23531226223218" lon="13.873742537217764"><ele>478.66666666666663</ele><time>2026-04-23T12:05:36.999Z</time></trkpt><trkpt lat="42.23535610383644" lon="13.873852764682178"><ele>479.5</ele><time>2026-04-23T12:05:37.999Z</time></trkpt><trkpt lat="42.23540337015975" lon="13.873930421890469"><ele>480.3333333333333</ele><time>2026-04-23T12:05:38.999Z</time></trkpt><trkpt lat="42.235492520999614" lon="13.873988194711176"><ele>481.16666666666663</ele><time>2026-04-23T12:05:40.999Z</time></trkpt><trkpt lat="42.2354413735204" lon="13.87391105030836"><ele>482.0</ele><time>2026-04-23T12:05:46.999Z</time></trkpt><trkpt lat="42.235476447418485" lon="13.873796918915366"><ele>481.99999999999994</ele><time>2026-04-23T12:06:47.999Z</time></trkpt><trkpt lat="42.23542921131335" lon="13.873725082221414"><ele>482.0</ele><time>2026-04-23T12:07:01.999Z</time></trkpt><trkpt lat="42.23548770937932" lon="13.873808887818225"><ele>482.0</ele><time>2026-04-23T12:23:32.999Z</time></trkpt><trkpt lat="42.235458640177825" lon="13.87373132117816"><ele>482.0</ele><time>2026-04-23T12:26:17.999Z</time></trkpt><trkpt lat="42.23550227374702" lon="13.873837445593285"><ele>481.99999999999994</ele><time>2026-04-23T12:33:41Z</time></trkpt><trkpt lat="42.23554680882735" lon="13.873933781186926"><ele>482.0</ele><time>2026-04-23T12:33:43Z</time></trkpt><trkpt lat="42.23558719029164" lon="13.87401335072359"><ele>481.99999999999994</ele><time>2026-04-23T12:33:45Z</time></trkpt><trkpt lat="42.23563100456136" lon="13.87408305295986"><ele>482.0</ele><time>2026-04-23T12:33:47Z</time></trkpt><trkpt lat="42.23567330342013" lon="13.87421684721012"><ele>482.0</ele><time>2026-04-23T12:33:49Z</time></trkpt><trkpt lat="42.2356868863224" lon="13.874313056936298"><ele>482.0</ele><time>2026-04-23T12:33:50Z</time></trkpt><trkpt lat="42.23567754555294" lon="13.874412976608896"><ele>481.99999999999994</ele><time>2026-04-23T12:33:51Z</time></trkpt><trkpt lat="42.235645621424254" lon="13.874493144421333"><ele>482.0</ele><time>2026-04-23T12:33:52Z</time></trkpt><trkpt lat="42.235590620981185" lon="13.874562491493133"><ele>479.0</ele><time>2026-04-23T12:33:53Z</time></trkpt><trkpt lat="42.235525199249956" lon="13.874639279999181"><ele>476.00000000000006</ele><time>2026-04-23T12:33:54Z</time></trkpt><trkpt lat="42.235445866591974" lon="13.874720992863972"><ele>473.00000000000006</ele><time>2026-04-23T12:33:55Z</time></trkpt><trkpt lat="42.235358649211335" lon="13.874801205483333"><ele>470.0</ele><time>2026-04-23T12:33:56Z</time></trkpt><trkpt lat="42.23526373533242" lon="13.874886941469601"><ele>467.0</ele><time>2026-04-23T12:33:57Z</time></trkpt><trkpt lat="42.235164568970916" lon="13.874971818732316"><ele>467.0</ele><time>2026-04-23T12:33:58Z</time></trkpt><trkpt lat="42.23506671513754" lon="13.875057655600045"><ele>467.0</ele><time>2026-04-23T12:33:59Z</time></trkpt><trkpt lat="42.23496647460216" lon="13.875150400725154"><ele>467.0</ele><time>2026-04-23T12:34:00Z</time></trkpt><trkpt lat="42.23486622359969" lon="13.875258552539977"><ele>467.0</ele><time>2026-04-23T12:34:01Z</time></trkpt><trkpt lat="42.234765816808995" lon="13.87538045855509"><ele>466.75</ele><time>2026-04-23T12:34:02Z</time></trkpt><trkpt lat="42.23466390489852" lon="13.875515895664986"><ele>466.5</ele><time>2026-04-23T12:34:03Z</time></trkpt><trkpt lat="42.234564375302824" lon="13.875661165347333"><ele>466.25</ele><time>2026-04-23T12:34:04Z</time></trkpt><trkpt lat="42.234467915390525" lon="13.875811222933253"><ele>466.0</ele><time>2026-04-23T12:34:05Z</time></trkpt><trkpt lat="42.2343791797192" lon="13.875962566816195"><ele>466.0</ele><time>2026-04-23T12:34:06Z</time></trkpt><trkpt lat="42.23430668221445" lon="13.876104610478684"><ele>466.0</ele><time>2026-04-23T12:34:07Z</time></trkpt><trkpt lat="42.23424681083044" lon="13.876241497708502"><ele>466.0</ele><time>2026-04-23T12:34:08Z</time></trkpt><trkpt lat="42.23419425716199" lon="13.876387731187506"><ele>466.0</ele><time>2026-04-23T12:34:09Z</time></trkpt><trkpt lat="42.23415025705512" lon="13.876548308070179"><ele>466.0</ele><time>2026-04-23T12:34:10Z</time></trkpt><trkpt lat="42.23411827149331" lon="13.876718290469222"><ele>466.0</ele><time>2026-04-23T12:34:11Z</time></trkpt><trkpt lat="42.234104331056564" lon="13.876894080866343"><ele>466.0</ele><time>2026-04-23T12:34:12Z</time></trkpt><trkpt lat="42.234094966563795" lon="13.877071220054152"><ele>466.0</ele><time>2026-04-23T12:34:13Z</time></trkpt><trkpt lat="42.234080407274334" lon="13.877255054712682"><ele>465.5</ele><time>2026-04-23T12:34:14Z</time></trkpt><trkpt lat="42.23406470798435" lon="13.877442426997709"><ele>465.0</ele><time>2026-04-23T12:34:15Z</time></trkpt><trkpt lat="42.23403908171009" lon="13.877635060766977"><ele>464.5</ele><time>2026-04-23T12:34:16Z</time></trkpt><trkpt lat="42.23400387546918" lon="13.877826577147106"><ele>464.0</ele><time>2026-04-23T12:34:17Z</time></trkpt><trkpt lat="42.23396143581491" lon="13.878021425270516"><ele>467.3333333333333</ele><time>2026-04-23T12:34:18Z</time></trkpt><trkpt lat="42.233920211758694" lon="13.8782239503857"><ele>470.66666666666663</ele><time>2026-04-23T12:34:19Z</time></trkpt><trkpt lat="42.23387915137282" lon="13.87843539587758"><ele>474.0</ele><time>2026-04-23T12:34:20Z</time></trkpt><trkpt lat="42.23383495541078" lon="13.878645087638969"><ele>474.33333333333337</ele><time>2026-04-23T12:34:21Z</time></trkpt><trkpt lat="42.23378490358687" lon="13.878863757438872"><ele>474.6666666666667</ele><time>2026-04-23T12:34:22Z</time></trkpt><trkpt lat="42.23373161278926" lon="13.87907325631938"><ele>475.0</ele><time>2026-04-23T12:34:23Z</time></trkpt><trkpt lat="42.233679827633495" lon="13.879298015555236"><ele>475.25</ele><time>2026-04-23T12:34:24Z</time></trkpt><trkpt lat="42.23366485269887" lon="13.87949005408443"><ele>475.5</ele><time>2026-04-23T12:34:25Z</time></trkpt><trkpt lat="42.233675914187366" lon="13.879697965962613"><ele>475.75</ele><time>2026-04-23T12:34:26Z</time></trkpt><trkpt lat="42.23372220135521" lon="13.879891200001348"><ele>476.0</ele><time>2026-04-23T12:34:27Z</time></trkpt><trkpt lat="42.23377550752579" lon="13.880074985951158"><ele>476.5</ele><time>2026-04-23T12:34:28Z</time></trkpt><trkpt lat="42.23381063243938" lon="13.880259443277275"><ele>477.0</ele><time>2026-04-23T12:34:29Z</time></trkpt><trkpt lat="42.23382355260275" lon="13.880452777464889"><ele>477.5</ele><time>2026-04-23T12:34:30Z</time></trkpt><trkpt lat="42.23381751414914" lon="13.880657956252854"><ele>478.0</ele><time>2026-04-23T12:34:31Z</time></trkpt><trkpt lat="42.23379290082129" lon="13.880868198842144"><ele>478.33333333333337</ele><time>2026-04-23T12:34:32Z</time></trkpt><trkpt lat="42.2337345083886" lon="13.881075872374963"><ele>478.66666666666663</ele><time>2026-04-23T12:34:33Z</time></trkpt><trkpt lat="42.233699411056826" lon="13.881305734406967"><ele>479.0</ele><time>2026-04-23T12:34:34Z</time></trkpt><trkpt lat="42.23364752296281" lon="13.88152752547549"><ele>479.0</ele><time>2026-04-23T12:34:35Z</time></trkpt><trkpt lat="42.23361275231302" lon="13.881750946042423"><ele>479.0</ele><time>2026-04-23T12:34:36Z</time></trkpt><trkpt lat="42.23359146635306" lon="13.881979445019953"><ele>479.0</ele><time>2026-04-23T12:34:37Z</time></trkpt><trkpt lat="42.23356945925318" lon="13.882199372141699"><ele>478.0</ele><time>2026-04-23T12:34:38Z</time></trkpt><trkpt lat="42.23355212152076" lon="13.882395090282103"><ele>477.0</ele><time>2026-04-23T12:34:39Z</time></trkpt><trkpt lat="42.233532148990456" lon="13.882584301772381"><ele>476.0</ele><time>2026-04-23T12:34:40Z</time></trkpt><trkpt lat="42.233518830847764" lon="13.882767697596444"><ele>475.0</ele><time>2026-04-23T12:34:41Z</time></trkpt><trkpt lat="42.233523623193314" lon="13.882944127278817"><ele>471.5</ele><time>2026-04-23T12:34:42Z</time></trkpt><trkpt lat="42.23355716187472" lon="13.883109681482434"><ele>468.0</ele><time>2026-04-23T12:34:43Z</time></trkpt><trkpt lat="42.23359542234132" lon="13.883295561889401"><ele>464.5</ele><time>2026-04-23T12:34:44Z</time></trkpt><trkpt lat="42.23364075227197" lon="13.883495010119441"><ele>461.0</ele><time>2026-04-23T12:34:45Z</time></trkpt><trkpt lat="42.23368945131797" lon="13.883708056863252"><ele>455.66666666666663</ele><time>2026-04-23T12:34:46Z</time></trkpt><trkpt lat="42.23373754621611" lon="13.883932264073152"><ele>450.33333333333337</ele><time>2026-04-23T12:34:47Z</time></trkpt><trkpt lat="42.23378393232483" lon="13.8841609763539"><ele>445.0</ele><time>2026-04-23T12:34:48Z</time></trkpt><trkpt lat="42.23382596619303" lon="13.884387360653703"><ele>439.33333333333337</ele><time>2026-04-23T12:34:49Z</time></trkpt><trkpt lat="42.2338615417601" lon="13.884607895103064"><ele>433.66666666666663</ele><time>2026-04-23T12:34:50Z</time></trkpt><trkpt lat="42.23389368724324" lon="13.884826383872031"><ele>428.0</ele><time>2026-04-23T12:34:51Z</time></trkpt><trkpt lat="42.23392725169237" lon="13.885041494024417"><ele>428.66666666666663</ele><time>2026-04-23T12:34:52Z</time></trkpt><trkpt lat="42.23395688905453" lon="13.885242155519082"><ele>429.33333333333337</ele><time>2026-04-23T12:34:53Z</time></trkpt><trkpt lat="42.23398557367791" lon="13.88544641668082"><ele>430.0</ele><time>2026-04-23T12:34:54Z</time></trkpt><trkpt lat="42.23402251245483" lon="13.885641475087183"><ele>430.0</ele><time>2026-04-23T12:34:55Z</time></trkpt><trkpt lat="42.234079194937586" lon="13.885825814387953"><ele>430.0</ele><time>2026-04-23T12:34:56Z</time></trkpt><trkpt lat="42.234155608126066" lon="13.8859945302096"><ele>430.0</ele><time>2026-04-23T12:34:57Z</time></trkpt><trkpt lat="42.234240797173456" lon="13.88615315341565"><ele>430.0</ele><time>2026-04-23T12:34:58Z</time></trkpt><trkpt lat="42.2343275178221" lon="13.886305927697705"><ele>426.75</ele><time>2026-04-23T12:34:59Z</time></trkpt><trkpt lat="42.23441897849954" lon="13.886447976540467"><ele>423.5</ele><time>2026-04-23T12:35:00Z</time></trkpt><trkpt lat="42.2345161002526" lon="13.886562454277444"><ele>420.25</ele><time>2026-04-23T12:35:01Z</time></trkpt><trkpt lat="42.23460826605193" lon="13.886661155418897"><ele>417.0</ele><time>2026-04-23T12:35:02Z</time></trkpt><trkpt lat="42.23466705999021" lon="13.886765083495355"><ele>414.3333333333333</ele><time>2026-04-23T12:35:03Z</time></trkpt><trkpt lat="42.23467688205559" lon="13.886869655957543"><ele>411.66666666666663</ele><time>2026-04-23T12:35:04Z</time></trkpt><trkpt lat="42.23464188535472" lon="13.886965252447418"><ele>409.0</ele><time>2026-04-23T12:35:05Z</time></trkpt><trkpt lat="42.23457377556755" lon="13.887015631403322"><ele>406.3333333333333</ele><time>2026-04-23T12:35:06Z</time></trkpt><trkpt lat="42.23449292876641" lon="13.887006981636615"><ele>403.66666666666663</ele><time>2026-04-23T12:35:07Z</time></trkpt><trkpt lat="42.234425650621034" lon="13.886899769659479"><ele>401.0</ele><time>2026-04-23T12:35:08Z</time></trkpt><trkpt lat="42.234336458840346" lon="13.88680042490366"><ele>401.25</ele><time>2026-04-23T12:35:09Z</time></trkpt><trkpt lat="42.23425470001869" lon="13.886678477485383"><ele>401.5</ele><time>2026-04-23T12:35:10Z</time></trkpt><trkpt lat="42.23415966079151" lon="13.886563060769125"><ele>401.75</ele><time>2026-04-23T12:35:10.999Z</time></trkpt><trkpt lat="42.23406170266586" lon="13.886462660697992"><ele>402.0</ele><time>2026-04-23T12:35:11.999Z</time></trkpt><trkpt lat="42.23396149759863" lon="13.886367058644495"><ele>402.0</ele><time>2026-04-23T12:35:12.999Z</time></trkpt><trkpt lat="42.23385475058388" lon="13.886284751974403"><ele>402.0</ele><time>2026-04-23T12:35:13.999Z</time></trkpt><trkpt lat="42.23374979424117" lon="13.886215502775897"><ele>402.0</ele><time>2026-04-23T12:35:14.999Z</time></trkpt><trkpt lat="42.23365115841696" lon="13.88616419983647"><ele>402.0</ele><time>2026-04-23T12:35:15.999Z</time></trkpt><trkpt lat="42.233567525381005" lon="13.88616664796829"><ele>402.0</ele><time>2026-04-23T12:35:16.999Z</time></trkpt><trkpt lat="42.23349559650079" lon="13.88622338149683"><ele>402.0</ele><time>2026-04-23T12:35:17.999Z</time></trkpt><trkpt lat="42.23345361118827" lon="13.886315018480387"><ele>402.0</ele><time>2026-04-23T12:35:18.999Z</time></trkpt><trkpt lat="42.2334443352178" lon="13.88643892293302"><ele>402.0</ele><time>2026-04-23T12:35:19.999Z</time></trkpt><trkpt lat="42.2334823121157" lon="13.886560459088923"><ele>402.0</ele><time>2026-04-23T12:35:20.999Z</time></trkpt><trkpt lat="42.23355796675025" lon="13.886634947268435"><ele>402.0</ele><time>2026-04-23T12:35:21.999Z</time></trkpt><trkpt lat="42.233659379619404" lon="13.886699943317938"><ele>401.75</ele><time>2026-04-23T12:35:22.999Z</time></trkpt><trkpt lat="42.233770211362234" lon="13.886771618133345"><ele>401.5</ele><time>2026-04-23T12:35:23.999Z</time></trkpt><trkpt lat="42.23386575085246" lon="13.886862149198992"><ele>401.25</ele><time>2026-04-23T12:35:24.999Z</time></trkpt><trkpt lat="42.23394958671571" lon="13.88697593655897"><ele>401.0</ele><time>2026-04-23T12:35:25.999Z</time></trkpt><trkpt lat="42.234029197718414" lon="13.88710306627661"><ele>401.0</ele><time>2026-04-23T12:35:26.999Z</time></trkpt><trkpt lat="42.23411184764728" lon="13.887236294553066"><ele>401.0</ele><time>2026-04-23T12:35:28Z</time></trkpt><trkpt lat="42.234198685691325" lon="13.887376769452434"><ele>401.0</ele><time>2026-04-23T12:35:29Z</time></trkpt><trkpt lat="42.23428980061854" lon="13.887524256725621"><ele>401.0</ele><time>2026-04-23T12:35:30Z</time></trkpt><trkpt lat="42.234381054724714" lon="13.887677365740618"><ele>396.25</ele><time>2026-04-23T12:35:31Z</time></trkpt><trkpt lat="42.234473949511965" lon="13.887832038212633"><ele>391.5</ele><time>2026-04-23T12:35:32Z</time></trkpt><trkpt lat="42.23456891680083" lon="13.88798905320604"><ele>386.75</ele><time>2026-04-23T12:35:33Z</time></trkpt><trkpt lat="42.23466192043621" lon="13.888138768894462"><ele>382.0</ele><time>2026-04-23T12:35:34Z</time></trkpt><trkpt lat="42.23475275333923" lon="13.888290443719772"><ele>380.5</ele><time>2026-04-23T12:35:35Z</time></trkpt><trkpt lat="42.23484294564985" lon="13.888439521838654"><ele>379.0</ele><time>2026-04-23T12:35:36Z</time></trkpt><trkpt lat="42.234931057023076" lon="13.8885858950658"><ele>377.5</ele><time>2026-04-23T12:35:37Z</time></trkpt><trkpt lat="42.23501727244935" lon="13.888729924063805"><ele>376.0</ele><time>2026-04-23T12:35:38Z</time></trkpt><trkpt lat="42.23509870732244" lon="13.888875682954522"><ele>376.0</ele><time>2026-04-23T12:35:39Z</time></trkpt><trkpt lat="42.23517647901408" lon="13.889021794943057"><ele>376.0</ele><time>2026-04-23T12:35:40Z</time></trkpt><trkpt lat="42.23524753822764" lon="13.889178639924664"><ele>376.0</ele><time>2026-04-23T12:35:41Z</time></trkpt><trkpt lat="42.2353168648675" lon="13.889335035797572"><ele>376.0</ele><time>2026-04-23T12:35:42Z</time></trkpt><trkpt lat="42.23538742185092" lon="13.889490702027361"><ele>373.5</ele><time>2026-04-23T12:35:43Z</time></trkpt><trkpt lat="42.235459877094385" lon="13.88964674721424"><ele>371.0</ele><time>2026-04-23T12:35:44Z</time></trkpt><trkpt lat="42.235530617583734" lon="13.889803373808734"><ele>368.5</ele><time>2026-04-23T12:35:45Z</time></trkpt><trkpt lat="42.23559133619373" lon="13.889967519923825"><ele>366.0</ele><time>2026-04-23T12:35:46Z</time></trkpt><trkpt lat="42.235630015497904" lon="13.89014024067816"><ele>367.0</ele><time>2026-04-23T12:35:47Z</time></trkpt><trkpt lat="42.23565785223468" lon="13.89031450990571"><ele>368.0</ele><time>2026-04-23T12:35:48Z</time></trkpt><trkpt lat="42.23568102354313" lon="13.890502001348278"><ele>369.0</ele><time>2026-04-23T12:35:49Z</time></trkpt><trkpt lat="42.235702623323" lon="13.890690003222625"><ele>370.0</ele><time>2026-04-23T12:35:50Z</time></trkpt><trkpt lat="42.23573120749386" lon="13.890878560408893"><ele>367.5</ele><time>2026-04-23T12:35:51Z</time></trkpt><trkpt lat="42.2357740142667" lon="13.89106477392224"><ele>365.0</ele><time>2026-04-23T12:35:52Z</time></trkpt><trkpt lat="42.235838121029204" lon="13.89124386043755"><ele>362.5</ele><time>2026-04-23T12:35:53Z</time></trkpt><trkpt lat="42.235921962659575" lon="13.891405544377625"><ele>360.0</ele><time>2026-04-23T12:35:54Z</time></trkpt><trkpt lat="42.23600114178847" lon="13.891563403320312"><ele>360.0</ele><time>2026-04-23T12:35:55Z</time></trkpt><trkpt lat="42.236056912280475" lon="13.891721295954438"><ele>360.0</ele><time>2026-04-23T12:35:56Z</time></trkpt><trkpt lat="42.23610351061228" lon="13.891881809810046"><ele>360.0</ele><time>2026-04-23T12:35:57Z</time></trkpt><trkpt lat="42.23614255919484" lon="13.892039236373705"><ele>360.0</ele><time>2026-04-23T12:35:58Z</time></trkpt><trkpt lat="42.23617094257652" lon="13.892188170480882"><ele>358.4</ele><time>2026-04-23T12:35:59Z</time></trkpt><trkpt lat="42.23619232160657" lon="13.892326705360519"><ele>356.8</ele><time>2026-04-23T12:36:00Z</time></trkpt><trkpt lat="42.236208678773124" lon="13.89244615791967"><ele>355.20000000000005</ele><time>2026-04-23T12:36:01Z</time></trkpt><trkpt lat="42.23622024941463" lon="13.892559965970113"><ele>353.6</ele><time>2026-04-23T12:36:02Z</time></trkpt><trkpt lat="42.236210482733696" lon="13.892676625687725"><ele>352.0</ele><time>2026-04-23T12:36:03Z</time></trkpt><trkpt lat="42.23621488100086" lon="13.892801633371743"><ele>350.5</ele><time>2026-04-23T12:36:04Z</time></trkpt><trkpt lat="42.236235334550024" lon="13.893015802292002"><ele>349.0</ele><time>2026-04-23T12:36:05Z</time></trkpt><trkpt lat="42.236237343167" lon="13.893169934309041"><ele>347.5</ele><time>2026-04-23T12:36:06Z</time></trkpt><trkpt lat="42.236239890262844" lon="13.893320708891068"><ele>346.0</ele><time>2026-04-23T12:36:07Z</time></trkpt><trkpt lat="42.23624101790853" lon="13.893473661778685"><ele>345.8</ele><time>2026-04-23T12:36:08Z</time></trkpt><trkpt lat="42.23624389428097" lon="13.893638881721186"><ele>345.6</ele><time>2026-04-23T12:36:09Z</time></trkpt><trkpt lat="42.23624658942449" lon="13.89380775773865"><ele>345.4</ele><time>2026-04-23T12:36:10Z</time></trkpt><trkpt lat="42.236247171465685" lon="13.893952362936293"><ele>345.2</ele><time>2026-04-23T12:36:11Z</time></trkpt><trkpt lat="42.23624662188014" lon="13.894077060566751"><ele>345.0</ele><time>2026-04-23T12:36:12Z</time></trkpt><trkpt lat="42.23622569050677" lon="13.894188805673593"><ele>345.3333333333333</ele><time>2026-04-23T12:36:13Z</time></trkpt><trkpt lat="42.23612043389973" lon="13.894262038607295"><ele>345.6666666666667</ele><time>2026-04-23T12:36:15Z</time></trkpt><trkpt lat="42.2361085330947" lon="13.894353298032945"><ele>346.0</ele><time>2026-04-23T12:36:16Z</time></trkpt><trkpt lat="42.2360893253269" lon="13.89443850419519"><ele>346.33333333333337</ele><time>2026-04-23T12:36:17Z</time></trkpt><trkpt lat="42.23609127469994" lon="13.894556762994942"><ele>346.6666666666667</ele><time>2026-04-23T12:36:18Z</time></trkpt><trkpt lat="42.23608768504919" lon="13.894685982102494"><ele>347.0</ele><time>2026-04-23T12:36:19Z</time></trkpt><trkpt lat="42.23608818821618" lon="13.894810956360656"><ele>347.0</ele><time>2026-04-23T12:36:20Z</time></trkpt><trkpt lat="42.23606482023902" lon="13.894935048659397"><ele>347.0</ele><time>2026-04-23T12:36:21Z</time></trkpt><trkpt lat="42.23607092864119" lon="13.895065126156513"><ele>347.0</ele><time>2026-04-23T12:36:22Z</time></trkpt><trkpt lat="42.23605546086792" lon="13.895193515499017"><ele>347.0</ele><time>2026-04-23T12:36:23Z</time></trkpt><trkpt lat="42.2360265600213" lon="13.895314352229274"><ele>347.0</ele><time>2026-04-23T12:36:24Z</time></trkpt><trkpt lat="42.23600835683053" lon="13.895440287081229"><ele>347.33333333333337</ele><time>2026-04-23T12:36:25Z</time></trkpt><trkpt lat="42.23598492641489" lon="13.895560483049914"><ele>347.6666666666667</ele><time>2026-04-23T12:36:26Z</time></trkpt><trkpt lat="42.23596563982926" lon="13.895672061929274"><ele>348.0</ele><time>2026-04-23T12:36:27Z</time></trkpt><trkpt lat="42.23594725509692" lon="13.895776898708759"><ele>348.3333333333333</ele><time>2026-04-23T12:36:28Z</time></trkpt><trkpt lat="42.235934947746074" lon="13.89587868364191"><ele>348.66666666666663</ele><time>2026-04-23T12:36:29Z</time></trkpt><trkpt lat="42.235927686762736" lon="13.895977712680265"><ele>349.0</ele><time>2026-04-23T12:36:30Z</time></trkpt><trkpt lat="42.23592130200583" lon="13.896079171312778"><ele>349.66666666666663</ele><time>2026-04-23T12:36:31Z</time></trkpt><trkpt lat="42.23591279231331" lon="13.896182690178009"><ele>350.3333333333333</ele><time>2026-04-23T12:36:32Z</time></trkpt><trkpt lat="42.23590079453013" lon="13.896294770782585"><ele>351.0</ele><time>2026-04-23T12:36:33Z</time></trkpt><trkpt lat="42.23588650222673" lon="13.896404742498495"><ele>351.6666666666667</ele><time>2026-04-23T12:36:34Z</time></trkpt><trkpt lat="42.23586891655708" lon="13.896511041762404"><ele>352.33333333333337</ele><time>2026-04-23T12:36:35Z</time></trkpt><trkpt lat="42.235846628235116" lon="13.896613265531458"><ele>353.0</ele><time>2026-04-23T12:36:36Z</time></trkpt><trkpt lat="42.23582042353949" lon="13.896711531919562"><ele>353.0</ele><time>2026-04-23T12:36:37Z</time></trkpt><trkpt lat="42.23579228361693" lon="13.896819738281309"><ele>353.0</ele><time>2026-04-23T12:36:38Z</time></trkpt><trkpt lat="42.23576740478946" lon="13.89692567631198"><ele>353.0</ele><time>2026-04-23T12:36:39Z</time></trkpt><trkpt lat="42.235740738914835" lon="13.897050475305008"><ele>353.0</ele><time>2026-04-23T12:36:40Z</time></trkpt><trkpt lat="42.235713955211324" lon="13.897176429973063"><ele>353.0</ele><time>2026-04-23T12:36:41Z</time></trkpt><trkpt lat="42.23568661101971" lon="13.897310300189563"><ele>353.0</ele><time>2026-04-23T12:36:42Z</time></trkpt><trkpt lat="42.23566120170886" lon="13.89744862787204"><ele>353.0</ele><time>2026-04-23T12:36:43Z</time></trkpt><trkpt lat="42.235641365982815" lon="13.89758087520705"><ele>353.0</ele><time>2026-04-23T12:36:44Z</time></trkpt><trkpt lat="42.235625882144426" lon="13.897716109081916"><ele>353.0</ele><time>2026-04-23T12:36:45Z</time></trkpt><trkpt lat="42.23563516363298" lon="13.897847334436689"><ele>353.0</ele><time>2026-04-23T12:36:46Z</time></trkpt><trkpt lat="42.235649288969896" lon="13.897955052013451"><ele>352.1666666666667</ele><time>2026-04-23T12:36:47Z</time></trkpt><trkpt lat="42.23565174218284" lon="13.898066200814931"><ele>351.33333333333337</ele><time>2026-04-23T12:36:48Z</time></trkpt><trkpt lat="42.23568282065806" lon="13.898164789257146"><ele>350.5</ele><time>2026-04-23T12:36:49Z</time></trkpt><trkpt lat="42.23569802943077" lon="13.898267071353457"><ele>349.6666666666667</ele><time>2026-04-23T12:36:50Z</time></trkpt><trkpt lat="42.235706895416264" lon="13.898382825514695"><ele>348.8333333333333</ele><time>2026-04-23T12:36:51Z</time></trkpt><trkpt lat="42.235707251534244" lon="13.898507378431043"><ele>348.0</ele><time>2026-04-23T12:36:52Z</time></trkpt><trkpt lat="42.235706158753516" lon="13.898644413026416"><ele>346.4</ele><time>2026-04-23T12:36:53Z</time></trkpt><trkpt lat="42.235706785033585" lon="13.898772463978913"><ele>344.79999999999995</ele><time>2026-04-23T12:36:54Z</time></trkpt><trkpt lat="42.23570886192027" lon="13.89888623955723"><ele>343.2</ele><time>2026-04-23T12:36:55Z</time></trkpt><trkpt lat="42.23571112977858" lon="13.898974337151023"><ele>341.6</ele><time>2026-04-23T12:36:56Z</time></trkpt><trkpt lat="42.235716893940776" lon="13.899117838922585"><ele>340.0</ele><time>2026-04-23T12:36:58Z</time></trkpt><trkpt lat="42.23572317250248" lon="13.899283733484314"><ele>338.66666666666663</ele><time>2026-04-23T12:37:00Z</time></trkpt><trkpt lat="42.23572249385057" lon="13.899387737093875"><ele>337.3333333333333</ele><time>2026-04-23T12:37:01Z</time></trkpt><trkpt lat="42.2357145011295" lon="13.899480105033117"><ele>336.0</ele><time>2026-04-23T12:37:02Z</time></trkpt><trkpt lat="42.23569989029626" lon="13.899584175225089"><ele>334.6666666666667</ele><time>2026-04-23T12:37:03Z</time></trkpt><trkpt lat="42.235680695143884" lon="13.899704524704296"><ele>333.33333333333337</ele><time>2026-04-23T12:37:04Z</time></trkpt><trkpt lat="42.23566495637061" lon="13.899814545996508"><ele>332.0</ele><time>2026-04-23T12:37:05Z</time></trkpt><trkpt lat="42.23565144684562" lon="13.899920598105917"><ele>332.0</ele><time>2026-04-23T12:37:06Z</time></trkpt><trkpt lat="42.235645401714" lon="13.900037572850431"><ele>332.0</ele><time>2026-04-23T12:37:07Z</time></trkpt><trkpt lat="42.23566262744676" lon="13.900150066902745"><ele>332.0</ele><time>2026-04-23T12:37:08Z</time></trkpt><trkpt lat="42.235653742576226" lon="13.900273168877897"><ele>332.0</ele><time>2026-04-23T12:37:09Z</time></trkpt><trkpt lat="42.23566031810986" lon="13.900404490436737"><ele>332.0</ele><time>2026-04-23T12:37:10Z</time></trkpt><trkpt lat="42.23566616242803" lon="13.900538238779168"><ele>331.40000000000003</ele><time>2026-04-23T12:37:11Z</time></trkpt><trkpt lat="42.235672945808005" lon="13.90068168610098"><ele>330.8</ele><time>2026-04-23T12:37:12Z</time></trkpt><trkpt lat="42.23568144139117" lon="13.900827428090773"><ele>330.2</ele><time>2026-04-23T12:37:13Z</time></trkpt><trkpt lat="42.23569112832606" lon="13.900975828219469"><ele>329.6</ele><time>2026-04-23T12:37:14Z</time></trkpt><trkpt lat="42.23570048136706" lon="13.901113256883203"><ele>329.0</ele><time>2026-04-23T12:37:15Z</time></trkpt><trkpt lat="42.23571082258993" lon="13.90126358842128"><ele>327.25</ele><time>2026-04-23T12:37:16Z</time></trkpt><trkpt lat="42.235722124099674" lon="13.901427038649683"><ele>325.5</ele><time>2026-04-23T12:37:16.999Z</time></trkpt><trkpt lat="42.23573299785137" lon="13.901583941664656"><ele>323.75</ele><time>2026-04-23T12:37:17.999Z</time></trkpt><trkpt lat="42.235746489073556" lon="13.901750207144469"><ele>322.0</ele><time>2026-04-23T12:37:18.999Z</time></trkpt><trkpt lat="42.235768972075675" lon="13.901916937523383"><ele>320.5</ele><time>2026-04-23T12:37:19.999Z</time></trkpt><trkpt lat="42.235782085306795" lon="13.902087285107093"><ele>319.0</ele><time>2026-04-23T12:37:20.999Z</time></trkpt><trkpt lat="42.23579294899372" lon="13.90225749816114"><ele>317.5</ele><time>2026-04-23T12:37:21.999Z</time></trkpt><trkpt lat="42.235803266663375" lon="13.90242395773364"><ele>316.0</ele><time>2026-04-23T12:37:23Z</time></trkpt><trkpt lat="42.23581250515453" lon="13.902589175256328"><ele>314.0</ele><time>2026-04-23T12:37:24Z</time></trkpt><trkpt lat="42.23582137892711" lon="13.902749142612114"><ele>312.0</ele><time>2026-04-23T12:37:25Z</time></trkpt><trkpt lat="42.23583153261692" lon="13.902911247249616"><ele>310.0</ele><time>2026-04-23T12:37:26Z</time></trkpt><trkpt lat="42.23584349521282" lon="13.903068469531275"><ele>308.0</ele><time>2026-04-23T12:37:27Z</time></trkpt><trkpt lat="42.23585451625693" lon="13.903225026489464"><ele>308.0</ele><time>2026-04-23T12:37:28Z</time></trkpt><trkpt lat="42.23586259142945" lon="13.903375290556745"><ele>308.0</ele><time>2026-04-23T12:37:29Z</time></trkpt><trkpt lat="42.235869648554875" lon="13.903512043505952"><ele>308.0</ele><time>2026-04-23T12:37:30Z</time></trkpt><trkpt lat="42.2358756621861" lon="13.903628575680493"><ele>308.0</ele><time>2026-04-23T12:37:31Z</time></trkpt><trkpt lat="42.235877545842726" lon="13.903736523371887"><ele>308.0</ele><time>2026-04-23T12:37:32Z</time></trkpt><trkpt lat="42.235868521262766" lon="13.903821259390243"><ele>308.0</ele><time>2026-04-23T12:37:33Z</time></trkpt><trkpt lat="42.23581274539481" lon="13.90387170752525"><ele>307.0</ele><time>2026-04-23T12:37:34Z</time></trkpt><trkpt lat="42.23574774100852" lon="13.903864530504828"><ele>306.0</ele><time>2026-04-23T12:37:35Z</time></trkpt><trkpt lat="42.235690479595576" lon="13.903811314375924"><ele>305.0</ele><time>2026-04-23T12:37:36Z</time></trkpt><trkpt lat="42.23564182896341" lon="13.903718648180044"><ele>304.0</ele><time>2026-04-23T12:37:37Z</time></trkpt><trkpt lat="42.23560377146702" lon="13.903594322383894"><ele>303.0</ele><time>2026-04-23T12:37:38Z</time></trkpt><trkpt lat="42.23556399948605" lon="13.903460134598488"><ele>302.0</ele><time>2026-04-23T12:37:39Z</time></trkpt><trkpt lat="42.23552644201888" lon="13.903338203164784"><ele>300.6</ele><time>2026-04-23T12:37:40Z</time></trkpt><trkpt lat="42.23548902237025" lon="13.903200236040018"><ele>299.2</ele><time>2026-04-23T12:37:41Z</time></trkpt><trkpt lat="42.23545433554081" lon="13.903053738940498"><ele>297.8</ele><time>2026-04-23T12:37:42Z</time></trkpt><trkpt lat="42.235427411035964" lon="13.902910976256335"><ele>296.4</ele><time>2026-04-23T12:37:43Z</time></trkpt><trkpt lat="42.23539920593796" lon="13.902793464379574"><ele>295.0</ele><time>2026-04-23T12:37:44Z</time></trkpt><trkpt lat="42.23536949409035" lon="13.90269535449999"><ele>295.0</ele><time>2026-04-23T12:37:45Z</time></trkpt><trkpt lat="42.23525788948032" lon="13.902685922240755"><ele>295.0</ele><time>2026-04-23T12:37:47Z</time></trkpt><trkpt lat="42.235215103754214" lon="13.902841156826584"><ele>295.0</ele><time>2026-04-23T12:37:49Z</time></trkpt><trkpt lat="42.235239471647226" lon="13.902937806607408"><ele>295.0</ele><time>2026-04-23T12:37:50Z</time></trkpt><trkpt lat="42.235264087395606" lon="13.903094298023948"><ele>295.0</ele><time>2026-04-23T12:37:51Z</time></trkpt><trkpt lat="42.235282123470974" lon="13.9032510177674"><ele>295.0</ele><time>2026-04-23T12:37:52Z</time></trkpt><trkpt lat="42.23530328798305" lon="13.903412118410202"><ele>295.0</ele><time>2026-04-23T12:37:53Z</time></trkpt><trkpt lat="42.235329318434374" lon="13.903588893443658"><ele>295.0</ele><time>2026-04-23T12:37:54Z</time></trkpt><trkpt lat="42.23536011578566" lon="13.903763232547712"><ele>295.0</ele><time>2026-04-23T12:37:55Z</time></trkpt><trkpt lat="42.235400724322005" lon="13.90392463312448"><ele>294.75</ele><time>2026-04-23T12:37:56Z</time></trkpt><trkpt lat="42.23545513820701" lon="13.904077695250498"><ele>294.5</ele><time>2026-04-23T12:37:57Z</time></trkpt><trkpt lat="42.23552524735584" lon="13.904222854457446"><ele>294.25</ele><time>2026-04-23T12:37:58Z</time></trkpt><trkpt lat="42.23560154807848" lon="13.904369325395095"><ele>294.0</ele><time>2026-04-23T12:37:59Z</time></trkpt><trkpt lat="42.23566904926612" lon="13.904527092951646"><ele>294.0</ele><time>2026-04-23T12:38:00Z</time></trkpt><trkpt lat="42.23573055016133" lon="13.904690477428174"><ele>294.0</ele><time>2026-04-23T12:38:01Z</time></trkpt><trkpt lat="42.23580769562309" lon="13.904827895678833"><ele>294.0</ele><time>2026-04-23T12:38:02Z</time></trkpt><trkpt lat="42.23586927345149" lon="13.904972322792458"><ele>294.0</ele><time>2026-04-23T12:38:03Z</time></trkpt><trkpt lat="42.23592871810948" lon="13.905113954265621"><ele>292.5</ele><time>2026-04-23T12:38:04Z</time></trkpt><trkpt lat="42.23598637534074" lon="13.905257821793198"><ele>291.0</ele><time>2026-04-23T12:38:05Z</time></trkpt><trkpt lat="42.236044596759974" lon="13.905402362998517"><ele>289.5</ele><time>2026-04-23T12:38:06Z</time></trkpt><trkpt lat="42.236097375635644" lon="13.905554493246674"><ele>288.0</ele><time>2026-04-23T12:38:07Z</time></trkpt><trkpt lat="42.23614529949029" lon="13.905712736123728"><ele>288.0</ele><time>2026-04-23T12:38:08Z</time></trkpt><trkpt lat="42.236188552443416" lon="13.905879938703922"><ele>288.0</ele><time>2026-04-23T12:38:09Z</time></trkpt><trkpt lat="42.23623202901743" lon="13.90605270957245"><ele>288.0</ele><time>2026-04-23T12:38:10Z</time></trkpt><trkpt lat="42.236277583345256" lon="13.906229143384811"><ele>288.0</ele><time>2026-04-23T12:38:11Z</time></trkpt><trkpt lat="42.23631865637175" lon="13.906406487949365"><ele>285.75</ele><time>2026-04-23T12:38:12Z</time></trkpt><trkpt lat="42.23636205119411" lon="13.906583658469552"><ele>283.5</ele><time>2026-04-23T12:38:13Z</time></trkpt><trkpt lat="42.236405474483156" lon="13.906758358605563"><ele>281.25</ele><time>2026-04-23T12:38:14Z</time></trkpt><trkpt lat="42.236449225950075" lon="13.906936099220916"><ele>279.0</ele><time>2026-04-23T12:38:15Z</time></trkpt><trkpt lat="42.23649151943046" lon="13.907122063647055"><ele>279.0</ele><time>2026-04-23T12:38:16Z</time></trkpt><trkpt lat="42.23653198407195" lon="13.907318225801498"><ele>279.0</ele><time>2026-04-23T12:38:17Z</time></trkpt><trkpt lat="42.23657722586673" lon="13.907522249718866"><ele>279.0</ele><time>2026-04-23T12:38:18Z</time></trkpt><trkpt lat="42.23662415497145" lon="13.907734821066459"><ele>276.6666666666667</ele><time>2026-04-23T12:38:19Z</time></trkpt><trkpt lat="42.23667047403824" lon="13.907953924830583"><ele>274.33333333333337</ele><time>2026-04-23T12:38:20Z</time></trkpt><trkpt lat="42.23671596959949" lon="13.908176261747014"><ele>272.0</ele><time>2026-04-23T12:38:21Z</time></trkpt><trkpt lat="42.23676349357296" lon="13.90839732321414"><ele>269.6666666666667</ele><time>2026-04-23T12:38:22Z</time></trkpt><trkpt lat="42.23680950394976" lon="13.90861316506854"><ele>267.3333333333333</ele><time>2026-04-23T12:38:23Z</time></trkpt><trkpt lat="42.23685226449861" lon="13.908824705681095"><ele>265.0</ele><time>2026-04-23T12:38:24Z</time></trkpt><trkpt lat="42.23688920884589" lon="13.909044350983136"><ele>263.3333333333333</ele><time>2026-04-23T12:38:25Z</time></trkpt><trkpt lat="42.23692807043506" lon="13.909258600161113"><ele>261.6666666666667</ele><time>2026-04-23T12:38:26Z</time></trkpt><trkpt lat="42.23697087697704" lon="13.90947411542628"><ele>260.0</ele><time>2026-04-23T12:38:27Z</time></trkpt><trkpt lat="42.23701673608045" lon="13.909685491175104"><ele>260.0</ele><time>2026-04-23T12:38:28Z</time></trkpt><trkpt lat="42.23705865435992" lon="13.909909092687512"><ele>260.0</ele><time>2026-04-23T12:38:29Z</time></trkpt><trkpt lat="42.2370995507416" lon="13.910128319376675"><ele>260.0</ele><time>2026-04-23T12:38:30Z</time></trkpt><trkpt lat="42.23714217343315" lon="13.910340683329627"><ele>259.33333333333337</ele><time>2026-04-23T12:38:31Z</time></trkpt><trkpt lat="42.237182071622" lon="13.910543612087448"><ele>258.6666666666667</ele><time>2026-04-23T12:38:32Z</time></trkpt><trkpt lat="42.23722107192343" lon="13.910753221851966"><ele>258.0</ele><time>2026-04-23T12:38:33Z</time></trkpt><trkpt lat="42.23725937987523" lon="13.910948709453416"><ele>258.0</ele><time>2026-04-23T12:38:34Z</time></trkpt><trkpt lat="42.23729504382126" lon="13.911132878958504"><ele>258.0</ele><time>2026-04-23T12:38:35Z</time></trkpt><trkpt lat="42.237328481154435" lon="13.911304388911315"><ele>258.0</ele><time>2026-04-23T12:38:36Z</time></trkpt><trkpt lat="42.237352807263655" lon="13.911448380099445"><ele>258.0</ele><time>2026-04-23T12:38:37Z</time></trkpt><trkpt lat="42.23735453820013" lon="13.911574331593469"><ele>258.0</ele><time>2026-04-23T12:38:38Z</time></trkpt><trkpt lat="42.23733006041613" lon="13.91168487864234"><ele>258.0</ele><time>2026-04-23T12:38:39Z</time></trkpt><trkpt lat="42.23728571262069" lon="13.911778819584969"><ele>258.0</ele><time>2026-04-23T12:38:40Z</time></trkpt><trkpt lat="42.23721175681001" lon="13.911859053991199"><ele>258.0</ele><time>2026-04-23T12:38:41Z</time></trkpt><trkpt lat="42.237121194284825" lon="13.911896300973323"><ele>258.0</ele><time>2026-04-23T12:38:42Z</time></trkpt><trkpt lat="42.237018742824326" lon="13.911889534056945"><ele>256.5</ele><time>2026-04-23T12:38:43Z</time></trkpt><trkpt lat="42.23690850642377" lon="13.91184279630155"><ele>255.0</ele><time>2026-04-23T12:38:44Z</time></trkpt><trkpt lat="42.236799226910684" lon="13.911796620476109"><ele>253.5</ele><time>2026-04-23T12:38:45Z</time></trkpt><trkpt lat="42.236677552463085" lon="13.911781614112927"><ele>252.0</ele><time>2026-04-23T12:38:46Z</time></trkpt><trkpt lat="42.23655501123189" lon="13.911792322796831"><ele>254.8</ele><time>2026-04-23T12:38:47Z</time></trkpt><trkpt lat="42.23644451905238" lon="13.911819968166803"><ele>257.6</ele><time>2026-04-23T12:38:48Z</time></trkpt><trkpt lat="42.23635582619781" lon="13.911856109957759"><ele>260.40000000000003</ele><time>2026-04-23T12:38:49Z</time></trkpt><trkpt lat="42.236289682709966" lon="13.911915961626589"><ele>263.2</ele><time>2026-04-23T12:38:50Z</time></trkpt><trkpt lat="42.23623833431569" lon="13.912019007727093"><ele>266.0</ele><time>2026-04-23T12:38:51Z</time></trkpt><trkpt lat="42.23621740274479" lon="13.912161838317695"><ele>266.0</ele><time>2026-04-23T12:38:52Z</time></trkpt><trkpt lat="42.23622980921469" lon="13.912322623335658"><ele>266.0</ele><time>2026-04-23T12:38:53Z</time></trkpt><trkpt lat="42.236253643033784" lon="13.912501272161679"><ele>266.0</ele><time>2026-04-23T12:38:54Z</time></trkpt><trkpt lat="42.236270791310936" lon="13.91268870983334"><ele>266.0</ele><time>2026-04-23T12:38:55Z</time></trkpt><trkpt lat="42.23629069250351" lon="13.912869517627325"><ele>266.0</ele><time>2026-04-23T12:38:56Z</time></trkpt><trkpt lat="42.236315269922905" lon="13.913061557036452"><ele>266.0</ele><time>2026-04-23T12:38:57Z</time></trkpt><trkpt lat="42.23635159931508" lon="13.91325505973761"><ele>266.0</ele><time>2026-04-23T12:38:58Z</time></trkpt><trkpt lat="42.23639868624152" lon="13.913447957813116"><ele>266.0</ele><time>2026-04-23T12:38:59Z</time></trkpt><trkpt lat="42.236453401481725" lon="13.913636378037284"><ele>261.6666666666667</ele><time>2026-04-23T12:39:00Z</time></trkpt><trkpt lat="42.23651465612306" lon="13.913826768225555"><ele>257.3333333333333</ele><time>2026-04-23T12:39:01Z</time></trkpt><trkpt lat="42.23657417584287" lon="13.914019517572852"><ele>253.0</ele><time>2026-04-23T12:39:02Z</time></trkpt><trkpt lat="42.23663228534225" lon="13.914216844764185"><ele>254.0</ele><time>2026-04-23T12:39:03Z</time></trkpt><trkpt lat="42.236686626233805" lon="13.914406770707663"><ele>255.0</ele><time>2026-04-23T12:39:04Z</time></trkpt><trkpt lat="42.23674279254784" lon="13.91459925953211"><ele>256.0</ele><time>2026-04-23T12:39:05Z</time></trkpt><trkpt lat="42.23679117625665" lon="13.91477434799914"><ele>257.0</ele><time>2026-04-23T12:39:06Z</time></trkpt><trkpt lat="42.23682177214767" lon="13.914925702701499"><ele>257.0</ele><time>2026-04-23T12:39:07Z</time></trkpt><trkpt lat="42.23683680229195" lon="13.915043451096812"><ele>257.0</ele><time>2026-04-23T12:39:08Z</time></trkpt><trkpt lat="42.236850353214216" lon="13.915158329073515"><ele>257.0</ele><time>2026-04-23T12:39:09Z</time></trkpt><trkpt lat="42.23685309722638" lon="13.915302273293097"><ele>257.0</ele><time>2026-04-23T12:39:10Z</time></trkpt><trkpt lat="42.23682966972168" lon="13.915470014486644"><ele>257.0</ele><time>2026-04-23T12:39:11Z</time></trkpt><trkpt lat="42.23678481183621" lon="13.915650310413957"><ele>257.0</ele><time>2026-04-23T12:39:12Z</time></trkpt><trkpt lat="42.23672945717938" lon="13.915823586811234"><ele>257.0</ele><time>2026-04-23T12:39:13Z</time></trkpt><trkpt lat="42.23666456468377" lon="13.915996010000393"><ele>257.0</ele><time>2026-04-23T12:39:14Z</time></trkpt><trkpt lat="42.236600824454" lon="13.916160643503794"><ele>257.0</ele><time>2026-04-23T12:39:15Z</time></trkpt><trkpt lat="42.236541551028154" lon="13.916323463290473"><ele>255.25</ele><time>2026-04-23T12:39:16Z</time></trkpt><trkpt lat="42.23649251467532" lon="13.916485908994092"><ele>253.5</ele><time>2026-04-23T12:39:17Z</time></trkpt><trkpt lat="42.2364545189529" lon="13.916650842159246"><ele>251.75</ele><time>2026-04-23T12:39:18Z</time></trkpt><trkpt lat="42.236443250106525" lon="13.916821102334898"><ele>250.0</ele><time>2026-04-23T12:39:19Z</time></trkpt><trkpt lat="42.23646747463235" lon="13.917001450979184"><ele>247.66666666666666</ele><time>2026-04-23T12:39:20Z</time></trkpt><trkpt lat="42.23653535196698" lon="13.91718731637306"><ele>245.33333333333331</ele><time>2026-04-23T12:39:21Z</time></trkpt><trkpt lat="42.23660974112034" lon="13.91736068882307"><ele>243.0</ele><time>2026-04-23T12:39:22Z</time></trkpt><trkpt lat="42.2366808465323" lon="13.917546168680335"><ele>239.33333333333331</ele><time>2026-04-23T12:39:23Z</time></trkpt><trkpt lat="42.23676267767445" lon="13.91773779792031"><ele>235.66666666666666</ele><time>2026-04-23T12:39:24Z</time></trkpt><trkpt lat="42.2368449729104" lon="13.91793403842211"><ele>232.0</ele><time>2026-04-23T12:39:25Z</time></trkpt><trkpt lat="42.2369297150892" lon="13.918124361838224"><ele>232.0</ele><time>2026-04-23T12:39:26Z</time></trkpt><trkpt lat="42.23701585862524" lon="13.918311975341211"><ele>232.0</ele><time>2026-04-23T12:39:27Z</time></trkpt><trkpt lat="42.23710381089428" lon="13.918504517318107"><ele>232.0</ele><time>2026-04-23T12:39:28Z</time></trkpt><trkpt lat="42.23718877088801" lon="13.918708159126638"><ele>231.0</ele><time>2026-04-23T12:39:29Z</time></trkpt><trkpt lat="42.23726395945439" lon="13.918913346730179"><ele>230.0</ele><time>2026-04-23T12:39:30Z</time></trkpt><trkpt lat="42.23733028061305" lon="13.91912421097771"><ele>229.0</ele><time>2026-04-23T12:39:31Z</time></trkpt><trkpt lat="42.23739372122037" lon="13.919337583323115"><ele>229.0</ele><time>2026-04-23T12:39:32Z</time></trkpt><trkpt lat="42.2374508730712" lon="13.919554156875817"><ele>229.0</ele><time>2026-04-23T12:39:33Z</time></trkpt><trkpt lat="42.23750653881772" lon="13.919772953734"><ele>229.0</ele><time>2026-04-23T12:39:34Z</time></trkpt><trkpt lat="42.23756796168919" lon="13.919984265548768"><ele>224.66666666666666</ele><time>2026-04-23T12:39:35Z</time></trkpt><trkpt lat="42.237630954480665" lon="13.920200123685275"><ele>220.33333333333331</ele><time>2026-04-23T12:39:36Z</time></trkpt><trkpt lat="42.237703360732986" lon="13.920409147523003"><ele>216.0</ele><time>2026-04-23T12:39:37Z</time></trkpt><trkpt lat="42.23778888266961" lon="13.920610886159341"><ele>216.0</ele><time>2026-04-23T12:39:38Z</time></trkpt><trkpt lat="42.23788641228943" lon="13.920809144854061"><ele>216.0</ele><time>2026-04-23T12:39:39Z</time></trkpt><trkpt lat="42.2379894491246" lon="13.920996428595739"><ele>216.0</ele><time>2026-04-23T12:39:40Z</time></trkpt><trkpt lat="42.23808948279836" lon="13.92118224312267"><ele>216.66666666666669</ele><time>2026-04-23T12:39:41Z</time></trkpt><trkpt lat="42.23819197921863" lon="13.921359335281945"><ele>217.33333333333334</ele><time>2026-04-23T12:39:42Z</time></trkpt><trkpt lat="42.238287714983834" lon="13.921546615789426"><ele>218.0</ele><time>2026-04-23T12:39:43Z</time></trkpt><trkpt lat="42.238373464992925" lon="13.921732554563391"><ele>214.66666666666669</ele><time>2026-04-23T12:39:44Z</time></trkpt><trkpt lat="42.23845872091048" lon="13.921926196469252"><ele>211.33333333333331</ele><time>2026-04-23T12:39:45Z</time></trkpt><trkpt lat="42.23854660488801" lon="13.922125177264018"><ele>208.0</ele><time>2026-04-23T12:39:46Z</time></trkpt><trkpt lat="42.23863957593739" lon="13.922323685615616"><ele>208.0</ele><time>2026-04-23T12:39:47Z</time></trkpt><trkpt lat="42.23873314379213" lon="13.922514584040199"><ele>208.0</ele><time>2026-04-23T12:39:48Z</time></trkpt><trkpt lat="42.238822408224465" lon="13.922700702046612"><ele>208.0</ele><time>2026-04-23T12:39:49Z</time></trkpt><trkpt lat="42.238900104584104" lon="13.92289141350914"><ele>206.33333333333331</ele><time>2026-04-23T12:39:50Z</time></trkpt><trkpt lat="42.23896324143942" lon="13.923083864199569"><ele>204.66666666666669</ele><time>2026-04-23T12:39:51Z</time></trkpt><trkpt lat="42.23901378411008" lon="13.923274492345744"><ele>203.0</ele><time>2026-04-23T12:39:52Z</time></trkpt><trkpt lat="42.23905935309482" lon="13.923460388967536"><ele>201.75</ele><time>2026-04-23T12:39:53Z</time></trkpt><trkpt lat="42.239099893707625" lon="13.923644460929053"><ele>200.5</ele><time>2026-04-23T12:39:54Z</time></trkpt><trkpt lat="42.23913873913571" lon="13.923825143693344"><ele>199.25</ele><time>2026-04-23T12:39:55Z</time></trkpt><trkpt lat="42.23917237856608" lon="13.923995507971995"><ele>198.0</ele><time>2026-04-23T12:39:56Z</time></trkpt><trkpt lat="42.23920925944168" lon="13.924150865929809"><ele>197.25</ele><time>2026-04-23T12:39:57Z</time></trkpt><trkpt lat="42.23925776483405" lon="13.924292269020187"><ele>196.5</ele><time>2026-04-23T12:39:58Z</time></trkpt><trkpt lat="42.23932360653346" lon="13.924420756830672"><ele>195.75</ele><time>2026-04-23T12:39:59Z</time></trkpt><trkpt lat="42.239401179179" lon="13.92453137876624"><ele>195.0</ele><time>2026-04-23T12:40:00Z</time></trkpt><trkpt lat="42.239494166992344" lon="13.924632890097776"><ele>195.0</ele><time>2026-04-23T12:40:01Z</time></trkpt><trkpt lat="42.23959519223757" lon="13.924724600751611"><ele>195.0</ele><time>2026-04-23T12:40:02Z</time></trkpt><trkpt lat="42.23971097398748" lon="13.924808067411895"><ele>195.0</ele><time>2026-04-23T12:40:03Z</time></trkpt><trkpt lat="42.23984014542019" lon="13.924872517090801"><ele>195.0</ele><time>2026-04-23T12:40:04Z</time></trkpt><trkpt lat="42.23997464180991" lon="13.924935482115714"><ele>194.5</ele><time>2026-04-23T12:40:05Z</time></trkpt><trkpt lat="42.24010983360454" lon="13.925009750577368"><ele>194.0</ele><time>2026-04-23T12:40:06Z</time></trkpt><trkpt lat="42.240233895473665" lon="13.925084974076643"><ele>193.5</ele><time>2026-04-23T12:40:07Z</time></trkpt><trkpt lat="42.24035476363423" lon="13.925166607924819"><ele>193.0</ele><time>2026-04-23T12:40:08Z</time></trkpt><trkpt lat="42.2404697339594" lon="13.925243634344623"><ele>192.5</ele><time>2026-04-23T12:40:09Z</time></trkpt><trkpt lat="42.24058411119207" lon="13.925317864777178"><ele>192.0</ele><time>2026-04-23T12:40:10Z</time></trkpt><trkpt lat="42.240687887295465" lon="13.925384282228093"><ele>191.5</ele><time>2026-04-23T12:40:11Z</time></trkpt><trkpt lat="42.240785400284985" lon="13.925441086020511"><ele>191.0</ele><time>2026-04-23T12:40:12Z</time></trkpt><trkpt lat="42.24088790753953" lon="13.92551144770809"><ele>191.0</ele><time>2026-04-23T12:40:13Z</time></trkpt><trkpt lat="42.240971687885825" lon="13.9255718483948"><ele>191.0</ele><time>2026-04-23T12:40:14Z</time></trkpt><trkpt lat="42.24103918545137" lon="13.925662444454474"><ele>191.0</ele><time>2026-04-23T12:40:15Z</time></trkpt><trkpt lat="42.24108814630852" lon="13.925766333096504"><ele>191.0</ele><time>2026-04-23T12:40:16Z</time></trkpt><trkpt lat="42.241095492343796" lon="13.92589635308371"><ele>191.0</ele><time>2026-04-23T12:40:17Z</time></trkpt><trkpt lat="42.24112245047685" lon="13.926004173350973"><ele>190.8</ele><time>2026-04-23T12:40:18Z</time></trkpt><trkpt lat="42.241168985983684" lon="13.92615698057115"><ele>190.60000000000002</ele><time>2026-04-23T12:40:20Z</time></trkpt><trkpt lat="42.24118741958128" lon="13.926295911781668"><ele>190.4</ele><time>2026-04-23T12:41:19Z</time></trkpt><trkpt lat="42.24120931570565" lon="13.926388160905606"><ele>190.2</ele><time>2026-04-23T12:41:20Z</time></trkpt><trkpt lat="42.241239788718694" lon="13.926494236503853"><ele>190.0</ele><time>2026-04-23T12:41:21Z</time></trkpt><trkpt lat="42.24127121460509" lon="13.926618183960771"><ele>189.2</ele><time>2026-04-23T12:41:22Z</time></trkpt><trkpt lat="42.241307890288475" lon="13.926747403425866"><ele>188.4</ele><time>2026-04-23T12:41:23Z</time></trkpt><trkpt lat="42.24134450000474" lon="13.92688464881073"><ele>187.60000000000002</ele><time>2026-04-23T12:41:24Z</time></trkpt><trkpt lat="42.241377090069335" lon="13.927032406185646"><ele>186.8</ele><time>2026-04-23T12:41:25Z</time></trkpt><trkpt lat="42.241416554935604" lon="13.927187690982072"><ele>186.0</ele><time>2026-04-23T12:41:26Z</time></trkpt><trkpt lat="42.24145538816477" lon="13.927348521431554"><ele>186.0</ele><time>2026-04-23T12:41:27Z</time></trkpt><trkpt lat="42.24149530193569" lon="13.92750193576123"><ele>186.0</ele><time>2026-04-23T12:41:28Z</time></trkpt><trkpt lat="42.241533252866006" lon="13.92765964799275"><ele>186.0</ele><time>2026-04-23T12:41:29Z</time></trkpt><trkpt lat="42.24157285813377" lon="13.92782297747722"><ele>186.0</ele><time>2026-04-23T12:41:30Z</time></trkpt><trkpt lat="42.2416202886672" lon="13.927993170117965"><ele>186.0</ele><time>2026-04-23T12:41:31Z</time></trkpt><trkpt lat="42.241666540374155" lon="13.928169270008551"><ele>186.0</ele><time>2026-04-23T12:41:32Z</time></trkpt><trkpt lat="42.241713553629786" lon="13.928349455328748"><ele>186.0</ele><time>2026-04-23T12:41:33Z</time></trkpt><trkpt lat="42.241758955624576" lon="13.928529791123912"><ele>186.0</ele><time>2026-04-23T12:41:34Z</time></trkpt><trkpt lat="42.241805384990855" lon="13.928706322358723"><ele>185.0</ele><time>2026-04-23T12:41:35Z</time></trkpt><trkpt lat="42.24184789338172" lon="13.928871210630195"><ele>184.0</ele><time>2026-04-23T12:41:36Z</time></trkpt><trkpt lat="42.24188535036449" lon="13.929027040347682"><ele>183.0</ele><time>2026-04-23T12:41:37Z</time></trkpt><trkpt lat="42.24192265355076" lon="13.92917171015153"><ele>182.0</ele><time>2026-04-23T12:41:38Z</time></trkpt><trkpt lat="42.241959376139754" lon="13.92930975245533"><ele>182.0</ele><time>2026-04-23T12:41:39Z</time></trkpt><trkpt lat="42.24199277294739" lon="13.929444064573422"><ele>182.0</ele><time>2026-04-23T12:41:40Z</time></trkpt><trkpt lat="42.24202224322543" lon="13.92957202036904"><ele>182.0</ele><time>2026-04-23T12:41:41Z</time></trkpt><trkpt lat="42.242054180003166" lon="13.929708921998568"><ele>182.0</ele><time>2026-04-23T12:41:42Z</time></trkpt><trkpt lat="42.24209008764736" lon="13.929852562910114"><ele>182.0</ele><time>2026-04-23T12:41:43Z</time></trkpt><trkpt lat="42.24213190473177" lon="13.930006195479816"><ele>182.0</ele><time>2026-04-23T12:41:44Z</time></trkpt><trkpt lat="42.24216551445018" lon="13.930145622405103"><ele>182.0</ele><time>2026-04-23T12:41:45Z</time></trkpt><trkpt lat="42.24220213125356" lon="13.930299249024467"><ele>182.0</ele><time>2026-04-23T12:41:46Z</time></trkpt><trkpt lat="42.24223941125454" lon="13.930448208824398"><ele>182.0</ele><time>2026-04-23T12:41:47Z</time></trkpt><trkpt lat="42.242279497586935" lon="13.930604464315554"><ele>182.0</ele><time>2026-04-23T12:41:48Z</time></trkpt><trkpt lat="42.24232184179012" lon="13.930765688662467"><ele>182.0</ele><time>2026-04-23T12:41:49Z</time></trkpt><trkpt lat="42.24236287641136" lon="13.930930885156915"><ele>182.0</ele><time>2026-04-23T12:41:50Z</time></trkpt><trkpt lat="42.242405796884114" lon="13.931096266631"><ele>182.0</ele><time>2026-04-23T12:41:51Z</time></trkpt><trkpt lat="42.242446446891144" lon="13.931256342160106"><ele>181.75</ele><time>2026-04-23T12:41:52Z</time></trkpt><trkpt lat="42.24248666542386" lon="13.93141018419616"><ele>181.5</ele><time>2026-04-23T12:41:53Z</time></trkpt><trkpt lat="42.242526365797964" lon="13.93156390246011"><ele>181.25</ele><time>2026-04-23T12:41:54Z</time></trkpt><trkpt lat="42.242565871573646" lon="13.93171830604821"><ele>181.0</ele><time>2026-04-23T12:41:55Z</time></trkpt><trkpt lat="42.24260343398592" lon="13.93187382607917"><ele>180.5</ele><time>2026-04-23T12:41:56Z</time></trkpt><trkpt lat="42.24264523474552" lon="13.932027352681668"><ele>180.0</ele><time>2026-04-23T12:41:57Z</time></trkpt><trkpt lat="42.24268055309112" lon="13.932180289334728"><ele>179.5</ele><time>2026-04-23T12:41:58Z</time></trkpt><trkpt lat="42.24272158933986" lon="13.932332714492444"><ele>179.0</ele><time>2026-04-23T12:41:59Z</time></trkpt><trkpt lat="42.24276077768221" lon="13.932490132082648"><ele>178.5</ele><time>2026-04-23T12:42:00Z</time></trkpt><trkpt lat="42.24280312789342" lon="13.932652820353152"><ele>178.0</ele><time>2026-04-23T12:42:01Z</time></trkpt><trkpt lat="42.24284410224903" lon="13.932823666007847"><ele>177.5</ele><time>2026-04-23T12:42:02Z</time></trkpt><trkpt lat="42.24288727332316" lon="13.932998949751925"><ele>177.0</ele><time>2026-04-23T12:42:03Z</time></trkpt><trkpt lat="42.242929539556954" lon="13.93317532906108"><ele>177.0</ele><time>2026-04-23T12:42:04Z</time></trkpt><trkpt lat="42.24297314379839" lon="13.933346545673174"><ele>177.0</ele><time>2026-04-23T12:42:05Z</time></trkpt><trkpt lat="42.24301311900804" lon="13.93350309138152"><ele>177.0</ele><time>2026-04-23T12:42:06Z</time></trkpt><trkpt lat="42.2430537863255" lon="13.93366060119717"><ele>177.0</ele><time>2026-04-23T12:42:07Z</time></trkpt><trkpt lat="42.243091215791175" lon="13.933816779041091"><ele>175.25</ele><time>2026-04-23T12:42:08Z</time></trkpt><trkpt lat="42.24313141279682" lon="13.933976450530018"><ele>173.5</ele><time>2026-04-23T12:42:09Z</time></trkpt><trkpt lat="42.24317227998692" lon="13.934141621371547"><ele>171.75</ele><time>2026-04-23T12:42:10Z</time></trkpt><trkpt lat="42.24321272816054" lon="13.934305949719807"><ele>170.0</ele><time>2026-04-23T12:42:11Z</time></trkpt><trkpt lat="42.243255302502874" lon="13.93447394777649"><ele>169.75</ele><time>2026-04-23T12:42:12Z</time></trkpt><trkpt lat="42.24329713519465" lon="13.934640763764742"><ele>169.5</ele><time>2026-04-23T12:42:13Z</time></trkpt><trkpt lat="42.243339423350236" lon="13.934806499741624"><ele>169.25</ele><time>2026-04-23T12:42:14Z</time></trkpt><trkpt lat="42.24337797248758" lon="13.934975681502511"><ele>169.0</ele><time>2026-04-23T12:42:15Z</time></trkpt><trkpt lat="42.243422676678996" lon="13.93514124291397"><ele>168.5</ele><time>2026-04-23T12:42:16Z</time></trkpt><trkpt lat="42.24346357521869" lon="13.935310858800399"><ele>168.0</ele><time>2026-04-23T12:42:17Z</time></trkpt><trkpt lat="42.24350632840738" lon="13.935478984838788"><ele>167.5</ele><time>2026-04-23T12:42:18Z</time></trkpt><trkpt lat="42.24355118047311" lon="13.93564743838159"><ele>167.0</ele><time>2026-04-23T12:42:19Z</time></trkpt><trkpt lat="42.24359158573532" lon="13.935815362785522"><ele>166.5</ele><time>2026-04-23T12:42:20Z</time></trkpt><trkpt lat="42.24363022808157" lon="13.935974044271498"><ele>166.0</ele><time>2026-04-23T12:42:21Z</time></trkpt><trkpt lat="42.24366984787995" lon="13.93613076848871"><ele>165.5</ele><time>2026-04-23T12:42:22Z</time></trkpt><trkpt lat="42.24370953641427" lon="13.93628366055103"><ele>165.0</ele><time>2026-04-23T12:42:23Z</time></trkpt><trkpt lat="42.24374824041361" lon="13.936433566476692"><ele>165.0</ele><time>2026-04-23T12:42:24Z</time></trkpt><trkpt lat="42.243785252854714" lon="13.936573578961708"><ele>165.0</ele><time>2026-04-23T12:42:25Z</time></trkpt><trkpt lat="42.24382264566979" lon="13.936709477447245"><ele>165.0</ele><time>2026-04-23T12:42:26Z</time></trkpt><trkpt lat="42.24386000217717" lon="13.936831907990035"><ele>165.0</ele><time>2026-04-23T12:42:27Z</time></trkpt><trkpt lat="42.243902876199954" lon="13.93692925250043"><ele>165.0</ele><time>2026-04-23T12:42:28Z</time></trkpt><trkpt lat="42.2439525696875" lon="13.937002279575738"><ele>164.4</ele><time>2026-04-23T12:42:29Z</time></trkpt><trkpt lat="42.24402130818903" lon="13.937040859201202"><ele>163.8</ele><time>2026-04-23T12:42:30Z</time></trkpt><trkpt lat="42.24410881046911" lon="13.936976660831867"><ele>163.2</ele><time>2026-04-23T12:42:31Z</time></trkpt><trkpt lat="42.24415602064712" lon="13.936866309567677"><ele>162.6</ele><time>2026-04-23T12:42:32Z</time></trkpt><trkpt lat="42.24419839651564" lon="13.936745934038953"><ele>162.0</ele><time>2026-04-23T12:42:33Z</time></trkpt><trkpt lat="42.244239017012944" lon="13.936623121158963"><ele>162.0</ele><time>2026-04-23T12:42:34Z</time></trkpt><trkpt lat="42.24428892180101" lon="13.936504019702488"><ele>162.0</ele><time>2026-04-23T12:42:35Z</time></trkpt><trkpt lat="42.24434458443999" lon="13.9363861879465"><ele>162.0</ele><time>2026-04-23T12:42:36Z</time></trkpt><trkpt lat="42.244393571037364" lon="13.936268032817617"><ele>162.0</ele><time>2026-04-23T12:42:37Z</time></trkpt><trkpt lat="42.24444137149461" lon="13.936150391998542"><ele>162.0</ele><time>2026-04-23T12:42:38Z</time></trkpt><trkpt lat="42.244480490221164" lon="13.93601997068757"><ele>162.8</ele><time>2026-04-23T12:42:39Z</time></trkpt><trkpt lat="42.24451790924225" lon="13.935884948786086"><ele>163.6</ele><time>2026-04-23T12:42:40Z</time></trkpt><trkpt lat="42.244552255116375" lon="13.935751017761255"><ele>164.4</ele><time>2026-04-23T12:42:41Z</time></trkpt><trkpt lat="42.24458536221911" lon="13.93561516196867"><ele>165.20000000000002</ele><time>2026-04-23T12:42:42Z</time></trkpt><trkpt lat="42.24461944861937" lon="13.935486074967812"><ele>166.0</ele><time>2026-04-23T12:42:43Z</time></trkpt><trkpt lat="42.24465251415127" lon="13.935360235997619"><ele>166.0</ele><time>2026-04-23T12:42:44Z</time></trkpt><trkpt lat="42.2446827755312" lon="13.93525178991205"><ele>166.0</ele><time>2026-04-23T12:42:45Z</time></trkpt><trkpt lat="42.24472908158074" lon="13.935189508797537"><ele>166.0</ele><time>2026-04-23T12:42:46Z</time></trkpt><trkpt lat="42.244797745183575" lon="13.935143465863222"><ele>166.0</ele><time>2026-04-23T12:42:47Z</time></trkpt><trkpt lat="42.24487537126189" lon="13.935124073128113"><ele>166.0</ele><time>2026-04-23T12:42:48Z</time></trkpt><trkpt lat="42.244958376004746" lon="13.935209970494459"><ele>166.0</ele><time>2026-04-23T12:42:50Z</time></trkpt><trkpt lat="42.24498353955708" lon="13.935310025348498"><ele>164.8</ele><time>2026-04-23T12:42:51Z</time></trkpt><trkpt lat="42.245011319797484" lon="13.935410998226919"><ele>163.60000000000002</ele><time>2026-04-23T12:42:52Z</time></trkpt><trkpt lat="42.245051250031786" lon="13.935515303300193"><ele>162.4</ele><time>2026-04-23T12:42:53Z</time></trkpt><trkpt lat="42.24509699775056" lon="13.93563335231641"><ele>161.2</ele><time>2026-04-23T12:42:54Z</time></trkpt><trkpt lat="42.245140788317414" lon="13.935753704328063"><ele>160.0</ele><time>2026-04-23T12:42:55Z</time></trkpt><trkpt lat="42.24517860457258" lon="13.935873913965734"><ele>159.25</ele><time>2026-04-23T12:42:56Z</time></trkpt><trkpt lat="42.24522408793509" lon="13.936012416816574"><ele>158.5</ele><time>2026-04-23T12:42:57Z</time></trkpt><trkpt lat="42.24526500928138" lon="13.936168798457901"><ele>157.75</ele><time>2026-04-23T12:42:58Z</time></trkpt><trkpt lat="42.245318295139214" lon="13.936324370993574"><ele>157.0</ele><time>2026-04-23T12:42:59Z</time></trkpt><trkpt lat="42.245373714330654" lon="13.9364873199615"><ele>157.0</ele><time>2026-04-23T12:43:00Z</time></trkpt><trkpt lat="42.24542584315586" lon="13.936642436483588"><ele>157.0</ele><time>2026-04-23T12:43:01Z</time></trkpt><trkpt lat="42.24547888031473" lon="13.936801164429987"><ele>157.0</ele><time>2026-04-23T12:43:02Z</time></trkpt><trkpt lat="42.245532203261945" lon="13.936960747649618"><ele>157.0</ele><time>2026-04-23T12:43:03Z</time></trkpt><trkpt lat="42.245586195182895" lon="13.937122332953733"><ele>156.25</ele><time>2026-04-23T12:43:04Z</time></trkpt><trkpt lat="42.24566066658648" lon="13.93727586012053"><ele>155.5</ele><time>2026-04-23T12:43:05Z</time></trkpt><trkpt lat="42.24571698536299" lon="13.937443556220376"><ele>154.75</ele><time>2026-04-23T12:43:05.999Z</time></trkpt><trkpt lat="42.24577172343978" lon="13.937611369702811"><ele>154.0</ele><time>2026-04-23T12:43:06.999Z</time></trkpt><trkpt lat="42.24582595618518" lon="13.937777445232637"><ele>154.0</ele><time>2026-04-23T12:43:07.999Z</time></trkpt><trkpt lat="42.24588189538332" lon="13.937943234955345"><ele>154.0</ele><time>2026-04-23T12:43:08.999Z</time></trkpt><trkpt lat="42.24592152583172" lon="13.938119416303415"><ele>154.0</ele><time>2026-04-23T12:43:09.999Z</time></trkpt><trkpt lat="42.24597756760667" lon="13.93828742946894"><ele>154.0</ele><time>2026-04-23T12:43:10.999Z</time></trkpt><trkpt lat="42.24603611649768" lon="13.938460961974645"><ele>154.0</ele><time>2026-04-23T12:43:11.999Z</time></trkpt><trkpt lat="42.24609640355062" lon="13.938637031866888"><ele>154.0</ele><time>2026-04-23T12:43:12.999Z</time></trkpt><trkpt lat="42.24617077057781" lon="13.938807122687747"><ele>154.0</ele><time>2026-04-23T12:43:13.999Z</time></trkpt><trkpt lat="42.24623195919255" lon="13.938990076454427"><ele>154.0</ele><time>2026-04-23T12:43:14.999Z</time></trkpt><trkpt lat="42.24629125324416" lon="13.939167712581604"><ele>153.75</ele><time>2026-04-23T12:43:15.999Z</time></trkpt><trkpt lat="42.24634566565176" lon="13.939341494995123"><ele>153.5</ele><time>2026-04-23T12:43:16.999Z</time></trkpt><trkpt lat="42.24640447633483" lon="13.93951482809952"><ele>153.25</ele><time>2026-04-23T12:43:17.999Z</time></trkpt><trkpt lat="42.246462553293945" lon="13.939688866578678"><ele>153.0</ele><time>2026-04-23T12:43:18.999Z</time></trkpt><trkpt lat="42.24652147423651" lon="13.939867014384406"><ele>151.25</ele><time>2026-04-23T12:43:19.999Z</time></trkpt><trkpt lat="42.24658126928523" lon="13.940048149250462"><ele>149.5</ele><time>2026-04-23T12:43:20.999Z</time></trkpt><trkpt lat="42.24663979112712" lon="13.94022686399697"><ele>147.75</ele><time>2026-04-23T12:43:21.999Z</time></trkpt><trkpt lat="42.246700643040214" lon="13.940398851080028"><ele>146.0</ele><time>2026-04-23T12:43:22.999Z</time></trkpt><trkpt lat="42.2467602520012" lon="13.940571758326575"><ele>146.0</ele><time>2026-04-23T12:43:23.999Z</time></trkpt><trkpt lat="42.246817866333615" lon="13.940751205159408"><ele>146.0</ele><time>2026-04-23T12:43:24.999Z</time></trkpt><trkpt lat="42.24687582584282" lon="13.940934732234997"><ele>146.0</ele><time>2026-04-23T12:43:25.999Z</time></trkpt><trkpt lat="42.246936186854434" lon="13.941124368202699"><ele>146.0</ele><time>2026-04-23T12:43:26.999Z</time></trkpt><trkpt lat="42.2470019972283" lon="13.941313535599944"><ele>146.0</ele><time>2026-04-23T12:43:28Z</time></trkpt><trkpt lat="42.24706431704198" lon="13.941512108702744"><ele>146.0</ele><time>2026-04-23T12:43:29Z</time></trkpt><trkpt lat="42.247127049915555" lon="13.94170431588365"><ele>146.0</ele><time>2026-04-23T12:43:30Z</time></trkpt><trkpt lat="42.24719216138889" lon="13.941890341620727"><ele>145.5</ele><time>2026-04-23T12:43:31Z</time></trkpt><trkpt lat="42.247253611709496" lon="13.942071380448667"><ele>145.0</ele><time>2026-04-23T12:43:32Z</time></trkpt><trkpt lat="42.24731573646617" lon="13.942238526842672"><ele>144.5</ele><time>2026-04-23T12:43:33Z</time></trkpt><trkpt lat="42.24738452069846" lon="13.942393112151025"><ele>144.0</ele><time>2026-04-23T12:43:33.999Z</time></trkpt><trkpt lat="42.24750580894922" lon="13.942495315048319"><ele>142.5</ele><time>2026-04-23T12:43:34.999Z</time></trkpt><trkpt lat="42.24763318446266" lon="13.942586574822524"><ele>141.0</ele><time>2026-04-23T12:43:35.999Z</time></trkpt><trkpt lat="42.24776993953872" lon="13.942665313423571"><ele>139.5</ele><time>2026-04-23T12:43:36.999Z</time></trkpt><trkpt lat="42.247897617952056" lon="13.942740236800802"><ele>138.0</ele><time>2026-04-23T12:43:37.999Z</time></trkpt><trkpt lat="42.248012231167564" lon="13.942819298590722"><ele>138.0</ele><time>2026-04-23T12:43:38.999Z</time></trkpt><trkpt lat="42.24811722037989" lon="13.942914595496102"><ele>138.0</ele><time>2026-04-23T12:43:39.999Z</time></trkpt><trkpt lat="42.248208255477316" lon="13.943030567065842"><ele>138.0</ele><time>2026-04-23T12:43:40.999Z</time></trkpt><trkpt lat="42.24828903858612" lon="13.943174556524788"><ele>138.0</ele><time>2026-04-23T12:43:41.999Z</time></trkpt><trkpt lat="42.24835066742466" lon="13.943345816161663"><ele>137.0</ele><time>2026-04-23T12:43:42.999Z</time></trkpt><trkpt lat="42.24839219194798" lon="13.9435362160751"><ele>136.0</ele><time>2026-04-23T12:43:43.999Z</time></trkpt><trkpt lat="42.24841038946604" lon="13.94373987158986"><ele>135.0</ele><time>2026-04-23T12:43:44.999Z</time></trkpt><trkpt lat="42.2484008980043" lon="13.94394371373216"><ele>135.0</ele><time>2026-04-23T12:43:45.999Z</time></trkpt><trkpt lat="42.248379861637964" lon="13.944141385971376"><ele>135.0</ele><time>2026-04-23T12:43:46.999Z</time></trkpt><trkpt lat="42.24835871239935" lon="13.944343350465896"><ele>135.0</ele><time>2026-04-23T12:43:47.999Z</time></trkpt><trkpt lat="42.24833786787419" lon="13.944549776239647"><ele>135.0</ele><time>2026-04-23T12:43:48.999Z</time></trkpt><trkpt lat="42.24831420405317" lon="13.944761610580931"><ele>135.0</ele><time>2026-04-23T12:43:49.999Z</time></trkpt><trkpt lat="42.24829370505061" lon="13.944974036605263"><ele>135.0</ele><time>2026-04-23T12:43:50.999Z</time></trkpt><trkpt lat="42.24827290408041" lon="13.94519476847243"><ele>135.66666666666666</ele><time>2026-04-23T12:43:51.999Z</time></trkpt><trkpt lat="42.24825228526593" lon="13.945417019453497"><ele>136.33333333333331</ele><time>2026-04-23T12:43:52.999Z</time></trkpt><trkpt lat="42.248229431650955" lon="13.945641619053449"><ele>137.0</ele><time>2026-04-23T12:43:53.999Z</time></trkpt><trkpt lat="42.24820766810524" lon="13.945867903989091"><ele>137.33333333333331</ele><time>2026-04-23T12:43:54.999Z</time></trkpt><trkpt lat="42.24818467846967" lon="13.946100616064694"><ele>137.66666666666666</ele><time>2026-04-23T12:43:55.999Z</time></trkpt><trkpt lat="42.248161326100316" lon="13.94633360959515"><ele>138.0</ele><time>2026-04-23T12:43:56.999Z</time></trkpt><trkpt lat="42.248136172482724" lon="13.946563813189389"><ele>139.0</ele><time>2026-04-23T12:43:57.999Z</time></trkpt><trkpt lat="42.24811214987969" lon="13.94678966715507"><ele>140.0</ele><time>2026-04-23T12:43:58.999Z</time></trkpt><trkpt lat="42.248088833652616" lon="13.947001253760872"><ele>141.0</ele><time>2026-04-23T12:43:59.999Z</time></trkpt><trkpt lat="42.2480686273077" lon="13.947198522889634"><ele>141.0</ele><time>2026-04-23T12:44:00.999Z</time></trkpt><trkpt lat="42.248057345399324" lon="13.94738350118375"><ele>141.0</ele><time>2026-04-23T12:44:01.999Z</time></trkpt><trkpt lat="42.24805698917574" lon="13.947565463795554"><ele>141.0</ele><time>2026-04-23T12:44:02.999Z</time></trkpt><trkpt lat="42.24808535215803" lon="13.947738589274604"><ele>141.0</ele><time>2026-04-23T12:44:03.999Z</time></trkpt><trkpt lat="42.24814978947435" lon="13.947896959002973"><ele>141.25</ele><time>2026-04-23T12:44:04.999Z</time></trkpt><trkpt lat="42.248240716246855" lon="13.948037713885945"><ele>141.5</ele><time>2026-04-23T12:44:05.999Z</time></trkpt><trkpt lat="42.24834820615302" lon="13.94816570665959"><ele>141.75</ele><time>2026-04-23T12:44:06.999Z</time></trkpt><trkpt lat="42.24846480220168" lon="13.948296331270939"><ele>142.0</ele><time>2026-04-23T12:44:07.999Z</time></trkpt><trkpt lat="42.24871000546701" lon="13.948579445742473"><ele>142.0</ele><time>2026-04-23T12:44:09.999Z</time></trkpt><trkpt lat="42.24883149764657" lon="13.948714190739196"><ele>142.0</ele><time>2026-04-23T12:44:10.999Z</time></trkpt><trkpt lat="42.24895553991376" lon="13.9488586790351"><ele>142.0</ele><time>2026-04-23T12:44:11.999Z</time></trkpt><trkpt lat="42.24908537757906" lon="13.948999372401678"><ele>141.33333333333334</ele><time>2026-04-23T12:44:12.999Z</time></trkpt><trkpt lat="42.24921045354038" lon="13.949142656516239"><ele>140.66666666666666</ele><time>2026-04-23T12:44:13.999Z</time></trkpt><trkpt lat="42.249339574030145" lon="13.949291841226371"><ele>140.0</ele><time>2026-04-23T12:44:14.999Z</time></trkpt><trkpt lat="42.24946599720871" lon="13.949439914406513"><ele>140.0</ele><time>2026-04-23T12:44:15.999Z</time></trkpt><trkpt lat="42.24959593512141" lon="13.949587733758598"><ele>140.0</ele><time>2026-04-23T12:44:16.999Z</time></trkpt><trkpt lat="42.24972497745873" lon="13.949733653496732"><ele>140.0</ele><time>2026-04-23T12:44:17.999Z</time></trkpt><trkpt lat="42.249851685422655" lon="13.949881286241364"><ele>139.33333333333331</ele><time>2026-04-23T12:44:18.999Z</time></trkpt><trkpt lat="42.24997858826195" lon="13.950026805175643"><ele>138.66666666666666</ele><time>2026-04-23T12:44:19.999Z</time></trkpt><trkpt lat="42.25010523498529" lon="13.95016894260354"><ele>138.0</ele><time>2026-04-23T12:44:20.999Z</time></trkpt><trkpt lat="42.25022401243363" lon="13.950300219872883"><ele>138.0</ele><time>2026-04-23T12:44:21.999Z</time></trkpt><trkpt lat="42.250338617414215" lon="13.950425732714868"><ele>138.0</ele><time>2026-04-23T12:44:22.999Z</time></trkpt><trkpt lat="42.250451451238206" lon="13.95053872377956"><ele>138.0</ele><time>2026-04-23T12:44:23.999Z</time></trkpt><trkpt lat="42.25056453276193" lon="13.950636859230947"><ele>138.0</ele><time>2026-04-23T12:44:24.999Z</time></trkpt><trkpt lat="42.25067547800984" lon="13.950726445086445"><ele>137.8</ele><time>2026-04-23T12:44:25.999Z</time></trkpt><trkpt lat="42.25077142522465" lon="13.950811536921146"><ele>137.60000000000002</ele><time>2026-04-23T12:44:26.999Z</time></trkpt><trkpt lat="42.25085152918271" lon="13.95090144699841"><ele>137.39999999999998</ele><time>2026-04-23T12:44:27.999Z</time></trkpt><trkpt lat="42.25090641530839" lon="13.951009085160111"><ele>137.2</ele><time>2026-04-23T12:44:28.999Z</time></trkpt><trkpt lat="42.25093008228957" lon="13.951126284542942"><ele>137.0</ele><time>2026-04-23T12:44:29.999Z</time></trkpt><trkpt lat="42.25093325595158" lon="13.951362952740844"><ele>137.0</ele><time>2026-04-23T12:44:31.999Z</time></trkpt><trkpt lat="42.25094067102426" lon="13.95146071672149"><ele>137.0</ele><time>2026-04-23T12:44:32.999Z</time></trkpt><trkpt lat="42.250947944796465" lon="13.951573441329112"><ele>137.0</ele><time>2026-04-23T12:44:34.999Z</time></trkpt><trkpt lat="42.25098836850708" lon="13.951685354142121"><ele>137.0</ele><time>2026-04-23T12:44:40.999Z</time></trkpt><trkpt lat="42.251107934922594" lon="13.951667863566179"><ele>137.0</ele><time>2026-04-23T12:44:41.999Z</time></trkpt><trkpt lat="42.25120734941111" lon="13.951673943598722"><ele>137.0</ele><time>2026-04-23T12:44:43.999Z</time></trkpt><trkpt lat="42.25131979239824" lon="13.9516983078943"><ele>137.0</ele><time>2026-04-23T12:44:45.999Z</time></trkpt><trkpt lat="42.25142917396816" lon="13.951722397802625"><ele>137.0</ele><time>2026-04-23T12:44:47.999Z</time></trkpt><trkpt lat="42.25150791094583" lon="13.951742241182126"><ele>137.0</ele><time>2026-04-23T12:44:49.999Z</time></trkpt><trkpt lat="42.25158198912028" lon="13.951739459609856"><ele>137.0</ele><time>2026-04-23T12:45:09.999Z</time></trkpt><trkpt lat="42.25164393816931" lon="13.951764358965654"><ele>137.0</ele><time>2026-04-23T12:45:11.999Z</time></trkpt><trkpt lat="42.25172753920113" lon="13.951782174003748"><ele>136.16666666666666</ele><time>2026-04-23T12:45:36Z</time></trkpt><trkpt lat="42.25183245088198" lon="13.9517825834578"><ele>135.33333333333331</ele><time>2026-04-23T12:45:38Z</time></trkpt><trkpt lat="42.25193046346712" lon="13.951807718261216"><ele>134.5</ele><time>2026-04-23T12:45:39.999Z</time></trkpt><trkpt lat="42.2520166715087" lon="13.951824316627036"><ele>133.66666666666666</ele><time>2026-04-23T12:45:41.999Z</time></trkpt><trkpt lat="42.25208651858237" lon="13.951837331835275"><ele>132.83333333333334</ele><time>2026-04-23T12:45:43.999Z</time></trkpt><trkpt lat="42.252155968015394" lon="13.951865440574393"><ele>132.0</ele><time>2026-04-23T12:46:09Z</time></trkpt><trkpt lat="42.252247538233405" lon="13.951853125646554"><ele>131.5</ele><time>2026-04-23T12:46:11Z</time></trkpt><trkpt lat="42.25231829390857" lon="13.951851716037309"><ele>131.0</ele><time>2026-04-23T12:46:12Z</time></trkpt><trkpt lat="42.25239175661353" lon="13.951859629516143"><ele>130.5</ele><time>2026-04-23T12:46:13Z</time></trkpt><trkpt lat="42.25247939157799" lon="13.951878698762544"><ele>130.0</ele><time>2026-04-23T12:46:14Z</time></trkpt><trkpt lat="42.25257079199871" lon="13.951955132166859"><ele>129.5</ele><time>2026-04-23T12:46:15Z</time></trkpt><trkpt lat="42.25266928599397" lon="13.951975815741436"><ele>129.0</ele><time>2026-04-23T12:46:16Z</time></trkpt><trkpt lat="42.25276941577887" lon="13.951997243571306"><ele>129.0</ele><time>2026-04-23T12:46:17Z</time></trkpt><trkpt lat="42.25287456408541" lon="13.952019745376226"><ele>129.0</ele><time>2026-04-23T12:46:18Z</time></trkpt><trkpt lat="42.25298146193572" lon="13.952042495954327"><ele>129.0</ele><time>2026-04-23T12:46:19Z</time></trkpt><trkpt lat="42.2530788705053" lon="13.952062118227069"><ele>129.0</ele><time>2026-04-23T12:46:20Z</time></trkpt><trkpt lat="42.25317421598341" lon="13.952081326579352"><ele>129.0</ele><time>2026-04-23T12:46:21Z</time></trkpt><trkpt lat="42.25327234787893" lon="13.952101094581087"><ele>129.5</ele><time>2026-04-23T12:46:22Z</time></trkpt><trkpt lat="42.253377245374224" lon="13.952109988642698"><ele>130.0</ele><time>2026-04-23T12:46:23Z</time></trkpt><trkpt lat="42.25349152321496" lon="13.952084144206939"><ele>130.5</ele><time>2026-04-23T12:46:24Z</time></trkpt><trkpt lat="42.25360611092685" lon="13.95202444342496"><ele>131.0</ele><time>2026-04-23T12:46:25Z</time></trkpt><trkpt lat="42.253729011115134" lon="13.951971811633053"><ele>131.0</ele><time>2026-04-23T12:46:26Z</time></trkpt><trkpt lat="42.253857013265254" lon="13.951913435582085"><ele>131.0</ele><time>2026-04-23T12:46:27Z</time></trkpt><trkpt lat="42.25398454951934" lon="13.951858488699044"><ele>131.0</ele><time>2026-04-23T12:46:28Z</time></trkpt><trkpt lat="42.25410814948775" lon="13.951810388000174"><ele>131.0</ele><time>2026-04-23T12:46:29Z</time></trkpt><trkpt lat="42.254239889274196" lon="13.95177229269783"><ele>132.25</ele><time>2026-04-23T12:46:30Z</time></trkpt><trkpt lat="42.25437412418909" lon="13.951734134662704"><ele>133.5</ele><time>2026-04-23T12:46:31Z</time></trkpt><trkpt lat="42.25451011449574" lon="13.951693174612416"><ele>134.75</ele><time>2026-04-23T12:46:32Z</time></trkpt><trkpt lat="42.25465170346578" lon="13.951652574933494"><ele>136.0</ele><time>2026-04-23T12:46:33Z</time></trkpt><trkpt lat="42.254799142402355" lon="13.951610476113958"><ele>137.66666666666669</ele><time>2026-04-23T12:46:34Z</time></trkpt><trkpt lat="42.25495108123341" lon="13.951567060249248"><ele>139.33333333333334</ele><time>2026-04-23T12:46:35Z</time></trkpt><trkpt lat="42.255105611908" lon="13.95152319275413"><ele>141.0</ele><time>2026-04-23T12:46:36Z</time></trkpt><trkpt lat="42.2552601904128" lon="13.951480544746879"><ele>141.0</ele><time>2026-04-23T12:46:37Z</time></trkpt><trkpt lat="42.25541454287908" lon="13.951436966652228"><ele>141.0</ele><time>2026-04-23T12:46:38Z</time></trkpt><trkpt lat="42.255573477633746" lon="13.951389633034637"><ele>141.0</ele><time>2026-04-23T12:46:39Z</time></trkpt><trkpt lat="42.25573253233702" lon="13.951338266599686"><ele>141.66666666666666</ele><time>2026-04-23T12:46:40Z</time></trkpt><trkpt lat="42.255895715918186" lon="13.951287426409067"><ele>142.33333333333331</ele><time>2026-04-23T12:46:41Z</time></trkpt><trkpt lat="42.256061411562925" lon="13.951239698948445"><ele>143.0</ele><time>2026-04-23T12:46:42Z</time></trkpt><trkpt lat="42.25622764779508" lon="13.95119203816798"><ele>143.0</ele><time>2026-04-23T12:46:43Z</time></trkpt><trkpt lat="42.256390223187076" lon="13.951147564109052"><ele>143.0</ele><time>2026-04-23T12:46:44Z</time></trkpt><trkpt lat="42.256554226132224" lon="13.951118268669074"><ele>143.0</ele><time>2026-04-23T12:46:45Z</time></trkpt><trkpt lat="42.25671242563576" lon="13.951109203085828"><ele>143.33333333333331</ele><time>2026-04-23T12:46:46Z</time></trkpt><trkpt lat="42.25687140738264" lon="13.951117158644928"><ele>143.66666666666666</ele><time>2026-04-23T12:46:47Z</time></trkpt><trkpt lat="42.25703526718023" lon="13.951127203242605"><ele>144.0</ele><time>2026-04-23T12:46:48Z</time></trkpt><trkpt lat="42.25719953968479" lon="13.951135562454951"><ele>143.66666666666666</ele><time>2026-04-23T12:46:49Z</time></trkpt><trkpt lat="42.257368980635626" lon="13.951142746715155"><ele>143.33333333333331</ele><time>2026-04-23T12:46:50Z</time></trkpt><trkpt lat="42.257544786775576" lon="13.951148569480315"><ele>143.0</ele><time>2026-04-23T12:46:51Z</time></trkpt><trkpt lat="42.2577254947586" lon="13.951163097533042"><ele>143.0</ele><time>2026-04-23T12:46:52Z</time></trkpt><trkpt lat="42.257907659995844" lon="13.951181714925498"><ele>143.0</ele><time>2026-04-23T12:46:53Z</time></trkpt><trkpt lat="42.258093553316364" lon="13.951213501720451"><ele>143.0</ele><time>2026-04-23T12:46:54Z</time></trkpt><trkpt lat="42.258278609115855" lon="13.95126503885579"><ele>143.66666666666666</ele><time>2026-04-23T12:46:55Z</time></trkpt><trkpt lat="42.25846788745135" lon="13.951334361980926"><ele>144.33333333333334</ele><time>2026-04-23T12:46:56Z</time></trkpt><trkpt lat="42.25863509794951" lon="13.951408484611315"><ele>145.0</ele><time>2026-04-23T12:46:57Z</time></trkpt><trkpt lat="42.25882078974831" lon="13.95149255001561"><ele>146.0</ele><time>2026-04-23T12:46:58Z</time></trkpt><trkpt lat="42.259003756183496" lon="13.951604065851816"><ele>147.0</ele><time>2026-04-23T12:46:59Z</time></trkpt><trkpt lat="42.259185690439864" lon="13.951722150509074"><ele>148.0</ele><time>2026-04-23T12:47:00Z</time></trkpt><trkpt lat="42.259355117426985" lon="13.951861299860298"><ele>148.0</ele><time>2026-04-23T12:47:01Z</time></trkpt><trkpt lat="42.25951523679051" lon="13.95201033598379"><ele>148.0</ele><time>2026-04-23T12:47:02Z</time></trkpt><trkpt lat="42.25966664090458" lon="13.952170268448288"><ele>148.0</ele><time>2026-04-23T12:47:03Z</time></trkpt><trkpt lat="42.25980928095015" lon="13.952335380009682"><ele>147.66666666666669</ele><time>2026-04-23T12:47:04Z</time></trkpt><trkpt lat="42.25994700871145" lon="13.952510916945727"><ele>147.33333333333334</ele><time>2026-04-23T12:47:05Z</time></trkpt><trkpt lat="42.26007503426303" lon="13.952704700548919"><ele>147.0</ele><time>2026-04-23T12:47:06Z</time></trkpt><trkpt lat="42.26018986366144" lon="13.952921279302855"><ele>147.0</ele><time>2026-04-23T12:47:07Z</time></trkpt><trkpt lat="42.26031087553032" lon="13.95310801530762"><ele>147.0</ele><time>2026-04-23T12:47:08Z</time></trkpt><trkpt lat="42.260412724940224" lon="13.9533299334066"><ele>147.0</ele><time>2026-04-23T12:47:09Z</time></trkpt><trkpt lat="42.26050499141949" lon="13.953560117168047"><ele>149.0</ele><time>2026-04-23T12:47:10Z</time></trkpt><trkpt lat="42.260584330207564" lon="13.953796100674632"><ele>151.0</ele><time>2026-04-23T12:47:11Z</time></trkpt><trkpt lat="42.26065237296289" lon="13.954036159299164"><ele>153.0</ele><time>2026-04-23T12:47:12Z</time></trkpt><trkpt lat="42.26070906092922" lon="13.954284504760308"><ele>148.0</ele><time>2026-04-23T12:47:13Z</time></trkpt><trkpt lat="42.26076350884533" lon="13.954536112011494"><ele>143.0</ele><time>2026-04-23T12:47:14Z</time></trkpt><trkpt lat="42.26082056542103" lon="13.954788412200525"><ele>138.0</ele><time>2026-04-23T12:47:15Z</time></trkpt><trkpt lat="42.26087468071767" lon="13.955045018661975"><ele>138.0</ele><time>2026-04-23T12:47:16Z</time></trkpt><trkpt lat="42.26092775833956" lon="13.95530562496074"><ele>138.0</ele><time>2026-04-23T12:47:17Z</time></trkpt><trkpt lat="42.2609822088989" lon="13.955567852703314"><ele>138.0</ele><time>2026-04-23T12:47:18Z</time></trkpt><trkpt lat="42.26103939288189" lon="13.955833503588757"><ele>138.66666666666666</ele><time>2026-04-23T12:47:19Z</time></trkpt><trkpt lat="42.26109665849808" lon="13.956099685940721"><ele>139.33333333333331</ele><time>2026-04-23T12:47:20Z</time></trkpt><trkpt lat="42.26115892759479" lon="13.956366557715793"><ele>140.0</ele><time>2026-04-23T12:47:21Z</time></trkpt><trkpt lat="42.26122466521345" lon="13.9566291092556"><ele>138.66666666666666</ele><time>2026-04-23T12:47:22Z</time></trkpt><trkpt lat="42.26130199413631" lon="13.956887124748187"><ele>137.33333333333334</ele><time>2026-04-23T12:47:23Z</time></trkpt><trkpt lat="42.26139113744637" lon="13.957138391174455"><ele>136.0</ele><time>2026-04-23T12:47:24Z</time></trkpt><trkpt lat="42.2614821787825" lon="13.957386741934043"><ele>137.66666666666669</ele><time>2026-04-23T12:47:25Z</time></trkpt><trkpt lat="42.2615725690484" lon="13.957634003036864"><ele>139.33333333333334</ele><time>2026-04-23T12:47:26Z</time></trkpt><trkpt lat="42.26166229401652" lon="13.95788206013408"><ele>141.0</ele><time>2026-04-23T12:47:27Z</time></trkpt><trkpt lat="42.2617519483329" lon="13.958130193155379"><ele>142.33333333333334</ele><time>2026-04-23T12:47:28Z</time></trkpt><trkpt lat="42.26184261158361" lon="13.958376576943056"><ele>143.66666666666669</ele><time>2026-04-23T12:47:29Z</time></trkpt><trkpt lat="42.261930483842896" lon="13.958623570098421"><ele>145.0</ele><time>2026-04-23T12:47:30Z</time></trkpt><trkpt lat="42.262009220706254" lon="13.958874695837418"><ele>145.0</ele><time>2026-04-23T12:47:31Z</time></trkpt><trkpt lat="42.262070083884545" lon="13.959132271282426"><ele>145.0</ele><time>2026-04-23T12:47:32Z</time></trkpt><trkpt lat="42.262113549988534" lon="13.959394697716363"><ele>145.0</ele><time>2026-04-23T12:47:33Z</time></trkpt><trkpt lat="42.26214887112284" lon="13.959655940622765"><ele>145.66666666666669</ele><time>2026-04-23T12:47:34Z</time></trkpt><trkpt lat="42.2621823619102" lon="13.959918884398776"><ele>146.33333333333334</ele><time>2026-04-23T12:47:35Z</time></trkpt><trkpt lat="42.26221606934227" lon="13.960179467883313"><ele>147.0</ele><time>2026-04-23T12:47:36Z</time></trkpt><trkpt lat="42.26225059534709" lon="13.960441756164053"><ele>143.0</ele><time>2026-04-23T12:47:37Z</time></trkpt><trkpt lat="42.26228708882782" lon="13.960704789396273"><ele>139.0</ele><time>2026-04-23T12:47:38Z</time></trkpt><trkpt lat="42.26231926823035" lon="13.960967861493675"><ele>135.0</ele><time>2026-04-23T12:47:39Z</time></trkpt><trkpt lat="42.262351272418165" lon="13.961226599280911"><ele>135.0</ele><time>2026-04-23T12:47:40Z</time></trkpt><trkpt lat="42.26238788618144" lon="13.96148210530835"><ele>135.0</ele><time>2026-04-23T12:47:41Z</time></trkpt><trkpt lat="42.26242586229595" lon="13.961737114640517"><ele>135.0</ele><time>2026-04-23T12:47:42Z</time></trkpt><trkpt lat="42.262462437268226" lon="13.96198864151727"><ele>135.33333333333334</ele><time>2026-04-23T12:47:43Z</time></trkpt><trkpt lat="42.26250019048138" lon="13.962236348239752"><ele>135.66666666666669</ele><time>2026-04-23T12:47:44Z</time></trkpt><trkpt lat="42.26254702178749" lon="13.962472044069282"><ele>136.0</ele><time>2026-04-23T12:47:45Z</time></trkpt><trkpt lat="42.26259150572182" lon="13.962700427364027"><ele>137.0</ele><time>2026-04-23T12:47:46Z</time></trkpt><trkpt lat="42.262664017294746" lon="13.96291578230789"><ele>138.0</ele><time>2026-04-23T12:47:47Z</time></trkpt><trkpt lat="42.26275162074237" lon="13.963143389575409"><ele>139.0</ele><time>2026-04-23T12:47:48Z</time></trkpt><trkpt lat="42.262862762232714" lon="13.963327263554483"><ele>138.0</ele><time>2026-04-23T12:47:48.999Z</time></trkpt><trkpt lat="42.262988683067206" lon="13.963511174591401"><ele>137.0</ele><time>2026-04-23T12:47:49.999Z</time></trkpt><trkpt lat="42.26311814092977" lon="13.963693438685482"><ele>136.0</ele><time>2026-04-23T12:47:50.999Z</time></trkpt><trkpt lat="42.263248415208565" lon="13.963874085170046"><ele>136.0</ele><time>2026-04-23T12:47:51.999Z</time></trkpt><trkpt lat="42.26338219112023" lon="13.964054460123023"><ele>136.0</ele><time>2026-04-23T12:47:52.999Z</time></trkpt><trkpt lat="42.2635172005213" lon="13.964239269160805"><ele>136.0</ele><time>2026-04-23T12:47:53.999Z</time></trkpt><trkpt lat="42.26365210014664" lon="13.96442664457915"><ele>136.33333333333334</ele><time>2026-04-23T12:47:54.999Z</time></trkpt><trkpt lat="42.26378815721602" lon="13.964611899002568"><ele>136.66666666666666</ele><time>2026-04-23T12:47:55.999Z</time></trkpt><trkpt lat="42.26392539001463" lon="13.964796202372606"><ele>137.0</ele><time>2026-04-23T12:47:56.999Z</time></trkpt><trkpt lat="42.26406189235257" lon="13.96497993687179"><ele>139.0</ele><time>2026-04-23T12:47:57.999Z</time></trkpt><trkpt lat="42.264196970987776" lon="13.965162176828574"><ele>141.0</ele><time>2026-04-23T12:47:58.999Z</time></trkpt><trkpt lat="42.26433060866368" lon="13.965344793331889"><ele>143.0</ele><time>2026-04-23T12:47:59.999Z</time></trkpt><trkpt lat="42.26445739659655" lon="13.965525168222934"><ele>143.0</ele><time>2026-04-23T12:48:00.999Z</time></trkpt><trkpt lat="42.26454881573233" lon="13.96573660496289"><ele>143.0</ele><time>2026-04-23T12:48:01.999Z</time></trkpt><trkpt lat="42.26462472591254" lon="13.965958805799586"><ele>143.0</ele><time>2026-04-23T12:48:02.999Z</time></trkpt><trkpt lat="42.264688190667826" lon="13.966193398985823"><ele>144.0</ele><time>2026-04-23T12:48:03.999Z</time></trkpt><trkpt lat="42.26475013665695" lon="13.966430287236884"><ele>145.0</ele><time>2026-04-23T12:48:04.999Z</time></trkpt><trkpt lat="42.26482088816232" lon="13.966669484135647"><ele>146.0</ele><time>2026-04-23T12:48:05.999Z</time></trkpt><trkpt lat="42.26487708350204" lon="13.966924201419875"><ele>144.33333333333331</ele><time>2026-04-23T12:48:06.999Z</time></trkpt><trkpt lat="42.26494169879768" lon="13.967185718611441"><ele>142.66666666666666</ele><time>2026-04-23T12:48:07.999Z</time></trkpt><trkpt lat="42.265007137631784" lon="13.967445544427497"><ele>141.0</ele><time>2026-04-23T12:48:08.999Z</time></trkpt><trkpt lat="42.26506905773254" lon="13.967696432617533"><ele>141.0</ele><time>2026-04-23T12:48:09.999Z</time></trkpt><trkpt lat="42.26513570429244" lon="13.967951426155322"><ele>141.0</ele><time>2026-04-23T12:48:10.999Z</time></trkpt><trkpt lat="42.265200331068456" lon="13.968204155684768"><ele>141.0</ele><time>2026-04-23T12:48:12Z</time></trkpt><trkpt lat="42.265266432484374" lon="13.96845298259533"><ele>143.33333333333334</ele><time>2026-04-23T12:48:13Z</time></trkpt><trkpt lat="42.26533151707792" lon="13.968702525555228"><ele>145.66666666666669</ele><time>2026-04-23T12:48:14Z</time></trkpt><trkpt lat="42.26540217738633" lon="13.968946983018006"><ele>148.0</ele><time>2026-04-23T12:48:15Z</time></trkpt><trkpt lat="42.26547012094552" lon="13.969191769966697"><ele>146.33333333333334</ele><time>2026-04-23T12:48:16Z</time></trkpt><trkpt lat="42.26553801817752" lon="13.969436267964205"><ele>144.66666666666666</ele><time>2026-04-23T12:48:17Z</time></trkpt><trkpt lat="42.265605182986654" lon="13.969683072078245"><ele>143.0</ele><time>2026-04-23T12:48:18Z</time></trkpt><trkpt lat="42.26567220722092" lon="13.969923357621646"><ele>143.33333333333331</ele><time>2026-04-23T12:48:19Z</time></trkpt><trkpt lat="42.26573728402441" lon="13.970156568735188"><ele>143.66666666666666</ele><time>2026-04-23T12:48:20Z</time></trkpt><trkpt lat="42.26579255478862" lon="13.97039015442615"><ele>144.0</ele><time>2026-04-23T12:48:21Z</time></trkpt><trkpt lat="42.26583147607626" lon="13.970615538661733"><ele>144.0</ele><time>2026-04-23T12:48:22Z</time></trkpt><trkpt lat="42.265846869833545" lon="13.970845887958461"><ele>144.0</ele><time>2026-04-23T12:48:23Z</time></trkpt><trkpt lat="42.26584229728079" lon="13.971077745215677"><ele>144.0</ele><time>2026-04-23T12:48:24Z</time></trkpt><trkpt lat="42.26582166521077" lon="13.971311623103258"><ele>143.66666666666666</ele><time>2026-04-23T12:48:25Z</time></trkpt><trkpt lat="42.26579265639985" lon="13.971548048348444"><ele>143.33333333333331</ele><time>2026-04-23T12:48:26Z</time></trkpt><trkpt lat="42.26576766141416" lon="13.971790607877226"><ele>143.0</ele><time>2026-04-23T12:48:27Z</time></trkpt><trkpt lat="42.26575010638339" lon="13.972026777425615"><ele>142.33333333333331</ele><time>2026-04-23T12:48:28Z</time></trkpt><trkpt lat="42.26572995092706" lon="13.972267457097958"><ele>141.66666666666666</ele><time>2026-04-23T12:48:29Z</time></trkpt><trkpt lat="42.26571037700302" lon="13.972500921042158"><ele>141.0</ele><time>2026-04-23T12:48:30Z</time></trkpt><trkpt lat="42.265696191466674" lon="13.972730775850842"><ele>141.0</ele><time>2026-04-23T12:48:31Z</time></trkpt><trkpt lat="42.265671694168155" lon="13.9729654575965"><ele>141.0</ele><time>2026-04-23T12:48:32Z</time></trkpt><trkpt lat="42.265662613047795" lon="13.9731938783026"><ele>141.0</ele><time>2026-04-23T12:48:33Z</time></trkpt><trkpt lat="42.26568057190119" lon="13.973419869760004"><ele>142.0</ele><time>2026-04-23T12:48:34Z</time></trkpt><trkpt lat="42.265727878775834" lon="13.973641324633345"><ele>143.0</ele><time>2026-04-23T12:48:35Z</time></trkpt><trkpt lat="42.265795975141955" lon="13.973868270715485"><ele>144.0</ele><time>2026-04-23T12:48:36Z</time></trkpt><trkpt lat="42.265875711561016" lon="13.974084019476363"><ele>147.0</ele><time>2026-04-23T12:48:37Z</time></trkpt><trkpt lat="42.2659624667456" lon="13.97429289596977"><ele>150.0</ele><time>2026-04-23T12:48:38Z</time></trkpt><trkpt lat="42.266048274234066" lon="13.974506782400974"><ele>153.0</ele><time>2026-04-23T12:48:39Z</time></trkpt><trkpt lat="42.26613325662191" lon="13.97472772232794"><ele>153.0</ele><time>2026-04-23T12:48:40Z</time></trkpt><trkpt lat="42.26621595563879" lon="13.974938765589926"><ele>153.0</ele><time>2026-04-23T12:48:41Z</time></trkpt><trkpt lat="42.266300426863396" lon="13.97514933860589"><ele>153.0</ele><time>2026-04-23T12:48:42Z</time></trkpt><trkpt lat="42.26637945376071" lon="13.975355573902883"><ele>153.0</ele><time>2026-04-23T12:48:43Z</time></trkpt><trkpt lat="42.26645349836209" lon="13.975560525365472"><ele>153.0</ele><time>2026-04-23T12:48:44Z</time></trkpt><trkpt lat="42.26650989802591" lon="13.975758789114497"><ele>153.0</ele><time>2026-04-23T12:48:45Z</time></trkpt><trkpt lat="42.26654289602219" lon="13.975966544014918"><ele>153.0</ele><time>2026-04-23T12:48:46Z</time></trkpt><trkpt lat="42.2665513349694" lon="13.976178655806423"><ele>153.0</ele><time>2026-04-23T12:48:47Z</time></trkpt><trkpt lat="42.26654439163619" lon="13.97639498003466"><ele>153.0</ele><time>2026-04-23T12:48:48Z</time></trkpt><trkpt lat="42.26653968864245" lon="13.976618436299045"><ele>154.0</ele><time>2026-04-23T12:48:49Z</time></trkpt><trkpt lat="42.26654350033377" lon="13.976848721812258"><ele>155.0</ele><time>2026-04-23T12:48:50Z</time></trkpt><trkpt lat="42.26654888442495" lon="13.97708211007793"><ele>156.0</ele><time>2026-04-23T12:48:51Z</time></trkpt><trkpt lat="42.26655789017016" lon="13.977312507918738"><ele>156.0</ele><time>2026-04-23T12:48:52Z</time></trkpt><trkpt lat="42.2665679437142" lon="13.977550514771938"><ele>156.0</ele><time>2026-04-23T12:48:53Z</time></trkpt><trkpt lat="42.26658068610193" lon="13.977792741130752"><ele>156.0</ele><time>2026-04-23T12:48:54Z</time></trkpt><trkpt lat="42.26659723005737" lon="13.978029289767871"><ele>156.0</ele><time>2026-04-23T12:48:55Z</time></trkpt><trkpt lat="42.26660993725816" lon="13.97828016983921"><ele>156.0</ele><time>2026-04-23T12:48:56Z</time></trkpt><trkpt lat="42.26663829909773" lon="13.978764369709262"><ele>156.66666666666666</ele><time>2026-04-23T12:48:58Z</time></trkpt><trkpt lat="42.26665131067307" lon="13.979016975565171"><ele>157.33333333333331</ele><time>2026-04-23T12:48:59Z</time></trkpt><trkpt lat="42.26666895694099" lon="13.97926334117833"><ele>158.0</ele><time>2026-04-23T12:49:00Z</time></trkpt><trkpt lat="42.26668497199261" lon="13.97950734130694"><ele>159.0</ele><time>2026-04-23T12:49:01Z</time></trkpt><trkpt lat="42.26670036341816" lon="13.979747009812769"><ele>160.0</ele><time>2026-04-23T12:49:02Z</time></trkpt><trkpt lat="42.26671535247407" lon="13.979972772719629"><ele>161.0</ele><time>2026-04-23T12:49:03Z</time></trkpt><trkpt lat="42.266727636083104" lon="13.980195774060698"><ele>161.66666666666666</ele><time>2026-04-23T12:49:04Z</time></trkpt><trkpt lat="42.26673814934043" lon="13.980408759101604"><ele>162.33333333333334</ele><time>2026-04-23T12:49:05Z</time></trkpt><trkpt lat="42.26674851705409" lon="13.980624780848766"><ele>163.0</ele><time>2026-04-23T12:49:06Z</time></trkpt><trkpt lat="42.26675977950978" lon="13.980837941713187"><ele>163.33333333333334</ele><time>2026-04-23T12:49:07Z</time></trkpt><trkpt lat="42.26677117616836" lon="13.981054047857477"><ele>163.66666666666666</ele><time>2026-04-23T12:49:08Z</time></trkpt><trkpt lat="42.26678487214138" lon="13.981264544172756"><ele>164.0</ele><time>2026-04-23T12:49:09Z</time></trkpt><trkpt lat="42.266796585621854" lon="13.981472045510873"><ele>164.0</ele><time>2026-04-23T12:49:10Z</time></trkpt><trkpt lat="42.26680582012763" lon="13.98166570166293"><ele>164.0</ele><time>2026-04-23T12:49:11Z</time></trkpt><trkpt lat="42.266816577869626" lon="13.981860398625145"><ele>164.0</ele><time>2026-04-23T12:49:12Z</time></trkpt><trkpt lat="42.266829278819955" lon="13.982049924987786"><ele>164.0</ele><time>2026-04-23T12:49:13Z</time></trkpt><trkpt lat="42.266840499965205" lon="13.982231878111117"><ele>163.6</ele><time>2026-04-23T12:49:14Z</time></trkpt><trkpt lat="42.26684834998556" lon="13.982401573993142"><ele>163.2</ele><time>2026-04-23T12:49:15Z</time></trkpt><trkpt lat="42.26685651530518" lon="13.982559431773085"><ele>162.79999999999998</ele><time>2026-04-23T12:49:16Z</time></trkpt><trkpt lat="42.266851439260634" lon="13.982686967274386"><ele>162.39999999999998</ele><time>2026-04-23T12:49:17Z</time></trkpt><trkpt lat="42.26681902411575" lon="13.982776114040071"><ele>162.0</ele><time>2026-04-23T12:49:18Z</time></trkpt><trkpt lat="42.26666727142211" lon="13.982845791795265"><ele>162.0</ele><time>2026-04-23T12:49:20Z</time></trkpt><trkpt lat="42.266571837635944" lon="13.982851827772315"><ele>162.0</ele><time>2026-04-23T12:49:21Z</time></trkpt><trkpt lat="42.26647854130186" lon="13.982872227069146"><ele>162.0</ele><time>2026-04-23T12:49:22Z</time></trkpt><trkpt lat="42.26637436905548" lon="13.982853390303728"><ele>162.0</ele><time>2026-04-23T12:49:23Z</time></trkpt><trkpt lat="42.26626573145152" lon="13.982825428729502"><ele>162.0</ele><time>2026-04-23T12:49:24Z</time></trkpt><trkpt lat="42.26615680487572" lon="13.982768513376143"><ele>164.0</ele><time>2026-04-23T12:49:25Z</time></trkpt><trkpt lat="42.266057071269316" lon="13.982680970751183"><ele>166.0</ele><time>2026-04-23T12:49:26Z</time></trkpt><trkpt lat="42.26598444229257" lon="13.982563696117127"><ele>168.0</ele><time>2026-04-23T12:49:27Z</time></trkpt><trkpt lat="42.265944332531504" lon="13.982424435691373"><ele>170.0</ele><time>2026-04-23T12:49:28Z</time></trkpt><trkpt lat="42.265877825670394" lon="13.982293354044254"><ele>170.0</ele><time>2026-04-23T12:49:29Z</time></trkpt><trkpt lat="42.265834816770976" lon="13.982130586287882"><ele>170.0</ele><time>2026-04-23T12:49:30Z</time></trkpt><trkpt lat="42.2657884196378" lon="13.981953963757457"><ele>170.0</ele><time>2026-04-23T12:49:31Z</time></trkpt><trkpt lat="42.26573174742132" lon="13.98175673177428"><ele>170.0</ele><time>2026-04-23T12:49:32Z</time></trkpt><trkpt lat="42.26568053867855" lon="13.981548708744763"><ele>170.0</ele><time>2026-04-23T12:49:33Z</time></trkpt><trkpt lat="42.26561488708474" lon="13.981338918802594"><ele>170.0</ele><time>2026-04-23T12:49:34Z</time></trkpt><trkpt lat="42.26554195023777" lon="13.981129020950883"><ele>170.0</ele><time>2026-04-23T12:49:35Z</time></trkpt><trkpt lat="42.265449013285284" lon="13.980922056897075"><ele>175.33333333333331</ele><time>2026-04-23T12:49:36Z</time></trkpt><trkpt lat="42.26537350806574" lon="13.980701999846291"><ele>180.66666666666666</ele><time>2026-04-23T12:49:37Z</time></trkpt><trkpt lat="42.2652891918967" lon="13.980462172570604"><ele>186.0</ele><time>2026-04-23T12:49:38Z</time></trkpt><trkpt lat="42.26520120001363" lon="13.980230446220261"><ele>184.33333333333334</ele><time>2026-04-23T12:49:39Z</time></trkpt><trkpt lat="42.265113188611465" lon="13.979995306544762"><ele>182.66666666666669</ele><time>2026-04-23T12:49:40Z</time></trkpt><trkpt lat="42.26502162173914" lon="13.979743937473632"><ele>181.0</ele><time>2026-04-23T12:49:41Z</time></trkpt><trkpt lat="42.26492748812077" lon="13.979506465154415"><ele>181.0</ele><time>2026-04-23T12:49:42Z</time></trkpt><trkpt lat="42.26484371108958" lon="13.979259252820034"><ele>181.0</ele><time>2026-04-23T12:49:43Z</time></trkpt><trkpt lat="42.26476034081414" lon="13.979015684915897"><ele>181.0</ele><time>2026-04-23T12:49:44Z</time></trkpt><trkpt lat="42.26468444904528" lon="13.978767992871118"><ele>185.66666666666669</ele><time>2026-04-23T12:49:45Z</time></trkpt><trkpt lat="42.264616708307514" lon="13.978516418225867"><ele>190.33333333333334</ele><time>2026-04-23T12:49:46Z</time></trkpt><trkpt lat="42.26455547038902" lon="13.97826233177818"><ele>195.0</ele><time>2026-04-23T12:49:47Z</time></trkpt><trkpt lat="42.264499097162066" lon="13.978008056888283"><ele>195.0</ele><time>2026-04-23T12:49:48Z</time></trkpt><trkpt lat="42.26444312414039" lon="13.977762021795867"><ele>195.0</ele><time>2026-04-23T12:49:49Z</time></trkpt><trkpt lat="42.264382630034824" lon="13.977538314327061"><ele>195.0</ele><time>2026-04-23T12:49:50Z</time></trkpt><trkpt lat="42.26431408171117" lon="13.977339124140341"><ele>195.0</ele><time>2026-04-23T12:49:51Z</time></trkpt><trkpt lat="42.26422561342487" lon="13.977162147752574"><ele>195.0</ele><time>2026-04-23T12:49:52Z</time></trkpt><trkpt lat="42.26410436543786" lon="13.977011408989188"><ele>195.0</ele><time>2026-04-23T12:49:53Z</time></trkpt><trkpt lat="42.263956563646836" lon="13.976893892215065"><ele>196.66666666666669</ele><time>2026-04-23T12:49:54Z</time></trkpt><trkpt lat="42.263796646433626" lon="13.976795775453912"><ele>198.33333333333334</ele><time>2026-04-23T12:49:55Z</time></trkpt><trkpt lat="42.26363380532503" lon="13.976698348581056"><ele>200.0</ele><time>2026-04-23T12:49:56Z</time></trkpt><trkpt lat="42.26347341774924" lon="13.976597501090044"><ele>200.0</ele><time>2026-04-23T12:49:57Z</time></trkpt><trkpt lat="42.2633134902011" lon="13.976484524472168"><ele>200.0</ele><time>2026-04-23T12:49:58Z</time></trkpt><trkpt lat="42.263173898457865" lon="13.976371812513218"><ele>200.0</ele><time>2026-04-23T12:49:59Z</time></trkpt><trkpt lat="42.26305766070165" lon="13.976243341851209"><ele>202.25</ele><time>2026-04-23T12:50:00Z</time></trkpt><trkpt lat="42.26295945025238" lon="13.976118188251048"><ele>204.5</ele><time>2026-04-23T12:50:01Z</time></trkpt><trkpt lat="42.2628615768987" lon="13.976022554754945"><ele>206.75</ele><time>2026-04-23T12:50:02Z</time></trkpt><trkpt lat="42.262746814343586" lon="13.975978435624032"><ele>209.0</ele><time>2026-04-23T12:50:03Z</time></trkpt><trkpt lat="42.26262420848213" lon="13.975992356765266"><ele>209.0</ele><time>2026-04-23T12:50:04Z</time></trkpt><trkpt lat="42.26252469551477" lon="13.976064574981635"><ele>209.0</ele><time>2026-04-23T12:50:05Z</time></trkpt><trkpt lat="42.26246614809203" lon="13.976182176759565"><ele>209.0</ele><time>2026-04-23T12:50:06Z</time></trkpt><trkpt lat="42.26244143891873" lon="13.976340085444573"><ele>209.0</ele><time>2026-04-23T12:50:07Z</time></trkpt><trkpt lat="42.26245611914828" lon="13.976517513865478"><ele>211.33333333333334</ele><time>2026-04-23T12:50:08Z</time></trkpt><trkpt lat="42.262504667964215" lon="13.97669902186917"><ele>213.66666666666669</ele><time>2026-04-23T12:50:09Z</time></trkpt><trkpt lat="42.2625702299396" lon="13.976884819331088"><ele>216.0</ele><time>2026-04-23T12:50:10Z</time></trkpt><trkpt lat="42.26263603385084" lon="13.977079767606693"><ele>216.0</ele><time>2026-04-23T12:50:11Z</time></trkpt><trkpt lat="42.26269628009338" lon="13.97728497442661"><ele>216.0</ele><time>2026-04-23T12:50:12Z</time></trkpt><trkpt lat="42.26274846797357" lon="13.977487487440733"><ele>216.0</ele><time>2026-04-23T12:50:13Z</time></trkpt><trkpt lat="42.262799651384974" lon="13.977702672331564"><ele>218.66666666666669</ele><time>2026-04-23T12:50:14Z</time></trkpt><trkpt lat="42.262843472806544" lon="13.97792956174767"><ele>221.33333333333334</ele><time>2026-04-23T12:50:15Z</time></trkpt><trkpt lat="42.26288482110462" lon="13.978156952148586"><ele>224.0</ele><time>2026-04-23T12:50:16Z</time></trkpt><trkpt lat="42.26292008679973" lon="13.978394220258405"><ele>226.0</ele><time>2026-04-23T12:50:17Z</time></trkpt><trkpt lat="42.262953577409085" lon="13.978622451794406"><ele>228.0</ele><time>2026-04-23T12:50:18Z</time></trkpt><trkpt lat="42.26298211615746" lon="13.978841107609053"><ele>230.0</ele><time>2026-04-23T12:50:19Z</time></trkpt><trkpt lat="42.26299953809054" lon="13.979050318924596"><ele>230.25</ele><time>2026-04-23T12:50:20Z</time></trkpt><trkpt lat="42.263003203507836" lon="13.979239541551276"><ele>230.5</ele><time>2026-04-23T12:50:21Z</time></trkpt><trkpt lat="42.262995255436245" lon="13.979397729191566"><ele>230.75</ele><time>2026-04-23T12:50:22Z</time></trkpt><trkpt lat="42.26295759485555" lon="13.97955538653174"><ele>231.0</ele><time>2026-04-23T12:50:23Z</time></trkpt><trkpt lat="42.26288230093233" lon="13.979708990261186"><ele>231.0</ele><time>2026-04-23T12:50:24Z</time></trkpt><trkpt lat="42.26278167057748" lon="13.979854796483664"><ele>231.0</ele><time>2026-04-23T12:50:25Z</time></trkpt><trkpt lat="42.26267280543678" lon="13.979969101129003"><ele>231.0</ele><time>2026-04-23T12:50:26Z</time></trkpt><trkpt lat="42.26255945158432" lon="13.98002727114042"><ele>231.0</ele><time>2026-04-23T12:50:27Z</time></trkpt><trkpt lat="42.26243524904215" lon="13.980047624448911"><ele>231.0</ele><time>2026-04-23T12:50:28Z</time></trkpt><trkpt lat="42.262308131165334" lon="13.98002313787886"><ele>231.0</ele><time>2026-04-23T12:50:29Z</time></trkpt><trkpt lat="42.262196035274826" lon="13.979941975968526"><ele>231.0</ele><time>2026-04-23T12:50:30Z</time></trkpt><trkpt lat="42.26211449797042" lon="13.979814779617085"><ele>231.0</ele><time>2026-04-23T12:50:31Z</time></trkpt><trkpt lat="42.26205777857012" lon="13.979651247288414"><ele>233.0</ele><time>2026-04-23T12:50:32Z</time></trkpt><trkpt lat="42.26204092602099" lon="13.979454904498974"><ele>235.0</ele><time>2026-04-23T12:50:33Z</time></trkpt><trkpt lat="42.26199378879076" lon="13.97925725563641"><ele>237.0</ele><time>2026-04-23T12:50:34Z</time></trkpt><trkpt lat="42.26196219514319" lon="13.979054995414335"><ele>237.0</ele><time>2026-04-23T12:50:35Z</time></trkpt><trkpt lat="42.26191290304661" lon="13.978855722731673"><ele>237.0</ele><time>2026-04-23T12:50:36Z</time></trkpt><trkpt lat="42.26183543718632" lon="13.978666269305396"><ele>237.0</ele><time>2026-04-23T12:50:37Z</time></trkpt><trkpt lat="42.261728630211806" lon="13.978501831508392"><ele>237.0</ele><time>2026-04-23T12:50:38Z</time></trkpt><trkpt lat="42.26159768796871" lon="13.978360953971581"><ele>237.0</ele><time>2026-04-23T12:50:39Z</time></trkpt><trkpt lat="42.26144961565631" lon="13.97824155637059"><ele>237.0</ele><time>2026-04-23T12:50:40Z</time></trkpt><trkpt lat="42.26129809951393" lon="13.978133407101204"><ele>240.33333333333331</ele><time>2026-04-23T12:50:41Z</time></trkpt><trkpt lat="42.261143820388995" lon="13.978026499939642"><ele>243.66666666666666</ele><time>2026-04-23T12:50:42Z</time></trkpt><trkpt lat="42.260991280898594" lon="13.977918245563869"><ele>247.0</ele><time>2026-04-23T12:50:43Z</time></trkpt><trkpt lat="42.2608293341839" lon="13.977796255360936"><ele>247.0</ele><time>2026-04-23T12:50:44Z</time></trkpt><trkpt lat="42.260671395904964" lon="13.977679859880391"><ele>247.0</ele><time>2026-04-23T12:50:45Z</time></trkpt><trkpt lat="42.2605127115503" lon="13.97756227947682"><ele>247.0</ele><time>2026-04-23T12:50:46Z</time></trkpt><trkpt lat="42.260353956577" lon="13.977449850542408"><ele>249.0</ele><time>2026-04-23T12:50:47Z</time></trkpt><trkpt lat="42.26018816444366" lon="13.977346039281189"><ele>251.0</ele><time>2026-04-23T12:50:48Z</time></trkpt><trkpt lat="42.26001400111296" lon="13.97724773835566"><ele>253.0</ele><time>2026-04-23T12:50:49Z</time></trkpt><trkpt lat="42.25983657959055" lon="13.977147340635291"><ele>258.0</ele><time>2026-04-23T12:50:50Z</time></trkpt><trkpt lat="42.2596560663596" lon="13.977049337314435"><ele>263.0</ele><time>2026-04-23T12:50:51Z</time></trkpt><trkpt lat="42.259476150267766" lon="13.976953759024118"><ele>268.0</ele><time>2026-04-23T12:50:52Z</time></trkpt><trkpt lat="42.25930147086291" lon="13.976859514451531"><ele>268.0</ele><time>2026-04-23T12:50:53Z</time></trkpt><trkpt lat="42.25912016340292" lon="13.97675588478978"><ele>268.0</ele><time>2026-04-23T12:50:54Z</time></trkpt><trkpt lat="42.258942467444605" lon="13.976652053235387"><ele>268.0</ele><time>2026-04-23T12:50:55Z</time></trkpt><trkpt lat="42.258767927759465" lon="13.9765532580089"><ele>268.66666666666663</ele><time>2026-04-23T12:50:56Z</time></trkpt><trkpt lat="42.25859515909628" lon="13.97645169365173"><ele>269.3333333333333</ele><time>2026-04-23T12:50:57Z</time></trkpt><trkpt lat="42.25842648215672" lon="13.976355765603"><ele>270.0</ele><time>2026-04-23T12:50:58Z</time></trkpt><trkpt lat="42.25825655414922" lon="13.976271284968611"><ele>273.3333333333333</ele><time>2026-04-23T12:50:59Z</time></trkpt><trkpt lat="42.25808424736782" lon="13.976223178515177"><ele>276.66666666666663</ele><time>2026-04-23T12:51:00Z</time></trkpt><trkpt lat="42.25790592495508" lon="13.976195894413454"><ele>280.0</ele><time>2026-04-23T12:51:01Z</time></trkpt><trkpt lat="42.25772320846474" lon="13.976213667971729"><ele>280.0</ele><time>2026-04-23T12:51:02Z</time></trkpt><trkpt lat="42.25753494875759" lon="13.976207477592558"><ele>280.0</ele><time>2026-04-23T12:51:03Z</time></trkpt><trkpt lat="42.25735067724336" lon="13.976207872984482"><ele>280.0</ele><time>2026-04-23T12:51:04Z</time></trkpt><trkpt lat="42.25716280271801" lon="13.97616654604614"><ele>282.66666666666663</ele><time>2026-04-23T12:51:05Z</time></trkpt><trkpt lat="42.256977464070445" lon="13.976097161897027"><ele>285.3333333333333</ele><time>2026-04-23T12:51:06Z</time></trkpt><trkpt lat="42.25679405858523" lon="13.976009117485468"><ele>288.0</ele><time>2026-04-23T12:51:07Z</time></trkpt><trkpt lat="42.2566092440616" lon="13.975916051517439"><ele>288.0</ele><time>2026-04-23T12:51:08Z</time></trkpt><trkpt lat="42.256422994561575" lon="13.975827120158067"><ele>288.0</ele><time>2026-04-23T12:51:09Z</time></trkpt><trkpt lat="42.25623860976821" lon="13.9757459765688"><ele>288.0</ele><time>2026-04-23T12:51:10Z</time></trkpt><trkpt lat="42.25605055602595" lon="13.975678551699552"><ele>288.0</ele><time>2026-04-23T12:51:11Z</time></trkpt><trkpt lat="42.255858113322404" lon="13.975642826020893"><ele>288.0</ele><time>2026-04-23T12:51:12Z</time></trkpt><trkpt lat="42.25566378966986" lon="13.975635259962838"><ele>288.0</ele><time>2026-04-23T12:51:13Z</time></trkpt><trkpt lat="42.25546947529254" lon="13.975643626675252"><ele>290.3333333333333</ele><time>2026-04-23T12:51:14Z</time></trkpt><trkpt lat="42.25527393901779" lon="13.975626737660905"><ele>292.66666666666663</ele><time>2026-04-23T12:51:15Z</time></trkpt><trkpt lat="42.255078541582414" lon="13.975572526565992"><ele>295.0</ele><time>2026-04-23T12:51:16Z</time></trkpt><trkpt lat="42.25488640659256" lon="13.975490426509152"><ele>298.66666666666663</ele><time>2026-04-23T12:51:17Z</time></trkpt><trkpt lat="42.254705147498626" lon="13.975386505505536"><ele>302.3333333333333</ele><time>2026-04-23T12:51:18Z</time></trkpt><trkpt lat="42.25454221588861" lon="13.975268959503959"><ele>306.0</ele><time>2026-04-23T12:51:19Z</time></trkpt><trkpt lat="42.25440000335837" lon="13.975153073063103"><ele>306.0</ele><time>2026-04-23T12:51:20Z</time></trkpt><trkpt lat="42.25427145984472" lon="13.975048583847006"><ele>306.0</ele><time>2026-04-23T12:51:21Z</time></trkpt><trkpt lat="42.25414408853797" lon="13.974954400092821"><ele>306.0</ele><time>2026-04-23T12:51:22Z</time></trkpt><trkpt lat="42.25402476250813" lon="13.97486293160221"><ele>306.0</ele><time>2026-04-23T12:51:23Z</time></trkpt><trkpt lat="42.25392463613622" lon="13.974781047918876"><ele>304.3333333333333</ele><time>2026-04-23T12:51:24Z</time></trkpt><trkpt lat="42.253835679132116" lon="13.974721270686645"><ele>302.6666666666667</ele><time>2026-04-23T12:51:25Z</time></trkpt><trkpt lat="42.25374820558914" lon="13.974699409295633"><ele>301.0</ele><time>2026-04-23T12:51:26Z</time></trkpt><trkpt lat="42.2536750600333" lon="13.97473040436546"><ele>299.33333333333337</ele><time>2026-04-23T12:51:27Z</time></trkpt><trkpt lat="42.253630764120274" lon="13.974809632441094"><ele>297.6666666666667</ele><time>2026-04-23T12:51:28Z</time></trkpt><trkpt lat="42.253606436947635" lon="13.974914804159054"><ele>296.0</ele><time>2026-04-23T12:51:29Z</time></trkpt><trkpt lat="42.25362522101791" lon="13.975046249492612"><ele>296.0</ele><time>2026-04-23T12:51:30Z</time></trkpt><trkpt lat="42.25366334720917" lon="13.975190795840934"><ele>296.0</ele><time>2026-04-23T12:51:31Z</time></trkpt><trkpt lat="42.253711794994054" lon="13.975345007470555"><ele>296.0</ele><time>2026-04-23T12:51:32Z</time></trkpt><trkpt lat="42.25375462110343" lon="13.975500436151973"><ele>296.0</ele><time>2026-04-23T12:51:33Z</time></trkpt><trkpt lat="42.25379716228331" lon="13.975669478481157"><ele>296.0</ele><time>2026-04-23T12:51:34Z</time></trkpt><trkpt lat="42.25383955643318" lon="13.97584209969598"><ele>296.0</ele><time>2026-04-23T12:51:35Z</time></trkpt><trkpt lat="42.25388482740258" lon="13.976019805221751"><ele>296.0</ele><time>2026-04-23T12:51:36Z</time></trkpt><trkpt lat="42.2539305868394" lon="13.97619996235647"><ele>296.0</ele><time>2026-04-23T12:51:37Z</time></trkpt><trkpt lat="42.25397458213194" lon="13.976382350135305"><ele>299.75</ele><time>2026-04-23T12:51:38Z</time></trkpt><trkpt lat="42.25401876873846" lon="13.976565788319895"><ele>303.5</ele><time>2026-04-23T12:51:39Z</time></trkpt><trkpt lat="42.25405972920015" lon="13.976742101725502"><ele>307.25</ele><time>2026-04-23T12:51:40Z</time></trkpt><trkpt lat="42.25409028415213" lon="13.97692045265725"><ele>311.0</ele><time>2026-04-23T12:51:41Z</time></trkpt><trkpt lat="42.25410298858732" lon="13.977103815449718"><ele>312.75</ele><time>2026-04-23T12:51:42Z</time></trkpt><trkpt lat="42.254091092880486" lon="13.977285964676533"><ele>314.5</ele><time>2026-04-23T12:51:43Z</time></trkpt><trkpt lat="42.25405214642036" lon="13.97746154883087"><ele>316.25</ele><time>2026-04-23T12:51:44Z</time></trkpt><trkpt lat="42.2539938084649" lon="13.977626987563411"><ele>318.0</ele><time>2026-04-23T12:51:45Z</time></trkpt><trkpt lat="42.25393124459024" lon="13.977784220010316"><ele>318.75</ele><time>2026-04-23T12:51:46Z</time></trkpt><trkpt lat="42.2538706151265" lon="13.977933888744225"><ele>319.5</ele><time>2026-04-23T12:51:47Z</time></trkpt><trkpt lat="42.25380940830047" lon="13.978076424494265"><ele>320.25</ele><time>2026-04-23T12:51:48Z</time></trkpt><trkpt lat="42.253744582873225" lon="13.978216545228754"><ele>321.0</ele><time>2026-04-23T12:51:49Z</time></trkpt><trkpt lat="42.25367813151866" lon="13.978354292665447"><ele>324.25</ele><time>2026-04-23T12:51:50Z</time></trkpt><trkpt lat="42.25360537836609" lon="13.97848795440671"><ele>327.5</ele><time>2026-04-23T12:51:51Z</time></trkpt><trkpt lat="42.25351888828815" lon="13.978608052688564"><ele>330.75</ele><time>2026-04-23T12:51:52Z</time></trkpt><trkpt lat="42.25341826731512" lon="13.978713589218868"><ele>334.0</ele><time>2026-04-23T12:51:53Z</time></trkpt><trkpt lat="42.25329980786421" lon="13.978797201360404"><ele>334.0</ele><time>2026-04-23T12:51:54Z</time></trkpt><trkpt lat="42.25317256697345" lon="13.978865557983802"><ele>334.0</ele><time>2026-04-23T12:51:55Z</time></trkpt><trkpt lat="42.25304345684009" lon="13.97892792480884"><ele>334.0</ele><time>2026-04-23T12:51:56Z</time></trkpt><trkpt lat="42.25292148799617" lon="13.97899021720403"><ele>334.0</ele><time>2026-04-23T12:51:57Z</time></trkpt><trkpt lat="42.2527996560931" lon="13.979054467332325"><ele>333.25</ele><time>2026-04-23T12:51:58Z</time></trkpt><trkpt lat="42.25267709611317" lon="13.979116196858254"><ele>332.5</ele><time>2026-04-23T12:51:59Z</time></trkpt><trkpt lat="42.25255434906586" lon="13.979175180334899"><ele>331.75</ele><time>2026-04-23T12:52:00Z</time></trkpt><trkpt lat="42.252432598285495" lon="13.979234554517406"><ele>331.0</ele><time>2026-04-23T12:52:01Z</time></trkpt><trkpt lat="42.25231463168542" lon="13.979298058713482"><ele>332.0</ele><time>2026-04-23T12:52:02Z</time></trkpt><trkpt lat="42.25220371985919" lon="13.97937111094274"><ele>333.0</ele><time>2026-04-23T12:52:03Z</time></trkpt><trkpt lat="42.252102454413105" lon="13.979466479343262"><ele>334.0</ele><time>2026-04-23T12:52:04Z</time></trkpt><trkpt lat="42.25201246421975" lon="13.979587825190182"><ele>335.0</ele><time>2026-04-23T12:52:05Z</time></trkpt><trkpt lat="42.25192559082512" lon="13.979719686700355"><ele>335.0</ele><time>2026-04-23T12:52:06Z</time></trkpt><trkpt lat="42.25183314401725" lon="13.979849634692666"><ele>335.0</ele><time>2026-04-23T12:52:07Z</time></trkpt><trkpt lat="42.25173793411527" lon="13.979983000990476"><ele>335.0</ele><time>2026-04-23T12:52:08Z</time></trkpt><trkpt lat="42.25164335434484" lon="13.980119797016753"><ele>335.0</ele><time>2026-04-23T12:52:09Z</time></trkpt><trkpt lat="42.25155199912462" lon="13.980259865433178"><ele>336.33333333333337</ele><time>2026-04-23T12:52:10Z</time></trkpt><trkpt lat="42.25146018058252" lon="13.980425584015796"><ele>337.6666666666667</ele><time>2026-04-23T12:52:11Z</time></trkpt><trkpt lat="42.25134493613533" lon="13.980620888051766"><ele>339.0</ele><time>2026-04-23T12:52:12Z</time></trkpt><trkpt lat="42.25123398843138" lon="13.980864840201741"><ele>339.0</ele><time>2026-04-23T12:52:13Z</time></trkpt><trkpt lat="42.251149478552485" lon="13.981101704917219"><ele>339.0</ele><time>2026-04-23T12:52:14Z</time></trkpt><trkpt lat="42.25103944449275" lon="13.98130169072106"><ele>339.0</ele><time>2026-04-23T12:52:15Z</time></trkpt><trkpt lat="42.25092522862619" lon="13.981499751569165"><ele>340.3333333333333</ele><time>2026-04-23T12:52:16Z</time></trkpt><trkpt lat="42.25080712392618" lon="13.981697024174125"><ele>341.66666666666663</ele><time>2026-04-23T12:52:17Z</time></trkpt><trkpt lat="42.250774711588576" lon="13.981854795670651"><ele>343.0</ele><time>2026-04-23T12:52:18Z</time></trkpt><trkpt lat="42.250634232734576" lon="13.981956279247305"><ele>344.0</ele><time>2026-04-23T12:52:19Z</time></trkpt><trkpt lat="42.25050020924794" lon="13.982070310878283"><ele>345.0</ele><time>2026-04-23T12:52:20Z</time></trkpt><trkpt lat="42.25033744880352" lon="13.98210160980783"><ele>346.0</ele><time>2026-04-23T12:52:21Z</time></trkpt><trkpt lat="42.25018507864974" lon="13.98217724324402"><ele>346.0</ele><time>2026-04-23T12:52:22Z</time></trkpt><trkpt lat="42.2500265846486" lon="13.982228129203317"><ele>346.0</ele><time>2026-04-23T12:52:23Z</time></trkpt><trkpt lat="42.24986877073958" lon="13.982285832613565"><ele>346.0</ele><time>2026-04-23T12:52:24Z</time></trkpt><trkpt lat="42.24971192093619" lon="13.982347278080638"><ele>345.66666666666663</ele><time>2026-04-23T12:52:25Z</time></trkpt><trkpt lat="42.2495541507717" lon="13.982397591970487"><ele>345.3333333333333</ele><time>2026-04-23T12:52:26Z</time></trkpt><trkpt lat="42.24939866371401" lon="13.982421917220998"><ele>345.0</ele><time>2026-04-23T12:52:27Z</time></trkpt><trkpt lat="42.24924081031179" lon="13.982392615668601"><ele>345.0</ele><time>2026-04-23T12:52:28Z</time></trkpt><trkpt lat="42.249080081340146" lon="13.982376040739341"><ele>345.0</ele><time>2026-04-23T12:52:29Z</time></trkpt><trkpt lat="42.24891600472503" lon="13.98237804401533"><ele>345.0</ele><time>2026-04-23T12:52:30Z</time></trkpt><trkpt lat="42.24874926386286" lon="13.982355686150616"><ele>346.0</ele><time>2026-04-23T12:52:31Z</time></trkpt><trkpt lat="42.248579291826665" lon="13.982331876753307"><ele>347.0</ele><time>2026-04-23T12:52:32Z</time></trkpt><trkpt lat="42.248404874137414" lon="13.982307760526583"><ele>348.0</ele><time>2026-04-23T12:52:33Z</time></trkpt><trkpt lat="42.24823019499267" lon="13.982280348661462"><ele>348.3333333333333</ele><time>2026-04-23T12:52:34Z</time></trkpt><trkpt lat="42.248053769463304" lon="13.982256709897493"><ele>348.66666666666663</ele><time>2026-04-23T12:52:35Z</time></trkpt><trkpt lat="42.247879373216584" lon="13.982235691377252"><ele>349.0</ele><time>2026-04-23T12:52:36Z</time></trkpt><trkpt lat="42.24770660109622" lon="13.982217257079904"><ele>349.0</ele><time>2026-04-23T12:52:37Z</time></trkpt><trkpt lat="42.24753185630539" lon="13.982206828216448"><ele>349.0</ele><time>2026-04-23T12:52:38Z</time></trkpt><trkpt lat="42.24736710741393" lon="13.982216325876689"><ele>349.0</ele><time>2026-04-23T12:52:39Z</time></trkpt><trkpt lat="42.247216831769286" lon="13.98226335643685"><ele>349.0</ele><time>2026-04-23T12:52:40Z</time></trkpt><trkpt lat="42.24705057953314" lon="13.982330825228532"><ele>349.0</ele><time>2026-04-23T12:52:41Z</time></trkpt><trkpt lat="42.246854806122734" lon="13.982424467193683"><ele>349.0</ele><time>2026-04-23T12:52:42Z</time></trkpt><trkpt lat="42.24664307649296" lon="13.982524433095929"><ele>345.5</ele><time>2026-04-23T12:52:43Z</time></trkpt><trkpt lat="42.24640347941258" lon="13.982639642419247"><ele>342.0</ele><time>2026-04-23T12:52:44Z</time></trkpt><trkpt lat="42.246151602316665" lon="13.982727642952467"><ele>342.0</ele><time>2026-04-23T12:52:45Z</time></trkpt><trkpt lat="42.24591641257214" lon="13.982830552856578"><ele>342.0</ele><time>2026-04-23T12:52:46Z</time></trkpt><trkpt lat="42.24568238914981" lon="13.982932952444521"><ele>345.0</ele><time>2026-04-23T12:52:47Z</time></trkpt><trkpt lat="42.24545838555553" lon="13.98303120917123"><ele>348.0</ele><time>2026-04-23T12:52:48Z</time></trkpt><trkpt lat="42.24524499163866" lon="13.983139834834834"><ele>348.0</ele><time>2026-04-23T12:52:49Z</time></trkpt><trkpt lat="42.24502914954192" lon="13.983221245535889"><ele>348.0</ele><time>2026-04-23T12:52:50Z</time></trkpt><trkpt lat="42.24482675371871" lon="13.983310399463447"><ele>348.0</ele><time>2026-04-23T12:52:51Z</time></trkpt><trkpt lat="42.24461189450996" lon="13.983400438175414"><ele>348.6666666666667</ele><time>2026-04-23T12:52:52Z</time></trkpt><trkpt lat="42.24440329877992" lon="13.983491607861769"><ele>349.33333333333337</ele><time>2026-04-23T12:52:53Z</time></trkpt><trkpt lat="42.24419493270935" lon="13.983578840593214"><ele>350.0</ele><time>2026-04-23T12:52:54Z</time></trkpt><trkpt lat="42.24398594559861" lon="13.983667054488665"><ele>352.33333333333337</ele><time>2026-04-23T12:52:55Z</time></trkpt><trkpt lat="42.24377643474469" lon="13.983757388208955"><ele>354.6666666666667</ele><time>2026-04-23T12:52:56Z</time></trkpt><trkpt lat="42.24356610867462" lon="13.983848350400987"><ele>357.0</ele><time>2026-04-23T12:52:57Z</time></trkpt><trkpt lat="42.24336018637653" lon="13.983939944922398"><ele>357.0</ele><time>2026-04-23T12:52:58Z</time></trkpt><trkpt lat="42.243153363734145" lon="13.984032059060421"><ele>357.0</ele><time>2026-04-23T12:52:59Z</time></trkpt><trkpt lat="42.24295187992533" lon="13.984119104650285"><ele>357.0</ele><time>2026-04-23T12:53:00Z</time></trkpt><trkpt lat="42.242755087029764" lon="13.98420352029826"><ele>357.0</ele><time>2026-04-23T12:53:01Z</time></trkpt><trkpt lat="42.242556543964206" lon="13.984283274250362"><ele>357.0</ele><time>2026-04-23T12:53:02Z</time></trkpt><trkpt lat="42.24236064999509" lon="13.984364832101772"><ele>357.0</ele><time>2026-04-23T12:53:03Z</time></trkpt><trkpt lat="42.24217117626359" lon="13.984453337476875"><ele>361.3333333333333</ele><time>2026-04-23T12:53:04Z</time></trkpt><trkpt lat="42.24198420061955" lon="13.984536882169987"><ele>365.66666666666663</ele><time>2026-04-23T12:53:05Z</time></trkpt><trkpt lat="42.24179478903166" lon="13.984616979507098"><ele>370.0</ele><time>2026-04-23T12:53:06Z</time></trkpt><trkpt lat="42.24161611998163" lon="13.984687837007666"><ele>372.3333333333333</ele><time>2026-04-23T12:53:07Z</time></trkpt><trkpt lat="42.24143997533282" lon="13.98474135910892"><ele>374.6666666666667</ele><time>2026-04-23T12:53:08Z</time></trkpt><trkpt lat="42.2412642022134" lon="13.984763352777279"><ele>377.0</ele><time>2026-04-23T12:53:09Z</time></trkpt><trkpt lat="42.241089139882824" lon="13.984748421909039"><ele>377.0</ele><time>2026-04-23T12:53:10Z</time></trkpt><trkpt lat="42.240911122155524" lon="13.984697881290973"><ele>377.0</ele><time>2026-04-23T12:53:11Z</time></trkpt><trkpt lat="42.24074302293675" lon="13.98459365051071"><ele>377.0</ele><time>2026-04-23T12:53:12Z</time></trkpt><trkpt lat="42.24056204363299" lon="13.984524136425774"><ele>380.0</ele><time>2026-04-23T12:53:13Z</time></trkpt><trkpt lat="42.24038961106593" lon="13.984438345640008"><ele>383.0</ele><time>2026-04-23T12:53:14Z</time></trkpt><trkpt lat="42.24022309557426" lon="13.984369461764894"><ele>386.0</ele><time>2026-04-23T12:53:15Z</time></trkpt><trkpt lat="42.240054343390035" lon="13.984299936256551"><ele>386.0</ele><time>2026-04-23T12:53:16Z</time></trkpt><trkpt lat="42.23989602215302" lon="13.98423501594894"><ele>386.0</ele><time>2026-04-23T12:53:17Z</time></trkpt><trkpt lat="42.23976169610744" lon="13.984180078764469"><ele>386.0</ele><time>2026-04-23T12:53:18Z</time></trkpt><trkpt lat="42.23964560176761" lon="13.984132437440065"><ele>386.0</ele><time>2026-04-23T12:53:19Z</time></trkpt><trkpt lat="42.23954161613001" lon="13.984101390104634"><ele>387.25</ele><time>2026-04-23T12:53:20Z</time></trkpt><trkpt lat="42.23943958885006" lon="13.984095869994974"><ele>388.5</ele><time>2026-04-23T12:53:21Z</time></trkpt><trkpt lat="42.23932720246315" lon="13.984117338343284"><ele>389.75</ele><time>2026-04-23T12:53:22Z</time></trkpt><trkpt lat="42.239211843339156" lon="13.98416358052617"><ele>391.0</ele><time>2026-04-23T12:53:23Z</time></trkpt><trkpt lat="42.23908748608868" lon="13.984229553155846"><ele>390.75</ele><time>2026-04-23T12:53:24Z</time></trkpt><trkpt lat="42.238957647760515" lon="13.9843017449736"><ele>390.5</ele><time>2026-04-23T12:53:25Z</time></trkpt><trkpt lat="42.238828783147994" lon="13.984370164343748"><ele>390.25</ele><time>2026-04-23T12:53:26Z</time></trkpt><trkpt lat="42.23869999560301" lon="13.98443447798412"><ele>390.0</ele><time>2026-04-23T12:53:27Z</time></trkpt><trkpt lat="42.238579857665954" lon="13.984497049901812"><ele>390.0</ele><time>2026-04-23T12:53:28Z</time></trkpt><trkpt lat="42.238468938779384" lon="13.984552148268383"><ele>390.0</ele><time>2026-04-23T12:53:29Z</time></trkpt><trkpt lat="42.23835935040386" lon="13.984583786369356"><ele>390.0</ele><time>2026-04-23T12:53:30Z</time></trkpt><trkpt lat="42.238259106280424" lon="13.9846300345489"><ele>390.0</ele><time>2026-04-23T12:53:31Z</time></trkpt><trkpt lat="42.238158092150755" lon="13.984729525098576"><ele>390.5</ele><time>2026-04-23T12:53:32Z</time></trkpt><trkpt lat="42.23803870464528" lon="13.984793987503092"><ele>391.0</ele><time>2026-04-23T12:53:33Z</time></trkpt><trkpt lat="42.23791061366459" lon="13.984861582701694"><ele>391.5</ele><time>2026-04-23T12:53:34Z</time></trkpt><trkpt lat="42.237776154664765" lon="13.984913606842111"><ele>392.0</ele><time>2026-04-23T12:53:35Z</time></trkpt><trkpt lat="42.237643462785094" lon="13.98495767349822"><ele>392.0</ele><time>2026-04-23T12:53:36Z</time></trkpt><trkpt lat="42.237521780961664" lon="13.985006611798562"><ele>392.0</ele><time>2026-04-23T12:53:37Z</time></trkpt><trkpt lat="42.23741124510174" lon="13.98505348750009"><ele>392.0</ele><time>2026-04-23T12:53:38Z</time></trkpt><trkpt lat="42.237310477750945" lon="13.985084052407123"><ele>392.0</ele><time>2026-04-23T12:53:39Z</time></trkpt><trkpt lat="42.237217227532554" lon="13.985093184372536"><ele>392.0</ele><time>2026-04-23T12:53:40Z</time></trkpt><trkpt lat="42.23713318897913" lon="13.985078226499942"><ele>392.8333333333333</ele><time>2026-04-23T12:53:41Z</time></trkpt><trkpt lat="42.23705116856752" lon="13.985033336153661"><ele>393.66666666666663</ele><time>2026-04-23T12:53:42Z</time></trkpt><trkpt lat="42.236983613101174" lon="13.984987114722715"><ele>394.5</ele><time>2026-04-23T12:53:43Z</time></trkpt><trkpt lat="42.23690912659161" lon="13.984966635604854"><ele>395.33333333333337</ele><time>2026-04-23T12:53:44Z</time></trkpt><trkpt lat="42.23682567415557" lon="13.984997846634615"><ele>396.1666666666667</ele><time>2026-04-23T12:53:45Z</time></trkpt><trkpt lat="42.23674968708013" lon="13.985068295842723"><ele>397.0</ele><time>2026-04-23T12:53:46Z</time></trkpt><trkpt lat="42.23665773678602" lon="13.985125231586952"><ele>397.0</ele><time>2026-04-23T12:53:47Z</time></trkpt><trkpt lat="42.236558018104084" lon="13.985127324362036"><ele>397.0</ele><time>2026-04-23T12:53:48Z</time></trkpt><trkpt lat="42.23645651057249" lon="13.985069953851188"><ele>397.0</ele><time>2026-04-23T12:53:49Z</time></trkpt><trkpt lat="42.236352706983936" lon="13.984984120701878"><ele>397.0</ele><time>2026-04-23T12:53:50Z</time></trkpt><trkpt lat="42.2362465117108" lon="13.98489709565489"><ele>399.5</ele><time>2026-04-23T12:53:51Z</time></trkpt><trkpt lat="42.23614454260074" lon="13.984808759560636"><ele>402.0</ele><time>2026-04-23T12:53:52Z</time></trkpt><trkpt lat="42.23603716542454" lon="13.984711841819331"><ele>404.5</ele><time>2026-04-23T12:53:53Z</time></trkpt><trkpt lat="42.23592159585031" lon="13.984610175148461"><ele>407.0</ele><time>2026-04-23T12:53:54Z</time></trkpt><trkpt lat="42.235803296539345" lon="13.984503924385693"><ele>407.0</ele><time>2026-04-23T12:53:55Z</time></trkpt><trkpt lat="42.23568659583523" lon="13.984392701694958"><ele>407.0</ele><time>2026-04-23T12:53:56Z</time></trkpt><trkpt lat="42.23556863826954" lon="13.984284330874631"><ele>407.0</ele><time>2026-04-23T12:53:57Z</time></trkpt><trkpt lat="42.23545559169106" lon="13.984176107345268"><ele>407.0</ele><time>2026-04-23T12:53:58Z</time></trkpt><trkpt lat="42.23535495734034" lon="13.984074022679954"><ele>408.40000000000003</ele><time>2026-04-23T12:53:59Z</time></trkpt><trkpt lat="42.235260489709916" lon="13.98397874734344"><ele>409.8</ele><time>2026-04-23T12:54:00Z</time></trkpt><trkpt lat="42.23516637144024" lon="13.983922002651084"><ele>411.2</ele><time>2026-04-23T12:54:01Z</time></trkpt><trkpt lat="42.235079861767645" lon="13.983930557822521"><ele>412.6</ele><time>2026-04-23T12:54:02Z</time></trkpt><trkpt lat="42.234993521818105" lon="13.98398157273646"><ele>414.0</ele><time>2026-04-23T12:54:03Z</time></trkpt><trkpt lat="42.23492875100024" lon="13.984084269077126"><ele>415.0</ele><time>2026-04-23T12:54:04Z</time></trkpt><trkpt lat="42.23490397067137" lon="13.984222630217646"><ele>416.0</ele><time>2026-04-23T12:54:05Z</time></trkpt><trkpt lat="42.23493129536889" lon="13.984365010121307"><ele>417.0</ele><time>2026-04-23T12:54:06Z</time></trkpt><trkpt lat="42.23500514825464" lon="13.984485852126134"><ele>418.0</ele><time>2026-04-23T12:54:07Z</time></trkpt><trkpt lat="42.235104808095755" lon="13.98457215587721"><ele>419.0</ele><time>2026-04-23T12:54:08Z</time></trkpt><trkpt lat="42.23520925170634" lon="13.984625083063358"><ele>419.0</ele><time>2026-04-23T12:54:09Z</time></trkpt><trkpt lat="42.23529576086773" lon="13.984690189582562"><ele>419.0</ele><time>2026-04-23T12:54:10Z</time></trkpt><trkpt lat="42.23535332725525" lon="13.984802348824267"><ele>419.0</ele><time>2026-04-23T12:54:11Z</time></trkpt><trkpt lat="42.23537293006602" lon="13.984956228983146"><ele>419.0</ele><time>2026-04-23T12:54:12Z</time></trkpt><trkpt lat="42.235367139240566" lon="13.985135046389228"><ele>419.0</ele><time>2026-04-23T12:54:13Z</time></trkpt><trkpt lat="42.235343905081926" lon="13.985312955819259"><ele>420.5</ele><time>2026-04-23T12:54:14Z</time></trkpt><trkpt lat="42.23531329075407" lon="13.985495169880497"><ele>422.0</ele><time>2026-04-23T12:54:15Z</time></trkpt><trkpt lat="42.23527398692068" lon="13.985689185888344"><ele>423.5</ele><time>2026-04-23T12:54:16Z</time></trkpt><trkpt lat="42.23524386207945" lon="13.985890776157442"><ele>425.0</ele><time>2026-04-23T12:54:17Z</time></trkpt><trkpt lat="42.235215912967035" lon="13.986097061401303"><ele>424.75</ele><time>2026-04-23T12:54:18Z</time></trkpt><trkpt lat="42.23518981061612" lon="13.986299634194014"><ele>424.5</ele><time>2026-04-23T12:54:19Z</time></trkpt><trkpt lat="42.23516826987277" lon="13.986494471652778"><ele>424.25</ele><time>2026-04-23T12:54:20Z</time></trkpt><trkpt lat="42.23515068062843" lon="13.986673671204931"><ele>424.0</ele><time>2026-04-23T12:54:21Z</time></trkpt><trkpt lat="42.23513316158469" lon="13.986840982949811"><ele>424.0</ele><time>2026-04-23T12:54:22Z</time></trkpt><trkpt lat="42.235119999209104" lon="13.986996894439173"><ele>424.0</ele><time>2026-04-23T12:54:23Z</time></trkpt><trkpt lat="42.23511079165817" lon="13.987139610761023"><ele>424.0</ele><time>2026-04-23T12:54:24Z</time></trkpt><trkpt lat="42.23510437415969" lon="13.987278997093165"><ele>424.0</ele><time>2026-04-23T12:54:25Z</time></trkpt><trkpt lat="42.23510222426612" lon="13.987415371685845"><ele>424.0</ele><time>2026-04-23T12:54:26Z</time></trkpt><trkpt lat="42.23509956321088" lon="13.987532919709135"><ele>424.0</ele><time>2026-04-23T12:54:27Z</time></trkpt><trkpt lat="42.235072619873335" lon="13.98764833187414"><ele>424.0</ele><time>2026-04-23T12:54:28Z</time></trkpt><trkpt lat="42.23501720524024" lon="13.987747175861253"><ele>424.0</ele><time>2026-04-23T12:54:29Z</time></trkpt><trkpt lat="42.23493655950142" lon="13.987824982831201"><ele>424.0</ele><time>2026-04-23T12:54:30Z</time></trkpt><trkpt lat="42.234835873028246" lon="13.987880940152904"><ele>424.0</ele><time>2026-04-23T12:54:31Z</time></trkpt><trkpt lat="42.23472322744857" lon="13.987926876669903"><ele>424.0</ele><time>2026-04-23T12:54:32Z</time></trkpt><trkpt lat="42.23460422096283" lon="13.9879741636275"><ele>424.0</ele><time>2026-04-23T12:54:33Z</time></trkpt><trkpt lat="42.234487582121666" lon="13.988020593273951"><ele>424.0</ele><time>2026-04-23T12:54:34Z</time></trkpt><trkpt lat="42.23436809234852" lon="13.988064595337148"><ele>424.0</ele><time>2026-04-23T12:54:35Z</time></trkpt><trkpt lat="42.23424583008219" lon="13.988099994191213"><ele>424.0</ele><time>2026-04-23T12:54:36Z</time></trkpt><trkpt lat="42.23411605949621" lon="13.9881140215707"><ele>424.0</ele><time>2026-04-23T12:54:37Z</time></trkpt><trkpt lat="42.233981598291486" lon="13.98811647424094"><ele>424.0</ele><time>2026-04-23T12:54:38Z</time></trkpt><trkpt lat="42.23384687552896" lon="13.988107276387964"><ele>424.0</ele><time>2026-04-23T12:54:39Z</time></trkpt><trkpt lat="42.23371142068906" lon="13.988090178627864"><ele>424.75</ele><time>2026-04-23T12:54:40Z</time></trkpt><trkpt lat="42.233576047692296" lon="13.988066783442067"><ele>425.5</ele><time>2026-04-23T12:54:41Z</time></trkpt><trkpt lat="42.23343932880321" lon="13.988039653332207"><ele>426.25</ele><time>2026-04-23T12:54:42Z</time></trkpt><trkpt lat="42.23330356793892" lon="13.988015760396918"><ele>427.0</ele><time>2026-04-23T12:54:43Z</time></trkpt><trkpt lat="42.233165352520984" lon="13.988000255767485"><ele>428.25</ele><time>2026-04-23T12:54:44Z</time></trkpt><trkpt lat="42.233028542298975" lon="13.98799234858148"><ele>429.5</ele><time>2026-04-23T12:54:45Z</time></trkpt><trkpt lat="42.23288811282235" lon="13.98800444510471"><ele>430.75</ele><time>2026-04-23T12:54:46Z</time></trkpt><trkpt lat="42.23275222795767" lon="13.988044188183403"><ele>432.0</ele><time>2026-04-23T12:54:47Z</time></trkpt><trkpt lat="42.23262682994097" lon="13.988112860056887"><ele>432.0</ele><time>2026-04-23T12:54:48Z</time></trkpt><trkpt lat="42.232507011555164" lon="13.988201434130085"><ele>432.0</ele><time>2026-04-23T12:54:49Z</time></trkpt><trkpt lat="42.232399851174996" lon="13.988319597164942"><ele>432.0</ele><time>2026-04-23T12:54:50Z</time></trkpt><trkpt lat="42.23229387187174" lon="13.988435146615734"><ele>432.0</ele><time>2026-04-23T12:54:51Z</time></trkpt><trkpt lat="42.23218841742883" lon="13.988537210788971"><ele>431.75</ele><time>2026-04-23T12:54:52Z</time></trkpt><trkpt lat="42.23207660572885" lon="13.988627330847585"><ele>431.5</ele><time>2026-04-23T12:54:53Z</time></trkpt><trkpt lat="42.23195442602661" lon="13.988691695247681"><ele>431.25</ele><time>2026-04-23T12:54:54Z</time></trkpt><trkpt lat="42.23182678300143" lon="13.988731390920206"><ele>431.0</ele><time>2026-04-23T12:54:55Z</time></trkpt><trkpt lat="42.23169802739549" lon="13.988756273540972"><ele>431.0</ele><time>2026-04-23T12:54:56Z</time></trkpt><trkpt lat="42.231567211367526" lon="13.988774315573465"><ele>431.0</ele><time>2026-04-23T12:54:57Z</time></trkpt><trkpt lat="42.23143562806793" lon="13.988788157659542"><ele>431.0</ele><time>2026-04-23T12:54:58Z</time></trkpt><trkpt lat="42.23130604937421" lon="13.988791563963023"><ele>431.0</ele><time>2026-04-23T12:54:59Z</time></trkpt><trkpt lat="42.23117969310312" lon="13.988773511858232"><ele>431.5</ele><time>2026-04-23T12:55:00Z</time></trkpt><trkpt lat="42.23105763391715" lon="13.988739650552917"><ele>432.0</ele><time>2026-04-23T12:55:01Z</time></trkpt><trkpt lat="42.230937897775426" lon="13.988702765339701"><ele>432.5</ele><time>2026-04-23T12:55:02Z</time></trkpt><trkpt lat="42.23081653403099" lon="13.988667161620707"><ele>433.0</ele><time>2026-04-23T12:55:03Z</time></trkpt><trkpt lat="42.23069546004963" lon="13.988632277601347"><ele>433.25</ele><time>2026-04-23T12:55:04Z</time></trkpt><trkpt lat="42.23057295669492" lon="13.988601018076624"><ele>433.5</ele><time>2026-04-23T12:55:05Z</time></trkpt><trkpt lat="42.23044708764257" lon="13.988578503512187"><ele>433.75</ele><time>2026-04-23T12:55:06Z</time></trkpt><trkpt lat="42.23031742292522" lon="13.988563977971308"><ele>434.0</ele><time>2026-04-23T12:55:07Z</time></trkpt><trkpt lat="42.23018317260828" lon="13.988553569673188"><ele>434.0</ele><time>2026-04-23T12:55:08Z</time></trkpt><trkpt lat="42.2300438994729" lon="13.988548426510379"><ele>434.0</ele><time>2026-04-23T12:55:09Z</time></trkpt><trkpt lat="42.229902476082145" lon="13.988544060482226"><ele>434.0</ele><time>2026-04-23T12:55:10Z</time></trkpt><trkpt lat="42.22975930332206" lon="13.988537572037034"><ele>434.0</ele><time>2026-04-23T12:55:11Z</time></trkpt><trkpt lat="42.22961983742553" lon="13.988528537913625"><ele>435.6</ele><time>2026-04-23T12:55:12Z</time></trkpt><trkpt lat="42.22949465514894" lon="13.988509451488946"><ele>437.2</ele><time>2026-04-23T12:55:13Z</time></trkpt><trkpt lat="42.2293832966871" lon="13.988489626817042"><ele>438.80000000000007</ele><time>2026-04-23T12:55:14Z</time></trkpt><trkpt lat="42.22927876048965" lon="13.988486624131898"><ele>440.40000000000003</ele><time>2026-04-23T12:55:15Z</time></trkpt><trkpt lat="42.22918068790299" lon="13.98850921005522"><ele>442.0</ele><time>2026-04-23T12:55:16Z</time></trkpt><trkpt lat="42.22908434855505" lon="13.988565191029222"><ele>442.0</ele><time>2026-04-23T12:55:17Z</time></trkpt><trkpt lat="42.228997043960774" lon="13.98865911431623"><ele>442.0</ele><time>2026-04-23T12:55:18Z</time></trkpt><trkpt lat="42.22892275844883" lon="13.988785418153281"><ele>442.0</ele><time>2026-04-23T12:55:19Z</time></trkpt><trkpt lat="42.22884821615761" lon="13.98892157824712"><ele>442.0</ele><time>2026-04-23T12:55:20Z</time></trkpt><trkpt lat="42.22876500093227" lon="13.989050707477826"><ele>441.0</ele><time>2026-04-23T12:55:21Z</time></trkpt><trkpt lat="42.22866934533091" lon="13.989170950194373"><ele>440.0</ele><time>2026-04-23T12:55:22Z</time></trkpt><trkpt lat="42.22856076838934" lon="13.989281452459938"><ele>439.0</ele><time>2026-04-23T12:55:23Z</time></trkpt><trkpt lat="42.22844353692414" lon="13.989374066640542"><ele>438.0</ele><time>2026-04-23T12:55:24Z</time></trkpt><trkpt lat="42.22832066886571" lon="13.989442709041228"><ele>438.0</ele><time>2026-04-23T12:55:25Z</time></trkpt><trkpt lat="42.228196453190115" lon="13.989486726178262"><ele>438.0</ele><time>2026-04-23T12:55:26Z</time></trkpt><trkpt lat="42.22806558475982" lon="13.989496663097189"><ele>438.0</ele><time>2026-04-23T12:55:27Z</time></trkpt><trkpt lat="42.22793032174137" lon="13.989473462638783"><ele>438.0</ele><time>2026-04-23T12:55:28Z</time></trkpt><trkpt lat="42.22779542620526" lon="13.989423981620922"><ele>439.25</ele><time>2026-04-23T12:55:29Z</time></trkpt><trkpt lat="42.22766253357427" lon="13.989352119677589"><ele>440.5</ele><time>2026-04-23T12:55:30Z</time></trkpt><trkpt lat="42.227525994116256" lon="13.989278135251789"><ele>441.75</ele><time>2026-04-23T12:55:31Z</time></trkpt><trkpt lat="42.227384005757" lon="13.989222758285019"><ele>443.0</ele><time>2026-04-23T12:55:32Z</time></trkpt><trkpt lat="42.227245219353456" lon="13.989187902078793"><ele>445.5</ele><time>2026-04-23T12:55:33Z</time></trkpt><trkpt lat="42.22710616868293" lon="13.989173765617714"><ele>448.0</ele><time>2026-04-23T12:55:34Z</time></trkpt><trkpt lat="42.22696661762669" lon="13.989174189743776"><ele>450.5</ele><time>2026-04-23T12:55:35Z</time></trkpt><trkpt lat="42.22682934764549" lon="13.989193469748587"><ele>453.0</ele><time>2026-04-23T12:55:36Z</time></trkpt><trkpt lat="42.2266945698065" lon="13.989238926550636"><ele>453.0</ele><time>2026-04-23T12:55:37Z</time></trkpt><trkpt lat="42.22656026295294" lon="13.98931435352397"><ele>453.0</ele><time>2026-04-23T12:55:38Z</time></trkpt><trkpt lat="42.22641792248948" lon="13.9894270031321"><ele>453.0</ele><time>2026-04-23T12:55:39Z</time></trkpt><trkpt lat="42.226258677543676" lon="13.98956208319218"><ele>457.66666666666663</ele><time>2026-04-23T12:55:40Z</time></trkpt><trkpt lat="42.22609161549828" lon="13.98969466548786"><ele>462.3333333333333</ele><time>2026-04-23T12:55:41Z</time></trkpt><trkpt lat="42.22591635176814" lon="13.989826572079682"><ele>467.0</ele><time>2026-04-23T12:55:42Z</time></trkpt><trkpt lat="42.2257428552077" lon="13.989956640912014"><ele>469.0</ele><time>2026-04-23T12:55:43Z</time></trkpt><trkpt lat="42.22557710877061" lon="13.990084724855274"><ele>471.0</ele><time>2026-04-23T12:55:44Z</time></trkpt><trkpt lat="42.22542889588687" lon="13.990211202610745"><ele>473.0</ele><time>2026-04-23T12:55:45Z</time></trkpt><trkpt lat="42.22529916218927" lon="13.990340794668343"><ele>473.0</ele><time>2026-04-23T12:55:46Z</time></trkpt><trkpt lat="42.22521463588346" lon="13.990472511127845"><ele>472.99999999999994</ele><time>2026-04-23T12:55:47Z</time></trkpt><trkpt lat="42.2251657217227" lon="13.990605302450446"><ele>472.99999999999994</ele><time>2026-04-23T12:55:48Z</time></trkpt><trkpt lat="42.225141538026925" lon="13.990723442427775"><ele>473.0</ele><time>2026-04-23T12:55:49Z</time></trkpt><trkpt lat="42.225126764398055" lon="13.990858445614743"><ele>473.0</ele><time>2026-04-23T12:55:51Z</time></trkpt><trkpt lat="42.22510533755436" lon="13.99097416779998"><ele>472.66666666666663</ele><time>2026-04-23T12:57:09Z</time></trkpt><trkpt lat="42.225095035976516" lon="13.991066606971371"><ele>472.3333333333333</ele><time>2026-04-23T12:57:10Z</time></trkpt><trkpt lat="42.22507984061933" lon="13.99117088576587"><ele>472.0</ele><time>2026-04-23T12:57:11Z</time></trkpt><trkpt lat="42.22505860306809" lon="13.99127130365182"><ele>471.66666666666663</ele><time>2026-04-23T12:57:12Z</time></trkpt><trkpt lat="42.22502537204262" lon="13.991380478200375"><ele>471.3333333333333</ele><time>2026-04-23T12:57:13Z</time></trkpt><trkpt lat="42.22495934343054" lon="13.991465877492438"><ele>471.0</ele><time>2026-04-23T12:57:14Z</time></trkpt><trkpt lat="42.22489582554908" lon="13.991547467244605"><ele>471.0</ele><time>2026-04-23T12:57:15Z</time></trkpt><trkpt lat="42.224818367311784" lon="13.991616353293763"><ele>471.0</ele><time>2026-04-23T12:57:16Z</time></trkpt><trkpt lat="42.224728701707036" lon="13.991684994573673"><ele>471.0</ele><time>2026-04-23T12:57:17Z</time></trkpt><trkpt lat="42.224619033393104" lon="13.991731328261684"><ele>471.0</ele><time>2026-04-23T12:57:18Z</time></trkpt><trkpt lat="42.22450100670631" lon="13.99177375776922"><ele>471.0</ele><time>2026-04-23T12:57:19Z</time></trkpt><trkpt lat="42.224381225446045" lon="13.991815016497432"><ele>473.25</ele><time>2026-04-23T12:57:20Z</time></trkpt><trkpt lat="42.224254204013384" lon="13.991856288764504"><ele>475.5</ele><time>2026-04-23T12:57:21Z</time></trkpt><trkpt lat="42.224122358854046" lon="13.991897971847942"><ele>477.75</ele><time>2026-04-23T12:57:22Z</time></trkpt><trkpt lat="42.22398786795176" lon="13.991945792324596"><ele>480.0</ele><time>2026-04-23T12:57:23Z</time></trkpt><trkpt lat="42.223850237149534" lon="13.992000272783269"><ele>482.5</ele><time>2026-04-23T12:57:24Z</time></trkpt><trkpt lat="42.22371033563744" lon="13.992058102249851"><ele>485.0</ele><time>2026-04-23T12:57:25Z</time></trkpt><trkpt lat="42.22357573325079" lon="13.992111537905615"><ele>487.5</ele><time>2026-04-23T12:57:26Z</time></trkpt><trkpt lat="42.22344589762681" lon="13.992164575429912"><ele>490.0</ele><time>2026-04-23T12:57:27Z</time></trkpt><trkpt lat="42.22331182350173" lon="13.992212956585819"><ele>490.0</ele><time>2026-04-23T12:57:28Z</time></trkpt><trkpt lat="42.22316971958014" lon="13.992248161673329"><ele>490.0</ele><time>2026-04-23T12:57:29Z</time></trkpt><trkpt lat="42.22302229049754" lon="13.992257428055485"><ele>490.0</ele><time>2026-04-23T12:57:30Z</time></trkpt><trkpt lat="42.22287219345521" lon="13.992252055081286"><ele>490.0</ele><time>2026-04-23T12:57:31Z</time></trkpt><trkpt lat="42.222720543655065" lon="13.992229007809241"><ele>491.0</ele><time>2026-04-23T12:57:32Z</time></trkpt><trkpt lat="42.22256508826316" lon="13.992201994164905"><ele>492.0</ele><time>2026-04-23T12:57:33Z</time></trkpt><trkpt lat="42.222403106275564" lon="13.99217092104608"><ele>493.0</ele><time>2026-04-23T12:57:34Z</time></trkpt><trkpt lat="42.22224345410095" lon="13.99214113202335"><ele>493.0</ele><time>2026-04-23T12:57:35Z</time></trkpt><trkpt lat="42.22208191078197" lon="13.992108629161395"><ele>493.0</ele><time>2026-04-23T12:57:36Z</time></trkpt><trkpt lat="42.22191768365378" lon="13.99207725773987"><ele>493.0</ele><time>2026-04-23T12:57:37Z</time></trkpt><trkpt lat="42.22175113949284" lon="13.99204747036972"><ele>493.0</ele><time>2026-04-23T12:57:38Z</time></trkpt><trkpt lat="42.22158903048637" lon="13.99201700706483"><ele>493.0</ele><time>2026-04-23T12:57:39Z</time></trkpt><trkpt lat="42.22142804117518" lon="13.991982433144436"><ele>493.0</ele><time>2026-04-23T12:57:40Z</time></trkpt><trkpt lat="42.22126516485174" lon="13.991950757730223"><ele>494.6666666666667</ele><time>2026-04-23T12:57:41Z</time></trkpt><trkpt lat="42.22110008770113" lon="13.991921654275458"><ele>496.33333333333337</ele><time>2026-04-23T12:57:42Z</time></trkpt><trkpt lat="42.220932666917825" lon="13.991895224488502"><ele>498.0</ele><time>2026-04-23T12:57:43Z</time></trkpt><trkpt lat="42.22076847315287" lon="13.99188482040449"><ele>499.33333333333337</ele><time>2026-04-23T12:57:44Z</time></trkpt><trkpt lat="42.22060841852266" lon="13.99190297529843"><ele>500.6666666666667</ele><time>2026-04-23T12:57:45Z</time></trkpt><trkpt lat="42.22045739589021" lon="13.991953946240955"><ele>502.0</ele><time>2026-04-23T12:57:46Z</time></trkpt><trkpt lat="42.22031589802142" lon="13.992034315642243"><ele>502.0</ele><time>2026-04-23T12:57:47Z</time></trkpt><trkpt lat="42.2201883722914" lon="13.992142424269694"><ele>502.0</ele><time>2026-04-23T12:57:48Z</time></trkpt><trkpt lat="42.220067144067386" lon="13.992264924350486"><ele>502.0</ele><time>2026-04-23T12:57:49.001Z</time></trkpt><trkpt lat="42.219948081812646" lon="13.992394685553096"><ele>504.0</ele><time>2026-04-23T12:57:50.001Z</time></trkpt><trkpt lat="42.219829639736886" lon="13.992525930605423"><ele>506.0</ele><time>2026-04-23T12:57:51.001Z</time></trkpt><trkpt lat="42.21970339713328" lon="13.992663188486429"><ele>508.0</ele><time>2026-04-23T12:57:52.001Z</time></trkpt><trkpt lat="42.219572817871494" lon="13.99280513724859"><ele>508.0</ele><time>2026-04-23T12:57:53.001Z</time></trkpt><trkpt lat="42.21943932201494" lon="13.99294947207032"><ele>508.0</ele><time>2026-04-23T12:57:54.001Z</time></trkpt><trkpt lat="42.21929598175292" lon="13.993098282818819"><ele>508.0</ele><time>2026-04-23T12:57:55.001Z</time></trkpt><trkpt lat="42.219153938945105" lon="13.993251253199842"><ele>510.33333333333337</ele><time>2026-04-23T12:57:56.001Z</time></trkpt><trkpt lat="42.219015478861074" lon="13.993398981654511"><ele>512.6666666666666</ele><time>2026-04-23T12:57:57.001Z</time></trkpt><trkpt lat="42.218881309336076" lon="13.99354765260291"><ele>515.0</ele><time>2026-04-23T12:57:58.001Z</time></trkpt><trkpt lat="42.21874132798662" lon="13.993697651927306"><ele>515.0</ele><time>2026-04-23T12:57:59.001Z</time></trkpt><trkpt lat="42.21860749300292" lon="13.993846126940992"><ele>515.0</ele><time>2026-04-23T12:58:00.001Z</time></trkpt><trkpt lat="42.21846889109415" lon="13.993993030516881"><ele>515.0</ele><time>2026-04-23T12:58:01.001Z</time></trkpt><trkpt lat="42.21833496279339" lon="13.994140114543585"><ele>517.0</ele><time>2026-04-23T12:58:02.001Z</time></trkpt><trkpt lat="42.218214822568655" lon="13.994296194408705"><ele>519.0</ele><time>2026-04-23T12:58:03.001Z</time></trkpt><trkpt lat="42.21810887724497" lon="13.994467584872467"><ele>521.0</ele><time>2026-04-23T12:58:04.001Z</time></trkpt><trkpt lat="42.218029974703974" lon="13.994652660089738"><ele>518.3333333333333</ele><time>2026-04-23T12:58:05.001Z</time></trkpt><trkpt lat="42.21796690782324" lon="13.994852580614175"><ele>515.6666666666666</ele><time>2026-04-23T12:58:06.001Z</time></trkpt><trkpt lat="42.21791635134429" lon="13.995062047626737"><ele>513.0</ele><time>2026-04-23T12:58:07.001Z</time></trkpt><trkpt lat="42.21787331330155" lon="13.995268158865215"><ele>513.0</ele><time>2026-04-23T12:58:08.001Z</time></trkpt><trkpt lat="42.21783061337775" lon="13.995475922010963"><ele>513.0</ele><time>2026-04-23T12:58:09.001Z</time></trkpt><trkpt lat="42.21778745680711" lon="13.995678711842013"><ele>513.0</ele><time>2026-04-23T12:58:10.001Z</time></trkpt><trkpt lat="42.21774363016459" lon="13.995874743625588"><ele>514.25</ele><time>2026-04-23T12:58:11.001Z</time></trkpt><trkpt lat="42.21770375933886" lon="13.996065519769342"><ele>515.5</ele><time>2026-04-23T12:58:12.001Z</time></trkpt><trkpt lat="42.21766376720577" lon="13.99625554962642"><ele>516.75</ele><time>2026-04-23T12:58:13.001Z</time></trkpt><trkpt lat="42.217627331005296" lon="13.996445605532635"><ele>518.0</ele><time>2026-04-23T12:58:14.001Z</time></trkpt><trkpt lat="42.21759212334516" lon="13.99662744891405"><ele>519.0</ele><time>2026-04-23T12:58:15.001Z</time></trkpt><trkpt lat="42.21755396542643" lon="13.996779485537743"><ele>520.0</ele><time>2026-04-23T12:58:16.001Z</time></trkpt><trkpt lat="42.217511273452786" lon="13.996901470062163"><ele>521.0</ele><time>2026-04-23T12:58:17.001Z</time></trkpt><trkpt lat="42.217446646790734" lon="13.996988234558895"><ele>522.0</ele><time>2026-04-23T12:58:18.001Z</time></trkpt><trkpt lat="42.217381263519385" lon="13.997062095807879"><ele>523.0</ele><time>2026-04-23T12:58:19.001Z</time></trkpt><trkpt lat="42.21732606072941" lon="13.9971056158013"><ele>523.0</ele><time>2026-04-23T12:58:20.001Z</time></trkpt><trkpt lat="42.21738232223494" lon="13.997301801275398"><ele>523.0</ele><time>2026-04-23T12:58:21.001Z</time></trkpt><trkpt lat="42.2174151722993" lon="13.997385112659304"><ele>523.0</ele><time>2026-04-23T12:58:22.001Z</time></trkpt><trkpt lat="42.217473972451465" lon="13.997459017044818"><ele>523.0</ele><time>2026-04-23T12:58:23.001Z</time></trkpt><trkpt lat="42.21755657493987" lon="13.997533286533871"><ele>523.0</ele><time>2026-04-23T12:58:24.001Z</time></trkpt><trkpt lat="42.21763339470615" lon="13.997622994647601"><ele>524.1999999999999</ele><time>2026-04-23T12:58:25.001Z</time></trkpt><trkpt lat="42.217697464703974" lon="13.997723212827122"><ele>525.4</ele><time>2026-04-23T12:58:26.001Z</time></trkpt><trkpt lat="42.217743069911" lon="13.997828120980682"><ele>526.5999999999999</ele><time>2026-04-23T12:58:27.001Z</time></trkpt><trkpt lat="42.21777026353273" lon="13.997946577029355"><ele>527.8</ele><time>2026-04-23T12:58:28.001Z</time></trkpt><trkpt lat="42.21778480010972" lon="13.998075023071848"><ele>529.0</ele><time>2026-04-23T12:58:29.001Z</time></trkpt><trkpt lat="42.21778713460626" lon="13.998222918723904"><ele>528.6666666666667</ele><time>2026-04-23T12:58:30.001Z</time></trkpt><trkpt lat="42.217744832632086" lon="13.99852390511007"><ele>528.3333333333334</ele><time>2026-04-23T12:58:32.001Z</time></trkpt><trkpt lat="42.217696886525374" lon="13.998666972256917"><ele>528.0</ele><time>2026-04-23T12:58:33.001Z</time></trkpt><trkpt lat="42.21763544769202" lon="13.998799207710759"><ele>528.0</ele><time>2026-04-23T12:58:34.001Z</time></trkpt><trkpt lat="42.217562067000195" lon="13.998913350229827"><ele>528.0</ele><time>2026-04-23T12:58:35.001Z</time></trkpt><trkpt lat="42.21748410643513" lon="13.999022329295693"><ele>528.0</ele><time>2026-04-23T12:58:36.001Z</time></trkpt><trkpt lat="42.21740422679159" lon="13.99913104207482"><ele>528.0</ele><time>2026-04-23T12:58:37.001Z</time></trkpt><trkpt lat="42.217329627569335" lon="13.999248480205651"><ele>530.25</ele><time>2026-04-23T12:58:38.001Z</time></trkpt><trkpt lat="42.21726243752799" lon="13.999380234465253"><ele>532.5</ele><time>2026-04-23T12:58:39.001Z</time></trkpt><trkpt lat="42.21719812975206" lon="13.999518111664369"><ele>534.75</ele><time>2026-04-23T12:58:40.001Z</time></trkpt><trkpt lat="42.217139198482705" lon="13.999668322758756"><ele>537.0</ele><time>2026-04-23T12:58:41.001Z</time></trkpt><trkpt lat="42.21709090622802" lon="13.999830249842216"><ele>537.0</ele><time>2026-04-23T12:58:42.001Z</time></trkpt><trkpt lat="42.21704304735636" lon="14.000004662529337"><ele>537.0</ele><time>2026-04-23T12:58:43.001Z</time></trkpt><trkpt lat="42.21699481347841" lon="14.000190132469802"><ele>537.0</ele><time>2026-04-23T12:58:44.001Z</time></trkpt><trkpt lat="42.216949152395486" lon="14.000384035191935"><ele>537.0</ele><time>2026-04-23T12:58:45.001Z</time></trkpt><trkpt lat="42.21690618323329" lon="14.000570868126497"><ele>537.0</ele><time>2026-04-23T12:58:46.001Z</time></trkpt><trkpt lat="42.21686133543441" lon="14.000760521928054"><ele>537.0</ele><time>2026-04-23T12:58:47.001Z</time></trkpt><trkpt lat="42.21681201572577" lon="14.000953887402693"><ele>537.0</ele><time>2026-04-23T12:58:48.001Z</time></trkpt><trkpt lat="42.216755059914256" lon="14.001146239697638"><ele>537.3333333333334</ele><time>2026-04-23T12:58:49.001Z</time></trkpt><trkpt lat="42.21668780132685" lon="14.001337486486495"><ele>537.6666666666667</ele><time>2026-04-23T12:58:50.001Z</time></trkpt><trkpt lat="42.21660185814907" lon="14.001527513896633"><ele>538.0</ele><time>2026-04-23T12:58:51.001Z</time></trkpt><trkpt lat="42.21650142683307" lon="14.001702696467046"><ele>542.6666666666667</ele><time>2026-04-23T12:58:52.001Z</time></trkpt><trkpt lat="42.216393897328174" lon="14.001865727752003"><ele>547.3333333333334</ele><time>2026-04-23T12:58:53.001Z</time></trkpt><trkpt lat="42.216273666931954" lon="14.002021453302193"><ele>552.0</ele><time>2026-04-23T12:58:54.001Z</time></trkpt><trkpt lat="42.216134203335486" lon="14.002161745752412"><ele>552.0</ele><time>2026-04-23T12:58:55.001Z</time></trkpt><trkpt lat="42.2159901471995" lon="14.002285841669568"><ele>552.0</ele><time>2026-04-23T12:58:56.001Z</time></trkpt><trkpt lat="42.21584569257776" lon="14.002399568341705"><ele>552.0</ele><time>2026-04-23T12:58:57.001Z</time></trkpt><trkpt lat="42.21570247170753" lon="14.002510617772035"><ele>552.0</ele><time>2026-04-23T12:58:58.001Z</time></trkpt><trkpt lat="42.215565049426786" lon="14.00262742236235"><ele>552.0</ele><time>2026-04-23T12:58:59.001Z</time></trkpt><trkpt lat="42.21543586885515" lon="14.002750241625218"><ele>552.0</ele><time>2026-04-23T12:59:00.001Z</time></trkpt><trkpt lat="42.2153248173439" lon="14.002874375378472"><ele>552.0</ele><time>2026-04-23T12:59:01.001Z</time></trkpt><trkpt lat="42.21521788648365" lon="14.002987599664179"><ele>552.0</ele><time>2026-04-23T12:59:02.001Z</time></trkpt><trkpt lat="42.2150967220031" lon="14.003078994909481"><ele>552.0</ele><time>2026-04-23T12:59:03.001Z</time></trkpt><trkpt lat="42.214963429694556" lon="14.003146870899723"><ele>552.0</ele><time>2026-04-23T12:59:04.001Z</time></trkpt><trkpt lat="42.214826344024004" lon="14.00320709024657"><ele>551.25</ele><time>2026-04-23T12:59:05.001Z</time></trkpt><trkpt lat="42.21468590590667" lon="14.003266804250664"><ele>550.5</ele><time>2026-04-23T12:59:06.001Z</time></trkpt><trkpt lat="42.214543116469244" lon="14.003329873752667"><ele>549.75</ele><time>2026-04-23T12:59:07.001Z</time></trkpt><trkpt lat="42.214401397481886" lon="14.003393839268812"><ele>549.0</ele><time>2026-04-23T12:59:08.001Z</time></trkpt><trkpt lat="42.21425602191144" lon="14.003458897589862"><ele>549.0</ele><time>2026-04-23T12:59:09.001Z</time></trkpt><trkpt lat="42.214112153707504" lon="14.003536243792977"><ele>549.0</ele><time>2026-04-23T12:59:10.001Z</time></trkpt><trkpt lat="42.21397922724916" lon="14.003646157619757"><ele>549.0</ele><time>2026-04-23T12:59:11.001Z</time></trkpt><trkpt lat="42.21384519453444" lon="14.00377817878354"><ele>548.6666666666666</ele><time>2026-04-23T12:59:12.001Z</time></trkpt><trkpt lat="42.21371775033443" lon="14.00392080261981"><ele>548.3333333333333</ele><time>2026-04-23T12:59:13.001Z</time></trkpt><trkpt lat="42.2135891129336" lon="14.004072665910279"><ele>548.0</ele><time>2026-04-23T12:59:14.001Z</time></trkpt><trkpt lat="42.21347344204991" lon="14.00424223460962"><ele>548.0</ele><time>2026-04-23T12:59:15.001Z</time></trkpt><trkpt lat="42.213364525967634" lon="14.004421399932555"><ele>548.0</ele><time>2026-04-23T12:59:16.001Z</time></trkpt><trkpt lat="42.213267972446815" lon="14.004621845642719"><ele>548.0</ele><time>2026-04-23T12:59:17.001Z</time></trkpt><trkpt lat="42.2131887119018" lon="14.004835906418212"><ele>550.6666666666666</ele><time>2026-04-23T12:59:18.001Z</time></trkpt><trkpt lat="42.21310525097426" lon="14.005060219353746"><ele>553.3333333333334</ele><time>2026-04-23T12:59:19.001Z</time></trkpt><trkpt lat="42.213022653226986" lon="14.005280948352677"><ele>556.0</ele><time>2026-04-23T12:59:20.001Z</time></trkpt><trkpt lat="42.2129406414944" lon="14.005505300868567"><ele>556.0</ele><time>2026-04-23T12:59:21.001Z</time></trkpt><trkpt lat="42.212861560560704" lon="14.005733822783437"><ele>556.0</ele><time>2026-04-23T12:59:22.001Z</time></trkpt><trkpt lat="42.212786509064316" lon="14.005960703359722"><ele>556.0</ele><time>2026-04-23T12:59:23.001Z</time></trkpt><trkpt lat="42.21271040917843" lon="14.006186962641669"><ele>554.3333333333334</ele><time>2026-04-23T12:59:24.001Z</time></trkpt><trkpt lat="42.2126231268155" lon="14.006402900917148"><ele>552.6666666666666</ele><time>2026-04-23T12:59:25.001Z</time></trkpt><trkpt lat="42.212554320023514" lon="14.00662207302793"><ele>551.0</ele><time>2026-04-23T12:59:26.001Z</time></trkpt><trkpt lat="42.21250296619494" lon="14.006890977157672"><ele>549.6666666666666</ele><time>2026-04-23T12:59:27.001Z</time></trkpt><trkpt lat="42.212482072981395" lon="14.007106067364443"><ele>548.3333333333334</ele><time>2026-04-23T12:59:28.001Z</time></trkpt><trkpt lat="42.2124897030661" lon="14.007319339928495"><ele>547.0</ele><time>2026-04-23T12:59:29.001Z</time></trkpt><trkpt lat="42.212512644550685" lon="14.007537092822695"><ele>547.0</ele><time>2026-04-23T12:59:30.001Z</time></trkpt><trkpt lat="42.21256667214561" lon="14.007752290959981"><ele>547.0</ele><time>2026-04-23T12:59:31.001Z</time></trkpt><trkpt lat="42.212641592798356" lon="14.007970429193168"><ele>547.0</ele><time>2026-04-23T12:59:32.001Z</time></trkpt><trkpt lat="42.21270446874367" lon="14.008209191584074"><ele>547.0</ele><time>2026-04-23T12:59:33.001Z</time></trkpt><trkpt lat="42.212749330382046" lon="14.008450650300533"><ele>547.0</ele><time>2026-04-23T12:59:34.001Z</time></trkpt><trkpt lat="42.21281265979651" lon="14.008693367301593"><ele>547.0</ele><time>2026-04-23T12:59:35.001Z</time></trkpt><trkpt lat="42.21287850648839" lon="14.008940710128888"><ele>547.0</ele><time>2026-04-23T12:59:36.001Z</time></trkpt><trkpt lat="42.21294541035606" lon="14.009196576166978"><ele>547.0</ele><time>2026-04-23T12:59:37.001Z</time></trkpt><trkpt lat="42.21301238561416" lon="14.009455519676347"><ele>547.0</ele><time>2026-04-23T12:59:38.001Z</time></trkpt><trkpt lat="42.21307673193442" lon="14.00970761746203"><ele>547.0</ele><time>2026-04-23T12:59:39.001Z</time></trkpt><trkpt lat="42.21313085587868" lon="14.009930561550396"><ele>547.0</ele><time>2026-04-23T12:59:40.001Z</time></trkpt><trkpt lat="42.21317008433489" lon="14.010129327621664"><ele>547.0</ele><time>2026-04-23T12:59:41.001Z</time></trkpt><trkpt lat="42.21315669657392" lon="14.010322483810295"><ele>547.5</ele><time>2026-04-23T12:59:42.001Z</time></trkpt><trkpt lat="42.21311377354454" lon="14.010492323208059"><ele>548.0</ele><time>2026-04-23T12:59:43.001Z</time></trkpt><trkpt lat="42.21301954636904" lon="14.010628219091373"><ele>548.5</ele><time>2026-04-23T12:59:44.001Z</time></trkpt><trkpt lat="42.21293533174193" lon="14.010807397036618"><ele>549.0</ele><time>2026-04-23T12:59:45.001Z</time></trkpt><trkpt lat="42.21282483394091" lon="14.010983743752698"><ele>549.6666666666666</ele><time>2026-04-23T12:59:46.001Z</time></trkpt><trkpt lat="42.212717915554464" lon="14.01117118961414"><ele>550.3333333333333</ele><time>2026-04-23T12:59:47.001Z</time></trkpt><trkpt lat="42.212618001164564" lon="14.011367580120687"><ele>551.0</ele><time>2026-04-23T12:59:48.001Z</time></trkpt><trkpt lat="42.21252717316629" lon="14.011573540888145"><ele>550.6666666666666</ele><time>2026-04-23T12:59:49.001Z</time></trkpt><trkpt lat="42.21243964030998" lon="14.011789631709467"><ele>550.3333333333334</ele><time>2026-04-23T12:59:50.001Z</time></trkpt><trkpt lat="42.21235305667953" lon="14.012007119751855"><ele>550.0</ele><time>2026-04-23T12:59:51.001Z</time></trkpt><trkpt lat="42.21226814398359" lon="14.012212037878742"><ele>553.0</ele><time>2026-04-23T12:59:52.001Z</time></trkpt><trkpt lat="42.21218023775576" lon="14.012402809587725"><ele>556.0</ele><time>2026-04-23T12:59:53.001Z</time></trkpt><trkpt lat="42.21211290579164" lon="14.012572995101793"><ele>559.0</ele><time>2026-04-23T12:59:54.001Z</time></trkpt><trkpt lat="42.21205839251139" lon="14.012742360382493"><ele>562.0</ele><time>2026-04-23T12:59:55.001Z</time></trkpt><trkpt lat="42.21203037548143" lon="14.012914507575097"><ele>562.0</ele><time>2026-04-23T12:59:56.001Z</time></trkpt><trkpt lat="42.21204076808331" lon="14.013091056929055"><ele>562.0</ele><time>2026-04-23T12:59:57.001Z</time></trkpt><trkpt lat="42.21208877838353" lon="14.013263798113723"><ele>562.0</ele><time>2026-04-23T12:59:58.001Z</time></trkpt><trkpt lat="42.21217142662687" lon="14.01340559174113"><ele>562.0</ele><time>2026-04-23T12:59:59.001Z</time></trkpt><trkpt lat="42.21228305950994" lon="14.013513985126133"><ele>560.0</ele><time>2026-04-23T13:00:00.001Z</time></trkpt><trkpt lat="42.212414292998595" lon="14.0135757125767"><ele>558.0</ele><time>2026-04-23T13:00:01.001Z</time></trkpt><trkpt lat="42.21255599977769" lon="14.013595995232853"><ele>556.0</ele><time>2026-04-23T13:00:02.001Z</time></trkpt><trkpt lat="42.21269971928365" lon="14.013573066134398"><ele>554.0</ele><time>2026-04-23T13:00:03.001Z</time></trkpt><trkpt lat="42.21283565306279" lon="14.01350009752956"><ele>554.0</ele><time>2026-04-23T13:00:04.001Z</time></trkpt><trkpt lat="42.2129613094594" lon="14.013395338036426"><ele>554.0</ele><time>2026-04-23T13:00:05.001Z</time></trkpt><trkpt lat="42.21308225884761" lon="14.013296082349473"><ele>554.0</ele><time>2026-04-23T13:00:06.001Z</time></trkpt><trkpt lat="42.21321094373819" lon="14.013273947079274"><ele>554.0</ele><time>2026-04-23T13:00:07.001Z</time></trkpt><trkpt lat="42.213347624239965" lon="14.013250040801093"><ele>554.5</ele><time>2026-04-23T13:00:08.001Z</time></trkpt><trkpt lat="42.213477684531625" lon="14.013324415220156"><ele>555.0</ele><time>2026-04-23T13:00:09.001Z</time></trkpt><trkpt lat="42.21359866341168" lon="14.013398086993488"><ele>555.5</ele><time>2026-04-23T13:00:10.001Z</time></trkpt><trkpt lat="42.21369553878393" lon="14.013526711320461"><ele>556.0</ele><time>2026-04-23T13:00:11.001Z</time></trkpt><trkpt lat="42.21375170963269" lon="14.01370712791482"><ele>556.0</ele><time>2026-04-23T13:00:12.001Z</time></trkpt><trkpt lat="42.213827194381004" lon="14.01389093846223"><ele>556.0</ele><time>2026-04-23T13:00:13.001Z</time></trkpt><trkpt lat="42.21391686812973" lon="14.014073610533234"><ele>556.0</ele><time>2026-04-23T13:00:14.001Z</time></trkpt><trkpt lat="42.21399551218121" lon="14.014272080630942"><ele>555.3333333333334</ele><time>2026-04-23T13:00:15.001Z</time></trkpt><trkpt lat="42.21407714207859" lon="14.014477991996385"><ele>554.6666666666666</ele><time>2026-04-23T13:00:16.001Z</time></trkpt><trkpt lat="42.21416081268466" lon="14.014679245560693"><ele>554.0</ele><time>2026-04-23T13:00:17.001Z</time></trkpt><trkpt lat="42.21424744747771" lon="14.014894543974856"><ele>554.3333333333333</ele><time>2026-04-23T13:00:18.001Z</time></trkpt><trkpt lat="42.21433093268438" lon="14.015100732994343"><ele>554.6666666666666</ele><time>2026-04-23T13:00:19.001Z</time></trkpt><trkpt lat="42.214418377347464" lon="14.01531150104972"><ele>555.0</ele><time>2026-04-23T13:00:20.001Z</time></trkpt><trkpt lat="42.2144986301139" lon="14.015514299673985"><ele>555.0</ele><time>2026-04-23T13:00:21.001Z</time></trkpt><trkpt lat="42.2145652124019" lon="14.015713684262982"><ele>555.0</ele><time>2026-04-23T13:00:22.001Z</time></trkpt><trkpt lat="42.21460213589712" lon="14.015924081469906"><ele>555.0</ele><time>2026-04-23T13:00:23.001Z</time></trkpt><trkpt lat="42.21457997643083" lon="14.01613143009094"><ele>555.0</ele><time>2026-04-23T13:00:24.001Z</time></trkpt><trkpt lat="42.21457841924404" lon="14.016345788181402"><ele>555.0</ele><time>2026-04-23T13:00:25Z</time></trkpt><trkpt lat="42.21455662022273" lon="14.016544178528584"><ele>555.0</ele><time>2026-04-23T13:00:26Z</time></trkpt><trkpt lat="42.21457870904578" lon="14.01674437964877"><ele>554.6666666666666</ele><time>2026-04-23T13:00:27Z</time></trkpt><trkpt lat="42.21464347813714" lon="14.016942994952538"><ele>554.3333333333333</ele><time>2026-04-23T13:00:28Z</time></trkpt><trkpt lat="42.214742373884874" lon="14.01710847127109"><ele>554.0</ele><time>2026-04-23T13:00:29Z</time></trkpt><trkpt lat="42.21486860559805" lon="14.017248528014289"><ele>552.0</ele><time>2026-04-23T13:00:30Z</time></trkpt><trkpt lat="42.215017394752266" lon="14.017349075704299"><ele>550.0</ele><time>2026-04-23T13:00:31Z</time></trkpt><trkpt lat="42.21516837635752" lon="14.017441262309633"><ele>548.0</ele><time>2026-04-23T13:00:32Z</time></trkpt><trkpt lat="42.21530228687972" lon="14.017543619395465"><ele>548.0</ele><time>2026-04-23T13:00:33Z</time></trkpt><trkpt lat="42.21539594512645" lon="14.01770179238566"><ele>548.0</ele><time>2026-04-23T13:00:34Z</time></trkpt><trkpt lat="42.21546747071688" lon="14.017887496658235"><ele>548.0</ele><time>2026-04-23T13:00:35Z</time></trkpt><trkpt lat="42.215509562570574" lon="14.018088976799113"><ele>548.0</ele><time>2026-04-23T13:00:36Z</time></trkpt><trkpt lat="42.215515611904955" lon="14.018295128230164"><ele>548.0</ele><time>2026-04-23T13:00:37Z</time></trkpt><trkpt lat="42.21548372296738" lon="14.01848000859897"><ele>548.0</ele><time>2026-04-23T13:00:38Z</time></trkpt><trkpt lat="42.215442698281535" lon="14.01867304340289"><ele>548.0</ele><time>2026-04-23T13:00:39Z</time></trkpt><trkpt lat="42.215407848374966" lon="14.018875133139547"><ele>549.0</ele><time>2026-04-23T13:00:40Z</time></trkpt><trkpt lat="42.21539470014141" lon="14.019070507318228"><ele>550.0</ele><time>2026-04-23T13:00:41Z</time></trkpt><trkpt lat="42.21543099178983" lon="14.019270154487652"><ele>551.0</ele><time>2026-04-23T13:00:42Z</time></trkpt><trkpt lat="42.21550081164557" lon="14.019466734830567"><ele>549.5</ele><time>2026-04-23T13:00:43Z</time></trkpt><trkpt lat="42.215601473380026" lon="14.019629434615005"><ele>548.0</ele><time>2026-04-23T13:00:44Z</time></trkpt><trkpt lat="42.21571553451042" lon="14.019739868779205"><ele>546.5</ele><time>2026-04-23T13:00:45Z</time></trkpt><trkpt lat="42.21580641532236" lon="14.019802092928018"><ele>545.0</ele><time>2026-04-23T13:00:46Z</time></trkpt><trkpt lat="42.2158677876386" lon="14.019837641922186"><ele>543.5</ele><time>2026-04-23T13:00:47Z</time></trkpt><trkpt lat="42.215926116979084" lon="14.019916373561312"><ele>542.0</ele><time>2026-04-23T13:02:17.001Z</time></trkpt><trkpt lat="42.21601787784124" lon="14.02001322850964"><ele>540.5</ele><time>2026-04-23T13:02:19.001Z</time></trkpt><trkpt lat="42.216072586923445" lon="14.020070985661253"><ele>539.0</ele><time>2026-04-23T13:02:20.001Z</time></trkpt><trkpt lat="42.21612857910153" lon="14.02013009748513"><ele>537.5</ele><time>2026-04-23T13:02:21.001Z</time></trkpt><trkpt lat="42.21618791257462" lon="14.020192736670507"><ele>536.0</ele><time>2026-04-23T13:02:22.001Z</time></trkpt><trkpt lat="42.216244069232346" lon="14.02025463531251"><ele>536.0</ele><time>2026-04-23T13:02:23.001Z</time></trkpt><trkpt lat="42.21629980464931" lon="14.020317234642363"><ele>536.0</ele><time>2026-04-23T13:02:24.001Z</time></trkpt><trkpt lat="42.216354582548334" lon="14.020378758652473"><ele>536.0</ele><time>2026-04-23T13:02:25.001Z</time></trkpt><trkpt lat="42.21643588022533" lon="14.020494502382734"><ele>536.0</ele><time>2026-04-23T13:02:27.001Z</time></trkpt><trkpt lat="42.21645896982481" lon="14.020625121933334"><ele>536.0</ele><time>2026-04-23T13:02:29.001Z</time></trkpt><trkpt lat="42.216397798475846" lon="14.020747175502056"><ele>536.0</ele><time>2026-04-23T13:02:31.001Z</time></trkpt><trkpt lat="42.216334208606696" lon="14.020775068368447"><ele>536.0</ele><time>2026-04-23T13:02:32.001Z</time></trkpt><trkpt lat="42.216240155359756" lon="14.02085700654106"><ele>536.0</ele><time>2026-04-23T13:02:34.001Z</time></trkpt><trkpt lat="42.21617920657965" lon="14.020897085969876"><ele>536.0</ele><time>2026-04-23T13:02:35.001Z</time></trkpt><trkpt lat="42.216113476336844" lon="14.020931904472798"><ele>536.0</ele><time>2026-04-23T13:02:36.001Z</time></trkpt><trkpt lat="42.21604940936433" lon="14.02096729796562"><ele>536.0</ele><time>2026-04-23T13:02:37.001Z</time></trkpt><trkpt lat="42.21598437609744" lon="14.021000394277737"><ele>535.4</ele><time>2026-04-23T13:02:38.001Z</time></trkpt><trkpt lat="42.215924182857776" lon="14.021031027430771"><ele>534.8</ele><time>2026-04-23T13:02:39.001Z</time></trkpt><trkpt lat="42.215793820203615" lon="14.021094228234572"><ele>534.1999999999999</ele><time>2026-04-23T13:02:41.001Z</time></trkpt><trkpt lat="42.215698026315614" lon="14.021139062190374"><ele>533.6</ele><time>2026-04-23T13:02:42.001Z</time></trkpt><trkpt lat="42.21558193521042" lon="14.021186184219326"><ele>533.0</ele><time>2026-04-23T13:02:43.001Z</time></trkpt><trkpt lat="42.21546543633562" lon="14.021219100721623"><ele>534.5</ele><time>2026-04-23T13:02:44.001Z</time></trkpt><trkpt lat="42.215335077082266" lon="14.02125056997533"><ele>536.0</ele><time>2026-04-23T13:02:45.001Z</time></trkpt><trkpt lat="42.215194357809" lon="14.021284540129535"><ele>537.5</ele><time>2026-04-23T13:02:46.001Z</time></trkpt><trkpt lat="42.21505233488765" lon="14.021318824995692"><ele>539.0</ele><time>2026-04-23T13:02:47.001Z</time></trkpt><trkpt lat="42.21491049605924" lon="14.021355943679103"><ele>539.0</ele><time>2026-04-23T13:02:48.001Z</time></trkpt><trkpt lat="42.214776688819676" lon="14.021401192161104"><ele>539.0</ele><time>2026-04-23T13:02:49.001Z</time></trkpt><trkpt lat="42.21464571342637" lon="14.021450703430947"><ele>539.0</ele><time>2026-04-23T13:02:50.001Z</time></trkpt><trkpt lat="42.214517480858085" lon="14.021525499495946"><ele>539.0</ele><time>2026-04-23T13:02:51.001Z</time></trkpt><trkpt lat="42.21437487513358" lon="14.021560577493585"><ele>539.0</ele><time>2026-04-23T13:02:52.001Z</time></trkpt><trkpt lat="42.2142422572135" lon="14.02163863114872"><ele>539.0</ele><time>2026-04-23T13:02:53.001Z</time></trkpt><trkpt lat="42.21410983916981" lon="14.021695263548718"><ele>539.0</ele><time>2026-04-23T13:02:54.001Z</time></trkpt><trkpt lat="42.21397917706466" lon="14.021727785062913"><ele>539.0</ele><time>2026-04-23T13:02:55.001Z</time></trkpt><trkpt lat="42.213856823637165" lon="14.021797241258385"><ele>535.75</ele><time>2026-04-23T13:02:56.001Z</time></trkpt><trkpt lat="42.21372190343134" lon="14.021832758381564"><ele>532.5</ele><time>2026-04-23T13:02:57.001Z</time></trkpt><trkpt lat="42.21357806754201" lon="14.021798297212671"><ele>529.25</ele><time>2026-04-23T13:02:58.001Z</time></trkpt><trkpt lat="42.21342907513038" lon="14.021817604958498"><ele>526.0</ele><time>2026-04-23T13:02:59.001Z</time></trkpt><trkpt lat="42.21329282967089" lon="14.021842265959124"><ele>526.0</ele><time>2026-04-23T13:03:00.001Z</time></trkpt><trkpt lat="42.21317339961569" lon="14.021878559754063"><ele>526.0</ele><time>2026-04-23T13:03:01.001Z</time></trkpt><trkpt lat="42.21306896423857" lon="14.02187562269138"><ele>526.0</ele><time>2026-04-23T13:03:02.001Z</time></trkpt><trkpt lat="42.212982467544904" lon="14.021785026025839"><ele>526.0</ele><time>2026-04-23T13:03:03.001Z</time></trkpt><trkpt lat="42.21288756852703" lon="14.02169850274308"><ele>525.0</ele><time>2026-04-23T13:03:04.001Z</time></trkpt><trkpt lat="42.21279030846747" lon="14.021632851034571"><ele>524.0</ele><time>2026-04-23T13:03:05.001Z</time></trkpt><trkpt lat="42.2127034652951" lon="14.021591757796124"><ele>523.0</ele><time>2026-04-23T13:03:06.001Z</time></trkpt><trkpt lat="42.21260619584605" lon="14.021612607547373"><ele>522.0</ele><time>2026-04-23T13:03:07.001Z</time></trkpt><trkpt lat="42.21248476503355" lon="14.021687063288224"><ele>521.0</ele><time>2026-04-23T13:03:08.001Z</time></trkpt><trkpt lat="42.21234968339218" lon="14.021703680823167"><ele>522.5</ele><time>2026-04-23T13:03:09.001Z</time></trkpt><trkpt lat="42.212202456101224" lon="14.02169311021741"><ele>524.0</ele><time>2026-04-23T13:03:10.001Z</time></trkpt><trkpt lat="42.212071926835094" lon="14.021690402625955"><ele>525.5</ele><time>2026-04-23T13:03:11.001Z</time></trkpt><trkpt lat="42.21194416071987" lon="14.021703156084882"><ele>527.0</ele><time>2026-04-23T13:03:12.001Z</time></trkpt><trkpt lat="42.21182880705603" lon="14.0217571825984"><ele>527.0</ele><time>2026-04-23T13:03:13.001Z</time></trkpt><trkpt lat="42.21171678640093" lon="14.02185314370621"><ele>527.0</ele><time>2026-04-23T13:03:14.001Z</time></trkpt><trkpt lat="42.21160100129687" lon="14.021965449976456"><ele>527.0</ele><time>2026-04-23T13:03:15.001Z</time></trkpt><trkpt lat="42.21147993668404" lon="14.022082196284318"><ele>527.0</ele><time>2026-04-23T13:03:16.001Z</time></trkpt><trkpt lat="42.21136550423049" lon="14.022192140549798"><ele>529.75</ele><time>2026-04-23T13:03:17.001Z</time></trkpt><trkpt lat="42.21125224782085" lon="14.02228945601295"><ele>532.5</ele><time>2026-04-23T13:03:18.001Z</time></trkpt><trkpt lat="42.21113300292671" lon="14.022357473627048"><ele>535.25</ele><time>2026-04-23T13:03:19.001Z</time></trkpt><trkpt lat="42.21102240643682" lon="14.022400132931404"><ele>538.0</ele><time>2026-04-23T13:03:20.001Z</time></trkpt><trkpt lat="42.21093148460654" lon="14.022454154192955"><ele>534.0</ele><time>2026-04-23T13:03:21.001Z</time></trkpt><trkpt lat="42.21087330171153" lon="14.022552872478048"><ele>530.0</ele><time>2026-04-23T13:03:22.001Z</time></trkpt><trkpt lat="42.2108438789182" lon="14.022667235554074"><ele>526.0</ele><time>2026-04-23T13:03:23.001Z</time></trkpt><trkpt lat="42.21082069043589" lon="14.022765024434142"><ele>522.0</ele><time>2026-04-23T13:03:24.001Z</time></trkpt><trkpt lat="42.21079780096693" lon="14.02288517106421"><ele>518.0</ele><time>2026-04-23T13:03:26.001Z</time></trkpt><trkpt lat="42.210781697639895" lon="14.022985337701526"><ele>514.0</ele><time>2026-04-23T13:05:26Z</time></trkpt><trkpt lat="42.21075614582009" lon="14.023072836042166"><ele>514.0</ele><time>2026-04-23T13:05:27Z</time></trkpt><trkpt lat="42.21074275622066" lon="14.02318232869803"><ele>514.0</ele><time>2026-04-23T13:05:28Z</time></trkpt><trkpt lat="42.210725030760415" lon="14.023296687324713"><ele>514.0</ele><time>2026-04-23T13:05:29Z</time></trkpt><trkpt lat="42.21075218697122" lon="14.02342292189039"><ele>514.0</ele><time>2026-04-23T13:05:30Z</time></trkpt><trkpt lat="42.210803245222465" lon="14.023528224166501"><ele>514.0</ele><time>2026-04-23T13:05:31Z</time></trkpt><trkpt lat="42.210851036015264" lon="14.023641975028347"><ele>511.33333333333337</ele><time>2026-04-23T13:05:32Z</time></trkpt><trkpt lat="42.21089639130182" lon="14.023749111811089"><ele>508.6666666666667</ele><time>2026-04-23T13:05:33Z</time></trkpt><trkpt lat="42.21094286551797" lon="14.023833277315255"><ele>506.0</ele><time>2026-04-23T13:05:34Z</time></trkpt><trkpt lat="42.210981277137655" lon="14.023905620258736"><ele>503.33333333333337</ele><time>2026-04-23T13:05:35Z</time></trkpt><trkpt lat="42.211106005231294" lon="14.02397909150951"><ele>500.6666666666667</ele><time>2026-04-23T13:05:37Z</time></trkpt><trkpt lat="42.211179348717046" lon="14.023950662077452"><ele>498.0</ele><time>2026-04-23T13:05:38Z</time></trkpt><trkpt lat="42.21126078361549" lon="14.023956556665253"><ele>498.0</ele><time>2026-04-23T13:05:39Z</time></trkpt><trkpt lat="42.211350998326495" lon="14.023939989000189"><ele>497.99999999999994</ele><time>2026-04-23T13:05:40Z</time></trkpt><trkpt lat="42.21144557902373" lon="14.023920059492767"><ele>497.99999999999994</ele><time>2026-04-23T13:05:41Z</time></trkpt><trkpt lat="42.21154693339374" lon="14.023895913561892"><ele>498.0</ele><time>2026-04-23T13:05:42Z</time></trkpt><trkpt lat="42.211653374630934" lon="14.023858628549656"><ele>498.0</ele><time>2026-04-23T13:05:43Z</time></trkpt><trkpt lat="42.21176107697532" lon="14.023803355955048"><ele>496.75</ele><time>2026-04-23T13:05:44Z</time></trkpt><trkpt lat="42.211857725736664" lon="14.0237334140089"><ele>495.5</ele><time>2026-04-23T13:05:45Z</time></trkpt><trkpt lat="42.21195494586551" lon="14.023652274608706"><ele>494.25</ele><time>2026-04-23T13:05:46Z</time></trkpt><trkpt lat="42.212050538333685" lon="14.02356613307601"><ele>493.0</ele><time>2026-04-23T13:05:47Z</time></trkpt><trkpt lat="42.21213509327316" lon="14.023464256614458"><ele>493.0</ele><time>2026-04-23T13:05:48Z</time></trkpt><trkpt lat="42.21223322150067" lon="14.023389284432367"><ele>492.99999999999994</ele><time>2026-04-23T13:05:49Z</time></trkpt><trkpt lat="42.21231985855775" lon="14.02329126343448"><ele>492.99999999999994</ele><time>2026-04-23T13:05:50Z</time></trkpt><trkpt lat="42.21241124901863" lon="14.023205703352641"><ele>493.0</ele><time>2026-04-23T13:05:51Z</time></trkpt><trkpt lat="42.21250018023163" lon="14.023114591094599"><ele>493.0</ele><time>2026-04-23T13:05:52Z</time></trkpt><trkpt lat="42.21260540079633" lon="14.023080664718078"><ele>492.2</ele><time>2026-04-23T13:05:53Z</time></trkpt><trkpt lat="42.21270723074582" lon="14.023083659901571"><ele>491.4</ele><time>2026-04-23T13:05:54Z</time></trkpt><trkpt lat="42.212800897745915" lon="14.023114955372499"><ele>490.59999999999997</ele><time>2026-04-23T13:05:55Z</time></trkpt><trkpt lat="42.21289080632593" lon="14.023176766144209"><ele>489.79999999999995</ele><time>2026-04-23T13:05:56Z</time></trkpt><trkpt lat="42.212972851352355" lon="14.023252477694996"><ele>489.0</ele><time>2026-04-23T13:05:57Z</time></trkpt><trkpt lat="42.213061030456416" lon="14.023340968448863"><ele>495.25</ele><time>2026-04-23T13:05:58Z</time></trkpt><trkpt lat="42.213159782173236" lon="14.023425190746924"><ele>501.5</ele><time>2026-04-23T13:05:59Z</time></trkpt><trkpt lat="42.21326795457194" lon="14.023498500229179"><ele>507.75</ele><time>2026-04-23T13:06:00Z</time></trkpt><trkpt lat="42.21337639188695" lon="14.023562221441729"><ele>514.0</ele><time>2026-04-23T13:06:01Z</time></trkpt><trkpt lat="42.21348321148753" lon="14.023620418626678"><ele>514.0</ele><time>2026-04-23T13:06:02Z</time></trkpt><trkpt lat="42.213578287961504" lon="14.023676001804834"><ele>514.0</ele><time>2026-04-23T13:06:03Z</time></trkpt><trkpt lat="42.21365826201078" lon="14.023725560385225"><ele>514.0</ele><time>2026-04-23T13:06:04Z</time></trkpt><trkpt lat="42.21372245357021" lon="14.023779162019332"><ele>514.0</ele><time>2026-04-23T13:06:05Z</time></trkpt><trkpt lat="42.213793659695554" lon="14.023932653830656"><ele>514.0</ele><time>2026-04-23T13:06:07Z</time></trkpt><trkpt lat="42.21381010095569" lon="14.024028148314196"><ele>514.0</ele><time>2026-04-23T13:06:08Z</time></trkpt><trkpt lat="42.213814554168174" lon="14.024118749113212"><ele>514.0</ele><time>2026-04-23T13:06:09Z</time></trkpt><trkpt lat="42.213824690187685" lon="14.024207674318564"><ele>514.0</ele><time>2026-04-23T13:06:10Z</time></trkpt><trkpt lat="42.2138413351052" lon="14.02430953465385"><ele>514.0</ele><time>2026-04-23T13:06:11Z</time></trkpt><trkpt lat="42.21386286879477" lon="14.024420443644352"><ele>514.0</ele><time>2026-04-23T13:06:12Z</time></trkpt><trkpt lat="42.21387848369544" lon="14.02451593543631"><ele>514.0</ele><time>2026-04-23T13:06:13Z</time></trkpt><trkpt lat="42.213899493551615" lon="14.024613148865647"><ele>514.0</ele><time>2026-04-23T13:06:14Z</time></trkpt><trkpt lat="42.21391736866115" lon="14.02471368080293"><ele>516.4</ele><time>2026-04-23T13:06:15Z</time></trkpt><trkpt lat="42.213935407797415" lon="14.024811678280274"><ele>518.8</ele><time>2026-04-23T13:06:16Z</time></trkpt><trkpt lat="42.21397718504618" lon="14.024949978458235"><ele>521.2</ele><time>2026-04-23T13:06:18Z</time></trkpt><trkpt lat="42.21398494641985" lon="14.025060805826566"><ele>523.6</ele><time>2026-04-23T13:06:20Z</time></trkpt><trkpt lat="42.21411644050899" lon="14.025076538766564"><ele>526.0</ele><time>2026-04-23T13:06:24Z</time></trkpt><trkpt lat="42.21421195819343" lon="14.025075656737032"><ele>526.0</ele><time>2026-04-23T13:06:26Z</time></trkpt><trkpt lat="42.21428214532773" lon="14.025096273201692"><ele>526.0</ele><time>2026-04-23T13:06:28Z</time></trkpt><trkpt lat="42.214362096702864" lon="14.025089703514226"><ele>526.0</ele><time>2026-04-23T13:06:30Z</time></trkpt><trkpt lat="42.214482921302334" lon="14.02506227735083"><ele>526.0</ele><time>2026-04-23T13:06:32Z</time></trkpt><trkpt lat="42.214595485826685" lon="14.02506159622059"><ele>526.0</ele><time>2026-04-23T13:06:34Z</time></trkpt><trkpt lat="42.2147008884617" lon="14.025085076840037"><ele>526.0</ele><time>2026-04-23T13:06:36Z</time></trkpt><trkpt lat="42.21479578577073" lon="14.025098804546394"><ele>526.0</ele><time>2026-04-23T13:06:38Z</time></trkpt><trkpt lat="42.21489938517521" lon="14.025085425586864"><ele>526.0</ele><time>2026-04-23T13:06:40Z</time></trkpt><trkpt lat="42.21494935696283" lon="14.02500518943394"><ele>526.0</ele><time>2026-04-23T13:06:43Z</time></trkpt><trkpt lat="42.21491919630068" lon="14.024859645897436"><ele>526.0</ele><time>2026-04-23T13:06:45Z</time></trkpt><trkpt lat="42.21494383219837" lon="14.024766078148508"><ele>520.0</ele><time>2026-04-23T13:06:46Z</time></trkpt><trkpt lat="42.21498199294041" lon="14.024582911578081"><ele>514.0</ele><time>2026-04-23T13:06:48Z</time></trkpt><trkpt lat="42.21500195213757" lon="14.024489082255144"><ele>508.0</ele><time>2026-04-23T13:06:49Z</time></trkpt><trkpt lat="42.215030576590195" lon="14.024349632877184"><ele>502.0</ele><time>2026-04-23T13:06:51Z</time></trkpt><trkpt lat="42.21500030726597" lon="14.024265846599889"><ele>496.0</ele><time>2026-04-23T13:06:52Z</time></trkpt><trkpt lat="42.21489000136489" lon="14.024233084886058"><ele>496.0</ele><time>2026-04-23T13:06:53Z</time></trkpt><trkpt lat="42.21480871337064" lon="14.024138132245046"><ele>496.0</ele><time>2026-04-23T13:06:54Z</time></trkpt><trkpt lat="42.21471257772518" lon="14.024063568547456"><ele>496.0</ele><time>2026-04-23T13:06:55Z</time></trkpt><trkpt lat="42.21461473590899" lon="14.024008832798764"><ele>496.0</ele><time>2026-04-23T13:06:56Z</time></trkpt><trkpt lat="42.214526865361584" lon="14.023948610766684"><ele>496.0</ele><time>2026-04-23T13:06:57Z</time></trkpt><trkpt lat="42.21443730733033" lon="14.023903530712426"><ele>496.0</ele><time>2026-04-23T13:06:58Z</time></trkpt><trkpt lat="42.21434131833917" lon="14.02387356385684"><ele>496.0</ele><time>2026-04-23T13:06:59Z</time></trkpt><trkpt lat="42.21424197502265" lon="14.023839268667937"><ele>496.0</ele><time>2026-04-23T13:07:00Z</time></trkpt><trkpt lat="42.21405440027116" lon="14.02375318990891"><ele>496.0</ele><time>2026-04-23T13:07:02Z</time></trkpt><trkpt lat="42.21396290004344" lon="14.023755700509676"><ele>499.00000000000006</ele><time>2026-04-23T13:07:03Z</time></trkpt><trkpt lat="42.21388251253278" lon="14.023741462697828"><ele>502.0</ele><time>2026-04-23T13:07:04Z</time></trkpt><trkpt lat="42.21379588795699" lon="14.023781864766367"><ele>505.0</ele><time>2026-04-23T13:07:06Z</time></trkpt><trkpt lat="42.213754098876045" lon="14.02388243943003"><ele>508.0</ele><time>2026-04-23T13:07:09Z</time></trkpt><trkpt lat="42.21378827356104" lon="14.024004215691834"><ele>511.00000000000006</ele><time>2026-04-23T13:07:10Z</time></trkpt><trkpt lat="42.2138077876163" lon="14.02410170233605"><ele>514.0</ele><time>2026-04-23T13:07:11Z</time></trkpt><trkpt lat="42.21377135628288" lon="14.024198209922712"><ele>517.6</ele><time>2026-04-23T13:07:13Z</time></trkpt><trkpt lat="42.21364277991625" lon="14.024241864850351"><ele>521.2</ele><time>2026-04-23T13:07:15Z</time></trkpt><trkpt lat="42.21356533096781" lon="14.024282261058932"><ele>524.8000000000001</ele><time>2026-04-23T13:07:16Z</time></trkpt><trkpt lat="42.21349148171916" lon="14.02432925818378"><ele>528.4</ele><time>2026-04-23T13:07:17Z</time></trkpt><trkpt lat="42.21340843370115" lon="14.02437932300434"><ele>532.0</ele><time>2026-04-23T13:07:18Z</time></trkpt><trkpt lat="42.213307869477234" lon="14.024434993464027"><ele>532.0</ele><time>2026-04-23T13:07:19Z</time></trkpt><trkpt lat="42.213195574872536" lon="14.024473269686432"><ele>532.0</ele><time>2026-04-23T13:07:20Z</time></trkpt><trkpt lat="42.21309621963207" lon="14.024549137509943"><ele>532.0</ele><time>2026-04-23T13:07:21Z</time></trkpt><trkpt lat="42.212982645746216" lon="14.024587168013936"><ele>532.0</ele><time>2026-04-23T13:07:22Z</time></trkpt><trkpt lat="42.212871859900304" lon="14.024665325395787"><ele>533.0</ele><time>2026-04-23T13:07:23Z</time></trkpt><trkpt lat="42.21275528577226" lon="14.02472831845118"><ele>534.0</ele><time>2026-04-23T13:07:24Z</time></trkpt><trkpt lat="42.212632713139335" lon="14.024795078971497"><ele>535.0</ele><time>2026-04-23T13:07:25Z</time></trkpt><trkpt lat="42.21250955089377" lon="14.024861659832423"><ele>536.0</ele><time>2026-04-23T13:07:26Z</time></trkpt><trkpt lat="42.21238901446062" lon="14.024926714748927"><ele>538.0</ele><time>2026-04-23T13:07:27Z</time></trkpt><trkpt lat="42.21227116823653" lon="14.024988069794444"><ele>540.0</ele><time>2026-04-23T13:07:28Z</time></trkpt><trkpt lat="42.2121558137487" lon="14.02505324095871"><ele>542.0</ele><time>2026-04-23T13:07:29Z</time></trkpt><trkpt lat="42.21204427569123" lon="14.025115832036674"><ele>544.0</ele><time>2026-04-23T13:07:30Z</time></trkpt><trkpt lat="42.21193386873589" lon="14.025174316611777"><ele>544.0</ele><time>2026-04-23T13:07:31Z</time></trkpt><trkpt lat="42.21172229429258" lon="14.025279323459488"><ele>544.0</ele><time>2026-04-23T13:07:33Z</time></trkpt><trkpt lat="42.21162939542389" lon="14.025313163181696"><ele>544.0</ele><time>2026-04-23T13:07:34Z</time></trkpt><trkpt lat="42.21153431278042" lon="14.025321293325433"><ele>544.0</ele><time>2026-04-23T13:07:35Z</time></trkpt><trkpt lat="42.21144479268215" lon="14.025316521371575"><ele>543.5</ele><time>2026-04-23T13:07:36Z</time></trkpt><trkpt lat="42.21133883410032" lon="14.02533285887206"><ele>543.0</ele><time>2026-04-23T13:07:37Z</time></trkpt><trkpt lat="42.21123265453766" lon="14.025305479488642"><ele>542.5</ele><time>2026-04-23T13:07:38Z</time></trkpt><trkpt lat="42.2111333364" lon="14.02520761909123"><ele>542.0</ele><time>2026-04-23T13:07:39Z</time></trkpt><trkpt lat="42.211028816809" lon="14.025135636836067"><ele>542.0</ele><time>2026-04-23T13:07:40Z</time></trkpt><trkpt lat="42.210920520194655" lon="14.025066137033637"><ele>542.0</ele><time>2026-04-23T13:07:41Z</time></trkpt><trkpt lat="42.2108066406215" lon="14.024993912424023"><ele>542.0</ele><time>2026-04-23T13:07:42Z</time></trkpt><trkpt lat="42.210696806704405" lon="14.024898399075983"><ele>542.0</ele><time>2026-04-23T13:07:43Z</time></trkpt><trkpt lat="42.21057200619032" lon="14.024812580073508"><ele>539.6</ele><time>2026-04-23T13:07:44Z</time></trkpt><trkpt lat="42.210446580819735" lon="14.024742996604571"><ele>537.2</ele><time>2026-04-23T13:07:45Z</time></trkpt><trkpt lat="42.21034776729362" lon="14.024677920865209"><ele>534.8</ele><time>2026-04-23T13:07:46Z</time></trkpt><trkpt lat="42.210262031277466" lon="14.02462485939173"><ele>532.4</ele><time>2026-04-23T13:07:47Z</time></trkpt><trkpt lat="42.21017780584589" lon="14.024583107247363"><ele>530.0</ele><time>2026-04-23T13:07:48Z</time></trkpt><trkpt lat="42.209992030648316" lon="14.024550525949197"><ele>530.0</ele><time>2026-04-23T13:07:50Z</time></trkpt><trkpt lat="42.209894641865176" lon="14.024559811346284"><ele>530.0</ele><time>2026-04-23T13:07:51Z</time></trkpt><trkpt lat="42.209795927815705" lon="14.0245860600906"><ele>530.0</ele><time>2026-04-23T13:07:52Z</time></trkpt><trkpt lat="42.20969618144538" lon="14.024636197167345"><ele>530.0</ele><time>2026-04-23T13:07:53Z</time></trkpt><trkpt lat="42.20959303417089" lon="14.024699192197266"><ele>530.0</ele><time>2026-04-23T13:07:54Z</time></trkpt><trkpt lat="42.20948830662439" lon="14.024765169556161"><ele>534.8</ele><time>2026-04-23T13:07:55Z</time></trkpt><trkpt lat="42.20938124849023" lon="14.024835861005332"><ele>539.6</ele><time>2026-04-23T13:07:56Z</time></trkpt><trkpt lat="42.209278847057206" lon="14.02489662268006"><ele>544.4</ele><time>2026-04-23T13:07:57Z</time></trkpt><trkpt lat="42.20917452299143" lon="14.024944566432634"><ele>549.2</ele><time>2026-04-23T13:07:58Z</time></trkpt><trkpt lat="42.209066591804856" lon="14.024945254391124"><ele>554.0</ele><time>2026-04-23T13:07:59Z</time></trkpt><trkpt lat="42.208955097296766" lon="14.024962468186013"><ele>557.75</ele><time>2026-04-23T13:08:00Z</time></trkpt><trkpt lat="42.20884224694473" lon="14.024986727493541"><ele>561.5</ele><time>2026-04-23T13:08:01Z</time></trkpt><trkpt lat="42.2087208539627" lon="14.024991651870149"><ele>565.25</ele><time>2026-04-23T13:08:02Z</time></trkpt><trkpt lat="42.20859618499445" lon="14.024996740182702"><ele>569.0</ele><time>2026-04-23T13:08:03Z</time></trkpt><trkpt lat="42.20846937254636" lon="14.025003324063475"><ele>569.0</ele><time>2026-04-23T13:08:04Z</time></trkpt><trkpt lat="42.20833629900174" lon="14.025012709980514"><ele>569.0</ele><time>2026-04-23T13:08:05Z</time></trkpt><trkpt lat="42.20818928565337" lon="14.025011606829311"><ele>569.0</ele><time>2026-04-23T13:08:06Z</time></trkpt><trkpt lat="42.20803764672168" lon="14.0250171792246"><ele>569.0</ele><time>2026-04-23T13:08:07Z</time></trkpt><trkpt lat="42.20789380929375" lon="14.02502452613188"><ele>571.0</ele><time>2026-04-23T13:08:08Z</time></trkpt><trkpt lat="42.207746951743246" lon="14.025030617022193"><ele>573.0</ele><time>2026-04-23T13:08:09Z</time></trkpt><trkpt lat="42.20760157698341" lon="14.025047403732787"><ele>575.0</ele><time>2026-04-23T13:08:10Z</time></trkpt><trkpt lat="42.207467522472434" lon="14.025076942737407"><ele>577.0</ele><time>2026-04-23T13:08:11Z</time></trkpt><trkpt lat="42.20734197598719" lon="14.025151528673844"><ele>581.25</ele><time>2026-04-23T13:08:12Z</time></trkpt><trkpt lat="42.20723172633612" lon="14.025247723616479"><ele>585.5</ele><time>2026-04-23T13:08:13Z</time></trkpt><trkpt lat="42.20714091334709" lon="14.025374298529998"><ele>589.75</ele><time>2026-04-23T13:08:14Z</time></trkpt><trkpt lat="42.207073669445165" lon="14.025526092722945"><ele>594.0</ele><time>2026-04-23T13:08:15Z</time></trkpt><trkpt lat="42.20701400992281" lon="14.025695640199563"><ele>594.0</ele><time>2026-04-23T13:08:16Z</time></trkpt><trkpt lat="42.20695018010289" lon="14.025872190277585"><ele>594.0</ele><time>2026-04-23T13:08:17Z</time></trkpt><trkpt lat="42.20688542430906" lon="14.026053340964781"><ele>594.0</ele><time>2026-04-23T13:08:18Z</time></trkpt><trkpt lat="42.20681926109198" lon="14.026236162282892"><ele>594.0</ele><time>2026-04-23T13:08:19Z</time></trkpt><trkpt lat="42.206766192629026" lon="14.026424953807162"><ele>594.0</ele><time>2026-04-23T13:08:20Z</time></trkpt><trkpt lat="42.20674033496481" lon="14.026625164691415"><ele>594.0</ele><time>2026-04-23T13:08:21Z</time></trkpt><trkpt lat="42.206734734760666" lon="14.026836653960533"><ele>594.0</ele><time>2026-04-23T13:08:22Z</time></trkpt><trkpt lat="42.20674430588012" lon="14.027061974090818"><ele>593.6666666666666</ele><time>2026-04-23T13:08:23Z</time></trkpt><trkpt lat="42.20676603976564" lon="14.027293676257704"><ele>593.3333333333333</ele><time>2026-04-23T13:08:24Z</time></trkpt><trkpt lat="42.206790173076584" lon="14.027525096878115"><ele>593.0</ele><time>2026-04-23T13:08:25Z</time></trkpt><trkpt lat="42.20681316677472" lon="14.027749095971256"><ele>594.3333333333333</ele><time>2026-04-23T13:08:26Z</time></trkpt><trkpt lat="42.20683330372204" lon="14.027967174691506"><ele>595.6666666666666</ele><time>2026-04-23T13:08:27Z</time></trkpt><trkpt lat="42.20685366508912" lon="14.028171737955134"><ele>597.0</ele><time>2026-04-23T13:08:28Z</time></trkpt><trkpt lat="42.20687187038751" lon="14.028367583722044"><ele>598.25</ele><time>2026-04-23T13:08:29Z</time></trkpt><trkpt lat="42.20688884302201" lon="14.028556096967806"><ele>599.5</ele><time>2026-04-23T13:08:30Z</time></trkpt><trkpt lat="42.20690169097351" lon="14.028732580824686"><ele>600.75</ele><time>2026-04-23T13:08:31Z</time></trkpt><trkpt lat="42.206911274162835" lon="14.028891080117155"><ele>602.0</ele><time>2026-04-23T13:08:32Z</time></trkpt><trkpt lat="42.206920957461115" lon="14.029040516513641"><ele>603.0</ele><time>2026-04-23T13:08:33Z</time></trkpt><trkpt lat="42.20691962692966" lon="14.02918349702012"><ele>604.0</ele><time>2026-04-23T13:08:34Z</time></trkpt><trkpt lat="42.20689012571536" lon="14.029313674875223"><ele>605.0</ele><time>2026-04-23T13:08:35Z</time></trkpt><trkpt lat="42.20681465825583" lon="14.029394027636764"><ele>606.0</ele><time>2026-04-23T13:08:36Z</time></trkpt><trkpt lat="42.20676108969875" lon="14.029500598895229"><ele>607.0</ele><time>2026-04-23T13:08:37Z</time></trkpt><trkpt lat="42.206674465511746" lon="14.029571084955087"><ele>607.0</ele><time>2026-04-23T13:08:38Z</time></trkpt><trkpt lat="42.206576364012406" lon="14.029620292238969"><ele>607.0</ele><time>2026-04-23T13:08:39Z</time></trkpt><trkpt lat="42.20646256978885" lon="14.029606542278913"><ele>607.0</ele><time>2026-04-23T13:08:40Z</time></trkpt><trkpt lat="42.20634264517126" lon="14.029587460127392"><ele>607.0</ele><time>2026-04-23T13:08:41Z</time></trkpt><trkpt lat="42.20620855319593" lon="14.02957737259755"><ele>608.75</ele><time>2026-04-23T13:08:42Z</time></trkpt><trkpt lat="42.20607035203634" lon="14.029536199201926"><ele>610.5</ele><time>2026-04-23T13:08:43Z</time></trkpt><trkpt lat="42.20592509894576" lon="14.029498605814338"><ele>612.25</ele><time>2026-04-23T13:08:44Z</time></trkpt><trkpt lat="42.20577707048232" lon="14.029463840389592"><ele>614.0</ele><time>2026-04-23T13:08:45Z</time></trkpt><trkpt lat="42.20562442848599" lon="14.029428421914721"><ele>616.0</ele><time>2026-04-23T13:08:46Z</time></trkpt><trkpt lat="42.205468081837246" lon="14.029404797960547"><ele>618.0</ele><time>2026-04-23T13:08:47Z</time></trkpt><trkpt lat="42.20531117685265" lon="14.029398420064803"><ele>620.0</ele><time>2026-04-23T13:08:48Z</time></trkpt><trkpt lat="42.2051600552645" lon="14.029427658256177"><ele>620.0</ele><time>2026-04-23T13:08:49Z</time></trkpt><trkpt lat="42.20502297257551" lon="14.029505819811604"><ele>620.0</ele><time>2026-04-23T13:08:50Z</time></trkpt><trkpt lat="42.204907045025614" lon="14.029624892608066"><ele>620.0</ele><time>2026-04-23T13:08:51Z</time></trkpt><trkpt lat="42.20480698748804" lon="14.029773584906522"><ele>620.0</ele><time>2026-04-23T13:08:52Z</time></trkpt><trkpt lat="42.2047184087361" lon="14.029941138946269"><ele>621.3333333333333</ele><time>2026-04-23T13:08:53Z</time></trkpt><trkpt lat="42.20463016066867" lon="14.03011190758606"><ele>622.6666666666666</ele><time>2026-04-23T13:08:54Z</time></trkpt><trkpt lat="42.20453746892927" lon="14.03028383069912"><ele>624.0</ele><time>2026-04-23T13:08:55Z</time></trkpt><trkpt lat="42.20444228537051" lon="14.030457922926614"><ele>624.0</ele><time>2026-04-23T13:08:56Z</time></trkpt><trkpt lat="42.20435325240599" lon="14.03062985019112"><ele>624.0</ele><time>2026-04-23T13:08:57Z</time></trkpt><trkpt lat="42.20425843578183" lon="14.030802655499372"><ele>624.0</ele><time>2026-04-23T13:08:58Z</time></trkpt><trkpt lat="42.20416232074893" lon="14.030974413037438"><ele>624.6666666666666</ele><time>2026-04-23T13:08:59Z</time></trkpt><trkpt lat="42.20406599179456" lon="14.03115082657175"><ele>625.3333333333333</ele><time>2026-04-23T13:09:00Z</time></trkpt><trkpt lat="42.2039692255162" lon="14.031335660643668"><ele>626.0</ele><time>2026-04-23T13:09:01Z</time></trkpt><trkpt lat="42.20387115250041" lon="14.031520734428476"><ele>628.6666666666666</ele><time>2026-04-23T13:09:02Z</time></trkpt><trkpt lat="42.20377326147918" lon="14.031702614745836"><ele>631.3333333333334</ele><time>2026-04-23T13:09:03Z</time></trkpt><trkpt lat="42.203669398774686" lon="14.031888989885307"><ele>634.0</ele><time>2026-04-23T13:09:04Z</time></trkpt><trkpt lat="42.203571578499435" lon="14.032066929554382"><ele>634.0</ele><time>2026-04-23T13:09:05Z</time></trkpt><trkpt lat="42.20346704722587" lon="14.032250770115631"><ele>634.0</ele><time>2026-04-23T13:09:06Z</time></trkpt><trkpt lat="42.20336308613155" lon="14.032439111705113"><ele>634.0</ele><time>2026-04-23T13:09:07Z</time></trkpt><trkpt lat="42.20326115180503" lon="14.032630906313203"><ele>640.3333333333334</ele><time>2026-04-23T13:09:08Z</time></trkpt><trkpt lat="42.20315625934422" lon="14.032822590027008"><ele>646.6666666666666</ele><time>2026-04-23T13:09:09Z</time></trkpt><trkpt lat="42.20305316973888" lon="14.03300284393329"><ele>653.0</ele><time>2026-04-23T13:09:10Z</time></trkpt><trkpt lat="42.20295994905976" lon="14.03314840769986"><ele>653.0</ele><time>2026-04-23T13:09:11Z</time></trkpt><trkpt lat="42.20286473464551" lon="14.03324518976048"><ele>653.0</ele><time>2026-04-23T13:09:12Z</time></trkpt><trkpt lat="42.20279521658016" lon="14.033327466604728"><ele>653.0</ele><time>2026-04-23T13:09:13Z</time></trkpt><trkpt lat="42.20273355334572" lon="14.033401435861924"><ele>653.0</ele><time>2026-04-23T13:09:14Z</time></trkpt><trkpt lat="42.20267713122634" lon="14.03346911801905"><ele>653.0</ele><time>2026-04-23T13:09:15Z</time></trkpt><trkpt lat="42.202618773721674" lon="14.033541672627015"><ele>653.0</ele><time>2026-04-23T13:09:16Z</time></trkpt><trkpt lat="42.202558594579834" lon="14.033636249584733"><ele>653.0</ele><time>2026-04-23T13:09:17Z</time></trkpt><trkpt lat="42.202491816212415" lon="14.03376211207177"><ele>653.0</ele><time>2026-04-23T13:09:18Z</time></trkpt><trkpt lat="42.20244070604307" lon="14.033925376837924"><ele>653.0</ele><time>2026-04-23T13:09:19Z</time></trkpt><trkpt lat="42.20239224572484" lon="14.034106140489323"><ele>653.0</ele><time>2026-04-23T13:09:20Z</time></trkpt><trkpt lat="42.20236126908269" lon="14.03430251529016"><ele>651.3333333333333</ele><time>2026-04-23T13:09:21Z</time></trkpt><trkpt lat="42.20233821582742" lon="14.034499511574987"><ele>649.6666666666666</ele><time>2026-04-23T13:09:22Z</time></trkpt><trkpt lat="42.202294016615106" lon="14.034693659047663"><ele>648.0</ele><time>2026-04-23T13:09:23Z</time></trkpt><trkpt lat="42.20226379651445" lon="14.03489549410954"><ele>647.75</ele><time>2026-04-23T13:09:24Z</time></trkpt><trkpt lat="42.20226660011478" lon="14.035090730769308"><ele>647.5</ele><time>2026-04-23T13:09:25Z</time></trkpt><trkpt lat="42.202286865602225" lon="14.035259702754852"><ele>647.25</ele><time>2026-04-23T13:09:26Z</time></trkpt><trkpt lat="42.20233214679845" lon="14.0354189725394"><ele>647.0</ele><time>2026-04-23T13:09:27Z</time></trkpt><trkpt lat="42.202386350971075" lon="14.03558186539931"><ele>647.0</ele><time>2026-04-23T13:09:28Z</time></trkpt><trkpt lat="42.20241673953553" lon="14.03574809267374"><ele>647.0</ele><time>2026-04-23T13:09:29Z</time></trkpt><trkpt lat="42.20245689600499" lon="14.035882878187039"><ele>647.0</ele><time>2026-04-23T13:09:30Z</time></trkpt><trkpt lat="42.202487352293026" lon="14.035996627708679"><ele>647.0</ele><time>2026-04-23T13:09:31Z</time></trkpt><trkpt lat="42.20252489673346" lon="14.036100790515729"><ele>647.0</ele><time>2026-04-23T13:09:32Z</time></trkpt><trkpt lat="42.20251688132834" lon="14.036229498964106"><ele>648.2</ele><time>2026-04-23T13:09:33Z</time></trkpt><trkpt lat="42.20250662887364" lon="14.0363707606503"><ele>649.4000000000001</ele><time>2026-04-23T13:09:34Z</time></trkpt><trkpt lat="42.20247264741492" lon="14.036503824641677"><ele>650.5999999999999</ele><time>2026-04-23T13:09:35Z</time></trkpt><trkpt lat="42.20242794368872" lon="14.036641868291069"><ele>651.8</ele><time>2026-04-23T13:09:36Z</time></trkpt><trkpt lat="42.20236624710449" lon="14.036777654565961"><ele>653.0</ele><time>2026-04-23T13:09:37Z</time></trkpt><trkpt lat="42.20229333576036" lon="14.036922791700388"><ele>658.25</ele><time>2026-04-23T13:09:38Z</time></trkpt><trkpt lat="42.20222614944222" lon="14.037092401684731"><ele>663.5</ele><time>2026-04-23T13:09:39Z</time></trkpt><trkpt lat="42.20214693166325" lon="14.037250960326936"><ele>668.75</ele><time>2026-04-23T13:09:40Z</time></trkpt><trkpt lat="42.20205400227537" lon="14.037402635245394"><ele>674.0</ele><time>2026-04-23T13:09:41Z</time></trkpt><trkpt lat="42.201973332908835" lon="14.037575635423199"><ele>674.0</ele><time>2026-04-23T13:09:42Z</time></trkpt><trkpt lat="42.20189891902085" lon="14.037761004083949"><ele>674.0</ele><time>2026-04-23T13:09:43Z</time></trkpt><trkpt lat="42.20184929687485" lon="14.03796141239704"><ele>674.0</ele><time>2026-04-23T13:09:44Z</time></trkpt><trkpt lat="42.201771095678126" lon="14.038157646453406"><ele>672.0</ele><time>2026-04-23T13:09:45Z</time></trkpt><trkpt lat="42.2017088588667" lon="14.038364666479351"><ele>670.0</ele><time>2026-04-23T13:09:46Z</time></trkpt><trkpt lat="42.20164976292968" lon="14.038571903729311"><ele>668.0</ele><time>2026-04-23T13:09:47Z</time></trkpt><trkpt lat="42.20159106516293" lon="14.03878934950054"><ele>668.0</ele><time>2026-04-23T13:09:48Z</time></trkpt><trkpt lat="42.201532342692964" lon="14.039004305184418"><ele>668.0</ele><time>2026-04-23T13:09:49Z</time></trkpt><trkpt lat="42.201488658831366" lon="14.039226369187084"><ele>668.0</ele><time>2026-04-23T13:09:50Z</time></trkpt><trkpt lat="42.201428649216595" lon="14.039439861934357"><ele>669.6666666666666</ele><time>2026-04-23T13:09:51Z</time></trkpt><trkpt lat="42.20136535416337" lon="14.039650449325855"><ele>671.3333333333334</ele><time>2026-04-23T13:09:52Z</time></trkpt><trkpt lat="42.201306012806256" lon="14.039859385302291"><ele>673.0</ele><time>2026-04-23T13:09:53Z</time></trkpt><trkpt lat="42.20123059210411" lon="14.040046274551921"><ele>673.6666666666667</ele><time>2026-04-23T13:09:54Z</time></trkpt><trkpt lat="42.20116382708987" lon="14.04021012998371"><ele>674.3333333333334</ele><time>2026-04-23T13:09:55Z</time></trkpt><trkpt lat="42.20108644129793" lon="14.040353189117543"><ele>675.0</ele><time>2026-04-23T13:09:56Z</time></trkpt><trkpt lat="42.20090926730377" lon="14.040593445333691"><ele>675.0</ele><time>2026-04-23T13:09:58Z</time></trkpt><trkpt lat="42.20080746519856" lon="14.040712786568246"><ele>675.0</ele><time>2026-04-23T13:09:59Z</time></trkpt><trkpt lat="42.20070332314573" lon="14.040836346634707"><ele>675.0</ele><time>2026-04-23T13:10:00Z</time></trkpt><trkpt lat="42.20060349233153" lon="14.040970720540988"><ele>675.0</ele><time>2026-04-23T13:10:01Z</time></trkpt><trkpt lat="42.200509155176874" lon="14.041119245240067"><ele>676.5</ele><time>2026-04-23T13:10:02Z</time></trkpt><trkpt lat="42.20043849417856" lon="14.041290816359"><ele>678.0</ele><time>2026-04-23T13:10:03Z</time></trkpt><trkpt lat="42.200370330538654" lon="14.041434153941408"><ele>679.5</ele><time>2026-04-23T13:10:04Z</time></trkpt><trkpt lat="42.20030589382296" lon="14.04153795778865"><ele>681.0</ele><time>2026-04-23T13:10:05Z</time></trkpt><trkpt lat="42.20023642872373" lon="14.041590095560984"><ele>681.0</ele><time>2026-04-23T13:10:06Z</time></trkpt><trkpt lat="42.2001379842958" lon="14.041606345826013"><ele>681.0</ele><time>2026-04-23T13:10:08Z</time></trkpt><trkpt lat="42.200065852807406" lon="14.041648406262132"><ele>681.0</ele><time>2026-04-23T13:10:42Z</time></trkpt><trkpt lat="42.19999298849692" lon="14.041685896050513"><ele>681.0</ele><time>2026-04-23T13:10:43Z</time></trkpt><trkpt lat="42.19990922194288" lon="14.041725099921383"><ele>681.0</ele><time>2026-04-23T13:10:44Z</time></trkpt><trkpt lat="42.199828903620755" lon="14.041761845264444"><ele>681.0</ele><time>2026-04-23T13:10:45Z</time></trkpt><trkpt lat="42.199733931176326" lon="14.041804501905672"><ele>681.75</ele><time>2026-04-23T13:10:46Z</time></trkpt><trkpt lat="42.19962514104761" lon="14.04185529521958"><ele>682.5</ele><time>2026-04-23T13:10:47Z</time></trkpt><trkpt lat="42.199511001453324" lon="14.041912362481796"><ele>683.25</ele><time>2026-04-23T13:10:48Z</time></trkpt><trkpt lat="42.19939632311266" lon="14.041967124350494"><ele>684.0</ele><time>2026-04-23T13:10:49Z</time></trkpt><trkpt lat="42.19927333738965" lon="14.042022183308562"><ele>684.0</ele><time>2026-04-23T13:10:50Z</time></trkpt><trkpt lat="42.19914530835466" lon="14.042079954466042"><ele>684.0</ele><time>2026-04-23T13:10:51Z</time></trkpt><trkpt lat="42.199009864953425" lon="14.042138786363601"><ele>684.0</ele><time>2026-04-23T13:10:52Z</time></trkpt><trkpt lat="42.198866093174296" lon="14.042193869923498"><ele>684.0</ele><time>2026-04-23T13:10:53Z</time></trkpt><trkpt lat="42.19872125500485" lon="14.042232555382467"><ele>686.3333333333334</ele><time>2026-04-23T13:10:54Z</time></trkpt><trkpt lat="42.19856584222785" lon="14.042259191355308"><ele>688.6666666666667</ele><time>2026-04-23T13:10:55Z</time></trkpt><trkpt lat="42.19840790851832" lon="14.042288329191827"><ele>691.0</ele><time>2026-04-23T13:10:56Z</time></trkpt><trkpt lat="42.198243550098006" lon="14.04232241255859"><ele>693.3333333333334</ele><time>2026-04-23T13:10:57Z</time></trkpt><trkpt lat="42.198076860969884" lon="14.042358280938734"><ele>695.6666666666666</ele><time>2026-04-23T13:10:58Z</time></trkpt><trkpt lat="42.19791027585148" lon="14.042395239702808"><ele>698.0</ele><time>2026-04-23T13:10:59Z</time></trkpt><trkpt lat="42.197739504924456" lon="14.0424328754099"><ele>698.6666666666666</ele><time>2026-04-23T13:11:00Z</time></trkpt><trkpt lat="42.19756732537517" lon="14.042467505681635"><ele>699.3333333333334</ele><time>2026-04-23T13:11:01Z</time></trkpt><trkpt lat="42.19739461341501" lon="14.042500405029479"><ele>700.0</ele><time>2026-04-23T13:11:02Z</time></trkpt><trkpt lat="42.1972221878702" lon="14.042533128215323"><ele>702.6666666666667</ele><time>2026-04-23T13:11:03Z</time></trkpt><trkpt lat="42.197056680973205" lon="14.04257409747912"><ele>705.3333333333334</ele><time>2026-04-23T13:11:04Z</time></trkpt><trkpt lat="42.19688922767385" lon="14.04261187535897"><ele>708.0</ele><time>2026-04-23T13:11:05Z</time></trkpt><trkpt lat="42.1967230673892" lon="14.042640523420717"><ele>708.0</ele><time>2026-04-23T13:11:06Z</time></trkpt><trkpt lat="42.19655906565016" lon="14.04263588960185"><ele>708.0</ele><time>2026-04-23T13:11:07Z</time></trkpt><trkpt lat="42.19642368654254" lon="14.042604090148664"><ele>708.0</ele><time>2026-04-23T13:11:08Z</time></trkpt><trkpt lat="42.19629678665921" lon="14.042534868627886"><ele>708.0</ele><time>2026-04-23T13:11:09Z</time></trkpt><trkpt lat="42.1962049961764" lon="14.042415157405113"><ele>709.3333333333334</ele><time>2026-04-23T13:11:10Z</time></trkpt><trkpt lat="42.195973219396876" lon="14.04226099058823"><ele>710.6666666666667</ele><time>2026-04-23T13:11:12Z</time></trkpt><trkpt lat="42.1958529292553" lon="14.042218585773753"><ele>712.0</ele><time>2026-04-23T13:11:13Z</time></trkpt><trkpt lat="42.19573487243778" lon="14.042216230488396"><ele>712.0</ele><time>2026-04-23T13:11:14Z</time></trkpt><trkpt lat="42.19563396300106" lon="14.04227279242494"><ele>712.0</ele><time>2026-04-23T13:11:15Z</time></trkpt><trkpt lat="42.195552818365975" lon="14.042375999819653"><ele>712.0</ele><time>2026-04-23T13:11:16Z</time></trkpt><trkpt lat="42.19549034847411" lon="14.04251627595641"><ele>712.0</ele><time>2026-04-23T13:11:17Z</time></trkpt><trkpt lat="42.195440302104714" lon="14.042684601044932"><ele>713.5</ele><time>2026-04-23T13:11:18Z</time></trkpt><trkpt lat="42.1954099824267" lon="14.042864352492082"><ele>715.0</ele><time>2026-04-23T13:11:19Z</time></trkpt><trkpt lat="42.1954015054501" lon="14.043040141316082"><ele>716.5</ele><time>2026-04-23T13:11:20Z</time></trkpt><trkpt lat="42.195400469783905" lon="14.043193853709392"><ele>718.0</ele><time>2026-04-23T13:11:21Z</time></trkpt><trkpt lat="42.19537374876948" lon="14.043321663081121"><ele>719.8</ele><time>2026-04-23T13:11:22Z</time></trkpt><trkpt lat="42.195312489142985" lon="14.043390731984267"><ele>721.5999999999999</ele><time>2026-04-23T13:11:23Z</time></trkpt><trkpt lat="42.19523339523778" lon="14.043425960491966"><ele>723.4000000000001</ele><time>2026-04-23T13:11:24Z</time></trkpt><trkpt lat="42.19513646084106" lon="14.043389245804738"><ele>725.2</ele><time>2026-04-23T13:11:25Z</time></trkpt><trkpt lat="42.19501978786188" lon="14.043445892913272"><ele>727.0</ele><time>2026-04-23T13:11:26Z</time></trkpt><trkpt lat="42.19490305548022" lon="14.043511174375563"><ele>728.25</ele><time>2026-04-23T13:11:27Z</time></trkpt><trkpt lat="42.19478732957693" lon="14.04359613930075"><ele>729.5</ele><time>2026-04-23T13:11:28Z</time></trkpt><trkpt lat="42.19465866725313" lon="14.043691200950356"><ele>730.75</ele><time>2026-04-23T13:11:29Z</time></trkpt><trkpt lat="42.19452488001167" lon="14.043795897919583"><ele>732.0</ele><time>2026-04-23T13:11:30Z</time></trkpt><trkpt lat="42.19439881401209" lon="14.04390386075531"><ele>732.0</ele><time>2026-04-23T13:11:31Z</time></trkpt><trkpt lat="42.19428044549255" lon="14.044024005468753"><ele>732.0</ele><time>2026-04-23T13:11:32Z</time></trkpt><trkpt lat="42.194168930992866" lon="14.044154529946361"><ele>732.0</ele><time>2026-04-23T13:11:33Z</time></trkpt><trkpt lat="42.19406411155812" lon="14.044281346524263"><ele>732.0</ele><time>2026-04-23T13:11:34Z</time></trkpt><trkpt lat="42.19397801223971" lon="14.044386238465986"><ele>737.6666666666666</ele><time>2026-04-23T13:11:35Z</time></trkpt><trkpt lat="42.19377519431424" lon="14.044514919731938"><ele>743.3333333333333</ele><time>2026-04-23T13:11:37Z</time></trkpt><trkpt lat="42.19365711188611" lon="14.044505027034374"><ele>749.0</ele><time>2026-04-23T13:11:38Z</time></trkpt><trkpt lat="42.19354090352063" lon="14.044448380320985"><ele>749.0</ele><time>2026-04-23T13:11:39Z</time></trkpt><trkpt lat="42.193420980538356" lon="14.04435786763648"><ele>749.0</ele><time>2026-04-23T13:11:40Z</time></trkpt><trkpt lat="42.19329535938517" lon="14.044255140351158"><ele>749.0</ele><time>2026-04-23T13:11:41Z</time></trkpt><trkpt lat="42.19315397576327" lon="14.04414897278009"><ele>749.0</ele><time>2026-04-23T13:11:42Z</time></trkpt><trkpt lat="42.193012847563416" lon="14.044052655780312"><ele>751.3333333333333</ele><time>2026-04-23T13:11:43Z</time></trkpt><trkpt lat="42.19286780262553" lon="14.043946323187372"><ele>753.6666666666666</ele><time>2026-04-23T13:11:44Z</time></trkpt><trkpt lat="42.192726065951334" lon="14.043835805240818"><ele>756.0</ele><time>2026-04-23T13:11:45Z</time></trkpt><trkpt lat="42.19259789377178" lon="14.043738041171233"><ele>756.0</ele><time>2026-04-23T13:11:46Z</time></trkpt><trkpt lat="42.19248552730672" lon="14.043661524661752"><ele>756.0</ele><time>2026-04-23T13:11:47Z</time></trkpt><trkpt lat="42.19238694890017" lon="14.043619619696253"><ele>756.0</ele><time>2026-04-23T13:11:48Z</time></trkpt><trkpt lat="42.19230179331108" lon="14.043595567696697"><ele>756.0</ele><time>2026-04-23T13:11:49Z</time></trkpt><trkpt lat="42.192224913654414" lon="14.043673332768453"><ele>756.0</ele><time>2026-04-23T13:11:50Z</time></trkpt><trkpt lat="42.19214650430104" lon="14.043767265706439"><ele>757.75</ele><time>2026-04-23T13:11:51Z</time></trkpt><trkpt lat="42.19206111900428" lon="14.043881603674155"><ele>759.5</ele><time>2026-04-23T13:11:52Z</time></trkpt><trkpt lat="42.19197276758496" lon="14.043982947823295"><ele>761.25</ele><time>2026-04-23T13:11:53Z</time></trkpt><trkpt lat="42.19186617491054" lon="14.04407188493861"><ele>763.0</ele><time>2026-04-23T13:11:54Z</time></trkpt><trkpt lat="42.191745575151714" lon="14.044109737950594"><ele>763.0</ele><time>2026-04-23T13:11:55Z</time></trkpt><trkpt lat="42.191617032661085" lon="14.044093100323714"><ele>763.0</ele><time>2026-04-23T13:11:56Z</time></trkpt><trkpt lat="42.191483454197" lon="14.044052836452863"><ele>763.0</ele><time>2026-04-23T13:11:57Z</time></trkpt><trkpt lat="42.1913404182144" lon="14.044008940204948"><ele>763.0</ele><time>2026-04-23T13:11:58Z</time></trkpt><trkpt lat="42.19119417489664" lon="14.043969511804633"><ele>766.3333333333334</ele><time>2026-04-23T13:11:59Z</time></trkpt><trkpt lat="42.19104679067065" lon="14.043949993940066"><ele>769.6666666666667</ele><time>2026-04-23T13:12:00Z</time></trkpt><trkpt lat="42.1908960041999" lon="14.043943917599027"><ele>773.0</ele><time>2026-04-23T13:12:01Z</time></trkpt><trkpt lat="42.19074320717922" lon="14.043949745774588"><ele>779.0</ele><time>2026-04-23T13:12:02Z</time></trkpt><trkpt lat="42.19059278575846" lon="14.043980106243424"><ele>785.0</ele><time>2026-04-23T13:12:03Z</time></trkpt><trkpt lat="42.19030894551048" lon="14.0441142579644"><ele>785.6666666666667</ele><time>2026-04-23T13:12:05Z</time></trkpt><trkpt lat="42.190172326254675" lon="14.04420245210766"><ele>786.3333333333333</ele><time>2026-04-23T13:12:06Z</time></trkpt><trkpt lat="42.190037625208134" lon="14.044290686513742"><ele>787.0</ele><time>2026-04-23T13:12:07Z</time></trkpt><trkpt lat="42.18990233734016" lon="14.044380928641312"><ele>788.6666666666666</ele><time>2026-04-23T13:12:08Z</time></trkpt><trkpt lat="42.189771951722136" lon="14.044493577141106"><ele>790.3333333333333</ele><time>2026-04-23T13:12:09Z</time></trkpt><trkpt lat="42.189653359691896" lon="14.04462582687203"><ele>792.0</ele><time>2026-04-23T13:12:10Z</time></trkpt><trkpt lat="42.18953518680796" lon="14.044757718566828"><ele>792.0</ele><time>2026-04-23T13:12:11Z</time></trkpt><trkpt lat="42.18941826991523" lon="14.044875930041052"><ele>792.0</ele><time>2026-04-23T13:12:12Z</time></trkpt><trkpt lat="42.18929598210139" lon="14.044969305190271"><ele>792.0</ele><time>2026-04-23T13:12:13Z</time></trkpt><trkpt lat="42.18915938706402" lon="14.045039096584187"><ele>792.0</ele><time>2026-04-23T13:12:14Z</time></trkpt><trkpt lat="42.18901572768663" lon="14.045099551966896"><ele>795.6666666666667</ele><time>2026-04-23T13:12:15Z</time></trkpt><trkpt lat="42.18886311902161" lon="14.045160822990399"><ele>799.3333333333334</ele><time>2026-04-23T13:12:16Z</time></trkpt><trkpt lat="42.18869846558662" lon="14.045201336027844"><ele>803.0</ele><time>2026-04-23T13:12:17Z</time></trkpt><trkpt lat="42.188542648372255" lon="14.045304368148804"><ele>803.0</ele><time>2026-04-23T13:12:18Z</time></trkpt><trkpt lat="42.18838499251165" lon="14.045387995263518"><ele>803.0</ele><time>2026-04-23T13:12:19Z</time></trkpt><trkpt lat="42.18824001665388" lon="14.045491715820495"><ele>803.0</ele><time>2026-04-23T13:12:20Z</time></trkpt><trkpt lat="42.18809965126069" lon="14.045603292691112"><ele>803.75</ele><time>2026-04-23T13:12:21Z</time></trkpt><trkpt lat="42.18795795677763" lon="14.045676260332499"><ele>804.5</ele><time>2026-04-23T13:12:22Z</time></trkpt><trkpt lat="42.18782236694312" lon="14.045688961126569"><ele>805.25</ele><time>2026-04-23T13:12:23Z</time></trkpt><trkpt lat="42.187694643106774" lon="14.04565063599813"><ele>806.0</ele><time>2026-04-23T13:12:24Z</time></trkpt><trkpt lat="42.18758177012673" lon="14.045591636591556"><ele>806.0</ele><time>2026-04-23T13:12:25Z</time></trkpt><trkpt lat="42.187491104715" lon="14.045577295037452"><ele>806.0</ele><time>2026-04-23T13:12:26Z</time></trkpt><trkpt lat="42.18740157193008" lon="14.045618206073874"><ele>806.0</ele><time>2026-04-23T13:12:27Z</time></trkpt><trkpt lat="42.18732679501681" lon="14.045710476321073"><ele>806.0</ele><time>2026-04-23T13:12:28Z</time></trkpt><trkpt lat="42.18726219194221" lon="14.04583805799236"><ele>806.0</ele><time>2026-04-23T13:12:29Z</time></trkpt><trkpt lat="42.18718885235419" lon="14.04598163244626"><ele>808.0</ele><time>2026-04-23T13:12:30Z</time></trkpt><trkpt lat="42.18710912877069" lon="14.046121140305061"><ele>810.0</ele><time>2026-04-23T13:12:31Z</time></trkpt><trkpt lat="42.18702460592435" lon="14.046262594698035"><ele>812.0</ele><time>2026-04-23T13:12:32Z</time></trkpt><trkpt lat="42.18694291521407" lon="14.04639389986133"><ele>814.0</ele><time>2026-04-23T13:12:33Z</time></trkpt><trkpt lat="42.18686165849444" lon="14.04651188547071"><ele>814.0</ele><time>2026-04-23T13:12:34Z</time></trkpt><trkpt lat="42.18678170291816" lon="14.04660948706561"><ele>814.0</ele><time>2026-04-23T13:12:35Z</time></trkpt><trkpt lat="42.18670862877713" lon="14.046682014488027"><ele>814.0</ele><time>2026-04-23T13:12:36Z</time></trkpt><trkpt lat="42.186644732577896" lon="14.046736450500372"><ele>814.0</ele><time>2026-04-23T13:12:37Z</time></trkpt><trkpt lat="42.18654852499171" lon="14.04680393262256"><ele>814.0</ele><time>2026-04-23T13:12:39Z</time></trkpt><trkpt lat="42.18646511664106" lon="14.046873773531727"><ele>815.9999999999999</ele><time>2026-04-23T13:12:42Z</time></trkpt><trkpt lat="42.18641762049958" lon="14.04693139721816"><ele>818.0</ele><time>2026-04-23T13:12:45Z</time></trkpt><trkpt lat="42.18649127014336" lon="14.046911760262322"><ele>820.0</ele><time>2026-04-23T13:16:59Z</time></trkpt><trkpt lat="42.186582285164945" lon="14.04682829756826"><ele>822.0</ele><time>2026-04-23T13:17:01Z</time></trkpt><trkpt lat="42.18664679789186" lon="14.046773997136494"><ele>823.9999999999999</ele><time>2026-04-23T13:17:02Z</time></trkpt><trkpt lat="42.186710461144564" lon="14.046715016574142"><ele>826.0</ele><time>2026-04-23T13:17:03Z</time></trkpt><trkpt lat="42.18678050153221" lon="14.04664109551597"><ele>823.0</ele><time>2026-04-23T13:17:04Z</time></trkpt><trkpt lat="42.186858344954686" lon="14.046541419846733"><ele>820.0</ele><time>2026-04-23T13:17:05Z</time></trkpt><trkpt lat="42.18693532371092" lon="14.046422903436135"><ele>817.0</ele><time>2026-04-23T13:17:06Z</time></trkpt><trkpt lat="42.187007104475214" lon="14.046302440458726"><ele>814.0</ele><time>2026-04-23T13:17:07Z</time></trkpt><trkpt lat="42.187083116732644" lon="14.046183333814344"><ele>814.0</ele><time>2026-04-23T13:17:08Z</time></trkpt><trkpt lat="42.187160721899964" lon="14.046066356366433"><ele>814.0</ele><time>2026-04-23T13:17:09.001Z</time></trkpt><trkpt lat="42.18723326454681" lon="14.045947125020787"><ele>814.0</ele><time>2026-04-23T13:17:10.001Z</time></trkpt><trkpt lat="42.187298198490886" lon="14.045821984078437"><ele>814.0</ele><time>2026-04-23T13:17:11.001Z</time></trkpt><trkpt lat="42.18736339454767" lon="14.045710658071137"><ele>814.0</ele><time>2026-04-23T13:17:12.001Z</time></trkpt><trkpt lat="42.18744151824181" lon="14.04563285733127"><ele>812.0</ele><time>2026-04-23T13:17:13.001Z</time></trkpt><trkpt lat="42.18753590537519" lon="14.045604233825992"><ele>810.0</ele><time>2026-04-23T13:17:14.001Z</time></trkpt><trkpt lat="42.187633712444445" lon="14.04563133506167"><ele>808.0</ele><time>2026-04-23T13:17:15Z</time></trkpt><trkpt lat="42.18774442447464" lon="14.045684249884916"><ele>806.0</ele><time>2026-04-23T13:17:16Z</time></trkpt><trkpt lat="42.187882818581656" lon="14.045692194261548"><ele>806.0</ele><time>2026-04-23T13:17:17Z</time></trkpt><trkpt lat="42.18802142453348" lon="14.045652731875554"><ele>806.0</ele><time>2026-04-23T13:17:18Z</time></trkpt><trkpt lat="42.18815372397795" lon="14.045569794289746"><ele>806.0</ele><time>2026-04-23T13:17:19Z</time></trkpt><trkpt lat="42.18828324348529" lon="14.045473953120402"><ele>806.0</ele><time>2026-04-23T13:17:20Z</time></trkpt><trkpt lat="42.188420889424606" lon="14.045387863010903"><ele>805.0</ele><time>2026-04-23T13:17:21Z</time></trkpt><trkpt lat="42.1885638891174" lon="14.04531619198098"><ele>804.0</ele><time>2026-04-23T13:17:22Z</time></trkpt><trkpt lat="42.18870292813586" lon="14.04525162991671"><ele>803.0</ele><time>2026-04-23T13:17:23Z</time></trkpt><trkpt lat="42.18884902126125" lon="14.045188123572421"><ele>803.0</ele><time>2026-04-23T13:17:24Z</time></trkpt><trkpt lat="42.1890045981659" lon="14.045122806931964"><ele>803.0</ele><time>2026-04-23T13:17:25Z</time></trkpt><trkpt lat="42.189159093702436" lon="14.045062874350423"><ele>803.0</ele><time>2026-04-23T13:17:26Z</time></trkpt><trkpt lat="42.18930475028343" lon="14.044988500816496"><ele>799.3333333333334</ele><time>2026-04-23T13:17:27Z</time></trkpt><trkpt lat="42.18944217805227" lon="14.044884877041891"><ele>795.6666666666667</ele><time>2026-04-23T13:17:28Z</time></trkpt><trkpt lat="42.18957524170617" lon="14.044753767109666"><ele>792.0</ele><time>2026-04-23T13:17:29Z</time></trkpt><trkpt lat="42.18971130986" lon="14.044604034589215"><ele>790.3333333333333</ele><time>2026-04-23T13:17:30Z</time></trkpt><trkpt lat="42.189851718232546" lon="14.044462574034277"><ele>788.6666666666666</ele><time>2026-04-23T13:17:31Z</time></trkpt><trkpt lat="42.19000052587344" lon="14.044341367760286"><ele>787.0</ele><time>2026-04-23T13:17:32Z</time></trkpt><trkpt lat="42.190156631578695" lon="14.044236250810973"><ele>787.0</ele><time>2026-04-23T13:17:33Z</time></trkpt><trkpt lat="42.19032100241779" lon="14.04416027784803"><ele>787.0</ele><time>2026-04-23T13:17:34Z</time></trkpt><trkpt lat="42.19047602301926" lon="14.044054548071466"><ele>787.0</ele><time>2026-04-23T13:17:35Z</time></trkpt><trkpt lat="42.190642903161184" lon="14.04399328604191"><ele>782.3333333333333</ele><time>2026-04-23T13:17:36Z</time></trkpt><trkpt lat="42.19081578667526" lon="14.043967458646772"><ele>777.6666666666667</ele><time>2026-04-23T13:17:37Z</time></trkpt><trkpt lat="42.19099612273176" lon="14.04397499684062"><ele>773.0</ele><time>2026-04-23T13:17:38Z</time></trkpt><trkpt lat="42.19118112047879" lon="14.044002581667911"><ele>773.0</ele><time>2026-04-23T13:17:39Z</time></trkpt><trkpt lat="42.19135792528019" lon="14.044047444491932"><ele>773.0</ele><time>2026-04-23T13:17:40Z</time></trkpt><trkpt lat="42.1915264779042" lon="14.044101199591697"><ele>773.0</ele><time>2026-04-23T13:17:41Z</time></trkpt><trkpt lat="42.19167439169577" lon="14.044130716547267"><ele>770.5</ele><time>2026-04-23T13:17:42Z</time></trkpt><trkpt lat="42.19180556186815" lon="14.044113194475399"><ele>768.0</ele><time>2026-04-23T13:17:43Z</time></trkpt><trkpt lat="42.19192171787277" lon="14.044055939821563"><ele>765.5</ele><time>2026-04-23T13:17:44Z</time></trkpt><trkpt lat="42.19201915766042" lon="14.043967097226275"><ele>763.0</ele><time>2026-04-23T13:17:45Z</time></trkpt><trkpt lat="42.19210616083916" lon="14.043856377375338"><ele>763.0</ele><time>2026-04-23T13:17:46Z</time></trkpt><trkpt lat="42.192193001068695" lon="14.043750686316555"><ele>763.0</ele><time>2026-04-23T13:17:47Z</time></trkpt><trkpt lat="42.19228051100993" lon="14.043673876112997"><ele>763.0</ele><time>2026-04-23T13:17:48Z</time></trkpt><trkpt lat="42.192384844591174" lon="14.04364036641575"><ele>763.0</ele><time>2026-04-23T13:17:49Z</time></trkpt><trkpt lat="42.19248971693088" lon="14.043676626253639"><ele>763.0</ele><time>2026-04-23T13:17:50Z</time></trkpt><trkpt lat="42.192597669136866" lon="14.043762405832494"><ele>762.0</ele><time>2026-04-23T13:17:51Z</time></trkpt><trkpt lat="42.1927213682775" lon="14.043861368336934"><ele>761.0</ele><time>2026-04-23T13:17:52Z</time></trkpt><trkpt lat="42.192846799808514" lon="14.043960518078855"><ele>760.0</ele><time>2026-04-23T13:17:53Z</time></trkpt><trkpt lat="42.19297500959265" lon="14.04406218354712"><ele>759.0</ele><time>2026-04-23T13:17:54Z</time></trkpt><trkpt lat="42.19310885449925" lon="14.044160709651676"><ele>756.5</ele><time>2026-04-23T13:17:55Z</time></trkpt><trkpt lat="42.193239700889194" lon="14.044255553673521"><ele>754.0</ele><time>2026-04-23T13:17:56Z</time></trkpt><trkpt lat="42.1933668537863" lon="14.04434669291465"><ele>751.5</ele><time>2026-04-23T13:17:57Z</time></trkpt><trkpt lat="42.19348807440907" lon="14.044437293757335"><ele>749.0</ele><time>2026-04-23T13:17:58Z</time></trkpt><trkpt lat="42.193594724410325" lon="14.044513346991023"><ele>749.0</ele><time>2026-04-23T13:17:59Z</time></trkpt><trkpt lat="42.19370165948662" lon="14.044555762513772"><ele>749.0</ele><time>2026-04-23T13:18:00Z</time></trkpt><trkpt lat="42.19381641064777" lon="14.044542764218697"><ele>749.0</ele><time>2026-04-23T13:18:01Z</time></trkpt><trkpt lat="42.1939376075894" lon="14.04447522162069"><ele>749.0</ele><time>2026-04-23T13:18:02Z</time></trkpt><trkpt lat="42.194052348077605" lon="14.044358476045263"><ele>746.0</ele><time>2026-04-23T13:18:03Z</time></trkpt><trkpt lat="42.19416428805033" lon="14.044206353097842"><ele>743.0</ele><time>2026-04-23T13:18:04Z</time></trkpt><trkpt lat="42.19428860913851" lon="14.04405044963911"><ele>740.0</ele><time>2026-04-23T13:18:05Z</time></trkpt><trkpt lat="42.19442507712837" lon="14.043908088034254"><ele>737.3333333333333</ele><time>2026-04-23T13:18:06Z</time></trkpt><trkpt lat="42.1945704519215" lon="14.043785309685278"><ele>734.6666666666666</ele><time>2026-04-23T13:18:07Z</time></trkpt><trkpt lat="42.194716843672786" lon="14.04367994799154"><ele>732.0</ele><time>2026-04-23T13:18:08Z</time></trkpt><trkpt lat="42.19486220169915" lon="14.043576513299186"><ele>730.75</ele><time>2026-04-23T13:18:09Z</time></trkpt><trkpt lat="42.19498668119892" lon="14.043483654964003"><ele>729.5</ele><time>2026-04-23T13:18:10Z</time></trkpt><trkpt lat="42.195102703778986" lon="14.043424525351668"><ele>728.25</ele><time>2026-04-23T13:18:11Z</time></trkpt><trkpt lat="42.195216158274896" lon="14.043422774910487"><ele>727.0</ele><time>2026-04-23T13:18:12Z</time></trkpt><trkpt lat="42.195309466892844" lon="14.043418356637671"><ele>727.0</ele><time>2026-04-23T13:18:13Z</time></trkpt><trkpt lat="42.195379055478796" lon="14.043353590294338"><ele>727.0</ele><time>2026-04-23T13:18:14Z</time></trkpt><trkpt lat="42.19541802715642" lon="14.043233491271787"><ele>727.0</ele><time>2026-04-23T13:18:15Z</time></trkpt><trkpt lat="42.19541886906132" lon="14.043084201164833"><ele>727.0</ele><time>2026-04-23T13:18:16Z</time></trkpt><trkpt lat="42.19541215832118" lon="14.042920255783484"><ele>727.0</ele><time>2026-04-23T13:18:17Z</time></trkpt><trkpt lat="42.19545539545385" lon="14.04275110340628"><ele>724.75</ele><time>2026-04-23T13:18:18Z</time></trkpt><trkpt lat="42.195492653553416" lon="14.042593166276523"><ele>722.5</ele><time>2026-04-23T13:18:19Z</time></trkpt><trkpt lat="42.195531099544546" lon="14.04243986438286"><ele>720.25</ele><time>2026-04-23T13:18:20Z</time></trkpt><trkpt lat="42.19561339361572" lon="14.042326538823609"><ele>718.0</ele><time>2026-04-23T13:18:21Z</time></trkpt><trkpt lat="42.19571653960985" lon="14.042254079349963"><ele>716.5</ele><time>2026-04-23T13:18:22Z</time></trkpt><trkpt lat="42.19583497827592" lon="14.042235270981287"><ele>715.0</ele><time>2026-04-23T13:18:23Z</time></trkpt><trkpt lat="42.19595779317362" lon="14.042274644684584"><ele>713.5</ele><time>2026-04-23T13:18:24Z</time></trkpt><trkpt lat="42.196080735144854" lon="14.042352425393371"><ele>712.0</ele><time>2026-04-23T13:18:25Z</time></trkpt><trkpt lat="42.1961958370247" lon="14.042450809568928"><ele>712.75</ele><time>2026-04-23T13:18:26Z</time></trkpt><trkpt lat="42.196304627278955" lon="14.042559605758093"><ele>713.5</ele><time>2026-04-23T13:18:27Z</time></trkpt><trkpt lat="42.19643238644688" lon="14.042642539457956"><ele>714.25</ele><time>2026-04-23T13:18:28Z</time></trkpt><trkpt lat="42.19657660024536" lon="14.04267468742866"><ele>715.0</ele><time>2026-04-23T13:18:29Z</time></trkpt><trkpt lat="42.19672612452574" lon="14.042666826074498"><ele>712.6666666666667</ele><time>2026-04-23T13:18:30Z</time></trkpt><trkpt lat="42.19687851270164" lon="14.042638606077833"><ele>710.3333333333334</ele><time>2026-04-23T13:18:31Z</time></trkpt><trkpt lat="42.197037740272414" lon="14.04260356617339"><ele>708.0</ele><time>2026-04-23T13:18:32Z</time></trkpt><trkpt lat="42.19720955675236" lon="14.042568860752729"><ele>705.3333333333334</ele><time>2026-04-23T13:18:33Z</time></trkpt><trkpt lat="42.197381968190435" lon="14.042532643518973"><ele>702.6666666666667</ele><time>2026-04-23T13:18:34Z</time></trkpt><trkpt lat="42.197558862314814" lon="14.042493087337881"><ele>700.0</ele><time>2026-04-23T13:18:35Z</time></trkpt><trkpt lat="42.19774147015712" lon="14.042453873014287"><ele>699.3333333333334</ele><time>2026-04-23T13:18:36Z</time></trkpt><trkpt lat="42.19793042612286" lon="14.042414869967539"><ele>698.6666666666666</ele><time>2026-04-23T13:18:37Z</time></trkpt><trkpt lat="42.198114859004" lon="14.042373600066322"><ele>698.0</ele><time>2026-04-23T13:18:38Z</time></trkpt><trkpt lat="42.19829380280116" lon="14.042333604597589"><ele>695.6666666666666</ele><time>2026-04-23T13:18:39Z</time></trkpt><trkpt lat="42.19846787376309" lon="14.0422907628267"><ele>693.3333333333334</ele><time>2026-04-23T13:18:40Z</time></trkpt><trkpt lat="42.198661373810175" lon="14.042263185308167"><ele>691.0</ele><time>2026-04-23T13:18:41Z</time></trkpt><trkpt lat="42.198840806350226" lon="14.042225969072595"><ele>688.6666666666667</ele><time>2026-04-23T13:18:42Z</time></trkpt><trkpt lat="42.19901536974757" lon="14.042173983364759"><ele>686.3333333333334</ele><time>2026-04-23T13:18:43Z</time></trkpt><trkpt lat="42.199183216754165" lon="14.042085728032673"><ele>684.0</ele><time>2026-04-23T13:18:44Z</time></trkpt><trkpt lat="42.199358375803214" lon="14.042009835672602"><ele>684.0</ele><time>2026-04-23T13:18:45Z</time></trkpt><trkpt lat="42.19952056420878" lon="14.041933669608687"><ele>684.0</ele><time>2026-04-23T13:18:46Z</time></trkpt><trkpt lat="42.199668185703736" lon="14.041865403653862"><ele>684.0</ele><time>2026-04-23T13:18:47Z</time></trkpt><trkpt lat="42.19980688161222" lon="14.041802691227355"><ele>683.25</ele><time>2026-04-23T13:18:48Z</time></trkpt><trkpt lat="42.19992832593427" lon="14.041746019577692"><ele>682.5</ele><time>2026-04-23T13:18:49Z</time></trkpt><trkpt lat="42.20003804064454" lon="14.041687016775004"><ele>681.75</ele><time>2026-04-23T13:18:50Z</time></trkpt><trkpt lat="42.20014200247134" lon="14.041638108924893"><ele>681.0</ele><time>2026-04-23T13:18:51Z</time></trkpt><trkpt lat="42.20022955425037" lon="14.041591963240295"><ele>681.0</ele><time>2026-04-23T13:18:52Z</time></trkpt><trkpt lat="42.20029403268753" lon="14.041540126852846"><ele>681.0</ele><time>2026-04-23T13:18:53Z</time></trkpt><trkpt lat="42.20038153568643" lon="14.041497728568809"><ele>681.0</ele><time>2026-04-23T13:18:55Z</time></trkpt><trkpt lat="42.20041865949192" lon="14.041604189161795"><ele>681.0</ele><time>2026-04-23T13:18:57Z</time></trkpt><trkpt lat="42.200374975278336" lon="14.04175664214707"><ele>681.0</ele><time>2026-04-23T13:18:59Z</time></trkpt><trkpt lat="42.200384404448265" lon="14.041865957571865"><ele>680.4</ele><time>2026-04-23T13:19:00Z</time></trkpt><trkpt lat="42.200371961060895" lon="14.041989842893845"><ele>679.8</ele><time>2026-04-23T13:19:01Z</time></trkpt><trkpt lat="42.200366433939394" lon="14.042128392218807"><ele>679.1999999999999</ele><time>2026-04-23T13:19:02Z</time></trkpt><trkpt lat="42.20035896270122" lon="14.042277396697852"><ele>678.5999999999999</ele><time>2026-04-23T13:19:03Z</time></trkpt><trkpt lat="42.20035110589629" lon="14.042432818774937"><ele>678.0</ele><time>2026-04-23T13:19:04Z</time></trkpt><trkpt lat="42.2003457953076" lon="14.042589893149175"><ele>677.75</ele><time>2026-04-23T13:19:05Z</time></trkpt><trkpt lat="42.200340053693324" lon="14.042756415389164"><ele>677.5</ele><time>2026-04-23T13:19:06Z</time></trkpt><trkpt lat="42.200332669732006" lon="14.042930578842489"><ele>677.25</ele><time>2026-04-23T13:19:07Z</time></trkpt><trkpt lat="42.20032001083823" lon="14.043123940567384"><ele>677.0</ele><time>2026-04-23T13:19:08Z</time></trkpt><trkpt lat="42.20031283094194" lon="14.043344856712059"><ele>680.0</ele><time>2026-04-23T13:19:09Z</time></trkpt><trkpt lat="42.20030392520565" lon="14.04355619509651"><ele>683.0</ele><time>2026-04-23T13:19:10Z</time></trkpt><trkpt lat="42.20029706332723" lon="14.043772071497303"><ele>686.0</ele><time>2026-04-23T13:19:11Z</time></trkpt><trkpt lat="42.20028937101913" lon="14.04400098092054"><ele>686.3333333333333</ele><time>2026-04-23T13:19:12Z</time></trkpt><trkpt lat="42.200280255796265" lon="14.044222315647467"><ele>686.6666666666666</ele><time>2026-04-23T13:19:13Z</time></trkpt><trkpt lat="42.200271515392856" lon="14.044435744938623"><ele>687.0</ele><time>2026-04-23T13:19:14.001Z</time></trkpt><trkpt lat="42.20026323755469" lon="14.044630318275399"><ele>687.0</ele><time>2026-04-23T13:19:15.001Z</time></trkpt><trkpt lat="42.200252536915244" lon="14.044809726943962"><ele>687.0</ele><time>2026-04-23T13:19:16.001Z</time></trkpt><trkpt lat="42.200246576494365" lon="14.044983173310417"><ele>687.0</ele><time>2026-04-23T13:19:17.001Z</time></trkpt><trkpt lat="42.20025994868558" lon="14.045135318430289"><ele>687.0</ele><time>2026-04-23T13:19:18.001Z</time></trkpt><trkpt lat="42.20031278909308" lon="14.04523335453567"><ele>686.8</ele><time>2026-04-23T13:19:19.001Z</time></trkpt><trkpt lat="42.20036797898019" lon="14.045297322850542"><ele>686.6</ele><time>2026-04-23T13:19:20.001Z</time></trkpt><trkpt lat="42.20044437743187" lon="14.045326206739176"><ele>686.4</ele><time>2026-04-23T13:19:21.001Z</time></trkpt><trkpt lat="42.20053731272052" lon="14.04533018418894"><ele>686.1999999999999</ele><time>2026-04-23T13:19:22.001Z</time></trkpt><trkpt lat="42.20064930571445" lon="14.045297536006023"><ele>686.0</ele><time>2026-04-23T13:19:23.001Z</time></trkpt><trkpt lat="42.20076495404599" lon="14.045213525165364"><ele>686.0</ele><time>2026-04-23T13:19:24.001Z</time></trkpt><trkpt lat="42.20088925350589" lon="14.045105964582012"><ele>686.0</ele><time>2026-04-23T13:19:25.001Z</time></trkpt><trkpt lat="42.20101686557369" lon="14.044999346064882"><ele>686.0</ele><time>2026-04-23T13:19:26.001Z</time></trkpt><trkpt lat="42.20114444781916" lon="14.044901604312292"><ele>686.0</ele><time>2026-04-23T13:19:27.001Z</time></trkpt><trkpt lat="42.20127075867601" lon="14.044808977289073"><ele>684.25</ele><time>2026-04-23T13:19:28.001Z</time></trkpt><trkpt lat="42.2014040947939" lon="14.04474333420676"><ele>682.5</ele><time>2026-04-23T13:19:29.001Z</time></trkpt><trkpt lat="42.2015243772149" lon="14.044644448850207"><ele>680.75</ele><time>2026-04-23T13:19:30.001Z</time></trkpt><trkpt lat="42.201647830174274" lon="14.044607304723858"><ele>679.0</ele><time>2026-04-23T13:19:31.001Z</time></trkpt><trkpt lat="42.20175064166942" lon="14.04455176062474"><ele>679.0</ele><time>2026-04-23T13:19:32.001Z</time></trkpt><trkpt lat="42.2018407827554" lon="14.044528206393164"><ele>679.0</ele><time>2026-04-23T13:19:33.001Z</time></trkpt><trkpt lat="42.20192372486768" lon="14.044461441306394"><ele>679.0</ele><time>2026-04-23T13:19:34.001Z</time></trkpt><trkpt lat="42.202016705741634" lon="14.044373382797836"><ele>679.0</ele><time>2026-04-23T13:19:35.001Z</time></trkpt><trkpt lat="42.2021121021257" lon="14.044280644385255"><ele>679.0</ele><time>2026-04-23T13:19:36.001Z</time></trkpt><trkpt lat="42.202224423703974" lon="14.044223022172195"><ele>679.0</ele><time>2026-04-23T13:19:37.001Z</time></trkpt><trkpt lat="42.202331073387946" lon="14.044150418708123"><ele>679.0</ele><time>2026-04-23T13:19:38.001Z</time></trkpt><trkpt lat="42.2024302981277" lon="14.044046852675159"><ele>679.0</ele><time>2026-04-23T13:19:39.001Z</time></trkpt><trkpt lat="42.202522023036366" lon="14.043937480015574"><ele>679.0</ele><time>2026-04-23T13:19:40.001Z</time></trkpt><trkpt lat="42.20260686060202" lon="14.043799153838256"><ele>678.25</ele><time>2026-04-23T13:19:41.001Z</time></trkpt><trkpt lat="42.20268549141652" lon="14.04364905809927"><ele>677.5</ele><time>2026-04-23T13:19:42.001Z</time></trkpt><trkpt lat="42.20275777404584" lon="14.043500856332626"><ele>676.75</ele><time>2026-04-23T13:19:43.001Z</time></trkpt><trkpt lat="42.20284290196585" lon="14.043380682837114"><ele>676.0</ele><time>2026-04-23T13:19:44.001Z</time></trkpt><trkpt lat="42.20292057040665" lon="14.043277809639207"><ele>674.0</ele><time>2026-04-23T13:19:45.001Z</time></trkpt><trkpt lat="42.20301615996205" lon="14.043205868641545"><ele>672.0</ele><time>2026-04-23T13:19:46.001Z</time></trkpt><trkpt lat="42.2031296857113" lon="14.043204026890525"><ele>670.0</ele><time>2026-04-23T13:19:47.001Z</time></trkpt><trkpt lat="42.20326083865272" lon="14.043180458429154"><ele>668.0</ele><time>2026-04-23T13:19:48.001Z</time></trkpt><trkpt lat="42.20339783401886" lon="14.04314975329509"><ele>668.0</ele><time>2026-04-23T13:19:49.001Z</time></trkpt><trkpt lat="42.203537366146634" lon="14.043089020703494"><ele>668.0</ele><time>2026-04-23T13:19:50Z</time></trkpt><trkpt lat="42.2036784909168" lon="14.043017529880244"><ele>668.0</ele><time>2026-04-23T13:19:51Z</time></trkpt><trkpt lat="42.2038134099114" lon="14.042949000981471"><ele>668.0</ele><time>2026-04-23T13:19:52Z</time></trkpt><trkpt lat="42.2039373397705" lon="14.042888308574511"><ele>670.5</ele><time>2026-04-23T13:19:53Z</time></trkpt><trkpt lat="42.20405617350464" lon="14.042829159298469"><ele>673.0</ele><time>2026-04-23T13:19:54Z</time></trkpt><trkpt lat="42.20416553074153" lon="14.04274657964861"><ele>675.5</ele><time>2026-04-23T13:19:55Z</time></trkpt><trkpt lat="42.20426002454748" lon="14.042629896598811"><ele>678.0</ele><time>2026-04-23T13:19:56Z</time></trkpt><trkpt lat="42.20437612502862" lon="14.042525642330887"><ele>675.8</ele><time>2026-04-23T13:19:57Z</time></trkpt><trkpt lat="42.204485889575984" lon="14.042430815087286"><ele>673.5999999999999</ele><time>2026-04-23T13:19:58Z</time></trkpt><trkpt lat="42.20458599431484" lon="14.042344654139843"><ele>671.4000000000001</ele><time>2026-04-23T13:19:59Z</time></trkpt><trkpt lat="42.204643915328326" lon="14.04225497955226"><ele>669.2</ele><time>2026-04-23T13:20:00Z</time></trkpt><trkpt lat="42.204703451343576" lon="14.042183836724817"><ele>667.0</ele><time>2026-04-23T13:20:01Z</time></trkpt><trkpt lat="42.20472497164232" lon="14.042071358221246"><ele>667.0</ele><time>2026-04-23T13:20:02Z</time></trkpt><trkpt lat="42.20465145436965" lon="14.041955888475732"><ele>667.0</ele><time>2026-04-23T13:20:03Z</time></trkpt><trkpt lat="42.204599495968964" lon="14.041858536871576"><ele>667.0</ele><time>2026-04-23T13:20:04Z</time></trkpt><trkpt lat="42.204535701929075" lon="14.041758721684225"><ele>667.0</ele><time>2026-04-23T13:20:05Z</time></trkpt><trkpt lat="42.2044798865716" lon="14.04165202492829"><ele>667.0</ele><time>2026-04-23T13:20:06Z</time></trkpt><trkpt lat="42.204438706056514" lon="14.041558184386309"><ele>664.5</ele><time>2026-04-23T13:20:07Z</time></trkpt><trkpt lat="42.20443102000746" lon="14.0414709665362"><ele>662.0</ele><time>2026-04-23T13:20:08Z</time></trkpt><trkpt lat="42.20445268342876" lon="14.041386974685526"><ele>659.5</ele><time>2026-04-23T13:20:09Z</time></trkpt><trkpt lat="42.2044983253469" lon="14.041275927544863"><ele>657.0</ele><time>2026-04-23T13:20:10Z</time></trkpt><trkpt lat="42.204547760451504" lon="14.041146042439662"><ele>654.5</ele><time>2026-04-23T13:20:11Z</time></trkpt><trkpt lat="42.204592651525" lon="14.041002384341954"><ele>652.0</ele><time>2026-04-23T13:20:12Z</time></trkpt><trkpt lat="42.20462096629975" lon="14.040852349729407"><ele>648.0</ele><time>2026-04-23T13:20:13Z</time></trkpt><trkpt lat="42.20462931867831" lon="14.040697216400483"><ele>644.0</ele><time>2026-04-23T13:20:14Z</time></trkpt><trkpt lat="42.204610285044886" lon="14.040549446909022"><ele>640.0</ele><time>2026-04-23T13:20:15Z</time></trkpt><trkpt lat="42.20456922423923" lon="14.040415476515472"><ele>636.0</ele><time>2026-04-23T13:20:16Z</time></trkpt><trkpt lat="42.20454181473754" lon="14.040294311181693"><ele>632.0</ele><time>2026-04-23T13:20:17Z</time></trkpt><trkpt lat="42.204502084912335" lon="14.04021935154014"><ele>632.0</ele><time>2026-04-23T13:20:18Z</time></trkpt><trkpt lat="42.20453286904112" lon="14.04009786977894"><ele>632.0</ele><time>2026-04-23T13:20:20Z</time></trkpt><trkpt lat="42.20466765390455" lon="14.04007808413478"><ele>632.0</ele><time>2026-04-23T13:20:21Z</time></trkpt><trkpt lat="42.20476713747062" lon="14.040009056618839"><ele>632.0</ele><time>2026-04-23T13:20:22Z</time></trkpt><trkpt lat="42.204889701657514" lon="14.039949297837458"><ele>632.6666666666666</ele><time>2026-04-23T13:20:23Z</time></trkpt><trkpt lat="42.20501529037836" lon="14.039860585584412"><ele>633.3333333333334</ele><time>2026-04-23T13:20:24Z</time></trkpt><trkpt lat="42.20513807079702" lon="14.039742861259526"><ele>634.0</ele><time>2026-04-23T13:20:25Z</time></trkpt><trkpt lat="42.2052630661982" lon="14.039604305294157"><ele>634.0</ele><time>2026-04-23T13:20:26Z</time></trkpt><trkpt lat="42.205391914704" lon="14.03946566404575"><ele>634.0</ele><time>2026-04-23T13:20:27Z</time></trkpt><trkpt lat="42.205544673709134" lon="14.039345981057057"><ele>634.0</ele><time>2026-04-23T13:20:28Z</time></trkpt><trkpt lat="42.20566884968576" lon="14.039227238829046"><ele>631.0</ele><time>2026-04-23T13:20:29Z</time></trkpt><trkpt lat="42.205799260975" lon="14.039102485877141"><ele>628.0</ele><time>2026-04-23T13:20:30Z</time></trkpt><trkpt lat="42.205931930501634" lon="14.038975566332608"><ele>625.0</ele><time>2026-04-23T13:20:31Z</time></trkpt><trkpt lat="42.2060618004257" lon="14.038853173305903"><ele>625.0</ele><time>2026-04-23T13:20:32Z</time></trkpt><trkpt lat="42.20619204517528" lon="14.038729252483417"><ele>625.0</ele><time>2026-04-23T13:20:33Z</time></trkpt><trkpt lat="42.20631346697985" lon="14.038598026059164"><ele>625.0</ele><time>2026-04-23T13:20:34Z</time></trkpt><trkpt lat="42.20642282341556" lon="14.038442961760927"><ele>625.0</ele><time>2026-04-23T13:20:35Z</time></trkpt><trkpt lat="42.20652894995554" lon="14.038301542087666"><ele>625.0</ele><time>2026-04-23T13:20:36Z</time></trkpt><trkpt lat="42.20664862593328" lon="14.038202982049228"><ele>625.0</ele><time>2026-04-23T13:20:37Z</time></trkpt><trkpt lat="42.2067530876615" lon="14.03812524908329"><ele>625.0</ele><time>2026-04-23T13:20:38Z</time></trkpt><trkpt lat="42.20684620723237" lon="14.038096419248843"><ele>620.25</ele><time>2026-04-23T13:20:39Z</time></trkpt><trkpt lat="42.20694055086783" lon="14.038124376667621"><ele>615.5</ele><time>2026-04-23T13:20:40Z</time></trkpt><trkpt lat="42.207064085900576" lon="14.038163242789718"><ele>610.75</ele><time>2026-04-23T13:20:41Z</time></trkpt><trkpt lat="42.20720481815957" lon="14.038180706598022"><ele>606.0</ele><time>2026-04-23T13:20:42Z</time></trkpt><trkpt lat="42.20735106560276" lon="14.038180561554624"><ele>605.0</ele><time>2026-04-23T13:20:43Z</time></trkpt><trkpt lat="42.207501570752974" lon="14.038147141567828"><ele>604.0</ele><time>2026-04-23T13:20:44Z</time></trkpt><trkpt lat="42.20764351008159" lon="14.038105193030178"><ele>603.0</ele><time>2026-04-23T13:20:45Z</time></trkpt><trkpt lat="42.20778043979058" lon="14.038038036999007"><ele>602.0</ele><time>2026-04-23T13:20:46Z</time></trkpt><trkpt lat="42.20791221461697" lon="14.037951474482712"><ele>602.0</ele><time>2026-04-23T13:20:47Z</time></trkpt><trkpt lat="42.208036297940005" lon="14.037849102581784"><ele>602.0</ele><time>2026-04-23T13:20:48Z</time></trkpt><trkpt lat="42.20814698111478" lon="14.037742605047937"><ele>602.0</ele><time>2026-04-23T13:20:49Z</time></trkpt><trkpt lat="42.20822527892549" lon="14.037646022525182"><ele>602.0</ele><time>2026-04-23T13:20:50Z</time></trkpt><trkpt lat="42.2082697735871" lon="14.0375619819776"><ele>602.25</ele><time>2026-04-23T13:20:51Z</time></trkpt><trkpt lat="42.20828944286196" lon="14.037414487025696"><ele>602.5</ele><time>2026-04-23T13:20:53Z</time></trkpt><trkpt lat="42.208210751348616" lon="14.037309020189106"><ele>602.75</ele><time>2026-04-23T13:20:54Z</time></trkpt><trkpt lat="42.208168804141785" lon="14.037175539384112"><ele>603.0</ele><time>2026-04-23T13:20:55Z</time></trkpt><trkpt lat="42.20808699384479" lon="14.037048953164572"><ele>599.0</ele><time>2026-04-23T13:20:56Z</time></trkpt><trkpt lat="42.20796598921146" lon="14.036953923702189"><ele>595.0</ele><time>2026-04-23T13:20:57Z</time></trkpt><trkpt lat="42.207860369810305" lon="14.036844883956519"><ele>591.0</ele><time>2026-04-23T13:20:58Z</time></trkpt><trkpt lat="42.20775809012045" lon="14.036739512317357"><ele>587.0</ele><time>2026-04-23T13:20:59Z</time></trkpt><trkpt lat="42.20766427398366" lon="14.036629899996928"><ele>584.4</ele><time>2026-04-23T13:21:00Z</time></trkpt><trkpt lat="42.20759393876695" lon="14.03650417981387"><ele>581.8000000000001</ele><time>2026-04-23T13:21:01Z</time></trkpt><trkpt lat="42.20753270734727" lon="14.036394197989022"><ele>579.2</ele><time>2026-04-23T13:21:02Z</time></trkpt><trkpt lat="42.20750536831355" lon="14.036278777137042"><ele>576.6</ele><time>2026-04-23T13:21:03Z</time></trkpt><trkpt lat="42.20751575291746" lon="14.036145008231344"><ele>574.0</ele><time>2026-04-23T13:21:04Z</time></trkpt><trkpt lat="42.20752544254797" lon="14.035962326757053"><ele>571.0</ele><time>2026-04-23T13:21:05Z</time></trkpt><trkpt lat="42.20757127082765" lon="14.035764112093716"><ele>568.0</ele><time>2026-04-23T13:21:06Z</time></trkpt><trkpt lat="42.2076346430257" lon="14.035559589483407"><ele>565.0</ele><time>2026-04-23T13:21:07Z</time></trkpt><trkpt lat="42.20770266956422" lon="14.035340614859676"><ele>565.0</ele><time>2026-04-23T13:21:08Z</time></trkpt><trkpt lat="42.20779026362855" lon="14.035136174108393"><ele>565.0</ele><time>2026-04-23T13:21:09Z</time></trkpt><trkpt lat="42.2078729781613" lon="14.034946328724189"><ele>565.0</ele><time>2026-04-23T13:21:10Z</time></trkpt><trkpt lat="42.20793570975229" lon="14.03476670264401"><ele>565.25</ele><time>2026-04-23T13:21:11Z</time></trkpt><trkpt lat="42.20799720776648" lon="14.034603124030692"><ele>565.5</ele><time>2026-04-23T13:21:12Z</time></trkpt><trkpt lat="42.2080378904263" lon="14.034437042352184"><ele>565.75</ele><time>2026-04-23T13:21:13Z</time></trkpt><trkpt lat="42.20808582325695" lon="14.034282934118384"><ele>566.0</ele><time>2026-04-23T13:21:14Z</time></trkpt><trkpt lat="42.20812052946315" lon="14.034128235999267"><ele>565.8</ele><time>2026-04-23T13:21:15Z</time></trkpt><trkpt lat="42.20814120739645" lon="14.03397770176827"><ele>565.6</ele><time>2026-04-23T13:21:16Z</time></trkpt><trkpt lat="42.208209320139964" lon="14.033864852975963"><ele>565.4</ele><time>2026-04-23T13:21:17Z</time></trkpt><trkpt lat="42.20828356942706" lon="14.033762335273407"><ele>565.2</ele><time>2026-04-23T13:21:18Z</time></trkpt><trkpt lat="42.208366451678764" lon="14.033658593139965"><ele>565.0</ele><time>2026-04-23T13:21:19Z</time></trkpt><trkpt lat="42.20845069065631" lon="14.033547336835277"><ele>565.0</ele><time>2026-04-23T13:21:20.001Z</time></trkpt><trkpt lat="42.20853631045746" lon="14.033458693238387"><ele>565.0</ele><time>2026-04-23T13:21:21.001Z</time></trkpt><trkpt lat="42.20863601073895" lon="14.033418017813608"><ele>565.0</ele><time>2026-04-23T13:21:22.001Z</time></trkpt><trkpt lat="42.20873345548169" lon="14.033358041397376"><ele>565.0</ele><time>2026-04-23T13:21:23.001Z</time></trkpt><trkpt lat="42.20883850903035" lon="14.03328398302132"><ele>565.0</ele><time>2026-04-23T13:21:24.001Z</time></trkpt><trkpt lat="42.20892450418756" lon="14.033177774481095"><ele>561.75</ele><time>2026-04-23T13:21:25.001Z</time></trkpt><trkpt lat="42.20900880474298" lon="14.033068895273036"><ele>558.5</ele><time>2026-04-23T13:21:26.001Z</time></trkpt><trkpt lat="42.20908286179833" lon="14.032940878151223"><ele>555.25</ele><time>2026-04-23T13:21:27.001Z</time></trkpt><trkpt lat="42.209144289644804" lon="14.032803783611728"><ele>552.0</ele><time>2026-04-23T13:21:28.001Z</time></trkpt><trkpt lat="42.209212298364875" lon="14.032671299779748"><ele>552.0</ele><time>2026-04-23T13:21:29.001Z</time></trkpt><trkpt lat="42.20930184803573" lon="14.032559216448332"><ele>552.0</ele><time>2026-04-23T13:21:30.001Z</time></trkpt><trkpt lat="42.209391467971486" lon="14.032460124680016"><ele>552.0</ele><time>2026-04-23T13:21:31.001Z</time></trkpt><trkpt lat="42.20948016500616" lon="14.032353223138836"><ele>552.0</ele><time>2026-04-23T13:21:32.001Z</time></trkpt><trkpt lat="42.20955998444177" lon="14.032231182390653"><ele>550.5</ele><time>2026-04-23T13:21:33.001Z</time></trkpt><trkpt lat="42.209623511620336" lon="14.032090983494658"><ele>549.0</ele><time>2026-04-23T13:21:34.001Z</time></trkpt><trkpt lat="42.20967741905999" lon="14.03192540903546"><ele>547.5</ele><time>2026-04-23T13:21:35.001Z</time></trkpt><trkpt lat="42.20977950779813" lon="14.031767875151273"><ele>546.0</ele><time>2026-04-23T13:21:36.001Z</time></trkpt><trkpt lat="42.20982713390488" lon="14.03158539075192"><ele>546.0</ele><time>2026-04-23T13:21:37.001Z</time></trkpt><trkpt lat="42.209868952917425" lon="14.031399119218172"><ele>546.0</ele><time>2026-04-23T13:21:38.001Z</time></trkpt><trkpt lat="42.20990804382642" lon="14.031200374752341"><ele>546.0</ele><time>2026-04-23T13:21:39.001Z</time></trkpt><trkpt lat="42.209941236580676" lon="14.030994713497316"><ele>542.3333333333334</ele><time>2026-04-23T13:21:40.001Z</time></trkpt><trkpt lat="42.21000012787604" lon="14.030802797435129"><ele>538.6666666666667</ele><time>2026-04-23T13:21:41.001Z</time></trkpt><trkpt lat="42.21005607143068" lon="14.03059578134316"><ele>535.0</ele><time>2026-04-23T13:21:42.001Z</time></trkpt><trkpt lat="42.21000824261579" lon="14.030332743803594"><ele>535.0</ele><time>2026-04-23T13:21:43.001Z</time></trkpt><trkpt lat="42.210044994823896" lon="14.030112065048069"><ele>535.0</ele><time>2026-04-23T13:21:44.001Z</time></trkpt><trkpt lat="42.21007615958639" lon="14.029898205276679"><ele>535.0</ele><time>2026-04-23T13:21:45.001Z</time></trkpt><trkpt lat="42.21009175741478" lon="14.029692427231145"><ele>533.5</ele><time>2026-04-23T13:21:46.001Z</time></trkpt><trkpt lat="42.210090392495424" lon="14.029487285533436"><ele>532.0</ele><time>2026-04-23T13:21:47.001Z</time></trkpt><trkpt lat="42.210098818397974" lon="14.02929501517291"><ele>530.5</ele><time>2026-04-23T13:21:48.001Z</time></trkpt><trkpt lat="42.210080523371765" lon="14.029120683419642"><ele>529.0</ele><time>2026-04-23T13:21:49.001Z</time></trkpt><trkpt lat="42.21008969334541" lon="14.028956707269968"><ele>527.6</ele><time>2026-04-23T13:21:50.001Z</time></trkpt><trkpt lat="42.21010218237894" lon="14.028810751873962"><ele>526.2</ele><time>2026-04-23T13:21:51.001Z</time></trkpt><trkpt lat="42.2101398669647" lon="14.028684618013907"><ele>524.8000000000001</ele><time>2026-04-23T13:21:52.001Z</time></trkpt><trkpt lat="42.21017591088307" lon="14.028560456327462"><ele>523.4</ele><time>2026-04-23T13:21:53.001Z</time></trkpt><trkpt lat="42.21021055222475" lon="14.028429808403201"><ele>522.0</ele><time>2026-04-23T13:21:54.001Z</time></trkpt><trkpt lat="42.210280088915376" lon="14.02832782869945"><ele>520.8000000000001</ele><time>2026-04-23T13:21:55.001Z</time></trkpt><trkpt lat="42.210359882864815" lon="14.028243439945541"><ele>519.6</ele><time>2026-04-23T13:21:56.001Z</time></trkpt><trkpt lat="42.210445291706954" lon="14.02819361511049"><ele>518.4000000000001</ele><time>2026-04-23T13:21:57.001Z</time></trkpt><trkpt lat="42.21052922370098" lon="14.028184783725484"><ele>517.2</ele><time>2026-04-23T13:21:58.001Z</time></trkpt><trkpt lat="42.210609630405294" lon="14.028165403701628"><ele>516.0</ele><time>2026-04-23T13:21:59.001Z</time></trkpt><trkpt lat="42.21071658858922" lon="14.028216486668828"><ele>516.0</ele><time>2026-04-23T13:22:00.001Z</time></trkpt><trkpt lat="42.21082554317841" lon="14.028270114448986"><ele>516.0</ele><time>2026-04-23T13:22:01.001Z</time></trkpt><trkpt lat="42.21093522901844" lon="14.02832658569723"><ele>516.0</ele><time>2026-04-23T13:22:02.001Z</time></trkpt><trkpt lat="42.211066069215555" lon="14.028378284042983"><ele>516.0</ele><time>2026-04-23T13:22:03.001Z</time></trkpt><trkpt lat="42.21121207851489" lon="14.028417790259718"><ele>518.0</ele><time>2026-04-23T13:22:04.001Z</time></trkpt><trkpt lat="42.21137341316571" lon="14.028449795451703"><ele>520.0</ele><time>2026-04-23T13:22:05.001Z</time></trkpt><trkpt lat="42.21154999658921" lon="14.028473937103954"><ele>522.0</ele><time>2026-04-23T13:22:06.001Z</time></trkpt><trkpt lat="42.21172579063536" lon="14.028489962138085"><ele>522.0</ele><time>2026-04-23T13:22:07.001Z</time></trkpt><trkpt lat="42.21189068543808" lon="14.028501259657535"><ele>522.0</ele><time>2026-04-23T13:22:08.001Z</time></trkpt><trkpt lat="42.212046352592864" lon="14.028511894871475"><ele>522.0</ele><time>2026-04-23T13:22:09.001Z</time></trkpt><trkpt lat="42.212187616548945" lon="14.028504932190366"><ele>522.0</ele><time>2026-04-23T13:22:10.001Z</time></trkpt><trkpt lat="42.212314070517785" lon="14.028456783041095"><ele>522.0</ele><time>2026-04-23T13:22:11.001Z</time></trkpt><trkpt lat="42.21243720543984" lon="14.028357423725739"><ele>522.0</ele><time>2026-04-23T13:22:12.001Z</time></trkpt><trkpt lat="42.21256810662181" lon="14.028228854275554"><ele>522.0</ele><time>2026-04-23T13:22:13.001Z</time></trkpt><trkpt lat="42.212700958377354" lon="14.028109713328691"><ele>521.75</ele><time>2026-04-23T13:22:14.001Z</time></trkpt><trkpt lat="42.21283544489878" lon="14.028002152028298"><ele>521.5</ele><time>2026-04-23T13:22:15.001Z</time></trkpt><trkpt lat="42.212967378736465" lon="14.027948941705246"><ele>521.25</ele><time>2026-04-23T13:22:16.001Z</time></trkpt><trkpt lat="42.21308404404977" lon="14.027890576991458"><ele>521.0</ele><time>2026-04-23T13:22:17.001Z</time></trkpt><trkpt lat="42.21318478147436" lon="14.027824634868631"><ele>521.0</ele><time>2026-04-23T13:22:18.001Z</time></trkpt><trkpt lat="42.21329194488546" lon="14.027807966743865"><ele>521.0</ele><time>2026-04-23T13:22:19.001Z</time></trkpt><trkpt lat="42.21339395286075" lon="14.027856277832333"><ele>521.0</ele><time>2026-04-23T13:22:20.001Z</time></trkpt><trkpt lat="42.21350704935221" lon="14.02787888772519"><ele>521.0</ele><time>2026-04-23T13:22:21.001Z</time></trkpt><trkpt lat="42.213610957214854" lon="14.02792814125443"><ele>521.0</ele><time>2026-04-23T13:22:22.001Z</time></trkpt><trkpt lat="42.213711909228046" lon="14.027983565505584"><ele>521.0</ele><time>2026-04-23T13:22:23.001Z</time></trkpt><trkpt lat="42.21380509227503" lon="14.02804731961255"><ele>521.0</ele><time>2026-04-23T13:22:24.001Z</time></trkpt><trkpt lat="42.21389419461529" lon="14.028141671861047"><ele>521.0</ele><time>2026-04-23T13:22:25.001Z</time></trkpt><trkpt lat="42.21398049482096" lon="14.028264423697875"><ele>521.0</ele><time>2026-04-23T13:22:26.001Z</time></trkpt><trkpt lat="42.21407957681194" lon="14.028380139235264"><ele>523.5</ele><time>2026-04-23T13:22:27Z</time></trkpt><trkpt lat="42.21420064469188" lon="14.02847282540384"><ele>526.0</ele><time>2026-04-23T13:22:28Z</time></trkpt><trkpt lat="42.21432892576243" lon="14.028553194067722"><ele>528.5</ele><time>2026-04-23T13:22:29Z</time></trkpt><trkpt lat="42.21445247528973" lon="14.028635402192373"><ele>531.0</ele><time>2026-04-23T13:22:30Z</time></trkpt><trkpt lat="42.21456899208795" lon="14.028709451280438"><ele>531.0</ele><time>2026-04-23T13:22:31Z</time></trkpt><trkpt lat="42.21467798503964" lon="14.028785700543521"><ele>531.0</ele><time>2026-04-23T13:22:32Z</time></trkpt><trkpt lat="42.21478492305446" lon="14.028860735846388"><ele>531.0</ele><time>2026-04-23T13:22:33Z</time></trkpt><trkpt lat="42.214890244106755" lon="14.028932589347328"><ele>531.0</ele><time>2026-04-23T13:22:34Z</time></trkpt><trkpt lat="42.21499175121958" lon="14.029000682563971"><ele>531.0</ele><time>2026-04-23T13:22:35Z</time></trkpt><trkpt lat="42.21509672360591" lon="14.029070262119397"><ele>531.0</ele><time>2026-04-23T13:22:36Z</time></trkpt><trkpt lat="42.21520359993941" lon="14.0291411820721"><ele>531.0</ele><time>2026-04-23T13:22:37Z</time></trkpt><trkpt lat="42.21530878083354" lon="14.029218767081039"><ele>531.0</ele><time>2026-04-23T13:22:38Z</time></trkpt><trkpt lat="42.215420938259356" lon="14.029298741473161"><ele>531.0</ele><time>2026-04-23T13:22:39Z</time></trkpt><trkpt lat="42.215532906216886" lon="14.029379332146423"><ele>531.0</ele><time>2026-04-23T13:22:40Z</time></trkpt><trkpt lat="42.215647216625214" lon="14.029460550419419"><ele>531.0</ele><time>2026-04-23T13:22:41Z</time></trkpt><trkpt lat="42.215762850748" lon="14.029541759261932"><ele>531.0</ele><time>2026-04-23T13:22:42Z</time></trkpt><trkpt lat="42.21587793321188" lon="14.029624072688542"><ele>530.5</ele><time>2026-04-23T13:22:43Z</time></trkpt><trkpt lat="42.21598597008186" lon="14.029710162020063"><ele>530.0</ele><time>2026-04-23T13:22:44Z</time></trkpt><trkpt lat="42.216092559165965" lon="14.029800898049524"><ele>529.5</ele><time>2026-04-23T13:22:45Z</time></trkpt><trkpt lat="42.21619497105286" lon="14.029888239179376"><ele>529.0</ele><time>2026-04-23T13:22:46Z</time></trkpt><trkpt lat="42.216297535020466" lon="14.029978341780172"><ele>529.0</ele><time>2026-04-23T13:22:47Z</time></trkpt><trkpt lat="42.216392428285054" lon="14.030063175993053"><ele>529.0</ele><time>2026-04-23T13:22:48Z</time></trkpt><trkpt lat="42.21647646861498" lon="14.030152711479708"><ele>529.0</ele><time>2026-04-23T13:22:49Z</time></trkpt><trkpt lat="42.21654633491862" lon="14.030241432890557"><ele>529.0</ele><time>2026-04-23T13:22:50Z</time></trkpt><trkpt lat="42.21661268336471" lon="14.030319162480131"><ele>529.0</ele><time>2026-04-23T13:22:51Z</time></trkpt><trkpt lat="42.21668176645985" lon="14.030389426496532"><ele>528.8</ele><time>2026-04-23T13:22:52Z</time></trkpt><trkpt lat="42.216758136772306" lon="14.030432959775995"><ele>528.5999999999999</ele><time>2026-04-23T13:22:53Z</time></trkpt><trkpt lat="42.216859439395904" lon="14.030468159948192"><ele>528.4</ele><time>2026-04-23T13:22:54Z</time></trkpt><trkpt lat="42.21696709107641" lon="14.030496346801733"><ele>528.1999999999999</ele><time>2026-04-23T13:22:55Z</time></trkpt><trkpt lat="42.21706378579977" lon="14.030512978827579"><ele>528.0</ele><time>2026-04-23T13:22:56Z</time></trkpt><trkpt lat="42.21714593619691" lon="14.030530843299339"><ele>528.0</ele><time>2026-04-23T13:22:57Z</time></trkpt><trkpt lat="42.21721159108063" lon="14.030583288112723"><ele>528.0</ele><time>2026-04-23T13:22:58Z</time></trkpt><trkpt lat="42.21728651399211" lon="14.030609074686598"><ele>528.0</ele><time>2026-04-23T13:22:59Z</time></trkpt><trkpt lat="42.217361773863416" lon="14.030662937708385"><ele>528.0</ele><time>2026-04-23T13:23:00Z</time></trkpt><trkpt lat="42.21744151491944" lon="14.030727724257169"><ele>528.0</ele><time>2026-04-23T13:23:01Z</time></trkpt><trkpt lat="42.217494052002046" lon="14.030808435467844"><ele>528.0</ele><time>2026-04-23T13:23:02Z</time></trkpt><trkpt lat="42.2175462366245" lon="14.03086526239958"><ele>527.6</ele><time>2026-04-23T13:23:03Z</time></trkpt><trkpt lat="42.217640200781425" lon="14.030973738119819"><ele>527.1999999999999</ele><time>2026-04-23T13:23:05Z</time></trkpt><trkpt lat="42.21768988629932" lon="14.031037761090714"><ele>526.8</ele><time>2026-04-23T13:23:06Z</time></trkpt><trkpt lat="42.217737306196724" lon="14.031098864030996"><ele>526.4</ele><time>2026-04-23T13:23:07Z</time></trkpt><trkpt lat="42.217885290238954" lon="14.03103055967386"><ele>526.0</ele><time>2026-04-23T13:23:08Z</time></trkpt><trkpt lat="42.218000537088116" lon="14.031017983455152"><ele>526.0</ele><time>2026-04-23T13:23:09Z</time></trkpt><trkpt lat="42.21809559520469" lon="14.030998639282371"><ele>526.0</ele><time>2026-04-23T13:23:10Z</time></trkpt><trkpt lat="42.218203237960466" lon="14.030990169139855"><ele>526.0</ele><time>2026-04-23T13:23:11Z</time></trkpt><trkpt lat="42.218304700402946" lon="14.031021473714775"><ele>526.0</ele><time>2026-04-23T13:23:12Z</time></trkpt><trkpt lat="42.21840286766295" lon="14.031007790722962"><ele>526.0</ele><time>2026-04-23T13:23:13Z</time></trkpt><trkpt lat="42.218504806640595" lon="14.031003207950485"><ele>524.25</ele><time>2026-04-23T13:23:14Z</time></trkpt><trkpt lat="42.21860467270852" lon="14.030962414623026"><ele>522.5</ele><time>2026-04-23T13:23:15Z</time></trkpt><trkpt lat="42.218706143174394" lon="14.03088066073449"><ele>520.75</ele><time>2026-04-23T13:23:16Z</time></trkpt><trkpt lat="42.218802482455644" lon="14.03077789623341"><ele>519.0</ele><time>2026-04-23T13:23:17Z</time></trkpt><trkpt lat="42.218889159304474" lon="14.030666025708403"><ele>518.6</ele><time>2026-04-23T13:23:18Z</time></trkpt><trkpt lat="42.218971968125004" lon="14.030558989510014"><ele>518.2</ele><time>2026-04-23T13:23:19Z</time></trkpt><trkpt lat="42.21905333928638" lon="14.030469496849639"><ele>517.8000000000001</ele><time>2026-04-23T13:23:20Z</time></trkpt><trkpt lat="42.21914680810246" lon="14.03043691697553"><ele>517.4</ele><time>2026-04-23T13:23:21Z</time></trkpt><trkpt lat="42.21924282232263" lon="14.030417380854612"><ele>517.0</ele><time>2026-04-23T13:23:22Z</time></trkpt><trkpt lat="42.219347179681655" lon="14.03038826973877"><ele>513.2</ele><time>2026-04-23T13:23:23Z</time></trkpt><trkpt lat="42.21945650604575" lon="14.030362395578067"><ele>509.40000000000003</ele><time>2026-04-23T13:23:24Z</time></trkpt><trkpt lat="42.21955578481886" lon="14.030317735207747"><ele>505.59999999999997</ele><time>2026-04-23T13:23:25Z</time></trkpt><trkpt lat="42.219646325512855" lon="14.030271963138878"><ele>501.79999999999995</ele><time>2026-04-23T13:23:26.001Z</time></trkpt><trkpt lat="42.21972175835506" lon="14.030266022957273"><ele>498.0</ele><time>2026-04-23T13:23:27.001Z</time></trkpt><trkpt lat="42.21983093800101" lon="14.030215120464808"><ele>495.75</ele><time>2026-04-23T13:23:29.001Z</time></trkpt><trkpt lat="42.21992145533082" lon="14.030267216444178"><ele>493.5</ele><time>2026-04-23T13:23:31.001Z</time></trkpt><trkpt lat="42.21999186437273" lon="14.03030580339949"><ele>491.25</ele><time>2026-04-23T13:23:33.001Z</time></trkpt><trkpt lat="42.220052717180714" lon="14.03033056416483"><ele>489.0</ele><time>2026-04-23T13:23:34.001Z</time></trkpt><trkpt lat="42.22008659495898" lon="14.03065161354458"><ele>489.0</ele><time>2026-04-23T13:23:35.001Z</time></trkpt><trkpt lat="42.220156843778085" lon="14.030739019902342"><ele>489.0</ele><time>2026-04-23T13:23:36.001Z</time></trkpt><trkpt lat="42.220233407424395" lon="14.030809148777486"><ele>489.0</ele><time>2026-04-23T13:23:37.001Z</time></trkpt><trkpt lat="42.22031290942116" lon="14.030861272439282"><ele>489.0</ele><time>2026-04-23T13:23:38.001Z</time></trkpt><trkpt lat="42.22038823305241" lon="14.03090805045742"><ele>489.0</ele><time>2026-04-23T13:23:39.001Z</time></trkpt><trkpt lat="42.22045732727124" lon="14.030947004849821"><ele>489.0</ele><time>2026-04-23T13:23:40.001Z</time></trkpt><trkpt lat="42.22052278547168" lon="14.03099365880416"><ele>489.1666666666667</ele><time>2026-04-23T13:23:41.001Z</time></trkpt><trkpt lat="42.220572522437465" lon="14.031060106064432"><ele>489.33333333333337</ele><time>2026-04-23T13:23:42.001Z</time></trkpt><trkpt lat="42.220612760621336" lon="14.031145544933702"><ele>489.5</ele><time>2026-04-23T13:23:43.001Z</time></trkpt><trkpt lat="42.22065827400223" lon="14.031251942227549"><ele>489.6666666666667</ele><time>2026-04-23T13:23:44.001Z</time></trkpt><trkpt lat="42.220712401199194" lon="14.031347725400892"><ele>489.83333333333337</ele><time>2026-04-23T13:23:45.001Z</time></trkpt><trkpt lat="42.22076326489107" lon="14.03144613210634"><ele>490.0</ele><time>2026-04-23T13:23:46.001Z</time></trkpt><trkpt lat="42.2208130338953" lon="14.031528655554759"><ele>490.00000000000006</ele><time>2026-04-23T13:23:47.001Z</time></trkpt><trkpt lat="42.22092121012804" lon="14.031565828085862"><ele>490.0</ele><time>2026-04-23T13:23:49.001Z</time></trkpt><trkpt lat="42.22097362186756" lon="14.031511273903046"><ele>490.0</ele><time>2026-04-23T13:23:50.001Z</time></trkpt><trkpt lat="42.22099972237286" lon="14.031424702525822"><ele>490.0</ele><time>2026-04-23T13:23:51.001Z</time></trkpt><trkpt lat="42.22101692714991" lon="14.031306935518085"><ele>490.00000000000006</ele><time>2026-04-23T13:23:52.001Z</time></trkpt><trkpt lat="42.22104145564001" lon="14.031162223702156"><ele>490.0</ele><time>2026-04-23T13:23:53.001Z</time></trkpt><trkpt lat="42.221070428116626" lon="14.031019761500275"><ele>490.00000000000006</ele><time>2026-04-23T13:23:54.001Z</time></trkpt><trkpt lat="42.22109088800356" lon="14.030887129093102"><ele>490.0</ele><time>2026-04-23T13:23:55.001Z</time></trkpt><trkpt lat="42.22109160512957" lon="14.030767829155641"><ele>490.0</ele><time>2026-04-23T13:23:56.001Z</time></trkpt><trkpt lat="42.2210799300607" lon="14.030661607996514"><ele>490.0</ele><time>2026-04-23T13:23:57.001Z</time></trkpt><trkpt lat="42.221133898842226" lon="14.030528484939218"><ele>490.00000000000006</ele><time>2026-04-23T13:23:59.001Z</time></trkpt><trkpt lat="42.22120223355062" lon="14.030531080664245"><ele>490.0</ele><time>2026-04-23T13:24:00.001Z</time></trkpt><trkpt lat="42.221275734397594" lon="14.030600936764976"><ele>490.0</ele><time>2026-04-23T13:24:01.001Z</time></trkpt><trkpt lat="42.22136093895919" lon="14.030741020480386"><ele>490.0</ele><time>2026-04-23T13:24:02.001Z</time></trkpt><trkpt lat="42.221446037236525" lon="14.030877939738522"><ele>490.0</ele><time>2026-04-23T13:24:03.001Z</time></trkpt><trkpt lat="42.221534435453584" lon="14.031030625173365"><ele>490.0</ele><time>2026-04-23T13:24:04.001Z</time></trkpt><trkpt lat="42.221619230085835" lon="14.031181023973607"><ele>481.75</ele><time>2026-04-23T13:24:05.001Z</time></trkpt><trkpt lat="42.22168966864469" lon="14.03132417750787"><ele>473.5</ele><time>2026-04-23T13:24:06.001Z</time></trkpt><trkpt lat="42.22175675520076" lon="14.031456746461132"><ele>465.25</ele><time>2026-04-23T13:24:07.001Z</time></trkpt><trkpt lat="42.221838284448445" lon="14.031572096125238"><ele>457.0</ele><time>2026-04-23T13:24:08.001Z</time></trkpt><trkpt lat="42.221931954464715" lon="14.031660895980817"><ele>456.40000000000003</ele><time>2026-04-23T13:24:09.001Z</time></trkpt><trkpt lat="42.22202461257079" lon="14.031734821279768"><ele>455.80000000000007</ele><time>2026-04-23T13:24:10.001Z</time></trkpt><trkpt lat="42.22211412375971" lon="14.031791951727032"><ele>455.2</ele><time>2026-04-23T13:24:11.001Z</time></trkpt><trkpt lat="42.22219486428208" lon="14.031808552856443"><ele>454.6</ele><time>2026-04-23T13:24:12.001Z</time></trkpt><trkpt lat="42.22228046671755" lon="14.031782116796528"><ele>454.0</ele><time>2026-04-23T13:24:13.001Z</time></trkpt><trkpt lat="42.222361003611596" lon="14.031732869387763"><ele>451.00000000000006</ele><time>2026-04-23T13:24:14.001Z</time></trkpt><trkpt lat="42.22243587005236" lon="14.03166332312436"><ele>448.0</ele><time>2026-04-23T13:24:15.001Z</time></trkpt><trkpt lat="42.222493051379764" lon="14.03158775023176"><ele>445.0</ele><time>2026-04-23T13:24:16.001Z</time></trkpt><trkpt lat="42.2225190905226" lon="14.031494389845427"><ele>442.0</ele><time>2026-04-23T13:24:17.001Z</time></trkpt><trkpt lat="42.222508697389024" lon="14.031386070240876"><ele>439.00000000000006</ele><time>2026-04-23T13:24:18.001Z</time></trkpt><trkpt lat="42.2224639611493" lon="14.031276891335695"><ele>436.0</ele><time>2026-04-23T13:24:19.001Z</time></trkpt><trkpt lat="42.222393889360646" lon="14.031174608058116"><ele>435.6</ele><time>2026-04-23T13:24:20.001Z</time></trkpt><trkpt lat="42.2223301953755" lon="14.031081500811386"><ele>435.20000000000005</ele><time>2026-04-23T13:24:21.001Z</time></trkpt><trkpt lat="42.2222837272093" lon="14.030983760634644"><ele>434.79999999999995</ele><time>2026-04-23T13:24:22.001Z</time></trkpt><trkpt lat="42.22226821311682" lon="14.030894056463152"><ele>434.4</ele><time>2026-04-23T13:24:23.001Z</time></trkpt><trkpt lat="42.222351593672926" lon="14.030770197369886"><ele>434.0</ele><time>2026-04-23T13:24:25.001Z</time></trkpt><trkpt lat="42.22243707817226" lon="14.030774442976629"><ele>434.0</ele><time>2026-04-23T13:24:26.001Z</time></trkpt><trkpt lat="42.222524719088455" lon="14.030810717237616"><ele>434.0</ele><time>2026-04-23T13:24:27.001Z</time></trkpt><trkpt lat="42.22260514737756" lon="14.030836264366686"><ele>434.0</ele><time>2026-04-23T13:24:28.001Z</time></trkpt><trkpt lat="42.22268187799627" lon="14.030798967263719"><ele>434.0</ele><time>2026-04-23T13:24:29.001Z</time></trkpt><trkpt lat="42.222743826239196" lon="14.03070165068243"><ele>434.0</ele><time>2026-04-23T13:24:30.001Z</time></trkpt><trkpt lat="42.222788557586625" lon="14.030570831581066"><ele>431.2</ele><time>2026-04-23T13:24:31.001Z</time></trkpt><trkpt lat="42.222815438124954" lon="14.03043670786978"><ele>428.4</ele><time>2026-04-23T13:24:32.001Z</time></trkpt><trkpt lat="42.22283017384516" lon="14.030297651961554"><ele>425.6</ele><time>2026-04-23T13:24:33.001Z</time></trkpt><trkpt lat="42.22283717225787" lon="14.030161385659293"><ele>422.8</ele><time>2026-04-23T13:24:34Z</time></trkpt><trkpt lat="42.22285672172421" lon="14.030034890908926"><ele>420.0</ele><time>2026-04-23T13:24:35Z</time></trkpt><trkpt lat="42.22291884034691" lon="14.029934674382739"><ele>414.8</ele><time>2026-04-23T13:24:36Z</time></trkpt><trkpt lat="42.223005656355426" lon="14.029877979828694"><ele>409.6</ele><time>2026-04-23T13:24:37Z</time></trkpt><trkpt lat="42.22310600114462" lon="14.02986679509474"><ele>404.4</ele><time>2026-04-23T13:24:38Z</time></trkpt><trkpt lat="42.223200667723624" lon="14.029888673521006"><ele>399.2</ele><time>2026-04-23T13:24:39Z</time></trkpt><trkpt lat="42.22328495060916" lon="14.029911763142579"><ele>394.0</ele><time>2026-04-23T13:24:40Z</time></trkpt><trkpt lat="42.223365465106646" lon="14.029924107837143"><ele>394.00000000000006</ele><time>2026-04-23T13:24:41Z</time></trkpt><trkpt lat="42.223440245915846" lon="14.029933299200339"><ele>394.0</ele><time>2026-04-23T13:24:42Z</time></trkpt><trkpt lat="42.22354268253561" lon="14.030026056971547"><ele>394.0</ele><time>2026-04-23T13:24:44Z</time></trkpt><trkpt lat="42.22358501315303" lon="14.030106370282965"><ele>394.0</ele><time>2026-04-23T13:24:45Z</time></trkpt><trkpt lat="42.22362955762002" lon="14.030194077524527"><ele>394.00000000000006</ele><time>2026-04-23T13:24:46Z</time></trkpt><trkpt lat="42.22367866032205" lon="14.030309433428137"><ele>394.0</ele><time>2026-04-23T13:24:47Z</time></trkpt><trkpt lat="42.22372681973394" lon="14.030443957279024"><ele>398.5</ele><time>2026-04-23T13:24:48Z</time></trkpt><trkpt lat="42.223769840509874" lon="14.030587738075356"><ele>403.0</ele><time>2026-04-23T13:24:49Z</time></trkpt><trkpt lat="42.22380952442654" lon="14.030737110800917"><ele>407.5</ele><time>2026-04-23T13:24:50Z</time></trkpt><trkpt lat="42.223842964054974" lon="14.03088356159658"><ele>412.0</ele><time>2026-04-23T13:24:51Z</time></trkpt><trkpt lat="42.22385788529731" lon="14.03103730097591"><ele>413.0</ele><time>2026-04-23T13:24:52Z</time></trkpt><trkpt lat="42.22385382012108" lon="14.031198404218111"><ele>414.0</ele><time>2026-04-23T13:24:53Z</time></trkpt><trkpt lat="42.223851146172244" lon="14.031383196506019"><ele>415.0</ele><time>2026-04-23T13:24:54Z</time></trkpt><trkpt lat="42.22387219367902" lon="14.03158759584133"><ele>416.0</ele><time>2026-04-23T13:24:55Z</time></trkpt><trkpt lat="42.22390039158077" lon="14.031779623876993"><ele>416.0</ele><time>2026-04-23T13:24:56Z</time></trkpt><trkpt lat="42.22392313091482" lon="14.031977485426815"><ele>416.0</ele><time>2026-04-23T13:24:57Z</time></trkpt><trkpt lat="42.22394672997576" lon="14.03218217651335"><ele>416.0</ele><time>2026-04-23T13:24:58Z</time></trkpt><trkpt lat="42.22398823448184" lon="14.03237551340381"><ele>410.75</ele><time>2026-04-23T13:24:59Z</time></trkpt><trkpt lat="42.2240458718437" lon="14.032552895210085"><ele>405.5</ele><time>2026-04-23T13:25:00Z</time></trkpt><trkpt lat="42.22409702637506" lon="14.032701116704718"><ele>400.25</ele><time>2026-04-23T13:25:01Z</time></trkpt><trkpt lat="42.224166792442006" lon="14.032814259926962"><ele>395.0</ele><time>2026-04-23T13:25:02Z</time></trkpt><trkpt lat="42.224271633985076" lon="14.03290537740153"><ele>395.0</ele><time>2026-04-23T13:25:03Z</time></trkpt><trkpt lat="42.22440047531921" lon="14.032972436149869"><ele>395.0</ele><time>2026-04-23T13:25:04Z</time></trkpt><trkpt lat="42.22453407091101" lon="14.033034249221357"><ele>395.0</ele><time>2026-04-23T13:25:05Z</time></trkpt><trkpt lat="42.22465708491467" lon="14.033130387319108"><ele>395.0</ele><time>2026-04-23T13:25:06Z</time></trkpt><trkpt lat="42.22477399620508" lon="14.033256393145658"><ele>391.5</ele><time>2026-04-23T13:25:07Z</time></trkpt><trkpt lat="42.224877571665445" lon="14.033384962668435"><ele>388.0</ele><time>2026-04-23T13:25:08Z</time></trkpt><trkpt lat="42.224962291358885" lon="14.033505695354028"><ele>384.5</ele><time>2026-04-23T13:25:09Z</time></trkpt><trkpt lat="42.225013507349864" lon="14.033627394378588"><ele>381.0</ele><time>2026-04-23T13:25:10Z</time></trkpt><trkpt lat="42.225029187636245" lon="14.033755038907982"><ele>381.0</ele><time>2026-04-23T13:25:11Z</time></trkpt><trkpt lat="42.22504110105624" lon="14.033855283558148"><ele>381.0</ele><time>2026-04-23T13:25:12Z</time></trkpt><trkpt lat="42.22512332873911" lon="14.033899770672525"><ele>381.0</ele><time>2026-04-23T13:25:14Z</time></trkpt><trkpt lat="42.22517895245011" lon="14.033743942858884"><ele>381.0</ele><time>2026-04-23T13:25:16Z</time></trkpt><trkpt lat="42.225179851528786" lon="14.033588595831302"><ele>381.0</ele><time>2026-04-23T13:25:17Z</time></trkpt><trkpt lat="42.22518513828652" lon="14.033434591580432"><ele>379.8</ele><time>2026-04-23T13:25:18Z</time></trkpt><trkpt lat="42.22518335558202" lon="14.033273477797874"><ele>378.6</ele><time>2026-04-23T13:25:19Z</time></trkpt><trkpt lat="42.225179462736484" lon="14.033121703689112"><ele>377.4</ele><time>2026-04-23T13:25:20Z</time></trkpt><trkpt lat="42.225174059189825" lon="14.032976687995102"><ele>376.2</ele><time>2026-04-23T13:25:21Z</time></trkpt><trkpt lat="42.225166382963074" lon="14.032843912241885"><ele>375.0</ele><time>2026-04-23T13:25:22Z</time></trkpt><trkpt lat="42.22517349911519" lon="14.032739054014854"><ele>375.0</ele><time>2026-04-23T13:25:23Z</time></trkpt><trkpt lat="42.225264393750294" lon="14.032645009648313"><ele>375.0</ele><time>2026-04-23T13:25:25Z</time></trkpt><trkpt lat="42.22534394164886" lon="14.032672527884905"><ele>375.0</ele><time>2026-04-23T13:25:26Z</time></trkpt><trkpt lat="42.225422602331925" lon="14.032754200668302"><ele>375.0</ele><time>2026-04-23T13:25:27Z</time></trkpt><trkpt lat="42.22549295239314" lon="14.032868628086755"><ele>375.0</ele><time>2026-04-23T13:25:28Z</time></trkpt><trkpt lat="42.22555621982316" lon="14.033000946619353"><ele>375.0</ele><time>2026-04-23T13:25:29Z</time></trkpt><trkpt lat="42.22562085457741" lon="14.033136620202425"><ele>375.0</ele><time>2026-04-23T13:25:30Z</time></trkpt><trkpt lat="42.225685592041174" lon="14.033266417357357"><ele>375.0</ele><time>2026-04-23T13:25:31Z</time></trkpt><trkpt lat="42.225747210006126" lon="14.033395473044374"><ele>375.0</ele><time>2026-04-23T13:25:32.001Z</time></trkpt><trkpt lat="42.225792968927806" lon="14.033536414809111"><ele>373.4</ele><time>2026-04-23T13:25:33.001Z</time></trkpt><trkpt lat="42.22581851033539" lon="14.033688096797567"><ele>371.8</ele><time>2026-04-23T13:25:34.001Z</time></trkpt><trkpt lat="42.225830601271994" lon="14.03383380282782"><ele>370.20000000000005</ele><time>2026-04-23T13:25:35.001Z</time></trkpt><trkpt lat="42.22585223371345" lon="14.033969541720188"><ele>368.6</ele><time>2026-04-23T13:25:36.001Z</time></trkpt><trkpt lat="42.225898289453845" lon="14.034083933937614"><ele>367.0</ele><time>2026-04-23T13:25:37.001Z</time></trkpt><trkpt lat="42.2259572788436" lon="14.034175561634584"><ele>367.0</ele><time>2026-04-23T13:25:38.001Z</time></trkpt><trkpt lat="42.2260469506185" lon="14.034235628767192"><ele>367.0</ele><time>2026-04-23T13:25:39.001Z</time></trkpt><trkpt lat="42.22614919587892" lon="14.034285568803055"><ele>367.0</ele><time>2026-04-23T13:25:40.001Z</time></trkpt><trkpt lat="42.226273610729315" lon="14.034311125645948"><ele>367.0</ele><time>2026-04-23T13:25:41.001Z</time></trkpt><trkpt lat="42.226392333284686" lon="14.03432404482384"><ele>362.6</ele><time>2026-04-23T13:25:42.001Z</time></trkpt><trkpt lat="42.226509292188375" lon="14.034340588480681"><ele>358.20000000000005</ele><time>2026-04-23T13:25:43.001Z</time></trkpt><trkpt lat="42.22662300456283" lon="14.034371392860733"><ele>353.8</ele><time>2026-04-23T13:25:44.001Z</time></trkpt><trkpt lat="42.22672825351934" lon="14.034422328621034"><ele>349.4</ele><time>2026-04-23T13:25:45.001Z</time></trkpt><trkpt lat="42.22680191897596" lon="14.034489883427181"><ele>345.0</ele><time>2026-04-23T13:25:46.001Z</time></trkpt><trkpt lat="42.22684350824158" lon="14.03459111415229"><ele>345.0</ele><time>2026-04-23T13:25:47.001Z</time></trkpt><trkpt lat="42.226840658061626" lon="14.034706667292792"><ele>345.0</ele><time>2026-04-23T13:25:48.001Z</time></trkpt><trkpt lat="42.22680478424707" lon="14.034814169056784"><ele>345.0</ele><time>2026-04-23T13:25:49.001Z</time></trkpt><trkpt lat="42.22673579247419" lon="14.034929281882214"><ele>345.0</ele><time>2026-04-23T13:25:50.001Z</time></trkpt><trkpt lat="42.22666659715255" lon="14.035041370267066"><ele>345.0</ele><time>2026-04-23T13:25:51.001Z</time></trkpt><trkpt lat="42.22660316338236" lon="14.035154719235004"><ele>344.4</ele><time>2026-04-23T13:25:52.001Z</time></trkpt><trkpt lat="42.226554504537866" lon="14.03526980547417"><ele>343.8</ele><time>2026-04-23T13:25:53.001Z</time></trkpt><trkpt lat="42.226529858591185" lon="14.035401090374155"><ele>343.20000000000005</ele><time>2026-04-23T13:25:54.001Z</time></trkpt><trkpt lat="42.226531647057364" lon="14.03553616263882"><ele>342.6</ele><time>2026-04-23T13:25:55.001Z</time></trkpt><trkpt lat="42.22654375326289" lon="14.035669635446217"><ele>342.0</ele><time>2026-04-23T13:25:56.001Z</time></trkpt><trkpt lat="42.22655175236745" lon="14.035811789228594"><ele>339.25</ele><time>2026-04-23T13:25:57.001Z</time></trkpt><trkpt lat="42.226544049647266" lon="14.035963487641695"><ele>336.5</ele><time>2026-04-23T13:25:58.001Z</time></trkpt><trkpt lat="42.22651325517652" lon="14.036119856674215"><ele>333.75</ele><time>2026-04-23T13:25:59.001Z</time></trkpt><trkpt lat="42.22647568632464" lon="14.036271178237284"><ele>331.0</ele><time>2026-04-23T13:26:00.001Z</time></trkpt><trkpt lat="42.22645061359184" lon="14.036423311820577"><ele>331.3333333333333</ele><time>2026-04-23T13:26:01.001Z</time></trkpt><trkpt lat="42.226453286731825" lon="14.036548605428914"><ele>331.66666666666663</ele><time>2026-04-23T13:26:02.001Z</time></trkpt><trkpt lat="42.22647421392952" lon="14.036659227367661"><ele>332.0</ele><time>2026-04-23T13:26:03.001Z</time></trkpt><trkpt lat="42.2265083199783" lon="14.03674981801149"><ele>332.3333333333333</ele><time>2026-04-23T13:26:04.001Z</time></trkpt><trkpt lat="42.22655861864521" lon="14.036815282388767"><ele>332.6666666666667</ele><time>2026-04-23T13:26:05.001Z</time></trkpt><trkpt lat="42.226628422306746" lon="14.036881597033977"><ele>333.0</ele><time>2026-04-23T13:26:06.001Z</time></trkpt><trkpt lat="42.22671333073291" lon="14.036908125180139"><ele>333.0</ele><time>2026-04-23T13:26:07.001Z</time></trkpt><trkpt lat="42.226804520070175" lon="14.036906048981313"><ele>333.0</ele><time>2026-04-23T13:26:08.001Z</time></trkpt><trkpt lat="42.226897923887805" lon="14.03688057065578"><ele>333.0</ele><time>2026-04-23T13:26:09.001Z</time></trkpt><trkpt lat="42.22698367337756" lon="14.036845241190536"><ele>333.0</ele><time>2026-04-23T13:26:10.001Z</time></trkpt><trkpt lat="42.2270515908077" lon="14.03677567452159"><ele>333.0</ele><time>2026-04-23T13:26:11.001Z</time></trkpt><trkpt lat="42.227098253664856" lon="14.036686393289894"><ele>333.0</ele><time>2026-04-23T13:26:12.001Z</time></trkpt><trkpt lat="42.227119189259525" lon="14.036568712435312"><ele>332.59999999999997</ele><time>2026-04-23T13:26:13.001Z</time></trkpt><trkpt lat="42.227130364539555" lon="14.036440228704578"><ele>332.2</ele><time>2026-04-23T13:26:14.001Z</time></trkpt><trkpt lat="42.22713734508882" lon="14.036297897490456"><ele>331.8</ele><time>2026-04-23T13:26:15.001Z</time></trkpt><trkpt lat="42.22715416845583" lon="14.036158150189012"><ele>331.4</ele><time>2026-04-23T13:26:16.001Z</time></trkpt><trkpt lat="42.22718926031174" lon="14.036046867395843"><ele>331.0</ele><time>2026-04-23T13:26:17.001Z</time></trkpt><trkpt lat="42.22724831698441" lon="14.035984292742446"><ele>332.0</ele><time>2026-04-23T13:26:18.001Z</time></trkpt><trkpt lat="42.22733336761983" lon="14.035944310662805"><ele>333.0</ele><time>2026-04-23T13:26:19.001Z</time></trkpt><trkpt lat="42.2274315412985" lon="14.035911656159357"><ele>334.0</ele><time>2026-04-23T13:26:20.001Z</time></trkpt><trkpt lat="42.22753626050673" lon="14.035864243935142"><ele>335.0</ele><time>2026-04-23T13:26:21.001Z</time></trkpt><trkpt lat="42.227636193175435" lon="14.035806992779502"><ele>336.0</ele><time>2026-04-23T13:26:22Z</time></trkpt><trkpt lat="42.22772640776766" lon="14.035745456748653"><ele>330.0</ele><time>2026-04-23T13:26:23Z</time></trkpt><trkpt lat="42.22782572984911" lon="14.03568629869374"><ele>324.0</ele><time>2026-04-23T13:26:24Z</time></trkpt><trkpt lat="42.22792991734521" lon="14.035617243178686"><ele>318.0</ele><time>2026-04-23T13:26:25Z</time></trkpt><trkpt lat="42.22802890502516" lon="14.035537481721192"><ele>312.0</ele><time>2026-04-23T13:26:26Z</time></trkpt><trkpt lat="42.22812113890636" lon="14.03543395012587"><ele>318.25</ele><time>2026-04-23T13:26:27Z</time></trkpt><trkpt lat="42.22820302542672" lon="14.035310821899188"><ele>324.5</ele><time>2026-04-23T13:26:28Z</time></trkpt><trkpt lat="42.22828159024579" lon="14.03519674583717"><ele>330.75</ele><time>2026-04-23T13:26:29Z</time></trkpt><trkpt lat="42.22836690831092" lon="14.03510777379058"><ele>337.0</ele><time>2026-04-23T13:26:30Z</time></trkpt><trkpt lat="42.228464789891" lon="14.035044042434528"><ele>337.0</ele><time>2026-04-23T13:26:31Z</time></trkpt><trkpt lat="42.228580070483524" lon="14.034993591118015"><ele>337.0</ele><time>2026-04-23T13:26:32Z</time></trkpt><trkpt lat="42.228690839899265" lon="14.034920237112543"><ele>337.0</ele><time>2026-04-23T13:26:33Z</time></trkpt><trkpt lat="42.22879445632221" lon="14.034844993124668"><ele>337.0</ele><time>2026-04-23T13:26:34Z</time></trkpt><trkpt lat="42.22889309151655" lon="14.034778035368323"><ele>338.20000000000005</ele><time>2026-04-23T13:26:35Z</time></trkpt><trkpt lat="42.228984349412016" lon="14.034720818247665"><ele>339.4</ele><time>2026-04-23T13:26:36Z</time></trkpt><trkpt lat="42.2290739387955" lon="14.034703511093428"><ele>340.6</ele><time>2026-04-23T13:26:37Z</time></trkpt><trkpt lat="42.22916750103631" lon="14.034743729315366"><ele>341.79999999999995</ele><time>2026-04-23T13:26:38Z</time></trkpt><trkpt lat="42.22927781758601" lon="14.034815457865982"><ele>343.0</ele><time>2026-04-23T13:26:39Z</time></trkpt><trkpt lat="42.22939013314504" lon="14.034900039033511"><ele>344.25</ele><time>2026-04-23T13:26:40Z</time></trkpt><trkpt lat="42.2295119369487" lon="14.034992118577307"><ele>345.5</ele><time>2026-04-23T13:26:41Z</time></trkpt><trkpt lat="42.22963901512414" lon="14.035073437289483"><ele>346.75</ele><time>2026-04-23T13:26:42Z</time></trkpt><trkpt lat="42.22977605955796" lon="14.035146488094297"><ele>348.0</ele><time>2026-04-23T13:26:43Z</time></trkpt><trkpt lat="42.229918131310065" lon="14.035177654728376"><ele>348.0</ele><time>2026-04-23T13:26:44Z</time></trkpt><trkpt lat="42.23006738730221" lon="14.03517367087049"><ele>348.0</ele><time>2026-04-23T13:26:45Z</time></trkpt><trkpt lat="42.23022525603647" lon="14.0351692988247"><ele>348.0</ele><time>2026-04-23T13:26:46Z</time></trkpt><trkpt lat="42.23038832222624" lon="14.03518759468511"><ele>348.0</ele><time>2026-04-23T13:26:47Z</time></trkpt><trkpt lat="42.230552589061105" lon="14.035212406959628"><ele>348.0</ele><time>2026-04-23T13:26:48Z</time></trkpt><trkpt lat="42.2307195188251" lon="14.035238791439616"><ele>348.0</ele><time>2026-04-23T13:26:49Z</time></trkpt><trkpt lat="42.23087393641944" lon="14.035252230649379"><ele>347.0</ele><time>2026-04-23T13:26:50Z</time></trkpt><trkpt lat="42.23101741295132" lon="14.03524647041549"><ele>346.0</ele><time>2026-04-23T13:26:51Z</time></trkpt><trkpt lat="42.23114365188466" lon="14.035216257822707"><ele>345.0</ele><time>2026-04-23T13:26:52Z</time></trkpt><trkpt lat="42.23125253809629" lon="14.035180787016253"><ele>344.0</ele><time>2026-04-23T13:26:53Z</time></trkpt><trkpt lat="42.23135412224935" lon="14.035188905162853"><ele>344.0</ele><time>2026-04-23T13:26:54Z</time></trkpt><trkpt lat="42.23144875231056" lon="14.035272680709232"><ele>344.0</ele><time>2026-04-23T13:26:55Z</time></trkpt><trkpt lat="42.23154084440652" lon="14.035389126858576"><ele>344.0</ele><time>2026-04-23T13:26:56Z</time></trkpt><trkpt lat="42.231639221857435" lon="14.035494205499413"><ele>344.0</ele><time>2026-04-23T13:26:57Z</time></trkpt><trkpt lat="42.2317426875999" lon="14.03554321848979"><ele>341.75</ele><time>2026-04-23T13:26:58Z</time></trkpt><trkpt lat="42.23185484249748" lon="14.035564937325057"><ele>339.5</ele><time>2026-04-23T13:26:59Z</time></trkpt><trkpt lat="42.23199091404174" lon="14.035574664314485"><ele>337.25</ele><time>2026-04-23T13:27:00Z</time></trkpt><trkpt lat="42.232136805810974" lon="14.035575187930421"><ele>335.0</ele><time>2026-04-23T13:27:01Z</time></trkpt><trkpt lat="42.23228503238975" lon="14.035574495272309"><ele>331.5</ele><time>2026-04-23T13:27:02Z</time></trkpt><trkpt lat="42.232434298333494" lon="14.035582032391078"><ele>328.0</ele><time>2026-04-23T13:27:03Z</time></trkpt><trkpt lat="42.23258090809484" lon="14.035598607420697"><ele>324.5</ele><time>2026-04-23T13:27:04Z</time></trkpt><trkpt lat="42.23272666974085" lon="14.0356174616042"><ele>321.0</ele><time>2026-04-23T13:27:05Z</time></trkpt><trkpt lat="42.23286298529339" lon="14.035632367750441"><ele>321.0</ele><time>2026-04-23T13:27:06Z</time></trkpt><trkpt lat="42.23298953142974" lon="14.035638134763602"><ele>321.0</ele><time>2026-04-23T13:27:07Z</time></trkpt><trkpt lat="42.233106178013195" lon="14.035675683793258"><ele>321.0</ele><time>2026-04-23T13:27:08Z</time></trkpt><trkpt lat="42.23320148313205" lon="14.035751275972808"><ele>321.0</ele><time>2026-04-23T13:27:09Z</time></trkpt><trkpt lat="42.2332684627777" lon="14.035857697194194"><ele>325.0</ele><time>2026-04-23T13:27:10Z</time></trkpt><trkpt lat="42.233330082567825" lon="14.035980112699635"><ele>329.0</ele><time>2026-04-23T13:27:11Z</time></trkpt><trkpt lat="42.233406350895955" lon="14.036134697727196"><ele>333.0</ele><time>2026-04-23T13:27:12Z</time></trkpt><trkpt lat="42.233489551931974" lon="14.036270368748983"><ele>337.0</ele><time>2026-04-23T13:27:13Z</time></trkpt><trkpt lat="42.2335702178725" lon="14.036392086399587"><ele>337.0</ele><time>2026-04-23T13:27:14Z</time></trkpt><trkpt lat="42.23364401280687" lon="14.036494125252963"><ele>337.0</ele><time>2026-04-23T13:27:15Z</time></trkpt><trkpt lat="42.233724965994284" lon="14.036537126065566"><ele>337.0</ele><time>2026-04-23T13:27:16Z</time></trkpt><trkpt lat="42.23381514951891" lon="14.0365293354114"><ele>337.0</ele><time>2026-04-23T13:27:17Z</time></trkpt><trkpt lat="42.23391147928258" lon="14.03647583476106"><ele>337.0</ele><time>2026-04-23T13:27:18Z</time></trkpt><trkpt lat="42.23401521277272" lon="14.036417588111433"><ele>332.5</ele><time>2026-04-23T13:27:19Z</time></trkpt><trkpt lat="42.23413078508204" lon="14.036390218868952"><ele>328.0</ele><time>2026-04-23T13:27:20Z</time></trkpt><trkpt lat="42.23425977158914" lon="14.036405375749819"><ele>323.5</ele><time>2026-04-23T13:27:21Z</time></trkpt><trkpt lat="42.23438048672941" lon="14.036462922787695"><ele>319.0</ele><time>2026-04-23T13:27:22Z</time></trkpt><trkpt lat="42.23447473909553" lon="14.036545507559895"><ele>323.4</ele><time>2026-04-23T13:27:23Z</time></trkpt><trkpt lat="42.23453670658947" lon="14.036647625367625"><ele>327.79999999999995</ele><time>2026-04-23T13:27:24Z</time></trkpt><trkpt lat="42.23459914466834" lon="14.03673860447713"><ele>332.20000000000005</ele><time>2026-04-23T13:27:25Z</time></trkpt><trkpt lat="42.234656096210344" lon="14.036846205875165"><ele>336.6</ele><time>2026-04-23T13:27:26Z</time></trkpt><trkpt lat="42.23471111415217" lon="14.036940877170219"><ele>341.0</ele><time>2026-04-23T13:27:27Z</time></trkpt><trkpt lat="42.23476868312266" lon="14.037032630312495"><ele>342.0</ele><time>2026-04-23T13:27:28Z</time></trkpt><trkpt lat="42.23481416689494" lon="14.03714294620921"><ele>343.0</ele><time>2026-04-23T13:27:29Z</time></trkpt><trkpt lat="42.23484473531046" lon="14.03726625833946"><ele>344.0</ele><time>2026-04-23T13:27:30Z</time></trkpt><trkpt lat="42.234855363970844" lon="14.037387636996954"><ele>345.0</ele><time>2026-04-23T13:27:31Z</time></trkpt><trkpt lat="42.23485938140508" lon="14.037510150597896"><ele>346.0</ele><time>2026-04-23T13:27:32Z</time></trkpt><trkpt lat="42.2348838890828" lon="14.037623906581661"><ele>346.0</ele><time>2026-04-23T13:27:33Z</time></trkpt><trkpt lat="42.23492373016851" lon="14.037712678290243"><ele>346.0</ele><time>2026-04-23T13:27:34Z</time></trkpt><trkpt lat="42.234977228760165" lon="14.037787520778439"><ele>346.0</ele><time>2026-04-23T13:27:35Z</time></trkpt><trkpt lat="42.23503763725409" lon="14.037842553181427"><ele>346.0</ele><time>2026-04-23T13:27:36Z</time></trkpt><trkpt lat="42.23509900192025" lon="14.037879652330709"><ele>346.0</ele><time>2026-04-23T13:27:37Z</time></trkpt><trkpt lat="42.23520932245514" lon="14.037922852639245"><ele>346.0</ele><time>2026-04-23T13:27:39.001Z</time></trkpt><trkpt lat="42.23523921792452" lon="14.038019389729632"><ele>346.0</ele><time>2026-04-23T13:27:41.001Z</time></trkpt><trkpt lat="42.23523059718528" lon="14.038111229834188"><ele>346.0</ele><time>2026-04-23T13:27:42.001Z</time></trkpt><trkpt lat="42.235205613107325" lon="14.038225539616155"><ele>346.0</ele><time>2026-04-23T13:27:43.001Z</time></trkpt><trkpt lat="42.23517758348497" lon="14.038340704977525"><ele>346.0</ele><time>2026-04-23T13:27:44.001Z</time></trkpt><trkpt lat="42.23516015250543" lon="14.038452390942071"><ele>346.0</ele><time>2026-04-23T13:27:45.001Z</time></trkpt><trkpt lat="42.23516283064988" lon="14.038555928335457"><ele>346.0</ele><time>2026-04-23T13:27:46.001Z</time></trkpt><trkpt lat="42.23520072055234" lon="14.03863279979066"><ele>346.0</ele><time>2026-04-23T13:27:47.001Z</time></trkpt><trkpt lat="42.235262159924176" lon="14.038669147908644"><ele>346.0</ele><time>2026-04-23T13:27:48.001Z</time></trkpt><trkpt lat="42.23532851846795" lon="14.038656154711889"><ele>346.0</ele><time>2026-04-23T13:27:49.001Z</time></trkpt><trkpt lat="42.23538044162622" lon="14.038595551322944"><ele>346.0</ele><time>2026-04-23T13:27:50.001Z</time></trkpt><trkpt lat="42.23542626071634" lon="14.038501606834629"><ele>346.0</ele><time>2026-04-23T13:27:51.001Z</time></trkpt><trkpt lat="42.235472369849184" lon="14.038354917799822"><ele>346.0</ele><time>2026-04-23T13:27:52.001Z</time></trkpt><trkpt lat="42.23552044577855" lon="14.03822825711533"><ele>346.0</ele><time>2026-04-23T13:27:53.001Z</time></trkpt><trkpt lat="42.23556634250183" lon="14.038115005577946"><ele>346.0</ele><time>2026-04-23T13:27:54.001Z</time></trkpt><trkpt lat="42.23561169246019" lon="14.038015773852008"><ele>346.0</ele><time>2026-04-23T13:27:55.001Z</time></trkpt><trkpt lat="42.2356534894327" lon="14.037926034509221"><ele>346.0</ele><time>2026-04-23T13:27:56.001Z</time></trkpt><trkpt lat="42.235711250283714" lon="14.037852303406243"><ele>346.0</ele><time>2026-04-23T13:27:57.001Z</time></trkpt><trkpt lat="42.235788353699945" lon="14.037807137918044"><ele>346.0</ele><time>2026-04-23T13:27:58.001Z</time></trkpt><trkpt lat="42.235880831465835" lon="14.037789444667476"><ele>347.16666666666663</ele><time>2026-04-23T13:27:59.001Z</time></trkpt><trkpt lat="42.23597152938094" lon="14.037771515998735"><ele>348.3333333333333</ele><time>2026-04-23T13:28:00.001Z</time></trkpt><trkpt lat="42.23605051301321" lon="14.037748726523061"><ele>349.5</ele><time>2026-04-23T13:28:01.001Z</time></trkpt><trkpt lat="42.23612303629986" lon="14.037737906355932"><ele>350.6666666666667</ele><time>2026-04-23T13:28:02.001Z</time></trkpt><trkpt lat="42.23619342850248" lon="14.037755702128935"><ele>351.83333333333337</ele><time>2026-04-23T13:28:03.001Z</time></trkpt><trkpt lat="42.23625302898386" lon="14.03779318394578"><ele>353.0</ele><time>2026-04-23T13:28:04.001Z</time></trkpt><trkpt lat="42.23632776480039" lon="14.037879098552981"><ele>353.0</ele><time>2026-04-23T13:28:06.001Z</time></trkpt><trkpt lat="42.23635367051623" lon="14.03799368343755"><ele>353.0</ele><time>2026-04-23T13:28:08.001Z</time></trkpt><trkpt lat="42.23642105095777" lon="14.038089729382325"><ele>353.0</ele><time>2026-04-23T13:28:10.001Z</time></trkpt><trkpt lat="42.23654781216359" lon="14.038097560799406"><ele>353.0</ele><time>2026-04-23T13:28:12.001Z</time></trkpt><trkpt lat="42.23661760497461" lon="14.038055806329993"><ele>353.0</ele><time>2026-04-23T13:28:13.001Z</time></trkpt><trkpt lat="42.236674324592144" lon="14.037986474677131"><ele>355.0</ele><time>2026-04-23T13:28:14.001Z</time></trkpt><trkpt lat="42.23672730308552" lon="14.03793993508308"><ele>357.0</ele><time>2026-04-23T13:28:15.001Z</time></trkpt><trkpt lat="42.2368328221729" lon="14.037852656698576"><ele>359.0</ele><time>2026-04-23T13:28:17Z</time></trkpt><trkpt lat="42.23692896141316" lon="14.037792125748235"><ele>361.0</ele><time>2026-04-23T13:28:19Z</time></trkpt><trkpt lat="42.237027284500904" lon="14.03772038040349"><ele>363.0</ele><time>2026-04-23T13:28:21Z</time></trkpt><trkpt lat="42.23713186587227" lon="14.037662882961378"><ele>363.0</ele><time>2026-04-23T13:28:23Z</time></trkpt><trkpt lat="42.237192935021234" lon="14.037630335747272"><ele>363.0</ele><time>2026-04-23T13:28:24Z</time></trkpt><trkpt lat="42.23725789205547" lon="14.03759384721994"><ele>363.0</ele><time>2026-04-23T13:28:25Z</time></trkpt><trkpt lat="42.23732877688281" lon="14.037572839629155"><ele>363.0</ele><time>2026-04-23T13:28:26Z</time></trkpt><trkpt lat="42.23740943175392" lon="14.037583418228632"><ele>363.0</ele><time>2026-04-23T13:28:27Z</time></trkpt><trkpt lat="42.23749846714196" lon="14.037617064627977"><ele>363.0</ele><time>2026-04-23T13:28:28Z</time></trkpt><trkpt lat="42.23759402442288" lon="14.03764973656995"><ele>362.79999999999995</ele><time>2026-04-23T13:28:29Z</time></trkpt><trkpt lat="42.237689844523764" lon="14.037661322201025"><ele>362.6</ele><time>2026-04-23T13:28:30Z</time></trkpt><trkpt lat="42.23778836245397" lon="14.037659701363841"><ele>362.4</ele><time>2026-04-23T13:28:31Z</time></trkpt><trkpt lat="42.237874612729016" lon="14.037668171203252"><ele>362.20000000000005</ele><time>2026-04-23T13:28:32Z</time></trkpt><trkpt lat="42.237947653336214" lon="14.037695982979228"><ele>362.0</ele><time>2026-04-23T13:28:33Z</time></trkpt><trkpt lat="42.23805300669731" lon="14.037764725459377"><ele>359.8</ele><time>2026-04-23T13:28:35Z</time></trkpt><trkpt lat="42.238170781988856" lon="14.03780241061708"><ele>357.6</ele><time>2026-04-23T13:28:36.999Z</time></trkpt><trkpt lat="42.2382436456269" lon="14.037806867907562"><ele>355.40000000000003</ele><time>2026-04-23T13:28:37.999Z</time></trkpt><trkpt lat="42.23831206437236" lon="14.037815426086027"><ele>353.20000000000005</ele><time>2026-04-23T13:28:38.999Z</time></trkpt><trkpt lat="42.23843152589994" lon="14.037825799741679"><ele>351.0</ele><time>2026-04-23T13:28:40.999Z</time></trkpt><trkpt lat="42.23854427144252" lon="14.03784656703464"><ele>351.0</ele><time>2026-04-23T13:28:42.999Z</time></trkpt><trkpt lat="42.23867137916326" lon="14.037842955355927"><ele>351.0</ele><time>2026-04-23T13:28:44.999Z</time></trkpt><trkpt lat="42.23872931559016" lon="14.037808906424042"><ele>351.0</ele><time>2026-04-23T13:28:45.999Z</time></trkpt><trkpt lat="42.2387876194457" lon="14.037695775724043"><ele>351.0</ele><time>2026-04-23T13:28:47.999Z</time></trkpt><trkpt lat="42.238861654310014" lon="14.03763129326041"><ele>351.0</ele><time>2026-04-23T13:28:49.999Z</time></trkpt><trkpt lat="42.23892486368891" lon="14.037601045466937"><ele>351.0</ele><time>2026-04-23T13:28:50.999Z</time></trkpt><trkpt lat="42.239007003895665" lon="14.037558513591266"><ele>351.5</ele><time>2026-04-23T13:28:51.999Z</time></trkpt><trkpt lat="42.23907415002408" lon="14.03749816513311"><ele>352.0</ele><time>2026-04-23T13:28:52.999Z</time></trkpt><trkpt lat="42.239148175061494" lon="14.037428795597561"><ele>352.5</ele><time>2026-04-23T13:28:53.999Z</time></trkpt><trkpt lat="42.23922734310932" lon="14.037383243651904"><ele>353.0</ele><time>2026-04-23T13:28:54.999Z</time></trkpt><trkpt lat="42.23930840287581" lon="14.037386688427539"><ele>353.5</ele><time>2026-04-23T13:28:55.999Z</time></trkpt><trkpt lat="42.23937669883519" lon="14.037418444281645"><ele>354.0</ele><time>2026-04-23T13:28:56.999Z</time></trkpt><trkpt lat="42.2394465469143" lon="14.037468200163234"><ele>354.0</ele><time>2026-04-23T13:28:57.999Z</time></trkpt><trkpt lat="42.23951516180653" lon="14.037526857852061"><ele>354.0</ele><time>2026-04-23T13:28:58.999Z</time></trkpt><trkpt lat="42.23957966096861" lon="14.037595302911773"><ele>354.0</ele><time>2026-04-23T13:28:59.999Z</time></trkpt><trkpt lat="42.23962688482458" lon="14.037684418955601"><ele>354.0</ele><time>2026-04-23T13:29:00.999Z</time></trkpt><trkpt lat="42.23966780624345" lon="14.037775513773513"><ele>354.0</ele><time>2026-04-23T13:29:01.999Z</time></trkpt><trkpt lat="42.239702858673596" lon="14.037864933861105"><ele>354.0</ele><time>2026-04-23T13:29:02.999Z</time></trkpt><trkpt lat="42.239744603670886" lon="14.037963607398197"><ele>354.0</ele><time>2026-04-23T13:29:03.999Z</time></trkpt><trkpt lat="42.23978974383408" lon="14.038057724654623"><ele>354.0</ele><time>2026-04-23T13:29:04.999Z</time></trkpt><trkpt lat="42.239841243189375" lon="14.038152657078184"><ele>354.0</ele><time>2026-04-23T13:29:05.999Z</time></trkpt><trkpt lat="42.23989687091425" lon="14.038236239659206"><ele>354.0</ele><time>2026-04-23T13:29:06.999Z</time></trkpt><trkpt lat="42.239944088973246" lon="14.038297791266192"><ele>354.0</ele><time>2026-04-23T13:29:07.999Z</time></trkpt><trkpt lat="42.2400066844472" lon="14.03836986796575"><ele>354.0</ele><time>2026-04-23T13:29:09.999Z</time></trkpt><trkpt lat="42.24000840726988" lon="14.038505571612673"><ele>355.4</ele><time>2026-04-23T13:29:11.999Z</time></trkpt><trkpt lat="42.239908049737615" lon="14.03864079710217"><ele>356.79999999999995</ele><time>2026-04-23T13:29:13.999Z</time></trkpt><trkpt lat="42.239851831335685" lon="14.038710388209884"><ele>358.20000000000005</ele><time>2026-04-23T13:29:14.999Z</time></trkpt><trkpt lat="42.23979831402938" lon="14.038787589616655"><ele>359.6</ele><time>2026-04-23T13:29:15.999Z</time></trkpt><trkpt lat="42.23973964202519" lon="14.038873940742883"><ele>361.0</ele><time>2026-04-23T13:29:16.999Z</time></trkpt><trkpt lat="42.239681128731114" lon="14.038966122340872"><ele>361.4</ele><time>2026-04-23T13:29:17.999Z</time></trkpt><trkpt lat="42.23961717847172" lon="14.039062454235452"><ele>361.8</ele><time>2026-04-23T13:29:18.999Z</time></trkpt><trkpt lat="42.23955226623118" lon="14.0391591723154"><ele>362.2</ele><time>2026-04-23T13:29:19.999Z</time></trkpt><trkpt lat="42.23948970004926" lon="14.039253979978357"><ele>362.59999999999997</ele><time>2026-04-23T13:29:20.999Z</time></trkpt><trkpt lat="42.23943139914426" lon="14.039345590621593"><ele>363.0</ele><time>2026-04-23T13:29:21.999Z</time></trkpt><trkpt lat="42.23937542447936" lon="14.039432416747085"><ele>363.5</ele><time>2026-04-23T13:29:22.999Z</time></trkpt><trkpt lat="42.239330405555165" lon="14.039517605830659"><ele>364.0</ele><time>2026-04-23T13:29:23.999Z</time></trkpt><trkpt lat="42.23930250525082" lon="14.039614484803323"><ele>364.5</ele><time>2026-04-23T13:29:24.999Z</time></trkpt><trkpt lat="42.2393044897385" lon="14.039718848247185"><ele>365.0</ele><time>2026-04-23T13:29:25.999Z</time></trkpt><trkpt lat="42.239266220910174" lon="14.039818774350355"><ele>365.5</ele><time>2026-04-23T13:29:26.999Z</time></trkpt><trkpt lat="42.23928796828666" lon="14.039938107321865"><ele>366.0</ele><time>2026-04-23T13:29:27.999Z</time></trkpt><trkpt lat="42.239296814127535" lon="14.040064180483482"><ele>367.0</ele><time>2026-04-23T13:29:28.999Z</time></trkpt><trkpt lat="42.23929829154263" lon="14.040192186637055"><ele>368.0</ele><time>2026-04-23T13:29:29.999Z</time></trkpt><trkpt lat="42.23930062691013" lon="14.040324236089791"><ele>369.0</ele><time>2026-04-23T13:29:30.999Z</time></trkpt><trkpt lat="42.239298938147094" lon="14.04045285571092"><ele>370.0</ele><time>2026-04-23T13:29:31.999Z</time></trkpt><trkpt lat="42.239292793019864" lon="14.040584630405002"><ele>371.0</ele><time>2026-04-23T13:29:32.999Z</time></trkpt><trkpt lat="42.23927687408268" lon="14.040711789554294"><ele>373.6</ele><time>2026-04-23T13:29:33.999Z</time></trkpt><trkpt lat="42.23923791389272" lon="14.040824005836997"><ele>376.20000000000005</ele><time>2026-04-23T13:29:34.999Z</time></trkpt><trkpt lat="42.23916932322253" lon="14.040903754461738"><ele>378.79999999999995</ele><time>2026-04-23T13:29:35.999Z</time></trkpt><trkpt lat="42.23908506709625" lon="14.04095645331212"><ele>381.4</ele><time>2026-04-23T13:29:36.999Z</time></trkpt><trkpt lat="42.2389944268883" lon="14.04099535393163"><ele>384.0</ele><time>2026-04-23T13:29:37.999Z</time></trkpt><trkpt lat="42.23890611910083" lon="14.041020229723422"><ele>384.1666666666667</ele><time>2026-04-23T13:29:38.999Z</time></trkpt><trkpt lat="42.23882814019128" lon="14.041042948310453"><ele>384.33333333333337</ele><time>2026-04-23T13:29:39.999Z</time></trkpt><trkpt lat="42.23875873215088" lon="14.041066102277785"><ele>384.5</ele><time>2026-04-23T13:29:40.999Z</time></trkpt><trkpt lat="42.23869793548896" lon="14.041094212337178"><ele>384.6666666666667</ele><time>2026-04-23T13:29:41.999Z</time></trkpt><trkpt lat="42.238656829507754" lon="14.041242461101913"><ele>384.83333333333337</ele><time>2026-04-23T13:29:43.999Z</time></trkpt><trkpt lat="42.23869433802403" lon="14.041321793663522"><ele>385.0</ele><time>2026-04-23T13:29:44.999Z</time></trkpt><trkpt lat="42.23876301192409" lon="14.041366500142544"><ele>385.00000000000006</ele><time>2026-04-23T13:29:45.999Z</time></trkpt><trkpt lat="42.2388531794929" lon="14.041367050572946"><ele>385.0</ele><time>2026-04-23T13:29:46.999Z</time></trkpt><trkpt lat="42.23894554080853" lon="14.041336766600532"><ele>385.0</ele><time>2026-04-23T13:29:47.999Z</time></trkpt><trkpt lat="42.23903414865697" lon="14.041302178496741"><ele>385.0</ele><time>2026-04-23T13:29:48.999Z</time></trkpt><trkpt lat="42.239120197230115" lon="14.041263209799927"><ele>385.00000000000006</ele><time>2026-04-23T13:29:49.999Z</time></trkpt><trkpt lat="42.23918663017699" lon="14.041244366556166"><ele>385.0</ele><time>2026-04-23T13:29:50.999Z</time></trkpt><trkpt lat="42.23925118263044" lon="14.041221737647033"><ele>384.83333333333337</ele><time>2026-04-23T13:29:51.999Z</time></trkpt><trkpt lat="42.23931247998555" lon="14.04120084314912"><ele>384.6666666666667</ele><time>2026-04-23T13:29:52.999Z</time></trkpt><trkpt lat="42.2394015152368" lon="14.041161322537999"><ele>384.5</ele><time>2026-04-23T13:29:54.999Z</time></trkpt><trkpt lat="42.23947518861176" lon="14.041200285889708"><ele>384.33333333333337</ele><time>2026-04-23T13:29:56.999Z</time></trkpt><trkpt lat="42.23943814110806" lon="14.041325135034787"><ele>384.1666666666667</ele><time>2026-04-23T13:29:58.999Z</time></trkpt><trkpt lat="42.23937070694829" lon="14.041389396815772"><ele>384.0</ele><time>2026-04-23T13:29:59.999Z</time></trkpt><trkpt lat="42.23927530270271" lon="14.041450079095895"><ele>384.0</ele><time>2026-04-23T13:30:00.999Z</time></trkpt><trkpt lat="42.239174778561626" lon="14.041506511758417"><ele>384.0</ele><time>2026-04-23T13:30:01.999Z</time></trkpt><trkpt lat="42.2390574814181" lon="14.041566902315624"><ele>384.0</ele><time>2026-04-23T13:30:02.999Z</time></trkpt><trkpt lat="42.238926182730985" lon="14.04164598777697"><ele>384.0</ele><time>2026-04-23T13:30:03.999Z</time></trkpt><trkpt lat="42.23877027248033" lon="14.0417492161554"><ele>391.66666666666663</ele><time>2026-04-23T13:30:04.999Z</time></trkpt><trkpt lat="42.23860343816617" lon="14.041864577690575"><ele>399.3333333333333</ele><time>2026-04-23T13:30:05.999Z</time></trkpt><trkpt lat="42.238418962363674" lon="14.041969788831903"><ele>407.0</ele><time>2026-04-23T13:30:06.999Z</time></trkpt><trkpt lat="42.238236143198826" lon="14.042031434862349"><ele>409.3333333333333</ele><time>2026-04-23T13:30:07.999Z</time></trkpt><trkpt lat="42.23806631844813" lon="14.042059143555068"><ele>411.66666666666663</ele><time>2026-04-23T13:30:08.999Z</time></trkpt><trkpt lat="42.23790917085183" lon="14.042074903913365"><ele>414.0</ele><time>2026-04-23T13:30:09.999Z</time></trkpt><trkpt lat="42.237774282895955" lon="14.042083796141627"><ele>414.0</ele><time>2026-04-23T13:30:10.999Z</time></trkpt><trkpt lat="42.23765334826172" lon="14.042067230470769"><ele>414.0</ele><time>2026-04-23T13:30:11.999Z</time></trkpt><trkpt lat="42.23755139551699" lon="14.042009660470521"><ele>414.0</ele><time>2026-04-23T13:30:12.999Z</time></trkpt><trkpt lat="42.23747714653516" lon="14.041903349397316"><ele>414.0</ele><time>2026-04-23T13:30:13.999Z</time></trkpt><trkpt lat="42.23742745919776" lon="14.04178701577808"><ele>414.0</ele><time>2026-04-23T13:30:14.999Z</time></trkpt><trkpt lat="42.23735540395808" lon="14.041720293030744"><ele>414.75</ele><time>2026-04-23T13:30:15.999Z</time></trkpt><trkpt lat="42.23725375934255" lon="14.041720095721798"><ele>415.5</ele><time>2026-04-23T13:30:16.999Z</time></trkpt><trkpt lat="42.23714707596641" lon="14.041784110602848"><ele>416.25</ele><time>2026-04-23T13:30:17.999Z</time></trkpt><trkpt lat="42.23702399288326" lon="14.041884866882807"><ele>417.0</ele><time>2026-04-23T13:30:18.999Z</time></trkpt><trkpt lat="42.23688250193588" lon="14.041997656144602"><ele>417.0</ele><time>2026-04-23T13:30:19.999Z</time></trkpt><trkpt lat="42.23671535175864" lon="14.042104971368772"><ele>417.0</ele><time>2026-04-23T13:30:20.999Z</time></trkpt><trkpt lat="42.23655245275655" lon="14.04221021341249"><ele>417.0</ele><time>2026-04-23T13:30:21.999Z</time></trkpt><trkpt lat="42.23641544273226" lon="14.042292561348928"><ele>417.25</ele><time>2026-04-23T13:30:22.999Z</time></trkpt><trkpt lat="42.23629901360554" lon="14.042340184762844"><ele>417.5</ele><time>2026-04-23T13:30:23.999Z</time></trkpt><trkpt lat="42.23619852443468" lon="14.042400099886821"><ele>417.75</ele><time>2026-04-23T13:30:24.999Z</time></trkpt><trkpt lat="42.236119170749944" lon="14.042513796632761"><ele>418.0</ele><time>2026-04-23T13:30:25.999Z</time></trkpt><trkpt lat="42.23604992460884" lon="14.042662693371824"><ele>423.0</ele><time>2026-04-23T13:30:26.999Z</time></trkpt><trkpt lat="42.23596178548432" lon="14.042792497813844"><ele>428.0</ele><time>2026-04-23T13:30:27.999Z</time></trkpt><trkpt lat="42.23584577810068" lon="14.042869510721891"><ele>433.0</ele><time>2026-04-23T13:30:28.999Z</time></trkpt><trkpt lat="42.23572923235932" lon="14.04287679164102"><ele>438.0</ele><time>2026-04-23T13:30:29.999Z</time></trkpt><trkpt lat="42.23563227349632" lon="14.042822920631194"><ele>441.0</ele><time>2026-04-23T13:30:30.999Z</time></trkpt><trkpt lat="42.23553728510136" lon="14.042741881750652"><ele>444.0</ele><time>2026-04-23T13:30:31.999Z</time></trkpt><trkpt lat="42.23542985540176" lon="14.042672130122604"><ele>447.0</ele><time>2026-04-23T13:30:32.999Z</time></trkpt><trkpt lat="42.23531101455054" lon="14.04261197188877"><ele>450.0</ele><time>2026-04-23T13:30:33.999Z</time></trkpt><trkpt lat="42.235177046396046" lon="14.042565806611481"><ele>450.0</ele><time>2026-04-23T13:30:34.999Z</time></trkpt><trkpt lat="42.2350335941136" lon="14.04255125024991"><ele>450.0</ele><time>2026-04-23T13:30:35.999Z</time></trkpt><trkpt lat="42.23488808744843" lon="14.042584592983346"><ele>450.0</ele><time>2026-04-23T13:30:36.999Z</time></trkpt><trkpt lat="42.23475767957084" lon="14.04267971791832"><ele>450.0</ele><time>2026-04-23T13:30:37.999Z</time></trkpt><trkpt lat="42.234646890193154" lon="14.042818671489497"><ele>452.5</ele><time>2026-04-23T13:30:38.999Z</time></trkpt><trkpt lat="42.23454490245618" lon="14.042963047228168"><ele>455.0</ele><time>2026-04-23T13:30:39.999Z</time></trkpt><trkpt lat="42.234427697404094" lon="14.04305939371863"><ele>457.5</ele><time>2026-04-23T13:30:40.999Z</time></trkpt><trkpt lat="42.23430787710153" lon="14.043092216013184"><ele>460.0</ele><time>2026-04-23T13:30:41.999Z</time></trkpt><trkpt lat="42.23420760662393" lon="14.043066928201194"><ele>460.0</ele><time>2026-04-23T13:30:42.999Z</time></trkpt><trkpt lat="42.234153309653244" lon="14.04299307156251"><ele>460.0</ele><time>2026-04-23T13:30:43.999Z</time></trkpt><trkpt lat="42.2341089493771" lon="14.042888206747794"><ele>460.0</ele><time>2026-04-23T13:30:44.999Z</time></trkpt><trkpt lat="42.23407111791853" lon="14.042745242892954"><ele>460.0</ele><time>2026-04-23T13:30:45.999Z</time></trkpt><trkpt lat="42.23400080008706" lon="14.04263674718521"><ele>460.0</ele><time>2026-04-23T13:30:46.999Z</time></trkpt><trkpt lat="42.23389244556324" lon="14.042578655931239"><ele>464.75</ele><time>2026-04-23T13:30:47.999Z</time></trkpt><trkpt lat="42.23377545138061" lon="14.042580720940634"><ele>469.5</ele><time>2026-04-23T13:30:48.999Z</time></trkpt><trkpt lat="42.233659509542775" lon="14.042632449086684"><ele>474.25</ele><time>2026-04-23T13:30:49.999Z</time></trkpt><trkpt lat="42.233532099347755" lon="14.042683835318051"><ele>479.0</ele><time>2026-04-23T13:30:50.999Z</time></trkpt><trkpt lat="42.2333873246652" lon="14.04268373380477"><ele>479.0</ele><time>2026-04-23T13:30:51.999Z</time></trkpt><trkpt lat="42.23323360063013" lon="14.042612653308801"><ele>479.0</ele><time>2026-04-23T13:30:52.999Z</time></trkpt><trkpt lat="42.23309718832174" lon="14.0425064023773"><ele>479.0</ele><time>2026-04-23T13:30:53.999Z</time></trkpt><trkpt lat="42.23296987995447" lon="14.042377592568805"><ele>481.0</ele><time>2026-04-23T13:30:54.999Z</time></trkpt><trkpt lat="42.232844462189504" lon="14.042241364248882"><ele>483.0</ele><time>2026-04-23T13:30:55.999Z</time></trkpt><trkpt lat="42.23272035488758" lon="14.042106207331022"><ele>485.0</ele><time>2026-04-23T13:30:56.999Z</time></trkpt><trkpt lat="42.23260896854511" lon="14.041973108150112"><ele>485.0</ele><time>2026-04-23T13:30:57.999Z</time></trkpt><trkpt lat="42.232513503451976" lon="14.04184128343874"><ele>485.0</ele><time>2026-04-23T13:30:58.999Z</time></trkpt><trkpt lat="42.232409083423626" lon="14.041744364754322"><ele>485.0</ele><time>2026-04-23T13:30:59.999Z</time></trkpt><trkpt lat="42.2322787161351" lon="14.041718288796744"><ele>485.0</ele><time>2026-04-23T13:31:00.999Z</time></trkpt><trkpt lat="42.2321355386473" lon="14.041751827791"><ele>490.0</ele><time>2026-04-23T13:31:01.999Z</time></trkpt><trkpt lat="42.23198036827877" lon="14.041790806665535"><ele>495.0</ele><time>2026-04-23T13:31:02.999Z</time></trkpt><trkpt lat="42.231827465079085" lon="14.041766041869943"><ele>500.0</ele><time>2026-04-23T13:31:03.999Z</time></trkpt><trkpt lat="42.231687115011745" lon="14.041638252220531"><ele>499.66666666666663</ele><time>2026-04-23T13:31:04.999Z</time></trkpt><trkpt lat="42.2315476560051" lon="14.041474827133179"><ele>499.33333333333337</ele><time>2026-04-23T13:31:05.999Z</time></trkpt><trkpt lat="42.23140573910594" lon="14.041321119424694"><ele>499.0</ele><time>2026-04-23T13:31:06.999Z</time></trkpt><trkpt lat="42.231276036905804" lon="14.041227034666118"><ele>499.0</ele><time>2026-04-23T13:31:07.999Z</time></trkpt><trkpt lat="42.23115469972861" lon="14.041190593114287"><ele>499.0</ele><time>2026-04-23T13:31:08.999Z</time></trkpt><trkpt lat="42.23104481440952" lon="14.041215190590895"><ele>499.0</ele><time>2026-04-23T13:31:09.999Z</time></trkpt><trkpt lat="42.230968637070795" lon="14.041308806561867"><ele>499.0</ele><time>2026-04-23T13:31:10.999Z</time></trkpt><trkpt lat="42.230937456949825" lon="14.041445761637394"><ele>499.0</ele><time>2026-04-23T13:31:11.999Z</time></trkpt><trkpt lat="42.23095304466303" lon="14.041594043690369"><ele>502.0</ele><time>2026-04-23T13:31:12.999Z</time></trkpt><trkpt lat="42.23101978486275" lon="14.041723445584253"><ele>505.0</ele><time>2026-04-23T13:31:13.999Z</time></trkpt><trkpt lat="42.231127712639704" lon="14.04182503038403"><ele>508.0</ele><time>2026-04-23T13:31:14.999Z</time></trkpt><trkpt lat="42.23125804789241" lon="14.041903612678095"><ele>511.0</ele><time>2026-04-23T13:31:15.999Z</time></trkpt><trkpt lat="42.23135344546605" lon="14.042000890319821"><ele>511.0</ele><time>2026-04-23T13:31:16.999Z</time></trkpt><trkpt lat="42.2313936145226" lon="14.04212873650731"><ele>511.0</ele><time>2026-04-23T13:31:17.999Z</time></trkpt><trkpt lat="42.231377660067096" lon="14.042264354823553"><ele>511.0</ele><time>2026-04-23T13:31:18.999Z</time></trkpt><trkpt lat="42.23131108666653" lon="14.04238291837339"><ele>511.0</ele><time>2026-04-23T13:31:19.999Z</time></trkpt><trkpt lat="42.2312076803266" lon="14.042461403418967"><ele>511.0</ele><time>2026-04-23T13:31:20.999Z</time></trkpt><trkpt lat="42.23107361802984" lon="14.042497908485478"><ele>513.3333333333334</ele><time>2026-04-23T13:31:21.999Z</time></trkpt><trkpt lat="42.23091325711555" lon="14.042493331791576"><ele>515.6666666666666</ele><time>2026-04-23T13:31:22.999Z</time></trkpt><trkpt lat="42.23074210184713" lon="14.042467776248312"><ele>518.0</ele><time>2026-04-23T13:31:23.999Z</time></trkpt><trkpt lat="42.230572427129616" lon="14.042460950583543"><ele>520.0</ele><time>2026-04-23T13:31:24.999Z</time></trkpt><trkpt lat="42.23041484238858" lon="14.04249691091515"><ele>522.0</ele><time>2026-04-23T13:31:25.999Z</time></trkpt><trkpt lat="42.23025903548889" lon="14.042568421328859"><ele>524.0</ele><time>2026-04-23T13:31:26.999Z</time></trkpt><trkpt lat="42.230111848509125" lon="14.042650138278473"><ele>524.0</ele><time>2026-04-23T13:31:27.999Z</time></trkpt><trkpt lat="42.22997321978319" lon="14.0427058425697"><ele>524.0</ele><time>2026-04-23T13:31:28.999Z</time></trkpt><trkpt lat="42.22983861278439" lon="14.042684021664222"><ele>524.0</ele><time>2026-04-23T13:31:29.999Z</time></trkpt><trkpt lat="42.22970810266297" lon="14.042592400985791"><ele>524.0</ele><time>2026-04-23T13:31:30.999Z</time></trkpt><trkpt lat="42.22958555325297" lon="14.042489609494474"><ele>524.6</ele><time>2026-04-23T13:31:31.999Z</time></trkpt><trkpt lat="42.22948103130414" lon="14.042426417557877"><ele>525.2</ele><time>2026-04-23T13:31:32.999Z</time></trkpt><trkpt lat="42.22938359540948" lon="14.04242368315039"><ele>525.8000000000001</ele><time>2026-04-23T13:31:33.999Z</time></trkpt><trkpt lat="42.229301958855714" lon="14.042488314211063"><ele>526.4</ele><time>2026-04-23T13:31:34.999Z</time></trkpt><trkpt lat="42.22925476812861" lon="14.04261242436434"><ele>527.0</ele><time>2026-04-23T13:31:35.999Z</time></trkpt><trkpt lat="42.229225961391656" lon="14.042778446051006"><ele>528.75</ele><time>2026-04-23T13:31:36.999Z</time></trkpt><trkpt lat="42.22918694771501" lon="14.042953904152846"><ele>530.5</ele><time>2026-04-23T13:31:37.999Z</time></trkpt><trkpt lat="42.22911383256933" lon="14.043112448870627"><ele>532.25</ele><time>2026-04-23T13:31:38.999Z</time></trkpt><trkpt lat="42.22900219907608" lon="14.043256376153307"><ele>534.0</ele><time>2026-04-23T13:31:39.999Z</time></trkpt><trkpt lat="42.228867044463684" lon="14.043369276112928"><ele>538.3333333333334</ele><time>2026-04-23T13:31:40.999Z</time></trkpt><trkpt lat="42.22871244846336" lon="14.043460319249217"><ele>542.6666666666667</ele><time>2026-04-23T13:31:41.999Z</time></trkpt><trkpt lat="42.22856849992918" lon="14.04354202701044"><ele>547.0</ele><time>2026-04-23T13:31:42.999Z</time></trkpt><trkpt lat="42.22844189232444" lon="14.043635696006735"><ele>547.0</ele><time>2026-04-23T13:31:43.999Z</time></trkpt><trkpt lat="42.22832141428689" lon="14.043745421732993"><ele>547.0</ele><time>2026-04-23T13:31:44.999Z</time></trkpt><trkpt lat="42.22819903554985" lon="14.04385122948222"><ele>547.0</ele><time>2026-04-23T13:31:45.999Z</time></trkpt><trkpt lat="42.22807154031182" lon="14.043938731383259"><ele>547.0</ele><time>2026-04-23T13:31:46.999Z</time></trkpt><trkpt lat="42.227944304620536" lon="14.044010720558054"><ele>547.8000000000001</ele><time>2026-04-23T13:31:47.999Z</time></trkpt><trkpt lat="42.227845223157004" lon="14.044083904729522"><ele>548.6</ele><time>2026-04-23T13:31:48.999Z</time></trkpt><trkpt lat="42.2277731935457" lon="14.044171213012241"><ele>549.4000000000001</ele><time>2026-04-23T13:31:49.999Z</time></trkpt><trkpt lat="42.22772591366587" lon="14.044257321857648"><ele>550.2</ele><time>2026-04-23T13:31:50.999Z</time></trkpt><trkpt lat="42.22771254630209" lon="14.044374991033703"><ele>551.0</ele><time>2026-04-23T13:33:48.999Z</time></trkpt><trkpt lat="42.22768153169429" lon="14.044491700031259"><ele>552.8</ele><time>2026-04-23T13:33:50.999Z</time></trkpt><trkpt lat="42.22761551854046" lon="14.044535678029435"><ele>554.6</ele><time>2026-04-23T13:33:51.999Z</time></trkpt><trkpt lat="42.22753207602647" lon="14.04456422100603"><ele>556.4</ele><time>2026-04-23T13:33:52.999Z</time></trkpt><trkpt lat="42.22745158727653" lon="14.044579408398597"><ele>558.2</ele><time>2026-04-23T13:33:53.999Z</time></trkpt><trkpt lat="42.2273485596351" lon="14.044573353619844"><ele>560.0</ele><time>2026-04-23T13:33:54.999Z</time></trkpt><trkpt lat="42.22723030706658" lon="14.044549048274213"><ele>560.5</ele><time>2026-04-23T13:33:55.999Z</time></trkpt><trkpt lat="42.227128366933144" lon="14.044533192370775"><ele>561.0</ele><time>2026-04-23T13:33:56.999Z</time></trkpt><trkpt lat="42.22704213639559" lon="14.04454668311071"><ele>561.5</ele><time>2026-04-23T13:33:57.999Z</time></trkpt><trkpt lat="42.22697202311065" lon="14.04460975746938"><ele>562.0</ele><time>2026-04-23T13:33:58.999Z</time></trkpt><trkpt lat="42.22693381763113" lon="14.044705855501636"><ele>562.5</ele><time>2026-04-23T13:33:59.999Z</time></trkpt><trkpt lat="42.226939360216036" lon="14.044822073577564"><ele>563.0</ele><time>2026-04-23T13:34:00.999Z</time></trkpt><trkpt lat="42.226983647228" lon="14.04494397631278"><ele>565.0</ele><time>2026-04-23T13:34:01.999Z</time></trkpt><trkpt lat="42.22703665839896" lon="14.045038693614728"><ele>567.0</ele><time>2026-04-23T13:34:02.999Z</time></trkpt><trkpt lat="42.22713845947475" lon="14.045114842856384"><ele>569.0</ele><time>2026-04-23T13:34:03.999Z</time></trkpt><trkpt lat="42.227268287185225" lon="14.045170750685672"><ele>571.0</ele><time>2026-04-23T13:34:04.999Z</time></trkpt><trkpt lat="42.227390301986574" lon="14.045201544566828"><ele>571.0</ele><time>2026-04-23T13:34:05.999Z</time></trkpt><trkpt lat="42.22749112943446" lon="14.045243830703859"><ele>571.0</ele><time>2026-04-23T13:34:06.999Z</time></trkpt><trkpt lat="42.227581673756866" lon="14.045288026806348"><ele>571.0</ele><time>2026-04-23T13:34:07.999Z</time></trkpt><trkpt lat="42.22764639092022" lon="14.045353337250289"><ele>571.0</ele><time>2026-04-23T13:34:08.999Z</time></trkpt><trkpt lat="42.22767644536807" lon="14.04544102903607"><ele>571.0</ele><time>2026-04-23T13:34:09.999Z</time></trkpt><trkpt lat="42.22767254786119" lon="14.045540969837353"><ele>571.0</ele><time>2026-04-23T13:34:10.999Z</time></trkpt><trkpt lat="42.2276290871755" lon="14.045627115962846"><ele>571.0</ele><time>2026-04-23T13:34:11.999Z</time></trkpt><trkpt lat="42.22755420132244" lon="14.045679772293838"><ele>571.0</ele><time>2026-04-23T13:34:12.999Z</time></trkpt><trkpt lat="42.22745406317334" lon="14.045694675611733"><ele>571.0</ele><time>2026-04-23T13:34:13.999Z</time></trkpt><trkpt lat="42.22733382057975" lon="14.045682616375862"><ele>571.0</ele><time>2026-04-23T13:34:14.999Z</time></trkpt><trkpt lat="42.227199702467416" lon="14.045662202256343"><ele>571.0</ele><time>2026-04-23T13:34:15.999Z</time></trkpt><trkpt lat="42.227069150457226" lon="14.045649756184286"><ele>572.0</ele><time>2026-04-23T13:34:16.999Z</time></trkpt><trkpt lat="42.22691964581501" lon="14.045637352385464"><ele>573.0</ele><time>2026-04-23T13:34:17.999Z</time></trkpt><trkpt lat="42.22675945648364" lon="14.045610154777771"><ele>574.0</ele><time>2026-04-23T13:34:18.999Z</time></trkpt><trkpt lat="42.22660013053692" lon="14.045567692821063"><ele>574.6666666666667</ele><time>2026-04-23T13:34:19.999Z</time></trkpt><trkpt lat="42.22644441281788" lon="14.045532960979823"><ele>575.3333333333334</ele><time>2026-04-23T13:34:20.999Z</time></trkpt><trkpt lat="42.22628899254764" lon="14.045540017614202"><ele>576.0</ele><time>2026-04-23T13:34:21.999Z</time></trkpt><trkpt lat="42.22613296983894" lon="14.045601279850118"><ele>576.0</ele><time>2026-04-23T13:34:22.999Z</time></trkpt><trkpt lat="42.2259771849214" lon="14.04570098894995"><ele>576.0</ele><time>2026-04-23T13:34:23.999Z</time></trkpt><trkpt lat="42.22581688841906" lon="14.045811487620757"><ele>576.0</ele><time>2026-04-23T13:34:24.999Z</time></trkpt><trkpt lat="42.22565641818533" lon="14.04592407828965"><ele>583.3333333333334</ele><time>2026-04-23T13:34:25.999Z</time></trkpt><trkpt lat="42.2254894703557" lon="14.046041888298753"><ele>590.6666666666667</ele><time>2026-04-23T13:34:26.999Z</time></trkpt><trkpt lat="42.225320189137584" lon="14.046160419487626"><ele>598.0</ele><time>2026-04-23T13:34:27.999Z</time></trkpt><trkpt lat="42.225145983429755" lon="14.046268107921568"><ele>598.0</ele><time>2026-04-23T13:34:28.999Z</time></trkpt><trkpt lat="42.22496733988811" lon="14.046368855919324"><ele>598.0</ele><time>2026-04-23T13:34:29.999Z</time></trkpt><trkpt lat="42.22478883935325" lon="14.046464682168875"><ele>598.0</ele><time>2026-04-23T13:34:30.999Z</time></trkpt><trkpt lat="42.22460665471721" lon="14.046534632594184"><ele>601.3333333333334</ele><time>2026-04-23T13:34:31.999Z</time></trkpt><trkpt lat="42.224423716566115" lon="14.046562795245238"><ele>604.6666666666666</ele><time>2026-04-23T13:34:32.999Z</time></trkpt><trkpt lat="42.22423938732914" lon="14.046560730531038"><ele>608.0</ele><time>2026-04-23T13:34:33.999Z</time></trkpt><trkpt lat="42.224036093514364" lon="14.046575093501342"><ele>611.75</ele><time>2026-04-23T13:34:34.999Z</time></trkpt><trkpt lat="42.22388233488535" lon="14.046580498757338"><ele>615.5</ele><time>2026-04-23T13:34:35.999Z</time></trkpt><trkpt lat="42.223750635606805" lon="14.04656188175982"><ele>619.25</ele><time>2026-04-23T13:34:36.999Z</time></trkpt><trkpt lat="42.22365617653314" lon="14.046496487044973"><ele>623.0</ele><time>2026-04-23T13:34:37.999Z</time></trkpt><trkpt lat="42.22360384966296" lon="14.04638764922781"><ele>623.0</ele><time>2026-04-23T13:34:38.999Z</time></trkpt><trkpt lat="42.22359815839127" lon="14.046277543731318"><ele>623.0</ele><time>2026-04-23T13:34:39.999Z</time></trkpt><trkpt lat="42.22362683260425" lon="14.046147934109323"><ele>623.0</ele><time>2026-04-23T13:34:40.999Z</time></trkpt><trkpt lat="42.22365841169327" lon="14.04599495939363"><ele>623.0</ele><time>2026-04-23T13:34:41.999Z</time></trkpt><trkpt lat="42.22363358586971" lon="14.045844474590869"><ele>623.0</ele><time>2026-04-23T13:34:42.999Z</time></trkpt><trkpt lat="42.22356440236092" lon="14.045701535520651"><ele>621.0</ele><time>2026-04-23T13:34:43.999Z</time></trkpt><trkpt lat="42.22345711153916" lon="14.04556774451479"><ele>619.0</ele><time>2026-04-23T13:34:44.999Z</time></trkpt><trkpt lat="42.22334246438571" lon="14.045462348698251"><ele>617.0</ele><time>2026-04-23T13:34:45.999Z</time></trkpt><trkpt lat="42.223212323771804" lon="14.04540786865677"><ele>615.0</ele><time>2026-04-23T13:34:46.999Z</time></trkpt><trkpt lat="42.223072889848126" lon="14.045406720527758"><ele>613.6666666666666</ele><time>2026-04-23T13:34:47.999Z</time></trkpt><trkpt lat="42.22291602134522" lon="14.045440915344123"><ele>612.3333333333333</ele><time>2026-04-23T13:34:48.999Z</time></trkpt><trkpt lat="42.222746167705175" lon="14.045489152391001"><ele>611.0</ele><time>2026-04-23T13:34:49.999Z</time></trkpt><trkpt lat="42.22258164555092" lon="14.045534727422163"><ele>611.0</ele><time>2026-04-23T13:34:50.999Z</time></trkpt><trkpt lat="42.222407193422036" lon="14.045605398052867"><ele>611.0</ele><time>2026-04-23T13:34:51.999Z</time></trkpt><trkpt lat="42.22223196353825" lon="14.045709068350845"><ele>611.0</ele><time>2026-04-23T13:34:52.999Z</time></trkpt><trkpt lat="42.22205869794052" lon="14.045839300030348"><ele>616.6666666666666</ele><time>2026-04-23T13:34:53.999Z</time></trkpt><trkpt lat="42.221877487462386" lon="14.045972544800554"><ele>622.3333333333334</ele><time>2026-04-23T13:34:54.999Z</time></trkpt><trkpt lat="42.22169108485547" lon="14.046107286410114"><ele>628.0</ele><time>2026-04-23T13:34:55.999Z</time></trkpt><trkpt lat="42.22151666497888" lon="14.046244900388942"><ele>624.3333333333334</ele><time>2026-04-23T13:34:56.999Z</time></trkpt><trkpt lat="42.22134430950631" lon="14.0464062570671"><ele>620.6666666666666</ele><time>2026-04-23T13:34:57.999Z</time></trkpt><trkpt lat="42.221185525188844" lon="14.04658640210758"><ele>617.0</ele><time>2026-04-23T13:34:58.999Z</time></trkpt><trkpt lat="42.22103250747381" lon="14.046770051940003"><ele>620.6666666666666</ele><time>2026-04-23T13:34:59.999Z</time></trkpt><trkpt lat="42.22087029112962" lon="14.046945896948383"><ele>624.3333333333334</ele><time>2026-04-23T13:35:00.999Z</time></trkpt><trkpt lat="42.22069650578088" lon="14.047102276397316"><ele>628.0</ele><time>2026-04-23T13:35:01.999Z</time></trkpt><trkpt lat="42.22051400080193" lon="14.047246893743345"><ele>628.0</ele><time>2026-04-23T13:35:02.999Z</time></trkpt><trkpt lat="42.22033183687228" lon="14.047389200272267"><ele>628.0</ele><time>2026-04-23T13:35:03.999Z</time></trkpt><trkpt lat="42.22015311117063" lon="14.047537327512162"><ele>628.0</ele><time>2026-04-23T13:35:04.999Z</time></trkpt><trkpt lat="42.2199827520792" lon="14.04768872047228"><ele>631.3333333333334</ele><time>2026-04-23T13:35:05.999Z</time></trkpt><trkpt lat="42.219815076470326" lon="14.047834689154792"><ele>634.6666666666666</ele><time>2026-04-23T13:35:06.999Z</time></trkpt><trkpt lat="42.21964699474176" lon="14.047971625177349"><ele>638.0</ele><time>2026-04-23T13:35:07.999Z</time></trkpt><trkpt lat="42.219485659349246" lon="14.048108864065547"><ele>638.0</ele><time>2026-04-23T13:35:08.999Z</time></trkpt><trkpt lat="42.219325499619345" lon="14.048249648462473"><ele>638.0</ele><time>2026-04-23T13:35:09.999Z</time></trkpt><trkpt lat="42.21916424428529" lon="14.048407769143948"><ele>638.0</ele><time>2026-04-23T13:35:10.999Z</time></trkpt><trkpt lat="42.219012583812294" lon="14.048588456654944"><ele>642.0</ele><time>2026-04-23T13:35:11.999Z</time></trkpt><trkpt lat="42.21886815440585" lon="14.048788807653077"><ele>646.0</ele><time>2026-04-23T13:35:12.999Z</time></trkpt><trkpt lat="42.21872077118424" lon="14.048986362315219"><ele>650.0</ele><time>2026-04-23T13:35:13.999Z</time></trkpt><trkpt lat="42.21856829540025" lon="14.049178859510867"><ele>653.6666666666666</ele><time>2026-04-23T13:35:14.999Z</time></trkpt><trkpt lat="42.21840885681936" lon="14.049369668335887"><ele>657.3333333333334</ele><time>2026-04-23T13:35:15.999Z</time></trkpt><trkpt lat="42.218243914027525" lon="14.049550031136677"><ele>661.0</ele><time>2026-04-23T13:35:16.999Z</time></trkpt><trkpt lat="42.21807512818687" lon="14.049722864494818"><ele>661.0</ele><time>2026-04-23T13:35:17.999Z</time></trkpt><trkpt lat="42.21790266104504" lon="14.04988852261836"><ele>661.0</ele><time>2026-04-23T13:35:18.999Z</time></trkpt><trkpt lat="42.21773161409273" lon="14.050049278435637"><ele>661.0</ele><time>2026-04-23T13:35:19.999Z</time></trkpt><trkpt lat="42.217572024338416" lon="14.050199679712186"><ele>665.6666666666667</ele><time>2026-04-23T13:35:20.999Z</time></trkpt><trkpt lat="42.217422235712206" lon="14.050311486696913"><ele>670.3333333333334</ele><time>2026-04-23T13:35:21.999Z</time></trkpt><trkpt lat="42.21727115623808" lon="14.050358502296564"><ele>675.0</ele><time>2026-04-23T13:35:22.999Z</time></trkpt><trkpt lat="42.217115291897" lon="14.050358608649388"><ele>675.3333333333334</ele><time>2026-04-23T13:35:23.999Z</time></trkpt><trkpt lat="42.21695605433021" lon="14.05032993917733"><ele>675.6666666666667</ele><time>2026-04-23T13:35:24.999Z</time></trkpt><trkpt lat="42.216793747401276" lon="14.050318103377833"><ele>676.0</ele><time>2026-04-23T13:35:25.999Z</time></trkpt><trkpt lat="42.21662771605663" lon="14.050357014099376"><ele>670.6666666666667</ele><time>2026-04-23T13:35:26.999Z</time></trkpt><trkpt lat="42.21647021326621" lon="14.050441940472695"><ele>665.3333333333334</ele><time>2026-04-23T13:35:27.999Z</time></trkpt><trkpt lat="42.21634007847848" lon="14.050564165047476"><ele>660.0</ele><time>2026-04-23T13:35:28.999Z</time></trkpt><trkpt lat="42.2162411311471" lon="14.050727588209472"><ele>666.6666666666666</ele><time>2026-04-23T13:35:29.999Z</time></trkpt><trkpt lat="42.21615422091587" lon="14.05091605191694"><ele>673.3333333333333</ele><time>2026-04-23T13:35:30.999Z</time></trkpt><trkpt lat="42.21606969934878" lon="14.051104902092721"><ele>680.0</ele><time>2026-04-23T13:35:31.999Z</time></trkpt><trkpt lat="42.21598357531004" lon="14.051313313934019"><ele>680.0</ele><time>2026-04-23T13:35:32.999Z</time></trkpt><trkpt lat="42.215909666525924" lon="14.051534283145328"><ele>680.0</ele><time>2026-04-23T13:35:33.999Z</time></trkpt><trkpt lat="42.21584790770919" lon="14.051765863777725"><ele>680.0</ele><time>2026-04-23T13:35:34.999Z</time></trkpt><trkpt lat="42.21579717904859" lon="14.052001257873334"><ele>684.6666666666666</ele><time>2026-04-23T13:35:35.999Z</time></trkpt><trkpt lat="42.21575808103577" lon="14.052241288368435"><ele>689.3333333333334</ele><time>2026-04-23T13:35:36.999Z</time></trkpt><trkpt lat="42.215681026166244" lon="14.052527677405768"><ele>694.0</ele><time>2026-04-23T13:35:37.999Z</time></trkpt><trkpt lat="42.21567492032525" lon="14.05275351755096"><ele>697.0</ele><time>2026-04-23T13:35:38.999Z</time></trkpt><trkpt lat="42.21569327810293" lon="14.05292184682869"><ele>700.0</ele><time>2026-04-23T13:35:39.999Z</time></trkpt><trkpt lat="42.215741166136944" lon="14.053048649529364"><ele>703.0</ele><time>2026-04-23T13:35:40.999Z</time></trkpt><trkpt lat="42.21582688780151" lon="14.053159306229091"><ele>706.0</ele><time>2026-04-23T13:35:41.999Z</time></trkpt><trkpt lat="42.21592807028963" lon="14.05325160093641"><ele>708.4</ele><time>2026-04-23T13:35:42.999Z</time></trkpt><trkpt lat="42.21599523243204" lon="14.053357690788927"><ele>710.8</ele><time>2026-04-23T13:35:43.999Z</time></trkpt><trkpt lat="42.21601263178078" lon="14.053484447891503"><ele>713.1999999999999</ele><time>2026-04-23T13:35:44.999Z</time></trkpt><trkpt lat="42.21599183512344" lon="14.053632951137766"><ele>715.5999999999999</ele><time>2026-04-23T13:35:45.999Z</time></trkpt><trkpt lat="42.21593448435678" lon="14.05379490012246"><ele>718.0</ele><time>2026-04-23T13:35:46.999Z</time></trkpt><trkpt lat="42.21586389789444" lon="14.053962280150921"><ele>720.6666666666667</ele><time>2026-04-23T13:35:47.999Z</time></trkpt><trkpt lat="42.21578391906615" lon="14.054151061747813"><ele>723.3333333333334</ele><time>2026-04-23T13:35:48.999Z</time></trkpt><trkpt lat="42.21570359128359" lon="14.054350990759465"><ele>726.0</ele><time>2026-04-23T13:35:49.999Z</time></trkpt><trkpt lat="42.21561795166843" lon="14.054537357139198"><ele>726.0</ele><time>2026-04-23T13:35:50.999Z</time></trkpt><trkpt lat="42.215519219550714" lon="14.054721751173751"><ele>726.0</ele><time>2026-04-23T13:35:51.999Z</time></trkpt><trkpt lat="42.21541105450726" lon="14.054905034422772"><ele>726.0</ele><time>2026-04-23T13:35:52.999Z</time></trkpt><trkpt lat="42.215297129847" lon="14.055093657601445"><ele>728.3333333333334</ele><time>2026-04-23T13:35:53.999Z</time></trkpt><trkpt lat="42.21518570578212" lon="14.055281231801755"><ele>730.6666666666667</ele><time>2026-04-23T13:35:54.999Z</time></trkpt><trkpt lat="42.21506919626028" lon="14.055473507902615"><ele>733.0</ele><time>2026-04-23T13:35:55.999Z</time></trkpt><trkpt lat="42.21496085574271" lon="14.055671537030653"><ele>736.6666666666667</ele><time>2026-04-23T13:35:56.999Z</time></trkpt><trkpt lat="42.21487916417824" lon="14.055879534803298"><ele>740.3333333333334</ele><time>2026-04-23T13:35:57.999Z</time></trkpt><trkpt lat="42.21482162658497" lon="14.056100717675584"><ele>744.0</ele><time>2026-04-23T13:35:58.999Z</time></trkpt><trkpt lat="42.21478801749321" lon="14.056329151646219"><ele>746.6666666666666</ele><time>2026-04-23T13:35:59.999Z</time></trkpt><trkpt lat="42.21478332584558" lon="14.056559089961791"><ele>749.3333333333333</ele><time>2026-04-23T13:36:00.999Z</time></trkpt><trkpt lat="42.214862805575976" lon="14.056777247769197"><ele>752.0</ele><time>2026-04-23T13:36:01.998Z</time></trkpt><trkpt lat="42.214919640625176" lon="14.056986740116455"><ele>752.0</ele><time>2026-04-23T13:36:02.998Z</time></trkpt><trkpt lat="42.21498714474392" lon="14.057171025794236"><ele>752.0</ele><time>2026-04-23T13:36:03.998Z</time></trkpt><trkpt lat="42.215078072908064" lon="14.057341174977688"><ele>752.0</ele><time>2026-04-23T13:36:04.998Z</time></trkpt><trkpt lat="42.215198942461264" lon="14.057500456314187"><ele>752.0</ele><time>2026-04-23T13:36:05.998Z</time></trkpt><trkpt lat="42.21533090796758" lon="14.057658685976126"><ele>752.0</ele><time>2026-04-23T13:36:06.998Z</time></trkpt><trkpt lat="42.21545132547404" lon="14.057819226108338"><ele>752.0</ele><time>2026-04-23T13:36:07.998Z</time></trkpt><trkpt lat="42.21557102258256" lon="14.057955732831688"><ele>754.0</ele><time>2026-04-23T13:36:08.998Z</time></trkpt><trkpt lat="42.21570276264376" lon="14.05802809436868"><ele>756.0</ele><time>2026-04-23T13:36:09.998Z</time></trkpt><trkpt lat="42.215835688671994" lon="14.05804099780748"><ele>758.0</ele><time>2026-04-23T13:36:10.999Z</time></trkpt><trkpt lat="42.21594037852042" lon="14.057997092541946"><ele>760.0</ele><time>2026-04-23T13:36:11.999Z</time></trkpt><trkpt lat="42.216040810138075" lon="14.057909327266586"><ele>760.0</ele><time>2026-04-23T13:36:12.999Z</time></trkpt><trkpt lat="42.21615175045694" lon="14.057775386440115"><ele>760.0</ele><time>2026-04-23T13:36:13.999Z</time></trkpt><trkpt lat="42.21627711507512" lon="14.057626564960154"><ele>760.0</ele><time>2026-04-23T13:36:14.999Z</time></trkpt><trkpt lat="42.216430605660236" lon="14.05750127705201"><ele>759.6666666666667</ele><time>2026-04-23T13:36:15.999Z</time></trkpt><trkpt lat="42.21659198360458" lon="14.057400774746398"><ele>759.3333333333334</ele><time>2026-04-23T13:36:16.999Z</time></trkpt><trkpt lat="42.21676266658645" lon="14.057295995772714"><ele>759.0</ele><time>2026-04-23T13:36:17.999Z</time></trkpt><trkpt lat="42.21693594076168" lon="14.057192585838322"><ele>759.0</ele><time>2026-04-23T13:36:18.999Z</time></trkpt><trkpt lat="42.21711948289019" lon="14.057124980770555"><ele>759.0</ele><time>2026-04-23T13:36:19.999Z</time></trkpt><trkpt lat="42.21731315580024" lon="14.057093157768533"><ele>759.0</ele><time>2026-04-23T13:36:20.999Z</time></trkpt><trkpt lat="42.21751231050912" lon="14.057074068466687"><ele>758.0</ele><time>2026-04-23T13:36:21.999Z</time></trkpt><trkpt lat="42.21770646763249" lon="14.057004174041605"><ele>757.0</ele><time>2026-04-23T13:36:22.999Z</time></trkpt><trkpt lat="42.21788649540561" lon="14.056862301156722"><ele>756.0</ele><time>2026-04-23T13:36:23.999Z</time></trkpt><trkpt lat="42.21803626421844" lon="14.05669732279239"><ele>754.3333333333334</ele><time>2026-04-23T13:36:24.999Z</time></trkpt><trkpt lat="42.218181117134115" lon="14.056593216589883"><ele>752.6666666666667</ele><time>2026-04-23T13:36:25.999Z</time></trkpt><trkpt lat="42.21834404647997" lon="14.056535468871473"><ele>751.0</ele><time>2026-04-23T13:36:26.999Z</time></trkpt><trkpt lat="42.21851707107069" lon="14.056504874182556"><ele>751.0</ele><time>2026-04-23T13:36:27.999Z</time></trkpt><trkpt lat="42.21868718296889" lon="14.056501775872283"><ele>751.0</ele><time>2026-04-23T13:36:28.999Z</time></trkpt><trkpt lat="42.21885697538521" lon="14.056538821572307"><ele>751.0</ele><time>2026-04-23T13:36:29.999Z</time></trkpt><trkpt lat="42.21902834439123" lon="14.056609741889918"><ele>759.6666666666667</ele><time>2026-04-23T13:36:30.999Z</time></trkpt><trkpt lat="42.21920384571057" lon="14.05670323928798"><ele>768.3333333333334</ele><time>2026-04-23T13:36:31.999Z</time></trkpt><trkpt lat="42.21937506454664" lon="14.056809548365747"><ele>777.0</ele><time>2026-04-23T13:36:32.999Z</time></trkpt><trkpt lat="42.2195227818712" lon="14.056915376589531"><ele>777.0</ele><time>2026-04-23T13:36:33.999Z</time></trkpt><trkpt lat="42.21965562825363" lon="14.057018792291084"><ele>777.0</ele><time>2026-04-23T13:36:34.999Z</time></trkpt><trkpt lat="42.219777958028416" lon="14.05713506834367"><ele>777.0</ele><time>2026-04-23T13:36:35.999Z</time></trkpt><trkpt lat="42.21987875448122" lon="14.057265997007926"><ele>777.0</ele><time>2026-04-23T13:36:36.999Z</time></trkpt><trkpt lat="42.21996449974041" lon="14.057436902371196"><ele>779.6666666666667</ele><time>2026-04-23T13:36:37.999Z</time></trkpt><trkpt lat="42.22003963503297" lon="14.057625268051247"><ele>782.3333333333334</ele><time>2026-04-23T13:36:38.999Z</time></trkpt><trkpt lat="42.22011488932854" lon="14.05782382962387"><ele>785.0</ele><time>2026-04-23T13:36:39.999Z</time></trkpt><trkpt lat="42.22018849425193" lon="14.058004583014108"><ele>785.0000000000001</ele><time>2026-04-23T13:36:40.999Z</time></trkpt><trkpt lat="42.22025544467203" lon="14.05814498231277"><ele>785.0</ele><time>2026-04-23T13:36:41.999Z</time></trkpt><trkpt lat="42.22030688783872" lon="14.058252053947793"><ele>785.0</ele><time>2026-04-23T13:36:42.999Z</time></trkpt><trkpt lat="42.22032188208031" lon="14.058357639855515"><ele>785.0</ele><time>2026-04-23T13:36:43.999Z</time></trkpt><trkpt lat="42.22029185638804" lon="14.058447531878222"><ele>785.0000000000001</ele><time>2026-04-23T13:36:44.999Z</time></trkpt><trkpt lat="42.22022406735763" lon="14.058485739536332"><ele>785.0</ele><time>2026-04-23T13:36:45.999Z</time></trkpt><trkpt lat="42.2201475177858" lon="14.058474250012665"><ele>785.0</ele><time>2026-04-23T13:36:46.999Z</time></trkpt><trkpt lat="42.2200669585855" lon="14.058415232455088"><ele>785.0</ele><time>2026-04-23T13:36:47.999Z</time></trkpt><trkpt lat="42.21997281504854" lon="14.058309672893845"><ele>785.0</ele><time>2026-04-23T13:36:48.999Z</time></trkpt><trkpt lat="42.219864321008686" lon="14.058180541100866"><ele>785.0</ele><time>2026-04-23T13:36:49.999Z</time></trkpt><trkpt lat="42.21973983976499" lon="14.058070065872526"><ele>788.6666666666667</ele><time>2026-04-23T13:36:50.999Z</time></trkpt><trkpt lat="42.21959803939235" lon="14.05798189561268"><ele>792.3333333333333</ele><time>2026-04-23T13:36:51.999Z</time></trkpt><trkpt lat="42.21942975142181" lon="14.057900567005042"><ele>796.0</ele><time>2026-04-23T13:36:52.999Z</time></trkpt><trkpt lat="42.2192467623528" lon="14.057833368481798"><ele>796.0</ele><time>2026-04-23T13:36:53.999Z</time></trkpt><trkpt lat="42.21905776839879" lon="14.057800170286981"><ele>796.0</ele><time>2026-04-23T13:36:54.999Z</time></trkpt><trkpt lat="42.2188542413965" lon="14.057788663259426"><ele>796.0</ele><time>2026-04-23T13:36:55.999Z</time></trkpt><trkpt lat="42.218645612154845" lon="14.057796833199818"><ele>796.6666666666666</ele><time>2026-04-23T13:36:56.999Z</time></trkpt><trkpt lat="42.2184290134175" lon="14.057802824293006"><ele>797.3333333333333</ele><time>2026-04-23T13:36:57.999Z</time></trkpt><trkpt lat="42.218219298278754" lon="14.057815964478122"><ele>798.0</ele><time>2026-04-23T13:36:58.999Z</time></trkpt><trkpt lat="42.218023415862866" lon="14.057848885096874"><ele>795.3333333333333</ele><time>2026-04-23T13:36:59.999Z</time></trkpt><trkpt lat="42.217827265463036" lon="14.057919682157623"><ele>792.6666666666666</ele><time>2026-04-23T13:37:00.999Z</time></trkpt><trkpt lat="42.21763082068004" lon="14.058039838628424"><ele>790.0</ele><time>2026-04-23T13:37:01.999Z</time></trkpt><trkpt lat="42.21744749853748" lon="14.058191011539597"><ele>792.0</ele><time>2026-04-23T13:37:02.999Z</time></trkpt><trkpt lat="42.21726442412484" lon="14.058322233952962"><ele>794.0</ele><time>2026-04-23T13:37:03.999Z</time></trkpt><trkpt lat="42.21710314776542" lon="14.058419505518577"><ele>796.0</ele><time>2026-04-23T13:37:04.999Z</time></trkpt><trkpt lat="42.216954930746354" lon="14.05852502157685"><ele>796.0</ele><time>2026-04-23T13:37:05.999Z</time></trkpt><trkpt lat="42.21683064448756" lon="14.058688038870647"><ele>796.0</ele><time>2026-04-23T13:37:06.999Z</time></trkpt><trkpt lat="42.21671978436674" lon="14.058904686545791"><ele>796.0</ele><time>2026-04-23T13:37:07.999Z</time></trkpt><trkpt lat="42.21662261792625" lon="14.059130149231128"><ele>798.6666666666666</ele><time>2026-04-23T13:37:08.999Z</time></trkpt><trkpt lat="42.21652045990338" lon="14.059367570345714"><ele>801.3333333333333</ele><time>2026-04-23T13:37:09.999Z</time></trkpt><trkpt lat="42.21640415387372" lon="14.059602206457457"><ele>804.0</ele><time>2026-04-23T13:37:10.999Z</time></trkpt><trkpt lat="42.216258640980485" lon="14.059825610428915"><ele>813.6666666666667</ele><time>2026-04-23T13:37:11.999Z</time></trkpt><trkpt lat="42.21610056143546" lon="14.060023564820069"><ele>823.3333333333334</ele><time>2026-04-23T13:37:12.999Z</time></trkpt><trkpt lat="42.215926911341704" lon="14.060209149570307"><ele>833.0</ele><time>2026-04-23T13:37:13.999Z</time></trkpt><trkpt lat="42.215743386461455" lon="14.060367302412713"><ele>837.3333333333334</ele><time>2026-04-23T13:37:14.999Z</time></trkpt><trkpt lat="42.21555230722756" lon="14.060498857359738"><ele>841.6666666666667</ele><time>2026-04-23T13:37:15.999Z</time></trkpt><trkpt lat="42.215370188592665" lon="14.060642943805087"><ele>846.0</ele><time>2026-04-23T13:37:16.999Z</time></trkpt><trkpt lat="42.215200128649855" lon="14.060817900831378"><ele>846.0</ele><time>2026-04-23T13:37:17.999Z</time></trkpt><trkpt lat="42.215042885287396" lon="14.061016144720384"><ele>846.0</ele><time>2026-04-23T13:37:18.999Z</time></trkpt><trkpt lat="42.21488567512647" lon="14.061217554332563"><ele>846.0</ele><time>2026-04-23T13:37:19.999Z</time></trkpt><trkpt lat="42.21472009662105" lon="14.061405545475706"><ele>849.3333333333333</ele><time>2026-04-23T13:37:20.999Z</time></trkpt><trkpt lat="42.21455348375602" lon="14.061575097348541"><ele>852.6666666666666</ele><time>2026-04-23T13:37:21.999Z</time></trkpt><trkpt lat="42.214382050123874" lon="14.061739814608224"><ele>856.0</ele><time>2026-04-23T13:37:22.999Z</time></trkpt><trkpt lat="42.21421333836556" lon="14.061902974171119"><ele>856.0</ele><time>2026-04-23T13:37:23.999Z</time></trkpt><trkpt lat="42.21404732003842" lon="14.062073407704156"><ele>856.0</ele><time>2026-04-23T13:37:24.999Z</time></trkpt><trkpt lat="42.213878467352366" lon="14.062246297317778"><ele>856.0</ele><time>2026-04-23T13:37:25.999Z</time></trkpt><trkpt lat="42.21371329035498" lon="14.062419062689584"><ele>859.3333333333333</ele><time>2026-04-23T13:37:26.999Z</time></trkpt><trkpt lat="42.21354933556944" lon="14.062596579824573"><ele>862.6666666666667</ele><time>2026-04-23T13:37:27.999Z</time></trkpt><trkpt lat="42.213389939218146" lon="14.062777502379017"><ele>866.0</ele><time>2026-04-23T13:37:28.999Z</time></trkpt><trkpt lat="42.21322602400578" lon="14.062957522870734"><ele>867.0</ele><time>2026-04-23T13:37:29.999Z</time></trkpt><trkpt lat="42.21306885522849" lon="14.063142067190938"><ele>868.0</ele><time>2026-04-23T13:37:30.999Z</time></trkpt><trkpt lat="42.21291740010665" lon="14.063345643017543"><ele>869.0</ele><time>2026-04-23T13:37:31.999Z</time></trkpt><trkpt lat="42.21277461979986" lon="14.063564133724944"><ele>869.0</ele><time>2026-04-23T13:37:32.999Z</time></trkpt><trkpt lat="42.21263667376425" lon="14.063785119740334"><ele>869.0</ele><time>2026-04-23T13:37:33.999Z</time></trkpt><trkpt lat="42.21249789717134" lon="14.063995436193713"><ele>869.0</ele><time>2026-04-23T13:37:34.999Z</time></trkpt><trkpt lat="42.21235828447408" lon="14.064202010988923"><ele>866.3333333333334</ele><time>2026-04-23T13:37:35.999Z</time></trkpt><trkpt lat="42.21221698437041" lon="14.064404951260718"><ele>863.6666666666667</ele><time>2026-04-23T13:37:36.999Z</time></trkpt><trkpt lat="42.212073875396705" lon="14.064610897662453"><ele>861.0</ele><time>2026-04-23T13:37:37.999Z</time></trkpt><trkpt lat="42.21193258761231" lon="14.064822501332518"><ele>873.6666666666667</ele><time>2026-04-23T13:37:38.999Z</time></trkpt><trkpt lat="42.2117941439692" lon="14.065041055048129"><ele>886.3333333333334</ele><time>2026-04-23T13:37:39.999Z</time></trkpt><trkpt lat="42.21164848594112" lon="14.065261714047775"><ele>899.0</ele><time>2026-04-23T13:37:40.999Z</time></trkpt><trkpt lat="42.211506499626225" lon="14.065474667347857"><ele>898.0</ele><time>2026-04-23T13:37:41.999Z</time></trkpt><trkpt lat="42.21136257222397" lon="14.065693210754347"><ele>897.0</ele><time>2026-04-23T13:37:42.999Z</time></trkpt><trkpt lat="42.211224218562585" lon="14.065917417788246"><ele>896.0</ele><time>2026-04-23T13:37:43.999Z</time></trkpt><trkpt lat="42.211080328844375" lon="14.066146320159087"><ele>896.0</ele><time>2026-04-23T13:37:44.999Z</time></trkpt><trkpt lat="42.21093377128479" lon="14.066366313436065"><ele>896.0</ele><time>2026-04-23T13:37:45.999Z</time></trkpt><trkpt lat="42.21078208011796" lon="14.066583717252643"><ele>896.0</ele><time>2026-04-23T13:37:46.999Z</time></trkpt><trkpt lat="42.21061686329326" lon="14.06680444014723"><ele>895.5</ele><time>2026-04-23T13:37:47.999Z</time></trkpt><trkpt lat="42.210460386871794" lon="14.067035263661982"><ele>895.0</ele><time>2026-04-23T13:37:48.999Z</time></trkpt><trkpt lat="42.210306281377726" lon="14.067277451215942"><ele>910.5</ele><time>2026-04-23T13:37:49.999Z</time></trkpt><trkpt lat="42.21015413011117" lon="14.067520792034648"><ele>926.0</ele><time>2026-04-23T13:37:50.999Z</time></trkpt><trkpt lat="42.210007605303815" lon="14.067767207937214"><ele>926.0</ele><time>2026-04-23T13:37:51.999Z</time></trkpt><trkpt lat="42.20985671222025" lon="14.068014939733326"><ele>926.0</ele><time>2026-04-23T13:37:52.999Z</time></trkpt><trkpt lat="42.209700906368866" lon="14.06825694027249"><ele>925.5</ele><time>2026-04-23T13:37:53.999Z</time></trkpt><trkpt lat="42.20953958125794" lon="14.068490277392812"><ele>925.0</ele><time>2026-04-23T13:37:54.999Z</time></trkpt><trkpt lat="42.20937665251367" lon="14.068720061567099"><ele>925.0</ele><time>2026-04-23T13:37:55.999Z</time></trkpt><trkpt lat="42.20921007113911" lon="14.068949433898164"><ele>925.0</ele><time>2026-04-23T13:37:56.999Z</time></trkpt><trkpt lat="42.20904893642697" lon="14.069180555522491"><ele>924.5</ele><time>2026-04-23T13:37:57.999Z</time></trkpt><trkpt lat="42.20888747315044" lon="14.069412042079666"><ele>924.0</ele><time>2026-04-23T13:37:58.999Z</time></trkpt><trkpt lat="42.20872594685571" lon="14.06964939365729"><ele>924.0</ele><time>2026-04-23T13:37:59.999Z</time></trkpt><trkpt lat="42.20856755613788" lon="14.06988806493247"><ele>924.0</ele><time>2026-04-23T13:38:00.999Z</time></trkpt><trkpt lat="42.20840854132185" lon="14.07012550590785"><ele>926.5</ele><time>2026-04-23T13:38:01.999Z</time></trkpt><trkpt lat="42.208246561193945" lon="14.070362816710173"><ele>929.0</ele><time>2026-04-23T13:38:02.999Z</time></trkpt><trkpt lat="42.208082035512184" lon="14.070594995591737"><ele>943.5</ele><time>2026-04-23T13:38:03.999Z</time></trkpt><trkpt lat="42.20791561466893" lon="14.07082400011174"><ele>958.0</ele><time>2026-04-23T13:38:04.999Z</time></trkpt><trkpt lat="42.2077447146554" lon="14.071054338127704"><ele>958.0</ele><time>2026-04-23T13:38:05.999Z</time></trkpt><trkpt lat="42.20757442276131" lon="14.071285607283736"><ele>958.0</ele><time>2026-04-23T13:38:06.999Z</time></trkpt><trkpt lat="42.20740139450802" lon="14.071513021234423"><ele>959.5</ele><time>2026-04-23T13:38:07.999Z</time></trkpt><trkpt lat="42.20722862597243" lon="14.071740709816552"><ele>961.0</ele><time>2026-04-23T13:38:08.999Z</time></trkpt><trkpt lat="42.20707036227711" lon="14.071975300693433"><ele>961.0</ele><time>2026-04-23T13:38:09.999Z</time></trkpt><trkpt lat="42.20691924789076" lon="14.072225480013518"><ele>961.0</ele><time>2026-04-23T13:38:10.999Z</time></trkpt><trkpt lat="42.20676984926613" lon="14.072479663939749"><ele>960.0</ele><time>2026-04-23T13:38:11.999Z</time></trkpt><trkpt lat="42.20661528169885" lon="14.072717617465692"><ele>959.0</ele><time>2026-04-23T13:38:12.999Z</time></trkpt><trkpt lat="42.20644853207223" lon="14.072943663126338"><ele>959.0</ele><time>2026-04-23T13:38:13.999Z</time></trkpt><trkpt lat="42.20628815551462" lon="14.073165039996976"><ele>959.0</ele><time>2026-04-23T13:38:14.999Z</time></trkpt><trkpt lat="42.20612708488602" lon="14.073394295529324"><ele>973.0</ele><time>2026-04-23T13:38:15.999Z</time></trkpt><trkpt lat="42.20597016784203" lon="14.073626881177788"><ele>987.0</ele><time>2026-04-23T13:38:16.999Z</time></trkpt><trkpt lat="42.20582156419449" lon="14.073869852404934"><ele>988.0</ele><time>2026-04-23T13:38:17.999Z</time></trkpt><trkpt lat="42.20568152264932" lon="14.074120473133016"><ele>989.0</ele><time>2026-04-23T13:38:18.999Z</time></trkpt><trkpt lat="42.20553522840632" lon="14.074352862365224"><ele>989.0</ele><time>2026-04-23T13:38:19.999Z</time></trkpt><trkpt lat="42.20539306182831" lon="14.07455956968339"><ele>989.0</ele><time>2026-04-23T13:38:20.999Z</time></trkpt><trkpt lat="42.205272863505535" lon="14.07476826278331"><ele>989.0</ele><time>2026-04-23T13:38:21.999Z</time></trkpt><trkpt lat="42.20518923734916" lon="14.074994911806169"><ele>994.5</ele><time>2026-04-23T13:38:22.999Z</time></trkpt><trkpt lat="42.205139431958315" lon="14.075215248162467"><ele>1000.0</ele><time>2026-04-23T13:38:23.999Z</time></trkpt><trkpt lat="42.20509051399648" lon="14.075408697870914"><ele>1005.5</ele><time>2026-04-23T13:38:24.999Z</time></trkpt><trkpt lat="42.205010465438285" lon="14.07554184235666"><ele>1011.0</ele><time>2026-04-23T13:38:25.999Z</time></trkpt><trkpt lat="42.20489399973713" lon="14.075613238429284"><ele>1013.0</ele><time>2026-04-23T13:38:26.999Z</time></trkpt><trkpt lat="42.20475343352924" lon="14.075667211979452"><ele>1015.0</ele><time>2026-04-23T13:38:27.999Z</time></trkpt><trkpt lat="42.204604521261054" lon="14.075758682374572"><ele>1017.0</ele><time>2026-04-23T13:38:28.999Z</time></trkpt><trkpt lat="42.20446765002984" lon="14.075904858196223"><ele>1017.0</ele><time>2026-04-23T13:38:29.999Z</time></trkpt><trkpt lat="42.204332074922505" lon="14.076081425950127"><ele>1017.0</ele><time>2026-04-23T13:38:30.999Z</time></trkpt><trkpt lat="42.20421217073886" lon="14.076251163302167"><ele>1017.0</ele><time>2026-04-23T13:38:31.999Z</time></trkpt><trkpt lat="42.20409070411205" lon="14.076405170642973"><ele>1019.3333333333333</ele><time>2026-04-23T13:38:32.999Z</time></trkpt><trkpt lat="42.20396286410012" lon="14.076556143359525"><ele>1021.6666666666666</ele><time>2026-04-23T13:38:33.999Z</time></trkpt><trkpt lat="42.2038301636686" lon="14.076711101166833"><ele>1024.0</ele><time>2026-04-23T13:38:34.999Z</time></trkpt><trkpt lat="42.20368533291352" lon="14.076879152546129"><ele>1024.0</ele><time>2026-04-23T13:38:35.999Z</time></trkpt><trkpt lat="42.20355446451075" lon="14.07704886934314"><ele>1024.0</ele><time>2026-04-23T13:38:36.999Z</time></trkpt><trkpt lat="42.20341167387968" lon="14.07721951216928"><ele>1024.0</ele><time>2026-04-23T13:38:37.999Z</time></trkpt><trkpt lat="42.20325820770687" lon="14.077386983127633"><ele>1026.3333333333333</ele><time>2026-04-23T13:38:38.999Z</time></trkpt><trkpt lat="42.20310564690972" lon="14.077562897232216"><ele>1028.6666666666667</ele><time>2026-04-23T13:38:39.999Z</time></trkpt><trkpt lat="42.20296313667439" lon="14.077757266791497"><ele>1031.0</ele><time>2026-04-23T13:38:40.999Z</time></trkpt><trkpt lat="42.2028412740972" lon="14.077958434459171"><ele>1031.0</ele><time>2026-04-23T13:38:41.999Z</time></trkpt><trkpt lat="42.20273720611502" lon="14.078174817713569"><ele>1031.0</ele><time>2026-04-23T13:38:42.999Z</time></trkpt><trkpt lat="42.20263051288047" lon="14.07838488277017"><ele>1031.0</ele><time>2026-04-23T13:38:43.999Z</time></trkpt><trkpt lat="42.20252708708659" lon="14.078570297072506"><ele>1033.3333333333335</ele><time>2026-04-23T13:38:44.999Z</time></trkpt><trkpt lat="42.20240178743309" lon="14.0787211648233"><ele>1035.6666666666667</ele><time>2026-04-23T13:38:45.999Z</time></trkpt><trkpt lat="42.202266544150476" lon="14.078939948087523"><ele>1038.0</ele><time>2026-04-23T13:38:46.999Z</time></trkpt><trkpt lat="42.20210067861422" lon="14.079064220044085"><ele>1048.0</ele><time>2026-04-23T13:38:47.999Z</time></trkpt><trkpt lat="42.20192094583003" lon="14.07918144874101"><ele>1058.0</ele><time>2026-04-23T13:38:48.999Z</time></trkpt><trkpt lat="42.20174524917156" lon="14.079311011180335"><ele>1068.0</ele><time>2026-04-23T13:38:49.999Z</time></trkpt><trkpt lat="42.20157259978126" lon="14.079459647088289"><ele>1061.3333333333333</ele><time>2026-04-23T13:38:50.999Z</time></trkpt><trkpt lat="42.2014058397097" lon="14.079611325373556"><ele>1054.6666666666665</ele><time>2026-04-23T13:38:51.999Z</time></trkpt><trkpt lat="42.20123784885444" lon="14.079748217877958"><ele>1048.0</ele><time>2026-04-23T13:38:52.999Z</time></trkpt><trkpt lat="42.20105936957222" lon="14.079852101739458"><ele>1046.6666666666665</ele><time>2026-04-23T13:38:53.999Z</time></trkpt><trkpt lat="42.2008879833666" lon="14.079976976231652"><ele>1045.3333333333333</ele><time>2026-04-23T13:38:54.999Z</time></trkpt><trkpt lat="42.2007483780509" lon="14.080153908140575"><ele>1044.0</ele><time>2026-04-23T13:38:55.999Z</time></trkpt><trkpt lat="42.20064669732485" lon="14.080332617884908"><ele>1044.0</ele><time>2026-04-23T13:38:56.999Z</time></trkpt><trkpt lat="42.20056597145627" lon="14.080498068463774"><ele>1044.0</ele><time>2026-04-23T13:38:57.999Z</time></trkpt><trkpt lat="42.200509191395376" lon="14.080672782505095"><ele>1044.0</ele><time>2026-04-23T13:38:58.999Z</time></trkpt><trkpt lat="42.20050255495792" lon="14.080859623296496"><ele>1044.0</ele><time>2026-04-23T13:38:59.999Z</time></trkpt><trkpt lat="42.200527894443745" lon="14.081058683256273"><ele>1050.0</ele><time>2026-04-23T13:39:00.999Z</time></trkpt><trkpt lat="42.20054894926258" lon="14.081273675723422"><ele>1056.0</ele><time>2026-04-23T13:39:01.999Z</time></trkpt><trkpt lat="42.20052320806949" lon="14.081474574350976"><ele>1062.0</ele><time>2026-04-23T13:39:02.999Z</time></trkpt><trkpt lat="42.200448289980365" lon="14.081667217982414"><ele>1067.0</ele><time>2026-04-23T13:39:03.999Z</time></trkpt><trkpt lat="42.20035415948597" lon="14.081873126705663"><ele>1072.0</ele><time>2026-04-23T13:39:04.999Z</time></trkpt><trkpt lat="42.200267198228296" lon="14.082070882752648"><ele>1077.0</ele><time>2026-04-23T13:39:05.999Z</time></trkpt><trkpt lat="42.20019149972953" lon="14.082246903891964"><ele>1077.0</ele><time>2026-04-23T13:39:06.999Z</time></trkpt><trkpt lat="42.20010559185629" lon="14.082389011171117"><ele>1077.0</ele><time>2026-04-23T13:39:07.999Z</time></trkpt><trkpt lat="42.19998389623951" lon="14.082487599575188"><ele>1077.0</ele><time>2026-04-23T13:39:08.999Z</time></trkpt><trkpt lat="42.19980966086003" lon="14.08253310529784"><ele>1084.0</ele><time>2026-04-23T13:39:09.999Z</time></trkpt><trkpt lat="42.19965580344681" lon="14.0825885537931"><ele>1091.0</ele><time>2026-04-23T13:39:10.999Z</time></trkpt><trkpt lat="42.199497520298806" lon="14.082654198580983"><ele>1098.0</ele><time>2026-04-23T13:39:11.999Z</time></trkpt><trkpt lat="42.19934653089145" lon="14.0827378259566"><ele>1098.0</ele><time>2026-04-23T13:39:12.999Z</time></trkpt><trkpt lat="42.19918785817821" lon="14.082833771567861"><ele>1098.0</ele><time>2026-04-23T13:39:13.999Z</time></trkpt><trkpt lat="42.19903277605467" lon="14.082939934855355"><ele>1098.0</ele><time>2026-04-23T13:39:14.999Z</time></trkpt><trkpt lat="42.198881828822024" lon="14.083040449422542"><ele>1099.3333333333333</ele><time>2026-04-23T13:39:15.999Z</time></trkpt><trkpt lat="42.198721990319015" lon="14.083131894751165"><ele>1100.6666666666665</ele><time>2026-04-23T13:39:16.999Z</time></trkpt><trkpt lat="42.19855673955915" lon="14.08320310150631"><ele>1102.0</ele><time>2026-04-23T13:39:17.999Z</time></trkpt><trkpt lat="42.19839703813356" lon="14.083262059724353"><ele>1107.0</ele><time>2026-04-23T13:39:18.999Z</time></trkpt><trkpt lat="42.198239713061156" lon="14.083331238364437"><ele>1112.0</ele><time>2026-04-23T13:39:19.999Z</time></trkpt><trkpt lat="42.19808856452706" lon="14.083420702532113"><ele>1117.0</ele><time>2026-04-23T13:39:20.999Z</time></trkpt><trkpt lat="42.197939964664826" lon="14.083538052412882"><ele>1117.0</ele><time>2026-04-23T13:39:21.999Z</time></trkpt><trkpt lat="42.19780041993446" lon="14.08368848355773"><ele>1117.0</ele><time>2026-04-23T13:39:22.999Z</time></trkpt><trkpt lat="42.19766228184306" lon="14.083861704597105"><ele>1117.0</ele><time>2026-04-23T13:39:23.999Z</time></trkpt><trkpt lat="42.197521214401476" lon="14.08401933798958"><ele>1113.6666666666665</ele><time>2026-04-23T13:39:24.999Z</time></trkpt><trkpt lat="42.19738069253248" lon="14.084169212251568"><ele>1110.3333333333333</ele><time>2026-04-23T13:39:25.999Z</time></trkpt><trkpt lat="42.19724746060793" lon="14.084323901374054"><ele>1107.0</ele><time>2026-04-23T13:39:26.999Z</time></trkpt><trkpt lat="42.1971210987331" lon="14.084514066977764"><ele>1107.0</ele><time>2026-04-23T13:39:27.999Z</time></trkpt><trkpt lat="42.197014149389645" lon="14.084731487755825"><ele>1107.0</ele><time>2026-04-23T13:39:28.999Z</time></trkpt><trkpt lat="42.19690002649003" lon="14.08495678285321"><ele>1107.0</ele><time>2026-04-23T13:39:29.999Z</time></trkpt><trkpt lat="42.19678096771072" lon="14.085176045165435"><ele>1113.6666666666667</ele><time>2026-04-23T13:39:30.999Z</time></trkpt><trkpt lat="42.196654090763616" lon="14.08538219654564"><ele>1120.3333333333335</ele><time>2026-04-23T13:39:31.999Z</time></trkpt><trkpt lat="42.19652525196185" lon="14.085589327353858"><ele>1127.0</ele><time>2026-04-23T13:39:32.999Z</time></trkpt><trkpt lat="42.196392332388086" lon="14.085798445869418"><ele>1130.3333333333335</ele><time>2026-04-23T13:39:33.999Z</time></trkpt><trkpt lat="42.19626739394357" lon="14.086006389178262"><ele>1133.6666666666667</ele><time>2026-04-23T13:39:34.999Z</time></trkpt><trkpt lat="42.196152367742165" lon="14.08622367578873"><ele>1137.0</ele><time>2026-04-23T13:39:35.999Z</time></trkpt><trkpt lat="42.196055752288444" lon="14.086459615695029"><ele>1140.6666666666667</ele><time>2026-04-23T13:39:36.999Z</time></trkpt><trkpt lat="42.1959699890882" lon="14.086709737552816"><ele>1144.3333333333335</ele><time>2026-04-23T13:39:37.999Z</time></trkpt><trkpt lat="42.19587510826747" lon="14.086957485295422"><ele>1148.0</ele><time>2026-04-23T13:39:38.999Z</time></trkpt><trkpt lat="42.1957720707067" lon="14.087198152125493"><ele>1150.6666666666667</ele><time>2026-04-23T13:39:39.999Z</time></trkpt><trkpt lat="42.195650563899754" lon="14.087420121791922"><ele>1153.3333333333333</ele><time>2026-04-23T13:39:40.999Z</time></trkpt><trkpt lat="42.19553163040942" lon="14.0876394844946"><ele>1156.0</ele><time>2026-04-23T13:39:41.999Z</time></trkpt><trkpt lat="42.195430589748064" lon="14.087868123958"><ele>1156.0</ele><time>2026-04-23T13:39:43Z</time></trkpt><trkpt lat="42.195337367266674" lon="14.088101866767623"><ele>1156.0</ele><time>2026-04-23T13:39:44Z</time></trkpt><trkpt lat="42.19521692837303" lon="14.088314983333568"><ele>1156.0</ele><time>2026-04-23T13:39:45Z</time></trkpt><trkpt lat="42.195081149094854" lon="14.088500170904261"><ele>1158.6666666666665</ele><time>2026-04-23T13:39:46Z</time></trkpt><trkpt lat="42.194929157355034" lon="14.088656740788345"><ele>1161.3333333333333</ele><time>2026-04-23T13:39:47Z</time></trkpt><trkpt lat="42.19475931868033" lon="14.088801282083114"><ele>1164.0</ele><time>2026-04-23T13:39:48Z</time></trkpt><trkpt lat="42.19459097121647" lon="14.088928504961858"><ele>1165.0</ele><time>2026-04-23T13:39:49Z</time></trkpt><trkpt lat="42.19442173379188" lon="14.089046254730894"><ele>1166.0</ele><time>2026-04-23T13:39:50Z</time></trkpt><trkpt lat="42.19424563966914" lon="14.089151809749545"><ele>1167.0</ele><time>2026-04-23T13:39:51Z</time></trkpt><trkpt lat="42.194079383405565" lon="14.08924871084421"><ele>1172.0</ele><time>2026-04-23T13:39:52Z</time></trkpt><trkpt lat="42.19392704563758" lon="14.089321918497037"><ele>1177.0</ele><time>2026-04-23T13:39:53Z</time></trkpt><trkpt lat="42.19379716110358" lon="14.089384291676843"><ele>1182.0</ele><time>2026-04-23T13:39:54Z</time></trkpt><trkpt lat="42.19367487177492" lon="14.089414431386833"><ele>1187.0</ele><time>2026-04-23T13:39:55Z</time></trkpt><trkpt lat="42.19356499211886" lon="14.089410067473679"><ele>1187.0</ele><time>2026-04-23T13:39:56Z</time></trkpt><trkpt lat="42.19348437287434" lon="14.08937776634451"><ele>1187.0</ele><time>2026-04-23T13:39:57Z</time></trkpt><trkpt lat="42.19340596939078" lon="14.089451206707476"><ele>1187.0</ele><time>2026-04-23T13:39:59Z</time></trkpt><trkpt lat="42.193410036667224" lon="14.089538322388778"><ele>1187.0</ele><time>2026-04-23T13:40:00Z</time></trkpt><trkpt lat="42.193446962486554" lon="14.08962503693457"><ele>1187.0</ele><time>2026-04-23T13:40:01Z</time></trkpt><trkpt lat="42.19352028893559" lon="14.089675063805254"><ele>1187.0</ele><time>2026-04-23T13:40:02Z</time></trkpt><trkpt lat="42.19361735298316" lon="14.08967724487898"><ele>1187.0</ele><time>2026-04-23T13:40:03Z</time></trkpt><trkpt lat="42.19373662884527" lon="14.089640857199418"><ele>1187.0</ele><time>2026-04-23T13:40:04Z</time></trkpt><trkpt lat="42.19386637403564" lon="14.08958305613851"><ele>1187.0</ele><time>2026-04-23T13:40:05Z</time></trkpt><trkpt lat="42.19401144236934" lon="14.089527317603709"><ele>1187.0</ele><time>2026-04-23T13:40:06Z</time></trkpt><trkpt lat="42.194136483366094" lon="14.089511169329077"><ele>1184.3333333333335</ele><time>2026-04-23T13:40:07Z</time></trkpt><trkpt lat="42.19428550068434" lon="14.089497876293297"><ele>1181.6666666666667</ele><time>2026-04-23T13:40:08Z</time></trkpt><trkpt lat="42.19444261858654" lon="14.089480054862596"><ele>1179.0</ele><time>2026-04-23T13:40:09Z</time></trkpt><trkpt lat="42.194603826987525" lon="14.08946139180288"><ele>1179.0</ele><time>2026-04-23T13:40:10Z</time></trkpt><trkpt lat="42.19476144332524" lon="14.089462627910631"><ele>1179.0</ele><time>2026-04-23T13:40:11Z</time></trkpt><trkpt lat="42.1949068686843" lon="14.089474342315047"><ele>1179.0</ele><time>2026-04-23T13:40:12Z</time></trkpt><trkpt lat="42.19503849645132" lon="14.089479826414804"><ele>1179.0</ele><time>2026-04-23T13:40:13Z</time></trkpt><trkpt lat="42.19516119327477" lon="14.089461432284489"><ele>1180.3333333333333</ele><time>2026-04-23T13:40:13.999Z</time></trkpt><trkpt lat="42.19525727287163" lon="14.089397531039378"><ele>1181.6666666666667</ele><time>2026-04-23T13:40:14.999Z</time></trkpt><trkpt lat="42.19533327922149" lon="14.08936260434512"><ele>1183.0</ele><time>2026-04-23T13:40:15.999Z</time></trkpt><trkpt lat="42.195418141974315" lon="14.089466732425455"><ele>1184.3333333333335</ele><time>2026-04-23T13:40:17.999Z</time></trkpt><trkpt lat="42.19541273678477" lon="14.089561801952152"><ele>1185.6666666666667</ele><time>2026-04-23T13:40:18.999Z</time></trkpt><trkpt lat="42.19536391300904" lon="14.089638853919487"><ele>1187.0</ele><time>2026-04-23T13:40:19.999Z</time></trkpt><trkpt lat="42.19528518038042" lon="14.08968170002353"><ele>1187.0</ele><time>2026-04-23T13:40:20.999Z</time></trkpt><trkpt lat="42.19516473990754" lon="14.08971330958491"><ele>1187.0</ele><time>2026-04-23T13:40:21.999Z</time></trkpt><trkpt lat="42.19505026664645" lon="14.089700052286442"><ele>1187.0</ele><time>2026-04-23T13:40:22.999Z</time></trkpt><trkpt lat="42.19492700792866" lon="14.089718717018838"><ele>1187.0</ele><time>2026-04-23T13:40:23.999Z</time></trkpt><trkpt lat="42.19479708982229" lon="14.089777627504981"><ele>1184.3333333333335</ele><time>2026-04-23T13:40:24.999Z</time></trkpt><trkpt lat="42.19464695418436" lon="14.089853029180288"><ele>1181.6666666666667</ele><time>2026-04-23T13:40:25.999Z</time></trkpt><trkpt lat="42.194489653767306" lon="14.089944826264256"><ele>1179.0</ele><time>2026-04-23T13:40:26.999Z</time></trkpt><trkpt lat="42.19433987199152" lon="14.09004348151207"><ele>1188.6666666666667</ele><time>2026-04-23T13:40:27.999Z</time></trkpt><trkpt lat="42.194178364824026" lon="14.090146592198531"><ele>1198.3333333333335</ele><time>2026-04-23T13:40:29Z</time></trkpt><trkpt lat="42.194014511904" lon="14.090246347654707"><ele>1208.0</ele><time>2026-04-23T13:40:30Z</time></trkpt><trkpt lat="42.19384108523592" lon="14.0903407782566"><ele>1208.0</ele><time>2026-04-23T13:40:31Z</time></trkpt><trkpt lat="42.193654718889334" lon="14.09040982797764"><ele>1208.0</ele><time>2026-04-23T13:40:32Z</time></trkpt><trkpt lat="42.193470496634575" lon="14.090458207455278"><ele>1208.0</ele><time>2026-04-23T13:40:33Z</time></trkpt><trkpt lat="42.19327381785378" lon="14.090503685043082"><ele>1206.3333333333335</ele><time>2026-04-23T13:40:34Z</time></trkpt><trkpt lat="42.19308480911344" lon="14.090565668041306"><ele>1204.6666666666667</ele><time>2026-04-23T13:40:35Z</time></trkpt><trkpt lat="42.192896670581355" lon="14.0906597588423"><ele>1203.0</ele><time>2026-04-23T13:40:36Z</time></trkpt><trkpt lat="42.192710924403066" lon="14.090769834708988"><ele>1208.3333333333333</ele><time>2026-04-23T13:40:37Z</time></trkpt><trkpt lat="42.192533695328585" lon="14.090891986902953"><ele>1213.6666666666665</ele><time>2026-04-23T13:40:38Z</time></trkpt><trkpt lat="42.192360467143516" lon="14.091021405570391"><ele>1219.0</ele><time>2026-04-23T13:40:39Z</time></trkpt><trkpt lat="42.192206315631765" lon="14.09116690057087"><ele>1219.0</ele><time>2026-04-23T13:40:40Z</time></trkpt><trkpt lat="42.192064808336234" lon="14.091320882619488"><ele>1219.0</ele><time>2026-04-23T13:40:41Z</time></trkpt><trkpt lat="42.1919429619392" lon="14.091492610105862"><ele>1219.0</ele><time>2026-04-23T13:40:42Z</time></trkpt><trkpt lat="42.19184535325669" lon="14.091676886939116"><ele>1225.3333333333333</ele><time>2026-04-23T13:40:43Z</time></trkpt><trkpt lat="42.191764237463346" lon="14.09185720184672"><ele>1231.6666666666667</ele><time>2026-04-23T13:40:44Z</time></trkpt><trkpt lat="42.191695384495915" lon="14.092052426211447"><ele>1238.0</ele><time>2026-04-23T13:40:45Z</time></trkpt><trkpt lat="42.191648663195664" lon="14.0922601139631"><ele>1243.6666666666667</ele><time>2026-04-23T13:40:46Z</time></trkpt><trkpt lat="42.191607693967086" lon="14.092479052276783"><ele>1249.3333333333333</ele><time>2026-04-23T13:40:47Z</time></trkpt><trkpt lat="42.191565094468785" lon="14.092696754668106"><ele>1255.0</ele><time>2026-04-23T13:40:48Z</time></trkpt><trkpt lat="42.19152875955497" lon="14.092931314974983"><ele>1255.3333333333333</ele><time>2026-04-23T13:40:49Z</time></trkpt><trkpt lat="42.19150448785995" lon="14.093167933912838"><ele>1255.6666666666667</ele><time>2026-04-23T13:40:50Z</time></trkpt><trkpt lat="42.19149357544471" lon="14.093417790809745"><ele>1256.0</ele><time>2026-04-23T13:40:51Z</time></trkpt><trkpt lat="42.19148844624641" lon="14.093668371764933"><ele>1260.6666666666667</ele><time>2026-04-23T13:40:52Z</time></trkpt><trkpt lat="42.19147445244648" lon="14.093915448721459"><ele>1265.3333333333333</ele><time>2026-04-23T13:40:53Z</time></trkpt><trkpt lat="42.191450863095994" lon="14.094151500660466"><ele>1270.0</ele><time>2026-04-23T13:40:54Z</time></trkpt><trkpt lat="42.19140869767741" lon="14.094383191126008"><ele>1273.3333333333333</ele><time>2026-04-23T13:40:55Z</time></trkpt><trkpt lat="42.191351020281694" lon="14.094617825338595"><ele>1276.6666666666667</ele><time>2026-04-23T13:40:56Z</time></trkpt><trkpt lat="42.191281215932904" lon="14.094850743368363"><ele>1280.0</ele><time>2026-04-23T13:40:57Z</time></trkpt><trkpt lat="42.191221257323186" lon="14.095094982245644"><ele>1282.3333333333335</ele><time>2026-04-23T13:40:58Z</time></trkpt><trkpt lat="42.19117523135938" lon="14.095338139355379"><ele>1284.6666666666667</ele><time>2026-04-23T13:40:59Z</time></trkpt><trkpt lat="42.19113453464019" lon="14.095590782755279"><ele>1287.0</ele><time>2026-04-23T13:41:00Z</time></trkpt><trkpt lat="42.19109011154562" lon="14.095846243474728"><ele>1288.0</ele><time>2026-04-23T13:41:01Z</time></trkpt><trkpt lat="42.191040990546945" lon="14.096102777206633"><ele>1289.0</ele><time>2026-04-23T13:41:02Z</time></trkpt><trkpt lat="42.190985863159156" lon="14.096361857355657"><ele>1290.0</ele><time>2026-04-23T13:41:03Z</time></trkpt><trkpt lat="42.190933575205555" lon="14.096594846217751"><ele>1291.0</ele><time>2026-04-23T13:41:04Z</time></trkpt><trkpt lat="42.19088012075136" lon="14.0968063965761"><ele>1292.0</ele><time>2026-04-23T13:41:05Z</time></trkpt><trkpt lat="42.19081794697187" lon="14.097006681347056"><ele>1293.0</ele><time>2026-04-23T13:41:06Z</time></trkpt><trkpt lat="42.19074487731681" lon="14.097199435377988"><ele>1297.6666666666667</ele><time>2026-04-23T13:41:07Z</time></trkpt><trkpt lat="42.19067156618609" lon="14.097394578363682"><ele>1302.3333333333335</ele><time>2026-04-23T13:41:08Z</time></trkpt><trkpt lat="42.19059470157511" lon="14.097598494718056"><ele>1307.0</ele><time>2026-04-23T13:41:09Z</time></trkpt><trkpt lat="42.19051633740227" lon="14.097807633257913"><ele>1307.0</ele><time>2026-04-23T13:41:10Z</time></trkpt><trkpt lat="42.19044368304695" lon="14.098021894342121"><ele>1307.0</ele><time>2026-04-23T13:41:11Z</time></trkpt><trkpt lat="42.19036326281954" lon="14.098240522431217"><ele>1307.0</ele><time>2026-04-23T13:41:12Z</time></trkpt><trkpt lat="42.19029031718992" lon="14.098458328516381"><ele>1306.3333333333335</ele><time>2026-04-23T13:41:13Z</time></trkpt><trkpt lat="42.190219700728385" lon="14.098687461443097"><ele>1305.6666666666667</ele><time>2026-04-23T13:41:14Z</time></trkpt><trkpt lat="42.19015291614323" lon="14.098917833701183"><ele>1305.0</ele><time>2026-04-23T13:41:15Z</time></trkpt><trkpt lat="42.190097032964886" lon="14.099146682303717"><ele>1305.0</ele><time>2026-04-23T13:41:16Z</time></trkpt><trkpt lat="42.19004432254153" lon="14.099381604006792"><ele>1305.0</ele><time>2026-04-23T13:41:17Z</time></trkpt><trkpt lat="42.189993137546175" lon="14.09961894229414"><ele>1305.0</ele><time>2026-04-23T13:41:18Z</time></trkpt><trkpt lat="42.189958872864324" lon="14.0998607661537"><ele>1306.6666666666667</ele><time>2026-04-23T13:41:19Z</time></trkpt><trkpt lat="42.189948337939704" lon="14.10009599381066"><ele>1308.3333333333335</ele><time>2026-04-23T13:41:20Z</time></trkpt><trkpt lat="42.18993159613315" lon="14.100327879242089"><ele>1310.0</ele><time>2026-04-23T13:41:21Z</time></trkpt><trkpt lat="42.18990261632851" lon="14.100547423411994"><ele>1310.0</ele><time>2026-04-23T13:41:22Z</time></trkpt><trkpt lat="42.189878676895475" lon="14.10074910504903"><ele>1310.0</ele><time>2026-04-23T13:41:23Z</time></trkpt><trkpt lat="42.18984606342755" lon="14.100953809920272"><ele>1310.0</ele><time>2026-04-23T13:41:24Z</time></trkpt><trkpt lat="42.18981660155774" lon="14.101154143208419"><ele>1310.3333333333335</ele><time>2026-04-23T13:41:25Z</time></trkpt><trkpt lat="42.1897853120226" lon="14.101357212060767"><ele>1310.6666666666667</ele><time>2026-04-23T13:41:26Z</time></trkpt><trkpt lat="42.189754642570705" lon="14.101558732017079"><ele>1311.0</ele><time>2026-04-23T13:41:27Z</time></trkpt><trkpt lat="42.189720522435195" lon="14.101762599117045"><ele>1311.0</ele><time>2026-04-23T13:41:28Z</time></trkpt><trkpt lat="42.18968886580784" lon="14.101963575349227"><ele>1311.0</ele><time>2026-04-23T13:41:29Z</time></trkpt><trkpt lat="42.18965869544117" lon="14.102164911246813"><ele>1311.0</ele><time>2026-04-23T13:41:30Z</time></trkpt><trkpt lat="42.18962750087846" lon="14.10236049573146"><ele>1311.0</ele><time>2026-04-23T13:41:31Z</time></trkpt><trkpt lat="42.18959664508765" lon="14.102548218465405"><ele>1311.0</ele><time>2026-04-23T13:41:32Z</time></trkpt><trkpt lat="42.18956853106827" lon="14.102736395217095"><ele>1311.0</ele><time>2026-04-23T13:41:33Z</time></trkpt><trkpt lat="42.18954326954325" lon="14.102921080926526"><ele>1311.0</ele><time>2026-04-23T13:41:34Z</time></trkpt><trkpt lat="42.18951803667863" lon="14.103101354918028"><ele>1311.25</ele><time>2026-04-23T13:41:35Z</time></trkpt><trkpt lat="42.18949124175403" lon="14.103267663338965"><ele>1311.5</ele><time>2026-04-23T13:41:36Z</time></trkpt><trkpt lat="42.18946338587283" lon="14.103431649190554"><ele>1311.75</ele><time>2026-04-23T13:41:37Z</time></trkpt><trkpt lat="42.189428831538144" lon="14.103593000227272"><ele>1312.0</ele><time>2026-04-23T13:41:38Z</time></trkpt><trkpt lat="42.189377453368444" lon="14.103741380732517"><ele>1312.0</ele><time>2026-04-23T13:41:39Z</time></trkpt><trkpt lat="42.1893148220487" lon="14.103878246031526"><ele>1312.0</ele><time>2026-04-23T13:41:40Z</time></trkpt><trkpt lat="42.18923857795858" lon="14.103994210659184"><ele>1312.0</ele><time>2026-04-23T13:41:41Z</time></trkpt><trkpt lat="42.18916247819203" lon="14.104105534743201"><ele>1312.0</ele><time>2026-04-23T13:41:42Z</time></trkpt><trkpt lat="42.18909500911591" lon="14.104223819975754"><ele>1312.25</ele><time>2026-04-23T13:41:43Z</time></trkpt><trkpt lat="42.18903166967071" lon="14.10435086746676"><ele>1312.5</ele><time>2026-04-23T13:41:44Z</time></trkpt><trkpt lat="42.18897420312434" lon="14.104492571999945"><ele>1312.75</ele><time>2026-04-23T13:41:45Z</time></trkpt><trkpt lat="42.18893309764487" lon="14.104648048612045"><ele>1313.0</ele><time>2026-04-23T13:41:46Z</time></trkpt><trkpt lat="42.188913585070594" lon="14.104814249076725"><ele>1315.0</ele><time>2026-04-23T13:41:47Z</time></trkpt><trkpt lat="42.18889400596227" lon="14.104975219900854"><ele>1317.0</ele><time>2026-04-23T13:41:48Z</time></trkpt><trkpt lat="42.188868934042944" lon="14.10514270242782"><ele>1319.0</ele><time>2026-04-23T13:41:49Z</time></trkpt><trkpt lat="42.18883926742011" lon="14.105315303589844"><ele>1321.0</ele><time>2026-04-23T13:41:50Z</time></trkpt><trkpt lat="42.18881014240156" lon="14.105493822982208"><ele>1321.0</ele><time>2026-04-23T13:41:51Z</time></trkpt><trkpt lat="42.188781503124275" lon="14.105673448202118"><ele>1321.0</ele><time>2026-04-23T13:41:52Z</time></trkpt><trkpt lat="42.18875320083656" lon="14.105858074529124"><ele>1321.0</ele><time>2026-04-23T13:41:53Z</time></trkpt><trkpt lat="42.1887240640974" lon="14.106049706108035"><ele>1321.0</ele><time>2026-04-23T13:41:54Z</time></trkpt><trkpt lat="42.18869386493449" lon="14.106247798473845"><ele>1319.0</ele><time>2026-04-23T13:41:55Z</time></trkpt><trkpt lat="42.18866069805345" lon="14.106448514549417"><ele>1317.0</ele><time>2026-04-23T13:41:56Z</time></trkpt><trkpt lat="42.18862604413226" lon="14.106658731522968"><ele>1315.0</ele><time>2026-04-23T13:41:57Z</time></trkpt><trkpt lat="42.18859226260664" lon="14.106875822950448"><ele>1312.6666666666665</ele><time>2026-04-23T13:41:58Z</time></trkpt><trkpt lat="42.18855614565044" lon="14.107097318764563"><ele>1310.3333333333333</ele><time>2026-04-23T13:41:59Z</time></trkpt><trkpt lat="42.188515242001785" lon="14.107323412126796"><ele>1308.0</ele><time>2026-04-23T13:42:00Z</time></trkpt><trkpt lat="42.18847104724819" lon="14.1075476984702"><ele>1306.6666666666667</ele><time>2026-04-23T13:42:01Z</time></trkpt><trkpt lat="42.18842835496582" lon="14.107764898797035"><ele>1305.3333333333335</ele><time>2026-04-23T13:42:02Z</time></trkpt><trkpt lat="42.188386371363826" lon="14.107968919034922"><ele>1304.0</ele><time>2026-04-23T13:42:03Z</time></trkpt><trkpt lat="42.188346312732655" lon="14.1081652999988"><ele>1304.0</ele><time>2026-04-23T13:42:04Z</time></trkpt><trkpt lat="42.188320055803885" lon="14.108366707060242"><ele>1304.0</ele><time>2026-04-23T13:42:05Z</time></trkpt><trkpt lat="42.188309851582154" lon="14.108583238853365"><ele>1304.0</ele><time>2026-04-23T13:42:06Z</time></trkpt><trkpt lat="42.188318106006115" lon="14.108799027636984"><ele>1304.0</ele><time>2026-04-23T13:42:07Z</time></trkpt><trkpt lat="42.188341798263664" lon="14.108993096533588"><ele>1304.0</ele><time>2026-04-23T13:42:08Z</time></trkpt><trkpt lat="42.188387781588546" lon="14.109170557410554"><ele>1304.0</ele><time>2026-04-23T13:42:09Z</time></trkpt><trkpt lat="42.188459265496135" lon="14.109319015934878"><ele>1304.0</ele><time>2026-04-23T13:42:10Z</time></trkpt><trkpt lat="42.18853584792349" lon="14.10945546996862"><ele>1302.25</ele><time>2026-04-23T13:42:11Z</time></trkpt><trkpt lat="42.18860249401766" lon="14.109613728535761"><ele>1300.5</ele><time>2026-04-23T13:42:12Z</time></trkpt><trkpt lat="42.18865831504161" lon="14.109784125845446"><ele>1298.75</ele><time>2026-04-23T13:42:13Z</time></trkpt><trkpt lat="42.18870006933404" lon="14.109969386641058"><ele>1297.0</ele><time>2026-04-23T13:42:14Z</time></trkpt><trkpt lat="42.18873006291866" lon="14.110163737710383"><ele>1293.3333333333333</ele><time>2026-04-23T13:42:15Z</time></trkpt><trkpt lat="42.188757422441284" lon="14.110372122129993"><ele>1289.6666666666667</ele><time>2026-04-23T13:42:16Z</time></trkpt><trkpt lat="42.18879317902986" lon="14.110588570669115"><ele>1286.0</ele><time>2026-04-23T13:42:17Z</time></trkpt><trkpt lat="42.18884725028621" lon="14.11080745375093"><ele>1282.0</ele><time>2026-04-23T13:42:18Z</time></trkpt><trkpt lat="42.18889956416155" lon="14.111025198886122"><ele>1278.0</ele><time>2026-04-23T13:42:19Z</time></trkpt><trkpt lat="42.18894435800656" lon="14.111237521940323"><ele>1274.0</ele><time>2026-04-23T13:42:20Z</time></trkpt><trkpt lat="42.18898714787027" lon="14.11144190585203"><ele>1275.0</ele><time>2026-04-23T13:42:21Z</time></trkpt><trkpt lat="42.18903635181242" lon="14.11163780943193"><ele>1276.0</ele><time>2026-04-23T13:42:22Z</time></trkpt><trkpt lat="42.18909308525562" lon="14.111808379537544"><ele>1277.0</ele><time>2026-04-23T13:42:23Z</time></trkpt><trkpt lat="42.18914918435402" lon="14.111928619885969"><ele>1278.0</ele><time>2026-04-23T13:42:24Z</time></trkpt><trkpt lat="42.189216428290976" lon="14.111985504559081"><ele>1278.0</ele><time>2026-04-23T13:42:25Z</time></trkpt><trkpt lat="42.18929394309389" lon="14.111994624744291"><ele>1278.0</ele><time>2026-04-23T13:42:26Z</time></trkpt><trkpt lat="42.18937568046816" lon="14.111950358501886"><ele>1278.0</ele><time>2026-04-23T13:42:27Z</time></trkpt><trkpt lat="42.18946167070772" lon="14.111860376009558"><ele>1278.0</ele><time>2026-04-23T13:42:28Z</time></trkpt><trkpt lat="42.18955866941979" lon="14.111766792823042"><ele>1278.0</ele><time>2026-04-23T13:42:29Z</time></trkpt><trkpt lat="42.18966868386924" lon="14.111701984369356"><ele>1278.0</ele><time>2026-04-23T13:42:30Z</time></trkpt><trkpt lat="42.189799815590625" lon="14.111644220982683"><ele>1278.0</ele><time>2026-04-23T13:42:31Z</time></trkpt><trkpt lat="42.18994574672603" lon="14.11160696951801"><ele>1278.0</ele><time>2026-04-23T13:42:32Z</time></trkpt><trkpt lat="42.19009278020285" lon="14.111576098565019"><ele>1278.0</ele><time>2026-04-23T13:42:33Z</time></trkpt><trkpt lat="42.190246617621185" lon="14.11153958577688"><ele>1281.3333333333333</ele><time>2026-04-23T13:42:34Z</time></trkpt><trkpt lat="42.19040672550218" lon="14.111487459013086"><ele>1284.6666666666665</ele><time>2026-04-23T13:42:35Z</time></trkpt><trkpt lat="42.1905716676498" lon="14.111423909468103"><ele>1288.0</ele><time>2026-04-23T13:42:36Z</time></trkpt><trkpt lat="42.19072966803496" lon="14.111342475400305"><ele>1288.0</ele><time>2026-04-23T13:42:37Z</time></trkpt><trkpt lat="42.19088108169772" lon="14.111258728139696"><ele>1288.0</ele><time>2026-04-23T13:42:38Z</time></trkpt><trkpt lat="42.19102672656452" lon="14.11118085998562"><ele>1288.0</ele><time>2026-04-23T13:42:39Z</time></trkpt><trkpt lat="42.191141951821294" lon="14.111122947305462"><ele>1288.0</ele><time>2026-04-23T13:42:40Z</time></trkpt><trkpt lat="42.19122293901836" lon="14.111080513505717"><ele>1288.0</ele><time>2026-04-23T13:42:41Z</time></trkpt><trkpt lat="42.19129276645587" lon="14.111043050800232"><ele>1288.0</ele><time>2026-04-23T13:42:43Z</time></trkpt><trkpt lat="42.191371419286824" lon="14.11100276421162"><ele>1288.0</ele><time>2026-04-23T13:42:46Z</time></trkpt><trkpt lat="42.19143859176642" lon="14.110964479709612"><ele>1288.0</ele><time>2026-04-23T13:42:48Z</time></trkpt><trkpt lat="42.1915220545146" lon="14.110913456835654"><ele>1288.0</ele><time>2026-04-23T13:42:51Z</time></trkpt><trkpt lat="42.191590089836765" lon="14.110875293858378"><ele>1288.0</ele><time>2026-04-23T13:42:53Z</time></trkpt><trkpt lat="42.19166109965429" lon="14.110828994053358"><ele>1289.5</ele><time>2026-04-23T13:42:55Z</time></trkpt><trkpt lat="42.1917206768577" lon="14.110788047618577"><ele>1291.0</ele><time>2026-04-23T13:42:57Z</time></trkpt><trkpt lat="42.19178606939895" lon="14.110734439421838"><ele>1292.5</ele><time>2026-04-23T13:43:00Z</time></trkpt><trkpt lat="42.19184460309442" lon="14.11066992572469"><ele>1294.0</ele><time>2026-04-23T13:43:05Z</time></trkpt><trkpt lat="42.19191564788174" lon="14.110595912207515"><ele>1295.5</ele><time>2026-04-23T13:43:13Z</time></trkpt><trkpt lat="42.19201221633603" lon="14.110507804328858"><ele>1297.0</ele><time>2026-04-23T13:43:15Z</time></trkpt><trkpt lat="42.192078505438204" lon="14.11045742170054"><ele>1297.0</ele><time>2026-04-23T13:43:16Z</time></trkpt><trkpt lat="42.19215815076108" lon="14.11039230052313"><ele>1297.0</ele><time>2026-04-23T13:43:17Z</time></trkpt><trkpt lat="42.19225352323363" lon="14.110317772372825"><ele>1297.0</ele><time>2026-04-23T13:43:18Z</time></trkpt><trkpt lat="42.192362654470124" lon="14.110237539852358"><ele>1297.0</ele><time>2026-04-23T13:43:19Z</time></trkpt><trkpt lat="42.192481041330474" lon="14.11017382531236"><ele>1296.75</ele><time>2026-04-23T13:43:20Z</time></trkpt><trkpt lat="42.192597871035396" lon="14.110127340903302"><ele>1296.5</ele><time>2026-04-23T13:43:21Z</time></trkpt><trkpt lat="42.192716018898075" lon="14.11006697631757"><ele>1296.25</ele><time>2026-04-23T13:43:22Z</time></trkpt><trkpt lat="42.192813371076575" lon="14.109971554977982"><ele>1296.0</ele><time>2026-04-23T13:43:23Z</time></trkpt><trkpt lat="42.19289826389819" lon="14.109866681435816"><ele>1296.0</ele><time>2026-04-23T13:43:24Z</time></trkpt><trkpt lat="42.19297386385809" lon="14.109753905880064"><ele>1296.0</ele><time>2026-04-23T13:43:25Z</time></trkpt><trkpt lat="42.19303465434701" lon="14.109630268418385"><ele>1296.0</ele><time>2026-04-23T13:43:26Z</time></trkpt><trkpt lat="42.193093845148596" lon="14.10950418263574"><ele>1296.0</ele><time>2026-04-23T13:43:27Z</time></trkpt><trkpt lat="42.19316575537977" lon="14.10939228207995"><ele>1296.0</ele><time>2026-04-23T13:43:28Z</time></trkpt><trkpt lat="42.19325791040396" lon="14.10929640117225"><ele>1295.0</ele><time>2026-04-23T13:43:29Z</time></trkpt><trkpt lat="42.19337383953327" lon="14.109220521298386"><ele>1294.0</ele><time>2026-04-23T13:43:30Z</time></trkpt><trkpt lat="42.19349522302564" lon="14.109137395378069"><ele>1293.0</ele><time>2026-04-23T13:43:31Z</time></trkpt><trkpt lat="42.19362027483417" lon="14.109039351087942"><ele>1292.0</ele><time>2026-04-23T13:43:32Z</time></trkpt><trkpt lat="42.1937454810431" lon="14.108932151328649"><ele>1292.0</ele><time>2026-04-23T13:43:33Z</time></trkpt><trkpt lat="42.19386625575579" lon="14.108826089156581"><ele>1292.0</ele><time>2026-04-23T13:43:34Z</time></trkpt><trkpt lat="42.19397744226081" lon="14.108725143718704"><ele>1292.0</ele><time>2026-04-23T13:43:35Z</time></trkpt><trkpt lat="42.19406690649029" lon="14.108645106949481"><ele>1292.0</ele><time>2026-04-23T13:43:36Z</time></trkpt><trkpt lat="42.19415094458656" lon="14.108571375493224"><ele>1285.1999999999998</ele><time>2026-04-23T13:43:37Z</time></trkpt><trkpt lat="42.194233409807694" lon="14.108501111872892"><ele>1278.3999999999999</ele><time>2026-04-23T13:43:38Z</time></trkpt><trkpt lat="42.19431703792392" lon="14.108440029063658"><ele>1271.6</ele><time>2026-04-23T13:43:39Z</time></trkpt><trkpt lat="42.194399909276136" lon="14.108382600997212"><ele>1264.8</ele><time>2026-04-23T13:43:40Z</time></trkpt><trkpt lat="42.194485405673895" lon="14.108319264898308"><ele>1258.0</ele><time>2026-04-23T13:43:41Z</time></trkpt><trkpt lat="42.194573166467414" lon="14.108251523292244"><ele>1257.2</ele><time>2026-04-23T13:43:42Z</time></trkpt><trkpt lat="42.19465780154924" lon="14.108170770356455"><ele>1256.4</ele><time>2026-04-23T13:43:43Z</time></trkpt><trkpt lat="42.19474101466958" lon="14.108081001518912"><ele>1255.6000000000001</ele><time>2026-04-23T13:43:44Z</time></trkpt><trkpt lat="42.19482771466154" lon="14.107987533862197"><ele>1254.8</ele><time>2026-04-23T13:43:45Z</time></trkpt><trkpt lat="42.194914747535606" lon="14.107897611919228"><ele>1254.0</ele><time>2026-04-23T13:43:46Z</time></trkpt><trkpt lat="42.195001162091515" lon="14.107805255362633"><ele>1254.0</ele><time>2026-04-23T13:43:47Z</time></trkpt><trkpt lat="42.19508659529661" lon="14.107719462566628"><ele>1254.0</ele><time>2026-04-23T13:43:48Z</time></trkpt><trkpt lat="42.195180941690474" lon="14.107648404539244"><ele>1254.0</ele><time>2026-04-23T13:43:49Z</time></trkpt><trkpt lat="42.19528026921161" lon="14.107587157392215"><ele>1254.0</ele><time>2026-04-23T13:43:50Z</time></trkpt><trkpt lat="42.19537472065191" lon="14.107507790495053"><ele>1254.0</ele><time>2026-04-23T13:43:51Z</time></trkpt><trkpt lat="42.195454609596226" lon="14.10740507558824"><ele>1251.6000000000001</ele><time>2026-04-23T13:43:52Z</time></trkpt><trkpt lat="42.19552512501906" lon="14.10728611747854"><ele>1249.2</ele><time>2026-04-23T13:43:53Z</time></trkpt><trkpt lat="42.195592927843165" lon="14.107162061270998"><ele>1246.8000000000002</ele><time>2026-04-23T13:43:54Z</time></trkpt><trkpt lat="42.19566003764938" lon="14.107045281842716"><ele>1244.4</ele><time>2026-04-23T13:43:55Z</time></trkpt><trkpt lat="42.195724099664474" lon="14.106941581131865"><ele>1242.0</ele><time>2026-04-23T13:43:56Z</time></trkpt><trkpt lat="42.195786217840876" lon="14.106859826067154"><ele>1242.0</ele><time>2026-04-23T13:43:57.001Z</time></trkpt><trkpt lat="42.195863543499726" lon="14.106797614080707"><ele>1242.0</ele><time>2026-04-23T13:43:58.001Z</time></trkpt><trkpt lat="42.195950206194084" lon="14.106768041404985"><ele>1242.0</ele><time>2026-04-23T13:43:59.001Z</time></trkpt><trkpt lat="42.19603579208173" lon="14.106772814183236"><ele>1242.0</ele><time>2026-04-23T13:44:00.001Z</time></trkpt><trkpt lat="42.19612751965584" lon="14.106786506346124"><ele>1242.0</ele><time>2026-04-23T13:44:01.001Z</time></trkpt><trkpt lat="42.19621626768106" lon="14.10677846336052"><ele>1242.0</ele><time>2026-04-23T13:44:02.001Z</time></trkpt><trkpt lat="42.19629946717429" lon="14.106740609788158"><ele>1242.0</ele><time>2026-04-23T13:44:03.001Z</time></trkpt><trkpt lat="42.19637213948289" lon="14.106676464136156"><ele>1242.0</ele><time>2026-04-23T13:44:04.001Z</time></trkpt><trkpt lat="42.19644390746163" lon="14.106601995423036"><ele>1242.0</ele><time>2026-04-23T13:44:05.001Z</time></trkpt><trkpt lat="42.19651684756948" lon="14.1065190653895"><ele>1242.0</ele><time>2026-04-23T13:44:06.001Z</time></trkpt><trkpt lat="42.19659014554119" lon="14.106438705913751"><ele>1242.0</ele><time>2026-04-23T13:44:07.001Z</time></trkpt><trkpt lat="42.19666621433036" lon="14.10636207605246"><ele>1240.4</ele><time>2026-04-23T13:44:08.001Z</time></trkpt><trkpt lat="42.19674241275044" lon="14.106275415152492"><ele>1238.8000000000002</ele><time>2026-04-23T13:44:09.001Z</time></trkpt><trkpt lat="42.19681841162394" lon="14.1061895021663"><ele>1237.2</ele><time>2026-04-23T13:44:10.001Z</time></trkpt><trkpt lat="42.19688042782769" lon="14.106093410078742"><ele>1235.6000000000001</ele><time>2026-04-23T13:44:11.001Z</time></trkpt><trkpt lat="42.19692678726863" lon="14.105987403403846"><ele>1234.0</ele><time>2026-04-23T13:44:12.001Z</time></trkpt><trkpt lat="42.19695873795815" lon="14.105874758041429"><ele>1234.0</ele><time>2026-04-23T13:44:13.001Z</time></trkpt><trkpt lat="42.1970032784314" lon="14.105789764448815"><ele>1234.0</ele><time>2026-04-23T13:44:14.001Z</time></trkpt><trkpt lat="42.19706805383059" lon="14.105759119766608"><ele>1234.0</ele><time>2026-04-23T13:44:15.001Z</time></trkpt><trkpt lat="42.19718266319412" lon="14.10579043686651"><ele>1234.0</ele><time>2026-04-23T13:44:17.001Z</time></trkpt><trkpt lat="42.1972053603495" lon="14.105931509975557"><ele>1234.0</ele><time>2026-04-23T13:44:19.001Z</time></trkpt><trkpt lat="42.19711556853023" lon="14.106055570056466"><ele>1234.0</ele><time>2026-04-23T13:44:21.001Z</time></trkpt><trkpt lat="42.19705403834539" lon="14.106122668116909"><ele>1234.0</ele><time>2026-04-23T13:44:22.001Z</time></trkpt><trkpt lat="42.19698997106528" lon="14.106190744469869"><ele>1234.0</ele><time>2026-04-23T13:44:23.001Z</time></trkpt><trkpt lat="42.196923415743974" lon="14.106265705083114"><ele>1234.0</ele><time>2026-04-23T13:44:24.001Z</time></trkpt><trkpt lat="42.19685663222223" lon="14.106345045367702"><ele>1234.0</ele><time>2026-04-23T13:44:25.001Z</time></trkpt><trkpt lat="42.19679485550811" lon="14.106428807030724"><ele>1234.0</ele><time>2026-04-23T13:44:26.001Z</time></trkpt><trkpt lat="42.196736803877485" lon="14.106522450418892"><ele>1235.6000000000001</ele><time>2026-04-23T13:44:27.001Z</time></trkpt><trkpt lat="42.19667664083337" lon="14.106618394310377"><ele>1237.2</ele><time>2026-04-23T13:44:28.001Z</time></trkpt><trkpt lat="42.196608168234846" lon="14.106724573460383"><ele>1238.8000000000002</ele><time>2026-04-23T13:44:29.001Z</time></trkpt><trkpt lat="42.19653788168635" lon="14.106832114688826"><ele>1240.4</ele><time>2026-04-23T13:44:30.001Z</time></trkpt><trkpt lat="42.196468455225684" lon="14.106934152358814"><ele>1242.0</ele><time>2026-04-23T13:44:31.001Z</time></trkpt><trkpt lat="42.19639095376891" lon="14.107010977158813"><ele>1242.0</ele><time>2026-04-23T13:44:32.001Z</time></trkpt><trkpt lat="42.19630229435005" lon="14.107054293069632"><ele>1242.0</ele><time>2026-04-23T13:44:33.001Z</time></trkpt><trkpt lat="42.19620611201226" lon="14.107084016683256"><ele>1242.0</ele><time>2026-04-23T13:44:34.001Z</time></trkpt><trkpt lat="42.1961165751188" lon="14.107115991301963"><ele>1242.0</ele><time>2026-04-23T13:44:35.001Z</time></trkpt><trkpt lat="42.19604462384176" lon="14.107176754485565"><ele>1242.0</ele><time>2026-04-23T13:44:36.001Z</time></trkpt><trkpt lat="42.1959968574259" lon="14.107260963213044"><ele>1242.0</ele><time>2026-04-23T13:44:37.001Z</time></trkpt><trkpt lat="42.19596114833765" lon="14.107381621057218"><ele>1235.25</ele><time>2026-04-23T13:44:38.001Z</time></trkpt><trkpt lat="42.19592736360743" lon="14.107535009278715"><ele>1228.5</ele><time>2026-04-23T13:44:39.001Z</time></trkpt><trkpt lat="42.195880251101485" lon="14.107708396757102"><ele>1221.75</ele><time>2026-04-23T13:44:40.001Z</time></trkpt><trkpt lat="42.19583378428574" lon="14.107877305356862"><ele>1215.0</ele><time>2026-04-23T13:44:41.001Z</time></trkpt><trkpt lat="42.19579437093698" lon="14.108022032283623"><ele>1215.0</ele><time>2026-04-23T13:44:42.001Z</time></trkpt><trkpt lat="42.1957435443592" lon="14.108153282314191"><ele>1215.0</ele><time>2026-04-23T13:44:43.001Z</time></trkpt><trkpt lat="42.19569268675626" lon="14.108230707240242"><ele>1215.0</ele><time>2026-04-23T13:44:44.001Z</time></trkpt><trkpt lat="42.19563385288475" lon="14.108330866064936"><ele>1215.0</ele><time>2026-04-23T13:44:47.001Z</time></trkpt><trkpt lat="42.19559603758926" lon="14.108408357013786"><ele>1215.0</ele><time>2026-04-23T13:44:58.001Z</time></trkpt><trkpt lat="42.195529518177096" lon="14.10846789051702"><ele>1215.0</ele><time>2026-04-23T13:45:02.001Z</time></trkpt><trkpt lat="42.195476351729695" lon="14.108546559858924"><ele>1217.0</ele><time>2026-04-23T13:45:05.001Z</time></trkpt><trkpt lat="42.1954210198838" lon="14.108614054811554"><ele>1219.0</ele><time>2026-04-23T13:45:08.001Z</time></trkpt><trkpt lat="42.195351585106536" lon="14.108751652553211"><ele>1221.0</ele><time>2026-04-23T13:45:10.001Z</time></trkpt><trkpt lat="42.19529742177369" lon="14.108842059962488"><ele>1223.0</ele><time>2026-04-23T13:45:11.001Z</time></trkpt><trkpt lat="42.195230982880936" lon="14.108943942906098"><ele>1225.0</ele><time>2026-04-23T13:45:12.001Z</time></trkpt><trkpt lat="42.19516333093331" lon="14.109042284622367"><ele>1225.0</ele><time>2026-04-23T13:45:13.001Z</time></trkpt><trkpt lat="42.19508863479577" lon="14.109141668134773"><ele>1225.0</ele><time>2026-04-23T13:45:14.001Z</time></trkpt><trkpt lat="42.195009277374126" lon="14.109242093705328"><ele>1225.0</ele><time>2026-04-23T13:45:15.001Z</time></trkpt><trkpt lat="42.19492902773354" lon="14.109331639129522"><ele>1225.0</ele><time>2026-04-23T13:45:16.001Z</time></trkpt><trkpt lat="42.194845916606624" lon="14.109411851637445"><ele>1225.0</ele><time>2026-04-23T13:45:17.001Z</time></trkpt><trkpt lat="42.1947462812619" lon="14.109472653012135"><ele>1225.0</ele><time>2026-04-23T13:45:18.001Z</time></trkpt><trkpt lat="42.19463889193347" lon="14.109523861808519"><ele>1225.0</ele><time>2026-04-23T13:45:19.001Z</time></trkpt><trkpt lat="42.19453546931748" lon="14.109593280697379"><ele>1225.0</ele><time>2026-04-23T13:45:20.001Z</time></trkpt><trkpt lat="42.1944322955573" lon="14.109689475919627"><ele>1225.0</ele><time>2026-04-23T13:45:21.001Z</time></trkpt><trkpt lat="42.194326109819464" lon="14.109791158423803"><ele>1225.0</ele><time>2026-04-23T13:45:22.001Z</time></trkpt><trkpt lat="42.194224635437386" lon="14.109899535432119"><ele>1225.0</ele><time>2026-04-23T13:45:23.001Z</time></trkpt><trkpt lat="42.19412950674701" lon="14.110019215752704"><ele>1225.0</ele><time>2026-04-23T13:45:24.001Z</time></trkpt><trkpt lat="42.19404717321304" lon="14.110155696544703"><ele>1225.0</ele><time>2026-04-23T13:45:25.001Z</time></trkpt><trkpt lat="42.193985890030596" lon="14.11031197242873"><ele>1226.5</ele><time>2026-04-23T13:45:26.001Z</time></trkpt><trkpt lat="42.19394771708159" lon="14.110475856247511"><ele>1228.0</ele><time>2026-04-23T13:45:27.001Z</time></trkpt><trkpt lat="42.19391432015051" lon="14.110636433861826"><ele>1229.5</ele><time>2026-04-23T13:45:28.001Z</time></trkpt><trkpt lat="42.19386503049252" lon="14.110784995241094"><ele>1231.0</ele><time>2026-04-23T13:45:29.001Z</time></trkpt><trkpt lat="42.19379768526616" lon="14.110916450023794"><ele>1223.25</ele><time>2026-04-23T13:45:30.001Z</time></trkpt><trkpt lat="42.19371707248016" lon="14.111032921471311"><ele>1215.5</ele><time>2026-04-23T13:45:31.001Z</time></trkpt><trkpt lat="42.19363503761428" lon="14.111141833872988"><ele>1207.75</ele><time>2026-04-23T13:45:32.001Z</time></trkpt><trkpt lat="42.193546624331695" lon="14.111236087648571"><ele>1200.0</ele><time>2026-04-23T13:45:33.001Z</time></trkpt><trkpt lat="42.19344670615425" lon="14.1113030312809"><ele>1200.0</ele><time>2026-04-23T13:45:34.001Z</time></trkpt><trkpt lat="42.19333913411394" lon="14.111352604101612"><ele>1200.0</ele><time>2026-04-23T13:45:35.001Z</time></trkpt><trkpt lat="42.19323042077393" lon="14.111416600989767"><ele>1200.0</ele><time>2026-04-23T13:45:36.001Z</time></trkpt><trkpt lat="42.19312303302038" lon="14.111507030753053"><ele>1200.0</ele><time>2026-04-23T13:45:37.001Z</time></trkpt><trkpt lat="42.19302331942217" lon="14.111626650218307"><ele>1198.5</ele><time>2026-04-23T13:45:38.001Z</time></trkpt><trkpt lat="42.192931292486854" lon="14.111765100833171"><ele>1197.0</ele><time>2026-04-23T13:45:39.001Z</time></trkpt><trkpt lat="42.192836487588686" lon="14.11190485840648"><ele>1195.5</ele><time>2026-04-23T13:45:40.001Z</time></trkpt><trkpt lat="42.19273213459487" lon="14.112032856495816"><ele>1194.0</ele><time>2026-04-23T13:45:41.001Z</time></trkpt><trkpt lat="42.1926271086236" lon="14.112156853652918"><ele>1194.0</ele><time>2026-04-23T13:45:42.001Z</time></trkpt><trkpt lat="42.19252732008503" lon="14.112279392237976"><ele>1194.0</ele><time>2026-04-23T13:45:43.001Z</time></trkpt><trkpt lat="42.19243447047798" lon="14.11241278061583"><ele>1194.0</ele><time>2026-04-23T13:45:44.001Z</time></trkpt><trkpt lat="42.192352891712154" lon="14.112554047793605"><ele>1194.0</ele><time>2026-04-23T13:45:45.001Z</time></trkpt><trkpt lat="42.19227648949106" lon="14.112699072711797"><ele>1195.0</ele><time>2026-04-23T13:45:46.001Z</time></trkpt><trkpt lat="42.19219910491798" lon="14.11285198523337"><ele>1196.0</ele><time>2026-04-23T13:45:47.001Z</time></trkpt><trkpt lat="42.192120706556715" lon="14.113006370669398"><ele>1197.0</ele><time>2026-04-23T13:45:48.001Z</time></trkpt><trkpt lat="42.19204412799103" lon="14.113156979859463"><ele>1198.0</ele><time>2026-04-23T13:45:49.001Z</time></trkpt><trkpt lat="42.191961085068435" lon="14.113298427926047"><ele>1189.5</ele><time>2026-04-23T13:45:50.001Z</time></trkpt><trkpt lat="42.19186975252022" lon="14.113423312545232"><ele>1181.0</ele><time>2026-04-23T13:45:51.001Z</time></trkpt><trkpt lat="42.191776074402334" lon="14.113540540140631"><ele>1172.5</ele><time>2026-04-23T13:45:52.001Z</time></trkpt><trkpt lat="42.191688427919054" lon="14.113663254744344"><ele>1164.0</ele><time>2026-04-23T13:45:53.001Z</time></trkpt><trkpt lat="42.19160332214087" lon="14.113785179254439"><ele>1164.0</ele><time>2026-04-23T13:45:54.001Z</time></trkpt><trkpt lat="42.19150731473789" lon="14.113892853376237"><ele>1164.0</ele><time>2026-04-23T13:45:55.001Z</time></trkpt><trkpt lat="42.19140219588936" lon="14.113989675520186"><ele>1164.0</ele><time>2026-04-23T13:45:56.001Z</time></trkpt><trkpt lat="42.191293168543794" lon="14.114084409508756"><ele>1164.0</ele><time>2026-04-23T13:45:57.001Z</time></trkpt><trkpt lat="42.19118682293893" lon="14.114187726575876"><ele>1163.0</ele><time>2026-04-23T13:45:58.001Z</time></trkpt><trkpt lat="42.191085945419836" lon="14.114302645678162"><ele>1162.0</ele><time>2026-04-23T13:45:59.001Z</time></trkpt><trkpt lat="42.19098412607923" lon="14.114411749473131"><ele>1161.0</ele><time>2026-04-23T13:46:00.001Z</time></trkpt><trkpt lat="42.19088141354115" lon="14.114511020538503"><ele>1160.0</ele><time>2026-04-23T13:46:01.001Z</time></trkpt><trkpt lat="42.19077400044697" lon="14.114593444925037"><ele>1163.5</ele><time>2026-04-23T13:46:02.001Z</time></trkpt><trkpt lat="42.19065912386761" lon="14.11465123914942"><ele>1167.0</ele><time>2026-04-23T13:46:03.001Z</time></trkpt><trkpt lat="42.190543283371426" lon="14.114699389678888"><ele>1170.5</ele><time>2026-04-23T13:46:04.001Z</time></trkpt><trkpt lat="42.19043094978547" lon="14.114748492255414"><ele>1174.0</ele><time>2026-04-23T13:46:05.001Z</time></trkpt><trkpt lat="42.19032109918465" lon="14.114801302003311"><ele>1174.0</ele><time>2026-04-23T13:46:06.001Z</time></trkpt><trkpt lat="42.19020847762554" lon="14.114844184749552"><ele>1174.0</ele><time>2026-04-23T13:46:07.001Z</time></trkpt><trkpt lat="42.19009774066191" lon="14.114883279813027"><ele>1174.0</ele><time>2026-04-23T13:46:08.001Z</time></trkpt><trkpt lat="42.18999865870298" lon="14.114930272318732"><ele>1174.0</ele><time>2026-04-23T13:46:09.001Z</time></trkpt><trkpt lat="42.189922413601245" lon="14.11499562364135"><ele>1174.0</ele><time>2026-04-23T13:46:10.001Z</time></trkpt><trkpt lat="42.18987822972294" lon="14.115088614598207"><ele>1167.1666666666665</ele><time>2026-04-23T13:46:11.001Z</time></trkpt><trkpt lat="42.18987082861799" lon="14.115198600889862"><ele>1160.3333333333333</ele><time>2026-04-23T13:46:12.001Z</time></trkpt><trkpt lat="42.18989864688916" lon="14.115292115076745"><ele>1153.5</ele><time>2026-04-23T13:46:13.001Z</time></trkpt><trkpt lat="42.18995174622384" lon="14.115387298956371"><ele>1146.6666666666667</ele><time>2026-04-23T13:46:14.001Z</time></trkpt><trkpt lat="42.190030159526025" lon="14.115462665063614"><ele>1139.8333333333335</ele><time>2026-04-23T13:46:15.001Z</time></trkpt><trkpt lat="42.19012903905748" lon="14.11551579988881"><ele>1133.0</ele><time>2026-04-23T13:46:16.001Z</time></trkpt><trkpt lat="42.19023905822791" lon="14.115545092841806"><ele>1133.0</ele><time>2026-04-23T13:46:17.001Z</time></trkpt><trkpt lat="42.19035716812329" lon="14.115567351678502"><ele>1133.0</ele><time>2026-04-23T13:46:18.001Z</time></trkpt><trkpt lat="42.1904805653437" lon="14.115592927485912"><ele>1133.0</ele><time>2026-04-23T13:46:19.001Z</time></trkpt><trkpt lat="42.190598778249175" lon="14.115622344226908"><ele>1133.0</ele><time>2026-04-23T13:46:20.001Z</time></trkpt><trkpt lat="42.19071570364601" lon="14.115654107821788"><ele>1130.0</ele><time>2026-04-23T13:46:21.001Z</time></trkpt><trkpt lat="42.19083692274867" lon="14.115687955980796"><ele>1127.0</ele><time>2026-04-23T13:46:22.001Z</time></trkpt><trkpt lat="42.190965210435984" lon="14.115720364187506"><ele>1124.0</ele><time>2026-04-23T13:46:23.001Z</time></trkpt><trkpt lat="42.19109966649245" lon="14.11575182652663"><ele>1121.0</ele><time>2026-04-23T13:46:24.001Z</time></trkpt><trkpt lat="42.19123803559627" lon="14.115791205305518"><ele>1117.6666666666667</ele><time>2026-04-23T13:46:25.001Z</time></trkpt><trkpt lat="42.19138191734976" lon="14.115834827485665"><ele>1114.3333333333333</ele><time>2026-04-23T13:46:26.001Z</time></trkpt><trkpt lat="42.19153147546045" lon="14.115869603543004"><ele>1111.0</ele><time>2026-04-23T13:46:27.001Z</time></trkpt><trkpt lat="42.191686167359315" lon="14.115904559451565"><ele>1108.6666666666665</ele><time>2026-04-23T13:46:28.001Z</time></trkpt><trkpt lat="42.191843258537276" lon="14.115935100847802"><ele>1106.3333333333333</ele><time>2026-04-23T13:46:29.001Z</time></trkpt><trkpt lat="42.19200522406275" lon="14.115960455712841"><ele>1104.0</ele><time>2026-04-23T13:46:30.001Z</time></trkpt><trkpt lat="42.1921675280849" lon="14.115968972489654"><ele>1104.0</ele><time>2026-04-23T13:46:31.001Z</time></trkpt><trkpt lat="42.192333727810215" lon="14.11595232172538"><ele>1104.0</ele><time>2026-04-23T13:46:32.002Z</time></trkpt><trkpt lat="42.19249041597925" lon="14.115913663644665"><ele>1104.0</ele><time>2026-04-23T13:46:33.002Z</time></trkpt><trkpt lat="42.192639312513805" lon="14.115866296950664"><ele>1102.25</ele><time>2026-04-23T13:46:34.002Z</time></trkpt><trkpt lat="42.1927785356765" lon="14.115818932992587"><ele>1100.5</ele><time>2026-04-23T13:46:35.002Z</time></trkpt><trkpt lat="42.19290351491972" lon="14.115766224068418"><ele>1098.75</ele><time>2026-04-23T13:46:36.002Z</time></trkpt><trkpt lat="42.193009771917175" lon="14.115703344378492"><ele>1097.0</ele><time>2026-04-23T13:46:37.002Z</time></trkpt><trkpt lat="42.19310487220971" lon="14.115652649403653"><ele>1096.6</ele><time>2026-04-23T13:46:38.002Z</time></trkpt><trkpt lat="42.193188481804604" lon="14.115642730448524"><ele>1096.2</ele><time>2026-04-23T13:46:39.002Z</time></trkpt><trkpt lat="42.193267186092214" lon="14.115685242977731"><ele>1095.8</ele><time>2026-04-23T13:46:40.002Z</time></trkpt><trkpt lat="42.19332608401526" lon="14.115768370876326"><ele>1095.4</ele><time>2026-04-23T13:46:41.002Z</time></trkpt><trkpt lat="42.19336953559158" lon="14.115884211721363"><ele>1095.0</ele><time>2026-04-23T13:46:42.002Z</time></trkpt><trkpt lat="42.19340727131948" lon="14.116021996391478"><ele>1095.0</ele><time>2026-04-23T13:46:43.002Z</time></trkpt><trkpt lat="42.19345719022562" lon="14.116167233319441"><ele>1095.0</ele><time>2026-04-23T13:46:44.002Z</time></trkpt><trkpt lat="42.19350818122597" lon="14.116308748812113"><ele>1095.0</ele><time>2026-04-23T13:46:45.002Z</time></trkpt><trkpt lat="42.19354765394597" lon="14.116449177190626"><ele>1095.0</ele><time>2026-04-23T13:46:46.002Z</time></trkpt><trkpt lat="42.19359066369134" lon="14.116582977180354"><ele>1096.0</ele><time>2026-04-23T13:46:47.001Z</time></trkpt><trkpt lat="42.19364896447591" lon="14.11668654642463"><ele>1097.0</ele><time>2026-04-23T13:46:48.001Z</time></trkpt><trkpt lat="42.19372569149681" lon="14.11674870706245"><ele>1098.0</ele><time>2026-04-23T13:46:49.001Z</time></trkpt><trkpt lat="42.19382137079035" lon="14.116762247366717"><ele>1099.0</ele><time>2026-04-23T13:46:50.001Z</time></trkpt><trkpt lat="42.193934276869726" lon="14.116754031334196"><ele>1100.0</ele><time>2026-04-23T13:46:51.001Z</time></trkpt><trkpt lat="42.19405442924559" lon="14.11673655198275"><ele>1098.0</ele><time>2026-04-23T13:46:52.001Z</time></trkpt><trkpt lat="42.194180772418875" lon="14.116709277927852"><ele>1096.0</ele><time>2026-04-23T13:46:53.001Z</time></trkpt><trkpt lat="42.19429969223714" lon="14.116661736028993"><ele>1094.0</ele><time>2026-04-23T13:46:54.001Z</time></trkpt><trkpt lat="42.19439884057878" lon="14.116609262132213"><ele>1092.0</ele><time>2026-04-23T13:46:55.001Z</time></trkpt><trkpt lat="42.19450515178512" lon="14.116520236186844"><ele>1092.0</ele><time>2026-04-23T13:46:56.001Z</time></trkpt><trkpt lat="42.19461122538711" lon="14.116432934232417"><ele>1092.0</ele><time>2026-04-23T13:46:57.001Z</time></trkpt><trkpt lat="42.19472044563132" lon="14.116346896495518"><ele>1092.0</ele><time>2026-04-23T13:46:58.001Z</time></trkpt><trkpt lat="42.19482844710264" lon="14.116264987303477"><ele>1092.0</ele><time>2026-04-23T13:46:59.001Z</time></trkpt><trkpt lat="42.1949378806393" lon="14.116201413067465"><ele>1088.8</ele><time>2026-04-23T13:47:00.001Z</time></trkpt><trkpt lat="42.195045603763454" lon="14.116160648541213"><ele>1085.6</ele><time>2026-04-23T13:47:01.001Z</time></trkpt><trkpt lat="42.19514976013881" lon="14.116154917566877"><ele>1082.3999999999999</ele><time>2026-04-23T13:47:02.001Z</time></trkpt><trkpt lat="42.195245142382625" lon="14.116185381835349"><ele>1079.2</ele><time>2026-04-23T13:47:03.001Z</time></trkpt><trkpt lat="42.19532820690892" lon="14.116254136730038"><ele>1076.0</ele><time>2026-04-23T13:47:04.001Z</time></trkpt><trkpt lat="42.19538457200154" lon="14.116352775318942"><ele>1076.0</ele><time>2026-04-23T13:47:05.001Z</time></trkpt><trkpt lat="42.195398880747376" lon="14.116474602575122"><ele>1076.0</ele><time>2026-04-23T13:47:06.001Z</time></trkpt><trkpt lat="42.19537122087945" lon="14.116584838867762"><ele>1076.0</ele><time>2026-04-23T13:47:07.001Z</time></trkpt><trkpt lat="42.19530236902718" lon="14.116662507165426"><ele>1076.0</ele><time>2026-04-23T13:47:08.001Z</time></trkpt><trkpt lat="42.19522177154331" lon="14.116702484444712"><ele>1076.0</ele><time>2026-04-23T13:47:09.001Z</time></trkpt><trkpt lat="42.195126331282424" lon="14.116712485948296"><ele>1076.0</ele><time>2026-04-23T13:47:10.001Z</time></trkpt><trkpt lat="42.19502226415386" lon="14.116710373009784"><ele>1075.6</ele><time>2026-04-23T13:47:11.001Z</time></trkpt><trkpt lat="42.194920447702806" lon="14.116726792952198"><ele>1075.1999999999998</ele><time>2026-04-23T13:47:12.001Z</time></trkpt><trkpt lat="42.19482296529202" lon="14.116752729980313"><ele>1074.8000000000002</ele><time>2026-04-23T13:47:13.001Z</time></trkpt><trkpt lat="42.19473606742347" lon="14.116809468248393"><ele>1074.4</ele><time>2026-04-23T13:47:14.001Z</time></trkpt><trkpt lat="42.194676223738696" lon="14.11689979667829"><ele>1074.0</ele><time>2026-04-23T13:47:15.001Z</time></trkpt><trkpt lat="42.19464707192074" lon="14.117013480155808"><ele>1075.4</ele><time>2026-04-23T13:47:16.001Z</time></trkpt><trkpt lat="42.194649941194974" lon="14.117144655585978"><ele>1076.8000000000002</ele><time>2026-04-23T13:47:17.001Z</time></trkpt><trkpt lat="42.19468523501113" lon="14.117273445781349"><ele>1078.1999999999998</ele><time>2026-04-23T13:47:18.001Z</time></trkpt><trkpt lat="42.194751413993636" lon="14.117386381270403"><ele>1079.6</ele><time>2026-04-23T13:47:19.001Z</time></trkpt><trkpt lat="42.19483018112494" lon="14.117477877878581"><ele>1081.0</ele><time>2026-04-23T13:47:20.001Z</time></trkpt><trkpt lat="42.19487854291736" lon="14.11759791634702"><ele>1081.0</ele><time>2026-04-23T13:47:21.001Z</time></trkpt><trkpt lat="42.19492434541386" lon="14.117709175899998"><ele>1081.0</ele><time>2026-04-23T13:47:22.001Z</time></trkpt><trkpt lat="42.194916843614116" lon="14.117927548477494"><ele>1081.0</ele><time>2026-04-23T13:47:23.001Z</time></trkpt><trkpt lat="42.194880653211975" lon="14.118087546718815"><ele>1081.0</ele><time>2026-04-23T13:47:24.001Z</time></trkpt><trkpt lat="42.19480689921391" lon="14.118232382219778"><ele>1077.0</ele><time>2026-04-23T13:47:25.001Z</time></trkpt><trkpt lat="42.194698817517484" lon="14.118343392609443"><ele>1073.0</ele><time>2026-04-23T13:47:26.001Z</time></trkpt><trkpt lat="42.19456950000566" lon="14.118435138045326"><ele>1069.0</ele><time>2026-04-23T13:47:27.001Z</time></trkpt><trkpt lat="42.19444744936669" lon="14.118530490540039"><ele>1065.0</ele><time>2026-04-23T13:47:28.001Z</time></trkpt><trkpt lat="42.19435410891531" lon="14.118653494403954"><ele>1065.0</ele><time>2026-04-23T13:47:29.001Z</time></trkpt><trkpt lat="42.19429511696569" lon="14.118813358128097"><ele>1065.0</ele><time>2026-04-23T13:47:30.001Z</time></trkpt><trkpt lat="42.19426632300887" lon="14.119003472410538"><ele>1065.0</ele><time>2026-04-23T13:47:31.001Z</time></trkpt><trkpt lat="42.19425023056658" lon="14.119212621984367"><ele>1065.0</ele><time>2026-04-23T13:47:32.001Z</time></trkpt><trkpt lat="42.19422009550339" lon="14.119418083931263"><ele>1062.25</ele><time>2026-04-23T13:47:33.001Z</time></trkpt><trkpt lat="42.19417387211853" lon="14.119613188070527"><ele>1059.5</ele><time>2026-04-23T13:47:34.001Z</time></trkpt><trkpt lat="42.19412061627092" lon="14.11979656431522"><ele>1056.75</ele><time>2026-04-23T13:47:35.001Z</time></trkpt><trkpt lat="42.194054087328404" lon="14.11995545218617"><ele>1054.0</ele><time>2026-04-23T13:47:36.001Z</time></trkpt><trkpt lat="42.19397171543715" lon="14.12009296496058"><ele>1050.6000000000001</ele><time>2026-04-23T13:47:37.001Z</time></trkpt><trkpt lat="42.19387924564581" lon="14.120215380313548"><ele>1047.2</ele><time>2026-04-23T13:47:38.001Z</time></trkpt><trkpt lat="42.19379024354975" lon="14.120326560108847"><ele>1043.8000000000002</ele><time>2026-04-23T13:47:39.001Z</time></trkpt><trkpt lat="42.19372845124919" lon="14.12042623494188"><ele>1040.4</ele><time>2026-04-23T13:47:40.001Z</time></trkpt><trkpt lat="42.193718107141265" lon="14.120531454583144"><ele>1037.0</ele><time>2026-04-23T13:47:41.001Z</time></trkpt><trkpt lat="42.193764743563804" lon="14.12063699925559"><ele>1037.0</ele><time>2026-04-23T13:47:42.001Z</time></trkpt><trkpt lat="42.193853358533175" lon="14.120692161892581"><ele>1037.0</ele><time>2026-04-23T13:47:43.001Z</time></trkpt><trkpt lat="42.19395586836937" lon="14.120669546246946"><ele>1037.0</ele><time>2026-04-23T13:47:44.001Z</time></trkpt><trkpt lat="42.19407113788028" lon="14.12053812041785"><ele>1037.0</ele><time>2026-04-23T13:47:45.001Z</time></trkpt><trkpt lat="42.19414521359039" lon="14.120407748505736"><ele>1037.25</ele><time>2026-04-23T13:47:46.001Z</time></trkpt><trkpt lat="42.19422629042182" lon="14.120267877165528"><ele>1037.5</ele><time>2026-04-23T13:47:47.001Z</time></trkpt><trkpt lat="42.19432049740032" lon="14.120128076182151"><ele>1037.75</ele><time>2026-04-23T13:47:48.001Z</time></trkpt><trkpt lat="42.19441928103972" lon="14.119987803381838"><ele>1038.0</ele><time>2026-04-23T13:47:49.001Z</time></trkpt><trkpt lat="42.194518777436684" lon="14.11984869845884"><ele>1037.25</ele><time>2026-04-23T13:47:50.001Z</time></trkpt><trkpt lat="42.194617966621195" lon="14.119710695955627"><ele>1036.5</ele><time>2026-04-23T13:47:51.001Z</time></trkpt><trkpt lat="42.194722044294764" lon="14.11959135631646"><ele>1035.75</ele><time>2026-04-23T13:47:52.001Z</time></trkpt><trkpt lat="42.194842483024715" lon="14.119517748495014"><ele>1035.0</ele><time>2026-04-23T13:47:53.001Z</time></trkpt><trkpt lat="42.19497625511287" lon="14.119507095523767"><ele>1035.0</ele><time>2026-04-23T13:47:54.001Z</time></trkpt><trkpt lat="42.195110806413474" lon="14.119548009801422"><ele>1035.0</ele><time>2026-04-23T13:47:55.001Z</time></trkpt><trkpt lat="42.195249260531924" lon="14.119590757740465"><ele>1035.0</ele><time>2026-04-23T13:47:56.001Z</time></trkpt><trkpt lat="42.19539328309673" lon="14.119588681833278"><ele>1035.0</ele><time>2026-04-23T13:47:57.001Z</time></trkpt><trkpt lat="42.19553619143517" lon="14.119539872276619"><ele>1035.0</ele><time>2026-04-23T13:47:58.001Z</time></trkpt><trkpt lat="42.19566382894768" lon="14.119465398142571"><ele>1035.0</ele><time>2026-04-23T13:47:59.001Z</time></trkpt><trkpt lat="42.195788863449685" lon="14.119372179062786"><ele>1035.0</ele><time>2026-04-23T13:48:00.001Z</time></trkpt><trkpt lat="42.19590406733719" lon="14.119251705629503"><ele>1035.0</ele><time>2026-04-23T13:48:01.001Z</time></trkpt><trkpt lat="42.19600958758085" lon="14.11912149362052"><ele>1035.25</ele><time>2026-04-23T13:48:02.001Z</time></trkpt><trkpt lat="42.19610616574458" lon="14.118986370570907"><ele>1035.5</ele><time>2026-04-23T13:48:03.001Z</time></trkpt><trkpt lat="42.196193564059975" lon="14.118844815501566"><ele>1035.75</ele><time>2026-04-23T13:48:04.001Z</time></trkpt><trkpt lat="42.196286291916266" lon="14.118710776859736"><ele>1036.0</ele><time>2026-04-23T13:48:05.001Z</time></trkpt><trkpt lat="42.19640127646188" lon="14.11861490626252"><ele>1030.0</ele><time>2026-04-23T13:48:06.001Z</time></trkpt><trkpt lat="42.19653780265483" lon="14.118596102188071"><ele>1024.0</ele><time>2026-04-23T13:48:07.001Z</time></trkpt><trkpt lat="42.19666741713555" lon="14.11860352474867"><ele>1018.0</ele><time>2026-04-23T13:48:08.001Z</time></trkpt><trkpt lat="42.19679530506225" lon="14.118595327353667"><ele>1012.0</ele><time>2026-04-23T13:48:09.001Z</time></trkpt><trkpt lat="42.19691163582173" lon="14.118576092726732"><ele>1012.0</ele><time>2026-04-23T13:48:10.001Z</time></trkpt><trkpt lat="42.19700507634352" lon="14.118486607605316"><ele>1012.0</ele><time>2026-04-23T13:48:11.001Z</time></trkpt><trkpt lat="42.19705591413142" lon="14.118347072661969"><ele>1012.0</ele><time>2026-04-23T13:48:12.001Z</time></trkpt><trkpt lat="42.19706883970999" lon="14.118188519373307"><ele>1012.0</ele><time>2026-04-23T13:48:13.001Z</time></trkpt><trkpt lat="42.19706391473632" lon="14.118021750944042"><ele>1014.2</ele><time>2026-04-23T13:48:14.001Z</time></trkpt><trkpt lat="42.19707490713031" lon="14.117860419195917"><ele>1016.4000000000001</ele><time>2026-04-23T13:48:15.001Z</time></trkpt><trkpt lat="42.19711118974598" lon="14.117715688374846"><ele>1018.5999999999999</ele><time>2026-04-23T13:48:16.001Z</time></trkpt><trkpt lat="42.19718644703266" lon="14.117620499235453"><ele>1020.8</ele><time>2026-04-23T13:48:17.001Z</time></trkpt><trkpt lat="42.19725052738147" lon="14.117541510072616"><ele>1023.0</ele><time>2026-04-23T13:48:18.001Z</time></trkpt><trkpt lat="42.197336662041494" lon="14.117542275967036"><ele>1018.0</ele><time>2026-04-23T13:48:19.001Z</time></trkpt><trkpt lat="42.197416160648125" lon="14.117612176590505"><ele>1013.0</ele><time>2026-04-23T13:48:20.001Z</time></trkpt><trkpt lat="42.19747253089534" lon="14.117737200523708"><ele>1008.0</ele><time>2026-04-23T13:48:21.001Z</time></trkpt><trkpt lat="42.19746727411064" lon="14.117893492674245"><ele>1003.0</ele><time>2026-04-23T13:48:22.001Z</time></trkpt><trkpt lat="42.19748023724079" lon="14.118056058360393"><ele>998.0</ele><time>2026-04-23T13:48:23.001Z</time></trkpt><trkpt lat="42.19750920997662" lon="14.118215022721007"><ele>998.25</ele><time>2026-04-23T13:48:24.001Z</time></trkpt><trkpt lat="42.197539688260065" lon="14.118386967486051"><ele>998.5</ele><time>2026-04-23T13:48:25.001Z</time></trkpt><trkpt lat="42.19761379148738" lon="14.118550768964658"><ele>998.75</ele><time>2026-04-23T13:48:26.001Z</time></trkpt><trkpt lat="42.19771212527181" lon="14.11869192379319"><ele>999.0</ele><time>2026-04-23T13:48:27.001Z</time></trkpt><trkpt lat="42.19781695983002" lon="14.118824200240072"><ele>999.0</ele><time>2026-04-23T13:48:28.001Z</time></trkpt><trkpt lat="42.1979269646907" lon="14.11896935785714"><ele>999.0</ele><time>2026-04-23T13:48:29.001Z</time></trkpt><trkpt lat="42.19803981578318" lon="14.119128563227811"><ele>999.0</ele><time>2026-04-23T13:48:30.001Z</time></trkpt><trkpt lat="42.198157384102785" lon="14.119297800164162"><ele>994.0</ele><time>2026-04-23T13:48:31.001Z</time></trkpt><trkpt lat="42.19827478881529" lon="14.119470489159973"><ele>989.0</ele><time>2026-04-23T13:48:32.001Z</time></trkpt><trkpt lat="42.19838327719565" lon="14.119626629061639"><ele>984.0</ele><time>2026-04-23T13:48:33.001Z</time></trkpt><trkpt lat="42.19848659421647" lon="14.119777196021765"><ele>983.25</ele><time>2026-04-23T13:48:34.001Z</time></trkpt><trkpt lat="42.19858433589574" lon="14.119920351296576"><ele>982.5</ele><time>2026-04-23T13:48:35.001Z</time></trkpt><trkpt lat="42.19866550139381" lon="14.120050088647446"><ele>981.75</ele><time>2026-04-23T13:48:36.001Z</time></trkpt><trkpt lat="42.19871144204553" lon="14.120174619343421"><ele>981.0</ele><time>2026-04-23T13:48:37.002Z</time></trkpt><trkpt lat="42.198716401905024" lon="14.120309845535747"><ele>981.0</ele><time>2026-04-23T13:48:38.002Z</time></trkpt><trkpt lat="42.19867924231487" lon="14.120449631207988"><ele>981.0</ele><time>2026-04-23T13:48:39.002Z</time></trkpt><trkpt lat="42.19860707742776" lon="14.12057570225555"><ele>981.0</ele><time>2026-04-23T13:48:40.002Z</time></trkpt><trkpt lat="42.19850931207139" lon="14.120661147051077"><ele>981.0</ele><time>2026-04-23T13:48:41.002Z</time></trkpt><trkpt lat="42.19839351669779" lon="14.12066908155639"><ele>981.0</ele><time>2026-04-23T13:48:42.002Z</time></trkpt><trkpt lat="42.19827836840293" lon="14.120653656755923"><ele>981.0</ele><time>2026-04-23T13:48:43.002Z</time></trkpt><trkpt lat="42.19814909345995" lon="14.120631364492827"><ele>981.0</ele><time>2026-04-23T13:48:44.002Z</time></trkpt><trkpt lat="42.19801835567907" lon="14.120579130961838"><ele>981.0</ele><time>2026-04-23T13:48:45.002Z</time></trkpt><trkpt lat="42.197896986206196" lon="14.120524514685671"><ele>981.0</ele><time>2026-04-23T13:48:46.002Z</time></trkpt><trkpt lat="42.197797506159205" lon="14.120433436824351"><ele>980.9999999999999</ele><time>2026-04-23T13:48:47.002Z</time></trkpt><trkpt lat="42.19769850723917" lon="14.120368359772968"><ele>980.9999999999999</ele><time>2026-04-23T13:48:48.002Z</time></trkpt><trkpt lat="42.1976136874892" lon="14.12030825797598"><ele>981.0</ele><time>2026-04-23T13:48:49.002Z</time></trkpt><trkpt lat="42.19752520824054" lon="14.120315532142143"><ele>981.0</ele><time>2026-04-23T13:48:50.002Z</time></trkpt><trkpt lat="42.19744684035927" lon="14.120364576759766"><ele>981.0</ele><time>2026-04-23T13:48:51.002Z</time></trkpt><trkpt lat="42.19742178345901" lon="14.12052093420468"><ele>981.0</ele><time>2026-04-23T13:48:52.001Z</time></trkpt><trkpt lat="42.19743174122907" lon="14.12067418355589"><ele>981.0</ele><time>2026-04-23T13:48:53.001Z</time></trkpt><trkpt lat="42.19747942221756" lon="14.120837681646897"><ele>981.0</ele><time>2026-04-23T13:48:54.001Z</time></trkpt><trkpt lat="42.19754500566313" lon="14.121010532846002"><ele>977.25</ele><time>2026-04-23T13:48:55.001Z</time></trkpt><trkpt lat="42.197612611108475" lon="14.121184830111924"><ele>973.5</ele><time>2026-04-23T13:48:56.001Z</time></trkpt><trkpt lat="42.19768533442975" lon="14.121358932822476"><ele>969.75</ele><time>2026-04-23T13:48:57.001Z</time></trkpt><trkpt lat="42.19776258690309" lon="14.121526958381024"><ele>966.0</ele><time>2026-04-23T13:48:58.001Z</time></trkpt><trkpt lat="42.19783170910804" lon="14.121698198894975"><ele>964.75</ele><time>2026-04-23T13:48:59.001Z</time></trkpt><trkpt lat="42.19788450645719" lon="14.121874456118375"><ele>963.5</ele><time>2026-04-23T13:49:00.001Z</time></trkpt><trkpt lat="42.19792534082161" lon="14.122067788405474"><ele>962.25</ele><time>2026-04-23T13:49:01.001Z</time></trkpt><trkpt lat="42.19795291932465" lon="14.122264584679998"><ele>961.0</ele><time>2026-04-23T13:49:02.001Z</time></trkpt><trkpt lat="42.19796715993916" lon="14.122458616119463"><ele>959.0</ele><time>2026-04-23T13:49:03.001Z</time></trkpt><trkpt lat="42.1979838682256" lon="14.122642748376313"><ele>957.0</ele><time>2026-04-23T13:49:04.001Z</time></trkpt><trkpt lat="42.198035449876926" lon="14.122809758989016"><ele>955.0</ele><time>2026-04-23T13:49:05.001Z</time></trkpt><trkpt lat="42.1981328350194" lon="14.122969609358545"><ele>953.0</ele><time>2026-04-23T13:49:06.001Z</time></trkpt><trkpt lat="42.198253563424394" lon="14.12311524237266"><ele>947.0</ele><time>2026-04-23T13:49:07.001Z</time></trkpt><trkpt lat="42.198376811221564" lon="14.123267065639256"><ele>941.0</ele><time>2026-04-23T13:49:08.001Z</time></trkpt><trkpt lat="42.198499307214256" lon="14.123441467858047"><ele>935.0</ele><time>2026-04-23T13:49:09.001Z</time></trkpt><trkpt lat="42.19862224307341" lon="14.123616895377245"><ele>935.0</ele><time>2026-04-23T13:49:10.001Z</time></trkpt><trkpt lat="42.19873827518045" lon="14.123783236813484"><ele>935.0</ele><time>2026-04-23T13:49:11.001Z</time></trkpt><trkpt lat="42.1988579233696" lon="14.123939658819184"><ele>935.0</ele><time>2026-04-23T13:49:12.001Z</time></trkpt><trkpt lat="42.19899626890348" lon="14.124081231111845"><ele>934.6666666666667</ele><time>2026-04-23T13:49:13.001Z</time></trkpt><trkpt lat="42.199158637248914" lon="14.124185010126572"><ele>934.3333333333333</ele><time>2026-04-23T13:49:14.001Z</time></trkpt><trkpt lat="42.199340377222526" lon="14.124264452062908"><ele>934.0</ele><time>2026-04-23T13:49:15.001Z</time></trkpt><trkpt lat="42.199520418897805" lon="14.124325483933838"><ele>934.0</ele><time>2026-04-23T13:49:16.001Z</time></trkpt><trkpt lat="42.19969866822593" lon="14.12437295072116"><ele>934.0</ele><time>2026-04-23T13:49:17.001Z</time></trkpt><trkpt lat="42.19987010064832" lon="14.124431291584678"><ele>934.0</ele><time>2026-04-23T13:49:18.001Z</time></trkpt><trkpt lat="42.20003894565626" lon="14.124508767008354"><ele>933.75</ele><time>2026-04-23T13:49:19.001Z</time></trkpt><trkpt lat="42.200189850338944" lon="14.124589265850927"><ele>933.5</ele><time>2026-04-23T13:49:20.001Z</time></trkpt><trkpt lat="42.20030761366536" lon="14.12468778851004"><ele>933.25</ele><time>2026-04-23T13:49:21.001Z</time></trkpt><trkpt lat="42.200395645326815" lon="14.124787315065351"><ele>933.0</ele><time>2026-04-23T13:49:22.001Z</time></trkpt><trkpt lat="42.20044373448039" lon="14.12491217469039"><ele>933.0</ele><time>2026-04-23T13:49:23.001Z</time></trkpt><trkpt lat="42.20045476455281" lon="14.125074568299231"><ele>933.0</ele><time>2026-04-23T13:49:24.001Z</time></trkpt><trkpt lat="42.20046459723148" lon="14.125257693482391"><ele>933.0</ele><time>2026-04-23T13:49:25.001Z</time></trkpt><trkpt lat="42.20047466047078" lon="14.125453110902752"><ele>933.0</ele><time>2026-04-23T13:49:26.001Z</time></trkpt><trkpt lat="42.20050150085592" lon="14.1256414053903"><ele>931.0</ele><time>2026-04-23T13:49:27.001Z</time></trkpt><trkpt lat="42.20051021650209" lon="14.125818405387646"><ele>929.0</ele><time>2026-04-23T13:49:28.001Z</time></trkpt><trkpt lat="42.20051019258473" lon="14.125990636984998"><ele>927.0</ele><time>2026-04-23T13:49:29.001Z</time></trkpt><trkpt lat="42.200481541128745" lon="14.126154520626585"><ele>925.0</ele><time>2026-04-23T13:49:30.001Z</time></trkpt><trkpt lat="42.20041610073033" lon="14.126293031768661"><ele>925.0</ele><time>2026-04-23T13:49:31.001Z</time></trkpt><trkpt lat="42.20033539738411" lon="14.126385211047694"><ele>925.0</ele><time>2026-04-23T13:49:32.001Z</time></trkpt><trkpt lat="42.200242922646325" lon="14.126432302311033"><ele>925.0</ele><time>2026-04-23T13:49:33.001Z</time></trkpt><trkpt lat="42.20013394447027" lon="14.126405867551545"><ele>925.0</ele><time>2026-04-23T13:49:34.001Z</time></trkpt><trkpt lat="42.20001727342792" lon="14.126444852636011"><ele>925.0</ele><time>2026-04-23T13:49:35.001Z</time></trkpt><trkpt lat="42.199914189679234" lon="14.126493495723093"><ele>921.2</ele><time>2026-04-23T13:49:36.001Z</time></trkpt><trkpt lat="42.199854522734704" lon="14.126593119828852"><ele>917.4</ele><time>2026-04-23T13:49:37.001Z</time></trkpt><trkpt lat="42.199838797544835" lon="14.126721967070505"><ele>913.5999999999999</ele><time>2026-04-23T13:49:38.001Z</time></trkpt><trkpt lat="42.19987484944987" lon="14.126834660320672"><ele>909.8</ele><time>2026-04-23T13:49:39.001Z</time></trkpt><trkpt lat="42.19995113784365" lon="14.126906596285886"><ele>906.0</ele><time>2026-04-23T13:49:40.001Z</time></trkpt><trkpt lat="42.20005714832279" lon="14.126939573589697"><ele>906.0</ele><time>2026-04-23T13:49:41.001Z</time></trkpt><trkpt lat="42.20017942866659" lon="14.126965865683252"><ele>906.0</ele><time>2026-04-23T13:49:42.001Z</time></trkpt><trkpt lat="42.200313376296215" lon="14.127003771020817"><ele>906.0</ele><time>2026-04-23T13:49:43.001Z</time></trkpt><trkpt lat="42.20045175968975" lon="14.127049751590683"><ele>906.0</ele><time>2026-04-23T13:49:44.001Z</time></trkpt><trkpt lat="42.20059215168427" lon="14.127084043181796"><ele>906.3333333333333</ele><time>2026-04-23T13:49:45.001Z</time></trkpt><trkpt lat="42.200743368015466" lon="14.12708795733379"><ele>906.6666666666666</ele><time>2026-04-23T13:49:46.001Z</time></trkpt><trkpt lat="42.20090753727045" lon="14.127072481050012"><ele>907.0</ele><time>2026-04-23T13:49:47.001Z</time></trkpt><trkpt lat="42.2010672263445" lon="14.127051982217168"><ele>907.0</ele><time>2026-04-23T13:49:48.001Z</time></trkpt><trkpt lat="42.20122167315793" lon="14.127052870793637"><ele>907.0</ele><time>2026-04-23T13:49:49.001Z</time></trkpt><trkpt lat="42.20137076760311" lon="14.127064350344668"><ele>907.0</ele><time>2026-04-23T13:49:50.001Z</time></trkpt><trkpt lat="42.20151424287004" lon="14.127077755046727"><ele>907.0</ele><time>2026-04-23T13:49:51.001Z</time></trkpt><trkpt lat="42.20163655188254" lon="14.127086061767127"><ele>904.2</ele><time>2026-04-23T13:49:52.001Z</time></trkpt><trkpt lat="42.20173470633832" lon="14.127063552526053"><ele>901.4000000000001</ele><time>2026-04-23T13:49:53.001Z</time></trkpt><trkpt lat="42.20180757030461" lon="14.126982037471857"><ele>898.5999999999999</ele><time>2026-04-23T13:49:54.001Z</time></trkpt><trkpt lat="42.20182889474869" lon="14.126842139160239"><ele>895.8</ele><time>2026-04-23T13:49:55.001Z</time></trkpt><trkpt lat="42.201821123119466" lon="14.126709267591872"><ele>893.0</ele><time>2026-04-23T13:49:56.001Z</time></trkpt><trkpt lat="42.20179114212208" lon="14.126562384322275"><ele>892.75</ele><time>2026-04-23T13:49:57.001Z</time></trkpt><trkpt lat="42.2017717566536" lon="14.126404603857615"><ele>892.5</ele><time>2026-04-23T13:49:58.001Z</time></trkpt><trkpt lat="42.20178732274727" lon="14.126254129440833"><ele>892.25</ele><time>2026-04-23T13:49:59.001Z</time></trkpt><trkpt lat="42.20183967791552" lon="14.12612235699412"><ele>892.0</ele><time>2026-04-23T13:50:00.001Z</time></trkpt><trkpt lat="42.20192348333644" lon="14.12602041871715"><ele>892.0</ele><time>2026-04-23T13:50:01.001Z</time></trkpt><trkpt lat="42.20201799966635" lon="14.125941248479807"><ele>892.0</ele><time>2026-04-23T13:50:02.001Z</time></trkpt><trkpt lat="42.20209772265031" lon="14.125827284247602"><ele>892.0</ele><time>2026-04-23T13:50:03.001Z</time></trkpt><trkpt lat="42.202130881903884" lon="14.125682500965329"><ele>892.0</ele><time>2026-04-23T13:50:04.001Z</time></trkpt><trkpt lat="42.202125202736696" lon="14.125524198872064"><ele>890.25</ele><time>2026-04-23T13:50:05.001Z</time></trkpt><trkpt lat="42.20207900591958" lon="14.125361828183536"><ele>888.5</ele><time>2026-04-23T13:50:06.001Z</time></trkpt><trkpt lat="42.20201868054527" lon="14.125206796742923"><ele>886.75</ele><time>2026-04-23T13:50:07.001Z</time></trkpt><trkpt lat="42.20196267867936" lon="14.125068025937917"><ele>885.0</ele><time>2026-04-23T13:50:08.001Z</time></trkpt><trkpt lat="42.201921826128014" lon="14.124948018031832"><ele>884.8333333333334</ele><time>2026-04-23T13:50:09.001Z</time></trkpt><trkpt lat="42.20191842965123" lon="14.12484093577782"><ele>884.6666666666667</ele><time>2026-04-23T13:50:10.001Z</time></trkpt><trkpt lat="42.2019549336384" lon="14.124747138111115"><ele>884.5</ele><time>2026-04-23T13:50:11.001Z</time></trkpt><trkpt lat="42.202024631875624" lon="14.12469969476418"><ele>884.3333333333334</ele><time>2026-04-23T13:50:12.001Z</time></trkpt><trkpt lat="42.20210435772643" lon="14.124703408302482"><ele>884.1666666666667</ele><time>2026-04-23T13:50:13.001Z</time></trkpt><trkpt lat="42.20218642998258" lon="14.124770183446289"><ele>884.0</ele><time>2026-04-23T13:50:14.001Z</time></trkpt><trkpt lat="42.202248404765044" lon="14.12489154659159"><ele>884.25</ele><time>2026-04-23T13:50:15.001Z</time></trkpt><trkpt lat="42.20229242741354" lon="14.125033750537378"><ele>884.5</ele><time>2026-04-23T13:50:16.001Z</time></trkpt><trkpt lat="42.20235430636843" lon="14.125167210654334"><ele>884.75</ele><time>2026-04-23T13:50:17.001Z</time></trkpt><trkpt lat="42.20246004780733" lon="14.125262781878662"><ele>885.0</ele><time>2026-04-23T13:50:18.001Z</time></trkpt><trkpt lat="42.2025938750068" lon="14.125298738782774"><ele>881.8</ele><time>2026-04-23T13:50:19.001Z</time></trkpt><trkpt lat="42.20272236348127" lon="14.125283753291178"><ele>878.6</ele><time>2026-04-23T13:50:20.001Z</time></trkpt><trkpt lat="42.20282988587389" lon="14.12528164637637"><ele>875.4000000000001</ele><time>2026-04-23T13:50:21.001Z</time></trkpt><trkpt lat="42.20291873099235" lon="14.125321433738748"><ele>872.2</ele><time>2026-04-23T13:50:22.001Z</time></trkpt><trkpt lat="42.20298116104032" lon="14.12542025451187"><ele>869.0</ele><time>2026-04-23T13:50:23.001Z</time></trkpt><trkpt lat="42.20299770749194" lon="14.125550215918143"><ele>869.0</ele><time>2026-04-23T13:50:24.001Z</time></trkpt><trkpt lat="42.2029675663703" lon="14.125692656627926"><ele>869.0</ele><time>2026-04-23T13:50:25.001Z</time></trkpt><trkpt lat="42.20290621461444" lon="14.125836543772778"><ele>869.0</ele><time>2026-04-23T13:50:26.001Z</time></trkpt><trkpt lat="42.20285613142076" lon="14.126001674200081"><ele>869.0</ele><time>2026-04-23T13:50:27.001Z</time></trkpt><trkpt lat="42.20284806173823" lon="14.126184014651745"><ele>870.0</ele><time>2026-04-23T13:50:28.001Z</time></trkpt><trkpt lat="42.20287253748162" lon="14.126378318812801"><ele>871.0</ele><time>2026-04-23T13:50:29.001Z</time></trkpt><trkpt lat="42.202895448866435" lon="14.126588635036121"><ele>872.0</ele><time>2026-04-23T13:50:30.001Z</time></trkpt><trkpt lat="42.20291644595726" lon="14.126806826606666"><ele>869.6666666666667</ele><time>2026-04-23T13:50:31.001Z</time></trkpt><trkpt lat="42.202938657187396" lon="14.12702503111416"><ele>867.3333333333333</ele><time>2026-04-23T13:50:32.001Z</time></trkpt><trkpt lat="42.20296140987017" lon="14.127231957281126"><ele>865.0</ele><time>2026-04-23T13:50:33.001Z</time></trkpt><trkpt lat="42.202977666174135" lon="14.12743682058405"><ele>862.6666666666666</ele><time>2026-04-23T13:50:34.001Z</time></trkpt><trkpt lat="42.202977088030615" lon="14.127636714280976"><ele>860.3333333333333</ele><time>2026-04-23T13:50:35.001Z</time></trkpt><trkpt lat="42.20295632340756" lon="14.127838984677547"><ele>858.0</ele><time>2026-04-23T13:50:36.001Z</time></trkpt><trkpt lat="42.20292719118061" lon="14.12804280191785"><ele>856.25</ele><time>2026-04-23T13:50:37.001Z</time></trkpt><trkpt lat="42.20289601699891" lon="14.128245745803762"><ele>854.5</ele><time>2026-04-23T13:50:38.001Z</time></trkpt><trkpt lat="42.202864473343624" lon="14.128442225503342"><ele>852.75</ele><time>2026-04-23T13:50:39.001Z</time></trkpt><trkpt lat="42.202838264193836" lon="14.128616080631305"><ele>851.0</ele><time>2026-04-23T13:50:40.001Z</time></trkpt><trkpt lat="42.20281071645825" lon="14.12877189733734"><ele>851.0</ele><time>2026-04-23T13:50:41.001Z</time></trkpt><trkpt lat="42.202759488522304" lon="14.128911349934917"><ele>851.0</ele><time>2026-04-23T13:50:42.002Z</time></trkpt><trkpt lat="42.20267693625653" lon="14.129017607432182"><ele>851.0</ele><time>2026-04-23T13:50:43.002Z</time></trkpt><trkpt lat="42.202567664131244" lon="14.129086135715411"><ele>851.0</ele><time>2026-04-23T13:50:44.002Z</time></trkpt><trkpt lat="42.202443457461456" lon="14.129116806207477"><ele>850.8</ele><time>2026-04-23T13:50:45.002Z</time></trkpt><trkpt lat="42.20231663596518" lon="14.129127469495337"><ele>850.5999999999999</ele><time>2026-04-23T13:50:46.002Z</time></trkpt><trkpt lat="42.20220184033776" lon="14.129140807724673"><ele>850.4</ele><time>2026-04-23T13:50:47.001Z</time></trkpt><trkpt lat="42.20210965863983" lon="14.129188888654193"><ele>850.2</ele><time>2026-04-23T13:50:48.001Z</time></trkpt><trkpt lat="42.20205434626709" lon="14.129295931237532"><ele>850.0</ele><time>2026-04-23T13:50:49.001Z</time></trkpt><trkpt lat="42.202015861446924" lon="14.12943454617802"><ele>850.0</ele><time>2026-04-23T13:50:50.001Z</time></trkpt><trkpt lat="42.20205119991661" lon="14.129589017696352"><ele>850.0</ele><time>2026-04-23T13:50:51.001Z</time></trkpt><trkpt lat="42.202125351224595" lon="14.12970538912775"><ele>850.0</ele><time>2026-04-23T13:50:52.001Z</time></trkpt><trkpt lat="42.20231649186383" lon="14.129752863852175"><ele>850.0</ele><time>2026-04-23T13:50:54.001Z</time></trkpt><trkpt lat="42.2024598129257" lon="14.129725175502012"><ele>847.0</ele><time>2026-04-23T13:50:55.001Z</time></trkpt><trkpt lat="42.20261064213217" lon="14.129691751740577"><ele>844.0</ele><time>2026-04-23T13:50:56.001Z</time></trkpt><trkpt lat="42.20276540176441" lon="14.129685409020277"><ele>841.0</ele><time>2026-04-23T13:50:57.001Z</time></trkpt><trkpt lat="42.202908808418634" lon="14.129689393486768"><ele>841.0</ele><time>2026-04-23T13:50:58.001Z</time></trkpt><trkpt lat="42.203049785114096" lon="14.129688043229562"><ele>841.0</ele><time>2026-04-23T13:50:59.001Z</time></trkpt><trkpt lat="42.2031894127962" lon="14.12966810979615"><ele>841.0</ele><time>2026-04-23T13:51:00.001Z</time></trkpt><trkpt lat="42.20332135989709" lon="14.129598122365847"><ele>841.0</ele><time>2026-04-23T13:51:01.001Z</time></trkpt><trkpt lat="42.20343909306151" lon="14.129479028656933"><ele>837.0</ele><time>2026-04-23T13:51:02.001Z</time></trkpt><trkpt lat="42.203545895934916" lon="14.129339060340175"><ele>833.0</ele><time>2026-04-23T13:51:03.001Z</time></trkpt><trkpt lat="42.20366769887332" lon="14.129222794004004"><ele>829.0</ele><time>2026-04-23T13:51:04.001Z</time></trkpt><trkpt lat="42.20382178919155" lon="14.129194919466526"><ele>829.0</ele><time>2026-04-23T13:51:05.001Z</time></trkpt><trkpt lat="42.20397560804539" lon="14.12916327145127"><ele>829.0</ele><time>2026-04-23T13:51:06.001Z</time></trkpt><trkpt lat="42.204129378474015" lon="14.129114159740668"><ele>829.0</ele><time>2026-04-23T13:51:07.001Z</time></trkpt><trkpt lat="42.20429428136186" lon="14.129104677990494"><ele>825.0</ele><time>2026-04-23T13:51:08.001Z</time></trkpt><trkpt lat="42.20446035975747" lon="14.1291312218671"><ele>821.0</ele><time>2026-04-23T13:51:09.001Z</time></trkpt><trkpt lat="42.20462956365716" lon="14.129145645947306"><ele>817.0</ele><time>2026-04-23T13:51:10.001Z</time></trkpt><trkpt lat="42.20480354544188" lon="14.129143261232597"><ele>814.3333333333333</ele><time>2026-04-23T13:51:11.001Z</time></trkpt><trkpt lat="42.20497744200205" lon="14.129159490205327"><ele>811.6666666666667</ele><time>2026-04-23T13:51:12.001Z</time></trkpt><trkpt lat="42.205154248075" lon="14.129174740495012"><ele>809.0</ele><time>2026-04-23T13:51:13.001Z</time></trkpt><trkpt lat="42.20532666708755" lon="14.129235158274835"><ele>809.0</ele><time>2026-04-23T13:51:14.001Z</time></trkpt><trkpt lat="42.20550533988651" lon="14.129301998984067"><ele>809.0</ele><time>2026-04-23T13:51:15.001Z</time></trkpt><trkpt lat="42.20568884159299" lon="14.129353864617654"><ele>809.0</ele><time>2026-04-23T13:51:16.001Z</time></trkpt><trkpt lat="42.205868887648855" lon="14.129432813295708"><ele>805.3333333333334</ele><time>2026-04-23T13:51:17.001Z</time></trkpt><trkpt lat="42.20605208185278" lon="14.129515453457982"><ele>801.6666666666667</ele><time>2026-04-23T13:51:18.001Z</time></trkpt><trkpt lat="42.206233764699654" lon="14.129599584555944"><ele>798.0</ele><time>2026-04-23T13:51:19.001Z</time></trkpt><trkpt lat="42.20640139995437" lon="14.12973765599291"><ele>795.6666666666667</ele><time>2026-04-23T13:51:20.001Z</time></trkpt><trkpt lat="42.20658315248169" lon="14.129857047819511"><ele>793.3333333333334</ele><time>2026-04-23T13:51:21.001Z</time></trkpt><trkpt lat="42.206757333284294" lon="14.130006484600589"><ele>791.0</ele><time>2026-04-23T13:51:22.001Z</time></trkpt><trkpt lat="42.206938891112785" lon="14.13015142856498"><ele>791.0</ele><time>2026-04-23T13:51:23.001Z</time></trkpt><trkpt lat="42.20712416435732" lon="14.13028943971331"><ele>791.0</ele><time>2026-04-23T13:51:24.001Z</time></trkpt><trkpt lat="42.207311084770105" lon="14.130430100964729"><ele>791.0</ele><time>2026-04-23T13:51:25.001Z</time></trkpt><trkpt lat="42.20749767582941" lon="14.130569446796112"><ele>791.6666666666667</ele><time>2026-04-23T13:51:26.001Z</time></trkpt><trkpt lat="42.20768636141243" lon="14.130704001005405"><ele>792.3333333333333</ele><time>2026-04-23T13:51:27.001Z</time></trkpt><trkpt lat="42.20787680654922" lon="14.130833177850702"><ele>793.0</ele><time>2026-04-23T13:51:28.001Z</time></trkpt><trkpt lat="42.20807028957749" lon="14.130963813134159"><ele>791.6666666666666</ele><time>2026-04-23T13:51:29.001Z</time></trkpt><trkpt lat="42.20826121217215" lon="14.131086299544162"><ele>790.3333333333333</ele><time>2026-04-23T13:51:30.001Z</time></trkpt><trkpt lat="42.20845353762399" lon="14.131208403636911"><ele>789.0</ele><time>2026-04-23T13:51:31.001Z</time></trkpt><trkpt lat="42.20864773927323" lon="14.131335933046927"><ele>789.0</ele><time>2026-04-23T13:51:32.001Z</time></trkpt><trkpt lat="42.20884179550056" lon="14.131459927482124"><ele>789.0</ele><time>2026-04-23T13:51:33.001Z</time></trkpt><trkpt lat="42.209033641545545" lon="14.1315878043071"><ele>789.0</ele><time>2026-04-23T13:51:34.001Z</time></trkpt><trkpt lat="42.209223407286686" lon="14.131709667918484"><ele>787.3333333333333</ele><time>2026-04-23T13:51:35.001Z</time></trkpt><trkpt lat="42.20940137283605" lon="14.131828928886852"><ele>785.6666666666666</ele><time>2026-04-23T13:51:36.001Z</time></trkpt><trkpt lat="42.20957150593823" lon="14.13194138301202"><ele>784.0</ele><time>2026-04-23T13:51:37.001Z</time></trkpt><trkpt lat="42.20974000289732" lon="14.132056610110727"><ele>784.3333333333333</ele><time>2026-04-23T13:51:38.001Z</time></trkpt><trkpt lat="42.209905304309395" lon="14.132181727509112"><ele>784.6666666666667</ele><time>2026-04-23T13:51:39.001Z</time></trkpt><trkpt lat="42.2100629364751" lon="14.132312138311658"><ele>785.0</ele><time>2026-04-23T13:51:40.001Z</time></trkpt><trkpt lat="42.21020492235316" lon="14.132444049971859"><ele>785.0</ele><time>2026-04-23T13:51:41.001Z</time></trkpt><trkpt lat="42.21033673655239" lon="14.13257659552853"><ele>785.0</ele><time>2026-04-23T13:51:42.001Z</time></trkpt><trkpt lat="42.21046061190979" lon="14.132700318999643"><ele>785.0</ele><time>2026-04-23T13:51:43.001Z</time></trkpt><trkpt lat="42.2105893973284" lon="14.132796793036631"><ele>783.0</ele><time>2026-04-23T13:51:44.001Z</time></trkpt><trkpt lat="42.21073280386983" lon="14.132848445240313"><ele>781.0</ele><time>2026-04-23T13:51:45.001Z</time></trkpt><trkpt lat="42.21088841949926" lon="14.132853603694207"><ele>779.0</ele><time>2026-04-23T13:51:46.001Z</time></trkpt><trkpt lat="42.211045270046746" lon="14.13283023982821"><ele>779.0</ele><time>2026-04-23T13:51:47.001Z</time></trkpt><trkpt lat="42.21120869131782" lon="14.132818905440814"><ele>779.0</ele><time>2026-04-23T13:51:48.001Z</time></trkpt><trkpt lat="42.211376495350116" lon="14.132814021604698"><ele>779.0</ele><time>2026-04-23T13:51:49.001Z</time></trkpt><trkpt lat="42.21154513124625" lon="14.13281171785836"><ele>778.6666666666667</ele><time>2026-04-23T13:51:50.001Z</time></trkpt><trkpt lat="42.21171791509427" lon="14.132810408822168"><ele>778.3333333333333</ele><time>2026-04-23T13:51:51.001Z</time></trkpt><trkpt lat="42.21188563568699" lon="14.132810561818093"><ele>778.0</ele><time>2026-04-23T13:51:52.001Z</time></trkpt><trkpt lat="42.212046882751444" lon="14.13280851929558"><ele>778.0</ele><time>2026-04-23T13:51:53.001Z</time></trkpt><trkpt lat="42.212206981492265" lon="14.132811382578572"><ele>778.0</ele><time>2026-04-23T13:51:54.001Z</time></trkpt><trkpt lat="42.212365892644584" lon="14.13281559905201"><ele>778.0</ele><time>2026-04-23T13:51:55.001Z</time></trkpt><trkpt lat="42.21251701568531" lon="14.13283540507023"><ele>776.0</ele><time>2026-04-23T13:51:56.001Z</time></trkpt><trkpt lat="42.2126596041014" lon="14.132913274195788"><ele>774.0</ele><time>2026-04-23T13:51:57.001Z</time></trkpt><trkpt lat="42.21279701217683" lon="14.133004752894816"><ele>772.0</ele><time>2026-04-23T13:51:58.001Z</time></trkpt><trkpt lat="42.21293852774936" lon="14.133095558712627"><ele>772.0</ele><time>2026-04-23T13:51:59.001Z</time></trkpt><trkpt lat="42.21307259424216" lon="14.133213045489162"><ele>772.0</ele><time>2026-04-23T13:52:00.001Z</time></trkpt><trkpt lat="42.21333927438961" lon="14.133423411430481"><ele>768.25</ele><time>2026-04-23T13:52:02.001Z</time></trkpt><trkpt lat="42.213467136542576" lon="14.133503906950308"><ele>764.5</ele><time>2026-04-23T13:52:03.001Z</time></trkpt><trkpt lat="42.213601841113004" lon="14.133552499576622"><ele>760.75</ele><time>2026-04-23T13:52:04.001Z</time></trkpt><trkpt lat="42.213740307172706" lon="14.133562960696505"><ele>757.0</ele><time>2026-04-23T13:52:05Z</time></trkpt><trkpt lat="42.21387879192743" lon="14.133550951135721"><ele>755.75</ele><time>2026-04-23T13:52:06Z</time></trkpt><trkpt lat="42.21402080936628" lon="14.133544096232168"><ele>754.5</ele><time>2026-04-23T13:52:07Z</time></trkpt><trkpt lat="42.21416289257194" lon="14.133534902472752"><ele>753.25</ele><time>2026-04-23T13:52:08Z</time></trkpt><trkpt lat="42.21430457515238" lon="14.133524426949533"><ele>752.0</ele><time>2026-04-23T13:52:09Z</time></trkpt><trkpt lat="42.2144341230179" lon="14.133483771500883"><ele>752.0</ele><time>2026-04-23T13:52:10Z</time></trkpt><trkpt lat="42.214554310894655" lon="14.133403882646284"><ele>752.0</ele><time>2026-04-23T13:52:11Z</time></trkpt><trkpt lat="42.21467486498596" lon="14.133285986139704"><ele>752.0</ele><time>2026-04-23T13:52:12Z</time></trkpt><trkpt lat="42.21480308021434" lon="14.133166869387322"><ele>752.0</ele><time>2026-04-23T13:52:13Z</time></trkpt><trkpt lat="42.21494569246718" lon="14.133056598394397"><ele>752.3333333333333</ele><time>2026-04-23T13:52:14Z</time></trkpt><trkpt lat="42.21509564208945" lon="14.132964757318424"><ele>752.6666666666666</ele><time>2026-04-23T13:52:15Z</time></trkpt><trkpt lat="42.21524967993408" lon="14.13287903620318"><ele>753.0</ele><time>2026-04-23T13:52:16Z</time></trkpt><trkpt lat="42.215400141038955" lon="14.13279332365782"><ele>753.0</ele><time>2026-04-23T13:52:17Z</time></trkpt><trkpt lat="42.215552413315194" lon="14.132697310675034"><ele>753.0</ele><time>2026-04-23T13:52:18Z</time></trkpt><trkpt lat="42.21569653630727" lon="14.132599531640018"><ele>753.0</ele><time>2026-04-23T13:52:19Z</time></trkpt><trkpt lat="42.215836740108344" lon="14.132495218548371"><ele>750.5999999999999</ele><time>2026-04-23T13:52:20Z</time></trkpt><trkpt lat="42.21594810126802" lon="14.13239801172922"><ele>748.1999999999999</ele><time>2026-04-23T13:52:21Z</time></trkpt><trkpt lat="42.21602881986225" lon="14.132318860938918"><ele>745.8</ele><time>2026-04-23T13:52:22Z</time></trkpt><trkpt lat="42.216102514787536" lon="14.132270981018122"><ele>743.4</ele><time>2026-04-23T13:52:24.999Z</time></trkpt><trkpt lat="42.216080448926874" lon="14.132382271125856"><ele>741.0</ele><time>2026-04-23T13:54:03.999Z</time></trkpt><trkpt lat="42.21604290456159" lon="14.132457478518235"><ele>739.1999999999999</ele><time>2026-04-23T13:54:04.999Z</time></trkpt><trkpt lat="42.21599650988739" lon="14.132552666072431"><ele>737.4</ele><time>2026-04-23T13:54:05.999Z</time></trkpt><trkpt lat="42.21595315108235" lon="14.132657072311208"><ele>735.6</ele><time>2026-04-23T13:54:06.999Z</time></trkpt><trkpt lat="42.21591627969832" lon="14.13277895964007"><ele>733.8</ele><time>2026-04-23T13:54:07.999Z</time></trkpt><trkpt lat="42.21586004941427" lon="14.132894199590618"><ele>732.0</ele><time>2026-04-23T13:54:08.999Z</time></trkpt><trkpt lat="42.215791214468524" lon="14.132995495218138"><ele>732.0</ele><time>2026-04-23T13:54:09.999Z</time></trkpt><trkpt lat="42.21570728323233" lon="14.133066030661977"><ele>732.0</ele><time>2026-04-23T13:54:10.999Z</time></trkpt><trkpt lat="42.21561481150812" lon="14.133131247674154"><ele>732.0</ele><time>2026-04-23T13:54:11.999Z</time></trkpt><trkpt lat="42.215508440179725" lon="14.133201785769542"><ele>732.0</ele><time>2026-04-23T13:54:12.999Z</time></trkpt><trkpt lat="42.21539977709357" lon="14.13328220817628"><ele>732.0</ele><time>2026-04-23T13:54:13.999Z</time></trkpt><trkpt lat="42.215301828708235" lon="14.133356478184046"><ele>732.5</ele><time>2026-04-23T13:54:14.999Z</time></trkpt><trkpt lat="42.215203362003145" lon="14.133428112178896"><ele>733.0</ele><time>2026-04-23T13:54:15.999Z</time></trkpt><trkpt lat="42.215098296552426" lon="14.133491148429645"><ele>733.5</ele><time>2026-04-23T13:54:16.999Z</time></trkpt><trkpt lat="42.215014018080666" lon="14.133593853735137"><ele>734.0</ele><time>2026-04-23T13:54:17.999Z</time></trkpt><trkpt lat="42.214948282131225" lon="14.133713065404164"><ele>734.0</ele><time>2026-04-23T13:54:18.999Z</time></trkpt><trkpt lat="42.21493222673664" lon="14.133880758263334"><ele>734.0</ele><time>2026-04-23T13:54:19.999Z</time></trkpt><trkpt lat="42.21493523321284" lon="14.134035617647152"><ele>734.0</ele><time>2026-04-23T13:54:20.999Z</time></trkpt><trkpt lat="42.214936405260445" lon="14.134202358407682"><ele>734.0</ele><time>2026-04-23T13:54:21.999Z</time></trkpt><trkpt lat="42.21492907425152" lon="14.134381614108374"><ele>729.0</ele><time>2026-04-23T13:54:22.999Z</time></trkpt><trkpt lat="42.21490933496629" lon="14.134558415325264"><ele>724.0</ele><time>2026-04-23T13:54:23.999Z</time></trkpt><trkpt lat="42.214884321781604" lon="14.134729679955246"><ele>719.0</ele><time>2026-04-23T13:54:24.999Z</time></trkpt><trkpt lat="42.214861613930935" lon="14.134906581248202"><ele>714.0</ele><time>2026-04-23T13:54:25.999Z</time></trkpt><trkpt lat="42.21484189167807" lon="14.135093918206147"><ele>713.0</ele><time>2026-04-23T13:54:26.999Z</time></trkpt><trkpt lat="42.214825712880064" lon="14.135290486974041"><ele>712.0</ele><time>2026-04-23T13:54:27.999Z</time></trkpt><trkpt lat="42.21481065395656" lon="14.13548919460069"><ele>711.0</ele><time>2026-04-23T13:54:28.999Z</time></trkpt><trkpt lat="42.21481430166738" lon="14.135684180857549"><ele>710.0</ele><time>2026-04-23T13:54:29.999Z</time></trkpt><trkpt lat="42.2147995948251" lon="14.135871399703882"><ele>710.0</ele><time>2026-04-23T13:54:30.999Z</time></trkpt><trkpt lat="42.214767201610194" lon="14.136052364288297"><ele>710.0</ele><time>2026-04-23T13:54:31.999Z</time></trkpt><trkpt lat="42.21474368790013" lon="14.136227498343583"><ele>710.0</ele><time>2026-04-23T13:54:32.999Z</time></trkpt><trkpt lat="42.214712288195344" lon="14.136393133890545"><ele>710.0</ele><time>2026-04-23T13:54:33.999Z</time></trkpt><trkpt lat="42.21468087198919" lon="14.136552070305987"><ele>706.6</ele><time>2026-04-23T13:54:34.999Z</time></trkpt><trkpt lat="42.21465966751151" lon="14.136717483853907"><ele>703.2</ele><time>2026-04-23T13:54:35.999Z</time></trkpt><trkpt lat="42.21462070342173" lon="14.136859196032718"><ele>699.8</ele><time>2026-04-23T13:54:36.999Z</time></trkpt><trkpt lat="42.21456978819082" lon="14.13697931258348"><ele>696.4</ele><time>2026-04-23T13:54:37.999Z</time></trkpt><trkpt lat="42.21450494662547" lon="14.137069553195628"><ele>693.0</ele><time>2026-04-23T13:54:38.999Z</time></trkpt><trkpt lat="42.214420284176924" lon="14.13709076700374"><ele>693.0</ele><time>2026-04-23T13:54:39.999Z</time></trkpt><trkpt lat="42.214336372872204" lon="14.137089040101246"><ele>693.0</ele><time>2026-04-23T13:54:40.999Z</time></trkpt><trkpt lat="42.21424606836046" lon="14.137057234185267"><ele>693.0</ele><time>2026-04-23T13:54:41.999Z</time></trkpt><trkpt lat="42.21414512898288" lon="14.137033106981265"><ele>693.0</ele><time>2026-04-23T13:54:42.999Z</time></trkpt><trkpt lat="42.21404683701839" lon="14.136947586583332"><ele>693.0</ele><time>2026-04-23T13:54:43.999Z</time></trkpt><trkpt lat="42.213953805432666" lon="14.136843901205305"><ele>692.8333333333334</ele><time>2026-04-23T13:54:44.999Z</time></trkpt><trkpt lat="42.2138747532225" lon="14.136744873939888"><ele>692.6666666666666</ele><time>2026-04-23T13:54:45.999Z</time></trkpt><trkpt lat="42.21380496022309" lon="14.136643319887726"><ele>692.5</ele><time>2026-04-23T13:54:46.999Z</time></trkpt><trkpt lat="42.21374435803634" lon="14.136572373864654"><ele>692.3333333333333</ele><time>2026-04-23T13:54:47.999Z</time></trkpt><trkpt lat="42.21368481018232" lon="14.136514917173715"><ele>692.1666666666666</ele><time>2026-04-23T13:54:48.999Z</time></trkpt><trkpt lat="42.213609216915565" lon="14.136513529027994"><ele>692.0</ele><time>2026-04-23T13:54:49.999Z</time></trkpt><trkpt lat="42.21354542537006" lon="14.136582497213166"><ele>692.0</ele><time>2026-04-23T13:54:50.999Z</time></trkpt><trkpt lat="42.21353785480391" lon="14.136711421995626"><ele>692.0</ele><time>2026-04-23T13:54:51.999Z</time></trkpt><trkpt lat="42.213601118289034" lon="14.136798775779178"><ele>692.0</ele><time>2026-04-23T13:54:52.999Z</time></trkpt><trkpt lat="42.21364294252602" lon="14.136906630756851"><ele>692.0</ele><time>2026-04-23T13:54:54Z</time></trkpt><trkpt lat="42.213713244939875" lon="14.137026987639361"><ele>692.0</ele><time>2026-04-23T13:54:55Z</time></trkpt><trkpt lat="42.21378431452836" lon="14.137145788798778"><ele>692.0</ele><time>2026-04-23T13:54:56Z</time></trkpt><trkpt lat="42.213855644917786" lon="14.137262421630767"><ele>692.0</ele><time>2026-04-23T13:54:57Z</time></trkpt><trkpt lat="42.21392957455802" lon="14.13737964734306"><ele>692.0</ele><time>2026-04-23T13:54:58Z</time></trkpt><trkpt lat="42.21401534648366" lon="14.13748878397072"><ele>692.0</ele><time>2026-04-23T13:54:59Z</time></trkpt><trkpt lat="42.214100213608134" lon="14.137607479793887"><ele>688.25</ele><time>2026-04-23T13:55:00Z</time></trkpt><trkpt lat="42.2141802429619" lon="14.137740784076732"><ele>684.5</ele><time>2026-04-23T13:55:01Z</time></trkpt><trkpt lat="42.21427427110375" lon="14.137848391031309"><ele>680.75</ele><time>2026-04-23T13:55:02Z</time></trkpt><trkpt lat="42.21437245468251" lon="14.137948959245728"><ele>677.0</ele><time>2026-04-23T13:55:03Z</time></trkpt><trkpt lat="42.214467231853554" lon="14.138046038309255"><ele>677.0</ele><time>2026-04-23T13:55:04Z</time></trkpt><trkpt lat="42.214559713057675" lon="14.138139547579677"><ele>677.0</ele><time>2026-04-23T13:55:05Z</time></trkpt><trkpt lat="42.21463808442971" lon="14.138214237058728"><ele>677.0</ele><time>2026-04-23T13:55:06Z</time></trkpt><trkpt lat="42.21471645865475" lon="14.13832951067939"><ele>677.0</ele><time>2026-04-23T13:55:08Z</time></trkpt><trkpt lat="42.214669678544396" lon="14.138434070989467"><ele>677.0</ele><time>2026-04-23T13:55:10Z</time></trkpt><trkpt lat="42.214541652553294" lon="14.138447921920655"><ele>677.0</ele><time>2026-04-23T13:55:12Z</time></trkpt><trkpt lat="42.2144599551041" lon="14.138376247855135"><ele>677.0</ele><time>2026-04-23T13:55:13Z</time></trkpt><trkpt lat="42.21437543395879" lon="14.138290636882973"><ele>677.0</ele><time>2026-04-23T13:55:14Z</time></trkpt><trkpt lat="42.214288931871366" lon="14.138200085716516"><ele>677.0</ele><time>2026-04-23T13:55:15Z</time></trkpt><trkpt lat="42.21419862459315" lon="14.138110678460096"><ele>677.0</ele><time>2026-04-23T13:55:16Z</time></trkpt><trkpt lat="42.214113613179634" lon="14.138030338316424"><ele>677.0</ele><time>2026-04-23T13:55:17Z</time></trkpt><trkpt lat="42.21403479578997" lon="14.137951526212229"><ele>677.0</ele><time>2026-04-23T13:55:18Z</time></trkpt><trkpt lat="42.213963740508085" lon="14.13787633269764"><ele>677.0</ele><time>2026-04-23T13:55:19Z</time></trkpt><trkpt lat="42.213897560715125" lon="14.137827678845088"><ele>677.0</ele><time>2026-04-23T13:55:20Z</time></trkpt><trkpt lat="42.213828941269604" lon="14.137815297332475"><ele>677.0</ele><time>2026-04-23T13:55:21Z</time></trkpt><trkpt lat="42.21375997035069" lon="14.137858483489536"><ele>677.0</ele><time>2026-04-23T13:55:22Z</time></trkpt><trkpt lat="42.2137283120357" lon="14.137995158264498"><ele>677.3333333333333</ele><time>2026-04-23T13:55:23Z</time></trkpt><trkpt lat="42.21375182464596" lon="14.138077208645795"><ele>677.6666666666666</ele><time>2026-04-23T13:55:24Z</time></trkpt><trkpt lat="42.213837321429644" lon="14.138146372239031"><ele>678.0</ele><time>2026-04-23T13:55:25Z</time></trkpt><trkpt lat="42.21389644430213" lon="14.138222334456993"><ele>678.3333333333334</ele><time>2026-04-23T13:55:26Z</time></trkpt><trkpt lat="42.213962655252075" lon="14.138321183335583"><ele>678.6666666666667</ele><time>2026-04-23T13:55:27Z</time></trkpt><trkpt lat="42.21402213786781" lon="14.138427712446044"><ele>679.0</ele><time>2026-04-23T13:55:28Z</time></trkpt><trkpt lat="42.21407562434464" lon="14.138552279240683"><ele>675.6</ele><time>2026-04-23T13:55:29Z</time></trkpt><trkpt lat="42.21410406753843" lon="14.1386968664918"><ele>672.2</ele><time>2026-04-23T13:55:30Z</time></trkpt><trkpt lat="42.214143907869556" lon="14.138829419606486"><ele>668.8000000000001</ele><time>2026-04-23T13:55:31Z</time></trkpt><trkpt lat="42.21418105508121" lon="14.138947649237133"><ele>665.4000000000001</ele><time>2026-04-23T13:55:32Z</time></trkpt><trkpt lat="42.21417805113632" lon="14.139061612561385"><ele>662.0</ele><time>2026-04-23T13:55:33Z</time></trkpt><trkpt lat="42.21415122431136" lon="14.13916714125056"><ele>659.5</ele><time>2026-04-23T13:55:34Z</time></trkpt><trkpt lat="42.2141263130339" lon="14.139256511599978"><ele>657.0</ele><time>2026-04-23T13:55:35Z</time></trkpt><trkpt lat="42.21411403216277" lon="14.139428139747109"><ele>654.5</ele><time>2026-04-23T13:55:37Z</time></trkpt><trkpt lat="42.21414044164536" lon="14.139514862556966"><ele>652.0</ele><time>2026-04-23T13:55:38Z</time></trkpt><trkpt lat="42.21418228482162" lon="14.13958369879674"><ele>649.5</ele><time>2026-04-23T13:55:39Z</time></trkpt><trkpt lat="42.21423217630327" lon="14.139646675065267"><ele>647.0</ele><time>2026-04-23T13:55:40Z</time></trkpt><trkpt lat="42.21429082416731" lon="14.13970687266784"><ele>647.0</ele><time>2026-04-23T13:55:41Z</time></trkpt><trkpt lat="42.21435888447082" lon="14.139764278000172"><ele>647.0</ele><time>2026-04-23T13:55:42Z</time></trkpt><trkpt lat="42.214435405660915" lon="14.139843333969674"><ele>647.0</ele><time>2026-04-23T13:55:43Z</time></trkpt><trkpt lat="42.214507900067325" lon="14.139918712649623"><ele>647.0</ele><time>2026-04-23T13:55:44Z</time></trkpt><trkpt lat="42.21458473098163" lon="14.139987260164798"><ele>647.0</ele><time>2026-04-23T13:55:45Z</time></trkpt><trkpt lat="42.21466717540383" lon="14.140032800683656"><ele>647.0</ele><time>2026-04-23T13:55:46Z</time></trkpt><trkpt lat="42.214753958352965" lon="14.140039683484739"><ele>644.3333333333333</ele><time>2026-04-23T13:55:47Z</time></trkpt><trkpt lat="42.21483711460332" lon="14.140017817847847"><ele>641.6666666666666</ele><time>2026-04-23T13:55:48Z</time></trkpt><trkpt lat="42.21491920401566" lon="14.14001034367496"><ele>639.0</ele><time>2026-04-23T13:55:49Z</time></trkpt><trkpt lat="42.21499166083925" lon="14.140071598955162"><ele>636.3333333333334</ele><time>2026-04-23T13:55:50Z</time></trkpt><trkpt lat="42.215061461477504" lon="14.140116766895266"><ele>633.6666666666667</ele><time>2026-04-23T13:55:51Z</time></trkpt><trkpt lat="42.21512855216556" lon="14.140154102988388"><ele>631.0</ele><time>2026-04-23T13:55:51.999Z</time></trkpt><trkpt lat="42.21519614415591" lon="14.140161703049083"><ele>631.0</ele><time>2026-04-23T13:55:52.999Z</time></trkpt><trkpt lat="42.215253736755706" lon="14.140196371319549"><ele>631.0</ele><time>2026-04-23T13:55:53.999Z</time></trkpt><trkpt lat="42.21534853718009" lon="14.140307144892896"><ele>631.0</ele><time>2026-04-23T13:55:55.999Z</time></trkpt><trkpt lat="42.215456140180116" lon="14.14036439024899"><ele>631.0</ele><time>2026-04-23T13:55:57.999Z</time></trkpt><trkpt lat="42.215577035967534" lon="14.14039457057682"><ele>631.0</ele><time>2026-04-23T13:55:59.999Z</time></trkpt><trkpt lat="42.215654519326925" lon="14.140384365591181"><ele>630.6666666666667</ele><time>2026-04-23T13:56:00.999Z</time></trkpt><trkpt lat="42.2157359966009" lon="14.14036716744093"><ele>630.3333333333334</ele><time>2026-04-23T13:56:01.999Z</time></trkpt><trkpt lat="42.21581936701794" lon="14.14033561778744"><ele>630.0</ele><time>2026-04-23T13:56:02.999Z</time></trkpt><trkpt lat="42.21588219126631" lon="14.140312011409044"><ele>629.6666666666666</ele><time>2026-04-23T13:56:03.999Z</time></trkpt><trkpt lat="42.2159550202928" lon="14.14027053118289"><ele>629.3333333333333</ele><time>2026-04-23T13:56:05.999Z</time></trkpt><trkpt lat="42.216030970557895" lon="14.140215234257449"><ele>629.0</ele><time>2026-04-23T13:56:12.999Z</time></trkpt><trkpt lat="42.216098571337625" lon="14.14010184520894"><ele>629.0</ele><time>2026-04-23T13:56:14.999Z</time></trkpt><trkpt lat="42.216190485822295" lon="14.140097392611176"><ele>629.0</ele><time>2026-04-23T13:56:15.999Z</time></trkpt><trkpt lat="42.21630540809162" lon="14.140058125169062"><ele>629.0</ele><time>2026-04-23T13:56:17.999Z</time></trkpt><trkpt lat="42.216489508923985" lon="14.140070572364806"><ele>629.0</ele><time>2026-04-23T13:56:19.999Z</time></trkpt><trkpt lat="42.21658259808558" lon="14.140084256217103"><ele>625.1666666666666</ele><time>2026-04-23T13:56:20.999Z</time></trkpt><trkpt lat="42.21667365211005" lon="14.140105743920115"><ele>621.3333333333333</ele><time>2026-04-23T13:56:21.999Z</time></trkpt><trkpt lat="42.216758872969976" lon="14.14013735311456"><ele>617.5</ele><time>2026-04-23T13:56:22.999Z</time></trkpt><trkpt lat="42.21683380713274" lon="14.140176325554002"><ele>613.6666666666666</ele><time>2026-04-23T13:56:23.999Z</time></trkpt><trkpt lat="42.21690076513396" lon="14.140221224689906"><ele>609.8333333333334</ele><time>2026-04-23T13:56:24.999Z</time></trkpt><trkpt lat="42.216961731426885" lon="14.140270026618982"><ele>606.0</ele><time>2026-04-23T13:56:25.999Z</time></trkpt><trkpt lat="42.21702018309179" lon="14.140303603261069"><ele>606.0</ele><time>2026-04-23T13:56:26.999Z</time></trkpt><trkpt lat="42.21712432395601" lon="14.140366407734115"><ele>606.0</ele><time>2026-04-23T13:56:28.999Z</time></trkpt><trkpt lat="42.21719687415126" lon="14.140366175737276"><ele>606.0</ele><time>2026-04-23T13:56:29.999Z</time></trkpt><trkpt lat="42.21726120300611" lon="14.14042726407272"><ele>606.0</ele><time>2026-04-23T13:56:30.999Z</time></trkpt><trkpt lat="42.21734402088483" lon="14.140492364023094"><ele>606.0</ele><time>2026-04-23T13:56:31.999Z</time></trkpt><trkpt lat="42.217429292790115" lon="14.14056211423057"><ele>601.3333333333334</ele><time>2026-04-23T13:56:32.999Z</time></trkpt><trkpt lat="42.2175016800528" lon="14.140632437193135"><ele>596.6666666666666</ele><time>2026-04-23T13:56:33.999Z</time></trkpt><trkpt lat="42.21754967556775" lon="14.140721866666773"><ele>592.0</ele><time>2026-04-23T13:56:34.999Z</time></trkpt><trkpt lat="42.217563144630226" lon="14.14081988357393"><ele>587.3333333333333</ele><time>2026-04-23T13:56:35.999Z</time></trkpt><trkpt lat="42.21755181450141" lon="14.140910895486718"><ele>582.6666666666666</ele><time>2026-04-23T13:56:36.999Z</time></trkpt><trkpt lat="42.217523773715875" lon="14.141018918447516"><ele>578.0</ele><time>2026-04-23T13:56:37.999Z</time></trkpt><trkpt lat="42.217480674496294" lon="14.141131942918914"><ele>578.0</ele><time>2026-04-23T13:56:38.999Z</time></trkpt><trkpt lat="42.21743995782902" lon="14.141242094926726"><ele>578.0</ele><time>2026-04-23T13:56:39.999Z</time></trkpt><trkpt lat="42.21740997592013" lon="14.141348964507376"><ele>578.0</ele><time>2026-04-23T13:56:40.999Z</time></trkpt><trkpt lat="42.217364818121986" lon="14.141444910472545"><ele>578.0</ele><time>2026-04-23T13:56:41.999Z</time></trkpt><trkpt lat="42.21733166654257" lon="14.141545390868789"><ele>578.0</ele><time>2026-04-23T13:56:42.999Z</time></trkpt><trkpt lat="42.21728964559257" lon="14.141621115888961"><ele>578.0</ele><time>2026-04-23T13:56:43.999Z</time></trkpt><trkpt lat="42.217191310545196" lon="14.141703207574842"><ele>576.4</ele><time>2026-04-23T13:56:45.999Z</time></trkpt><trkpt lat="42.21715489420469" lon="14.141783636881092"><ele>574.8</ele><time>2026-04-23T13:56:47.999Z</time></trkpt><trkpt lat="42.21731496497009" lon="14.14175933263018"><ele>573.2</ele><time>2026-04-23T13:56:51.999Z</time></trkpt><trkpt lat="42.217386596772705" lon="14.141719610146243"><ele>571.6</ele><time>2026-04-23T13:56:52.999Z</time></trkpt><trkpt lat="42.21745050162419" lon="14.141646285745407"><ele>570.0</ele><time>2026-04-23T13:56:53.999Z</time></trkpt><trkpt lat="42.217523403552704" lon="14.141587680311165"><ele>571.6</ele><time>2026-04-23T13:56:54.999Z</time></trkpt><trkpt lat="42.21759511587295" lon="14.141528847231486"><ele>573.2</ele><time>2026-04-23T13:56:55.999Z</time></trkpt><trkpt lat="42.21767160496309" lon="14.141464153958978"><ele>574.8</ele><time>2026-04-23T13:56:56.999Z</time></trkpt><trkpt lat="42.217746578517236" lon="14.14139906769458"><ele>576.4</ele><time>2026-04-23T13:56:57.999Z</time></trkpt><trkpt lat="42.21782663633707" lon="14.141343265390512"><ele>578.0</ele><time>2026-04-23T13:56:58.999Z</time></trkpt><trkpt lat="42.217872409279614" lon="14.14122540933457"><ele>578.0</ele><time>2026-04-23T13:57:00Z</time></trkpt><trkpt lat="42.21791948996941" lon="14.141111261722525"><ele>578.0</ele><time>2026-04-23T13:57:01Z</time></trkpt><trkpt lat="42.21796481628573" lon="14.140993693684864"><ele>578.0</ele><time>2026-04-23T13:57:02Z</time></trkpt><trkpt lat="42.21800691893192" lon="14.140881909612288"><ele>578.0</ele><time>2026-04-23T13:57:03Z</time></trkpt><trkpt lat="42.21804390811901" lon="14.140778147030193"><ele>578.0</ele><time>2026-04-23T13:57:04Z</time></trkpt><trkpt lat="42.21808457018525" lon="14.140681701571772"><ele>577.8333333333333</ele><time>2026-04-23T13:57:05Z</time></trkpt><trkpt lat="42.21812995982452" lon="14.140586041170394"><ele>577.6666666666666</ele><time>2026-04-23T13:57:06Z</time></trkpt><trkpt lat="42.21815834848784" lon="14.140503041072519"><ele>577.5</ele><time>2026-04-23T13:57:07Z</time></trkpt><trkpt lat="42.21826346793781" lon="14.140521337722369"><ele>577.3333333333334</ele><time>2026-04-23T13:57:09Z</time></trkpt><trkpt lat="42.21828818546316" lon="14.140599971110332"><ele>577.1666666666667</ele><time>2026-04-23T13:57:10Z</time></trkpt><trkpt lat="42.21828094208717" lon="14.14068967423479"><ele>577.0</ele><time>2026-04-23T13:57:11Z</time></trkpt><trkpt lat="42.21822283783739" lon="14.140767275170964"><ele>577.2</ele><time>2026-04-23T13:57:12Z</time></trkpt><trkpt lat="42.218183219138574" lon="14.140865548726072"><ele>577.4000000000001</ele><time>2026-04-23T13:57:13Z</time></trkpt><trkpt lat="42.218150438889666" lon="14.140982674808008"><ele>577.5999999999999</ele><time>2026-04-23T13:57:14Z</time></trkpt><trkpt lat="42.218143762992625" lon="14.141120168348428"><ele>577.8</ele><time>2026-04-23T13:57:15Z</time></trkpt><trkpt lat="42.21812723393333" lon="14.14124480794588"><ele>578.0</ele><time>2026-04-23T13:57:16Z</time></trkpt><trkpt lat="42.21811121421001" lon="14.141382108645493"><ele>578.0</ele><time>2026-04-23T13:57:17Z</time></trkpt><trkpt lat="42.21806904061531" lon="14.141503635934978"><ele>578.0</ele><time>2026-04-23T13:57:18Z</time></trkpt><trkpt lat="42.21801885344904" lon="14.141583960468585"><ele>578.0</ele><time>2026-04-23T13:57:19Z</time></trkpt><trkpt lat="42.21797297259717" lon="14.14168180180522"><ele>578.0</ele><time>2026-04-23T13:57:20Z</time></trkpt><trkpt lat="42.21793504890312" lon="14.141785826197461"><ele>578.0</ele><time>2026-04-23T13:57:21Z</time></trkpt><trkpt lat="42.21789099526559" lon="14.14187437215982"><ele>578.0</ele><time>2026-04-23T13:57:22Z</time></trkpt><trkpt lat="42.21785363265484" lon="14.141962336509069"><ele>576.4</ele><time>2026-04-23T13:57:23Z</time></trkpt><trkpt lat="42.217845580802624" lon="14.142094967991047"><ele>574.8</ele><time>2026-04-23T13:57:25Z</time></trkpt><trkpt lat="42.21793998977065" lon="14.142099907748685"><ele>573.2</ele><time>2026-04-23T13:57:27Z</time></trkpt><trkpt lat="42.21803077260436" lon="14.14194524391677"><ele>571.6</ele><time>2026-04-23T13:57:29Z</time></trkpt><trkpt lat="42.21809078191389" lon="14.141845396042102"><ele>570.0</ele><time>2026-04-23T13:57:30Z</time></trkpt><trkpt lat="42.21816360252619" lon="14.141723208907527"><ele>564.0</ele><time>2026-04-23T13:57:31Z</time></trkpt><trkpt lat="42.21824500525723" lon="14.14159086312788"><ele>558.0</ele><time>2026-04-23T13:57:32Z</time></trkpt><trkpt lat="42.21832916899005" lon="14.141475104012851"><ele>552.0</ele><time>2026-04-23T13:57:33Z</time></trkpt><trkpt lat="42.218405523799284" lon="14.14134796384887"><ele>546.0</ele><time>2026-04-23T13:57:34Z</time></trkpt><trkpt lat="42.2184827973691" lon="14.141231377010948"><ele>546.0</ele><time>2026-04-23T13:57:35Z</time></trkpt><trkpt lat="42.21855437219723" lon="14.14111724982465"><ele>546.0</ele><time>2026-04-23T13:57:36Z</time></trkpt><trkpt lat="42.21863178678275" lon="14.141005422953208"><ele>546.0</ele><time>2026-04-23T13:57:37Z</time></trkpt><trkpt lat="42.21870759384567" lon="14.140895399996738"><ele>546.0</ele><time>2026-04-23T13:57:38Z</time></trkpt><trkpt lat="42.21878629607708" lon="14.140784960603781"><ele>546.0</ele><time>2026-04-23T13:57:39Z</time></trkpt><trkpt lat="42.2188744225471" lon="14.140686008992981"><ele>545.4</ele><time>2026-04-23T13:57:40Z</time></trkpt><trkpt lat="42.2189600930918" lon="14.140593460653403"><ele>544.8</ele><time>2026-04-23T13:57:41Z</time></trkpt><trkpt lat="42.2190368782496" lon="14.140497083395415"><ele>544.1999999999999</ele><time>2026-04-23T13:57:42Z</time></trkpt><trkpt lat="42.2191110513264" lon="14.140396394047695"><ele>543.6</ele><time>2026-04-23T13:57:42.999Z</time></trkpt><trkpt lat="42.219172563592124" lon="14.140325585827393"><ele>543.0</ele><time>2026-04-23T13:57:43.999Z</time></trkpt><trkpt lat="42.21924478850806" lon="14.14022780333774"><ele>539.6</ele><time>2026-04-23T13:57:45.999Z</time></trkpt><trkpt lat="42.219307228809804" lon="14.140309561799507"><ele>536.1999999999999</ele><time>2026-04-23T13:57:48.999Z</time></trkpt><trkpt lat="42.21922997205598" lon="14.140455551346387"><ele>532.8</ele><time>2026-04-23T13:57:50.999Z</time></trkpt><trkpt lat="42.219168361171015" lon="14.140544196815528"><ele>529.4</ele><time>2026-04-23T13:57:51.999Z</time></trkpt><trkpt lat="42.2191017474331" lon="14.140641171850477"><ele>526.0</ele><time>2026-04-23T13:57:52.999Z</time></trkpt><trkpt lat="42.21903182329825" lon="14.140752168229197"><ele>530.0</ele><time>2026-04-23T13:57:53.999Z</time></trkpt><trkpt lat="42.21896067618177" lon="14.14086788898087"><ele>534.0</ele><time>2026-04-23T13:57:54.999Z</time></trkpt><trkpt lat="42.21888437664402" lon="14.140983686895348"><ele>538.0</ele><time>2026-04-23T13:57:55.999Z</time></trkpt><trkpt lat="42.21882117955033" lon="14.141103066270173"><ele>542.0</ele><time>2026-04-23T13:57:56.999Z</time></trkpt><trkpt lat="42.21876348473316" lon="14.141216905666292"><ele>546.0</ele><time>2026-04-23T13:57:57.999Z</time></trkpt><trkpt lat="42.21871685678198" lon="14.141331373532418"><ele>546.0</ele><time>2026-04-23T13:57:58.999Z</time></trkpt><trkpt lat="42.218698263739306" lon="14.141465569969899"><ele>546.0</ele><time>2026-04-23T13:57:59.999Z</time></trkpt><trkpt lat="42.21868953647464" lon="14.141606002621755"><ele>546.0</ele><time>2026-04-23T13:58:00.999Z</time></trkpt><trkpt lat="42.218674458753014" lon="14.141751259451606"><ele>546.0</ele><time>2026-04-23T13:58:01.999Z</time></trkpt><trkpt lat="42.2186476591829" lon="14.141893318764268"><ele>546.0</ele><time>2026-04-23T13:58:02.999Z</time></trkpt><trkpt lat="42.21858522455756" lon="14.142024139579902"><ele>543.75</ele><time>2026-04-23T13:58:03.999Z</time></trkpt><trkpt lat="42.21851925243366" lon="14.14215706891818"><ele>541.5</ele><time>2026-04-23T13:58:04.999Z</time></trkpt><trkpt lat="42.21845665308199" lon="14.142298399475226"><ele>539.25</ele><time>2026-04-23T13:58:05.999Z</time></trkpt><trkpt lat="42.218379888374805" lon="14.142431453571868"><ele>537.0</ele><time>2026-04-23T13:58:06.999Z</time></trkpt><trkpt lat="42.218309274829444" lon="14.142574040768972"><ele>539.75</ele><time>2026-04-23T13:58:07.999Z</time></trkpt><trkpt lat="42.218235968222345" lon="14.14271276989037"><ele>542.5</ele><time>2026-04-23T13:58:08.999Z</time></trkpt><trkpt lat="42.218162734772356" lon="14.142848863261108"><ele>545.25</ele><time>2026-04-23T13:58:09.999Z</time></trkpt><trkpt lat="42.21809079507087" lon="14.142988299119862"><ele>548.0</ele><time>2026-04-23T13:58:10.999Z</time></trkpt><trkpt lat="42.218019563718805" lon="14.143116187602093"><ele>543.1999999999999</ele><time>2026-04-23T13:58:11.999Z</time></trkpt><trkpt lat="42.217955003306386" lon="14.14323803645746"><ele>538.4</ele><time>2026-04-23T13:58:12.999Z</time></trkpt><trkpt lat="42.21789425535372" lon="14.143355868510826"><ele>533.5999999999999</ele><time>2026-04-23T13:58:13.999Z</time></trkpt><trkpt lat="42.21783231397167" lon="14.143464972540762"><ele>528.8</ele><time>2026-04-23T13:58:14.999Z</time></trkpt><trkpt lat="42.21776530941158" lon="14.143567966048701"><ele>524.0</ele><time>2026-04-23T13:58:15.999Z</time></trkpt><trkpt lat="42.21768224415123" lon="14.143644702917449"><ele>524.0</ele><time>2026-04-23T13:58:16.999Z</time></trkpt><trkpt lat="42.21758884629183" lon="14.143695295080587"><ele>524.0</ele><time>2026-04-23T13:58:17.999Z</time></trkpt><trkpt lat="42.21749022299535" lon="14.143722584035338"><ele>524.0</ele><time>2026-04-23T13:58:18.999Z</time></trkpt><trkpt lat="42.217395244953714" lon="14.143749758302702"><ele>524.0</ele><time>2026-04-23T13:58:19.999Z</time></trkpt><trkpt lat="42.21730836633819" lon="14.143786363834419"><ele>524.0</ele><time>2026-04-23T13:58:20.999Z</time></trkpt><trkpt lat="42.21723299169216" lon="14.143832898970654"><ele>525.1428571428571</ele><time>2026-04-23T13:58:21.999Z</time></trkpt><trkpt lat="42.2171853131657" lon="14.143909481752894"><ele>526.2857142857143</ele><time>2026-04-23T13:58:22.999Z</time></trkpt><trkpt lat="42.217163150422195" lon="14.144003869618567"><ele>527.4285714285714</ele><time>2026-04-23T13:58:23.999Z</time></trkpt><trkpt lat="42.217178633768015" lon="14.14410257390234"><ele>528.5714285714286</ele><time>2026-04-23T13:58:24.999Z</time></trkpt><trkpt lat="42.21722701319212" lon="14.144182358884992"><ele>529.7142857142858</ele><time>2026-04-23T13:58:25.999Z</time></trkpt><trkpt lat="42.21729361930586" lon="14.144220935758042"><ele>530.8571428571429</ele><time>2026-04-23T13:58:26.999Z</time></trkpt><trkpt lat="42.217364444044854" lon="14.144218913870104"><ele>532.0</ele><time>2026-04-23T13:58:27.999Z</time></trkpt><trkpt lat="42.21743582974199" lon="14.144185890312839"><ele>530.4</ele><time>2026-04-23T13:58:28.999Z</time></trkpt><trkpt lat="42.21750978338833" lon="14.144141490379704"><ele>528.8000000000001</ele><time>2026-04-23T13:58:29.999Z</time></trkpt><trkpt lat="42.21758599892644" lon="14.144084592162539"><ele>527.2</ele><time>2026-04-23T13:58:30.999Z</time></trkpt><trkpt lat="42.21766894155146" lon="14.144023438026277"><ele>525.6</ele><time>2026-04-23T13:58:31.999Z</time></trkpt><trkpt lat="42.21775701299461" lon="14.143972584334607"><ele>524.0</ele><time>2026-04-23T13:58:32.999Z</time></trkpt><trkpt lat="42.21785104059083" lon="14.143941873817406"><ele>524.0</ele><time>2026-04-23T13:58:33.999Z</time></trkpt><trkpt lat="42.217957900438506" lon="14.143952103183956"><ele>524.0</ele><time>2026-04-23T13:58:34.999Z</time></trkpt><trkpt lat="42.218079049927105" lon="14.14397609403423"><ele>524.0</ele><time>2026-04-23T13:58:35.999Z</time></trkpt><trkpt lat="42.21821530234849" lon="14.143990213246447"><ele>524.0</ele><time>2026-04-23T13:58:36.999Z</time></trkpt><trkpt lat="42.21835068273602" lon="14.144022983580815"><ele>516.75</ele><time>2026-04-23T13:58:37.999Z</time></trkpt><trkpt lat="42.2184788016391" lon="14.144060351032781"><ele>509.5</ele><time>2026-04-23T13:58:38.999Z</time></trkpt><trkpt lat="42.218597430895684" lon="14.144114186696447"><ele>502.25</ele><time>2026-04-23T13:58:39.999Z</time></trkpt><trkpt lat="42.218706779541954" lon="14.144175725511197"><ele>495.0</ele><time>2026-04-23T13:58:40.999Z</time></trkpt><trkpt lat="42.21881533158975" lon="14.144226112719796"><ele>495.0</ele><time>2026-04-23T13:58:41.999Z</time></trkpt><trkpt lat="42.218931955175385" lon="14.144250576740491"><ele>495.0</ele><time>2026-04-23T13:58:42.999Z</time></trkpt><trkpt lat="42.21905362868658" lon="14.1442366387508"><ele>495.0</ele><time>2026-04-23T13:58:43.999Z</time></trkpt><trkpt lat="42.21917047760395" lon="14.14418203561833"><ele>495.0</ele><time>2026-04-23T13:58:44.999Z</time></trkpt><trkpt lat="42.21927784945019" lon="14.144111252156284"><ele>494.6</ele><time>2026-04-23T13:58:45.999Z</time></trkpt><trkpt lat="42.219377797742155" lon="14.14404837052857"><ele>494.2</ele><time>2026-04-23T13:58:46.999Z</time></trkpt><trkpt lat="42.219476563958956" lon="14.144015116354279"><ele>493.79999999999995</ele><time>2026-04-23T13:58:47.999Z</time></trkpt><trkpt lat="42.21958575205463" lon="14.144012503547545"><ele>493.4</ele><time>2026-04-23T13:58:48.999Z</time></trkpt><trkpt lat="42.21970202170265" lon="14.144043030195077"><ele>493.0</ele><time>2026-04-23T13:58:49.999Z</time></trkpt><trkpt lat="42.21981536535392" lon="14.144110327025015"><ele>491.75</ele><time>2026-04-23T13:58:50.999Z</time></trkpt><trkpt lat="42.21991816881955" lon="14.14422840127948"><ele>490.5</ele><time>2026-04-23T13:58:51.999Z</time></trkpt><trkpt lat="42.22004368876731" lon="14.144318520868593"><ele>489.25</ele><time>2026-04-23T13:58:52.999Z</time></trkpt><trkpt lat="42.22015916099457" lon="14.14441361464711"><ele>488.0</ele><time>2026-04-23T13:58:53.999Z</time></trkpt><trkpt lat="42.22027075389748" lon="14.144505163377577"><ele>488.0</ele><time>2026-04-23T13:58:54.999Z</time></trkpt><trkpt lat="42.220388880384775" lon="14.144586235133922"><ele>488.0</ele><time>2026-04-23T13:58:55.999Z</time></trkpt><trkpt lat="42.22051113461887" lon="14.144656856765122"><ele>488.0</ele><time>2026-04-23T13:58:56.999Z</time></trkpt><trkpt lat="42.22064191999601" lon="14.144715903063336"><ele>488.0</ele><time>2026-04-23T13:58:57.999Z</time></trkpt><trkpt lat="42.22076935558322" lon="14.144769464238038"><ele>487.0</ele><time>2026-04-23T13:58:58.999Z</time></trkpt><trkpt lat="42.22089168408311" lon="14.144829769394114"><ele>486.0</ele><time>2026-04-23T13:58:59.999Z</time></trkpt><trkpt lat="42.22101042140238" lon="14.144884448434087"><ele>485.0</ele><time>2026-04-23T13:59:00.999Z</time></trkpt><trkpt lat="42.22112785472492" lon="14.14493995824698"><ele>484.0</ele><time>2026-04-23T13:59:01.999Z</time></trkpt><trkpt lat="42.22124886650938" lon="14.145029203758444"><ele>484.0</ele><time>2026-04-23T13:59:02.999Z</time></trkpt><trkpt lat="42.22137295723039" lon="14.145145457725208"><ele>484.0</ele><time>2026-04-23T13:59:03.999Z</time></trkpt><trkpt lat="42.22149215472548" lon="14.14527090617831"><ele>484.0</ele><time>2026-04-23T13:59:04.999Z</time></trkpt><trkpt lat="42.221604695942915" lon="14.145383706423639"><ele>484.0</ele><time>2026-04-23T13:59:06Z</time></trkpt><trkpt lat="42.2217155755285" lon="14.145494040647618"><ele>482.6666666666667</ele><time>2026-04-23T13:59:07Z</time></trkpt><trkpt lat="42.22184049632901" lon="14.14560434134234"><ele>481.33333333333337</ele><time>2026-04-23T13:59:08Z</time></trkpt><trkpt lat="42.22198370694392" lon="14.145695943050182"><ele>480.0</ele><time>2026-04-23T13:59:09Z</time></trkpt><trkpt lat="42.22216743355733" lon="14.145796950886586"><ele>476.66666666666663</ele><time>2026-04-23T13:59:10Z</time></trkpt><trkpt lat="42.22237637466797" lon="14.145882155432309"><ele>473.3333333333333</ele><time>2026-04-23T13:59:11Z</time></trkpt><trkpt lat="42.22256879318456" lon="14.145960004181354"><ele>470.0</ele><time>2026-04-23T13:59:12Z</time></trkpt><trkpt lat="42.222747567918425" lon="14.146012689861388"><ele>470.0</ele><time>2026-04-23T13:59:13Z</time></trkpt><trkpt lat="42.22290505889186" lon="14.146105942918165"><ele>470.0</ele><time>2026-04-23T13:59:14Z</time></trkpt><trkpt lat="42.22305080523382" lon="14.146215999341612"><ele>470.0</ele><time>2026-04-23T13:59:15Z</time></trkpt><trkpt lat="42.22319103552813" lon="14.14633973902776"><ele>467.66666666666663</ele><time>2026-04-23T13:59:16Z</time></trkpt><trkpt lat="42.22332109266595" lon="14.146466782404639"><ele>465.33333333333337</ele><time>2026-04-23T13:59:17Z</time></trkpt><trkpt lat="42.223449291003696" lon="14.146584655920057"><ele>463.0</ele><time>2026-04-23T13:59:18Z</time></trkpt><trkpt lat="42.223574177600895" lon="14.146687061204007"><ele>463.0</ele><time>2026-04-23T13:59:19Z</time></trkpt><trkpt lat="42.22369158111432" lon="14.14677725459889"><ele>463.0</ele><time>2026-04-23T13:59:20Z</time></trkpt><trkpt lat="42.22379661171124" lon="14.146874552785205"><ele>463.0</ele><time>2026-04-23T13:59:21Z</time></trkpt><trkpt lat="42.22386723991242" lon="14.146999865959188"><ele>463.0</ele><time>2026-04-23T13:59:22Z</time></trkpt><trkpt lat="42.22389672265582" lon="14.14714824848472"><ele>463.0</ele><time>2026-04-23T13:59:23Z</time></trkpt><trkpt lat="42.22391804788927" lon="14.147263517554014"><ele>463.0</ele><time>2026-04-23T13:59:24Z</time></trkpt><trkpt lat="42.223826044306506" lon="14.147412026036351"><ele>463.0</ele><time>2026-04-23T13:59:25Z</time></trkpt><trkpt lat="42.223738766581135" lon="14.147504155618485"><ele>463.0</ele><time>2026-04-23T13:59:26Z</time></trkpt><trkpt lat="42.22362368713973" lon="14.147554568344217"><ele>460.6666666666667</ele><time>2026-04-23T13:59:27Z</time></trkpt><trkpt lat="42.223485432436874" lon="14.147535544067871"><ele>458.33333333333337</ele><time>2026-04-23T13:59:28Z</time></trkpt><trkpt lat="42.223329605822556" lon="14.147522111766678"><ele>456.0</ele><time>2026-04-23T13:59:29Z</time></trkpt><trkpt lat="42.223173211228236" lon="14.147520081691761"><ele>455.33333333333337</ele><time>2026-04-23T13:59:30Z</time></trkpt><trkpt lat="42.22302007983113" lon="14.147488846593468"><ele>454.6666666666667</ele><time>2026-04-23T13:59:31Z</time></trkpt><trkpt lat="42.22286246644883" lon="14.14744678827825"><ele>454.0</ele><time>2026-04-23T13:59:32Z</time></trkpt><trkpt lat="42.222713311852246" lon="14.147393375022721"><ele>454.0</ele><time>2026-04-23T13:59:33Z</time></trkpt><trkpt lat="42.22256986654762" lon="14.147365917709035"><ele>454.0</ele><time>2026-04-23T13:59:34Z</time></trkpt><trkpt lat="42.22242799197856" lon="14.147393490048247"><ele>454.0</ele><time>2026-04-23T13:59:35Z</time></trkpt><trkpt lat="42.22228635570946" lon="14.147460153951782"><ele>454.0</ele><time>2026-04-23T13:59:36Z</time></trkpt><trkpt lat="42.22214476772699" lon="14.147548883353933"><ele>455.33333333333337</ele><time>2026-04-23T13:59:37Z</time></trkpt><trkpt lat="42.22201011770817" lon="14.14765353323233"><ele>456.66666666666663</ele><time>2026-04-23T13:59:38Z</time></trkpt><trkpt lat="42.22188036169061" lon="14.147762501596448"><ele>458.0</ele><time>2026-04-23T13:59:39Z</time></trkpt><trkpt lat="42.22176591145169" lon="14.147889996178991"><ele>458.0</ele><time>2026-04-23T13:59:40Z</time></trkpt><trkpt lat="42.22166721143737" lon="14.148047592172066"><ele>458.0</ele><time>2026-04-23T13:59:41Z</time></trkpt><trkpt lat="42.22158352656878" lon="14.148224633522343"><ele>458.0</ele><time>2026-04-23T13:59:42Z</time></trkpt><trkpt lat="42.22149749124957" lon="14.14838075861984"><ele>455.0</ele><time>2026-04-23T13:59:43Z</time></trkpt><trkpt lat="42.22140071688404" lon="14.148488351417017"><ele>452.0</ele><time>2026-04-23T13:59:44Z</time></trkpt><trkpt lat="42.22129469152606" lon="14.148534514153813"><ele>449.0</ele><time>2026-04-23T13:59:45Z</time></trkpt><trkpt lat="42.221180784849444" lon="14.148523976662572"><ele>446.0</ele><time>2026-04-23T13:59:46Z</time></trkpt><trkpt lat="42.2210648822092" lon="14.148461565154035"><ele>446.0</ele><time>2026-04-23T13:59:47Z</time></trkpt><trkpt lat="42.22094609983066" lon="14.148374436551533"><ele>446.0</ele><time>2026-04-23T13:59:48Z</time></trkpt><trkpt lat="42.2208184692806" lon="14.148270028931616"><ele>446.0</ele><time>2026-04-23T13:59:48.999Z</time></trkpt><trkpt lat="42.22068778767503" lon="14.148176230915025"><ele>446.0</ele><time>2026-04-23T13:59:49.999Z</time></trkpt><trkpt lat="42.22055685604054" lon="14.148085032838225"><ele>446.25</ele><time>2026-04-23T13:59:50.999Z</time></trkpt><trkpt lat="42.2204361058934" lon="14.147998225386576"><ele>446.5</ele><time>2026-04-23T13:59:51.999Z</time></trkpt><trkpt lat="42.220317060097834" lon="14.147912719861273"><ele>446.75</ele><time>2026-04-23T13:59:52.999Z</time></trkpt><trkpt lat="42.22020485467108" lon="14.147837385888753"><ele>447.0</ele><time>2026-04-23T13:59:53.999Z</time></trkpt><trkpt lat="42.22009607037587" lon="14.14778363069765"><ele>447.0</ele><time>2026-04-23T13:59:54.999Z</time></trkpt><trkpt lat="42.21998960253987" lon="14.147779405892566"><ele>447.0</ele><time>2026-04-23T13:59:55.999Z</time></trkpt><trkpt lat="42.21988202368679" lon="14.147794717007553"><ele>447.0</ele><time>2026-04-23T13:59:56.999Z</time></trkpt><trkpt lat="42.21976266424671" lon="14.14790647496596"><ele>447.0</ele><time>2026-04-23T13:59:57.999Z</time></trkpt><trkpt lat="42.219651065532595" lon="14.148031089870004"><ele>446.33333333333337</ele><time>2026-04-23T13:59:58.999Z</time></trkpt><trkpt lat="42.21954105882973" lon="14.148174612369848"><ele>445.6666666666667</ele><time>2026-04-23T13:59:59.999Z</time></trkpt><trkpt lat="42.21942505200196" lon="14.14830150926229"><ele>445.0</ele><time>2026-04-23T14:00:00.999Z</time></trkpt><trkpt lat="42.219306236851615" lon="14.148437437814545"><ele>443.33333333333337</ele><time>2026-04-23T14:00:01.999Z</time></trkpt><trkpt lat="42.21918115000773" lon="14.148572526578539"><ele>441.66666666666663</ele><time>2026-04-23T14:00:02.999Z</time></trkpt><trkpt lat="42.21905658901754" lon="14.148707962488412"><ele>440.0</ele><time>2026-04-23T14:00:03.999Z</time></trkpt><trkpt lat="42.218932479642014" lon="14.148844320654048"><ele>440.0</ele><time>2026-04-23T14:00:04.999Z</time></trkpt><trkpt lat="42.21880548974025" lon="14.14898208232556"><ele>440.0</ele><time>2026-04-23T14:00:05.999Z</time></trkpt><trkpt lat="42.21867758010427" lon="14.149119051429453"><ele>440.0</ele><time>2026-04-23T14:00:06.999Z</time></trkpt><trkpt lat="42.21855774664958" lon="14.149249022064994"><ele>439.0</ele><time>2026-04-23T14:00:07.999Z</time></trkpt><trkpt lat="42.218445273706116" lon="14.14937396940609"><ele>438.0</ele><time>2026-04-23T14:00:08.999Z</time></trkpt><trkpt lat="42.2183448368789" lon="14.149480003111577"><ele>437.0</ele><time>2026-04-23T14:00:09.999Z</time></trkpt><trkpt lat="42.21824895788755" lon="14.149582104278634"><ele>436.0</ele><time>2026-04-23T14:00:10.999Z</time></trkpt><trkpt lat="42.21817604597722" lon="14.149689094634597"><ele>436.4</ele><time>2026-04-23T14:00:11.999Z</time></trkpt><trkpt lat="42.21810663743752" lon="14.14978657710727"><ele>436.8</ele><time>2026-04-23T14:00:12.999Z</time></trkpt><trkpt lat="42.21811252511317" lon="14.149939096465301"><ele>437.19999999999993</ele><time>2026-04-23T14:00:13.999Z</time></trkpt><trkpt lat="42.21812972265824" lon="14.150064929408417"><ele>437.59999999999997</ele><time>2026-04-23T14:00:14.999Z</time></trkpt><trkpt lat="42.21816353729246" lon="14.150180823336418"><ele>438.0</ele><time>2026-04-23T14:00:15.999Z</time></trkpt><trkpt lat="42.21818779171346" lon="14.150292617457115"><ele>438.0</ele><time>2026-04-23T14:00:16.999Z</time></trkpt><trkpt lat="42.21818536356309" lon="14.15041001304865"><ele>437.99999999999994</ele><time>2026-04-23T14:00:17.999Z</time></trkpt><trkpt lat="42.21815798784743" lon="14.150538455189892"><ele>437.99999999999994</ele><time>2026-04-23T14:00:18.999Z</time></trkpt><trkpt lat="42.21810459792876" lon="14.150657343117025"><ele>438.0</ele><time>2026-04-23T14:00:19.999Z</time></trkpt><trkpt lat="42.218035837116986" lon="14.15076876619331"><ele>438.0</ele><time>2026-04-23T14:00:20.999Z</time></trkpt><trkpt lat="42.21795399771536" lon="14.150901164621377"><ele>435.66666666666663</ele><time>2026-04-23T14:00:21.999Z</time></trkpt><trkpt lat="42.21787087289197" lon="14.151043941143023"><ele>433.3333333333333</ele><time>2026-04-23T14:00:22.999Z</time></trkpt><trkpt lat="42.217688084566376" lon="14.151330790817944"><ele>431.0</ele><time>2026-04-23T14:00:24.999Z</time></trkpt><trkpt lat="42.21758516072315" lon="14.151480346330764"><ele>430.0</ele><time>2026-04-23T14:00:25.999Z</time></trkpt><trkpt lat="42.21747970571774" lon="14.15163638202377"><ele>429.0</ele><time>2026-04-23T14:00:26.999Z</time></trkpt><trkpt lat="42.21737182246354" lon="14.151795352650634"><ele>428.0</ele><time>2026-04-23T14:00:27.999Z</time></trkpt><trkpt lat="42.21726142664935" lon="14.151951438720346"><ele>428.0</ele><time>2026-04-23T14:00:28.999Z</time></trkpt><trkpt lat="42.2171613928426" lon="14.152098931163248"><ele>428.0</ele><time>2026-04-23T14:00:29.999Z</time></trkpt><trkpt lat="42.21706358782208" lon="14.152239394137231"><ele>428.0</ele><time>2026-04-23T14:00:30.999Z</time></trkpt><trkpt lat="42.216963207044635" lon="14.152369134634503"><ele>428.0</ele><time>2026-04-23T14:00:31.999Z</time></trkpt><trkpt lat="42.216849963718126" lon="14.152457790205206"><ele>426.75</ele><time>2026-04-23T14:00:32.999Z</time></trkpt><trkpt lat="42.216723268282024" lon="14.152510194009919"><ele>425.5</ele><time>2026-04-23T14:00:33.999Z</time></trkpt><trkpt lat="42.216576171816065" lon="14.152517579041595"><ele>424.25</ele><time>2026-04-23T14:00:34.999Z</time></trkpt><trkpt lat="42.21642532914321" lon="14.152498505238334"><ele>423.0</ele><time>2026-04-23T14:00:35.999Z</time></trkpt><trkpt lat="42.21626304450347" lon="14.152492708179901"><ele>422.66666666666663</ele><time>2026-04-23T14:00:36.999Z</time></trkpt><trkpt lat="42.21609381945239" lon="14.152513118444855"><ele>422.3333333333333</ele><time>2026-04-23T14:00:37.999Z</time></trkpt><trkpt lat="42.21592606561686" lon="14.15256427594992"><ele>422.0</ele><time>2026-04-23T14:00:38.999Z</time></trkpt><trkpt lat="42.21577388924148" lon="14.152637940628523"><ele>424.66666666666663</ele><time>2026-04-23T14:00:39.999Z</time></trkpt><trkpt lat="42.21561494886706" lon="14.152729708873252"><ele>427.33333333333337</ele><time>2026-04-23T14:00:40.999Z</time></trkpt><trkpt lat="42.2154544288921" lon="14.152828665405963"><ele>430.0</ele><time>2026-04-23T14:00:41.999Z</time></trkpt><trkpt lat="42.215292226604" lon="14.152937069286594"><ele>430.0</ele><time>2026-04-23T14:00:42.999Z</time></trkpt><trkpt lat="42.21512460681931" lon="14.153058755196597"><ele>430.0</ele><time>2026-04-23T14:00:43.999Z</time></trkpt><trkpt lat="42.21496212439101" lon="14.153190531554179"><ele>430.0</ele><time>2026-04-23T14:00:44.999Z</time></trkpt><trkpt lat="42.21479324175797" lon="14.15332086956503"><ele>430.33333333333337</ele><time>2026-04-23T14:00:45.999Z</time></trkpt><trkpt lat="42.214623323263815" lon="14.153448882338884"><ele>430.66666666666663</ele><time>2026-04-23T14:00:46.999Z</time></trkpt><trkpt lat="42.214453286245245" lon="14.15357345721756"><ele>431.0</ele><time>2026-04-23T14:00:47.999Z</time></trkpt><trkpt lat="42.21428273874251" lon="14.153698680979229"><ele>431.0</ele><time>2026-04-23T14:00:48.999Z</time></trkpt><trkpt lat="42.21412698721903" lon="14.15381867785802"><ele>431.0</ele><time>2026-04-23T14:00:49.999Z</time></trkpt><trkpt lat="42.21383926769545" lon="14.154074976742873"><ele>433.3333333333333</ele><time>2026-04-23T14:00:51.999Z</time></trkpt><trkpt lat="42.21372122215365" lon="14.154238580107027"><ele>435.66666666666663</ele><time>2026-04-23T14:00:52.999Z</time></trkpt><trkpt lat="42.213597861568736" lon="14.154417330861975"><ele>438.0</ele><time>2026-04-23T14:00:53.999Z</time></trkpt><trkpt lat="42.213506901952286" lon="14.154634654673817"><ele>429.0</ele><time>2026-04-23T14:00:54.999Z</time></trkpt><trkpt lat="42.213436284078604" lon="14.154878353725675"><ele>420.0</ele><time>2026-04-23T14:00:55.999Z</time></trkpt><trkpt lat="42.21339516981901" lon="14.155134432938029"><ele>411.0</ele><time>2026-04-23T14:00:56.999Z</time></trkpt><trkpt lat="42.213390698538696" lon="14.155407084767823"><ele>411.0</ele><time>2026-04-23T14:00:57.999Z</time></trkpt><trkpt lat="42.21341601206603" lon="14.155681870887246"><ele>411.0</ele><time>2026-04-23T14:00:58.999Z</time></trkpt><trkpt lat="42.213448771368" lon="14.155951689272996"><ele>411.0</ele><time>2026-04-23T14:00:59.999Z</time></trkpt><trkpt lat="42.21347577469626" lon="14.156183481182177"><ele>408.0</ele><time>2026-04-23T14:01:00.999Z</time></trkpt><trkpt lat="42.213507265599226" lon="14.156442279382441"><ele>405.0</ele><time>2026-04-23T14:01:01.999Z</time></trkpt><trkpt lat="42.21349505581986" lon="14.156702909019911"><ele>402.0</ele><time>2026-04-23T14:01:02.999Z</time></trkpt><trkpt lat="42.213472653278345" lon="14.156958731435356"><ele>400.0</ele><time>2026-04-23T14:01:03.999Z</time></trkpt><trkpt lat="42.213422747397146" lon="14.157497715004924"><ele>398.0</ele><time>2026-04-23T14:01:05.999Z</time></trkpt><trkpt lat="42.21339754244998" lon="14.157772698644086"><ele>398.0</ele><time>2026-04-23T14:01:06.999Z</time></trkpt><trkpt lat="42.213373117523545" lon="14.158048889740774"><ele>398.0</ele><time>2026-04-23T14:01:07.999Z</time></trkpt><trkpt lat="42.21336403796438" lon="14.158334801184266"><ele>398.0</ele><time>2026-04-23T14:01:08.999Z</time></trkpt><trkpt lat="42.21333840010779" lon="14.158617549024447"><ele>398.0</ele><time>2026-04-23T14:01:09.999Z</time></trkpt><trkpt lat="42.213309168065145" lon="14.15889136709333"><ele>398.0</ele><time>2026-04-23T14:01:10.999Z</time></trkpt><trkpt lat="42.213246373364456" lon="14.159147321867586"><ele>398.0</ele><time>2026-04-23T14:01:11.999Z</time></trkpt><trkpt lat="42.21316505588942" lon="14.159394359400979"><ele>399.66666666666663</ele><time>2026-04-23T14:01:12.999Z</time></trkpt><trkpt lat="42.21307156905974" lon="14.159643251141832"><ele>401.33333333333337</ele><time>2026-04-23T14:01:13.999Z</time></trkpt><trkpt lat="42.212990879143774" lon="14.159896662579847"><ele>403.0</ele><time>2026-04-23T14:01:14.999Z</time></trkpt><trkpt lat="42.212890519445565" lon="14.160140776454044"><ele>403.6666666666667</ele><time>2026-04-23T14:01:15.999Z</time></trkpt><trkpt lat="42.21281105739717" lon="14.160377662819222"><ele>404.33333333333337</ele><time>2026-04-23T14:01:16.999Z</time></trkpt><trkpt lat="42.212756638101986" lon="14.160622849524506"><ele>405.0</ele><time>2026-04-23T14:01:17.999Z</time></trkpt><trkpt lat="42.2127469342113" lon="14.160881853880195"><ele>406.0</ele><time>2026-04-23T14:01:18.999Z</time></trkpt><trkpt lat="42.212761401014205" lon="14.16114817270833"><ele>407.0</ele><time>2026-04-23T14:01:19.999Z</time></trkpt><trkpt lat="42.21277467895681" lon="14.16141498882821"><ele>408.0</ele><time>2026-04-23T14:01:20.999Z</time></trkpt><trkpt lat="42.21277409725287" lon="14.161686968051105"><ele>409.66666666666663</ele><time>2026-04-23T14:01:21.999Z</time></trkpt><trkpt lat="42.21272296298764" lon="14.161935971773115"><ele>411.3333333333333</ele><time>2026-04-23T14:01:22.999Z</time></trkpt><trkpt lat="42.2126654507794" lon="14.162194042478456"><ele>413.0</ele><time>2026-04-23T14:01:23.999Z</time></trkpt><trkpt lat="42.21260501050944" lon="14.162463926302221"><ele>413.66666666666663</ele><time>2026-04-23T14:01:24.999Z</time></trkpt><trkpt lat="42.2125568323071" lon="14.162743308384277"><ele>414.33333333333337</ele><time>2026-04-23T14:01:25.999Z</time></trkpt><trkpt lat="42.21249449631335" lon="14.163019402690006"><ele>415.0</ele><time>2026-04-23T14:01:26.999Z</time></trkpt><trkpt lat="42.21242766464063" lon="14.163300417604555"><ele>416.0</ele><time>2026-04-23T14:01:27.999Z</time></trkpt><trkpt lat="42.21236459367268" lon="14.163583611730179"><ele>417.0</ele><time>2026-04-23T14:01:28.999Z</time></trkpt><trkpt lat="42.21230799749566" lon="14.163868981057975"><ele>418.0</ele><time>2026-04-23T14:01:29.999Z</time></trkpt><trkpt lat="42.212254370399506" lon="14.164159073280775"><ele>420.6666666666667</ele><time>2026-04-23T14:01:30.999Z</time></trkpt><trkpt lat="42.212204980090576" lon="14.164454175138605"><ele>423.33333333333337</ele><time>2026-04-23T14:01:31.999Z</time></trkpt><trkpt lat="42.21215317253694" lon="14.164747824737406"><ele>426.0</ele><time>2026-04-23T14:01:32.999Z</time></trkpt><trkpt lat="42.212098717077765" lon="14.165052115822578"><ele>427.5</ele><time>2026-04-23T14:01:33.999Z</time></trkpt><trkpt lat="42.21204917694198" lon="14.16535360766433"><ele>429.0</ele><time>2026-04-23T14:01:34.999Z</time></trkpt><trkpt lat="42.211997331537695" lon="14.165660096847622"><ele>429.5</ele><time>2026-04-23T14:01:35.999Z</time></trkpt><trkpt lat="42.21194517226494" lon="14.165961735059748"><ele>430.0</ele><time>2026-04-23T14:01:36.999Z</time></trkpt><trkpt lat="42.21189020113669" lon="14.166266319013907"><ele>432.0</ele><time>2026-04-23T14:01:37.999Z</time></trkpt><trkpt lat="42.21183642956212" lon="14.166570624186233"><ele>434.0</ele><time>2026-04-23T14:01:38.999Z</time></trkpt><trkpt lat="42.21178803440781" lon="14.166870631213902"><ele>434.0</ele><time>2026-04-23T14:01:39.999Z</time></trkpt><trkpt lat="42.211723640799086" lon="14.167160499139307"><ele>434.0</ele><time>2026-04-23T14:01:40.999Z</time></trkpt><trkpt lat="42.21168851475234" lon="14.167452646435319"><ele>434.0</ele><time>2026-04-23T14:01:41.999Z</time></trkpt><trkpt lat="42.211625786006515" lon="14.167727775223778"><ele>434.3333333333333</ele><time>2026-04-23T14:01:42.999Z</time></trkpt><trkpt lat="42.211515748766544" lon="14.167963281859128"><ele>434.66666666666663</ele><time>2026-04-23T14:01:43.999Z</time></trkpt><trkpt lat="42.21140399050291" lon="14.168198717836638"><ele>435.0</ele><time>2026-04-23T14:01:44.999Z</time></trkpt><trkpt lat="42.21128359751776" lon="14.168445463969734"><ele>437.33333333333337</ele><time>2026-04-23T14:01:45.999Z</time></trkpt><trkpt lat="42.211173677696685" lon="14.16870504546374"><ele>439.6666666666667</ele><time>2026-04-23T14:01:46.999Z</time></trkpt><trkpt lat="42.21105142286368" lon="14.168955866452634"><ele>442.0</ele><time>2026-04-23T14:01:47.999Z</time></trkpt><trkpt lat="42.210929968397565" lon="14.169205936892551"><ele>442.0</ele><time>2026-04-23T14:01:48.999Z</time></trkpt><trkpt lat="42.210809258121266" lon="14.169459644076413"><ele>442.0</ele><time>2026-04-23T14:01:49.999Z</time></trkpt><trkpt lat="42.210687732410754" lon="14.169711829395238"><ele>442.0</ele><time>2026-04-23T14:01:50.999Z</time></trkpt><trkpt lat="42.21056669002224" lon="14.169966286755677"><ele>444.6666666666667</ele><time>2026-04-23T14:01:51.999Z</time></trkpt><trkpt lat="42.21044610442414" lon="14.170217566282668"><ele>447.33333333333337</ele><time>2026-04-23T14:01:52.999Z</time></trkpt><trkpt lat="42.210330950464524" lon="14.170460404278025"><ele>450.0</ele><time>2026-04-23T14:01:53.999Z</time></trkpt><trkpt lat="42.21021925298351" lon="14.170684688472246"><ele>451.0</ele><time>2026-04-23T14:01:54.999Z</time></trkpt><trkpt lat="42.210119106802345" lon="14.170890948434241"><ele>452.0</ele><time>2026-04-23T14:01:55.999Z</time></trkpt><trkpt lat="42.21002438950687" lon="14.171098115844671"><ele>453.0</ele><time>2026-04-23T14:01:56.999Z</time></trkpt><trkpt lat="42.20995206613789" lon="14.17132618845249"><ele>451.33333333333337</ele><time>2026-04-23T14:01:57.999Z</time></trkpt><trkpt lat="42.20990246690695" lon="14.171571601039883"><ele>449.6666666666667</ele><time>2026-04-23T14:01:58.999Z</time></trkpt><trkpt lat="42.20986940839989" lon="14.171831407714189"><ele>448.0</ele><time>2026-04-23T14:01:59.999Z</time></trkpt><trkpt lat="42.209834672198326" lon="14.172091862948381"><ele>449.6666666666667</ele><time>2026-04-23T14:02:00.999Z</time></trkpt><trkpt lat="42.20978756344325" lon="14.172334078970762"><ele>451.33333333333337</ele><time>2026-04-23T14:02:01.999Z</time></trkpt><trkpt lat="42.2097311367636" lon="14.172552215892079"><ele>453.0</ele><time>2026-04-23T14:02:02.999Z</time></trkpt><trkpt lat="42.20963610464444" lon="14.172754606746599"><ele>453.0</ele><time>2026-04-23T14:02:03.999Z</time></trkpt><trkpt lat="42.209511786991115" lon="14.17294436707687"><ele>453.0</ele><time>2026-04-23T14:02:04.999Z</time></trkpt><trkpt lat="42.20937285825284" lon="14.173116375585034"><ele>453.0</ele><time>2026-04-23T14:02:05.999Z</time></trkpt><trkpt lat="42.209238187084786" lon="14.17329841116398"><ele>453.66666666666663</ele><time>2026-04-23T14:02:06.999Z</time></trkpt><trkpt lat="42.20910281191616" lon="14.173493679958721"><ele>454.3333333333333</ele><time>2026-04-23T14:02:07.999Z</time></trkpt><trkpt lat="42.208973855237495" lon="14.173700772523956"><ele>455.0</ele><time>2026-04-23T14:02:08.999Z</time></trkpt><trkpt lat="42.20884630199963" lon="14.173918303501225"><ele>457.0</ele><time>2026-04-23T14:02:09.999Z</time></trkpt><trkpt lat="42.20871731946159" lon="14.174142789549563"><ele>459.0</ele><time>2026-04-23T14:02:10.999Z</time></trkpt><trkpt lat="42.20858696299953" lon="14.174364839555702"><ele>461.0</ele><time>2026-04-23T14:02:11.999Z</time></trkpt><trkpt lat="42.20846620472049" lon="14.17456974781992"><ele>461.0</ele><time>2026-04-23T14:02:12.999Z</time></trkpt><trkpt lat="42.208354190789414" lon="14.174755334119672"><ele>461.0</ele><time>2026-04-23T14:02:13.999Z</time></trkpt><trkpt lat="42.208255197371074" lon="14.174919257482307"><ele>461.0</ele><time>2026-04-23T14:02:14.999Z</time></trkpt><trkpt lat="42.20814853735628" lon="14.175051065396834"><ele>463.25</ele><time>2026-04-23T14:02:15.999Z</time></trkpt><trkpt lat="42.208031588044065" lon="14.175120122000319"><ele>465.5</ele><time>2026-04-23T14:02:16.999Z</time></trkpt><trkpt lat="42.20790099561392" lon="14.175129643271106"><ele>467.75</ele><time>2026-04-23T14:02:17.999Z</time></trkpt><trkpt lat="42.20775828277324" lon="14.175086527517147"><ele>470.0</ele><time>2026-04-23T14:02:18.999Z</time></trkpt><trkpt lat="42.20762995465683" lon="14.174985632728887"><ele>469.66666666666663</ele><time>2026-04-23T14:02:19.999Z</time></trkpt><trkpt lat="42.2075191827557" lon="14.174830013008025"><ele>469.33333333333337</ele><time>2026-04-23T14:02:20.999Z</time></trkpt><trkpt lat="42.20742041738696" lon="14.174642568870672"><ele>469.0</ele><time>2026-04-23T14:02:21.999Z</time></trkpt><trkpt lat="42.207338788521355" lon="14.174442923281278"><ele>471.0</ele><time>2026-04-23T14:02:22.999Z</time></trkpt><trkpt lat="42.20727078178451" lon="14.17421729881173"><ele>473.0</ele><time>2026-04-23T14:02:23.999Z</time></trkpt><trkpt lat="42.20721693413022" lon="14.173977296958016"><ele>475.0</ele><time>2026-04-23T14:02:24.999Z</time></trkpt><trkpt lat="42.20715819023764" lon="14.173725423064147"><ele>475.0</ele><time>2026-04-23T14:02:25.999Z</time></trkpt><trkpt lat="42.207095667237944" lon="14.173474790295371"><ele>475.0</ele><time>2026-04-23T14:02:26.999Z</time></trkpt><trkpt lat="42.20703221853837" lon="14.17323435808776"><ele>475.0</ele><time>2026-04-23T14:02:27.999Z</time></trkpt><trkpt lat="42.20689361630983" lon="14.172759482160975"><ele>475.6666666666667</ele><time>2026-04-23T14:02:29.999Z</time></trkpt><trkpt lat="42.20681025878991" lon="14.172529697612184"><ele>476.33333333333337</ele><time>2026-04-23T14:02:30.999Z</time></trkpt><trkpt lat="42.20673068563226" lon="14.172324717423729"><ele>477.0</ele><time>2026-04-23T14:02:31.999Z</time></trkpt><trkpt lat="42.20665273817648" lon="14.172149425575117"><ele>477.5</ele><time>2026-04-23T14:02:32.999Z</time></trkpt><trkpt lat="42.20656449402731" lon="14.172033586696628"><ele>478.0</ele><time>2026-04-23T14:02:33.999Z</time></trkpt><trkpt lat="42.20645986944655" lon="14.171991043247798"><ele>478.5</ele><time>2026-04-23T14:02:34.999Z</time></trkpt><trkpt lat="42.206339736369266" lon="14.172006144055445"><ele>479.0</ele><time>2026-04-23T14:02:35.999Z</time></trkpt><trkpt lat="42.206222255827115" lon="14.172075780805667"><ele>480.66666666666663</ele><time>2026-04-23T14:02:36.999Z</time></trkpt><trkpt lat="42.20610296687198" lon="14.172195482294288"><ele>482.33333333333337</ele><time>2026-04-23T14:02:37.999Z</time></trkpt><trkpt lat="42.205981493932654" lon="14.17235204933972"><ele>484.0</ele><time>2026-04-23T14:02:38.999Z</time></trkpt><trkpt lat="42.20584232026492" lon="14.172509960257965"><ele>484.0</ele><time>2026-04-23T14:02:39.999Z</time></trkpt><trkpt lat="42.20570275507425" lon="14.1726566481675"><ele>484.0</ele><time>2026-04-23T14:02:40.999Z</time></trkpt><trkpt lat="42.20555168363673" lon="14.172801059247757"><ele>484.0</ele><time>2026-04-23T14:02:41.999Z</time></trkpt><trkpt lat="42.20540888304182" lon="14.17294218014675"><ele>486.33333333333337</ele><time>2026-04-23T14:02:42.999Z</time></trkpt><trkpt lat="42.2052568853284" lon="14.173074749215216"><ele>488.66666666666663</ele><time>2026-04-23T14:02:43.999Z</time></trkpt><trkpt lat="42.205085695903634" lon="14.17318168257431"><ele>491.0</ele><time>2026-04-23T14:02:44.999Z</time></trkpt><trkpt lat="42.20490337434908" lon="14.173260675479709"><ele>494.0</ele><time>2026-04-23T14:02:45.999Z</time></trkpt><trkpt lat="42.20471588076413" lon="14.173332145362858"><ele>497.0</ele><time>2026-04-23T14:02:46.999Z</time></trkpt><trkpt lat="42.204333124005586" lon="14.17354559428287"><ele>497.0</ele><time>2026-04-23T14:02:48.999Z</time></trkpt><trkpt lat="42.20415092317555" lon="14.173688554517677"><ele>497.0</ele><time>2026-04-23T14:02:49.999Z</time></trkpt><trkpt lat="42.203981510939535" lon="14.173838071294911"><ele>497.0</ele><time>2026-04-23T14:02:50.999Z</time></trkpt><trkpt lat="42.203816156469955" lon="14.173988369836142"><ele>498.3333333333333</ele><time>2026-04-23T14:02:51.999Z</time></trkpt><trkpt lat="42.20366733180461" lon="14.174148208200515"><ele>499.66666666666663</ele><time>2026-04-23T14:02:52.999Z</time></trkpt><trkpt lat="42.20353779503624" lon="14.174337959914842"><ele>501.0</ele><time>2026-04-23T14:02:53.999Z</time></trkpt><trkpt lat="42.20343593016863" lon="14.174536065052296"><ele>501.0</ele><time>2026-04-23T14:02:54.999Z</time></trkpt><trkpt lat="42.20334239841795" lon="14.174723031224596"><ele>501.0</ele><time>2026-04-23T14:02:55.999Z</time></trkpt><trkpt lat="42.20324890056822" lon="14.174882732578967"><ele>501.0</ele><time>2026-04-23T14:02:56.999Z</time></trkpt><trkpt lat="42.20316566526645" lon="14.175012567218733"><ele>501.0</ele><time>2026-04-23T14:02:57.999Z</time></trkpt><trkpt lat="42.20309257116986" lon="14.175099106787801"><ele>502.20000000000005</ele><time>2026-04-23T14:02:58.999Z</time></trkpt><trkpt lat="42.20299149609019" lon="14.17510224419555"><ele>503.40000000000003</ele><time>2026-04-23T14:03:00.999Z</time></trkpt><trkpt lat="42.2029527573344" lon="14.174942270292917"><ele>504.6</ele><time>2026-04-23T14:03:02.999Z</time></trkpt><trkpt lat="42.202957169439514" lon="14.174815769787557"><ele>505.8</ele><time>2026-04-23T14:03:03.999Z</time></trkpt><trkpt lat="42.20295006989943" lon="14.174679726020626"><ele>507.0</ele><time>2026-04-23T14:03:04.999Z</time></trkpt><trkpt lat="42.20290902677714" lon="14.17455856783742"><ele>507.40000000000003</ele><time>2026-04-23T14:03:05.999Z</time></trkpt><trkpt lat="42.20284603685884" lon="14.174458082120136"><ele>507.80000000000007</ele><time>2026-04-23T14:03:06.999Z</time></trkpt><trkpt lat="42.20277011337267" lon="14.174362121859595"><ele>508.2</ele><time>2026-04-23T14:03:07.999Z</time></trkpt><trkpt lat="42.20268642647926" lon="14.174264354826123"><ele>508.6</ele><time>2026-04-23T14:03:08.999Z</time></trkpt><trkpt lat="42.202597983679105" lon="14.17416470737327"><ele>509.0</ele><time>2026-04-23T14:03:09.999Z</time></trkpt><trkpt lat="42.20247177096972" lon="14.174091804688011"><ele>509.0</ele><time>2026-04-23T14:03:10.999Z</time></trkpt><trkpt lat="42.20235016753419" lon="14.174099217887557"><ele>509.0</ele><time>2026-04-23T14:03:11.999Z</time></trkpt><trkpt lat="42.20218475985913" lon="14.174138931374182"><ele>509.0</ele><time>2026-04-23T14:03:12.999Z</time></trkpt><trkpt lat="42.20204131827086" lon="14.174187436114234"><ele>509.0</ele><time>2026-04-23T14:03:13.999Z</time></trkpt><trkpt lat="42.201899193181966" lon="14.174226808718709"><ele>510.0</ele><time>2026-04-23T14:03:14.999Z</time></trkpt><trkpt lat="42.201757819880164" lon="14.174258659226949"><ele>511.0</ele><time>2026-04-23T14:03:15.999Z</time></trkpt><trkpt lat="42.20162200689433" lon="14.174278350565313"><ele>512.0</ele><time>2026-04-23T14:03:16.999Z</time></trkpt><trkpt lat="42.20150012145766" lon="14.174275641827142"><ele>513.0</ele><time>2026-04-23T14:03:17.999Z</time></trkpt><trkpt lat="42.201386744813824" lon="14.174228376112676"><ele>514.0</ele><time>2026-04-23T14:03:18.999Z</time></trkpt><trkpt lat="42.201296426954116" lon="14.174133357278583"><ele>515.0</ele><time>2026-04-23T14:03:19.999Z</time></trkpt><trkpt lat="42.2012254004437" lon="14.174001798646998"><ele>516.0</ele><time>2026-04-23T14:03:20.999Z</time></trkpt><trkpt lat="42.20116895994116" lon="14.173836236001705"><ele>517.0</ele><time>2026-04-23T14:03:21.999Z</time></trkpt><trkpt lat="42.201104449286404" lon="14.173659587206837"><ele>517.75</ele><time>2026-04-23T14:03:22.999Z</time></trkpt><trkpt lat="42.201036926564264" lon="14.173477382759115"><ele>518.5</ele><time>2026-04-23T14:03:23.999Z</time></trkpt><trkpt lat="42.20097073899833" lon="14.173301338893678"><ele>519.25</ele><time>2026-04-23T14:03:24.999Z</time></trkpt><trkpt lat="42.20091161802291" lon="14.173127706098668"><ele>520.0</ele><time>2026-04-23T14:03:25.999Z</time></trkpt><trkpt lat="42.200854042101994" lon="14.172950927940978"><ele>520.3333333333334</ele><time>2026-04-23T14:03:26.999Z</time></trkpt><trkpt lat="42.2008006322455" lon="14.17275754952513"><ele>520.6666666666666</ele><time>2026-04-23T14:03:27.999Z</time></trkpt><trkpt lat="42.20075293258272" lon="14.172566108343675"><ele>521.0</ele><time>2026-04-23T14:03:28.999Z</time></trkpt><trkpt lat="42.20070544400265" lon="14.172367334476494"><ele>524.3333333333333</ele><time>2026-04-23T14:03:29.999Z</time></trkpt><trkpt lat="42.20064371515908" lon="14.172174817796115"><ele>527.6666666666666</ele><time>2026-04-23T14:03:30.999Z</time></trkpt><trkpt lat="42.200554058297094" lon="14.17201368506384"><ele>531.0</ele><time>2026-04-23T14:03:31.999Z</time></trkpt><trkpt lat="42.20043672078906" lon="14.17189312184668"><ele>531.0</ele><time>2026-04-23T14:03:32.999Z</time></trkpt><trkpt lat="42.20029683231697" lon="14.1718183898679"><ele>531.0</ele><time>2026-04-23T14:03:33.999Z</time></trkpt><trkpt lat="42.20013910714222" lon="14.17177647210832"><ele>531.0</ele><time>2026-04-23T14:03:34.999Z</time></trkpt><trkpt lat="42.1999677098104" lon="14.17175382330123"><ele>531.6666666666666</ele><time>2026-04-23T14:03:35.999Z</time></trkpt><trkpt lat="42.19978975968042" lon="14.171729534662312"><ele>532.3333333333333</ele><time>2026-04-23T14:03:36.999Z</time></trkpt><trkpt lat="42.19960250863736" lon="14.171686834741346"><ele>533.0</ele><time>2026-04-23T14:03:37.999Z</time></trkpt><trkpt lat="42.199413930739595" lon="14.171631852391034"><ele>533.0</ele><time>2026-04-23T14:03:38.999Z</time></trkpt><trkpt lat="42.19922065592634" lon="14.17155425937227"><ele>533.0</ele><time>2026-04-23T14:03:39.999Z</time></trkpt><trkpt lat="42.19902717404048" lon="14.171457066794478"><ele>533.0</ele><time>2026-04-23T14:03:40.999Z</time></trkpt><trkpt lat="42.198841241124384" lon="14.171350629987469"><ele>536.3333333333333</ele><time>2026-04-23T14:03:41.999Z</time></trkpt><trkpt lat="42.198652659160196" lon="14.171246047755272"><ele>539.6666666666666</ele><time>2026-04-23T14:03:42.999Z</time></trkpt><trkpt lat="42.19846251149363" lon="14.171147861400797"><ele>543.0</ele><time>2026-04-23T14:03:43.999Z</time></trkpt><trkpt lat="42.19827509235347" lon="14.17105247959878"><ele>544.0</ele><time>2026-04-23T14:03:44.999Z</time></trkpt><trkpt lat="42.197919159240975" lon="14.170865612903434"><ele>545.0</ele><time>2026-04-23T14:03:46.999Z</time></trkpt><trkpt lat="42.197762288574175" lon="14.17079088314381"><ele>545.0</ele><time>2026-04-23T14:03:47.999Z</time></trkpt><trkpt lat="42.197608868585604" lon="14.17075865728827"><ele>545.0</ele><time>2026-04-23T14:03:48.999Z</time></trkpt><trkpt lat="42.19745586551253" lon="14.17077990829391"><ele>545.0</ele><time>2026-04-23T14:03:49.999Z</time></trkpt><trkpt lat="42.19730136742508" lon="14.170865992157031"><ele>552.6666666666666</ele><time>2026-04-23T14:03:50.999Z</time></trkpt><trkpt lat="42.19713891944391" lon="14.170984545434647"><ele>560.3333333333334</ele><time>2026-04-23T14:03:51.999Z</time></trkpt><trkpt lat="42.19697953187728" lon="14.171104069058604"><ele>568.0</ele><time>2026-04-23T14:03:52.999Z</time></trkpt><trkpt lat="42.19682341861191" lon="14.171240340451343"><ele>568.0</ele><time>2026-04-23T14:03:53.999Z</time></trkpt><trkpt lat="42.196658422823255" lon="14.171392005698307"><ele>568.0</ele><time>2026-04-23T14:03:54.999Z</time></trkpt><trkpt lat="42.19649828929783" lon="14.17154579713311"><ele>568.0</ele><time>2026-04-23T14:03:55.999Z</time></trkpt><trkpt lat="42.196333781455515" lon="14.171705021613041"><ele>573.5</ele><time>2026-04-23T14:03:56.999Z</time></trkpt><trkpt lat="42.196020587979845" lon="14.171979294125032"><ele>579.0</ele><time>2026-04-23T14:03:58.999Z</time></trkpt><trkpt lat="42.19586623205846" lon="14.172091030856386"><ele>579.0</ele><time>2026-04-23T14:03:59.999Z</time></trkpt><trkpt lat="42.19569805823744" lon="14.172170512729654"><ele>579.0</ele><time>2026-04-23T14:04:00.999Z</time></trkpt><trkpt lat="42.195520925195886" lon="14.172232637898288"><ele>579.0</ele><time>2026-04-23T14:04:01.999Z</time></trkpt><trkpt lat="42.195347279726576" lon="14.172281238597321"><ele>582.3333333333334</ele><time>2026-04-23T14:04:02.999Z</time></trkpt><trkpt lat="42.195197613018706" lon="14.172306442387086"><ele>585.6666666666667</ele><time>2026-04-23T14:04:03.999Z</time></trkpt><trkpt lat="42.19504277072983" lon="14.172295033003502"><ele>589.0</ele><time>2026-04-23T14:04:04.999Z</time></trkpt><trkpt lat="42.194897083775" lon="14.172213378150609"><ele>589.0</ele><time>2026-04-23T14:04:05.999Z</time></trkpt><trkpt lat="42.1947529541413" lon="14.172120910802523"><ele>589.0</ele><time>2026-04-23T14:04:06.999Z</time></trkpt><trkpt lat="42.19462154853025" lon="14.172051965614893"><ele>589.0</ele><time>2026-04-23T14:04:07.999Z</time></trkpt><trkpt lat="42.194501743333134" lon="14.172003785391048"><ele>589.0</ele><time>2026-04-23T14:04:08.999Z</time></trkpt><trkpt lat="42.194375242149796" lon="14.172022501700214"><ele>589.0</ele><time>2026-04-23T14:04:09.999Z</time></trkpt><trkpt lat="42.19426572987463" lon="14.172105281884763"><ele>589.0</ele><time>2026-04-23T14:04:10.999Z</time></trkpt><trkpt lat="42.194180091593104" lon="14.172234904158072"><ele>589.0</ele><time>2026-04-23T14:04:11.999Z</time></trkpt><trkpt lat="42.19411682799185" lon="14.172397304163686"><ele>589.0</ele><time>2026-04-23T14:04:12.999Z</time></trkpt><trkpt lat="42.19406993412623" lon="14.172584872644675"><ele>586.5</ele><time>2026-04-23T14:04:13.999Z</time></trkpt><trkpt lat="42.19398327377259" lon="14.172712595808044"><ele>584.0</ele><time>2026-04-23T14:04:14.999Z</time></trkpt><trkpt lat="42.19389005166681" lon="14.17277548857482"><ele>581.5</ele><time>2026-04-23T14:04:15.999Z</time></trkpt><trkpt lat="42.193787176629954" lon="14.172793625489485"><ele>579.0</ele><time>2026-04-23T14:04:16.999Z</time></trkpt><trkpt lat="42.19368330289226" lon="14.172692521700236"><ele>579.0</ele><time>2026-04-23T14:04:17.999Z</time></trkpt><trkpt lat="42.19356430486056" lon="14.172571804991623"><ele>579.0</ele><time>2026-04-23T14:04:18.999Z</time></trkpt><trkpt lat="42.19342243868192" lon="14.172460008189034"><ele>579.0</ele><time>2026-04-23T14:04:19.999Z</time></trkpt><trkpt lat="42.19330504872741" lon="14.172362223048733"><ele>582.5</ele><time>2026-04-23T14:04:20.999Z</time></trkpt><trkpt lat="42.19319319614624" lon="14.172342252739128"><ele>586.0</ele><time>2026-04-23T14:04:21.999Z</time></trkpt><trkpt lat="42.1930819201258" lon="14.172397834132498"><ele>589.5</ele><time>2026-04-23T14:04:22.999Z</time></trkpt><trkpt lat="42.192967315856286" lon="14.172510581521422"><ele>593.0</ele><time>2026-04-23T14:04:23.999Z</time></trkpt><trkpt lat="42.19285584143997" lon="14.17265691023796"><ele>593.0</ele><time>2026-04-23T14:04:24.999Z</time></trkpt><trkpt lat="42.19274525057228" lon="14.172831024483788"><ele>593.0</ele><time>2026-04-23T14:04:25.999Z</time></trkpt><trkpt lat="42.192661538977156" lon="14.173036440919514"><ele>593.0</ele><time>2026-04-23T14:04:26.999Z</time></trkpt><trkpt lat="42.192597788494936" lon="14.173251378185736"><ele>591.0</ele><time>2026-04-23T14:04:27.999Z</time></trkpt><trkpt lat="42.19254351651228" lon="14.173495200419424"><ele>589.0</ele><time>2026-04-23T14:04:28.999Z</time></trkpt><trkpt lat="42.19250770036016" lon="14.173727713927367"><ele>587.0</ele><time>2026-04-23T14:04:29.999Z</time></trkpt><trkpt lat="42.192482545152984" lon="14.173934743231845"><ele>586.5</ele><time>2026-04-23T14:04:30.999Z</time></trkpt><trkpt lat="42.19245463661356" lon="14.174103436004193"><ele>586.0</ele><time>2026-04-23T14:04:31.999Z</time></trkpt><trkpt lat="42.192407752842726" lon="14.174267818072977"><ele>585.5</ele><time>2026-04-23T14:04:32.999Z</time></trkpt><trkpt lat="42.19230270496119" lon="14.17438696593023"><ele>585.0</ele><time>2026-04-23T14:04:33.999Z</time></trkpt><trkpt lat="42.192163154804796" lon="14.174456650764467"><ele>591.6666666666666</ele><time>2026-04-23T14:04:34.999Z</time></trkpt><trkpt lat="42.192010810164895" lon="14.17452661945292"><ele>598.3333333333333</ele><time>2026-04-23T14:04:35.999Z</time></trkpt><trkpt lat="42.19183440844655" lon="14.174577124486797"><ele>605.0</ele><time>2026-04-23T14:04:36.999Z</time></trkpt><trkpt lat="42.191659811967334" lon="14.174622123600841"><ele>603.6666666666666</ele><time>2026-04-23T14:04:37.999Z</time></trkpt><trkpt lat="42.191479666857305" lon="14.174663188742098"><ele>602.3333333333334</ele><time>2026-04-23T14:04:38.999Z</time></trkpt><trkpt lat="42.191311802076484" lon="14.174686463996935"><ele>601.0</ele><time>2026-04-23T14:04:39.999Z</time></trkpt><trkpt lat="42.19104452836946" lon="14.17466919061682"><ele>601.0</ele><time>2026-04-23T14:04:41.999Z</time></trkpt><trkpt lat="42.19096118704482" lon="14.174605383202957"><ele>601.0</ele><time>2026-04-23T14:04:42.999Z</time></trkpt><trkpt lat="42.19089488314645" lon="14.174542085665397"><ele>601.0</ele><time>2026-04-23T14:04:43.999Z</time></trkpt><trkpt lat="42.190870950498756" lon="14.174421695677506"><ele>601.0</ele><time>2026-04-23T14:04:44.999Z</time></trkpt><trkpt lat="42.19088280894742" lon="14.17427960762999"><ele>601.0</ele><time>2026-04-23T14:04:45.999Z</time></trkpt><trkpt lat="42.190932289046344" lon="14.174133463928225"><ele>603.4</ele><time>2026-04-23T14:04:46.999Z</time></trkpt><trkpt lat="42.190984854020535" lon="14.173975740066789"><ele>605.8</ele><time>2026-04-23T14:04:47.999Z</time></trkpt><trkpt lat="42.19098674699071" lon="14.173841349311154"><ele>608.1999999999999</ele><time>2026-04-23T14:04:48.999Z</time></trkpt><trkpt lat="42.19092883295809" lon="14.173741095216926"><ele>610.6</ele><time>2026-04-23T14:04:49.999Z</time></trkpt><trkpt lat="42.19082579708095" lon="14.17368470016705"><ele>613.0</ele><time>2026-04-23T14:04:50.999Z</time></trkpt><trkpt lat="42.1907029700608" lon="14.17369222430061"><ele>615.0</ele><time>2026-04-23T14:04:51.999Z</time></trkpt><trkpt lat="42.190576313015995" lon="14.17376218337801"><ele>617.0</ele><time>2026-04-23T14:04:52.999Z</time></trkpt><trkpt lat="42.19045853893974" lon="14.173890150484715"><ele>619.0</ele><time>2026-04-23T14:04:53.999Z</time></trkpt><trkpt lat="42.19036932547198" lon="14.17405073988741"><ele>621.0</ele><time>2026-04-23T14:04:54.999Z</time></trkpt><trkpt lat="42.19028848057162" lon="14.17424010340092"><ele>621.0</ele><time>2026-04-23T14:04:55.999Z</time></trkpt><trkpt lat="42.19024261467341" lon="14.174452206054903"><ele>621.0</ele><time>2026-04-23T14:04:56.999Z</time></trkpt><trkpt lat="42.19019215532046" lon="14.174648876090984"><ele>621.0</ele><time>2026-04-23T14:04:57.999Z</time></trkpt><trkpt lat="42.19012224887328" lon="14.174799603270397"><ele>619.75</ele><time>2026-04-23T14:04:58.999Z</time></trkpt><trkpt lat="42.190053805685906" lon="14.174908892964574"><ele>618.5</ele><time>2026-04-23T14:04:59.999Z</time></trkpt><trkpt lat="42.189963692582104" lon="14.174967512250348"><ele>617.25</ele><time>2026-04-23T14:05:00.999Z</time></trkpt><trkpt lat="42.1898447010777" lon="14.17498695167162"><ele>616.0</ele><time>2026-04-23T14:05:01.999Z</time></trkpt><trkpt lat="42.18970157477166" lon="14.174987158239793"><ele>616.0</ele><time>2026-04-23T14:05:02.999Z</time></trkpt><trkpt lat="42.18955173185266" lon="14.174999559777406"><ele>616.0</ele><time>2026-04-23T14:05:03.999Z</time></trkpt><trkpt lat="42.189397269129564" lon="14.174984909980221"><ele>616.0</ele><time>2026-04-23T14:05:04.999Z</time></trkpt><trkpt lat="42.18926767189019" lon="14.17500381591475"><ele>616.0</ele><time>2026-04-23T14:05:05.999Z</time></trkpt><trkpt lat="42.18906027326523" lon="14.175248372323527"><ele>619.75</ele><time>2026-04-23T14:05:07.999Z</time></trkpt><trkpt lat="42.188984453647215" lon="14.175423870152931"><ele>623.5</ele><time>2026-04-23T14:05:08.999Z</time></trkpt><trkpt lat="42.18889401839763" lon="14.175560594359215"><ele>627.25</ele><time>2026-04-23T14:05:09.999Z</time></trkpt><trkpt lat="42.1887892342773" lon="14.175633265911392"><ele>631.0</ele><time>2026-04-23T14:05:10.999Z</time></trkpt><trkpt lat="42.18867698615109" lon="14.175636240532723"><ele>631.0</ele><time>2026-04-23T14:05:11.999Z</time></trkpt><trkpt lat="42.18854856146734" lon="14.175588110877426"><ele>631.0</ele><time>2026-04-23T14:05:12.999Z</time></trkpt><trkpt lat="42.188422717321096" lon="14.17549060470467"><ele>631.0</ele><time>2026-04-23T14:05:13.999Z</time></trkpt><trkpt lat="42.18828176353276" lon="14.17537560522328"><ele>631.0</ele><time>2026-04-23T14:05:14.999Z</time></trkpt><trkpt lat="42.18812463916083" lon="14.175264264103713"><ele>633.3333333333334</ele><time>2026-04-23T14:05:15.999Z</time></trkpt><trkpt lat="42.18795891457675" lon="14.17513728286582"><ele>635.6666666666666</ele><time>2026-04-23T14:05:16.999Z</time></trkpt><trkpt lat="42.18777893664678" lon="14.17503573960541"><ele>638.0</ele><time>2026-04-23T14:05:17.999Z</time></trkpt><trkpt lat="42.18760055832555" lon="14.174950524604329"><ele>638.0</ele><time>2026-04-23T14:05:18.999Z</time></trkpt><trkpt lat="42.18744212175007" lon="14.174878353785171"><ele>638.0</ele><time>2026-04-23T14:05:19.999Z</time></trkpt><trkpt lat="42.187306809835555" lon="14.17481555853239"><ele>638.0</ele><time>2026-04-23T14:05:20.999Z</time></trkpt><trkpt lat="42.18719295137959" lon="14.174777241462522"><ele>638.0</ele><time>2026-04-23T14:05:21.999Z</time></trkpt><trkpt lat="42.187094094238574" lon="14.1748007793519"><ele>639.4</ele><time>2026-04-23T14:05:22.999Z</time></trkpt><trkpt lat="42.18701657997927" lon="14.174880319188906"><ele>640.8</ele><time>2026-04-23T14:05:23.999Z</time></trkpt><trkpt lat="42.18696823706268" lon="14.175005705309307"><ele>642.2</ele><time>2026-04-23T14:05:24.999Z</time></trkpt><trkpt lat="42.18696666746458" lon="14.175149081419912"><ele>643.6</ele><time>2026-04-23T14:05:25.999Z</time></trkpt><trkpt lat="42.18701745881974" lon="14.175281278610104"><ele>645.0</ele><time>2026-04-23T14:05:26.999Z</time></trkpt><trkpt lat="42.18711552072609" lon="14.175380496063157"><ele>645.0</ele><time>2026-04-23T14:05:27.999Z</time></trkpt><trkpt lat="42.18724680852298" lon="14.175454683824697"><ele>645.0</ele><time>2026-04-23T14:05:28.999Z</time></trkpt><trkpt lat="42.18738661114645" lon="14.175527623119386"><ele>645.0</ele><time>2026-04-23T14:05:29.999Z</time></trkpt><trkpt lat="42.18750582271961" lon="14.175621932316089"><ele>645.0</ele><time>2026-04-23T14:05:30.999Z</time></trkpt><trkpt lat="42.187574904193774" lon="14.17575187114736"><ele>642.0</ele><time>2026-04-23T14:05:31.999Z</time></trkpt><trkpt lat="42.18763836711446" lon="14.175869135564145"><ele>639.0</ele><time>2026-04-23T14:05:32.999Z</time></trkpt><trkpt lat="42.18765007542685" lon="14.176022362480994"><ele>636.0</ele><time>2026-04-23T14:05:34Z</time></trkpt><trkpt lat="42.18759724652086" lon="14.17615802108837"><ele>633.0</ele><time>2026-04-23T14:05:35Z</time></trkpt><trkpt lat="42.18750936790681" lon="14.17624985214687"><ele>630.0</ele><time>2026-04-23T14:05:36Z</time></trkpt><trkpt lat="42.18740348861305" lon="14.176350803332737"><ele>635.3333333333334</ele><time>2026-04-23T14:05:37Z</time></trkpt><trkpt lat="42.1872834977153" lon="14.176478456718225"><ele>640.6666666666667</ele><time>2026-04-23T14:05:38Z</time></trkpt><trkpt lat="42.18716612142004" lon="14.176617104540359"><ele>646.0</ele><time>2026-04-23T14:05:39Z</time></trkpt><trkpt lat="42.187022633723664" lon="14.17676084251811"><ele>646.0</ele><time>2026-04-23T14:05:40Z</time></trkpt><trkpt lat="42.1868814361405" lon="14.176918891886116"><ele>646.0</ele><time>2026-04-23T14:05:41Z</time></trkpt><trkpt lat="42.18673742243891" lon="14.177086981690994"><ele>646.0</ele><time>2026-04-23T14:05:42Z</time></trkpt><trkpt lat="42.186586549251345" lon="14.177261485632252"><ele>646.0</ele><time>2026-04-23T14:05:43Z</time></trkpt><trkpt lat="42.18643646414123" lon="14.177451887957886"><ele>646.0</ele><time>2026-04-23T14:05:44Z</time></trkpt><trkpt lat="42.18628282177678" lon="14.177655705532029"><ele>646.0</ele><time>2026-04-23T14:05:45Z</time></trkpt><trkpt lat="42.18611521744355" lon="14.177845724073793"><ele>646.0</ele><time>2026-04-23T14:05:46Z</time></trkpt><trkpt lat="42.18596218800442" lon="14.178037884906583"><ele>646.0</ele><time>2026-04-23T14:05:47Z</time></trkpt><trkpt lat="42.18584247821312" lon="14.178233668891512"><ele>646.0</ele><time>2026-04-23T14:05:48Z</time></trkpt><trkpt lat="42.18574181285299" lon="14.178416499940372"><ele>647.0</ele><time>2026-04-23T14:05:49Z</time></trkpt><trkpt lat="42.18568685167011" lon="14.178616090514799"><ele>648.0</ele><time>2026-04-23T14:05:50Z</time></trkpt><trkpt lat="42.185671018221655" lon="14.17881659958464"><ele>649.0</ele><time>2026-04-23T14:05:51Z</time></trkpt><trkpt lat="42.18569210438249" lon="14.179012847451908"><ele>645.3333333333334</ele><time>2026-04-23T14:05:52Z</time></trkpt><trkpt lat="42.1857460785312" lon="14.179207131658112"><ele>641.6666666666666</ele><time>2026-04-23T14:05:53Z</time></trkpt><trkpt lat="42.18580591945449" lon="14.17940527275041"><ele>638.0</ele><time>2026-04-23T14:05:54Z</time></trkpt><trkpt lat="42.185818023115" lon="14.179596268419782"><ele>638.0</ele><time>2026-04-23T14:05:55Z</time></trkpt><trkpt lat="42.1858188862313" lon="14.17978081943709"><ele>638.0</ele><time>2026-04-23T14:05:56Z</time></trkpt><trkpt lat="42.185811524616916" lon="14.179958077932824"><ele>638.0</ele><time>2026-04-23T14:05:57Z</time></trkpt><trkpt lat="42.18581492848392" lon="14.180135540514376"><ele>638.0</ele><time>2026-04-23T14:05:58Z</time></trkpt><trkpt lat="42.18580065928147" lon="14.180312033340886"><ele>638.1999999999999</ele><time>2026-04-23T14:05:59Z</time></trkpt><trkpt lat="42.1857635132217" lon="14.180459549681755"><ele>638.4</ele><time>2026-04-23T14:06:00Z</time></trkpt><trkpt lat="42.1857457213348" lon="14.180591819906278"><ele>638.5999999999999</ele><time>2026-04-23T14:06:01Z</time></trkpt><trkpt lat="42.185667866162994" lon="14.180669775273024"><ele>638.8</ele><time>2026-04-23T14:06:02Z</time></trkpt><trkpt lat="42.1855457828655" lon="14.180694151076365"><ele>639.0</ele><time>2026-04-23T14:06:03Z</time></trkpt><trkpt lat="42.18541183176261" lon="14.18065230557105"><ele>641.0</ele><time>2026-04-23T14:06:04Z</time></trkpt><trkpt lat="42.185272431276694" lon="14.180638744213242"><ele>643.0</ele><time>2026-04-23T14:06:05Z</time></trkpt><trkpt lat="42.185110869037445" lon="14.180627967671246"><ele>645.0</ele><time>2026-04-23T14:06:06Z</time></trkpt><trkpt lat="42.18494019642393" lon="14.180607826710471"><ele>647.0</ele><time>2026-04-23T14:06:07Z</time></trkpt><trkpt lat="42.18477055917145" lon="14.180597724132669"><ele>649.0</ele><time>2026-04-23T14:06:08Z</time></trkpt><trkpt lat="42.18460803847588" lon="14.180609290462847"><ele>651.0</ele><time>2026-04-23T14:06:09Z</time></trkpt><trkpt lat="42.18445713560016" lon="14.180649272723294"><ele>649.5</ele><time>2026-04-23T14:06:10Z</time></trkpt><trkpt lat="42.18432730017689" lon="14.180722520636179"><ele>648.0</ele><time>2026-04-23T14:06:11Z</time></trkpt><trkpt lat="42.1842098027709" lon="14.180832573370791"><ele>646.5</ele><time>2026-04-23T14:06:12Z</time></trkpt><trkpt lat="42.18410119257773" lon="14.180971338887643"><ele>645.0</ele><time>2026-04-23T14:06:13Z</time></trkpt><trkpt lat="42.18400900084884" lon="14.181138216596993"><ele>645.0</ele><time>2026-04-23T14:06:14Z</time></trkpt><trkpt lat="42.183933287449186" lon="14.181302427617961"><ele>645.0</ele><time>2026-04-23T14:06:15Z</time></trkpt><trkpt lat="42.183859847287714" lon="14.18147525110833"><ele>645.0</ele><time>2026-04-23T14:06:16Z</time></trkpt><trkpt lat="42.18377985698891" lon="14.18164181163074"><ele>645.0</ele><time>2026-04-23T14:06:17Z</time></trkpt><trkpt lat="42.183707050631625" lon="14.181788555478494"><ele>644.6</ele><time>2026-04-23T14:06:18Z</time></trkpt><trkpt lat="42.18362644729312" lon="14.181905316207859"><ele>644.2</ele><time>2026-04-23T14:06:19Z</time></trkpt><trkpt lat="42.1835674477142" lon="14.182023604362683"><ele>643.8</ele><time>2026-04-23T14:06:20Z</time></trkpt><trkpt lat="42.18347508817665" lon="14.182089839397747"><ele>643.4</ele><time>2026-04-23T14:06:21Z</time></trkpt><trkpt lat="42.18337707546248" lon="14.182104702845033"><ele>643.0</ele><time>2026-04-23T14:06:22Z</time></trkpt><trkpt lat="42.18329011595416" lon="14.18202073391563"><ele>643.0</ele><time>2026-04-23T14:06:23Z</time></trkpt><trkpt lat="42.183203147214705" lon="14.181944759736302"><ele>643.0</ele><time>2026-04-23T14:06:24Z</time></trkpt><trkpt lat="42.183097202581195" lon="14.181859880679099"><ele>643.0</ele><time>2026-04-23T14:06:25Z</time></trkpt><trkpt lat="42.18299669200861" lon="14.181739608880866"><ele>643.0</ele><time>2026-04-23T14:06:26Z</time></trkpt><trkpt lat="42.18288404561329" lon="14.181613814699661"><ele>643.5</ele><time>2026-04-23T14:06:27Z</time></trkpt><trkpt lat="42.182768051451376" lon="14.18149218152031"><ele>644.0</ele><time>2026-04-23T14:06:28Z</time></trkpt><trkpt lat="42.18264970992303" lon="14.181380826016888"><ele>644.5</ele><time>2026-04-23T14:06:29Z</time></trkpt><trkpt lat="42.1825293814271" lon="14.181273745047188"><ele>645.0</ele><time>2026-04-23T14:06:30Z</time></trkpt><trkpt lat="42.18240343783377" lon="14.181178869202425"><ele>643.0</ele><time>2026-04-23T14:06:31Z</time></trkpt><trkpt lat="42.182268938747406" lon="14.181091583047468"><ele>641.0</ele><time>2026-04-23T14:06:32Z</time></trkpt><trkpt lat="42.18213340766759" lon="14.18099914870521"><ele>639.0</ele><time>2026-04-23T14:06:33Z</time></trkpt><trkpt lat="42.182009725624695" lon="14.180880153633208"><ele>639.0</ele><time>2026-04-23T14:06:34Z</time></trkpt><trkpt lat="42.181881365947426" lon="14.180768621191374"><ele>639.0</ele><time>2026-04-23T14:06:35Z</time></trkpt><trkpt lat="42.18174951224194" lon="14.180664559503185"><ele>639.0</ele><time>2026-04-23T14:06:36Z</time></trkpt><trkpt lat="42.181626831633196" lon="14.180533335141487"><ele>645.0</ele><time>2026-04-23T14:06:37Z</time></trkpt><trkpt lat="42.181501568588075" lon="14.18040299455813"><ele>651.0</ele><time>2026-04-23T14:06:38Z</time></trkpt><trkpt lat="42.181376985838035" lon="14.180286159279095"><ele>657.0</ele><time>2026-04-23T14:06:39Z</time></trkpt><trkpt lat="42.181254640629" lon="14.180175336475356"><ele>657.0</ele><time>2026-04-23T14:06:40Z</time></trkpt><trkpt lat="42.1811275659616" lon="14.18008116033331"><ele>657.0</ele><time>2026-04-23T14:06:41Z</time></trkpt><trkpt lat="42.18098981687846" lon="14.180030648475519"><ele>657.0</ele><time>2026-04-23T14:06:42Z</time></trkpt><trkpt lat="42.1808447775171" lon="14.180032789748525"><ele>657.0</ele><time>2026-04-23T14:06:43Z</time></trkpt><trkpt lat="42.18069169080625" lon="14.18006969722625"><ele>655.75</ele><time>2026-04-23T14:06:44Z</time></trkpt><trkpt lat="42.180545919414264" lon="14.180129135967102"><ele>654.5</ele><time>2026-04-23T14:06:45Z</time></trkpt><trkpt lat="42.18040686650277" lon="14.18018950764049"><ele>653.25</ele><time>2026-04-23T14:06:46Z</time></trkpt><trkpt lat="42.18028895023685" lon="14.18024985523875"><ele>652.0</ele><time>2026-04-23T14:06:47Z</time></trkpt><trkpt lat="42.18016779643164" lon="14.180240398283784"><ele>652.0</ele><time>2026-04-23T14:06:48Z</time></trkpt><trkpt lat="42.18005924511656" lon="14.180188160190658"><ele>652.0</ele><time>2026-04-23T14:06:49Z</time></trkpt><trkpt lat="42.17994496934877" lon="14.180105136734195"><ele>652.0</ele><time>2026-04-23T14:06:50Z</time></trkpt><trkpt lat="42.17981368267261" lon="14.17999789456523"><ele>652.0</ele><time>2026-04-23T14:06:51Z</time></trkpt><trkpt lat="42.17968883599479" lon="14.179865226048681"><ele>657.5</ele><time>2026-04-23T14:06:52Z</time></trkpt><trkpt lat="42.17957638646316" lon="14.17974341564236"><ele>663.0</ele><time>2026-04-23T14:06:53Z</time></trkpt><trkpt lat="42.17946897356022" lon="14.179633203207489"><ele>668.5</ele><time>2026-04-23T14:06:54Z</time></trkpt><trkpt lat="42.17936983202466" lon="14.179555438528899"><ele>674.0</ele><time>2026-04-23T14:06:55Z</time></trkpt><trkpt lat="42.179275695238466" lon="14.179524302077432"><ele>674.0</ele><time>2026-04-23T14:06:56Z</time></trkpt><trkpt lat="42.179180277409394" lon="14.179539912826142"><ele>674.0</ele><time>2026-04-23T14:06:57Z</time></trkpt><trkpt lat="42.179091582569455" lon="14.179586246068865"><ele>674.0</ele><time>2026-04-23T14:06:58Z</time></trkpt><trkpt lat="42.17900466051448" lon="14.179659490588767"><ele>674.0</ele><time>2026-04-23T14:06:58.999Z</time></trkpt><trkpt lat="42.178915151494564" lon="14.179735546587423"><ele>674.0</ele><time>2026-04-23T14:06:59.999Z</time></trkpt><trkpt lat="42.178821463140885" lon="14.17980842922803"><ele>671.2</ele><time>2026-04-23T14:07:00.999Z</time></trkpt><trkpt lat="42.1787361718834" lon="14.179877385282806"><ele>668.4000000000001</ele><time>2026-04-23T14:07:01.999Z</time></trkpt><trkpt lat="42.17866645980304" lon="14.179979046928304"><ele>665.6</ele><time>2026-04-23T14:07:02.999Z</time></trkpt><trkpt lat="42.17861379316428" lon="14.18009618656173"><ele>662.8</ele><time>2026-04-23T14:07:03.999Z</time></trkpt><trkpt lat="42.178608348987154" lon="14.180239251673461"><ele>660.0</ele><time>2026-04-23T14:07:04.999Z</time></trkpt><trkpt lat="42.17862090059301" lon="14.180376004131697"><ele>660.0</ele><time>2026-04-23T14:07:05.999Z</time></trkpt><trkpt lat="42.17865315705189" lon="14.180485023804808"><ele>660.0</ele><time>2026-04-23T14:07:06.999Z</time></trkpt><trkpt lat="42.17865579831787" lon="14.180578348676152"><ele>660.0</ele><time>2026-04-23T14:07:07.999Z</time></trkpt><trkpt lat="42.178719736726336" lon="14.1807185444983"><ele>660.0</ele><time>2026-04-23T14:07:09.999Z</time></trkpt><trkpt lat="42.178742109092006" lon="14.180806957490317"><ele>660.0</ele><time>2026-04-23T14:07:10.999Z</time></trkpt><trkpt lat="42.17877501605344" lon="14.1809072454413"><ele>660.0</ele><time>2026-04-23T14:07:11.999Z</time></trkpt><trkpt lat="42.17881606883575" lon="14.181039795773536"><ele>661.75</ele><time>2026-04-23T14:07:12.999Z</time></trkpt><trkpt lat="42.17886309106223" lon="14.18119406515252"><ele>663.5</ele><time>2026-04-23T14:07:13.999Z</time></trkpt><trkpt lat="42.178913820957725" lon="14.1813628619399"><ele>665.25</ele><time>2026-04-23T14:07:14.999Z</time></trkpt><trkpt lat="42.17896759365218" lon="14.181541782639323"><ele>667.0</ele><time>2026-04-23T14:07:15.999Z</time></trkpt><trkpt lat="42.179031398413834" lon="14.181713294907578"><ele>657.0</ele><time>2026-04-23T14:07:16.999Z</time></trkpt><trkpt lat="42.179086261307205" lon="14.1819064393699"><ele>647.0</ele><time>2026-04-23T14:07:17.999Z</time></trkpt><trkpt lat="42.17915066948825" lon="14.182098143793164"><ele>637.0</ele><time>2026-04-23T14:07:18.999Z</time></trkpt><trkpt lat="42.17921068065417" lon="14.182295534924215"><ele>637.6666666666667</ele><time>2026-04-23T14:07:19.999Z</time></trkpt><trkpt lat="42.17927245660872" lon="14.182501842333021"><ele>638.3333333333334</ele><time>2026-04-23T14:07:20.999Z</time></trkpt><trkpt lat="42.179334014688415" lon="14.182704026970613"><ele>639.0</ele><time>2026-04-23T14:07:21.999Z</time></trkpt><trkpt lat="42.179401484984645" lon="14.182910719808058"><ele>639.0</ele><time>2026-04-23T14:07:22.999Z</time></trkpt><trkpt lat="42.17947386830093" lon="14.183122743799727"><ele>639.0</ele><time>2026-04-23T14:07:23.999Z</time></trkpt><trkpt lat="42.17953148641028" lon="14.183340244449443"><ele>639.0</ele><time>2026-04-23T14:07:24.999Z</time></trkpt><trkpt lat="42.179611824061546" lon="14.183554360813018"><ele>640.0</ele><time>2026-04-23T14:07:25.999Z</time></trkpt><trkpt lat="42.1797013596807" lon="14.183760651812088"><ele>641.0</ele><time>2026-04-23T14:07:26.999Z</time></trkpt><trkpt lat="42.17978437825978" lon="14.183947084315795"><ele>642.0</ele><time>2026-04-23T14:07:27.999Z</time></trkpt><trkpt lat="42.17982581141372" lon="14.184156830034173"><ele>643.0</ele><time>2026-04-23T14:07:28.999Z</time></trkpt><trkpt lat="42.17980874649119" lon="14.184375641527973"><ele>644.0</ele><time>2026-04-23T14:07:30Z</time></trkpt><trkpt lat="42.1798087464884" lon="14.184603162435195"><ele>645.0</ele><time>2026-04-23T14:07:31Z</time></trkpt><trkpt lat="42.179808746486124" lon="14.184829426329513"><ele>643.6666666666666</ele><time>2026-04-23T14:07:32Z</time></trkpt><trkpt lat="42.179821168685116" lon="14.185056846120016"><ele>642.3333333333333</ele><time>2026-04-23T14:07:33Z</time></trkpt><trkpt lat="42.17982126871302" lon="14.185264893274836"><ele>641.0</ele><time>2026-04-23T14:07:34Z</time></trkpt><trkpt lat="42.1797892175467" lon="14.185463088176316"><ele>641.0</ele><time>2026-04-23T14:07:35Z</time></trkpt><trkpt lat="42.17975583945588" lon="14.185655026601506"><ele>641.0</ele><time>2026-04-23T14:07:36Z</time></trkpt><trkpt lat="42.17971281920156" lon="14.185857767146203"><ele>641.0</ele><time>2026-04-23T14:07:37Z</time></trkpt><trkpt lat="42.17967960055287" lon="14.18608578687913"><ele>636.6666666666666</ele><time>2026-04-23T14:07:38Z</time></trkpt><trkpt lat="42.179623253712386" lon="14.186313424726231"><ele>632.3333333333334</ele><time>2026-04-23T14:07:39Z</time></trkpt><trkpt lat="42.17957060327168" lon="14.186560714371296"><ele>628.0</ele><time>2026-04-23T14:07:40Z</time></trkpt><trkpt lat="42.17951854302692" lon="14.18680935185601"><ele>625.3333333333334</ele><time>2026-04-23T14:07:41Z</time></trkpt><trkpt lat="42.17946349952325" lon="14.187051630988034"><ele>622.6666666666666</ele><time>2026-04-23T14:07:42Z</time></trkpt><trkpt lat="42.179417006506746" lon="14.187276435962252"><ele>620.0</ele><time>2026-04-23T14:07:43Z</time></trkpt><trkpt lat="42.17936482327542" lon="14.187485166473165"><ele>618.0</ele><time>2026-04-23T14:07:44Z</time></trkpt><trkpt lat="42.17931801686609" lon="14.187695720038676"><ele>616.0</ele><time>2026-04-23T14:07:45Z</time></trkpt><trkpt lat="42.1792673112537" lon="14.18788963153704"><ele>614.0</ele><time>2026-04-23T14:07:46Z</time></trkpt><trkpt lat="42.17921298125132" lon="14.188089372802029"><ele>613.0</ele><time>2026-04-23T14:07:47Z</time></trkpt><trkpt lat="42.17918519909465" lon="14.188270710821243"><ele>612.0</ele><time>2026-04-23T14:07:48Z</time></trkpt><trkpt lat="42.179175736394285" lon="14.188448162130694"><ele>611.0</ele><time>2026-04-23T14:07:49Z</time></trkpt><trkpt lat="42.17920853939902" lon="14.188613153235691"><ele>610.0</ele><time>2026-04-23T14:07:50Z</time></trkpt><trkpt lat="42.1792841891794" lon="14.188760562135526"><ele>610.0</ele><time>2026-04-23T14:07:51Z</time></trkpt><trkpt lat="42.179390011629316" lon="14.188897092650201"><ele>610.0</ele><time>2026-04-23T14:07:52Z</time></trkpt><trkpt lat="42.17950824741123" lon="14.189024982855733"><ele>610.0</ele><time>2026-04-23T14:07:53Z</time></trkpt><trkpt lat="42.17960270180247" lon="14.189138684025096"><ele>610.0</ele><time>2026-04-23T14:07:54Z</time></trkpt><trkpt lat="42.17971315556317" lon="14.189285511220174"><ele>608.5</ele><time>2026-04-23T14:07:55Z</time></trkpt><trkpt lat="42.17979927372148" lon="14.189409650341641"><ele>607.0</ele><time>2026-04-23T14:07:56Z</time></trkpt><trkpt lat="42.17985496874578" lon="14.18950909785852"><ele>605.5</ele><time>2026-04-23T14:07:57Z</time></trkpt><trkpt lat="42.17984181896827" lon="14.189648990324255"><ele>604.0</ele><time>2026-04-23T14:07:58Z</time></trkpt><trkpt lat="42.17980882589711" lon="14.18981602982086"><ele>602.0</ele><time>2026-04-23T14:07:59Z</time></trkpt><trkpt lat="42.17974073314456" lon="14.189990325800272"><ele>600.0</ele><time>2026-04-23T14:08:00Z</time></trkpt><trkpt lat="42.17971314451021" lon="14.190134365079413"><ele>598.0</ele><time>2026-04-23T14:08:01Z</time></trkpt><trkpt lat="42.17963736184323" lon="14.19024776854773"><ele>596.0</ele><time>2026-04-23T14:08:02Z</time></trkpt><trkpt lat="42.17955535053935" lon="14.19026699330047"><ele>596.0</ele><time>2026-04-23T14:08:03Z</time></trkpt><trkpt lat="42.1794557098159" lon="14.190191232394936"><ele>596.0</ele><time>2026-04-23T14:08:04Z</time></trkpt><trkpt lat="42.17936595972321" lon="14.19013040845612"><ele>596.0</ele><time>2026-04-23T14:08:05Z</time></trkpt><trkpt lat="42.17923773790253" lon="14.190073641515305"><ele>596.0</ele><time>2026-04-23T14:08:06Z</time></trkpt><trkpt lat="42.17909059240556" lon="14.189978993782908"><ele>595.75</ele><time>2026-04-23T14:08:07Z</time></trkpt><trkpt lat="42.17894044620416" lon="14.189905317206922"><ele>595.5</ele><time>2026-04-23T14:08:08Z</time></trkpt><trkpt lat="42.178807441184475" lon="14.189855129010818"><ele>595.25</ele><time>2026-04-23T14:08:09Z</time></trkpt><trkpt lat="42.178689926291554" lon="14.189841399361992"><ele>595.0</ele><time>2026-04-23T14:08:10Z</time></trkpt><trkpt lat="42.178594147744484" lon="14.189877972957841"><ele>595.0</ele><time>2026-04-23T14:08:11Z</time></trkpt><trkpt lat="42.17853495077835" lon="14.18996527599621"><ele>595.0</ele><time>2026-04-23T14:08:12Z</time></trkpt><trkpt lat="42.17851891430013" lon="14.190068000977703"><ele>595.0</ele><time>2026-04-23T14:08:13Z</time></trkpt><trkpt lat="42.17854534268201" lon="14.190193885641587"><ele>595.0</ele><time>2026-04-23T14:08:14Z</time></trkpt><trkpt lat="42.178585430763796" lon="14.19028787121998"><ele>595.0</ele><time>2026-04-23T14:08:15Z</time></trkpt><trkpt lat="42.178682191806885" lon="14.19037322054604"><ele>595.0</ele><time>2026-04-23T14:08:16Z</time></trkpt><trkpt lat="42.17880462478849" lon="14.190431983612049"><ele>595.0</ele><time>2026-04-23T14:08:17Z</time></trkpt><trkpt lat="42.17893439801344" lon="14.190488822589122"><ele>595.0</ele><time>2026-04-23T14:08:18Z</time></trkpt><trkpt lat="42.17906713747101" lon="14.190562937031348"><ele>595.0</ele><time>2026-04-23T14:08:19Z</time></trkpt><trkpt lat="42.1791870097039" lon="14.190619857500316"><ele>592.25</ele><time>2026-04-23T14:08:20Z</time></trkpt><trkpt lat="42.17931766978678" lon="14.19069574207839"><ele>589.5</ele><time>2026-04-23T14:08:21Z</time></trkpt><trkpt lat="42.17944528746337" lon="14.19075314894592"><ele>586.75</ele><time>2026-04-23T14:08:22Z</time></trkpt><trkpt lat="42.179579466394856" lon="14.190793629308986"><ele>584.0</ele><time>2026-04-23T14:08:23Z</time></trkpt><trkpt lat="42.17971386172054" lon="14.19081690489978"><ele>584.0</ele><time>2026-04-23T14:08:24Z</time></trkpt><trkpt lat="42.17984189482551" lon="14.1908229348586"><ele>584.0</ele><time>2026-04-23T14:08:25Z</time></trkpt><trkpt lat="42.17996812530135" lon="14.190805040817914"><ele>584.0</ele><time>2026-04-23T14:08:26Z</time></trkpt><trkpt lat="42.18009248556913" lon="14.190776435559503"><ele>584.0</ele><time>2026-04-23T14:08:27Z</time></trkpt><trkpt lat="42.18021424094393" lon="14.190752717819466"><ele>583.6</ele><time>2026-04-23T14:08:28Z</time></trkpt><trkpt lat="42.18033161789325" lon="14.190748098479329"><ele>583.2</ele><time>2026-04-23T14:08:29Z</time></trkpt><trkpt lat="42.180439899431725" lon="14.190774254110332"><ele>582.8000000000001</ele><time>2026-04-23T14:08:30Z</time></trkpt><trkpt lat="42.180523269471536" lon="14.190872361210541"><ele>582.4</ele><time>2026-04-23T14:08:31Z</time></trkpt><trkpt lat="42.180612367436" lon="14.19094840212719"><ele>582.0</ele><time>2026-04-23T14:08:32Z</time></trkpt><trkpt lat="42.180690743513544" lon="14.191018512335255"><ele>581.2</ele><time>2026-04-23T14:08:33Z</time></trkpt><trkpt lat="42.18076650799332" lon="14.191086986708452"><ele>580.4000000000001</ele><time>2026-04-23T14:08:34Z</time></trkpt><trkpt lat="42.18085452831254" lon="14.191133071022566"><ele>579.5999999999999</ele><time>2026-04-23T14:08:35Z</time></trkpt><trkpt lat="42.180947160426506" lon="14.191131559351515"><ele>578.8</ele><time>2026-04-23T14:08:36Z</time></trkpt><trkpt lat="42.181032923778425" lon="14.191085878897871"><ele>578.0</ele><time>2026-04-23T14:08:37Z</time></trkpt><trkpt lat="42.18110571038486" lon="14.191004241751596"><ele>578.0</ele><time>2026-04-23T14:08:38Z</time></trkpt><trkpt lat="42.1811598276966" lon="14.190926354500135"><ele>578.0</ele><time>2026-04-23T14:08:39Z</time></trkpt><trkpt lat="42.18121798076592" lon="14.190854492691065"><ele>578.0</ele><time>2026-04-23T14:08:40Z</time></trkpt><trkpt lat="42.18128724652637" lon="14.190834865234693"><ele>578.0</ele><time>2026-04-23T14:08:41Z</time></trkpt><trkpt lat="42.18135184593571" lon="14.190877170571499"><ele>578.0</ele><time>2026-04-23T14:08:42Z</time></trkpt><trkpt lat="42.181396769084984" lon="14.19094415139008"><ele>578.0</ele><time>2026-04-23T14:08:43Z</time></trkpt><trkpt lat="42.18140420755821" lon="14.19104297658151"><ele>578.0</ele><time>2026-04-23T14:08:44Z</time></trkpt><trkpt lat="42.18138378725101" lon="14.191146153077119"><ele>578.0</ele><time>2026-04-23T14:08:45Z</time></trkpt><trkpt lat="42.18132441500713" lon="14.191251346447395"><ele>578.0</ele><time>2026-04-23T14:08:46Z</time></trkpt><trkpt lat="42.181249593082" lon="14.191341622130638"><ele>578.0</ele><time>2026-04-23T14:08:47Z</time></trkpt><trkpt lat="42.18116745264572" lon="14.191419692821853"><ele>578.0</ele><time>2026-04-23T14:08:48Z</time></trkpt><trkpt lat="42.181082686184695" lon="14.191487227871344"><ele>578.0</ele><time>2026-04-23T14:08:49Z</time></trkpt><trkpt lat="42.18098643577604" lon="14.191543249099666"><ele>576.4</ele><time>2026-04-23T14:08:50Z</time></trkpt><trkpt lat="42.180890657703266" lon="14.191589937439351"><ele>574.8</ele><time>2026-04-23T14:08:51Z</time></trkpt><trkpt lat="42.18078867810474" lon="14.191639553655605"><ele>573.2</ele><time>2026-04-23T14:08:52Z</time></trkpt><trkpt lat="42.180683961008945" lon="14.191698368583845"><ele>571.6</ele><time>2026-04-23T14:08:53Z</time></trkpt><trkpt lat="42.18057483484907" lon="14.191765125102942"><ele>570.0</ele><time>2026-04-23T14:08:54Z</time></trkpt><trkpt lat="42.18046543710981" lon="14.191837775950908"><ele>570.0</ele><time>2026-04-23T14:08:55Z</time></trkpt><trkpt lat="42.180359157821" lon="14.191920088958394"><ele>570.0</ele><time>2026-04-23T14:08:56Z</time></trkpt><trkpt lat="42.18025731956003" lon="14.192004186301988"><ele>570.0</ele><time>2026-04-23T14:08:57Z</time></trkpt><trkpt lat="42.180157290957936" lon="14.192077432321664"><ele>570.0</ele><time>2026-04-23T14:08:58Z</time></trkpt><trkpt lat="42.180064251083344" lon="14.19215160580663"><ele>570.0</ele><time>2026-04-23T14:08:59Z</time></trkpt><trkpt lat="42.179975687139994" lon="14.192225185841947"><ele>570.0</ele><time>2026-04-23T14:09:00Z</time></trkpt><trkpt lat="42.17988512985933" lon="14.192300374464153"><ele>570.0</ele><time>2026-04-23T14:09:01Z</time></trkpt><trkpt lat="42.179793298367315" lon="14.192370909010918"><ele>570.0</ele><time>2026-04-23T14:09:02Z</time></trkpt><trkpt lat="42.17970704832229" lon="14.192436368947698"><ele>570.0</ele><time>2026-04-23T14:09:03Z</time></trkpt><trkpt lat="42.17961476910966" lon="14.19250669693729"><ele>568.4</ele><time>2026-04-23T14:09:04Z</time></trkpt><trkpt lat="42.17952840817209" lon="14.19257322982536"><ele>566.8</ele><time>2026-04-23T14:09:05Z</time></trkpt><trkpt lat="42.179445396068495" lon="14.19263881244377"><ele>565.2</ele><time>2026-04-23T14:09:06Z</time></trkpt><trkpt lat="42.179376633204086" lon="14.192713582845686"><ele>563.6</ele><time>2026-04-23T14:09:07Z</time></trkpt><trkpt lat="42.17932179149478" lon="14.192807992527255"><ele>562.0</ele><time>2026-04-23T14:09:08Z</time></trkpt><trkpt lat="42.179282093729526" lon="14.192924542583235"><ele>562.0</ele><time>2026-04-23T14:09:09Z</time></trkpt><trkpt lat="42.179261241851975" lon="14.193056888422609"><ele>562.0</ele><time>2026-04-23T14:09:10Z</time></trkpt><trkpt lat="42.179249799493476" lon="14.193194253795115"><ele>562.0</ele><time>2026-04-23T14:09:11Z</time></trkpt><trkpt lat="42.179248403315086" lon="14.193318946453166"><ele>562.0</ele><time>2026-04-23T14:09:12Z</time></trkpt><trkpt lat="42.17924356675678" lon="14.193440206952774"><ele>562.0</ele><time>2026-04-23T14:09:13Z</time></trkpt><trkpt lat="42.179234635685155" lon="14.193550845436011"><ele>561.3333333333334</ele><time>2026-04-23T14:09:14Z</time></trkpt><trkpt lat="42.17922988367163" lon="14.19365715358681"><ele>560.6666666666667</ele><time>2026-04-23T14:09:15Z</time></trkpt><trkpt lat="42.179228262977055" lon="14.193767481460716"><ele>560.0</ele><time>2026-04-23T14:09:16Z</time></trkpt><trkpt lat="42.17924346926498" lon="14.19388488878157"><ele>559.3333333333334</ele><time>2026-04-23T14:09:17Z</time></trkpt><trkpt lat="42.179281381723946" lon="14.193999211605403"><ele>558.6666666666666</ele><time>2026-04-23T14:09:18Z</time></trkpt><trkpt lat="42.1793408852816" lon="14.194092953856366"><ele>558.0</ele><time>2026-04-23T14:09:19Z</time></trkpt><trkpt lat="42.17941968686108" lon="14.19417323172304"><ele>556.1999999999999</ele><time>2026-04-23T14:09:20Z</time></trkpt><trkpt lat="42.179513234294895" lon="14.19423983252982"><ele>554.4</ele><time>2026-04-23T14:09:21Z</time></trkpt><trkpt lat="42.1796097020334" lon="14.194312652733421"><ele>552.5999999999999</ele><time>2026-04-23T14:09:22Z</time></trkpt><trkpt lat="42.17970646674283" lon="14.194395055276612"><ele>550.8</ele><time>2026-04-23T14:09:23Z</time></trkpt><trkpt lat="42.17980298087099" lon="14.19447423669744"><ele>549.0</ele><time>2026-04-23T14:09:24Z</time></trkpt><trkpt lat="42.1798942049821" lon="14.19455111954962"><ele>549.0</ele><time>2026-04-23T14:09:25Z</time></trkpt><trkpt lat="42.179982200189215" lon="14.194622625505357"><ele>549.0</ele><time>2026-04-23T14:09:26Z</time></trkpt><trkpt lat="42.180073279929545" lon="14.194691663031865"><ele>549.0</ele><time>2026-04-23T14:09:27Z</time></trkpt><trkpt lat="42.18017021710887" lon="14.194765944028386"><ele>549.0</ele><time>2026-04-23T14:09:28Z</time></trkpt><trkpt lat="42.180272783129794" lon="14.194837459919299"><ele>549.0</ele><time>2026-04-23T14:09:29Z</time></trkpt><trkpt lat="42.180380631069674" lon="14.194902885871993"><ele>548.25</ele><time>2026-04-23T14:09:30Z</time></trkpt><trkpt lat="42.18048659130746" lon="14.194965976102138"><ele>547.5</ele><time>2026-04-23T14:09:31Z</time></trkpt><trkpt lat="42.180595368145646" lon="14.19503084449613"><ele>546.75</ele><time>2026-04-23T14:09:32Z</time></trkpt><trkpt lat="42.18070261486386" lon="14.195098654584536"><ele>546.0</ele><time>2026-04-23T14:09:33Z</time></trkpt><trkpt lat="42.180798356124576" lon="14.19517025236743"><ele>546.0</ele><time>2026-04-23T14:09:34Z</time></trkpt><trkpt lat="42.18088132958025" lon="14.195248553081562"><ele>546.0</ele><time>2026-04-23T14:09:35Z</time></trkpt><trkpt lat="42.180956640713546" lon="14.195344629887169"><ele>546.0</ele><time>2026-04-23T14:09:36Z</time></trkpt><trkpt lat="42.181030086973315" lon="14.195449212865354"><ele>546.0</ele><time>2026-04-23T14:09:37Z</time></trkpt><trkpt lat="42.18110630093109" lon="14.19555119837713"><ele>546.0</ele><time>2026-04-23T14:09:38Z</time></trkpt><trkpt lat="42.18118785980543" lon="14.195643162608397"><ele>546.8</ele><time>2026-04-23T14:09:39Z</time></trkpt><trkpt lat="42.181276911679376" lon="14.195722879660194"><ele>547.6</ele><time>2026-04-23T14:09:40Z</time></trkpt><trkpt lat="42.18137634933849" lon="14.19577628912009"><ele>548.4</ele><time>2026-04-23T14:09:41Z</time></trkpt><trkpt lat="42.181481484796755" lon="14.195794649944729"><ele>549.2</ele><time>2026-04-23T14:09:42Z</time></trkpt><trkpt lat="42.181582162955216" lon="14.195790925387607"><ele>550.0</ele><time>2026-04-23T14:09:43Z</time></trkpt><trkpt lat="42.18167994519955" lon="14.195770483322889"><ele>551.2</ele><time>2026-04-23T14:09:44Z</time></trkpt><trkpt lat="42.18177365723264" lon="14.195743159614151"><ele>552.4</ele><time>2026-04-23T14:09:45Z</time></trkpt><trkpt lat="42.18186461327405" lon="14.19572299054129"><ele>553.6</ele><time>2026-04-23T14:09:46Z</time></trkpt><trkpt lat="42.18195610769014" lon="14.195711814060344"><ele>554.8</ele><time>2026-04-23T14:09:47Z</time></trkpt><trkpt lat="42.18205680988697" lon="14.19572697550408"><ele>556.0</ele><time>2026-04-23T14:09:48Z</time></trkpt><trkpt lat="42.182146109457356" lon="14.1957956033408"><ele>556.0</ele><time>2026-04-23T14:09:49Z</time></trkpt><trkpt lat="42.18224565855904" lon="14.195839559991066"><ele>556.0</ele><time>2026-04-23T14:09:50Z</time></trkpt><trkpt lat="42.18233671515004" lon="14.1959148805139"><ele>556.0</ele><time>2026-04-23T14:09:51Z</time></trkpt><trkpt lat="42.18243268508847" lon="14.195987507143137"><ele>556.0</ele><time>2026-04-23T14:09:52Z</time></trkpt><trkpt lat="42.18253202303059" lon="14.196061632176958"><ele>556.0</ele><time>2026-04-23T14:09:53Z</time></trkpt><trkpt lat="42.18263469696595" lon="14.196127325697551"><ele>555.0</ele><time>2026-04-23T14:09:54Z</time></trkpt><trkpt lat="42.182738957393255" lon="14.196202014464692"><ele>554.0</ele><time>2026-04-23T14:09:55Z</time></trkpt><trkpt lat="42.182844392296076" lon="14.19627326844393"><ele>553.0</ele><time>2026-04-23T14:09:56Z</time></trkpt><trkpt lat="42.18294783415664" lon="14.19634526900182"><ele>552.0</ele><time>2026-04-23T14:09:57Z</time></trkpt><trkpt lat="42.18305204541579" lon="14.196415788915784"><ele>552.0</ele><time>2026-04-23T14:09:58Z</time></trkpt><trkpt lat="42.1831553528392" lon="14.196485445454984"><ele>552.0</ele><time>2026-04-23T14:09:59Z</time></trkpt><trkpt lat="42.18324360880618" lon="14.196544819440108"><ele>552.0</ele><time>2026-04-23T14:10:00Z</time></trkpt><trkpt lat="42.18332599650727" lon="14.196599423048996"><ele>552.0</ele><time>2026-04-23T14:10:01Z</time></trkpt><trkpt lat="42.18340936932526" lon="14.196658688802557"><ele>552.0</ele><time>2026-04-23T14:10:02Z</time></trkpt><trkpt lat="42.18348922437467" lon="14.196731284234398"><ele>553.2</ele><time>2026-04-23T14:10:03Z</time></trkpt><trkpt lat="42.1835626726973" lon="14.196816937571905"><ele>554.4000000000001</ele><time>2026-04-23T14:10:04Z</time></trkpt><trkpt lat="42.18361922550229" lon="14.196935973322512"><ele>555.5999999999999</ele><time>2026-04-23T14:10:05Z</time></trkpt><trkpt lat="42.18366125884902" lon="14.197065132381656"><ele>556.8</ele><time>2026-04-23T14:10:06Z</time></trkpt><trkpt lat="42.18369289293876" lon="14.197197776468885"><ele>558.0</ele><time>2026-04-23T14:10:07Z</time></trkpt><trkpt lat="42.18372802771618" lon="14.197327392195788"><ele>559.0</ele><time>2026-04-23T14:10:08Z</time></trkpt><trkpt lat="42.18376607819005" lon="14.197463076806033"><ele>560.0</ele><time>2026-04-23T14:10:09Z</time></trkpt><trkpt lat="42.183804678614" lon="14.197582285251228"><ele>561.0</ele><time>2026-04-23T14:10:10Z</time></trkpt><trkpt lat="42.18383536715195" lon="14.197686260623227"><ele>562.0</ele><time>2026-04-23T14:10:11Z</time></trkpt><trkpt lat="42.18386447908253" lon="14.197771495296259"><ele>563.0</ele><time>2026-04-23T14:10:12Z</time></trkpt><trkpt lat="42.18389759485218" lon="14.19785006090895"><ele>564.0</ele><time>2026-04-23T14:10:13Z</time></trkpt><trkpt lat="42.18393780221915" lon="14.197921663529897"><ele>564.0</ele><time>2026-04-23T14:10:14Z</time></trkpt><trkpt lat="42.18398931190265" lon="14.197990521860188"><ele>564.0</ele><time>2026-04-23T14:10:15Z</time></trkpt><trkpt lat="42.18404887445316" lon="14.198046994405242"><ele>564.0</ele><time>2026-04-23T14:10:16Z</time></trkpt><trkpt lat="42.18411649803695" lon="14.19810705740602"><ele>564.0</ele><time>2026-04-23T14:10:17Z</time></trkpt><trkpt lat="42.184180407480504" lon="14.19816465312632"><ele>564.0</ele><time>2026-04-23T14:10:18Z</time></trkpt><trkpt lat="42.18424741689286" lon="14.198219374182564"><ele>564.0</ele><time>2026-04-23T14:10:19Z</time></trkpt><trkpt lat="42.18431596346798" lon="14.19829137952049"><ele>563.1666666666666</ele><time>2026-04-23T14:10:20Z</time></trkpt><trkpt lat="42.18438486742787" lon="14.198360337736764"><ele>562.3333333333334</ele><time>2026-04-23T14:10:21Z</time></trkpt><trkpt lat="42.18444496648965" lon="14.19843192136141"><ele>561.5</ele><time>2026-04-23T14:10:22Z</time></trkpt><trkpt lat="42.18449006686771" lon="14.198509822617735"><ele>560.6666666666667</ele><time>2026-04-23T14:10:23Z</time></trkpt><trkpt lat="42.18455558930546" lon="14.198656493511763"><ele>559.8333333333334</ele><time>2026-04-23T14:10:25Z</time></trkpt><trkpt lat="42.18459064820107" lon="14.198742760831076"><ele>559.0</ele><time>2026-04-23T14:10:26Z</time></trkpt><trkpt lat="42.18462935392846" lon="14.198841807040475"><ele>559.0</ele><time>2026-04-23T14:10:27Z</time></trkpt><trkpt lat="42.18467454830374" lon="14.198948728385796"><ele>559.0</ele><time>2026-04-23T14:10:28Z</time></trkpt><trkpt lat="42.184732699268324" lon="14.199052911161957"><ele>559.0</ele><time>2026-04-23T14:10:29Z</time></trkpt><trkpt lat="42.18480658636605" lon="14.199143401635267"><ele>559.0</ele><time>2026-04-23T14:10:30Z</time></trkpt><trkpt lat="42.18489236153806" lon="14.199220418312347"><ele>559.0</ele><time>2026-04-23T14:10:31Z</time></trkpt><trkpt lat="42.18498200173999" lon="14.199281300562404"><ele>558.6666666666667</ele><time>2026-04-23T14:10:32Z</time></trkpt><trkpt lat="42.18506389474163" lon="14.199325031472904"><ele>558.3333333333334</ele><time>2026-04-23T14:10:33Z</time></trkpt><trkpt lat="42.18514321886791" lon="14.199363360045702"><ele>558.0</ele><time>2026-04-23T14:10:34Z</time></trkpt><trkpt lat="42.185221143583675" lon="14.199406407087942"><ele>557.6666666666666</ele><time>2026-04-23T14:10:35Z</time></trkpt><trkpt lat="42.18530325270136" lon="14.199449508676322"><ele>557.3333333333333</ele><time>2026-04-23T14:10:36Z</time></trkpt><trkpt lat="42.185391642625056" lon="14.199497082233611"><ele>557.0</ele><time>2026-04-23T14:10:37Z</time></trkpt><trkpt lat="42.18547601201514" lon="14.199540641467523"><ele>557.0</ele><time>2026-04-23T14:10:38Z</time></trkpt><trkpt lat="42.185555744328504" lon="14.199588808031589"><ele>557.0</ele><time>2026-04-23T14:10:39Z</time></trkpt><trkpt lat="42.18563819248499" lon="14.199644097947816"><ele>557.0</ele><time>2026-04-23T14:10:40Z</time></trkpt><trkpt lat="42.18571781899366" lon="14.199702788267617"><ele>557.0</ele><time>2026-04-23T14:10:41Z</time></trkpt><trkpt lat="42.18579035321459" lon="14.19976752101028"><ele>557.0</ele><time>2026-04-23T14:10:42Z</time></trkpt><trkpt lat="42.18585940746767" lon="14.199854712180915"><ele>555.8000000000001</ele><time>2026-04-23T14:10:43Z</time></trkpt><trkpt lat="42.18592169356537" lon="14.199969169736175"><ele>554.6</ele><time>2026-04-23T14:10:44Z</time></trkpt><trkpt lat="42.185965999992106" lon="14.200106617958824"><ele>553.4000000000001</ele><time>2026-04-23T14:10:45Z</time></trkpt><trkpt lat="42.18599387078941" lon="14.200253158007634"><ele>552.2</ele><time>2026-04-23T14:10:46Z</time></trkpt><trkpt lat="42.18601452452373" lon="14.200397657049097"><ele>551.0</ele><time>2026-04-23T14:10:47Z</time></trkpt><trkpt lat="42.18603091928216" lon="14.200532243473846"><ele>551.0</ele><time>2026-04-23T14:10:48Z</time></trkpt><trkpt lat="42.18604987019599" lon="14.2006554322305"><ele>551.0</ele><time>2026-04-23T14:10:49Z</time></trkpt><trkpt lat="42.1860687810651" lon="14.200779736063794"><ele>551.0</ele><time>2026-04-23T14:10:50Z</time></trkpt><trkpt lat="42.186092293288596" lon="14.200897451225492"><ele>551.0</ele><time>2026-04-23T14:10:51Z</time></trkpt><trkpt lat="42.186113504754694" lon="14.201021608776404"><ele>551.0</ele><time>2026-04-23T14:10:52Z</time></trkpt><trkpt lat="42.1861393336515" lon="14.201139987902847"><ele>550.0</ele><time>2026-04-23T14:10:53Z</time></trkpt><trkpt lat="42.18616070610153" lon="14.201270555758477"><ele>549.0</ele><time>2026-04-23T14:10:54Z</time></trkpt><trkpt lat="42.18620435725126" lon="14.201390166349368"><ele>548.0</ele><time>2026-04-23T14:10:55Z</time></trkpt><trkpt lat="42.18625438176458" lon="14.201511134098984"><ele>547.0</ele><time>2026-04-23T14:10:56Z</time></trkpt><trkpt lat="42.18631460725927" lon="14.201615689167332"><ele>546.0</ele><time>2026-04-23T14:10:57Z</time></trkpt><trkpt lat="42.18637962600669" lon="14.201717499850576"><ele>545.6</ele><time>2026-04-23T14:10:58Z</time></trkpt><trkpt lat="42.18644653984362" lon="14.201814293115358"><ele>545.2</ele><time>2026-04-23T14:10:59Z</time></trkpt><trkpt lat="42.18651514260502" lon="14.201909158489983"><ele>544.8</ele><time>2026-04-23T14:11:00Z</time></trkpt><trkpt lat="42.1865896872596" lon="14.202002357814736"><ele>544.4</ele><time>2026-04-23T14:11:01Z</time></trkpt><trkpt lat="42.186672016239925" lon="14.20210008260453"><ele>544.0</ele><time>2026-04-23T14:11:02Z</time></trkpt><trkpt lat="42.18675946588343" lon="14.202190013755052"><ele>544.0</ele><time>2026-04-23T14:11:03Z</time></trkpt><trkpt lat="42.18684423349563" lon="14.202291154695086"><ele>544.0</ele><time>2026-04-23T14:11:04Z</time></trkpt><trkpt lat="42.186929048622304" lon="14.202396988518638"><ele>544.0</ele><time>2026-04-23T14:11:05Z</time></trkpt><trkpt lat="42.187013159610984" lon="14.202499950228697"><ele>544.0</ele><time>2026-04-23T14:11:06Z</time></trkpt><trkpt lat="42.18709131046681" lon="14.20259750502606"><ele>544.0</ele><time>2026-04-23T14:11:07Z</time></trkpt><trkpt lat="42.187168931475135" lon="14.20269873260324"><ele>544.0</ele><time>2026-04-23T14:11:08Z</time></trkpt><trkpt lat="42.1872460264028" lon="14.202791393148726"><ele>544.0</ele><time>2026-04-23T14:11:09Z</time></trkpt><trkpt lat="42.187322927656204" lon="14.202885175874457"><ele>544.0</ele><time>2026-04-23T14:11:10Z</time></trkpt><trkpt lat="42.18739890594508" lon="14.202979145610822"><ele>544.0</ele><time>2026-04-23T14:11:11Z</time></trkpt><trkpt lat="42.18747164308936" lon="14.203069224497149"><ele>544.0</ele><time>2026-04-23T14:11:12Z</time></trkpt><trkpt lat="42.18754514128167" lon="14.203160839164617"><ele>544.8</ele><time>2026-04-23T14:11:13Z</time></trkpt><trkpt lat="42.187614918667734" lon="14.203244560207967"><ele>545.5999999999999</ele><time>2026-04-23T14:11:14Z</time></trkpt><trkpt lat="42.187684099032936" lon="14.203330831715718"><ele>546.4</ele><time>2026-04-23T14:11:15Z</time></trkpt><trkpt lat="42.18775118653073" lon="14.203418659371813"><ele>547.1999999999999</ele><time>2026-04-23T14:11:16Z</time></trkpt><trkpt lat="42.18782296624479" lon="14.203510062979051"><ele>548.0</ele><time>2026-04-23T14:11:17Z</time></trkpt><trkpt lat="42.18789363020147" lon="14.20359481270041"><ele>548.0</ele><time>2026-04-23T14:11:18Z</time></trkpt><trkpt lat="42.18796461793808" lon="14.203679425800688"><ele>548.0</ele><time>2026-04-23T14:11:19Z</time></trkpt><trkpt lat="42.18802469568746" lon="14.203747889815473"><ele>548.0</ele><time>2026-04-23T14:11:20Z</time></trkpt><trkpt lat="42.188078414851546" lon="14.203813569333102"><ele>548.0</ele><time>2026-04-23T14:11:21Z</time></trkpt><trkpt lat="42.18812914841741" lon="14.203873425760651"><ele>548.0</ele><time>2026-04-23T14:11:22Z</time></trkpt><trkpt lat="42.18819201511419" lon="14.203949278014482"><ele>548.0</ele><time>2026-04-23T14:11:23Z</time></trkpt><trkpt lat="42.188261546092676" lon="14.204040125673881"><ele>549.1999999999999</ele><time>2026-04-23T14:11:24Z</time></trkpt><trkpt lat="42.18833635404819" lon="14.204137100746681"><ele>550.4</ele><time>2026-04-23T14:11:25Z</time></trkpt><trkpt lat="42.18841041002506" lon="14.204249214846566"><ele>551.5999999999999</ele><time>2026-04-23T14:11:26Z</time></trkpt><trkpt lat="42.188477737200145" lon="14.204371744766675"><ele>552.8</ele><time>2026-04-23T14:11:27Z</time></trkpt><trkpt lat="42.18852247857105" lon="14.204517382421507"><ele>554.0</ele><time>2026-04-23T14:11:28Z</time></trkpt><trkpt lat="42.18858665973088" lon="14.204656069125702"><ele>554.0</ele><time>2026-04-23T14:11:29Z</time></trkpt><trkpt lat="42.18863326012492" lon="14.204814690810815"><ele>554.0</ele><time>2026-04-23T14:11:30Z</time></trkpt><trkpt lat="42.18868355643401" lon="14.20497514535656"><ele>554.0</ele><time>2026-04-23T14:11:31Z</time></trkpt><trkpt lat="42.18873328278166" lon="14.205139839009513"><ele>554.0</ele><time>2026-04-23T14:11:32Z</time></trkpt><trkpt lat="42.188783238619955" lon="14.205303384492735"><ele>554.5</ele><time>2026-04-23T14:11:33Z</time></trkpt><trkpt lat="42.18884061693445" lon="14.205469868302472"><ele>555.0</ele><time>2026-04-23T14:11:34Z</time></trkpt><trkpt lat="42.18890023304255" lon="14.205620793678882"><ele>555.5</ele><time>2026-04-23T14:11:35Z</time></trkpt><trkpt lat="42.18897157894991" lon="14.20574758601244"><ele>556.0</ele><time>2026-04-23T14:11:36Z</time></trkpt><trkpt lat="42.18906080413416" lon="14.205845641758115"><ele>556.0</ele><time>2026-04-23T14:11:37Z</time></trkpt><trkpt lat="42.18916692287629" lon="14.205914013553278"><ele>556.0</ele><time>2026-04-23T14:11:38Z</time></trkpt><trkpt lat="42.189278578282355" lon="14.205965049940511"><ele>556.0</ele><time>2026-04-23T14:11:39Z</time></trkpt><trkpt lat="42.189378385474356" lon="14.206033596092585"><ele>556.0</ele><time>2026-04-23T14:11:40Z</time></trkpt><trkpt lat="42.18946218807268" lon="14.206134183331887"><ele>556.0</ele><time>2026-04-23T14:11:41Z</time></trkpt><trkpt lat="42.18952365452486" lon="14.20627145142505"><ele>556.0</ele><time>2026-04-23T14:11:42.001Z</time></trkpt><trkpt lat="42.18957463716555" lon="14.20640967646454"><ele>556.0</ele><time>2026-04-23T14:11:43.001Z</time></trkpt><trkpt lat="42.189623223947336" lon="14.206535622053215"><ele>556.0</ele><time>2026-04-23T14:11:44.001Z</time></trkpt><trkpt lat="42.18966992589877" lon="14.20665524374883"><ele>556.0</ele><time>2026-04-23T14:11:45.001Z</time></trkpt><trkpt lat="42.189716143402144" lon="14.206773483866174"><ele>557.8</ele><time>2026-04-23T14:11:46.001Z</time></trkpt><trkpt lat="42.18976116679481" lon="14.206886974210018"><ele>559.6</ele><time>2026-04-23T14:11:47.001Z</time></trkpt><trkpt lat="42.18979746165507" lon="14.207000842057862"><ele>561.4</ele><time>2026-04-23T14:11:48.001Z</time></trkpt><trkpt lat="42.18982318359145" lon="14.207118969297445"><ele>563.2</ele><time>2026-04-23T14:11:49.001Z</time></trkpt><trkpt lat="42.18982823464472" lon="14.207244109076363"><ele>565.0</ele><time>2026-04-23T14:11:50Z</time></trkpt><trkpt lat="42.18981649364062" lon="14.207376034495715"><ele>566.0</ele><time>2026-04-23T14:11:51Z</time></trkpt><trkpt lat="42.18978540371131" lon="14.20750945904374"><ele>567.0</ele><time>2026-04-23T14:11:52Z</time></trkpt><trkpt lat="42.18974916047126" lon="14.2076407458001"><ele>568.0</ele><time>2026-04-23T14:11:53Z</time></trkpt><trkpt lat="42.189712563285866" lon="14.207753044105939"><ele>569.0</ele><time>2026-04-23T14:11:54Z</time></trkpt><trkpt lat="42.18967472427501" lon="14.207874329083667"><ele>570.0</ele><time>2026-04-23T14:11:55Z</time></trkpt><trkpt lat="42.189635992068986" lon="14.208002423516097"><ele>570.0</ele><time>2026-04-23T14:11:56Z</time></trkpt><trkpt lat="42.18959390120228" lon="14.2081323227094"><ele>570.0</ele><time>2026-04-23T14:11:57Z</time></trkpt><trkpt lat="42.18955128972951" lon="14.208263028446522"><ele>570.0</ele><time>2026-04-23T14:11:58Z</time></trkpt><trkpt lat="42.189511440182436" lon="14.208382340894206"><ele>570.0</ele><time>2026-04-23T14:11:59Z</time></trkpt><trkpt lat="42.18947478312605" lon="14.208490231144745"><ele>570.0</ele><time>2026-04-23T14:12:00Z</time></trkpt><trkpt lat="42.1894378620881" lon="14.208595760462433"><ele>570.2</ele><time>2026-04-23T14:12:01Z</time></trkpt><trkpt lat="42.189402343570165" lon="14.208702152745662"><ele>570.4</ele><time>2026-04-23T14:12:02Z</time></trkpt><trkpt lat="42.18936582065427" lon="14.208812914103076"><ele>570.6</ele><time>2026-04-23T14:12:03Z</time></trkpt><trkpt lat="42.18932771494691" lon="14.208923590791239"><ele>570.8</ele><time>2026-04-23T14:12:04Z</time></trkpt><trkpt lat="42.189288175617385" lon="14.209039057476248"><ele>571.0</ele><time>2026-04-23T14:12:05Z</time></trkpt><trkpt lat="42.189252662794885" lon="14.209149431466452"><ele>570.3333333333334</ele><time>2026-04-23T14:12:06Z</time></trkpt><trkpt lat="42.189222788223994" lon="14.209244473343535"><ele>569.6666666666667</ele><time>2026-04-23T14:12:07Z</time></trkpt><trkpt lat="42.18918787293699" lon="14.20934656031921"><ele>569.0</ele><time>2026-04-23T14:12:08Z</time></trkpt><trkpt lat="42.18914887191551" lon="14.209451079971394"><ele>568.3333333333334</ele><time>2026-04-23T14:12:09Z</time></trkpt><trkpt lat="42.18909919563546" lon="14.209555177737844"><ele>567.6666666666666</ele><time>2026-04-23T14:12:10Z</time></trkpt><trkpt lat="42.189039977939984" lon="14.20964826071906"><ele>567.0</ele><time>2026-04-23T14:12:11Z</time></trkpt><trkpt lat="42.18897431206487" lon="14.209741765918839"><ele>568.6</ele><time>2026-04-23T14:12:12Z</time></trkpt><trkpt lat="42.18889994386167" lon="14.209834685332906"><ele>570.2</ele><time>2026-04-23T14:12:13Z</time></trkpt><trkpt lat="42.18882831066934" lon="14.209920284785959"><ele>571.8</ele><time>2026-04-23T14:12:14Z</time></trkpt><trkpt lat="42.18876184364453" lon="14.210006314750682"><ele>573.4</ele><time>2026-04-23T14:12:15Z</time></trkpt><trkpt lat="42.188688350519335" lon="14.210101038888018"><ele>575.0</ele><time>2026-04-23T14:12:16Z</time></trkpt><trkpt lat="42.18860950531593" lon="14.21020108249611"><ele>575.0</ele><time>2026-04-23T14:12:17Z</time></trkpt><trkpt lat="42.188528181681036" lon="14.21030515189602"><ele>575.0</ele><time>2026-04-23T14:12:18Z</time></trkpt><trkpt lat="42.18844634452875" lon="14.210410071961059"><ele>575.0</ele><time>2026-04-23T14:12:19Z</time></trkpt><trkpt lat="42.188371458870776" lon="14.210507715873293"><ele>575.0</ele><time>2026-04-23T14:12:20Z</time></trkpt><trkpt lat="42.188297251275436" lon="14.210601466680552"><ele>575.0</ele><time>2026-04-23T14:12:21Z</time></trkpt><trkpt lat="42.18822273658626" lon="14.210698685084843"><ele>575.4</ele><time>2026-04-23T14:12:22Z</time></trkpt><trkpt lat="42.18814610078926" lon="14.210797070407661"><ele>575.8</ele><time>2026-04-23T14:12:23Z</time></trkpt><trkpt lat="42.18806900129941" lon="14.210896250910194"><ele>576.2</ele><time>2026-04-23T14:12:24Z</time></trkpt><trkpt lat="42.18799573276411" lon="14.210992951705572"><ele>576.6</ele><time>2026-04-23T14:12:25Z</time></trkpt><trkpt lat="42.18792254577225" lon="14.211087363109296"><ele>577.0</ele><time>2026-04-23T14:12:26Z</time></trkpt><trkpt lat="42.18784941759197" lon="14.21117282863778"><ele>577.0</ele><time>2026-04-23T14:12:27Z</time></trkpt><trkpt lat="42.18777565951149" lon="14.211261530950406"><ele>577.0</ele><time>2026-04-23T14:12:28Z</time></trkpt><trkpt lat="42.18769912731722" lon="14.21135225569562"><ele>577.0</ele><time>2026-04-23T14:12:29Z</time></trkpt><trkpt lat="42.18761407621931" lon="14.211438414714225"><ele>577.0</ele><time>2026-04-23T14:12:30Z</time></trkpt><trkpt lat="42.18752457297228" lon="14.211516780668816"><ele>577.0</ele><time>2026-04-23T14:12:31Z</time></trkpt><trkpt lat="42.187431961639064" lon="14.211592006848315"><ele>576.75</ele><time>2026-04-23T14:12:32Z</time></trkpt><trkpt lat="42.18733922424286" lon="14.211673567374527"><ele>576.5</ele><time>2026-04-23T14:12:33Z</time></trkpt><trkpt lat="42.18724153827349" lon="14.211746030291682"><ele>576.25</ele><time>2026-04-23T14:12:34Z</time></trkpt><trkpt lat="42.18714328762923" lon="14.211825006340465"><ele>576.0</ele><time>2026-04-23T14:12:35Z</time></trkpt><trkpt lat="42.18704724138867" lon="14.211909996157999"><ele>576.0</ele><time>2026-04-23T14:12:36Z</time></trkpt><trkpt lat="42.18694653439834" lon="14.211996082632306"><ele>576.0</ele><time>2026-04-23T14:12:37Z</time></trkpt><trkpt lat="42.18684186317828" lon="14.212081024595554"><ele>576.0</ele><time>2026-04-23T14:12:38Z</time></trkpt><trkpt lat="42.18673711026479" lon="14.212165985610389"><ele>576.0</ele><time>2026-04-23T14:12:39Z</time></trkpt><trkpt lat="42.18663645118301" lon="14.212252847380848"><ele>575.4</ele><time>2026-04-23T14:12:40Z</time></trkpt><trkpt lat="42.186544382031045" lon="14.212333622051736"><ele>574.8</ele><time>2026-04-23T14:12:41Z</time></trkpt><trkpt lat="42.186465525319214" lon="14.212423121297268"><ele>574.1999999999999</ele><time>2026-04-23T14:12:42Z</time></trkpt><trkpt lat="42.186398601397485" lon="14.212528479371644"><ele>573.6</ele><time>2026-04-23T14:12:43Z</time></trkpt><trkpt lat="42.186345352321084" lon="14.212649046466087"><ele>573.0</ele><time>2026-04-23T14:12:44Z</time></trkpt><trkpt lat="42.18628478201328" lon="14.212911682318632"><ele>573.0</ele><time>2026-04-23T14:12:46Z</time></trkpt><trkpt lat="42.18628183940308" lon="14.213048043344468"><ele>573.0</ele><time>2026-04-23T14:12:47Z</time></trkpt><trkpt lat="42.1862832521973" lon="14.213188971142035"><ele>573.0</ele><time>2026-04-23T14:12:48Z</time></trkpt><trkpt lat="42.18629706564617" lon="14.213282970841943"><ele>573.0</ele><time>2026-04-23T14:12:49Z</time></trkpt><trkpt lat="42.18629941293387" lon="14.213401496231336"><ele>573.0</ele><time>2026-04-23T14:12:50Z</time></trkpt><trkpt lat="42.18630786065698" lon="14.213517858382826"><ele>572.3333333333334</ele><time>2026-04-23T14:12:51Z</time></trkpt><trkpt lat="42.18631440290658" lon="14.213632717297"><ele>571.6666666666666</ele><time>2026-04-23T14:12:52Z</time></trkpt><trkpt lat="42.18632449577992" lon="14.213746838374776"><ele>571.0</ele><time>2026-04-23T14:12:53Z</time></trkpt><trkpt lat="42.18633502706254" lon="14.213859339792219"><ele>570.3333333333333</ele><time>2026-04-23T14:12:54Z</time></trkpt><trkpt lat="42.18634821338449" lon="14.213978116361297"><ele>569.6666666666666</ele><time>2026-04-23T14:12:55Z</time></trkpt><trkpt lat="42.18635706347007" lon="14.214091202572156"><ele>569.0</ele><time>2026-04-23T14:12:56Z</time></trkpt><trkpt lat="42.1863687320868" lon="14.214214573244385"><ele>568.5</ele><time>2026-04-23T14:12:57Z</time></trkpt><trkpt lat="42.18638031434015" lon="14.214333404279188"><ele>568.0</ele><time>2026-04-23T14:12:58Z</time></trkpt><trkpt lat="42.18638998123798" lon="14.214449722460056"><ele>567.5</ele><time>2026-04-23T14:12:59Z</time></trkpt><trkpt lat="42.186395908821986" lon="14.21457095827864"><ele>567.0</ele><time>2026-04-23T14:13:00Z</time></trkpt><trkpt lat="42.18640477029748" lon="14.21468975735806"><ele>566.5</ele><time>2026-04-23T14:13:01Z</time></trkpt><trkpt lat="42.18640957022176" lon="14.214794772244742"><ele>566.0</ele><time>2026-04-23T14:13:02Z</time></trkpt><trkpt lat="42.1864202715674" lon="14.214903364214349"><ele>564.5</ele><time>2026-04-23T14:13:03Z</time></trkpt><trkpt lat="42.18643286620668" lon="14.215019141330044"><ele>563.0</ele><time>2026-04-23T14:13:04Z</time></trkpt><trkpt lat="42.186445243841305" lon="14.215137830421892"><ele>561.5</ele><time>2026-04-23T14:13:05Z</time></trkpt><trkpt lat="42.186456278272885" lon="14.215250781377204"><ele>560.0</ele><time>2026-04-23T14:13:06Z</time></trkpt><trkpt lat="42.186464070860055" lon="14.215352545240943"><ele>558.5</ele><time>2026-04-23T14:13:07Z</time></trkpt><trkpt lat="42.18646954699676" lon="14.215458720394567"><ele>557.0</ele><time>2026-04-23T14:13:08Z</time></trkpt><trkpt lat="42.186480416361114" lon="14.215561509255332"><ele>557.6666666666666</ele><time>2026-04-23T14:13:09Z</time></trkpt><trkpt lat="42.18649000821676" lon="14.215668866450038"><ele>558.3333333333333</ele><time>2026-04-23T14:13:10Z</time></trkpt><trkpt lat="42.186492128529714" lon="14.215768512017801"><ele>559.0</ele><time>2026-04-23T14:13:11Z</time></trkpt><trkpt lat="42.186497093798565" lon="14.215868740747679"><ele>559.6666666666666</ele><time>2026-04-23T14:13:12Z</time></trkpt><trkpt lat="42.186502908951695" lon="14.215974744298435"><ele>560.3333333333334</ele><time>2026-04-23T14:13:13Z</time></trkpt><trkpt lat="42.18650853222974" lon="14.216080546035062"><ele>561.0</ele><time>2026-04-23T14:13:14Z</time></trkpt><trkpt lat="42.18652130169746" lon="14.216192984600319"><ele>561.0</ele><time>2026-04-23T14:13:15Z</time></trkpt><trkpt lat="42.18653925438062" lon="14.216306093227182"><ele>561.0</ele><time>2026-04-23T14:13:16Z</time></trkpt><trkpt lat="42.186567139404254" lon="14.216403513632093"><ele>561.0</ele><time>2026-04-23T14:13:17Z</time></trkpt><trkpt lat="42.18659027607427" lon="14.216489946120808"><ele>561.0</ele><time>2026-04-23T14:13:18Z</time></trkpt><trkpt lat="42.18661668846519" lon="14.216571734328557"><ele>561.0</ele><time>2026-04-23T14:13:20Z</time></trkpt><trkpt lat="42.18664230932057" lon="14.216662222841894"><ele>561.0</ele><time>2026-04-23T14:13:28Z</time></trkpt><trkpt lat="42.186673989063465" lon="14.216773143751158"><ele>560.6666666666666</ele><time>2026-04-23T14:13:30Z</time></trkpt><trkpt lat="42.18671569512106" lon="14.216921310818044"><ele>560.3333333333334</ele><time>2026-04-23T14:13:32Z</time></trkpt><trkpt lat="42.18673961174059" lon="14.217001787369496"><ele>560.0</ele><time>2026-04-23T14:13:33Z</time></trkpt><trkpt lat="42.18676284897399" lon="14.21708414524644"><ele>559.6666666666667</ele><time>2026-04-23T14:13:34Z</time></trkpt><trkpt lat="42.18678821615885" lon="14.217170038452494"><ele>559.3333333333334</ele><time>2026-04-23T14:13:35Z</time></trkpt><trkpt lat="42.1868167289832" lon="14.217262029405104"><ele>559.0</ele><time>2026-04-23T14:13:36Z</time></trkpt><trkpt lat="42.186849839354046" lon="14.217367374577421"><ele>558.2</ele><time>2026-04-23T14:13:37Z</time></trkpt><trkpt lat="42.186878470169454" lon="14.217492608264736"><ele>557.4</ele><time>2026-04-23T14:13:38Z</time></trkpt><trkpt lat="42.18693735061777" lon="14.217552945921286"><ele>556.6</ele><time>2026-04-23T14:13:39Z</time></trkpt><trkpt lat="42.186954237232975" lon="14.217664871404475"><ele>555.8</ele><time>2026-04-23T14:13:40Z</time></trkpt><trkpt lat="42.18697699136188" lon="14.217815225557569"><ele>555.0</ele><time>2026-04-23T14:13:42Z</time></trkpt><trkpt lat="42.18702971683616" lon="14.21804450432532"><ele>554.75</ele><time>2026-04-23T14:13:44Z</time></trkpt><trkpt lat="42.187066539904144" lon="14.218197948212268"><ele>554.5</ele><time>2026-04-23T14:13:45Z</time></trkpt><trkpt lat="42.187102299046416" lon="14.218354684764758"><ele>554.25</ele><time>2026-04-23T14:13:46Z</time></trkpt><trkpt lat="42.18713879626676" lon="14.218514656259671"><ele>554.0</ele><time>2026-04-23T14:13:47Z</time></trkpt><trkpt lat="42.18717614150219" lon="14.218678347284877"><ele>555.3333333333333</ele><time>2026-04-23T14:13:48Z</time></trkpt><trkpt lat="42.18723291014224" lon="14.21905155275355"><ele>556.6666666666666</ele><time>2026-04-23T14:13:50Z</time></trkpt><trkpt lat="42.18724343190212" lon="14.219191802745314"><ele>558.0</ele><time>2026-04-23T14:13:51Z</time></trkpt><trkpt lat="42.18725100344217" lon="14.21931543284318"><ele>558.0</ele><time>2026-04-23T14:13:52Z</time></trkpt><trkpt lat="42.187258634971094" lon="14.219440042670433"><ele>558.0</ele><time>2026-04-23T14:13:53Z</time></trkpt><trkpt lat="42.18726589565709" lon="14.219545763214194"><ele>558.0</ele><time>2026-04-23T14:13:54Z</time></trkpt><trkpt lat="42.18727375186955" lon="14.21965289727061"><ele>558.0</ele><time>2026-04-23T14:13:55Z</time></trkpt><trkpt lat="42.187280872994876" lon="14.219750007928491"><ele>558.0</ele><time>2026-04-23T14:13:56Z</time></trkpt><trkpt lat="42.18729193542225" lon="14.219834282582466"><ele>558.0</ele><time>2026-04-23T14:13:57Z</time></trkpt><trkpt lat="42.18731892379895" lon="14.2199216184675"><ele>560.0</ele><time>2026-04-23T14:13:59Z</time></trkpt><trkpt lat="42.18735222162167" lon="14.219999160999965"><ele>562.0</ele><time>2026-04-23T14:14:01Z</time></trkpt><trkpt lat="42.18678284704803" lon="14.220264016791251"><ele>562.0</ele><time>2026-04-23T14:14:09Z</time></trkpt><trkpt lat="42.186666413466334" lon="14.220195208503473"><ele>562.0</ele><time>2026-04-23T14:14:11Z</time></trkpt><trkpt lat="42.18659502203669" lon="14.220159934568487"><ele>562.0</ele><time>2026-04-23T14:14:12Z</time></trkpt><trkpt lat="42.18651127943607" lon="14.220138552413612"><ele>562.0</ele><time>2026-04-23T14:14:13Z</time></trkpt><trkpt lat="42.18642649864677" lon="14.220147841244884"><ele>562.0</ele><time>2026-04-23T14:14:14Z</time></trkpt><trkpt lat="42.18633688060925" lon="14.220181350911828"><ele>558.3333333333334</ele><time>2026-04-23T14:14:15Z</time></trkpt><trkpt lat="42.186260938318256" lon="14.220215409338683"><ele>554.6666666666667</ele><time>2026-04-23T14:14:16Z</time></trkpt><trkpt lat="42.18613626843221" lon="14.220232670539108"><ele>551.0</ele><time>2026-04-23T14:14:18Z</time></trkpt><trkpt lat="42.186065632239156" lon="14.220216188511523"><ele>547.3333333333334</ele><time>2026-04-23T14:14:19Z</time></trkpt><trkpt lat="42.18598434624116" lon="14.220198626033033"><ele>543.6666666666666</ele><time>2026-04-23T14:14:20Z</time></trkpt><trkpt lat="42.1859094625394" lon="14.220192652477051"><ele>540.0</ele><time>2026-04-23T14:14:21Z</time></trkpt><trkpt lat="42.18585213832746" lon="14.220146894488465"><ele>540.0</ele><time>2026-04-23T14:14:22Z</time></trkpt><trkpt lat="42.18578096988933" lon="14.220192863087323"><ele>540.0</ele><time>2026-04-23T14:14:24Z</time></trkpt><trkpt lat="42.185751932075185" lon="14.220282041124346"><ele>540.0</ele><time>2026-04-23T14:14:26Z</time></trkpt><trkpt lat="42.185859282650476" lon="14.220371224776764"><ele>540.0</ele><time>2026-04-23T14:14:27Z</time></trkpt><trkpt lat="42.18589817123195" lon="14.220453931728237"><ele>540.0</ele><time>2026-04-23T14:14:29Z</time></trkpt><trkpt lat="42.185779578927516" lon="14.220491526816188"><ele>540.0</ele><time>2026-04-23T14:14:31Z</time></trkpt><trkpt lat="42.18575045376732" lon="14.220411278308832"><ele>540.0</ele><time>2026-04-23T14:14:32Z</time></trkpt><trkpt lat="42.18566804426889" lon="14.220363986552087"><ele>540.0</ele><time>2026-04-23T14:14:34Z</time></trkpt><trkpt lat="42.18555955641368" lon="14.22028984158665"><ele>540.0</ele><time>2026-04-23T14:14:36Z</time></trkpt><trkpt lat="42.18549096528891" lon="14.220244177018708"><ele>540.0</ele><time>2026-04-23T14:14:37Z</time></trkpt><trkpt lat="42.18541460446187" lon="14.220194996473108"><ele>540.0</ele><time>2026-04-23T14:14:38Z</time></trkpt><trkpt lat="42.18533626839439" lon="14.220149513874818"><ele>536.0</ele><time>2026-04-23T14:14:39Z</time></trkpt><trkpt lat="42.18525402985655" lon="14.220113450509272"><ele>532.0</ele><time>2026-04-23T14:14:40Z</time></trkpt><trkpt lat="42.185175138523896" lon="14.220131503436857"><ele>528.0</ele><time>2026-04-23T14:14:41Z</time></trkpt><trkpt lat="42.18509540443321" lon="14.220147823804412"><ele>524.0</ele><time>2026-04-23T14:14:42Z</time></trkpt><trkpt lat="42.18501406173532" lon="14.220148889712043"><ele>520.0</ele><time>2026-04-23T14:14:43Z</time></trkpt><trkpt lat="42.18494692626268" lon="14.2201605044654"><ele>516.0</ele><time>2026-04-23T14:14:44Z</time></trkpt><trkpt lat="42.18484968912119" lon="14.2200910279041"><ele>510.20000000000005</ele><time>2026-04-23T14:14:46Z</time></trkpt><trkpt lat="42.184810476776946" lon="14.220019660399677"><ele>504.40000000000003</ele><time>2026-04-23T14:14:47Z</time></trkpt><trkpt lat="42.184759579432104" lon="14.219962101379897"><ele>498.6</ele><time>2026-04-23T14:14:48Z</time></trkpt><trkpt lat="42.18466517664139" lon="14.219898092578818"><ele>492.8</ele><time>2026-04-23T14:14:50Z</time></trkpt><trkpt lat="42.18459060472847" lon="14.22001120183218"><ele>487.0</ele><time>2026-04-23T14:14:52Z</time></trkpt><trkpt lat="42.18461664491376" lon="14.220168185618988"><ele>487.0</ele><time>2026-04-23T14:14:54Z</time></trkpt><trkpt lat="42.18467367016392" lon="14.220326287684141"><ele>487.00000000000006</ele><time>2026-04-23T14:14:56Z</time></trkpt><trkpt lat="42.18473231247541" lon="14.220472050972193"><ele>487.00000000000006</ele><time>2026-04-23T14:14:58Z</time></trkpt><trkpt lat="42.18475236860396" lon="14.220575536742858"><ele>487.0</ele><time>2026-04-23T14:15:00Z</time></trkpt><trkpt lat="42.18471321200976" lon="14.220652478760751"><ele>487.0</ele><time>2026-04-23T14:15:02Z</time></trkpt><trkpt lat="42.18465667416876" lon="14.220743543227055"><ele>486.40000000000003</ele><time>2026-04-23T14:15:04Z</time></trkpt><trkpt lat="42.184669514954265" lon="14.220829931209806"><ele>485.80000000000007</ele><time>2026-04-23T14:15:05Z</time></trkpt><trkpt lat="42.184659031546005" lon="14.220979879105741"><ele>485.2</ele><time>2026-04-23T14:15:07Z</time></trkpt><trkpt lat="42.18465017438211" lon="14.221153775061584"><ele>484.6</ele><time>2026-04-23T14:15:09Z</time></trkpt><trkpt lat="42.184678406749484" lon="14.221322126825235"><ele>484.0</ele><time>2026-04-23T14:15:11Z</time></trkpt><trkpt lat="42.18471447924039" lon="14.221408460103037"><ele>484.83333333333337</ele><time>2026-04-23T14:15:12Z</time></trkpt><trkpt lat="42.184752062502625" lon="14.221505792784626"><ele>485.6666666666667</ele><time>2026-04-23T14:15:13Z</time></trkpt><trkpt lat="42.184794647878334" lon="14.221590866325586"><ele>486.5</ele><time>2026-04-23T14:15:14Z</time></trkpt><trkpt lat="42.18485237937611" lon="14.221659835441239"><ele>487.33333333333337</ele><time>2026-04-23T14:15:15Z</time></trkpt><trkpt lat="42.18492090953955" lon="14.221719210261176"><ele>488.1666666666667</ele><time>2026-04-23T14:15:16Z</time></trkpt><trkpt lat="42.18498652484354" lon="14.221807319655834"><ele>489.0</ele><time>2026-04-23T14:15:17Z</time></trkpt><trkpt lat="42.18503952585395" lon="14.221941537697225"><ele>489.0</ele><time>2026-04-23T14:15:18Z</time></trkpt><trkpt lat="42.18508936312006" lon="14.222073560669372"><ele>489.0</ele><time>2026-04-23T14:15:19Z</time></trkpt><trkpt lat="42.1851555098158" lon="14.222197114970298"><ele>489.0</ele><time>2026-04-23T14:15:20Z</time></trkpt><trkpt lat="42.18523507320304" lon="14.222316397742002"><ele>489.0</ele><time>2026-04-23T14:15:21Z</time></trkpt><trkpt lat="42.18530062647768" lon="14.2224457239587"><ele>485.79999999999995</ele><time>2026-04-23T14:15:22Z</time></trkpt><trkpt lat="42.185347003485624" lon="14.222573555065491"><ele>482.59999999999997</ele><time>2026-04-23T14:15:23Z</time></trkpt><trkpt lat="42.18538056493009" lon="14.222701996884823"><ele>479.4</ele><time>2026-04-23T14:15:24Z</time></trkpt><trkpt lat="42.18541139665377" lon="14.222839343489746"><ele>476.2</ele><time>2026-04-23T14:15:25Z</time></trkpt><trkpt lat="42.18543351665058" lon="14.222973000146867"><ele>473.0</ele><time>2026-04-23T14:15:26Z</time></trkpt><trkpt lat="42.18545553116501" lon="14.223093404402283"><ele>473.99999999999994</ele><time>2026-04-23T14:15:27Z</time></trkpt><trkpt lat="42.18548483198807" lon="14.223191120169085"><ele>475.0</ele><time>2026-04-23T14:15:28Z</time></trkpt><trkpt lat="42.1855185565792" lon="14.223268970476443"><ele>476.0</ele><time>2026-04-23T14:15:29Z</time></trkpt><trkpt lat="42.185556608011865" lon="14.22334537119273"><ele>477.0</ele><time>2026-04-23T14:15:30Z</time></trkpt><trkpt lat="42.18562472395948" lon="14.223502511864803"><ele>477.99999999999994</ele><time>2026-04-23T14:15:32Z</time></trkpt><trkpt lat="42.18566692308306" lon="14.223606204306686"><ele>479.0</ele><time>2026-04-23T14:15:33Z</time></trkpt><trkpt lat="42.18571099635369" lon="14.223716309199212"><ele>479.0</ele><time>2026-04-23T14:15:34Z</time></trkpt><trkpt lat="42.1857594148394" lon="14.223824613251596"><ele>479.0</ele><time>2026-04-23T14:15:35Z</time></trkpt><trkpt lat="42.185816459882034" lon="14.223952092936432"><ele>479.0</ele><time>2026-04-23T14:15:36Z</time></trkpt><trkpt lat="42.18587502090566" lon="14.22407582997399"><ele>479.0</ele><time>2026-04-23T14:15:37Z</time></trkpt><trkpt lat="42.18593356646293" lon="14.224195333632426"><ele>479.0</ele><time>2026-04-23T14:15:38Z</time></trkpt><trkpt lat="42.186005089663766" lon="14.224301569047253"><ele>476.79999999999995</ele><time>2026-04-23T14:15:39Z</time></trkpt><trkpt lat="42.18608047161025" lon="14.224400710610693"><ele>474.59999999999997</ele><time>2026-04-23T14:15:40Z</time></trkpt><trkpt lat="42.186147975344646" lon="14.224513533381517"><ele>472.4</ele><time>2026-04-23T14:15:41Z</time></trkpt><trkpt lat="42.18620598461827" lon="14.224633837574991"><ele>470.2</ele><time>2026-04-23T14:15:42Z</time></trkpt><trkpt lat="42.186242398356754" lon="14.224744797270363"><ele>468.0</ele><time>2026-04-23T14:15:43Z</time></trkpt><trkpt lat="42.186267501587174" lon="14.224828566177955"><ele>464.4</ele><time>2026-04-23T14:15:44Z</time></trkpt><trkpt lat="42.18631159796785" lon="14.224943808043696"><ele>460.79999999999995</ele><time>2026-04-23T14:15:46Z</time></trkpt><trkpt lat="42.18634389483263" lon="14.225123621043243"><ele>457.2</ele><time>2026-04-23T14:15:48Z</time></trkpt><trkpt lat="42.18637574506639" lon="14.22523275938499"><ele>453.6</ele><time>2026-04-23T14:15:49Z</time></trkpt><trkpt lat="42.18642273771663" lon="14.225330088702735"><ele>450.0</ele><time>2026-04-23T14:15:50Z</time></trkpt><trkpt lat="42.18645080905818" lon="14.225431044113732"><ele>450.0</ele><time>2026-04-23T14:15:51Z</time></trkpt><trkpt lat="42.186463256106975" lon="14.225522531068762"><ele>450.0</ele><time>2026-04-23T14:15:52Z</time></trkpt><trkpt lat="42.1864999665841" lon="14.225607369042473"><ele>450.0</ele><time>2026-04-23T14:15:53Z</time></trkpt><trkpt lat="42.18650063010523" lon="14.225718732315949"><ele>450.0</ele><time>2026-04-23T14:15:55Z</time></trkpt><trkpt lat="42.18655015554335" lon="14.225859038249283"><ele>450.0</ele><time>2026-04-23T14:15:57Z</time></trkpt><trkpt lat="42.1866203732489" lon="14.225940640513487"><ele>450.0</ele><time>2026-04-23T14:15:58Z</time></trkpt><trkpt lat="42.186679318483" lon="14.226060075168352"><ele>448.75</ele><time>2026-04-23T14:15:59Z</time></trkpt><trkpt lat="42.186757222574286" lon="14.22618866809432"><ele>447.5</ele><time>2026-04-23T14:15:59.999Z</time></trkpt><trkpt lat="42.18684616850639" lon="14.226312278249159"><ele>446.25</ele><time>2026-04-23T14:16:00.999Z</time></trkpt><trkpt lat="42.186955034377604" lon="14.226435568941056"><ele>445.0</ele><time>2026-04-23T14:16:01.999Z</time></trkpt><trkpt lat="42.18707311306665" lon="14.22655624383558"><ele>445.5</ele><time>2026-04-23T14:16:02.999Z</time></trkpt><trkpt lat="42.18718766788809" lon="14.226672888867807"><ele>446.0</ele><time>2026-04-23T14:16:03.999Z</time></trkpt><trkpt lat="42.187307963289086" lon="14.226788788718874"><ele>446.5</ele><time>2026-04-23T14:16:04.999Z</time></trkpt><trkpt lat="42.1874252264859" lon="14.226909964484785"><ele>447.0</ele><time>2026-04-23T14:16:05.999Z</time></trkpt><trkpt lat="42.18753658403343" lon="14.227024599591056"><ele>447.0</ele><time>2026-04-23T14:16:06.999Z</time></trkpt><trkpt lat="42.18763964567802" lon="14.22714433895366"><ele>447.0</ele><time>2026-04-23T14:16:07.999Z</time></trkpt><trkpt lat="42.18771955405877" lon="14.227274433865292"><ele>447.0</ele><time>2026-04-23T14:16:08.999Z</time></trkpt><trkpt lat="42.18777040653796" lon="14.227426771874043"><ele>447.0</ele><time>2026-04-23T14:16:09.999Z</time></trkpt><trkpt lat="42.18777580998573" lon="14.227596924759892"><ele>444.6</ele><time>2026-04-23T14:16:10.999Z</time></trkpt><trkpt lat="42.1877989132789" lon="14.22776217621394"><ele>442.20000000000005</ele><time>2026-04-23T14:16:11.999Z</time></trkpt><trkpt lat="42.187818624871106" lon="14.227899335711745"><ele>439.8</ele><time>2026-04-23T14:16:12.999Z</time></trkpt><trkpt lat="42.187873966393255" lon="14.228005655059071"><ele>437.4</ele><time>2026-04-23T14:16:13.999Z</time></trkpt><trkpt lat="42.18795946502812" lon="14.228075573043428"><ele>435.0</ele><time>2026-04-23T14:16:14.999Z</time></trkpt><trkpt lat="42.188065776141755" lon="14.22810774689195"><ele>438.25</ele><time>2026-04-23T14:16:15.999Z</time></trkpt><trkpt lat="42.188196519080144" lon="14.228115051783265"><ele>441.5</ele><time>2026-04-23T14:16:16.999Z</time></trkpt><trkpt lat="42.188335824467046" lon="14.228111503213675"><ele>444.75</ele><time>2026-04-23T14:16:17.999Z</time></trkpt><trkpt lat="42.18846641854041" lon="14.228102731535031"><ele>448.0</ele><time>2026-04-23T14:16:18.999Z</time></trkpt><trkpt lat="42.18857409788794" lon="14.228097662624323"><ele>448.00000000000006</ele><time>2026-04-23T14:16:19.999Z</time></trkpt><trkpt lat="42.188655108097294" lon="14.228119238875445"><ele>448.0</ele><time>2026-04-23T14:16:20.999Z</time></trkpt><trkpt lat="42.18871086759409" lon="14.228175306230792"><ele>448.0</ele><time>2026-04-23T14:16:21.999Z</time></trkpt><trkpt lat="42.18874122099815" lon="14.22825738970279"><ele>448.0</ele><time>2026-04-23T14:16:22.999Z</time></trkpt><trkpt lat="42.18873400408173" lon="14.228342115483473"><ele>448.00000000000006</ele><time>2026-04-23T14:16:23.999Z</time></trkpt><trkpt lat="42.18863585061376" lon="14.22840244775629"><ele>448.0</ele><time>2026-04-23T14:16:25.999Z</time></trkpt><trkpt lat="42.18858024842403" lon="14.228346670982534"><ele>445.4</ele><time>2026-04-23T14:16:26.999Z</time></trkpt><trkpt lat="42.188505204250724" lon="14.228331777707046"><ele>442.79999999999995</ele><time>2026-04-23T14:16:27.999Z</time></trkpt><trkpt lat="42.188413892258495" lon="14.228303964840377"><ele>440.2</ele><time>2026-04-23T14:16:28.999Z</time></trkpt><trkpt lat="42.18831003827511" lon="14.228299697855268"><ele>437.6</ele><time>2026-04-23T14:16:29.999Z</time></trkpt><trkpt lat="42.18819882804038" lon="14.228326919087223"><ele>435.0</ele><time>2026-04-23T14:16:30.999Z</time></trkpt><trkpt lat="42.18808310744607" lon="14.22838906162137"><ele>433.25</ele><time>2026-04-23T14:16:31.999Z</time></trkpt><trkpt lat="42.18796713650074" lon="14.228479874778651"><ele>431.5</ele><time>2026-04-23T14:16:32.999Z</time></trkpt><trkpt lat="42.187849361225" lon="14.22858717068838"><ele>429.75</ele><time>2026-04-23T14:16:33.999Z</time></trkpt><trkpt lat="42.18773583209334" lon="14.228698403918187"><ele>428.0</ele><time>2026-04-23T14:16:34.999Z</time></trkpt><trkpt lat="42.18762767079807" lon="14.228827862215747"><ele>426.5</ele><time>2026-04-23T14:16:35.999Z</time></trkpt><trkpt lat="42.187533536866304" lon="14.228978277668155"><ele>425.0</ele><time>2026-04-23T14:16:36.999Z</time></trkpt><trkpt lat="42.18745762094968" lon="14.229148136652181"><ele>423.5</ele><time>2026-04-23T14:16:37.999Z</time></trkpt><trkpt lat="42.187393356764964" lon="14.229329926215062"><ele>422.0</ele><time>2026-04-23T14:16:38.999Z</time></trkpt><trkpt lat="42.187331000354604" lon="14.229520274423146"><ele>418.5</ele><time>2026-04-23T14:16:39.999Z</time></trkpt><trkpt lat="42.187269578880915" lon="14.229698391266671"><ele>415.0</ele><time>2026-04-23T14:16:40.999Z</time></trkpt><trkpt lat="42.18720661329177" lon="14.229868504963955"><ele>411.5</ele><time>2026-04-23T14:16:41.999Z</time></trkpt><trkpt lat="42.18714745745138" lon="14.230036330004362"><ele>408.0</ele><time>2026-04-23T14:16:42.999Z</time></trkpt><trkpt lat="42.18709566348093" lon="14.230200866205244"><ele>408.0</ele><time>2026-04-23T14:16:43.999Z</time></trkpt><trkpt lat="42.187056999523236" lon="14.2303643164294"><ele>408.0</ele><time>2026-04-23T14:16:44.999Z</time></trkpt><trkpt lat="42.18703848278218" lon="14.230537842208154"><ele>408.0</ele><time>2026-04-23T14:16:45.999Z</time></trkpt><trkpt lat="42.187039810907606" lon="14.230722491553513"><ele>408.0</ele><time>2026-04-23T14:16:46.999Z</time></trkpt><trkpt lat="42.1870749326526" lon="14.230908184639695"><ele>409.5</ele><time>2026-04-23T14:16:47.999Z</time></trkpt><trkpt lat="42.187139865845985" lon="14.231092014746809"><ele>411.0</ele><time>2026-04-23T14:16:48.999Z</time></trkpt><trkpt lat="42.187222785802675" lon="14.231258906759113"><ele>412.5</ele><time>2026-04-23T14:16:49.999Z</time></trkpt><trkpt lat="42.18731070401783" lon="14.231398256720803"><ele>414.0</ele><time>2026-04-23T14:16:50.999Z</time></trkpt><trkpt lat="42.18740489580045" lon="14.231516442398163"><ele>414.79999999999995</ele><time>2026-04-23T14:16:51.999Z</time></trkpt><trkpt lat="42.18749585206698" lon="14.231626290981513"><ele>415.59999999999997</ele><time>2026-04-23T14:16:52.999Z</time></trkpt><trkpt lat="42.187576934635835" lon="14.231731016283232"><ele>416.4</ele><time>2026-04-23T14:16:53.999Z</time></trkpt><trkpt lat="42.187638375373886" lon="14.23184331369689"><ele>417.2</ele><time>2026-04-23T14:16:54.999Z</time></trkpt><trkpt lat="42.18767814372403" lon="14.231977348728657"><ele>418.0</ele><time>2026-04-23T14:16:55.999Z</time></trkpt><trkpt lat="42.187695706666744" lon="14.23212459705684"><ele>418.0</ele><time>2026-04-23T14:16:56.999Z</time></trkpt><trkpt lat="42.187686759606734" lon="14.232275896359452"><ele>418.0</ele><time>2026-04-23T14:16:57.999Z</time></trkpt><trkpt lat="42.18766023505" lon="14.232420009614385"><ele>418.0</ele><time>2026-04-23T14:16:58.999Z</time></trkpt><trkpt lat="42.18762149410678" lon="14.232555055510643"><ele>418.0</ele><time>2026-04-23T14:16:59.999Z</time></trkpt><trkpt lat="42.18757032082642" lon="14.232682394640547"><ele>418.0</ele><time>2026-04-23T14:17:00.999Z</time></trkpt><trkpt lat="42.1875045042665" lon="14.232797183298006"><ele>418.2</ele><time>2026-04-23T14:17:01.999Z</time></trkpt><trkpt lat="42.18742403754765" lon="14.232895385919855"><ele>418.4</ele><time>2026-04-23T14:17:02.999Z</time></trkpt><trkpt lat="42.18733681883359" lon="14.232984738165639"><ele>418.59999999999997</ele><time>2026-04-23T14:17:03.999Z</time></trkpt><trkpt lat="42.18724687940911" lon="14.23307286273862"><ele>418.79999999999995</ele><time>2026-04-23T14:17:04.999Z</time></trkpt><trkpt lat="42.18715870930954" lon="14.233162201300416"><ele>419.0</ele><time>2026-04-23T14:17:05.999Z</time></trkpt><trkpt lat="42.187072583306005" lon="14.233252238566159"><ele>419.0</ele><time>2026-04-23T14:17:06.999Z</time></trkpt><trkpt lat="42.186985211612" lon="14.23334410535642"><ele>419.0</ele><time>2026-04-23T14:17:07.999Z</time></trkpt><trkpt lat="42.186900638991666" lon="14.233438905689496"><ele>419.0</ele><time>2026-04-23T14:17:08.999Z</time></trkpt><trkpt lat="42.186822824198785" lon="14.233548682827552"><ele>419.0</ele><time>2026-04-23T14:17:09.999Z</time></trkpt><trkpt lat="42.18676302069797" lon="14.23367853737102"><ele>419.0</ele><time>2026-04-23T14:17:10.999Z</time></trkpt><trkpt lat="42.18672977469524" lon="14.233818399572138"><ele>419.0</ele><time>2026-04-23T14:17:11.999Z</time></trkpt><trkpt lat="42.186713480142984" lon="14.233952295369761"><ele>419.0</ele><time>2026-04-23T14:17:12.999Z</time></trkpt><trkpt lat="42.186677114937254" lon="14.234079450241449"><ele>419.0</ele><time>2026-04-23T14:17:13.999Z</time></trkpt><trkpt lat="42.18666767620235" lon="14.234214470947798"><ele>419.0</ele><time>2026-04-23T14:17:14.999Z</time></trkpt><trkpt lat="42.18667516701986" lon="14.234354981215436"><ele>419.0</ele><time>2026-04-23T14:17:15.999Z</time></trkpt><trkpt lat="42.18669305400781" lon="14.23449287502328"><ele>417.5</ele><time>2026-04-23T14:17:16.999Z</time></trkpt><trkpt lat="42.186725447172975" lon="14.234628854474288"><ele>416.0</ele><time>2026-04-23T14:17:17.999Z</time></trkpt><trkpt lat="42.186769154398924" lon="14.234770806754812"><ele>414.5</ele><time>2026-04-23T14:17:18.999Z</time></trkpt><trkpt lat="42.18682385125299" lon="14.234922659415373"><ele>413.0</ele><time>2026-04-23T14:17:19.999Z</time></trkpt><trkpt lat="42.186893591135664" lon="14.235102614495377"><ele>411.3333333333333</ele><time>2026-04-23T14:17:20.999Z</time></trkpt><trkpt lat="42.186957270717535" lon="14.235291814770846"><ele>409.66666666666663</ele><time>2026-04-23T14:17:21.999Z</time></trkpt><trkpt lat="42.18702216128226" lon="14.235489984480525"><ele>408.0</ele><time>2026-04-23T14:17:22.999Z</time></trkpt><trkpt lat="42.187096712095595" lon="14.23569763236137"><ele>406.0</ele><time>2026-04-23T14:17:23.999Z</time></trkpt><trkpt lat="42.187164429028485" lon="14.235892945103105"><ele>404.0</ele><time>2026-04-23T14:17:24.999Z</time></trkpt><trkpt lat="42.18723322029009" lon="14.23609375050545"><ele>402.0</ele><time>2026-04-23T14:17:25.999Z</time></trkpt><trkpt lat="42.18730343544456" lon="14.23629348118894"><ele>403.66666666666663</ele><time>2026-04-23T14:17:26.999Z</time></trkpt><trkpt lat="42.18737288846948" lon="14.236490380059319"><ele>405.3333333333333</ele><time>2026-04-23T14:17:27.999Z</time></trkpt><trkpt lat="42.18744367800967" lon="14.236683075825722"><ele>407.0</ele><time>2026-04-23T14:17:28.999Z</time></trkpt><trkpt lat="42.18751690628015" lon="14.236883001252538"><ele>407.0</ele><time>2026-04-23T14:17:29.999Z</time></trkpt><trkpt lat="42.187591141929076" lon="14.237077641543793"><ele>407.0</ele><time>2026-04-23T14:17:30.999Z</time></trkpt><trkpt lat="42.187669045551864" lon="14.237270719998833"><ele>407.0</ele><time>2026-04-23T14:17:31.999Z</time></trkpt><trkpt lat="42.18775630228704" lon="14.237465389581542"><ele>409.3333333333333</ele><time>2026-04-23T14:17:32.999Z</time></trkpt><trkpt lat="42.18784894338127" lon="14.237662336022684"><ele>411.66666666666663</ele><time>2026-04-23T14:17:33.999Z</time></trkpt><trkpt lat="42.1879487439682" lon="14.237850291231581"><ele>414.0</ele><time>2026-04-23T14:17:34.999Z</time></trkpt><trkpt lat="42.188059730533894" lon="14.238030897862403"><ele>414.66666666666663</ele><time>2026-04-23T14:17:35.999Z</time></trkpt><trkpt lat="42.18817977668861" lon="14.2381964980319"><ele>415.3333333333333</ele><time>2026-04-23T14:17:36.999Z</time></trkpt><trkpt lat="42.188304683783386" lon="14.238352120286498"><ele>416.0</ele><time>2026-04-23T14:17:37.999Z</time></trkpt><trkpt lat="42.18843273022933" lon="14.238488834315802"><ele>416.0</ele><time>2026-04-23T14:17:38.999Z</time></trkpt><trkpt lat="42.188561127437225" lon="14.238595284011502"><ele>416.0</ele><time>2026-04-23T14:17:39.999Z</time></trkpt><trkpt lat="42.18868991460156" lon="14.238659291802572"><ele>416.0</ele><time>2026-04-23T14:17:40.999Z</time></trkpt><trkpt lat="42.18881633935559" lon="14.238672620127023"><ele>416.0</ele><time>2026-04-23T14:17:41.999Z</time></trkpt><trkpt lat="42.18894229609354" lon="14.238651381268031"><ele>416.5</ele><time>2026-04-23T14:17:42.999Z</time></trkpt><trkpt lat="42.18906018626264" lon="14.238583834208692"><ele>417.0</ele><time>2026-04-23T14:17:43.999Z</time></trkpt><trkpt lat="42.18915767297065" lon="14.23845815542058"><ele>417.5</ele><time>2026-04-23T14:17:44.999Z</time></trkpt><trkpt lat="42.189227835966214" lon="14.238290667774104"><ele>418.0</ele><time>2026-04-23T14:17:45.999Z</time></trkpt><trkpt lat="42.18928052087212" lon="14.238108316126848"><ele>418.0</ele><time>2026-04-23T14:17:46.999Z</time></trkpt><trkpt lat="42.189334428676034" lon="14.237929572224273"><ele>418.0</ele><time>2026-04-23T14:17:47.999Z</time></trkpt><trkpt lat="42.18938840084954" lon="14.237758884770734"><ele>418.0</ele><time>2026-04-23T14:17:48.999Z</time></trkpt><trkpt lat="42.189444100746215" lon="14.237600679415618"><ele>418.0</ele><time>2026-04-23T14:17:49.999Z</time></trkpt><trkpt lat="42.189522792081114" lon="14.23746747416916"><ele>418.0</ele><time>2026-04-23T14:17:50.999Z</time></trkpt><trkpt lat="42.18961951724721" lon="14.237378836995502"><ele>418.0</ele><time>2026-04-23T14:17:51.999Z</time></trkpt><trkpt lat="42.18972770047078" lon="14.237339711585925"><ele>418.0</ele><time>2026-04-23T14:17:52.999Z</time></trkpt><trkpt lat="42.18984116685618" lon="14.237375446661186"><ele>418.0</ele><time>2026-04-23T14:17:53.999Z</time></trkpt><trkpt lat="42.18994269233468" lon="14.237435617011823"><ele>421.33333333333337</ele><time>2026-04-23T14:17:54.999Z</time></trkpt><trkpt lat="42.19017026209886" lon="14.237598305630367"><ele>424.66666666666663</ele><time>2026-04-23T14:17:56.999Z</time></trkpt><trkpt lat="42.19029980262586" lon="14.23768401043952"><ele>428.0</ele><time>2026-04-23T14:17:57.999Z</time></trkpt><trkpt lat="42.19043674184616" lon="14.237744233831215"><ele>428.0</ele><time>2026-04-23T14:17:58.999Z</time></trkpt><trkpt lat="42.190574744065884" lon="14.237778556362315"><ele>428.0</ele><time>2026-04-23T14:17:59.999Z</time></trkpt><trkpt lat="42.190718961527125" lon="14.237807793085793"><ele>428.0</ele><time>2026-04-23T14:18:00.999Z</time></trkpt><trkpt lat="42.19086738811401" lon="14.23782466615882"><ele>428.0</ele><time>2026-04-23T14:18:01.999Z</time></trkpt><trkpt lat="42.191020663876316" lon="14.23781427086371"><ele>428.5</ele><time>2026-04-23T14:18:02.999Z</time></trkpt><trkpt lat="42.19116185046367" lon="14.23776739441121"><ele>429.0</ele><time>2026-04-23T14:18:03.999Z</time></trkpt><trkpt lat="42.191288274992345" lon="14.23771112199803"><ele>429.5</ele><time>2026-04-23T14:18:04.999Z</time></trkpt><trkpt lat="42.191398334446006" lon="14.23766967096477"><ele>430.0</ele><time>2026-04-23T14:18:05.999Z</time></trkpt><trkpt lat="42.19147456621219" lon="14.237671761210903"><ele>430.0</ele><time>2026-04-23T14:18:06.999Z</time></trkpt><trkpt lat="42.191524088140646" lon="14.237728178556102"><ele>430.0</ele><time>2026-04-23T14:18:07.999Z</time></trkpt><trkpt lat="42.19153931331467" lon="14.237819194291728"><ele>430.0</ele><time>2026-04-23T14:18:09Z</time></trkpt><trkpt lat="42.19142903674768" lon="14.237966267484689"><ele>430.0</ele><time>2026-04-23T14:18:11Z</time></trkpt><trkpt lat="42.19134358427007" lon="14.238009570073139"><ele>430.0</ele><time>2026-04-23T14:18:11.999Z</time></trkpt><trkpt lat="42.191233145362546" lon="14.238086026552676"><ele>432.5</ele><time>2026-04-23T14:18:12.999Z</time></trkpt><trkpt lat="42.1911070281539" lon="14.238137645107297"><ele>435.0</ele><time>2026-04-23T14:18:13.999Z</time></trkpt><trkpt lat="42.19098296389943" lon="14.238204469562667"><ele>437.5</ele><time>2026-04-23T14:18:14.999Z</time></trkpt><trkpt lat="42.190853332195644" lon="14.238290171985089"><ele>440.0</ele><time>2026-04-23T14:18:15.999Z</time></trkpt><trkpt lat="42.19072371263741" lon="14.23838903380188"><ele>438.8</ele><time>2026-04-23T14:18:17Z</time></trkpt><trkpt lat="42.190618518018276" lon="14.238487368462039"><ele>437.6</ele><time>2026-04-23T14:18:18Z</time></trkpt><trkpt lat="42.19053644608162" lon="14.238582002893764"><ele>436.4</ele><time>2026-04-23T14:18:19Z</time></trkpt><trkpt lat="42.19048921135481" lon="14.238691730643431"><ele>435.2</ele><time>2026-04-23T14:18:20Z</time></trkpt><trkpt lat="42.19047947392492" lon="14.238819654945678"><ele>434.0</ele><time>2026-04-23T14:18:21Z</time></trkpt><trkpt lat="42.19051881735257" lon="14.238942277608768"><ele>432.0</ele><time>2026-04-23T14:18:22Z</time></trkpt><trkpt lat="42.190596876719184" lon="14.239046192657455"><ele>430.0</ele><time>2026-04-23T14:18:23Z</time></trkpt><trkpt lat="42.190706182552525" lon="14.23914421672748"><ele>428.0</ele><time>2026-04-23T14:18:24Z</time></trkpt><trkpt lat="42.19096361968524" lon="14.23935848733259"><ele>431.3333333333333</ele><time>2026-04-23T14:18:26Z</time></trkpt><trkpt lat="42.19108693153474" lon="14.239496068309945"><ele>434.66666666666663</ele><time>2026-04-23T14:18:27Z</time></trkpt><trkpt lat="42.19119201235373" lon="14.239652533935235"><ele>438.0</ele><time>2026-04-23T14:18:28Z</time></trkpt><trkpt lat="42.191286337151546" lon="14.239834213566537"><ele>438.0</ele><time>2026-04-23T14:18:29Z</time></trkpt><trkpt lat="42.19135239341788" lon="14.240038937444295"><ele>438.0</ele><time>2026-04-23T14:18:30Z</time></trkpt><trkpt lat="42.191391977478716" lon="14.240262315366985"><ele>438.0</ele><time>2026-04-23T14:18:31Z</time></trkpt><trkpt lat="42.19142454293747" lon="14.24049764300635"><ele>437.33333333333337</ele><time>2026-04-23T14:18:32Z</time></trkpt><trkpt lat="42.191453522654264" lon="14.240730999889388"><ele>436.6666666666667</ele><time>2026-04-23T14:18:33Z</time></trkpt><trkpt lat="42.19148508262327" lon="14.240976917536846"><ele>436.0</ele><time>2026-04-23T14:18:34Z</time></trkpt><trkpt lat="42.19150014388024" lon="14.241206760807376"><ele>436.0</ele><time>2026-04-23T14:18:35Z</time></trkpt><trkpt lat="42.1914839462116" lon="14.241419759587824"><ele>436.0</ele><time>2026-04-23T14:18:36Z</time></trkpt><trkpt lat="42.19143424908853" lon="14.241616146181974"><ele>436.0</ele><time>2026-04-23T14:18:37Z</time></trkpt><trkpt lat="42.19135049964294" lon="14.24179882491321"><ele>438.6666666666667</ele><time>2026-04-23T14:18:38Z</time></trkpt><trkpt lat="42.19123864605369" lon="14.241954584848761"><ele>441.33333333333337</ele><time>2026-04-23T14:18:39Z</time></trkpt><trkpt lat="42.191118066205966" lon="14.242127495089882"><ele>444.0</ele><time>2026-04-23T14:18:40Z</time></trkpt><trkpt lat="42.19102587301874" lon="14.242321644653856"><ele>448.66666666666663</ele><time>2026-04-23T14:18:41Z</time></trkpt><trkpt lat="42.190954295825634" lon="14.242530117630258"><ele>453.3333333333333</ele><time>2026-04-23T14:18:42Z</time></trkpt><trkpt lat="42.190911297826375" lon="14.242736457471793"><ele>458.0</ele><time>2026-04-23T14:18:43Z</time></trkpt><trkpt lat="42.19089421998727" lon="14.242931132100663"><ele>458.0</ele><time>2026-04-23T14:18:44Z</time></trkpt><trkpt lat="42.19089615297419" lon="14.243121171196712"><ele>458.0</ele><time>2026-04-23T14:18:45Z</time></trkpt><trkpt lat="42.19092611212648" lon="14.243315214608009"><ele>458.0</ele><time>2026-04-23T14:18:46Z</time></trkpt><trkpt lat="42.19097088757905" lon="14.243512440563391"><ele>458.0</ele><time>2026-04-23T14:18:47Z</time></trkpt><trkpt lat="42.19102873075755" lon="14.24370765119968"><ele>458.25</ele><time>2026-04-23T14:18:48Z</time></trkpt><trkpt lat="42.19111140519243" lon="14.24388181665429"><ele>458.5</ele><time>2026-04-23T14:18:49Z</time></trkpt><trkpt lat="42.191214887241266" lon="14.244028033977143"><ele>458.75</ele><time>2026-04-23T14:18:50Z</time></trkpt><trkpt lat="42.19132620519076" lon="14.244153278459457"><ele>459.0</ele><time>2026-04-23T14:18:51Z</time></trkpt><trkpt lat="42.191436991249525" lon="14.244270431866862"><ele>460.79999999999995</ele><time>2026-04-23T14:18:52Z</time></trkpt><trkpt lat="42.19153176384223" lon="14.244375195984308"><ele>462.59999999999997</ele><time>2026-04-23T14:18:53Z</time></trkpt><trkpt lat="42.191611839127035" lon="14.244487759051507"><ele>464.4</ele><time>2026-04-23T14:18:54Z</time></trkpt><trkpt lat="42.19167723280827" lon="14.244596687474466"><ele>466.2</ele><time>2026-04-23T14:18:55Z</time></trkpt><trkpt lat="42.19173184983736" lon="14.244699790690845"><ele>468.0</ele><time>2026-04-23T14:18:56Z</time></trkpt><trkpt lat="42.191782999775086" lon="14.244811230680856"><ele>468.0</ele><time>2026-04-23T14:18:57Z</time></trkpt><trkpt lat="42.19182187627902" lon="14.244932644130236"><ele>467.99999999999994</ele><time>2026-04-23T14:18:58Z</time></trkpt><trkpt lat="42.19183943854963" lon="14.245053517302326"><ele>467.99999999999994</ele><time>2026-04-23T14:18:58.999Z</time></trkpt><trkpt lat="42.19184128432961" lon="14.245181488308447"><ele>468.0</ele><time>2026-04-23T14:18:59.999Z</time></trkpt><trkpt lat="42.191828533793434" lon="14.245316914655419"><ele>468.0</ele><time>2026-04-23T14:19:00.999Z</time></trkpt><trkpt lat="42.19179757651818" lon="14.245452950345268"><ele>468.0</ele><time>2026-04-23T14:19:01.999Z</time></trkpt><trkpt lat="42.19174810713205" lon="14.245591570641887"><ele>467.99999999999994</ele><time>2026-04-23T14:19:02.999Z</time></trkpt><trkpt lat="42.19168497566559" lon="14.245723077674656"><ele>467.99999999999994</ele><time>2026-04-23T14:19:03.999Z</time></trkpt><trkpt lat="42.19161366093868" lon="14.245838600210778"><ele>468.0</ele><time>2026-04-23T14:19:04.999Z</time></trkpt><trkpt lat="42.1915446092359" lon="14.24593844502743"><ele>468.0</ele><time>2026-04-23T14:19:05.999Z</time></trkpt><trkpt lat="42.19147177760389" lon="14.24603293458509"><ele>463.4</ele><time>2026-04-23T14:19:06.999Z</time></trkpt><trkpt lat="42.19140258687746" lon="14.246121431116507"><ele>458.79999999999995</ele><time>2026-04-23T14:19:07.999Z</time></trkpt><trkpt lat="42.19134149175857" lon="14.246214900879094"><ele>454.2</ele><time>2026-04-23T14:19:08.999Z</time></trkpt><trkpt lat="42.19128913251091" lon="14.246323424800094"><ele>449.6</ele><time>2026-04-23T14:19:09.999Z</time></trkpt><trkpt lat="42.191249869600746" lon="14.246452707421854"><ele>445.0</ele><time>2026-04-23T14:19:10.999Z</time></trkpt><trkpt lat="42.19123343697943" lon="14.246599917285886"><ele>445.0</ele><time>2026-04-23T14:19:11.999Z</time></trkpt><trkpt lat="42.19123184470573" lon="14.246754009780776"><ele>445.0</ele><time>2026-04-23T14:19:12.999Z</time></trkpt><trkpt lat="42.19123776189297" lon="14.246895509827917"><ele>445.0</ele><time>2026-04-23T14:19:13.999Z</time></trkpt><trkpt lat="42.19124378615742" lon="14.24703209903581"><ele>445.0</ele><time>2026-04-23T14:19:14.999Z</time></trkpt><trkpt lat="42.1912440839447" lon="14.247162097056748"><ele>445.0</ele><time>2026-04-23T14:19:15.999Z</time></trkpt><trkpt lat="42.19123897818546" lon="14.24728503666313"><ele>446.0</ele><time>2026-04-23T14:19:16.999Z</time></trkpt><trkpt lat="42.19123132680776" lon="14.24740921734866"><ele>447.0</ele><time>2026-04-23T14:19:17.999Z</time></trkpt><trkpt lat="42.191215402963316" lon="14.247541676619033"><ele>448.0</ele><time>2026-04-23T14:19:18.999Z</time></trkpt><trkpt lat="42.191191307886676" lon="14.247681226708425"><ele>449.0</ele><time>2026-04-23T14:19:19.999Z</time></trkpt><trkpt lat="42.19114898912535" lon="14.247802623562503"><ele>450.0</ele><time>2026-04-23T14:19:20.999Z</time></trkpt><trkpt lat="42.191141414131295" lon="14.247918485370528"><ele>450.0</ele><time>2026-04-23T14:19:21.999Z</time></trkpt><trkpt lat="42.19112214034255" lon="14.248007232893785"><ele>450.0</ele><time>2026-04-23T14:19:22.999Z</time></trkpt><trkpt lat="42.19108830273287" lon="14.248163338481598"><ele>450.0</ele><time>2026-04-23T14:19:24.999Z</time></trkpt><trkpt lat="42.191061951054" lon="14.248263333315498"><ele>450.0</ele><time>2026-04-23T14:19:25.999Z</time></trkpt><trkpt lat="42.191024741608935" lon="14.248376895469066"><ele>450.0</ele><time>2026-04-23T14:19:26.999Z</time></trkpt><trkpt lat="42.190974623944484" lon="14.248498542839734"><ele>450.75</ele><time>2026-04-23T14:19:27.999Z</time></trkpt><trkpt lat="42.190912895196206" lon="14.248628474315531"><ele>451.5</ele><time>2026-04-23T14:19:28.999Z</time></trkpt><trkpt lat="42.19084563286577" lon="14.248775927490149"><ele>452.25</ele><time>2026-04-23T14:19:29.999Z</time></trkpt><trkpt lat="42.190775263699926" lon="14.248934155826992"><ele>453.0</ele><time>2026-04-23T14:19:30.999Z</time></trkpt><trkpt lat="42.190703299998475" lon="14.2490951647133"><ele>449.75</ele><time>2026-04-23T14:19:31.999Z</time></trkpt><trkpt lat="42.19063255038537" lon="14.249255075605165"><ele>446.5</ele><time>2026-04-23T14:19:32.999Z</time></trkpt><trkpt lat="42.190562861615916" lon="14.249413057150706"><ele>443.25</ele><time>2026-04-23T14:19:33.999Z</time></trkpt><trkpt lat="42.19048276971576" lon="14.24957010498001"><ele>440.0</ele><time>2026-04-23T14:19:34.999Z</time></trkpt><trkpt lat="42.19045531025153" lon="14.2497678266484"><ele>443.0</ele><time>2026-04-23T14:19:35.999Z</time></trkpt><trkpt lat="42.190448692984866" lon="14.249976733645838"><ele>446.0</ele><time>2026-04-23T14:19:36.999Z</time></trkpt><trkpt lat="42.19046648233362" lon="14.250198990952288"><ele>449.0</ele><time>2026-04-23T14:19:37.999Z</time></trkpt><trkpt lat="42.19049249796603" lon="14.250439247639827"><ele>448.0</ele><time>2026-04-23T14:19:38.999Z</time></trkpt><trkpt lat="42.19051850960719" lon="14.25070405368658"><ele>447.0</ele><time>2026-04-23T14:19:39.999Z</time></trkpt><trkpt lat="42.19054900147637" lon="14.250998777957168"><ele>446.0</ele><time>2026-04-23T14:19:40.999Z</time></trkpt><trkpt lat="42.190582431194855" lon="14.251286886482635"><ele>445.3333333333333</ele><time>2026-04-23T14:19:41.999Z</time></trkpt><trkpt lat="42.19061652973052" lon="14.251575989236823"><ele>444.66666666666663</ele><time>2026-04-23T14:19:42.999Z</time></trkpt><trkpt lat="42.19064896521626" lon="14.251869153982922"><ele>444.0</ele><time>2026-04-23T14:19:43.999Z</time></trkpt><trkpt lat="42.190683545338686" lon="14.252118906807103"><ele>446.66666666666663</ele><time>2026-04-23T14:19:44.999Z</time></trkpt><trkpt lat="42.190713359533135" lon="14.252372012668546"><ele>449.3333333333333</ele><time>2026-04-23T14:19:45.999Z</time></trkpt><trkpt lat="42.1907430259459" lon="14.25260872326671"><ele>452.0</ele><time>2026-04-23T14:19:46.999Z</time></trkpt><trkpt lat="42.1907684897017" lon="14.252838498454029"><ele>452.0</ele><time>2026-04-23T14:19:47.999Z</time></trkpt><trkpt lat="42.19079358541187" lon="14.253068011580753"><ele>452.0</ele><time>2026-04-23T14:19:48.999Z</time></trkpt><trkpt lat="42.19081970459903" lon="14.253296551669944"><ele>452.0</ele><time>2026-04-23T14:19:49.999Z</time></trkpt><trkpt lat="42.190841964240995" lon="14.253519925964047"><ele>453.0</ele><time>2026-04-23T14:19:50.999Z</time></trkpt><trkpt lat="42.19086715503802" lon="14.253740479271968"><ele>454.0</ele><time>2026-04-23T14:19:51.999Z</time></trkpt><trkpt lat="42.19089349216084" lon="14.253948707296194"><ele>455.0</ele><time>2026-04-23T14:19:52.999Z</time></trkpt><trkpt lat="42.19090710557528" lon="14.254139469186551"><ele>455.2</ele><time>2026-04-23T14:19:53.999Z</time></trkpt><trkpt lat="42.190925961337804" lon="14.254308254571036"><ele>455.4</ele><time>2026-04-23T14:19:54.999Z</time></trkpt><trkpt lat="42.19094241439215" lon="14.254459039314034"><ele>455.6</ele><time>2026-04-23T14:19:55.999Z</time></trkpt><trkpt lat="42.19093781385677" lon="14.254599148788387"><ele>455.8</ele><time>2026-04-23T14:19:56.999Z</time></trkpt><trkpt lat="42.190926377928015" lon="14.25472560090077"><ele>456.0</ele><time>2026-04-23T14:19:57.999Z</time></trkpt><trkpt lat="42.19088375645956" lon="14.254843052586972"><ele>456.0</ele><time>2026-04-23T14:19:58.999Z</time></trkpt><trkpt lat="42.19083036638303" lon="14.25495548742293"><ele>456.0</ele><time>2026-04-23T14:19:59.999Z</time></trkpt><trkpt lat="42.19075863658356" lon="14.255058822544214"><ele>456.0</ele><time>2026-04-23T14:20:00.999Z</time></trkpt><trkpt lat="42.190680802916226" lon="14.255180109615615"><ele>456.0</ele><time>2026-04-23T14:20:01.999Z</time></trkpt><trkpt lat="42.19061475981699" lon="14.255316770425383"><ele>456.0</ele><time>2026-04-23T14:20:02.999Z</time></trkpt><trkpt lat="42.19054078487094" lon="14.255452230918896"><ele>458.33333333333337</ele><time>2026-04-23T14:20:03.999Z</time></trkpt><trkpt lat="42.19048309042167" lon="14.255612050947082"><ele>460.6666666666667</ele><time>2026-04-23T14:20:04.999Z</time></trkpt><trkpt lat="42.19039620597747" lon="14.25582092123521"><ele>463.0</ele><time>2026-04-23T14:20:06Z</time></trkpt><trkpt lat="42.1903227051137" lon="14.256080958121933"><ele>463.0</ele><time>2026-04-23T14:20:07Z</time></trkpt><trkpt lat="42.190242450528665" lon="14.256308711430043"><ele>463.0</ele><time>2026-04-23T14:20:08Z</time></trkpt><trkpt lat="42.190197083306025" lon="14.256545831053268"><ele>463.0</ele><time>2026-04-23T14:20:09Z</time></trkpt><trkpt lat="42.19019303039112" lon="14.256763479410168"><ele>463.33333333333337</ele><time>2026-04-23T14:20:10Z</time></trkpt><trkpt lat="42.19022520507018" lon="14.25697215889714"><ele>463.66666666666663</ele><time>2026-04-23T14:20:10.999Z</time></trkpt><trkpt lat="42.190297408055635" lon="14.257161077336324"><ele>464.0</ele><time>2026-04-23T14:20:12Z</time></trkpt><trkpt lat="42.19041157565684" lon="14.257322023919178"><ele>465.0</ele><time>2026-04-23T14:20:13Z</time></trkpt><trkpt lat="42.19055044372663" lon="14.257468116557169"><ele>466.0</ele><time>2026-04-23T14:20:14Z</time></trkpt><trkpt lat="42.19067603644443" lon="14.257607810108805"><ele>467.0</ele><time>2026-04-23T14:20:15Z</time></trkpt><trkpt lat="42.19077289036511" lon="14.257753748792716"><ele>465.0</ele><time>2026-04-23T14:20:16Z</time></trkpt><trkpt lat="42.19084356297694" lon="14.257928206304303"><ele>463.0</ele><time>2026-04-23T14:20:17Z</time></trkpt><trkpt lat="42.19083648116466" lon="14.258112192478045"><ele>461.0</ele><time>2026-04-23T14:20:18Z</time></trkpt><trkpt lat="42.19082010549227" lon="14.258290717628707"><ele>459.0</ele><time>2026-04-23T14:20:19Z</time></trkpt><trkpt lat="42.190759567145626" lon="14.25846609599829"><ele>459.0</ele><time>2026-04-23T14:20:20Z</time></trkpt><trkpt lat="42.190689583169146" lon="14.258655226474907"><ele>459.0</ele><time>2026-04-23T14:20:21Z</time></trkpt><trkpt lat="42.19061670729727" lon="14.258862870592479"><ele>459.0</ele><time>2026-04-23T14:20:22Z</time></trkpt><trkpt lat="42.190504700391834" lon="14.259033596508038"><ele>460.0</ele><time>2026-04-23T14:20:23Z</time></trkpt><trkpt lat="42.19037971140367" lon="14.25918285726648"><ele>461.0</ele><time>2026-04-23T14:20:24Z</time></trkpt><trkpt lat="42.19024152538117" lon="14.25933718864962"><ele>462.0</ele><time>2026-04-23T14:20:25Z</time></trkpt><trkpt lat="42.190126738007976" lon="14.259500780164956"><ele>462.0</ele><time>2026-04-23T14:20:26Z</time></trkpt><trkpt lat="42.190011800805365" lon="14.259654262001849"><ele>462.0</ele><time>2026-04-23T14:20:27Z</time></trkpt><trkpt lat="42.18990532438347" lon="14.259830347711645"><ele>462.0</ele><time>2026-04-23T14:20:28Z</time></trkpt><trkpt lat="42.189805267110714" lon="14.260027338377679"><ele>462.33333333333337</ele><time>2026-04-23T14:20:29Z</time></trkpt><trkpt lat="42.18975164915342" lon="14.260252993935357"><ele>462.6666666666667</ele><time>2026-04-23T14:20:30Z</time></trkpt><trkpt lat="42.18974032149928" lon="14.260488198793627"><ele>463.0</ele><time>2026-04-23T14:20:31Z</time></trkpt><trkpt lat="42.18970776669512" lon="14.26070081544664"><ele>460.6666666666667</ele><time>2026-04-23T14:20:32Z</time></trkpt><trkpt lat="42.18964746231248" lon="14.260891850835847"><ele>458.33333333333337</ele><time>2026-04-23T14:20:33Z</time></trkpt><trkpt lat="42.18953567870309" lon="14.261043522148759"><ele>456.0</ele><time>2026-04-23T14:20:34Z</time></trkpt><trkpt lat="42.189425747468135" lon="14.261226968735595"><ele>456.0</ele><time>2026-04-23T14:20:35Z</time></trkpt><trkpt lat="42.189289056371855" lon="14.261389804484123"><ele>456.0</ele><time>2026-04-23T14:20:36Z</time></trkpt><trkpt lat="42.18916303411221" lon="14.261562467445744"><ele>456.0</ele><time>2026-04-23T14:20:37Z</time></trkpt><trkpt lat="42.18904493658394" lon="14.261735651405044"><ele>455.0</ele><time>2026-04-23T14:20:38Z</time></trkpt><trkpt lat="42.18893608217182" lon="14.261898030471812"><ele>454.0</ele><time>2026-04-23T14:20:39Z</time></trkpt><trkpt lat="42.1888287584498" lon="14.26204377482156"><ele>453.0</ele><time>2026-04-23T14:20:40Z</time></trkpt><trkpt lat="42.18870649552895" lon="14.2621634442376"><ele>453.0</ele><time>2026-04-23T14:20:41Z</time></trkpt><trkpt lat="42.188565465027864" lon="14.262227643756747"><ele>453.0</ele><time>2026-04-23T14:20:42Z</time></trkpt><trkpt lat="42.18842450095624" lon="14.262317654357515"><ele>453.0</ele><time>2026-04-23T14:20:43Z</time></trkpt><trkpt lat="42.188275513434974" lon="14.26238207753623"><ele>449.0</ele><time>2026-04-23T14:20:44Z</time></trkpt><trkpt lat="42.18812024839115" lon="14.262449045065722"><ele>445.0</ele><time>2026-04-23T14:20:45Z</time></trkpt><trkpt lat="42.18796522444945" lon="14.262528850082024"><ele>441.0</ele><time>2026-04-23T14:20:46Z</time></trkpt><trkpt lat="42.18782534734953" lon="14.262610577873184"><ele>441.0</ele><time>2026-04-23T14:20:47Z</time></trkpt><trkpt lat="42.187697026737986" lon="14.262695572414826"><ele>441.0</ele><time>2026-04-23T14:20:48Z</time></trkpt><trkpt lat="42.18757874805258" lon="14.26278200935408"><ele>441.0</ele><time>2026-04-23T14:20:49Z</time></trkpt><trkpt lat="42.187457547693604" lon="14.262878546155383"><ele>441.0</ele><time>2026-04-23T14:20:50Z</time></trkpt><trkpt lat="42.18734186037643" lon="14.262986219224375"><ele>438.75</ele><time>2026-04-23T14:20:51Z</time></trkpt><trkpt lat="42.18724031307997" lon="14.263096427084056"><ele>436.5</ele><time>2026-04-23T14:20:52Z</time></trkpt><trkpt lat="42.187166243365226" lon="14.263222189534797"><ele>434.25</ele><time>2026-04-23T14:20:53Z</time></trkpt><trkpt lat="42.187123187730684" lon="14.263386567586961"><ele>432.0</ele><time>2026-04-23T14:20:54Z</time></trkpt><trkpt lat="42.18711723815661" lon="14.263578755059164"><ele>432.0</ele><time>2026-04-23T14:20:55Z</time></trkpt><trkpt lat="42.18713332833705" lon="14.263776606055352"><ele>432.0</ele><time>2026-04-23T14:20:56Z</time></trkpt><trkpt lat="42.18716143845414" lon="14.263985295871244"><ele>432.0</ele><time>2026-04-23T14:20:57Z</time></trkpt><trkpt lat="42.187186900193346" lon="14.264210018533714"><ele>431.33333333333337</ele><time>2026-04-23T14:20:58Z</time></trkpt><trkpt lat="42.18720539312485" lon="14.264429602472832"><ele>430.6666666666667</ele><time>2026-04-23T14:20:59Z</time></trkpt><trkpt lat="42.18722931615021" lon="14.264646834771805"><ele>430.0</ele><time>2026-04-23T14:21:00Z</time></trkpt><trkpt lat="42.187268361784014" lon="14.264863715518882"><ele>428.33333333333337</ele><time>2026-04-23T14:21:01Z</time></trkpt><trkpt lat="42.18733344403527" lon="14.26506945204565"><ele>426.66666666666663</ele><time>2026-04-23T14:21:02Z</time></trkpt><trkpt lat="42.18739283915561" lon="14.265267272742506"><ele>425.0</ele><time>2026-04-23T14:21:03Z</time></trkpt><trkpt lat="42.18744126781538" lon="14.265465769312785"><ele>424.66666666666663</ele><time>2026-04-23T14:21:04Z</time></trkpt><trkpt lat="42.187505242653586" lon="14.265658360530697"><ele>424.33333333333337</ele><time>2026-04-23T14:21:05Z</time></trkpt><trkpt lat="42.18757313027735" lon="14.265855720881074"><ele>424.0</ele><time>2026-04-23T14:21:06Z</time></trkpt><trkpt lat="42.18765090261733" lon="14.266051798460863"><ele>424.0</ele><time>2026-04-23T14:21:07Z</time></trkpt><trkpt lat="42.187739314747326" lon="14.266239313310438"><ele>424.0</ele><time>2026-04-23T14:21:08Z</time></trkpt><trkpt lat="42.18781654463015" lon="14.266417177509288"><ele>424.0</ele><time>2026-04-23T14:21:09Z</time></trkpt><trkpt lat="42.18788799039222" lon="14.266590496854937"><ele>423.25</ele><time>2026-04-23T14:21:10Z</time></trkpt><trkpt lat="42.18795447991847" lon="14.266752304007639"><ele>422.5</ele><time>2026-04-23T14:21:11Z</time></trkpt><trkpt lat="42.18803255562631" lon="14.266912640402342"><ele>421.75</ele><time>2026-04-23T14:21:12Z</time></trkpt><trkpt lat="42.188096325644416" lon="14.267089145808258"><ele>421.0</ele><time>2026-04-23T14:21:13Z</time></trkpt><trkpt lat="42.1881837088333" lon="14.26724460806715"><ele>420.25</ele><time>2026-04-23T14:21:14Z</time></trkpt><trkpt lat="42.188248151661334" lon="14.267412666502418"><ele>419.5</ele><time>2026-04-23T14:21:15Z</time></trkpt><trkpt lat="42.188315089258175" lon="14.267582885738115"><ele>418.75</ele><time>2026-04-23T14:21:16Z</time></trkpt><trkpt lat="42.18837785540305" lon="14.267738032960446"><ele>418.0</ele><time>2026-04-23T14:21:17Z</time></trkpt><trkpt lat="42.188438582510734" lon="14.267877007360063"><ele>418.0</ele><time>2026-04-23T14:21:18Z</time></trkpt><trkpt lat="42.188490620579316" lon="14.268007804410981"><ele>418.0</ele><time>2026-04-23T14:21:19Z</time></trkpt><trkpt lat="42.18851670699088" lon="14.268130562270734"><ele>418.0</ele><time>2026-04-23T14:21:20Z</time></trkpt><trkpt lat="42.18850539983134" lon="14.26823650154361"><ele>418.0</ele><time>2026-04-23T14:21:21Z</time></trkpt><trkpt lat="42.18845995996228" lon="14.268332377588646"><ele>418.0</ele><time>2026-04-23T14:21:22Z</time></trkpt><trkpt lat="42.188388426002035" lon="14.268391380265134"><ele>417.2</ele><time>2026-04-23T14:21:23Z</time></trkpt><trkpt lat="42.188303840455696" lon="14.268398689017738"><ele>416.4</ele><time>2026-04-23T14:21:24Z</time></trkpt><trkpt lat="42.188229374271664" lon="14.268434033298588"><ele>415.59999999999997</ele><time>2026-04-23T14:21:25Z</time></trkpt><trkpt lat="42.18816215715207" lon="14.26843962492377"><ele>414.79999999999995</ele><time>2026-04-23T14:21:26Z</time></trkpt><trkpt lat="42.18805210127562" lon="14.268415688927226"><ele>414.0</ele><time>2026-04-23T14:21:28Z</time></trkpt><trkpt lat="42.18794628357371" lon="14.268357657765756"><ele>413.6</ele><time>2026-04-23T14:21:30Z</time></trkpt><trkpt lat="42.18783495642311" lon="14.268278246448215"><ele>413.2</ele><time>2026-04-23T14:21:32Z</time></trkpt><trkpt lat="42.18777333462744" lon="14.268195348719129"><ele>412.8</ele><time>2026-04-23T14:21:33Z</time></trkpt><trkpt lat="42.18768416801499" lon="14.268107129194947"><ele>412.40000000000003</ele><time>2026-04-23T14:21:34Z</time></trkpt><trkpt lat="42.18758787568376" lon="14.268004711126881"><ele>412.0</ele><time>2026-04-23T14:21:35Z</time></trkpt><trkpt lat="42.18747578533613" lon="14.267886373178134"><ele>412.0</ele><time>2026-04-23T14:21:36Z</time></trkpt><trkpt lat="42.18735774872657" lon="14.267771865514156"><ele>412.0</ele><time>2026-04-23T14:21:37Z</time></trkpt><trkpt lat="42.18724453888651" lon="14.267638722211215"><ele>412.0</ele><time>2026-04-23T14:21:38Z</time></trkpt><trkpt lat="42.18712937572915" lon="14.267505397386907"><ele>412.0</ele><time>2026-04-23T14:21:39Z</time></trkpt><trkpt lat="42.187012314189396" lon="14.267376556105994"><ele>411.75</ele><time>2026-04-23T14:21:40Z</time></trkpt><trkpt lat="42.186898459554264" lon="14.267262673225362"><ele>411.5</ele><time>2026-04-23T14:21:41Z</time></trkpt><trkpt lat="42.1867819284968" lon="14.267182155459386"><ele>411.25</ele><time>2026-04-23T14:21:42Z</time></trkpt><trkpt lat="42.18665400748491" lon="14.267135564498878"><ele>411.0</ele><time>2026-04-23T14:21:43Z</time></trkpt><trkpt lat="42.18651141635857" lon="14.26714430697928"><ele>407.33333333333337</ele><time>2026-04-23T14:21:44Z</time></trkpt><trkpt lat="42.18636927630649" lon="14.267191007651707"><ele>403.6666666666667</ele><time>2026-04-23T14:21:45Z</time></trkpt><trkpt lat="42.186229393295534" lon="14.267279059557257"><ele>400.0</ele><time>2026-04-23T14:21:46Z</time></trkpt><trkpt lat="42.18609577771613" lon="14.267395241244442"><ele>400.0</ele><time>2026-04-23T14:21:47Z</time></trkpt><trkpt lat="42.18596533909503" lon="14.267530248105173"><ele>400.0</ele><time>2026-04-23T14:21:48Z</time></trkpt><trkpt lat="42.18584213934411" lon="14.267673262889106"><ele>400.0</ele><time>2026-04-23T14:21:49Z</time></trkpt><trkpt lat="42.185723093003524" lon="14.267825241125882"><ele>397.33333333333337</ele><time>2026-04-23T14:21:50Z</time></trkpt><trkpt lat="42.18560934634454" lon="14.267986661869568"><ele>394.66666666666663</ele><time>2026-04-23T14:21:51Z</time></trkpt><trkpt lat="42.18550110202421" lon="14.26815701318214"><ele>392.0</ele><time>2026-04-23T14:21:52Z</time></trkpt><trkpt lat="42.18540158975922" lon="14.268340951695393"><ele>392.0</ele><time>2026-04-23T14:21:53Z</time></trkpt><trkpt lat="42.18530550304707" lon="14.268534314913897"><ele>392.0</ele><time>2026-04-23T14:21:53.999Z</time></trkpt><trkpt lat="42.18520944227009" lon="14.268729316970115"><ele>392.0</ele><time>2026-04-23T14:21:54.999Z</time></trkpt><trkpt lat="42.18510066403207" lon="14.268927134538126"><ele>392.3333333333333</ele><time>2026-04-23T14:21:55.999Z</time></trkpt><trkpt lat="42.1849934053911" lon="14.269128752972003"><ele>392.66666666666663</ele><time>2026-04-23T14:21:56.999Z</time></trkpt><trkpt lat="42.18488153183498" lon="14.269341053576197"><ele>393.0</ele><time>2026-04-23T14:21:57.999Z</time></trkpt><trkpt lat="42.184770286166966" lon="14.26955542702697"><ele>389.3333333333333</ele><time>2026-04-23T14:21:58.999Z</time></trkpt><trkpt lat="42.18465963285805" lon="14.26976837303282"><ele>385.66666666666663</ele><time>2026-04-23T14:21:59.999Z</time></trkpt><trkpt lat="42.18454034968441" lon="14.269985893242039"><ele>382.0</ele><time>2026-04-23T14:22:00.999Z</time></trkpt><trkpt lat="42.18442353215579" lon="14.270204152955007"><ele>382.0</ele><time>2026-04-23T14:22:01.999Z</time></trkpt><trkpt lat="42.18430783066153" lon="14.270418359136753"><ele>382.0</ele><time>2026-04-23T14:22:02.999Z</time></trkpt><trkpt lat="42.18420365580565" lon="14.270623749364274"><ele>382.0</ele><time>2026-04-23T14:22:03.999Z</time></trkpt><trkpt lat="42.184105255818785" lon="14.270827231696092"><ele>381.0</ele><time>2026-04-23T14:22:04.999Z</time></trkpt><trkpt lat="42.184029286528336" lon="14.27102315011408"><ele>380.0</ele><time>2026-04-23T14:22:05.999Z</time></trkpt><trkpt lat="42.18396801533078" lon="14.271226208565281"><ele>379.0</ele><time>2026-04-23T14:22:06.999Z</time></trkpt><trkpt lat="42.18391815662624" lon="14.271445864507365"><ele>382.66666666666663</ele><time>2026-04-23T14:22:07.999Z</time></trkpt><trkpt lat="42.18389270991728" lon="14.27167508520554"><ele>386.3333333333333</ele><time>2026-04-23T14:22:08.999Z</time></trkpt><trkpt lat="42.18389511409302" lon="14.271905234891934"><ele>390.0</ele><time>2026-04-23T14:22:09.999Z</time></trkpt><trkpt lat="42.183919760888685" lon="14.272130808679135"><ele>391.33333333333337</ele><time>2026-04-23T14:22:11Z</time></trkpt><trkpt lat="42.1839654462304" lon="14.272336490864747"><ele>392.6666666666667</ele><time>2026-04-23T14:22:12Z</time></trkpt><trkpt lat="42.18402525559967" lon="14.272538393016967"><ele>394.0</ele><time>2026-04-23T14:22:13Z</time></trkpt><trkpt lat="42.184085224001024" lon="14.27274678038224"><ele>394.0</ele><time>2026-04-23T14:22:14Z</time></trkpt><trkpt lat="42.18414947372212" lon="14.272946960433599"><ele>394.0</ele><time>2026-04-23T14:22:15Z</time></trkpt><trkpt lat="42.184197926683645" lon="14.273155783004364"><ele>394.0</ele><time>2026-04-23T14:22:16Z</time></trkpt><trkpt lat="42.18427389206947" lon="14.273359546720165"><ele>395.0</ele><time>2026-04-23T14:22:17Z</time></trkpt><trkpt lat="42.18433520238548" lon="14.273576628126557"><ele>396.0</ele><time>2026-04-23T14:22:18Z</time></trkpt><trkpt lat="42.18439540865278" lon="14.273800043708839"><ele>397.0</ele><time>2026-04-23T14:22:19Z</time></trkpt><trkpt lat="42.18445297316894" lon="14.274030877514917"><ele>397.33333333333337</ele><time>2026-04-23T14:22:20Z</time></trkpt><trkpt lat="42.18451326870767" lon="14.274251758330275"><ele>397.66666666666663</ele><time>2026-04-23T14:22:21Z</time></trkpt><trkpt lat="42.18455814106957" lon="14.274491866063853"><ele>398.0</ele><time>2026-04-23T14:22:22Z</time></trkpt><trkpt lat="42.184614173778044" lon="14.274713570909213"><ele>397.66666666666663</ele><time>2026-04-23T14:22:23Z</time></trkpt><trkpt lat="42.18466934924156" lon="14.274930431872932"><ele>397.33333333333337</ele><time>2026-04-23T14:22:24Z</time></trkpt><trkpt lat="42.18472154080638" lon="14.27513105376948"><ele>397.0</ele><time>2026-04-23T14:22:25Z</time></trkpt><trkpt lat="42.184774192182786" lon="14.275333779555636"><ele>397.0</ele><time>2026-04-23T14:22:26Z</time></trkpt><trkpt lat="42.18482587824169" lon="14.275524161840984"><ele>397.0</ele><time>2026-04-23T14:22:27Z</time></trkpt><trkpt lat="42.184877884057705" lon="14.275724488999181"><ele>397.0</ele><time>2026-04-23T14:22:28Z</time></trkpt><trkpt lat="42.18491843677922" lon="14.275926118629252"><ele>394.6666666666667</ele><time>2026-04-23T14:22:29Z</time></trkpt><trkpt lat="42.18494503453014" lon="14.276139323294824"><ele>392.33333333333337</ele><time>2026-04-23T14:22:30Z</time></trkpt><trkpt lat="42.18496786732576" lon="14.276347567478524"><ele>390.0</ele><time>2026-04-23T14:22:31Z</time></trkpt><trkpt lat="42.18499039814197" lon="14.276574815778105"><ele>390.0</ele><time>2026-04-23T14:22:32Z</time></trkpt><trkpt lat="42.18502632013735" lon="14.276802375030325"><ele>390.0</ele><time>2026-04-23T14:22:33Z</time></trkpt><trkpt lat="42.18504272859328" lon="14.277024210456718"><ele>390.0</ele><time>2026-04-23T14:22:34Z</time></trkpt><trkpt lat="42.185046187863826" lon="14.27726148032634"><ele>391.0</ele><time>2026-04-23T14:22:35Z</time></trkpt><trkpt lat="42.18506751808943" lon="14.277503830589843"><ele>392.0</ele><time>2026-04-23T14:22:36Z</time></trkpt><trkpt lat="42.18508932258037" lon="14.277747564707337"><ele>393.0</ele><time>2026-04-23T14:22:37Z</time></trkpt><trkpt lat="42.18513060684481" lon="14.277995213636524"><ele>393.33333333333337</ele><time>2026-04-23T14:22:38Z</time></trkpt><trkpt lat="42.18515950325343" lon="14.278241877629386"><ele>393.6666666666667</ele><time>2026-04-23T14:22:39Z</time></trkpt><trkpt lat="42.18520376219435" lon="14.278480795445118"><ele>394.0</ele><time>2026-04-23T14:22:40Z</time></trkpt><trkpt lat="42.185258419749374" lon="14.278701049477778"><ele>394.0</ele><time>2026-04-23T14:22:41Z</time></trkpt><trkpt lat="42.185317729050674" lon="14.278929155065082"><ele>394.0</ele><time>2026-04-23T14:22:42Z</time></trkpt><trkpt lat="42.18538253812257" lon="14.279139551644782"><ele>394.0</ele><time>2026-04-23T14:22:43Z</time></trkpt><trkpt lat="42.185472523000186" lon="14.27935271071579"><ele>393.0</ele><time>2026-04-23T14:22:44Z</time></trkpt><trkpt lat="42.185560798816525" lon="14.27955735498168"><ele>392.0</ele><time>2026-04-23T14:22:45Z</time></trkpt><trkpt lat="42.18564976015346" lon="14.279760517667775"><ele>391.0</ele><time>2026-04-23T14:22:46Z</time></trkpt><trkpt lat="42.185735419585654" lon="14.2799601917583"><ele>390.75</ele><time>2026-04-23T14:22:47Z</time></trkpt><trkpt lat="42.185817747395554" lon="14.280143530056689"><ele>390.5</ele><time>2026-04-23T14:22:48Z</time></trkpt><trkpt lat="42.18589233183876" lon="14.280319850044485"><ele>390.25</ele><time>2026-04-23T14:22:49Z</time></trkpt><trkpt lat="42.18595866281506" lon="14.280479667473369"><ele>390.0</ele><time>2026-04-23T14:22:50Z</time></trkpt><trkpt lat="42.18602203338766" lon="14.280627923805026"><ele>390.5</ele><time>2026-04-23T14:22:51Z</time></trkpt><trkpt lat="42.186085302544285" lon="14.280780230294486"><ele>391.0</ele><time>2026-04-23T14:22:52Z</time></trkpt><trkpt lat="42.18615059728228" lon="14.280932233050606"><ele>391.5</ele><time>2026-04-23T14:22:53Z</time></trkpt><trkpt lat="42.18621773273429" lon="14.281086114374368"><ele>392.0</ele><time>2026-04-23T14:22:54Z</time></trkpt><trkpt lat="42.18628635208301" lon="14.28124429407827"><ele>392.0</ele><time>2026-04-23T14:22:55Z</time></trkpt><trkpt lat="42.18635649070742" lon="14.281396378328521"><ele>392.0</ele><time>2026-04-23T14:22:56Z</time></trkpt><trkpt lat="42.186428434815646" lon="14.281544501809229"><ele>392.0</ele><time>2026-04-23T14:22:57Z</time></trkpt><trkpt lat="42.18658800232511" lon="14.281853101260808"><ele>392.0</ele><time>2026-04-23T14:22:59Z</time></trkpt><trkpt lat="42.186676724176586" lon="14.282008707698965"><ele>392.0</ele><time>2026-04-23T14:23:00Z</time></trkpt><trkpt lat="42.186775417696445" lon="14.282160883449102"><ele>392.0</ele><time>2026-04-23T14:23:01Z</time></trkpt><trkpt lat="42.1868791187675" lon="14.28231270304574"><ele>392.0</ele><time>2026-04-23T14:23:02Z</time></trkpt><trkpt lat="42.1869793637761" lon="14.282470100199731"><ele>391.0</ele><time>2026-04-23T14:23:03Z</time></trkpt><trkpt lat="42.1870837285576" lon="14.282622181447826"><ele>390.0</ele><time>2026-04-23T14:23:04Z</time></trkpt><trkpt lat="42.187181884478576" lon="14.282775998004993"><ele>389.0</ele><time>2026-04-23T14:23:05Z</time></trkpt><trkpt lat="42.1872831144352" lon="14.282930537655815"><ele>389.0</ele><time>2026-04-23T14:23:06Z</time></trkpt><trkpt lat="42.18738337124015" lon="14.283082086643144"><ele>389.0</ele><time>2026-04-23T14:23:07Z</time></trkpt><trkpt lat="42.18748179709592" lon="14.283237596919372"><ele>389.0</ele><time>2026-04-23T14:23:08Z</time></trkpt><trkpt lat="42.187580663684734" lon="14.28339106068978"><ele>389.0</ele><time>2026-04-23T14:23:09Z</time></trkpt><trkpt lat="42.187685610366714" lon="14.283556678458893"><ele>389.0</ele><time>2026-04-23T14:23:10Z</time></trkpt><trkpt lat="42.187790816916994" lon="14.283711977175361"><ele>389.0</ele><time>2026-04-23T14:23:11Z</time></trkpt><trkpt lat="42.18790626267805" lon="14.283873748788476"><ele>389.66666666666663</ele><time>2026-04-23T14:23:12Z</time></trkpt><trkpt lat="42.18802225844142" lon="14.28403512895193"><ele>390.33333333333337</ele><time>2026-04-23T14:23:13Z</time></trkpt><trkpt lat="42.18813119031081" lon="14.28421578166415"><ele>391.0</ele><time>2026-04-23T14:23:14Z</time></trkpt><trkpt lat="42.188235248645526" lon="14.28440957727367"><ele>391.0</ele><time>2026-04-23T14:23:15Z</time></trkpt><trkpt lat="42.18833324814766" lon="14.284603343568469"><ele>391.0</ele><time>2026-04-23T14:23:16Z</time></trkpt><trkpt lat="42.18842761996906" lon="14.284803836973875"><ele>391.0</ele><time>2026-04-23T14:23:17Z</time></trkpt><trkpt lat="42.188520661842425" lon="14.285004471942987"><ele>394.0</ele><time>2026-04-23T14:23:18Z</time></trkpt><trkpt lat="42.188613897420346" lon="14.285208910872894"><ele>397.0</ele><time>2026-04-23T14:23:19Z</time></trkpt><trkpt lat="42.18870966864611" lon="14.285408426449747"><ele>400.0</ele><time>2026-04-23T14:23:20Z</time></trkpt><trkpt lat="42.18880889739018" lon="14.285610070947317"><ele>399.0</ele><time>2026-04-23T14:23:21Z</time></trkpt><trkpt lat="42.18890358460516" lon="14.285806138395417"><ele>398.0</ele><time>2026-04-23T14:23:22Z</time></trkpt><trkpt lat="42.189000408550875" lon="14.286009408698806"><ele>397.0</ele><time>2026-04-23T14:23:23Z</time></trkpt><trkpt lat="42.189095442023536" lon="14.286206380146208"><ele>397.0</ele><time>2026-04-23T14:23:24Z</time></trkpt><trkpt lat="42.18918829954604" lon="14.28639921484831"><ele>397.0</ele><time>2026-04-23T14:23:25Z</time></trkpt><trkpt lat="42.18927202328876" lon="14.286582650345256"><ele>397.0</ele><time>2026-04-23T14:23:26Z</time></trkpt><trkpt lat="42.189305889380186" lon="14.286770983484423"><ele>399.6666666666667</ele><time>2026-04-23T14:23:27Z</time></trkpt><trkpt lat="42.189320061189164" lon="14.28696596564466"><ele>402.33333333333337</ele><time>2026-04-23T14:23:28Z</time></trkpt><trkpt lat="42.189324688193004" lon="14.287171426491728"><ele>405.0</ele><time>2026-04-23T14:23:29Z</time></trkpt><trkpt lat="42.18929214501868" lon="14.2873960440554"><ele>405.0</ele><time>2026-04-23T14:23:30Z</time></trkpt><trkpt lat="42.1892639131079" lon="14.287626627981611"><ele>405.0</ele><time>2026-04-23T14:23:31Z</time></trkpt><trkpt lat="42.18924430564786" lon="14.287865981450794"><ele>405.0</ele><time>2026-04-23T14:23:32Z</time></trkpt><trkpt lat="42.18922880840825" lon="14.288110144038017"><ele>404.66666666666663</ele><time>2026-04-23T14:23:33Z</time></trkpt><trkpt lat="42.18921160589798" lon="14.288355089102613"><ele>404.3333333333333</ele><time>2026-04-23T14:23:34Z</time></trkpt><trkpt lat="42.18919926657151" lon="14.288606396424195"><ele>404.0</ele><time>2026-04-23T14:23:35Z</time></trkpt><trkpt lat="42.18918953134317" lon="14.288851200727596"><ele>404.3333333333333</ele><time>2026-04-23T14:23:36Z</time></trkpt><trkpt lat="42.18917343022713" lon="14.289098250868864"><ele>404.66666666666663</ele><time>2026-04-23T14:23:37Z</time></trkpt><trkpt lat="42.189157153846864" lon="14.289331900712376"><ele>405.0</ele><time>2026-04-23T14:23:38Z</time></trkpt><trkpt lat="42.18914091595395" lon="14.28955082854651"><ele>405.0</ele><time>2026-04-23T14:23:39Z</time></trkpt><trkpt lat="42.18912739887265" lon="14.289752791728608"><ele>405.0</ele><time>2026-04-23T14:23:40Z</time></trkpt><trkpt lat="42.18910854151439" lon="14.28993358670143"><ele>405.0</ele><time>2026-04-23T14:23:41Z</time></trkpt><trkpt lat="42.189064229161836" lon="14.290082590274508"><ele>405.0</ele><time>2026-04-23T14:23:42Z</time></trkpt><trkpt lat="42.188990582388904" lon="14.29021552663875"><ele>406.0</ele><time>2026-04-23T14:23:43Z</time></trkpt><trkpt lat="42.18888148871233" lon="14.290316057752861"><ele>407.0</ele><time>2026-04-23T14:23:44Z</time></trkpt><trkpt lat="42.188774954067036" lon="14.290445162180852"><ele>408.0</ele><time>2026-04-23T14:23:45Z</time></trkpt><trkpt lat="42.18865352238651" lon="14.29054293136882"><ele>409.0</ele><time>2026-04-23T14:23:46Z</time></trkpt><trkpt lat="42.18853346626762" lon="14.290653089144445"><ele>408.33333333333337</ele><time>2026-04-23T14:23:47Z</time></trkpt><trkpt lat="42.18841093124143" lon="14.290774208242652"><ele>407.66666666666663</ele><time>2026-04-23T14:23:48Z</time></trkpt><trkpt lat="42.188287761788416" lon="14.290898682696522"><ele>407.0</ele><time>2026-04-23T14:23:49Z</time></trkpt><trkpt lat="42.188160565303946" lon="14.291027155824406"><ele>407.0</ele><time>2026-04-23T14:23:50Z</time></trkpt><trkpt lat="42.188027083708185" lon="14.291163846450473"><ele>407.0</ele><time>2026-04-23T14:23:51Z</time></trkpt><trkpt lat="42.18790358357428" lon="14.291308167112538"><ele>407.0</ele><time>2026-04-23T14:23:52Z</time></trkpt><trkpt lat="42.18777876956615" lon="14.291456541316386"><ele>404.66666666666663</ele><time>2026-04-23T14:23:53Z</time></trkpt><trkpt lat="42.18765818243198" lon="14.291606430403588"><ele>402.33333333333337</ele><time>2026-04-23T14:23:54Z</time></trkpt><trkpt lat="42.187531496846034" lon="14.291759396648956"><ele>400.0</ele><time>2026-04-23T14:23:55Z</time></trkpt><trkpt lat="42.187410406086464" lon="14.291918620280294"><ele>400.33333333333337</ele><time>2026-04-23T14:23:56Z</time></trkpt><trkpt lat="42.1872884924318" lon="14.29207361014062"><ele>400.66666666666663</ele><time>2026-04-23T14:23:57Z</time></trkpt><trkpt lat="42.18717055246895" lon="14.292230307538025"><ele>401.0</ele><time>2026-04-23T14:23:58Z</time></trkpt><trkpt lat="42.18707474997886" lon="14.292391667415341"><ele>401.0</ele><time>2026-04-23T14:23:59Z</time></trkpt><trkpt lat="42.18700641726331" lon="14.292574454853382"><ele>401.0</ele><time>2026-04-23T14:24:00Z</time></trkpt><trkpt lat="42.18698088413893" lon="14.292770690503524"><ele>401.0</ele><time>2026-04-23T14:24:01Z</time></trkpt><trkpt lat="42.18694725723969" lon="14.292952119023166"><ele>401.0</ele><time>2026-04-23T14:24:02Z</time></trkpt><trkpt lat="42.18688492121358" lon="14.293096016427215"><ele>401.25</ele><time>2026-04-23T14:24:03Z</time></trkpt><trkpt lat="42.18677542329321" lon="14.293198880686335"><ele>401.5</ele><time>2026-04-23T14:24:04Z</time></trkpt><trkpt lat="42.18665742608978" lon="14.293308109344718"><ele>401.75</ele><time>2026-04-23T14:24:05Z</time></trkpt><trkpt lat="42.18653786371088" lon="14.293449862427599"><ele>402.0</ele><time>2026-04-23T14:24:06Z</time></trkpt><trkpt lat="42.186465762739665" lon="14.29362118081633"><ele>402.0</ele><time>2026-04-23T14:24:07Z</time></trkpt><trkpt lat="42.18644279095172" lon="14.293818877764856"><ele>402.0</ele><time>2026-04-23T14:24:08Z</time></trkpt><trkpt lat="42.18644922844172" lon="14.294038331772402"><ele>402.0</ele><time>2026-04-23T14:24:09Z</time></trkpt><trkpt lat="42.186442710456944" lon="14.294271072652132"><ele>399.33333333333337</ele><time>2026-04-23T14:24:10Z</time></trkpt><trkpt lat="42.18642550189631" lon="14.294506611483545"><ele>396.6666666666667</ele><time>2026-04-23T14:24:11Z</time></trkpt><trkpt lat="42.186413599757216" lon="14.294736141497472"><ele>394.0</ele><time>2026-04-23T14:24:12Z</time></trkpt><trkpt lat="42.18638207559421" lon="14.294978145079822"><ele>392.33333333333337</ele><time>2026-04-23T14:24:13Z</time></trkpt><trkpt lat="42.186379695190325" lon="14.295227234578334"><ele>390.66666666666663</ele><time>2026-04-23T14:24:14Z</time></trkpt><trkpt lat="42.18634651151883" lon="14.295455932671134"><ele>389.0</ele><time>2026-04-23T14:24:15Z</time></trkpt><trkpt lat="42.18634591213138" lon="14.295706046573303"><ele>388.0</ele><time>2026-04-23T14:24:16Z</time></trkpt><trkpt lat="42.18632960643322" lon="14.295934116767134"><ele>387.0</ele><time>2026-04-23T14:24:17Z</time></trkpt><trkpt lat="42.1863156846436" lon="14.296164322640827"><ele>386.0</ele><time>2026-04-23T14:24:18Z</time></trkpt><trkpt lat="42.18629937458323" lon="14.296400946697629"><ele>385.3333333333333</ele><time>2026-04-23T14:24:19Z</time></trkpt><trkpt lat="42.18628049143356" lon="14.29663467293285"><ele>384.66666666666663</ele><time>2026-04-23T14:24:20Z</time></trkpt><trkpt lat="42.1862538949235" lon="14.29687054393742"><ele>384.0</ele><time>2026-04-23T14:24:21Z</time></trkpt><trkpt lat="42.186196905904396" lon="14.2970902523913"><ele>382.6666666666667</ele><time>2026-04-23T14:24:22Z</time></trkpt><trkpt lat="42.18613508808206" lon="14.297287923261274"><ele>381.33333333333337</ele><time>2026-04-23T14:24:23Z</time></trkpt><trkpt lat="42.18607571504828" lon="14.29748315801011"><ele>380.0</ele><time>2026-04-23T14:24:24Z</time></trkpt><trkpt lat="42.18603949086409" lon="14.297672971723689"><ele>380.0</ele><time>2026-04-23T14:24:25Z</time></trkpt><trkpt lat="42.186022991231425" lon="14.29786912626559"><ele>380.0</ele><time>2026-04-23T14:24:26Z</time></trkpt><trkpt lat="42.186032615209996" lon="14.298070248053977"><ele>380.0</ele><time>2026-04-23T14:24:27Z</time></trkpt><trkpt lat="42.186068044069486" lon="14.298283170665696"><ele>377.6666666666667</ele><time>2026-04-23T14:24:28Z</time></trkpt><trkpt lat="42.18614931584309" lon="14.29848193630861"><ele>375.3333333333333</ele><time>2026-04-23T14:24:29Z</time></trkpt><trkpt lat="42.186237950469376" lon="14.298689632603969"><ele>373.0</ele><time>2026-04-23T14:24:30Z</time></trkpt><trkpt lat="42.186324229217604" lon="14.298908977098153"><ele>372.0</ele><time>2026-04-23T14:24:31Z</time></trkpt><trkpt lat="42.18640728604115" lon="14.299126272319965"><ele>371.0</ele><time>2026-04-23T14:24:32Z</time></trkpt><trkpt lat="42.186484645139835" lon="14.299346017208691"><ele>370.0</ele><time>2026-04-23T14:24:33Z</time></trkpt><trkpt lat="42.18656550265063" lon="14.299543619696104"><ele>369.0</ele><time>2026-04-23T14:24:34Z</time></trkpt><trkpt lat="42.1866337840694" lon="14.299719342066505"><ele>368.0</ele><time>2026-04-23T14:24:35Z</time></trkpt><trkpt lat="42.18665103076948" lon="14.299898994904813"><ele>367.0</ele><time>2026-04-23T14:24:36Z</time></trkpt><trkpt lat="42.18663429686323" lon="14.30006816619808"><ele>366.0</ele><time>2026-04-23T14:24:37Z</time></trkpt><trkpt lat="42.18658947751009" lon="14.30022853710385"><ele>366.0</ele><time>2026-04-23T14:24:38Z</time></trkpt><trkpt lat="42.18651727421451" lon="14.30038850563446"><ele>366.0</ele><time>2026-04-23T14:24:39Z</time></trkpt><trkpt lat="42.18642098960002" lon="14.300551588691892"><ele>366.0</ele><time>2026-04-23T14:24:40Z</time></trkpt><trkpt lat="42.186311843072254" lon="14.30071219320706"><ele>365.0</ele><time>2026-04-23T14:24:41Z</time></trkpt><trkpt lat="42.18618768993127" lon="14.300872315668073"><ele>364.0</ele><time>2026-04-23T14:24:42Z</time></trkpt><trkpt lat="42.1860723184387" lon="14.30103865973487"><ele>363.0</ele><time>2026-04-23T14:24:43Z</time></trkpt><trkpt lat="42.18595514942491" lon="14.30116359551998"><ele>363.0</ele><time>2026-04-23T14:24:44Z</time></trkpt><trkpt lat="42.18586271386932" lon="14.301278809685233"><ele>363.0</ele><time>2026-04-23T14:24:45Z</time></trkpt><trkpt lat="42.18580505610246" lon="14.301397804976668"><ele>363.0</ele><time>2026-04-23T14:24:46Z</time></trkpt><trkpt lat="42.18572523945197" lon="14.301482901911259"><ele>363.0</ele><time>2026-04-23T14:24:47Z</time></trkpt><trkpt lat="42.18582695305571" lon="14.301670834058955"><ele>362.0</ele><time>2026-04-23T14:24:48Z</time></trkpt><trkpt lat="42.18591178882569" lon="14.301803604008892"><ele>361.0</ele><time>2026-04-23T14:24:49Z</time></trkpt><trkpt lat="42.186042648155514" lon="14.301908846717634"><ele>360.0</ele><time>2026-04-23T14:24:50Z</time></trkpt><trkpt lat="42.18617885515608" lon="14.301989202273978"><ele>359.0</ele><time>2026-04-23T14:24:51Z</time></trkpt><trkpt lat="42.186319235435356" lon="14.302083954849547"><ele>359.0</ele><time>2026-04-23T14:24:52Z</time></trkpt><trkpt lat="42.18645854270809" lon="14.302188463958121"><ele>359.0</ele><time>2026-04-23T14:24:53Z</time></trkpt><trkpt lat="42.186600923859565" lon="14.302300587690896"><ele>359.0</ele><time>2026-04-23T14:24:54Z</time></trkpt><trkpt lat="42.18673528975035" lon="14.302431178274835"><ele>357.0</ele><time>2026-04-23T14:24:55Z</time></trkpt><trkpt lat="42.18684871254366" lon="14.302610950831143"><ele>355.0</ele><time>2026-04-23T14:24:56Z</time></trkpt><trkpt lat="42.18696922960637" lon="14.302785625971216"><ele>353.0</ele><time>2026-04-23T14:24:57Z</time></trkpt><trkpt lat="42.18709809308585" lon="14.30295083071749"><ele>352.0</ele><time>2026-04-23T14:24:58Z</time></trkpt><trkpt lat="42.187217290555054" lon="14.30313128123829"><ele>351.0</ele><time>2026-04-23T14:24:59Z</time></trkpt><trkpt lat="42.187346099422044" lon="14.303314127251019"><ele>350.0</ele><time>2026-04-23T14:25:00Z</time></trkpt><trkpt lat="42.18747685479515" lon="14.303502223797127"><ele>349.6666666666667</ele><time>2026-04-23T14:25:01Z</time></trkpt><trkpt lat="42.18760922769596" lon="14.303697469198955"><ele>349.3333333333333</ele><time>2026-04-23T14:25:02Z</time></trkpt><trkpt lat="42.18774195988204" lon="14.303887697048095"><ele>349.0</ele><time>2026-04-23T14:25:03Z</time></trkpt><trkpt lat="42.187876212954635" lon="14.304075413170038"><ele>348.3333333333333</ele><time>2026-04-23T14:25:04Z</time></trkpt><trkpt lat="42.18801344723525" lon="14.304265584764924"><ele>347.6666666666667</ele><time>2026-04-23T14:25:05Z</time></trkpt><trkpt lat="42.18815333319666" lon="14.304465062843567"><ele>347.0</ele><time>2026-04-23T14:25:06Z</time></trkpt><trkpt lat="42.18829218738139" lon="14.304654280103952"><ele>346.0</ele><time>2026-04-23T14:25:07Z</time></trkpt><trkpt lat="42.18843409581616" lon="14.304861117780597"><ele>345.0</ele><time>2026-04-23T14:25:08Z</time></trkpt><trkpt lat="42.18857509461483" lon="14.305054156899436"><ele>344.0</ele><time>2026-04-23T14:25:09Z</time></trkpt><trkpt lat="42.188719498266" lon="14.305257361784268"><ele>344.0</ele><time>2026-04-23T14:25:10Z</time></trkpt><trkpt lat="42.18886208913904" lon="14.305461592297078"><ele>344.0</ele><time>2026-04-23T14:25:11Z</time></trkpt><trkpt lat="42.18900537400479" lon="14.305665968349096"><ele>344.0</ele><time>2026-04-23T14:25:12Z</time></trkpt><trkpt lat="42.18913065312877" lon="14.30589407558204"><ele>342.0</ele><time>2026-04-23T14:25:13Z</time></trkpt><trkpt lat="42.18926002123287" lon="14.306122328661381"><ele>340.0</ele><time>2026-04-23T14:25:14Z</time></trkpt><trkpt lat="42.18938014947481" lon="14.306357028123873"><ele>338.0</ele><time>2026-04-23T14:25:15Z</time></trkpt><trkpt lat="42.18951046550527" lon="14.306589934960414"><ele>337.0</ele><time>2026-04-23T14:25:16Z</time></trkpt><trkpt lat="42.18962542304983" lon="14.306831140865011"><ele>336.0</ele><time>2026-04-23T14:25:17Z</time></trkpt><trkpt lat="42.189738374248314" lon="14.307064327351904"><ele>335.0</ele><time>2026-04-23T14:25:18Z</time></trkpt><trkpt lat="42.18984604500822" lon="14.307279063165879"><ele>334.0</ele><time>2026-04-23T14:25:19Z</time></trkpt><trkpt lat="42.18994820680299" lon="14.307480922599376"><ele>333.0</ele><time>2026-04-23T14:25:20Z</time></trkpt><trkpt lat="42.190039673427236" lon="14.307671526989038"><ele>332.0</ele><time>2026-04-23T14:25:21Z</time></trkpt><trkpt lat="42.190110341559006" lon="14.30786146011074"><ele>332.0</ele><time>2026-04-23T14:25:22Z</time></trkpt><trkpt lat="42.190151467837715" lon="14.308060901598095"><ele>332.0</ele><time>2026-04-23T14:25:23Z</time></trkpt><trkpt lat="42.19013784575466" lon="14.308257190416716"><ele>332.0</ele><time>2026-04-23T14:25:24Z</time></trkpt><trkpt lat="42.19011476292148" lon="14.308462801752"><ele>332.33333333333337</ele><time>2026-04-23T14:25:25Z</time></trkpt><trkpt lat="42.19010070777247" lon="14.308677464093032"><ele>332.6666666666667</ele><time>2026-04-23T14:25:26Z</time></trkpt><trkpt lat="42.19006861200924" lon="14.308914633887856"><ele>333.0</ele><time>2026-04-23T14:25:27Z</time></trkpt><trkpt lat="42.19004526559681" lon="14.309146737171732"><ele>331.6666666666667</ele><time>2026-04-23T14:25:28Z</time></trkpt><trkpt lat="42.19000321720976" lon="14.309358616962019"><ele>330.33333333333337</ele><time>2026-04-23T14:25:29Z</time></trkpt><trkpt lat="42.189991834961674" lon="14.309565714850752"><ele>329.0</ele><time>2026-04-23T14:25:30Z</time></trkpt><trkpt lat="42.18997118873896" lon="14.309759459872636"><ele>328.2</ele><time>2026-04-23T14:25:31Z</time></trkpt><trkpt lat="42.189935805422955" lon="14.30993132628596"><ele>327.4</ele><time>2026-04-23T14:25:32Z</time></trkpt><trkpt lat="42.189914850512544" lon="14.310079766889107"><ele>326.6</ele><time>2026-04-23T14:25:33Z</time></trkpt><trkpt lat="42.189885292745814" lon="14.310209480250926"><ele>325.8</ele><time>2026-04-23T14:25:34Z</time></trkpt><trkpt lat="42.18980058461595" lon="14.310289660767255"><ele>325.0</ele><time>2026-04-23T14:25:35Z</time></trkpt><trkpt lat="42.189697638837686" lon="14.310314119383023"><ele>324.25</ele><time>2026-04-23T14:25:36Z</time></trkpt><trkpt lat="42.189594587468676" lon="14.310274907159679"><ele>323.5</ele><time>2026-04-23T14:25:37Z</time></trkpt><trkpt lat="42.1894996275113" lon="14.310173991317422"><ele>322.75</ele><time>2026-04-23T14:25:38Z</time></trkpt><trkpt lat="42.189449354844456" lon="14.31001013948986"><ele>322.0</ele><time>2026-04-23T14:25:39Z</time></trkpt><trkpt lat="42.18937310402567" lon="14.309851904728966"><ele>323.0</ele><time>2026-04-23T14:25:40Z</time></trkpt><trkpt lat="42.189307144412005" lon="14.309672565507602"><ele>324.0</ele><time>2026-04-23T14:25:41Z</time></trkpt><trkpt lat="42.18922551914177" lon="14.309507756161324"><ele>325.0</ele><time>2026-04-23T14:25:42Z</time></trkpt><trkpt lat="42.18912929366549" lon="14.309352354821431"><ele>326.0</ele><time>2026-04-23T14:25:43Z</time></trkpt><trkpt lat="42.18903571981578" lon="14.309220658396914"><ele>325.5</ele><time>2026-04-23T14:25:44Z</time></trkpt><trkpt lat="42.188941280940924" lon="14.309110050265247"><ele>325.0</ele><time>2026-04-23T14:25:45Z</time></trkpt><trkpt lat="42.1888372823218" lon="14.309043634293616"><ele>324.5</ele><time>2026-04-23T14:25:46Z</time></trkpt><trkpt lat="42.18872613066664" lon="14.309041788641201"><ele>324.0</ele><time>2026-04-23T14:25:47Z</time></trkpt><trkpt lat="42.18862958637018" lon="14.309106637607266"><ele>324.0</ele><time>2026-04-23T14:25:48Z</time></trkpt><trkpt lat="42.18856031636706" lon="14.30922241637598"><ele>324.0</ele><time>2026-04-23T14:25:49Z</time></trkpt><trkpt lat="42.18850627316245" lon="14.309376648534679"><ele>324.0</ele><time>2026-04-23T14:25:50Z</time></trkpt><trkpt lat="42.18843771816637" lon="14.309546588551111"><ele>324.0</ele><time>2026-04-23T14:25:51Z</time></trkpt><trkpt lat="42.188330229336614" lon="14.309697898352294"><ele>323.3333333333333</ele><time>2026-04-23T14:25:52Z</time></trkpt><trkpt lat="42.18822573331047" lon="14.309846253334948"><ele>322.66666666666663</ele><time>2026-04-23T14:25:53Z</time></trkpt><trkpt lat="42.18811250238966" lon="14.309998731278005"><ele>322.0</ele><time>2026-04-23T14:25:54Z</time></trkpt><trkpt lat="42.188004279256646" lon="14.31016921541452"><ele>322.0</ele><time>2026-04-23T14:25:55Z</time></trkpt><trkpt lat="42.18787438931683" lon="14.31033169317338"><ele>322.0</ele><time>2026-04-23T14:25:56Z</time></trkpt><trkpt lat="42.18774342018744" lon="14.310494452088216"><ele>322.0</ele><time>2026-04-23T14:25:57Z</time></trkpt><trkpt lat="42.18761137365081" lon="14.310651524914165"><ele>319.0</ele><time>2026-04-23T14:25:58Z</time></trkpt><trkpt lat="42.18746405948384" lon="14.310803236903821"><ele>316.0</ele><time>2026-04-23T14:25:59Z</time></trkpt><trkpt lat="42.187316201731164" lon="14.31094168643104"><ele>313.0</ele><time>2026-04-23T14:26:00Z</time></trkpt><trkpt lat="42.187163843014105" lon="14.311081998957638"><ele>312.0</ele><time>2026-04-23T14:26:01Z</time></trkpt><trkpt lat="42.1870246053571" lon="14.311212913942965"><ele>311.0</ele><time>2026-04-23T14:26:02Z</time></trkpt><trkpt lat="42.18688508056622" lon="14.311343013984999"><ele>310.0</ele><time>2026-04-23T14:26:03Z</time></trkpt><trkpt lat="42.18675851202518" lon="14.311468880435028"><ele>309.0</ele><time>2026-04-23T14:26:04Z</time></trkpt><trkpt lat="42.18662886576693" lon="14.31156331943586"><ele>308.0</ele><time>2026-04-23T14:26:05Z</time></trkpt><trkpt lat="42.18652730560575" lon="14.31164398503647"><ele>307.0</ele><time>2026-04-23T14:26:06Z</time></trkpt><trkpt lat="42.18641901554305" lon="14.311714888702967"><ele>306.0</ele><time>2026-04-23T14:26:07Z</time></trkpt><trkpt lat="42.186297747856834" lon="14.311717267047973"><ele>306.0</ele><time>2026-04-23T14:26:08Z</time></trkpt><trkpt lat="42.18618212270917" lon="14.31166956791025"><ele>306.0</ele><time>2026-04-23T14:26:09Z</time></trkpt><trkpt lat="42.18607419552471" lon="14.311571849687768"><ele>306.0</ele><time>2026-04-23T14:26:10Z</time></trkpt><trkpt lat="42.18599871497724" lon="14.311414750956475"><ele>306.0</ele><time>2026-04-23T14:26:11Z</time></trkpt><trkpt lat="42.185913833399376" lon="14.311263437168975"><ele>306.0</ele><time>2026-04-23T14:26:12Z</time></trkpt><trkpt lat="42.1858385602677" lon="14.311102984929747"><ele>306.0</ele><time>2026-04-23T14:26:13Z</time></trkpt><trkpt lat="42.18573776471304" lon="14.310971526987322"><ele>306.0</ele><time>2026-04-23T14:26:14Z</time></trkpt><trkpt lat="42.185612427072996" lon="14.31086904060732"><ele>306.0</ele><time>2026-04-23T14:26:15Z</time></trkpt><trkpt lat="42.18547135747571" lon="14.310767441800065"><ele>305.0</ele><time>2026-04-23T14:26:16Z</time></trkpt><trkpt lat="42.18533055876105" lon="14.310660591268373"><ele>304.0</ele><time>2026-04-23T14:26:17Z</time></trkpt><trkpt lat="42.185192907743215" lon="14.310549334134988"><ele>303.0</ele><time>2026-04-23T14:26:18Z</time></trkpt><trkpt lat="42.18506544663853" lon="14.310446073509713"><ele>303.0</ele><time>2026-04-23T14:26:19Z</time></trkpt><trkpt lat="42.18494724840333" lon="14.31034823347722"><ele>303.0</ele><time>2026-04-23T14:26:20Z</time></trkpt><trkpt lat="42.184835380787256" lon="14.31027125236913"><ele>303.0</ele><time>2026-04-23T14:26:21Z</time></trkpt><trkpt lat="42.184723355539035" lon="14.310238999978724"><ele>303.0</ele><time>2026-04-23T14:26:22Z</time></trkpt><trkpt lat="42.18461157092172" lon="14.310262134475543"><ele>301.5</ele><time>2026-04-23T14:26:23Z</time></trkpt><trkpt lat="42.1845104834086" lon="14.31034428279488"><ele>300.0</ele><time>2026-04-23T14:26:24Z</time></trkpt><trkpt lat="42.184418461527265" lon="14.310476897873295"><ele>298.5</ele><time>2026-04-23T14:26:25Z</time></trkpt><trkpt lat="42.18434690345116" lon="14.310638676832387"><ele>297.0</ele><time>2026-04-23T14:26:26Z</time></trkpt><trkpt lat="42.184304848166555" lon="14.310822980824112"><ele>297.0</ele><time>2026-04-23T14:26:27Z</time></trkpt><trkpt lat="42.184279828449235" lon="14.311030770364438"><ele>297.0</ele><time>2026-04-23T14:26:28Z</time></trkpt><trkpt lat="42.184270766538596" lon="14.311257689723213"><ele>297.0</ele><time>2026-04-23T14:26:29Z</time></trkpt><trkpt lat="42.18426720419264" lon="14.311490672529674"><ele>297.0</ele><time>2026-04-23T14:26:30Z</time></trkpt><trkpt lat="42.18423813826249" lon="14.311724316672777"><ele>297.0</ele><time>2026-04-23T14:26:31Z</time></trkpt><trkpt lat="42.18422163603614" lon="14.311956800631847"><ele>297.0</ele><time>2026-04-23T14:26:32Z</time></trkpt><trkpt lat="42.18420374509078" lon="14.312189305481308"><ele>296.0</ele><time>2026-04-23T14:26:33Z</time></trkpt><trkpt lat="42.18419757669677" lon="14.312430583443298"><ele>295.0</ele><time>2026-04-23T14:26:34Z</time></trkpt><trkpt lat="42.18414092018618" lon="14.312663922783848"><ele>294.0</ele><time>2026-04-23T14:26:35Z</time></trkpt><trkpt lat="42.18408067123993" lon="14.312907888468207"><ele>292.6666666666667</ele><time>2026-04-23T14:26:36Z</time></trkpt><trkpt lat="42.184034280654465" lon="14.31316173155836"><ele>291.33333333333337</ele><time>2026-04-23T14:26:37Z</time></trkpt><trkpt lat="42.18397957226502" lon="14.31341130625185"><ele>290.0</ele><time>2026-04-23T14:26:38Z</time></trkpt><trkpt lat="42.18393765986123" lon="14.31367417286729"><ele>286.0</ele><time>2026-04-23T14:26:39Z</time></trkpt><trkpt lat="42.18390888870315" lon="14.313939635513194"><ele>282.0</ele><time>2026-04-23T14:26:40Z</time></trkpt><trkpt lat="42.18389359754899" lon="14.314202685681726"><ele>278.0</ele><time>2026-04-23T14:26:41Z</time></trkpt><trkpt lat="42.18389530889797" lon="14.314463126665292"><ele>278.0</ele><time>2026-04-23T14:26:42Z</time></trkpt><trkpt lat="42.183913601285774" lon="14.314721274946258"><ele>278.0</ele><time>2026-04-23T14:26:43Z</time></trkpt><trkpt lat="42.183941719280824" lon="14.314984086148916"><ele>278.0</ele><time>2026-04-23T14:26:44Z</time></trkpt><trkpt lat="42.183977717214894" lon="14.315238025572226"><ele>281.0</ele><time>2026-04-23T14:26:45Z</time></trkpt><trkpt lat="42.18401992342559" lon="14.315479437078835"><ele>284.0</ele><time>2026-04-23T14:26:46Z</time></trkpt><trkpt lat="42.184048640542684" lon="14.315724764963454"><ele>287.0</ele><time>2026-04-23T14:26:47Z</time></trkpt><trkpt lat="42.18409558822913" lon="14.315961720229856"><ele>287.33333333333337</ele><time>2026-04-23T14:26:48Z</time></trkpt><trkpt lat="42.184183657725306" lon="14.316180137455138"><ele>287.6666666666667</ele><time>2026-04-23T14:26:49Z</time></trkpt><trkpt lat="42.184250919132204" lon="14.316403002812162"><ele>288.0</ele><time>2026-04-23T14:26:50Z</time></trkpt><trkpt lat="42.18432711461533" lon="14.316628821019291"><ele>288.6666666666667</ele><time>2026-04-23T14:26:51Z</time></trkpt><trkpt lat="42.18441394501603" lon="14.316849204415528"><ele>289.33333333333337</ele><time>2026-04-23T14:26:52Z</time></trkpt><trkpt lat="42.18448719506335" lon="14.317074328569113"><ele>290.0</ele><time>2026-04-23T14:26:52.999Z</time></trkpt><trkpt lat="42.184577674332" lon="14.317293354010575"><ele>290.0</ele><time>2026-04-23T14:26:53.999Z</time></trkpt><trkpt lat="42.184672220792656" lon="14.31751256335235"><ele>290.0</ele><time>2026-04-23T14:26:54.999Z</time></trkpt><trkpt lat="42.184781060064985" lon="14.317725139588942"><ele>290.0</ele><time>2026-04-23T14:26:55.999Z</time></trkpt><trkpt lat="42.18487481549522" lon="14.317955963618404"><ele>289.0</ele><time>2026-04-23T14:26:56.999Z</time></trkpt><trkpt lat="42.18497175856296" lon="14.318190779039291"><ele>288.0</ele><time>2026-04-23T14:26:57.999Z</time></trkpt><trkpt lat="42.18506639895082" lon="14.318423036123088"><ele>287.0</ele><time>2026-04-23T14:26:58.999Z</time></trkpt><trkpt lat="42.18516147356276" lon="14.31866649884121"><ele>287.6666666666667</ele><time>2026-04-23T14:26:59.999Z</time></trkpt><trkpt lat="42.18525944456205" lon="14.318906214148944"><ele>288.3333333333333</ele><time>2026-04-23T14:27:00.999Z</time></trkpt><trkpt lat="42.18535609465921" lon="14.319142405439132"><ele>289.0</ele><time>2026-04-23T14:27:01.999Z</time></trkpt><trkpt lat="42.18544619389028" lon="14.319383542627754"><ele>289.0</ele><time>2026-04-23T14:27:02.999Z</time></trkpt><trkpt lat="42.185528097901255" lon="14.319632665041786"><ele>289.0</ele><time>2026-04-23T14:27:03.999Z</time></trkpt><trkpt lat="42.18560953410449" lon="14.319879892823334"><ele>289.0</ele><time>2026-04-23T14:27:04.999Z</time></trkpt><trkpt lat="42.18568793452079" lon="14.320118407938772"><ele>289.3333333333333</ele><time>2026-04-23T14:27:05.999Z</time></trkpt><trkpt lat="42.18576724462475" lon="14.320354841186868"><ele>289.6666666666667</ele><time>2026-04-23T14:27:06.999Z</time></trkpt><trkpt lat="42.18583679425472" lon="14.32057447055219"><ele>290.0</ele><time>2026-04-23T14:27:07.999Z</time></trkpt><trkpt lat="42.18590469547972" lon="14.320788907608144"><ele>291.33333333333337</ele><time>2026-04-23T14:27:08.999Z</time></trkpt><trkpt lat="42.18597783240938" lon="14.32098102364138"><ele>292.6666666666667</ele><time>2026-04-23T14:27:09.999Z</time></trkpt><trkpt lat="42.18607004930451" lon="14.32113850174457"><ele>294.0</ele><time>2026-04-23T14:27:10.999Z</time></trkpt><trkpt lat="42.1861898017781" lon="14.321257948945684"><ele>294.0</ele><time>2026-04-23T14:27:11.999Z</time></trkpt><trkpt lat="42.186329126411344" lon="14.321344231720397"><ele>294.0</ele><time>2026-04-23T14:27:12.999Z</time></trkpt><trkpt lat="42.18647914735736" lon="14.321413009228056"><ele>294.0</ele><time>2026-04-23T14:27:13.999Z</time></trkpt><trkpt lat="42.186627936835976" lon="14.321496127549079"><ele>295.0</ele><time>2026-04-23T14:27:14.999Z</time></trkpt><trkpt lat="42.18676484930533" lon="14.32161912204135"><ele>296.0</ele><time>2026-04-23T14:27:15.999Z</time></trkpt><trkpt lat="42.186886566674566" lon="14.321800373870607"><ele>297.0</ele><time>2026-04-23T14:27:16.999Z</time></trkpt><trkpt lat="42.18700991489003" lon="14.321966786929714"><ele>297.0</ele><time>2026-04-23T14:27:17.999Z</time></trkpt><trkpt lat="42.18713724342447" lon="14.322133293458984"><ele>297.0</ele><time>2026-04-23T14:27:18.999Z</time></trkpt><trkpt lat="42.187266479606556" lon="14.32229269319216"><ele>297.0</ele><time>2026-04-23T14:27:19.999Z</time></trkpt><trkpt lat="42.18740565253206" lon="14.322417570648906"><ele>298.0</ele><time>2026-04-23T14:27:20.999Z</time></trkpt><trkpt lat="42.18755357755308" lon="14.322502150745672"><ele>299.0</ele><time>2026-04-23T14:27:21.999Z</time></trkpt><trkpt lat="42.18769845522623" lon="14.3225337184995"><ele>300.0</ele><time>2026-04-23T14:27:22.999Z</time></trkpt><trkpt lat="42.18782963699765" lon="14.322548606644665"><ele>301.0</ele><time>2026-04-23T14:27:23.999Z</time></trkpt><trkpt lat="42.18794082305517" lon="14.322592790983204"><ele>301.0</ele><time>2026-04-23T14:27:24.999Z</time></trkpt><trkpt lat="42.18804148153542" lon="14.322688419114167"><ele>301.0</ele><time>2026-04-23T14:27:25.999Z</time></trkpt><trkpt lat="42.1881378643937" lon="14.322826448945735"><ele>301.0</ele><time>2026-04-23T14:27:26.999Z</time></trkpt><trkpt lat="42.18821919696347" lon="14.322986302865193"><ele>301.0</ele><time>2026-04-23T14:27:27.999Z</time></trkpt><trkpt lat="42.188302775558405" lon="14.32317084773458"><ele>300.66666666666663</ele><time>2026-04-23T14:27:28.999Z</time></trkpt><trkpt lat="42.188384701802235" lon="14.323359486768915"><ele>300.3333333333333</ele><time>2026-04-23T14:27:29.999Z</time></trkpt><trkpt lat="42.188471542006916" lon="14.323551629936887"><ele>300.0</ele><time>2026-04-23T14:27:30.999Z</time></trkpt><trkpt lat="42.18856550974349" lon="14.323749126865545"><ele>300.0</ele><time>2026-04-23T14:27:31.999Z</time></trkpt><trkpt lat="42.18866259038142" lon="14.323952298795492"><ele>300.0</ele><time>2026-04-23T14:27:32.999Z</time></trkpt><trkpt lat="42.18875323198659" lon="14.324139808080922"><ele>300.0</ele><time>2026-04-23T14:27:33.999Z</time></trkpt><trkpt lat="42.18884144366825" lon="14.324319374426045"><ele>300.0</ele><time>2026-04-23T14:27:34.999Z</time></trkpt><trkpt lat="42.18892194289542" lon="14.324482007085722"><ele>300.0</ele><time>2026-04-23T14:27:35.999Z</time></trkpt><trkpt lat="42.188978078132244" lon="14.324640505058518"><ele>300.0</ele><time>2026-04-23T14:27:36.999Z</time></trkpt><trkpt lat="42.189037517061585" lon="14.324766424301309"><ele>300.0</ele><time>2026-04-23T14:27:37.999Z</time></trkpt><trkpt lat="42.189088747026645" lon="14.324874953202352"><ele>298.6666666666667</ele><time>2026-04-23T14:27:38.999Z</time></trkpt><trkpt lat="42.18914792054287" lon="14.324958255587685"><ele>297.3333333333333</ele><time>2026-04-23T14:27:39.999Z</time></trkpt><trkpt lat="42.18917375264357" lon="14.325053597287942"><ele>296.0</ele><time>2026-04-23T14:27:40.999Z</time></trkpt><trkpt lat="42.1892319174665" lon="14.325175110730374"><ele>294.66666666666663</ele><time>2026-04-23T14:27:42.999Z</time></trkpt><trkpt lat="42.189278459081066" lon="14.325272341751074"><ele>293.3333333333333</ele><time>2026-04-23T14:27:44.999Z</time></trkpt><trkpt lat="42.18932563424513" lon="14.32537089668573"><ele>292.0</ele><time>2026-04-23T14:27:47.999Z</time></trkpt><trkpt lat="42.189363877855534" lon="14.325449182715872"><ele>292.0</ele><time>2026-04-23T14:27:50.999Z</time></trkpt><trkpt lat="42.189403800859495" lon="14.325530468134318"><ele>292.0</ele><time>2026-04-23T14:27:55.999Z</time></trkpt><trkpt lat="42.189459467417265" lon="14.325601759287194"><ele>292.0</ele><time>2026-04-23T14:28:03.999Z</time></trkpt><trkpt lat="42.18952516075527" lon="14.325767544699264"><ele>292.0</ele><time>2026-04-23T14:28:05.999Z</time></trkpt><trkpt lat="42.18957202834171" lon="14.325853946016679"><ele>292.0</ele><time>2026-04-23T14:28:06.999Z</time></trkpt><trkpt lat="42.18961892630508" lon="14.325956576175056"><ele>291.4</ele><time>2026-04-23T14:28:07.999Z</time></trkpt><trkpt lat="42.189741856683696" lon="14.325997133247087"><ele>290.79999999999995</ele><time>2026-04-23T14:28:08.999Z</time></trkpt><trkpt lat="42.189843214220964" lon="14.326023859244858"><ele>290.2</ele><time>2026-04-23T14:28:09.999Z</time></trkpt><trkpt lat="42.18993620173777" lon="14.326026150077464"><ele>289.59999999999997</ele><time>2026-04-23T14:28:10.999Z</time></trkpt><trkpt lat="42.190022772492966" lon="14.326042349288615"><ele>289.0</ele><time>2026-04-23T14:28:11.999Z</time></trkpt><trkpt lat="42.19013051220958" lon="14.326075120622237"><ele>288.75</ele><time>2026-04-23T14:28:12.999Z</time></trkpt><trkpt lat="42.19025838415286" lon="14.326054247508495"><ele>288.5</ele><time>2026-04-23T14:28:13.999Z</time></trkpt><trkpt lat="42.19039457690693" lon="14.32605650371264"><ele>288.25</ele><time>2026-04-23T14:28:14.999Z</time></trkpt><trkpt lat="42.19052679016836" lon="14.326063871085342"><ele>288.0</ele><time>2026-04-23T14:28:15.999Z</time></trkpt><trkpt lat="42.19066455562722" lon="14.326071894786894"><ele>288.75</ele><time>2026-04-23T14:28:16.999Z</time></trkpt><trkpt lat="42.19080740606581" lon="14.326084361037369"><ele>289.5</ele><time>2026-04-23T14:28:17.999Z</time></trkpt><trkpt lat="42.190957650254525" lon="14.326093210091008"><ele>290.25</ele><time>2026-04-23T14:28:18.999Z</time></trkpt><trkpt lat="42.191109504571806" lon="14.326095187775353"><ele>291.0</ele><time>2026-04-23T14:28:19.999Z</time></trkpt><trkpt lat="42.19126362788606" lon="14.32609987482349"><ele>291.0</ele><time>2026-04-23T14:28:20.999Z</time></trkpt><trkpt lat="42.191416841334195" lon="14.326106743762903"><ele>291.0</ele><time>2026-04-23T14:28:21.999Z</time></trkpt><trkpt lat="42.19157200968751" lon="14.326113749139187"><ele>291.0</ele><time>2026-04-23T14:28:22.999Z</time></trkpt><trkpt lat="42.19172660701183" lon="14.326135790648388"><ele>291.6666666666667</ele><time>2026-04-23T14:28:23.999Z</time></trkpt><trkpt lat="42.19187512559389" lon="14.326187142290788"><ele>292.33333333333337</ele><time>2026-04-23T14:28:24.999Z</time></trkpt><trkpt lat="42.19201818958653" lon="14.326264800137963"><ele>293.0</ele><time>2026-04-23T14:28:25.999Z</time></trkpt><trkpt lat="42.192150679913375" lon="14.326366480877963"><ele>292.33333333333337</ele><time>2026-04-23T14:28:26.999Z</time></trkpt><trkpt lat="42.19227682938988" lon="14.326486494585499"><ele>291.6666666666667</ele><time>2026-04-23T14:28:27.999Z</time></trkpt><trkpt lat="42.19240108936008" lon="14.326611844536913"><ele>291.0</ele><time>2026-04-23T14:28:28.999Z</time></trkpt><trkpt lat="42.19252969638708" lon="14.326731638078048"><ele>291.0</ele><time>2026-04-23T14:28:29.999Z</time></trkpt><trkpt lat="42.19266086412159" lon="14.326852886093182"><ele>291.0</ele><time>2026-04-23T14:28:30.999Z</time></trkpt><trkpt lat="42.19279358859218" lon="14.326982439687525"><ele>291.0</ele><time>2026-04-23T14:28:31.999Z</time></trkpt><trkpt lat="42.19292856300713" lon="14.327119434926976"><ele>290.0</ele><time>2026-04-23T14:28:32.999Z</time></trkpt><trkpt lat="42.19306647486631" lon="14.327264372674044"><ele>289.0</ele><time>2026-04-23T14:28:33.999Z</time></trkpt><trkpt lat="42.19320317180681" lon="14.327423864458478"><ele>288.0</ele><time>2026-04-23T14:28:34.999Z</time></trkpt><trkpt lat="42.193335268478656" lon="14.327603321050637"><ele>288.0</ele><time>2026-04-23T14:28:35.999Z</time></trkpt><trkpt lat="42.19346693321706" lon="14.327778470112452"><ele>288.0</ele><time>2026-04-23T14:28:37Z</time></trkpt><trkpt lat="42.1936028585868" lon="14.327954666508166"><ele>288.0</ele><time>2026-04-23T14:28:38Z</time></trkpt><trkpt lat="42.193737881896965" lon="14.32812465123322"><ele>287.0</ele><time>2026-04-23T14:28:39Z</time></trkpt><trkpt lat="42.193870487756826" lon="14.328290548740005"><ele>286.0</ele><time>2026-04-23T14:28:40Z</time></trkpt><trkpt lat="42.19400052940809" lon="14.328443213768283"><ele>285.0</ele><time>2026-04-23T14:28:41Z</time></trkpt><trkpt lat="42.19412444288753" lon="14.328627966032498"><ele>285.0</ele><time>2026-04-23T14:28:42Z</time></trkpt><trkpt lat="42.19424516482817" lon="14.328771479755405"><ele>285.0</ele><time>2026-04-23T14:28:43Z</time></trkpt><trkpt lat="42.194382006337555" lon="14.328866500329756"><ele>285.0</ele><time>2026-04-23T14:28:44Z</time></trkpt><trkpt lat="42.19453156801785" lon="14.328898097367189"><ele>285.0</ele><time>2026-04-23T14:28:45Z</time></trkpt><trkpt lat="42.19469044543028" lon="14.328881698270521"><ele>285.0</ele><time>2026-04-23T14:28:46Z</time></trkpt><trkpt lat="42.19486284967304" lon="14.32884898396309"><ele>285.0</ele><time>2026-04-23T14:28:47Z</time></trkpt><trkpt lat="42.195033989061876" lon="14.32883107850062"><ele>281.6666666666667</ele><time>2026-04-23T14:28:48Z</time></trkpt><trkpt lat="42.19519640064908" lon="14.328893522854486"><ele>278.33333333333337</ele><time>2026-04-23T14:28:49Z</time></trkpt><trkpt lat="42.19535269682947" lon="14.328966490812665"><ele>275.0</ele><time>2026-04-23T14:28:50Z</time></trkpt><trkpt lat="42.195506859005455" lon="14.329060550293244"><ele>275.0</ele><time>2026-04-23T14:28:51Z</time></trkpt><trkpt lat="42.19565680107278" lon="14.329168186281175"><ele>275.0</ele><time>2026-04-23T14:28:52Z</time></trkpt><trkpt lat="42.19581391959543" lon="14.329279220727399"><ele>275.0</ele><time>2026-04-23T14:28:53Z</time></trkpt><trkpt lat="42.19595922378639" lon="14.329407734251724"><ele>274.6666666666667</ele><time>2026-04-23T14:28:54Z</time></trkpt><trkpt lat="42.196098529365365" lon="14.329523309573068"><ele>274.3333333333333</ele><time>2026-04-23T14:28:55Z</time></trkpt><trkpt lat="42.19623709971991" lon="14.329615986445928"><ele>274.0</ele><time>2026-04-23T14:28:56Z</time></trkpt><trkpt lat="42.19637596293023" lon="14.329676295140061"><ele>273.75</ele><time>2026-04-23T14:28:57Z</time></trkpt><trkpt lat="42.196513035361825" lon="14.329694504354014"><ele>273.5</ele><time>2026-04-23T14:28:58Z</time></trkpt><trkpt lat="42.19666054172122" lon="14.3296777515273"><ele>273.25</ele><time>2026-04-23T14:28:59Z</time></trkpt><trkpt lat="42.19682043834688" lon="14.32964922052154"><ele>273.0</ele><time>2026-04-23T14:29:00Z</time></trkpt><trkpt lat="42.1969877323459" lon="14.329652158579485"><ele>273.0</ele><time>2026-04-23T14:29:01Z</time></trkpt><trkpt lat="42.19715160053404" lon="14.329628318961955"><ele>273.0</ele><time>2026-04-23T14:29:02Z</time></trkpt><trkpt lat="42.19730514255553" lon="14.329628139142681"><ele>273.0</ele><time>2026-04-23T14:29:03Z</time></trkpt><trkpt lat="42.1974461725988" lon="14.329614970281371"><ele>271.25</ele><time>2026-04-23T14:29:04Z</time></trkpt><trkpt lat="42.19758965254609" lon="14.329587893936738"><ele>269.5</ele><time>2026-04-23T14:29:05Z</time></trkpt><trkpt lat="42.19773242481017" lon="14.329545560311693"><ele>267.75</ele><time>2026-04-23T14:29:06Z</time></trkpt><trkpt lat="42.19786975726187" lon="14.32950530956436"><ele>266.0</ele><time>2026-04-23T14:29:07Z</time></trkpt><trkpt lat="42.19800235714519" lon="14.329508655962403"><ele>266.0</ele><time>2026-04-23T14:29:08Z</time></trkpt><trkpt lat="42.19810113449206" lon="14.329615703244139"><ele>266.0</ele><time>2026-04-23T14:29:09Z</time></trkpt><trkpt lat="42.19819664886109" lon="14.329717820307398"><ele>266.0</ele><time>2026-04-23T14:29:10Z</time></trkpt><trkpt lat="42.19830724085466" lon="14.32982397047764"><ele>266.0</ele><time>2026-04-23T14:29:11Z</time></trkpt><trkpt lat="42.19843766041265" lon="14.329919669426264"><ele>264.33333333333337</ele><time>2026-04-23T14:29:12Z</time></trkpt><trkpt lat="42.19857497966924" lon="14.330025473578644"><ele>262.6666666666667</ele><time>2026-04-23T14:29:13Z</time></trkpt><trkpt lat="42.198719580463454" lon="14.33012612274766"><ele>261.0</ele><time>2026-04-23T14:29:14Z</time></trkpt><trkpt lat="42.19886344243694" lon="14.330241725944603"><ele>261.0</ele><time>2026-04-23T14:29:15Z</time></trkpt><trkpt lat="42.19899953663704" lon="14.330382510034747"><ele>261.0</ele><time>2026-04-23T14:29:16Z</time></trkpt><trkpt lat="42.19909906003366" lon="14.330570761213941"><ele>261.0</ele><time>2026-04-23T14:29:17Z</time></trkpt><trkpt lat="42.199215977619126" lon="14.330739687160943"><ele>262.3333333333333</ele><time>2026-04-23T14:29:18Z</time></trkpt><trkpt lat="42.19932823457266" lon="14.33091138033136"><ele>263.66666666666663</ele><time>2026-04-23T14:29:19Z</time></trkpt><trkpt lat="42.19945896899233" lon="14.331053777823609"><ele>265.0</ele><time>2026-04-23T14:29:20Z</time></trkpt><trkpt lat="42.19959540338242" lon="14.33118652600577"><ele>265.0</ele><time>2026-04-23T14:29:21Z</time></trkpt><trkpt lat="42.1996847258424" lon="14.331354452569984"><ele>265.0</ele><time>2026-04-23T14:29:22Z</time></trkpt><trkpt lat="42.199769255120835" lon="14.331542033956005"><ele>265.0</ele><time>2026-04-23T14:29:23Z</time></trkpt><trkpt lat="42.199817588752296" lon="14.331746943956167"><ele>267.5</ele><time>2026-04-23T14:29:24Z</time></trkpt><trkpt lat="42.19986820423961" lon="14.3319167732407"><ele>270.0</ele><time>2026-04-23T14:29:25Z</time></trkpt><trkpt lat="42.199936549440764" lon="14.332045281539877"><ele>272.5</ele><time>2026-04-23T14:29:26Z</time></trkpt><trkpt lat="42.20004158389453" lon="14.332143239054904"><ele>275.0</ele><time>2026-04-23T14:29:27Z</time></trkpt><trkpt lat="42.200169963674604" lon="14.332188943618174"><ele>275.0</ele><time>2026-04-23T14:29:28Z</time></trkpt><trkpt lat="42.20031648786653" lon="14.332178469607783"><ele>275.0</ele><time>2026-04-23T14:29:29Z</time></trkpt><trkpt lat="42.200464763687776" lon="14.332120663141962"><ele>275.0</ele><time>2026-04-23T14:29:30Z</time></trkpt><trkpt lat="42.20061428427155" lon="14.332034334697896"><ele>276.5</ele><time>2026-04-23T14:29:31Z</time></trkpt><trkpt lat="42.200755903374564" lon="14.331937001917717"><ele>278.0</ele><time>2026-04-23T14:29:32Z</time></trkpt><trkpt lat="42.20088191773758" lon="14.331852300802886"><ele>279.5</ele><time>2026-04-23T14:29:33Z</time></trkpt><trkpt lat="42.20099966338118" lon="14.331781944531166"><ele>281.0</ele><time>2026-04-23T14:29:34Z</time></trkpt><trkpt lat="42.20111844860382" lon="14.331731867068745"><ele>281.0</ele><time>2026-04-23T14:29:35Z</time></trkpt><trkpt lat="42.20124358429831" lon="14.331728365355373"><ele>281.0</ele><time>2026-04-23T14:29:36Z</time></trkpt><trkpt lat="42.201366339437094" lon="14.331788970411003"><ele>281.0</ele><time>2026-04-23T14:29:37Z</time></trkpt><trkpt lat="42.20148483903693" lon="14.33189105063983"><ele>281.0</ele><time>2026-04-23T14:29:38Z</time></trkpt><trkpt lat="42.20159979593146" lon="14.332015842015474"><ele>279.6666666666667</ele><time>2026-04-23T14:29:39Z</time></trkpt><trkpt lat="42.201717817521335" lon="14.332137749363813"><ele>278.3333333333333</ele><time>2026-04-23T14:29:40Z</time></trkpt><trkpt lat="42.201852419567935" lon="14.332235514957633"><ele>277.0</ele><time>2026-04-23T14:29:41Z</time></trkpt><trkpt lat="42.20199712950318" lon="14.332312015240241"><ele>279.0</ele><time>2026-04-23T14:29:42Z</time></trkpt><trkpt lat="42.20213539651392" lon="14.33239769774906"><ele>281.0</ele><time>2026-04-23T14:29:43Z</time></trkpt><trkpt lat="42.202251195374764" lon="14.332521616335054"><ele>283.0</ele><time>2026-04-23T14:29:44Z</time></trkpt><trkpt lat="42.20233435699677" lon="14.332686993621245"><ele>285.0</ele><time>2026-04-23T14:29:45Z</time></trkpt><trkpt lat="42.20235486143295" lon="14.332885866347194"><ele>287.3333333333333</ele><time>2026-04-23T14:29:46Z</time></trkpt><trkpt lat="42.20233242187607" lon="14.333076456234568"><ele>289.66666666666663</ele><time>2026-04-23T14:29:47Z</time></trkpt><trkpt lat="42.20230754733437" lon="14.33328619662537"><ele>292.0</ele><time>2026-04-23T14:29:48Z</time></trkpt><trkpt lat="42.20229271490151" lon="14.333504491804874"><ele>292.0</ele><time>2026-04-23T14:29:49Z</time></trkpt><trkpt lat="42.2022677367322" lon="14.333731743222152"><ele>292.0</ele><time>2026-04-23T14:29:50Z</time></trkpt><trkpt lat="42.20226849393282" lon="14.333953446433883"><ele>292.0</ele><time>2026-04-23T14:29:51Z</time></trkpt><trkpt lat="42.2023008417854" lon="14.334346560311628"><ele>291.75</ele><time>2026-04-23T14:29:53Z</time></trkpt><trkpt lat="42.20230563171405" lon="14.334524592992214"><ele>291.5</ele><time>2026-04-23T14:29:54Z</time></trkpt><trkpt lat="42.202282989087315" lon="14.334695136922209"><ele>291.25</ele><time>2026-04-23T14:29:55Z</time></trkpt><trkpt lat="42.20221785639431" lon="14.33484790554665"><ele>291.0</ele><time>2026-04-23T14:29:56Z</time></trkpt><trkpt lat="42.20214188496664" lon="14.334985075729522"><ele>291.75</ele><time>2026-04-23T14:29:57Z</time></trkpt><trkpt lat="42.2021162473408" lon="14.335122863933908"><ele>292.5</ele><time>2026-04-23T14:29:58Z</time></trkpt><trkpt lat="42.20214896080349" lon="14.33527789015605"><ele>293.25</ele><time>2026-04-23T14:29:59Z</time></trkpt><trkpt lat="42.2022231076647" lon="14.335452504302124"><ele>294.0</ele><time>2026-04-23T14:30:00Z</time></trkpt><trkpt lat="42.202310525943986" lon="14.335637048247811"><ele>298.25</ele><time>2026-04-23T14:30:01Z</time></trkpt><trkpt lat="42.20239747248452" lon="14.335805520778955"><ele>302.5</ele><time>2026-04-23T14:30:02Z</time></trkpt><trkpt lat="42.20247234259976" lon="14.335976793511504"><ele>306.75</ele><time>2026-04-23T14:30:03Z</time></trkpt><trkpt lat="42.20249118733136" lon="14.336171660950079"><ele>311.0</ele><time>2026-04-23T14:30:04Z</time></trkpt><trkpt lat="42.202499709098674" lon="14.33636647347911"><ele>312.0</ele><time>2026-04-23T14:30:05Z</time></trkpt><trkpt lat="42.20248331717733" lon="14.336562755821028"><ele>313.0</ele><time>2026-04-23T14:30:06Z</time></trkpt><trkpt lat="42.20243578744839" lon="14.33675416770544"><ele>314.0</ele><time>2026-04-23T14:30:07Z</time></trkpt><trkpt lat="42.2023661232051" lon="14.336930611013049"><ele>315.0</ele><time>2026-04-23T14:30:08Z</time></trkpt><trkpt lat="42.20228226061313" lon="14.337104614841527"><ele>313.6666666666667</ele><time>2026-04-23T14:30:09Z</time></trkpt><trkpt lat="42.202184873876334" lon="14.337279349461493"><ele>312.33333333333337</ele><time>2026-04-23T14:30:10Z</time></trkpt><trkpt lat="42.20207390730711" lon="14.33743998913568"><ele>311.0</ele><time>2026-04-23T14:30:11Z</time></trkpt><trkpt lat="42.201947170601386" lon="14.337601885228947"><ele>311.0</ele><time>2026-04-23T14:30:12Z</time></trkpt><trkpt lat="42.20183350379102" lon="14.337776306514707"><ele>311.0</ele><time>2026-04-23T14:30:13Z</time></trkpt><trkpt lat="42.2017076565765" lon="14.337925166746947"><ele>311.0</ele><time>2026-04-23T14:30:14Z</time></trkpt><trkpt lat="42.20158147715466" lon="14.338076106525252"><ele>310.6666666666667</ele><time>2026-04-23T14:30:15Z</time></trkpt><trkpt lat="42.201459194800805" lon="14.338219804262977"><ele>310.3333333333333</ele><time>2026-04-23T14:30:16Z</time></trkpt><trkpt lat="42.20133567834732" lon="14.338374941661705"><ele>310.0</ele><time>2026-04-23T14:30:17Z</time></trkpt><trkpt lat="42.2012345009191" lon="14.338550976213831"><ele>310.0</ele><time>2026-04-23T14:30:18Z</time></trkpt><trkpt lat="42.201148274813654" lon="14.33874859996709"><ele>310.0</ele><time>2026-04-23T14:30:19Z</time></trkpt><trkpt lat="42.20107389679503" lon="14.33896100579782"><ele>310.0</ele><time>2026-04-23T14:30:20Z</time></trkpt><trkpt lat="42.201013665429606" lon="14.339185159975397"><ele>313.0</ele><time>2026-04-23T14:30:21Z</time></trkpt><trkpt lat="42.200974383537805" lon="14.339413468014902"><ele>316.0</ele><time>2026-04-23T14:30:22Z</time></trkpt><trkpt lat="42.20093290755673" lon="14.339644123604868"><ele>319.0</ele><time>2026-04-23T14:30:23Z</time></trkpt><trkpt lat="42.200860269368704" lon="14.33984862432941"><ele>321.3333333333333</ele><time>2026-04-23T14:30:24Z</time></trkpt><trkpt lat="42.200779858025555" lon="14.340034272271243"><ele>323.6666666666667</ele><time>2026-04-23T14:30:25Z</time></trkpt><trkpt lat="42.200676853240424" lon="14.340197190803346"><ele>326.0</ele><time>2026-04-23T14:30:26Z</time></trkpt><trkpt lat="42.20055690325061" lon="14.340354352397146"><ele>325.6666666666667</ele><time>2026-04-23T14:30:27Z</time></trkpt><trkpt lat="42.20044841007162" lon="14.340522978611427"><ele>325.3333333333333</ele><time>2026-04-23T14:30:28Z</time></trkpt><trkpt lat="42.2003194831602" lon="14.34067398912651"><ele>325.0</ele><time>2026-04-23T14:30:29Z</time></trkpt><trkpt lat="42.200194696543" lon="14.340820663647746"><ele>325.0</ele><time>2026-04-23T14:30:30Z</time></trkpt><trkpt lat="42.20006978583016" lon="14.340958353428967"><ele>325.0</ele><time>2026-04-23T14:30:31Z</time></trkpt><trkpt lat="42.19993922265744" lon="14.341051691252575"><ele>325.0</ele><time>2026-04-23T14:30:32Z</time></trkpt><trkpt lat="42.199823949236546" lon="14.341155440698282"><ele>325.0</ele><time>2026-04-23T14:30:33Z</time></trkpt><trkpt lat="42.199705760604665" lon="14.341214572463132"><ele>322.75</ele><time>2026-04-23T14:30:34Z</time></trkpt><trkpt lat="42.19960021073158" lon="14.341285272979428"><ele>320.5</ele><time>2026-04-23T14:30:35Z</time></trkpt><trkpt lat="42.19952352380628" lon="14.341396456468653"><ele>318.25</ele><time>2026-04-23T14:30:36Z</time></trkpt><trkpt lat="42.199481694646025" lon="14.341541887245713"><ele>316.0</ele><time>2026-04-23T14:30:37Z</time></trkpt><trkpt lat="42.19948150995799" lon="14.34170563478073"><ele>316.0</ele><time>2026-04-23T14:30:38Z</time></trkpt><trkpt lat="42.19952276915312" lon="14.34187466918758"><ele>316.0</ele><time>2026-04-23T14:30:39Z</time></trkpt><trkpt lat="42.19958650804454" lon="14.342043264921124"><ele>316.0</ele><time>2026-04-23T14:30:40Z</time></trkpt><trkpt lat="42.19963153888471" lon="14.34221251713979"><ele>316.0</ele><time>2026-04-23T14:30:41Z</time></trkpt><trkpt lat="42.199611117377366" lon="14.34238950857208"><ele>317.0</ele><time>2026-04-23T14:30:42Z</time></trkpt><trkpt lat="42.19956556613751" lon="14.342571005723778"><ele>318.0</ele><time>2026-04-23T14:30:43Z</time></trkpt><trkpt lat="42.199515502047205" lon="14.342773515820445"><ele>319.0</ele><time>2026-04-23T14:30:44Z</time></trkpt><trkpt lat="42.199459818248265" lon="14.342995961246652"><ele>322.3333333333333</ele><time>2026-04-23T14:30:45Z</time></trkpt><trkpt lat="42.199382797209566" lon="14.343189811078402"><ele>325.6666666666667</ele><time>2026-04-23T14:30:46Z</time></trkpt><trkpt lat="42.199282896091574" lon="14.34336623301236"><ele>329.0</ele><time>2026-04-23T14:30:47Z</time></trkpt><trkpt lat="42.19917445787367" lon="14.34352569127254"><ele>329.0</ele><time>2026-04-23T14:30:48Z</time></trkpt><trkpt lat="42.199079828625756" lon="14.34367357464471"><ele>329.0</ele><time>2026-04-23T14:30:49Z</time></trkpt><trkpt lat="42.19899826017218" lon="14.343821865173794"><ele>329.0</ele><time>2026-04-23T14:30:50Z</time></trkpt><trkpt lat="42.19893170984045" lon="14.343967696746354"><ele>329.0</ele><time>2026-04-23T14:30:51Z</time></trkpt><trkpt lat="42.19887285453617" lon="14.344110494961889"><ele>327.79999999999995</ele><time>2026-04-23T14:30:52Z</time></trkpt><trkpt lat="42.198816056430225" lon="14.344249345618724"><ele>326.59999999999997</ele><time>2026-04-23T14:30:53Z</time></trkpt><trkpt lat="42.198763034884095" lon="14.344379890896041"><ele>325.4</ele><time>2026-04-23T14:30:54Z</time></trkpt><trkpt lat="42.198720481425134" lon="14.344501177427322"><ele>324.2</ele><time>2026-04-23T14:30:55Z</time></trkpt><trkpt lat="42.19869667681493" lon="14.344620107359576"><ele>323.0</ele><time>2026-04-23T14:30:56Z</time></trkpt><trkpt lat="42.19869481259062" lon="14.344745611875553"><ele>323.0</ele><time>2026-04-23T14:30:57Z</time></trkpt><trkpt lat="42.198717849001035" lon="14.344875278977653"><ele>323.0</ele><time>2026-04-23T14:30:58Z</time></trkpt><trkpt lat="42.198764182119476" lon="14.345002664391728"><ele>323.0</ele><time>2026-04-23T14:30:59Z</time></trkpt><trkpt lat="42.19882111274079" lon="14.345128992945329"><ele>323.0</ele><time>2026-04-23T14:31:00Z</time></trkpt><trkpt lat="42.19887941931918" lon="14.345256507710543"><ele>323.0</ele><time>2026-04-23T14:31:01Z</time></trkpt><trkpt lat="42.198934537089634" lon="14.345387737397042"><ele>323.0</ele><time>2026-04-23T14:31:02Z</time></trkpt><trkpt lat="42.198988135902184" lon="14.345522328895187"><ele>323.0</ele><time>2026-04-23T14:31:03Z</time></trkpt><trkpt lat="42.19903466611582" lon="14.345657701498695"><ele>323.0</ele><time>2026-04-23T14:31:04Z</time></trkpt><trkpt lat="42.19906824053253" lon="14.345785356145388"><ele>323.0</ele><time>2026-04-23T14:31:05Z</time></trkpt><trkpt lat="42.19906957920979" lon="14.345916409229329"><ele>323.0</ele><time>2026-04-23T14:31:06Z</time></trkpt><trkpt lat="42.19909308554222" lon="14.346048153314374"><ele>326.79999999999995</ele><time>2026-04-23T14:31:07Z</time></trkpt><trkpt lat="42.199095083115196" lon="14.34618627978697"><ele>330.6</ele><time>2026-04-23T14:31:08Z</time></trkpt><trkpt lat="42.19909499276394" lon="14.34633086799979"><ele>334.4</ele><time>2026-04-23T14:31:09Z</time></trkpt><trkpt lat="42.199090600317604" lon="14.346476234879725"><ele>338.20000000000005</ele><time>2026-04-23T14:31:10Z</time></trkpt><trkpt lat="42.19908150396125" lon="14.346628160821794"><ele>342.0</ele><time>2026-04-23T14:31:11Z</time></trkpt><trkpt lat="42.199046249006074" lon="14.346776804291206"><ele>342.20000000000005</ele><time>2026-04-23T14:31:12Z</time></trkpt><trkpt lat="42.19902012444019" lon="14.346924480904901"><ele>342.4</ele><time>2026-04-23T14:31:13Z</time></trkpt><trkpt lat="42.19899224116197" lon="14.347059578014878"><ele>342.6</ele><time>2026-04-23T14:31:14Z</time></trkpt><trkpt lat="42.198961180872104" lon="14.347189628635638"><ele>342.79999999999995</ele><time>2026-04-23T14:31:15Z</time></trkpt><trkpt lat="42.19893041247741" lon="14.34731362622739"><ele>343.0</ele><time>2026-04-23T14:31:16Z</time></trkpt><trkpt lat="42.19890094576584" lon="14.347432112755587"><ele>340.0</ele><time>2026-04-23T14:31:17Z</time></trkpt><trkpt lat="42.19889652065905" lon="14.347558193025487"><ele>337.0</ele><time>2026-04-23T14:31:18Z</time></trkpt><trkpt lat="42.198868490813105" lon="14.347675668179104"><ele>334.0</ele><time>2026-04-23T14:31:19Z</time></trkpt><trkpt lat="42.19881426073897" lon="14.347910539375107"><ele>331.0</ele><time>2026-04-23T14:31:21Z</time></trkpt><trkpt lat="42.19878958732695" lon="14.348023912563848"><ele>332.0</ele><time>2026-04-23T14:31:22Z</time></trkpt><trkpt lat="42.198760428574985" lon="14.348128824210931"><ele>333.0</ele><time>2026-04-23T14:31:23Z</time></trkpt><trkpt lat="42.19871770737477" lon="14.348215882407901"><ele>334.0</ele><time>2026-04-23T14:31:24Z</time></trkpt><trkpt lat="42.198706818513486" lon="14.348309335420383"><ele>335.0</ele><time>2026-04-23T14:31:25Z</time></trkpt><trkpt lat="42.19867998284878" lon="14.348392165200528"><ele>336.0</ele><time>2026-04-23T14:31:26Z</time></trkpt><trkpt lat="42.198652351266084" lon="14.34847564614011"><ele>337.0</ele><time>2026-04-23T14:31:27Z</time></trkpt><trkpt lat="42.198623510528506" lon="14.3485650536631"><ele>338.0</ele><time>2026-04-23T14:31:28Z</time></trkpt><trkpt lat="42.198593535543445" lon="14.348662097621197"><ele>338.0</ele><time>2026-04-23T14:31:29Z</time></trkpt><trkpt lat="42.19857412341244" lon="14.348758420579017"><ele>338.0</ele><time>2026-04-23T14:31:30Z</time></trkpt><trkpt lat="42.19856981455329" lon="14.348855538131819"><ele>338.0</ele><time>2026-04-23T14:31:31Z</time></trkpt><trkpt lat="42.19856393626479" lon="14.348968120350454"><ele>338.0</ele><time>2026-04-23T14:31:32Z</time></trkpt><trkpt lat="42.19855862862431" lon="14.349089031607747"><ele>338.0</ele><time>2026-04-23T14:31:33Z</time></trkpt><trkpt lat="42.19854917161587" lon="14.349214358445074"><ele>338.0</ele><time>2026-04-23T14:31:34Z</time></trkpt><trkpt lat="42.19853920521827" lon="14.349346747903757"><ele>337.79999999999995</ele><time>2026-04-23T14:31:35Z</time></trkpt><trkpt lat="42.19853104617076" lon="14.349487041891953"><ele>337.6</ele><time>2026-04-23T14:31:36Z</time></trkpt><trkpt lat="42.19852549405945" lon="14.349630615322582"><ele>337.4</ele><time>2026-04-23T14:31:37Z</time></trkpt><trkpt lat="42.19852121661825" lon="14.349775316613664"><ele>337.20000000000005</ele><time>2026-04-23T14:31:38Z</time></trkpt><trkpt lat="42.19852210673281" lon="14.349922274728405"><ele>337.0</ele><time>2026-04-23T14:31:39Z</time></trkpt><trkpt lat="42.19853017095631" lon="14.35006656901624"><ele>337.0</ele><time>2026-04-23T14:31:40Z</time></trkpt><trkpt lat="42.198540991847494" lon="14.350208133445298"><ele>337.0</ele><time>2026-04-23T14:31:41Z</time></trkpt><trkpt lat="42.19855432786028" lon="14.350347515059063"><ele>337.0</ele><time>2026-04-23T14:31:42Z</time></trkpt><trkpt lat="42.19857332457774" lon="14.350485150630558"><ele>337.0</ele><time>2026-04-23T14:31:43Z</time></trkpt><trkpt lat="42.19859649984643" lon="14.350620292072271"><ele>337.0</ele><time>2026-04-23T14:31:44Z</time></trkpt><trkpt lat="42.19867279927726" lon="14.350879656169827"><ele>337.0</ele><time>2026-04-23T14:31:46Z</time></trkpt><trkpt lat="42.198725315269535" lon="14.350993062854712"><ele>337.0</ele><time>2026-04-23T14:31:47Z</time></trkpt><trkpt lat="42.198784592081665" lon="14.35109509422397"><ele>337.0</ele><time>2026-04-23T14:31:48Z</time></trkpt><trkpt lat="42.19884693544611" lon="14.351198962052099"><ele>337.0</ele><time>2026-04-23T14:31:49Z</time></trkpt><trkpt lat="42.19890371040638" lon="14.351308931191282"><ele>337.0</ele><time>2026-04-23T14:31:50Z</time></trkpt><trkpt lat="42.19894539148765" lon="14.351432221681069"><ele>338.16666666666663</ele><time>2026-04-23T14:31:51Z</time></trkpt><trkpt lat="42.19896728155107" lon="14.351550332329015"><ele>339.3333333333333</ele><time>2026-04-23T14:31:52Z</time></trkpt><trkpt lat="42.19896793249103" lon="14.35166920622257"><ele>340.5</ele><time>2026-04-23T14:31:53Z</time></trkpt><trkpt lat="42.198948649313095" lon="14.351780323377621"><ele>341.6666666666667</ele><time>2026-04-23T14:31:54Z</time></trkpt><trkpt lat="42.19890893796419" lon="14.351882811213592"><ele>342.83333333333337</ele><time>2026-04-23T14:31:55Z</time></trkpt><trkpt lat="42.19886428249904" lon="14.35196693120725"><ele>344.0</ele><time>2026-04-23T14:31:56Z</time></trkpt><trkpt lat="42.19881264293351" lon="14.352032910273394"><ele>344.0</ele><time>2026-04-23T14:31:57Z</time></trkpt><trkpt lat="42.19875798765811" lon="14.352103647539753"><ele>344.0</ele><time>2026-04-23T14:31:58Z</time></trkpt><trkpt lat="42.19870042406731" lon="14.352174388836973"><ele>344.0</ele><time>2026-04-23T14:31:59Z</time></trkpt><trkpt lat="42.1986424877655" lon="14.352245766943872"><ele>344.0</ele><time>2026-04-23T14:32:00Z</time></trkpt><trkpt lat="42.19858058195246" lon="14.352294798640193"><ele>344.0</ele><time>2026-04-23T14:32:01Z</time></trkpt><trkpt lat="42.198480244966895" lon="14.352419868605857"><ele>344.0</ele><time>2026-04-23T14:32:03Z</time></trkpt><trkpt lat="42.198398560646595" lon="14.35252205041027"><ele>344.4</ele><time>2026-04-23T14:32:04Z</time></trkpt><trkpt lat="42.198315071338286" lon="14.352630143979312"><ele>344.79999999999995</ele><time>2026-04-23T14:32:05Z</time></trkpt><trkpt lat="42.19824841289569" lon="14.35275440269333"><ele>345.20000000000005</ele><time>2026-04-23T14:32:06Z</time></trkpt><trkpt lat="42.19815395913019" lon="14.352835477952935"><ele>345.6</ele><time>2026-04-23T14:32:07Z</time></trkpt><trkpt lat="42.198087508673474" lon="14.352948095719366"><ele>346.0</ele><time>2026-04-23T14:32:08Z</time></trkpt><trkpt lat="42.19800833371009" lon="14.353019622857973"><ele>348.3333333333333</ele><time>2026-04-23T14:32:09Z</time></trkpt><trkpt lat="42.197944563201084" lon="14.35310065738773"><ele>350.66666666666663</ele><time>2026-04-23T14:32:10Z</time></trkpt><trkpt lat="42.197884412318885" lon="14.353177093505654"><ele>353.0</ele><time>2026-04-23T14:32:11Z</time></trkpt><trkpt lat="42.19782926316601" lon="14.353254793344856"><ele>355.3333333333333</ele><time>2026-04-23T14:32:12Z</time></trkpt><trkpt lat="42.19777344447229" lon="14.353330151966942"><ele>357.6666666666667</ele><time>2026-04-23T14:32:13Z</time></trkpt><trkpt lat="42.19772678345704" lon="14.353424128282253"><ele>360.0</ele><time>2026-04-23T14:32:14Z</time></trkpt><trkpt lat="42.19765473803282" lon="14.353489653748303"><ele>360.0</ele><time>2026-04-23T14:32:15Z</time></trkpt><trkpt lat="42.19759530958696" lon="14.353569505723282"><ele>360.0</ele><time>2026-04-23T14:32:16Z</time></trkpt><trkpt lat="42.197536284929804" lon="14.353649720785464"><ele>360.0</ele><time>2026-04-23T14:32:17Z</time></trkpt><trkpt lat="42.197480452052766" lon="14.353727343373853"><ele>360.0</ele><time>2026-04-23T14:32:18Z</time></trkpt><trkpt lat="42.19742575174383" lon="14.353803389995672"><ele>360.0</ele><time>2026-04-23T14:32:19Z</time></trkpt><trkpt lat="42.19737051992333" lon="14.35388001934192"><ele>360.0</ele><time>2026-04-23T14:32:20Z</time></trkpt><trkpt lat="42.19731176584288" lon="14.35396126663334"><ele>360.0</ele><time>2026-04-23T14:32:21Z</time></trkpt><trkpt lat="42.1972520217446" lon="14.354045349706864"><ele>360.0</ele><time>2026-04-23T14:32:22Z</time></trkpt><trkpt lat="42.197204783003" lon="14.354146540762883"><ele>360.0</ele><time>2026-04-23T14:32:23Z</time></trkpt><trkpt lat="42.197144370278224" lon="14.35424085417416"><ele>360.0</ele><time>2026-04-23T14:32:24Z</time></trkpt><trkpt lat="42.1970863332819" lon="14.35434703514166"><ele>360.0</ele><time>2026-04-23T14:32:25Z</time></trkpt><trkpt lat="42.1970353999916" lon="14.354460826666227"><ele>360.0</ele><time>2026-04-23T14:32:26Z</time></trkpt><trkpt lat="42.19698960718958" lon="14.354571155731996"><ele>360.0</ele><time>2026-04-23T14:32:27Z</time></trkpt><trkpt lat="42.19694702366216" lon="14.354678905912612"><ele>360.0</ele><time>2026-04-23T14:32:28Z</time></trkpt><trkpt lat="42.196906740693315" lon="14.354789576031378"><ele>360.0</ele><time>2026-04-23T14:32:29Z</time></trkpt><trkpt lat="42.19686224596923" lon="14.354900073050354"><ele>360.0</ele><time>2026-04-23T14:32:30Z</time></trkpt><trkpt lat="42.19681270526914" lon="14.35500815256361"><ele>362.3333333333333</ele><time>2026-04-23T14:32:31Z</time></trkpt><trkpt lat="42.196750504125745" lon="14.355113014251591"><ele>364.6666666666667</ele><time>2026-04-23T14:32:32Z</time></trkpt><trkpt lat="42.196685225464975" lon="14.355202367401406"><ele>367.0</ele><time>2026-04-23T14:32:33Z</time></trkpt><trkpt lat="42.19662134056924" lon="14.355286761140938"><ele>369.33333333333337</ele><time>2026-04-23T14:32:34Z</time></trkpt><trkpt lat="42.19654297566822" lon="14.355367010641565"><ele>371.6666666666667</ele><time>2026-04-23T14:32:35Z</time></trkpt><trkpt lat="42.19658892825417" lon="14.355434127126701"><ele>374.0</ele><time>2026-04-23T14:32:36Z</time></trkpt><trkpt lat="42.196543849609554" lon="14.35551206513477"><ele>373.33333333333337</ele><time>2026-04-23T14:32:37Z</time></trkpt><trkpt lat="42.19649398812503" lon="14.355580886319467"><ele>372.6666666666667</ele><time>2026-04-23T14:32:38Z</time></trkpt><trkpt lat="42.196440341869426" lon="14.355647334383686"><ele>372.0</ele><time>2026-04-23T14:32:39Z</time></trkpt><trkpt lat="42.19638740290952" lon="14.355729241812991"><ele>371.3333333333333</ele><time>2026-04-23T14:32:40Z</time></trkpt><trkpt lat="42.196332419405884" lon="14.355808106004178"><ele>370.66666666666663</ele><time>2026-04-23T14:32:41Z</time></trkpt><trkpt lat="42.196284142540414" lon="14.355892381698485"><ele>370.0</ele><time>2026-04-23T14:32:42Z</time></trkpt><trkpt lat="42.196231502669825" lon="14.355980847663762"><ele>369.99999999999994</ele><time>2026-04-23T14:32:43Z</time></trkpt><trkpt lat="42.19617964992396" lon="14.356068022904935"><ele>370.0</ele><time>2026-04-23T14:32:44Z</time></trkpt><trkpt lat="42.19613298724634" lon="14.356146287017449"><ele>370.0</ele><time>2026-04-23T14:32:45Z</time></trkpt><trkpt lat="42.19609387223031" lon="14.35622632657304"><ele>370.0</ele><time>2026-04-23T14:32:46Z</time></trkpt><trkpt lat="42.19605358087909" lon="14.356301284904758"><ele>370.0</ele><time>2026-04-23T14:32:47Z</time></trkpt><trkpt lat="42.1959986545581" lon="14.356365586408055"><ele>369.99999999999994</ele><time>2026-04-23T14:32:48Z</time></trkpt><trkpt lat="42.195957852977486" lon="14.356437793287313"><ele>370.0</ele><time>2026-04-23T14:32:49Z</time></trkpt><trkpt lat="42.19592111064052" lon="14.356507024041155"><ele>370.8</ele><time>2026-04-23T14:32:50Z</time></trkpt><trkpt lat="42.19586811717105" lon="14.356635442599082"><ele>371.6</ele><time>2026-04-23T14:32:52Z</time></trkpt><trkpt lat="42.195796223654796" lon="14.356744166466248"><ele>372.4</ele><time>2026-04-23T14:32:54Z</time></trkpt><trkpt lat="42.19574988011839" lon="14.356818031870787"><ele>373.2</ele><time>2026-04-23T14:32:55Z</time></trkpt><trkpt lat="42.19568967358627" lon="14.35691127154404"><ele>374.0</ele><time>2026-04-23T14:32:56Z</time></trkpt><trkpt lat="42.195630136683725" lon="14.357016846770684"><ele>373.4</ele><time>2026-04-23T14:32:57Z</time></trkpt><trkpt lat="42.195573432984226" lon="14.35713738841448"><ele>372.79999999999995</ele><time>2026-04-23T14:32:58Z</time></trkpt><trkpt lat="42.19551758410154" lon="14.357239238680938"><ele>372.20000000000005</ele><time>2026-04-23T14:32:59Z</time></trkpt><trkpt lat="42.19546580274584" lon="14.357332551022472"><ele>371.6</ele><time>2026-04-23T14:33:00Z</time></trkpt><trkpt lat="42.195414526521105" lon="14.357422378826934"><ele>371.0</ele><time>2026-04-23T14:33:01Z</time></trkpt><trkpt lat="42.195364471276044" lon="14.357506887921021"><ele>371.0</ele><time>2026-04-23T14:33:02Z</time></trkpt><trkpt lat="42.19531806424636" lon="14.357590103070143"><ele>371.0</ele><time>2026-04-23T14:33:03Z</time></trkpt><trkpt lat="42.19527329251052" lon="14.357670759538893"><ele>371.0</ele><time>2026-04-23T14:33:04Z</time></trkpt><trkpt lat="42.19522487110601" lon="14.35775119947963"><ele>371.0</ele><time>2026-04-23T14:33:05Z</time></trkpt><trkpt lat="42.195181091798034" lon="14.357838915042127"><ele>371.0</ele><time>2026-04-23T14:33:06Z</time></trkpt><trkpt lat="42.19512877402509" lon="14.357927226063119"><ele>371.0</ele><time>2026-04-23T14:33:07Z</time></trkpt><trkpt lat="42.19507574281904" lon="14.358018330288763"><ele>371.4</ele><time>2026-04-23T14:33:08Z</time></trkpt><trkpt lat="42.19501700744847" lon="14.358119007417425"><ele>371.8</ele><time>2026-04-23T14:33:09Z</time></trkpt><trkpt lat="42.19495921621708" lon="14.358223065840331"><ele>372.2</ele><time>2026-04-23T14:33:10Z</time></trkpt><trkpt lat="42.19490375835868" lon="14.358323553360872"><ele>372.59999999999997</ele><time>2026-04-23T14:33:11Z</time></trkpt><trkpt lat="42.19484765066765" lon="14.358423014257887"><ele>373.0</ele><time>2026-04-23T14:33:12Z</time></trkpt><trkpt lat="42.19478998204812" lon="14.358523797381489"><ele>374.0</ele><time>2026-04-23T14:33:13Z</time></trkpt><trkpt lat="42.19473030332166" lon="14.358629544281703"><ele>375.0</ele><time>2026-04-23T14:33:14Z</time></trkpt><trkpt lat="42.194669977875805" lon="14.35873284997049"><ele>376.0</ele><time>2026-04-23T14:33:15Z</time></trkpt><trkpt lat="42.19461213221522" lon="14.358840764066324"><ele>377.0</ele><time>2026-04-23T14:33:16Z</time></trkpt><trkpt lat="42.19455119966728" lon="14.35893828209492"><ele>378.0</ele><time>2026-04-23T14:33:17Z</time></trkpt><trkpt lat="42.19448309638048" lon="14.359035187169546"><ele>379.0</ele><time>2026-04-23T14:33:18Z</time></trkpt><trkpt lat="42.19442975981004" lon="14.359161484196939"><ele>380.0</ele><time>2026-04-23T14:33:19Z</time></trkpt><trkpt lat="42.19436908944296" lon="14.359268860917172"><ele>381.0</ele><time>2026-04-23T14:33:20Z</time></trkpt><trkpt lat="42.19431105623698" lon="14.359376433324671"><ele>382.0</ele><time>2026-04-23T14:33:21Z</time></trkpt><trkpt lat="42.19425951506087" lon="14.359478995768654"><ele>383.0</ele><time>2026-04-23T14:33:22Z</time></trkpt><trkpt lat="42.194196939774855" lon="14.359559999675541"><ele>383.0</ele><time>2026-04-23T14:33:23Z</time></trkpt><trkpt lat="42.19415043784997" lon="14.359659859974615"><ele>383.0</ele><time>2026-04-23T14:33:24Z</time></trkpt><trkpt lat="42.194107839915844" lon="14.359763609724203"><ele>383.0</ele><time>2026-04-23T14:33:25Z</time></trkpt><trkpt lat="42.194070245170124" lon="14.359886248304813"><ele>383.0</ele><time>2026-04-23T14:33:26Z</time></trkpt><trkpt lat="42.19403719450829" lon="14.360011586958892"><ele>383.0</ele><time>2026-04-23T14:33:27Z</time></trkpt><trkpt lat="42.19401000393434" lon="14.360130309758201"><ele>383.59999999999997</ele><time>2026-04-23T14:33:28Z</time></trkpt><trkpt lat="42.193989119430704" lon="14.360238284646472"><ele>384.2</ele><time>2026-04-23T14:33:29Z</time></trkpt><trkpt lat="42.193969028026224" lon="14.360353859379249"><ele>384.8</ele><time>2026-04-23T14:33:30Z</time></trkpt><trkpt lat="42.19394800116864" lon="14.360478210278442"><ele>385.4</ele><time>2026-04-23T14:33:31Z</time></trkpt><trkpt lat="42.19392689333347" lon="14.360609654566566"><ele>386.0</ele><time>2026-04-23T14:33:32Z</time></trkpt><trkpt lat="42.19390633131934" lon="14.360733827798091"><ele>385.99999999999994</ele><time>2026-04-23T14:33:33Z</time></trkpt><trkpt lat="42.193887183417004" lon="14.36084556372483"><ele>386.0</ele><time>2026-04-23T14:33:34Z</time></trkpt><trkpt lat="42.19386803211496" lon="14.36094603918882"><ele>386.0</ele><time>2026-04-23T14:33:35Z</time></trkpt><trkpt lat="42.19384911228773" lon="14.361045300264372"><ele>386.0</ele><time>2026-04-23T14:33:36Z</time></trkpt><trkpt lat="42.193830285173" lon="14.361144074830701"><ele>385.99999999999994</ele><time>2026-04-23T14:33:37Z</time></trkpt><trkpt lat="42.19381096459914" lon="14.361245438464277"><ele>386.0</ele><time>2026-04-23T14:33:38Z</time></trkpt><trkpt lat="42.19379007541264" lon="14.36135503183568"><ele>383.4</ele><time>2026-04-23T14:33:39Z</time></trkpt><trkpt lat="42.19376836202858" lon="14.36147010811334"><ele>380.8</ele><time>2026-04-23T14:33:40Z</time></trkpt><trkpt lat="42.19374531162621" lon="14.361592446208999"><ele>378.2</ele><time>2026-04-23T14:33:41Z</time></trkpt><trkpt lat="42.1937344629949" lon="14.361734213121116"><ele>375.59999999999997</ele><time>2026-04-23T14:33:42Z</time></trkpt><trkpt lat="42.1936936917728" lon="14.361867230555303"><ele>373.0</ele><time>2026-04-23T14:33:43Z</time></trkpt><trkpt lat="42.19366876557538" lon="14.361997862571116"><ele>373.0</ele><time>2026-04-23T14:33:44Z</time></trkpt><trkpt lat="42.19365922180802" lon="14.362130917994932"><ele>373.0</ele><time>2026-04-23T14:33:45Z</time></trkpt><trkpt lat="42.19362066373055" lon="14.362248679284008"><ele>373.0</ele><time>2026-04-23T14:33:46Z</time></trkpt><trkpt lat="42.19360902350442" lon="14.362377693880248"><ele>373.0</ele><time>2026-04-23T14:33:47Z</time></trkpt><trkpt lat="42.19358667787109" lon="14.362509945238791"><ele>373.0</ele><time>2026-04-23T14:33:48Z</time></trkpt><trkpt lat="42.19354483545764" lon="14.362642755029565"><ele>371.59999999999997</ele><time>2026-04-23T14:33:49Z</time></trkpt><trkpt lat="42.19353072074068" lon="14.362794538754523"><ele>370.2</ele><time>2026-04-23T14:33:50Z</time></trkpt><trkpt lat="42.19350090045108" lon="14.362941860348544"><ele>368.8</ele><time>2026-04-23T14:33:51Z</time></trkpt><trkpt lat="42.1934733378855" lon="14.363085604793005"><ele>367.4</ele><time>2026-04-23T14:33:52Z</time></trkpt><trkpt lat="42.19344638383274" lon="14.363222406736506"><ele>366.0</ele><time>2026-04-23T14:33:53Z</time></trkpt><trkpt lat="42.19340514189108" lon="14.363355324102136"><ele>364.75</ele><time>2026-04-23T14:33:54Z</time></trkpt><trkpt lat="42.193382155318176" lon="14.36349611223382"><ele>363.5</ele><time>2026-04-23T14:33:55Z</time></trkpt><trkpt lat="42.19336925704352" lon="14.36365926536149"><ele>362.25</ele><time>2026-04-23T14:33:56Z</time></trkpt><trkpt lat="42.193365258975724" lon="14.363823381375624"><ele>361.0</ele><time>2026-04-23T14:33:57Z</time></trkpt><trkpt lat="42.19336523926186" lon="14.363979639541304"><ele>360.20000000000005</ele><time>2026-04-23T14:33:58Z</time></trkpt><trkpt lat="42.19337072222742" lon="14.364128437865805"><ele>359.40000000000003</ele><time>2026-04-23T14:33:59Z</time></trkpt><trkpt lat="42.19337786771912" lon="14.364266851900167"><ele>358.6</ele><time>2026-04-23T14:34:00Z</time></trkpt><trkpt lat="42.19338501509656" lon="14.364396997414653"><ele>357.8</ele><time>2026-04-23T14:34:01Z</time></trkpt><trkpt lat="42.19339117132997" lon="14.364509095310192"><ele>357.0</ele><time>2026-04-23T14:34:02Z</time></trkpt><trkpt lat="42.19341323385921" lon="14.364616644175388"><ele>356.3333333333333</ele><time>2026-04-23T14:34:03Z</time></trkpt><trkpt lat="42.19340740709105" lon="14.364726247929774"><ele>355.6666666666667</ele><time>2026-04-23T14:34:04Z</time></trkpt><trkpt lat="42.193394837383885" lon="14.364840178219351"><ele>355.0</ele><time>2026-04-23T14:34:05Z</time></trkpt><trkpt lat="42.19336698831128" lon="14.36494696145419"><ele>354.33333333333337</ele><time>2026-04-23T14:34:06Z</time></trkpt><trkpt lat="42.19332566406166" lon="14.365039425158454"><ele>353.6666666666667</ele><time>2026-04-23T14:34:07Z</time></trkpt><trkpt lat="42.19327248720699" lon="14.365116571776744"><ele>353.0</ele><time>2026-04-23T14:34:08Z</time></trkpt><trkpt lat="42.19321461583816" lon="14.365178831605789"><ele>352.1666666666667</ele><time>2026-04-23T14:34:09Z</time></trkpt><trkpt lat="42.19314922033514" lon="14.36522949412039"><ele>351.33333333333337</ele><time>2026-04-23T14:34:10Z</time></trkpt><trkpt lat="42.193074120723395" lon="14.365280209715227"><ele>350.5</ele><time>2026-04-23T14:34:11Z</time></trkpt><trkpt lat="42.19299755753245" lon="14.365332153431373"><ele>349.6666666666667</ele><time>2026-04-23T14:34:12Z</time></trkpt><trkpt lat="42.192916453729524" lon="14.365382273464203"><ele>348.8333333333333</ele><time>2026-04-23T14:34:13Z</time></trkpt><trkpt lat="42.19283439030422" lon="14.365439684849552"><ele>348.0</ele><time>2026-04-23T14:34:14Z</time></trkpt><trkpt lat="42.19274741447538" lon="14.365499077891734"><ele>347.59999999999997</ele><time>2026-04-23T14:34:15Z</time></trkpt><trkpt lat="42.192665491284274" lon="14.36556714126966"><ele>347.2</ele><time>2026-04-23T14:34:16Z</time></trkpt><trkpt lat="42.192578640620965" lon="14.365637432528395"><ele>346.8</ele><time>2026-04-23T14:34:17Z</time></trkpt><trkpt lat="42.19249924961972" lon="14.365721709700475"><ele>346.4</ele><time>2026-04-23T14:34:18Z</time></trkpt><trkpt lat="42.192428143446186" lon="14.365808387823808"><ele>346.0</ele><time>2026-04-23T14:34:19Z</time></trkpt><trkpt lat="42.192366049653984" lon="14.365908109737695"><ele>343.8</ele><time>2026-04-23T14:34:20Z</time></trkpt><trkpt lat="42.192321652598025" lon="14.36601797672831"><ele>341.6</ele><time>2026-04-23T14:34:21Z</time></trkpt><trkpt lat="42.19230019790522" lon="14.366144047146435"><ele>339.4</ele><time>2026-04-23T14:34:22Z</time></trkpt><trkpt lat="42.19229397654567" lon="14.366276863346036"><ele>337.2</ele><time>2026-04-23T14:34:23Z</time></trkpt><trkpt lat="42.19229391519663" lon="14.36640660806851"><ele>335.0</ele><time>2026-04-23T14:34:24Z</time></trkpt><trkpt lat="42.19229566260484" lon="14.366526441510654"><ele>335.0</ele><time>2026-04-23T14:34:25Z</time></trkpt><trkpt lat="42.19229191789296" lon="14.36664722779263"><ele>335.0</ele><time>2026-04-23T14:34:26Z</time></trkpt><trkpt lat="42.19228909551984" lon="14.366761378342925"><ele>335.0</ele><time>2026-04-23T14:34:27Z</time></trkpt><trkpt lat="42.192273523209735" lon="14.366877075692601"><ele>335.0</ele><time>2026-04-23T14:34:28Z</time></trkpt><trkpt lat="42.1922569398378" lon="14.36699553867288"><ele>335.0</ele><time>2026-04-23T14:34:29Z</time></trkpt><trkpt lat="42.19223099196451" lon="14.367123430317708"><ele>335.0</ele><time>2026-04-23T14:34:30Z</time></trkpt><trkpt lat="42.19220260740454" lon="14.367251352305571"><ele>334.83333333333337</ele><time>2026-04-23T14:34:31Z</time></trkpt><trkpt lat="42.192175668096986" lon="14.367371632703346"><ele>334.6666666666667</ele><time>2026-04-23T14:34:32Z</time></trkpt><trkpt lat="42.192148508785266" lon="14.36748753316633"><ele>334.5</ele><time>2026-04-23T14:34:33Z</time></trkpt><trkpt lat="42.192128812846974" lon="14.367592957016933"><ele>334.3333333333333</ele><time>2026-04-23T14:34:34Z</time></trkpt><trkpt lat="42.19210963155728" lon="14.367699004228584"><ele>334.16666666666663</ele><time>2026-04-23T14:34:35Z</time></trkpt><trkpt lat="42.192103870600775" lon="14.367790028347097"><ele>334.0</ele><time>2026-04-23T14:34:36Z</time></trkpt><trkpt lat="42.19210344899858" lon="14.367946911575249"><ele>335.2</ele><time>2026-04-23T14:34:38Z</time></trkpt><trkpt lat="42.19209843698878" lon="14.368060853023689"><ele>336.4</ele><time>2026-04-23T14:34:40Z</time></trkpt><trkpt lat="42.19203725658063" lon="14.3681595901152"><ele>337.6</ele><time>2026-04-23T14:34:43Z</time></trkpt><trkpt lat="42.191961130598436" lon="14.368201037767339"><ele>338.8</ele><time>2026-04-23T14:34:46Z</time></trkpt><trkpt lat="42.19189821327046" lon="14.368228615019861"><ele>340.0</ele><time>2026-04-23T14:34:49Z</time></trkpt><trkpt lat="42.19178491393434" lon="14.368311813391452"><ele>340.0</ele><time>2026-04-23T14:34:53Z</time></trkpt><trkpt lat="42.191695147980504" lon="14.368314827768874"><ele>340.0</ele><time>2026-04-23T14:34:55Z</time></trkpt><trkpt lat="42.191740687882614" lon="14.368442350527383"><ele>340.0</ele><time>2026-04-23T14:34:56Z</time></trkpt><trkpt lat="42.1917088873567" lon="14.368549661092212"><ele>340.0</ele><time>2026-04-23T14:34:58Z</time></trkpt><trkpt lat="42.19176575853581" lon="14.368651626086438"><ele>340.0</ele><time>2026-04-23T14:34:59Z</time></trkpt><trkpt lat="42.191799039015216" lon="14.368742344384206"><ele>340.0</ele><time>2026-04-23T14:35:00Z</time></trkpt><trkpt lat="42.19182506368643" lon="14.368856633352719"><ele>340.0</ele><time>2026-04-23T14:35:01Z</time></trkpt><trkpt lat="42.1918783689523" lon="14.368957656486478"><ele>340.0</ele><time>2026-04-23T14:35:02Z</time></trkpt><trkpt lat="42.191907464883606" lon="14.369076197838831"><ele>340.0</ele><time>2026-04-23T14:35:03Z</time></trkpt><trkpt lat="42.19195414753003" lon="14.369199941390047"><ele>340.0</ele><time>2026-04-23T14:35:04Z</time></trkpt><trkpt lat="42.19197166265038" lon="14.369319721465297"><ele>340.6</ele><time>2026-04-23T14:35:05Z</time></trkpt><trkpt lat="42.192008480208" lon="14.369430080865554"><ele>341.2</ele><time>2026-04-23T14:35:06Z</time></trkpt><trkpt lat="42.192004827997685" lon="14.369554464943052"><ele>341.79999999999995</ele><time>2026-04-23T14:35:07Z</time></trkpt><trkpt lat="42.1920094038873" lon="14.36968257711629"><ele>342.4</ele><time>2026-04-23T14:35:08Z</time></trkpt><trkpt lat="42.192007444963366" lon="14.36980398577357"><ele>343.0</ele><time>2026-04-23T14:35:09Z</time></trkpt><trkpt lat="42.192001367368086" lon="14.369923924700306"><ele>343.59999999999997</ele><time>2026-04-23T14:35:10Z</time></trkpt><trkpt lat="42.19198840521676" lon="14.370071858521708"><ele>344.2</ele><time>2026-04-23T14:35:11Z</time></trkpt><trkpt lat="42.19196569474002" lon="14.370196613724735"><ele>344.8</ele><time>2026-04-23T14:35:12Z</time></trkpt><trkpt lat="42.191938049255306" lon="14.370330784814312"><ele>345.4</ele><time>2026-04-23T14:35:13Z</time></trkpt><trkpt lat="42.191904528851396" lon="14.370483668582752"><ele>346.0</ele><time>2026-04-23T14:35:14Z</time></trkpt><trkpt lat="42.191858807314254" lon="14.370692048534432"><ele>348.0</ele><time>2026-04-23T14:35:15Z</time></trkpt><trkpt lat="42.19181368294965" lon="14.37092109753277"><ele>350.0</ele><time>2026-04-23T14:35:16Z</time></trkpt><trkpt lat="42.191777624867946" lon="14.371123994257655"><ele>352.0</ele><time>2026-04-23T14:35:17Z</time></trkpt><trkpt lat="42.1917452653498" lon="14.371313521801566"><ele>355.0</ele><time>2026-04-23T14:35:18Z</time></trkpt><trkpt lat="42.19168074836558" lon="14.371695863186265"><ele>358.0</ele><time>2026-04-23T14:35:20Z</time></trkpt><trkpt lat="42.19164234242969" lon="14.371898491201602"><ele>361.0</ele><time>2026-04-23T14:35:21Z</time></trkpt><trkpt lat="42.19160272237887" lon="14.372084915092122"><ele>363.25</ele><time>2026-04-23T14:35:22Z</time></trkpt><trkpt lat="42.191573349228854" lon="14.372266654349035"><ele>365.5</ele><time>2026-04-23T14:35:23Z</time></trkpt><trkpt lat="42.19158447034268" lon="14.372458085078867"><ele>367.75</ele><time>2026-04-23T14:35:24Z</time></trkpt><trkpt lat="42.19159555303902" lon="14.372658067040144"><ele>370.0</ele><time>2026-04-23T14:35:25Z</time></trkpt><trkpt lat="42.19159026778779" lon="14.372861539900574"><ele>371.75</ele><time>2026-04-23T14:35:26Z</time></trkpt><trkpt lat="42.191596911287455" lon="14.373053919233705"><ele>373.5</ele><time>2026-04-23T14:35:27Z</time></trkpt><trkpt lat="42.19160038968015" lon="14.373217194671065"><ele>375.25</ele><time>2026-04-23T14:35:28Z</time></trkpt><trkpt lat="42.19159956458605" lon="14.373363724518857"><ele>377.0</ele><time>2026-04-23T14:35:29Z</time></trkpt><trkpt lat="42.19158953784228" lon="14.373493845686012"><ele>377.0</ele><time>2026-04-23T14:35:30Z</time></trkpt><trkpt lat="42.19156597676214" lon="14.373628703478145"><ele>377.0</ele><time>2026-04-23T14:35:31Z</time></trkpt><trkpt lat="42.191540772508674" lon="14.373779885807396"><ele>377.0</ele><time>2026-04-23T14:35:32Z</time></trkpt><trkpt lat="42.191512968936834" lon="14.3739430528603"><ele>377.0</ele><time>2026-04-23T14:35:33Z</time></trkpt><trkpt lat="42.19148542515897" lon="14.37410096345202"><ele>376.25</ele><time>2026-04-23T14:35:34Z</time></trkpt><trkpt lat="42.1914583686769" lon="14.374271409893534"><ele>375.5</ele><time>2026-04-23T14:35:35Z</time></trkpt><trkpt lat="42.19143107490062" lon="14.374442932546824"><ele>374.75</ele><time>2026-04-23T14:35:36Z</time></trkpt><trkpt lat="42.19140296982545" lon="14.374615680660723"><ele>374.0</ele><time>2026-04-23T14:35:37Z</time></trkpt><trkpt lat="42.1913736514805" lon="14.374794049686503"><ele>375.5</ele><time>2026-04-23T14:35:38Z</time></trkpt><trkpt lat="42.19134277572243" lon="14.374965715825285"><ele>377.0</ele><time>2026-04-23T14:35:39Z</time></trkpt><trkpt lat="42.191313230439654" lon="14.375121160787543"><ele>378.5</ele><time>2026-04-23T14:35:40Z</time></trkpt><trkpt lat="42.191282887846505" lon="14.375277216427492"><ele>380.0</ele><time>2026-04-23T14:35:41Z</time></trkpt><trkpt lat="42.19125184731763" lon="14.375440396582386"><ele>381.33333333333337</ele><time>2026-04-23T14:35:42Z</time></trkpt><trkpt lat="42.1912219196771" lon="14.375599497961824"><ele>382.6666666666667</ele><time>2026-04-23T14:35:43Z</time></trkpt><trkpt lat="42.19123331652271" lon="14.375757592531132"><ele>384.0</ele><time>2026-04-23T14:35:44Z</time></trkpt><trkpt lat="42.19129421426199" lon="14.376050146561694"><ele>384.0</ele><time>2026-04-23T14:35:46Z</time></trkpt><trkpt lat="42.1913413090982" lon="14.376208533310141"><ele>384.0</ele><time>2026-04-23T14:35:47Z</time></trkpt><trkpt lat="42.19138977713946" lon="14.376329794617435"><ele>384.0</ele><time>2026-04-23T14:35:48Z</time></trkpt><trkpt lat="42.19145822345586" lon="14.376400955567275"><ele>384.0</ele><time>2026-04-23T14:35:49Z</time></trkpt><trkpt lat="42.19139788240668" lon="14.37658570027415"><ele>384.0</ele><time>2026-04-23T14:35:50Z</time></trkpt><trkpt lat="42.191407628922576" lon="14.376733652675078"><ele>384.0</ele><time>2026-04-23T14:35:51Z</time></trkpt><trkpt lat="42.19143708232242" lon="14.376876306058264"><ele>384.0</ele><time>2026-04-23T14:35:52Z</time></trkpt><trkpt lat="42.191453549546054" lon="14.377011234259626"><ele>384.0</ele><time>2026-04-23T14:35:53Z</time></trkpt><trkpt lat="42.191466889405696" lon="14.377145628973121"><ele>384.0</ele><time>2026-04-23T14:35:54Z</time></trkpt><trkpt lat="42.19152085428321" lon="14.377273593288551"><ele>387.6</ele><time>2026-04-23T14:35:55Z</time></trkpt><trkpt lat="42.19154819924561" lon="14.377405422874137"><ele>391.2</ele><time>2026-04-23T14:35:56Z</time></trkpt><trkpt lat="42.19161134973226" lon="14.377522497495672"><ele>394.8</ele><time>2026-04-23T14:35:57Z</time></trkpt><trkpt lat="42.191645272279885" lon="14.377657739610571"><ele>398.40000000000003</ele><time>2026-04-23T14:35:58Z</time></trkpt><trkpt lat="42.1917011128444" lon="14.377788962191495"><ele>402.0</ele><time>2026-04-23T14:35:59Z</time></trkpt><trkpt lat="42.19175611406381" lon="14.377918233032597"><ele>401.5</ele><time>2026-04-23T14:36:00Z</time></trkpt><trkpt lat="42.19181438091537" lon="14.378051123372563"><ele>401.0</ele><time>2026-04-23T14:36:01Z</time></trkpt><trkpt lat="42.191871144850246" lon="14.378181088066697"><ele>400.5</ele><time>2026-04-23T14:36:02Z</time></trkpt><trkpt lat="42.19192937666195" lon="14.378325152553662"><ele>400.0</ele><time>2026-04-23T14:36:03Z</time></trkpt><trkpt lat="42.19198165618707" lon="14.378476022133157"><ele>400.0</ele><time>2026-04-23T14:36:04Z</time></trkpt><trkpt lat="42.192024870405604" lon="14.378632410007645"><ele>400.0</ele><time>2026-04-23T14:36:05Z</time></trkpt><trkpt lat="42.19206555655381" lon="14.378801570608966"><ele>400.0</ele><time>2026-04-23T14:36:06Z</time></trkpt><trkpt lat="42.192101267745535" lon="14.378972058415359"><ele>400.0</ele><time>2026-04-23T14:36:07Z</time></trkpt><trkpt lat="42.19213674412549" lon="14.379152078028394"><ele>400.5</ele><time>2026-04-23T14:36:08Z</time></trkpt><trkpt lat="42.19217175461093" lon="14.379333071664703"><ele>401.0</ele><time>2026-04-23T14:36:09Z</time></trkpt><trkpt lat="42.19220667092173" lon="14.379517314655711"><ele>401.5</ele><time>2026-04-23T14:36:10Z</time></trkpt><trkpt lat="42.19223824046594" lon="14.379702563484011"><ele>402.0</ele><time>2026-04-23T14:36:11Z</time></trkpt><trkpt lat="42.19227125002803" lon="14.379885545375327"><ele>402.5</ele><time>2026-04-23T14:36:12Z</time></trkpt><trkpt lat="42.192309268096" lon="14.380064641162337"><ele>403.0</ele><time>2026-04-23T14:36:13Z</time></trkpt><trkpt lat="42.19236192889799" lon="14.38023253806151"><ele>403.5</ele><time>2026-04-23T14:36:14Z</time></trkpt><trkpt lat="42.1924043143102" lon="14.380401292505482"><ele>404.0</ele><time>2026-04-23T14:36:15Z</time></trkpt><trkpt lat="42.192433075332346" lon="14.38058107851681"><ele>404.75</ele><time>2026-04-23T14:36:16Z</time></trkpt><trkpt lat="42.192476492817065" lon="14.38074865406309"><ele>405.5</ele><time>2026-04-23T14:36:17Z</time></trkpt><trkpt lat="42.19251596760849" lon="14.380916024777502"><ele>406.25</ele><time>2026-04-23T14:36:18Z</time></trkpt><trkpt lat="42.192552938217275" lon="14.381081282413666"><ele>407.0</ele><time>2026-04-23T14:36:19Z</time></trkpt><trkpt lat="42.19258891890505" lon="14.381246714429109"><ele>406.5</ele><time>2026-04-23T14:36:20Z</time></trkpt><trkpt lat="42.19262439511001" lon="14.381411789805124"><ele>406.0</ele><time>2026-04-23T14:36:21Z</time></trkpt><trkpt lat="42.192657887308876" lon="14.38157593060413"><ele>405.5</ele><time>2026-04-23T14:36:22Z</time></trkpt><trkpt lat="42.19268414004741" lon="14.38174118881241"><ele>405.0</ele><time>2026-04-23T14:36:23Z</time></trkpt><trkpt lat="42.192696071631836" lon="14.381905709055127"><ele>405.0</ele><time>2026-04-23T14:36:24Z</time></trkpt><trkpt lat="42.19270947553686" lon="14.382075597670841"><ele>405.0</ele><time>2026-04-23T14:36:25Z</time></trkpt><trkpt lat="42.192723077923446" lon="14.382243324482454"><ele>405.0</ele><time>2026-04-23T14:36:26Z</time></trkpt><trkpt lat="42.192754223311155" lon="14.382399977355677"><ele>405.0</ele><time>2026-04-23T14:36:27Z</time></trkpt><trkpt lat="42.192775647877255" lon="14.382545742357479"><ele>403.75</ele><time>2026-04-23T14:36:28Z</time></trkpt><trkpt lat="42.19281221438414" lon="14.382687495472439"><ele>402.5</ele><time>2026-04-23T14:36:29Z</time></trkpt><trkpt lat="42.192869065573944" lon="14.382828643720908"><ele>401.25</ele><time>2026-04-23T14:36:30Z</time></trkpt><trkpt lat="42.19293286759247" lon="14.38296557283111"><ele>400.0</ele><time>2026-04-23T14:36:31Z</time></trkpt><trkpt lat="42.192990794055866" lon="14.383095355293515"><ele>399.6</ele><time>2026-04-23T14:36:32Z</time></trkpt><trkpt lat="42.193047688005855" lon="14.383219592644775"><ele>399.2</ele><time>2026-04-23T14:36:33Z</time></trkpt><trkpt lat="42.19310005087098" lon="14.383337067034503"><ele>398.79999999999995</ele><time>2026-04-23T14:36:34Z</time></trkpt><trkpt lat="42.19315591319165" lon="14.383454652328743"><ele>398.4</ele><time>2026-04-23T14:36:35Z</time></trkpt><trkpt lat="42.193216607504496" lon="14.383583300332546"><ele>398.0</ele><time>2026-04-23T14:36:36Z</time></trkpt><trkpt lat="42.193278548739436" lon="14.383717892815742"><ele>396.25</ele><time>2026-04-23T14:36:37Z</time></trkpt><trkpt lat="42.19334027656555" lon="14.383861139907273"><ele>394.5</ele><time>2026-04-23T14:36:38Z</time></trkpt><trkpt lat="42.19340853950544" lon="14.38400526370237"><ele>392.75</ele><time>2026-04-23T14:36:39Z</time></trkpt><trkpt lat="42.193475278463666" lon="14.384141892455567"><ele>391.0</ele><time>2026-04-23T14:36:40Z</time></trkpt><trkpt lat="42.19354667794723" lon="14.384276992769339"><ele>391.0</ele><time>2026-04-23T14:36:41Z</time></trkpt><trkpt lat="42.19360442428316" lon="14.384412495113425"><ele>391.0</ele><time>2026-04-23T14:36:42Z</time></trkpt><trkpt lat="42.19367152993123" lon="14.38455948455333"><ele>391.0</ele><time>2026-04-23T14:36:43Z</time></trkpt><trkpt lat="42.19375039271334" lon="14.384706374631916"><ele>391.0</ele><time>2026-04-23T14:36:44Z</time></trkpt><trkpt lat="42.193820138266496" lon="14.384859660787201"><ele>390.5</ele><time>2026-04-23T14:36:45Z</time></trkpt><trkpt lat="42.19388798238326" lon="14.38501009568062"><ele>390.0</ele><time>2026-04-23T14:36:46Z</time></trkpt><trkpt lat="42.193959167046074" lon="14.385146411864786"><ele>389.5</ele><time>2026-04-23T14:36:47Z</time></trkpt><trkpt lat="42.19403381789764" lon="14.385278413592625"><ele>389.0</ele><time>2026-04-23T14:36:48Z</time></trkpt><trkpt lat="42.19411258368109" lon="14.385411985722563"><ele>386.75</ele><time>2026-04-23T14:36:49Z</time></trkpt><trkpt lat="42.19417195565696" lon="14.385562878494968"><ele>384.5</ele><time>2026-04-23T14:36:50Z</time></trkpt><trkpt lat="42.19422551608316" lon="14.385718448777668"><ele>382.25</ele><time>2026-04-23T14:36:51Z</time></trkpt><trkpt lat="42.1942702123897" lon="14.38588260751257"><ele>380.0</ele><time>2026-04-23T14:36:52Z</time></trkpt><trkpt lat="42.19430342501593" lon="14.386054512189416"><ele>380.0</ele><time>2026-04-23T14:36:53Z</time></trkpt><trkpt lat="42.19433202233819" lon="14.38623202461416"><ele>380.0</ele><time>2026-04-23T14:36:54Z</time></trkpt><trkpt lat="42.194374850453876" lon="14.386417860130761"><ele>380.0</ele><time>2026-04-23T14:36:55Z</time></trkpt><trkpt lat="42.19439523813674" lon="14.386595228689457"><ele>380.0</ele><time>2026-04-23T14:36:56Z</time></trkpt><trkpt lat="42.19441824476342" lon="14.386770912518225"><ele>378.5</ele><time>2026-04-23T14:36:57Z</time></trkpt><trkpt lat="42.194434516214756" lon="14.386946872412498"><ele>377.0</ele><time>2026-04-23T14:36:58Z</time></trkpt><trkpt lat="42.194455818147595" lon="14.387117980390556"><ele>375.5</ele><time>2026-04-23T14:36:59Z</time></trkpt><trkpt lat="42.19447903671942" lon="14.387285304196288"><ele>374.0</ele><time>2026-04-23T14:37:00.001Z</time></trkpt><trkpt lat="42.19449988527084" lon="14.387455790530035"><ele>372.5</ele><time>2026-04-23T14:37:01.001Z</time></trkpt><trkpt lat="42.19452853640292" lon="14.387637295539209"><ele>371.0</ele><time>2026-04-23T14:37:02.001Z</time></trkpt><trkpt lat="42.19456676297748" lon="14.387814562309106"><ele>369.5</ele><time>2026-04-23T14:37:03.001Z</time></trkpt><trkpt lat="42.19461327432045" lon="14.387985096655914"><ele>368.0</ele><time>2026-04-23T14:37:04.001Z</time></trkpt><trkpt lat="42.19466383978745" lon="14.388152660894344"><ele>365.5</ele><time>2026-04-23T14:37:05.001Z</time></trkpt><trkpt lat="42.19469704756373" lon="14.388313729070275"><ele>363.0</ele><time>2026-04-23T14:37:06.001Z</time></trkpt><trkpt lat="42.1947096177008" lon="14.388476050666856"><ele>360.5</ele><time>2026-04-23T14:37:07.001Z</time></trkpt><trkpt lat="42.194724691889725" lon="14.388631671617604"><ele>358.0</ele><time>2026-04-23T14:37:08Z</time></trkpt><trkpt lat="42.194764463749806" lon="14.388786105313583"><ele>359.0</ele><time>2026-04-23T14:37:09Z</time></trkpt><trkpt lat="42.19481952090445" lon="14.38894177773151"><ele>360.0</ele><time>2026-04-23T14:37:10Z</time></trkpt><trkpt lat="42.194875447717685" lon="14.389105353084812"><ele>361.0</ele><time>2026-04-23T14:37:11Z</time></trkpt><trkpt lat="42.19493983965646" lon="14.389271868460005"><ele>362.0</ele><time>2026-04-23T14:37:12Z</time></trkpt><trkpt lat="42.1950206747891" lon="14.389428750002562"><ele>363.0</ele><time>2026-04-23T14:37:13Z</time></trkpt><trkpt lat="42.195125283354315" lon="14.389560367801318"><ele>364.0</ele><time>2026-04-23T14:37:14Z</time></trkpt><trkpt lat="42.1952376247564" lon="14.389670998356335"><ele>365.0</ele><time>2026-04-23T14:37:15Z</time></trkpt><trkpt lat="42.195360416129965" lon="14.389758540276103"><ele>366.0</ele><time>2026-04-23T14:37:16Z</time></trkpt><trkpt lat="42.19549088089918" lon="14.389830601938632"><ele>366.0</ele><time>2026-04-23T14:37:17Z</time></trkpt><trkpt lat="42.195631052909455" lon="14.389909118555689"><ele>366.0</ele><time>2026-04-23T14:37:18Z</time></trkpt><trkpt lat="42.19576871017189" lon="14.389993417551043"><ele>366.0</ele><time>2026-04-23T14:37:18.999Z</time></trkpt><trkpt lat="42.19590528451361" lon="14.39009271250123"><ele>366.25</ele><time>2026-04-23T14:37:19.999Z</time></trkpt><trkpt lat="42.19603286013255" lon="14.390194090286808"><ele>366.5</ele><time>2026-04-23T14:37:20.999Z</time></trkpt><trkpt lat="42.19615467704471" lon="14.390307926107972"><ele>366.75</ele><time>2026-04-23T14:37:21.999Z</time></trkpt><trkpt lat="42.19627128892556" lon="14.390421313439676"><ele>367.0</ele><time>2026-04-23T14:37:22.999Z</time></trkpt><trkpt lat="42.196389741936564" lon="14.390542678599974"><ele>367.0</ele><time>2026-04-23T14:37:23.999Z</time></trkpt><trkpt lat="42.19650294245781" lon="14.39067240848098"><ele>367.0</ele><time>2026-04-23T14:37:24.999Z</time></trkpt><trkpt lat="42.196611334280625" lon="14.390816308261456"><ele>367.0</ele><time>2026-04-23T14:37:25.999Z</time></trkpt><trkpt lat="42.19671864813102" lon="14.39096838258863"><ele>366.66666666666663</ele><time>2026-04-23T14:37:26.999Z</time></trkpt><trkpt lat="42.1968311592254" lon="14.391129867211774"><ele>366.3333333333333</ele><time>2026-04-23T14:37:27.999Z</time></trkpt><trkpt lat="42.19695132676347" lon="14.391299034694713"><ele>366.0</ele><time>2026-04-23T14:37:28.999Z</time></trkpt><trkpt lat="42.19708094296228" lon="14.39145699082509"><ele>365.3333333333333</ele><time>2026-04-23T14:37:29.999Z</time></trkpt><trkpt lat="42.19721441913579" lon="14.391598815937142"><ele>364.66666666666663</ele><time>2026-04-23T14:37:30.999Z</time></trkpt><trkpt lat="42.197343198854114" lon="14.391727381716887"><ele>364.0</ele><time>2026-04-23T14:37:31.999Z</time></trkpt><trkpt lat="42.19746725627359" lon="14.391848225781795"><ele>363.3333333333333</ele><time>2026-04-23T14:37:32.999Z</time></trkpt><trkpt lat="42.1975897478734" lon="14.391963304323951"><ele>362.6666666666667</ele><time>2026-04-23T14:37:33.999Z</time></trkpt><trkpt lat="42.19771622003695" lon="14.39206871199294"><ele>362.0</ele><time>2026-04-23T14:37:34.999Z</time></trkpt><trkpt lat="42.19785494669105" lon="14.3921648075916"><ele>359.6666666666667</ele><time>2026-04-23T14:37:35.999Z</time></trkpt><trkpt lat="42.198005513709994" lon="14.392231732417779"><ele>357.3333333333333</ele><time>2026-04-23T14:37:36.999Z</time></trkpt><trkpt lat="42.19816290688872" lon="14.392294858281765"><ele>355.0</ele><time>2026-04-23T14:37:37.999Z</time></trkpt><trkpt lat="42.1983197085352" lon="14.392367361169129"><ele>355.0</ele><time>2026-04-23T14:37:38.999Z</time></trkpt><trkpt lat="42.19847258096404" lon="14.392465175909111"><ele>355.0</ele><time>2026-04-23T14:37:39.999Z</time></trkpt><trkpt lat="42.198620852223456" lon="14.39258437191048"><ele>355.0</ele><time>2026-04-23T14:37:40.999Z</time></trkpt><trkpt lat="42.19876371207842" lon="14.392728607072682"><ele>355.0</ele><time>2026-04-23T14:37:41.999Z</time></trkpt><trkpt lat="42.198898440717294" lon="14.392883609785866"><ele>355.0</ele><time>2026-04-23T14:37:42.999Z</time></trkpt><trkpt lat="42.19902350017964" lon="14.393032809894164"><ele>355.0</ele><time>2026-04-23T14:37:43.999Z</time></trkpt><trkpt lat="42.19914223362467" lon="14.393181447823734"><ele>354.3333333333333</ele><time>2026-04-23T14:37:44.999Z</time></trkpt><trkpt lat="42.1992522536357" lon="14.393335802705657"><ele>353.6666666666667</ele><time>2026-04-23T14:37:45.999Z</time></trkpt><trkpt lat="42.199354947930686" lon="14.393499156932778"><ele>353.0</ele><time>2026-04-23T14:37:46.999Z</time></trkpt><trkpt lat="42.19945815574144" lon="14.393667651931182"><ele>353.0</ele><time>2026-04-23T14:37:47.999Z</time></trkpt><trkpt lat="42.199567890069254" lon="14.393830362562328"><ele>353.0</ele><time>2026-04-23T14:37:48.999Z</time></trkpt><trkpt lat="42.19967860027091" lon="14.393990535020496"><ele>353.0</ele><time>2026-04-23T14:37:49.999Z</time></trkpt><trkpt lat="42.19981542357866" lon="14.394112636577084"><ele>353.6666666666667</ele><time>2026-04-23T14:37:50.999Z</time></trkpt><trkpt lat="42.199948808999814" lon="14.394218262371945"><ele>354.3333333333333</ele><time>2026-04-23T14:37:51.999Z</time></trkpt><trkpt lat="42.200077738028064" lon="14.394332926025115"><ele>355.0</ele><time>2026-04-23T14:37:52.999Z</time></trkpt><trkpt lat="42.200206272560614" lon="14.394440676716679"><ele>355.0</ele><time>2026-04-23T14:37:53.999Z</time></trkpt><trkpt lat="42.20030796989437" lon="14.394600119485782"><ele>355.0</ele><time>2026-04-23T14:37:54.999Z</time></trkpt><trkpt lat="42.200421215004965" lon="14.394755126041524"><ele>355.0</ele><time>2026-04-23T14:37:55.999Z</time></trkpt><trkpt lat="42.20054996033928" lon="14.394901106807422"><ele>354.0</ele><time>2026-04-23T14:37:56.999Z</time></trkpt><trkpt lat="42.2006664609079" lon="14.39506151055807"><ele>353.0</ele><time>2026-04-23T14:37:57.999Z</time></trkpt><trkpt lat="42.20077441665677" lon="14.395239518291941"><ele>352.0</ele><time>2026-04-23T14:37:58.999Z</time></trkpt><trkpt lat="42.20089982245803" lon="14.395410832058655"><ele>350.0</ele><time>2026-04-23T14:37:59.999Z</time></trkpt><trkpt lat="42.20102938671608" lon="14.395563953035442"><ele>348.0</ele><time>2026-04-23T14:38:00.999Z</time></trkpt><trkpt lat="42.201141932899915" lon="14.395725802737884"><ele>346.0</ele><time>2026-04-23T14:38:01.999Z</time></trkpt><trkpt lat="42.20125493390388" lon="14.395882943971213"><ele>346.0</ele><time>2026-04-23T14:38:02.999Z</time></trkpt><trkpt lat="42.20135802119791" lon="14.396038507351282"><ele>346.0</ele><time>2026-04-23T14:38:03.999Z</time></trkpt><trkpt lat="42.20141258770618" lon="14.396218688887988"><ele>346.0</ele><time>2026-04-23T14:38:04.999Z</time></trkpt><trkpt lat="42.20147969142586" lon="14.396389797751056"><ele>346.0</ele><time>2026-04-23T14:38:05.999Z</time></trkpt><trkpt lat="42.20153785105957" lon="14.396584355879682"><ele>345.66666666666663</ele><time>2026-04-23T14:38:06.999Z</time></trkpt><trkpt lat="42.201602035892485" lon="14.39678051137862"><ele>345.3333333333333</ele><time>2026-04-23T14:38:07.999Z</time></trkpt><trkpt lat="42.20167277648405" lon="14.3969804836335"><ele>345.0</ele><time>2026-04-23T14:38:08.999Z</time></trkpt><trkpt lat="42.201745876740084" lon="14.397182684742317"><ele>343.0</ele><time>2026-04-23T14:38:09.999Z</time></trkpt><trkpt lat="42.2018197624366" lon="14.397388718748799"><ele>341.0</ele><time>2026-04-23T14:38:10.998Z</time></trkpt><trkpt lat="42.20189104235128" lon="14.397596136421058"><ele>339.0</ele><time>2026-04-23T14:38:11.998Z</time></trkpt><trkpt lat="42.201957015403536" lon="14.39780113364359"><ele>339.0</ele><time>2026-04-23T14:38:12.998Z</time></trkpt><trkpt lat="42.20202209471233" lon="14.397999407995368"><ele>339.0</ele><time>2026-04-23T14:38:13.998Z</time></trkpt><trkpt lat="42.202087618187655" lon="14.398195163352279"><ele>339.0</ele><time>2026-04-23T14:38:14.998Z</time></trkpt><trkpt lat="42.202150181486" lon="14.398387120904594"><ele>339.5</ele><time>2026-04-23T14:38:15.998Z</time></trkpt><trkpt lat="42.20221651165036" lon="14.398564842017436"><ele>340.0</ele><time>2026-04-23T14:38:16.998Z</time></trkpt><trkpt lat="42.20229283539134" lon="14.3987177043769"><ele>340.5</ele><time>2026-04-23T14:38:17.998Z</time></trkpt><trkpt lat="42.20238219202843" lon="14.398834193298987"><ele>341.0</ele><time>2026-04-23T14:38:18.998Z</time></trkpt><trkpt lat="42.20248332650131" lon="14.398900294179489"><ele>339.5</ele><time>2026-04-23T14:38:19.998Z</time></trkpt><trkpt lat="42.2025961164721" lon="14.398928604066576"><ele>338.0</ele><time>2026-04-23T14:38:20.998Z</time></trkpt><trkpt lat="42.20271794408286" lon="14.398936943862822"><ele>336.5</ele><time>2026-04-23T14:38:21.998Z</time></trkpt><trkpt lat="42.202843203978155" lon="14.39893751915319"><ele>335.0</ele><time>2026-04-23T14:38:22.998Z</time></trkpt><trkpt lat="42.20297428714472" lon="14.39896274405559"><ele>335.0</ele><time>2026-04-23T14:38:23.998Z</time></trkpt><trkpt lat="42.20309552455074" lon="14.398954669276351"><ele>335.0</ele><time>2026-04-23T14:38:24.998Z</time></trkpt><trkpt lat="42.20319254140916" lon="14.398963161837061"><ele>335.0</ele><time>2026-04-23T14:38:25.998Z</time></trkpt><trkpt lat="42.20327358362008" lon="14.398969360595624"><ele>335.0</ele><time>2026-04-23T14:38:26.998Z</time></trkpt><trkpt lat="42.20334166118062" lon="14.39897824225354"><ele>335.0</ele><time>2026-04-23T14:38:27.998Z</time></trkpt><trkpt lat="42.20342838415388" lon="14.399030814487691"><ele>335.0</ele><time>2026-04-23T14:38:29.998Z</time></trkpt><trkpt lat="42.203347080980485" lon="14.399147898451355"><ele>335.0</ele><time>2026-04-23T14:38:32.998Z</time></trkpt><trkpt lat="42.20326684282948" lon="14.39920026223494"><ele>335.0</ele><time>2026-04-23T14:38:33.998Z</time></trkpt><trkpt lat="42.203176610598405" lon="14.399245633869741"><ele>335.0</ele><time>2026-04-23T14:38:34.998Z</time></trkpt><trkpt lat="42.20306532366148" lon="14.399306318913421"><ele>335.0</ele><time>2026-04-23T14:38:35.998Z</time></trkpt><trkpt lat="42.202954845966836" lon="14.399359983598941"><ele>335.0</ele><time>2026-04-23T14:38:36.998Z</time></trkpt><trkpt lat="42.202833140809076" lon="14.399397872806995"><ele>335.0</ele><time>2026-04-23T14:38:37.998Z</time></trkpt><trkpt lat="42.20270823649569" lon="14.399396397880446"><ele>335.0</ele><time>2026-04-23T14:38:38.998Z</time></trkpt><trkpt lat="42.202589980977535" lon="14.399353236316854"><ele>335.0</ele><time>2026-04-23T14:38:39.998Z</time></trkpt><trkpt lat="42.20248153169231" lon="14.399276130481653"><ele>335.0</ele><time>2026-04-23T14:38:40.998Z</time></trkpt><trkpt lat="42.20238105385861" lon="14.39918589185361"><ele>335.0</ele><time>2026-04-23T14:38:41.998Z</time></trkpt><trkpt lat="42.202298281027936" lon="14.399060209245043"><ele>335.0</ele><time>2026-04-23T14:38:42.998Z</time></trkpt><trkpt lat="42.20223261668897" lon="14.398924166557626"><ele>335.0</ele><time>2026-04-23T14:38:43.998Z</time></trkpt><trkpt lat="42.20217100120277" lon="14.398801676949335"><ele>333.25</ele><time>2026-04-23T14:38:44.998Z</time></trkpt><trkpt lat="42.20204500065193" lon="14.39857473767962"><ele>331.5</ele><time>2026-04-23T14:38:46.998Z</time></trkpt><trkpt lat="42.201982130712416" lon="14.398460432508214"><ele>329.75</ele><time>2026-04-23T14:38:47.998Z</time></trkpt><trkpt lat="42.201920391279195" lon="14.398351189814171"><ele>328.0</ele><time>2026-04-23T14:38:48.998Z</time></trkpt><trkpt lat="42.2018707010065" lon="14.398257994363467"><ele>328.0</ele><time>2026-04-23T14:38:49.998Z</time></trkpt><trkpt lat="42.201824242321734" lon="14.398182541597794"><ele>328.0</ele><time>2026-04-23T14:38:51.998Z</time></trkpt><trkpt lat="42.201860036729386" lon="14.398282916904044"><ele>328.0</ele><time>2026-04-23T14:38:59.998Z</time></trkpt><trkpt lat="42.20194206244282" lon="14.39849047853026"><ele>328.0</ele><time>2026-04-23T14:39:00.998Z</time></trkpt><trkpt lat="42.20203371245977" lon="14.39864423034098"><ele>328.0</ele><time>2026-04-23T14:39:01.998Z</time></trkpt><trkpt lat="42.20211934573832" lon="14.398798027267436"><ele>328.0</ele><time>2026-04-23T14:39:02.998Z</time></trkpt><trkpt lat="42.20220261886409" lon="14.39895455799285"><ele>328.0</ele><time>2026-04-23T14:39:03.998Z</time></trkpt><trkpt lat="42.20227415649775" lon="14.399091219067257"><ele>328.0</ele><time>2026-04-23T14:39:04.998Z</time></trkpt><trkpt lat="42.20233634548381" lon="14.399208697842367"><ele>328.2</ele><time>2026-04-23T14:39:05.998Z</time></trkpt><trkpt lat="42.20238693329237" lon="14.39930966571758"><ele>328.4</ele><time>2026-04-23T14:39:06.998Z</time></trkpt><trkpt lat="42.20244610301199" lon="14.399428856059982"><ele>328.59999999999997</ele><time>2026-04-23T14:39:08.999Z</time></trkpt><trkpt lat="42.20243116415516" lon="14.399575833452943"><ele>328.79999999999995</ele><time>2026-04-23T14:39:40Z</time></trkpt><trkpt lat="42.202399808295155" lon="14.399736802592653"><ele>329.0</ele><time>2026-04-23T14:39:42Z</time></trkpt><trkpt lat="42.2023910356489" lon="14.399832545107085"><ele>329.0</ele><time>2026-04-23T14:39:43Z</time></trkpt><trkpt lat="42.202382536742014" lon="14.399935244857392"><ele>329.0</ele><time>2026-04-23T14:39:44Z</time></trkpt><trkpt lat="42.20237589772574" lon="14.400042038172224"><ele>329.0</ele><time>2026-04-23T14:39:45Z</time></trkpt><trkpt lat="42.20236933129952" lon="14.400159921045804"><ele>329.0</ele><time>2026-04-23T14:39:46Z</time></trkpt><trkpt lat="42.20236274046735" lon="14.40028457513379"><ele>329.0</ele><time>2026-04-23T14:39:47Z</time></trkpt><trkpt lat="42.20235650587402" lon="14.400426604252381"><ele>329.0</ele><time>2026-04-23T14:39:48Z</time></trkpt><trkpt lat="42.20234985241693" lon="14.400578175315054"><ele>326.75</ele><time>2026-04-23T14:39:49Z</time></trkpt><trkpt lat="42.20234252195679" lon="14.400737405978553"><ele>324.5</ele><time>2026-04-23T14:39:50Z</time></trkpt><trkpt lat="42.202339145749846" lon="14.400945955040061"><ele>322.25</ele><time>2026-04-23T14:39:51Z</time></trkpt><trkpt lat="42.2023463135735" lon="14.401132437004092"><ele>320.0</ele><time>2026-04-23T14:39:52Z</time></trkpt><trkpt lat="42.2023616724521" lon="14.401302022294423"><ele>319.0</ele><time>2026-04-23T14:39:53Z</time></trkpt><trkpt lat="42.20238372485227" lon="14.401462917679298"><ele>318.0</ele><time>2026-04-23T14:39:54Z</time></trkpt><trkpt lat="42.20240705937879" lon="14.401586659527696"><ele>317.0</ele><time>2026-04-23T14:39:55Z</time></trkpt><trkpt lat="42.20243963577372" lon="14.401666508755193"><ele>316.0</ele><time>2026-04-23T14:39:56Z</time></trkpt><trkpt lat="42.202412072917376" lon="14.401748455747533"><ele>315.0</ele><time>2026-04-23T14:39:58Z</time></trkpt><trkpt lat="42.20238824659949" lon="14.40186235207693"><ele>314.0</ele><time>2026-04-23T14:39:59Z</time></trkpt><trkpt lat="42.20233311699394" lon="14.402039180523147"><ele>313.0</ele><time>2026-04-23T14:40:00Z</time></trkpt><trkpt lat="42.20237666409413" lon="14.402244246863233"><ele>312.0</ele><time>2026-04-23T14:40:01Z</time></trkpt><trkpt lat="42.202414648963654" lon="14.402470195111436"><ele>311.0</ele><time>2026-04-23T14:40:02Z</time></trkpt><trkpt lat="42.20246528012048" lon="14.402686068747217"><ele>311.0</ele><time>2026-04-23T14:40:03Z</time></trkpt><trkpt lat="42.20251676185136" lon="14.402895862097372"><ele>311.0</ele><time>2026-04-23T14:40:04Z</time></trkpt><trkpt lat="42.202560765692695" lon="14.403084630871158"><ele>311.0</ele><time>2026-04-23T14:40:05Z</time></trkpt><trkpt lat="42.2025964815273" lon="14.403272796385076"><ele>311.5</ele><time>2026-04-23T14:40:06Z</time></trkpt><trkpt lat="42.20264088328046" lon="14.403450564797135"><ele>312.0</ele><time>2026-04-23T14:40:07Z</time></trkpt><trkpt lat="42.20268388775247" lon="14.403628568591495"><ele>312.5</ele><time>2026-04-23T14:40:08Z</time></trkpt><trkpt lat="42.202743054751565" lon="14.403806789611641"><ele>313.0</ele><time>2026-04-23T14:40:09Z</time></trkpt><trkpt lat="42.202787761607006" lon="14.403989508121505"><ele>315.5</ele><time>2026-04-23T14:40:10Z</time></trkpt><trkpt lat="42.20281865675308" lon="14.404171985402826"><ele>318.0</ele><time>2026-04-23T14:40:11Z</time></trkpt><trkpt lat="42.202860404503234" lon="14.4043370961378"><ele>320.5</ele><time>2026-04-23T14:40:12Z</time></trkpt><trkpt lat="42.202912375433904" lon="14.404503755336556"><ele>323.0</ele><time>2026-04-23T14:40:13Z</time></trkpt><trkpt lat="42.20295508563992" lon="14.404675181983833"><ele>323.0</ele><time>2026-04-23T14:40:14Z</time></trkpt><trkpt lat="42.20300002422084" lon="14.404848482396577"><ele>323.0</ele><time>2026-04-23T14:40:15Z</time></trkpt><trkpt lat="42.20305879902247" lon="14.405018927331021"><ele>323.0</ele><time>2026-04-23T14:40:16Z</time></trkpt><trkpt lat="42.20312350465997" lon="14.405181503981842"><ele>323.0</ele><time>2026-04-23T14:40:17Z</time></trkpt><trkpt lat="42.203186345983" lon="14.405341266690284"><ele>323.25</ele><time>2026-04-23T14:40:18Z</time></trkpt><trkpt lat="42.203243210176446" lon="14.405508147964655"><ele>323.5</ele><time>2026-04-23T14:40:19Z</time></trkpt><trkpt lat="42.20328487912168" lon="14.405676112754612"><ele>323.75</ele><time>2026-04-23T14:40:20Z</time></trkpt><trkpt lat="42.20334078234465" lon="14.405844719002593"><ele>324.0</ele><time>2026-04-23T14:40:21Z</time></trkpt><trkpt lat="42.2034007912377" lon="14.40601599284306"><ele>324.0</ele><time>2026-04-23T14:40:22Z</time></trkpt><trkpt lat="42.203437341053736" lon="14.406201175180927"><ele>324.0</ele><time>2026-04-23T14:40:23Z</time></trkpt><trkpt lat="42.20347864285985" lon="14.40637467902662"><ele>324.0</ele><time>2026-04-23T14:40:24Z</time></trkpt><trkpt lat="42.20352977921507" lon="14.40655024149391"><ele>324.0</ele><time>2026-04-23T14:40:25Z</time></trkpt><trkpt lat="42.20357194652854" lon="14.406725330349396"><ele>324.0</ele><time>2026-04-23T14:40:26Z</time></trkpt><trkpt lat="42.203616616257015" lon="14.406904189741484"><ele>324.0</ele><time>2026-04-23T14:40:27Z</time></trkpt><trkpt lat="42.203666677805735" lon="14.407075147659404"><ele>324.0</ele><time>2026-04-23T14:40:28Z</time></trkpt><trkpt lat="42.203740643940876" lon="14.407240923646858"><ele>324.0</ele><time>2026-04-23T14:40:29Z</time></trkpt><trkpt lat="42.20379145481563" lon="14.407419793148234"><ele>323.25</ele><time>2026-04-23T14:40:30Z</time></trkpt><trkpt lat="42.20383949314448" lon="14.407575348786633"><ele>322.5</ele><time>2026-04-23T14:40:31Z</time></trkpt><trkpt lat="42.20390101911152" lon="14.407739241117374"><ele>321.75</ele><time>2026-04-23T14:40:32Z</time></trkpt><trkpt lat="42.20395201720217" lon="14.407911818608156"><ele>321.0</ele><time>2026-04-23T14:40:33Z</time></trkpt><trkpt lat="42.20401079639895" lon="14.40807481111133"><ele>320.25</ele><time>2026-04-23T14:40:34Z</time></trkpt><trkpt lat="42.204065061980316" lon="14.408240178235578"><ele>319.5</ele><time>2026-04-23T14:40:35Z</time></trkpt><trkpt lat="42.2041167214169" lon="14.408411803439689"><ele>318.75</ele><time>2026-04-23T14:40:36Z</time></trkpt><trkpt lat="42.20414302718969" lon="14.408596572142178"><ele>318.0</ele><time>2026-04-23T14:40:37Z</time></trkpt><trkpt lat="42.204185588929846" lon="14.408775795831655"><ele>317.0</ele><time>2026-04-23T14:40:38Z</time></trkpt><trkpt lat="42.20424319552249" lon="14.408952094951093"><ele>316.0</ele><time>2026-04-23T14:40:39Z</time></trkpt><trkpt lat="42.20427966692849" lon="14.409127592724984"><ele>315.0</ele><time>2026-04-23T14:40:40Z</time></trkpt><trkpt lat="42.20430084309951" lon="14.409312196497156"><ele>314.0</ele><time>2026-04-23T14:40:41Z</time></trkpt><trkpt lat="42.20433277269118" lon="14.409502466881776"><ele>313.5</ele><time>2026-04-23T14:40:42Z</time></trkpt><trkpt lat="42.2043726985148" lon="14.409693631489588"><ele>313.0</ele><time>2026-04-23T14:40:43Z</time></trkpt><trkpt lat="42.204403519338676" lon="14.409889370432388"><ele>312.5</ele><time>2026-04-23T14:40:44Z</time></trkpt><trkpt lat="42.2044182715393" lon="14.410086685759843"><ele>312.0</ele><time>2026-04-23T14:40:45Z</time></trkpt><trkpt lat="42.20446504999" lon="14.41028023715266"><ele>312.0</ele><time>2026-04-23T14:40:46Z</time></trkpt><trkpt lat="42.204493432078465" lon="14.410478922637274"><ele>312.0</ele><time>2026-04-23T14:40:47Z</time></trkpt><trkpt lat="42.20454132198112" lon="14.41066436542321"><ele>312.0</ele><time>2026-04-23T14:40:48Z</time></trkpt><trkpt lat="42.20457621932789" lon="14.410854500914462"><ele>312.0</ele><time>2026-04-23T14:40:49Z</time></trkpt><trkpt lat="42.20462311187976" lon="14.411052402020436"><ele>311.0</ele><time>2026-04-23T14:40:50Z</time></trkpt><trkpt lat="42.20469749024304" lon="14.411231310507324"><ele>310.0</ele><time>2026-04-23T14:40:51Z</time></trkpt><trkpt lat="42.2047664212696" lon="14.411418371405535"><ele>309.0</ele><time>2026-04-23T14:40:52Z</time></trkpt><trkpt lat="42.20485158543597" lon="14.41159296517311"><ele>307.0</ele><time>2026-04-23T14:40:53Z</time></trkpt><trkpt lat="42.204912806109505" lon="14.411809521910602"><ele>305.0</ele><time>2026-04-23T14:40:54Z</time></trkpt><trkpt lat="42.20499707905291" lon="14.412017495661829"><ele>303.0</ele><time>2026-04-23T14:40:55Z</time></trkpt><trkpt lat="42.20504756257148" lon="14.412221041519825"><ele>303.0</ele><time>2026-04-23T14:40:56Z</time></trkpt><trkpt lat="42.20511273355312" lon="14.41239764167928"><ele>303.0</ele><time>2026-04-23T14:40:57Z</time></trkpt><trkpt lat="42.20517365342619" lon="14.412573896490773"><ele>303.0</ele><time>2026-04-23T14:40:58Z</time></trkpt><trkpt lat="42.20523056638045" lon="14.412746013710382"><ele>303.0</ele><time>2026-04-23T14:40:59Z</time></trkpt><trkpt lat="42.20528913780047" lon="14.412902226361211"><ele>302.5</ele><time>2026-04-23T14:41:00Z</time></trkpt><trkpt lat="42.20535545434242" lon="14.413041456277991"><ele>302.0</ele><time>2026-04-23T14:41:01Z</time></trkpt><trkpt lat="42.20542515575041" lon="14.413171282663573"><ele>301.5</ele><time>2026-04-23T14:41:02Z</time></trkpt><trkpt lat="42.2054955321119" lon="14.413293001012237"><ele>301.0</ele><time>2026-04-23T14:41:03Z</time></trkpt><trkpt lat="42.20556631228981" lon="14.413396150536178"><ele>301.0</ele><time>2026-04-23T14:41:04Z</time></trkpt><trkpt lat="42.20563473939562" lon="14.413497125264376"><ele>301.0</ele><time>2026-04-23T14:41:05Z</time></trkpt><trkpt lat="42.205704018624985" lon="14.413592823899176"><ele>301.0</ele><time>2026-04-23T14:41:06Z</time></trkpt><trkpt lat="42.205774247814716" lon="14.413692384429526"><ele>301.0</ele><time>2026-04-23T14:41:07Z</time></trkpt><trkpt lat="42.20583330718321" lon="14.413810987155182"><ele>301.0</ele><time>2026-04-23T14:41:08Z</time></trkpt><trkpt lat="42.205902780710865" lon="14.413916205534713"><ele>299.75</ele><time>2026-04-23T14:41:09Z</time></trkpt><trkpt lat="42.2059743883017" lon="14.414025322111558"><ele>298.5</ele><time>2026-04-23T14:41:10Z</time></trkpt><trkpt lat="42.20605042072778" lon="14.414137024304038"><ele>297.25</ele><time>2026-04-23T14:41:11Z</time></trkpt><trkpt lat="42.20611379007501" lon="14.414274469106745"><ele>296.0</ele><time>2026-04-23T14:41:12Z</time></trkpt><trkpt lat="42.20619154749543" lon="14.41440873699903"><ele>296.0</ele><time>2026-04-23T14:41:13Z</time></trkpt><trkpt lat="42.20627025815634" lon="14.414544192512523"><ele>296.0</ele><time>2026-04-23T14:41:14Z</time></trkpt><trkpt lat="42.20633357865571" lon="14.414698630712325"><ele>296.0</ele><time>2026-04-23T14:41:15Z</time></trkpt><trkpt lat="42.20639248171177" lon="14.41484969117473"><ele>296.0</ele><time>2026-04-23T14:41:16Z</time></trkpt><trkpt lat="42.20644717595175" lon="14.415011240409518"><ele>296.25</ele><time>2026-04-23T14:41:17Z</time></trkpt><trkpt lat="42.20649059214438" lon="14.415180361830705"><ele>296.5</ele><time>2026-04-23T14:41:18Z</time></trkpt><trkpt lat="42.20652767809727" lon="14.415360726040248"><ele>296.75</ele><time>2026-04-23T14:41:19Z</time></trkpt><trkpt lat="42.20656065537123" lon="14.415540941359934"><ele>297.0</ele><time>2026-04-23T14:41:20Z</time></trkpt><trkpt lat="42.20656720109335" lon="14.415731104877075"><ele>295.0</ele><time>2026-04-23T14:41:21Z</time></trkpt><trkpt lat="42.20659959136513" lon="14.415924425885475"><ele>293.0</ele><time>2026-04-23T14:41:22Z</time></trkpt><trkpt lat="42.20662454956954" lon="14.416124887695691"><ele>291.0</ele><time>2026-04-23T14:41:23Z</time></trkpt><trkpt lat="42.20665972256837" lon="14.416328680100015"><ele>290.5</ele><time>2026-04-23T14:41:24Z</time></trkpt><trkpt lat="42.20670490599122" lon="14.416535284871571"><ele>290.0</ele><time>2026-04-23T14:41:25Z</time></trkpt><trkpt lat="42.206801065731575" lon="14.416965742562654"><ele>290.33333333333337</ele><time>2026-04-23T14:41:27Z</time></trkpt><trkpt lat="42.20685171391682" lon="14.41718541812157"><ele>290.6666666666667</ele><time>2026-04-23T14:41:28Z</time></trkpt><trkpt lat="42.20690816608218" lon="14.417397799980375"><ele>291.0</ele><time>2026-04-23T14:41:29Z</time></trkpt><trkpt lat="42.2069654143152" lon="14.41758466316007"><ele>291.0</ele><time>2026-04-23T14:41:30Z</time></trkpt><trkpt lat="42.207023617400964" lon="14.417754528231232"><ele>291.0</ele><time>2026-04-23T14:41:31Z</time></trkpt><trkpt lat="42.20708631778135" lon="14.417910531686061"><ele>291.0</ele><time>2026-04-23T14:41:32Z</time></trkpt><trkpt lat="42.2071609848425" lon="14.41806661346587"><ele>291.0</ele><time>2026-04-23T14:41:33Z</time></trkpt><trkpt lat="42.20724275922089" lon="14.418222034983355"><ele>289.25</ele><time>2026-04-23T14:41:34Z</time></trkpt><trkpt lat="42.20733438340902" lon="14.418360382146203"><ele>287.5</ele><time>2026-04-23T14:41:35Z</time></trkpt><trkpt lat="42.207430689933496" lon="14.41849059730362"><ele>285.75</ele><time>2026-04-23T14:41:36Z</time></trkpt><trkpt lat="42.2075376308308" lon="14.418620380816161"><ele>284.0</ele><time>2026-04-23T14:41:37Z</time></trkpt><trkpt lat="42.207644385415605" lon="14.418765477613368"><ele>284.0</ele><time>2026-04-23T14:41:38Z</time></trkpt><trkpt lat="42.20775607513605" lon="14.418916468641727"><ele>284.0</ele><time>2026-04-23T14:41:39Z</time></trkpt><trkpt lat="42.20787359785454" lon="14.419072009474633"><ele>284.0</ele><time>2026-04-23T14:41:40Z</time></trkpt><trkpt lat="42.20799940902137" lon="14.419223216217883"><ele>284.0</ele><time>2026-04-23T14:41:41Z</time></trkpt><trkpt lat="42.208117799431655" lon="14.419393316590256"><ele>284.0</ele><time>2026-04-23T14:41:42Z</time></trkpt><trkpt lat="42.208234600240196" lon="14.419533825450241"><ele>284.0</ele><time>2026-04-23T14:41:43Z</time></trkpt><trkpt lat="42.208360778091794" lon="14.419652407460473"><ele>283.25</ele><time>2026-04-23T14:41:44Z</time></trkpt><trkpt lat="42.208458161012416" lon="14.419794642683868"><ele>282.5</ele><time>2026-04-23T14:41:45Z</time></trkpt><trkpt lat="42.20857070478673" lon="14.419895254088008"><ele>281.75</ele><time>2026-04-23T14:41:46Z</time></trkpt><trkpt lat="42.20866357547515" lon="14.420004944846017"><ele>281.0</ele><time>2026-04-23T14:41:47Z</time></trkpt><trkpt lat="42.20875540575895" lon="14.420111648556231"><ele>281.0</ele><time>2026-04-23T14:41:48Z</time></trkpt><trkpt lat="42.20884690993913" lon="14.420217781197513"><ele>281.0</ele><time>2026-04-23T14:41:49Z</time></trkpt><trkpt lat="42.20894161530183" lon="14.420325495429879"><ele>281.0</ele><time>2026-04-23T14:41:50Z</time></trkpt><trkpt lat="42.20903372689186" lon="14.420439856175369"><ele>281.0</ele><time>2026-04-23T14:41:51Z</time></trkpt><trkpt lat="42.209124331524094" lon="14.420557416444067"><ele>280.25</ele><time>2026-04-23T14:41:52Z</time></trkpt><trkpt lat="42.209214113748764" lon="14.420678398972278"><ele>279.5</ele><time>2026-04-23T14:41:53Z</time></trkpt><trkpt lat="42.20930508767583" lon="14.420802859291378"><ele>278.75</ele><time>2026-04-23T14:41:54Z</time></trkpt><trkpt lat="42.20939438563221" lon="14.42092875165522"><ele>278.0</ele><time>2026-04-23T14:41:55Z</time></trkpt><trkpt lat="42.20948158126496" lon="14.421054411873836"><ele>278.0</ele><time>2026-04-23T14:41:56Z</time></trkpt><trkpt lat="42.209567666779904" lon="14.421183675156042"><ele>278.0</ele><time>2026-04-23T14:41:57Z</time></trkpt><trkpt lat="42.2096523971838" lon="14.421303381999921"><ele>278.0</ele><time>2026-04-23T14:41:58Z</time></trkpt><trkpt lat="42.20973277155038" lon="14.421416743399437"><ele>278.0</ele><time>2026-04-23T14:41:59Z</time></trkpt><trkpt lat="42.20980993455778" lon="14.421527493990409"><ele>277.5</ele><time>2026-04-23T14:42:00Z</time></trkpt><trkpt lat="42.209884949761125" lon="14.421622896626772"><ele>277.0</ele><time>2026-04-23T14:42:01Z</time></trkpt><trkpt lat="42.209953036376994" lon="14.421724639402404"><ele>276.5</ele><time>2026-04-23T14:42:02Z</time></trkpt><trkpt lat="42.210009769051354" lon="14.421803475653828"><ele>276.0</ele><time>2026-04-23T14:42:03Z</time></trkpt><trkpt lat="42.21005932877123" lon="14.421868348561537"><ele>275.5</ele><time>2026-04-23T14:42:04Z</time></trkpt><trkpt lat="42.21009813550402" lon="14.42197357244101"><ele>275.0</ele><time>2026-04-23T14:42:06Z</time></trkpt><trkpt lat="42.209999338389736" lon="14.422090688725431"><ele>274.2</ele><time>2026-04-23T14:42:07Z</time></trkpt><trkpt lat="42.20997807899486" lon="14.422202251872838"><ele>273.4</ele><time>2026-04-23T14:42:08Z</time></trkpt><trkpt lat="42.20994094171081" lon="14.422333067726298"><ele>272.6</ele><time>2026-04-23T14:42:09Z</time></trkpt><trkpt lat="42.20990163009768" lon="14.42245607969693"><ele>271.8</ele><time>2026-04-23T14:42:10Z</time></trkpt><trkpt lat="42.209886198636624" lon="14.422586963541534"><ele>271.0</ele><time>2026-04-23T14:42:11Z</time></trkpt><trkpt lat="42.209893068796724" lon="14.422735355611463"><ele>271.0</ele><time>2026-04-23T14:42:12Z</time></trkpt><trkpt lat="42.209934050096585" lon="14.422865438777354"><ele>271.0</ele><time>2026-04-23T14:42:13Z</time></trkpt><trkpt lat="42.20996638559321" lon="14.422978430509584"><ele>271.0</ele><time>2026-04-23T14:42:14Z</time></trkpt><trkpt lat="42.2099843138012" lon="14.423097960666734"><ele>271.0</ele><time>2026-04-23T14:42:15Z</time></trkpt><trkpt lat="42.210024549572786" lon="14.423201629831015"><ele>271.0</ele><time>2026-04-23T14:42:16Z</time></trkpt><trkpt lat="42.21003021286272" lon="14.423322636064446"><ele>270.0</ele><time>2026-04-23T14:42:17Z</time></trkpt><trkpt lat="42.21001011543075" lon="14.423414098789276"><ele>269.0</ele><time>2026-04-23T14:42:18Z</time></trkpt><trkpt lat="42.21000050601742" lon="14.423520260992793"><ele>268.0</ele><time>2026-04-23T14:42:20Z</time></trkpt><trkpt lat="42.21010178866067" lon="14.423597086454384"><ele>267.0</ele><time>2026-04-23T14:42:22Z</time></trkpt><trkpt lat="42.210164199424156" lon="14.423627275428215"><ele>266.0</ele><time>2026-04-23T14:42:23Z</time></trkpt><trkpt lat="42.21023450808238" lon="14.423652086254124"><ele>265.0</ele><time>2026-04-23T14:42:24Z</time></trkpt><trkpt lat="42.2103057614797" lon="14.423688028327788"><ele>264.99999999999994</ele><time>2026-04-23T14:42:25Z</time></trkpt><trkpt lat="42.21037417551868" lon="14.423728730830048"><ele>265.0</ele><time>2026-04-23T14:42:26Z</time></trkpt><trkpt lat="42.21044017606216" lon="14.423768408581743"><ele>265.0</ele><time>2026-04-23T14:42:27Z</time></trkpt><trkpt lat="42.210497993313155" lon="14.423809450014437"><ele>265.0</ele><time>2026-04-23T14:42:28Z</time></trkpt><trkpt lat="42.210561512121274" lon="14.423847615030816"><ele>265.0</ele><time>2026-04-23T14:42:29Z</time></trkpt><trkpt lat="42.210633063439275" lon="14.423862841187313"><ele>264.99999999999994</ele><time>2026-04-23T14:42:30Z</time></trkpt><trkpt lat="42.21069830390569" lon="14.423844352020877"><ele>265.0</ele><time>2026-04-23T14:42:31Z</time></trkpt><trkpt lat="42.2108233114823" lon="14.423768964884147"><ele>266.2</ele><time>2026-04-23T14:42:33Z</time></trkpt><trkpt lat="42.21091493036086" lon="14.423720938922"><ele>267.4</ele><time>2026-04-23T14:42:36Z</time></trkpt><trkpt lat="42.21098621821779" lon="14.423660955140479"><ele>268.6</ele><time>2026-04-23T14:42:37Z</time></trkpt><trkpt lat="42.211065006692365" lon="14.42360289509333"><ele>269.8</ele><time>2026-04-23T14:42:38Z</time></trkpt><trkpt lat="42.21115607585122" lon="14.423544119033926"><ele>271.0</ele><time>2026-04-23T14:42:39Z</time></trkpt><trkpt lat="42.21124156465486" lon="14.423484364584809"><ele>271.0</ele><time>2026-04-23T14:42:40Z</time></trkpt><trkpt lat="42.211321438778135" lon="14.423422781418573"><ele>271.0</ele><time>2026-04-23T14:42:41Z</time></trkpt><trkpt lat="42.21140913751811" lon="14.423354727707936"><ele>271.0</ele><time>2026-04-23T14:42:42Z</time></trkpt><trkpt lat="42.211499947137824" lon="14.423282696693077"><ele>271.0</ele><time>2026-04-23T14:42:43Z</time></trkpt><trkpt lat="42.21159297455919" lon="14.423211233290527"><ele>271.0</ele><time>2026-04-23T14:42:44Z</time></trkpt><trkpt lat="42.21168753443834" lon="14.423138560674449"><ele>271.25</ele><time>2026-04-23T14:42:45Z</time></trkpt><trkpt lat="42.21178730973572" lon="14.423066178684024"><ele>271.5</ele><time>2026-04-23T14:42:46Z</time></trkpt><trkpt lat="42.21188561981026" lon="14.422991286693382"><ele>271.75</ele><time>2026-04-23T14:42:47Z</time></trkpt><trkpt lat="42.21198253394902" lon="14.42291686829887"><ele>272.0</ele><time>2026-04-23T14:42:48Z</time></trkpt><trkpt lat="42.21208169091877" lon="14.422841432012264"><ele>272.0</ele><time>2026-04-23T14:42:49Z</time></trkpt><trkpt lat="42.212185427995465" lon="14.422762799046003"><ele>272.0</ele><time>2026-04-23T14:42:50Z</time></trkpt><trkpt lat="42.21228963848253" lon="14.422679866849286"><ele>272.0</ele><time>2026-04-23T14:42:51Z</time></trkpt><trkpt lat="42.21239526789765" lon="14.42259676770177"><ele>272.0</ele><time>2026-04-23T14:42:52Z</time></trkpt><trkpt lat="42.21249836524817" lon="14.422516800904555"><ele>271.75</ele><time>2026-04-23T14:42:53Z</time></trkpt><trkpt lat="42.212596973369784" lon="14.422441280368153"><ele>271.5</ele><time>2026-04-23T14:42:54Z</time></trkpt><trkpt lat="42.21269825277173" lon="14.422362775778447"><ele>271.25</ele><time>2026-04-23T14:42:55Z</time></trkpt><trkpt lat="42.21280104629329" lon="14.42228197790913"><ele>271.0</ele><time>2026-04-23T14:42:56Z</time></trkpt><trkpt lat="42.21290419342678" lon="14.422203370851978"><ele>270.75</ele><time>2026-04-23T14:42:57Z</time></trkpt><trkpt lat="42.21300834169931" lon="14.422125345465417"><ele>270.5</ele><time>2026-04-23T14:42:58Z</time></trkpt><trkpt lat="42.21310806012001" lon="14.4220479342613"><ele>270.25</ele><time>2026-04-23T14:42:59Z</time></trkpt><trkpt lat="42.21320743192489" lon="14.42197926865114"><ele>270.0</ele><time>2026-04-23T14:43:00Z</time></trkpt><trkpt lat="42.21330829055535" lon="14.421929208466175"><ele>268.6</ele><time>2026-04-23T14:43:01Z</time></trkpt><trkpt lat="42.21341663436044" lon="14.42193203656016"><ele>267.2</ele><time>2026-04-23T14:43:02Z</time></trkpt><trkpt lat="42.21352190166079" lon="14.421919672399559"><ele>265.8</ele><time>2026-04-23T14:43:03Z</time></trkpt><trkpt lat="42.21362685122815" lon="14.421959980519562"><ele>264.4</ele><time>2026-04-23T14:43:04Z</time></trkpt><trkpt lat="42.21371443217178" lon="14.422025188871443"><ele>263.0</ele><time>2026-04-23T14:43:05Z</time></trkpt><trkpt lat="42.21381629934043" lon="14.422124553710002"><ele>263.2</ele><time>2026-04-23T14:43:07Z</time></trkpt><trkpt lat="42.21386631518755" lon="14.422186351742441"><ele>263.4</ele><time>2026-04-23T14:43:08Z</time></trkpt><trkpt lat="42.21390641712294" lon="14.422298470354923"><ele>263.59999999999997</ele><time>2026-04-23T14:43:09Z</time></trkpt><trkpt lat="42.21396321003385" lon="14.422406082516822"><ele>263.8</ele><time>2026-04-23T14:43:10Z</time></trkpt><trkpt lat="42.2140352070942" lon="14.422508418884792"><ele>264.0</ele><time>2026-04-23T14:43:11Z</time></trkpt><trkpt lat="42.2140960948985" lon="14.422627353954681"><ele>264.0</ele><time>2026-04-23T14:43:12Z</time></trkpt><trkpt lat="42.21416045033246" lon="14.422755726872174"><ele>264.0</ele><time>2026-04-23T14:43:13Z</time></trkpt><trkpt lat="42.21422896904519" lon="14.422895401538426"><ele>264.0</ele><time>2026-04-23T14:43:14Z</time></trkpt><trkpt lat="42.21429137365459" lon="14.423039724779288"><ele>264.0</ele><time>2026-04-23T14:43:15Z</time></trkpt><trkpt lat="42.21436148442274" lon="14.42318155328118"><ele>264.0</ele><time>2026-04-23T14:43:16Z</time></trkpt><trkpt lat="42.214421643524865" lon="14.423330188008263"><ele>264.0</ele><time>2026-04-23T14:43:17Z</time></trkpt><trkpt lat="42.21447581092434" lon="14.42347457137258"><ele>264.0</ele><time>2026-04-23T14:43:18Z</time></trkpt><trkpt lat="42.21452628396695" lon="14.423609568034765"><ele>264.0</ele><time>2026-04-23T14:43:19Z</time></trkpt><trkpt lat="42.21456914346192" lon="14.423740676753761"><ele>263.59999999999997</ele><time>2026-04-23T14:43:20Z</time></trkpt><trkpt lat="42.21460487161823" lon="14.423876052247275"><ele>263.2</ele><time>2026-04-23T14:43:21Z</time></trkpt><trkpt lat="42.21462707990352" lon="14.424008437599744"><ele>262.79999999999995</ele><time>2026-04-23T14:43:22Z</time></trkpt><trkpt lat="42.21461110314505" lon="14.424141660462825"><ele>262.4</ele><time>2026-04-23T14:43:23Z</time></trkpt><trkpt lat="42.21459731649576" lon="14.424267587792775"><ele>262.0</ele><time>2026-04-23T14:43:24Z</time></trkpt><trkpt lat="42.21459665842172" lon="14.424384034174274"><ele>262.0</ele><time>2026-04-23T14:43:25Z</time></trkpt><trkpt lat="42.2145803302994" lon="14.424486066808024"><ele>262.0</ele><time>2026-04-23T14:43:26Z</time></trkpt><trkpt lat="42.21456102708185" lon="14.424582262553598"><ele>262.0</ele><time>2026-04-23T14:43:27Z</time></trkpt><trkpt lat="42.21456706776956" lon="14.424679203004327"><ele>262.0</ele><time>2026-04-23T14:43:28Z</time></trkpt><trkpt lat="42.21458392474308" lon="14.424773157798302"><ele>262.0</ele><time>2026-04-23T14:43:29Z</time></trkpt><trkpt lat="42.21462040491242" lon="14.424862729640315"><ele>262.0</ele><time>2026-04-23T14:43:30Z</time></trkpt><trkpt lat="42.21466864700392" lon="14.424922624495744"><ele>262.0</ele><time>2026-04-23T14:43:31Z</time></trkpt><trkpt lat="42.21472278065737" lon="14.424968224789746"><ele>262.0</ele><time>2026-04-23T14:43:33Z</time></trkpt><trkpt lat="42.21478312139407" lon="14.425010886422081"><ele>262.0</ele><time>2026-04-23T14:43:41Z</time></trkpt><trkpt lat="42.214778744278405" lon="14.425116578697592"><ele>262.0</ele><time>2026-04-23T14:43:43Z</time></trkpt><trkpt lat="42.21478875145653" lon="14.42528312756602"><ele>262.0</ele><time>2026-04-23T14:43:45Z</time></trkpt><trkpt lat="42.21478836461557" lon="14.425386233902355"><ele>262.0</ele><time>2026-04-23T14:43:46Z</time></trkpt><trkpt lat="42.214788175027245" lon="14.425484861278482"><ele>262.0</ele><time>2026-04-23T14:43:47Z</time></trkpt><trkpt lat="42.21479010875092" lon="14.4255916035808"><ele>262.0</ele><time>2026-04-23T14:43:48Z</time></trkpt><trkpt lat="42.214794490505554" lon="14.425700392049352"><ele>262.0</ele><time>2026-04-23T14:43:49Z</time></trkpt><trkpt lat="42.21479318754692" lon="14.425806295663872"><ele>262.0</ele><time>2026-04-23T14:43:50Z</time></trkpt><trkpt lat="42.21483234408714" lon="14.425898331602127"><ele>262.0</ele><time>2026-04-23T14:43:51Z</time></trkpt><trkpt lat="42.21490711704507" lon="14.4259150166884"><ele>262.0</ele><time>2026-04-23T14:43:52Z</time></trkpt><trkpt lat="42.21497106776031" lon="14.425936016204746"><ele>262.0</ele><time>2026-04-23T14:43:53Z</time></trkpt><trkpt lat="42.21502960748708" lon="14.42585054447319"><ele>262.0</ele><time>2026-04-23T14:43:54Z</time></trkpt><trkpt lat="42.21509217341154" lon="14.42579852790347"><ele>262.0</ele><time>2026-04-23T14:43:55Z</time></trkpt><trkpt lat="42.215088948452745" lon="14.425624360517233"><ele>262.0</ele><time>2026-04-23T14:43:56Z</time></trkpt><trkpt lat="42.21510095746758" lon="14.425483135650136"><ele>262.0</ele><time>2026-04-23T14:43:57Z</time></trkpt><trkpt lat="42.215106463664135" lon="14.42533708001417"><ele>262.0</ele><time>2026-04-23T14:43:58Z</time></trkpt><trkpt lat="42.215102998727666" lon="14.425204138869876"><ele>262.0</ele><time>2026-04-23T14:43:59Z</time></trkpt><trkpt lat="42.215091466771646" lon="14.425077073925008"><ele>262.0</ele><time>2026-04-23T14:44:00Z</time></trkpt><trkpt lat="42.21507085654581" lon="14.42496611584524"><ele>262.0</ele><time>2026-04-23T14:44:01Z</time></trkpt><trkpt lat="42.21503700829605" lon="14.424865846291869"><ele>262.0</ele><time>2026-04-23T14:44:02Z</time></trkpt><trkpt lat="42.21500849980928" lon="14.424758313912154"><ele>262.0</ele><time>2026-04-23T14:44:03Z</time></trkpt><trkpt lat="42.21499399263447" lon="14.424647173979206"><ele>262.0</ele><time>2026-04-23T14:44:04Z</time></trkpt><trkpt lat="42.21499696132559" lon="14.424524663639176"><ele>262.0</ele><time>2026-04-23T14:44:05Z</time></trkpt><trkpt lat="42.215008407242486" lon="14.424400477346822"><ele>262.0</ele><time>2026-04-23T14:44:06Z</time></trkpt><trkpt lat="42.21502406212658" lon="14.424271860734843"><ele>262.0</ele><time>2026-04-23T14:44:07Z</time></trkpt><trkpt lat="42.215039751171716" lon="14.424136779585604"><ele>262.0</ele><time>2026-04-23T14:44:08Z</time></trkpt><trkpt lat="42.215057620227356" lon="14.423996772997654"><ele>262.0</ele><time>2026-04-23T14:44:09Z</time></trkpt><trkpt lat="42.215076123506726" lon="14.423851150249675"><ele>261.75</ele><time>2026-04-23T14:44:10Z</time></trkpt><trkpt lat="42.21509428990882" lon="14.423701672821938"><ele>261.5</ele><time>2026-04-23T14:44:11Z</time></trkpt><trkpt lat="42.215111281805726" lon="14.423548199610831"><ele>261.25</ele><time>2026-04-23T14:44:12Z</time></trkpt><trkpt lat="42.21512996208179" lon="14.423391439940298"><ele>261.0</ele><time>2026-04-23T14:44:13Z</time></trkpt><trkpt lat="42.215148128961445" lon="14.423232635691669"><ele>261.0</ele><time>2026-04-23T14:44:14Z</time></trkpt><trkpt lat="42.215167174022625" lon="14.423073456596656"><ele>261.0</ele><time>2026-04-23T14:44:15Z</time></trkpt><trkpt lat="42.21518784824216" lon="14.422918962053995"><ele>261.0</ele><time>2026-04-23T14:44:16Z</time></trkpt><trkpt lat="42.21520982710211" lon="14.422767995709483"><ele>261.0</ele><time>2026-04-23T14:44:17Z</time></trkpt><trkpt lat="42.215233979997365" lon="14.42260627257072"><ele>260.25</ele><time>2026-04-23T14:44:18Z</time></trkpt><trkpt lat="42.21525888509413" lon="14.4224401550221"><ele>259.5</ele><time>2026-04-23T14:44:19Z</time></trkpt><trkpt lat="42.215285718143406" lon="14.422269757924616"><ele>258.75</ele><time>2026-04-23T14:44:20Z</time></trkpt><trkpt lat="42.215314360789975" lon="14.422104365801587"><ele>258.0</ele><time>2026-04-23T14:44:21Z</time></trkpt><trkpt lat="42.21534035166696" lon="14.421953937140698"><ele>257.8</ele><time>2026-04-23T14:44:22Z</time></trkpt><trkpt lat="42.21536539456678" lon="14.421805975548583"><ele>257.6</ele><time>2026-04-23T14:44:23Z</time></trkpt><trkpt lat="42.2153931459369" lon="14.421659140471727"><ele>257.4</ele><time>2026-04-23T14:44:24Z</time></trkpt><trkpt lat="42.21542139354646" lon="14.421513588382597"><ele>257.2</ele><time>2026-04-23T14:44:25Z</time></trkpt><trkpt lat="42.21545034690056" lon="14.421367026145022"><ele>257.0</ele><time>2026-04-23T14:44:26Z</time></trkpt><trkpt lat="42.21547644819442" lon="14.421220458061946"><ele>257.0</ele><time>2026-04-23T14:44:27Z</time></trkpt><trkpt lat="42.21550597779712" lon="14.421075437263658"><ele>257.0</ele><time>2026-04-23T14:44:28Z</time></trkpt><trkpt lat="42.21554030679724" lon="14.420931747806325"><ele>257.0</ele><time>2026-04-23T14:44:29Z</time></trkpt><trkpt lat="42.21557762190691" lon="14.420787706609199"><ele>257.0</ele><time>2026-04-23T14:44:30Z</time></trkpt><trkpt lat="42.215659337392594" lon="14.420513273822833"><ele>258.0</ele><time>2026-04-23T14:44:32Z</time></trkpt><trkpt lat="42.215703767722786" lon="14.420399192441026"><ele>259.0</ele><time>2026-04-23T14:44:33Z</time></trkpt><trkpt lat="42.21572966500085" lon="14.42029282327791"><ele>260.0</ele><time>2026-04-23T14:44:34Z</time></trkpt><trkpt lat="42.215816920881245" lon="14.42023191533938"><ele>261.0</ele><time>2026-04-23T14:44:35Z</time></trkpt><trkpt lat="42.2158878563166" lon="14.420200640030094"><ele>262.0</ele><time>2026-04-23T14:44:36Z</time></trkpt><trkpt lat="42.21597049302152" lon="14.420174445656489"><ele>263.0</ele><time>2026-04-23T14:44:37Z</time></trkpt><trkpt lat="42.21606393446458" lon="14.420143963794839"><ele>263.0</ele><time>2026-04-23T14:44:38Z</time></trkpt><trkpt lat="42.21615686547411" lon="14.42009718571384"><ele>263.0</ele><time>2026-04-23T14:44:39Z</time></trkpt><trkpt lat="42.216243246695534" lon="14.420053504931312"><ele>263.0</ele><time>2026-04-23T14:44:40Z</time></trkpt><trkpt lat="42.216343087961164" lon="14.42002308113693"><ele>263.0</ele><time>2026-04-23T14:44:41Z</time></trkpt><trkpt lat="42.21642826384143" lon="14.420070491120606"><ele>263.0</ele><time>2026-04-23T14:44:42Z</time></trkpt><trkpt lat="42.21654114842916" lon="14.42010179138618"><ele>263.75</ele><time>2026-04-23T14:44:43Z</time></trkpt><trkpt lat="42.21666129726208" lon="14.420122418771227"><ele>264.5</ele><time>2026-04-23T14:44:44Z</time></trkpt><trkpt lat="42.21679394284624" lon="14.420161347969854"><ele>265.25</ele><time>2026-04-23T14:44:45Z</time></trkpt><trkpt lat="42.21692752822484" lon="14.420179741033042"><ele>266.0</ele><time>2026-04-23T14:44:46Z</time></trkpt><trkpt lat="42.21705182668625" lon="14.420190667505041"><ele>266.0</ele><time>2026-04-23T14:44:47Z</time></trkpt><trkpt lat="42.217164243695784" lon="14.420191391777426"><ele>266.0</ele><time>2026-04-23T14:44:48Z</time></trkpt><trkpt lat="42.21726032909604" lon="14.420188633246843"><ele>266.0</ele><time>2026-04-23T14:44:49Z</time></trkpt><trkpt lat="42.2173416799137" lon="14.420202773736873"><ele>266.0</ele><time>2026-04-23T14:44:50Z</time></trkpt><trkpt lat="42.21740358756422" lon="14.420263615625391"><ele>266.0</ele><time>2026-04-23T14:44:51Z</time></trkpt><trkpt lat="42.21743899734756" lon="14.42040040000256"><ele>264.33333333333337</ele><time>2026-04-23T14:44:52Z</time></trkpt><trkpt lat="42.21753738973994" lon="14.420527632843312"><ele>262.6666666666667</ele><time>2026-04-23T14:44:53Z</time></trkpt><trkpt lat="42.217638499103266" lon="14.420687492113835"><ele>261.0</ele><time>2026-04-23T14:44:54Z</time></trkpt><trkpt lat="42.21774769856043" lon="14.420843757383244"><ele>261.0</ele><time>2026-04-23T14:44:55Z</time></trkpt><trkpt lat="42.21785091510164" lon="14.420996516322306"><ele>261.0</ele><time>2026-04-23T14:44:56Z</time></trkpt><trkpt lat="42.21796080241659" lon="14.421152642528034"><ele>261.0</ele><time>2026-04-23T14:44:57Z</time></trkpt><trkpt lat="42.21807905329045" lon="14.421314128460255"><ele>260.3333333333333</ele><time>2026-04-23T14:44:58Z</time></trkpt><trkpt lat="42.2181938972301" lon="14.42148474560262"><ele>259.66666666666663</ele><time>2026-04-23T14:44:59Z</time></trkpt><trkpt lat="42.21831744298108" lon="14.421660581552333"><ele>259.0</ele><time>2026-04-23T14:45:00Z</time></trkpt><trkpt lat="42.21844287333977" lon="14.421843280809927"><ele>259.0</ele><time>2026-04-23T14:45:01Z</time></trkpt><trkpt lat="42.21854492756679" lon="14.422057946655153"><ele>259.0</ele><time>2026-04-23T14:45:02Z</time></trkpt><trkpt lat="42.218655700456075" lon="14.422279190030086"><ele>259.0</ele><time>2026-04-23T14:45:03Z</time></trkpt><trkpt lat="42.21877007159917" lon="14.422500991838623"><ele>258.0</ele><time>2026-04-23T14:45:04Z</time></trkpt><trkpt lat="42.21888968961119" lon="14.422705787457458"><ele>257.0</ele><time>2026-04-23T14:45:05Z</time></trkpt><trkpt lat="42.21899235006912" lon="14.422910808838981"><ele>256.0</ele><time>2026-04-23T14:45:06Z</time></trkpt><trkpt lat="42.219093489155405" lon="14.42309979549991"><ele>254.25</ele><time>2026-04-23T14:45:07Z</time></trkpt><trkpt lat="42.219193191149884" lon="14.42326198503247"><ele>252.5</ele><time>2026-04-23T14:45:08Z</time></trkpt><trkpt lat="42.21929498303991" lon="14.423382350979121"><ele>250.75</ele><time>2026-04-23T14:45:09Z</time></trkpt><trkpt lat="42.21941820529531" lon="14.423449839311182"><ele>249.0</ele><time>2026-04-23T14:45:10Z</time></trkpt><trkpt lat="42.219560538122614" lon="14.42347159793591"><ele>249.0</ele><time>2026-04-23T14:45:11Z</time></trkpt><trkpt lat="42.219727031406535" lon="14.42347493138258"><ele>249.0</ele><time>2026-04-23T14:45:12Z</time></trkpt><trkpt lat="42.219906058526234" lon="14.423484579326358"><ele>249.0</ele><time>2026-04-23T14:45:13Z</time></trkpt><trkpt lat="42.22008796494595" lon="14.423505470875995"><ele>249.66666666666669</ele><time>2026-04-23T14:45:14Z</time></trkpt><trkpt lat="42.22025573961096" lon="14.423532552700125"><ele>250.33333333333334</ele><time>2026-04-23T14:45:15Z</time></trkpt><trkpt lat="42.22042700990141" lon="14.42356122602823"><ele>251.0</ele><time>2026-04-23T14:45:16Z</time></trkpt><trkpt lat="42.2205977961671" lon="14.423594546701054"><ele>251.33333333333334</ele><time>2026-04-23T14:45:17Z</time></trkpt><trkpt lat="42.22076575923092" lon="14.423626988509655"><ele>251.66666666666669</ele><time>2026-04-23T14:45:18Z</time></trkpt><trkpt lat="42.22093599470713" lon="14.423659378500357"><ele>252.0</ele><time>2026-04-23T14:45:19Z</time></trkpt><trkpt lat="42.22111002949066" lon="14.42369241468354"><ele>252.0</ele><time>2026-04-23T14:45:20Z</time></trkpt><trkpt lat="42.221271830172945" lon="14.423755480524427"><ele>252.0</ele><time>2026-04-23T14:45:21Z</time></trkpt><trkpt lat="42.22144337276615" lon="14.423785650639187"><ele>252.0</ele><time>2026-04-23T14:45:22Z</time></trkpt><trkpt lat="42.2216048193404" lon="14.423842899755213"><ele>251.33333333333331</ele><time>2026-04-23T14:45:23Z</time></trkpt><trkpt lat="42.22176807425404" lon="14.423902650258098"><ele>250.66666666666666</ele><time>2026-04-23T14:45:24Z</time></trkpt><trkpt lat="42.22193459986886" lon="14.423961741449322"><ele>250.0</ele><time>2026-04-23T14:45:25Z</time></trkpt><trkpt lat="42.222096853149196" lon="14.424030525497065"><ele>250.0</ele><time>2026-04-23T14:45:26Z</time></trkpt><trkpt lat="42.22226055738998" lon="14.424109486002102"><ele>250.0</ele><time>2026-04-23T14:45:27Z</time></trkpt><trkpt lat="42.22242732998391" lon="14.424196235805027"><ele>250.0</ele><time>2026-04-23T14:45:28Z</time></trkpt><trkpt lat="42.22258282480872" lon="14.424293308385751"><ele>250.0</ele><time>2026-04-23T14:45:29Z</time></trkpt><trkpt lat="42.222725832370074" lon="14.42438586818757"><ele>250.0</ele><time>2026-04-23T14:45:30Z</time></trkpt><trkpt lat="42.22287403211204" lon="14.424475282635534"><ele>250.0</ele><time>2026-04-23T14:45:31Z</time></trkpt><trkpt lat="42.223016415709466" lon="14.424566720974026"><ele>249.66666666666666</ele><time>2026-04-23T14:45:32Z</time></trkpt><trkpt lat="42.223160106573765" lon="14.424668592877918"><ele>249.33333333333331</ele><time>2026-04-23T14:45:33Z</time></trkpt><trkpt lat="42.223302768789026" lon="14.424776437255147"><ele>249.0</ele><time>2026-04-23T14:45:34Z</time></trkpt><trkpt lat="42.22344307280331" lon="14.424889814090053"><ele>249.0</ele><time>2026-04-23T14:45:35Z</time></trkpt><trkpt lat="42.22356557356579" lon="14.425032147108897"><ele>249.0</ele><time>2026-04-23T14:45:36Z</time></trkpt><trkpt lat="42.22383493597098" lon="14.425290719750171"><ele>249.0</ele><time>2026-04-23T14:45:38Z</time></trkpt><trkpt lat="42.22396377761051" lon="14.425433270633421"><ele>249.0</ele><time>2026-04-23T14:45:39Z</time></trkpt><trkpt lat="42.22408979401094" lon="14.425565534144962"><ele>249.0</ele><time>2026-04-23T14:45:40Z</time></trkpt><trkpt lat="42.224219262188264" lon="14.425706047549367"><ele>248.0</ele><time>2026-04-23T14:45:41Z</time></trkpt><trkpt lat="42.2243475977091" lon="14.42585337029871"><ele>247.0</ele><time>2026-04-23T14:45:42Z</time></trkpt><trkpt lat="42.22447276189812" lon="14.426003031646003"><ele>246.0</ele><time>2026-04-23T14:45:43Z</time></trkpt><trkpt lat="42.2245969917397" lon="14.426160304754026"><ele>246.0</ele><time>2026-04-23T14:45:44Z</time></trkpt><trkpt lat="42.22471955999735" lon="14.426313099213225"><ele>246.0</ele><time>2026-04-23T14:45:45Z</time></trkpt><trkpt lat="42.22484485401184" lon="14.426476522046933"><ele>246.0</ele><time>2026-04-23T14:45:46Z</time></trkpt><trkpt lat="42.2249707768766" lon="14.42663739234549"><ele>246.0</ele><time>2026-04-23T14:45:47Z</time></trkpt><trkpt lat="42.22509817681633" lon="14.426801081361317"><ele>246.0</ele><time>2026-04-23T14:45:48Z</time></trkpt><trkpt lat="42.225222218045346" lon="14.426967216443852"><ele>246.0</ele><time>2026-04-23T14:45:49Z</time></trkpt><trkpt lat="42.22535717622573" lon="14.427118339435188"><ele>245.66666666666669</ele><time>2026-04-23T14:45:50Z</time></trkpt><trkpt lat="42.22548356944258" lon="14.42725875479973"><ele>245.33333333333334</ele><time>2026-04-23T14:45:51Z</time></trkpt><trkpt lat="42.2256010709938" lon="14.427394805824225"><ele>245.0</ele><time>2026-04-23T14:45:52Z</time></trkpt><trkpt lat="42.22571237407758" lon="14.427521278483871"><ele>244.75</ele><time>2026-04-23T14:45:53Z</time></trkpt><trkpt lat="42.225822014404216" lon="14.427640721182403"><ele>244.5</ele><time>2026-04-23T14:45:54Z</time></trkpt><trkpt lat="42.22592592525478" lon="14.427743338912155"><ele>244.25</ele><time>2026-04-23T14:45:55Z</time></trkpt><trkpt lat="42.226011811742005" lon="14.42783183884947"><ele>244.0</ele><time>2026-04-23T14:45:56Z</time></trkpt><trkpt lat="42.22607231535967" lon="14.427891907783412"><ele>243.99999999999997</ele><time>2026-04-23T14:45:57Z</time></trkpt><trkpt lat="42.226141899046105" lon="14.427940060088954"><ele>244.0</ele><time>2026-04-23T14:45:59Z</time></trkpt><trkpt lat="42.226183823430645" lon="14.427859085612289"><ele>244.0</ele><time>2026-04-23T14:46:01Z</time></trkpt><trkpt lat="42.22621905590201" lon="14.427756878854273"><ele>244.0</ele><time>2026-04-23T14:46:02Z</time></trkpt><trkpt lat="42.22625735859469" lon="14.427640646208545"><ele>243.99999999999997</ele><time>2026-04-23T14:46:03Z</time></trkpt><trkpt lat="42.226304485094154" lon="14.427519789244188"><ele>244.0</ele><time>2026-04-23T14:46:04Z</time></trkpt><trkpt lat="42.226348438110676" lon="14.427387427021607"><ele>244.0</ele><time>2026-04-23T14:46:05Z</time></trkpt><trkpt lat="42.226393626704116" lon="14.427258019357653"><ele>243.99999999999997</ele><time>2026-04-23T14:46:06Z</time></trkpt><trkpt lat="42.226451885256054" lon="14.427112273114636"><ele>243.99999999999997</ele><time>2026-04-23T14:46:07Z</time></trkpt><trkpt lat="42.22650229927112" lon="14.426978389861118"><ele>244.0</ele><time>2026-04-23T14:46:08Z</time></trkpt><trkpt lat="42.226547835039376" lon="14.426862557009011"><ele>244.0</ele><time>2026-04-23T14:46:09Z</time></trkpt><trkpt lat="42.22659596710249" lon="14.42678827301256"><ele>244.0</ele><time>2026-04-23T14:46:10Z</time></trkpt><trkpt lat="42.226719283419754" lon="14.426777769925678"><ele>243.99999999999997</ele><time>2026-04-23T14:46:12Z</time></trkpt><trkpt lat="42.22678407122779" lon="14.426852319404013"><ele>243.99999999999997</ele><time>2026-04-23T14:46:13Z</time></trkpt><trkpt lat="42.226874383691936" lon="14.426917914132982"><ele>244.0</ele><time>2026-04-23T14:46:14Z</time></trkpt><trkpt lat="42.22696159626071" lon="14.42701043428548"><ele>244.0</ele><time>2026-04-23T14:46:15Z</time></trkpt><trkpt lat="42.22705943426172" lon="14.427102185046984"><ele>243.75</ele><time>2026-04-23T14:46:16Z</time></trkpt><trkpt lat="42.2271675663535" lon="14.427192650474595"><ele>243.5</ele><time>2026-04-23T14:46:17Z</time></trkpt><trkpt lat="42.227287850118024" lon="14.427286105424761"><ele>243.25</ele><time>2026-04-23T14:46:18Z</time></trkpt><trkpt lat="42.22740954699513" lon="14.427387093251806"><ele>243.0</ele><time>2026-04-23T14:46:19Z</time></trkpt><trkpt lat="42.2275321375714" lon="14.42749420853002"><ele>242.0</ele><time>2026-04-23T14:46:20Z</time></trkpt><trkpt lat="42.227664823200186" lon="14.427595941350956"><ele>241.0</ele><time>2026-04-23T14:46:21Z</time></trkpt><trkpt lat="42.227803587110216" lon="14.427669602003176"><ele>240.0</ele><time>2026-04-23T14:46:22Z</time></trkpt><trkpt lat="42.22795996232851" lon="14.427706175591386"><ele>240.0</ele><time>2026-04-23T14:46:23Z</time></trkpt><trkpt lat="42.2281258180709" lon="14.427716977245296"><ele>240.0</ele><time>2026-04-23T14:46:24Z</time></trkpt><trkpt lat="42.228294122047686" lon="14.42771772974727"><ele>240.0</ele><time>2026-04-23T14:46:25Z</time></trkpt><trkpt lat="42.22846609475293" lon="14.427715921530355"><ele>239.33333333333331</ele><time>2026-04-23T14:46:26Z</time></trkpt><trkpt lat="42.22864860551413" lon="14.427717540338648"><ele>238.66666666666666</ele><time>2026-04-23T14:46:27Z</time></trkpt><trkpt lat="42.2288330160053" lon="14.42771992081526"><ele>238.0</ele><time>2026-04-23T14:46:28Z</time></trkpt><trkpt lat="42.22901825660124" lon="14.427723138771773"><ele>237.0</ele><time>2026-04-23T14:46:29Z</time></trkpt><trkpt lat="42.22939509161966" lon="14.427735692946252"><ele>236.0</ele><time>2026-04-23T14:46:31Z</time></trkpt><trkpt lat="42.229587584307694" lon="14.427744565832567"><ele>236.0</ele><time>2026-04-23T14:46:32Z</time></trkpt><trkpt lat="42.22978674212144" lon="14.427748705340633"><ele>236.0</ele><time>2026-04-23T14:46:33Z</time></trkpt><trkpt lat="42.22999419912325" lon="14.42775411843507"><ele>236.0</ele><time>2026-04-23T14:46:34Z</time></trkpt><trkpt lat="42.23020359229422" lon="14.427760705004397"><ele>234.66666666666669</ele><time>2026-04-23T14:46:35Z</time></trkpt><trkpt lat="42.23041161742574" lon="14.427762039883063"><ele>233.33333333333331</ele><time>2026-04-23T14:46:36Z</time></trkpt><trkpt lat="42.23062663487042" lon="14.427768019228566"><ele>232.0</ele><time>2026-04-23T14:46:37Z</time></trkpt><trkpt lat="42.230835111397425" lon="14.427770819880038"><ele>231.33333333333331</ele><time>2026-04-23T14:46:38Z</time></trkpt><trkpt lat="42.23105137817417" lon="14.427774966472889"><ele>230.66666666666669</ele><time>2026-04-23T14:46:39Z</time></trkpt><trkpt lat="42.23126581788268" lon="14.427774253409405"><ele>230.0</ele><time>2026-04-23T14:46:40Z</time></trkpt><trkpt lat="42.231477357798056" lon="14.427765851937895"><ele>229.0</ele><time>2026-04-23T14:46:41Z</time></trkpt><trkpt lat="42.2316918676664" lon="14.427751759317644"><ele>228.0</ele><time>2026-04-23T14:46:42Z</time></trkpt><trkpt lat="42.23189930885003" lon="14.427729179947589"><ele>227.0</ele><time>2026-04-23T14:46:43Z</time></trkpt><trkpt lat="42.232104659964364" lon="14.427696193618528"><ele>226.33333333333334</ele><time>2026-04-23T14:46:44Z</time></trkpt><trkpt lat="42.23230823071178" lon="14.427642109286472"><ele>225.66666666666669</ele><time>2026-04-23T14:46:45Z</time></trkpt><trkpt lat="42.23250752894154" lon="14.427568843148013"><ele>225.0</ele><time>2026-04-23T14:46:46Z</time></trkpt><trkpt lat="42.23269138695104" lon="14.42746842397183"><ele>225.0</ele><time>2026-04-23T14:46:47Z</time></trkpt><trkpt lat="42.23306172074887" lon="14.427291292923014"><ele>225.0</ele><time>2026-04-23T14:46:49Z</time></trkpt><trkpt lat="42.233244659789904" lon="14.42723464619449"><ele>225.25</ele><time>2026-04-23T14:46:50Z</time></trkpt><trkpt lat="42.23340736807155" lon="14.427198409158317"><ele>225.5</ele><time>2026-04-23T14:46:51Z</time></trkpt><trkpt lat="42.233558965634515" lon="14.427194294597502"><ele>225.75</ele><time>2026-04-23T14:46:52Z</time></trkpt><trkpt lat="42.2336792165578" lon="14.427260823630325"><ele>226.0</ele><time>2026-04-23T14:46:53Z</time></trkpt><trkpt lat="42.23380424503238" lon="14.427330510220548"><ele>226.0</ele><time>2026-04-23T14:46:54Z</time></trkpt><trkpt lat="42.23393174808025" lon="14.427460945604723"><ele>226.0</ele><time>2026-04-23T14:46:55Z</time></trkpt><trkpt lat="42.23406155975932" lon="14.42758921414084"><ele>226.0</ele><time>2026-04-23T14:46:56Z</time></trkpt><trkpt lat="42.23419365207904" lon="14.427716482541054"><ele>226.66666666666666</ele><time>2026-04-23T14:46:57Z</time></trkpt><trkpt lat="42.23432058237836" lon="14.427836596664195"><ele>227.33333333333331</ele><time>2026-04-23T14:46:58Z</time></trkpt><trkpt lat="42.23444548953367" lon="14.427953988509369"><ele>228.0</ele><time>2026-04-23T14:46:59Z</time></trkpt><trkpt lat="42.23457290490697" lon="14.428074843538957"><ele>228.0</ele><time>2026-04-23T14:47:00Z</time></trkpt><trkpt lat="42.234708407877285" lon="14.42820746838255"><ele>228.0</ele><time>2026-04-23T14:47:01Z</time></trkpt><trkpt lat="42.234845013421655" lon="14.428336061871471"><ele>228.0</ele><time>2026-04-23T14:47:02Z</time></trkpt><trkpt lat="42.234985129392996" lon="14.428465923746945"><ele>227.66666666666669</ele><time>2026-04-23T14:47:03Z</time></trkpt><trkpt lat="42.23512880686087" lon="14.428599115586795"><ele>227.33333333333334</ele><time>2026-04-23T14:47:04Z</time></trkpt><trkpt lat="42.23527551340674" lon="14.428730488621657"><ele>227.0</ele><time>2026-04-23T14:47:05Z</time></trkpt><trkpt lat="42.235429400017075" lon="14.428854904070503"><ele>226.66666666666669</ele><time>2026-04-23T14:47:06Z</time></trkpt><trkpt lat="42.23558956965481" lon="14.428984810083564"><ele>226.33333333333331</ele><time>2026-04-23T14:47:07Z</time></trkpt><trkpt lat="42.235757618594484" lon="14.42911441579457"><ele>226.0</ele><time>2026-04-23T14:47:08Z</time></trkpt><trkpt lat="42.235925463018525" lon="14.429242776353906"><ele>225.66666666666666</ele><time>2026-04-23T14:47:09Z</time></trkpt><trkpt lat="42.23609238808746" lon="14.429373685746247"><ele>225.33333333333331</ele><time>2026-04-23T14:47:10Z</time></trkpt><trkpt lat="42.236268389487456" lon="14.429507798039209"><ele>225.0</ele><time>2026-04-23T14:47:11Z</time></trkpt><trkpt lat="42.236441640600745" lon="14.429645526136138"><ele>224.33333333333331</ele><time>2026-04-23T14:47:12Z</time></trkpt><trkpt lat="42.23661928245858" lon="14.42978743501509"><ele>223.66666666666666</ele><time>2026-04-23T14:47:13Z</time></trkpt><trkpt lat="42.236792261107915" lon="14.429928484229407"><ele>223.0</ele><time>2026-04-23T14:47:14Z</time></trkpt><trkpt lat="42.23696687191618" lon="14.430068466574607"><ele>223.0</ele><time>2026-04-23T14:47:15Z</time></trkpt><trkpt lat="42.23714769511954" lon="14.430214329941375"><ele>223.0</ele><time>2026-04-23T14:47:16Z</time></trkpt><trkpt lat="42.23731847203408" lon="14.430360501767206"><ele>223.0</ele><time>2026-04-23T14:47:17Z</time></trkpt><trkpt lat="42.23749480645234" lon="14.430511122795252"><ele>221.66666666666666</ele><time>2026-04-23T14:47:18Z</time></trkpt><trkpt lat="42.237658636715246" lon="14.430658713688713"><ele>220.33333333333331</ele><time>2026-04-23T14:47:19Z</time></trkpt><trkpt lat="42.237807995327614" lon="14.430817631431832"><ele>219.0</ele><time>2026-04-23T14:47:20Z</time></trkpt><trkpt lat="42.23795361323341" lon="14.431003783489736"><ele>219.0</ele><time>2026-04-23T14:47:21Z</time></trkpt><trkpt lat="42.238095053852135" lon="14.431188904644804"><ele>219.0</ele><time>2026-04-23T14:47:22Z</time></trkpt><trkpt lat="42.23822901077487" lon="14.431387660208214"><ele>219.0</ele><time>2026-04-23T14:47:23Z</time></trkpt><trkpt lat="42.23834197512297" lon="14.431599355115862"><ele>218.66666666666669</ele><time>2026-04-23T14:47:24Z</time></trkpt><trkpt lat="42.23841725829376" lon="14.431848342994922"><ele>218.33333333333334</ele><time>2026-04-23T14:47:25Z</time></trkpt><trkpt lat="42.23851834496205" lon="14.432092633278348"><ele>218.0</ele><time>2026-04-23T14:47:26Z</time></trkpt><trkpt lat="42.238607956325744" lon="14.432340834664783"><ele>218.0</ele><time>2026-04-23T14:47:27Z</time></trkpt><trkpt lat="42.238717811818866" lon="14.432592646925306"><ele>218.0</ele><time>2026-04-23T14:47:28Z</time></trkpt><trkpt lat="42.23884631584108" lon="14.432828968978185"><ele>218.0</ele><time>2026-04-23T14:47:29Z</time></trkpt><trkpt lat="42.23897239938173" lon="14.433045864049202"><ele>217.0</ele><time>2026-04-23T14:47:30Z</time></trkpt><trkpt lat="42.23908886128924" lon="14.433253390236501"><ele>216.0</ele><time>2026-04-23T14:47:31Z</time></trkpt><trkpt lat="42.23921091159701" lon="14.433458678890064"><ele>215.0</ele><time>2026-04-23T14:47:32Z</time></trkpt><trkpt lat="42.23935009899875" lon="14.433647966600091"><ele>215.0</ele><time>2026-04-23T14:47:33Z</time></trkpt><trkpt lat="42.23950879616045" lon="14.43382739144446"><ele>215.0</ele><time>2026-04-23T14:47:34Z</time></trkpt><trkpt lat="42.23967417510512" lon="14.433998259528119"><ele>215.0</ele><time>2026-04-23T14:47:35Z</time></trkpt><trkpt lat="42.23984351691934" lon="14.434185513425549"><ele>214.33333333333334</ele><time>2026-04-23T14:47:36Z</time></trkpt><trkpt lat="42.24001306329453" lon="14.43436713511401"><ele>213.66666666666669</ele><time>2026-04-23T14:47:37Z</time></trkpt><trkpt lat="42.24018941985852" lon="14.434541472159033"><ele>213.0</ele><time>2026-04-23T14:47:38Z</time></trkpt><trkpt lat="42.240376628187356" lon="14.434698928048292"><ele>212.0</ele><time>2026-04-23T14:47:39Z</time></trkpt><trkpt lat="42.24056490676042" lon="14.434836442252204"><ele>211.0</ele><time>2026-04-23T14:47:40Z</time></trkpt><trkpt lat="42.2407586849574" lon="14.434980512734786"><ele>210.0</ele><time>2026-04-23T14:47:41Z</time></trkpt><trkpt lat="42.240947561946044" lon="14.435125500719513"><ele>210.0</ele><time>2026-04-23T14:47:42Z</time></trkpt><trkpt lat="42.241128924800385" lon="14.43527013062957"><ele>210.0</ele><time>2026-04-23T14:47:43Z</time></trkpt><trkpt lat="42.24131774664044" lon="14.435416444686364"><ele>210.0</ele><time>2026-04-23T14:47:44Z</time></trkpt><trkpt lat="42.241502972108464" lon="14.435560646693869"><ele>209.66666666666669</ele><time>2026-04-23T14:47:45Z</time></trkpt><trkpt lat="42.24168757098342" lon="14.43570621162452"><ele>209.33333333333334</ele><time>2026-04-23T14:47:46Z</time></trkpt><trkpt lat="42.24186848981155" lon="14.435846929327486"><ele>209.0</ele><time>2026-04-23T14:47:47Z</time></trkpt><trkpt lat="42.242059622908194" lon="14.43599306369468"><ele>209.0</ele><time>2026-04-23T14:47:48Z</time></trkpt><trkpt lat="42.24223678532764" lon="14.436136076766813"><ele>209.0</ele><time>2026-04-23T14:47:49Z</time></trkpt><trkpt lat="42.24241572327056" lon="14.43629228397465"><ele>209.0</ele><time>2026-04-23T14:47:50Z</time></trkpt><trkpt lat="42.24258737366185" lon="14.436452674210232"><ele>207.66666666666669</ele><time>2026-04-23T14:47:51Z</time></trkpt><trkpt lat="42.24275634386362" lon="14.436627238517573"><ele>206.33333333333331</ele><time>2026-04-23T14:47:52Z</time></trkpt><trkpt lat="42.242926779041525" lon="14.436811434544664"><ele>205.0</ele><time>2026-04-23T14:47:53Z</time></trkpt><trkpt lat="42.243097602395856" lon="14.43699357801324"><ele>204.66666666666666</ele><time>2026-04-23T14:47:54Z</time></trkpt><trkpt lat="42.24326657575111" lon="14.437165556843658"><ele>204.33333333333331</ele><time>2026-04-23T14:47:55Z</time></trkpt><trkpt lat="42.24343170936084" lon="14.437333958938805"><ele>204.0</ele><time>2026-04-23T14:47:56Z</time></trkpt><trkpt lat="42.24359144802891" lon="14.43749559441208"><ele>204.0</ele><time>2026-04-23T14:47:57Z</time></trkpt><trkpt lat="42.24375226797092" lon="14.437664381599314"><ele>204.0</ele><time>2026-04-23T14:47:58Z</time></trkpt><trkpt lat="42.24391490495609" lon="14.437831916774035"><ele>204.0</ele><time>2026-04-23T14:47:59Z</time></trkpt><trkpt lat="42.24407547473588" lon="14.437994830716937"><ele>203.33333333333331</ele><time>2026-04-23T14:48:00Z</time></trkpt><trkpt lat="42.244225545526824" lon="14.438157873817582"><ele>202.66666666666666</ele><time>2026-04-23T14:48:01Z</time></trkpt><trkpt lat="42.24436492661832" lon="14.438322389964561"><ele>202.0</ele><time>2026-04-23T14:48:02Z</time></trkpt><trkpt lat="42.24448979570902" lon="14.438500983023081"><ele>202.0</ele><time>2026-04-23T14:48:03Z</time></trkpt><trkpt lat="42.24459696857681" lon="14.438700942800857"><ele>202.0</ele><time>2026-04-23T14:48:04Z</time></trkpt><trkpt lat="42.24470957301816" lon="14.438875606685311"><ele>202.0</ele><time>2026-04-23T14:48:05Z</time></trkpt><trkpt lat="42.24482055065826" lon="14.43905029409505"><ele>201.0</ele><time>2026-04-23T14:48:06Z</time></trkpt><trkpt lat="42.24481393398557" lon="14.439338285855381"><ele>200.0</ele><time>2026-04-23T14:48:07Z</time></trkpt><trkpt lat="42.24483424393099" lon="14.439568061030041"><ele>199.0</ele><time>2026-04-23T14:48:08Z</time></trkpt><trkpt lat="42.24483584958603" lon="14.43980239506533"><ele>198.66666666666666</ele><time>2026-04-23T14:48:09Z</time></trkpt><trkpt lat="42.24483267252607" lon="14.44006083954514"><ele>198.33333333333331</ele><time>2026-04-23T14:48:10Z</time></trkpt><trkpt lat="42.244838445538335" lon="14.440300655988056"><ele>198.0</ele><time>2026-04-23T14:48:11Z</time></trkpt><trkpt lat="42.24484969000921" lon="14.440532380812952"><ele>197.66666666666669</ele><time>2026-04-23T14:48:12Z</time></trkpt><trkpt lat="42.24486548102894" lon="14.440750744848614"><ele>197.33333333333334</ele><time>2026-04-23T14:48:13Z</time></trkpt><trkpt lat="42.24489380310186" lon="14.440970399879813"><ele>197.0</ele><time>2026-04-23T14:48:14Z</time></trkpt><trkpt lat="42.244943965543776" lon="14.441187608449468"><ele>196.33333333333334</ele><time>2026-04-23T14:48:15Z</time></trkpt><trkpt lat="42.24501984364873" lon="14.441377803633358"><ele>195.66666666666669</ele><time>2026-04-23T14:48:16Z</time></trkpt><trkpt lat="42.245131868298465" lon="14.441535983978936"><ele>195.0</ele><time>2026-04-23T14:48:17Z</time></trkpt><trkpt lat="42.245267486237935" lon="14.441673694593286"><ele>195.0</ele><time>2026-04-23T14:48:18Z</time></trkpt><trkpt lat="42.24542436236162" lon="14.44178655630256"><ele>195.0</ele><time>2026-04-23T14:48:19Z</time></trkpt><trkpt lat="42.245600924317436" lon="14.441891826661712"><ele>195.0</ele><time>2026-04-23T14:48:20Z</time></trkpt><trkpt lat="42.245780269158274" lon="14.441992336224219"><ele>194.66666666666669</ele><time>2026-04-23T14:48:21Z</time></trkpt><trkpt lat="42.24596324052455" lon="14.442097117957326"><ele>194.33333333333334</ele><time>2026-04-23T14:48:22Z</time></trkpt><trkpt lat="42.24614488096329" lon="14.442208213308673"><ele>194.0</ele><time>2026-04-23T14:48:23Z</time></trkpt><trkpt lat="42.246324990349265" lon="14.442319252503854"><ele>193.33333333333334</ele><time>2026-04-23T14:48:24Z</time></trkpt><trkpt lat="42.2465045644245" lon="14.442441093898095"><ele>192.66666666666669</ele><time>2026-04-23T14:48:25Z</time></trkpt><trkpt lat="42.246679332914454" lon="14.442585293891662"><ele>192.0</ele><time>2026-04-23T14:48:26Z</time></trkpt><trkpt lat="42.246840929499186" lon="14.44275996853177"><ele>192.0</ele><time>2026-04-23T14:48:27Z</time></trkpt><trkpt lat="42.246984110711814" lon="14.442936693128134"><ele>192.0</ele><time>2026-04-23T14:48:28Z</time></trkpt><trkpt lat="42.247121278047004" lon="14.443105498255148"><ele>192.0</ele><time>2026-04-23T14:48:29Z</time></trkpt><trkpt lat="42.24725523982675" lon="14.443257220185732"><ele>192.33333333333331</ele><time>2026-04-23T14:48:30Z</time></trkpt><trkpt lat="42.24738934071874" lon="14.443403402877598"><ele>192.66666666666666</ele><time>2026-04-23T14:48:31Z</time></trkpt><trkpt lat="42.24752989907188" lon="14.443548192490914"><ele>193.0</ele><time>2026-04-23T14:48:32Z</time></trkpt><trkpt lat="42.24767867364813" lon="14.443677173556326"><ele>193.0</ele><time>2026-04-23T14:48:33Z</time></trkpt><trkpt lat="42.2478219545926" lon="14.443778746106007"><ele>193.0</ele><time>2026-04-23T14:48:34Z</time></trkpt><trkpt lat="42.24795370716618" lon="14.443855976199446"><ele>193.0</ele><time>2026-04-23T14:48:35Z</time></trkpt><trkpt lat="42.2480731224258" lon="14.44392599718266"><ele>193.0</ele><time>2026-04-23T14:48:36Z</time></trkpt><trkpt lat="42.248174928955144" lon="14.443994596066188"><ele>192.2</ele><time>2026-04-23T14:48:37Z</time></trkpt><trkpt lat="42.24826450674967" lon="14.44405832330604"><ele>191.4</ele><time>2026-04-23T14:48:38Z</time></trkpt><trkpt lat="42.24833665533111" lon="14.444111509213002"><ele>190.6</ele><time>2026-04-23T14:48:39Z</time></trkpt><trkpt lat="42.248418602630224" lon="14.444167153740027"><ele>189.79999999999998</ele><time>2026-04-23T14:48:41Z</time></trkpt><trkpt lat="42.24848092337015" lon="14.444186828944028"><ele>189.0</ele><time>2026-04-23T14:48:43Z</time></trkpt><trkpt lat="42.24862436425835" lon="14.444247162862146"><ele>189.0</ele><time>2026-04-23T14:48:45Z</time></trkpt><trkpt lat="42.24870881994866" lon="14.444297193280983"><ele>189.0</ele><time>2026-04-23T14:48:46Z</time></trkpt><trkpt lat="42.2488033909519" lon="14.44434987731207"><ele>189.0</ele><time>2026-04-23T14:48:47Z</time></trkpt><trkpt lat="42.24890280477896" lon="14.444412801750186"><ele>189.0</ele><time>2026-04-23T14:48:48Z</time></trkpt><trkpt lat="42.24900281275975" lon="14.444493776796849"><ele>189.0</ele><time>2026-04-23T14:48:49Z</time></trkpt><trkpt lat="42.24910764465391" lon="14.44457884556723"><ele>188.0</ele><time>2026-04-23T14:48:50Z</time></trkpt><trkpt lat="42.24919917094722" lon="14.444663256750045"><ele>187.0</ele><time>2026-04-23T14:48:51Z</time></trkpt><trkpt lat="42.24926608859036" lon="14.444769567296266"><ele>186.0</ele><time>2026-04-23T14:48:52Z</time></trkpt><trkpt lat="42.24931340295937" lon="14.4449068646341"><ele>185.0</ele><time>2026-04-23T14:48:53Z</time></trkpt><trkpt lat="42.24934339393084" lon="14.445076500261667"><ele>184.33333333333331</ele><time>2026-04-23T14:48:54Z</time></trkpt><trkpt lat="42.24939684409925" lon="14.445468126972237"><ele>183.66666666666666</ele><time>2026-04-23T14:48:56Z</time></trkpt><trkpt lat="42.24942757239998" lon="14.44565097083488"><ele>183.0</ele><time>2026-04-23T14:48:57Z</time></trkpt><trkpt lat="42.24945727935111" lon="14.445820635313508"><ele>183.0</ele><time>2026-04-23T14:48:58Z</time></trkpt><trkpt lat="42.249496650455015" lon="14.445977980963631"><ele>183.0</ele><time>2026-04-23T14:48:59Z</time></trkpt><trkpt lat="42.24956000332035" lon="14.446110363425236"><ele>183.0</ele><time>2026-04-23T14:49:00Z</time></trkpt><trkpt lat="42.249644299506905" lon="14.446239208654982"><ele>183.0</ele><time>2026-04-23T14:49:01Z</time></trkpt><trkpt lat="42.24975091913866" lon="14.446350818641292"><ele>182.25</ele><time>2026-04-23T14:49:02Z</time></trkpt><trkpt lat="42.249873103158244" lon="14.446445682027726"><ele>181.5</ele><time>2026-04-23T14:49:03Z</time></trkpt><trkpt lat="42.250005720340226" lon="14.446536816337394"><ele>180.75</ele><time>2026-04-23T14:49:04Z</time></trkpt><trkpt lat="42.25014499145014" lon="14.446625906547663"><ele>180.0</ele><time>2026-04-23T14:49:05Z</time></trkpt><trkpt lat="42.25028895068703" lon="14.446715316399867"><ele>180.0</ele><time>2026-04-23T14:49:06Z</time></trkpt><trkpt lat="42.25043039665863" lon="14.446802966438517"><ele>180.0</ele><time>2026-04-23T14:49:07Z</time></trkpt><trkpt lat="42.250577460702644" lon="14.44690027449255"><ele>180.0</ele><time>2026-04-23T14:49:08Z</time></trkpt><trkpt lat="42.25072241338146" lon="14.446997729355427"><ele>179.66666666666666</ele><time>2026-04-23T14:49:09Z</time></trkpt><trkpt lat="42.250873312428546" lon="14.447097166203216"><ele>179.33333333333331</ele><time>2026-04-23T14:49:10Z</time></trkpt><trkpt lat="42.25102958668997" lon="14.447197872828488"><ele>179.0</ele><time>2026-04-23T14:49:11Z</time></trkpt><trkpt lat="42.251187224735766" lon="14.447299156926974"><ele>178.33333333333331</ele><time>2026-04-23T14:49:12Z</time></trkpt><trkpt lat="42.25134601865124" lon="14.447407690961997"><ele>177.66666666666666</ele><time>2026-04-23T14:49:13Z</time></trkpt><trkpt lat="42.25150967243219" lon="14.447519347255321"><ele>177.0</ele><time>2026-04-23T14:49:14Z</time></trkpt><trkpt lat="42.2516733191966" lon="14.447630156660304"><ele>177.0</ele><time>2026-04-23T14:49:15Z</time></trkpt><trkpt lat="42.251839604194366" lon="14.44773951120166"><ele>177.0</ele><time>2026-04-23T14:49:16Z</time></trkpt><trkpt lat="42.25200260485655" lon="14.44784463208345"><ele>177.0</ele><time>2026-04-23T14:49:17Z</time></trkpt><trkpt lat="42.25216631811729" lon="14.447953072390215"><ele>175.66666666666666</ele><time>2026-04-23T14:49:18Z</time></trkpt><trkpt lat="42.25233332488633" lon="14.44805952448341"><ele>174.33333333333331</ele><time>2026-04-23T14:49:19Z</time></trkpt><trkpt lat="42.25249887596518" lon="14.448158259573644"><ele>173.0</ele><time>2026-04-23T14:49:20Z</time></trkpt><trkpt lat="42.252665657349624" lon="14.44825647815665"><ele>173.0</ele><time>2026-04-23T14:49:21Z</time></trkpt><trkpt lat="42.25283112479012" lon="14.448363312879133"><ele>173.0</ele><time>2026-04-23T14:49:22Z</time></trkpt><trkpt lat="42.25299161619955" lon="14.448468520640048"><ele>173.0</ele><time>2026-04-23T14:49:23Z</time></trkpt><trkpt lat="42.25315330912461" lon="14.448572467240655"><ele>172.33333333333331</ele><time>2026-04-23T14:49:24Z</time></trkpt><trkpt lat="42.253313273422336" lon="14.44867661931289"><ele>171.66666666666666</ele><time>2026-04-23T14:49:25Z</time></trkpt><trkpt lat="42.25346941384373" lon="14.448776085939246"><ele>171.0</ele><time>2026-04-23T14:49:26Z</time></trkpt><trkpt lat="42.25361672921754" lon="14.448870398475998"><ele>170.25</ele><time>2026-04-23T14:49:27Z</time></trkpt><trkpt lat="42.253749465109735" lon="14.448967571113538"><ele>169.5</ele><time>2026-04-23T14:49:28Z</time></trkpt><trkpt lat="42.2538443667995" lon="14.4491163279376"><ele>168.75</ele><time>2026-04-23T14:49:29Z</time></trkpt><trkpt lat="42.25392842384237" lon="14.449256043309273"><ele>168.0</ele><time>2026-04-23T14:49:30Z</time></trkpt><trkpt lat="42.25401750872347" lon="14.449398041342008"><ele>168.0</ele><time>2026-04-23T14:49:31Z</time></trkpt><trkpt lat="42.25410233023923" lon="14.449558318291901"><ele>168.0</ele><time>2026-04-23T14:49:32Z</time></trkpt><trkpt lat="42.25419634270659" lon="14.449719803567122"><ele>168.0</ele><time>2026-04-23T14:49:33Z</time></trkpt><trkpt lat="42.25428402662149" lon="14.449869471391258"><ele>168.0</ele><time>2026-04-23T14:49:34Z</time></trkpt><trkpt lat="42.25436332827736" lon="14.45000913088085"><ele>167.8</ele><time>2026-04-23T14:49:35Z</time></trkpt><trkpt lat="42.254437440244466" lon="14.450135925870015"><ele>167.60000000000002</ele><time>2026-04-23T14:49:36Z</time></trkpt><trkpt lat="42.2545047287058" lon="14.450250873225531"><ele>167.39999999999998</ele><time>2026-04-23T14:49:37Z</time></trkpt><trkpt lat="42.25455883776149" lon="14.450334298269635"><ele>167.2</ele><time>2026-04-23T14:49:38Z</time></trkpt><trkpt lat="42.25461018790733" lon="14.450395031520529"><ele>167.0</ele><time>2026-04-23T14:49:39Z</time></trkpt><trkpt lat="42.25467723816344" lon="14.450455039454924"><ele>166.8</ele><time>2026-04-23T14:49:40Z</time></trkpt><trkpt lat="42.254758050784005" lon="14.450498424903689"><ele>166.6</ele><time>2026-04-23T14:49:41Z</time></trkpt><trkpt lat="42.25485188935741" lon="14.450512429564071"><ele>166.4</ele><time>2026-04-23T14:49:42Z</time></trkpt><trkpt lat="42.254948663749715" lon="14.4504869143157"><ele>166.20000000000002</ele><time>2026-04-23T14:49:43Z</time></trkpt><trkpt lat="42.255044811196974" lon="14.450425412525014"><ele>166.0</ele><time>2026-04-23T14:49:44Z</time></trkpt><trkpt lat="42.25513094435476" lon="14.450330058719462"><ele>166.0</ele><time>2026-04-23T14:49:45Z</time></trkpt><trkpt lat="42.255191184658365" lon="14.450200653897257"><ele>166.0</ele><time>2026-04-23T14:49:46Z</time></trkpt><trkpt lat="42.255226519251416" lon="14.450046530042613"><ele>166.0</ele><time>2026-04-23T14:49:47Z</time></trkpt><trkpt lat="42.25525283795664" lon="14.449871251715637"><ele>166.0</ele><time>2026-04-23T14:49:48Z</time></trkpt><trkpt lat="42.25528319341361" lon="14.449688930912648"><ele>166.0</ele><time>2026-04-23T14:49:49Z</time></trkpt><trkpt lat="42.25533824833332" lon="14.449524105578842"><ele>166.0</ele><time>2026-04-23T14:49:50Z</time></trkpt><trkpt lat="42.25541757746781" lon="14.449361957041384"><ele>166.0</ele><time>2026-04-23T14:49:51Z</time></trkpt><trkpt lat="42.255511297269464" lon="14.449224687779889"><ele>166.0</ele><time>2026-04-23T14:49:52Z</time></trkpt><trkpt lat="42.25561791905272" lon="14.449119774647745"><ele>165.5</ele><time>2026-04-23T14:49:53Z</time></trkpt><trkpt lat="42.25572994164787" lon="14.44903002416113"><ele>165.0</ele><time>2026-04-23T14:49:54Z</time></trkpt><trkpt lat="42.25583850630886" lon="14.4489743340629"><ele>164.5</ele><time>2026-04-23T14:49:55Z</time></trkpt><trkpt lat="42.25595679464885" lon="14.448946691556593"><ele>164.0</ele><time>2026-04-23T14:49:56Z</time></trkpt><trkpt lat="42.25608317242962" lon="14.448946638282264"><ele>164.0</ele><time>2026-04-23T14:49:57Z</time></trkpt><trkpt lat="42.25621084519088" lon="14.448973131572634"><ele>164.0</ele><time>2026-04-23T14:49:58Z</time></trkpt><trkpt lat="42.25633667351911" lon="14.449031745362104"><ele>164.0</ele><time>2026-04-23T14:49:59Z</time></trkpt><trkpt lat="42.25646166695099" lon="14.44911694006342"><ele>164.0</ele><time>2026-04-23T14:50:00Z</time></trkpt><trkpt lat="42.2565880060834" lon="14.449213530788722"><ele>163.66666666666666</ele><time>2026-04-23T14:50:01Z</time></trkpt><trkpt lat="42.25671360411829" lon="14.449314346239778"><ele>163.33333333333334</ele><time>2026-04-23T14:50:02Z</time></trkpt><trkpt lat="42.25684002747013" lon="14.449418794567334"><ele>163.0</ele><time>2026-04-23T14:50:03Z</time></trkpt><trkpt lat="42.25696916192244" lon="14.449541073689815"><ele>162.33333333333334</ele><time>2026-04-23T14:50:04Z</time></trkpt><trkpt lat="42.25709650851175" lon="14.449683853220368"><ele>161.66666666666666</ele><time>2026-04-23T14:50:05Z</time></trkpt><trkpt lat="42.25721550654629" lon="14.449827720682872"><ele>161.0</ele><time>2026-04-23T14:50:06Z</time></trkpt><trkpt lat="42.25734016314767" lon="14.449973452862775"><ele>160.33333333333331</ele><time>2026-04-23T14:50:07Z</time></trkpt><trkpt lat="42.25746531756838" lon="14.450120216332385"><ele>159.66666666666666</ele><time>2026-04-23T14:50:08Z</time></trkpt><trkpt lat="42.25759463099698" lon="14.450260919158929"><ele>159.0</ele><time>2026-04-23T14:50:09Z</time></trkpt><trkpt lat="42.257732650985325" lon="14.45040259665196"><ele>159.0</ele><time>2026-04-23T14:50:10Z</time></trkpt><trkpt lat="42.257877566263645" lon="14.450542790529765"><ele>159.0</ele><time>2026-04-23T14:50:11Z</time></trkpt><trkpt lat="42.25803055338193" lon="14.450678689166082"><ele>159.0</ele><time>2026-04-23T14:50:12Z</time></trkpt><trkpt lat="42.258179443102755" lon="14.450825427890324"><ele>158.66666666666666</ele><time>2026-04-23T14:50:13Z</time></trkpt><trkpt lat="42.25832772784518" lon="14.450960232205718"><ele>158.33333333333331</ele><time>2026-04-23T14:50:14Z</time></trkpt><trkpt lat="42.25846938902838" lon="14.45108901510184"><ele>158.0</ele><time>2026-04-23T14:50:15Z</time></trkpt><trkpt lat="42.258616356537516" lon="14.45122262192918"><ele>157.33333333333331</ele><time>2026-04-23T14:50:16Z</time></trkpt><trkpt lat="42.258758712888195" lon="14.451353063421696"><ele>156.66666666666666</ele><time>2026-04-23T14:50:17Z</time></trkpt><trkpt lat="42.25895048352968" lon="14.451542496201576"><ele>156.0</ele><time>2026-04-23T14:50:18Z</time></trkpt><trkpt lat="42.259103342062055" lon="14.451695171110954"><ele>156.0</ele><time>2026-04-23T14:50:19Z</time></trkpt><trkpt lat="42.25925837509895" lon="14.451846323425878"><ele>156.0</ele><time>2026-04-23T14:50:20Z</time></trkpt><trkpt lat="42.259421209777926" lon="14.4519816918349"><ele>156.0</ele><time>2026-04-23T14:50:21Z</time></trkpt><trkpt lat="42.259572375674665" lon="14.452131578663254"><ele>155.66666666666666</ele><time>2026-04-23T14:50:22Z</time></trkpt><trkpt lat="42.25972487785903" lon="14.452282459345605"><ele>155.33333333333331</ele><time>2026-04-23T14:50:23Z</time></trkpt><trkpt lat="42.25987681428494" lon="14.452435033665816"><ele>155.0</ele><time>2026-04-23T14:50:24Z</time></trkpt><trkpt lat="42.26003040368616" lon="14.45258418876155"><ele>154.66666666666666</ele><time>2026-04-23T14:50:25Z</time></trkpt><trkpt lat="42.26018334145649" lon="14.452737650601104"><ele>154.33333333333334</ele><time>2026-04-23T14:50:26Z</time></trkpt><trkpt lat="42.26033608929694" lon="14.452887057519908"><ele>154.0</ele><time>2026-04-23T14:50:27Z</time></trkpt><trkpt lat="42.260480208816446" lon="14.453026649413273"><ele>152.33333333333334</ele><time>2026-04-23T14:50:28Z</time></trkpt><trkpt lat="42.26063410860618" lon="14.453131087063282"><ele>150.66666666666666</ele><time>2026-04-23T14:50:29Z</time></trkpt><trkpt lat="42.26079855279638" lon="14.453222886191071"><ele>149.0</ele><time>2026-04-23T14:50:30Z</time></trkpt><trkpt lat="42.26097313094102" lon="14.453295577763848"><ele>149.0</ele><time>2026-04-23T14:50:31Z</time></trkpt><trkpt lat="42.26114721440556" lon="14.453377148403614"><ele>149.0</ele><time>2026-04-23T14:50:32Z</time></trkpt><trkpt lat="42.261319916587986" lon="14.453477287743716"><ele>149.0</ele><time>2026-04-23T14:50:33Z</time></trkpt><trkpt lat="42.26149780659615" lon="14.453567207139596"><ele>148.0</ele><time>2026-04-23T14:50:34Z</time></trkpt><trkpt lat="42.261677649983376" lon="14.453663872787818"><ele>147.0</ele><time>2026-04-23T14:50:35Z</time></trkpt><trkpt lat="42.26185837895479" lon="14.45375332761743"><ele>146.0</ele><time>2026-04-23T14:50:36Z</time></trkpt><trkpt lat="42.26202672695014" lon="14.453844693717446"><ele>145.75</ele><time>2026-04-23T14:50:37Z</time></trkpt><trkpt lat="42.26218307565423" lon="14.453932996547508"><ele>145.5</ele><time>2026-04-23T14:50:38Z</time></trkpt><trkpt lat="42.26230922019739" lon="14.454045007495134"><ele>145.25</ele><time>2026-04-23T14:50:39Z</time></trkpt><trkpt lat="42.262386575237734" lon="14.454179696354817"><ele>145.0</ele><time>2026-04-23T14:50:40Z</time></trkpt><trkpt lat="42.26242513974476" lon="14.454335374165442"><ele>144.66666666666669</ele><time>2026-04-23T14:50:41Z</time></trkpt><trkpt lat="42.2624623330066" lon="14.45453275747796"><ele>144.33333333333334</ele><time>2026-04-23T14:50:42Z</time></trkpt><trkpt lat="42.262504026156165" lon="14.454750803693091"><ele>144.0</ele><time>2026-04-23T14:50:43Z</time></trkpt><trkpt lat="42.2625722704388" lon="14.454948158495489"><ele>143.0</ele><time>2026-04-23T14:50:44Z</time></trkpt><trkpt lat="42.26263495929081" lon="14.455158223220703"><ele>142.0</ele><time>2026-04-23T14:50:45Z</time></trkpt><trkpt lat="42.262710861010504" lon="14.455359771239495"><ele>141.0</ele><time>2026-04-23T14:50:46Z</time></trkpt><trkpt lat="42.26278566940671" lon="14.455563977774501"><ele>140.33333333333334</ele><time>2026-04-23T14:50:47Z</time></trkpt><trkpt lat="42.262856589849626" lon="14.4557656038652"><ele>139.66666666666669</ele><time>2026-04-23T14:50:48Z</time></trkpt><trkpt lat="42.262931313360625" lon="14.45595857322772"><ele>139.0</ele><time>2026-04-23T14:50:49Z</time></trkpt><trkpt lat="42.26301865275144" lon="14.456145665152691"><ele>139.0</ele><time>2026-04-23T14:50:50Z</time></trkpt><trkpt lat="42.2631176399105" lon="14.456313054319324"><ele>139.0</ele><time>2026-04-23T14:50:51Z</time></trkpt><trkpt lat="42.263236609292235" lon="14.45649059959193"><ele>139.0</ele><time>2026-04-23T14:50:52Z</time></trkpt><trkpt lat="42.26335879463646" lon="14.456658645889277"><ele>139.0</ele><time>2026-04-23T14:50:53Z</time></trkpt><trkpt lat="42.26348455830821" lon="14.45682124165974"><ele>139.0</ele><time>2026-04-23T14:50:54Z</time></trkpt><trkpt lat="42.263607936693475" lon="14.456988721444352"><ele>139.0</ele><time>2026-04-23T14:50:55Z</time></trkpt><trkpt lat="42.263730921420546" lon="14.457160486069759"><ele>137.66666666666669</ele><time>2026-04-23T14:50:56Z</time></trkpt><trkpt lat="42.26385229685668" lon="14.457328997177921"><ele>136.33333333333334</ele><time>2026-04-23T14:50:57Z</time></trkpt><trkpt lat="42.2639787511051" lon="14.457496671939605"><ele>135.0</ele><time>2026-04-23T14:50:58Z</time></trkpt><trkpt lat="42.26410630478367" lon="14.45765290438457"><ele>135.0</ele><time>2026-04-23T14:50:59Z</time></trkpt><trkpt lat="42.264245811661766" lon="14.45779011373535"><ele>135.0</ele><time>2026-04-23T14:51:00Z</time></trkpt><trkpt lat="42.264403541564334" lon="14.457904317131744"><ele>135.0</ele><time>2026-04-23T14:51:01Z</time></trkpt><trkpt lat="42.26456835822358" lon="14.45799223564751"><ele>135.0</ele><time>2026-04-23T14:51:02Z</time></trkpt><trkpt lat="42.26471579215758" lon="14.458122397697611"><ele>135.0</ele><time>2026-04-23T14:51:03Z</time></trkpt><trkpt lat="42.26485389342008" lon="14.458263003165548"><ele>135.0</ele><time>2026-04-23T14:51:04Z</time></trkpt><trkpt lat="42.264990610274886" lon="14.458405600418141"><ele>135.0</ele><time>2026-04-23T14:51:05Z</time></trkpt><trkpt lat="42.26512198508849" lon="14.458521778871834"><ele>135.0</ele><time>2026-04-23T14:51:06Z</time></trkpt><trkpt lat="42.26524125705353" lon="14.458658046271603"><ele>135.0</ele><time>2026-04-23T14:51:07Z</time></trkpt><trkpt lat="42.265358801912654" lon="14.458791482546827"><ele>135.0</ele><time>2026-04-23T14:51:08Z</time></trkpt><trkpt lat="42.26547765956308" lon="14.458928888765895"><ele>135.0</ele><time>2026-04-23T14:51:09Z</time></trkpt><trkpt lat="42.2655905125477" lon="14.459087311728439"><ele>135.0</ele><time>2026-04-23T14:51:10Z</time></trkpt><trkpt lat="42.26569020120957" lon="14.459252600250673"><ele>135.0</ele><time>2026-04-23T14:51:11Z</time></trkpt><trkpt lat="42.265779999796464" lon="14.459420485314503"><ele>135.0</ele><time>2026-04-23T14:51:12Z</time></trkpt><trkpt lat="42.26586684791025" lon="14.459579597894953"><ele>135.0</ele><time>2026-04-23T14:51:13Z</time></trkpt><trkpt lat="42.265940968980686" lon="14.459733635818836"><ele>135.0</ele><time>2026-04-23T14:51:14Z</time></trkpt><trkpt lat="42.265966177887506" lon="14.459909495142721"><ele>134.25</ele><time>2026-04-23T14:51:15Z</time></trkpt><trkpt lat="42.265986902398" lon="14.460083875742736"><ele>133.5</ele><time>2026-04-23T14:51:16Z</time></trkpt><trkpt lat="42.26604412521203" lon="14.46025839839079"><ele>132.75</ele><time>2026-04-23T14:51:17Z</time></trkpt><trkpt lat="42.26610392342452" lon="14.460436603179696"><ele>132.0</ele><time>2026-04-23T14:51:18Z</time></trkpt><trkpt lat="42.26619047452517" lon="14.460602805774284"><ele>131.66666666666666</ele><time>2026-04-23T14:51:19Z</time></trkpt><trkpt lat="42.26629123498165" lon="14.4607712142819"><ele>131.33333333333331</ele><time>2026-04-23T14:51:20Z</time></trkpt><trkpt lat="42.26639837988338" lon="14.46093449936693"><ele>131.0</ele><time>2026-04-23T14:51:21Z</time></trkpt><trkpt lat="42.26650387561391" lon="14.4611065247828"><ele>131.0</ele><time>2026-04-23T14:51:22Z</time></trkpt><trkpt lat="42.266610140545545" lon="14.461273153843337"><ele>131.0</ele><time>2026-04-23T14:51:23Z</time></trkpt><trkpt lat="42.266714745209" lon="14.461442914512055"><ele>131.0</ele><time>2026-04-23T14:51:24Z</time></trkpt><trkpt lat="42.2668153419366" lon="14.461603305948604"><ele>129.0</ele><time>2026-04-23T14:51:25Z</time></trkpt><trkpt lat="42.266914124512006" lon="14.461763160576577"><ele>127.0</ele><time>2026-04-23T14:51:26Z</time></trkpt><trkpt lat="42.26701114913221" lon="14.461924418295977"><ele>125.0</ele><time>2026-04-23T14:51:27Z</time></trkpt><trkpt lat="42.2671102036019" lon="14.46209870958571"><ele>126.0</ele><time>2026-04-23T14:51:28Z</time></trkpt><trkpt lat="42.267207282832935" lon="14.462278789645735"><ele>127.0</ele><time>2026-04-23T14:51:29Z</time></trkpt><trkpt lat="42.26726723453611" lon="14.462481256943217"><ele>128.0</ele><time>2026-04-23T14:51:30Z</time></trkpt><trkpt lat="42.26731810312854" lon="14.462695196097782"><ele>128.0</ele><time>2026-04-23T14:51:31Z</time></trkpt><trkpt lat="42.2673692762546" lon="14.462917668481406"><ele>128.0</ele><time>2026-04-23T14:51:32Z</time></trkpt><trkpt lat="42.26742193502699" lon="14.463146599670628"><ele>128.0</ele><time>2026-04-23T14:51:33Z</time></trkpt><trkpt lat="42.267472484573105" lon="14.463372351354755"><ele>127.66666666666666</ele><time>2026-04-23T14:51:34Z</time></trkpt><trkpt lat="42.267524049574924" lon="14.463603849276145"><ele>127.33333333333334</ele><time>2026-04-23T14:51:35Z</time></trkpt><trkpt lat="42.26756685097033" lon="14.463826004239186"><ele>127.0</ele><time>2026-04-23T14:51:36Z</time></trkpt><trkpt lat="42.267585420311356" lon="14.464058928860291"><ele>127.0</ele><time>2026-04-23T14:51:37Z</time></trkpt><trkpt lat="42.267603167120605" lon="14.464300441359958"><ele>127.0</ele><time>2026-04-23T14:51:38Z</time></trkpt><trkpt lat="42.26766051660885" lon="14.464523758076579"><ele>127.0</ele><time>2026-04-23T14:51:39Z</time></trkpt><trkpt lat="42.267725921649344" lon="14.464742264784086"><ele>127.33333333333334</ele><time>2026-04-23T14:51:40Z</time></trkpt><trkpt lat="42.26781043147527" lon="14.464947502914377"><ele>127.66666666666666</ele><time>2026-04-23T14:51:41Z</time></trkpt><trkpt lat="42.26789740115052" lon="14.465156771784729"><ele>128.0</ele><time>2026-04-23T14:51:42Z</time></trkpt><trkpt lat="42.267965672287616" lon="14.465379251913223"><ele>128.0</ele><time>2026-04-23T14:51:43Z</time></trkpt><trkpt lat="42.268046061718984" lon="14.465587394695227"><ele>128.0</ele><time>2026-04-23T14:51:44Z</time></trkpt><trkpt lat="42.26814098859379" lon="14.46579070870994"><ele>128.0</ele><time>2026-04-23T14:51:45Z</time></trkpt><trkpt lat="42.268223861224634" lon="14.466007352640133"><ele>128.33333333333331</ele><time>2026-04-23T14:51:46Z</time></trkpt><trkpt lat="42.268305934837414" lon="14.466222943073925"><ele>128.66666666666666</ele><time>2026-04-23T14:51:47Z</time></trkpt><trkpt lat="42.268384929425764" lon="14.466440024546221"><ele>129.0</ele><time>2026-04-23T14:51:48Z</time></trkpt><trkpt lat="42.26848011088848" lon="14.46665687893143"><ele>129.0</ele><time>2026-04-23T14:51:49Z</time></trkpt><trkpt lat="42.26857563949368" lon="14.466871179533442"><ele>129.0</ele><time>2026-04-23T14:51:50Z</time></trkpt><trkpt lat="42.26868054683223" lon="14.46707454656436"><ele>129.0</ele><time>2026-04-23T14:51:51Z</time></trkpt><trkpt lat="42.26878757191864" lon="14.467272526099986"><ele>129.0</ele><time>2026-04-23T14:51:52Z</time></trkpt><trkpt lat="42.26888619549266" lon="14.467451004310368"><ele>129.0</ele><time>2026-04-23T14:51:53Z</time></trkpt><trkpt lat="42.26898335298618" lon="14.467619434040826"><ele>129.0</ele><time>2026-04-23T14:51:54Z</time></trkpt><trkpt lat="42.26907123089272" lon="14.467782806956459"><ele>128.5</ele><time>2026-04-23T14:51:55Z</time></trkpt><trkpt lat="42.269153727592915" lon="14.467944523509326"><ele>128.0</ele><time>2026-04-23T14:51:56Z</time></trkpt><trkpt lat="42.26923246018786" lon="14.46810888048821"><ele>127.5</ele><time>2026-04-23T14:51:57Z</time></trkpt><trkpt lat="42.26930943789128" lon="14.468276901421156"><ele>127.0</ele><time>2026-04-23T14:51:58Z</time></trkpt><trkpt lat="42.269385591566255" lon="14.468446446712168"><ele>127.0</ele><time>2026-04-23T14:51:59Z</time></trkpt><trkpt lat="42.26946502293537" lon="14.468623909457497"><ele>127.0</ele><time>2026-04-23T14:52:00Z</time></trkpt><trkpt lat="42.269544175930065" lon="14.46880520759665"><ele>127.0</ele><time>2026-04-23T14:52:01Z</time></trkpt><trkpt lat="42.269621693634406" lon="14.468991162132701"><ele>126.25</ele><time>2026-04-23T14:52:02Z</time></trkpt><trkpt lat="42.26969034439589" lon="14.469171043909807"><ele>125.5</ele><time>2026-04-23T14:52:03Z</time></trkpt><trkpt lat="42.26976559604514" lon="14.469331057912747"><ele>124.75</ele><time>2026-04-23T14:52:04Z</time></trkpt><trkpt lat="42.26983810593485" lon="14.469485907032256"><ele>124.0</ele><time>2026-04-23T14:52:05Z</time></trkpt><trkpt lat="42.26990761649486" lon="14.469600707205894"><ele>123.80000000000001</ele><time>2026-04-23T14:52:06Z</time></trkpt><trkpt lat="42.26994888632689" lon="14.469694895069392"><ele>123.60000000000001</ele><time>2026-04-23T14:52:07Z</time></trkpt><trkpt lat="42.270062600027345" lon="14.469681314678846"><ele>123.4</ele><time>2026-04-23T14:52:08Z</time></trkpt><trkpt lat="42.27016135332962" lon="14.469662094111328"><ele>123.2</ele><time>2026-04-23T14:52:09Z</time></trkpt><trkpt lat="42.270266582518445" lon="14.469644526613466"><ele>123.0</ele><time>2026-04-23T14:52:10Z</time></trkpt><trkpt lat="42.270370939900836" lon="14.469686828095421"><ele>123.0</ele><time>2026-04-23T14:52:11Z</time></trkpt><trkpt lat="42.270437778622004" lon="14.46982244593373"><ele>123.0</ele><time>2026-04-23T14:52:12Z</time></trkpt><trkpt lat="42.27052596098307" lon="14.469960317803999"><ele>123.0</ele><time>2026-04-23T14:52:13Z</time></trkpt><trkpt lat="42.270620244613035" lon="14.470111608214168"><ele>123.0</ele><time>2026-04-23T14:52:14Z</time></trkpt><trkpt lat="42.270727288272305" lon="14.470258426086957"><ele>122.66666666666666</ele><time>2026-04-23T14:52:15Z</time></trkpt><trkpt lat="42.270832240781985" lon="14.470424875367263"><ele>122.33333333333333</ele><time>2026-04-23T14:52:16Z</time></trkpt><trkpt lat="42.270943540499786" lon="14.47059471013041"><ele>122.0</ele><time>2026-04-23T14:52:17Z</time></trkpt><trkpt lat="42.27103657078847" lon="14.470775017772619"><ele>121.66666666666666</ele><time>2026-04-23T14:52:18Z</time></trkpt><trkpt lat="42.271229684102614" lon="14.471082990697054"><ele>121.33333333333334</ele><time>2026-04-23T14:52:20Z</time></trkpt><trkpt lat="42.2713279003469" lon="14.471213607603453"><ele>121.0</ele><time>2026-04-23T14:52:21Z</time></trkpt><trkpt lat="42.27141172476057" lon="14.471367590011008"><ele>119.66666666666667</ele><time>2026-04-23T14:52:22Z</time></trkpt><trkpt lat="42.27146634765867" lon="14.471555284832478"><ele>118.33333333333334</ele><time>2026-04-23T14:52:23Z</time></trkpt><trkpt lat="42.27152195833866" lon="14.471749106353737"><ele>117.0</ele><time>2026-04-23T14:52:24Z</time></trkpt><trkpt lat="42.27157337034776" lon="14.47195407225673"><ele>115.66666666666666</ele><time>2026-04-23T14:52:25Z</time></trkpt><trkpt lat="42.27161397146694" lon="14.472157912669314"><ele>114.33333333333333</ele><time>2026-04-23T14:52:26Z</time></trkpt><trkpt lat="42.27164342732292" lon="14.47236527835697"><ele>113.0</ele><time>2026-04-23T14:52:27Z</time></trkpt><trkpt lat="42.27164709799636" lon="14.472568951027721"><ele>113.0</ele><time>2026-04-23T14:52:28Z</time></trkpt><trkpt lat="42.27163339716244" lon="14.472779758732383"><ele>113.0</ele><time>2026-04-23T14:52:29Z</time></trkpt><trkpt lat="42.271612803618666" lon="14.4729919189598"><ele>113.0</ele><time>2026-04-23T14:52:30Z</time></trkpt><trkpt lat="42.271590981799484" lon="14.473217224442882"><ele>113.0</ele><time>2026-04-23T14:52:31Z</time></trkpt><trkpt lat="42.271569495635" lon="14.473439968922943"><ele>113.0</ele><time>2026-04-23T14:52:32Z</time></trkpt><trkpt lat="42.27154555472436" lon="14.473664482533511"><ele>113.0</ele><time>2026-04-23T14:52:33Z</time></trkpt><trkpt lat="42.27151914378539" lon="14.473897927884089"><ele>112.66666666666666</ele><time>2026-04-23T14:52:34Z</time></trkpt><trkpt lat="42.271503191479674" lon="14.474134027248004"><ele>112.33333333333334</ele><time>2026-04-23T14:52:35Z</time></trkpt><trkpt lat="42.271500245418785" lon="14.474355320459093"><ele>112.0</ele><time>2026-04-23T14:52:36Z</time></trkpt><trkpt lat="42.271520943477746" lon="14.47454913742295"><ele>112.25</ele><time>2026-04-23T14:52:37Z</time></trkpt><trkpt lat="42.271537376100575" lon="14.474719403435918"><ele>112.5</ele><time>2026-04-23T14:52:38Z</time></trkpt><trkpt lat="42.27153156710658" lon="14.474869943756532"><ele>112.75</ele><time>2026-04-23T14:52:39Z</time></trkpt><trkpt lat="42.27148261890367" lon="14.474991746715151"><ele>113.0</ele><time>2026-04-23T14:52:40Z</time></trkpt><trkpt lat="42.27139342623384" lon="14.475101620827386"><ele>114.0</ele><time>2026-04-23T14:52:41Z</time></trkpt><trkpt lat="42.27128366478487" lon="14.475226803931312"><ele>115.0</ele><time>2026-04-23T14:52:42Z</time></trkpt><trkpt lat="42.271173731040356" lon="14.47534890592988"><ele>116.0</ele><time>2026-04-23T14:52:43Z</time></trkpt><trkpt lat="42.271072385877886" lon="14.475461468667744"><ele>117.0</ele><time>2026-04-23T14:52:44Z</time></trkpt><trkpt lat="42.270988453484065" lon="14.47556050818148"><ele>117.0</ele><time>2026-04-23T14:52:45Z</time></trkpt><trkpt lat="42.27092985135085" lon="14.47564107919556"><ele>117.0</ele><time>2026-04-23T14:52:46Z</time></trkpt><trkpt lat="42.27097859216553" lon="14.475917048940161"><ele>117.0</ele><time>2026-04-23T14:52:48Z</time></trkpt><trkpt lat="42.27104100104434" lon="14.476074145889392"><ele>117.0</ele><time>2026-04-23T14:52:49Z</time></trkpt><trkpt lat="42.27109789715024" lon="14.47625351765028"><ele>116.0</ele><time>2026-04-23T14:52:50Z</time></trkpt><trkpt lat="42.271163758020265" lon="14.476451647237596"><ele>115.0</ele><time>2026-04-23T14:52:51Z</time></trkpt><trkpt lat="42.27122542900055" lon="14.476642159322443"><ele>114.0</ele><time>2026-04-23T14:52:52Z</time></trkpt><trkpt lat="42.27130414754513" lon="14.47684364616608"><ele>114.0</ele><time>2026-04-23T14:52:53Z</time></trkpt><trkpt lat="42.2713557082812" lon="14.477060598616033"><ele>114.0</ele><time>2026-04-23T14:52:54Z</time></trkpt><trkpt lat="42.27141654405952" lon="14.477275219335901"><ele>114.0</ele><time>2026-04-23T14:52:55Z</time></trkpt><trkpt lat="42.271498029627615" lon="14.477490003245245"><ele>114.0</ele><time>2026-04-23T14:52:56Z</time></trkpt><trkpt lat="42.271563522298194" lon="14.477717893300959"><ele>114.0</ele><time>2026-04-23T14:52:57Z</time></trkpt><trkpt lat="42.27162757379576" lon="14.477947879133572"><ele>114.0</ele><time>2026-04-23T14:52:58Z</time></trkpt><trkpt lat="42.27167988932689" lon="14.478178416985045"><ele>113.66666666666666</ele><time>2026-04-23T14:52:59Z</time></trkpt><trkpt lat="42.271748750829616" lon="14.478424034053802"><ele>113.33333333333333</ele><time>2026-04-23T14:53:00Z</time></trkpt><trkpt lat="42.27181858700097" lon="14.478674303284073"><ele>113.0</ele><time>2026-04-23T14:53:01Z</time></trkpt><trkpt lat="42.27188766170166" lon="14.478923747690368"><ele>112.33333333333333</ele><time>2026-04-23T14:53:02Z</time></trkpt><trkpt lat="42.27194974711331" lon="14.47915701748526"><ele>111.66666666666666</ele><time>2026-04-23T14:53:03Z</time></trkpt><trkpt lat="42.27200783500241" lon="14.479381121074656"><ele>111.0</ele><time>2026-04-23T14:53:04Z</time></trkpt><trkpt lat="42.27204879503453" lon="14.47957420692987"><ele>110.6</ele><time>2026-04-23T14:53:05Z</time></trkpt><trkpt lat="42.27206511270887" lon="14.479733067194399"><ele>110.19999999999999</ele><time>2026-04-23T14:53:06Z</time></trkpt><trkpt lat="42.27204259776374" lon="14.479856947554257"><ele>109.80000000000001</ele><time>2026-04-23T14:53:07Z</time></trkpt><trkpt lat="42.27198695944501" lon="14.479963030335227"><ele>109.4</ele><time>2026-04-23T14:53:08Z</time></trkpt><trkpt lat="42.27189590542623" lon="14.480077755667168"><ele>109.0</ele><time>2026-04-23T14:53:09Z</time></trkpt><trkpt lat="42.27178795075158" lon="14.48021546900001"><ele>109.0</ele><time>2026-04-23T14:53:10Z</time></trkpt><trkpt lat="42.27167064729547" lon="14.480365713749785"><ele>109.0</ele><time>2026-04-23T14:53:11Z</time></trkpt><trkpt lat="42.2715654888987" lon="14.480507463635336"><ele>109.0</ele><time>2026-04-23T14:53:12Z</time></trkpt><trkpt lat="42.27151000696613" lon="14.480649504887747"><ele>109.0</ele><time>2026-04-23T14:53:13Z</time></trkpt><trkpt lat="42.27147171740975" lon="14.480769426161498"><ele>108.0</ele><time>2026-04-23T14:53:14Z</time></trkpt><trkpt lat="42.27147072457895" lon="14.480899151458573"><ele>107.0</ele><time>2026-04-23T14:53:15Z</time></trkpt><trkpt lat="42.27150186469989" lon="14.481052749579526"><ele>106.0</ele><time>2026-04-23T14:53:16Z</time></trkpt><trkpt lat="42.27156147264055" lon="14.48121130445974"><ele>105.0</ele><time>2026-04-23T14:53:17Z</time></trkpt><trkpt lat="42.27164296042323" lon="14.48136965011807"><ele>102.33333333333334</ele><time>2026-04-23T14:53:18Z</time></trkpt><trkpt lat="42.2717254137145" lon="14.481533129332485"><ele>99.66666666666667</ele><time>2026-04-23T14:53:19Z</time></trkpt><trkpt lat="42.27180927990744" lon="14.481720926234098"><ele>97.0</ele><time>2026-04-23T14:53:20Z</time></trkpt><trkpt lat="42.27187166398135" lon="14.481916252219246"><ele>97.0</ele><time>2026-04-23T14:53:21Z</time></trkpt><trkpt lat="42.2719375825036" lon="14.48208192500565"><ele>97.0</ele><time>2026-04-23T14:53:22Z</time></trkpt><trkpt lat="42.27199912522667" lon="14.482236600088932"><ele>97.0</ele><time>2026-04-23T14:53:23Z</time></trkpt><trkpt lat="42.272061115951416" lon="14.482387985495969"><ele>97.0</ele><time>2026-04-23T14:53:24Z</time></trkpt><trkpt lat="42.272123712226126" lon="14.482534830250824"><ele>95.5</ele><time>2026-04-23T14:53:25Z</time></trkpt><trkpt lat="42.27219081132183" lon="14.482680520716938"><ele>94.0</ele><time>2026-04-23T14:53:26Z</time></trkpt><trkpt lat="42.272266270610885" lon="14.482832409548408"><ele>92.5</ele><time>2026-04-23T14:53:27Z</time></trkpt><trkpt lat="42.2723470086091" lon="14.482988476580923"><ele>91.0</ele><time>2026-04-23T14:53:28Z</time></trkpt><trkpt lat="42.2724278504937" lon="14.48315459613029"><ele>91.0</ele><time>2026-04-23T14:53:29Z</time></trkpt><trkpt lat="42.27250344692423" lon="14.483322349227103"><ele>91.0</ele><time>2026-04-23T14:53:30Z</time></trkpt><trkpt lat="42.27259704248005" lon="14.483479146971854"><ele>91.0</ele><time>2026-04-23T14:53:31Z</time></trkpt><trkpt lat="42.27266830965161" lon="14.483642373488568"><ele>91.0</ele><time>2026-04-23T14:53:32Z</time></trkpt><trkpt lat="42.272742626574804" lon="14.483789761524028"><ele>89.75</ele><time>2026-04-23T14:53:33Z</time></trkpt><trkpt lat="42.27282614521839" lon="14.483918388926886"><ele>88.5</ele><time>2026-04-23T14:53:34Z</time></trkpt><trkpt lat="42.27292045128705" lon="14.484020127788655"><ele>87.25</ele><time>2026-04-23T14:53:35Z</time></trkpt><trkpt lat="42.27303061423783" lon="14.484097750299245"><ele>86.0</ele><time>2026-04-23T14:53:36Z</time></trkpt><trkpt lat="42.27315302182617" lon="14.484153546259535"><ele>86.0</ele><time>2026-04-23T14:53:37Z</time></trkpt><trkpt lat="42.2732720909688" lon="14.484203240060811"><ele>86.0</ele><time>2026-04-23T14:53:38Z</time></trkpt><trkpt lat="42.2733938759084" lon="14.484238974665173"><ele>86.0</ele><time>2026-04-23T14:53:39Z</time></trkpt><trkpt lat="42.27351775724385" lon="14.484261327472082"><ele>86.0</ele><time>2026-04-23T14:53:40Z</time></trkpt><trkpt lat="42.273615877072594" lon="14.484273243779882"><ele>86.0</ele><time>2026-04-23T14:53:41Z</time></trkpt><trkpt lat="42.27369262441492" lon="14.484306126417566"><ele>86.0</ele><time>2026-04-23T14:53:42Z</time></trkpt><trkpt lat="42.273734835813464" lon="14.484374804577191"><ele>86.0</ele><time>2026-04-23T14:53:43Z</time></trkpt><trkpt lat="42.273729043721694" lon="14.484491572983458"><ele>86.0</ele><time>2026-04-23T14:53:44Z</time></trkpt><trkpt lat="42.27370605157348" lon="14.484769732604027"><ele>86.0</ele><time>2026-04-23T14:53:46Z</time></trkpt><trkpt lat="42.27374160822489" lon="14.484932993493137"><ele>82.75</ele><time>2026-04-23T14:53:47Z</time></trkpt><trkpt lat="42.27376596337725" lon="14.485113685765088"><ele>79.5</ele><time>2026-04-23T14:53:48Z</time></trkpt><trkpt lat="42.27382032979915" lon="14.48525363647639"><ele>76.25</ele><time>2026-04-23T14:53:49Z</time></trkpt><trkpt lat="42.27390488025023" lon="14.485394769292926"><ele>73.0</ele><time>2026-04-23T14:53:50Z</time></trkpt><trkpt lat="42.27395130594531" lon="14.485536182479754"><ele>69.2</ele><time>2026-04-23T14:53:51Z</time></trkpt><trkpt lat="42.273998650156585" lon="14.485668380783979"><ele>65.4</ele><time>2026-04-23T14:53:52Z</time></trkpt><trkpt lat="42.274020130986344" lon="14.485804284038151"><ele>61.60000000000001</ele><time>2026-04-23T14:53:53Z</time></trkpt><trkpt lat="42.274028016159235" lon="14.485942397290385"><ele>57.800000000000004</ele><time>2026-04-23T14:53:54Z</time></trkpt><trkpt lat="42.274026001392045" lon="14.48605846306229"><ele>54.0</ele><time>2026-04-23T14:53:55Z</time></trkpt><trkpt lat="42.27403307618954" lon="14.486143485918037"><ele>54.0</ele><time>2026-04-23T14:53:56Z</time></trkpt><trkpt lat="42.27411078076971" lon="14.486255466655654"><ele>54.00000000000001</ele><time>2026-04-23T14:53:58Z</time></trkpt><trkpt lat="42.274181890605284" lon="14.486227397503274"><ele>54.00000000000001</ele><time>2026-04-23T14:53:59Z</time></trkpt><trkpt lat="42.27422351439004" lon="14.48611953929164"><ele>54.0</ele><time>2026-04-23T14:54:00Z</time></trkpt><trkpt lat="42.274236210408" lon="14.48601719868426"><ele>54.0</ele><time>2026-04-23T14:54:01Z</time></trkpt><trkpt lat="42.274245965568305" lon="14.485886919833582"><ele>54.0</ele><time>2026-04-23T14:54:02Z</time></trkpt><trkpt lat="42.274296888174504" lon="14.485799418152872"><ele>54.00000000000001</ele><time>2026-04-23T14:54:03Z</time></trkpt><trkpt lat="42.27440166248642" lon="14.48576073448266"><ele>54.00000000000001</ele><time>2026-04-23T14:54:05Z</time></trkpt><trkpt lat="42.27445029541221" lon="14.48583183295347"><ele>54.0</ele><time>2026-04-23T14:54:06Z</time></trkpt><trkpt lat="42.27444025227037" lon="14.485958410040295"><ele>54.0</ele><time>2026-04-23T14:54:07Z</time></trkpt><trkpt lat="42.27441059625056" lon="14.486095956247697"><ele>50.5</ele><time>2026-04-23T14:54:08Z</time></trkpt><trkpt lat="42.27439909197127" lon="14.486265970830996"><ele>47.0</ele><time>2026-04-23T14:54:09Z</time></trkpt><trkpt lat="42.27436953129585" lon="14.486436083897196"><ele>43.5</ele><time>2026-04-23T14:54:10Z</time></trkpt><trkpt lat="42.274316263650704" lon="14.486591092732159"><ele>40.0</ele><time>2026-04-23T14:54:11Z</time></trkpt><trkpt lat="42.27425071311127" lon="14.486758039673528"><ele>40.0</ele><time>2026-04-23T14:54:12Z</time></trkpt><trkpt lat="42.27420370668672" lon="14.486932144349325"><ele>40.0</ele><time>2026-04-23T14:54:13Z</time></trkpt><trkpt lat="42.27417027795787" lon="14.487108972969427"><ele>40.0</ele><time>2026-04-23T14:54:14Z</time></trkpt><trkpt lat="42.27414480238536" lon="14.487264889088701"><ele>40.0</ele><time>2026-04-23T14:54:15Z</time></trkpt><trkpt lat="42.274120287921775" lon="14.48738808774715"><ele>36.6</ele><time>2026-04-23T14:54:16Z</time></trkpt><trkpt lat="42.274077390674655" lon="14.48748664673358"><ele>33.2</ele><time>2026-04-23T14:54:17Z</time></trkpt><trkpt lat="42.27400792894622" lon="14.487552802053875"><ele>29.799999999999997</ele><time>2026-04-23T14:54:18Z</time></trkpt><trkpt lat="42.27391379374771" lon="14.487554393365826"><ele>26.4</ele><time>2026-04-23T14:54:19Z</time></trkpt><trkpt lat="42.27381171953313" lon="14.487577113810302"><ele>23.0</ele><time>2026-04-23T14:54:20Z</time></trkpt><trkpt lat="42.273671081994436" lon="14.487667303538364"><ele>22.599999999999998</ele><time>2026-04-23T14:54:22Z</time></trkpt><trkpt lat="42.27358671650303" lon="14.48771250280293"><ele>22.2</ele><time>2026-04-23T14:54:24Z</time></trkpt><trkpt lat="42.2735187519167" lon="14.487705853579875"><ele>21.8</ele><time>2026-04-23T14:54:25Z</time></trkpt><trkpt lat="42.27343582777924" lon="14.487683307592777"><ele>21.4</ele><time>2026-04-23T14:54:26Z</time></trkpt><trkpt lat="42.27333444813025" lon="14.487649782005692"><ele>21.0</ele><time>2026-04-23T14:54:27Z</time></trkpt><trkpt lat="42.27321234194071" lon="14.487603312992666"><ele>20.25</ele><time>2026-04-23T14:54:28Z</time></trkpt><trkpt lat="42.273094059564436" lon="14.487537091772532"><ele>19.5</ele><time>2026-04-23T14:54:29Z</time></trkpt><trkpt lat="42.27297279641326" lon="14.487445091085029"><ele>18.75</ele><time>2026-04-23T14:54:30Z</time></trkpt><trkpt lat="42.27285073896905" lon="14.48732964782678"><ele>18.0</ele><time>2026-04-23T14:54:31Z</time></trkpt><trkpt lat="42.2727281343893" lon="14.487209304663455"><ele>18.0</ele><time>2026-04-23T14:54:32Z</time></trkpt><trkpt lat="42.27260333481807" lon="14.487095157236586"><ele>18.0</ele><time>2026-04-23T14:54:33Z</time></trkpt><trkpt lat="42.27247278845292" lon="14.486981953310503"><ele>18.0</ele><time>2026-04-23T14:54:34Z</time></trkpt><trkpt lat="42.2723423213523" lon="14.48687076867369"><ele>19.0</ele><time>2026-04-23T14:54:35Z</time></trkpt><trkpt lat="42.27222789869192" lon="14.486765597823263"><ele>20.0</ele><time>2026-04-23T14:54:36Z</time></trkpt><trkpt lat="42.27213033032899" lon="14.486664512711547"><ele>21.0</ele><time>2026-04-23T14:54:37Z</time></trkpt><trkpt lat="42.27205456119782" lon="14.486572504020618"><ele>22.0</ele><time>2026-04-23T14:54:38Z</time></trkpt><trkpt lat="42.27200712772624" lon="14.486499472795828"><ele>23.0</ele><time>2026-04-23T14:54:39Z</time></trkpt><trkpt lat="42.27187664086143" lon="14.486470586472647"><ele>23.0</ele><time>2026-04-23T14:54:41Z</time></trkpt><trkpt lat="42.271782204024476" lon="14.486491695377286"><ele>23.0</ele><time>2026-04-23T14:54:42Z</time></trkpt><trkpt lat="42.271669345333606" lon="14.48647940287557"><ele>23.0</ele><time>2026-04-23T14:54:43Z</time></trkpt><trkpt lat="42.27154080780371" lon="14.48648902757771"><ele>23.0</ele><time>2026-04-23T14:54:44Z</time></trkpt><trkpt lat="42.27140473367586" lon="14.486504603287383"><ele>23.25</ele><time>2026-04-23T14:54:45Z</time></trkpt><trkpt lat="42.27127679305788" lon="14.486537094073665"><ele>23.5</ele><time>2026-04-23T14:54:46Z</time></trkpt><trkpt lat="42.27116305539477" lon="14.486535366381576"><ele>23.75</ele><time>2026-04-23T14:54:47Z</time></trkpt><trkpt lat="42.27106362785176" lon="14.486477693498147"><ele>24.0</ele><time>2026-04-23T14:54:48Z</time></trkpt><trkpt lat="42.27098406288338" lon="14.486393302311894"><ele>24.0</ele><time>2026-04-23T14:54:49Z</time></trkpt><trkpt lat="42.27089464566628" lon="14.486300861505054"><ele>24.0</ele><time>2026-04-23T14:54:50Z</time></trkpt><trkpt lat="42.27069480041384" lon="14.48614612172775"><ele>24.0</ele><time>2026-04-23T14:54:52Z</time></trkpt><trkpt lat="42.27060038242661" lon="14.486111141555252"><ele>24.0</ele><time>2026-04-23T14:54:53Z</time></trkpt><trkpt lat="42.27051162577955" lon="14.486105932906646"><ele>23.5</ele><time>2026-04-23T14:54:54Z</time></trkpt><trkpt lat="42.27041712505261" lon="14.486184957523472"><ele>23.0</ele><time>2026-04-23T14:54:55Z</time></trkpt><trkpt lat="42.270317648870076" lon="14.486278951502102"><ele>22.5</ele><time>2026-04-23T14:54:56Z</time></trkpt><trkpt lat="42.270191087807206" lon="14.486368566469674"><ele>22.0</ele><time>2026-04-23T14:54:57Z</time></trkpt><trkpt lat="42.27006884403854" lon="14.486473474376313"><ele>23.0</ele><time>2026-04-23T14:54:58Z</time></trkpt><trkpt lat="42.269939567333985" lon="14.486584045729256"><ele>24.0</ele><time>2026-04-23T14:54:59Z</time></trkpt><trkpt lat="42.26982789094154" lon="14.486656074639171"><ele>25.0</ele><time>2026-04-23T14:55:00Z</time></trkpt><trkpt lat="42.269705833038095" lon="14.486702863812571"><ele>26.0</ele><time>2026-04-23T14:55:01Z</time></trkpt><trkpt lat="42.26957789076002" lon="14.486742868423391"><ele>28.75</ele><time>2026-04-23T14:55:02Z</time></trkpt><trkpt lat="42.26944310131467" lon="14.486773787574025"><ele>31.5</ele><time>2026-04-23T14:55:03Z</time></trkpt><trkpt lat="42.26930533107666" lon="14.486804245093536"><ele>34.25</ele><time>2026-04-23T14:55:04Z</time></trkpt><trkpt lat="42.269169148133784" lon="14.486856196525803"><ele>37.0</ele><time>2026-04-23T14:55:05Z</time></trkpt><trkpt lat="42.26903357274462" lon="14.486884405766906"><ele>39.2</ele><time>2026-04-23T14:55:06Z</time></trkpt><trkpt lat="42.26891508868359" lon="14.486893589058722"><ele>41.400000000000006</ele><time>2026-04-23T14:55:07Z</time></trkpt><trkpt lat="42.26882899503659" lon="14.48691330003579"><ele>43.599999999999994</ele><time>2026-04-23T14:55:08Z</time></trkpt><trkpt lat="42.26877996898751" lon="14.487023551340855"><ele>45.8</ele><time>2026-04-23T14:55:09Z</time></trkpt><trkpt lat="42.26873813282656" lon="14.487124648040895"><ele>48.0</ele><time>2026-04-23T14:55:10Z</time></trkpt><trkpt lat="42.268703471228406" lon="14.48724798794318"><ele>51.0</ele><time>2026-04-23T14:55:11Z</time></trkpt><trkpt lat="42.268659949407294" lon="14.487384759295736"><ele>54.0</ele><time>2026-04-23T14:55:12Z</time></trkpt><trkpt lat="42.26859941154524" lon="14.487505711273334"><ele>57.0</ele><time>2026-04-23T14:55:13Z</time></trkpt><trkpt lat="42.26852386984774" lon="14.487591699219008"><ele>60.0</ele><time>2026-04-23T14:55:14Z</time></trkpt><trkpt lat="42.268418855720874" lon="14.487657829921531"><ele>63.0</ele><time>2026-04-23T14:55:15Z</time></trkpt><trkpt lat="42.26829516666652" lon="14.487707018413376"><ele>63.0</ele><time>2026-04-23T14:55:16Z</time></trkpt><trkpt lat="42.26815828613847" lon="14.487715650690062"><ele>63.0</ele><time>2026-04-23T14:55:17Z</time></trkpt><trkpt lat="42.26801370599309" lon="14.48768822976291"><ele>63.0</ele><time>2026-04-23T14:55:18Z</time></trkpt><trkpt lat="42.26787000478816" lon="14.487641484412231"><ele>63.0</ele><time>2026-04-23T14:55:19Z</time></trkpt><trkpt lat="42.26773162755757" lon="14.487594023817264"><ele>67.25</ele><time>2026-04-23T14:55:20Z</time></trkpt><trkpt lat="42.26759360925577" lon="14.4875581331606"><ele>71.5</ele><time>2026-04-23T14:55:21Z</time></trkpt><trkpt lat="42.26745308527826" lon="14.487522447767187"><ele>75.75</ele><time>2026-04-23T14:55:22Z</time></trkpt><trkpt lat="42.26732101578626" lon="14.487476812015498"><ele>80.0</ele><time>2026-04-23T14:55:23Z</time></trkpt><trkpt lat="42.26718901181619" lon="14.48743147031858"><ele>83.5</ele><time>2026-04-23T14:55:24Z</time></trkpt><trkpt lat="42.26705193262019" lon="14.48738394784413"><ele>87.0</ele><time>2026-04-23T14:55:25Z</time></trkpt><trkpt lat="42.26692079098875" lon="14.487320560746518"><ele>90.5</ele><time>2026-04-23T14:55:26Z</time></trkpt><trkpt lat="42.26677663313608" lon="14.487294182866162"><ele>94.0</ele><time>2026-04-23T14:55:27Z</time></trkpt><trkpt lat="42.26664070650735" lon="14.487255700211342"><ele>94.0</ele><time>2026-04-23T14:55:28Z</time></trkpt><trkpt lat="42.26650308774552" lon="14.487196451699905"><ele>94.0</ele><time>2026-04-23T14:55:29Z</time></trkpt><trkpt lat="42.26636178730545" lon="14.487159499312778"><ele>94.0</ele><time>2026-04-23T14:55:30Z</time></trkpt><trkpt lat="42.26622278248625" lon="14.487124708237129"><ele>94.0</ele><time>2026-04-23T14:55:31Z</time></trkpt><trkpt lat="42.266084459422736" lon="14.487090087747825"><ele>94.25</ele><time>2026-04-23T14:55:32Z</time></trkpt><trkpt lat="42.26594920308835" lon="14.487054006996862"><ele>94.5</ele><time>2026-04-23T14:55:33Z</time></trkpt><trkpt lat="42.265815668171356" lon="14.48701644136687"><ele>94.75</ele><time>2026-04-23T14:55:34Z</time></trkpt><trkpt lat="42.265669193620035" lon="14.486971921587564"><ele>95.0</ele><time>2026-04-23T14:55:35Z</time></trkpt><trkpt lat="42.26552514074847" lon="14.486921837684303"><ele>99.66666666666667</ele><time>2026-04-23T14:55:36Z</time></trkpt><trkpt lat="42.265375043812924" lon="14.48687344878896"><ele>104.33333333333334</ele><time>2026-04-23T14:55:37Z</time></trkpt><trkpt lat="42.265227802344974" lon="14.48682698339398"><ele>109.0</ele><time>2026-04-23T14:55:38Z</time></trkpt><trkpt lat="42.26508658330927" lon="14.486775628805116"><ele>109.0</ele><time>2026-04-23T14:55:39Z</time></trkpt><trkpt lat="42.26495405904448" lon="14.486720964623089"><ele>109.0</ele><time>2026-04-23T14:55:40Z</time></trkpt><trkpt lat="42.26482408534015" lon="14.486660864305744"><ele>109.0</ele><time>2026-04-23T14:55:41Z</time></trkpt><trkpt lat="42.26471073516362" lon="14.486598021205523"><ele>109.0</ele><time>2026-04-23T14:55:42Z</time></trkpt><trkpt lat="42.26460832328269" lon="14.486556886392979"><ele>110.0</ele><time>2026-04-23T14:55:43Z</time></trkpt><trkpt lat="42.26452968644524" lon="14.486494696714015"><ele>111.0</ele><time>2026-04-23T14:55:44Z</time></trkpt><trkpt lat="42.264455456535835" lon="14.486413290164956"><ele>112.0</ele><time>2026-04-23T14:55:46Z</time></trkpt><trkpt lat="42.264385755913956" lon="14.486293458506111"><ele>113.0</ele><time>2026-04-23T14:55:48Z</time></trkpt><trkpt lat="42.264335885721074" lon="14.486201887932475"><ele>114.0</ele><time>2026-04-23T14:55:49Z</time></trkpt><trkpt lat="42.264280587513795" lon="14.486107105538887"><ele>114.0</ele><time>2026-04-23T14:55:50Z</time></trkpt><trkpt lat="42.2642285244706" lon="14.48602397840521"><ele>114.0</ele><time>2026-04-23T14:55:51Z</time></trkpt><trkpt lat="42.264148788405095" lon="14.48594293789885"><ele>114.0</ele><time>2026-04-23T14:55:53Z</time></trkpt><trkpt lat="42.26412969454225" lon="14.486166551220094"><ele>114.0</ele><time>2026-04-23T14:55:57Z</time></trkpt><trkpt lat="42.264192913283445" lon="14.486290493935313"><ele>114.0</ele><time>2026-04-23T14:55:58Z</time></trkpt><trkpt lat="42.26422869834203" lon="14.486422825167423"><ele>114.0</ele><time>2026-04-23T14:55:59Z</time></trkpt><trkpt lat="42.26426105230334" lon="14.486575365821377"><ele>114.0</ele><time>2026-04-23T14:56:00Z</time></trkpt><trkpt lat="42.26429805335389" lon="14.486733064783271"><ele>114.0</ele><time>2026-04-23T14:56:01Z</time></trkpt><trkpt lat="42.26434531891629" lon="14.486898409720384"><ele>114.0</ele><time>2026-04-23T14:56:02Z</time></trkpt><trkpt lat="42.264409715362" lon="14.487062061552622"><ele>114.0</ele><time>2026-04-23T14:56:03Z</time></trkpt><trkpt lat="42.264487129865444" lon="14.487214194378314"><ele>114.0</ele><time>2026-04-23T14:56:04Z</time></trkpt><trkpt lat="42.26455604429817" lon="14.487363675886517"><ele>114.0</ele><time>2026-04-23T14:56:05Z</time></trkpt><trkpt lat="42.264651070377994" lon="14.487509022530404"><ele>113.5</ele><time>2026-04-23T14:56:06Z</time></trkpt><trkpt lat="42.26474873680694" lon="14.487653840659421"><ele>113.0</ele><time>2026-04-23T14:56:07Z</time></trkpt><trkpt lat="42.26484898979049" lon="14.487802494162384"><ele>112.5</ele><time>2026-04-23T14:56:08Z</time></trkpt><trkpt lat="42.26495171386099" lon="14.487954948553776"><ele>112.0</ele><time>2026-04-23T14:56:09Z</time></trkpt><trkpt lat="42.26505753871305" lon="14.488112095102524"><ele>111.66666666666667</ele><time>2026-04-23T14:56:10Z</time></trkpt><trkpt lat="42.265166601203426" lon="14.488270921800865"><ele>111.33333333333334</ele><time>2026-04-23T14:56:11Z</time></trkpt><trkpt lat="42.26528004482856" lon="14.488420205728902"><ele>111.0</ele><time>2026-04-23T14:56:12Z</time></trkpt><trkpt lat="42.26540375375513" lon="14.488561805308027"><ele>111.0</ele><time>2026-04-23T14:56:13Z</time></trkpt><trkpt lat="42.265549819302414" lon="14.488670381624681"><ele>111.0</ele><time>2026-04-23T14:56:14Z</time></trkpt><trkpt lat="42.265679619970655" lon="14.488806790007777"><ele>111.0</ele><time>2026-04-23T14:56:15Z</time></trkpt><trkpt lat="42.26582401879416" lon="14.4889297480576"><ele>111.0</ele><time>2026-04-23T14:56:16Z</time></trkpt><trkpt lat="42.26596216208902" lon="14.489059784371866"><ele>111.0</ele><time>2026-04-23T14:56:17Z</time></trkpt><trkpt lat="42.26610417697841" lon="14.48919741897181"><ele>111.0</ele><time>2026-04-23T14:56:18Z</time></trkpt><trkpt lat="42.266243577756725" lon="14.489338460789957"><ele>111.0</ele><time>2026-04-23T14:56:19Z</time></trkpt><trkpt lat="42.266383351187905" lon="14.48948096545041"><ele>111.0</ele><time>2026-04-23T14:56:20Z</time></trkpt><trkpt lat="42.26652469272566" lon="14.489600323991157"><ele>111.0</ele><time>2026-04-23T14:56:21Z</time></trkpt><trkpt lat="42.266654580255995" lon="14.489731644657594"><ele>111.0</ele><time>2026-04-23T14:56:22Z</time></trkpt><trkpt lat="42.2667864605576" lon="14.489868945249082"><ele>111.0</ele><time>2026-04-23T14:56:23Z</time></trkpt><trkpt lat="42.26691753465462" lon="14.490003239932157"><ele>111.0</ele><time>2026-04-23T14:56:24Z</time></trkpt><trkpt lat="42.26704839602683" lon="14.490139284930072"><ele>111.0</ele><time>2026-04-23T14:56:25Z</time></trkpt><trkpt lat="42.267160634615536" lon="14.490283015932214"><ele>111.0</ele><time>2026-04-23T14:56:26Z</time></trkpt><trkpt lat="42.267277553863806" lon="14.49040615465726"><ele>111.0</ele><time>2026-04-23T14:56:27Z</time></trkpt><trkpt lat="42.26739207708282" lon="14.490526769901376"><ele>111.0</ele><time>2026-04-23T14:56:28Z</time></trkpt><trkpt lat="42.267508946550834" lon="14.490648091820397"><ele>110.25</ele><time>2026-04-23T14:56:29Z</time></trkpt><trkpt lat="42.267624755829786" lon="14.490766751129842"><ele>109.5</ele><time>2026-04-23T14:56:30Z</time></trkpt><trkpt lat="42.267748011282215" lon="14.490871703945926"><ele>108.75</ele><time>2026-04-23T14:56:31Z</time></trkpt><trkpt lat="42.2678581956954" lon="14.49098880455197"><ele>108.0</ele><time>2026-04-23T14:56:32Z</time></trkpt><trkpt lat="42.26796448452886" lon="14.491101635346151"><ele>108.0</ele><time>2026-04-23T14:56:33Z</time></trkpt><trkpt lat="42.26806358749565" lon="14.491203788169251"><ele>108.00000000000001</ele><time>2026-04-23T14:56:34Z</time></trkpt><trkpt lat="42.26815386261401" lon="14.491295665630423"><ele>108.00000000000001</ele><time>2026-04-23T14:56:35Z</time></trkpt><trkpt lat="42.26823948000085" lon="14.491378521150256"><ele>108.0</ele><time>2026-04-23T14:56:36Z</time></trkpt><trkpt lat="42.26832452447559" lon="14.49145216394113"><ele>108.0</ele><time>2026-04-23T14:56:37Z</time></trkpt><trkpt lat="42.26839659971659" lon="14.491519716075208"><ele>108.0</ele><time>2026-04-23T14:56:38Z</time></trkpt><trkpt lat="42.26842489773742" lon="14.491598009280434"><ele>108.00000000000001</ele><time>2026-04-23T14:56:39Z</time></trkpt><trkpt lat="42.2683485689305" lon="14.491732016164224"><ele>108.00000000000001</ele><time>2026-04-23T14:56:41Z</time></trkpt><trkpt lat="42.26830832614436" lon="14.491839929161968"><ele>108.0</ele><time>2026-04-23T14:56:42Z</time></trkpt><trkpt lat="42.26826209079794" lon="14.491964858141104"><ele>108.0</ele><time>2026-04-23T14:56:43Z</time></trkpt><trkpt lat="42.26821125426719" lon="14.492102220119028"><ele>107.75</ele><time>2026-04-23T14:56:44Z</time></trkpt><trkpt lat="42.26815340377726" lon="14.492258534057521"><ele>107.5</ele><time>2026-04-23T14:56:45Z</time></trkpt><trkpt lat="42.26809015177793" lon="14.492429442730941"><ele>107.25</ele><time>2026-04-23T14:56:46Z</time></trkpt><trkpt lat="42.26801826490028" lon="14.492600637642123"><ele>107.0</ele><time>2026-04-23T14:56:47Z</time></trkpt><trkpt lat="42.2679263217882" lon="14.492766994264992"><ele>105.66666666666666</ele><time>2026-04-23T14:56:48Z</time></trkpt><trkpt lat="42.26781969152117" lon="14.492927864956904"><ele>104.33333333333334</ele><time>2026-04-23T14:56:49Z</time></trkpt><trkpt lat="42.267709324689704" lon="14.493095828698994"><ele>103.0</ele><time>2026-04-23T14:56:50Z</time></trkpt><trkpt lat="42.267600270538864" lon="14.493265539285558"><ele>103.0</ele><time>2026-04-23T14:56:51Z</time></trkpt><trkpt lat="42.26749823257835" lon="14.493426069828867"><ele>103.0</ele><time>2026-04-23T14:56:52Z</time></trkpt><trkpt lat="42.26740134037263" lon="14.493581397758495"><ele>103.0</ele><time>2026-04-23T14:56:53Z</time></trkpt><trkpt lat="42.26731937965163" lon="14.493745145772063"><ele>103.0</ele><time>2026-04-23T14:56:54Z</time></trkpt><trkpt lat="42.267261416897796" lon="14.493916370614704"><ele>103.0</ele><time>2026-04-23T14:56:55Z</time></trkpt><trkpt lat="42.26723286756476" lon="14.49407934778728"><ele>103.0</ele><time>2026-04-23T14:56:56Z</time></trkpt><trkpt lat="42.26725188685541" lon="14.494246264127883"><ele>103.0</ele><time>2026-04-23T14:56:57Z</time></trkpt><trkpt lat="42.26732714596554" lon="14.494382394684179"><ele>103.0</ele><time>2026-04-23T14:56:58Z</time></trkpt><trkpt lat="42.26737485098077" lon="14.494548927256478"><ele>103.0</ele><time>2026-04-23T14:56:59Z</time></trkpt><trkpt lat="42.267430000897015" lon="14.494729738376769"><ele>103.0</ele><time>2026-04-23T14:57:00Z</time></trkpt><trkpt lat="42.267462909458715" lon="14.494903349811192"><ele>103.0</ele><time>2026-04-23T14:57:01Z</time></trkpt><trkpt lat="42.26750013520734" lon="14.495048902742584"><ele>102.25</ele><time>2026-04-23T14:57:02Z</time></trkpt><trkpt lat="42.2675072265578" lon="14.495198576327429"><ele>101.5</ele><time>2026-04-23T14:57:03Z</time></trkpt><trkpt lat="42.26749777043924" lon="14.49534042637362"><ele>100.75</ele><time>2026-04-23T14:57:04Z</time></trkpt><trkpt lat="42.267461099893495" lon="14.495497085490937"><ele>100.0</ele><time>2026-04-23T14:57:05Z</time></trkpt><trkpt lat="42.267471925187955" lon="14.495666812608295"><ele>99.5</ele><time>2026-04-23T14:57:06Z</time></trkpt><trkpt lat="42.26747060644168" lon="14.495836913345082"><ele>99.0</ele><time>2026-04-23T14:57:07Z</time></trkpt><trkpt lat="42.26748009279465" lon="14.49601247969973"><ele>98.5</ele><time>2026-04-23T14:57:08Z</time></trkpt><trkpt lat="42.2674915986324" lon="14.496191725624756"><ele>98.0</ele><time>2026-04-23T14:57:09Z</time></trkpt><trkpt lat="42.26750179461882" lon="14.496373176501"><ele>98.0</ele><time>2026-04-23T14:57:10Z</time></trkpt><trkpt lat="42.26750550706436" lon="14.496558235398231"><ele>98.0</ele><time>2026-04-23T14:57:11Z</time></trkpt><trkpt lat="42.267485143884485" lon="14.496738230934008"><ele>98.0</ele><time>2026-04-23T14:57:12Z</time></trkpt><trkpt lat="42.26747643069072" lon="14.496905055461127"><ele>98.0</ele><time>2026-04-23T14:57:13Z</time></trkpt><trkpt lat="42.26744954976629" lon="14.497055278123462"><ele>98.5</ele><time>2026-04-23T14:57:14Z</time></trkpt><trkpt lat="42.26740063141142" lon="14.497188396917155"><ele>99.0</ele><time>2026-04-23T14:57:15Z</time></trkpt><trkpt lat="42.267331936306" lon="14.497314438906752"><ele>99.5</ele><time>2026-04-23T14:57:16Z</time></trkpt><trkpt lat="42.26723618107384" lon="14.497425735738302"><ele>100.0</ele><time>2026-04-23T14:57:17Z</time></trkpt><trkpt lat="42.26706297632613" lon="14.497667524459498"><ele>96.5</ele><time>2026-04-23T14:57:19Z</time></trkpt><trkpt lat="42.26697381560725" lon="14.497777678145154"><ele>93.0</ele><time>2026-04-23T14:57:20Z</time></trkpt><trkpt lat="42.26687278903081" lon="14.497859178977063"><ele>89.5</ele><time>2026-04-23T14:57:21Z</time></trkpt><trkpt lat="42.266776734692165" lon="14.497949219408707"><ele>86.0</ele><time>2026-04-23T14:57:22Z</time></trkpt><trkpt lat="42.266689350530115" lon="14.498052605270251"><ele>85.83333333333334</ele><time>2026-04-23T14:57:23Z</time></trkpt><trkpt lat="42.26658867283765" lon="14.498125928016961"><ele>85.66666666666667</ele><time>2026-04-23T14:57:24Z</time></trkpt><trkpt lat="42.266503249739834" lon="14.498187415880073"><ele>85.5</ele><time>2026-04-23T14:57:25Z</time></trkpt><trkpt lat="42.266438966009765" lon="14.49825469101957"><ele>85.33333333333333</ele><time>2026-04-23T14:57:26Z</time></trkpt><trkpt lat="42.266410130256546" lon="14.498349442166036"><ele>85.16666666666666</ele><time>2026-04-23T14:57:27Z</time></trkpt><trkpt lat="42.26640634813815" lon="14.498446940703921"><ele>85.0</ele><time>2026-04-23T14:57:28Z</time></trkpt><trkpt lat="42.266479976815866" lon="14.498529775585872"><ele>85.0</ele><time>2026-04-23T14:57:29Z</time></trkpt><trkpt lat="42.26656267130952" lon="14.498586858081376"><ele>85.0</ele><time>2026-04-23T14:57:30Z</time></trkpt><trkpt lat="42.266655023388836" lon="14.498662459122686"><ele>85.0</ele><time>2026-04-23T14:57:31Z</time></trkpt><trkpt lat="42.26675456385698" lon="14.49874189984901"><ele>85.0</ele><time>2026-04-23T14:57:32Z</time></trkpt><trkpt lat="42.266850256534596" lon="14.498830985434262"><ele>85.0</ele><time>2026-04-23T14:57:33Z</time></trkpt><trkpt lat="42.266938659799656" lon="14.498932201664303"><ele>81.5</ele><time>2026-04-23T14:57:34Z</time></trkpt><trkpt lat="42.26702594664454" lon="14.499023546291172"><ele>78.0</ele><time>2026-04-23T14:57:35Z</time></trkpt><trkpt lat="42.26706450347065" lon="14.499142694704798"><ele>74.5</ele><time>2026-04-23T14:57:36Z</time></trkpt><trkpt lat="42.26709066520282" lon="14.499238310581317"><ele>71.0</ele><time>2026-04-23T14:57:37Z</time></trkpt><trkpt lat="42.267077908064856" lon="14.499372623728181"><ele>67.5</ele><time>2026-04-23T14:57:39Z</time></trkpt><trkpt lat="42.267016444131556" lon="14.499400921465472"><ele>64.0</ele><time>2026-04-23T14:57:40Z</time></trkpt><trkpt lat="42.26694155302916" lon="14.499356776336434"><ele>63.99999999999999</ele><time>2026-04-23T14:57:41Z</time></trkpt><trkpt lat="42.266855969308864" lon="14.499325540867432"><ele>64.0</ele><time>2026-04-23T14:57:42Z</time></trkpt><trkpt lat="42.266765367302426" lon="14.499295467171846"><ele>64.0</ele><time>2026-04-23T14:57:43Z</time></trkpt><trkpt lat="42.26668671859019" lon="14.499297787276952"><ele>64.0</ele><time>2026-04-23T14:57:44Z</time></trkpt><trkpt lat="42.26661420632391" lon="14.49932334071329"><ele>63.99999999999999</ele><time>2026-04-23T14:57:45Z</time></trkpt><trkpt lat="42.266549841771536" lon="14.499371347585194"><ele>64.0</ele><time>2026-04-23T14:57:46Z</time></trkpt><trkpt lat="42.26653935261589" lon="14.499513864052709"><ele>59.800000000000004</ele><time>2026-04-23T14:57:47Z</time></trkpt><trkpt lat="42.2665270439291" lon="14.499625139436539"><ele>55.60000000000001</ele><time>2026-04-23T14:57:48Z</time></trkpt><trkpt lat="42.26659137848133" lon="14.499741077677362"><ele>51.4</ele><time>2026-04-23T14:57:49Z</time></trkpt><trkpt lat="42.26667058601546" lon="14.499811186117896"><ele>47.2</ele><time>2026-04-23T14:57:50Z</time></trkpt><trkpt lat="42.26676373476193" lon="14.499835922587238"><ele>43.0</ele><time>2026-04-23T14:57:51Z</time></trkpt><trkpt lat="42.266845758429845" lon="14.499894019389574"><ele>43.0</ele><time>2026-04-23T14:57:52Z</time></trkpt><trkpt lat="42.266932092121486" lon="14.499945436393608"><ele>43.0</ele><time>2026-04-23T14:57:53Z</time></trkpt><trkpt lat="42.26701321233706" lon="14.500003434626342"><ele>43.0</ele><time>2026-04-23T14:57:54Z</time></trkpt><trkpt lat="42.26707100300027" lon="14.500072499060147"><ele>43.0</ele><time>2026-04-23T14:57:55Z</time></trkpt><trkpt lat="42.26710181955712" lon="14.500162624302032"><ele>43.0</ele><time>2026-04-23T14:57:56Z</time></trkpt><trkpt lat="42.26710888369181" lon="14.500312378109443"><ele>43.0</ele><time>2026-04-23T14:57:58Z</time></trkpt><trkpt lat="42.26725589569144" lon="14.500376668948903"><ele>44.599999999999994</ele><time>2026-04-23T14:58:00Z</time></trkpt><trkpt lat="42.26734659398006" lon="14.50041439804076"><ele>46.199999999999996</ele><time>2026-04-23T14:58:01Z</time></trkpt><trkpt lat="42.26744512802483" lon="14.500452618991803"><ele>47.8</ele><time>2026-04-23T14:58:02Z</time></trkpt><trkpt lat="42.26753787770485" lon="14.500523167461761"><ele>49.4</ele><time>2026-04-23T14:58:03Z</time></trkpt><trkpt lat="42.267633067507724" lon="14.500577129321375"><ele>51.0</ele><time>2026-04-23T14:58:04Z</time></trkpt><trkpt lat="42.267725582088666" lon="14.500636832035857"><ele>48.0</ele><time>2026-04-23T14:58:05Z</time></trkpt><trkpt lat="42.267823858993715" lon="14.500689171329054"><ele>45.0</ele><time>2026-04-23T14:58:06Z</time></trkpt><trkpt lat="42.26791653087183" lon="14.50076883874425"><ele>42.0</ele><time>2026-04-23T14:58:07Z</time></trkpt><trkpt lat="42.26799756913769" lon="14.500862754347688"><ele>39.0</ele><time>2026-04-23T14:58:08Z</time></trkpt><trkpt lat="42.26808797719123" lon="14.500950807744509"><ele>36.0</ele><time>2026-04-23T14:58:09Z</time></trkpt><trkpt lat="42.26817281786854" lon="14.501037792632056"><ele>36.0</ele><time>2026-04-23T14:58:10Z</time></trkpt><trkpt lat="42.268243714800036" lon="14.501110647088968"><ele>36.0</ele><time>2026-04-23T14:58:11Z</time></trkpt><trkpt lat="42.268292486382535" lon="14.50117925181348"><ele>36.0</ele><time>2026-04-23T14:58:12Z</time></trkpt><trkpt lat="42.26828857681007" lon="14.501316676118012"><ele>36.0</ele><time>2026-04-23T14:58:14Z</time></trkpt><trkpt lat="42.26823510469538" lon="14.501371925550067"><ele>36.0</ele><time>2026-04-23T14:58:15Z</time></trkpt><trkpt lat="42.26819615134304" lon="14.501439450212994"><ele>36.0</ele><time>2026-04-23T14:58:16Z</time></trkpt><trkpt lat="42.268138654784025" lon="14.501551436218715"><ele>32.2</ele><time>2026-04-23T14:58:18Z</time></trkpt><trkpt lat="42.26810287959272" lon="14.501622988921195"><ele>28.400000000000002</ele><time>2026-04-23T14:58:20Z</time></trkpt><trkpt lat="42.268085539799316" lon="14.501707397568273"><ele>24.6</ele><time>2026-04-23T14:58:31Z</time></trkpt><trkpt lat="42.268204804142904" lon="14.501785386402283"><ele>20.8</ele><time>2026-04-23T14:58:32Z</time></trkpt><trkpt lat="42.26829397325547" lon="14.50181541914596"><ele>17.0</ele><time>2026-04-23T14:58:33Z</time></trkpt><trkpt lat="42.268397692899974" lon="14.501864781081395"><ele>17.0</ele><time>2026-04-23T14:58:34Z</time></trkpt><trkpt lat="42.26851896561822" lon="14.501914783400048"><ele>17.0</ele><time>2026-04-23T14:58:35Z</time></trkpt><trkpt lat="42.26865247856823" lon="14.501968921090334"><ele>17.0</ele><time>2026-04-23T14:58:36Z</time></trkpt><trkpt lat="42.26880684249778" lon="14.50203388026295"><ele>17.0</ele><time>2026-04-23T14:58:37Z</time></trkpt><trkpt lat="42.26896172570592" lon="14.502100872629644"><ele>14.333333333333334</ele><time>2026-04-23T14:58:38Z</time></trkpt><trkpt lat="42.269112462091385" lon="14.50215780551233"><ele>11.666666666666668</ele><time>2026-04-23T14:58:39Z</time></trkpt><trkpt lat="42.26927164815669" lon="14.50219365002098"><ele>9.0</ele><time>2026-04-23T14:58:40Z</time></trkpt><trkpt lat="42.269442433277966" lon="14.502192309976152"><ele>9.0</ele><time>2026-04-23T14:58:41Z</time></trkpt><trkpt lat="42.269617472435534" lon="14.50215935848673"><ele>9.0</ele><time>2026-04-23T14:58:42Z</time></trkpt><trkpt lat="42.26979247160088" lon="14.502114399697493"><ele>9.0</ele><time>2026-04-23T14:58:43Z</time></trkpt><trkpt lat="42.269964391247974" lon="14.502072451063356"><ele>15.0</ele><time>2026-04-23T14:58:44Z</time></trkpt><trkpt lat="42.27013739888738" lon="14.502019002126886"><ele>21.0</ele><time>2026-04-23T14:58:45Z</time></trkpt><trkpt lat="42.27031389848939" lon="14.501972955589231"><ele>27.0</ele><time>2026-04-23T14:58:46Z</time></trkpt><trkpt lat="42.27048746190501" lon="14.501930360803502"><ele>25.333333333333332</ele><time>2026-04-23T14:58:47Z</time></trkpt><trkpt lat="42.27065918357562" lon="14.501881404630831"><ele>23.666666666666664</ele><time>2026-04-23T14:58:48Z</time></trkpt><trkpt lat="42.270832449696464" lon="14.501828997536649"><ele>22.0</ele><time>2026-04-23T14:58:49Z</time></trkpt><trkpt lat="42.27100030609693" lon="14.501770590690198"><ele>22.0</ele><time>2026-04-23T14:58:50Z</time></trkpt><trkpt lat="42.271165231554015" lon="14.501690907804202"><ele>22.0</ele><time>2026-04-23T14:58:51Z</time></trkpt><trkpt lat="42.271319975553794" lon="14.501578855888392"><ele>22.0</ele><time>2026-04-23T14:58:52Z</time></trkpt><trkpt lat="42.27161611102725" lon="14.501283585861952"><ele>23.333333333333332</ele><time>2026-04-23T14:58:54Z</time></trkpt><trkpt lat="42.27175944242114" lon="14.501122978147336"><ele>24.666666666666664</ele><time>2026-04-23T14:58:55Z</time></trkpt><trkpt lat="42.271898664489576" lon="14.500962783460098"><ele>26.0</ele><time>2026-04-23T14:58:56Z</time></trkpt><trkpt lat="42.27204102908476" lon="14.500802499838956"><ele>26.0</ele><time>2026-04-23T14:58:57Z</time></trkpt><trkpt lat="42.27218286180373" lon="14.500646803365463"><ele>26.0</ele><time>2026-04-23T14:58:58Z</time></trkpt><trkpt lat="42.27232466838426" lon="14.500491131124852"><ele>26.0</ele><time>2026-04-23T14:58:59Z</time></trkpt><trkpt lat="42.27246629529693" lon="14.50033495781937"><ele>25.0</ele><time>2026-04-23T14:59:00Z</time></trkpt><trkpt lat="42.272596686544425" lon="14.500187096757333"><ele>24.0</ele><time>2026-04-23T14:59:01Z</time></trkpt><trkpt lat="42.272708682879475" lon="14.500033037800362"><ele>23.0</ele><time>2026-04-23T14:59:02Z</time></trkpt><trkpt lat="42.27280595497566" lon="14.499859148697801"><ele>23.0</ele><time>2026-04-23T14:59:03Z</time></trkpt><trkpt lat="42.27289051474933" lon="14.49968313796462"><ele>23.0</ele><time>2026-04-23T14:59:04Z</time></trkpt><trkpt lat="42.27296255796523" lon="14.499503018406985"><ele>23.0</ele><time>2026-04-23T14:59:05Z</time></trkpt><trkpt lat="42.27303892757848" lon="14.499311329769473"><ele>20.333333333333336</ele><time>2026-04-23T14:59:06Z</time></trkpt><trkpt lat="42.27311858707508" lon="14.499111917242065"><ele>17.666666666666668</ele><time>2026-04-23T14:59:07Z</time></trkpt><trkpt lat="42.27319880136963" lon="14.49890336160003"><ele>15.0</ele><time>2026-04-23T14:59:08Z</time></trkpt><trkpt lat="42.2732757552697" lon="14.498687742253775"><ele>15.0</ele><time>2026-04-23T14:59:09Z</time></trkpt><trkpt lat="42.27335848253625" lon="14.49846198546676"><ele>15.0</ele><time>2026-04-23T14:59:10Z</time></trkpt><trkpt lat="42.273443121773795" lon="14.498229125806473"><ele>15.0</ele><time>2026-04-23T14:59:11Z</time></trkpt><trkpt lat="42.273527420044076" lon="14.497991713319175"><ele>17.0</ele><time>2026-04-23T14:59:12Z</time></trkpt><trkpt lat="42.273623363214675" lon="14.497750081437248"><ele>19.0</ele><time>2026-04-23T14:59:13Z</time></trkpt><trkpt lat="42.273690694431075" lon="14.497519866818909"><ele>21.0</ele><time>2026-04-23T14:59:14Z</time></trkpt><trkpt lat="42.27378283729919" lon="14.497297136503494"><ele>21.0</ele><time>2026-04-23T14:59:15Z</time></trkpt><trkpt lat="42.27389794485262" lon="14.49708586248812"><ele>21.0</ele><time>2026-04-23T14:59:16Z</time></trkpt><trkpt lat="42.27403591337326" lon="14.496896993815167"><ele>21.0</ele><time>2026-04-23T14:59:17Z</time></trkpt><trkpt lat="42.274187794417784" lon="14.496723512703387"><ele>20.333333333333332</ele><time>2026-04-23T14:59:18Z</time></trkpt><trkpt lat="42.274342189440574" lon="14.496539924523619"><ele>19.666666666666664</ele><time>2026-04-23T14:59:19Z</time></trkpt><trkpt lat="42.27448398408339" lon="14.496357520636609"><ele>19.0</ele><time>2026-04-23T14:59:20Z</time></trkpt><trkpt lat="42.27462532872875" lon="14.496178374345103"><ele>17.666666666666664</ele><time>2026-04-23T14:59:21Z</time></trkpt><trkpt lat="42.27476628511757" lon="14.49599986778005"><ele>16.333333333333332</ele><time>2026-04-23T14:59:22Z</time></trkpt><trkpt lat="42.27490637918985" lon="14.4958230375497"><ele>15.0</ele><time>2026-04-23T14:59:23Z</time></trkpt><trkpt lat="42.27504650958752" lon="14.49564687853137"><ele>15.0</ele><time>2026-04-23T14:59:24Z</time></trkpt><trkpt lat="42.275187478692075" lon="14.49547148989462"><ele>15.0</ele><time>2026-04-23T14:59:25Z</time></trkpt><trkpt lat="42.27532509466044" lon="14.495296429716191"><ele>15.0</ele><time>2026-04-23T14:59:26Z</time></trkpt><trkpt lat="42.275460375811996" lon="14.49512186915789"><ele>15.666666666666668</ele><time>2026-04-23T14:59:27Z</time></trkpt><trkpt lat="42.2756017234273" lon="14.494938573768376"><ele>16.333333333333336</ele><time>2026-04-23T14:59:28Z</time></trkpt><trkpt lat="42.27574339233778" lon="14.49476002542087"><ele>17.0</ele><time>2026-04-23T14:59:29Z</time></trkpt><trkpt lat="42.27588293120552" lon="14.494582103239088"><ele>17.0</ele><time>2026-04-23T14:59:30Z</time></trkpt><trkpt lat="42.276020256896636" lon="14.494397658197025"><ele>17.0</ele><time>2026-04-23T14:59:31Z</time></trkpt><trkpt lat="42.27615515651839" lon="14.494209518494447"><ele>17.0</ele><time>2026-04-23T14:59:32Z</time></trkpt><trkpt lat="42.27628908314134" lon="14.494020735409578"><ele>17.0</ele><time>2026-04-23T14:59:33Z</time></trkpt><trkpt lat="42.276422931374135" lon="14.493837976268116"><ele>17.0</ele><time>2026-04-23T14:59:34Z</time></trkpt><trkpt lat="42.27654985166526" lon="14.493662249961364"><ele>17.0</ele><time>2026-04-23T14:59:35Z</time></trkpt><trkpt lat="42.27667074567808" lon="14.493494457786772"><ele>12.666666666666668</ele><time>2026-04-23T14:59:36Z</time></trkpt><trkpt lat="42.27679590214703" lon="14.49332508410576"><ele>8.333333333333334</ele><time>2026-04-23T14:59:37Z</time></trkpt><trkpt lat="42.276907216234385" lon="14.493162985544766"><ele>4.0</ele><time>2026-04-23T14:59:38Z</time></trkpt><trkpt lat="42.277027348549794" lon="14.492996943637324"><ele>4.0</ele><time>2026-04-23T14:59:39Z</time></trkpt><trkpt lat="42.27714843789642" lon="14.492830523845031"><ele>4.0</ele><time>2026-04-23T14:59:40Z</time></trkpt><trkpt lat="42.27727350794208" lon="14.492657772600658"><ele>4.0</ele><time>2026-04-23T14:59:41Z</time></trkpt><trkpt lat="42.27739984394258" lon="14.492489000281378"><ele>4.0</ele><time>2026-04-23T14:59:42Z</time></trkpt><trkpt lat="42.277541236181655" lon="14.492323954348038"><ele>4.0</ele><time>2026-04-23T14:59:43Z</time></trkpt><trkpt lat="42.27769686904418" lon="14.492166701654915"><ele>4.0</ele><time>2026-04-23T14:59:44Z</time></trkpt><trkpt lat="42.277854640944675" lon="14.492024272773055"><ele>5.0</ele><time>2026-04-23T14:59:45Z</time></trkpt><trkpt lat="42.27801859536173" lon="14.49186973131102"><ele>6.0</ele><time>2026-04-23T14:59:46Z</time></trkpt><trkpt lat="42.27817671943233" lon="14.491718253015266"><ele>7.0</ele><time>2026-04-23T14:59:47Z</time></trkpt><trkpt lat="42.278329596073334" lon="14.491567402188673"><ele>8.0</ele><time>2026-04-23T14:59:48Z</time></trkpt><trkpt lat="42.27848004498668" lon="14.491415544486015"><ele>9.0</ele><time>2026-04-23T14:59:49Z</time></trkpt><trkpt lat="42.27863650447415" lon="14.491262831249882"><ele>10.0</ele><time>2026-04-23T14:59:50Z</time></trkpt><trkpt lat="42.27876078498266" lon="14.491140587074655"><ele>10.666666666666668</ele><time>2026-04-23T14:59:51Z</time></trkpt><trkpt lat="42.278895997966586" lon="14.490999380328297"><ele>11.333333333333334</ele><time>2026-04-23T14:59:52Z</time></trkpt><trkpt lat="42.27903799236978" lon="14.490860761077817"><ele>12.0</ele><time>2026-04-23T14:59:53Z</time></trkpt><trkpt lat="42.279184870942935" lon="14.490716916585363"><ele>12.0</ele><time>2026-04-23T14:59:54Z</time></trkpt><trkpt lat="42.27933036626283" lon="14.490563924154781"><ele>12.0</ele><time>2026-04-23T14:59:55Z</time></trkpt><trkpt lat="42.27947792711642" lon="14.490408699592912"><ele>12.0</ele><time>2026-04-23T14:59:56Z</time></trkpt><trkpt lat="42.279625544597884" lon="14.49025707613822"><ele>13.666666666666668</ele><time>2026-04-23T14:59:57Z</time></trkpt><trkpt lat="42.279772183059606" lon="14.490101415250846"><ele>15.333333333333334</ele><time>2026-04-23T14:59:58Z</time></trkpt><trkpt lat="42.27992176205355" lon="14.489946864064402"><ele>17.0</ele><time>2026-04-23T14:59:59Z</time></trkpt><trkpt lat="42.280072063332966" lon="14.48979546328731"><ele>17.0</ele><time>2026-04-23T15:00:00Z</time></trkpt><trkpt lat="42.28021406418898" lon="14.489638765537167"><ele>17.0</ele><time>2026-04-23T15:00:01Z</time></trkpt><trkpt lat="42.28035412905306" lon="14.489498520083457"><ele>17.0</ele><time>2026-04-23T15:00:02Z</time></trkpt><trkpt lat="42.28049162506666" lon="14.489365642400585"><ele>16.666666666666668</ele><time>2026-04-23T15:00:03Z</time></trkpt><trkpt lat="42.280627954019764" lon="14.489234589093618"><ele>16.333333333333332</ele><time>2026-04-23T15:00:04Z</time></trkpt><trkpt lat="42.28074842087637" lon="14.4891019206991"><ele>16.0</ele><time>2026-04-23T15:00:05Z</time></trkpt><trkpt lat="42.280854320379404" lon="14.48897318009902"><ele>16.0</ele><time>2026-04-23T15:00:06Z</time></trkpt><trkpt lat="42.28094298791842" lon="14.4888534533557"><ele>16.0</ele><time>2026-04-23T15:00:07Z</time></trkpt><trkpt lat="42.281004573346934" lon="14.488756602340905"><ele>16.0</ele><time>2026-04-23T15:00:08Z</time></trkpt><trkpt lat="42.28106219639178" lon="14.488662065632814"><ele>16.0</ele><time>2026-04-23T15:00:09Z</time></trkpt><trkpt lat="42.28111182629097" lon="14.48857557338682"><ele>16.0</ele><time>2026-04-23T15:00:10Z</time></trkpt><trkpt lat="42.281155613242674" lon="14.48849614846413"><ele>17.333333333333332</ele><time>2026-04-23T15:00:11Z</time></trkpt><trkpt lat="42.281195783230636" lon="14.488419746214689"><ele>18.666666666666664</ele><time>2026-04-23T15:00:12Z</time></trkpt><trkpt lat="42.28123844915397" lon="14.488340524676355"><ele>20.0</ele><time>2026-04-23T15:00:14Z</time></trkpt><trkpt lat="42.28128623826897" lon="14.488267264736145"><ele>21.333333333333332</ele><time>2026-04-23T15:00:23.999Z</time></trkpt><trkpt lat="42.28132377758966" lon="14.488183982435212"><ele>22.666666666666668</ele><time>2026-04-23T15:00:28.999Z</time></trkpt><trkpt lat="42.28136862115016" lon="14.488091220535846"><ele>24.0</ele><time>2026-04-23T15:00:35.999Z</time></trkpt><trkpt lat="42.28142309442318" lon="14.487996421075804"><ele>23.5</ele><time>2026-04-23T15:00:36.999Z</time></trkpt><trkpt lat="42.28147910125997" lon="14.487899452450257"><ele>23.0</ele><time>2026-04-23T15:00:37.999Z</time></trkpt><trkpt lat="42.28153331424285" lon="14.487803035686845"><ele>22.5</ele><time>2026-04-23T15:00:38.999Z</time></trkpt><trkpt lat="42.28158639808416" lon="14.487711390421309"><ele>22.0</ele><time>2026-04-23T15:00:39.999Z</time></trkpt><trkpt lat="42.28163555889372" lon="14.487629778046399"><ele>21.5</ele><time>2026-04-23T15:00:40.999Z</time></trkpt><trkpt lat="42.28168069587203" lon="14.487554524864436"><ele>21.0</ele><time>2026-04-23T15:00:41.999Z</time></trkpt><trkpt lat="42.28172414513034" lon="14.487478954173756"><ele>21.0</ele><time>2026-04-23T15:00:42.999Z</time></trkpt><trkpt lat="42.28176848999876" lon="14.487409258194567"><ele>21.0</ele><time>2026-04-23T15:00:43.999Z</time></trkpt><trkpt lat="42.281833007174704" lon="14.48736332889859"><ele>21.0</ele><time>2026-04-23T15:00:45.999Z</time></trkpt><trkpt lat="42.2818674643927" lon="14.487224455846885"><ele>21.0</ele><time>2026-04-23T15:03:19Z</time></trkpt><trkpt lat="42.28192956618376" lon="14.487126838299957"><ele>21.0</ele><time>2026-04-23T15:03:21Z</time></trkpt><trkpt lat="42.281984574132444" lon="14.48706423815234"><ele>21.0</ele><time>2026-04-23T15:03:24Z</time></trkpt><trkpt lat="42.28203224174275" lon="14.486984636785616"><ele>21.0</ele><time>2026-04-23T15:03:28Z</time></trkpt><trkpt lat="42.28196674452384" lon="14.486941466258463"><ele>21.0</ele><time>2026-04-23T15:03:32Z</time></trkpt><trkpt lat="42.28193094780543" lon="14.48704177138071"><ele>21.0</ele><time>2026-04-23T15:03:34Z</time></trkpt><trkpt lat="42.281943925244406" lon="14.487129634579691"><ele>21.0</ele><time>2026-04-23T15:03:39Z</time></trkpt><trkpt lat="42.28189995407242" lon="14.487226248133416"><ele>21.0</ele><time>2026-04-23T15:05:01Z</time></trkpt><trkpt lat="42.281864369061545" lon="14.487310701686972"><ele>21.0</ele><time>2026-04-23T15:05:04Z</time></trkpt><trkpt lat="42.28182747039235" lon="14.487386725924333"><ele>21.0</ele><time>2026-04-23T15:05:07Z</time></trkpt><trkpt lat="42.281741387054836" lon="14.487447847224232"><ele>21.0</ele><time>2026-04-23T15:05:31Z</time></trkpt><trkpt lat="42.28168803720881" lon="14.487501479018134"><ele>21.0</ele><time>2026-04-23T15:05:32Z</time></trkpt><trkpt lat="42.28162701669611" lon="14.48758753292088"><ele>21.0</ele><time>2026-04-23T15:05:33Z</time></trkpt><trkpt lat="42.28157238504646" lon="14.487677279292614"><ele>21.0</ele><time>2026-04-23T15:05:34Z</time></trkpt><trkpt lat="42.28151200906556" lon="14.487785619454852"><ele>21.0</ele><time>2026-04-23T15:05:35Z</time></trkpt><trkpt lat="42.28144769514625" lon="14.487903607689066"><ele>21.0</ele><time>2026-04-23T15:05:36Z</time></trkpt><trkpt lat="42.28138864510079" lon="14.48800689327046"><ele>21.5</ele><time>2026-04-23T15:05:37Z</time></trkpt><trkpt lat="42.281339813795775" lon="14.488088183476536"><ele>22.0</ele><time>2026-04-23T15:05:38Z</time></trkpt><trkpt lat="42.28129719421405" lon="14.488158419592144"><ele>22.5</ele><time>2026-04-23T15:05:39Z</time></trkpt><trkpt lat="42.28125425558949" lon="14.48827444236054"><ele>23.0</ele><time>2026-04-23T15:05:41Z</time></trkpt><trkpt lat="42.28130900561197" lon="14.488349534360527"><ele>23.5</ele><time>2026-04-23T15:05:44Z</time></trkpt><trkpt lat="42.28128522622643" lon="14.488237333675382"><ele>24.0</ele><time>2026-04-23T15:08:06Z</time></trkpt><trkpt lat="42.2813334393288" lon="14.488165765941481"><ele>23.999999999999996</ele><time>2026-04-23T15:08:10Z</time></trkpt><trkpt lat="42.2813825513157" lon="14.488078265658588"><ele>24.0</ele><time>2026-04-23T15:08:20Z</time></trkpt><trkpt lat="42.28143054132173" lon="14.48799883916717"><ele>24.0</ele><time>2026-04-23T15:08:22Z</time></trkpt><trkpt lat="42.28146543197458" lon="14.487926821628488"><ele>24.0</ele><time>2026-04-23T15:08:23Z</time></trkpt><trkpt lat="42.28150277864231" lon="14.487857019233429"><ele>24.0</ele><time>2026-04-23T15:08:24Z</time></trkpt><trkpt lat="42.28154389994588" lon="14.487782846784082"><ele>23.999999999999996</ele><time>2026-04-23T15:08:25Z</time></trkpt><trkpt lat="42.281582350782614" lon="14.487713723569941"><ele>24.0</ele><time>2026-04-23T15:08:26Z</time></trkpt><trkpt lat="42.28162283203662" lon="14.487640570697392"><ele>23.4</ele><time>2026-04-23T15:08:27Z</time></trkpt><trkpt lat="42.28169480425183" lon="14.487513491717538"><ele>22.799999999999997</ele><time>2026-04-23T15:08:29Z</time></trkpt><trkpt lat="42.281758540898245" lon="14.48741161413363"><ele>22.200000000000003</ele><time>2026-04-23T15:08:31Z</time></trkpt><trkpt lat="42.28181324873927" lon="14.48735773315421"><ele>21.6</ele><time>2026-04-23T15:08:34Z</time></trkpt><trkpt lat="42.28173699223061" lon="14.487430824865408"><ele>21.0</ele><time>2026-04-23T15:10:00Z</time></trkpt><trkpt lat="42.28169040952849" lon="14.487512284070137"><ele>21.0</ele><time>2026-04-23T15:10:01Z</time></trkpt><trkpt lat="42.28164331320372" lon="14.487594535007332"><ele>21.0</ele><time>2026-04-23T15:10:02Z</time></trkpt><trkpt lat="42.281463017848665" lon="14.487679909881567"><ele>21.0</ele><time>2026-04-23T15:10:03Z</time></trkpt><trkpt lat="42.28139099999091" lon="14.487798316555184"><ele>21.0</ele><time>2026-04-23T15:10:04Z</time></trkpt><trkpt lat="42.281319764760234" lon="14.48791483178985"><ele>21.75</ele><time>2026-04-23T15:10:05Z</time></trkpt><trkpt lat="42.28124348192903" lon="14.488039598750957"><ele>22.5</ele><time>2026-04-23T15:10:06Z</time></trkpt><trkpt lat="42.28116449806954" lon="14.488168782474645"><ele>23.25</ele><time>2026-04-23T15:10:07Z</time></trkpt><trkpt lat="42.28108303701182" lon="14.488295688240381"><ele>24.0</ele><time>2026-04-23T15:10:08Z</time></trkpt><trkpt lat="42.2810012554593" lon="14.488421668145378"><ele>24.0</ele><time>2026-04-23T15:10:09Z</time></trkpt><trkpt lat="42.28091593361371" lon="14.488559783426654"><ele>24.0</ele><time>2026-04-23T15:10:10Z</time></trkpt><trkpt lat="42.28083032067016" lon="14.488712402780722"><ele>24.0</ele><time>2026-04-23T15:10:11Z</time></trkpt><trkpt lat="42.280740346332635" lon="14.488850775793438"><ele>24.0</ele><time>2026-04-23T15:10:12Z</time></trkpt><trkpt lat="42.28063236917691" lon="14.488956776845443"><ele>26.333333333333336</ele><time>2026-04-23T15:10:13Z</time></trkpt><trkpt lat="42.280509931169895" lon="14.489036868715498"><ele>28.666666666666668</ele><time>2026-04-23T15:10:14Z</time></trkpt><trkpt lat="42.28033655715418" lon="14.489192753379394"><ele>31.0</ele><time>2026-04-23T15:10:15Z</time></trkpt><trkpt lat="42.28023768689899" lon="14.489326761775988"><ele>31.0</ele><time>2026-04-23T15:10:16Z</time></trkpt><trkpt lat="42.2801217129654" lon="14.489456757530668"><ele>31.0</ele><time>2026-04-23T15:10:17Z</time></trkpt><trkpt lat="42.28000318093066" lon="14.48956267865804"><ele>31.0</ele><time>2026-04-23T15:10:18Z</time></trkpt><trkpt lat="42.279868053349574" lon="14.489653473085795"><ele>31.0</ele><time>2026-04-23T15:10:19Z</time></trkpt><trkpt lat="42.2797252421829" lon="14.489748408497867"><ele>30.333333333333336</ele><time>2026-04-23T15:10:20Z</time></trkpt><trkpt lat="42.27958335626291" lon="14.489842728840989"><ele>29.666666666666664</ele><time>2026-04-23T15:10:21Z</time></trkpt><trkpt lat="42.27944008155771" lon="14.489937984974118"><ele>29.0</ele><time>2026-04-23T15:10:22Z</time></trkpt><trkpt lat="42.27942763258637" lon="14.490393692291208"><ele>23.333333333333332</ele><time>2026-04-23T15:10:23Z</time></trkpt><trkpt lat="42.27930016935358" lon="14.490523961249913"><ele>17.666666666666664</ele><time>2026-04-23T15:10:24Z</time></trkpt><trkpt lat="42.27916903696339" lon="14.490649886544428"><ele>12.0</ele><time>2026-04-23T15:10:25Z</time></trkpt><trkpt lat="42.27903604537335" lon="14.490779974419798"><ele>17.0</ele><time>2026-04-23T15:10:26Z</time></trkpt><trkpt lat="42.27891744641668" lon="14.490918425390495"><ele>22.0</ele><time>2026-04-23T15:10:27Z</time></trkpt><trkpt lat="42.278793318336554" lon="14.491053253511975"><ele>27.0</ele><time>2026-04-23T15:10:28Z</time></trkpt><trkpt lat="42.27865773735546" lon="14.491186068921492"><ele>21.333333333333332</ele><time>2026-04-23T15:10:29Z</time></trkpt><trkpt lat="42.27852324763642" lon="14.49131927596779"><ele>15.666666666666668</ele><time>2026-04-23T15:10:30Z</time></trkpt><trkpt lat="42.278393953937126" lon="14.491444733301183"><ele>10.0</ele><time>2026-04-23T15:10:31Z</time></trkpt><trkpt lat="42.278268135834246" lon="14.491563907361723"><ele>10.0</ele><time>2026-04-23T15:10:32Z</time></trkpt><trkpt lat="42.278145464379506" lon="14.491680065969783"><ele>10.0</ele><time>2026-04-23T15:10:33Z</time></trkpt><trkpt lat="42.27802877321327" lon="14.491789637133852"><ele>10.0</ele><time>2026-04-23T15:10:34Z</time></trkpt><trkpt lat="42.27791591835251" lon="14.49190141134176"><ele>10.0</ele><time>2026-04-23T15:10:35Z</time></trkpt><trkpt lat="42.27779961798368" lon="14.492013057573587"><ele>8.0</ele><time>2026-04-23T15:10:36Z</time></trkpt><trkpt lat="42.277682511224995" lon="14.492132885491953"><ele>6.0</ele><time>2026-04-23T15:10:37Z</time></trkpt><trkpt lat="42.27755776034718" lon="14.492254042615691"><ele>4.0</ele><time>2026-04-23T15:10:38Z</time></trkpt><trkpt lat="42.27743456297434" lon="14.49237814332391"><ele>4.0</ele><time>2026-04-23T15:10:39Z</time></trkpt><trkpt lat="42.27731793561592" lon="14.492513428707813"><ele>4.0</ele><time>2026-04-23T15:10:40Z</time></trkpt><trkpt lat="42.27720854284503" lon="14.492656763683664"><ele>4.0</ele><time>2026-04-23T15:10:41Z</time></trkpt><trkpt lat="42.27710067046611" lon="14.492799879163348"><ele>4.0</ele><time>2026-04-23T15:10:42Z</time></trkpt><trkpt lat="42.27699705129589" lon="14.49294013121814"><ele>4.0</ele><time>2026-04-23T15:10:43Z</time></trkpt><trkpt lat="42.27690070984932" lon="14.493074813449729"><ele>4.0</ele><time>2026-04-23T15:10:44Z</time></trkpt><trkpt lat="42.27680713922872" lon="14.493207113007017"><ele>4.0</ele><time>2026-04-23T15:10:45Z</time></trkpt><trkpt lat="42.27671513404625" lon="14.493334379926523"><ele>4.0</ele><time>2026-04-23T15:10:46Z</time></trkpt><trkpt lat="42.27662596295124" lon="14.493461044733698"><ele>4.0</ele><time>2026-04-23T15:10:47Z</time></trkpt><trkpt lat="42.276540203561645" lon="14.493587566741022"><ele>4.0</ele><time>2026-04-23T15:10:48Z</time></trkpt><trkpt lat="42.276463609875485" lon="14.493699358795105"><ele>4.0</ele><time>2026-04-23T15:10:49Z</time></trkpt><trkpt lat="42.27640275475692" lon="14.49378567421894"><ele>4.0</ele><time>2026-04-23T15:10:50Z</time></trkpt><trkpt lat="42.27635247908796" lon="14.493851736399945"><ele>3.9999999999999996</ele><time>2026-04-23T15:10:51Z</time></trkpt><trkpt lat="42.27629386388753" lon="14.49393242524793"><ele>4.0</ele><time>2026-04-23T15:10:53Z</time></trkpt><trkpt lat="42.27623565209144" lon="14.493984372763409"><ele>4.0</ele><time>2026-04-23T15:10:58Z</time></trkpt><trkpt lat="42.276296239195204" lon="14.493940298054001"><ele>3.9999999999999996</ele><time>2026-04-23T15:11:02Z</time></trkpt><trkpt lat="42.27634265880245" lon="14.49387442670841"><ele>4.0</ele><time>2026-04-23T15:11:03Z</time></trkpt><trkpt lat="42.276399095352104" lon="14.493794340923344"><ele>4.0</ele><time>2026-04-23T15:11:04Z</time></trkpt><trkpt lat="42.276536707934575" lon="14.493665822665868"><ele>4.0</ele><time>2026-04-23T15:11:05Z</time></trkpt><trkpt lat="42.276605141210204" lon="14.493570695515752"><ele>4.0</ele><time>2026-04-23T15:11:06Z</time></trkpt><trkpt lat="42.27668246686529" lon="14.493463221546854"><ele>4.0</ele><time>2026-04-23T15:11:07Z</time></trkpt><trkpt lat="42.27676367629447" lon="14.493351532747226"><ele>4.0</ele><time>2026-04-23T15:11:08Z</time></trkpt><trkpt lat="42.276847413193046" lon="14.493233203513668"><ele>4.0</ele><time>2026-04-23T15:11:09Z</time></trkpt><trkpt lat="42.27693234722501" lon="14.493113500000192"><ele>4.0</ele><time>2026-04-23T15:11:10Z</time></trkpt><trkpt lat="42.277019972303606" lon="14.492991572149375"><ele>4.0</ele><time>2026-04-23T15:11:11Z</time></trkpt><trkpt lat="42.2771120686816" lon="14.492859599910016"><ele>4.0</ele><time>2026-04-23T15:11:12Z</time></trkpt><trkpt lat="42.27720828311463" lon="14.492723872722392"><ele>4.0</ele><time>2026-04-23T15:11:13Z</time></trkpt><trkpt lat="42.277311696113415" lon="14.492586338571199"><ele>4.0</ele><time>2026-04-23T15:11:14Z</time></trkpt><trkpt lat="42.277661828098" lon="14.492499725152664"><ele>4.0</ele><time>2026-04-23T15:11:16Z</time></trkpt><trkpt lat="42.27777305492004" lon="14.492362908213451"><ele>4.0</ele><time>2026-04-23T15:11:17Z</time></trkpt><trkpt lat="42.27787751244593" lon="14.492234418953403"><ele>4.0</ele><time>2026-04-23T15:11:18Z</time></trkpt><trkpt lat="42.277971851158" lon="14.492118376464344"><ele>4.0</ele><time>2026-04-23T15:11:19Z</time></trkpt><trkpt lat="42.2779736291307" lon="14.491898885923613"><ele>4.0</ele><time>2026-04-23T15:11:20Z</time></trkpt><trkpt lat="42.278049198002506" lon="14.491819454662302"><ele>4.5</ele><time>2026-04-23T15:11:21Z</time></trkpt><trkpt lat="42.278093591658546" lon="14.491737099445407"><ele>5.0</ele><time>2026-04-23T15:11:22Z</time></trkpt><trkpt lat="42.27807071156517" lon="14.491582161927049"><ele>5.5</ele><time>2026-04-23T15:11:24Z</time></trkpt><trkpt lat="42.27796703600357" lon="14.491557469398392"><ele>6.0</ele><time>2026-04-23T15:11:26Z</time></trkpt><trkpt lat="42.27789989686267" lon="14.491497415019648"><ele>6.500000000000001</ele><time>2026-04-23T15:11:28Z</time></trkpt><trkpt lat="42.277833775756676" lon="14.49147216565778"><ele>7.0</ele><time>2026-04-23T15:11:31Z</time></trkpt><trkpt lat="42.2778890632956" lon="14.491517483875738"><ele>7.0</ele><time>2026-04-23T15:14:37Z</time></trkpt><trkpt lat="42.277855100842956" lon="14.491436195174566"><ele>6.999999999999999</ele><time>2026-04-23T15:14:42Z</time></trkpt><trkpt lat="42.27776461445003" lon="14.491395121055215"><ele>6.999999999999999</ele><time>2026-04-23T15:14:43Z</time></trkpt><trkpt lat="42.27768392284804" lon="14.491316789216423"><ele>7.0</ele><time>2026-04-23T15:14:44Z</time></trkpt><trkpt lat="42.27758539426515" lon="14.49123062707766"><ele>7.0</ele><time>2026-04-23T15:14:45Z</time></trkpt><trkpt lat="42.27749055517796" lon="14.491143257688128"><ele>6.5</ele><time>2026-04-23T15:14:46Z</time></trkpt><trkpt lat="42.27738975535845" lon="14.491048876696041"><ele>6.0</ele><time>2026-04-23T15:14:47Z</time></trkpt><trkpt lat="42.27728543269682" lon="14.490949432251828"><ele>5.5</ele><time>2026-04-23T15:14:48Z</time></trkpt><trkpt lat="42.277186007179104" lon="14.490844583405423"><ele>5.0</ele><time>2026-04-23T15:14:49Z</time></trkpt><trkpt lat="42.27711750566703" lon="14.49072048638967"><ele>5.0</ele><time>2026-04-23T15:14:50Z</time></trkpt><trkpt lat="42.27705914866631" lon="14.490600196502363"><ele>5.0</ele><time>2026-04-23T15:14:51Z</time></trkpt><trkpt lat="42.27700864881925" lon="14.490461829022511"><ele>5.0</ele><time>2026-04-23T15:14:52Z</time></trkpt><trkpt lat="42.27696848898755" lon="14.490313793094403"><ele>5.0</ele><time>2026-04-23T15:14:53Z</time></trkpt><trkpt lat="42.27693478591797" lon="14.490162454063517"><ele>5.8</ele><time>2026-04-23T15:14:54Z</time></trkpt><trkpt lat="42.276916313612105" lon="14.490006223607418"><ele>6.6</ele><time>2026-04-23T15:14:55Z</time></trkpt><trkpt lat="42.27691260551513" lon="14.489852751453999"><ele>7.4</ele><time>2026-04-23T15:14:56Z</time></trkpt><trkpt lat="42.27692047739463" lon="14.489710527743064"><ele>8.2</ele><time>2026-04-23T15:14:57Z</time></trkpt><trkpt lat="42.276926235382014" lon="14.489578123275665"><ele>9.0</ele><time>2026-04-23T15:14:58Z</time></trkpt><trkpt lat="42.27692747651139" lon="14.489445196140945"><ele>9.5</ele><time>2026-04-23T15:14:59Z</time></trkpt><trkpt lat="42.27692824153551" lon="14.48930561468725"><ele>10.0</ele><time>2026-04-23T15:15:00Z</time></trkpt><trkpt lat="42.276927050612635" lon="14.489157398427682"><ele>10.5</ele><time>2026-04-23T15:15:01Z</time></trkpt><trkpt lat="42.27692763301957" lon="14.489000194764385"><ele>11.0</ele><time>2026-04-23T15:15:02Z</time></trkpt><trkpt lat="42.276922958041126" lon="14.488836299546575"><ele>11.75</ele><time>2026-04-23T15:15:03Z</time></trkpt><trkpt lat="42.27690687178564" lon="14.488666626926248"><ele>12.5</ele><time>2026-04-23T15:15:04Z</time></trkpt><trkpt lat="42.27688380006819" lon="14.488498133059343"><ele>13.25</ele><time>2026-04-23T15:15:05Z</time></trkpt><trkpt lat="42.27685368852803" lon="14.488336301012142"><ele>14.0</ele><time>2026-04-23T15:15:06Z</time></trkpt><trkpt lat="42.27681368794695" lon="14.488192193278396"><ele>14.0</ele><time>2026-04-23T15:15:07Z</time></trkpt><trkpt lat="42.276760574827364" lon="14.488068477210124"><ele>13.999999999999998</ele><time>2026-04-23T15:15:08Z</time></trkpt><trkpt lat="42.27668775955644" lon="14.487961945239801"><ele>13.999999999999998</ele><time>2026-04-23T15:15:09Z</time></trkpt><trkpt lat="42.27660057169046" lon="14.487869436697713"><ele>14.0</ele><time>2026-04-23T15:15:10Z</time></trkpt><trkpt lat="42.27650271228188" lon="14.487782677216934"><ele>14.0</ele><time>2026-04-23T15:15:11Z</time></trkpt><trkpt lat="42.276404430781504" lon="14.487701060175082"><ele>13.0</ele><time>2026-04-23T15:15:12Z</time></trkpt><trkpt lat="42.27630622911789" lon="14.487620094495831"><ele>12.0</ele><time>2026-04-23T15:15:13Z</time></trkpt><trkpt lat="42.2762035854906" lon="14.487546211594958"><ele>11.0</ele><time>2026-04-23T15:15:14Z</time></trkpt><trkpt lat="42.27609353028551" lon="14.487492024302366"><ele>10.0</ele><time>2026-04-23T15:15:15Z</time></trkpt><trkpt lat="42.275970372385984" lon="14.487486997390885"><ele>10.0</ele><time>2026-04-23T15:15:16Z</time></trkpt><trkpt lat="42.27583510452966" lon="14.487499155925674"><ele>10.0</ele><time>2026-04-23T15:15:17Z</time></trkpt><trkpt lat="42.27569134529021" lon="14.487512686274759"><ele>10.0</ele><time>2026-04-23T15:15:18Z</time></trkpt><trkpt lat="42.275542361420875" lon="14.48752700335637"><ele>10.0</ele><time>2026-04-23T15:15:19Z</time></trkpt><trkpt lat="42.27539173001701" lon="14.487544156971172"><ele>10.666666666666668</ele><time>2026-04-23T15:15:20Z</time></trkpt><trkpt lat="42.27524029908657" lon="14.487559818508617"><ele>11.333333333333334</ele><time>2026-04-23T15:15:21Z</time></trkpt><trkpt lat="42.2750912168634" lon="14.487569271827077"><ele>12.0</ele><time>2026-04-23T15:15:22Z</time></trkpt><trkpt lat="42.27494188900947" lon="14.487582804407904"><ele>12.0</ele><time>2026-04-23T15:15:23Z</time></trkpt><trkpt lat="42.274800386247634" lon="14.487605153507818"><ele>12.0</ele><time>2026-04-23T15:15:24Z</time></trkpt><trkpt lat="42.274676088549576" lon="14.48762108349852"><ele>12.0</ele><time>2026-04-23T15:15:25Z</time></trkpt><trkpt lat="42.27456156770475" lon="14.487633528149049"><ele>12.0</ele><time>2026-04-23T15:15:26Z</time></trkpt><trkpt lat="42.274458606005965" lon="14.487645750724257"><ele>12.6</ele><time>2026-04-23T15:15:27Z</time></trkpt><trkpt lat="42.274368071100135" lon="14.487651165096736"><ele>13.2</ele><time>2026-04-23T15:15:28Z</time></trkpt><trkpt lat="42.27429326730866" lon="14.487662860167626"><ele>13.8</ele><time>2026-04-23T15:15:29Z</time></trkpt><trkpt lat="42.27419954732217" lon="14.48766550744106"><ele>14.4</ele><time>2026-04-23T15:15:31Z</time></trkpt><trkpt lat="42.27421000498398" lon="14.48788065469291"><ele>15.0</ele><time>2026-04-23T15:15:33Z</time></trkpt><trkpt lat="42.27422837131454" lon="14.487986147818198"><ele>15.0</ele><time>2026-04-23T15:15:34Z</time></trkpt><trkpt lat="42.27426705909037" lon="14.488107210977859"><ele>15.0</ele><time>2026-04-23T15:15:35Z</time></trkpt><trkpt lat="42.27430979591939" lon="14.488219436463584"><ele>15.0</ele><time>2026-04-23T15:15:36Z</time></trkpt><trkpt lat="42.27436372563061" lon="14.488350013924657"><ele>15.0</ele><time>2026-04-23T15:15:37Z</time></trkpt><trkpt lat="42.2744068069109" lon="14.488499057150552"><ele>15.0</ele><time>2026-04-23T15:15:38Z</time></trkpt><trkpt lat="42.27443369885076" lon="14.488662018794576"><ele>14.25</ele><time>2026-04-23T15:15:39Z</time></trkpt><trkpt lat="42.27445323170544" lon="14.488831823692816"><ele>13.5</ele><time>2026-04-23T15:15:40Z</time></trkpt><trkpt lat="42.274473422103725" lon="14.48901032150518"><ele>12.75</ele><time>2026-04-23T15:15:41Z</time></trkpt><trkpt lat="42.274493289092575" lon="14.489191949918903"><ele>12.0</ele><time>2026-04-23T15:15:42Z</time></trkpt><trkpt lat="42.274512858954765" lon="14.489380447766878"><ele>12.0</ele><time>2026-04-23T15:15:43Z</time></trkpt><trkpt lat="42.27453157338023" lon="14.48956798995754"><ele>12.0</ele><time>2026-04-23T15:15:44Z</time></trkpt><trkpt lat="42.27455189387918" lon="14.489746822292503"><ele>12.0</ele><time>2026-04-23T15:15:45Z</time></trkpt><trkpt lat="42.27458904808211" lon="14.489909786748015"><ele>12.0</ele><time>2026-04-23T15:15:46Z</time></trkpt><trkpt lat="42.274680721923346" lon="14.4900358257996"><ele>12.0</ele><time>2026-04-23T15:15:47Z</time></trkpt><trkpt lat="42.27475301701296" lon="14.490193328552682"><ele>12.0</ele><time>2026-04-23T15:15:48Z</time></trkpt><trkpt lat="42.274843665753494" lon="14.490351302736581"><ele>12.0</ele><time>2026-04-23T15:15:49Z</time></trkpt><trkpt lat="42.274941242593414" lon="14.490518271332768"><ele>12.0</ele><time>2026-04-23T15:15:50Z</time></trkpt><trkpt lat="42.27505139777788" lon="14.490676068596738"><ele>10.0</ele><time>2026-04-23T15:15:51Z</time></trkpt><trkpt lat="42.27516948132584" lon="14.490813345369691"><ele>8.0</ele><time>2026-04-23T15:15:52Z</time></trkpt><trkpt lat="42.27529711476196" lon="14.49093036200113"><ele>6.0</ele><time>2026-04-23T15:15:53Z</time></trkpt><trkpt lat="42.275423854003236" lon="14.491025409892316"><ele>6.0</ele><time>2026-04-23T15:15:54Z</time></trkpt><trkpt lat="42.27554695354526" lon="14.49111525223701"><ele>6.0</ele><time>2026-04-23T15:15:55Z</time></trkpt><trkpt lat="42.275663827031536" lon="14.491200550560205"><ele>6.0</ele><time>2026-04-23T15:15:56Z</time></trkpt><trkpt lat="42.27576558453678" lon="14.491292535551942"><ele>6.0</ele><time>2026-04-23T15:15:57Z</time></trkpt><trkpt lat="42.275853954797256" lon="14.491406395105567"><ele>5.75</ele><time>2026-04-23T15:15:58Z</time></trkpt><trkpt lat="42.2759396234433" lon="14.491529342317975"><ele>5.5</ele><time>2026-04-23T15:15:59Z</time></trkpt><trkpt lat="42.276023579379505" lon="14.491651251253296"><ele>5.25</ele><time>2026-04-23T15:16:00Z</time></trkpt><trkpt lat="42.27610578119834" lon="14.491770613137849"><ele>5.0</ele><time>2026-04-23T15:16:01Z</time></trkpt><trkpt lat="42.27618555460542" lon="14.491886448813617"><ele>5.0</ele><time>2026-04-23T15:16:02Z</time></trkpt><trkpt lat="42.276260934520785" lon="14.49199410117179"><ele>5.0</ele><time>2026-04-23T15:16:03Z</time></trkpt><trkpt lat="42.27632607025596" lon="14.492085223909045"><ele>5.0</ele><time>2026-04-23T15:16:04Z</time></trkpt><trkpt lat="42.27638491857674" lon="14.492151436628255"><ele>5.0</ele><time>2026-04-23T15:16:05Z</time></trkpt><trkpt lat="42.27645200539354" lon="14.492222797098904"><ele>5.0</ele><time>2026-04-23T15:16:06Z</time></trkpt><trkpt lat="42.27650739912935" lon="14.492283383327521"><ele>5.0</ele><time>2026-04-23T15:16:07Z</time></trkpt><trkpt lat="42.27655723196667" lon="14.492346288727067"><ele>4.833333333333334</ele><time>2026-04-23T15:16:08Z</time></trkpt><trkpt lat="42.27660001628502" lon="14.492416384255455"><ele>4.666666666666667</ele><time>2026-04-23T15:16:09Z</time></trkpt><trkpt lat="42.27664380459022" lon="14.492502973318206"><ele>4.5</ele><time>2026-04-23T15:16:10Z</time></trkpt><trkpt lat="42.276689441005274" lon="14.492602252459786"><ele>4.333333333333333</ele><time>2026-04-23T15:16:11Z</time></trkpt><trkpt lat="42.27673670045554" lon="14.492703561932094"><ele>4.166666666666666</ele><time>2026-04-23T15:16:12Z</time></trkpt><trkpt lat="42.27677365446849" lon="14.49278736480847"><ele>4.0</ele><time>2026-04-23T15:16:13Z</time></trkpt><trkpt lat="42.27683236134616" lon="14.492904778010761"><ele>3.9999999999999996</ele><time>2026-04-23T15:16:15Z</time></trkpt><trkpt lat="42.27690705096535" lon="14.49296377687279"><ele>4.0</ele><time>2026-04-23T15:16:17Z</time></trkpt><trkpt lat="42.27695398248497" lon="14.493046196708702"><ele>4.0</ele><time>2026-04-23T15:16:19Z</time></trkpt><trkpt lat="42.277007351820856" lon="14.493140914484536"><ele>4.0</ele><time>2026-04-23T15:16:21Z</time></trkpt><trkpt lat="42.27708808652859" lon="14.493152288564557"><ele>3.9999999999999996</ele><time>2026-04-23T15:16:24Z</time></trkpt><trkpt lat="42.277172043311346" lon="14.493088770501618"><ele>4.0</ele><time>2026-04-23T15:16:26Z</time></trkpt><trkpt lat="42.27724104360907" lon="14.49300341397221"><ele>4.0</ele><time>2026-04-23T15:16:28Z</time></trkpt><trkpt lat="42.277302256968234" lon="14.492915450047077"><ele>4.0</ele><time>2026-04-23T15:16:30Z</time></trkpt><trkpt lat="42.2773708714709" lon="14.492830648858853"><ele>4.0</ele><time>2026-04-23T15:16:32Z</time></trkpt><trkpt lat="42.27745683254639" lon="14.49275188457464"><ele>4.0</ele><time>2026-04-23T15:16:34Z</time></trkpt><trkpt lat="42.27753517648673" lon="14.492655515833986"><ele>4.0</ele><time>2026-04-23T15:16:36Z</time></trkpt><trkpt lat="42.2775998656883" lon="14.492548015707005"><ele>4.0</ele><time>2026-04-23T15:16:38Z</time></trkpt><trkpt lat="42.27768108750136" lon="14.492466117849135"><ele>4.0</ele><time>2026-04-23T15:16:40Z</time></trkpt><trkpt lat="42.27774393955125" lon="14.492375469561821"><ele>4.0</ele><time>2026-04-23T15:16:42Z</time></trkpt><trkpt lat="42.27781211400367" lon="14.492315198864356"><ele>4.0</ele><time>2026-04-23T15:16:44Z</time></trkpt><trkpt lat="42.27786051826828" lon="14.492255322870719"><ele>4.0</ele><time>2026-04-23T15:16:47.001Z</time></trkpt><trkpt lat="42.277971585507196" lon="14.49211870325715"><ele>4.0</ele><time>2026-04-23T15:17:53.001Z</time></trkpt><trkpt lat="42.27808290005147" lon="14.49215537421908"><ele>4.0</ele><time>2026-04-23T15:17:54.001Z</time></trkpt><trkpt lat="42.2781791008416" lon="14.4920389195977"><ele>4.0</ele><time>2026-04-23T15:17:56.001Z</time></trkpt><trkpt lat="42.278230081341064" lon="14.491975140917713"><ele>4.0</ele><time>2026-04-23T15:17:57.001Z</time></trkpt><trkpt lat="42.27828831889413" lon="14.491911922711196"><ele>4.0</ele><time>2026-04-23T15:17:58.001Z</time></trkpt><trkpt lat="42.278343574238555" lon="14.491854501849298"><ele>5.0</ele><time>2026-04-23T15:17:59.001Z</time></trkpt><trkpt lat="42.278397067921354" lon="14.491796987499923"><ele>6.0</ele><time>2026-04-23T15:18:00.001Z</time></trkpt><trkpt lat="42.27844710826937" lon="14.491745166150197"><ele>7.0</ele><time>2026-04-23T15:18:01.001Z</time></trkpt><trkpt lat="42.278543729613524" lon="14.491650179734844"><ele>8.0</ele><time>2026-04-23T15:18:03.001Z</time></trkpt><trkpt lat="42.278642087407505" lon="14.491553742919061"><ele>9.0</ele><time>2026-04-23T15:18:05.001Z</time></trkpt><trkpt lat="42.27869499461562" lon="14.49150760239573"><ele>10.0</ele><time>2026-04-23T15:18:06.001Z</time></trkpt><trkpt lat="42.2787875970314" lon="14.491426393751873"><ele>10.0</ele><time>2026-04-23T15:18:08.001Z</time></trkpt><trkpt lat="42.27889294140004" lon="14.49134080648025"><ele>10.0</ele><time>2026-04-23T15:18:10.001Z</time></trkpt><trkpt lat="42.27894774005416" lon="14.49129777135708"><ele>10.0</ele><time>2026-04-23T15:18:11.001Z</time></trkpt><trkpt lat="42.279054828939984" lon="14.491211100450982"><ele>10.0</ele><time>2026-04-23T15:18:13.001Z</time></trkpt><trkpt lat="42.279109748235726" lon="14.491168705370354"><ele>10.0</ele><time>2026-04-23T15:18:14.001Z</time></trkpt><trkpt lat="42.279165691638475" lon="14.491127808584649"><ele>10.0</ele><time>2026-04-23T15:18:15.001Z</time></trkpt><trkpt lat="42.27922266372191" lon="14.491087757608232"><ele>10.5</ele><time>2026-04-23T15:18:16.001Z</time></trkpt><trkpt lat="42.27933027190348" lon="14.491015990421793"><ele>11.0</ele><time>2026-04-23T15:18:18.001Z</time></trkpt><trkpt lat="42.27943131799795" lon="14.490947514528086"><ele>11.5</ele><time>2026-04-23T15:18:20.001Z</time></trkpt><trkpt lat="42.27953220689853" lon="14.490880145113605"><ele>12.0</ele><time>2026-04-23T15:18:22.001Z</time></trkpt><trkpt lat="42.27963378840876" lon="14.490814024820011"><ele>12.0</ele><time>2026-04-23T15:18:24.001Z</time></trkpt><trkpt lat="42.27973655697492" lon="14.490743282066363"><ele>12.0</ele><time>2026-04-23T15:18:26.001Z</time></trkpt><trkpt lat="42.27984092502248" lon="14.490670522461103"><ele>12.0</ele><time>2026-04-23T15:18:28.001Z</time></trkpt><trkpt lat="42.27993283515266" lon="14.490611911970724"><ele>12.0</ele><time>2026-04-23T15:18:30.001Z</time></trkpt><trkpt lat="42.280010355934735" lon="14.49055953325618"><ele>12.0</ele><time>2026-04-23T15:18:32.001Z</time></trkpt><trkpt lat="42.280092557464116" lon="14.490506514944517"><ele>12.833333333333334</ele><time>2026-04-23T15:18:34.001Z</time></trkpt><trkpt lat="42.28016670539141" lon="14.490454012177779"><ele>13.666666666666668</ele><time>2026-04-23T15:18:36.001Z</time></trkpt><trkpt lat="42.280231462994315" lon="14.49040871612661"><ele>14.5</ele><time>2026-04-23T15:18:38.001Z</time></trkpt><trkpt lat="42.280307081159066" lon="14.490360819903525"><ele>15.333333333333334</ele><time>2026-04-23T15:18:40.001Z</time></trkpt><trkpt lat="42.280388317436376" lon="14.4903088243597"><ele>16.166666666666668</ele><time>2026-04-23T15:18:42.001Z</time></trkpt><trkpt lat="42.280471038498305" lon="14.490249725947836"><ele>17.0</ele><time>2026-04-23T15:18:44.001Z</time></trkpt><trkpt lat="42.2805508221924" lon="14.490187778460577"><ele>15.500000000000002</ele><time>2026-04-23T15:18:46.001Z</time></trkpt><trkpt lat="42.280615413785505" lon="14.490136414497515"><ele>14.0</ele><time>2026-04-23T15:18:48.001Z</time></trkpt><trkpt lat="42.28068408570869" lon="14.490084218882703"><ele>12.5</ele><time>2026-04-23T15:18:50.001Z</time></trkpt><trkpt lat="42.280765453819626" lon="14.490017403652683"><ele>11.0</ele><time>2026-04-23T15:18:52.001Z</time></trkpt><trkpt lat="42.280845918780905" lon="14.489943276509692"><ele>9.5</ele><time>2026-04-23T15:18:54.001Z</time></trkpt><trkpt lat="42.28091340253882" lon="14.48987924168317"><ele>8.0</ele><time>2026-04-23T15:18:56.001Z</time></trkpt><trkpt lat="42.28097048573486" lon="14.489826883914276"><ele>8.0</ele><time>2026-04-23T15:18:58.001Z</time></trkpt><trkpt lat="42.28102488026513" lon="14.489773511367032"><ele>7.999999999999999</ele><time>2026-04-23T15:19:00.001Z</time></trkpt><trkpt lat="42.28108545111917" lon="14.48971072626487"><ele>8.0</ele><time>2026-04-23T15:19:02.001Z</time></trkpt><trkpt lat="42.281154476404474" lon="14.489640379855786"><ele>8.0</ele><time>2026-04-23T15:19:04.001Z</time></trkpt><trkpt lat="42.281219225032785" lon="14.489572036640974"><ele>7.999999999999999</ele><time>2026-04-23T15:19:06.001Z</time></trkpt><trkpt lat="42.281273967461395" lon="14.489515110383124"><ele>8.0</ele><time>2026-04-23T15:19:08.001Z</time></trkpt><trkpt lat="42.281323142545205" lon="14.489458964861413"><ele>8.0</ele><time>2026-04-23T15:19:10.001Z</time></trkpt><trkpt lat="42.28139801272097" lon="14.489395684017955"><ele>7.666666666666666</ele><time>2026-04-23T15:19:13.001Z</time></trkpt><trkpt lat="42.28145113255362" lon="14.489333687881324"><ele>7.333333333333333</ele><time>2026-04-23T15:19:15.001Z</time></trkpt><trkpt lat="42.28149603385967" lon="14.489252720792539"><ele>7.0</ele><time>2026-04-23T15:19:17.001Z</time></trkpt><trkpt lat="42.28154279025959" lon="14.489193071850185"><ele>6.666666666666666</ele><time>2026-04-23T15:19:19.001Z</time></trkpt><trkpt lat="42.28160777273382" lon="14.48910513242719"><ele>6.333333333333333</ele><time>2026-04-23T15:19:22.001Z</time></trkpt><trkpt lat="42.28165997944812" lon="14.489038691231226"><ele>6.0</ele><time>2026-04-23T15:19:24.001Z</time></trkpt><trkpt lat="42.28172437673707" lon="14.488957319740589"><ele>6.0</ele><time>2026-04-23T15:19:27.001Z</time></trkpt><trkpt lat="42.28177666990301" lon="14.488884039713465"><ele>6.0</ele><time>2026-04-23T15:19:30.001Z</time></trkpt><trkpt lat="42.28182692016607" lon="14.488817355302832"><ele>6.0</ele><time>2026-04-23T15:19:34.001Z</time></trkpt><trkpt lat="42.2818901266144" lon="14.488791205699401"><ele>6.0</ele><time>2026-04-23T15:20:49.001Z</time></trkpt><trkpt lat="42.28192340121954" lon="14.488710570282155"><ele>13.0</ele><time>2026-04-23T15:20:51.001Z</time></trkpt><trkpt lat="42.281974925401535" lon="14.488652420728545"><ele>13.0</ele><time>2026-04-23T15:20:54.001Z</time></trkpt><trkpt lat="42.282052900697494" lon="14.488701860801797"><ele>13.0</ele><time>2026-04-23T15:21:05.001Z</time></trkpt></trkseg></trk></gpx>